<?xml version="1.0" encoding="utf-8"?>
<gpx version="1.1" creator="com.bodunov.galileo/v5.9.2" xmlns:xsi="http://www.w3.org/2001/XMLSchema-instance" xmlns="http://www.topografix.com/GPX/1/1" xmlns:gom="https://gurumaps.app/gpx/v3" xsi:schemaLocation="http://www.topografix.com/GPX/1/1 http://www.topografix.com/GPX/1/1/gpx.xsd https://gurumaps.app/gpx/v3 https://gurumaps.app/gpx/v3/schema.xsd">
 <trk>
  <type>TrackStyle_2196F3C8</type>
  <extensions>
   <gom:time>2026-04-25T14:01:56.754Z</gom:time>
   <line xmlns="http://www.topografix.com/GPX/gpx_style/0/2">
    <color>2196F3</color>
   </line>
  </extensions>
  <trkseg>
   <trkpt lat="59.1068825053" lon="29.9804960028"><ele>89.954</ele><time>2026-04-25T14:01:58.000Z</time><hdop>3.687</hdop><vdop>3.687</vdop><extensions><gom:speed>0.0</gom:speed></extensions></trkpt>
   <trkpt lat="59.1068825053" lon="29.9804960028"><ele>89.985</ele><time>2026-04-25T14:01:59.000Z</time><hdop>3.687</hdop><vdop>3.687</vdop><extensions><gom:speed>0.0</gom:speed></extensions></trkpt>
   <trkpt lat="59.1068825053" lon="29.9804960028"><ele>90.003</ele><time>2026-04-25T14:02:00.000Z</time><hdop>3.687</hdop><vdop>3.687</vdop><extensions><gom:speed>0.0</gom:speed></extensions></trkpt>
   <trkpt lat="59.1068821281" lon="29.9804965057"><ele>90.054</ele><time>2026-04-25T14:02:01.000Z</time><hdop>3.187</hdop><vdop>3.187</vdop><extensions><gom:speed>0.248</gom:speed></extensions></trkpt>
   <trkpt lat="59.1068815833" lon="29.9805017863"><ele>90.174</ele><time>2026-04-25T14:02:02.000Z</time><hdop>4.375</hdop><vdop>4.375</vdop><extensions><gom:speed>0.375</gom:speed></extensions></trkpt>
   <trkpt lat="59.1068815833" lon="29.9805017863"><ele>90.245</ele><time>2026-04-25T14:02:03.000Z</time><hdop>4.375</hdop><vdop>4.375</vdop><extensions><gom:speed>0.0</gom:speed></extensions></trkpt>
   <trkpt lat="59.1068815833" lon="29.9805017863"><ele>90.288</ele><time>2026-04-25T14:02:04.000Z</time><hdop>4.375</hdop><vdop>4.375</vdop><extensions><gom:speed>0.0</gom:speed></extensions></trkpt>
   <trkpt lat="59.1068815833" lon="29.9805017863"><ele>90.313</ele><time>2026-04-25T14:02:05.000Z</time><hdop>4.375</hdop><vdop>4.375</vdop><extensions><gom:speed>0.0</gom:speed></extensions></trkpt>
   <trkpt lat="59.1068815833" lon="29.9805017863"><ele>90.328</ele><time>2026-04-25T14:02:06.000Z</time><hdop>4.375</hdop><vdop>4.375</vdop><extensions><gom:speed>0.0</gom:speed></extensions></trkpt>
   <trkpt lat="59.1068815833" lon="29.9805017863"><ele>90.338</ele><time>2026-04-25T14:02:07.000Z</time><hdop>4.375</hdop><vdop>4.375</vdop><extensions><gom:speed>0.0</gom:speed></extensions></trkpt>
   <trkpt lat="59.1068815833" lon="29.9805017863"><ele>90.343</ele><time>2026-04-25T14:02:07.000Z</time><hdop>4.375</hdop><vdop>4.375</vdop><extensions><gom:speed>0.0</gom:speed></extensions></trkpt>
   <trkpt lat="59.106880787" lon="29.9805029598"><ele>90.311</ele><time>2026-04-25T14:02:08.000Z</time><hdop>4.687</hdop><vdop>4.687</vdop><extensions><gom:speed>0.364</gom:speed></extensions></trkpt>
   <trkpt lat="59.106880787" lon="29.9805029598"><ele>90.292</ele><time>2026-04-25T14:02:09.000Z</time><hdop>4.875</hdop><vdop>4.875</vdop><extensions><gom:speed>0.0</gom:speed></extensions></trkpt>
   <trkpt lat="59.106880787" lon="29.9805029598"><ele>90.281</ele><time>2026-04-25T14:02:10.000Z</time><hdop>4.875</hdop><vdop>4.875</vdop><extensions><gom:speed>0.0</gom:speed></extensions></trkpt>
   <trkpt lat="59.106880787" lon="29.9805029598"><ele>90.274</ele><time>2026-04-25T14:02:11.000Z</time><hdop>4.875</hdop><vdop>4.875</vdop><extensions><gom:speed>0.0</gom:speed></extensions></trkpt>
   <trkpt lat="59.106880787" lon="29.9805029598"><ele>90.27</ele><time>2026-04-25T14:02:12.000Z</time><hdop>4.875</hdop><vdop>4.875</vdop><extensions><gom:speed>0.0</gom:speed></extensions></trkpt>
   <trkpt lat="59.106880787" lon="29.9805029598"><ele>90.267</ele><time>2026-04-25T14:02:13.000Z</time><hdop>4.875</hdop><vdop>4.875</vdop><extensions><gom:speed>0.0</gom:speed></extensions></trkpt>
   <trkpt lat="59.106880787" lon="29.9805029598"><ele>90.266</ele><time>2026-04-25T14:02:14.000Z</time><hdop>4.875</hdop><vdop>4.875</vdop><extensions><gom:speed>0.0</gom:speed></extensions></trkpt>
   <trkpt lat="59.106880787" lon="29.9805029598"><ele>90.265</ele><time>2026-04-25T14:02:15.000Z</time><hdop>4.875</hdop><vdop>4.875</vdop><extensions><gom:speed>0.0</gom:speed></extensions></trkpt>
   <trkpt lat="59.106880787" lon="29.9805029598"><ele>90.265</ele><time>2026-04-25T14:02:16.000Z</time><hdop>4.875</hdop><vdop>4.875</vdop><extensions><gom:speed>0.0</gom:speed></extensions></trkpt>
   <trkpt lat="59.106880787" lon="29.9805029598"><ele>90.264</ele><time>2026-04-25T14:02:17.000Z</time><hdop>4.875</hdop><vdop>4.875</vdop><extensions><gom:speed>0.0</gom:speed></extensions></trkpt>
   <trkpt lat="59.106880787" lon="29.9805029598"><ele>90.264</ele><time>2026-04-25T14:02:18.000Z</time><hdop>4.875</hdop><vdop>4.875</vdop><extensions><gom:speed>0.0</gom:speed></extensions></trkpt>
   <trkpt lat="59.106880787" lon="29.9805029598"><ele>90.264</ele><time>2026-04-25T14:02:19.000Z</time><hdop>4.875</hdop><vdop>4.875</vdop><extensions><gom:speed>0.0</gom:speed></extensions></trkpt>
   <trkpt lat="59.106880787" lon="29.9805029598"><ele>90.264</ele><time>2026-04-25T14:02:20.000Z</time><hdop>4.875</hdop><vdop>4.875</vdop><extensions><gom:speed>0.0</gom:speed></extensions></trkpt>
   <trkpt lat="59.106880787" lon="29.9805029598"><ele>90.264</ele><time>2026-04-25T14:02:21.000Z</time><hdop>4.875</hdop><vdop>4.875</vdop><extensions><gom:speed>0.0</gom:speed></extensions></trkpt>
   <trkpt lat="59.106880787" lon="29.9805029598"><ele>90.264</ele><time>2026-04-25T14:02:22.000Z</time><hdop>4.875</hdop><vdop>4.875</vdop><extensions><gom:speed>0.0</gom:speed></extensions></trkpt>
   <trkpt lat="59.106880787" lon="29.9805029598"><ele>90.264</ele><time>2026-04-25T14:02:23.000Z</time><hdop>4.875</hdop><vdop>4.875</vdop><extensions><gom:speed>0.0</gom:speed></extensions></trkpt>
   <trkpt lat="59.106880787" lon="29.9805029598"><ele>90.264</ele><time>2026-04-25T14:02:24.000Z</time><hdop>4.875</hdop><vdop>4.875</vdop><extensions><gom:speed>0.0</gom:speed></extensions></trkpt>
   <trkpt lat="59.106880787" lon="29.9805029598"><ele>90.264</ele><time>2026-04-25T14:02:25.000Z</time><hdop>4.875</hdop><vdop>4.875</vdop><extensions><gom:speed>0.0</gom:speed></extensions></trkpt>
   <trkpt lat="59.106880787" lon="29.9805029598"><ele>90.264</ele><time>2026-04-25T14:02:26.000Z</time><hdop>4.875</hdop><vdop>4.875</vdop><extensions><gom:speed>0.0</gom:speed></extensions></trkpt>
   <trkpt lat="59.106880787" lon="29.9805029598"><ele>90.264</ele><time>2026-04-25T14:02:26.000Z</time><hdop>4.875</hdop><vdop>4.875</vdop><extensions><gom:speed>0.0</gom:speed></extensions></trkpt>
   <trkpt lat="59.106880787" lon="29.9805029598"><ele>90.264</ele><time>2026-04-25T14:02:27.000Z</time><hdop>4.875</hdop><vdop>4.875</vdop><extensions><gom:speed>0.0</gom:speed></extensions></trkpt>
   <trkpt lat="59.106880787" lon="29.9805029598"><ele>90.264</ele><time>2026-04-25T14:02:28.000Z</time><hdop>4.875</hdop><vdop>4.875</vdop><extensions><gom:speed>0.0</gom:speed></extensions></trkpt>
   <trkpt lat="59.106880787" lon="29.9805029598"><ele>90.264</ele><time>2026-04-25T14:02:29.000Z</time><hdop>4.875</hdop><vdop>4.875</vdop><extensions><gom:speed>0.0</gom:speed></extensions></trkpt>
   <trkpt lat="59.106880787" lon="29.9805029598"><ele>90.264</ele><time>2026-04-25T14:02:29.000Z</time><hdop>4.875</hdop><vdop>4.875</vdop><extensions><gom:speed>0.0</gom:speed></extensions></trkpt>
   <trkpt lat="59.106880787" lon="29.9805029598"><ele>90.264</ele><time>2026-04-25T14:02:30.000Z</time><hdop>4.875</hdop><vdop>4.875</vdop><extensions><gom:speed>0.0</gom:speed></extensions></trkpt>
   <trkpt lat="59.106880787" lon="29.9805029598"><ele>90.264</ele><time>2026-04-25T14:02:31.000Z</time><hdop>4.875</hdop><vdop>4.875</vdop><extensions><gom:speed>0.0</gom:speed></extensions></trkpt>
   <trkpt lat="59.106880787" lon="29.9805029598"><ele>90.264</ele><time>2026-04-25T14:02:31.000Z</time><hdop>4.875</hdop><vdop>4.875</vdop><extensions><gom:speed>0.0</gom:speed></extensions></trkpt>
   <trkpt lat="59.106880787" lon="29.9805029598"><ele>90.264</ele><time>2026-04-25T14:02:32.000Z</time><hdop>4.875</hdop><vdop>4.875</vdop><extensions><gom:speed>0.0</gom:speed></extensions></trkpt>
   <trkpt lat="59.106880787" lon="29.9805029598"><ele>90.264</ele><time>2026-04-25T14:02:33.000Z</time><hdop>4.875</hdop><vdop>4.875</vdop><extensions><gom:speed>0.0</gom:speed></extensions></trkpt>
   <trkpt lat="59.106880787" lon="29.9805029598"><ele>90.264</ele><time>2026-04-25T14:02:34.000Z</time><hdop>4.875</hdop><vdop>4.875</vdop><extensions><gom:speed>0.0</gom:speed></extensions></trkpt>
   <trkpt lat="59.106880787" lon="29.9805029598"><ele>90.264</ele><time>2026-04-25T14:02:35.000Z</time><hdop>4.875</hdop><vdop>4.875</vdop><extensions><gom:speed>0.0</gom:speed></extensions></trkpt>
   <trkpt lat="59.106880787" lon="29.9805029598"><ele>90.264</ele><time>2026-04-25T14:02:36.000Z</time><hdop>4.875</hdop><vdop>4.875</vdop><extensions><gom:speed>0.0</gom:speed></extensions></trkpt>
   <trkpt lat="59.106880787" lon="29.9805029598"><ele>90.264</ele><time>2026-04-25T14:02:37.000Z</time><hdop>4.875</hdop><vdop>4.875</vdop><extensions><gom:speed>0.0</gom:speed></extensions></trkpt>
   <trkpt lat="59.106880787" lon="29.9805029598"><ele>90.264</ele><time>2026-04-25T14:02:38.000Z</time><hdop>4.875</hdop><vdop>4.875</vdop><extensions><gom:speed>0.0</gom:speed></extensions></trkpt>
   <trkpt lat="59.106880787" lon="29.9805029598"><ele>90.264</ele><time>2026-04-25T14:02:39.000Z</time><hdop>4.875</hdop><vdop>4.875</vdop><extensions><gom:speed>0.0</gom:speed></extensions></trkpt>
   <trkpt lat="59.106880787" lon="29.9805029598"><ele>90.264</ele><time>2026-04-25T14:02:40.000Z</time><hdop>4.875</hdop><vdop>4.875</vdop><extensions><gom:speed>0.0</gom:speed></extensions></trkpt>
   <trkpt lat="59.106880787" lon="29.9805029598"><ele>90.264</ele><time>2026-04-25T14:02:41.000Z</time><hdop>4.875</hdop><vdop>4.875</vdop><extensions><gom:speed>0.0</gom:speed></extensions></trkpt>
   <trkpt lat="59.106880787" lon="29.9805029598"><ele>90.264</ele><time>2026-04-25T14:02:42.000Z</time><hdop>4.875</hdop><vdop>4.875</vdop><extensions><gom:speed>0.0</gom:speed></extensions></trkpt>
   <trkpt lat="59.106880787" lon="29.9805029598"><ele>90.264</ele><time>2026-04-25T14:02:43.000Z</time><hdop>4.875</hdop><vdop>4.875</vdop><extensions><gom:speed>0.0</gom:speed></extensions></trkpt>
   <trkpt lat="59.106880787" lon="29.9805029598"><ele>90.264</ele><time>2026-04-25T14:02:44.000Z</time><hdop>4.875</hdop><vdop>4.875</vdop><extensions><gom:speed>0.0</gom:speed></extensions></trkpt>
   <trkpt lat="59.106880787" lon="29.9805029598"><ele>90.264</ele><time>2026-04-25T14:02:45.000Z</time><hdop>4.875</hdop><vdop>4.875</vdop><extensions><gom:speed>0.0</gom:speed></extensions></trkpt>
   <trkpt lat="59.106880787" lon="29.9805029598"><ele>90.264</ele><time>2026-04-25T14:02:46.000Z</time><hdop>4.875</hdop><vdop>4.875</vdop><extensions><gom:speed>0.0</gom:speed></extensions></trkpt>
   <trkpt lat="59.106880787" lon="29.9805029598"><ele>90.264</ele><time>2026-04-25T14:02:47.000Z</time><hdop>4.875</hdop><vdop>4.875</vdop><extensions><gom:speed>0.0</gom:speed></extensions></trkpt>
   <trkpt lat="59.106880787" lon="29.9805029598"><ele>90.264</ele><time>2026-04-25T14:02:47.000Z</time><hdop>4.875</hdop><vdop>4.875</vdop><extensions><gom:speed>0.0</gom:speed></extensions></trkpt>
   <trkpt lat="59.106880787" lon="29.9805029598"><ele>90.264</ele><time>2026-04-25T14:02:48.000Z</time><hdop>4.875</hdop><vdop>4.875</vdop><extensions><gom:speed>0.0</gom:speed></extensions></trkpt>
   <trkpt lat="59.106881751" lon="29.9805041332"><ele>90.283</ele><time>2026-04-25T14:02:49.000Z</time><hdop>4.312</hdop><vdop>4.312</vdop><extensions><gom:speed>0.145</gom:speed></extensions></trkpt>
   <trkpt lat="59.106881751" lon="29.9805041332"><ele>90.295</ele><time>2026-04-25T14:02:50.000Z</time><hdop>4.312</hdop><vdop>4.312</vdop><extensions><gom:speed>0.0</gom:speed></extensions></trkpt>
   <trkpt lat="59.106881751" lon="29.9805041332"><ele>90.302</ele><time>2026-04-25T14:02:51.000Z</time><hdop>4.312</hdop><vdop>4.312</vdop><extensions><gom:speed>0.0</gom:speed></extensions></trkpt>
   <trkpt lat="59.106881751" lon="29.9805041332"><ele>90.306</ele><time>2026-04-25T14:02:52.000Z</time><hdop>4.312</hdop><vdop>4.312</vdop><extensions><gom:speed>0.0</gom:speed></extensions></trkpt>
   <trkpt lat="59.106881751" lon="29.9805041332"><ele>90.308</ele><time>2026-04-25T14:02:53.000Z</time><hdop>4.312</hdop><vdop>4.312</vdop><extensions><gom:speed>0.0</gom:speed></extensions></trkpt>
   <trkpt lat="59.106881751" lon="29.9805041332"><ele>90.31</ele><time>2026-04-25T14:02:54.000Z</time><hdop>4.312</hdop><vdop>4.312</vdop><extensions><gom:speed>0.0</gom:speed></extensions></trkpt>
   <trkpt lat="59.106881751" lon="29.9805041332"><ele>90.311</ele><time>2026-04-25T14:02:55.000Z</time><hdop>4.312</hdop><vdop>4.312</vdop><extensions><gom:speed>0.0</gom:speed></extensions></trkpt>
   <trkpt lat="59.106881751" lon="29.9805041332"><ele>90.311</ele><time>2026-04-25T14:02:56.000Z</time><hdop>4.312</hdop><vdop>4.312</vdop><extensions><gom:speed>0.0</gom:speed></extensions></trkpt>
   <trkpt lat="59.106881751" lon="29.9805041332"><ele>90.311</ele><time>2026-04-25T14:02:57.000Z</time><hdop>4.312</hdop><vdop>4.312</vdop><extensions><gom:speed>0.0</gom:speed></extensions></trkpt>
   <trkpt lat="59.106881751" lon="29.9805041332"><ele>90.312</ele><time>2026-04-25T14:02:58.000Z</time><hdop>4.312</hdop><vdop>4.312</vdop><extensions><gom:speed>0.0</gom:speed></extensions></trkpt>
   <trkpt lat="59.106881751" lon="29.9805041332"><ele>90.312</ele><time>2026-04-25T14:02:59.000Z</time><hdop>4.312</hdop><vdop>4.312</vdop><extensions><gom:speed>0.0</gom:speed></extensions></trkpt>
   <trkpt lat="59.106881751" lon="29.9805041332"><ele>90.312</ele><time>2026-04-25T14:03:00.000Z</time><hdop>4.312</hdop><vdop>4.312</vdop><extensions><gom:speed>0.0</gom:speed></extensions></trkpt>
   <trkpt lat="59.106881751" lon="29.9805041332"><ele>90.312</ele><time>2026-04-25T14:03:01.000Z</time><hdop>4.312</hdop><vdop>4.312</vdop><extensions><gom:speed>0.0</gom:speed></extensions></trkpt>
   <trkpt lat="59.106881751" lon="29.9805041332"><ele>90.312</ele><time>2026-04-25T14:03:02.000Z</time><hdop>4.312</hdop><vdop>4.312</vdop><extensions><gom:speed>0.0</gom:speed></extensions></trkpt>
   <trkpt lat="59.106881751" lon="29.9805041332"><ele>90.312</ele><time>2026-04-25T14:03:03.000Z</time><hdop>4.312</hdop><vdop>4.312</vdop><extensions><gom:speed>0.0</gom:speed></extensions></trkpt>
   <trkpt lat="59.106881751" lon="29.9805041332"><ele>90.312</ele><time>2026-04-25T14:03:04.000Z</time><hdop>4.312</hdop><vdop>4.312</vdop><extensions><gom:speed>0.0</gom:speed></extensions></trkpt>
   <trkpt lat="59.106881751" lon="29.9805041332"><ele>90.312</ele><time>2026-04-25T14:03:05.000Z</time><hdop>4.312</hdop><vdop>4.312</vdop><extensions><gom:speed>0.0</gom:speed></extensions></trkpt>
   <trkpt lat="59.106881751" lon="29.9805041332"><ele>90.312</ele><time>2026-04-25T14:03:06.000Z</time><hdop>4.312</hdop><vdop>4.312</vdop><extensions><gom:speed>0.0</gom:speed></extensions></trkpt>
   <trkpt lat="59.106881751" lon="29.9805041332"><ele>90.312</ele><time>2026-04-25T14:03:07.000Z</time><hdop>4.312</hdop><vdop>4.312</vdop><extensions><gom:speed>0.0</gom:speed></extensions></trkpt>
   <trkpt lat="59.106881751" lon="29.9805041332"><ele>90.312</ele><time>2026-04-25T14:03:07.000Z</time><hdop>4.312</hdop><vdop>4.312</vdop><extensions><gom:speed>0.0</gom:speed></extensions></trkpt>
   <trkpt lat="59.106881751" lon="29.9805041332"><ele>90.312</ele><time>2026-04-25T14:03:08.000Z</time><hdop>4.312</hdop><vdop>4.312</vdop><extensions><gom:speed>0.0</gom:speed></extensions></trkpt>
   <trkpt lat="59.106881751" lon="29.9805041332"><ele>90.312</ele><time>2026-04-25T14:03:09.000Z</time><hdop>4.312</hdop><vdop>4.312</vdop><extensions><gom:speed>0.0</gom:speed></extensions></trkpt>
   <trkpt lat="59.106881751" lon="29.9805041332"><ele>90.312</ele><time>2026-04-25T14:03:10.000Z</time><hdop>4.312</hdop><vdop>4.312</vdop><extensions><gom:speed>0.0</gom:speed></extensions></trkpt>
   <trkpt lat="59.106881751" lon="29.9805041332"><ele>90.312</ele><time>2026-04-25T14:03:11.000Z</time><hdop>4.312</hdop><vdop>4.312</vdop><extensions><gom:speed>0.0</gom:speed></extensions></trkpt>
   <trkpt lat="59.106881751" lon="29.9805041332"><ele>90.312</ele><time>2026-04-25T14:03:12.000Z</time><hdop>4.312</hdop><vdop>4.312</vdop><extensions><gom:speed>0.0</gom:speed></extensions></trkpt>
   <trkpt lat="59.106881751" lon="29.9805041332"><ele>90.312</ele><time>2026-04-25T14:03:13.000Z</time><hdop>4.312</hdop><vdop>4.312</vdop><extensions><gom:speed>0.0</gom:speed></extensions></trkpt>
   <trkpt lat="59.106881751" lon="29.9805041332"><ele>90.312</ele><time>2026-04-25T14:03:14.000Z</time><hdop>4.312</hdop><vdop>4.312</vdop><extensions><gom:speed>0.0</gom:speed></extensions></trkpt>
   <trkpt lat="59.106881751" lon="29.9805041332"><ele>90.312</ele><time>2026-04-25T14:03:15.000Z</time><hdop>4.312</hdop><vdop>4.312</vdop><extensions><gom:speed>0.0</gom:speed></extensions></trkpt>
   <trkpt lat="59.106881751" lon="29.9805041332"><ele>90.312</ele><time>2026-04-25T14:03:16.000Z</time><hdop>4.312</hdop><vdop>4.312</vdop><extensions><gom:speed>0.0</gom:speed></extensions></trkpt>
   <trkpt lat="59.106881751" lon="29.9805041332"><ele>90.312</ele><time>2026-04-25T14:03:17.000Z</time><hdop>4.312</hdop><vdop>4.312</vdop><extensions><gom:speed>0.0</gom:speed></extensions></trkpt>
   <trkpt lat="59.106881751" lon="29.9805041332"><ele>90.312</ele><time>2026-04-25T14:03:18.000Z</time><hdop>4.312</hdop><vdop>4.312</vdop><extensions><gom:speed>0.0</gom:speed></extensions></trkpt>
   <trkpt lat="59.106881751" lon="29.9805041332"><ele>90.312</ele><time>2026-04-25T14:03:19.000Z</time><hdop>4.312</hdop><vdop>4.312</vdop><extensions><gom:speed>0.0</gom:speed></extensions></trkpt>
   <trkpt lat="59.106881751" lon="29.9805041332"><ele>90.312</ele><time>2026-04-25T14:03:20.000Z</time><hdop>4.312</hdop><vdop>4.312</vdop><extensions><gom:speed>0.0</gom:speed></extensions></trkpt>
   <trkpt lat="59.106881751" lon="29.9805041332"><ele>90.312</ele><time>2026-04-25T14:03:21.000Z</time><hdop>4.312</hdop><vdop>4.312</vdop><extensions><gom:speed>0.0</gom:speed></extensions></trkpt>
   <trkpt lat="59.106881751" lon="29.9805041332"><ele>90.312</ele><time>2026-04-25T14:03:22.000Z</time><hdop>4.312</hdop><vdop>4.312</vdop><extensions><gom:speed>0.0</gom:speed></extensions></trkpt>
   <trkpt lat="59.106881751" lon="29.9805041332"><ele>90.312</ele><time>2026-04-25T14:03:23.000Z</time><hdop>4.312</hdop><vdop>4.312</vdop><extensions><gom:speed>0.0</gom:speed></extensions></trkpt>
   <trkpt lat="59.106881751" lon="29.9805041332"><ele>90.312</ele><time>2026-04-25T14:03:24.000Z</time><hdop>4.312</hdop><vdop>4.312</vdop><extensions><gom:speed>0.0</gom:speed></extensions></trkpt>
   <trkpt lat="59.106881751" lon="29.9805041332"><ele>90.312</ele><time>2026-04-25T14:03:25.000Z</time><hdop>4.312</hdop><vdop>4.312</vdop><extensions><gom:speed>0.0</gom:speed></extensions></trkpt>
   <trkpt lat="59.106881751" lon="29.9805041332"><ele>90.312</ele><time>2026-04-25T14:03:26.000Z</time><hdop>4.312</hdop><vdop>4.312</vdop><extensions><gom:speed>0.0</gom:speed></extensions></trkpt>
   <trkpt lat="59.106881751" lon="29.9805041332"><ele>90.312</ele><time>2026-04-25T14:03:27.000Z</time><hdop>4.312</hdop><vdop>4.312</vdop><extensions><gom:speed>0.0</gom:speed></extensions></trkpt>
   <trkpt lat="59.106881751" lon="29.9805041332"><ele>90.312</ele><time>2026-04-25T14:03:27.000Z</time><hdop>4.312</hdop><vdop>4.312</vdop><extensions><gom:speed>0.0</gom:speed></extensions></trkpt>
   <trkpt lat="59.106881751" lon="29.9805041332"><ele>90.312</ele><time>2026-04-25T14:03:28.000Z</time><hdop>4.312</hdop><vdop>4.312</vdop><extensions><gom:speed>0.0</gom:speed></extensions></trkpt>
   <trkpt lat="59.106881751" lon="29.9805041332"><ele>90.312</ele><time>2026-04-25T14:03:29.000Z</time><hdop>4.312</hdop><vdop>4.312</vdop><extensions><gom:speed>0.0</gom:speed></extensions></trkpt>
   <trkpt lat="59.106881751" lon="29.9805041332"><ele>90.312</ele><time>2026-04-25T14:03:30.000Z</time><hdop>4.312</hdop><vdop>4.312</vdop><extensions><gom:speed>0.0</gom:speed></extensions></trkpt>
   <trkpt lat="59.106881751" lon="29.9805041332"><ele>90.312</ele><time>2026-04-25T14:03:31.000Z</time><hdop>4.312</hdop><vdop>4.312</vdop><extensions><gom:speed>0.0</gom:speed></extensions></trkpt>
   <trkpt lat="59.106881751" lon="29.9805041332"><ele>90.312</ele><time>2026-04-25T14:03:32.000Z</time><hdop>4.312</hdop><vdop>4.312</vdop><extensions><gom:speed>0.0</gom:speed></extensions></trkpt>
   <trkpt lat="59.106881751" lon="29.9805041332"><ele>90.312</ele><time>2026-04-25T14:03:33.000Z</time><hdop>4.312</hdop><vdop>4.312</vdop><extensions><gom:speed>0.0</gom:speed></extensions></trkpt>
   <trkpt lat="59.106881751" lon="29.9805041332"><ele>90.312</ele><time>2026-04-25T14:03:34.000Z</time><hdop>4.312</hdop><vdop>4.312</vdop><extensions><gom:speed>0.0</gom:speed></extensions></trkpt>
   <trkpt lat="59.106881751" lon="29.9805041332"><ele>90.312</ele><time>2026-04-25T14:03:35.000Z</time><hdop>4.312</hdop><vdop>4.312</vdop><extensions><gom:speed>0.0</gom:speed></extensions></trkpt>
   <trkpt lat="59.106881751" lon="29.9805041332"><ele>90.312</ele><time>2026-04-25T14:03:36.000Z</time><hdop>4.312</hdop><vdop>4.312</vdop><extensions><gom:speed>0.0</gom:speed></extensions></trkpt>
   <trkpt lat="59.106881751" lon="29.9805041332"><ele>90.312</ele><time>2026-04-25T14:03:37.000Z</time><hdop>4.312</hdop><vdop>4.312</vdop><extensions><gom:speed>0.0</gom:speed></extensions></trkpt>
   <trkpt lat="59.106881751" lon="29.9805041332"><ele>90.312</ele><time>2026-04-25T14:03:38.000Z</time><hdop>4.312</hdop><vdop>4.312</vdop><extensions><gom:speed>0.0</gom:speed></extensions></trkpt>
   <trkpt lat="59.106881751" lon="29.9805041332"><ele>90.312</ele><time>2026-04-25T14:03:39.000Z</time><hdop>4.312</hdop><vdop>4.312</vdop><extensions><gom:speed>0.0</gom:speed></extensions></trkpt>
   <trkpt lat="59.106881751" lon="29.9805041332"><ele>90.312</ele><time>2026-04-25T14:03:40.000Z</time><hdop>4.312</hdop><vdop>4.312</vdop><extensions><gom:speed>0.0</gom:speed></extensions></trkpt>
   <trkpt lat="59.106881751" lon="29.9805041332"><ele>90.312</ele><time>2026-04-25T14:03:41.000Z</time><hdop>4.312</hdop><vdop>4.312</vdop><extensions><gom:speed>0.0</gom:speed></extensions></trkpt>
   <trkpt lat="59.106881751" lon="29.9805041332"><ele>90.312</ele><time>2026-04-25T14:03:42.000Z</time><hdop>4.312</hdop><vdop>4.312</vdop><extensions><gom:speed>0.0</gom:speed></extensions></trkpt>
   <trkpt lat="59.106881751" lon="29.9805041332"><ele>90.312</ele><time>2026-04-25T14:03:43.000Z</time><hdop>4.312</hdop><vdop>4.312</vdop><extensions><gom:speed>0.0</gom:speed></extensions></trkpt>
   <trkpt lat="59.106881751" lon="29.9805041332"><ele>90.312</ele><time>2026-04-25T14:03:44.000Z</time><hdop>4.312</hdop><vdop>4.312</vdop><extensions><gom:speed>0.0</gom:speed></extensions></trkpt>
   <trkpt lat="59.106881751" lon="29.9805041332"><ele>90.312</ele><time>2026-04-25T14:03:45.000Z</time><hdop>4.312</hdop><vdop>4.312</vdop><extensions><gom:speed>0.0</gom:speed></extensions></trkpt>
   <trkpt lat="59.106881751" lon="29.9805041332"><ele>90.312</ele><time>2026-04-25T14:03:46.000Z</time><hdop>4.312</hdop><vdop>4.312</vdop><extensions><gom:speed>0.0</gom:speed></extensions></trkpt>
   <trkpt lat="59.106881751" lon="29.9805041332"><ele>90.312</ele><time>2026-04-25T14:03:47.000Z</time><hdop>4.312</hdop><vdop>4.312</vdop><extensions><gom:speed>0.0</gom:speed></extensions></trkpt>
   <trkpt lat="59.106881751" lon="29.9805041332"><ele>90.312</ele><time>2026-04-25T14:03:47.000Z</time><hdop>4.312</hdop><vdop>4.312</vdop><extensions><gom:speed>0.0</gom:speed></extensions></trkpt>
   <trkpt lat="59.106881751" lon="29.9805041332"><ele>90.312</ele><time>2026-04-25T14:03:48.000Z</time><hdop>4.312</hdop><vdop>4.312</vdop><extensions><gom:speed>0.0</gom:speed></extensions></trkpt>
   <trkpt lat="59.106881751" lon="29.9805041332"><ele>90.312</ele><time>2026-04-25T14:03:49.000Z</time><hdop>4.312</hdop><vdop>4.312</vdop><extensions><gom:speed>0.0</gom:speed></extensions></trkpt>
   <trkpt lat="59.106881751" lon="29.9805041332"><ele>90.312</ele><time>2026-04-25T14:03:50.000Z</time><hdop>4.312</hdop><vdop>4.312</vdop><extensions><gom:speed>0.0</gom:speed></extensions></trkpt>
   <trkpt lat="59.106881751" lon="29.9805041332"><ele>90.312</ele><time>2026-04-25T14:03:51.000Z</time><hdop>4.312</hdop><vdop>4.312</vdop><extensions><gom:speed>0.0</gom:speed></extensions></trkpt>
   <trkpt lat="59.106881751" lon="29.9805041332"><ele>90.312</ele><time>2026-04-25T14:03:52.000Z</time><hdop>4.312</hdop><vdop>4.312</vdop><extensions><gom:speed>0.0</gom:speed></extensions></trkpt>
   <trkpt lat="59.106881751" lon="29.9805041332"><ele>90.312</ele><time>2026-04-25T14:03:53.000Z</time><hdop>4.312</hdop><vdop>4.312</vdop><extensions><gom:speed>0.0</gom:speed></extensions></trkpt>
   <trkpt lat="59.106881751" lon="29.9805041332"><ele>90.312</ele><time>2026-04-25T14:03:54.000Z</time><hdop>4.312</hdop><vdop>4.312</vdop><extensions><gom:speed>0.0</gom:speed></extensions></trkpt>
   <trkpt lat="59.106881751" lon="29.9805041332"><ele>90.312</ele><time>2026-04-25T14:03:55.000Z</time><hdop>4.312</hdop><vdop>4.312</vdop><extensions><gom:speed>0.0</gom:speed></extensions></trkpt>
   <trkpt lat="59.106881751" lon="29.9805041332"><ele>90.312</ele><time>2026-04-25T14:03:56.000Z</time><hdop>4.312</hdop><vdop>4.312</vdop><extensions><gom:speed>0.0</gom:speed></extensions></trkpt>
   <trkpt lat="59.106881751" lon="29.9805041332"><ele>90.312</ele><time>2026-04-25T14:03:57.000Z</time><hdop>4.312</hdop><vdop>4.312</vdop><extensions><gom:speed>0.0</gom:speed></extensions></trkpt>
   <trkpt lat="59.106881751" lon="29.9805041332"><ele>90.312</ele><time>2026-04-25T14:03:58.000Z</time><hdop>4.312</hdop><vdop>4.312</vdop><extensions><gom:speed>0.0</gom:speed></extensions></trkpt>
   <trkpt lat="59.106881751" lon="29.9805041332"><ele>90.312</ele><time>2026-04-25T14:03:59.000Z</time><hdop>4.312</hdop><vdop>4.312</vdop><extensions><gom:speed>0.0</gom:speed></extensions></trkpt>
   <trkpt lat="59.106881751" lon="29.9805041332"><ele>90.312</ele><time>2026-04-25T14:04:00.000Z</time><hdop>4.312</hdop><vdop>4.312</vdop><extensions><gom:speed>0.0</gom:speed></extensions></trkpt>
   <trkpt lat="59.106881751" lon="29.9805041332"><ele>90.312</ele><time>2026-04-25T14:04:01.000Z</time><hdop>4.312</hdop><vdop>4.312</vdop><extensions><gom:speed>0.0</gom:speed></extensions></trkpt>
   <trkpt lat="59.106881751" lon="29.9805041332"><ele>90.312</ele><time>2026-04-25T14:04:02.000Z</time><hdop>4.312</hdop><vdop>4.312</vdop><extensions><gom:speed>0.0</gom:speed></extensions></trkpt>
   <trkpt lat="59.106881751" lon="29.9805041332"><ele>90.312</ele><time>2026-04-25T14:04:03.000Z</time><hdop>4.312</hdop><vdop>4.312</vdop><extensions><gom:speed>0.0</gom:speed></extensions></trkpt>
   <trkpt lat="59.106881751" lon="29.9805041332"><ele>90.312</ele><time>2026-04-25T14:04:04.000Z</time><hdop>4.312</hdop><vdop>4.312</vdop><extensions><gom:speed>0.0</gom:speed></extensions></trkpt>
   <trkpt lat="59.106881751" lon="29.9805041332"><ele>90.312</ele><time>2026-04-25T14:04:05.000Z</time><hdop>4.312</hdop><vdop>4.312</vdop><extensions><gom:speed>0.0</gom:speed></extensions></trkpt>
   <trkpt lat="59.106881751" lon="29.9805041332"><ele>90.312</ele><time>2026-04-25T14:04:06.000Z</time><hdop>4.312</hdop><vdop>4.312</vdop><extensions><gom:speed>0.0</gom:speed></extensions></trkpt>
   <trkpt lat="59.106881751" lon="29.9805041332"><ele>90.312</ele><time>2026-04-25T14:04:07.000Z</time><hdop>4.312</hdop><vdop>4.312</vdop><extensions><gom:speed>0.0</gom:speed></extensions></trkpt>
   <trkpt lat="59.106881751" lon="29.9805041332"><ele>90.312</ele><time>2026-04-25T14:04:07.000Z</time><hdop>4.312</hdop><vdop>4.312</vdop><extensions><gom:speed>0.0</gom:speed></extensions></trkpt>
   <trkpt lat="59.106881751" lon="29.9805041332"><ele>90.312</ele><time>2026-04-25T14:04:08.000Z</time><hdop>4.312</hdop><vdop>4.312</vdop><extensions><gom:speed>0.0</gom:speed></extensions></trkpt>
   <trkpt lat="59.106881751" lon="29.9805041332"><ele>90.312</ele><time>2026-04-25T14:04:09.000Z</time><hdop>4.312</hdop><vdop>4.312</vdop><extensions><gom:speed>0.0</gom:speed></extensions></trkpt>
   <trkpt lat="59.1068818348" lon="29.9805058096"><ele>90.452</ele><time>2026-04-25T14:04:10.000Z</time><hdop>3.812</hdop><vdop>3.812</vdop><extensions><gom:speed>0.283</gom:speed></extensions></trkpt>
   <trkpt lat="59.1068818348" lon="29.9805058096"><ele>90.536</ele><time>2026-04-25T14:04:11.000Z</time><hdop>3.812</hdop><vdop>3.812</vdop><extensions><gom:speed>0.0</gom:speed></extensions></trkpt>
   <trkpt lat="59.1068818348" lon="29.9805058096"><ele>90.586</ele><time>2026-04-25T14:04:12.000Z</time><hdop>3.812</hdop><vdop>3.812</vdop><extensions><gom:speed>0.0</gom:speed></extensions></trkpt>
   <trkpt lat="59.1068818348" lon="29.9805058096"><ele>90.616</ele><time>2026-04-25T14:04:13.000Z</time><hdop>3.812</hdop><vdop>3.812</vdop><extensions><gom:speed>0.0</gom:speed></extensions></trkpt>
   <trkpt lat="59.1068818348" lon="29.9805058096"><ele>90.633</ele><time>2026-04-25T14:04:14.000Z</time><hdop>3.812</hdop><vdop>3.812</vdop><extensions><gom:speed>0.0</gom:speed></extensions></trkpt>
   <trkpt lat="59.1068818348" lon="29.9805058096"><ele>90.644</ele><time>2026-04-25T14:04:15.000Z</time><hdop>3.812</hdop><vdop>3.812</vdop><extensions><gom:speed>0.0</gom:speed></extensions></trkpt>
   <trkpt lat="59.1068818348" lon="29.9805058096"><ele>90.65</ele><time>2026-04-25T14:04:16.000Z</time><hdop>3.812</hdop><vdop>3.812</vdop><extensions><gom:speed>0.0</gom:speed></extensions></trkpt>
   <trkpt lat="59.1068818348" lon="29.9805058096"><ele>90.654</ele><time>2026-04-25T14:04:17.000Z</time><hdop>3.812</hdop><vdop>3.812</vdop><extensions><gom:speed>0.0</gom:speed></extensions></trkpt>
   <trkpt lat="59.1068818348" lon="29.9805058096"><ele>90.657</ele><time>2026-04-25T14:04:18.000Z</time><hdop>3.812</hdop><vdop>3.812</vdop><extensions><gom:speed>0.0</gom:speed></extensions></trkpt>
   <trkpt lat="59.1068818348" lon="29.9805058096"><ele>90.658</ele><time>2026-04-25T14:04:19.000Z</time><hdop>3.812</hdop><vdop>3.812</vdop><extensions><gom:speed>0.0</gom:speed></extensions></trkpt>
   <trkpt lat="59.1068818348" lon="29.9805058096"><ele>90.659</ele><time>2026-04-25T14:04:20.000Z</time><hdop>3.812</hdop><vdop>3.812</vdop><extensions><gom:speed>0.0</gom:speed></extensions></trkpt>
   <trkpt lat="59.1068818348" lon="29.9805058096"><ele>90.659</ele><time>2026-04-25T14:04:21.000Z</time><hdop>3.812</hdop><vdop>3.812</vdop><extensions><gom:speed>0.0</gom:speed></extensions></trkpt>
   <trkpt lat="59.1068818348" lon="29.9805058096"><ele>90.659</ele><time>2026-04-25T14:04:22.000Z</time><hdop>3.812</hdop><vdop>3.812</vdop><extensions><gom:speed>0.0</gom:speed></extensions></trkpt>
   <trkpt lat="59.1068818348" lon="29.9805058096"><ele>90.66</ele><time>2026-04-25T14:04:23.000Z</time><hdop>3.812</hdop><vdop>3.812</vdop><extensions><gom:speed>0.0</gom:speed></extensions></trkpt>
   <trkpt lat="59.1068818348" lon="29.9805058096"><ele>90.66</ele><time>2026-04-25T14:04:23.000Z</time><hdop>3.812</hdop><vdop>3.812</vdop><extensions><gom:speed>0.0</gom:speed></extensions></trkpt>
   <trkpt lat="59.1068818348" lon="29.9805058096"><ele>90.66</ele><time>2026-04-25T14:04:24.000Z</time><hdop>3.812</hdop><vdop>3.812</vdop><extensions><gom:speed>0.0</gom:speed></extensions></trkpt>
   <trkpt lat="59.1068818348" lon="29.9805058096"><ele>90.66</ele><time>2026-04-25T14:04:25.000Z</time><hdop>3.812</hdop><vdop>3.812</vdop><extensions><gom:speed>0.0</gom:speed></extensions></trkpt>
   <trkpt lat="59.1068818348" lon="29.9805058096"><ele>90.66</ele><time>2026-04-25T14:04:26.000Z</time><hdop>3.812</hdop><vdop>3.812</vdop><extensions><gom:speed>0.0</gom:speed></extensions></trkpt>
   <trkpt lat="59.1068818348" lon="29.9805058096"><ele>90.66</ele><time>2026-04-25T14:04:27.000Z</time><hdop>3.812</hdop><vdop>3.812</vdop><extensions><gom:speed>0.0</gom:speed></extensions></trkpt>
   <trkpt lat="59.1068818348" lon="29.9805058096"><ele>90.66</ele><time>2026-04-25T14:04:27.000Z</time><hdop>3.812</hdop><vdop>3.812</vdop><extensions><gom:speed>0.0</gom:speed></extensions></trkpt>
   <trkpt lat="59.1068818348" lon="29.9805058096"><ele>90.66</ele><time>2026-04-25T14:04:28.000Z</time><hdop>3.812</hdop><vdop>3.812</vdop><extensions><gom:speed>0.0</gom:speed></extensions></trkpt>
   <trkpt lat="59.1068818348" lon="29.9805058096"><ele>90.66</ele><time>2026-04-25T14:04:29.000Z</time><hdop>3.812</hdop><vdop>3.812</vdop><extensions><gom:speed>0.0</gom:speed></extensions></trkpt>
   <trkpt lat="59.1068818348" lon="29.9805058096"><ele>90.66</ele><time>2026-04-25T14:04:30.000Z</time><hdop>3.812</hdop><vdop>3.812</vdop><extensions><gom:speed>0.0</gom:speed></extensions></trkpt>
   <trkpt lat="59.1068818348" lon="29.9805058096"><ele>90.66</ele><time>2026-04-25T14:04:31.000Z</time><hdop>3.812</hdop><vdop>3.812</vdop><extensions><gom:speed>0.0</gom:speed></extensions></trkpt>
   <trkpt lat="59.1068818348" lon="29.9805058096"><ele>90.66</ele><time>2026-04-25T14:04:32.000Z</time><hdop>3.812</hdop><vdop>3.812</vdop><extensions><gom:speed>0.0</gom:speed></extensions></trkpt>
   <trkpt lat="59.1068818348" lon="29.9805058096"><ele>90.66</ele><time>2026-04-25T14:04:33.000Z</time><hdop>3.812</hdop><vdop>3.812</vdop><extensions><gom:speed>0.0</gom:speed></extensions></trkpt>
   <trkpt lat="59.1068818348" lon="29.9805058096"><ele>90.66</ele><time>2026-04-25T14:04:34.000Z</time><hdop>3.812</hdop><vdop>3.812</vdop><extensions><gom:speed>0.0</gom:speed></extensions></trkpt>
   <trkpt lat="59.1068818348" lon="29.9805058096"><ele>90.66</ele><time>2026-04-25T14:04:35.000Z</time><hdop>3.812</hdop><vdop>3.812</vdop><extensions><gom:speed>0.0</gom:speed></extensions></trkpt>
   <trkpt lat="59.1068818348" lon="29.9805058096"><ele>90.66</ele><time>2026-04-25T14:04:36.000Z</time><hdop>3.812</hdop><vdop>3.812</vdop><extensions><gom:speed>0.0</gom:speed></extensions></trkpt>
   <trkpt lat="59.1068818348" lon="29.9805058096"><ele>90.66</ele><time>2026-04-25T14:04:37.000Z</time><hdop>3.812</hdop><vdop>3.812</vdop><extensions><gom:speed>0.0</gom:speed></extensions></trkpt>
   <trkpt lat="59.1068818348" lon="29.9805058096"><ele>90.66</ele><time>2026-04-25T14:04:38.000Z</time><hdop>3.812</hdop><vdop>3.812</vdop><extensions><gom:speed>0.0</gom:speed></extensions></trkpt>
   <trkpt lat="59.1068818348" lon="29.9805058096"><ele>90.66</ele><time>2026-04-25T14:04:39.000Z</time><hdop>3.812</hdop><vdop>3.812</vdop><extensions><gom:speed>0.0</gom:speed></extensions></trkpt>
   <trkpt lat="59.1068818348" lon="29.9805058096"><ele>90.66</ele><time>2026-04-25T14:04:40.000Z</time><hdop>3.812</hdop><vdop>3.812</vdop><extensions><gom:speed>0.0</gom:speed></extensions></trkpt>
   <trkpt lat="59.1068818348" lon="29.9805058096"><ele>90.66</ele><time>2026-04-25T14:04:41.000Z</time><hdop>3.812</hdop><vdop>3.812</vdop><extensions><gom:speed>0.0</gom:speed></extensions></trkpt>
   <trkpt lat="59.1068818348" lon="29.9805058096"><ele>90.66</ele><time>2026-04-25T14:04:42.000Z</time><hdop>3.812</hdop><vdop>3.812</vdop><extensions><gom:speed>0.0</gom:speed></extensions></trkpt>
   <trkpt lat="59.1068818348" lon="29.9805058096"><ele>90.66</ele><time>2026-04-25T14:04:43.000Z</time><hdop>3.812</hdop><vdop>3.812</vdop><extensions><gom:speed>0.0</gom:speed></extensions></trkpt>
   <trkpt lat="59.1068818348" lon="29.9805058096"><ele>90.66</ele><time>2026-04-25T14:04:44.000Z</time><hdop>3.812</hdop><vdop>3.812</vdop><extensions><gom:speed>0.0</gom:speed></extensions></trkpt>
   <trkpt lat="59.1068818348" lon="29.9805058096"><ele>90.66</ele><time>2026-04-25T14:04:45.000Z</time><hdop>3.812</hdop><vdop>3.812</vdop><extensions><gom:speed>0.0</gom:speed></extensions></trkpt>
   <trkpt lat="59.1068818348" lon="29.9805058096"><ele>90.66</ele><time>2026-04-25T14:04:46.000Z</time><hdop>3.812</hdop><vdop>3.812</vdop><extensions><gom:speed>0.0</gom:speed></extensions></trkpt>
   <trkpt lat="59.1068818348" lon="29.9805058096"><ele>90.66</ele><time>2026-04-25T14:04:47.000Z</time><hdop>3.812</hdop><vdop>3.812</vdop><extensions><gom:speed>0.0</gom:speed></extensions></trkpt>
   <trkpt lat="59.1068818348" lon="29.9805058096"><ele>90.66</ele><time>2026-04-25T14:04:47.000Z</time><hdop>3.812</hdop><vdop>3.812</vdop><extensions><gom:speed>0.0</gom:speed></extensions></trkpt>
   <trkpt lat="59.1068818348" lon="29.9805058096"><ele>90.66</ele><time>2026-04-25T14:04:48.000Z</time><hdop>3.812</hdop><vdop>3.812</vdop><extensions><gom:speed>0.0</gom:speed></extensions></trkpt>
   <trkpt lat="59.1068818348" lon="29.9805058096"><ele>90.66</ele><time>2026-04-25T14:04:49.000Z</time><hdop>3.812</hdop><vdop>3.812</vdop><extensions><gom:speed>0.0</gom:speed></extensions></trkpt>
   <trkpt lat="59.1068818348" lon="29.9805058096"><ele>90.66</ele><time>2026-04-25T14:04:50.000Z</time><hdop>3.812</hdop><vdop>3.812</vdop><extensions><gom:speed>0.0</gom:speed></extensions></trkpt>
   <trkpt lat="59.1068818348" lon="29.9805058096"><ele>90.66</ele><time>2026-04-25T14:04:51.000Z</time><hdop>3.812</hdop><vdop>3.812</vdop><extensions><gom:speed>0.0</gom:speed></extensions></trkpt>
   <trkpt lat="59.1068818348" lon="29.9805058096"><ele>90.66</ele><time>2026-04-25T14:04:52.000Z</time><hdop>3.812</hdop><vdop>3.812</vdop><extensions><gom:speed>0.0</gom:speed></extensions></trkpt>
   <trkpt lat="59.1068818348" lon="29.9805058096"><ele>90.66</ele><time>2026-04-25T14:04:53.000Z</time><hdop>3.812</hdop><vdop>3.812</vdop><extensions><gom:speed>0.0</gom:speed></extensions></trkpt>
   <trkpt lat="59.1068818348" lon="29.9805058096"><ele>90.66</ele><time>2026-04-25T14:04:54.000Z</time><hdop>3.812</hdop><vdop>3.812</vdop><extensions><gom:speed>0.0</gom:speed></extensions></trkpt>
   <trkpt lat="59.1068818348" lon="29.9805058096"><ele>90.66</ele><time>2026-04-25T14:04:55.000Z</time><hdop>3.812</hdop><vdop>3.812</vdop><extensions><gom:speed>0.0</gom:speed></extensions></trkpt>
   <trkpt lat="59.1068818348" lon="29.9805058096"><ele>90.66</ele><time>2026-04-25T14:04:56.000Z</time><hdop>3.812</hdop><vdop>3.812</vdop><extensions><gom:speed>0.0</gom:speed></extensions></trkpt>
   <trkpt lat="59.1068818348" lon="29.9805058096"><ele>90.66</ele><time>2026-04-25T14:04:57.000Z</time><hdop>3.812</hdop><vdop>3.812</vdop><extensions><gom:speed>0.0</gom:speed></extensions></trkpt>
   <trkpt lat="59.1068818348" lon="29.9805058096"><ele>90.66</ele><time>2026-04-25T14:04:58.000Z</time><hdop>3.812</hdop><vdop>3.812</vdop><extensions><gom:speed>0.0</gom:speed></extensions></trkpt>
   <trkpt lat="59.1068818348" lon="29.9805058096"><ele>90.66</ele><time>2026-04-25T14:04:59.000Z</time><hdop>3.812</hdop><vdop>3.812</vdop><extensions><gom:speed>0.0</gom:speed></extensions></trkpt>
   <trkpt lat="59.1068818348" lon="29.9805058096"><ele>90.66</ele><time>2026-04-25T14:05:00.000Z</time><hdop>3.812</hdop><vdop>3.812</vdop><extensions><gom:speed>0.0</gom:speed></extensions></trkpt>
   <trkpt lat="59.1068818348" lon="29.9805058096"><ele>90.66</ele><time>2026-04-25T14:05:01.000Z</time><hdop>3.812</hdop><vdop>3.812</vdop><extensions><gom:speed>0.0</gom:speed></extensions></trkpt>
   <trkpt lat="59.1068818348" lon="29.9805058096"><ele>90.66</ele><time>2026-04-25T14:05:02.000Z</time><hdop>3.812</hdop><vdop>3.812</vdop><extensions><gom:speed>0.0</gom:speed></extensions></trkpt>
   <trkpt lat="59.1068818348" lon="29.9805058096"><ele>90.66</ele><time>2026-04-25T14:05:03.000Z</time><hdop>3.812</hdop><vdop>3.812</vdop><extensions><gom:speed>0.0</gom:speed></extensions></trkpt>
   <trkpt lat="59.1068818348" lon="29.9805058096"><ele>90.66</ele><time>2026-04-25T14:05:04.000Z</time><hdop>3.812</hdop><vdop>3.812</vdop><extensions><gom:speed>0.0</gom:speed></extensions></trkpt>
   <trkpt lat="59.1068818348" lon="29.9805058096"><ele>90.66</ele><time>2026-04-25T14:05:05.000Z</time><hdop>3.812</hdop><vdop>3.812</vdop><extensions><gom:speed>0.0</gom:speed></extensions></trkpt>
   <trkpt lat="59.1068818348" lon="29.9805058096"><ele>90.66</ele><time>2026-04-25T14:05:06.000Z</time><hdop>3.812</hdop><vdop>3.812</vdop><extensions><gom:speed>0.0</gom:speed></extensions></trkpt>
   <trkpt lat="59.1068818348" lon="29.9805058096"><ele>90.66</ele><time>2026-04-25T14:05:07.000Z</time><hdop>3.812</hdop><vdop>3.812</vdop><extensions><gom:speed>0.0</gom:speed></extensions></trkpt>
   <trkpt lat="59.1068818348" lon="29.9805058096"><ele>90.66</ele><time>2026-04-25T14:05:07.000Z</time><hdop>3.812</hdop><vdop>3.812</vdop><extensions><gom:speed>0.0</gom:speed></extensions></trkpt>
   <trkpt lat="59.1068818348" lon="29.9805058096"><ele>90.66</ele><time>2026-04-25T14:05:08.000Z</time><hdop>3.812</hdop><vdop>3.812</vdop><extensions><gom:speed>0.0</gom:speed></extensions></trkpt>
   <trkpt lat="59.1068818348" lon="29.9805058096"><ele>90.66</ele><time>2026-04-25T14:05:09.000Z</time><hdop>3.812</hdop><vdop>3.812</vdop><extensions><gom:speed>0.0</gom:speed></extensions></trkpt>
   <trkpt lat="59.1068818348" lon="29.9805058096"><ele>90.66</ele><time>2026-04-25T14:05:10.000Z</time><hdop>3.812</hdop><vdop>3.812</vdop><extensions><gom:speed>0.0</gom:speed></extensions></trkpt>
   <trkpt lat="59.1068818348" lon="29.9805058096"><ele>90.66</ele><time>2026-04-25T14:05:11.000Z</time><hdop>3.812</hdop><vdop>3.812</vdop><extensions><gom:speed>0.0</gom:speed></extensions></trkpt>
   <trkpt lat="59.1068818348" lon="29.9805058096"><ele>90.66</ele><time>2026-04-25T14:05:12.000Z</time><hdop>3.812</hdop><vdop>3.812</vdop><extensions><gom:speed>0.0</gom:speed></extensions></trkpt>
   <trkpt lat="59.1068818348" lon="29.9805058096"><ele>90.66</ele><time>2026-04-25T14:05:13.000Z</time><hdop>3.812</hdop><vdop>3.812</vdop><extensions><gom:speed>0.0</gom:speed></extensions></trkpt>
   <trkpt lat="59.1068818348" lon="29.9805058096"><ele>90.66</ele><time>2026-04-25T14:05:14.000Z</time><hdop>3.812</hdop><vdop>3.812</vdop><extensions><gom:speed>0.0</gom:speed></extensions></trkpt>
   <trkpt lat="59.1068818348" lon="29.9805058096"><ele>90.66</ele><time>2026-04-25T14:05:15.000Z</time><hdop>3.812</hdop><vdop>3.812</vdop><extensions><gom:speed>0.0</gom:speed></extensions></trkpt>
   <trkpt lat="59.1068818348" lon="29.9805058096"><ele>90.66</ele><time>2026-04-25T14:05:16.000Z</time><hdop>3.812</hdop><vdop>3.812</vdop><extensions><gom:speed>0.0</gom:speed></extensions></trkpt>
   <trkpt lat="59.1068818348" lon="29.9805058096"><ele>90.66</ele><time>2026-04-25T14:05:17.000Z</time><hdop>3.812</hdop><vdop>3.812</vdop><extensions><gom:speed>0.0</gom:speed></extensions></trkpt>
   <trkpt lat="59.1068818348" lon="29.9805058096"><ele>90.66</ele><time>2026-04-25T14:05:18.000Z</time><hdop>3.812</hdop><vdop>3.812</vdop><extensions><gom:speed>0.0</gom:speed></extensions></trkpt>
   <trkpt lat="59.1068818348" lon="29.9805058096"><ele>90.66</ele><time>2026-04-25T14:05:19.000Z</time><hdop>3.812</hdop><vdop>3.812</vdop><extensions><gom:speed>0.0</gom:speed></extensions></trkpt>
   <trkpt lat="59.1068818348" lon="29.9805058096"><ele>90.66</ele><time>2026-04-25T14:05:20.000Z</time><hdop>3.812</hdop><vdop>3.812</vdop><extensions><gom:speed>0.0</gom:speed></extensions></trkpt>
   <trkpt lat="59.1068818348" lon="29.9805058096"><ele>90.66</ele><time>2026-04-25T14:05:21.000Z</time><hdop>3.812</hdop><vdop>3.812</vdop><extensions><gom:speed>0.0</gom:speed></extensions></trkpt>
   <trkpt lat="59.1068818348" lon="29.9805058096"><ele>90.66</ele><time>2026-04-25T14:05:22.000Z</time><hdop>3.812</hdop><vdop>3.812</vdop><extensions><gom:speed>0.0</gom:speed></extensions></trkpt>
   <trkpt lat="59.1068818348" lon="29.9805058096"><ele>90.66</ele><time>2026-04-25T14:05:23.000Z</time><hdop>3.812</hdop><vdop>3.812</vdop><extensions><gom:speed>0.0</gom:speed></extensions></trkpt>
   <trkpt lat="59.1068818348" lon="29.9805058096"><ele>90.66</ele><time>2026-04-25T14:05:24.000Z</time><hdop>3.812</hdop><vdop>3.812</vdop><extensions><gom:speed>0.0</gom:speed></extensions></trkpt>
   <trkpt lat="59.1068818348" lon="29.9805058096"><ele>90.66</ele><time>2026-04-25T14:05:25.000Z</time><hdop>3.812</hdop><vdop>3.812</vdop><extensions><gom:speed>0.0</gom:speed></extensions></trkpt>
   <trkpt lat="59.1068818348" lon="29.9805058096"><ele>90.66</ele><time>2026-04-25T14:05:26.000Z</time><hdop>3.812</hdop><vdop>3.812</vdop><extensions><gom:speed>0.0</gom:speed></extensions></trkpt>
   <trkpt lat="59.1068818348" lon="29.9805058096"><ele>90.66</ele><time>2026-04-25T14:05:27.000Z</time><hdop>3.812</hdop><vdop>3.812</vdop><extensions><gom:speed>0.0</gom:speed></extensions></trkpt>
   <trkpt lat="59.1068818348" lon="29.9805058096"><ele>90.66</ele><time>2026-04-25T14:05:27.000Z</time><hdop>3.812</hdop><vdop>3.812</vdop><extensions><gom:speed>0.0</gom:speed></extensions></trkpt>
   <trkpt lat="59.1068818348" lon="29.9805058096"><ele>90.66</ele><time>2026-04-25T14:05:28.000Z</time><hdop>3.812</hdop><vdop>3.812</vdop><extensions><gom:speed>0.0</gom:speed></extensions></trkpt>
   <trkpt lat="59.1068818348" lon="29.9805058096"><ele>90.66</ele><time>2026-04-25T14:05:29.000Z</time><hdop>3.812</hdop><vdop>3.812</vdop><extensions><gom:speed>0.0</gom:speed></extensions></trkpt>
   <trkpt lat="59.1068818348" lon="29.9805058096"><ele>90.66</ele><time>2026-04-25T14:05:30.000Z</time><hdop>3.812</hdop><vdop>3.812</vdop><extensions><gom:speed>0.0</gom:speed></extensions></trkpt>
   <trkpt lat="59.1068818348" lon="29.9805058096"><ele>90.66</ele><time>2026-04-25T14:05:31.000Z</time><hdop>3.812</hdop><vdop>3.812</vdop><extensions><gom:speed>0.0</gom:speed></extensions></trkpt>
   <trkpt lat="59.1068818348" lon="29.9805058096"><ele>90.66</ele><time>2026-04-25T14:05:32.000Z</time><hdop>3.812</hdop><vdop>3.812</vdop><extensions><gom:speed>0.0</gom:speed></extensions></trkpt>
   <trkpt lat="59.1068818348" lon="29.9805058096"><ele>90.66</ele><time>2026-04-25T14:05:33.000Z</time><hdop>3.812</hdop><vdop>3.812</vdop><extensions><gom:speed>0.0</gom:speed></extensions></trkpt>
   <trkpt lat="59.1068818348" lon="29.9805058096"><ele>90.66</ele><time>2026-04-25T14:05:34.000Z</time><hdop>3.812</hdop><vdop>3.812</vdop><extensions><gom:speed>0.0</gom:speed></extensions></trkpt>
   <trkpt lat="59.1068818348" lon="29.9805058096"><ele>90.66</ele><time>2026-04-25T14:05:35.000Z</time><hdop>3.812</hdop><vdop>3.812</vdop><extensions><gom:speed>0.0</gom:speed></extensions></trkpt>
   <trkpt lat="59.1068818348" lon="29.9805058096"><ele>90.66</ele><time>2026-04-25T14:05:36.000Z</time><hdop>3.812</hdop><vdop>3.812</vdop><extensions><gom:speed>0.0</gom:speed></extensions></trkpt>
   <trkpt lat="59.1068818348" lon="29.9805058096"><ele>90.66</ele><time>2026-04-25T14:05:37.000Z</time><hdop>3.812</hdop><vdop>3.812</vdop><extensions><gom:speed>0.0</gom:speed></extensions></trkpt>
   <trkpt lat="59.1068818348" lon="29.9805058096"><ele>90.66</ele><time>2026-04-25T14:05:38.000Z</time><hdop>3.812</hdop><vdop>3.812</vdop><extensions><gom:speed>0.0</gom:speed></extensions></trkpt>
   <trkpt lat="59.1068818348" lon="29.9805058096"><ele>90.66</ele><time>2026-04-25T14:05:39.000Z</time><hdop>3.812</hdop><vdop>3.812</vdop><extensions><gom:speed>0.0</gom:speed></extensions></trkpt>
   <trkpt lat="59.1068818348" lon="29.9805058096"><ele>90.66</ele><time>2026-04-25T14:05:40.000Z</time><hdop>3.812</hdop><vdop>3.812</vdop><extensions><gom:speed>0.0</gom:speed></extensions></trkpt>
   <trkpt lat="59.1068818348" lon="29.9805058096"><ele>90.66</ele><time>2026-04-25T14:05:41.000Z</time><hdop>3.812</hdop><vdop>3.812</vdop><extensions><gom:speed>0.0</gom:speed></extensions></trkpt>
   <trkpt lat="59.1068818348" lon="29.9805058096"><ele>90.66</ele><time>2026-04-25T14:05:42.000Z</time><hdop>3.812</hdop><vdop>3.812</vdop><extensions><gom:speed>0.0</gom:speed></extensions></trkpt>
   <trkpt lat="59.1068818348" lon="29.9805058096"><ele>90.66</ele><time>2026-04-25T14:05:43.000Z</time><hdop>3.812</hdop><vdop>3.812</vdop><extensions><gom:speed>0.0</gom:speed></extensions></trkpt>
   <trkpt lat="59.1068818348" lon="29.9805058096"><ele>90.66</ele><time>2026-04-25T14:05:44.000Z</time><hdop>3.812</hdop><vdop>3.812</vdop><extensions><gom:speed>0.0</gom:speed></extensions></trkpt>
   <trkpt lat="59.1068818348" lon="29.9805058096"><ele>90.66</ele><time>2026-04-25T14:05:45.000Z</time><hdop>3.812</hdop><vdop>3.812</vdop><extensions><gom:speed>0.0</gom:speed></extensions></trkpt>
   <trkpt lat="59.1068818348" lon="29.9805058096"><ele>90.66</ele><time>2026-04-25T14:05:46.000Z</time><hdop>3.812</hdop><vdop>3.812</vdop><extensions><gom:speed>0.0</gom:speed></extensions></trkpt>
   <trkpt lat="59.1068818348" lon="29.9805058096"><ele>90.66</ele><time>2026-04-25T14:05:47.000Z</time><hdop>3.812</hdop><vdop>3.812</vdop><extensions><gom:speed>0.0</gom:speed></extensions></trkpt>
   <trkpt lat="59.1068818348" lon="29.9805058096"><ele>90.66</ele><time>2026-04-25T14:05:47.000Z</time><hdop>3.812</hdop><vdop>3.812</vdop><extensions><gom:speed>0.0</gom:speed></extensions></trkpt>
   <trkpt lat="59.1068818348" lon="29.9805058096"><ele>90.66</ele><time>2026-04-25T14:05:48.000Z</time><hdop>3.812</hdop><vdop>3.812</vdop><extensions><gom:speed>0.0</gom:speed></extensions></trkpt>
   <trkpt lat="59.1068818348" lon="29.9805058096"><ele>90.66</ele><time>2026-04-25T14:05:49.000Z</time><hdop>3.812</hdop><vdop>3.812</vdop><extensions><gom:speed>0.0</gom:speed></extensions></trkpt>
   <trkpt lat="59.1068818348" lon="29.9805058096"><ele>90.66</ele><time>2026-04-25T14:05:50.000Z</time><hdop>3.812</hdop><vdop>3.812</vdop><extensions><gom:speed>0.0</gom:speed></extensions></trkpt>
   <trkpt lat="59.1068818348" lon="29.9805058096"><ele>90.66</ele><time>2026-04-25T14:05:51.000Z</time><hdop>3.812</hdop><vdop>3.812</vdop><extensions><gom:speed>0.0</gom:speed></extensions></trkpt>
   <trkpt lat="59.1068818348" lon="29.9805058096"><ele>90.66</ele><time>2026-04-25T14:05:52.000Z</time><hdop>3.812</hdop><vdop>3.812</vdop><extensions><gom:speed>0.0</gom:speed></extensions></trkpt>
   <trkpt lat="59.1068818348" lon="29.9805058096"><ele>90.66</ele><time>2026-04-25T14:05:53.000Z</time><hdop>3.812</hdop><vdop>3.812</vdop><extensions><gom:speed>0.0</gom:speed></extensions></trkpt>
   <trkpt lat="59.1068818348" lon="29.9805058096"><ele>90.66</ele><time>2026-04-25T14:05:54.000Z</time><hdop>3.812</hdop><vdop>3.812</vdop><extensions><gom:speed>0.0</gom:speed></extensions></trkpt>
   <trkpt lat="59.1068818348" lon="29.9805058096"><ele>90.66</ele><time>2026-04-25T14:05:55.000Z</time><hdop>3.812</hdop><vdop>3.812</vdop><extensions><gom:speed>0.0</gom:speed></extensions></trkpt>
   <trkpt lat="59.1068818348" lon="29.9805058096"><ele>90.66</ele><time>2026-04-25T14:05:56.000Z</time><hdop>3.812</hdop><vdop>3.812</vdop><extensions><gom:speed>0.0</gom:speed></extensions></trkpt>
   <trkpt lat="59.1068818348" lon="29.9805058096"><ele>90.66</ele><time>2026-04-25T14:05:57.000Z</time><hdop>3.812</hdop><vdop>3.812</vdop><extensions><gom:speed>0.0</gom:speed></extensions></trkpt>
   <trkpt lat="59.1068818348" lon="29.9805058096"><ele>90.66</ele><time>2026-04-25T14:05:58.000Z</time><hdop>3.812</hdop><vdop>3.812</vdop><extensions><gom:speed>0.0</gom:speed></extensions></trkpt>
   <trkpt lat="59.1068818348" lon="29.9805058096"><ele>90.66</ele><time>2026-04-25T14:05:59.000Z</time><hdop>3.812</hdop><vdop>3.812</vdop><extensions><gom:speed>0.0</gom:speed></extensions></trkpt>
   <trkpt lat="59.1068818348" lon="29.9805058096"><ele>90.66</ele><time>2026-04-25T14:06:00.000Z</time><hdop>3.812</hdop><vdop>3.812</vdop><extensions><gom:speed>0.0</gom:speed></extensions></trkpt>
   <trkpt lat="59.1068818348" lon="29.9805058096"><ele>90.66</ele><time>2026-04-25T14:06:01.000Z</time><hdop>3.812</hdop><vdop>3.812</vdop><extensions><gom:speed>0.0</gom:speed></extensions></trkpt>
   <trkpt lat="59.1068818348" lon="29.9805058096"><ele>90.66</ele><time>2026-04-25T14:06:02.000Z</time><hdop>3.812</hdop><vdop>3.812</vdop><extensions><gom:speed>0.0</gom:speed></extensions></trkpt>
   <trkpt lat="59.1068818348" lon="29.9805058096"><ele>90.66</ele><time>2026-04-25T14:06:03.000Z</time><hdop>3.812</hdop><vdop>3.812</vdop><extensions><gom:speed>0.0</gom:speed></extensions></trkpt>
   <trkpt lat="59.1068818348" lon="29.9805058096"><ele>90.66</ele><time>2026-04-25T14:06:04.000Z</time><hdop>3.812</hdop><vdop>3.812</vdop><extensions><gom:speed>0.0</gom:speed></extensions></trkpt>
   <trkpt lat="59.1068818348" lon="29.9805058096"><ele>90.66</ele><time>2026-04-25T14:06:05.000Z</time><hdop>3.812</hdop><vdop>3.812</vdop><extensions><gom:speed>0.0</gom:speed></extensions></trkpt>
   <trkpt lat="59.1068818348" lon="29.9805058096"><ele>90.66</ele><time>2026-04-25T14:06:06.000Z</time><hdop>3.812</hdop><vdop>3.812</vdop><extensions><gom:speed>0.0</gom:speed></extensions></trkpt>
   <trkpt lat="59.1068818348" lon="29.9805058096"><ele>90.66</ele><time>2026-04-25T14:06:07.000Z</time><hdop>3.812</hdop><vdop>3.812</vdop><extensions><gom:speed>0.0</gom:speed></extensions></trkpt>
   <trkpt lat="59.1068818348" lon="29.9805058096"><ele>90.66</ele><time>2026-04-25T14:06:07.000Z</time><hdop>3.812</hdop><vdop>3.812</vdop><extensions><gom:speed>0.0</gom:speed></extensions></trkpt>
   <trkpt lat="59.1068806194" lon="29.980505139"><ele>90.655</ele><time>2026-04-25T14:06:08.000Z</time><hdop>3.75</hdop><vdop>3.75</vdop><extensions><gom:speed>0.259</gom:speed></extensions></trkpt>
   <trkpt lat="59.1068773505" lon="29.9805015348"><ele>90.708</ele><time>2026-04-25T14:06:09.000Z</time><hdop>3.375</hdop><vdop>3.375</vdop><extensions><gom:speed>0.461</gom:speed></extensions></trkpt>
   <trkpt lat="59.1068753388" lon="29.9805013672"><ele>90.815</ele><time>2026-04-25T14:06:10.000Z</time><hdop>3.437</hdop><vdop>3.437</vdop><extensions><gom:speed>0.32</gom:speed></extensions></trkpt>
   <trkpt lat="59.1068740396" lon="29.9805025407"><ele>90.966</ele><time>2026-04-25T14:06:11.000Z</time><hdop>3.875</hdop><vdop>3.875</vdop><extensions><gom:speed>0.214</gom:speed></extensions></trkpt>
   <trkpt lat="59.1068744168" lon="29.980505642"><ele>91.142</ele><time>2026-04-25T14:06:12.000Z</time><hdop>4.5</hdop><vdop>4.5</vdop><extensions><gom:speed>0.165</gom:speed></extensions></trkpt>
   <trkpt lat="59.106874333" lon="29.9805075698"><ele>91.265</ele><time>2026-04-25T14:06:13.000Z</time><hdop>4.75</hdop><vdop>4.75</vdop><extensions><gom:speed>0.275</gom:speed></extensions></trkpt>
   <trkpt lat="59.106874333" lon="29.9805075698"><ele>91.338</ele><time>2026-04-25T14:06:14.000Z</time><hdop>4.75</hdop><vdop>4.75</vdop><extensions><gom:speed>0.0</gom:speed></extensions></trkpt>
   <trkpt lat="59.106874333" lon="29.9805075698"><ele>91.381</ele><time>2026-04-25T14:06:15.000Z</time><hdop>4.75</hdop><vdop>4.75</vdop><extensions><gom:speed>0.0</gom:speed></extensions></trkpt>
   <trkpt lat="59.106874333" lon="29.9805075698"><ele>91.407</ele><time>2026-04-25T14:06:16.000Z</time><hdop>4.75</hdop><vdop>4.75</vdop><extensions><gom:speed>0.0</gom:speed></extensions></trkpt>
   <trkpt lat="59.106874333" lon="29.9805075698"><ele>91.423</ele><time>2026-04-25T14:06:17.000Z</time><hdop>4.75</hdop><vdop>4.75</vdop><extensions><gom:speed>0.0</gom:speed></extensions></trkpt>
   <trkpt lat="59.106874333" lon="29.9805075698"><ele>91.432</ele><time>2026-04-25T14:06:18.000Z</time><hdop>4.75</hdop><vdop>4.75</vdop><extensions><gom:speed>0.0</gom:speed></extensions></trkpt>
   <trkpt lat="59.106874333" lon="29.9805075698"><ele>91.438</ele><time>2026-04-25T14:06:19.000Z</time><hdop>4.75</hdop><vdop>4.75</vdop><extensions><gom:speed>0.0</gom:speed></extensions></trkpt>
   <trkpt lat="59.106874333" lon="29.9805075698"><ele>91.441</ele><time>2026-04-25T14:06:20.000Z</time><hdop>4.75</hdop><vdop>4.75</vdop><extensions><gom:speed>0.0</gom:speed></extensions></trkpt>
   <trkpt lat="59.106874333" lon="29.9805075698"><ele>91.443</ele><time>2026-04-25T14:06:21.000Z</time><hdop>4.75</hdop><vdop>4.75</vdop><extensions><gom:speed>0.0</gom:speed></extensions></trkpt>
   <trkpt lat="59.106874333" lon="29.9805075698"><ele>91.444</ele><time>2026-04-25T14:06:22.000Z</time><hdop>4.75</hdop><vdop>4.75</vdop><extensions><gom:speed>0.0</gom:speed></extensions></trkpt>
   <trkpt lat="59.106874333" lon="29.9805075698"><ele>91.445</ele><time>2026-04-25T14:06:23.000Z</time><hdop>4.75</hdop><vdop>4.75</vdop><extensions><gom:speed>0.0</gom:speed></extensions></trkpt>
   <trkpt lat="59.106874333" lon="29.9805075698"><ele>91.445</ele><time>2026-04-25T14:06:24.000Z</time><hdop>4.75</hdop><vdop>4.75</vdop><extensions><gom:speed>0.0</gom:speed></extensions></trkpt>
   <trkpt lat="59.106874333" lon="29.9805075698"><ele>91.445</ele><time>2026-04-25T14:06:25.000Z</time><hdop>4.75</hdop><vdop>4.75</vdop><extensions><gom:speed>0.0</gom:speed></extensions></trkpt>
   <trkpt lat="59.106874333" lon="29.9805075698"><ele>91.446</ele><time>2026-04-25T14:06:26.000Z</time><hdop>4.75</hdop><vdop>4.75</vdop><extensions><gom:speed>0.0</gom:speed></extensions></trkpt>
   <trkpt lat="59.106874333" lon="29.9805075698"><ele>91.446</ele><time>2026-04-25T14:06:27.000Z</time><hdop>4.75</hdop><vdop>4.75</vdop><extensions><gom:speed>0.0</gom:speed></extensions></trkpt>
   <trkpt lat="59.106874333" lon="29.9805075698"><ele>91.446</ele><time>2026-04-25T14:06:27.000Z</time><hdop>4.75</hdop><vdop>4.75</vdop><extensions><gom:speed>0.0</gom:speed></extensions></trkpt>
   <trkpt lat="59.106874333" lon="29.9805075698"><ele>91.446</ele><time>2026-04-25T14:06:28.000Z</time><hdop>4.75</hdop><vdop>4.75</vdop><extensions><gom:speed>0.0</gom:speed></extensions></trkpt>
   <trkpt lat="59.106874333" lon="29.9805075698"><ele>91.446</ele><time>2026-04-25T14:06:29.000Z</time><hdop>4.75</hdop><vdop>4.75</vdop><extensions><gom:speed>0.0</gom:speed></extensions></trkpt>
   <trkpt lat="59.106874333" lon="29.9805075698"><ele>91.446</ele><time>2026-04-25T14:06:30.000Z</time><hdop>4.75</hdop><vdop>4.75</vdop><extensions><gom:speed>0.0</gom:speed></extensions></trkpt>
   <trkpt lat="59.106874333" lon="29.9805075698"><ele>91.446</ele><time>2026-04-25T14:06:31.000Z</time><hdop>4.75</hdop><vdop>4.75</vdop><extensions><gom:speed>0.0</gom:speed></extensions></trkpt>
   <trkpt lat="59.106874333" lon="29.9805075698"><ele>91.446</ele><time>2026-04-25T14:06:32.000Z</time><hdop>4.75</hdop><vdop>4.75</vdop><extensions><gom:speed>0.0</gom:speed></extensions></trkpt>
   <trkpt lat="59.106874333" lon="29.9805075698"><ele>91.446</ele><time>2026-04-25T14:06:33.000Z</time><hdop>4.75</hdop><vdop>4.75</vdop><extensions><gom:speed>0.0</gom:speed></extensions></trkpt>
   <trkpt lat="59.106874333" lon="29.9805075698"><ele>91.446</ele><time>2026-04-25T14:06:34.000Z</time><hdop>4.75</hdop><vdop>4.75</vdop><extensions><gom:speed>0.0</gom:speed></extensions></trkpt>
   <trkpt lat="59.106874333" lon="29.9805075698"><ele>91.446</ele><time>2026-04-25T14:06:35.000Z</time><hdop>4.75</hdop><vdop>4.75</vdop><extensions><gom:speed>0.0</gom:speed></extensions></trkpt>
   <trkpt lat="59.106874333" lon="29.9805075698"><ele>91.446</ele><time>2026-04-25T14:06:36.000Z</time><hdop>4.75</hdop><vdop>4.75</vdop><extensions><gom:speed>0.0</gom:speed></extensions></trkpt>
   <trkpt lat="59.106874333" lon="29.9805075698"><ele>91.446</ele><time>2026-04-25T14:06:37.000Z</time><hdop>4.75</hdop><vdop>4.75</vdop><extensions><gom:speed>0.0</gom:speed></extensions></trkpt>
   <trkpt lat="59.106874333" lon="29.9805075698"><ele>91.446</ele><time>2026-04-25T14:06:38.000Z</time><hdop>4.75</hdop><vdop>4.75</vdop><extensions><gom:speed>0.0</gom:speed></extensions></trkpt>
   <trkpt lat="59.106874333" lon="29.9805075698"><ele>91.446</ele><time>2026-04-25T14:06:39.000Z</time><hdop>4.75</hdop><vdop>4.75</vdop><extensions><gom:speed>0.0</gom:speed></extensions></trkpt>
   <trkpt lat="59.106874333" lon="29.9805075698"><ele>91.446</ele><time>2026-04-25T14:06:40.000Z</time><hdop>4.75</hdop><vdop>4.75</vdop><extensions><gom:speed>0.0</gom:speed></extensions></trkpt>
   <trkpt lat="59.106874333" lon="29.9805075698"><ele>91.446</ele><time>2026-04-25T14:06:41.000Z</time><hdop>4.75</hdop><vdop>4.75</vdop><extensions><gom:speed>0.0</gom:speed></extensions></trkpt>
   <trkpt lat="59.106874333" lon="29.9805075698"><ele>91.446</ele><time>2026-04-25T14:06:42.000Z</time><hdop>4.75</hdop><vdop>4.75</vdop><extensions><gom:speed>0.0</gom:speed></extensions></trkpt>
   <trkpt lat="59.106874333" lon="29.9805075698"><ele>91.446</ele><time>2026-04-25T14:06:43.000Z</time><hdop>4.75</hdop><vdop>4.75</vdop><extensions><gom:speed>0.0</gom:speed></extensions></trkpt>
   <trkpt lat="59.106874333" lon="29.9805075698"><ele>91.446</ele><time>2026-04-25T14:06:44.000Z</time><hdop>4.75</hdop><vdop>4.75</vdop><extensions><gom:speed>0.0</gom:speed></extensions></trkpt>
   <trkpt lat="59.106874333" lon="29.9805075698"><ele>91.446</ele><time>2026-04-25T14:06:45.000Z</time><hdop>4.75</hdop><vdop>4.75</vdop><extensions><gom:speed>0.0</gom:speed></extensions></trkpt>
   <trkpt lat="59.106874333" lon="29.9805075698"><ele>91.446</ele><time>2026-04-25T14:06:46.000Z</time><hdop>4.75</hdop><vdop>4.75</vdop><extensions><gom:speed>0.0</gom:speed></extensions></trkpt>
   <trkpt lat="59.106874333" lon="29.9805075698"><ele>91.446</ele><time>2026-04-25T14:06:47.000Z</time><hdop>4.75</hdop><vdop>4.75</vdop><extensions><gom:speed>0.0</gom:speed></extensions></trkpt>
   <trkpt lat="59.106874333" lon="29.9805075698"><ele>91.446</ele><time>2026-04-25T14:06:47.000Z</time><hdop>4.75</hdop><vdop>4.75</vdop><extensions><gom:speed>0.0</gom:speed></extensions></trkpt>
   <trkpt lat="59.106874333" lon="29.9805075698"><ele>91.446</ele><time>2026-04-25T14:06:48.000Z</time><hdop>4.75</hdop><vdop>4.75</vdop><extensions><gom:speed>0.0</gom:speed></extensions></trkpt>
   <trkpt lat="59.106874333" lon="29.9805075698"><ele>91.446</ele><time>2026-04-25T14:06:49.000Z</time><hdop>4.75</hdop><vdop>4.75</vdop><extensions><gom:speed>0.0</gom:speed></extensions></trkpt>
   <trkpt lat="59.106874333" lon="29.9805075698"><ele>91.446</ele><time>2026-04-25T14:06:50.000Z</time><hdop>4.75</hdop><vdop>4.75</vdop><extensions><gom:speed>0.0</gom:speed></extensions></trkpt>
   <trkpt lat="59.106874333" lon="29.9805075698"><ele>91.446</ele><time>2026-04-25T14:06:51.000Z</time><hdop>4.75</hdop><vdop>4.75</vdop><extensions><gom:speed>0.0</gom:speed></extensions></trkpt>
   <trkpt lat="59.106874333" lon="29.9805075698"><ele>91.446</ele><time>2026-04-25T14:06:52.000Z</time><hdop>4.75</hdop><vdop>4.75</vdop><extensions><gom:speed>0.0</gom:speed></extensions></trkpt>
   <trkpt lat="59.106874333" lon="29.9805075698"><ele>91.446</ele><time>2026-04-25T14:06:53.000Z</time><hdop>4.75</hdop><vdop>4.75</vdop><extensions><gom:speed>0.0</gom:speed></extensions></trkpt>
   <trkpt lat="59.106874333" lon="29.9805075698"><ele>91.446</ele><time>2026-04-25T14:06:54.000Z</time><hdop>4.75</hdop><vdop>4.75</vdop><extensions><gom:speed>0.0</gom:speed></extensions></trkpt>
   <trkpt lat="59.106874333" lon="29.9805075698"><ele>91.446</ele><time>2026-04-25T14:06:55.000Z</time><hdop>4.75</hdop><vdop>4.75</vdop><extensions><gom:speed>0.0</gom:speed></extensions></trkpt>
   <trkpt lat="59.106874333" lon="29.9805075698"><ele>91.446</ele><time>2026-04-25T14:06:56.000Z</time><hdop>4.75</hdop><vdop>4.75</vdop><extensions><gom:speed>0.0</gom:speed></extensions></trkpt>
   <trkpt lat="59.106874333" lon="29.9805075698"><ele>91.446</ele><time>2026-04-25T14:06:57.000Z</time><hdop>4.75</hdop><vdop>4.75</vdop><extensions><gom:speed>0.0</gom:speed></extensions></trkpt>
   <trkpt lat="59.106874333" lon="29.9805075698"><ele>91.446</ele><time>2026-04-25T14:06:58.000Z</time><hdop>4.75</hdop><vdop>4.75</vdop><extensions><gom:speed>0.0</gom:speed></extensions></trkpt>
   <trkpt lat="59.106874333" lon="29.9805075698"><ele>91.446</ele><time>2026-04-25T14:06:59.000Z</time><hdop>4.75</hdop><vdop>4.75</vdop><extensions><gom:speed>0.0</gom:speed></extensions></trkpt>
   <trkpt lat="59.106874333" lon="29.9805075698"><ele>91.446</ele><time>2026-04-25T14:07:00.000Z</time><hdop>4.75</hdop><vdop>4.75</vdop><extensions><gom:speed>0.0</gom:speed></extensions></trkpt>
   <trkpt lat="59.106874333" lon="29.9805075698"><ele>91.446</ele><time>2026-04-25T14:07:01.000Z</time><hdop>4.75</hdop><vdop>4.75</vdop><extensions><gom:speed>0.0</gom:speed></extensions></trkpt>
   <trkpt lat="59.106874333" lon="29.9805075698"><ele>91.446</ele><time>2026-04-25T14:07:02.000Z</time><hdop>4.75</hdop><vdop>4.75</vdop><extensions><gom:speed>0.0</gom:speed></extensions></trkpt>
   <trkpt lat="59.106874333" lon="29.9805075698"><ele>91.446</ele><time>2026-04-25T14:07:03.000Z</time><hdop>4.75</hdop><vdop>4.75</vdop><extensions><gom:speed>0.0</gom:speed></extensions></trkpt>
   <trkpt lat="59.106874333" lon="29.9805075698"><ele>91.446</ele><time>2026-04-25T14:07:04.000Z</time><hdop>4.75</hdop><vdop>4.75</vdop><extensions><gom:speed>0.0</gom:speed></extensions></trkpt>
   <trkpt lat="59.106874333" lon="29.9805075698"><ele>91.446</ele><time>2026-04-25T14:07:05.000Z</time><hdop>4.75</hdop><vdop>4.75</vdop><extensions><gom:speed>0.0</gom:speed></extensions></trkpt>
   <trkpt lat="59.106874333" lon="29.9805075698"><ele>91.446</ele><time>2026-04-25T14:07:06.000Z</time><hdop>4.75</hdop><vdop>4.75</vdop><extensions><gom:speed>0.0</gom:speed></extensions></trkpt>
   <trkpt lat="59.106874333" lon="29.9805075698"><ele>91.446</ele><time>2026-04-25T14:07:07.000Z</time><hdop>4.75</hdop><vdop>4.75</vdop><extensions><gom:speed>0.0</gom:speed></extensions></trkpt>
   <trkpt lat="59.106874333" lon="29.9805075698"><ele>91.446</ele><time>2026-04-25T14:07:07.000Z</time><hdop>4.75</hdop><vdop>4.75</vdop><extensions><gom:speed>0.0</gom:speed></extensions></trkpt>
   <trkpt lat="59.106874333" lon="29.9805075698"><ele>91.446</ele><time>2026-04-25T14:07:08.000Z</time><hdop>4.75</hdop><vdop>4.75</vdop><extensions><gom:speed>0.0</gom:speed></extensions></trkpt>
   <trkpt lat="59.106874333" lon="29.9805075698"><ele>91.446</ele><time>2026-04-25T14:07:09.000Z</time><hdop>4.75</hdop><vdop>4.75</vdop><extensions><gom:speed>0.0</gom:speed></extensions></trkpt>
   <trkpt lat="59.106874333" lon="29.9805075698"><ele>91.446</ele><time>2026-04-25T14:07:10.000Z</time><hdop>4.75</hdop><vdop>4.75</vdop><extensions><gom:speed>0.0</gom:speed></extensions></trkpt>
   <trkpt lat="59.106874333" lon="29.9805075698"><ele>91.446</ele><time>2026-04-25T14:07:11.000Z</time><hdop>4.75</hdop><vdop>4.75</vdop><extensions><gom:speed>0.0</gom:speed></extensions></trkpt>
   <trkpt lat="59.106874333" lon="29.9805075698"><ele>91.446</ele><time>2026-04-25T14:07:12.000Z</time><hdop>4.75</hdop><vdop>4.75</vdop><extensions><gom:speed>0.0</gom:speed></extensions></trkpt>
   <trkpt lat="59.106874333" lon="29.9805075698"><ele>91.446</ele><time>2026-04-25T14:07:13.000Z</time><hdop>4.75</hdop><vdop>4.75</vdop><extensions><gom:speed>0.0</gom:speed></extensions></trkpt>
   <trkpt lat="59.106874333" lon="29.9805075698"><ele>91.446</ele><time>2026-04-25T14:07:14.000Z</time><hdop>4.75</hdop><vdop>4.75</vdop><extensions><gom:speed>0.0</gom:speed></extensions></trkpt>
   <trkpt lat="59.106874333" lon="29.9805075698"><ele>91.446</ele><time>2026-04-25T14:07:15.000Z</time><hdop>4.75</hdop><vdop>4.75</vdop><extensions><gom:speed>0.0</gom:speed></extensions></trkpt>
   <trkpt lat="59.106874333" lon="29.9805075698"><ele>91.446</ele><time>2026-04-25T14:07:16.000Z</time><hdop>4.75</hdop><vdop>4.75</vdop><extensions><gom:speed>0.0</gom:speed></extensions></trkpt>
   <trkpt lat="59.106874333" lon="29.9805075698"><ele>91.446</ele><time>2026-04-25T14:07:17.000Z</time><hdop>4.75</hdop><vdop>4.75</vdop><extensions><gom:speed>0.0</gom:speed></extensions></trkpt>
   <trkpt lat="59.106874333" lon="29.9805075698"><ele>91.446</ele><time>2026-04-25T14:07:18.000Z</time><hdop>4.75</hdop><vdop>4.75</vdop><extensions><gom:speed>0.0</gom:speed></extensions></trkpt>
   <trkpt lat="59.106874333" lon="29.9805075698"><ele>91.446</ele><time>2026-04-25T14:07:19.000Z</time><hdop>4.75</hdop><vdop>4.75</vdop><extensions><gom:speed>0.0</gom:speed></extensions></trkpt>
   <trkpt lat="59.106874333" lon="29.9805075698"><ele>91.446</ele><time>2026-04-25T14:07:20.000Z</time><hdop>4.75</hdop><vdop>4.75</vdop><extensions><gom:speed>0.0</gom:speed></extensions></trkpt>
   <trkpt lat="59.106874333" lon="29.9805075698"><ele>91.446</ele><time>2026-04-25T14:07:21.000Z</time><hdop>4.75</hdop><vdop>4.75</vdop><extensions><gom:speed>0.0</gom:speed></extensions></trkpt>
   <trkpt lat="59.106874333" lon="29.9805075698"><ele>91.446</ele><time>2026-04-25T14:07:22.000Z</time><hdop>4.75</hdop><vdop>4.75</vdop><extensions><gom:speed>0.0</gom:speed></extensions></trkpt>
   <trkpt lat="59.106874333" lon="29.9805075698"><ele>91.446</ele><time>2026-04-25T14:07:23.000Z</time><hdop>4.75</hdop><vdop>4.75</vdop><extensions><gom:speed>0.0</gom:speed></extensions></trkpt>
   <trkpt lat="59.106874333" lon="29.9805075698"><ele>91.446</ele><time>2026-04-25T14:07:24.000Z</time><hdop>4.75</hdop><vdop>4.75</vdop><extensions><gom:speed>0.0</gom:speed></extensions></trkpt>
   <trkpt lat="59.106874333" lon="29.9805075698"><ele>91.446</ele><time>2026-04-25T14:07:25.000Z</time><hdop>4.75</hdop><vdop>4.75</vdop><extensions><gom:speed>0.0</gom:speed></extensions></trkpt>
   <trkpt lat="59.106874333" lon="29.9805075698"><ele>91.446</ele><time>2026-04-25T14:07:26.000Z</time><hdop>4.75</hdop><vdop>4.75</vdop><extensions><gom:speed>0.0</gom:speed></extensions></trkpt>
   <trkpt lat="59.1068726147" lon="29.9805049714"><ele>91.444</ele><time>2026-04-25T14:07:27.000Z</time><hdop>4.375</hdop><vdop>4.375</vdop><extensions><gom:speed>0.374</gom:speed></extensions></trkpt>
   <trkpt lat="59.1068726147" lon="29.9805049714"><ele>91.443</ele><time>2026-04-25T14:07:27.000Z</time><hdop>4.375</hdop><vdop>4.375</vdop><extensions><gom:speed>0.374</gom:speed></extensions></trkpt>
   <trkpt lat="59.1068693457" lon="29.9805026245"><ele>91.504</ele><time>2026-04-25T14:07:28.000Z</time><hdop>4.875</hdop><vdop>4.875</vdop><extensions><gom:speed>0.243</gom:speed></extensions></trkpt>
   <trkpt lat="59.1068662863" lon="29.9805082404"><ele>91.593</ele><time>2026-04-25T14:07:29.000Z</time><hdop>4.687</hdop><vdop>4.687</vdop><extensions><gom:speed>0.365</gom:speed></extensions></trkpt>
   <trkpt lat="59.1068664959" lon="29.9805141915"><ele>91.708</ele><time>2026-04-25T14:07:30.000Z</time><hdop>4.937</hdop><vdop>4.937</vdop><extensions><gom:speed>0.295</gom:speed></extensions></trkpt>
   <trkpt lat="59.1068659511" lon="29.9805191368"><ele>91.874</ele><time>2026-04-25T14:07:31.000Z</time><hdop>4.625</hdop><vdop>4.625</vdop><extensions><gom:speed>0.232</gom:speed></extensions></trkpt>
   <trkpt lat="59.1068664959" lon="29.9805230763"><ele>92.066</ele><time>2026-04-25T14:07:32.000Z</time><hdop>4.312</hdop><vdop>4.312</vdop><extensions><gom:speed>0.057</gom:speed></extensions></trkpt>
   <trkpt lat="59.1068681304" lon="29.9805239145"><ele>92.227</ele><time>2026-04-25T14:07:33.000Z</time><hdop>3.625</hdop><vdop>3.625</vdop><extensions><gom:speed>0.16</gom:speed></extensions></trkpt>
   <trkpt lat="59.1068676694" lon="29.9805238307"><ele>92.244</ele><time>2026-04-25T14:07:34.000Z</time><hdop>3.437</hdop><vdop>3.437</vdop><extensions><gom:speed>0.151</gom:speed></extensions></trkpt>
   <trkpt lat="59.1068676694" lon="29.9805238307"><ele>92.254</ele><time>2026-04-25T14:07:35.000Z</time><hdop>3.437</hdop><vdop>3.437</vdop><extensions><gom:speed>0.0</gom:speed></extensions></trkpt>
   <trkpt lat="59.1068676694" lon="29.9805238307"><ele>92.26</ele><time>2026-04-25T14:07:36.000Z</time><hdop>3.437</hdop><vdop>3.437</vdop><extensions><gom:speed>0.0</gom:speed></extensions></trkpt>
   <trkpt lat="59.1068676694" lon="29.9805238307"><ele>92.264</ele><time>2026-04-25T14:07:37.000Z</time><hdop>3.437</hdop><vdop>3.437</vdop><extensions><gom:speed>0.0</gom:speed></extensions></trkpt>
   <trkpt lat="59.1068676694" lon="29.9805238307"><ele>92.266</ele><time>2026-04-25T14:07:38.000Z</time><hdop>3.437</hdop><vdop>3.437</vdop><extensions><gom:speed>0.0</gom:speed></extensions></trkpt>
   <trkpt lat="59.1068676694" lon="29.9805238307"><ele>92.268</ele><time>2026-04-25T14:07:39.000Z</time><hdop>3.437</hdop><vdop>3.437</vdop><extensions><gom:speed>0.0</gom:speed></extensions></trkpt>
   <trkpt lat="59.1068676694" lon="29.9805238307"><ele>92.268</ele><time>2026-04-25T14:07:40.000Z</time><hdop>3.437</hdop><vdop>3.437</vdop><extensions><gom:speed>0.0</gom:speed></extensions></trkpt>
   <trkpt lat="59.1068676694" lon="29.9805238307"><ele>92.269</ele><time>2026-04-25T14:07:41.000Z</time><hdop>3.437</hdop><vdop>3.437</vdop><extensions><gom:speed>0.0</gom:speed></extensions></trkpt>
   <trkpt lat="59.1068676694" lon="29.9805238307"><ele>92.269</ele><time>2026-04-25T14:07:42.000Z</time><hdop>3.437</hdop><vdop>3.437</vdop><extensions><gom:speed>0.0</gom:speed></extensions></trkpt>
   <trkpt lat="59.1068676694" lon="29.9805238307"><ele>92.269</ele><time>2026-04-25T14:07:43.000Z</time><hdop>3.437</hdop><vdop>3.437</vdop><extensions><gom:speed>0.0</gom:speed></extensions></trkpt>
   <trkpt lat="59.1068676694" lon="29.9805238307"><ele>92.269</ele><time>2026-04-25T14:07:44.000Z</time><hdop>3.437</hdop><vdop>3.437</vdop><extensions><gom:speed>0.0</gom:speed></extensions></trkpt>
   <trkpt lat="59.1068676694" lon="29.9805238307"><ele>92.269</ele><time>2026-04-25T14:07:45.000Z</time><hdop>3.437</hdop><vdop>3.437</vdop><extensions><gom:speed>0.0</gom:speed></extensions></trkpt>
   <trkpt lat="59.1068684656" lon="29.9805184663"><ele>92.33</ele><time>2026-04-25T14:07:46.000Z</time><hdop>3.125</hdop><vdop>3.125</vdop><extensions><gom:speed>0.38</gom:speed></extensions></trkpt>
   <trkpt lat="59.1068702677" lon="29.9805091624"><ele>92.404</ele><time>2026-04-25T14:07:47.000Z</time><hdop>3.0</hdop><vdop>3.0</vdop><extensions><gom:speed>0.493</gom:speed></extensions></trkpt>
   <trkpt lat="59.1068702677" lon="29.9805091624"><ele>92.448</ele><time>2026-04-25T14:07:47.000Z</time><hdop>3.0</hdop><vdop>3.0</vdop><extensions><gom:speed>0.493</gom:speed></extensions></trkpt>
   <trkpt lat="59.1068721537" lon="29.9804998584"><ele>92.523</ele><time>2026-04-25T14:07:48.000Z</time><hdop>3.0</hdop><vdop>3.0</vdop><extensions><gom:speed>0.525</gom:speed></extensions></trkpt>
   <trkpt lat="59.1068732014" lon="29.9804909736"><ele>92.594</ele><time>2026-04-25T14:07:49.000Z</time><hdop>3.0</hdop><vdop>3.0</vdop><extensions><gom:speed>0.513</gom:speed></extensions></trkpt>
   <trkpt lat="59.1068749616" lon="29.9804811668"><ele>92.666</ele><time>2026-04-25T14:07:50.000Z</time><hdop>3.0</hdop><vdop>3.0</vdop><extensions><gom:speed>0.528</gom:speed></extensions></trkpt>
   <trkpt lat="59.1068772666" lon="29.9804716953"><ele>92.726</ele><time>2026-04-25T14:07:51.000Z</time><hdop>3.0</hdop><vdop>3.0</vdop><extensions><gom:speed>0.587</gom:speed></extensions></trkpt>
   <trkpt lat="59.1068797393" lon="29.9804592062"><ele>92.796</ele><time>2026-04-25T14:07:52.000Z</time><hdop>3.0</hdop><vdop>3.0</vdop><extensions><gom:speed>0.656</gom:speed></extensions></trkpt>
   <trkpt lat="59.1068821281" lon="29.9804471363"><ele>92.827</ele><time>2026-04-25T14:07:53.000Z</time><hdop>3.0</hdop><vdop>3.0</vdop><extensions><gom:speed>0.648</gom:speed></extensions></trkpt>
   <trkpt lat="59.1068833016" lon="29.9804344796"><ele>92.844</ele><time>2026-04-25T14:07:54.000Z</time><hdop>3.0</hdop><vdop>3.0</vdop><extensions><gom:speed>0.63</gom:speed></extensions></trkpt>
   <trkpt lat="59.1068851037" lon="29.9804214877"><ele>92.869</ele><time>2026-04-25T14:07:55.000Z</time><hdop>3.0</hdop><vdop>3.0</vdop><extensions><gom:speed>0.646</gom:speed></extensions></trkpt>
   <trkpt lat="59.1068871992" lon="29.980407909"><ele>92.889</ele><time>2026-04-25T14:07:56.000Z</time><hdop>3.0</hdop><vdop>3.0</vdop><extensions><gom:speed>0.716</gom:speed></extensions></trkpt>
   <trkpt lat="59.1068901748" lon="29.9803973478"><ele>92.895</ele><time>2026-04-25T14:07:57.000Z</time><hdop>3.0</hdop><vdop>3.0</vdop><extensions><gom:speed>0.662</gom:speed></extensions></trkpt>
   <trkpt lat="59.1068929827" lon="29.9803899717"><ele>92.895</ele><time>2026-04-25T14:07:58.000Z</time><hdop>3.0</hdop><vdop>3.0</vdop><extensions><gom:speed>0.402</gom:speed></extensions></trkpt>
   <trkpt lat="59.1068944914" lon="29.9803851102"><ele>92.93</ele><time>2026-04-25T14:07:59.000Z</time><hdop>3.0</hdop><vdop>3.0</vdop><extensions><gom:speed>0.189</gom:speed></extensions></trkpt>
   <trkpt lat="59.1068944914" lon="29.9803851102"><ele>92.951</ele><time>2026-04-25T14:08:00.000Z</time><hdop>3.0</hdop><vdop>3.0</vdop><extensions><gom:speed>0.0</gom:speed></extensions></trkpt>
   <trkpt lat="59.1068944914" lon="29.9803851102"><ele>92.963</ele><time>2026-04-25T14:08:01.000Z</time><hdop>3.0</hdop><vdop>3.0</vdop><extensions><gom:speed>0.0</gom:speed></extensions></trkpt>
   <trkpt lat="59.1068944914" lon="29.9803851102"><ele>92.971</ele><time>2026-04-25T14:08:02.000Z</time><hdop>3.0</hdop><vdop>3.0</vdop><extensions><gom:speed>0.0</gom:speed></extensions></trkpt>
   <trkpt lat="59.1068944914" lon="29.9803851102"><ele>92.975</ele><time>2026-04-25T14:08:03.000Z</time><hdop>3.0</hdop><vdop>3.0</vdop><extensions><gom:speed>0.0</gom:speed></extensions></trkpt>
   <trkpt lat="59.1068944914" lon="29.9803851102"><ele>92.978</ele><time>2026-04-25T14:08:04.000Z</time><hdop>3.0</hdop><vdop>3.0</vdop><extensions><gom:speed>0.0</gom:speed></extensions></trkpt>
   <trkpt lat="59.1068944914" lon="29.9803851102"><ele>92.979</ele><time>2026-04-25T14:08:05.000Z</time><hdop>3.0</hdop><vdop>3.0</vdop><extensions><gom:speed>0.0</gom:speed></extensions></trkpt>
   <trkpt lat="59.1068944914" lon="29.9803851102"><ele>92.98</ele><time>2026-04-25T14:08:06.000Z</time><hdop>3.0</hdop><vdop>3.0</vdop><extensions><gom:speed>0.0</gom:speed></extensions></trkpt>
   <trkpt lat="59.1068944914" lon="29.9803851102"><ele>92.981</ele><time>2026-04-25T14:08:07.000Z</time><hdop>3.0</hdop><vdop>3.0</vdop><extensions><gom:speed>0.0</gom:speed></extensions></trkpt>
   <trkpt lat="59.1068944914" lon="29.9803851102"><ele>92.981</ele><time>2026-04-25T14:08:07.000Z</time><hdop>3.0</hdop><vdop>3.0</vdop><extensions><gom:speed>0.0</gom:speed></extensions></trkpt>
   <trkpt lat="59.1068969222" lon="29.9803808354"><ele>92.987</ele><time>2026-04-25T14:08:08.000Z</time><hdop>3.0</hdop><vdop>3.0</vdop><extensions><gom:speed>0.618</gom:speed></extensions></trkpt>
   <trkpt lat="59.1069022028" lon="29.9803704419"><ele>93.003</ele><time>2026-04-25T14:08:09.000Z</time><hdop>3.0</hdop><vdop>3.0</vdop><extensions><gom:speed>0.854</gom:speed></extensions></trkpt>
   <trkpt lat="59.1069068548" lon="29.9803592939"><ele>93.016</ele><time>2026-04-25T14:08:10.000Z</time><hdop>3.0</hdop><vdop>3.0</vdop><extensions><gom:speed>0.718</gom:speed></extensions></trkpt>
   <trkpt lat="59.106909998" lon="29.9803478945"><ele>93.027</ele><time>2026-04-25T14:08:11.000Z</time><hdop>3.0</hdop><vdop>3.0</vdop><extensions><gom:speed>0.718</gom:speed></extensions></trkpt>
   <trkpt lat="59.1069136022" lon="29.9803359922"><ele>93.024</ele><time>2026-04-25T14:08:12.000Z</time><hdop>3.0</hdop><vdop>3.0</vdop><extensions><gom:speed>0.73</gom:speed></extensions></trkpt>
   <trkpt lat="59.1069156558" lon="29.9803207372"><ele>92.876</ele><time>2026-04-25T14:08:13.000Z</time><hdop>3.0</hdop><vdop>3.0</vdop><extensions><gom:speed>0.976</gom:speed></extensions></trkpt>
   <trkpt lat="59.1069182541" lon="29.9803067394"><ele>92.765</ele><time>2026-04-25T14:08:14.000Z</time><hdop>3.0</hdop><vdop>3.0</vdop><extensions><gom:speed>0.842</gom:speed></extensions></trkpt>
   <trkpt lat="59.1069195533" lon="29.9802950047"><ele>92.656</ele><time>2026-04-25T14:08:15.000Z</time><hdop>3.0</hdop><vdop>3.0</vdop><extensions><gom:speed>0.642</gom:speed></extensions></trkpt>
   <trkpt lat="59.1069185475" lon="29.9802846112"><ele>92.579</ele><time>2026-04-25T14:08:16.000Z</time><hdop>3.0</hdop><vdop>3.0</vdop><extensions><gom:speed>0.515</gom:speed></extensions></trkpt>
   <trkpt lat="59.1069180446" lon="29.9802748043"><ele>92.53</ele><time>2026-04-25T14:08:17.000Z</time><hdop>3.0</hdop><vdop>3.0</vdop><extensions><gom:speed>0.766</gom:speed></extensions></trkpt>
   <trkpt lat="59.1069167035" lon="29.9802595493"><ele>92.472</ele><time>2026-04-25T14:08:18.000Z</time><hdop>3.0</hdop><vdop>3.0</vdop><extensions><gom:speed>0.971</gom:speed></extensions></trkpt>
   <trkpt lat="59.1069156138" lon="29.9802451324"><ele>92.406</ele><time>2026-04-25T14:08:19.000Z</time><hdop>3.0</hdop><vdop>3.0</vdop><extensions><gom:speed>0.827</gom:speed></extensions></trkpt>
   <trkpt lat="59.1069148595" lon="29.9802326434"><ele>92.335</ele><time>2026-04-25T14:08:20.000Z</time><hdop>3.0</hdop><vdop>3.0</vdop><extensions><gom:speed>0.862</gom:speed></extensions></trkpt>
   <trkpt lat="59.1069148595" lon="29.9802211602"><ele>92.297</ele><time>2026-04-25T14:08:21.000Z</time><hdop>3.0</hdop><vdop>3.0</vdop><extensions><gom:speed>0.734</gom:speed></extensions></trkpt>
   <trkpt lat="59.1069166616" lon="29.9802107666"><ele>92.294</ele><time>2026-04-25T14:08:22.000Z</time><hdop>3.0</hdop><vdop>3.0</vdop><extensions><gom:speed>0.802</gom:speed></extensions></trkpt>
   <trkpt lat="59.1069199305" lon="29.9801975232"><ele>92.323</ele><time>2026-04-25T14:08:23.000Z</time><hdop>3.0</hdop><vdop>3.0</vdop><extensions><gom:speed>1.018</gom:speed></extensions></trkpt>
   <trkpt lat="59.1069247501" lon="29.9801814299"><ele>92.358</ele><time>2026-04-25T14:08:24.000Z</time><hdop>3.0</hdop><vdop>3.0</vdop><extensions><gom:speed>1.117</gom:speed></extensions></trkpt>
   <trkpt lat="59.1069294859" lon="29.9801626545"><ele>92.415</ele><time>2026-04-25T14:08:25.000Z</time><hdop>3.0</hdop><vdop>3.0</vdop><extensions><gom:speed>1.23</gom:speed></extensions></trkpt>
   <trkpt lat="59.1069345569" lon="29.9801426217"><ele>92.481</ele><time>2026-04-25T14:08:26.000Z</time><hdop>3.0</hdop><vdop>3.0</vdop><extensions><gom:speed>1.261</gom:speed></extensions></trkpt>
   <trkpt lat="59.1069380773" lon="29.9801208288"><ele>92.503</ele><time>2026-04-25T14:08:27.000Z</time><hdop>3.0</hdop><vdop>3.0</vdop><extensions><gom:speed>1.163</gom:speed></extensions></trkpt>
   <trkpt lat="59.1069380773" lon="29.9801208288"><ele>92.515</ele><time>2026-04-25T14:08:27.000Z</time><hdop>3.0</hdop><vdop>3.0</vdop><extensions><gom:speed>1.163</gom:speed></extensions></trkpt>
   <trkpt lat="59.1069393765" lon="29.9800994549"><ele>92.467</ele><time>2026-04-25T14:08:28.000Z</time><hdop>3.0</hdop><vdop>3.0</vdop><extensions><gom:speed>1.184</gom:speed></extensions></trkpt>
   <trkpt lat="59.1069389155" lon="29.9800772429"><ele>92.442</ele><time>2026-04-25T14:08:29.000Z</time><hdop>3.0</hdop><vdop>3.0</vdop><extensions><gom:speed>1.2</gom:speed></extensions></trkpt>
   <trkpt lat="59.1069377421" lon="29.9800557852"><ele>92.366</ele><time>2026-04-25T14:08:30.000Z</time><hdop>3.0</hdop><vdop>3.0</vdop><extensions><gom:speed>1.176</gom:speed></extensions></trkpt>
   <trkpt lat="59.1069382031" lon="29.9800369259"><ele>92.258</ele><time>2026-04-25T14:08:31.000Z</time><hdop>3.0</hdop><vdop>3.0</vdop><extensions><gom:speed>1.137</gom:speed></extensions></trkpt>
   <trkpt lat="59.1069384964" lon="29.9800176476"><ele>92.177</ele><time>2026-04-25T14:08:32.000Z</time><hdop>3.0</hdop><vdop>3.0</vdop><extensions><gom:speed>1.075</gom:speed></extensions></trkpt>
   <trkpt lat="59.1069392927" lon="29.9799996265"><ele>92.034</ele><time>2026-04-25T14:08:33.000Z</time><hdop>3.0</hdop><vdop>3.0</vdop><extensions><gom:speed>1.111</gom:speed></extensions></trkpt>
   <trkpt lat="59.1069426455" lon="29.979979929"><ele>91.889</ele><time>2026-04-25T14:08:34.000Z</time><hdop>3.0</hdop><vdop>3.0</vdop><extensions><gom:speed>1.147</gom:speed></extensions></trkpt>
   <trkpt lat="59.1069456211" lon="29.9799610697"><ele>91.753</ele><time>2026-04-25T14:08:35.000Z</time><hdop>3.0</hdop><vdop>3.0</vdop><extensions><gom:speed>1.248</gom:speed></extensions></trkpt>
   <trkpt lat="59.1069497701" lon="29.9799407855"><ele>91.619</ele><time>2026-04-25T14:08:36.000Z</time><hdop>3.0</hdop><vdop>3.0</vdop><extensions><gom:speed>1.297</gom:speed></extensions></trkpt>
   <trkpt lat="59.1069542125" lon="29.9799208366"><ele>91.529</ele><time>2026-04-25T14:08:37.000Z</time><hdop>3.0</hdop><vdop>3.0</vdop><extensions><gom:speed>1.357</gom:speed></extensions></trkpt>
   <trkpt lat="59.1069589064" lon="29.9799008876"><ele>91.399</ele><time>2026-04-25T14:08:38.000Z</time><hdop>3.0</hdop><vdop>3.0</vdop><extensions><gom:speed>1.341</gom:speed></extensions></trkpt>
   <trkpt lat="59.1069630135" lon="29.9798802682"><ele>91.244</ele><time>2026-04-25T14:08:39.000Z</time><hdop>3.0</hdop><vdop>3.0</vdop><extensions><gom:speed>1.364</gom:speed></extensions></trkpt>
   <trkpt lat="59.1069681265" lon="29.9798597325"><ele>91.061</ele><time>2026-04-25T14:08:40.000Z</time><hdop>3.0</hdop><vdop>3.0</vdop><extensions><gom:speed>1.352</gom:speed></extensions></trkpt>
   <trkpt lat="59.1069727784" lon="29.9798377719"><ele>90.869</ele><time>2026-04-25T14:08:41.000Z</time><hdop>3.0</hdop><vdop>3.0</vdop><extensions><gom:speed>1.316</gom:speed></extensions></trkpt>
   <trkpt lat="59.1069784362" lon="29.9798170686"><ele>90.669</ele><time>2026-04-25T14:08:42.000Z</time><hdop>3.0</hdop><vdop>3.0</vdop><extensions><gom:speed>1.206</gom:speed></extensions></trkpt>
   <trkpt lat="59.1069848484" lon="29.9798024841"><ele>90.463</ele><time>2026-04-25T14:08:43.000Z</time><hdop>3.0</hdop><vdop>3.0</vdop><extensions><gom:speed>1.05</gom:speed></extensions></trkpt>
   <trkpt lat="59.1069920568" lon="29.9797948566"><ele>90.279</ele><time>2026-04-25T14:08:44.000Z</time><hdop>3.0</hdop><vdop>3.0</vdop><extensions><gom:speed>0.96</gom:speed></extensions></trkpt>
   <trkpt lat="59.106998427" lon="29.9797924258"><ele>90.117</ele><time>2026-04-25T14:08:45.000Z</time><hdop>3.0</hdop><vdop>3.0</vdop><extensions><gom:speed>0.82</gom:speed></extensions></trkpt>
   <trkpt lat="59.1070021989" lon="29.979794186"><ele>89.962</ele><time>2026-04-25T14:08:46.000Z</time><hdop>3.0</hdop><vdop>3.0</vdop><extensions><gom:speed>0.416</gom:speed></extensions></trkpt>
   <trkpt lat="59.1070032466" lon="29.9797995504"><ele>89.855</ele><time>2026-04-25T14:08:47.000Z</time><hdop>3.0</hdop><vdop>3.0</vdop><extensions><gom:speed>0.1</gom:speed></extensions></trkpt>
   <trkpt lat="59.1070032466" lon="29.9797995504"><ele>89.791</ele><time>2026-04-25T14:08:47.000Z</time><hdop>3.0</hdop><vdop>3.0</vdop><extensions><gom:speed>0.1</gom:speed></extensions></trkpt>
   <trkpt lat="59.1070041687" lon="29.9798036576"><ele>89.684</ele><time>2026-04-25T14:08:48.000Z</time><hdop>3.0</hdop><vdop>3.0</vdop><extensions><gom:speed>0.125</gom:speed></extensions></trkpt>
   <trkpt lat="59.1070041687" lon="29.9798036576"><ele>89.62</ele><time>2026-04-25T14:08:49.000Z</time><hdop>3.0</hdop><vdop>3.0</vdop><extensions><gom:speed>0.0</gom:speed></extensions></trkpt>
   <trkpt lat="59.1070041687" lon="29.9798036576"><ele>89.582</ele><time>2026-04-25T14:08:50.000Z</time><hdop>3.0</hdop><vdop>3.0</vdop><extensions><gom:speed>0.0</gom:speed></extensions></trkpt>
   <trkpt lat="59.1070041687" lon="29.9798036576"><ele>89.559</ele><time>2026-04-25T14:08:51.000Z</time><hdop>3.0</hdop><vdop>3.0</vdop><extensions><gom:speed>0.0</gom:speed></extensions></trkpt>
   <trkpt lat="59.1070041687" lon="29.9798036576"><ele>89.546</ele><time>2026-04-25T14:08:52.000Z</time><hdop>3.0</hdop><vdop>3.0</vdop><extensions><gom:speed>0.0</gom:speed></extensions></trkpt>
   <trkpt lat="59.1070041687" lon="29.9798036576"><ele>89.538</ele><time>2026-04-25T14:08:53.000Z</time><hdop>3.0</hdop><vdop>3.0</vdop><extensions><gom:speed>0.0</gom:speed></extensions></trkpt>
   <trkpt lat="59.1070041687" lon="29.9798036576"><ele>89.533</ele><time>2026-04-25T14:08:54.000Z</time><hdop>3.0</hdop><vdop>3.0</vdop><extensions><gom:speed>0.0</gom:speed></extensions></trkpt>
   <trkpt lat="59.1069982175" lon="29.9798079323"><ele>89.523</ele><time>2026-04-25T14:08:55.000Z</time><hdop>3.0</hdop><vdop>3.0</vdop><extensions><gom:speed>0.637</gom:speed></extensions></trkpt>
   <trkpt lat="59.1069867762" lon="29.9798140511"><ele>89.52</ele><time>2026-04-25T14:08:56.000Z</time><hdop>3.187</hdop><vdop>3.187</vdop><extensions><gom:speed>1.349</gom:speed></extensions></trkpt>
   <trkpt lat="59.1069692999" lon="29.9798170686"><ele>89.5</ele><time>2026-04-25T14:08:57.000Z</time><hdop>3.437</hdop><vdop>3.437</vdop><extensions><gom:speed>1.97</gom:speed></extensions></trkpt>
   <trkpt lat="59.1069480937" lon="29.979813632"><ele>89.538</ele><time>2026-04-25T14:08:58.000Z</time><hdop>3.375</hdop><vdop>3.375</vdop><extensions><gom:speed>2.435</gom:speed></extensions></trkpt>
   <trkpt lat="59.1069240796" lon="29.9798019812"><ele>89.53</ele><time>2026-04-25T14:08:59.000Z</time><hdop>3.437</hdop><vdop>3.437</vdop><extensions><gom:speed>2.69</gom:speed></extensions></trkpt>
   <trkpt lat="59.1069016999" lon="29.9797765002"><ele>89.583</ele><time>2026-04-25T14:09:00.000Z</time><hdop>3.5</hdop><vdop>3.5</vdop><extensions><gom:speed>2.715</gom:speed></extensions></trkpt>
   <trkpt lat="59.1068838883" lon="29.9797445652"><ele>89.627</ele><time>2026-04-25T14:09:01.000Z</time><hdop>3.625</hdop><vdop>3.625</vdop><extensions><gom:speed>2.475</gom:speed></extensions></trkpt>
   <trkpt lat="59.1068718603" lon="29.9797127977"><ele>89.671</ele><time>2026-04-25T14:09:02.000Z</time><hdop>3.687</hdop><vdop>3.687</vdop><extensions><gom:speed>1.747</gom:speed></extensions></trkpt>
   <trkpt lat="59.1068570243" lon="29.9796822876"><ele>89.731</ele><time>2026-04-25T14:09:03.000Z</time><hdop>3.812</hdop><vdop>3.812</vdop><extensions><gom:speed>2.543</gom:speed></extensions></trkpt>
   <trkpt lat="59.1068380812" lon="29.9796534539"><ele>89.817</ele><time>2026-04-25T14:09:04.000Z</time><hdop>3.437</hdop><vdop>3.437</vdop><extensions><gom:speed>2.403</gom:speed></extensions></trkpt>
   <trkpt lat="59.1068157016" lon="29.9796334211"><ele>89.89</ele><time>2026-04-25T14:09:05.000Z</time><hdop>3.5</hdop><vdop>3.5</vdop><extensions><gom:speed>2.527</gom:speed></extensions></trkpt>
   <trkpt lat="59.1067908073" lon="29.9796218541"><ele>89.929</ele><time>2026-04-25T14:09:06.000Z</time><hdop>3.812</hdop><vdop>3.812</vdop><extensions><gom:speed>2.62</gom:speed></extensions></trkpt>
   <trkpt lat="59.1067664998" lon="29.9796150647"><ele>89.905</ele><time>2026-04-25T14:09:07.000Z</time><hdop>3.437</hdop><vdop>3.437</vdop><extensions><gom:speed>2.495</gom:speed></extensions></trkpt>
   <trkpt lat="59.1067664998" lon="29.9796150647"><ele>89.89</ele><time>2026-04-25T14:09:07.000Z</time><hdop>3.437</hdop><vdop>3.437</vdop><extensions><gom:speed>2.495</gom:speed></extensions></trkpt>
   <trkpt lat="59.1067418151" lon="29.9796097841"><ele>89.888</ele><time>2026-04-25T14:09:08.000Z</time><hdop>3.187</hdop><vdop>3.187</vdop><extensions><gom:speed>2.489</gom:speed></extensions></trkpt>
   <trkpt lat="59.1067175914" lon="29.979604755"><ele>89.889</ele><time>2026-04-25T14:09:09.000Z</time><hdop>3.0</hdop><vdop>3.0</vdop><extensions><gom:speed>2.604</gom:speed></extensions></trkpt>
   <trkpt lat="59.106693703" lon="29.9795972113"><ele>89.867</ele><time>2026-04-25T14:09:10.000Z</time><hdop>3.0</hdop><vdop>3.0</vdop><extensions><gom:speed>2.695</gom:speed></extensions></trkpt>
   <trkpt lat="59.106669144" lon="29.9795884941"><ele>89.849</ele><time>2026-04-25T14:09:11.000Z</time><hdop>3.0</hdop><vdop>3.0</vdop><extensions><gom:speed>2.649</gom:speed></extensions></trkpt>
   <trkpt lat="59.1066457166" lon="29.9795768433"><ele>89.887</ele><time>2026-04-25T14:09:12.000Z</time><hdop>3.0</hdop><vdop>3.0</vdop><extensions><gom:speed>2.42</gom:speed></extensions></trkpt>
   <trkpt lat="59.1066224568" lon="29.9795642704"><ele>89.912</ele><time>2026-04-25T14:09:13.000Z</time><hdop>3.0</hdop><vdop>3.0</vdop><extensions><gom:speed>2.57</gom:speed></extensions></trkpt>
   <trkpt lat="59.1066004962" lon="29.9795506917"><ele>89.888</ele><time>2026-04-25T14:09:14.000Z</time><hdop>3.0</hdop><vdop>3.0</vdop><extensions><gom:speed>2.323</gom:speed></extensions></trkpt>
   <trkpt lat="59.1065796672" lon="29.9795380351"><ele>89.897</ele><time>2026-04-25T14:09:15.000Z</time><hdop>3.0</hdop><vdop>3.0</vdop><extensions><gom:speed>2.419</gom:speed></extensions></trkpt>
   <trkpt lat="59.1065572875" lon="29.9795276415"><ele>89.907</ele><time>2026-04-25T14:09:16.000Z</time><hdop>3.0</hdop><vdop>3.0</vdop><extensions><gom:speed>2.509</gom:speed></extensions></trkpt>
   <trkpt lat="59.1065354526" lon="29.9795178347"><ele>89.9</ele><time>2026-04-25T14:09:17.000Z</time><hdop>3.0</hdop><vdop>3.0</vdop><extensions><gom:speed>2.539</gom:speed></extensions></trkpt>
   <trkpt lat="59.1065136178" lon="29.9795075249"><ele>89.905</ele><time>2026-04-25T14:09:18.000Z</time><hdop>3.0</hdop><vdop>3.0</vdop><extensions><gom:speed>2.727</gom:speed></extensions></trkpt>
   <trkpt lat="59.1064904837" lon="29.9794953712"><ele>89.882</ele><time>2026-04-25T14:09:19.000Z</time><hdop>3.0</hdop><vdop>3.0</vdop><extensions><gom:speed>2.682</gom:speed></extensions></trkpt>
   <trkpt lat="59.1064675173" lon="29.9794837203"><ele>89.848</ele><time>2026-04-25T14:09:20.000Z</time><hdop>3.0</hdop><vdop>3.0</vdop><extensions><gom:speed>2.687</gom:speed></extensions></trkpt>
   <trkpt lat="59.1064430421" lon="29.97947274"><ele>89.82</ele><time>2026-04-25T14:09:21.000Z</time><hdop>3.0</hdop><vdop>3.0</vdop><extensions><gom:speed>2.699</gom:speed></extensions></trkpt>
   <trkpt lat="59.1064178964" lon="29.9794615083"><ele>89.803</ele><time>2026-04-25T14:09:22.000Z</time><hdop>3.0</hdop><vdop>3.0</vdop><extensions><gom:speed>2.788</gom:speed></extensions></trkpt>
   <trkpt lat="59.1063933375" lon="29.9794506956"><ele>89.808</ele><time>2026-04-25T14:09:23.000Z</time><hdop>3.0</hdop><vdop>3.0</vdop><extensions><gom:speed>2.741</gom:speed></extensions></trkpt>
   <trkpt lat="59.1063693652" lon="29.979438458"><ele>89.827</ele><time>2026-04-25T14:09:24.000Z</time><hdop>3.0</hdop><vdop>3.0</vdop><extensions><gom:speed>2.724</gom:speed></extensions></trkpt>
   <trkpt lat="59.1063456863" lon="29.9794255499"><ele>89.856</ele><time>2026-04-25T14:09:25.000Z</time><hdop>3.0</hdop><vdop>3.0</vdop><extensions><gom:speed>2.727</gom:speed></extensions></trkpt>
   <trkpt lat="59.1063213788" lon="29.9794137314"><ele>89.872</ele><time>2026-04-25T14:09:26.000Z</time><hdop>3.0</hdop><vdop>3.0</vdop><extensions><gom:speed>2.77</gom:speed></extensions></trkpt>
   <trkpt lat="59.106297197" lon="29.9794032541"><ele>89.887</ele><time>2026-04-25T14:09:27.000Z</time><hdop>3.0</hdop><vdop>3.0</vdop><extensions><gom:speed>2.72</gom:speed></extensions></trkpt>
   <trkpt lat="59.106297197" lon="29.9794032541"><ele>89.895</ele><time>2026-04-25T14:09:27.000Z</time><hdop>3.0</hdop><vdop>3.0</vdop><extensions><gom:speed>2.72</gom:speed></extensions></trkpt>
   <trkpt lat="59.1062731829" lon="29.9793930281"><ele>89.937</ele><time>2026-04-25T14:09:28.000Z</time><hdop>3.0</hdop><vdop>3.0</vdop><extensions><gom:speed>2.612</gom:speed></extensions></trkpt>
   <trkpt lat="59.106249043" lon="29.9793839757"><ele>89.987</ele><time>2026-04-25T14:09:29.000Z</time><hdop>3.0</hdop><vdop>3.0</vdop><extensions><gom:speed>2.603</gom:speed></extensions></trkpt>
   <trkpt lat="59.1062241487" lon="29.9793759291"><ele>90.058</ele><time>2026-04-25T14:09:30.000Z</time><hdop>3.0</hdop><vdop>3.0</vdop><extensions><gom:speed>2.692</gom:speed></extensions></trkpt>
   <trkpt lat="59.1061984582" lon="29.9793680501"><ele>90.102</ele><time>2026-04-25T14:09:31.000Z</time><hdop>3.0</hdop><vdop>3.0</vdop><extensions><gom:speed>2.608</gom:speed></extensions></trkpt>
   <trkpt lat="59.1061733125" lon="29.9793580756"><ele>90.122</ele><time>2026-04-25T14:09:32.000Z</time><hdop>3.0</hdop><vdop>3.0</vdop><extensions><gom:speed>2.751</gom:speed></extensions></trkpt>
   <trkpt lat="59.1061492564" lon="29.9793466762"><ele>90.137</ele><time>2026-04-25T14:09:33.000Z</time><hdop>3.0</hdop><vdop>3.0</vdop><extensions><gom:speed>2.429</gom:speed></extensions></trkpt>
   <trkpt lat="59.1061263738" lon="29.9793357797"><ele>90.139</ele><time>2026-04-25T14:09:34.000Z</time><hdop>3.0</hdop><vdop>3.0</vdop><extensions><gom:speed>2.44</gom:speed></extensions></trkpt>
   <trkpt lat="59.1061035751" lon="29.9793253862"><ele>90.153</ele><time>2026-04-25T14:09:35.000Z</time><hdop>3.0</hdop><vdop>3.0</vdop><extensions><gom:speed>2.439</gom:speed></extensions></trkpt>
   <trkpt lat="59.1060818659" lon="29.9793173395"><ele>90.194</ele><time>2026-04-25T14:09:36.000Z</time><hdop>3.0</hdop><vdop>3.0</vdop><extensions><gom:speed>2.464</gom:speed></extensions></trkpt>
   <trkpt lat="59.1060580194" lon="29.9793150764"><ele>90.241</ele><time>2026-04-25T14:09:37.000Z</time><hdop>3.0</hdop><vdop>3.0</vdop><extensions><gom:speed>2.569</gom:speed></extensions></trkpt>
   <trkpt lat="59.1060341729" lon="29.9793109693"><ele>90.295</ele><time>2026-04-25T14:09:38.000Z</time><hdop>3.0</hdop><vdop>3.0</vdop><extensions><gom:speed>2.407</gom:speed></extensions></trkpt>
   <trkpt lat="59.1060125476" lon="29.9793052696"><ele>90.35</ele><time>2026-04-25T14:09:39.000Z</time><hdop>3.0</hdop><vdop>3.0</vdop><extensions><gom:speed>2.271</gom:speed></extensions></trkpt>
   <trkpt lat="59.1059896231" lon="29.979298145"><ele>90.45</ele><time>2026-04-25T14:09:40.000Z</time><hdop>3.0</hdop><vdop>3.0</vdop><extensions><gom:speed>2.42</gom:speed></extensions></trkpt>
   <trkpt lat="59.1059662795" lon="29.9792915233"><ele>90.591</ele><time>2026-04-25T14:09:41.000Z</time><hdop>3.0</hdop><vdop>3.0</vdop><extensions><gom:speed>2.621</gom:speed></extensions></trkpt>
   <trkpt lat="59.105941511" lon="29.9792854883"><ele>90.679</ele><time>2026-04-25T14:09:42.000Z</time><hdop>3.0</hdop><vdop>3.0</vdop><extensions><gom:speed>2.451</gom:speed></extensions></trkpt>
   <trkpt lat="59.1059174968" lon="29.9792834767"><ele>90.718</ele><time>2026-04-25T14:09:43.000Z</time><hdop>3.0</hdop><vdop>3.0</vdop><extensions><gom:speed>2.182</gom:speed></extensions></trkpt>
   <trkpt lat="59.1058957877" lon="29.9792807945"><ele>90.769</ele><time>2026-04-25T14:09:44.000Z</time><hdop>3.0</hdop><vdop>3.0</vdop><extensions><gom:speed>2.057</gom:speed></extensions></trkpt>
   <trkpt lat="59.1058729051" lon="29.9792786152"><ele>90.84</ele><time>2026-04-25T14:09:45.000Z</time><hdop>3.0</hdop><vdop>3.0</vdop><extensions><gom:speed>2.259</gom:speed></extensions></trkpt>
   <trkpt lat="59.1058510702" lon="29.9792730831"><ele>90.851</ele><time>2026-04-25T14:09:46.000Z</time><hdop>3.0</hdop><vdop>3.0</vdop><extensions><gom:speed>2.019</gom:speed></extensions></trkpt>
   <trkpt lat="59.105830325" lon="29.9792646174"><ele>90.851</ele><time>2026-04-25T14:09:47.000Z</time><hdop>3.0</hdop><vdop>3.0</vdop><extensions><gom:speed>2.374</gom:speed></extensions></trkpt>
   <trkpt lat="59.105830325" lon="29.9792646174"><ele>90.852</ele><time>2026-04-25T14:09:47.000Z</time><hdop>3.0</hdop><vdop>3.0</vdop><extensions><gom:speed>2.374</gom:speed></extensions></trkpt>
   <trkpt lat="59.1058039639" lon="29.9792576604"><ele>90.899</ele><time>2026-04-25T14:09:48.000Z</time><hdop>3.0</hdop><vdop>3.0</vdop><extensions><gom:speed>2.668</gom:speed></extensions></trkpt>
   <trkpt lat="59.1057755074" lon="29.9792531342"><ele>90.925</ele><time>2026-04-25T14:09:49.000Z</time><hdop>3.0</hdop><vdop>3.0</vdop><extensions><gom:speed>2.786</gom:speed></extensions></trkpt>
   <trkpt lat="59.1057485176" lon="29.9792477698"><ele>90.973</ele><time>2026-04-25T14:09:50.000Z</time><hdop>3.0</hdop><vdop>3.0</vdop><extensions><gom:speed>2.855</gom:speed></extensions></trkpt>
   <trkpt lat="59.1057208993" lon="29.9792424892"><ele>91.014</ele><time>2026-04-25T14:09:51.000Z</time><hdop>3.0</hdop><vdop>3.0</vdop><extensions><gom:speed>2.8</gom:speed></extensions></trkpt>
   <trkpt lat="59.105695544" lon="29.979231928"><ele>91.043</ele><time>2026-04-25T14:09:52.000Z</time><hdop>3.0</hdop><vdop>3.0</vdop><extensions><gom:speed>2.827</gom:speed></extensions></trkpt>
   <trkpt lat="59.1056699373" lon="29.9792195227"><ele>91.062</ele><time>2026-04-25T14:09:53.000Z</time><hdop>3.0</hdop><vdop>3.0</vdop><extensions><gom:speed>2.86</gom:speed></extensions></trkpt>
   <trkpt lat="59.1056447497" lon="29.9792092968"><ele>91.102</ele><time>2026-04-25T14:09:54.000Z</time><hdop>3.0</hdop><vdop>3.0</vdop><extensions><gom:speed>2.734</gom:speed></extensions></trkpt>
   <trkpt lat="59.1056165027" lon="29.9792051059"><ele>91.194</ele><time>2026-04-25T14:09:55.000Z</time><hdop>3.0</hdop><vdop>3.0</vdop><extensions><gom:speed>2.724</gom:speed></extensions></trkpt>
   <trkpt lat="59.105589932" lon="29.9791984003"><ele>91.296</ele><time>2026-04-25T14:09:56.000Z</time><hdop>3.0</hdop><vdop>3.0</vdop><extensions><gom:speed>2.709</gom:speed></extensions></trkpt>
   <trkpt lat="59.1055624394" lon="29.9791908566"><ele>91.388</ele><time>2026-04-25T14:09:57.000Z</time><hdop>3.0</hdop><vdop>3.0</vdop><extensions><gom:speed>2.85</gom:speed></extensions></trkpt>
   <trkpt lat="59.10553436" lon="29.9791828938"><ele>91.47</ele><time>2026-04-25T14:09:58.000Z</time><hdop>3.0</hdop><vdop>3.0</vdop><extensions><gom:speed>2.807</gom:speed></extensions></trkpt>
   <trkpt lat="59.1055077894" lon="29.9791748472"><ele>91.565</ele><time>2026-04-25T14:09:59.000Z</time><hdop>3.0</hdop><vdop>3.0</vdop><extensions><gom:speed>2.817</gom:speed></extensions></trkpt>
   <trkpt lat="59.1054797938" lon="29.9791663815"><ele>91.627</ele><time>2026-04-25T14:10:00.000Z</time><hdop>3.0</hdop><vdop>3.0</vdop><extensions><gom:speed>2.822</gom:speed></extensions></trkpt>
   <trkpt lat="59.1054532232" lon="29.9791592569"><ele>91.686</ele><time>2026-04-25T14:10:01.000Z</time><hdop>3.0</hdop><vdop>3.0</vdop><extensions><gom:speed>2.604</gom:speed></extensions></trkpt>
   <trkpt lat="59.1054289576" lon="29.9791535572"><ele>91.735</ele><time>2026-04-25T14:10:02.000Z</time><hdop>3.0</hdop><vdop>3.0</vdop><extensions><gom:speed>2.877</gom:speed></extensions></trkpt>
   <trkpt lat="59.1054031832" lon="29.9791507073"><ele>91.766</ele><time>2026-04-25T14:10:03.000Z</time><hdop>3.0</hdop><vdop>3.0</vdop><extensions><gom:speed>2.623</gom:speed></extensions></trkpt>
   <trkpt lat="59.1053787081" lon="29.9791470193"><ele>91.784</ele><time>2026-04-25T14:10:04.000Z</time><hdop>3.0</hdop><vdop>3.0</vdop><extensions><gom:speed>2.648</gom:speed></extensions></trkpt>
   <trkpt lat="59.1053547358" lon="29.979142996"><ele>91.781</ele><time>2026-04-25T14:10:05.000Z</time><hdop>3.0</hdop><vdop>3.0</vdop><extensions><gom:speed>2.526</gom:speed></extensions></trkpt>
   <trkpt lat="59.1053296739" lon="29.9791367934"><ele>91.789</ele><time>2026-04-25T14:10:06.000Z</time><hdop>3.0</hdop><vdop>3.0</vdop><extensions><gom:speed>2.824</gom:speed></extensions></trkpt>
   <trkpt lat="59.1053051569" lon="29.9791291658"><ele>91.766</ele><time>2026-04-25T14:10:07.000Z</time><hdop>3.0</hdop><vdop>3.0</vdop><extensions><gom:speed>2.663</gom:speed></extensions></trkpt>
   <trkpt lat="59.1053051569" lon="29.9791291658"><ele>91.752</ele><time>2026-04-25T14:10:07.000Z</time><hdop>3.0</hdop><vdop>3.0</vdop><extensions><gom:speed>2.663</gom:speed></extensions></trkpt>
   <trkpt lat="59.1052798854" lon="29.9791223765"><ele>91.721</ele><time>2026-04-25T14:10:08.000Z</time><hdop>3.0</hdop><vdop>3.0</vdop><extensions><gom:speed>2.794</gom:speed></extensions></trkpt>
   <trkpt lat="59.1052546978" lon="29.9791154195"><ele>91.695</ele><time>2026-04-25T14:10:09.000Z</time><hdop>3.0</hdop><vdop>3.0</vdop><extensions><gom:speed>2.778</gom:speed></extensions></trkpt>
   <trkpt lat="59.1052282948" lon="29.9791098036"><ele>91.665</ele><time>2026-04-25T14:10:10.000Z</time><hdop>3.0</hdop><vdop>3.0</vdop><extensions><gom:speed>2.989</gom:speed></extensions></trkpt>
   <trkpt lat="59.105201808" lon="29.9791003321"><ele>91.647</ele><time>2026-04-25T14:10:11.000Z</time><hdop>3.0</hdop><vdop>3.0</vdop><extensions><gom:speed>2.617</gom:speed></extensions></trkpt>
   <trkpt lat="59.1051784225" lon="29.9790870048"><ele>91.606</ele><time>2026-04-25T14:10:12.000Z</time><hdop>3.0</hdop><vdop>3.0</vdop><extensions><gom:speed>2.39</gom:speed></extensions></trkpt>
   <trkpt lat="59.10515642" lon="29.9790767789"><ele>91.596</ele><time>2026-04-25T14:10:13.000Z</time><hdop>3.0</hdop><vdop>3.0</vdop><extensions><gom:speed>2.215</gom:speed></extensions></trkpt>
   <trkpt lat="59.1051329926" lon="29.9790611048"><ele>91.633</ele><time>2026-04-25T14:10:14.000Z</time><hdop>3.0</hdop><vdop>3.0</vdop><extensions><gom:speed>2.762</gom:speed></extensions></trkpt>
   <trkpt lat="59.1051076792" lon="29.9790465203"><ele>91.666</ele><time>2026-04-25T14:10:15.000Z</time><hdop>3.0</hdop><vdop>3.0</vdop><extensions><gom:speed>2.556</gom:speed></extensions></trkpt>
   <trkpt lat="59.1050801028" lon="29.9790381384"><ele>91.734</ele><time>2026-04-25T14:10:16.000Z</time><hdop>3.0</hdop><vdop>3.0</vdop><extensions><gom:speed>2.832</gom:speed></extensions></trkpt>
   <trkpt lat="59.105052694" lon="29.9790284153"><ele>91.775</ele><time>2026-04-25T14:10:17.000Z</time><hdop>3.0</hdop><vdop>3.0</vdop><extensions><gom:speed>2.846</gom:speed></extensions></trkpt>
   <trkpt lat="59.1050256623" lon="29.9790227157"><ele>91.793</ele><time>2026-04-25T14:10:18.000Z</time><hdop>3.0</hdop><vdop>3.0</vdop><extensions><gom:speed>2.864</gom:speed></extensions></trkpt>
   <trkpt lat="59.1049990917" lon="29.9790169321"><ele>91.784</ele><time>2026-04-25T14:10:19.000Z</time><hdop>3.0</hdop><vdop>3.0</vdop><extensions><gom:speed>2.745</gom:speed></extensions></trkpt>
   <trkpt lat="59.1049728144" lon="29.9790113163"><ele>91.758</ele><time>2026-04-25T14:10:20.000Z</time><hdop>3.0</hdop><vdop>3.0</vdop><extensions><gom:speed>2.859</gom:speed></extensions></trkpt>
   <trkpt lat="59.1049460761" lon="29.9790070415"><ele>91.766</ele><time>2026-04-25T14:10:21.000Z</time><hdop>3.0</hdop><vdop>3.0</vdop><extensions><gom:speed>2.811</gom:speed></extensions></trkpt>
   <trkpt lat="59.1049193798" lon="29.9790033535"><ele>91.765</ele><time>2026-04-25T14:10:22.000Z</time><hdop>3.0</hdop><vdop>3.0</vdop><extensions><gom:speed>2.875</gom:speed></extensions></trkpt>
   <trkpt lat="59.1048920548" lon="29.9790008389"><ele>91.738</ele><time>2026-04-25T14:10:23.000Z</time><hdop>3.0</hdop><vdop>3.0</vdop><extensions><gom:speed>2.776</gom:speed></extensions></trkpt>
   <trkpt lat="59.1048644783" lon="29.9789978214"><ele>91.66</ele><time>2026-04-25T14:10:24.000Z</time><hdop>3.0</hdop><vdop>3.0</vdop><extensions><gom:speed>2.779</gom:speed></extensions></trkpt>
   <trkpt lat="59.1048359798" lon="29.9789936304"><ele>91.56</ele><time>2026-04-25T14:10:25.000Z</time><hdop>3.0</hdop><vdop>3.0</vdop><extensions><gom:speed>2.927</gom:speed></extensions></trkpt>
   <trkpt lat="59.1048083196" lon="29.9789898586"><ele>91.481</ele><time>2026-04-25T14:10:26.000Z</time><hdop>3.0</hdop><vdop>3.0</vdop><extensions><gom:speed>2.891</gom:speed></extensions></trkpt>
   <trkpt lat="59.1047807012" lon="29.9789797165"><ele>91.431</ele><time>2026-04-25T14:10:27.000Z</time><hdop>3.0</hdop><vdop>3.0</vdop><extensions><gom:speed>2.939</gom:speed></extensions></trkpt>
   <trkpt lat="59.1047807012" lon="29.9789797165"><ele>91.401</ele><time>2026-04-25T14:10:27.000Z</time><hdop>3.0</hdop><vdop>3.0</vdop><extensions><gom:speed>2.939</gom:speed></extensions></trkpt>
   <trkpt lat="59.1047537534" lon="29.9789622821"><ele>91.402</ele><time>2026-04-25T14:10:28.000Z</time><hdop>3.0</hdop><vdop>3.0</vdop><extensions><gom:speed>2.878</gom:speed></extensions></trkpt>
   <trkpt lat="59.1047279371" lon="29.9789444287"><ele>91.383</ele><time>2026-04-25T14:10:29.000Z</time><hdop>3.0</hdop><vdop>3.0</vdop><extensions><gom:speed>2.899</gom:speed></extensions></trkpt>
   <trkpt lat="59.1047025399" lon="29.9789296765"><ele>91.367</ele><time>2026-04-25T14:10:30.000Z</time><hdop>3.0</hdop><vdop>3.0</vdop><extensions><gom:speed>2.839</gom:speed></extensions></trkpt>
   <trkpt lat="59.104676137" lon="29.9789155949"><ele>91.36</ele><time>2026-04-25T14:10:31.000Z</time><hdop>3.0</hdop><vdop>3.0</vdop><extensions><gom:speed>2.941</gom:speed></extensions></trkpt>
   <trkpt lat="59.1046503626" lon="29.9788991664"><ele>91.331</ele><time>2026-04-25T14:10:32.000Z</time><hdop>3.0</hdop><vdop>3.0</vdop><extensions><gom:speed>2.814</gom:speed></extensions></trkpt>
   <trkpt lat="59.1046241692" lon="29.9788858392"><ele>91.292</ele><time>2026-04-25T14:10:33.000Z</time><hdop>3.0</hdop><vdop>3.0</vdop><extensions><gom:speed>2.794</gom:speed></extensions></trkpt>
   <trkpt lat="59.1045980176" lon="29.9788735178"><ele>91.25</ele><time>2026-04-25T14:10:34.000Z</time><hdop>3.0</hdop><vdop>3.0</vdop><extensions><gom:speed>2.682</gom:speed></extensions></trkpt>
   <trkpt lat="59.1045711536" lon="29.9788639624"><ele>91.216</ele><time>2026-04-25T14:10:35.000Z</time><hdop>3.0</hdop><vdop>3.0</vdop><extensions><gom:speed>2.796</gom:speed></extensions></trkpt>
   <trkpt lat="59.1045448344" lon="29.9788538203"><ele>91.196</ele><time>2026-04-25T14:10:36.000Z</time><hdop>3.0</hdop><vdop>3.0</vdop><extensions><gom:speed>2.989</gom:speed></extensions></trkpt>
   <trkpt lat="59.1045183895" lon="29.9788462766"><ele>91.218</ele><time>2026-04-25T14:10:37.000Z</time><hdop>3.0</hdop><vdop>3.0</vdop><extensions><gom:speed>2.837</gom:speed></extensions></trkpt>
   <trkpt lat="59.1044907712" lon="29.9788393196"><ele>91.248</ele><time>2026-04-25T14:10:38.000Z</time><hdop>3.0</hdop><vdop>3.0</vdop><extensions><gom:speed>2.95</gom:speed></extensions></trkpt>
   <trkpt lat="59.1044625661" lon="29.9788326141"><ele>91.268</ele><time>2026-04-25T14:10:39.000Z</time><hdop>3.0</hdop><vdop>3.0</vdop><extensions><gom:speed>2.878</gom:speed></extensions></trkpt>
   <trkpt lat="59.1044364564" lon="29.9788238131"><ele>91.273</ele><time>2026-04-25T14:10:40.000Z</time><hdop>3.0</hdop><vdop>3.0</vdop><extensions><gom:speed>2.79</gom:speed></extensions></trkpt>
   <trkpt lat="59.1044105983" lon="29.9788122461"><ele>91.298</ele><time>2026-04-25T14:10:41.000Z</time><hdop>3.0</hdop><vdop>3.0</vdop><extensions><gom:speed>2.856</gom:speed></extensions></trkpt>
   <trkpt lat="59.1043839438" lon="29.9788004276"><ele>91.366</ele><time>2026-04-25T14:10:42.000Z</time><hdop>3.0</hdop><vdop>3.0</vdop><extensions><gom:speed>2.789</gom:speed></extensions></trkpt>
   <trkpt lat="59.1043581275" lon="29.9787915428"><ele>91.417</ele><time>2026-04-25T14:10:43.000Z</time><hdop>3.0</hdop><vdop>3.0</vdop><extensions><gom:speed>2.842</gom:speed></extensions></trkpt>
   <trkpt lat="59.1043322275" lon="29.97878358"><ele>91.476</ele><time>2026-04-25T14:10:44.000Z</time><hdop>3.0</hdop><vdop>3.0</vdop><extensions><gom:speed>2.833</gom:speed></extensions></trkpt>
   <trkpt lat="59.1043063274" lon="29.9787749466"><ele>91.527</ele><time>2026-04-25T14:10:45.000Z</time><hdop>3.0</hdop><vdop>3.0</vdop><extensions><gom:speed>2.832</gom:speed></extensions></trkpt>
   <trkpt lat="59.104281475" lon="29.978765475"><ele>91.563</ele><time>2026-04-25T14:10:46.000Z</time><hdop>3.0</hdop><vdop>3.0</vdop><extensions><gom:speed>2.616</gom:speed></extensions></trkpt>
   <trkpt lat="59.1042573352" lon="29.9787554168"><ele>91.576</ele><time>2026-04-25T14:10:47.000Z</time><hdop>3.0</hdop><vdop>3.0</vdop><extensions><gom:speed>2.592</gom:speed></extensions></trkpt>
   <trkpt lat="59.1042573352" lon="29.9787554168"><ele>91.584</ele><time>2026-04-25T14:10:47.000Z</time><hdop>3.0</hdop><vdop>3.0</vdop><extensions><gom:speed>2.592</gom:speed></extensions></trkpt>
   <trkpt lat="59.1042316027" lon="29.978747454"><ele>91.628</ele><time>2026-04-25T14:10:48.000Z</time><hdop>3.0</hdop><vdop>3.0</vdop><extensions><gom:speed>2.756</gom:speed></extensions></trkpt>
   <trkpt lat="59.1042060379" lon="29.9787402455"><ele>91.655</ele><time>2026-04-25T14:10:49.000Z</time><hdop>3.0</hdop><vdop>3.0</vdop><extensions><gom:speed>2.756</gom:speed></extensions></trkpt>
   <trkpt lat="59.1041823171" lon="29.978735384"><ele>91.677</ele><time>2026-04-25T14:10:50.000Z</time><hdop>3.0</hdop><vdop>3.0</vdop><extensions><gom:speed>2.603</gom:speed></extensions></trkpt>
   <trkpt lat="59.1041586383" lon="29.9787336238"><ele>91.664</ele><time>2026-04-25T14:10:51.000Z</time><hdop>3.0</hdop><vdop>3.0</vdop><extensions><gom:speed>2.385</gom:speed></extensions></trkpt>
   <trkpt lat="59.1041359233" lon="29.9787288461"><ele>91.608</ele><time>2026-04-25T14:10:52.000Z</time><hdop>3.0</hdop><vdop>3.0</vdop><extensions><gom:speed>2.292</gom:speed></extensions></trkpt>
   <trkpt lat="59.1041112805" lon="29.978721973"><ele>91.527</ele><time>2026-04-25T14:10:53.000Z</time><hdop>3.0</hdop><vdop>3.0</vdop><extensions><gom:speed>2.508</gom:speed></extensions></trkpt>
   <trkpt lat="59.104086973" lon="29.9787164409"><ele>91.419</ele><time>2026-04-25T14:10:54.000Z</time><hdop>3.0</hdop><vdop>3.0</vdop><extensions><gom:speed>2.602</gom:speed></extensions></trkpt>
   <trkpt lat="59.104062875" lon="29.9787104898"><ele>91.321</ele><time>2026-04-25T14:10:55.000Z</time><hdop>3.0</hdop><vdop>3.0</vdop><extensions><gom:speed>2.81</gom:speed></extensions></trkpt>
   <trkpt lat="59.1040365977" lon="29.9787061312"><ele>91.25</ele><time>2026-04-25T14:10:56.000Z</time><hdop>3.0</hdop><vdop>3.0</vdop><extensions><gom:speed>2.818</gom:speed></extensions></trkpt>
   <trkpt lat="59.1040106977" lon="29.9786991742"><ele>91.199</ele><time>2026-04-25T14:10:57.000Z</time><hdop>3.0</hdop><vdop>3.0</vdop><extensions><gom:speed>2.729</gom:speed></extensions></trkpt>
   <trkpt lat="59.1039849233" lon="29.9786926363"><ele>91.103</ele><time>2026-04-25T14:10:58.000Z</time><hdop>3.0</hdop><vdop>3.0</vdop><extensions><gom:speed>2.772</gom:speed></extensions></trkpt>
   <trkpt lat="59.1039573468" lon="29.9786842544"><ele>91.017</ele><time>2026-04-25T14:10:59.000Z</time><hdop>3.0</hdop><vdop>3.0</vdop><extensions><gom:speed>2.9</gom:speed></extensions></trkpt>
   <trkpt lat="59.1039298123" lon="29.9786747829"><ele>90.965</ele><time>2026-04-25T14:11:00.000Z</time><hdop>3.0</hdop><vdop>3.0</vdop><extensions><gom:speed>3.001</gom:speed></extensions></trkpt>
   <trkpt lat="59.1039011881" lon="29.97866682"><ele>90.948</ele><time>2026-04-25T14:11:01.000Z</time><hdop>3.0</hdop><vdop>3.0</vdop><extensions><gom:speed>3.038</gom:speed></extensions></trkpt>
   <trkpt lat="59.1038728573" lon="29.9786575999"><ele>90.992</ele><time>2026-04-25T14:11:02.000Z</time><hdop>3.0</hdop><vdop>3.0</vdop><extensions><gom:speed>3.056</gom:speed></extensions></trkpt>
   <trkpt lat="59.103845658" lon="29.9786482122"><ele>91.019</ele><time>2026-04-25T14:11:03.000Z</time><hdop>3.0</hdop><vdop>3.0</vdop><extensions><gom:speed>2.912</gom:speed></extensions></trkpt>
   <trkpt lat="59.1038194645" lon="29.9786378187"><ele>91.078</ele><time>2026-04-25T14:11:04.000Z</time><hdop>3.0</hdop><vdop>3.0</vdop><extensions><gom:speed>2.962</gom:speed></extensions></trkpt>
   <trkpt lat="59.1037931454" lon="29.9786291015"><ele>91.15</ele><time>2026-04-25T14:11:05.000Z</time><hdop>3.0</hdop><vdop>3.0</vdop><extensions><gom:speed>2.91</gom:speed></extensions></trkpt>
   <trkpt lat="59.1037660299" lon="29.9786243238"><ele>91.231</ele><time>2026-04-25T14:11:06.000Z</time><hdop>3.0</hdop><vdop>3.0</vdop><extensions><gom:speed>2.873</gom:speed></extensions></trkpt>
   <trkpt lat="59.103738663" lon="29.9786198814"><ele>91.294</ele><time>2026-04-25T14:11:07.000Z</time><hdop>3.0</hdop><vdop>3.0</vdop><extensions><gom:speed>2.826</gom:speed></extensions></trkpt>
   <trkpt lat="59.103738663" lon="29.9786198814"><ele>91.331</ele><time>2026-04-25T14:11:07.000Z</time><hdop>3.0</hdop><vdop>3.0</vdop><extensions><gom:speed>2.826</gom:speed></extensions></trkpt>
   <trkpt lat="59.1037112542" lon="29.9786156066"><ele>91.39</ele><time>2026-04-25T14:11:08.000Z</time><hdop>3.0</hdop><vdop>3.0</vdop><extensions><gom:speed>2.822</gom:speed></extensions></trkpt>
   <trkpt lat="59.1036842225" lon="29.9786109127"><ele>91.442</ele><time>2026-04-25T14:11:09.000Z</time><hdop>3.0</hdop><vdop>3.0</vdop><extensions><gom:speed>2.93</gom:speed></extensions></trkpt>
   <trkpt lat="59.1036564365" lon="29.9786055483"><ele>91.519</ele><time>2026-04-25T14:11:10.000Z</time><hdop>3.0</hdop><vdop>3.0</vdop><extensions><gom:speed>2.951</gom:speed></extensions></trkpt>
   <trkpt lat="59.1036299078" lon="29.9785975017"><ele>91.577</ele><time>2026-04-25T14:11:11.000Z</time><hdop>3.0</hdop><vdop>3.0</vdop><extensions><gom:speed>2.625</gom:speed></extensions></trkpt>
   <trkpt lat="59.1036039239" lon="29.9785863538"><ele>91.611</ele><time>2026-04-25T14:11:12.000Z</time><hdop>3.0</hdop><vdop>3.0</vdop><extensions><gom:speed>2.909</gom:speed></extensions></trkpt>
   <trkpt lat="59.1035769761" lon="29.9785745353"><ele>91.632</ele><time>2026-04-25T14:11:13.000Z</time><hdop>3.0</hdop><vdop>3.0</vdop><extensions><gom:speed>2.815</gom:speed></extensions></trkpt>
   <trkpt lat="59.1035529619" lon="29.9785627168"><ele>91.609</ele><time>2026-04-25T14:11:14.000Z</time><hdop>3.0</hdop><vdop>3.0</vdop><extensions><gom:speed>2.645</gom:speed></extensions></trkpt>
   <trkpt lat="59.1035289478" lon="29.9785497249"><ele>91.503</ele><time>2026-04-25T14:11:15.000Z</time><hdop>3.0</hdop><vdop>3.0</vdop><extensions><gom:speed>2.766</gom:speed></extensions></trkpt>
   <trkpt lat="59.1035041373" lon="29.9785394151"><ele>91.351</ele><time>2026-04-25T14:11:16.000Z</time><hdop>3.0</hdop><vdop>3.0</vdop><extensions><gom:speed>2.762</gom:speed></extensions></trkpt>
   <trkpt lat="59.1034766866" lon="29.9785332125"><ele>91.197</ele><time>2026-04-25T14:11:17.000Z</time><hdop>3.0</hdop><vdop>3.0</vdop><extensions><gom:speed>2.797</gom:speed></extensions></trkpt>
   <trkpt lat="59.1034489425" lon="29.9785265908"><ele>91.057</ele><time>2026-04-25T14:11:18.000Z</time><hdop>3.0</hdop><vdop>3.0</vdop><extensions><gom:speed>2.975</gom:speed></extensions></trkpt>
   <trkpt lat="59.1034198992" lon="29.978521394"><ele>90.94</ele><time>2026-04-25T14:11:19.000Z</time><hdop>3.0</hdop><vdop>3.0</vdop><extensions><gom:speed>3.036</gom:speed></extensions></trkpt>
   <trkpt lat="59.1033901016" lon="29.9785143532"><ele>90.91</ele><time>2026-04-25T14:11:20.000Z</time><hdop>3.0</hdop><vdop>3.0</vdop><extensions><gom:speed>3.152</gom:speed></extensions></trkpt>
   <trkpt lat="59.1033605973" lon="29.9785078992"><ele>90.933</ele><time>2026-04-25T14:11:21.000Z</time><hdop>3.0</hdop><vdop>3.0</vdop><extensions><gom:speed>3.048</gom:speed></extensions></trkpt>
   <trkpt lat="59.1033321407" lon="29.9785015289"><ele>91.02</ele><time>2026-04-25T14:11:22.000Z</time><hdop>3.0</hdop><vdop>3.0</vdop><extensions><gom:speed>2.913</gom:speed></extensions></trkpt>
   <trkpt lat="59.1033039775" lon="29.9784954101"><ele>91.095</ele><time>2026-04-25T14:11:23.000Z</time><hdop>3.0</hdop><vdop>3.0</vdop><extensions><gom:speed>2.986</gom:speed></extensions></trkpt>
   <trkpt lat="59.103276401" lon="29.9784909677"><ele>91.137</ele><time>2026-04-25T14:11:24.000Z</time><hdop>3.0</hdop><vdop>3.0</vdop><extensions><gom:speed>2.985</gom:speed></extensions></trkpt>
   <trkpt lat="59.1032481121" lon="29.9784872797"><ele>91.184</ele><time>2026-04-25T14:11:25.000Z</time><hdop>3.0</hdop><vdop>3.0</vdop><extensions><gom:speed>2.962</gom:speed></extensions></trkpt>
   <trkpt lat="59.1032207452" lon="29.9784822505"><ele>91.206</ele><time>2026-04-25T14:11:26.000Z</time><hdop>3.0</hdop><vdop>3.0</vdop><extensions><gom:speed>2.974</gom:speed></extensions></trkpt>
   <trkpt lat="59.1031931268" lon="29.978477389"><ele>91.236</ele><time>2026-04-25T14:11:27.000Z</time><hdop>3.0</hdop><vdop>3.0</vdop><extensions><gom:speed>2.987</gom:speed></extensions></trkpt>
   <trkpt lat="59.1031931268" lon="29.978477389"><ele>91.254</ele><time>2026-04-25T14:11:27.000Z</time><hdop>3.0</hdop><vdop>3.0</vdop><extensions><gom:speed>2.987</gom:speed></extensions></trkpt>
   <trkpt lat="59.103165718" lon="29.9784700968"><ele>91.309</ele><time>2026-04-25T14:11:28.000Z</time><hdop>3.0</hdop><vdop>3.0</vdop><extensions><gom:speed>3.081</gom:speed></extensions></trkpt>
   <trkpt lat="59.1031384349" lon="29.978461212"><ele>91.377</ele><time>2026-04-25T14:11:29.000Z</time><hdop>3.0</hdop><vdop>3.0</vdop><extensions><gom:speed>3.04</gom:speed></extensions></trkpt>
   <trkpt lat="59.1031111099" lon="29.978450986"><ele>91.44</ele><time>2026-04-25T14:11:30.000Z</time><hdop>3.0</hdop><vdop>3.0</vdop><extensions><gom:speed>2.986</gom:speed></extensions></trkpt>
   <trkpt lat="59.1030834915" lon="29.9784392514"><ele>91.484</ele><time>2026-04-25T14:11:31.000Z</time><hdop>3.0</hdop><vdop>3.0</vdop><extensions><gom:speed>2.993</gom:speed></extensions></trkpt>
   <trkpt lat="59.1030565018" lon="29.9784271814"><ele>91.491</ele><time>2026-04-25T14:11:32.000Z</time><hdop>3.0</hdop><vdop>3.0</vdop><extensions><gom:speed>2.946</gom:speed></extensions></trkpt>
   <trkpt lat="59.1030287158" lon="29.9784143571"><ele>91.481</ele><time>2026-04-25T14:11:33.000Z</time><hdop>3.0</hdop><vdop>3.0</vdop><extensions><gom:speed>3.141</gom:speed></extensions></trkpt>
   <trkpt lat="59.1030003011" lon="29.9783999402"><ele>91.479</ele><time>2026-04-25T14:11:34.000Z</time><hdop>3.0</hdop><vdop>3.0</vdop><extensions><gom:speed>3.142</gom:speed></extensions></trkpt>
   <trkpt lat="59.1029731857" lon="29.9783872836"><ele>91.478</ele><time>2026-04-25T14:11:35.000Z</time><hdop>3.0</hdop><vdop>3.0</vdop><extensions><gom:speed>3.002</gom:speed></extensions></trkpt>
   <trkpt lat="59.1029482495" lon="29.9783742078"><ele>91.483</ele><time>2026-04-25T14:11:36.000Z</time><hdop>3.0</hdop><vdop>3.0</vdop><extensions><gom:speed>2.902</gom:speed></extensions></trkpt>
   <trkpt lat="59.1029221399" lon="29.9783602938"><ele>91.526</ele><time>2026-04-25T14:11:37.000Z</time><hdop>3.0</hdop><vdop>3.0</vdop><extensions><gom:speed>2.908</gom:speed></extensions></trkpt>
   <trkpt lat="59.1028971199" lon="29.9783457093"><ele>91.549</ele><time>2026-04-25T14:11:38.000Z</time><hdop>3.0</hdop><vdop>3.0</vdop><extensions><gom:speed>2.964</gom:speed></extensions></trkpt>
   <trkpt lat="59.1028697111" lon="29.9783284426"><ele>91.575</ele><time>2026-04-25T14:11:39.000Z</time><hdop>3.0</hdop><vdop>3.0</vdop><extensions><gom:speed>3.013</gom:speed></extensions></trkpt>
   <trkpt lat="59.1028424699" lon="29.9783159536"><ele>91.619</ele><time>2026-04-25T14:11:40.000Z</time><hdop>3.0</hdop><vdop>3.0</vdop><extensions><gom:speed>3.049</gom:speed></extensions></trkpt>
   <trkpt lat="59.1028148096" lon="29.9783051409"><ele>91.646</ele><time>2026-04-25T14:11:41.000Z</time><hdop>3.0</hdop><vdop>3.0</vdop><extensions><gom:speed>2.953</gom:speed></extensions></trkpt>
   <trkpt lat="59.1027876104" lon="29.9782931548"><ele>91.654</ele><time>2026-04-25T14:11:42.000Z</time><hdop>3.0</hdop><vdop>3.0</vdop><extensions><gom:speed>2.918</gom:speed></extensions></trkpt>
   <trkpt lat="59.1027594052" lon="29.9782820907"><ele>91.687</ele><time>2026-04-25T14:11:43.000Z</time><hdop>3.0</hdop><vdop>3.0</vdop><extensions><gom:speed>2.947</gom:speed></extensions></trkpt>
   <trkpt lat="59.1027320802" lon="29.9782721162"><ele>91.773</ele><time>2026-04-25T14:11:44.000Z</time><hdop>3.0</hdop><vdop>3.0</vdop><extensions><gom:speed>2.891</gom:speed></extensions></trkpt>
   <trkpt lat="59.1027049229" lon="29.9782625609"><ele>91.855</ele><time>2026-04-25T14:11:45.000Z</time><hdop>3.0</hdop><vdop>3.0</vdop><extensions><gom:speed>2.953</gom:speed></extensions></trkpt>
   <trkpt lat="59.1026768016" lon="29.9782493174"><ele>91.936</ele><time>2026-04-25T14:11:46.000Z</time><hdop>3.0</hdop><vdop>3.0</vdop><extensions><gom:speed>3.121</gom:speed></extensions></trkpt>
   <trkpt lat="59.102647423" lon="29.9782379181"><ele>91.994</ele><time>2026-04-25T14:11:47.000Z</time><hdop>3.0</hdop><vdop>3.0</vdop><extensions><gom:speed>3.159</gom:speed></extensions></trkpt>
   <trkpt lat="59.102647423" lon="29.9782379181"><ele>92.029</ele><time>2026-04-25T14:11:47.000Z</time><hdop>3.0</hdop><vdop>3.0</vdop><extensions><gom:speed>3.159</gom:speed></extensions></trkpt>
   <trkpt lat="59.1026181702" lon="29.9782316316"><ele>92.077</ele><time>2026-04-25T14:11:48.000Z</time><hdop>3.0</hdop><vdop>3.0</vdop><extensions><gom:speed>3.107</gom:speed></extensions></trkpt>
   <trkpt lat="59.1025903003" lon="29.9782267701"><ele>92.128</ele><time>2026-04-25T14:11:49.000Z</time><hdop>3.0</hdop><vdop>3.0</vdop><extensions><gom:speed>3.092</gom:speed></extensions></trkpt>
   <trkpt lat="59.1025623467" lon="29.9782225792"><ele>92.163</ele><time>2026-04-25T14:11:50.000Z</time><hdop>3.0</hdop><vdop>3.0</vdop><extensions><gom:speed>3.141</gom:speed></extensions></trkpt>
   <trkpt lat="59.1025341416" lon="29.9782150355"><ele>92.163</ele><time>2026-04-25T14:11:51.000Z</time><hdop>3.0</hdop><vdop>3.0</vdop><extensions><gom:speed>3.14</gom:speed></extensions></trkpt>
   <trkpt lat="59.102507571" lon="29.9782029655"><ele>92.169</ele><time>2026-04-25T14:11:52.000Z</time><hdop>3.0</hdop><vdop>3.0</vdop><extensions><gom:speed>3.067</gom:speed></extensions></trkpt>
   <trkpt lat="59.1024815032" lon="29.978190225"><ele>92.149</ele><time>2026-04-25T14:11:53.000Z</time><hdop>3.0</hdop><vdop>3.0</vdop><extensions><gom:speed>3.135</gom:speed></extensions></trkpt>
   <trkpt lat="59.1024540525" lon="29.9781793286"><ele>92.119</ele><time>2026-04-25T14:11:54.000Z</time><hdop>3.0</hdop><vdop>3.0</vdop><extensions><gom:speed>3.103</gom:speed></extensions></trkpt>
   <trkpt lat="59.1024273142" lon="29.9781703599"><ele>92.109</ele><time>2026-04-25T14:11:55.000Z</time><hdop>3.0</hdop><vdop>3.0</vdop><extensions><gom:speed>3.06</gom:speed></extensions></trkpt>
   <trkpt lat="59.1024000731" lon="29.9781618104"><ele>92.112</ele><time>2026-04-25T14:11:56.000Z</time><hdop>3.0</hdop><vdop>3.0</vdop><extensions><gom:speed>3.029</gom:speed></extensions></trkpt>
   <trkpt lat="59.1023730833" lon="29.9781525903"><ele>92.126</ele><time>2026-04-25T14:11:57.000Z</time><hdop>3.0</hdop><vdop>3.0</vdop><extensions><gom:speed>3.066</gom:speed></extensions></trkpt>
   <trkpt lat="59.1023458002" lon="29.9781447113"><ele>92.171</ele><time>2026-04-25T14:11:58.000Z</time><hdop>3.0</hdop><vdop>3.0</vdop><extensions><gom:speed>3.028</gom:speed></extensions></trkpt>
   <trkpt lat="59.1023196487" lon="29.9781344016"><ele>92.254</ele><time>2026-04-25T14:11:59.000Z</time><hdop>3.0</hdop><vdop>3.0</vdop><extensions><gom:speed>2.968</gom:speed></extensions></trkpt>
   <trkpt lat="59.1022932876" lon="29.9781259358"><ele>92.35</ele><time>2026-04-25T14:12:00.000Z</time><hdop>3.0</hdop><vdop>3.0</vdop><extensions><gom:speed>2.76</gom:speed></extensions></trkpt>
   <trkpt lat="59.1022699859" lon="29.9781184759"><ele>92.465</ele><time>2026-04-25T14:12:01.000Z</time><hdop>3.0</hdop><vdop>3.0</vdop><extensions><gom:speed>2.579</gom:speed></extensions></trkpt>
   <trkpt lat="59.1022465166" lon="29.9781131115"><ele>92.581</ele><time>2026-04-25T14:12:02.000Z</time><hdop>3.0</hdop><vdop>3.0</vdop><extensions><gom:speed>2.46</gom:speed></extensions></trkpt>
   <trkpt lat="59.1022238855" lon="29.9781114351"><ele>92.668</ele><time>2026-04-25T14:12:03.000Z</time><hdop>3.0</hdop><vdop>3.0</vdop><extensions><gom:speed>2.404</gom:speed></extensions></trkpt>
   <trkpt lat="59.1022008771" lon="29.9781126086"><ele>92.739</ele><time>2026-04-25T14:12:04.000Z</time><hdop>3.0</hdop><vdop>3.0</vdop><extensions><gom:speed>2.365</gom:speed></extensions></trkpt>
   <trkpt lat="59.1021797966" lon="29.9781149555"><ele>92.799</ele><time>2026-04-25T14:12:05.000Z</time><hdop>3.0</hdop><vdop>3.0</vdop><extensions><gom:speed>2.13</gom:speed></extensions></trkpt>
   <trkpt lat="59.1021614403" lon="29.9781191465"><ele>92.867</ele><time>2026-04-25T14:12:06.000Z</time><hdop>3.0</hdop><vdop>3.0</vdop><extensions><gom:speed>1.907</gom:speed></extensions></trkpt>
   <trkpt lat="59.1021452213" lon="29.9781245109"><ele>92.932</ele><time>2026-04-25T14:12:07.000Z</time><hdop>3.0</hdop><vdop>3.0</vdop><extensions><gom:speed>1.545</gom:speed></extensions></trkpt>
   <trkpt lat="59.1021452213" lon="29.9781245109"><ele>92.97</ele><time>2026-04-25T14:12:07.000Z</time><hdop>3.0</hdop><vdop>3.0</vdop><extensions><gom:speed>1.545</gom:speed></extensions></trkpt>
   <trkpt lat="59.1021302596" lon="29.978130965"><ele>93.019</ele><time>2026-04-25T14:12:08.000Z</time><hdop>3.0</hdop><vdop>3.0</vdop><extensions><gom:speed>1.636</gom:speed></extensions></trkpt>
   <trkpt lat="59.1021130767" lon="29.9781356588"><ele>93.065</ele><time>2026-04-25T14:12:09.000Z</time><hdop>3.0</hdop><vdop>3.0</vdop><extensions><gom:speed>1.931</gom:speed></extensions></trkpt>
   <trkpt lat="59.1020936307" lon="29.9781360779"><ele>93.075</ele><time>2026-04-25T14:12:10.000Z</time><hdop>3.0</hdop><vdop>3.0</vdop><extensions><gom:speed>2.095</gom:speed></extensions></trkpt>
   <trkpt lat="59.102072634" lon="29.9781275284"><ele>93.066</ele><time>2026-04-25T14:12:11.000Z</time><hdop>3.0</hdop><vdop>3.0</vdop><extensions><gom:speed>2.256</gom:speed></extensions></trkpt>
   <trkpt lat="59.1020520564" lon="29.9781116028"><ele>93.05</ele><time>2026-04-25T14:12:12.000Z</time><hdop>3.0</hdop><vdop>3.0</vdop><extensions><gom:speed>2.404</gom:speed></extensions></trkpt>
   <trkpt lat="59.1020292158" lon="29.9780903966"><ele>93.035</ele><time>2026-04-25T14:12:13.000Z</time><hdop>3.0</hdop><vdop>3.0</vdop><extensions><gom:speed>2.806</gom:speed></extensions></trkpt>
   <trkpt lat="59.102004573" lon="29.9780667596"><ele>93.031</ele><time>2026-04-25T14:12:14.000Z</time><hdop>3.0</hdop><vdop>3.0</vdop><extensions><gom:speed>2.977</gom:speed></extensions></trkpt>
   <trkpt lat="59.101979092" lon="29.9780421168"><ele>93.01</ele><time>2026-04-25T14:12:15.000Z</time><hdop>3.0</hdop><vdop>3.0</vdop><extensions><gom:speed>3.062</gom:speed></extensions></trkpt>
   <trkpt lat="59.1019529404" lon="29.9780198209"><ele>92.964</ele><time>2026-04-25T14:12:16.000Z</time><hdop>3.0</hdop><vdop>3.0</vdop><extensions><gom:speed>2.917</gom:speed></extensions></trkpt>
   <trkpt lat="59.1019279624" lon="29.9780038115"><ele>92.929</ele><time>2026-04-25T14:12:17.000Z</time><hdop>3.0</hdop><vdop>3.0</vdop><extensions><gom:speed>2.885</gom:speed></extensions></trkpt>
   <trkpt lat="59.1019019366" lon="29.9779875506"><ele>92.913</ele><time>2026-04-25T14:12:18.000Z</time><hdop>3.0</hdop><vdop>3.0</vdop><extensions><gom:speed>2.829</gom:speed></extensions></trkpt>
   <trkpt lat="59.1018774614" lon="29.9779692781"><ele>92.893</ele><time>2026-04-25T14:12:19.000Z</time><hdop>3.0</hdop><vdop>3.0</vdop><extensions><gom:speed>2.811</gom:speed></extensions></trkpt>
   <trkpt lat="59.1018536149" lon="29.9779500835"><ele>92.846</ele><time>2026-04-25T14:12:20.000Z</time><hdop>3.0</hdop><vdop>3.0</vdop><extensions><gom:speed>2.808</gom:speed></extensions></trkpt>
   <trkpt lat="59.101828553" lon="29.977930386"><ele>92.778</ele><time>2026-04-25T14:12:21.000Z</time><hdop>3.0</hdop><vdop>3.0</vdop><extensions><gom:speed>2.988</gom:speed></extensions></trkpt>
   <trkpt lat="59.1018027786" lon="29.977915131"><ele>92.7</ele><time>2026-04-25T14:12:22.000Z</time><hdop>3.0</hdop><vdop>3.0</vdop><extensions><gom:speed>3.032</gom:speed></extensions></trkpt>
   <trkpt lat="59.1017767947" lon="29.9779043183"><ele>92.626</ele><time>2026-04-25T14:12:23.000Z</time><hdop>3.0</hdop><vdop>3.0</vdop><extensions><gom:speed>3.069</gom:speed></extensions></trkpt>
   <trkpt lat="59.1017485896" lon="29.9778963555"><ele>92.56</ele><time>2026-04-25T14:12:24.000Z</time><hdop>3.0</hdop><vdop>3.0</vdop><extensions><gom:speed>3.03</gom:speed></extensions></trkpt>
   <trkpt lat="59.101722019" lon="29.9778909073"><ele>92.489</ele><time>2026-04-25T14:12:25.000Z</time><hdop>3.0</hdop><vdop>3.0</vdop><extensions><gom:speed>3.042</gom:speed></extensions></trkpt>
   <trkpt lat="59.1016951131" lon="29.9778873869"><ele>92.46</ele><time>2026-04-25T14:12:26.000Z</time><hdop>3.0</hdop><vdop>3.0</vdop><extensions><gom:speed>3.031</gom:speed></extensions></trkpt>
   <trkpt lat="59.1016672433" lon="29.9778835312"><ele>92.44</ele><time>2026-04-25T14:12:27.000Z</time><hdop>3.0</hdop><vdop>3.0</vdop><extensions><gom:speed>2.983</gom:speed></extensions></trkpt>
   <trkpt lat="59.1016394573" lon="29.9778776639"><ele>92.436</ele><time>2026-04-25T14:12:28.000Z</time><hdop>3.0</hdop><vdop>3.0</vdop><extensions><gom:speed>2.981</gom:speed></extensions></trkpt>
   <trkpt lat="59.1016133476" lon="29.9778684438"><ele>92.465</ele><time>2026-04-25T14:12:29.000Z</time><hdop>3.0</hdop><vdop>3.0</vdop><extensions><gom:speed>2.857</gom:speed></extensions></trkpt>
   <trkpt lat="59.1015855197" lon="29.9778588046"><ele>92.493</ele><time>2026-04-25T14:12:30.000Z</time><hdop>3.0</hdop><vdop>3.0</vdop><extensions><gom:speed>3.161</gom:speed></extensions></trkpt>
   <trkpt lat="59.1015594939" lon="29.9778442201"><ele>92.512</ele><time>2026-04-25T14:12:31.000Z</time><hdop>3.0</hdop><vdop>3.0</vdop><extensions><gom:speed>2.72</gom:speed></extensions></trkpt>
   <trkpt lat="59.1015364018" lon="29.9778270372"><ele>92.534</ele><time>2026-04-25T14:12:32.000Z</time><hdop>3.0</hdop><vdop>3.0</vdop><extensions><gom:speed>2.634</gom:speed></extensions></trkpt>
   <trkpt lat="59.1015128905" lon="29.9778096028"><ele>92.534</ele><time>2026-04-25T14:12:33.000Z</time><hdop>3.0</hdop><vdop>3.0</vdop><extensions><gom:speed>2.724</gom:speed></extensions></trkpt>
   <trkpt lat="59.1014869904" lon="29.9777952698"><ele>92.516</ele><time>2026-04-25T14:12:34.000Z</time><hdop>3.0</hdop><vdop>3.0</vdop><extensions><gom:speed>2.925</gom:speed></extensions></trkpt>
   <trkpt lat="59.1014577795" lon="29.9777901568"><ele>92.541</ele><time>2026-04-25T14:12:35.000Z</time><hdop>3.0</hdop><vdop>3.0</vdop><extensions><gom:speed>3.147</gom:speed></extensions></trkpt>
   <trkpt lat="59.1014269341" lon="29.977792839"><ele>92.564</ele><time>2026-04-25T14:12:36.000Z</time><hdop>3.0</hdop><vdop>3.0</vdop><extensions><gom:speed>3.238</gom:speed></extensions></trkpt>
   <trkpt lat="59.1013976393" lon="29.9777915817"><ele>92.614</ele><time>2026-04-25T14:12:37.000Z</time><hdop>3.0</hdop><vdop>3.0</vdop><extensions><gom:speed>3.161</gom:speed></extensions></trkpt>
   <trkpt lat="59.1013698952" lon="29.977786804"><ele>92.683</ele><time>2026-04-25T14:12:38.000Z</time><hdop>3.0</hdop><vdop>3.0</vdop><extensions><gom:speed>2.946</gom:speed></extensions></trkpt>
   <trkpt lat="59.1013419835" lon="29.9777771648"><ele>92.783</ele><time>2026-04-25T14:12:39.000Z</time><hdop>3.0</hdop><vdop>3.0</vdop><extensions><gom:speed>2.998</gom:speed></extensions></trkpt>
   <trkpt lat="59.101310719" lon="29.9777708784"><ele>92.716</ele><time>2026-04-25T14:12:40.000Z</time><hdop>3.0</hdop><vdop>3.0</vdop><extensions><gom:speed>3.26</gom:speed></extensions></trkpt>
   <trkpt lat="59.1012834778" lon="29.9777602334"><ele>92.689</ele><time>2026-04-25T14:12:41.000Z</time><hdop>3.0</hdop><vdop>3.0</vdop><extensions><gom:speed>3.08</gom:speed></extensions></trkpt>
   <trkpt lat="59.1012569072" lon="29.9777469062"><ele>92.686</ele><time>2026-04-25T14:12:42.000Z</time><hdop>3.0</hdop><vdop>3.0</vdop><extensions><gom:speed>2.902</gom:speed></extensions></trkpt>
   <trkpt lat="59.1012301689" lon="29.9777373508"><ele>92.69</ele><time>2026-04-25T14:12:43.000Z</time><hdop>3.0</hdop><vdop>3.0</vdop><extensions><gom:speed>2.726</gom:speed></extensions></trkpt>
   <trkpt lat="59.1012046041" lon="29.9777319864"><ele>92.742</ele><time>2026-04-25T14:12:44.000Z</time><hdop>3.0</hdop><vdop>3.0</vdop><extensions><gom:speed>2.752</gom:speed></extensions></trkpt>
   <trkpt lat="59.1011775306" lon="29.9777262867"><ele>92.795</ele><time>2026-04-25T14:12:45.000Z</time><hdop>3.0</hdop><vdop>3.0</vdop><extensions><gom:speed>2.928</gom:speed></extensions></trkpt>
   <trkpt lat="59.1011499541" lon="29.9777180724"><ele>92.829</ele><time>2026-04-25T14:12:46.000Z</time><hdop>3.0</hdop><vdop>3.0</vdop><extensions><gom:speed>3.032</gom:speed></extensions></trkpt>
   <trkpt lat="59.1011209108" lon="29.9777125404"><ele>92.834</ele><time>2026-04-25T14:12:47.000Z</time><hdop>3.0</hdop><vdop>3.0</vdop><extensions><gom:speed>3.01</gom:speed></extensions></trkpt>
   <trkpt lat="59.1011209108" lon="29.9777125404"><ele>92.837</ele><time>2026-04-25T14:12:47.000Z</time><hdop>3.0</hdop><vdop>3.0</vdop><extensions><gom:speed>3.01</gom:speed></extensions></trkpt>
   <trkpt lat="59.1010934182" lon="29.9777070921"><ele>92.837</ele><time>2026-04-25T14:12:48.000Z</time><hdop>3.0</hdop><vdop>3.0</vdop><extensions><gom:speed>3.058</gom:speed></extensions></trkpt>
   <trkpt lat="59.101066177" lon="29.9776995484"><ele>92.873</ele><time>2026-04-25T14:12:49.000Z</time><hdop>3.0</hdop><vdop>3.0</vdop><extensions><gom:speed>3.032</gom:speed></extensions></trkpt>
   <trkpt lat="59.1010388101" lon="29.9776901607"><ele>92.878</ele><time>2026-04-25T14:12:50.000Z</time><hdop>3.0</hdop><vdop>3.0</vdop><extensions><gom:speed>2.954</gom:speed></extensions></trkpt>
   <trkpt lat="59.1010104373" lon="29.9776800186"><ele>92.859</ele><time>2026-04-25T14:12:51.000Z</time><hdop>3.0</hdop><vdop>3.0</vdop><extensions><gom:speed>2.959</gom:speed></extensions></trkpt>
   <trkpt lat="59.1009827351" lon="29.9776669428"><ele>92.804</ele><time>2026-04-25T14:12:52.000Z</time><hdop>3.0</hdop><vdop>3.0</vdop><extensions><gom:speed>3.027</gom:speed></extensions></trkpt>
   <trkpt lat="59.1009554101" lon="29.9776524421"><ele>92.7</ele><time>2026-04-25T14:12:53.000Z</time><hdop>3.0</hdop><vdop>3.0</vdop><extensions><gom:speed>2.993</gom:speed></extensions></trkpt>
   <trkpt lat="59.1009295101" lon="29.9776385282"><ele>92.598</ele><time>2026-04-25T14:12:54.000Z</time><hdop>3.0</hdop><vdop>3.0</vdop><extensions><gom:speed>2.949</gom:speed></extensions></trkpt>
   <trkpt lat="59.1009046577" lon="29.9776291404"><ele>92.534</ele><time>2026-04-25T14:12:55.000Z</time><hdop>3.0</hdop><vdop>3.0</vdop><extensions><gom:speed>2.739</gom:speed></extensions></trkpt>
   <trkpt lat="59.1008805178" lon="29.9776243627"><ele>92.475</ele><time>2026-04-25T14:12:56.000Z</time><hdop>3.0</hdop><vdop>3.0</vdop><extensions><gom:speed>2.811</gom:speed></extensions></trkpt>
   <trkpt lat="59.100856336" lon="29.9776175734"><ele>92.48</ele><time>2026-04-25T14:12:57.000Z</time><hdop>3.0</hdop><vdop>3.0</vdop><extensions><gom:speed>2.777</gom:speed></extensions></trkpt>
   <trkpt lat="59.1008301845" lon="29.977612209"><ele>92.434</ele><time>2026-04-25T14:12:58.000Z</time><hdop>3.0</hdop><vdop>3.0</vdop><extensions><gom:speed>2.947</gom:speed></extensions></trkpt>
   <trkpt lat="59.1008039911" lon="29.9776042462"><ele>92.434</ele><time>2026-04-25T14:12:59.000Z</time><hdop>3.0</hdop><vdop>3.0</vdop><extensions><gom:speed>2.945</gom:speed></extensions></trkpt>
   <trkpt lat="59.1007801026" lon="29.9775887397"><ele>92.486</ele><time>2026-04-25T14:13:00.000Z</time><hdop>3.0</hdop><vdop>3.0</vdop><extensions><gom:speed>2.967</gom:speed></extensions></trkpt>
   <trkpt lat="59.1007554179" lon="29.9775738199"><ele>92.562</ele><time>2026-04-25T14:13:01.000Z</time><hdop>3.0</hdop><vdop>3.0</vdop><extensions><gom:speed>2.875</gom:speed></extensions></trkpt>
   <trkpt lat="59.1007306494" lon="29.9775585648"><ele>92.653</ele><time>2026-04-25T14:13:02.000Z</time><hdop>3.0</hdop><vdop>3.0</vdop><extensions><gom:speed>2.867</gom:speed></extensions></trkpt>
   <trkpt lat="59.1007050427" lon="29.9775471654"><ele>92.723</ele><time>2026-04-25T14:13:03.000Z</time><hdop>3.0</hdop><vdop>3.0</vdop><extensions><gom:speed>2.854</gom:speed></extensions></trkpt>
   <trkpt lat="59.100678514" lon="29.977539957"><ele>92.78</ele><time>2026-04-25T14:13:04.000Z</time><hdop>3.0</hdop><vdop>3.0</vdop><extensions><gom:speed>2.835</gom:speed></extensions></trkpt>
   <trkpt lat="59.1006524043" lon="29.9775358498"><ele>92.823</ele><time>2026-04-25T14:13:05.000Z</time><hdop>3.0</hdop><vdop>3.0</vdop><extensions><gom:speed>2.913</gom:speed></extensions></trkpt>
   <trkpt lat="59.1006245345" lon="29.9775336706"><ele>92.842</ele><time>2026-04-25T14:13:06.000Z</time><hdop>3.0</hdop><vdop>3.0</vdop><extensions><gom:speed>3.061</gom:speed></extensions></trkpt>
   <trkpt lat="59.1005978801" lon="29.9775290605"><ele>92.828</ele><time>2026-04-25T14:13:07.000Z</time><hdop>3.0</hdop><vdop>3.0</vdop><extensions><gom:speed>2.788</gom:speed></extensions></trkpt>
   <trkpt lat="59.1005720219" lon="29.9775190022"><ele>92.807</ele><time>2026-04-25T14:13:08.000Z</time><hdop>3.0</hdop><vdop>3.0</vdop><extensions><gom:speed>2.778</gom:speed></extensions></trkpt>
   <trkpt lat="59.1005451998" lon="29.9775101174"><ele>92.805</ele><time>2026-04-25T14:13:09.000Z</time><hdop>3.0</hdop><vdop>3.0</vdop><extensions><gom:speed>2.946</gom:speed></extensions></trkpt>
   <trkpt lat="59.1005192997" lon="29.9775026575"><ele>92.835</ele><time>2026-04-25T14:13:10.000Z</time><hdop>3.0</hdop><vdop>3.0</vdop><extensions><gom:speed>2.687</gom:speed></extensions></trkpt>
   <trkpt lat="59.1004934835" lon="29.9774955329"><ele>92.887</ele><time>2026-04-25T14:13:11.000Z</time><hdop>3.0</hdop><vdop>3.0</vdop><extensions><gom:speed>2.825</gom:speed></extensions></trkpt>
   <trkpt lat="59.1004675834" lon="29.9774879054"><ele>92.97</ele><time>2026-04-25T14:13:12.000Z</time><hdop>3.0</hdop><vdop>3.0</vdop><extensions><gom:speed>2.953</gom:speed></extensions></trkpt>
   <trkpt lat="59.1004416833" lon="29.9774773442"><ele>93.065</ele><time>2026-04-25T14:13:13.000Z</time><hdop>3.125</hdop><vdop>3.125</vdop><extensions><gom:speed>2.862</gom:speed></extensions></trkpt>
   <trkpt lat="59.1004182559" lon="29.977463514"><ele>93.126</ele><time>2026-04-25T14:13:14.000Z</time><hdop>3.5</hdop><vdop>3.5</vdop><extensions><gom:speed>2.749</gom:speed></extensions></trkpt>
   <trkpt lat="59.1003928587" lon="29.9774521985"><ele>93.179</ele><time>2026-04-25T14:13:15.000Z</time><hdop>3.5</hdop><vdop>3.5</vdop><extensions><gom:speed>2.953</gom:speed></extensions></trkpt>
   <trkpt lat="59.1003647793" lon="29.9774467502"><ele>93.228</ele><time>2026-04-25T14:13:16.000Z</time><hdop>3.062</hdop><vdop>3.062</vdop><extensions><gom:speed>2.941</gom:speed></extensions></trkpt>
   <trkpt lat="59.1003373286" lon="29.9774412182"><ele>93.252</ele><time>2026-04-25T14:13:17.000Z</time><hdop>3.0</hdop><vdop>3.0</vdop><extensions><gom:speed>2.973</gom:speed></extensions></trkpt>
   <trkpt lat="59.1003100455" lon="29.9774324172"><ele>93.269</ele><time>2026-04-25T14:13:18.000Z</time><hdop>3.0</hdop><vdop>3.0</vdop><extensions><gom:speed>3.072</gom:speed></extensions></trkpt>
   <trkpt lat="59.1002824271" lon="29.9774247058"><ele>93.299</ele><time>2026-04-25T14:13:19.000Z</time><hdop>3.0</hdop><vdop>3.0</vdop><extensions><gom:speed>3.083</gom:speed></extensions></trkpt>
   <trkpt lat="59.1002545992" lon="29.9774168268"><ele>93.375</ele><time>2026-04-25T14:13:20.000Z</time><hdop>3.0</hdop><vdop>3.0</vdop><extensions><gom:speed>3.064</gom:speed></extensions></trkpt>
   <trkpt lat="59.1002261426" lon="29.9774081935"><ele>93.451</ele><time>2026-04-25T14:13:21.000Z</time><hdop>3.0</hdop><vdop>3.0</vdop><extensions><gom:speed>3.226</gom:speed></extensions></trkpt>
   <trkpt lat="59.1001961773" lon="29.9773981352"><ele>93.548</ele><time>2026-04-25T14:13:22.000Z</time><hdop>3.0</hdop><vdop>3.0</vdop><extensions><gom:speed>3.141</gom:speed></extensions></trkpt>
   <trkpt lat="59.1001650805" lon="29.9773883284"><ele>93.642</ele><time>2026-04-25T14:13:23.000Z</time><hdop>3.0</hdop><vdop>3.0</vdop><extensions><gom:speed>3.085</gom:speed></extensions></trkpt>
   <trkpt lat="59.1001336903" lon="29.9773827963"><ele>93.724</ele><time>2026-04-25T14:13:24.000Z</time><hdop>3.0</hdop><vdop>3.0</vdop><extensions><gom:speed>2.998</gom:speed></extensions></trkpt>
   <trkpt lat="59.1001045212" lon="29.9773743306"><ele>93.781</ele><time>2026-04-25T14:13:25.000Z</time><hdop>3.0</hdop><vdop>3.0</vdop><extensions><gom:speed>2.948</gom:speed></extensions></trkpt>
   <trkpt lat="59.1000779925" lon="29.9773647752"><ele>93.745</ele><time>2026-04-25T14:13:26.000Z</time><hdop>3.0</hdop><vdop>3.0</vdop><extensions><gom:speed>2.686</gom:speed></extensions></trkpt>
   <trkpt lat="59.100052763" lon="29.9773563933"><ele>93.61</ele><time>2026-04-25T14:13:27.000Z</time><hdop>3.0</hdop><vdop>3.0</vdop><extensions><gom:speed>2.828</gom:speed></extensions></trkpt>
   <trkpt lat="59.100052763" lon="29.9773563933"><ele>93.529</ele><time>2026-04-25T14:13:27.000Z</time><hdop>3.0</hdop><vdop>3.0</vdop><extensions><gom:speed>2.828</gom:speed></extensions></trkpt>
   <trkpt lat="59.1000272401" lon="29.9773506098"><ele>93.388</ele><time>2026-04-25T14:13:28.000Z</time><hdop>3.0</hdop><vdop>3.0</vdop><extensions><gom:speed>2.813</gom:speed></extensions></trkpt>
   <trkpt lat="59.1000026811" lon="29.9773438204"><ele>93.289</ele><time>2026-04-25T14:13:29.000Z</time><hdop>3.0</hdop><vdop>3.0</vdop><extensions><gom:speed>2.946</gom:speed></extensions></trkpt>
   <trkpt lat="59.1000026811" lon="29.9773438204"><ele>93.23</ele><time>2026-04-25T14:13:29.000Z</time><hdop>3.0</hdop><vdop>3.0</vdop><extensions><gom:speed>2.946</gom:speed></extensions></trkpt>
   <trkpt lat="59.0999775773" lon="29.9773406353"><ele>93.14</ele><time>2026-04-25T14:13:30.000Z</time><hdop>3.0</hdop><vdop>3.0</vdop><extensions><gom:speed>2.939</gom:speed></extensions></trkpt>
   <trkpt lat="59.0999505457" lon="29.9773372826"><ele>93.074</ele><time>2026-04-25T14:13:31.000Z</time><hdop>3.0</hdop><vdop>3.0</vdop><extensions><gom:speed>2.971</gom:speed></extensions></trkpt>
   <trkpt lat="59.0999505457" lon="29.9773372826"><ele>93.035</ele><time>2026-04-25T14:13:31.000Z</time><hdop>3.0</hdop><vdop>3.0</vdop><extensions><gom:speed>2.971</gom:speed></extensions></trkpt>
   <trkpt lat="59.0999209576" lon="29.9773406353"><ele>92.918</ele><time>2026-04-25T14:13:32.000Z</time><hdop>3.0</hdop><vdop>3.0</vdop><extensions><gom:speed>3.069</gom:speed></extensions></trkpt>
   <trkpt lat="59.0999209576" lon="29.9773406353"><ele>92.847</ele><time>2026-04-25T14:13:32.000Z</time><hdop>3.0</hdop><vdop>3.0</vdop><extensions><gom:speed>3.069</gom:speed></extensions></trkpt>
   <trkpt lat="59.0998933811" lon="29.9773394619"><ele>92.735</ele><time>2026-04-25T14:13:33.000Z</time><hdop>3.0</hdop><vdop>3.0</vdop><extensions><gom:speed>2.895</gom:speed></extensions></trkpt>
   <trkpt lat="59.0998677325" lon="29.9773392104"><ele>92.69</ele><time>2026-04-25T14:13:34.000Z</time><hdop>3.0</hdop><vdop>3.0</vdop><extensions><gom:speed>2.82</gom:speed></extensions></trkpt>
   <trkpt lat="59.0998677325" lon="29.9773392104"><ele>92.663</ele><time>2026-04-25T14:13:34.000Z</time><hdop>3.0</hdop><vdop>3.0</vdop><extensions><gom:speed>2.82</gom:speed></extensions></trkpt>
   <trkpt lat="59.0998399465" lon="29.9773423117"><ele>92.743</ele><time>2026-04-25T14:13:35.000Z</time><hdop>3.0</hdop><vdop>3.0</vdop><extensions><gom:speed>2.852</gom:speed></extensions></trkpt>
   <trkpt lat="59.0998143397" lon="29.9773381208"><ele>92.839</ele><time>2026-04-25T14:13:36.000Z</time><hdop>3.0</hdop><vdop>3.0</vdop><extensions><gom:speed>2.738</gom:speed></extensions></trkpt>
   <trkpt lat="59.0997912057" lon="29.9773244582"><ele>92.939</ele><time>2026-04-25T14:13:37.000Z</time><hdop>4.187</hdop><vdop>4.187</vdop><extensions><gom:speed>2.593</gom:speed></extensions></trkpt>
   <trkpt lat="59.0997687422" lon="29.9773068563"><ele>92.991</ele><time>2026-04-25T14:13:38.000Z</time><hdop>4.625</hdop><vdop>4.625</vdop><extensions><gom:speed>2.495</gom:speed></extensions></trkpt>
   <trkpt lat="59.0997463625" lon="29.9772859853"><ele>92.939</ele><time>2026-04-25T14:13:39.000Z</time><hdop>4.125</hdop><vdop>4.125</vdop><extensions><gom:speed>2.61</gom:speed></extensions></trkpt>
   <trkpt lat="59.0997463625" lon="29.9772859853"><ele>92.907</ele><time>2026-04-25T14:13:39.000Z</time><hdop>4.125</hdop><vdop>4.125</vdop><extensions><gom:speed>2.61</gom:speed></extensions></trkpt>
   <trkpt lat="59.0997237733" lon="29.9772695568"><ele>92.836</ele><time>2026-04-25T14:13:40.000Z</time><hdop>3.812</hdop><vdop>3.812</vdop><extensions><gom:speed>2.579</gom:speed></extensions></trkpt>
   <trkpt lat="59.0997015193" lon="29.9772611749"><ele>92.755</ele><time>2026-04-25T14:13:41.000Z</time><hdop>3.437</hdop><vdop>3.437</vdop><extensions><gom:speed>2.473</gom:speed></extensions></trkpt>
   <trkpt lat="59.0996787625" lon="29.9772553914"><ele>92.648</ele><time>2026-04-25T14:13:42.000Z</time><hdop>3.187</hdop><vdop>3.187</vdop><extensions><gom:speed>2.733</gom:speed></extensions></trkpt>
   <trkpt lat="59.0996547064" lon="29.9772438243"><ele>92.579</ele><time>2026-04-25T14:13:43.000Z</time><hdop>3.0</hdop><vdop>3.0</vdop><extensions><gom:speed>2.795</gom:speed></extensions></trkpt>
   <trkpt lat="59.0996292673" lon="29.9772354424"><ele>92.585</ele><time>2026-04-25T14:13:44.000Z</time><hdop>3.0</hdop><vdop>3.0</vdop><extensions><gom:speed>2.852</gom:speed></extensions></trkpt>
   <trkpt lat="59.0996045407" lon="29.9772290722"><ele>92.574</ele><time>2026-04-25T14:13:45.000Z</time><hdop>3.0</hdop><vdop>3.0</vdop><extensions><gom:speed>2.563</gom:speed></extensions></trkpt>
   <trkpt lat="59.0995767966" lon="29.977229156"><ele>92.66</ele><time>2026-04-25T14:13:46.000Z</time><hdop>3.0</hdop><vdop>3.0</vdop><extensions><gom:speed>2.758</gom:speed></extensions></trkpt>
   <trkpt lat="59.0995486753" lon="29.9772253842"><ele>92.75</ele><time>2026-04-25T14:13:47.000Z</time><hdop>3.0</hdop><vdop>3.0</vdop><extensions><gom:speed>3.116</gom:speed></extensions></trkpt>
   <trkpt lat="59.0995486753" lon="29.9772253842"><ele>92.804</ele><time>2026-04-25T14:13:47.000Z</time><hdop>3.0</hdop><vdop>3.0</vdop><extensions><gom:speed>3.116</gom:speed></extensions></trkpt>
   <trkpt lat="59.09952244" lon="29.9772170023"><ele>92.922</ele><time>2026-04-25T14:13:48.000Z</time><hdop>3.0</hdop><vdop>3.0</vdop><extensions><gom:speed>2.639</gom:speed></extensions></trkpt>
   <trkpt lat="59.0994995574" lon="29.9772076145"><ele>93.055</ele><time>2026-04-25T14:13:49.000Z</time><hdop>3.0</hdop><vdop>3.0</vdop><extensions><gom:speed>2.647</gom:speed></extensions></trkpt>
   <trkpt lat="59.0994752499" lon="29.9771937006"><ele>93.11</ele><time>2026-04-25T14:13:50.000Z</time><hdop>3.0</hdop><vdop>3.0</vdop><extensions><gom:speed>3.043</gom:speed></extensions></trkpt>
   <trkpt lat="59.0994514452" lon="29.9771843966"><ele>93.239</ele><time>2026-04-25T14:13:51.000Z</time><hdop>3.0</hdop><vdop>3.0</vdop><extensions><gom:speed>2.757</gom:speed></extensions></trkpt>
   <trkpt lat="59.099429317" lon="29.9771733325"><ele>93.425</ele><time>2026-04-25T14:13:52.000Z</time><hdop>3.0</hdop><vdop>3.0</vdop><extensions><gom:speed>2.628</gom:speed></extensions></trkpt>
   <trkpt lat="59.0994090747" lon="29.9771614302"><ele>93.583</ele><time>2026-04-25T14:13:53.000Z</time><hdop>3.0</hdop><vdop>3.0</vdop><extensions><gom:speed>2.427</gom:speed></extensions></trkpt>
   <trkpt lat="59.0993881619" lon="29.9771507014"><ele>93.693</ele><time>2026-04-25T14:13:54.000Z</time><hdop>3.0</hdop><vdop>3.0</vdop><extensions><gom:speed>2.562</gom:speed></extensions></trkpt>
   <trkpt lat="59.0993586995" lon="29.9771523778"><ele>93.936</ele><time>2026-04-25T14:13:55.000Z</time><hdop>3.0</hdop><vdop>3.0</vdop><extensions><gom:speed>2.757</gom:speed></extensions></trkpt>
   <trkpt lat="59.0993321708" lon="29.9771502823"><ele>94.091</ele><time>2026-04-25T14:13:56.000Z</time><hdop>3.0</hdop><vdop>3.0</vdop><extensions><gom:speed>2.903</gom:speed></extensions></trkpt>
   <trkpt lat="59.0993050972" lon="29.9771439121"><ele>94.185</ele><time>2026-04-25T14:13:57.000Z</time><hdop>3.0</hdop><vdop>3.0</vdop><extensions><gom:speed>2.995</gom:speed></extensions></trkpt>
   <trkpt lat="59.0992758863" lon="29.9771408946"><ele>94.32</ele><time>2026-04-25T14:13:58.000Z</time><hdop>3.0</hdop><vdop>3.0</vdop><extensions><gom:speed>2.779</gom:speed></extensions></trkpt>
   <trkpt lat="59.0992511597" lon="29.9771278188"><ele>94.418</ele><time>2026-04-25T14:13:59.000Z</time><hdop>3.0</hdop><vdop>3.0</vdop><extensions><gom:speed>2.753</gom:speed></extensions></trkpt>
   <trkpt lat="59.0992271036" lon="29.9771165032"><ele>94.507</ele><time>2026-04-25T14:14:00.000Z</time><hdop>3.0</hdop><vdop>3.0</vdop><extensions><gom:speed>2.633</gom:speed></extensions></trkpt>
   <trkpt lat="59.0992001977" lon="29.977112899"><ele>94.613</ele><time>2026-04-25T14:14:01.000Z</time><hdop>3.0</hdop><vdop>3.0</vdop><extensions><gom:speed>2.822</gom:speed></extensions></trkpt>
   <trkpt lat="59.099176896" lon="29.9771089595"><ele>94.796</ele><time>2026-04-25T14:14:02.000Z</time><hdop>3.0</hdop><vdop>3.0</vdop><extensions><gom:speed>2.694</gom:speed></extensions></trkpt>
   <trkpt lat="59.099152337" lon="29.9771058582"><ele>94.982</ele><time>2026-04-25T14:14:03.000Z</time><hdop>3.0</hdop><vdop>3.0</vdop><extensions><gom:speed>2.718</gom:speed></extensions></trkpt>
   <trkpt lat="59.0991274428" lon="29.9771062773"><ele>95.394</ele><time>2026-04-25T14:14:04.000Z</time><hdop>3.0</hdop><vdop>3.0</vdop><extensions><gom:speed>2.609</gom:speed></extensions></trkpt>
   <trkpt lat="59.0991012493" lon="29.9771077861"><ele>95.757</ele><time>2026-04-25T14:14:05.000Z</time><hdop>3.0</hdop><vdop>3.0</vdop><extensions><gom:speed>2.784</gom:speed></extensions></trkpt>
   <trkpt lat="59.0990752654" lon="29.9771061097"><ele>95.969</ele><time>2026-04-25T14:14:06.000Z</time><hdop>3.0</hdop><vdop>3.0</vdop><extensions><gom:speed>2.845</gom:speed></extensions></trkpt>
   <trkpt lat="59.0990493654" lon="29.9771009967"><ele>96.144</ele><time>2026-04-25T14:14:07.000Z</time><hdop>3.0</hdop><vdop>3.0</vdop><extensions><gom:speed>2.62</gom:speed></extensions></trkpt>
   <trkpt lat="59.0990493654" lon="29.9771009967"><ele>96.249</ele><time>2026-04-25T14:14:07.000Z</time><hdop>3.0</hdop><vdop>3.0</vdop><extensions><gom:speed>2.62</gom:speed></extensions></trkpt>
   <trkpt lat="59.0990252255" lon="29.9770948779"><ele>96.359</ele><time>2026-04-25T14:14:08.000Z</time><hdop>3.0</hdop><vdop>3.0</vdop><extensions><gom:speed>2.883</gom:speed></extensions></trkpt>
   <trkpt lat="59.0989969785" lon="29.9770913575"><ele>96.524</ele><time>2026-04-25T14:14:09.000Z</time><hdop>3.0</hdop><vdop>3.0</vdop><extensions><gom:speed>3.221</gom:speed></extensions></trkpt>
   <trkpt lat="59.0989683124" lon="29.9770875857"><ele>96.685</ele><time>2026-04-25T14:14:10.000Z</time><hdop>3.0</hdop><vdop>3.0</vdop><extensions><gom:speed>2.994</gom:speed></extensions></trkpt>
   <trkpt lat="59.0989401072" lon="29.9770794552"><ele>96.737</ele><time>2026-04-25T14:14:11.000Z</time><hdop>3.0</hdop><vdop>3.0</vdop><extensions><gom:speed>2.983</gom:speed></extensions></trkpt>
   <trkpt lat="59.0989144586" lon="29.9770723306"><ele>96.782</ele><time>2026-04-25T14:14:12.000Z</time><hdop>3.0</hdop><vdop>3.0</vdop><extensions><gom:speed>2.815</gom:speed></extensions></trkpt>
   <trkpt lat="59.098886505" lon="29.9770665471"><ele>96.892</ele><time>2026-04-25T14:14:13.000Z</time><hdop>3.0</hdop><vdop>3.0</vdop><extensions><gom:speed>3.103</gom:speed></extensions></trkpt>
   <trkpt lat="59.0988585094" lon="29.9770601768"><ele>97.103</ele><time>2026-04-25T14:14:14.000Z</time><hdop>3.0</hdop><vdop>3.0</vdop><extensions><gom:speed>2.962</gom:speed></extensions></trkpt>
   <trkpt lat="59.0988319807" lon="29.9770491127"><ele>97.24</ele><time>2026-04-25T14:14:15.000Z</time><hdop>3.0</hdop><vdop>3.0</vdop><extensions><gom:speed>2.738</gom:speed></extensions></trkpt>
   <trkpt lat="59.0988058711" lon="29.9770404794"><ele>97.278</ele><time>2026-04-25T14:14:16.000Z</time><hdop>3.0</hdop><vdop>3.0</vdop><extensions><gom:speed>2.785</gom:speed></extensions></trkpt>
   <trkpt lat="59.0987815216" lon="29.9770345282"><ele>97.336</ele><time>2026-04-25T14:14:17.000Z</time><hdop>3.0</hdop><vdop>3.0</vdop><extensions><gom:speed>2.746</gom:speed></extensions></trkpt>
   <trkpt lat="59.0987551606" lon="29.9770288285"><ele>97.444</ele><time>2026-04-25T14:14:18.000Z</time><hdop>3.0</hdop><vdop>3.0</vdop><extensions><gom:speed>2.81</gom:speed></extensions></trkpt>
   <trkpt lat="59.0987281289" lon="29.9770235479"><ele>97.479</ele><time>2026-04-25T14:14:19.000Z</time><hdop>3.0</hdop><vdop>3.0</vdop><extensions><gom:speed>2.831</gom:speed></extensions></trkpt>
   <trkpt lat="59.0987007201" lon="29.9770207819"><ele>97.47</ele><time>2026-04-25T14:14:20.000Z</time><hdop>3.0</hdop><vdop>3.0</vdop><extensions><gom:speed>2.756</gom:speed></extensions></trkpt>
   <trkpt lat="59.0986744847" lon="29.9770162557"><ele>97.429</ele><time>2026-04-25T14:14:21.000Z</time><hdop>3.0</hdop><vdop>3.0</vdop><extensions><gom:speed>2.551</gom:speed></extensions></trkpt>
   <trkpt lat="59.0986498419" lon="29.9770132382"><ele>97.383</ele><time>2026-04-25T14:14:22.000Z</time><hdop>3.0</hdop><vdop>3.0</vdop><extensions><gom:speed>2.572</gom:speed></extensions></trkpt>
   <trkpt lat="59.0986256601" lon="29.9770060297"><ele>97.412</ele><time>2026-04-25T14:14:23.000Z</time><hdop>3.0</hdop><vdop>3.0</vdop><extensions><gom:speed>2.702</gom:speed></extensions></trkpt>
   <trkpt lat="59.0986009335" lon="29.9769925349"><ele>97.417</ele><time>2026-04-25T14:14:24.000Z</time><hdop>3.0</hdop><vdop>3.0</vdop><extensions><gom:speed>2.652</gom:speed></extensions></trkpt>
   <trkpt lat="59.098577548" lon="29.9769794591"><ele>97.387</ele><time>2026-04-25T14:14:25.000Z</time><hdop>3.0</hdop><vdop>3.0</vdop><extensions><gom:speed>2.495</gom:speed></extensions></trkpt>
   <trkpt lat="59.0985537434" lon="29.9769690656"><ele>97.388</ele><time>2026-04-25T14:14:26.000Z</time><hdop>3.0</hdop><vdop>3.0</vdop><extensions><gom:speed>2.753</gom:speed></extensions></trkpt>
   <trkpt lat="59.098529855" lon="29.9769569956"><ele>97.373</ele><time>2026-04-25T14:14:27.000Z</time><hdop>3.0</hdop><vdop>3.0</vdop><extensions><gom:speed>2.662</gom:speed></extensions></trkpt>
   <trkpt lat="59.098529855" lon="29.9769569956"><ele>97.363</ele><time>2026-04-25T14:14:27.000Z</time><hdop>3.0</hdop><vdop>3.0</vdop><extensions><gom:speed>2.662</gom:speed></extensions></trkpt>
   <trkpt lat="59.0985049188" lon="29.9769481108"><ele>97.353</ele><time>2026-04-25T14:14:28.000Z</time><hdop>3.0</hdop><vdop>3.0</vdop><extensions><gom:speed>2.766</gom:speed></extensions></trkpt>
   <trkpt lat="59.0984809466" lon="29.9769305926"><ele>97.192</ele><time>2026-04-25T14:14:29.000Z</time><hdop>3.0</hdop><vdop>3.0</vdop><extensions><gom:speed>2.878</gom:speed></extensions></trkpt>
   <trkpt lat="59.0984554656" lon="29.976910979"><ele>97.044</ele><time>2026-04-25T14:14:30.000Z</time><hdop>4.75</hdop><vdop>4.75</vdop><extensions><gom:speed>2.896</gom:speed></extensions></trkpt>
   <trkpt lat="59.0984308228" lon="29.9768965621"><ele>96.922</ele><time>2026-04-25T14:14:31.000Z</time><hdop>4.687</hdop><vdop>4.687</vdop><extensions><gom:speed>2.727</gom:speed></extensions></trkpt>
   <trkpt lat="59.0984082755" lon="29.9768849112"><ele>96.801</ele><time>2026-04-25T14:14:32.000Z</time><hdop>4.687</hdop><vdop>4.687</vdop><extensions><gom:speed>2.254</gom:speed></extensions></trkpt>
   <trkpt lat="59.0983897934" lon="29.9768713326"><ele>96.686</ele><time>2026-04-25T14:14:33.000Z</time><hdop>4.687</hdop><vdop>4.687</vdop><extensions><gom:speed>2.227</gom:speed></extensions></trkpt>
   <trkpt lat="59.0983702636" lon="29.9768585083"><ele>96.563</ele><time>2026-04-25T14:14:34.000Z</time><hdop>4.687</hdop><vdop>4.687</vdop><extensions><gom:speed>2.484</gom:speed></extensions></trkpt>
   <trkpt lat="59.0983481772" lon="29.9768537306"><ele>96.487</ele><time>2026-04-25T14:14:35.000Z</time><hdop>4.687</hdop><vdop>4.687</vdop><extensions><gom:speed>2.406</gom:speed></extensions></trkpt>
   <trkpt lat="59.0983256718" lon="29.9768515513"><ele>96.448</ele><time>2026-04-25T14:14:36.000Z</time><hdop>4.0</hdop><vdop>4.0</vdop><extensions><gom:speed>2.356</gom:speed></extensions></trkpt>
   <trkpt lat="59.0983030826" lon="29.976847025"><ele>96.438</ele><time>2026-04-25T14:14:37.000Z</time><hdop>3.937</hdop><vdop>3.937</vdop><extensions><gom:speed>2.631</gom:speed></extensions></trkpt>
   <trkpt lat="59.0982814992" lon="29.9768445105"><ele>96.555</ele><time>2026-04-25T14:14:38.000Z</time><hdop>3.875</hdop><vdop>3.875</vdop><extensions><gom:speed>2.385</gom:speed></extensions></trkpt>
   <trkpt lat="59.0982595805" lon="29.9768468574"><ele>96.691</ele><time>2026-04-25T14:14:39.000Z</time><hdop>4.125</hdop><vdop>4.125</vdop><extensions><gom:speed>2.497</gom:speed></extensions></trkpt>
   <trkpt lat="59.0982379133" lon="29.9768598494"><ele>96.875</ele><time>2026-04-25T14:14:40.000Z</time><hdop>3.937</hdop><vdop>3.937</vdop><extensions><gom:speed>2.714</gom:speed></extensions></trkpt>
   <trkpt lat="59.0982146535" lon="29.9768657167"><ele>97.046</ele><time>2026-04-25T14:14:41.000Z</time><hdop>4.25</hdop><vdop>4.25</vdop><extensions><gom:speed>2.542</gom:speed></extensions></trkpt>
   <trkpt lat="59.0981910166" lon="29.976868818"><ele>97.187</ele><time>2026-04-25T14:14:42.000Z</time><hdop>3.937</hdop><vdop>3.937</vdop><extensions><gom:speed>2.457</gom:speed></extensions></trkpt>
   <trkpt lat="59.0981687626" lon="29.9768761102"><ele>97.283</ele><time>2026-04-25T14:14:43.000Z</time><hdop>3.625</hdop><vdop>3.625</vdop><extensions><gom:speed>2.35</gom:speed></extensions></trkpt>
   <trkpt lat="59.0981443713" lon="29.9768740148"><ele>97.43</ele><time>2026-04-25T14:14:44.000Z</time><hdop>3.937</hdop><vdop>3.937</vdop><extensions><gom:speed>2.644</gom:speed></extensions></trkpt>
   <trkpt lat="59.0981197704" lon="29.9768680636"><ele>97.706</ele><time>2026-04-25T14:14:45.000Z</time><hdop>4.125</hdop><vdop>4.125</vdop><extensions><gom:speed>2.535</gom:speed></extensions></trkpt>
   <trkpt lat="59.0980936608" lon="29.9768752721"><ele>97.982</ele><time>2026-04-25T14:14:46.000Z</time><hdop>4.25</hdop><vdop>4.25</vdop><extensions><gom:speed>2.954</gom:speed></extensions></trkpt>
   <trkpt lat="59.0980672578" lon="29.9768779543"><ele>98.274</ele><time>2026-04-25T14:14:47.000Z</time><hdop>4.187</hdop><vdop>4.187</vdop><extensions><gom:speed>2.713</gom:speed></extensions></trkpt>
   <trkpt lat="59.0980672578" lon="29.9768779543"><ele>98.449</ele><time>2026-04-25T14:14:47.000Z</time><hdop>4.187</hdop><vdop>4.187</vdop><extensions><gom:speed>2.713</gom:speed></extensions></trkpt>
   <trkpt lat="59.0980406452" lon="29.9768709973"><ele>98.619</ele><time>2026-04-25T14:14:48.000Z</time><hdop>4.125</hdop><vdop>4.125</vdop><extensions><gom:speed>2.833</gom:speed></extensions></trkpt>
   <trkpt lat="59.098015248" lon="29.9768598494"><ele>98.741</ele><time>2026-04-25T14:14:49.000Z</time><hdop>3.812</hdop><vdop>3.812</vdop><extensions><gom:speed>2.582</gom:speed></extensions></trkpt>
   <trkpt lat="59.0979908148" lon="29.9768510484"><ele>98.913</ele><time>2026-04-25T14:14:50.000Z</time><hdop>3.937</hdop><vdop>3.937</vdop><extensions><gom:speed>2.519</gom:speed></extensions></trkpt>
   <trkpt lat="59.0979669683" lon="29.9768455163"><ele>99.087</ele><time>2026-04-25T14:14:51.000Z</time><hdop>3.937</hdop><vdop>3.937</vdop><extensions><gom:speed>2.516</gom:speed></extensions></trkpt>
   <trkpt lat="59.0979417807" lon="29.9768418283"><ele>99.295</ele><time>2026-04-25T14:14:52.000Z</time><hdop>4.125</hdop><vdop>4.125</vdop><extensions><gom:speed>2.984</gom:speed></extensions></trkpt>
   <trkpt lat="59.0979147071" lon="29.9768383079"><ele>99.483</ele><time>2026-04-25T14:14:53.000Z</time><hdop>4.062</hdop><vdop>4.062</vdop><extensions><gom:speed>3.218</gom:speed></extensions></trkpt>
   <trkpt lat="59.0978863344" lon="29.9768316862"><ele>99.603</ele><time>2026-04-25T14:14:54.000Z</time><hdop>4.25</hdop><vdop>4.25</vdop><extensions><gom:speed>3.21</gom:speed></extensions></trkpt>
   <trkpt lat="59.0978593027" lon="29.9768201191"><ele>99.754</ele><time>2026-04-25T14:14:55.000Z</time><hdop>4.312</hdop><vdop>4.312</vdop><extensions><gom:speed>2.9</gom:speed></extensions></trkpt>
   <trkpt lat="59.0978297565" lon="29.976809977"><ele>100.011</ele><time>2026-04-25T14:14:56.000Z</time><hdop>4.187</hdop><vdop>4.187</vdop><extensions><gom:speed>2.899</gom:speed></extensions></trkpt>
   <trkpt lat="59.0977998331" lon="29.9767909501"><ele>100.329</ele><time>2026-04-25T14:14:57.000Z</time><hdop>3.937</hdop><vdop>3.937</vdop><extensions><gom:speed>2.906</gom:speed></extensions></trkpt>
   <trkpt lat="59.0977717957" lon="29.9767772038"><ele>100.651</ele><time>2026-04-25T14:14:58.000Z</time><hdop>3.812</hdop><vdop>3.812</vdop><extensions><gom:speed>3.029</gom:speed></extensions></trkpt>
   <trkpt lat="59.0977444707" lon="29.9767688219"><ele>101.023</ele><time>2026-04-25T14:14:59.000Z</time><hdop>3.625</hdop><vdop>3.625</vdop><extensions><gom:speed>2.961</gom:speed></extensions></trkpt>
   <trkpt lat="59.097719325" lon="29.9767518066"><ele>101.197</ele><time>2026-04-25T14:15:00.000Z</time><hdop>3.375</hdop><vdop>3.375</vdop><extensions><gom:speed>2.728</gom:speed></extensions></trkpt>
   <trkpt lat="59.0976922095" lon="29.9767347914"><ele>101.182</ele><time>2026-04-25T14:15:01.000Z</time><hdop>3.25</hdop><vdop>3.25</vdop><extensions><gom:speed>2.721</gom:speed></extensions></trkpt>
   <trkpt lat="59.0976671057" lon="29.9767166865"><ele>101.113</ele><time>2026-04-25T14:15:02.000Z</time><hdop>3.25</hdop><vdop>3.25</vdop><extensions><gom:speed>2.883</gom:speed></extensions></trkpt>
   <trkpt lat="59.0976405351" lon="29.9767013476"><ele>100.986</ele><time>2026-04-25T14:15:03.000Z</time><hdop>3.187</hdop><vdop>3.187</vdop><extensions><gom:speed>2.906</gom:speed></extensions></trkpt>
   <trkpt lat="59.0976133358" lon="29.9766866792"><ele>100.846</ele><time>2026-04-25T14:15:04.000Z</time><hdop>3.25</hdop><vdop>3.25</vdop><extensions><gom:speed>2.92</gom:speed></extensions></trkpt>
   <trkpt lat="59.097585466" lon="29.9766734358"><ele>100.67</ele><time>2026-04-25T14:15:05.000Z</time><hdop>3.187</hdop><vdop>3.187</vdop><extensions><gom:speed>2.957</gom:speed></extensions></trkpt>
   <trkpt lat="59.0975580152" lon="29.9766598571"><ele>100.489</ele><time>2026-04-25T14:15:06.000Z</time><hdop>3.125</hdop><vdop>3.125</vdop><extensions><gom:speed>2.87</gom:speed></extensions></trkpt>
   <trkpt lat="59.0975318218" lon="29.976649715"><ele>100.3</ele><time>2026-04-25T14:15:07.000Z</time><hdop>3.062</hdop><vdop>3.062</vdop><extensions><gom:speed>2.826</gom:speed></extensions></trkpt>
   <trkpt lat="59.0975318218" lon="29.976649715"><ele>100.187</ele><time>2026-04-25T14:15:07.000Z</time><hdop>3.062</hdop><vdop>3.062</vdop><extensions><gom:speed>2.826</gom:speed></extensions></trkpt>
   <trkpt lat="59.0975058798" lon="29.9766422552"><ele>99.998</ele><time>2026-04-25T14:15:08.000Z</time><hdop>3.062</hdop><vdop>3.062</vdop><extensions><gom:speed>2.772</gom:speed></extensions></trkpt>
   <trkpt lat="59.097479854" lon="29.9766369746"><ele>99.832</ele><time>2026-04-25T14:15:09.000Z</time><hdop>3.187</hdop><vdop>3.187</vdop><extensions><gom:speed>2.733</gom:speed></extensions></trkpt>
   <trkpt lat="59.0974540377" lon="29.9766311072"><ele>99.664</ele><time>2026-04-25T14:15:10.000Z</time><hdop>3.187</hdop><vdop>3.187</vdop><extensions><gom:speed>2.792</gom:speed></extensions></trkpt>
   <trkpt lat="59.0974278862" lon="29.9766195402"><ele>99.511</ele><time>2026-04-25T14:15:11.000Z</time><hdop>3.062</hdop><vdop>3.062</vdop><extensions><gom:speed>2.865</gom:speed></extensions></trkpt>
   <trkpt lat="59.0974011479" lon="29.9766047042"><ele>99.354</ele><time>2026-04-25T14:15:12.000Z</time><hdop>3.0</hdop><vdop>3.0</vdop><extensions><gom:speed>2.995</gom:speed></extensions></trkpt>
   <trkpt lat="59.0973739486" lon="29.9765923828"><ele>99.26</ele><time>2026-04-25T14:15:13.000Z</time><hdop>3.0</hdop><vdop>3.0</vdop><extensions><gom:speed>2.762</gom:speed></extensions></trkpt>
   <trkpt lat="59.0973487191" lon="29.9765831627"><ele>99.265</ele><time>2026-04-25T14:15:14.000Z</time><hdop>3.0</hdop><vdop>3.0</vdop><extensions><gom:speed>2.703</gom:speed></extensions></trkpt>
   <trkpt lat="59.0973248726" lon="29.9765749485"><ele>99.278</ele><time>2026-04-25T14:15:15.000Z</time><hdop>3.0</hdop><vdop>3.0</vdop><extensions><gom:speed>2.674</gom:speed></extensions></trkpt>
   <trkpt lat="59.0973008165" lon="29.9765669018"><ele>99.319</ele><time>2026-04-25T14:15:16.000Z</time><hdop>3.0</hdop><vdop>3.0</vdop><extensions><gom:speed>2.761</gom:speed></extensions></trkpt>
   <trkpt lat="59.0972775987" lon="29.9765596096"><ele>99.387</ele><time>2026-04-25T14:15:17.000Z</time><hdop>3.0</hdop><vdop>3.0</vdop><extensions><gom:speed>2.593</gom:speed></extensions></trkpt>
   <trkpt lat="59.0972537941" lon="29.9765514791"><ele>99.423</ele><time>2026-04-25T14:15:18.000Z</time><hdop>3.0</hdop><vdop>3.0</vdop><extensions><gom:speed>2.924</gom:speed></extensions></trkpt>
   <trkpt lat="59.0972285226" lon="29.976541337"><ele>99.41</ele><time>2026-04-25T14:15:19.000Z</time><hdop>3.0</hdop><vdop>3.0</vdop><extensions><gom:speed>2.848</gom:speed></extensions></trkpt>
   <trkpt lat="59.0972012395" lon="29.9765342962"><ele>99.276</ele><time>2026-04-25T14:15:20.000Z</time><hdop>3.0</hdop><vdop>3.0</vdop><extensions><gom:speed>2.987</gom:speed></extensions></trkpt>
   <trkpt lat="59.0971740822" lon="29.976527004"><ele>99.109</ele><time>2026-04-25T14:15:21.000Z</time><hdop>3.0</hdop><vdop>3.0</vdop><extensions><gom:speed>2.943</gom:speed></extensions></trkpt>
   <trkpt lat="59.0971467991" lon="29.9765197117"><ele>98.97</ele><time>2026-04-25T14:15:22.000Z</time><hdop>3.0</hdop><vdop>3.0</vdop><extensions><gom:speed>2.952</gom:speed></extensions></trkpt>
   <trkpt lat="59.0971192645" lon="29.976509402"><ele>98.81</ele><time>2026-04-25T14:15:23.000Z</time><hdop>3.0</hdop><vdop>3.0</vdop><extensions><gom:speed>2.975</gom:speed></extensions></trkpt>
   <trkpt lat="59.0970934482" lon="29.9765008524"><ele>98.798</ele><time>2026-04-25T14:15:24.000Z</time><hdop>3.0</hdop><vdop>3.0</vdop><extensions><gom:speed>2.71</gom:speed></extensions></trkpt>
   <trkpt lat="59.0970675482" lon="29.9764897883"><ele>98.769</ele><time>2026-04-25T14:15:25.000Z</time><hdop>3.0</hdop><vdop>3.0</vdop><extensions><gom:speed>2.905</gom:speed></extensions></trkpt>
   <trkpt lat="59.0970395526" lon="29.9764778022"><ele>98.624</ele><time>2026-04-25T14:15:26.000Z</time><hdop>3.0</hdop><vdop>3.0</vdop><extensions><gom:speed>2.987</gom:speed></extensions></trkpt>
   <trkpt lat="59.0970395526" lon="29.9764778022"><ele>98.538</ele><time>2026-04-25T14:15:26.000Z</time><hdop>3.0</hdop><vdop>3.0</vdop><extensions><gom:speed>2.987</gom:speed></extensions></trkpt>
   <trkpt lat="59.0970121438" lon="29.976459362"><ele>98.418</ele><time>2026-04-25T14:15:27.000Z</time><hdop>3.0</hdop><vdop>3.0</vdop><extensions><gom:speed>2.849</gom:speed></extensions></trkpt>
   <trkpt lat="59.0969847769" lon="29.9764441908"><ele>98.254</ele><time>2026-04-25T14:15:28.000Z</time><hdop>3.0</hdop><vdop>3.0</vdop><extensions><gom:speed>2.958</gom:speed></extensions></trkpt>
   <trkpt lat="59.0969565299" lon="29.9764326238"><ele>98.01</ele><time>2026-04-25T14:15:29.000Z</time><hdop>3.0</hdop><vdop>3.0</vdop><extensions><gom:speed>2.781</gom:speed></extensions></trkpt>
   <trkpt lat="59.096930546" lon="29.9764229007"><ele>97.817</ele><time>2026-04-25T14:15:30.000Z</time><hdop>3.0</hdop><vdop>3.0</vdop><extensions><gom:speed>2.821</gom:speed></extensions></trkpt>
   <trkpt lat="59.0969053164" lon="29.9764145188"><ele>97.661</ele><time>2026-04-25T14:15:31.000Z</time><hdop>3.0</hdop><vdop>3.0</vdop><extensions><gom:speed>2.857</gom:speed></extensions></trkpt>
   <trkpt lat="59.0968798354" lon="29.9764094897"><ele>97.544</ele><time>2026-04-25T14:15:32.000Z</time><hdop>3.0</hdop><vdop>3.0</vdop><extensions><gom:speed>2.85</gom:speed></extensions></trkpt>
   <trkpt lat="59.0968548574" lon="29.9764049635"><ele>97.406</ele><time>2026-04-25T14:15:33.000Z</time><hdop>3.0</hdop><vdop>3.0</vdop><extensions><gom:speed>2.799</gom:speed></extensions></trkpt>
   <trkpt lat="59.0968296698" lon="29.9764000181"><ele>97.329</ele><time>2026-04-25T14:15:34.000Z</time><hdop>3.0</hdop><vdop>3.0</vdop><extensions><gom:speed>2.835</gom:speed></extensions></trkpt>
   <trkpt lat="59.096805488" lon="29.976398677"><ele>97.269</ele><time>2026-04-25T14:15:35.000Z</time><hdop>3.0</hdop><vdop>3.0</vdop><extensions><gom:speed>2.697</gom:speed></extensions></trkpt>
   <trkpt lat="59.0967803423" lon="29.9763975874"><ele>97.254</ele><time>2026-04-25T14:15:36.000Z</time><hdop>3.0</hdop><vdop>3.0</vdop><extensions><gom:speed>2.81</gom:speed></extensions></trkpt>
   <trkpt lat="59.0967581302" lon="29.9763878644"><ele>97.252</ele><time>2026-04-25T14:15:37.000Z</time><hdop>3.0</hdop><vdop>3.0</vdop><extensions><gom:speed>2.557</gom:speed></extensions></trkpt>
   <trkpt lat="59.0967351638" lon="29.9763790634"><ele>97.257</ele><time>2026-04-25T14:15:38.000Z</time><hdop>3.0</hdop><vdop>3.0</vdop><extensions><gom:speed>2.616</gom:speed></extensions></trkpt>
   <trkpt lat="59.0967121974" lon="29.9763663229"><ele>97.29</ele><time>2026-04-25T14:15:39.000Z</time><hdop>3.0</hdop><vdop>3.0</vdop><extensions><gom:speed>2.693</gom:speed></extensions></trkpt>
   <trkpt lat="59.0966893986" lon="29.9763502296"><ele>97.311</ele><time>2026-04-25T14:15:40.000Z</time><hdop>3.0</hdop><vdop>3.0</vdop><extensions><gom:speed>2.708</gom:speed></extensions></trkpt>
   <trkpt lat="59.0966648396" lon="29.9763364833"><ele>97.284</ele><time>2026-04-25T14:15:41.000Z</time><hdop>3.0</hdop><vdop>3.0</vdop><extensions><gom:speed>2.926</gom:speed></extensions></trkpt>
   <trkpt lat="59.0966404902" lon="29.9763205577"><ele>97.244</ele><time>2026-04-25T14:15:42.000Z</time><hdop>3.0</hdop><vdop>3.0</vdop><extensions><gom:speed>2.83</gom:speed></extensions></trkpt>
   <trkpt lat="59.0966168532" lon="29.9763067276"><ele>97.174</ele><time>2026-04-25T14:15:43.000Z</time><hdop>3.0</hdop><vdop>3.0</vdop><extensions><gom:speed>2.74</gom:speed></extensions></trkpt>
   <trkpt lat="59.0965920009" lon="29.9762970046"><ele>97.101</ele><time>2026-04-25T14:15:44.000Z</time><hdop>3.0</hdop><vdop>3.0</vdop><extensions><gom:speed>2.75</gom:speed></extensions></trkpt>
   <trkpt lat="59.0965657236" lon="29.976291221"><ele>97.089</ele><time>2026-04-25T14:15:45.000Z</time><hdop>3.0</hdop><vdop>3.0</vdop><extensions><gom:speed>2.93</gom:speed></extensions></trkpt>
   <trkpt lat="59.0965398235" lon="29.9762871139"><ele>97.104</ele><time>2026-04-25T14:15:46.000Z</time><hdop>3.0</hdop><vdop>3.0</vdop><extensions><gom:speed>2.642</gom:speed></extensions></trkpt>
   <trkpt lat="59.0965398235" lon="29.9762871139"><ele>97.113</ele><time>2026-04-25T14:15:46.000Z</time><hdop>3.0</hdop><vdop>3.0</vdop><extensions><gom:speed>2.642</gom:speed></extensions></trkpt>
   <trkpt lat="59.0965155579" lon="29.9762794864"><ele>97.115</ele><time>2026-04-25T14:15:47.000Z</time><hdop>3.0</hdop><vdop>3.0</vdop><extensions><gom:speed>2.665</gom:speed></extensions></trkpt>
   <trkpt lat="59.0964902446" lon="29.9762715236"><ele>97.123</ele><time>2026-04-25T14:15:48.000Z</time><hdop>3.0</hdop><vdop>3.0</vdop><extensions><gom:speed>2.79</gom:speed></extensions></trkpt>
   <trkpt lat="59.0964652246" lon="29.976259286"><ele>97.136</ele><time>2026-04-25T14:15:49.000Z</time><hdop>3.0</hdop><vdop>3.0</vdop><extensions><gom:speed>2.909</gom:speed></extensions></trkpt>
   <trkpt lat="59.0964403304" lon="29.9762478028"><ele>97.155</ele><time>2026-04-25T14:15:50.000Z</time><hdop>3.0</hdop><vdop>3.0</vdop><extensions><gom:speed>2.803</gom:speed></extensions></trkpt>
   <trkpt lat="59.0964160228" lon="29.9762384151"><ele>97.248</ele><time>2026-04-25T14:15:51.000Z</time><hdop>3.0</hdop><vdop>3.0</vdop><extensions><gom:speed>2.718</gom:speed></extensions></trkpt>
   <trkpt lat="59.0963902485" lon="29.9762298655"><ele>97.327</ele><time>2026-04-25T14:15:52.000Z</time><hdop>3.125</hdop><vdop>3.125</vdop><extensions><gom:speed>2.786</gom:speed></extensions></trkpt>
   <trkpt lat="59.0963655219" lon="29.9762216512"><ele>97.424</ele><time>2026-04-25T14:15:53.000Z</time><hdop>3.625</hdop><vdop>3.625</vdop><extensions><gom:speed>2.74</gom:speed></extensions></trkpt>
   <trkpt lat="59.0963408791" lon="29.976213437"><ele>97.486</ele><time>2026-04-25T14:15:54.000Z</time><hdop>3.687</hdop><vdop>3.687</vdop><extensions><gom:speed>2.816</gom:speed></extensions></trkpt>
   <trkpt lat="59.0963148952" lon="29.9762047198"><ele>97.438</ele><time>2026-04-25T14:15:55.000Z</time><hdop>3.937</hdop><vdop>3.937</vdop><extensions><gom:speed>2.727</gom:speed></extensions></trkpt>
   <trkpt lat="59.0962889532" lon="29.9761950806"><ele>97.364</ele><time>2026-04-25T14:15:56.000Z</time><hdop>4.375</hdop><vdop>4.375</vdop><extensions><gom:speed>2.775</gom:speed></extensions></trkpt>
   <trkpt lat="59.0962621311" lon="29.9761860282"><ele>97.262</ele><time>2026-04-25T14:15:57.000Z</time><hdop>4.812</hdop><vdop>4.812</vdop><extensions><gom:speed>2.871</gom:speed></extensions></trkpt>
   <trkpt lat="59.0962358538" lon="29.9761787359"><ele>97.172</ele><time>2026-04-25T14:15:58.000Z</time><hdop>4.75</hdop><vdop>4.75</vdop><extensions><gom:speed>2.874</gom:speed></extensions></trkpt>
   <trkpt lat="59.0962094927" lon="29.9761747126"><ele>97.12</ele><time>2026-04-25T14:15:59.000Z</time><hdop>3.937</hdop><vdop>3.937</vdop><extensions><gom:speed>2.85</gom:speed></extensions></trkpt>
   <trkpt lat="59.0961839698" lon="29.9761701864"><ele>97.05</ele><time>2026-04-25T14:16:00.000Z</time><hdop>3.25</hdop><vdop>3.25</vdop><extensions><gom:speed>2.782</gom:speed></extensions></trkpt>
   <trkpt lat="59.0961583212" lon="29.976166163"><ele>97.018</ele><time>2026-04-25T14:16:01.000Z</time><hdop>3.0</hdop><vdop>3.0</vdop><extensions><gom:speed>2.966</gom:speed></extensions></trkpt>
   <trkpt lat="59.0961326726" lon="29.9761702702"><ele>97.025</ele><time>2026-04-25T14:16:02.000Z</time><hdop>3.0</hdop><vdop>3.0</vdop><extensions><gom:speed>2.915</gom:speed></extensions></trkpt>
   <trkpt lat="59.0961078203" lon="29.9761650734"><ele>97.035</ele><time>2026-04-25T14:16:03.000Z</time><hdop>3.0</hdop><vdop>3.0</vdop><extensions><gom:speed>2.826</gom:speed></extensions></trkpt>
   <trkpt lat="59.0960828841" lon="29.9761562724"><ele>96.987</ele><time>2026-04-25T14:16:04.000Z</time><hdop>3.0</hdop><vdop>3.0</vdop><extensions><gom:speed>2.848</gom:speed></extensions></trkpt>
   <trkpt lat="59.0960582413" lon="29.9761420232"><ele>96.931</ele><time>2026-04-25T14:16:05.000Z</time><hdop>3.0</hdop><vdop>3.0</vdop><extensions><gom:speed>2.759</gom:speed></extensions></trkpt>
   <trkpt lat="59.0960317545" lon="29.9761273548"><ele>96.912</ele><time>2026-04-25T14:16:06.000Z</time><hdop>3.0</hdop><vdop>3.0</vdop><extensions><gom:speed>2.802</gom:speed></extensions></trkpt>
   <trkpt lat="59.0960048905" lon="29.9761105072"><ele>96.927</ele><time>2026-04-25T14:16:07.000Z</time><hdop>3.0</hdop><vdop>3.0</vdop><extensions><gom:speed>2.7</gom:speed></extensions></trkpt>
   <trkpt lat="59.0959793676" lon="29.9761017062"><ele>96.95</ele><time>2026-04-25T14:16:08.000Z</time><hdop>3.0</hdop><vdop>3.0</vdop><extensions><gom:speed>2.787</gom:speed></extensions></trkpt>
   <trkpt lat="59.0959529646" lon="29.9760923185"><ele>96.973</ele><time>2026-04-25T14:16:09.000Z</time><hdop>3.0</hdop><vdop>3.0</vdop><extensions><gom:speed>2.791</gom:speed></extensions></trkpt>
   <trkpt lat="59.0959255977" lon="29.9760863673"><ele>96.957</ele><time>2026-04-25T14:16:10.000Z</time><hdop>3.0</hdop><vdop>3.0</vdop><extensions><gom:speed>2.964</gom:speed></extensions></trkpt>
   <trkpt lat="59.0958979793" lon="29.9760799133"><ele>96.89</ele><time>2026-04-25T14:16:11.000Z</time><hdop>3.0</hdop><vdop>3.0</vdop><extensions><gom:speed>2.911</gom:speed></extensions></trkpt>
   <trkpt lat="59.0958718278" lon="29.9760729563"><ele>96.897</ele><time>2026-04-25T14:16:12.000Z</time><hdop>3.0</hdop><vdop>3.0</vdop><extensions><gom:speed>2.821</gom:speed></extensions></trkpt>
   <trkpt lat="59.0958468078" lon="29.9760680948"><ele>96.954</ele><time>2026-04-25T14:16:13.000Z</time><hdop>3.0</hdop><vdop>3.0</vdop><extensions><gom:speed>2.885</gom:speed></extensions></trkpt>
   <trkpt lat="59.0958222069" lon="29.9760643229"><ele>97.036</ele><time>2026-04-25T14:16:14.000Z</time><hdop>3.0</hdop><vdop>3.0</vdop><extensions><gom:speed>2.727</gom:speed></extensions></trkpt>
   <trkpt lat="59.0957978156" lon="29.9760539294"><ele>97.181</ele><time>2026-04-25T14:16:15.000Z</time><hdop>3.0</hdop><vdop>3.0</vdop><extensions><gom:speed>2.754</gom:speed></extensions></trkpt>
   <trkpt lat="59.0957698619" lon="29.9760461342"><ele>97.387</ele><time>2026-04-25T14:16:16.000Z</time><hdop>3.0</hdop><vdop>3.0</vdop><extensions><gom:speed>2.699</gom:speed></extensions></trkpt>
   <trkpt lat="59.0957435847" lon="29.9760414403"><ele>97.6</ele><time>2026-04-25T14:16:17.000Z</time><hdop>3.0</hdop><vdop>3.0</vdop><extensions><gom:speed>2.941</gom:speed></extensions></trkpt>
   <trkpt lat="59.0957149605" lon="29.9760387581"><ele>97.822</ele><time>2026-04-25T14:16:18.000Z</time><hdop>3.0</hdop><vdop>3.0</vdop><extensions><gom:speed>3.013</gom:speed></extensions></trkpt>
   <trkpt lat="59.0956861686" lon="29.9760323041"><ele>98.078</ele><time>2026-04-25T14:16:19.000Z</time><hdop>3.0</hdop><vdop>3.0</vdop><extensions><gom:speed>3.034</gom:speed></extensions></trkpt>
   <trkpt lat="59.0956583407" lon="29.9760245089"><ele>98.235</ele><time>2026-04-25T14:16:20.000Z</time><hdop>3.0</hdop><vdop>3.0</vdop><extensions><gom:speed>2.329</gom:speed></extensions></trkpt>
   <trkpt lat="59.0956335722" lon="29.9760180548"><ele>98.375</ele><time>2026-04-25T14:16:21.000Z</time><hdop>3.0</hdop><vdop>3.0</vdop><extensions><gom:speed>2.404</gom:speed></extensions></trkpt>
   <trkpt lat="59.0956078816" lon="29.9760061525"><ele>98.489</ele><time>2026-04-25T14:16:22.000Z</time><hdop>3.0</hdop><vdop>3.0</vdop><extensions><gom:speed>2.872</gom:speed></extensions></trkpt>
   <trkpt lat="59.0955811015" lon="29.9759965133"><ele>98.64</ele><time>2026-04-25T14:16:23.000Z</time><hdop>3.0</hdop><vdop>3.0</vdop><extensions><gom:speed>2.663</gom:speed></extensions></trkpt>
   <trkpt lat="59.0955564168" lon="29.9759873771"><ele>98.784</ele><time>2026-04-25T14:16:24.000Z</time><hdop>3.0</hdop><vdop>3.0</vdop><extensions><gom:speed>2.71</gom:speed></extensions></trkpt>
   <trkpt lat="59.0955313549" lon="29.9759774864"><ele>98.871</ele><time>2026-04-25T14:16:25.000Z</time><hdop>3.0</hdop><vdop>3.0</vdop><extensions><gom:speed>2.764</gom:speed></extensions></trkpt>
   <trkpt lat="59.0955065863" lon="29.9759669252"><ele>98.953</ele><time>2026-04-25T14:16:26.000Z</time><hdop>3.0</hdop><vdop>3.0</vdop><extensions><gom:speed>2.854</gom:speed></extensions></trkpt>
   <trkpt lat="59.0955065863" lon="29.9759669252"><ele>99.002</ele><time>2026-04-25T14:16:26.000Z</time><hdop>3.0</hdop><vdop>3.0</vdop><extensions><gom:speed>2.854</gom:speed></extensions></trkpt>
   <trkpt lat="59.09547989" lon="29.9759666738"><ele>99.085</ele><time>2026-04-25T14:16:27.000Z</time><hdop>3.0</hdop><vdop>3.0</vdop><extensions><gom:speed>2.747</gom:speed></extensions></trkpt>
   <trkpt lat="59.0954523973" lon="29.9759719544"><ele>99.189</ele><time>2026-04-25T14:16:28.000Z</time><hdop>3.0</hdop><vdop>3.0</vdop><extensions><gom:speed>2.707</gom:speed></extensions></trkpt>
   <trkpt lat="59.0954255333" lon="29.9759748042"><ele>99.269</ele><time>2026-04-25T14:16:29.000Z</time><hdop>3.0</hdop><vdop>3.0</vdop><extensions><gom:speed>2.86</gom:speed></extensions></trkpt>
   <trkpt lat="59.0953984179" lon="29.9759754748"><ele>99.351</ele><time>2026-04-25T14:16:30.000Z</time><hdop>3.0</hdop><vdop>3.0</vdop><extensions><gom:speed>2.88</gom:speed></extensions></trkpt>
   <trkpt lat="59.0953714282" lon="29.9759789113"><ele>99.47</ele><time>2026-04-25T14:16:31.000Z</time><hdop>3.0</hdop><vdop>3.0</vdop><extensions><gom:speed>2.92</gom:speed></extensions></trkpt>
   <trkpt lat="59.095345109" lon="29.9759833537"><ele>99.578</ele><time>2026-04-25T14:16:32.000Z</time><hdop>3.0</hdop><vdop>3.0</vdop><extensions><gom:speed>2.741</gom:speed></extensions></trkpt>
   <trkpt lat="59.0953197956" lon="29.975988802"><ele>99.576</ele><time>2026-04-25T14:16:33.000Z</time><hdop>3.562</hdop><vdop>3.562</vdop><extensions><gom:speed>2.699</gom:speed></extensions></trkpt>
   <trkpt lat="59.0952946918" lon="29.9759893049"><ele>99.519</ele><time>2026-04-25T14:16:34.000Z</time><hdop>3.625</hdop><vdop>3.625</vdop><extensions><gom:speed>2.703</gom:speed></extensions></trkpt>
   <trkpt lat="59.0952674087" lon="29.975990646"><ele>99.444</ele><time>2026-04-25T14:16:35.000Z</time><hdop>3.75</hdop><vdop>3.75</vdop><extensions><gom:speed>3.041</gom:speed></extensions></trkpt>
   <trkpt lat="59.0952376949" lon="29.9759923224"><ele>99.339</ele><time>2026-04-25T14:16:36.000Z</time><hdop>3.437</hdop><vdop>3.437</vdop><extensions><gom:speed>2.931</gom:speed></extensions></trkpt>
   <trkpt lat="59.0952106632" lon="29.9759924062"><ele>99.309</ele><time>2026-04-25T14:16:37.000Z</time><hdop>3.312</hdop><vdop>3.312</vdop><extensions><gom:speed>2.902</gom:speed></extensions></trkpt>
   <trkpt lat="59.0951838831" lon="29.9759935797"><ele>99.253</ele><time>2026-04-25T14:16:38.000Z</time><hdop>3.0</hdop><vdop>3.0</vdop><extensions><gom:speed>2.843</gom:speed></extensions></trkpt>
   <trkpt lat="59.0951566419" lon="29.9759933282"><ele>99.222</ele><time>2026-04-25T14:16:39.000Z</time><hdop>3.0</hdop><vdop>3.0</vdop><extensions><gom:speed>2.826</gom:speed></extensions></trkpt>
   <trkpt lat="59.0951309094" lon="29.9759992794"><ele>99.262</ele><time>2026-04-25T14:16:40.000Z</time><hdop>3.0</hdop><vdop>3.0</vdop><extensions><gom:speed>2.872</gom:speed></extensions></trkpt>
   <trkpt lat="59.0951022433" lon="29.9760035541"><ele>99.275</ele><time>2026-04-25T14:16:41.000Z</time><hdop>3.0</hdop><vdop>3.0</vdop><extensions><gom:speed>3.119</gom:speed></extensions></trkpt>
   <trkpt lat="59.095074583" lon="29.9760083318"><ele>99.328</ele><time>2026-04-25T14:16:42.000Z</time><hdop>3.0</hdop><vdop>3.0</vdop><extensions><gom:speed>3.022</gom:speed></extensions></trkpt>
   <trkpt lat="59.0950450788" lon="29.9760125228"><ele>99.347</ele><time>2026-04-25T14:16:43.000Z</time><hdop>3.0</hdop><vdop>3.0</vdop><extensions><gom:speed>3.07</gom:speed></extensions></trkpt>
   <trkpt lat="59.0950169575" lon="29.9760121037"><ele>99.334</ele><time>2026-04-25T14:16:44.000Z</time><hdop>3.0</hdop><vdop>3.0</vdop><extensions><gom:speed>3.015</gom:speed></extensions></trkpt>
   <trkpt lat="59.0949885847" lon="29.9760083318"><ele>99.343</ele><time>2026-04-25T14:16:45.000Z</time><hdop>3.0</hdop><vdop>3.0</vdop><extensions><gom:speed>2.93</gom:speed></extensions></trkpt>
   <trkpt lat="59.0949615531" lon="29.9760075774"><ele>99.393</ele><time>2026-04-25T14:16:46.000Z</time><hdop>3.0</hdop><vdop>3.0</vdop><extensions><gom:speed>3.089</gom:speed></extensions></trkpt>
   <trkpt lat="59.094932887" lon="29.9760093376"><ele>99.453</ele><time>2026-04-25T14:16:47.000Z</time><hdop>3.0</hdop><vdop>3.0</vdop><extensions><gom:speed>3.014</gom:speed></extensions></trkpt>
   <trkpt lat="59.094932887" lon="29.9760093376"><ele>99.489</ele><time>2026-04-25T14:16:47.000Z</time><hdop>3.0</hdop><vdop>3.0</vdop><extensions><gom:speed>3.014</gom:speed></extensions></trkpt>
   <trkpt lat="59.0949058972" lon="29.9760125228"><ele>99.557</ele><time>2026-04-25T14:16:48.000Z</time><hdop>3.0</hdop><vdop>3.0</vdop><extensions><gom:speed>2.88</gom:speed></extensions></trkpt>
   <trkpt lat="59.0948792847" lon="29.9760103435"><ele>99.583</ele><time>2026-04-25T14:16:49.000Z</time><hdop>3.0</hdop><vdop>3.0</vdop><extensions><gom:speed>2.821</gom:speed></extensions></trkpt>
   <trkpt lat="59.094852756" lon="29.9760112655"><ele>99.617</ele><time>2026-04-25T14:16:50.000Z</time><hdop>3.0</hdop><vdop>3.0</vdop><extensions><gom:speed>3.063</gom:speed></extensions></trkpt>
   <trkpt lat="59.0948251376" lon="29.9760077451"><ele>99.616</ele><time>2026-04-25T14:16:51.000Z</time><hdop>3.0</hdop><vdop>3.0</vdop><extensions><gom:speed>3.056</gom:speed></extensions></trkpt>
   <trkpt lat="59.0947997404" lon="29.9760043923"><ele>99.592</ele><time>2026-04-25T14:16:52.000Z</time><hdop>3.0</hdop><vdop>3.0</vdop><extensions><gom:speed>2.962</gom:speed></extensions></trkpt>
   <trkpt lat="59.094773547" lon="29.975999447"><ele>99.602</ele><time>2026-04-25T14:16:53.000Z</time><hdop>3.0</hdop><vdop>3.0</vdop><extensions><gom:speed>2.861</gom:speed></extensions></trkpt>
   <trkpt lat="59.0947474793" lon="29.9759938311"><ele>99.614</ele><time>2026-04-25T14:16:54.000Z</time><hdop>3.0</hdop><vdop>3.0</vdop><extensions><gom:speed>2.983</gom:speed></extensions></trkpt>
   <trkpt lat="59.0947214954" lon="29.9759934958"><ele>99.679</ele><time>2026-04-25T14:16:55.000Z</time><hdop>3.0</hdop><vdop>3.0</vdop><extensions><gom:speed>2.923</gom:speed></extensions></trkpt>
   <trkpt lat="59.0946954277" lon="29.9759979383"><ele>99.722</ele><time>2026-04-25T14:16:56.000Z</time><hdop>3.0</hdop><vdop>3.0</vdop><extensions><gom:speed>2.881</gom:speed></extensions></trkpt>
   <trkpt lat="59.0946685637" lon="29.9759992794"><ele>99.761</ele><time>2026-04-25T14:16:57.000Z</time><hdop>3.0</hdop><vdop>3.0</vdop><extensions><gom:speed>2.989</gom:speed></extensions></trkpt>
   <trkpt lat="59.0946423702" lon="29.9760008719"><ele>99.782</ele><time>2026-04-25T14:16:58.000Z</time><hdop>3.0</hdop><vdop>3.0</vdop><extensions><gom:speed>2.757</gom:speed></extensions></trkpt>
   <trkpt lat="59.0946162606" lon="29.9760011234"><ele>99.737</ele><time>2026-04-25T14:16:59.000Z</time><hdop>3.0</hdop><vdop>3.0</vdop><extensions><gom:speed>2.788</gom:speed></extensions></trkpt>
   <trkpt lat="59.0945906539" lon="29.9760004528"><ele>99.78</ele><time>2026-04-25T14:17:00.000Z</time><hdop>3.0</hdop><vdop>3.0</vdop><extensions><gom:speed>2.79</gom:speed></extensions></trkpt>
   <trkpt lat="59.0945650052" lon="29.9759974353"><ele>99.824</ele><time>2026-04-25T14:17:01.000Z</time><hdop>3.0</hdop><vdop>3.0</vdop><extensions><gom:speed>2.837</gom:speed></extensions></trkpt>
   <trkpt lat="59.0945390213" lon="29.975993412"><ele>99.912</ele><time>2026-04-25T14:17:02.000Z</time><hdop>3.0</hdop><vdop>3.0</vdop><extensions><gom:speed>2.894</gom:speed></extensions></trkpt>
   <trkpt lat="59.0945129117" lon="29.9759914842"><ele>99.974</ele><time>2026-04-25T14:17:03.000Z</time><hdop>3.0</hdop><vdop>3.0</vdop><extensions><gom:speed>2.979</gom:speed></extensions></trkpt>
   <trkpt lat="59.0944858382" lon="29.9759887182"><ele>100.024</ele><time>2026-04-25T14:17:04.000Z</time><hdop>3.0</hdop><vdop>3.0</vdop><extensions><gom:speed>2.981</gom:speed></extensions></trkpt>
   <trkpt lat="59.0944593514" lon="29.9759857007"><ele>100.086</ele><time>2026-04-25T14:17:05.000Z</time><hdop>3.0</hdop><vdop>3.0</vdop><extensions><gom:speed>2.982</gom:speed></extensions></trkpt>
   <trkpt lat="59.0944326131" lon="29.9759859521"><ele>100.155</ele><time>2026-04-25T14:17:06.000Z</time><hdop>3.0</hdop><vdop>3.0</vdop><extensions><gom:speed>2.971</gom:speed></extensions></trkpt>
   <trkpt lat="59.0944062939" lon="29.975984611"><ele>100.218</ele><time>2026-04-25T14:17:07.000Z</time><hdop>3.0</hdop><vdop>3.0</vdop><extensions><gom:speed>2.815</gom:speed></extensions></trkpt>
   <trkpt lat="59.0944062939" lon="29.975984611"><ele>100.256</ele><time>2026-04-25T14:17:07.000Z</time><hdop>3.0</hdop><vdop>3.0</vdop><extensions><gom:speed>2.815</gom:speed></extensions></trkpt>
   <trkpt lat="59.0943807291" lon="29.9759854492"><ele>100.24</ele><time>2026-04-25T14:17:08.000Z</time><hdop>3.0</hdop><vdop>3.0</vdop><extensions><gom:speed>2.86</gom:speed></extensions></trkpt>
   <trkpt lat="59.0943549548" lon="29.9759858683"><ele>100.198</ele><time>2026-04-25T14:17:09.000Z</time><hdop>3.0</hdop><vdop>3.0</vdop><extensions><gom:speed>2.878</gom:speed></extensions></trkpt>
   <trkpt lat="59.094329348" lon="29.9759819288"><ele>100.155</ele><time>2026-04-25T14:17:10.000Z</time><hdop>3.0</hdop><vdop>3.0</vdop><extensions><gom:speed>2.934</gom:speed></extensions></trkpt>
   <trkpt lat="59.0943025679" lon="29.9759787437"><ele>100.192</ele><time>2026-04-25T14:17:11.000Z</time><hdop>3.0</hdop><vdop>3.0</vdop><extensions><gom:speed>3.101</gom:speed></extensions></trkpt>
   <trkpt lat="59.0942736084" lon="29.9759789113"><ele>100.202</ele><time>2026-04-25T14:17:12.000Z</time><hdop>3.0</hdop><vdop>3.0</vdop><extensions><gom:speed>3.0</gom:speed></extensions></trkpt>
   <trkpt lat="59.0942461576" lon="29.9759763129"><ele>100.154</ele><time>2026-04-25T14:17:13.000Z</time><hdop>3.0</hdop><vdop>3.0</vdop><extensions><gom:speed>2.977</gom:speed></extensions></trkpt>
   <trkpt lat="59.0942194613" lon="29.9759712838"><ele>100.029</ele><time>2026-04-25T14:17:14.000Z</time><hdop>3.0</hdop><vdop>3.0</vdop><extensions><gom:speed>2.943</gom:speed></extensions></trkpt>
   <trkpt lat="59.0941920525" lon="29.9759675958"><ele>99.946</ele><time>2026-04-25T14:17:15.000Z</time><hdop>3.0</hdop><vdop>3.0</vdop><extensions><gom:speed>2.979</gom:speed></extensions></trkpt>
   <trkpt lat="59.0941638474" lon="29.9759665061"><ele>99.916</ele><time>2026-04-25T14:17:16.000Z</time><hdop>3.0</hdop><vdop>3.0</vdop><extensions><gom:speed>3.047</gom:speed></extensions></trkpt>
   <trkpt lat="59.0941356842" lon="29.9759647459"><ele>99.852</ele><time>2026-04-25T14:17:17.000Z</time><hdop>3.0</hdop><vdop>3.0</vdop><extensions><gom:speed>3.052</gom:speed></extensions></trkpt>
   <trkpt lat="59.0941080239" lon="29.9759629019"><ele>99.804</ele><time>2026-04-25T14:17:18.000Z</time><hdop>3.0</hdop><vdop>3.0</vdop><extensions><gom:speed>3.077</gom:speed></extensions></trkpt>
   <trkpt lat="59.094079735" lon="29.9759592139"><ele>99.733</ele><time>2026-04-25T14:17:19.000Z</time><hdop>3.0</hdop><vdop>3.0</vdop><extensions><gom:speed>3.061</gom:speed></extensions></trkpt>
   <trkpt lat="59.0940521585" lon="29.9759537656"><ele>99.583</ele><time>2026-04-25T14:17:20.000Z</time><hdop>3.0</hdop><vdop>3.0</vdop><extensions><gom:speed>3.064</gom:speed></extensions></trkpt>
   <trkpt lat="59.0940232828" lon="29.9759498261"><ele>99.461</ele><time>2026-04-25T14:17:21.000Z</time><hdop>3.0</hdop><vdop>3.0</vdop><extensions><gom:speed>3.087</gom:speed></extensions></trkpt>
   <trkpt lat="59.0939943234" lon="29.9759470601"><ele>99.348</ele><time>2026-04-25T14:17:22.000Z</time><hdop>3.0</hdop><vdop>3.0</vdop><extensions><gom:speed>3.059</gom:speed></extensions></trkpt>
   <trkpt lat="59.093966244" lon="29.9759435397"><ele>99.256</ele><time>2026-04-25T14:17:23.000Z</time><hdop>3.0</hdop><vdop>3.0</vdop><extensions><gom:speed>3.036</gom:speed></extensions></trkpt>
   <trkpt lat="59.093938458" lon="29.9759403546"><ele>99.214</ele><time>2026-04-25T14:17:24.000Z</time><hdop>3.0</hdop><vdop>3.0</vdop><extensions><gom:speed>3.075</gom:speed></extensions></trkpt>
   <trkpt lat="59.0939100433" lon="29.9759322241"><ele>99.152</ele><time>2026-04-25T14:17:25.000Z</time><hdop>3.0</hdop><vdop>3.0</vdop><extensions><gom:speed>3.083</gom:speed></extensions></trkpt>
   <trkpt lat="59.0938813353" lon="29.9759272788"><ele>99.085</ele><time>2026-04-25T14:17:26.000Z</time><hdop>3.0</hdop><vdop>3.0</vdop><extensions><gom:speed>3.121</gom:speed></extensions></trkpt>
   <trkpt lat="59.0938535912" lon="29.9759240099"><ele>99.076</ele><time>2026-04-25T14:17:27.000Z</time><hdop>3.0</hdop><vdop>3.0</vdop><extensions><gom:speed>3.068</gom:speed></extensions></trkpt>
   <trkpt lat="59.0938267691" lon="29.975920238"><ele>99.144</ele><time>2026-04-25T14:17:28.000Z</time><hdop>3.0</hdop><vdop>3.0</vdop><extensions><gom:speed>2.926</gom:speed></extensions></trkpt>
   <trkpt lat="59.0938009529" lon="29.9759129458"><ele>99.196</ele><time>2026-04-25T14:17:29.000Z</time><hdop>3.0</hdop><vdop>3.0</vdop><extensions><gom:speed>3.032</gom:speed></extensions></trkpt>
   <trkpt lat="59.0937748851" lon="29.9759015464"><ele>99.196</ele><time>2026-04-25T14:17:30.000Z</time><hdop>3.0</hdop><vdop>3.0</vdop><extensions><gom:speed>3.083</gom:speed></extensions></trkpt>
   <trkpt lat="59.093748105" lon="29.9758923263"><ele>99.212</ele><time>2026-04-25T14:17:31.000Z</time><hdop>3.0</hdop><vdop>3.0</vdop><extensions><gom:speed>2.974</gom:speed></extensions></trkpt>
   <trkpt lat="59.0937205704" lon="29.9758888897"><ele>99.228</ele><time>2026-04-25T14:17:32.000Z</time><hdop>3.0</hdop><vdop>3.0</vdop><extensions><gom:speed>2.98</gom:speed></extensions></trkpt>
   <trkpt lat="59.093694377" lon="29.9758878"><ele>99.261</ele><time>2026-04-25T14:17:33.000Z</time><hdop>3.0</hdop><vdop>3.0</vdop><extensions><gom:speed>2.951</gom:speed></extensions></trkpt>
   <trkpt lat="59.0936669262" lon="29.9758894764"><ele>99.269</ele><time>2026-04-25T14:17:34.000Z</time><hdop>3.0</hdop><vdop>3.0</vdop><extensions><gom:speed>3.005</gom:speed></extensions></trkpt>
   <trkpt lat="59.093638302" lon="29.975890147"><ele>99.256</ele><time>2026-04-25T14:17:35.000Z</time><hdop>3.0</hdop><vdop>3.0</vdop><extensions><gom:speed>3.006</gom:speed></extensions></trkpt>
   <trkpt lat="59.0936101807" lon="29.9758878839"><ele>99.166</ele><time>2026-04-25T14:17:36.000Z</time><hdop>3.0</hdop><vdop>3.0</vdop><extensions><gom:speed>3.012</gom:speed></extensions></trkpt>
   <trkpt lat="59.0935829396" lon="29.9758818489"><ele>99.085</ele><time>2026-04-25T14:17:37.000Z</time><hdop>3.0</hdop><vdop>3.0</vdop><extensions><gom:speed>2.877</gom:speed></extensions></trkpt>
   <trkpt lat="59.0935558241" lon="29.9758774065"><ele>99.026</ele><time>2026-04-25T14:17:38.000Z</time><hdop>3.0</hdop><vdop>3.0</vdop><extensions><gom:speed>3.124</gom:speed></extensions></trkpt>
   <trkpt lat="59.0935278705" lon="29.9758710362"><ele>98.978</ele><time>2026-04-25T14:17:39.000Z</time><hdop>3.0</hdop><vdop>3.0</vdop><extensions><gom:speed>3.041</gom:speed></extensions></trkpt>
   <trkpt lat="59.0935013836" lon="29.9758688569"><ele>98.909</ele><time>2026-04-25T14:17:40.000Z</time><hdop>3.0</hdop><vdop>3.0</vdop><extensions><gom:speed>2.923</gom:speed></extensions></trkpt>
   <trkpt lat="59.0934732204" lon="29.9758650851"><ele>98.858</ele><time>2026-04-25T14:17:41.000Z</time><hdop>3.0</hdop><vdop>3.0</vdop><extensions><gom:speed>3.083</gom:speed></extensions></trkpt>
   <trkpt lat="59.0934483262" lon="29.9758589663"><ele>98.831</ele><time>2026-04-25T14:17:42.000Z</time><hdop>3.0</hdop><vdop>3.0</vdop><extensions><gom:speed>2.8</gom:speed></extensions></trkpt>
   <trkpt lat="59.0934234739" lon="29.9758593854"><ele>98.754</ele><time>2026-04-25T14:17:43.000Z</time><hdop>3.0</hdop><vdop>3.0</vdop><extensions><gom:speed>2.754</gom:speed></extensions></trkpt>
   <trkpt lat="59.0933985377" lon="29.9758587148"><ele>98.635</ele><time>2026-04-25T14:17:44.000Z</time><hdop>3.0</hdop><vdop>3.0</vdop><extensions><gom:speed>2.828</gom:speed></extensions></trkpt>
   <trkpt lat="59.0933725538" lon="29.9758590501"><ele>98.513</ele><time>2026-04-25T14:17:45.000Z</time><hdop>3.0</hdop><vdop>3.0</vdop><extensions><gom:speed>2.797</gom:speed></extensions></trkpt>
   <trkpt lat="59.0933474919" lon="29.9758622352"><ele>98.413</ele><time>2026-04-25T14:17:46.000Z</time><hdop>3.0</hdop><vdop>3.0</vdop><extensions><gom:speed>2.62</gom:speed></extensions></trkpt>
   <trkpt lat="59.0933229329" lon="29.9758625705"><ele>98.283</ele><time>2026-04-25T14:17:47.000Z</time><hdop>3.0</hdop><vdop>3.0</vdop><extensions><gom:speed>2.756</gom:speed></extensions></trkpt>
   <trkpt lat="59.0933229329" lon="29.9758625705"><ele>98.205</ele><time>2026-04-25T14:17:47.000Z</time><hdop>3.0</hdop><vdop>3.0</vdop><extensions><gom:speed>2.756</gom:speed></extensions></trkpt>
   <trkpt lat="59.0932981225" lon="29.9758606427"><ele>98.132</ele><time>2026-04-25T14:17:48.000Z</time><hdop>3.0</hdop><vdop>3.0</vdop><extensions><gom:speed>2.662</gom:speed></extensions></trkpt>
   <trkpt lat="59.0932728511" lon="29.975856787"><ele>98.057</ele><time>2026-04-25T14:17:49.000Z</time><hdop>3.0</hdop><vdop>3.0</vdop><extensions><gom:speed>2.858</gom:speed></extensions></trkpt>
   <trkpt lat="59.0932472862" lon="29.9758587148"><ele>97.994</ele><time>2026-04-25T14:17:50.000Z</time><hdop>3.0</hdop><vdop>3.0</vdop><extensions><gom:speed>2.54</gom:speed></extensions></trkpt>
   <trkpt lat="59.0932239846" lon="29.9758670129"><ele>97.928</ele><time>2026-04-25T14:17:51.000Z</time><hdop>3.0</hdop><vdop>3.0</vdop><extensions><gom:speed>2.607</gom:speed></extensions></trkpt>
   <trkpt lat="59.0932003895" lon="29.9758769874"><ele>97.857</ele><time>2026-04-25T14:17:52.000Z</time><hdop>3.0</hdop><vdop>3.0</vdop><extensions><gom:speed>2.655</gom:speed></extensions></trkpt>
   <trkpt lat="59.0931786804" lon="29.9758934159"><ele>97.753</ele><time>2026-04-25T14:17:53.000Z</time><hdop>3.687</hdop><vdop>3.687</vdop><extensions><gom:speed>2.743</gom:speed></extensions></trkpt>
   <trkpt lat="59.0931601564" lon="29.9759240099"><ele>97.676</ele><time>2026-04-25T14:17:54.000Z</time><hdop>4.5</hdop><vdop>4.5</vdop><extensions><gom:speed>2.84</gom:speed></extensions></trkpt>
   <trkpt lat="59.0931454461" lon="29.9759669252"><ele>97.591</ele><time>2026-04-25T14:17:55.000Z</time><hdop>4.5</hdop><vdop>4.5</vdop><extensions><gom:speed>2.991</gom:speed></extensions></trkpt>
   <trkpt lat="59.0931354717" lon="29.9760167975"><ele>97.512</ele><time>2026-04-25T14:17:56.000Z</time><hdop>4.187</hdop><vdop>4.187</vdop><extensions><gom:speed>3.029</gom:speed></extensions></trkpt>
   <trkpt lat="59.0931281794" lon="29.9760678433"><ele>97.445</ele><time>2026-04-25T14:17:57.000Z</time><hdop>3.625</hdop><vdop>3.625</vdop><extensions><gom:speed>3.035</gom:speed></extensions></trkpt>
   <trkpt lat="59.0931239885" lon="29.9761197273"><ele>97.397</ele><time>2026-04-25T14:17:58.000Z</time><hdop>3.187</hdop><vdop>3.187</vdop><extensions><gom:speed>3.011</gom:speed></extensions></trkpt>
   <trkpt lat="59.0931216415" lon="29.976171276"><ele>97.413</ele><time>2026-04-25T14:17:59.000Z</time><hdop>3.0</hdop><vdop>3.0</vdop><extensions><gom:speed>2.951</gom:speed></extensions></trkpt>
   <trkpt lat="59.093120049" lon="29.976221316"><ele>97.468</ele><time>2026-04-25T14:18:00.000Z</time><hdop>3.0</hdop><vdop>3.0</vdop><extensions><gom:speed>2.838</gom:speed></extensions></trkpt>
   <trkpt lat="59.0931161933" lon="29.9762712721"><ele>97.5</ele><time>2026-04-25T14:18:01.000Z</time><hdop>3.0</hdop><vdop>3.0</vdop><extensions><gom:speed>3.01</gom:speed></extensions></trkpt>
   <trkpt lat="59.0931121281" lon="29.9763233237"><ele>97.531</ele><time>2026-04-25T14:18:02.000Z</time><hdop>3.0</hdop><vdop>3.0</vdop><extensions><gom:speed>2.935</gom:speed></extensions></trkpt>
   <trkpt lat="59.0931083143" lon="29.9763747048"><ele>97.553</ele><time>2026-04-25T14:18:03.000Z</time><hdop>3.0</hdop><vdop>3.0</vdop><extensions><gom:speed>2.873</gom:speed></extensions></trkpt>
   <trkpt lat="59.0931051292" lon="29.9764225655"><ele>97.586</ele><time>2026-04-25T14:18:04.000Z</time><hdop>3.0</hdop><vdop>3.0</vdop><extensions><gom:speed>2.837</gom:speed></extensions></trkpt>
   <trkpt lat="59.0931025727" lon="29.9764710129"><ele>97.597</ele><time>2026-04-25T14:18:05.000Z</time><hdop>3.0</hdop><vdop>3.0</vdop><extensions><gom:speed>2.77</gom:speed></extensions></trkpt>
   <trkpt lat="59.0930986751" lon="29.9765186221"><ele>97.618</ele><time>2026-04-25T14:18:06.000Z</time><hdop>3.0</hdop><vdop>3.0</vdop><extensions><gom:speed>2.811</gom:speed></extensions></trkpt>
   <trkpt lat="59.0930940651" lon="29.9765664827"><ele>97.592</ele><time>2026-04-25T14:18:07.000Z</time><hdop>3.0</hdop><vdop>3.0</vdop><extensions><gom:speed>2.856</gom:speed></extensions></trkpt>
   <trkpt lat="59.0930940651" lon="29.9765664827"><ele>97.577</ele><time>2026-04-25T14:18:07.000Z</time><hdop>3.0</hdop><vdop>3.0</vdop><extensions><gom:speed>2.856</gom:speed></extensions></trkpt>
   <trkpt lat="59.0930890359" lon="29.9766176124"><ele>97.581</ele><time>2026-04-25T14:18:08.000Z</time><hdop>3.0</hdop><vdop>3.0</vdop><extensions><gom:speed>2.879</gom:speed></extensions></trkpt>
   <trkpt lat="59.0930835039" lon="29.9766669818"><ele>97.559</ele><time>2026-04-25T14:18:09.000Z</time><hdop>3.0</hdop><vdop>3.0</vdop><extensions><gom:speed>2.866</gom:speed></extensions></trkpt>
   <trkpt lat="59.0930762954" lon="29.9767123279"><ele>97.499</ele><time>2026-04-25T14:18:10.000Z</time><hdop>3.0</hdop><vdop>3.0</vdop><extensions><gom:speed>2.814</gom:speed></extensions></trkpt>
   <trkpt lat="59.0930693804" lon="29.9767591827"><ele>97.476</ele><time>2026-04-25T14:18:11.000Z</time><hdop>3.0</hdop><vdop>3.0</vdop><extensions><gom:speed>2.807</gom:speed></extensions></trkpt>
   <trkpt lat="59.0930626748" lon="29.9768069595"><ele>97.468</ele><time>2026-04-25T14:18:12.000Z</time><hdop>3.0</hdop><vdop>3.0</vdop><extensions><gom:speed>2.896</gom:speed></extensions></trkpt>
   <trkpt lat="59.0930553826" lon="29.9768580892"><ele>97.441</ele><time>2026-04-25T14:18:13.000Z</time><hdop>3.0</hdop><vdop>3.0</vdop><extensions><gom:speed>3.022</gom:speed></extensions></trkpt>
   <trkpt lat="59.093051946" lon="29.9769116495"><ele>97.389</ele><time>2026-04-25T14:18:14.000Z</time><hdop>3.0</hdop><vdop>3.0</vdop><extensions><gom:speed>2.985</gom:speed></extensions></trkpt>
   <trkpt lat="59.0930498086" lon="29.9769611027"><ele>97.449</ele><time>2026-04-25T14:18:15.000Z</time><hdop>3.0</hdop><vdop>3.0</vdop><extensions><gom:speed>2.859</gom:speed></extensions></trkpt>
   <trkpt lat="59.093047797" lon="29.9770095501"><ele>97.517</ele><time>2026-04-25T14:18:16.000Z</time><hdop>3.0</hdop><vdop>3.0</vdop><extensions><gom:speed>2.778</gom:speed></extensions></trkpt>
   <trkpt lat="59.0930464978" lon="29.9770572432"><ele>97.585</ele><time>2026-04-25T14:18:17.000Z</time><hdop>3.0</hdop><vdop>3.0</vdop><extensions><gom:speed>2.864</gom:speed></extensions></trkpt>
   <trkpt lat="59.0930446537" lon="29.9771066126"><ele>97.737</ele><time>2026-04-25T14:18:18.000Z</time><hdop>3.0</hdop><vdop>3.0</vdop><extensions><gom:speed>2.749</gom:speed></extensions></trkpt>
   <trkpt lat="59.0930409657" lon="29.9771563173"><ele>97.868</ele><time>2026-04-25T14:18:19.000Z</time><hdop>3.0</hdop><vdop>3.0</vdop><extensions><gom:speed>2.912</gom:speed></extensions></trkpt>
   <trkpt lat="59.0930340506" lon="29.9772071954"><ele>97.906</ele><time>2026-04-25T14:18:20.000Z</time><hdop>3.0</hdop><vdop>3.0</vdop><extensions><gom:speed>2.816</gom:speed></extensions></trkpt>
   <trkpt lat="59.0930295663" lon="29.9772576545"><ele>97.871</ele><time>2026-04-25T14:18:21.000Z</time><hdop>3.0</hdop><vdop>3.0</vdop><extensions><gom:speed>2.916</gom:speed></extensions></trkpt>
   <trkpt lat="59.0930267584" lon="29.9773069401"><ele>97.83</ele><time>2026-04-25T14:18:22.000Z</time><hdop>3.0</hdop><vdop>3.0</vdop><extensions><gom:speed>2.828</gom:speed></extensions></trkpt>
   <trkpt lat="59.0930235733" lon="29.9773570639"><ele>97.746</ele><time>2026-04-25T14:18:23.000Z</time><hdop>3.0</hdop><vdop>3.0</vdop><extensions><gom:speed>2.939</gom:speed></extensions></trkpt>
   <trkpt lat="59.0930189632" lon="29.97740702"><ele>97.612</ele><time>2026-04-25T14:18:24.000Z</time><hdop>3.0</hdop><vdop>3.0</vdop><extensions><gom:speed>2.915</gom:speed></extensions></trkpt>
   <trkpt lat="59.0930128025" lon="29.9774581496"><ele>97.416</ele><time>2026-04-25T14:18:25.000Z</time><hdop>3.0</hdop><vdop>3.0</vdop><extensions><gom:speed>2.81</gom:speed></extensions></trkpt>
   <trkpt lat="59.0930071028" lon="29.9775087763"><ele>97.24</ele><time>2026-04-25T14:18:26.000Z</time><hdop>3.0</hdop><vdop>3.0</vdop><extensions><gom:speed>2.872</gom:speed></extensions></trkpt>
   <trkpt lat="59.0930008583" lon="29.9775582295"><ele>97.118</ele><time>2026-04-25T14:18:27.000Z</time><hdop>3.0</hdop><vdop>3.0</vdop><extensions><gom:speed>2.75</gom:speed></extensions></trkpt>
   <trkpt lat="59.0929949491" lon="29.9776060902"><ele>96.991</ele><time>2026-04-25T14:18:28.000Z</time><hdop>3.0</hdop><vdop>3.0</vdop><extensions><gom:speed>2.753</gom:speed></extensions></trkpt>
   <trkpt lat="59.092989878" lon="29.9776550405"><ele>96.921</ele><time>2026-04-25T14:18:29.000Z</time><hdop>3.0</hdop><vdop>3.0</vdop><extensions><gom:speed>2.769</gom:speed></extensions></trkpt>
   <trkpt lat="59.0929839688" lon="29.9777024821"><ele>96.9</ele><time>2026-04-25T14:18:30.000Z</time><hdop>3.0</hdop><vdop>3.0</vdop><extensions><gom:speed>2.672</gom:speed></extensions></trkpt>
   <trkpt lat="59.0929791073" lon="29.9777498398"><ele>96.902</ele><time>2026-04-25T14:18:31.000Z</time><hdop>3.0</hdop><vdop>3.0</vdop><extensions><gom:speed>2.627</gom:speed></extensions></trkpt>
   <trkpt lat="59.092975503" lon="29.9777992092"><ele>96.831</ele><time>2026-04-25T14:18:32.000Z</time><hdop>3.0</hdop><vdop>3.0</vdop><extensions><gom:speed>2.806</gom:speed></extensions></trkpt>
   <trkpt lat="59.0929710606" lon="29.977845645"><ele>96.752</ele><time>2026-04-25T14:18:33.000Z</time><hdop>3.0</hdop><vdop>3.0</vdop><extensions><gom:speed>2.613</gom:speed></extensions></trkpt>
   <trkpt lat="59.0929664925" lon="29.977890572"><ele>96.703</ele><time>2026-04-25T14:18:34.000Z</time><hdop>3.0</hdop><vdop>3.0</vdop><extensions><gom:speed>2.534</gom:speed></extensions></trkpt>
   <trkpt lat="59.0929629721" lon="29.9779326491"><ele>96.67</ele><time>2026-04-25T14:18:35.000Z</time><hdop>3.0</hdop><vdop>3.0</vdop><extensions><gom:speed>2.363</gom:speed></extensions></trkpt>
   <trkpt lat="59.0929599546" lon="29.977972547"><ele>96.64</ele><time>2026-04-25T14:18:36.000Z</time><hdop>3.0</hdop><vdop>3.0</vdop><extensions><gom:speed>2.358</gom:speed></extensions></trkpt>
   <trkpt lat="59.0929575239" lon="29.9780136183"><ele>96.599</ele><time>2026-04-25T14:18:37.000Z</time><hdop>3.0</hdop><vdop>3.0</vdop><extensions><gom:speed>2.391</gom:speed></extensions></trkpt>
   <trkpt lat="59.0929588231" lon="29.9780576233"><ele>96.578</ele><time>2026-04-25T14:18:38.000Z</time><hdop>3.0</hdop><vdop>3.0</vdop><extensions><gom:speed>2.63</gom:speed></extensions></trkpt>
   <trkpt lat="59.0929607928" lon="29.9781049811"><ele>96.524</ele><time>2026-04-25T14:18:39.000Z</time><hdop>3.0</hdop><vdop>3.0</vdop><extensions><gom:speed>2.973</gom:speed></extensions></trkpt>
   <trkpt lat="59.0929606671" lon="29.9781561107"><ele>96.507</ele><time>2026-04-25T14:18:40.000Z</time><hdop>3.0</hdop><vdop>3.0</vdop><extensions><gom:speed>2.887</gom:speed></extensions></trkpt>
   <trkpt lat="59.0929590326" lon="29.9782062345"><ele>96.491</ele><time>2026-04-25T14:18:41.000Z</time><hdop>3.0</hdop><vdop>3.0</vdop><extensions><gom:speed>2.869</gom:speed></extensions></trkpt>
   <trkpt lat="59.0929573981" lon="29.9782542628"><ele>96.584</ele><time>2026-04-25T14:18:42.000Z</time><hdop>3.0</hdop><vdop>3.0</vdop><extensions><gom:speed>2.82</gom:speed></extensions></trkpt>
   <trkpt lat="59.0929536263" lon="29.9783022073"><ele>96.598</ele><time>2026-04-25T14:18:43.000Z</time><hdop>3.0</hdop><vdop>3.0</vdop><extensions><gom:speed>2.767</gom:speed></extensions></trkpt>
   <trkpt lat="59.0929493934" lon="29.9783499841"><ele>96.571</ele><time>2026-04-25T14:18:44.000Z</time><hdop>3.0</hdop><vdop>3.0</vdop><extensions><gom:speed>2.853</gom:speed></extensions></trkpt>
   <trkpt lat="59.0929428974" lon="29.9783947435"><ele>96.485</ele><time>2026-04-25T14:18:45.000Z</time><hdop>3.0</hdop><vdop>3.0</vdop><extensions><gom:speed>2.627</gom:speed></extensions></trkpt>
   <trkpt lat="59.0929369463" lon="29.9784392514"><ele>96.407</ele><time>2026-04-25T14:18:46.000Z</time><hdop>3.0</hdop><vdop>3.0</vdop><extensions><gom:speed>2.58</gom:speed></extensions></trkpt>
   <trkpt lat="59.0929327134" lon="29.9784857709"><ele>96.388</ele><time>2026-04-25T14:18:47.000Z</time><hdop>3.0</hdop><vdop>3.0</vdop><extensions><gom:speed>2.649</gom:speed></extensions></trkpt>
   <trkpt lat="59.0929327134" lon="29.9784857709"><ele>96.377</ele><time>2026-04-25T14:18:47.000Z</time><hdop>3.0</hdop><vdop>3.0</vdop><extensions><gom:speed>2.649</gom:speed></extensions></trkpt>
   <trkpt lat="59.0929299474" lon="29.9785350565"><ele>96.352</ele><time>2026-04-25T14:18:48.000Z</time><hdop>3.0</hdop><vdop>3.0</vdop><extensions><gom:speed>2.766</gom:speed></extensions></trkpt>
   <trkpt lat="59.0929263013" lon="29.9785868567"><ele>96.324</ele><time>2026-04-25T14:18:49.000Z</time><hdop>3.0</hdop><vdop>3.0</vdop><extensions><gom:speed>2.858</gom:speed></extensions></trkpt>
   <trkpt lat="59.0929211883" lon="29.9786391598"><ele>96.361</ele><time>2026-04-25T14:18:50.000Z</time><hdop>3.312</hdop><vdop>3.312</vdop><extensions><gom:speed>2.812</gom:speed></extensions></trkpt>
   <trkpt lat="59.0929130998" lon="29.9786885292"><ele>96.427</ele><time>2026-04-25T14:18:51.000Z</time><hdop>3.437</hdop><vdop>3.437</vdop><extensions><gom:speed>2.904</gom:speed></extensions></trkpt>
   <trkpt lat="59.0929005688" lon="29.9787400779"><ele>96.415</ele><time>2026-04-25T14:18:52.000Z</time><hdop>3.375</hdop><vdop>3.375</vdop><extensions><gom:speed>2.973</gom:speed></extensions></trkpt>
   <trkpt lat="59.0928861939" lon="29.9787920457"><ele>96.412</ele><time>2026-04-25T14:18:53.000Z</time><hdop>3.312</hdop><vdop>3.312</vdop><extensions><gom:speed>3.135</gom:speed></extensions></trkpt>
   <trkpt lat="59.0928736629" lon="29.9788387329"><ele>96.432</ele><time>2026-04-25T14:18:54.000Z</time><hdop>3.187</hdop><vdop>3.187</vdop><extensions><gom:speed>2.973</gom:speed></extensions></trkpt>
   <trkpt lat="59.0928622635" lon="29.978888689"><ele>96.47</ele><time>2026-04-25T14:18:55.000Z</time><hdop>3.0</hdop><vdop>3.0</vdop><extensions><gom:speed>2.977</gom:speed></extensions></trkpt>
   <trkpt lat="59.0928542588" lon="29.9789380584"><ele>96.515</ele><time>2026-04-25T14:18:56.000Z</time><hdop>3.0</hdop><vdop>3.0</vdop><extensions><gom:speed>2.809</gom:speed></extensions></trkpt>
   <trkpt lat="59.0928492716" lon="29.9789912835"><ele>96.504</ele><time>2026-04-25T14:18:57.000Z</time><hdop>3.0</hdop><vdop>3.0</vdop><extensions><gom:speed>3.074</gom:speed></extensions></trkpt>
   <trkpt lat="59.0928436557" lon="29.9790458497"><ele>96.572</ele><time>2026-04-25T14:18:58.000Z</time><hdop>3.0</hdop><vdop>3.0</vdop><extensions><gom:speed>2.817</gom:speed></extensions></trkpt>
   <trkpt lat="59.0928358605" lon="29.9790956382"><ele>96.657</ele><time>2026-04-25T14:18:59.000Z</time><hdop>3.0</hdop><vdop>3.0</vdop><extensions><gom:speed>2.952</gom:speed></extensions></trkpt>
   <trkpt lat="59.0928295322" lon="29.9791469355"><ele>96.705</ele><time>2026-04-25T14:19:00.000Z</time><hdop>3.0</hdop><vdop>3.0</vdop><extensions><gom:speed>2.875</gom:speed></extensions></trkpt>
   <trkpt lat="59.0928249221" lon="29.9791992385"><ele>96.727</ele><time>2026-04-25T14:19:01.000Z</time><hdop>3.0</hdop><vdop>3.0</vdop><extensions><gom:speed>3.117</gom:speed></extensions></trkpt>
   <trkpt lat="59.0928197673" lon="29.9792564869"><ele>96.64</ele><time>2026-04-25T14:19:02.000Z</time><hdop>3.0</hdop><vdop>3.0</vdop><extensions><gom:speed>2.969</gom:speed></extensions></trkpt>
   <trkpt lat="59.0928167079" lon="29.9793071974"><ele>96.606</ele><time>2026-04-25T14:19:03.000Z</time><hdop>3.0</hdop><vdop>3.0</vdop><extensions><gom:speed>2.731</gom:speed></extensions></trkpt>
   <trkpt lat="59.0928123074" lon="29.9793551419"><ele>96.596</ele><time>2026-04-25T14:19:04.000Z</time><hdop>3.0</hdop><vdop>3.0</vdop><extensions><gom:speed>2.746</gom:speed></extensions></trkpt>
   <trkpt lat="59.0928067753" lon="29.9794062715"><ele>96.509</ele><time>2026-04-25T14:19:05.000Z</time><hdop>3.0</hdop><vdop>3.0</vdop><extensions><gom:speed>2.929</gom:speed></extensions></trkpt>
   <trkpt lat="59.0928015785" lon="29.9794579879"><ele>96.442</ele><time>2026-04-25T14:19:06.000Z</time><hdop>3.0</hdop><vdop>3.0</vdop><extensions><gom:speed>2.861</gom:speed></extensions></trkpt>
   <trkpt lat="59.0927947054" lon="29.9795096204"><ele>96.34</ele><time>2026-04-25T14:19:07.000Z</time><hdop>3.0</hdop><vdop>3.0</vdop><extensions><gom:speed>3.001</gom:speed></extensions></trkpt>
   <trkpt lat="59.0927903049" lon="29.979564019"><ele>96.231</ele><time>2026-04-25T14:19:08.000Z</time><hdop>3.0</hdop><vdop>3.0</vdop><extensions><gom:speed>3.154</gom:speed></extensions></trkpt>
   <trkpt lat="59.0927830545" lon="29.9796190881"><ele>96.109</ele><time>2026-04-25T14:19:09.000Z</time><hdop>3.0</hdop><vdop>3.0</vdop><extensions><gom:speed>2.993</gom:speed></extensions></trkpt>
   <trkpt lat="59.0927787379" lon="29.9796715588"><ele>95.933</ele><time>2026-04-25T14:19:10.000Z</time><hdop>3.0</hdop><vdop>3.0</vdop><extensions><gom:speed>3.018</gom:speed></extensions></trkpt>
   <trkpt lat="59.0927738764" lon="29.9797264602"><ele>95.783</ele><time>2026-04-25T14:19:11.000Z</time><hdop>3.0</hdop><vdop>3.0</vdop><extensions><gom:speed>2.796</gom:speed></extensions></trkpt>
   <trkpt lat="59.0927692244" lon="29.9797810264"><ele>95.687</ele><time>2026-04-25T14:19:12.000Z</time><hdop>3.0</hdop><vdop>3.0</vdop><extensions><gom:speed>3.185</gom:speed></extensions></trkpt>
   <trkpt lat="59.0927642372" lon="29.979833581"><ele>95.625</ele><time>2026-04-25T14:19:13.000Z</time><hdop>3.0</hdop><vdop>3.0</vdop><extensions><gom:speed>3.02</gom:speed></extensions></trkpt>
   <trkpt lat="59.0927596271" lon="29.9798842077"><ele>95.528</ele><time>2026-04-25T14:19:14.000Z</time><hdop>3.0</hdop><vdop>3.0</vdop><extensions><gom:speed>3.13</gom:speed></extensions></trkpt>
   <trkpt lat="59.0927553104" lon="29.9799376842"><ele>95.418</ele><time>2026-04-25T14:19:15.000Z</time><hdop>3.0</hdop><vdop>3.0</vdop><extensions><gom:speed>3.122</gom:speed></extensions></trkpt>
   <trkpt lat="59.0927503651" lon="29.9799899035"><ele>95.317</ele><time>2026-04-25T14:19:16.000Z</time><hdop>3.0</hdop><vdop>3.0</vdop><extensions><gom:speed>3.065</gom:speed></extensions></trkpt>
   <trkpt lat="59.0927451683" lon="29.9800437153"><ele>95.221</ele><time>2026-04-25T14:19:17.000Z</time><hdop>3.0</hdop><vdop>3.0</vdop><extensions><gom:speed>3.082</gom:speed></extensions></trkpt>
   <trkpt lat="59.0927403487" lon="29.9800948449"><ele>95.115</ele><time>2026-04-25T14:19:18.000Z</time><hdop>3.0</hdop><vdop>3.0</vdop><extensions><gom:speed>2.931</gom:speed></extensions></trkpt>
   <trkpt lat="59.0927367864" lon="29.9801461421"><ele>95.06</ele><time>2026-04-25T14:19:19.000Z</time><hdop>3.0</hdop><vdop>3.0</vdop><extensions><gom:speed>2.98</gom:speed></extensions></trkpt>
   <trkpt lat="59.0927321764" lon="29.9801966012"><ele>95.08</ele><time>2026-04-25T14:19:20.000Z</time><hdop>3.0</hdop><vdop>3.0</vdop><extensions><gom:speed>2.914</gom:speed></extensions></trkpt>
   <trkpt lat="59.0927268958" lon="29.9802473955"><ele>95.109</ele><time>2026-04-25T14:19:21.000Z</time><hdop>3.0</hdop><vdop>3.0</vdop><extensions><gom:speed>2.88</gom:speed></extensions></trkpt>
   <trkpt lat="59.0927213218" lon="29.9802959267"><ele>95.153</ele><time>2026-04-25T14:19:22.000Z</time><hdop>3.0</hdop><vdop>3.0</vdop><extensions><gom:speed>2.783</gom:speed></extensions></trkpt>
   <trkpt lat="59.0927139038" lon="29.9803452123"><ele>95.097</ele><time>2026-04-25T14:19:23.000Z</time><hdop>3.0</hdop><vdop>3.0</vdop><extensions><gom:speed>2.911</gom:speed></extensions></trkpt>
   <trkpt lat="59.0927077012" lon="29.9803935759"><ele>95.039</ele><time>2026-04-25T14:19:24.000Z</time><hdop>3.0</hdop><vdop>3.0</vdop><extensions><gom:speed>2.926</gom:speed></extensions></trkpt>
   <trkpt lat="59.0927020015" lon="29.9804426939"><ele>94.941</ele><time>2026-04-25T14:19:25.000Z</time><hdop>3.0</hdop><vdop>3.0</vdop><extensions><gom:speed>2.789</gom:speed></extensions></trkpt>
   <trkpt lat="59.0926981878" lon="29.9804852739"><ele>94.863</ele><time>2026-04-25T14:19:26.000Z</time><hdop>3.0</hdop><vdop>3.0</vdop><extensions><gom:speed>2.322</gom:speed></extensions></trkpt>
   <trkpt lat="59.0926960085" lon="29.980523244"><ele>94.759</ele><time>2026-04-25T14:19:27.000Z</time><hdop>3.0</hdop><vdop>3.0</vdop><extensions><gom:speed>2.113</gom:speed></extensions></trkpt>
   <trkpt lat="59.0926960085" lon="29.980523244"><ele>94.697</ele><time>2026-04-25T14:19:27.000Z</time><hdop>3.0</hdop><vdop>3.0</vdop><extensions><gom:speed>2.113</gom:speed></extensions></trkpt>
   <trkpt lat="59.0926947931" lon="29.9805642315"><ele>94.552</ele><time>2026-04-25T14:19:28.000Z</time><hdop>3.0</hdop><vdop>3.0</vdop><extensions><gom:speed>2.31</gom:speed></extensions></trkpt>
   <trkpt lat="59.0926933263" lon="29.9806063924"><ele>94.448</ele><time>2026-04-25T14:19:29.000Z</time><hdop>3.0</hdop><vdop>3.0</vdop><extensions><gom:speed>2.466</gom:speed></extensions></trkpt>
   <trkpt lat="59.0926923204" lon="29.9806486372"><ele>94.347</ele><time>2026-04-25T14:19:30.000Z</time><hdop>3.0</hdop><vdop>3.0</vdop><extensions><gom:speed>2.427</gom:speed></extensions></trkpt>
   <trkpt lat="59.0926908955" lon="29.9806887865"><ele>94.297</ele><time>2026-04-25T14:19:31.000Z</time><hdop>3.0</hdop><vdop>3.0</vdop><extensions><gom:speed>2.358</gom:speed></extensions></trkpt>
   <trkpt lat="59.0926877942" lon="29.9807304446"><ele>94.247</ele><time>2026-04-25T14:19:32.000Z</time><hdop>3.0</hdop><vdop>3.0</vdop><extensions><gom:speed>2.481</gom:speed></extensions></trkpt>
   <trkpt lat="59.0926815497" lon="29.9807750363"><ele>94.211</ele><time>2026-04-25T14:19:33.000Z</time><hdop>3.0</hdop><vdop>3.0</vdop><extensions><gom:speed>2.586</gom:speed></extensions></trkpt>
   <trkpt lat="59.0926750537" lon="29.9808186222"><ele>94.16</ele><time>2026-04-25T14:19:34.000Z</time><hdop>3.0</hdop><vdop>3.0</vdop><extensions><gom:speed>2.454</gom:speed></extensions></trkpt>
   <trkpt lat="59.0926701084" lon="29.9808622081"><ele>94.165</ele><time>2026-04-25T14:19:35.000Z</time><hdop>3.0</hdop><vdop>3.0</vdop><extensions><gom:speed>2.377</gom:speed></extensions></trkpt>
   <trkpt lat="59.0926679291" lon="29.9809043691"><ele>94.158</ele><time>2026-04-25T14:19:36.000Z</time><hdop>3.0</hdop><vdop>3.0</vdop><extensions><gom:speed>2.448</gom:speed></extensions></trkpt>
   <trkpt lat="59.0926627742" lon="29.9809504696"><ele>94.151</ele><time>2026-04-25T14:19:37.000Z</time><hdop>3.0</hdop><vdop>3.0</vdop><extensions><gom:speed>2.841</gom:speed></extensions></trkpt>
   <trkpt lat="59.0926555239" lon="29.9809995037"><ele>94.111</ele><time>2026-04-25T14:19:38.000Z</time><hdop>3.0</hdop><vdop>3.0</vdop><extensions><gom:speed>2.628</gom:speed></extensions></trkpt>
   <trkpt lat="59.0926527159" lon="29.9810479511"><ele>93.995</ele><time>2026-04-25T14:19:39.000Z</time><hdop>3.0</hdop><vdop>3.0</vdop><extensions><gom:speed>2.515</gom:speed></extensions></trkpt>
   <trkpt lat="59.0926535541" lon="29.9810947221"><ele>93.94</ele><time>2026-04-25T14:19:40.000Z</time><hdop>3.0</hdop><vdop>3.0</vdop><extensions><gom:speed>2.429</gom:speed></extensions></trkpt>
   <trkpt lat="59.0926522549" lon="29.9811402359"><ele>93.904</ele><time>2026-04-25T14:19:41.000Z</time><hdop>3.0</hdop><vdop>3.0</vdop><extensions><gom:speed>2.777</gom:speed></extensions></trkpt>
   <trkpt lat="59.0926475192" lon="29.9811860849"><ele>93.799</ele><time>2026-04-25T14:19:42.000Z</time><hdop>3.0</hdop><vdop>3.0</vdop><extensions><gom:speed>2.584</gom:speed></extensions></trkpt>
   <trkpt lat="59.0926432025" lon="29.9812340293"><ele>93.792</ele><time>2026-04-25T14:19:43.000Z</time><hdop>3.0</hdop><vdop>3.0</vdop><extensions><gom:speed>2.876</gom:speed></extensions></trkpt>
   <trkpt lat="59.0926393049" lon="29.9812808842"><ele>93.749</ele><time>2026-04-25T14:19:44.000Z</time><hdop>3.0</hdop><vdop>3.0</vdop><extensions><gom:speed>2.707</gom:speed></extensions></trkpt>
   <trkpt lat="59.0926331442" lon="29.9813266494"><ele>93.7</ele><time>2026-04-25T14:19:45.000Z</time><hdop>3.0</hdop><vdop>3.0</vdop><extensions><gom:speed>2.783</gom:speed></extensions></trkpt>
   <trkpt lat="59.0926258519" lon="29.9813730851"><ele>93.658</ele><time>2026-04-25T14:19:46.000Z</time><hdop>3.0</hdop><vdop>3.0</vdop><extensions><gom:speed>2.678</gom:speed></extensions></trkpt>
   <trkpt lat="59.0926197751" lon="29.9814225383"><ele>93.551</ele><time>2026-04-25T14:19:47.000Z</time><hdop>3.0</hdop><vdop>3.0</vdop><extensions><gom:speed>2.7</gom:speed></extensions></trkpt>
   <trkpt lat="59.0926197751" lon="29.9814225383"><ele>93.488</ele><time>2026-04-25T14:19:47.000Z</time><hdop>3.0</hdop><vdop>3.0</vdop><extensions><gom:speed>2.7</gom:speed></extensions></trkpt>
   <trkpt lat="59.0926147459" lon="29.9814630229"><ele>93.575</ele><time>2026-04-25T14:19:48.000Z</time><hdop>3.0</hdop><vdop>3.0</vdop><extensions><gom:speed>2.506</gom:speed></extensions></trkpt>
   <trkpt lat="59.0926120218" lon="29.9815022502"><ele>93.777</ele><time>2026-04-25T14:19:49.000Z</time><hdop>3.0</hdop><vdop>3.0</vdop><extensions><gom:speed>2.396</gom:speed></extensions></trkpt>
   <trkpt lat="59.0926085433" lon="29.9815484345"><ele>93.848</ele><time>2026-04-25T14:19:50.000Z</time><hdop>3.0</hdop><vdop>3.0</vdop><extensions><gom:speed>2.789</gom:speed></extensions></trkpt>
   <trkpt lat="59.0926042266" lon="29.9815930263"><ele>93.921</ele><time>2026-04-25T14:19:51.000Z</time><hdop>3.0</hdop><vdop>3.0</vdop><extensions><gom:speed>2.466</gom:speed></extensions></trkpt>
   <trkpt lat="59.0925992813" lon="29.981637618"><ele>94.049</ele><time>2026-04-25T14:19:52.000Z</time><hdop>3.0</hdop><vdop>3.0</vdop><extensions><gom:speed>2.66</gom:speed></extensions></trkpt>
   <trkpt lat="59.0925963057" lon="29.9816836346"><ele>94.163</ele><time>2026-04-25T14:19:53.000Z</time><hdop>3.0</hdop><vdop>3.0</vdop><extensions><gom:speed>2.831</gom:speed></extensions></trkpt>
   <trkpt lat="59.0925964734" lon="29.9817305733"><ele>94.336</ele><time>2026-04-25T14:19:54.000Z</time><hdop>3.0</hdop><vdop>3.0</vdop><extensions><gom:speed>2.68</gom:speed></extensions></trkpt>
   <trkpt lat="59.0925969763" lon="29.9817753327"><ele>94.448</ele><time>2026-04-25T14:19:55.000Z</time><hdop>3.0</hdop><vdop>3.0</vdop><extensions><gom:speed>2.785</gom:speed></extensions></trkpt>
   <trkpt lat="59.0925967248" lon="29.9818205111"><ele>94.52</ele><time>2026-04-25T14:19:56.000Z</time><hdop>3.0</hdop><vdop>3.0</vdop><extensions><gom:speed>2.549</gom:speed></extensions></trkpt>
   <trkpt lat="59.0925923243" lon="29.981866863"><ele>94.59</ele><time>2026-04-25T14:19:57.000Z</time><hdop>3.0</hdop><vdop>3.0</vdop><extensions><gom:speed>2.957</gom:speed></extensions></trkpt>
   <trkpt lat="59.0925876724" lon="29.9819110357"><ele>94.638</ele><time>2026-04-25T14:19:58.000Z</time><hdop>3.0</hdop><vdop>3.0</vdop><extensions><gom:speed>2.23</gom:speed></extensions></trkpt>
   <trkpt lat="59.092586457" lon="29.9819584772"><ele>94.698</ele><time>2026-04-25T14:19:59.000Z</time><hdop>3.0</hdop><vdop>3.0</vdop><extensions><gom:speed>2.623</gom:speed></extensions></trkpt>
   <trkpt lat="59.0925819727" lon="29.9820033204"><ele>94.741</ele><time>2026-04-25T14:20:00.000Z</time><hdop>3.0</hdop><vdop>3.0</vdop><extensions><gom:speed>2.68</gom:speed></extensions></trkpt>
   <trkpt lat="59.0925766921" lon="29.9820486665"><ele>94.817</ele><time>2026-04-25T14:20:01.000Z</time><hdop>3.0</hdop><vdop>3.0</vdop><extensions><gom:speed>2.55</gom:speed></extensions></trkpt>
   <trkpt lat="59.0925734651" lon="29.9820961081"><ele>94.85</ele><time>2026-04-25T14:20:02.000Z</time><hdop>3.0</hdop><vdop>3.0</vdop><extensions><gom:speed>2.402</gom:speed></extensions></trkpt>
   <trkpt lat="59.0925691065" lon="29.982140616"><ele>94.921</ele><time>2026-04-25T14:20:03.000Z</time><hdop>3.0</hdop><vdop>3.0</vdop><extensions><gom:speed>2.42</gom:speed></extensions></trkpt>
   <trkpt lat="59.0925641611" lon="29.9821847886"><ele>94.96</ele><time>2026-04-25T14:20:04.000Z</time><hdop>3.0</hdop><vdop>3.0</vdop><extensions><gom:speed>2.267</gom:speed></extensions></trkpt>
   <trkpt lat="59.0925599702" lon="29.9822282907"><ele>95.008</ele><time>2026-04-25T14:20:05.000Z</time><hdop>3.0</hdop><vdop>3.0</vdop><extensions><gom:speed>2.558</gom:speed></extensions></trkpt>
   <trkpt lat="59.0925565755" lon="29.9822666798"><ele>95.131</ele><time>2026-04-25T14:20:06.000Z</time><hdop>3.0</hdop><vdop>3.0</vdop><extensions><gom:speed>1.993</gom:speed></extensions></trkpt>
   <trkpt lat="59.0925519655" lon="29.9823048175"><ele>95.238</ele><time>2026-04-25T14:20:07.000Z</time><hdop>3.0</hdop><vdop>3.0</vdop><extensions><gom:speed>2.523</gom:speed></extensions></trkpt>
   <trkpt lat="59.0925519655" lon="29.9823048175"><ele>95.302</ele><time>2026-04-25T14:20:07.000Z</time><hdop>3.0</hdop><vdop>3.0</vdop><extensions><gom:speed>2.523</gom:speed></extensions></trkpt>
   <trkpt lat="59.0925447989" lon="29.9823491577"><ele>95.383</ele><time>2026-04-25T14:20:08.000Z</time><hdop>3.0</hdop><vdop>3.0</vdop><extensions><gom:speed>2.31</gom:speed></extensions></trkpt>
   <trkpt lat="59.0925376743" lon="29.9823920731"><ele>95.394</ele><time>2026-04-25T14:20:09.000Z</time><hdop>3.0</hdop><vdop>3.0</vdop><extensions><gom:speed>2.473</gom:speed></extensions></trkpt>
   <trkpt lat="59.0925290829" lon="29.9824362457"><ele>95.404</ele><time>2026-04-25T14:20:10.000Z</time><hdop>3.0</hdop><vdop>3.0</vdop><extensions><gom:speed>2.539</gom:speed></extensions></trkpt>
   <trkpt lat="59.0925210782" lon="29.9824844417"><ele>95.373</ele><time>2026-04-25T14:20:11.000Z</time><hdop>3.0</hdop><vdop>3.0</vdop><extensions><gom:speed>2.658</gom:speed></extensions></trkpt>
   <trkpt lat="59.0925140374" lon="29.9825354036"><ele>95.324</ele><time>2026-04-25T14:20:12.000Z</time><hdop>3.0</hdop><vdop>3.0</vdop><extensions><gom:speed>2.789</gom:speed></extensions></trkpt>
   <trkpt lat="59.0925080024" lon="29.9825869523"><ele>95.231</ele><time>2026-04-25T14:20:13.000Z</time><hdop>3.0</hdop><vdop>3.0</vdop><extensions><gom:speed>2.77</gom:speed></extensions></trkpt>
   <trkpt lat="59.0925018417" lon="29.9826334719"><ele>95.186</ele><time>2026-04-25T14:20:14.000Z</time><hdop>3.0</hdop><vdop>3.0</vdop><extensions><gom:speed>2.547</gom:speed></extensions></trkpt>
   <trkpt lat="59.0924968125" lon="29.9826794047"><ele>95.112</ele><time>2026-04-25T14:20:15.000Z</time><hdop>3.0</hdop><vdop>3.0</vdop><extensions><gom:speed>2.77</gom:speed></extensions></trkpt>
   <trkpt lat="59.0924911967" lon="29.9827268463"><ele>95.047</ele><time>2026-04-25T14:20:16.000Z</time><hdop>3.0</hdop><vdop>3.0</vdop><extensions><gom:speed>2.671</gom:speed></extensions></trkpt>
   <trkpt lat="59.0924865447" lon="29.9827726115"><ele>95.038</ele><time>2026-04-25T14:20:17.000Z</time><hdop>3.0</hdop><vdop>3.0</vdop><extensions><gom:speed>2.501</gom:speed></extensions></trkpt>
   <trkpt lat="59.0924828148" lon="29.9828167003"><ele>95.046</ele><time>2026-04-25T14:20:18.000Z</time><hdop>3.0</hdop><vdop>3.0</vdop><extensions><gom:speed>2.465</gom:speed></extensions></trkpt>
   <trkpt lat="59.0924796716" lon="29.9828602862"><ele>95.043</ele><time>2026-04-25T14:20:19.000Z</time><hdop>3.0</hdop><vdop>3.0</vdop><extensions><gom:speed>2.471</gom:speed></extensions></trkpt>
   <trkpt lat="59.0924769893" lon="29.982907141"><ele>94.961</ele><time>2026-04-25T14:20:20.000Z</time><hdop>3.0</hdop><vdop>3.0</vdop><extensions><gom:speed>2.403</gom:speed></extensions></trkpt>
   <trkpt lat="59.0924742652" lon="29.9829504755"><ele>94.853</ele><time>2026-04-25T14:20:21.000Z</time><hdop>3.0</hdop><vdop>3.0</vdop><extensions><gom:speed>2.399</gom:speed></extensions></trkpt>
   <trkpt lat="59.0924735528" lon="29.9829938937"><ele>94.771</ele><time>2026-04-25T14:20:22.000Z</time><hdop>3.0</hdop><vdop>3.0</vdop><extensions><gom:speed>2.356</gom:speed></extensions></trkpt>
   <trkpt lat="59.0924746005" lon="29.9830358033"><ele>94.689</ele><time>2026-04-25T14:20:23.000Z</time><hdop>3.0</hdop><vdop>3.0</vdop><extensions><gom:speed>2.447</gom:speed></extensions></trkpt>
   <trkpt lat="59.0924751034" lon="29.9830786348"><ele>94.573</ele><time>2026-04-25T14:20:24.000Z</time><hdop>3.0</hdop><vdop>3.0</vdop><extensions><gom:speed>2.584</gom:speed></extensions></trkpt>
   <trkpt lat="59.0924721698" lon="29.9831241485"><ele>94.364</ele><time>2026-04-25T14:20:25.000Z</time><hdop>3.0</hdop><vdop>3.0</vdop><extensions><gom:speed>2.524</gom:speed></extensions></trkpt>
   <trkpt lat="59.0924705772" lon="29.9831689079"><ele>94.202</ele><time>2026-04-25T14:20:26.000Z</time><hdop>3.0</hdop><vdop>3.0</vdop><extensions><gom:speed>2.4</gom:speed></extensions></trkpt>
   <trkpt lat="59.0924692361" lon="29.9832097277"><ele>94.115</ele><time>2026-04-25T14:20:27.000Z</time><hdop>3.0</hdop><vdop>3.0</vdop><extensions><gom:speed>2.31</gom:speed></extensions></trkpt>
   <trkpt lat="59.0924692361" lon="29.9832097277"><ele>94.062</ele><time>2026-04-25T14:20:27.000Z</time><hdop>3.0</hdop><vdop>3.0</vdop><extensions><gom:speed>2.31</gom:speed></extensions></trkpt>
   <trkpt lat="59.0924667634" lon="29.9832520564"><ele>94.021</ele><time>2026-04-25T14:20:28.000Z</time><hdop>3.0</hdop><vdop>3.0</vdop><extensions><gom:speed>2.594</gom:speed></extensions></trkpt>
   <trkpt lat="59.0924614828" lon="29.9832949717"><ele>94.01</ele><time>2026-04-25T14:20:29.000Z</time><hdop>3.0</hdop><vdop>3.0</vdop><extensions><gom:speed>2.502</gom:speed></extensions></trkpt>
   <trkpt lat="59.092455825" lon="29.9833362945"><ele>94.022</ele><time>2026-04-25T14:20:30.000Z</time><hdop>3.0</hdop><vdop>3.0</vdop><extensions><gom:speed>2.292</gom:speed></extensions></trkpt>
   <trkpt lat="59.0924502092" lon="29.9833759409"><ele>94.048</ele><time>2026-04-25T14:20:31.000Z</time><hdop>3.0</hdop><vdop>3.0</vdop><extensions><gom:speed>2.344</gom:speed></extensions></trkpt>
   <trkpt lat="59.092446102" lon="29.983416174"><ele>94.074</ele><time>2026-04-25T14:20:32.000Z</time><hdop>3.187</hdop><vdop>3.187</vdop><extensions><gom:speed>2.298</gom:speed></extensions></trkpt>
   <trkpt lat="59.0924422044" lon="29.9834578321"><ele>94.084</ele><time>2026-04-25T14:20:33.000Z</time><hdop>3.187</hdop><vdop>3.187</vdop><extensions><gom:speed>2.497</gom:speed></extensions></trkpt>
   <trkpt lat="59.0924380554" lon="29.9835016694"><ele>94.001</ele><time>2026-04-25T14:20:34.000Z</time><hdop>3.125</hdop><vdop>3.125</vdop><extensions><gom:speed>2.722</gom:speed></extensions></trkpt>
   <trkpt lat="59.0924336549" lon="29.9835505359"><ele>93.788</ele><time>2026-04-25T14:20:35.000Z</time><hdop>3.125</hdop><vdop>3.125</vdop><extensions><gom:speed>2.764</gom:speed></extensions></trkpt>
   <trkpt lat="59.0924287934" lon="29.9835941218"><ele>93.667</ele><time>2026-04-25T14:20:36.000Z</time><hdop>3.25</hdop><vdop>3.25</vdop><extensions><gom:speed>2.277</gom:speed></extensions></trkpt>
   <trkpt lat="59.0924241414" lon="29.9836347741"><ele>93.569</ele><time>2026-04-25T14:20:37.000Z</time><hdop>3.062</hdop><vdop>3.062</vdop><extensions><gom:speed>2.345</gom:speed></extensions></trkpt>
   <trkpt lat="59.0924191123" lon="29.9836733308"><ele>93.568</ele><time>2026-04-25T14:20:38.000Z</time><hdop>3.125</hdop><vdop>3.125</vdop><extensions><gom:speed>2.201</gom:speed></extensions></trkpt>
   <trkpt lat="59.0924147956" lon="29.9837124743"><ele>93.622</ele><time>2026-04-25T14:20:39.000Z</time><hdop>3.187</hdop><vdop>3.187</vdop><extensions><gom:speed>2.222</gom:speed></extensions></trkpt>
   <trkpt lat="59.09241182" lon="29.9837577366"><ele>93.633</ele><time>2026-04-25T14:20:40.000Z</time><hdop>3.687</hdop><vdop>3.687</vdop><extensions><gom:speed>2.705</gom:speed></extensions></trkpt>
   <trkpt lat="59.092409054" lon="29.98380434"><ele>93.703</ele><time>2026-04-25T14:20:41.000Z</time><hdop>3.687</hdop><vdop>3.687</vdop><extensions><gom:speed>2.475</gom:speed></extensions></trkpt>
   <trkpt lat="59.0924066233" lon="29.9838481773"><ele>93.801</ele><time>2026-04-25T14:20:42.000Z</time><hdop>3.937</hdop><vdop>3.937</vdop><extensions><gom:speed>2.383</gom:speed></extensions></trkpt>
   <trkpt lat="59.0924059527" lon="29.9838921823"><ele>93.973</ele><time>2026-04-25T14:20:43.000Z</time><hdop>4.0</hdop><vdop>4.0</vdop><extensions><gom:speed>2.368</gom:speed></extensions></trkpt>
   <trkpt lat="59.0924040249" lon="29.9839375284"><ele>94.075</ele><time>2026-04-25T14:20:44.000Z</time><hdop>3.937</hdop><vdop>3.937</vdop><extensions><gom:speed>2.61</gom:speed></extensions></trkpt>
   <trkpt lat="59.0924012589" lon="29.9839841318"><ele>94.178</ele><time>2026-04-25T14:20:45.000Z</time><hdop>3.5</hdop><vdop>3.5</vdop><extensions><gom:speed>2.32</gom:speed></extensions></trkpt>
   <trkpt lat="59.0923958525" lon="29.9840273824"><ele>94.293</ele><time>2026-04-25T14:20:46.000Z</time><hdop>3.312</hdop><vdop>3.312</vdop><extensions><gom:speed>2.37</gom:speed></extensions></trkpt>
   <trkpt lat="59.0923884345" lon="29.9840713874"><ele>94.363</ele><time>2026-04-25T14:20:47.000Z</time><hdop>3.312</hdop><vdop>3.312</vdop><extensions><gom:speed>2.562</gom:speed></extensions></trkpt>
   <trkpt lat="59.0923884345" lon="29.9840713874"><ele>94.405</ele><time>2026-04-25T14:20:47.000Z</time><hdop>3.312</hdop><vdop>3.312</vdop><extensions><gom:speed>2.562</gom:speed></extensions></trkpt>
   <trkpt lat="59.0923809327" lon="29.9841144704"><ele>94.512</ele><time>2026-04-25T14:20:48.000Z</time><hdop>3.312</hdop><vdop>3.312</vdop><extensions><gom:speed>2.152</gom:speed></extensions></trkpt>
   <trkpt lat="59.092372928" lon="29.984155877"><ele>94.535</ele><time>2026-04-25T14:20:49.000Z</time><hdop>3.187</hdop><vdop>3.187</vdop><extensions><gom:speed>2.414</gom:speed></extensions></trkpt>
   <trkpt lat="59.092364127" lon="29.9842037376"><ele>94.566</ele><time>2026-04-25T14:20:50.000Z</time><hdop>3.187</hdop><vdop>3.187</vdop><extensions><gom:speed>2.6</gom:speed></extensions></trkpt>
   <trkpt lat="59.092358134" lon="29.9842516821"><ele>94.59</ele><time>2026-04-25T14:20:51.000Z</time><hdop>3.312</hdop><vdop>3.312</vdop><extensions><gom:speed>2.645</gom:speed></extensions></trkpt>
   <trkpt lat="59.0923533563" lon="29.9843002133"><ele>94.618</ele><time>2026-04-25T14:20:52.000Z</time><hdop>3.375</hdop><vdop>3.375</vdop><extensions><gom:speed>2.601</gom:speed></extensions></trkpt>
   <trkpt lat="59.0923489977" lon="29.9843486607"><ele>94.694</ele><time>2026-04-25T14:20:53.000Z</time><hdop>3.312</hdop><vdop>3.312</vdop><extensions><gom:speed>2.142</gom:speed></extensions></trkpt>
   <trkpt lat="59.0923452677" lon="29.9843894806"><ele>94.802</ele><time>2026-04-25T14:20:54.000Z</time><hdop>3.437</hdop><vdop>3.437</vdop><extensions><gom:speed>2.196</gom:speed></extensions></trkpt>
   <trkpt lat="59.0923416216" lon="29.9844281212"><ele>95.042</ele><time>2026-04-25T14:20:55.000Z</time><hdop>3.437</hdop><vdop>3.437</vdop><extensions><gom:speed>1.769</gom:speed></extensions></trkpt>
   <trkpt lat="59.092339568" lon="29.9844673485"><ele>95.308</ele><time>2026-04-25T14:20:56.000Z</time><hdop>3.625</hdop><vdop>3.625</vdop><extensions><gom:speed>2.02</gom:speed></extensions></trkpt>
   <trkpt lat="59.0923347065" lon="29.9845087551"><ele>95.539</ele><time>2026-04-25T14:20:57.000Z</time><hdop>3.875</hdop><vdop>3.875</vdop><extensions><gom:speed>2.308</gom:speed></extensions></trkpt>
   <trkpt lat="59.0923300965" lon="29.9845534306"><ele>95.748</ele><time>2026-04-25T14:20:58.000Z</time><hdop>3.687</hdop><vdop>3.687</vdop><extensions><gom:speed>2.296</gom:speed></extensions></trkpt>
   <trkpt lat="59.0923251093" lon="29.9845959269"><ele>95.961</ele><time>2026-04-25T14:20:59.000Z</time><hdop>3.437</hdop><vdop>3.437</vdop><extensions><gom:speed>2.364</gom:speed></extensions></trkpt>
   <trkpt lat="59.0923207088" lon="29.9846371659"><ele>96.218</ele><time>2026-04-25T14:21:00.000Z</time><hdop>3.437</hdop><vdop>3.437</vdop><extensions><gom:speed>2.236</gom:speed></extensions></trkpt>
   <trkpt lat="59.0923157634" lon="29.9846794945"><ele>96.449</ele><time>2026-04-25T14:21:01.000Z</time><hdop>3.5</hdop><vdop>3.5</vdop><extensions><gom:speed>2.263</gom:speed></extensions></trkpt>
   <trkpt lat="59.0923112791" lon="29.9847172968"><ele>96.65</ele><time>2026-04-25T14:21:02.000Z</time><hdop>3.375</hdop><vdop>3.375</vdop><extensions><gom:speed>2.003</gom:speed></extensions></trkpt>
   <trkpt lat="59.0923079264" lon="29.9847532552"><ele>96.823</ele><time>2026-04-25T14:21:03.000Z</time><hdop>3.5</hdop><vdop>3.5</vdop><extensions><gom:speed>1.958</gom:speed></extensions></trkpt>
   <trkpt lat="59.0923045317" lon="29.9847986013"><ele>96.789</ele><time>2026-04-25T14:21:04.000Z</time><hdop>3.437</hdop><vdop>3.437</vdop><extensions><gom:speed>2.426</gom:speed></extensions></trkpt>
   <trkpt lat="59.0923005922" lon="29.9848471325"><ele>96.694</ele><time>2026-04-25T14:21:05.000Z</time><hdop>3.187</hdop><vdop>3.187</vdop><extensions><gom:speed>2.648</gom:speed></extensions></trkpt>
   <trkpt lat="59.0922978262" lon="29.9848934006"><ele>96.691</ele><time>2026-04-25T14:21:06.000Z</time><hdop>3.375</hdop><vdop>3.375</vdop><extensions><gom:speed>2.302</gom:speed></extensions></trkpt>
   <trkpt lat="59.0922979519" lon="29.9849365674"><ele>96.8</ele><time>2026-04-25T14:21:07.000Z</time><hdop>3.25</hdop><vdop>3.25</vdop><extensions><gom:speed>2.423</gom:speed></extensions></trkpt>
   <trkpt lat="59.0922953535" lon="29.9849882"><ele>96.802</ele><time>2026-04-25T14:21:08.000Z</time><hdop>3.062</hdop><vdop>3.062</vdop><extensions><gom:speed>2.719</gom:speed></extensions></trkpt>
   <trkpt lat="59.0922931742" lon="29.9850359768"><ele>96.811</ele><time>2026-04-25T14:21:09.000Z</time><hdop>3.0</hdop><vdop>3.0</vdop><extensions><gom:speed>2.571</gom:speed></extensions></trkpt>
   <trkpt lat="59.0922908692" lon="29.9850824126"><ele>96.819</ele><time>2026-04-25T14:21:10.000Z</time><hdop>3.0</hdop><vdop>3.0</vdop><extensions><gom:speed>2.544</gom:speed></extensions></trkpt>
   <trkpt lat="59.0922857143" lon="29.9851307761"><ele>96.819</ele><time>2026-04-25T14:21:11.000Z</time><hdop>3.0</hdop><vdop>3.0</vdop><extensions><gom:speed>2.765</gom:speed></extensions></trkpt>
   <trkpt lat="59.0922802242" lon="29.9851783015"><ele>96.946</ele><time>2026-04-25T14:21:12.000Z</time><hdop>3.0</hdop><vdop>3.0</vdop><extensions><gom:speed>2.654</gom:speed></extensions></trkpt>
   <trkpt lat="59.0922743149" lon="29.9852254078"><ele>96.978</ele><time>2026-04-25T14:21:13.000Z</time><hdop>3.0</hdop><vdop>3.0</vdop><extensions><gom:speed>2.952</gom:speed></extensions></trkpt>
   <trkpt lat="59.092269663" lon="29.985275364"><ele>97.072</ele><time>2026-04-25T14:21:14.000Z</time><hdop>3.0</hdop><vdop>3.0</vdop><extensions><gom:speed>2.657</gom:speed></extensions></trkpt>
   <trkpt lat="59.0922645919" lon="29.9853241466"><ele>97.153</ele><time>2026-04-25T14:21:15.000Z</time><hdop>3.0</hdop><vdop>3.0</vdop><extensions><gom:speed>2.727</gom:speed></extensions></trkpt>
   <trkpt lat="59.0922590599" lon="29.9853731808"><ele>97.264</ele><time>2026-04-25T14:21:16.000Z</time><hdop>3.0</hdop><vdop>3.0</vdop><extensions><gom:speed>2.472</gom:speed></extensions></trkpt>
   <trkpt lat="59.0922534021" lon="29.9854210414"><ele>97.324</ele><time>2026-04-25T14:21:17.000Z</time><hdop>3.0</hdop><vdop>3.0</vdop><extensions><gom:speed>2.811</gom:speed></extensions></trkpt>
   <trkpt lat="59.0922476186" lon="29.9854720034"><ele>97.4</ele><time>2026-04-25T14:21:18.000Z</time><hdop>3.0</hdop><vdop>3.0</vdop><extensions><gom:speed>2.732</gom:speed></extensions></trkpt>
   <trkpt lat="59.0922437629" lon="29.9855209537"><ele>97.483</ele><time>2026-04-25T14:21:19.000Z</time><hdop>3.0</hdop><vdop>3.0</vdop><extensions><gom:speed>2.655</gom:speed></extensions></trkpt>
   <trkpt lat="59.0922388176" lon="29.9855703231"><ele>97.511</ele><time>2026-04-25T14:21:20.000Z</time><hdop>3.0</hdop><vdop>3.0</vdop><extensions><gom:speed>2.846</gom:speed></extensions></trkpt>
   <trkpt lat="59.0922331598" lon="29.9856201116"><ele>97.557</ele><time>2026-04-25T14:21:21.000Z</time><hdop>3.0</hdop><vdop>3.0</vdop><extensions><gom:speed>2.583</gom:speed></extensions></trkpt>
   <trkpt lat="59.0922293879" lon="29.9856660445"><ele>97.703</ele><time>2026-04-25T14:21:22.000Z</time><hdop>3.0</hdop><vdop>3.0</vdop><extensions><gom:speed>2.508</gom:speed></extensions></trkpt>
   <trkpt lat="59.0922263285" lon="29.9857097142"><ele>97.876</ele><time>2026-04-25T14:21:23.000Z</time><hdop>3.0</hdop><vdop>3.0</vdop><extensions><gom:speed>2.412</gom:speed></extensions></trkpt>
   <trkpt lat="59.0922213413" lon="29.9857540545"><ele>97.976</ele><time>2026-04-25T14:21:24.000Z</time><hdop>3.125</hdop><vdop>3.125</vdop><extensions><gom:speed>2.561</gom:speed></extensions></trkpt>
   <trkpt lat="59.0922161445" lon="29.9857977242"><ele>98.14</ele><time>2026-04-25T14:21:25.000Z</time><hdop>3.125</hdop><vdop>3.125</vdop><extensions><gom:speed>2.38</gom:speed></extensions></trkpt>
   <trkpt lat="59.0922096485" lon="29.985846423"><ele>98.241</ele><time>2026-04-25T14:21:26.000Z</time><hdop>3.437</hdop><vdop>3.437</vdop><extensions><gom:speed>3.306</gom:speed></extensions></trkpt>
   <trkpt lat="59.0922042841" lon="29.9858987261"><ele>98.287</ele><time>2026-04-25T14:21:27.000Z</time><hdop>3.75</hdop><vdop>3.75</vdop><extensions><gom:speed>2.662</gom:speed></extensions></trkpt>
   <trkpt lat="59.0922042841" lon="29.9858987261"><ele>98.314</ele><time>2026-04-25T14:21:27.000Z</time><hdop>3.75</hdop><vdop>3.75</vdop><extensions><gom:speed>2.662</gom:speed></extensions></trkpt>
   <trkpt lat="59.0922029011" lon="29.9859484308"><ele>98.42</ele><time>2026-04-25T14:21:28.000Z</time><hdop>3.875</hdop><vdop>3.875</vdop><extensions><gom:speed>2.706</gom:speed></extensions></trkpt>
   <trkpt lat="59.0922016857" lon="29.9860027455"><ele>98.309</ele><time>2026-04-25T14:21:29.000Z</time><hdop>3.562</hdop><vdop>3.562</vdop><extensions><gom:speed>3.125</gom:speed></extensions></trkpt>
   <trkpt lat="59.0922012247" lon="29.986056725"><ele>98.238</ele><time>2026-04-25T14:21:30.000Z</time><hdop>3.437</hdop><vdop>3.437</vdop><extensions><gom:speed>2.781</gom:speed></extensions></trkpt>
   <trkpt lat="59.092204326" lon="29.9861109559"><ele>98.035</ele><time>2026-04-25T14:21:31.000Z</time><hdop>3.187</hdop><vdop>3.187</vdop><extensions><gom:speed>3.253</gom:speed></extensions></trkpt>
   <trkpt lat="59.0922086427" lon="29.9861644324"><ele>97.88</ele><time>2026-04-25T14:21:32.000Z</time><hdop>3.062</hdop><vdop>3.062</vdop><extensions><gom:speed>2.815</gom:speed></extensions></trkpt>
   <trkpt lat="59.0922127079" lon="29.9862147239"><ele>97.733</ele><time>2026-04-25T14:21:33.000Z</time><hdop>3.0</hdop><vdop>3.0</vdop><extensions><gom:speed>3.016</gom:speed></extensions></trkpt>
   <trkpt lat="59.0922174018" lon="29.9862663564"><ele>97.587</ele><time>2026-04-25T14:21:34.000Z</time><hdop>3.0</hdop><vdop>3.0</vdop><extensions><gom:speed>2.986</gom:speed></extensions></trkpt>
   <trkpt lat="59.0922204612" lon="29.9863204196"><ele>97.32</ele><time>2026-04-25T14:21:35.000Z</time><hdop>3.062</hdop><vdop>3.062</vdop><extensions><gom:speed>3.386</gom:speed></extensions></trkpt>
   <trkpt lat="59.09222285" lon="29.9863741476"><ele>97.159</ele><time>2026-04-25T14:21:36.000Z</time><hdop>3.312</hdop><vdop>3.312</vdop><extensions><gom:speed>2.786</gom:speed></extensions></trkpt>
   <trkpt lat="59.0922246522" lon="29.9864211701"><ele>96.97</ele><time>2026-04-25T14:21:37.000Z</time><hdop>3.25</hdop><vdop>3.25</vdop><extensions><gom:speed>2.69</gom:speed></extensions></trkpt>
   <trkpt lat="59.0922296394" lon="29.9864657619"><ele>96.818</ele><time>2026-04-25T14:21:38.000Z</time><hdop>3.5</hdop><vdop>3.5</vdop><extensions><gom:speed>2.533</gom:speed></extensions></trkpt>
   <trkpt lat="59.0922367221" lon="29.9865095154"><ele>96.696</ele><time>2026-04-25T14:21:39.000Z</time><hdop>3.312</hdop><vdop>3.312</vdop><extensions><gom:speed>2.798</gom:speed></extensions></trkpt>
   <trkpt lat="59.0922428828" lon="29.9865567893"><ele>96.568</ele><time>2026-04-25T14:21:40.000Z</time><hdop>3.125</hdop><vdop>3.125</vdop><extensions><gom:speed>3.019</gom:speed></extensions></trkpt>
   <trkpt lat="59.0922486663" lon="29.9866025545"><ele>96.534</ele><time>2026-04-25T14:21:41.000Z</time><hdop>3.437</hdop><vdop>3.437</vdop><extensions><gom:speed>2.499</gom:speed></extensions></trkpt>
   <trkpt lat="59.0922560424" lon="29.9866500799"><ele>96.493</ele><time>2026-04-25T14:21:42.000Z</time><hdop>4.0</hdop><vdop>4.0</vdop><extensions><gom:speed>3.104</gom:speed></extensions></trkpt>
   <trkpt lat="59.0922661426" lon="29.9867002037"><ele>96.464</ele><time>2026-04-25T14:21:43.000Z</time><hdop>3.812</hdop><vdop>3.812</vdop><extensions><gom:speed>3.0</gom:speed></extensions></trkpt>
   <trkpt lat="59.0922753208" lon="29.9867520877"><ele>96.394</ele><time>2026-04-25T14:21:44.000Z</time><hdop>3.75</hdop><vdop>3.75</vdop><extensions><gom:speed>2.984</gom:speed></extensions></trkpt>
   <trkpt lat="59.0922834093" lon="29.9868051451"><ele>96.369</ele><time>2026-04-25T14:21:45.000Z</time><hdop>3.812</hdop><vdop>3.812</vdop><extensions><gom:speed>2.886</gom:speed></extensions></trkpt>
   <trkpt lat="59.0922910787" lon="29.9868588731"><ele>96.285</ele><time>2026-04-25T14:21:46.000Z</time><hdop>4.062</hdop><vdop>4.062</vdop><extensions><gom:speed>3.126</gom:speed></extensions></trkpt>
   <trkpt lat="59.0922989996" lon="29.986913104"><ele>96.099</ele><time>2026-04-25T14:21:47.000Z</time><hdop>4.062</hdop><vdop>4.062</vdop><extensions><gom:speed>3.209</gom:speed></extensions></trkpt>
   <trkpt lat="59.0922989996" lon="29.986913104"><ele>95.987</ele><time>2026-04-25T14:21:47.000Z</time><hdop>4.062</hdop><vdop>4.062</vdop><extensions><gom:speed>3.209</gom:speed></extensions></trkpt>
   <trkpt lat="59.0923062919" lon="29.9869652395"><ele>95.807</ele><time>2026-04-25T14:21:48.000Z</time><hdop>3.937</hdop><vdop>3.937</vdop><extensions><gom:speed>3.161</gom:speed></extensions></trkpt>
   <trkpt lat="59.0923152605" lon="29.9870161176"><ele>95.696</ele><time>2026-04-25T14:21:49.000Z</time><hdop>3.5</hdop><vdop>3.5</vdop><extensions><gom:speed>2.874</gom:speed></extensions></trkpt>
   <trkpt lat="59.0923246483" lon="29.987061799"><ele>95.625</ele><time>2026-04-25T14:21:50.000Z</time><hdop>3.75</hdop><vdop>3.75</vdop><extensions><gom:speed>2.857</gom:speed></extensions></trkpt>
   <trkpt lat="59.0923317729" lon="29.9871116713"><ele>95.523</ele><time>2026-04-25T14:21:51.000Z</time><hdop>4.0</hdop><vdop>4.0</vdop><extensions><gom:speed>3.14</gom:speed></extensions></trkpt>
   <trkpt lat="59.0923387718" lon="29.9871611245"><ele>95.355</ele><time>2026-04-25T14:21:52.000Z</time><hdop>4.0</hdop><vdop>4.0</vdop><extensions><gom:speed>2.731</gom:speed></extensions></trkpt>
   <trkpt lat="59.0923476985" lon="29.9872067221"><ele>95.153</ele><time>2026-04-25T14:21:53.000Z</time><hdop>4.187</hdop><vdop>4.187</vdop><extensions><gom:speed>2.954</gom:speed></extensions></trkpt>
   <trkpt lat="59.0923572539" lon="29.9872550857"><ele>94.953</ele><time>2026-04-25T14:21:54.000Z</time><hdop>3.937</hdop><vdop>3.937</vdop><extensions><gom:speed>2.869</gom:speed></extensions></trkpt>
   <trkpt lat="59.0923653424" lon="29.9873028625"><ele>94.85</ele><time>2026-04-25T14:21:55.000Z</time><hdop>3.687</hdop><vdop>3.687</vdop><extensions><gom:speed>2.932</gom:speed></extensions></trkpt>
   <trkpt lat="59.0923733052" lon="29.9873529025"><ele>94.77</ele><time>2026-04-25T14:21:56.000Z</time><hdop>3.375</hdop><vdop>3.375</vdop><extensions><gom:speed>2.935</gom:speed></extensions></trkpt>
   <trkpt lat="59.092380807" lon="29.9874000926"><ele>94.768</ele><time>2026-04-25T14:21:57.000Z</time><hdop>3.25</hdop><vdop>3.25</vdop><extensions><gom:speed>2.619</gom:speed></extensions></trkpt>
   <trkpt lat="59.0923864229" lon="29.98744854"><ele>94.759</ele><time>2026-04-25T14:21:58.000Z</time><hdop>3.375</hdop><vdop>3.375</vdop><extensions><gom:speed>2.97</gom:speed></extensions></trkpt>
   <trkpt lat="59.0923925417" lon="29.9874986638"><ele>94.867</ele><time>2026-04-25T14:21:59.000Z</time><hdop>3.187</hdop><vdop>3.187</vdop><extensions><gom:speed>2.669</gom:speed></extensions></trkpt>
   <trkpt lat="59.0924005464" lon="29.9875450157"><ele>94.896</ele><time>2026-04-25T14:22:00.000Z</time><hdop>3.0</hdop><vdop>3.0</vdop><extensions><gom:speed>2.763</gom:speed></extensions></trkpt>
   <trkpt lat="59.0924093474" lon="29.9875886016"><ele>94.927</ele><time>2026-04-25T14:22:01.000Z</time><hdop>3.0</hdop><vdop>3.0</vdop><extensions><gom:speed>2.624</gom:speed></extensions></trkpt>
   <trkpt lat="59.0924186932" lon="29.98762917"><ele>94.916</ele><time>2026-04-25T14:22:02.000Z</time><hdop>3.0</hdop><vdop>3.0</vdop><extensions><gom:speed>2.569</gom:speed></extensions></trkpt>
   <trkpt lat="59.0924284162" lon="29.9876720854"><ele>94.849</ele><time>2026-04-25T14:22:03.000Z</time><hdop>3.0</hdop><vdop>3.0</vdop><extensions><gom:speed>2.726</gom:speed></extensions></trkpt>
   <trkpt lat="59.0924366724" lon="29.9877158389"><ele>94.709</ele><time>2026-04-25T14:22:04.000Z</time><hdop>3.0</hdop><vdop>3.0</vdop><extensions><gom:speed>2.664</gom:speed></extensions></trkpt>
   <trkpt lat="59.0924455572" lon="29.9877558206"><ele>94.665</ele><time>2026-04-25T14:22:05.000Z</time><hdop>3.0</hdop><vdop>3.0</vdop><extensions><gom:speed>2.325</gom:speed></extensions></trkpt>
   <trkpt lat="59.0924544001" lon="29.9877958861"><ele>94.617</ele><time>2026-04-25T14:22:06.000Z</time><hdop>3.0</hdop><vdop>3.0</vdop><extensions><gom:speed>2.574</gom:speed></extensions></trkpt>
   <trkpt lat="59.0924616924" lon="29.9878409807"><ele>94.561</ele><time>2026-04-25T14:22:07.000Z</time><hdop>3.0</hdop><vdop>3.0</vdop><extensions><gom:speed>2.645</gom:speed></extensions></trkpt>
   <trkpt lat="59.0924616924" lon="29.9878409807"><ele>94.528</ele><time>2026-04-25T14:22:07.000Z</time><hdop>3.0</hdop><vdop>3.0</vdop><extensions><gom:speed>2.645</gom:speed></extensions></trkpt>
   <trkpt lat="59.092466973" lon="29.987889009"><ele>94.489</ele><time>2026-04-25T14:22:08.000Z</time><hdop>3.0</hdop><vdop>3.0</vdop><extensions><gom:speed>2.927</gom:speed></extensions></trkpt>
   <trkpt lat="59.0924712477" lon="29.9879356962"><ele>94.539</ele><time>2026-04-25T14:22:09.000Z</time><hdop>3.062</hdop><vdop>3.062</vdop><extensions><gom:speed>2.499</gom:speed></extensions></trkpt>
   <trkpt lat="59.0924773665" lon="29.9879777734"><ele>94.59</ele><time>2026-04-25T14:22:10.000Z</time><hdop>3.0</hdop><vdop>3.0</vdop><extensions><gom:speed>2.473</gom:speed></extensions></trkpt>
   <trkpt lat="59.0924836949" lon="29.9880200182"><ele>94.607</ele><time>2026-04-25T14:22:11.000Z</time><hdop>3.0</hdop><vdop>3.0</vdop><extensions><gom:speed>2.395</gom:speed></extensions></trkpt>
   <trkpt lat="59.0924905261" lon="29.9880651128"><ele>94.558</ele><time>2026-04-25T14:22:12.000Z</time><hdop>3.0</hdop><vdop>3.0</vdop><extensions><gom:speed>2.781</gom:speed></extensions></trkpt>
   <trkpt lat="59.0924976926" lon="29.9881095369"><ele>94.512</ele><time>2026-04-25T14:22:13.000Z</time><hdop>3.0</hdop><vdop>3.0</vdop><extensions><gom:speed>2.506</gom:speed></extensions></trkpt>
   <trkpt lat="59.0925073737" lon="29.9881513626"><ele>94.485</ele><time>2026-04-25T14:22:14.000Z</time><hdop>3.0</hdop><vdop>3.0</vdop><extensions><gom:speed>2.504</gom:speed></extensions></trkpt>
   <trkpt lat="59.09251651" lon="29.9881902546"><ele>94.486</ele><time>2026-04-25T14:22:15.000Z</time><hdop>3.0</hdop><vdop>3.0</vdop><extensions><gom:speed>2.309</gom:speed></extensions></trkpt>
   <trkpt lat="59.0925241376" lon="29.9882293981"><ele>94.462</ele><time>2026-04-25T14:22:16.000Z</time><hdop>3.0</hdop><vdop>3.0</vdop><extensions><gom:speed>2.381</gom:speed></extensions></trkpt>
   <trkpt lat="59.0925320585" lon="29.9882677034"><ele>94.486</ele><time>2026-04-25T14:22:17.000Z</time><hdop>3.0</hdop><vdop>3.0</vdop><extensions><gom:speed>2.325</gom:speed></extensions></trkpt>
   <trkpt lat="59.09254153" lon="29.988306344"><ele>94.486</ele><time>2026-04-25T14:22:18.000Z</time><hdop>3.0</hdop><vdop>3.0</vdop><extensions><gom:speed>2.41</gom:speed></extensions></trkpt>
   <trkpt lat="59.0925494928" lon="29.9883506842"><ele>94.49</ele><time>2026-04-25T14:22:19.000Z</time><hdop>3.0</hdop><vdop>3.0</vdop><extensions><gom:speed>2.695</gom:speed></extensions></trkpt>
   <trkpt lat="59.0925577909" lon="29.9883984611"><ele>94.5</ele><time>2026-04-25T14:22:20.000Z</time><hdop>3.0</hdop><vdop>3.0</vdop><extensions><gom:speed>2.933</gom:speed></extensions></trkpt>
   <trkpt lat="59.0925668853" lon="29.9884479143"><ele>94.48</ele><time>2026-04-25T14:22:21.000Z</time><hdop>3.0</hdop><vdop>3.0</vdop><extensions><gom:speed>2.787</gom:speed></extensions></trkpt>
   <trkpt lat="59.092573968" lon="29.988493428"><ele>94.457</ele><time>2026-04-25T14:22:22.000Z</time><hdop>3.0</hdop><vdop>3.0</vdop><extensions><gom:speed>2.59</gom:speed></extensions></trkpt>
   <trkpt lat="59.0925790809" lon="29.9885401991"><ele>94.412</ele><time>2026-04-25T14:22:23.000Z</time><hdop>3.0</hdop><vdop>3.0</vdop><extensions><gom:speed>2.8</gom:speed></extensions></trkpt>
   <trkpt lat="59.0925861636" lon="29.9885843717"><ele>94.475</ele><time>2026-04-25T14:22:24.000Z</time><hdop>3.0</hdop><vdop>3.0</vdop><extensions><gom:speed>2.421</gom:speed></extensions></trkpt>
   <trkpt lat="59.0925965153" lon="29.988623599"><ele>94.513</ele><time>2026-04-25T14:22:25.000Z</time><hdop>3.0</hdop><vdop>3.0</vdop><extensions><gom:speed>2.482</gom:speed></extensions></trkpt>
   <trkpt lat="59.0926072022" lon="29.9886635807"><ele>94.502</ele><time>2026-04-25T14:22:26.000Z</time><hdop>3.0</hdop><vdop>3.0</vdop><extensions><gom:speed>2.393</gom:speed></extensions></trkpt>
   <trkpt lat="59.0926186854" lon="29.9886992876"><ele>94.578</ele><time>2026-04-25T14:22:27.000Z</time><hdop>3.0</hdop><vdop>3.0</vdop><extensions><gom:speed>2.192</gom:speed></extensions></trkpt>
   <trkpt lat="59.092630923" lon="29.9887297977"><ele>94.694</ele><time>2026-04-25T14:22:28.000Z</time><hdop>3.0</hdop><vdop>3.0</vdop><extensions><gom:speed>2.021</gom:speed></extensions></trkpt>
   <trkpt lat="59.0926415261" lon="29.9887604755"><ele>94.854</ele><time>2026-04-25T14:22:29.000Z</time><hdop>3.0</hdop><vdop>3.0</vdop><extensions><gom:speed>2.134</gom:speed></extensions></trkpt>
   <trkpt lat="59.0926521711" lon="29.9887958471"><ele>94.931</ele><time>2026-04-25T14:22:30.000Z</time><hdop>3.0</hdop><vdop>3.0</vdop><extensions><gom:speed>2.628</gom:speed></extensions></trkpt>
   <trkpt lat="59.0926626904" lon="29.9888334819"><ele>94.96</ele><time>2026-04-25T14:22:31.000Z</time><hdop>3.0</hdop><vdop>3.0</vdop><extensions><gom:speed>2.3</gom:speed></extensions></trkpt>
   <trkpt lat="59.0926694378" lon="29.9888717872"><ele>95.012</ele><time>2026-04-25T14:22:32.000Z</time><hdop>3.0</hdop><vdop>3.0</vdop><extensions><gom:speed>2.301</gom:speed></extensions></trkpt>
   <trkpt lat="59.09267585" lon="29.9889121041"><ele>95.046</ele><time>2026-04-25T14:22:33.000Z</time><hdop>3.0</hdop><vdop>3.0</vdop><extensions><gom:speed>2.33</gom:speed></extensions></trkpt>
   <trkpt lat="59.0926840643" lon="29.9889528402"><ele>95.074</ele><time>2026-04-25T14:22:34.000Z</time><hdop>3.0</hdop><vdop>3.0</vdop><extensions><gom:speed>2.286</gom:speed></extensions></trkpt>
   <trkpt lat="59.0926920271" lon="29.9889944982"><ele>95.134</ele><time>2026-04-25T14:22:35.000Z</time><hdop>3.0</hdop><vdop>3.0</vdop><extensions><gom:speed>2.387</gom:speed></extensions></trkpt>
   <trkpt lat="59.0926986907" lon="29.9890340608"><ele>95.266</ele><time>2026-04-25T14:22:36.000Z</time><hdop>3.0</hdop><vdop>3.0</vdop><extensions><gom:speed>2.048</gom:speed></extensions></trkpt>
   <trkpt lat="59.0927033007" lon="29.9890715279"><ele>95.378</ele><time>2026-04-25T14:22:37.000Z</time><hdop>3.0</hdop><vdop>3.0</vdop><extensions><gom:speed>2.106</gom:speed></extensions></trkpt>
   <trkpt lat="59.092705941" lon="29.9891155329"><ele>95.413</ele><time>2026-04-25T14:22:38.000Z</time><hdop>3.0</hdop><vdop>3.0</vdop><extensions><gom:speed>2.286</gom:speed></extensions></trkpt>
   <trkpt lat="59.0927081622" lon="29.9891623877"><ele>95.378</ele><time>2026-04-25T14:22:39.000Z</time><hdop>3.0</hdop><vdop>3.0</vdop><extensions><gom:speed>2.51</gom:speed></extensions></trkpt>
   <trkpt lat="59.0927112216" lon="29.9892101646"><ele>95.364</ele><time>2026-04-25T14:22:40.000Z</time><hdop>3.0</hdop><vdop>3.0</vdop><extensions><gom:speed>2.673</gom:speed></extensions></trkpt>
   <trkpt lat="59.0927152869" lon="29.9892630544"><ele>95.286</ele><time>2026-04-25T14:22:41.000Z</time><hdop>3.0</hdop><vdop>3.0</vdop><extensions><gom:speed>2.554</gom:speed></extensions></trkpt>
   <trkpt lat="59.09272216" lon="29.9893136811"><ele>95.079</ele><time>2026-04-25T14:22:42.000Z</time><hdop>3.0</hdop><vdop>3.0</vdop><extensions><gom:speed>2.386</gom:speed></extensions></trkpt>
   <trkpt lat="59.092728195" lon="29.9893558421"><ele>94.942</ele><time>2026-04-25T14:22:43.000Z</time><hdop>3.0</hdop><vdop>3.0</vdop><extensions><gom:speed>2.216</gom:speed></extensions></trkpt>
   <trkpt lat="59.09273884" lon="29.9894025293"><ele>94.704</ele><time>2026-04-25T14:22:44.000Z</time><hdop>3.0</hdop><vdop>3.0</vdop><extensions><gom:speed>2.426</gom:speed></extensions></trkpt>
   <trkpt lat="59.0927507842" lon="29.9894417566"><ele>94.568</ele><time>2026-04-25T14:22:45.000Z</time><hdop>3.0</hdop><vdop>3.0</vdop><extensions><gom:speed>2.486</gom:speed></extensions></trkpt>
   <trkpt lat="59.0927655364" lon="29.9894844205"><ele>94.392</ele><time>2026-04-25T14:22:46.000Z</time><hdop>3.0</hdop><vdop>3.0</vdop><extensions><gom:speed>2.342</gom:speed></extensions></trkpt>
   <trkpt lat="59.0927750498" lon="29.9895249051"><ele>94.339</ele><time>2026-04-25T14:22:47.000Z</time><hdop>3.187</hdop><vdop>3.187</vdop><extensions><gom:speed>2.358</gom:speed></extensions></trkpt>
   <trkpt lat="59.0927750498" lon="29.9895249051"><ele>94.308</ele><time>2026-04-25T14:22:47.000Z</time><hdop>3.187</hdop><vdop>3.187</vdop><extensions><gom:speed>2.358</gom:speed></extensions></trkpt>
   <trkpt lat="59.0927832222" lon="29.9895684909"><ele>94.284</ele><time>2026-04-25T14:22:48.000Z</time><hdop>3.0</hdop><vdop>3.0</vdop><extensions><gom:speed>2.591</gom:speed></extensions></trkpt>
   <trkpt lat="59.0927912688" lon="29.9896142561"><ele>94.327</ele><time>2026-04-25T14:22:49.000Z</time><hdop>3.0</hdop><vdop>3.0</vdop><extensions><gom:speed>2.492</gom:speed></extensions></trkpt>
   <trkpt lat="59.0928003213" lon="29.9896566686"><ele>94.41</ele><time>2026-04-25T14:22:50.000Z</time><hdop>3.0</hdop><vdop>3.0</vdop><extensions><gom:speed>2.412</gom:speed></extensions></trkpt>
   <trkpt lat="59.0928095414" lon="29.9896993325"><ele>94.523</ele><time>2026-04-25T14:22:51.000Z</time><hdop>3.0</hdop><vdop>3.0</vdop><extensions><gom:speed>2.366</gom:speed></extensions></trkpt>
   <trkpt lat="59.0928184681" lon="29.9897415772"><ele>94.636</ele><time>2026-04-25T14:22:52.000Z</time><hdop>3.0</hdop><vdop>3.0</vdop><extensions><gom:speed>2.402</gom:speed></extensions></trkpt>
   <trkpt lat="59.0928270176" lon="29.9897872586"><ele>94.698</ele><time>2026-04-25T14:22:53.000Z</time><hdop>3.0</hdop><vdop>3.0</vdop><extensions><gom:speed>2.658</gom:speed></extensions></trkpt>
   <trkpt lat="59.0928339746" lon="29.9898322694"><ele>94.759</ele><time>2026-04-25T14:22:54.000Z</time><hdop>3.0</hdop><vdop>3.0</vdop><extensions><gom:speed>2.24</gom:speed></extensions></trkpt>
   <trkpt lat="59.0928414345" lon="29.9898740951"><ele>94.807</ele><time>2026-04-25T14:22:55.000Z</time><hdop>3.0</hdop><vdop>3.0</vdop><extensions><gom:speed>1.993</gom:speed></extensions></trkpt>
   <trkpt lat="59.0928496488" lon="29.9899045214"><ele>94.858</ele><time>2026-04-25T14:22:56.000Z</time><hdop>3.0</hdop><vdop>3.0</vdop><extensions><gom:speed>1.513</gom:speed></extensions></trkpt>
   <trkpt lat="59.0928561028" lon="29.9899276555"><ele>94.848</ele><time>2026-04-25T14:22:57.000Z</time><hdop>3.0</hdop><vdop>3.0</vdop><extensions><gom:speed>1.045</gom:speed></extensions></trkpt>
   <trkpt lat="59.0928600842" lon="29.9899452575"><ele>94.841</ele><time>2026-04-25T14:22:58.000Z</time><hdop>3.0</hdop><vdop>3.0</vdop><extensions><gom:speed>0.638</gom:speed></extensions></trkpt>
   <trkpt lat="59.0928600842" lon="29.9899452575"><ele>94.837</ele><time>2026-04-25T14:22:59.000Z</time><hdop>3.0</hdop><vdop>3.0</vdop><extensions><gom:speed>0.0</gom:speed></extensions></trkpt>
   <trkpt lat="59.0928600842" lon="29.9899452575"><ele>94.835</ele><time>2026-04-25T14:23:00.000Z</time><hdop>3.0</hdop><vdop>3.0</vdop><extensions><gom:speed>0.0</gom:speed></extensions></trkpt>
   <trkpt lat="59.0928600842" lon="29.9899452575"><ele>94.833</ele><time>2026-04-25T14:23:01.000Z</time><hdop>3.0</hdop><vdop>3.0</vdop><extensions><gom:speed>0.0</gom:speed></extensions></trkpt>
   <trkpt lat="59.0928600842" lon="29.9899452575"><ele>94.832</ele><time>2026-04-25T14:23:02.000Z</time><hdop>3.0</hdop><vdop>3.0</vdop><extensions><gom:speed>0.0</gom:speed></extensions></trkpt>
   <trkpt lat="59.0928600842" lon="29.9899452575"><ele>94.832</ele><time>2026-04-25T14:23:03.000Z</time><hdop>3.0</hdop><vdop>3.0</vdop><extensions><gom:speed>0.0</gom:speed></extensions></trkpt>
   <trkpt lat="59.0928600842" lon="29.9899452575"><ele>94.832</ele><time>2026-04-25T14:23:04.000Z</time><hdop>3.0</hdop><vdop>3.0</vdop><extensions><gom:speed>0.0</gom:speed></extensions></trkpt>
   <trkpt lat="59.092866664" lon="29.989959842"><ele>94.802</ele><time>2026-04-25T14:23:05.000Z</time><hdop>3.0</hdop><vdop>3.0</vdop><extensions><gom:speed>0.712</gom:speed></extensions></trkpt>
   <trkpt lat="59.0928721542" lon="29.9899801262"><ele>94.795</ele><time>2026-04-25T14:23:06.000Z</time><hdop>3.375</hdop><vdop>3.375</vdop><extensions><gom:speed>1.321</gom:speed></extensions></trkpt>
   <trkpt lat="59.0928800332" lon="29.9900175095"><ele>94.658</ele><time>2026-04-25T14:23:07.000Z</time><hdop>3.625</hdop><vdop>3.625</vdop><extensions><gom:speed>1.818</gom:speed></extensions></trkpt>
   <trkpt lat="59.0928800332" lon="29.9900175095"><ele>94.577</ele><time>2026-04-25T14:23:07.000Z</time><hdop>3.625</hdop><vdop>3.625</vdop><extensions><gom:speed>1.818</gom:speed></extensions></trkpt>
   <trkpt lat="59.0928918936" lon="29.9900504504"><ele>94.757</ele><time>2026-04-25T14:23:08.000Z</time><hdop>3.5</hdop><vdop>3.5</vdop><extensions><gom:speed>1.474</gom:speed></extensions></trkpt>
   <trkpt lat="59.092896336" lon="29.9900792003"><ele>94.937</ele><time>2026-04-25T14:23:09.000Z</time><hdop>3.75</hdop><vdop>3.75</vdop><extensions><gom:speed>1.361</gom:speed></extensions></trkpt>
   <trkpt lat="59.0929009879" lon="29.9901086208"><ele>95.108</ele><time>2026-04-25T14:23:10.000Z</time><hdop>3.812</hdop><vdop>3.812</vdop><extensions><gom:speed>1.454</gom:speed></extensions></trkpt>
   <trkpt lat="59.0929063104" lon="29.9901378736"><ele>95.224</ele><time>2026-04-25T14:23:11.000Z</time><hdop>4.0</hdop><vdop>4.0</vdop><extensions><gom:speed>1.531</gom:speed></extensions></trkpt>
   <trkpt lat="59.0929108367" lon="29.9901657854"><ele>95.489</ele><time>2026-04-25T14:23:12.000Z</time><hdop>4.187</hdop><vdop>4.187</vdop><extensions><gom:speed>1.315</gom:speed></extensions></trkpt>
   <trkpt lat="59.0929152372" lon="29.990196044"><ele>95.673</ele><time>2026-04-25T14:23:13.000Z</time><hdop>4.312</hdop><vdop>4.312</vdop><extensions><gom:speed>1.581</gom:speed></extensions></trkpt>
   <trkpt lat="59.0929197634" lon="29.9902270571"><ele>95.908</ele><time>2026-04-25T14:23:14.000Z</time><hdop>4.312</hdop><vdop>4.312</vdop><extensions><gom:speed>1.375</gom:speed></extensions></trkpt>
   <trkpt lat="59.0929249183" lon="29.9902582378"><ele>96.186</ele><time>2026-04-25T14:23:15.000Z</time><hdop>4.25</hdop><vdop>4.25</vdop><extensions><gom:speed>1.45</gom:speed></extensions></trkpt>
   <trkpt lat="59.0929377426" lon="29.9902767618"><ele>96.607</ele><time>2026-04-25T14:23:16.000Z</time><hdop>4.25</hdop><vdop>4.25</vdop><extensions><gom:speed>1.194</gom:speed></extensions></trkpt>
   <trkpt lat="59.0929434423" lon="29.9903002311"><ele>96.809</ele><time>2026-04-25T14:23:17.000Z</time><hdop>4.375</hdop><vdop>4.375</vdop><extensions><gom:speed>1.095</gom:speed></extensions></trkpt>
   <trkpt lat="59.0929467531" lon="29.990321102"><ele>97.094</ele><time>2026-04-25T14:23:18.000Z</time><hdop>4.125</hdop><vdop>4.125</vdop><extensions><gom:speed>1.255</gom:speed></extensions></trkpt>
   <trkpt lat="59.0929552607" lon="29.9903607484"><ele>95.311</ele><time>2026-04-25T14:23:19.000Z</time><hdop>4.687</hdop><vdop>4.687</vdop><extensions><gom:speed>1.425</gom:speed></extensions></trkpt>
   <trkpt lat="59.0929571048" lon="29.9904008978"><ele>94.345</ele><time>2026-04-25T14:23:20.000Z</time><hdop>4.687</hdop><vdop>4.687</vdop><extensions><gom:speed>1.041</gom:speed></extensions></trkpt>
   <trkpt lat="59.0929541711" lon="29.9904340063"><ele>93.877</ele><time>2026-04-25T14:23:21.000Z</time><hdop>4.687</hdop><vdop>4.687</vdop><extensions><gom:speed>0.748</gom:speed></extensions></trkpt>
   <trkpt lat="59.09295744" lon="29.9904686235"><ele>94.277</ele><time>2026-04-25T14:23:22.000Z</time><hdop>3.062</hdop><vdop>3.062</vdop><extensions><gom:speed>0.666</gom:speed></extensions></trkpt>
   <trkpt lat="59.0929685041" lon="29.9904938531"><ele>94.718</ele><time>2026-04-25T14:23:23.000Z</time><hdop>3.062</hdop><vdop>3.062</vdop><extensions><gom:speed>1.888</gom:speed></extensions></trkpt>
   <trkpt lat="59.0929690071" lon="29.9905046657"><ele>95.283</ele><time>2026-04-25T14:23:24.000Z</time><hdop>3.937</hdop><vdop>3.937</vdop><extensions><gom:speed>0.619</gom:speed></extensions></trkpt>
   <trkpt lat="59.0929756707" lon="29.9905327451"><ele>95.33</ele><time>2026-04-25T14:23:25.000Z</time><hdop>4.625</hdop><vdop>4.625</vdop><extensions><gom:speed>0.273</gom:speed></extensions></trkpt>
   <trkpt lat="59.0929743715" lon="29.9905531969"><ele>95.512</ele><time>2026-04-25T14:23:26.000Z</time><hdop>4.875</hdop><vdop>4.875</vdop><extensions><gom:speed>0.276</gom:speed></extensions></trkpt>
   <trkpt lat="59.0929827115" lon="29.9905672785"><ele>95.758</ele><time>2026-04-25T14:23:27.000Z</time><hdop>4.687</hdop><vdop>4.687</vdop><extensions><gom:speed>0.226</gom:speed></extensions></trkpt>
   <trkpt lat="59.0929827115" lon="29.9905672785"><ele>95.906</ele><time>2026-04-25T14:23:27.000Z</time><hdop>4.687</hdop><vdop>4.687</vdop><extensions><gom:speed>0.226</gom:speed></extensions></trkpt>
   <trkpt lat="59.0929968769" lon="29.9906030693"><ele>96.887</ele><time>2026-04-25T14:23:28.000Z</time><hdop>3.687</hdop><vdop>3.687</vdop><extensions><gom:speed>1.479</gom:speed></extensions></trkpt>
   <trkpt lat="59.0930141855" lon="29.9906511814"><ele>97.482</ele><time>2026-04-25T14:23:29.000Z</time><hdop>3.437</hdop><vdop>3.437</vdop><extensions><gom:speed>1.611</gom:speed></extensions></trkpt>
   <trkpt lat="59.0930296082" lon="29.9906967789"><ele>97.873</ele><time>2026-04-25T14:23:30.000Z</time><hdop>3.375</hdop><vdop>3.375</vdop><extensions><gom:speed>1.487</gom:speed></extensions></trkpt>
   <trkpt lat="59.093038535" lon="29.9907340784"><ele>98.184</ele><time>2026-04-25T14:23:31.000Z</time><hdop>4.062</hdop><vdop>4.062</vdop><extensions><gom:speed>1.67</gom:speed></extensions></trkpt>
   <trkpt lat="59.0930457015" lon="29.9907602299"><ele>98.425</ele><time>2026-04-25T14:23:32.000Z</time><hdop>4.125</hdop><vdop>4.125</vdop><extensions><gom:speed>1.72</gom:speed></extensions></trkpt>
   <trkpt lat="59.0930511078" lon="29.9907872197"><ele>98.643</ele><time>2026-04-25T14:23:33.000Z</time><hdop>4.062</hdop><vdop>4.062</vdop><extensions><gom:speed>1.427</gom:speed></extensions></trkpt>
   <trkpt lat="59.0930561789" lon="29.990812533"><ele>98.819</ele><time>2026-04-25T14:23:34.000Z</time><hdop>3.875</hdop><vdop>3.875</vdop><extensions><gom:speed>1.344</gom:speed></extensions></trkpt>
   <trkpt lat="59.0930597831" lon="29.9908376787"><ele>99.01</ele><time>2026-04-25T14:23:35.000Z</time><hdop>3.875</hdop><vdop>3.875</vdop><extensions><gom:speed>1.295</gom:speed></extensions></trkpt>
   <trkpt lat="59.0930674944" lon="29.9908733856"><ele>99.261</ele><time>2026-04-25T14:23:36.000Z</time><hdop>3.937</hdop><vdop>3.937</vdop><extensions><gom:speed>1.509</gom:speed></extensions></trkpt>
   <trkpt lat="59.0930713082" lon="29.9909017165"><ele>99.495</ele><time>2026-04-25T14:23:37.000Z</time><hdop>3.687</hdop><vdop>3.687</vdop><extensions><gom:speed>1.573</gom:speed></extensions></trkpt>
   <trkpt lat="59.0930742838" lon="29.9909309693"><ele>99.713</ele><time>2026-04-25T14:23:38.000Z</time><hdop>3.437</hdop><vdop>3.437</vdop><extensions><gom:speed>1.489</gom:speed></extensions></trkpt>
   <trkpt lat="59.0930773432" lon="29.9909596354"><ele>99.916</ele><time>2026-04-25T14:23:39.000Z</time><hdop>3.312</hdop><vdop>3.312</vdop><extensions><gom:speed>1.597</gom:speed></extensions></trkpt>
   <trkpt lat="59.0930825399" lon="29.9909983598"><ele>99.876</ele><time>2026-04-25T14:23:40.000Z</time><hdop>3.312</hdop><vdop>3.312</vdop><extensions><gom:speed>1.748</gom:speed></extensions></trkpt>
   <trkpt lat="59.0930871081" lon="29.9910292052"><ele>99.954</ele><time>2026-04-25T14:23:41.000Z</time><hdop>3.25</hdop><vdop>3.25</vdop><extensions><gom:speed>1.712</gom:speed></extensions></trkpt>
   <trkpt lat="59.0930950709" lon="29.9910670076"><ele>100.058</ele><time>2026-04-25T14:23:42.000Z</time><hdop>3.187</hdop><vdop>3.187</vdop><extensions><gom:speed>1.733</gom:speed></extensions></trkpt>
   <trkpt lat="59.0931002677" lon="29.9910959252"><ele>100.261</ele><time>2026-04-25T14:23:43.000Z</time><hdop>3.687</hdop><vdop>3.687</vdop><extensions><gom:speed>1.588</gom:speed></extensions></trkpt>
   <trkpt lat="59.0931079371" lon="29.991124256"><ele>100.444</ele><time>2026-04-25T14:23:44.000Z</time><hdop>3.75</hdop><vdop>3.75</vdop><extensions><gom:speed>1.425</gom:speed></extensions></trkpt>
   <trkpt lat="59.0931156904" lon="29.991156694"><ele>100.525</ele><time>2026-04-25T14:23:45.000Z</time><hdop>3.812</hdop><vdop>3.812</vdop><extensions><gom:speed>1.538</gom:speed></extensions></trkpt>
   <trkpt lat="59.0931173667" lon="29.9911877908"><ele>100.673</ele><time>2026-04-25T14:23:46.000Z</time><hdop>4.125</hdop><vdop>4.125</vdop><extensions><gom:speed>1.605</gom:speed></extensions></trkpt>
   <trkpt lat="59.093120049" lon="29.9912294489"><ele>100.738</ele><time>2026-04-25T14:23:47.000Z</time><hdop>4.312</hdop><vdop>4.312</vdop><extensions><gom:speed>1.714</gom:speed></extensions></trkpt>
   <trkpt lat="59.093120049" lon="29.9912294489"><ele>100.777</ele><time>2026-04-25T14:23:47.000Z</time><hdop>4.312</hdop><vdop>4.312</vdop><extensions><gom:speed>1.714</gom:speed></extensions></trkpt>
   <trkpt lat="59.0931252457" lon="29.9912695144"><ele>100.742</ele><time>2026-04-25T14:23:48.000Z</time><hdop>4.562</hdop><vdop>4.562</vdop><extensions><gom:speed>1.774</gom:speed></extensions></trkpt>
   <trkpt lat="59.0931302749" lon="29.9913014494"><ele>100.824</ele><time>2026-04-25T14:23:49.000Z</time><hdop>4.312</hdop><vdop>4.312</vdop><extensions><gom:speed>1.727</gom:speed></extensions></trkpt>
   <trkpt lat="59.0931387825" lon="29.9913393356"><ele>100.837</ele><time>2026-04-25T14:23:50.000Z</time><hdop>4.0</hdop><vdop>4.0</vdop><extensions><gom:speed>1.803</gom:speed></extensions></trkpt>
   <trkpt lat="59.0931475416" lon="29.9913731147"><ele>100.947</ele><time>2026-04-25T14:23:51.000Z</time><hdop>3.687</hdop><vdop>3.687</vdop><extensions><gom:speed>1.814</gom:speed></extensions></trkpt>
   <trkpt lat="59.0931550434" lon="29.991404463"><ele>101.107</ele><time>2026-04-25T14:23:52.000Z</time><hdop>3.562</hdop><vdop>3.562</vdop><extensions><gom:speed>1.898</gom:speed></extensions></trkpt>
   <trkpt lat="59.093162168" lon="29.9914363143"><ele>101.201</ele><time>2026-04-25T14:23:53.000Z</time><hdop>3.5</hdop><vdop>3.5</vdop><extensions><gom:speed>1.945</gom:speed></extensions></trkpt>
   <trkpt lat="59.0931664428" lon="29.9914747872"><ele>101.17</ele><time>2026-04-25T14:23:54.000Z</time><hdop>3.5</hdop><vdop>3.5</vdop><extensions><gom:speed>1.568</gom:speed></extensions></trkpt>
   <trkpt lat="59.0931697956" lon="29.9915019446"><ele>101.229</ele><time>2026-04-25T14:23:55.000Z</time><hdop>3.875</hdop><vdop>3.875</vdop><extensions><gom:speed>1.456</gom:speed></extensions></trkpt>
   <trkpt lat="59.0931759982" lon="29.9915311974"><ele>101.299</ele><time>2026-04-25T14:23:56.000Z</time><hdop>3.812</hdop><vdop>3.812</vdop><extensions><gom:speed>1.652</gom:speed></extensions></trkpt>
   <trkpt lat="59.093182117" lon="29.9915642221"><ele>101.357</ele><time>2026-04-25T14:23:57.000Z</time><hdop>3.625</hdop><vdop>3.625</vdop><extensions><gom:speed>1.81</gom:speed></extensions></trkpt>
   <trkpt lat="59.0931874814" lon="29.9916016054"><ele>101.345</ele><time>2026-04-25T14:23:58.000Z</time><hdop>3.687</hdop><vdop>3.687</vdop><extensions><gom:speed>1.868</gom:speed></extensions></trkpt>
   <trkpt lat="59.0931919238" lon="29.9916296009"><ele>101.342</ele><time>2026-04-25T14:23:59.000Z</time><hdop>3.75</hdop><vdop>3.75</vdop><extensions><gom:speed>1.416</gom:speed></extensions></trkpt>
   <trkpt lat="59.0931985036" lon="29.9916589376"><ele>101.305</ele><time>2026-04-25T14:24:00.000Z</time><hdop>3.75</hdop><vdop>3.75</vdop><extensions><gom:speed>1.47</gom:speed></extensions></trkpt>
   <trkpt lat="59.0932059216" lon="29.9916922138"><ele>101.225</ele><time>2026-04-25T14:24:01.000Z</time><hdop>4.062</hdop><vdop>4.062</vdop><extensions><gom:speed>1.634</gom:speed></extensions></trkpt>
   <trkpt lat="59.0932152255" lon="29.9917252385"><ele>101.103</ele><time>2026-04-25T14:24:02.000Z</time><hdop>3.937</hdop><vdop>3.937</vdop><extensions><gom:speed>1.705</gom:speed></extensions></trkpt>
   <trkpt lat="59.0932248227" lon="29.9917556648"><ele>100.987</ele><time>2026-04-25T14:24:03.000Z</time><hdop>3.812</hdop><vdop>3.812</vdop><extensions><gom:speed>1.712</gom:speed></extensions></trkpt>
   <trkpt lat="59.0932340428" lon="29.9917860073"><ele>100.914</ele><time>2026-04-25T14:24:04.000Z</time><hdop>3.562</hdop><vdop>3.562</vdop><extensions><gom:speed>1.817</gom:speed></extensions></trkpt>
   <trkpt lat="59.0932402035" lon="29.9918209598"><ele>100.848</ele><time>2026-04-25T14:24:05.000Z</time><hdop>3.625</hdop><vdop>3.625</vdop><extensions><gom:speed>1.804</gom:speed></extensions></trkpt>
   <trkpt lat="59.0932472443" lon="29.9918549065"><ele>100.799</ele><time>2026-04-25T14:24:06.000Z</time><hdop>3.687</hdop><vdop>3.687</vdop><extensions><gom:speed>1.836</gom:speed></extensions></trkpt>
   <trkpt lat="59.0932517706" lon="29.9918947205"><ele>100.795</ele><time>2026-04-25T14:24:07.000Z</time><hdop>3.812</hdop><vdop>3.812</vdop><extensions><gom:speed>2.11</gom:speed></extensions></trkpt>
   <trkpt lat="59.0932517706" lon="29.9918947205"><ele>100.792</ele><time>2026-04-25T14:24:07.000Z</time><hdop>3.812</hdop><vdop>3.812</vdop><extensions><gom:speed>2.11</gom:speed></extensions></trkpt>
   <trkpt lat="59.0932531117" lon="29.9919304274"><ele>100.826</ele><time>2026-04-25T14:24:08.000Z</time><hdop>3.812</hdop><vdop>3.812</vdop><extensions><gom:speed>1.708</gom:speed></extensions></trkpt>
   <trkpt lat="59.0932588533" lon="29.9919684813"><ele>100.878</ele><time>2026-04-25T14:24:09.000Z</time><hdop>3.75</hdop><vdop>3.75</vdop><extensions><gom:speed>1.66</gom:speed></extensions></trkpt>
   <trkpt lat="59.0932614936" lon="29.9920012545"><ele>100.95</ele><time>2026-04-25T14:24:10.000Z</time><hdop>3.625</hdop><vdop>3.625</vdop><extensions><gom:speed>1.706</gom:speed></extensions></trkpt>
   <trkpt lat="59.0932679476" lon="29.9920383864"><ele>101.019</ele><time>2026-04-25T14:24:11.000Z</time><hdop>3.5</hdop><vdop>3.5</vdop><extensions><gom:speed>1.752</gom:speed></extensions></trkpt>
   <trkpt lat="59.093274737" lon="29.9920749315"><ele>101.029</ele><time>2026-04-25T14:24:12.000Z</time><hdop>3.375</hdop><vdop>3.375</vdop><extensions><gom:speed>1.975</gom:speed></extensions></trkpt>
   <trkpt lat="59.0932829512" lon="29.99212933"><ele>100.886</ele><time>2026-04-25T14:24:13.000Z</time><hdop>3.25</hdop><vdop>3.25</vdop><extensions><gom:speed>2.073</gom:speed></extensions></trkpt>
   <trkpt lat="59.0932877708" lon="29.9921848182"><ele>100.692</ele><time>2026-04-25T14:24:14.000Z</time><hdop>3.25</hdop><vdop>3.25</vdop><extensions><gom:speed>2.016</gom:speed></extensions></trkpt>
   <trkpt lat="59.0932924647" lon="29.9922223691"><ele>100.494</ele><time>2026-04-25T14:24:15.000Z</time><hdop>3.75</hdop><vdop>3.75</vdop><extensions><gom:speed>1.837</gom:speed></extensions></trkpt>
   <trkpt lat="59.0932993798" lon="29.9922558967"><ele>100.341</ele><time>2026-04-25T14:24:16.000Z</time><hdop>3.687</hdop><vdop>3.687</vdop><extensions><gom:speed>1.609</gom:speed></extensions></trkpt>
   <trkpt lat="59.0933053309" lon="29.9922875803"><ele>100.213</ele><time>2026-04-25T14:24:17.000Z</time><hdop>3.562</hdop><vdop>3.562</vdop><extensions><gom:speed>1.776</gom:speed></extensions></trkpt>
   <trkpt lat="59.0933098572" lon="29.9923247122"><ele>100.09</ele><time>2026-04-25T14:24:18.000Z</time><hdop>3.312</hdop><vdop>3.312</vdop><extensions><gom:speed>1.735</gom:speed></extensions></trkpt>
   <trkpt lat="59.0933157664" lon="29.9923625146"><ele>99.949</ele><time>2026-04-25T14:24:19.000Z</time><hdop>3.25</hdop><vdop>3.25</vdop><extensions><gom:speed>1.837</gom:speed></extensions></trkpt>
   <trkpt lat="59.0933226396" lon="29.9923998978"><ele>99.788</ele><time>2026-04-25T14:24:20.000Z</time><hdop>3.25</hdop><vdop>3.25</vdop><extensions><gom:speed>2.081</gom:speed></extensions></trkpt>
   <trkpt lat="59.0933306862" lon="29.9924356886"><ele>99.604</ele><time>2026-04-25T14:24:21.000Z</time><hdop>3.562</hdop><vdop>3.562</vdop><extensions><gom:speed>1.972</gom:speed></extensions></trkpt>
   <trkpt lat="59.0933373917" lon="29.9924658634"><ele>99.411</ele><time>2026-04-25T14:24:22.000Z</time><hdop>3.312</hdop><vdop>3.312</vdop><extensions><gom:speed>1.791</gom:speed></extensions></trkpt>
   <trkpt lat="59.0933436781" lon="29.9924937752"><ele>99.196</ele><time>2026-04-25T14:24:23.000Z</time><hdop>3.125</hdop><vdop>3.125</vdop><extensions><gom:speed>1.813</gom:speed></extensions></trkpt>
   <trkpt lat="59.093352521" lon="29.992529063"><ele>98.985</ele><time>2026-04-25T14:24:24.000Z</time><hdop>3.125</hdop><vdop>3.125</vdop><extensions><gom:speed>1.946</gom:speed></extensions></trkpt>
   <trkpt lat="59.0933572568" lon="29.9925643508"><ele>98.778</ele><time>2026-04-25T14:24:25.000Z</time><hdop>3.437</hdop><vdop>3.437</vdop><extensions><gom:speed>1.921</gom:speed></extensions></trkpt>
   <trkpt lat="59.0933639623" lon="29.99259528"><ele>98.56</ele><time>2026-04-25T14:24:26.000Z</time><hdop>3.375</hdop><vdop>3.375</vdop><extensions><gom:speed>1.897</gom:speed></extensions></trkpt>
   <trkpt lat="59.0933708774" lon="29.992626796"><ele>98.316</ele><time>2026-04-25T14:24:27.000Z</time><hdop>3.437</hdop><vdop>3.437</vdop><extensions><gom:speed>1.832</gom:speed></extensions></trkpt>
   <trkpt lat="59.0933708774" lon="29.992626796"><ele>98.17</ele><time>2026-04-25T14:24:27.000Z</time><hdop>3.437</hdop><vdop>3.437</vdop><extensions><gom:speed>1.832</gom:speed></extensions></trkpt>
   <trkpt lat="59.0933781697" lon="29.9926573061"><ele>98.027</ele><time>2026-04-25T14:24:28.000Z</time><hdop>3.312</hdop><vdop>3.312</vdop><extensions><gom:speed>1.952</gom:speed></extensions></trkpt>
   <trkpt lat="59.0933844142" lon="29.9926894088"><ele>97.828</ele><time>2026-04-25T14:24:29.000Z</time><hdop>3.437</hdop><vdop>3.437</vdop><extensions><gom:speed>1.962</gom:speed></extensions></trkpt>
   <trkpt lat="59.0933927542" lon="29.9927329947"><ele>97.673</ele><time>2026-04-25T14:24:30.000Z</time><hdop>3.75</hdop><vdop>3.75</vdop><extensions><gom:speed>2.113</gom:speed></extensions></trkpt>
   <trkpt lat="59.0933980348" lon="29.9927738145"><ele>97.67</ele><time>2026-04-25T14:24:31.000Z</time><hdop>4.5</hdop><vdop>4.5</vdop><extensions><gom:speed>2.222</gom:speed></extensions></trkpt>
   <trkpt lat="59.0933986634" lon="29.992836595"><ele>97.686</ele><time>2026-04-25T14:24:32.000Z</time><hdop>4.5</hdop><vdop>4.5</vdop><extensions><gom:speed>2.33</gom:speed></extensions></trkpt>
   <trkpt lat="59.0934026448" lon="29.9928862997"><ele>97.616</ele><time>2026-04-25T14:24:33.000Z</time><hdop>4.437</hdop><vdop>4.437</vdop><extensions><gom:speed>2.183</gom:speed></extensions></trkpt>
   <trkpt lat="59.0934069615" lon="29.992936172"><ele>97.445</ele><time>2026-04-25T14:24:34.000Z</time><hdop>4.187</hdop><vdop>4.187</vdop><extensions><gom:speed>2.278</gom:speed></extensions></trkpt>
   <trkpt lat="59.0934107753" lon="29.992979255"><ele>97.238</ele><time>2026-04-25T14:24:35.000Z</time><hdop>4.062</hdop><vdop>4.062</vdop><extensions><gom:speed>2.054</gom:speed></extensions></trkpt>
   <trkpt lat="59.0934140023" lon="29.9930213321"><ele>96.994</ele><time>2026-04-25T14:24:36.000Z</time><hdop>3.625</hdop><vdop>3.625</vdop><extensions><gom:speed>2.006</gom:speed></extensions></trkpt>
   <trkpt lat="59.0934165169" lon="29.9930641637"><ele>96.587</ele><time>2026-04-25T14:24:37.000Z</time><hdop>3.562</hdop><vdop>3.562</vdop><extensions><gom:speed>2.17</gom:speed></extensions></trkpt>
   <trkpt lat="59.09341878" lon="29.9931023851"><ele>96.29</ele><time>2026-04-25T14:24:38.000Z</time><hdop>3.375</hdop><vdop>3.375</vdop><extensions><gom:speed>1.752</gom:speed></extensions></trkpt>
   <trkpt lat="59.0934226357" lon="29.9931389302"><ele>96.097</ele><time>2026-04-25T14:24:39.000Z</time><hdop>3.187</hdop><vdop>3.187</vdop><extensions><gom:speed>1.984</gom:speed></extensions></trkpt>
   <trkpt lat="59.0934292155" lon="29.9931720388"><ele>95.983</ele><time>2026-04-25T14:24:40.000Z</time><hdop>3.187</hdop><vdop>3.187</vdop><extensions><gom:speed>2.007</gom:speed></extensions></trkpt>
   <trkpt lat="59.0934382679" lon="29.9932091706"><ele>95.887</ele><time>2026-04-25T14:24:41.000Z</time><hdop>3.125</hdop><vdop>3.125</vdop><extensions><gom:speed>2.192</gom:speed></extensions></trkpt>
   <trkpt lat="59.093448871" lon="29.9932474759"><ele>95.724</ele><time>2026-04-25T14:24:42.000Z</time><hdop>3.0</hdop><vdop>3.0</vdop><extensions><gom:speed>2.318</gom:speed></extensions></trkpt>
   <trkpt lat="59.0934582168" lon="29.9932851945"><ele>95.468</ele><time>2026-04-25T14:24:43.000Z</time><hdop>3.0</hdop><vdop>3.0</vdop><extensions><gom:speed>1.922</gom:speed></extensions></trkpt>
   <trkpt lat="59.0934658444" lon="29.9933198117"><ele>95.319</ele><time>2026-04-25T14:24:44.000Z</time><hdop>3.0</hdop><vdop>3.0</vdop><extensions><gom:speed>1.871</gom:speed></extensions></trkpt>
   <trkpt lat="59.0934719632" lon="29.9933557701"><ele>95.114</ele><time>2026-04-25T14:24:45.000Z</time><hdop>3.0</hdop><vdop>3.0</vdop><extensions><gom:speed>2.169</gom:speed></extensions></trkpt>
   <trkpt lat="59.0934805546" lon="29.993394243"><ele>94.871</ele><time>2026-04-25T14:24:46.000Z</time><hdop>3.0</hdop><vdop>3.0</vdop><extensions><gom:speed>2.126</gom:speed></extensions></trkpt>
   <trkpt lat="59.0934879307" lon="29.9934284412"><ele>94.681</ele><time>2026-04-25T14:24:47.000Z</time><hdop>3.0</hdop><vdop>3.0</vdop><extensions><gom:speed>2.107</gom:speed></extensions></trkpt>
   <trkpt lat="59.0934879307" lon="29.9934284412"><ele>94.567</ele><time>2026-04-25T14:24:47.000Z</time><hdop>3.0</hdop><vdop>3.0</vdop><extensions><gom:speed>2.107</gom:speed></extensions></trkpt>
   <trkpt lat="59.0934954325" lon="29.9934607115"><ele>94.457</ele><time>2026-04-25T14:24:48.000Z</time><hdop>3.0</hdop><vdop>3.0</vdop><extensions><gom:speed>2.096</gom:speed></extensions></trkpt>
   <trkpt lat="59.0935012579" lon="29.9934985977"><ele>94.329</ele><time>2026-04-25T14:24:49.000Z</time><hdop>3.0</hdop><vdop>3.0</vdop><extensions><gom:speed>1.981</gom:speed></extensions></trkpt>
   <trkpt lat="59.0935088016" lon="29.9935283535"><ele>94.231</ele><time>2026-04-25T14:24:50.000Z</time><hdop>3.0</hdop><vdop>3.0</vdop><extensions><gom:speed>1.837</gom:speed></extensions></trkpt>
   <trkpt lat="59.0935176864" lon="29.9935542535"><ele>94.092</ele><time>2026-04-25T14:24:51.000Z</time><hdop>3.0</hdop><vdop>3.0</vdop><extensions><gom:speed>1.787</gom:speed></extensions></trkpt>
   <trkpt lat="59.0935245177" lon="29.9935801536"><ele>93.919</ele><time>2026-04-25T14:24:52.000Z</time><hdop>3.0</hdop><vdop>3.0</vdop><extensions><gom:speed>1.591</gom:speed></extensions></trkpt>
   <trkpt lat="59.0935293373" lon="29.9936115019"><ele>93.691</ele><time>2026-04-25T14:24:53.000Z</time><hdop>3.0</hdop><vdop>3.0</vdop><extensions><gom:speed>1.893</gom:speed></extensions></trkpt>
   <trkpt lat="59.0935341988" lon="29.9936468736"><ele>93.494</ele><time>2026-04-25T14:24:54.000Z</time><hdop>3.0</hdop><vdop>3.0</vdop><extensions><gom:speed>1.796</gom:speed></extensions></trkpt>
   <trkpt lat="59.0935392279" lon="29.9936791439"><ele>93.349</ele><time>2026-04-25T14:24:55.000Z</time><hdop>3.0</hdop><vdop>3.0</vdop><extensions><gom:speed>1.724</gom:speed></extensions></trkpt>
   <trkpt lat="59.0935432932" lon="29.9937083967"><ele>93.233</ele><time>2026-04-25T14:24:56.000Z</time><hdop>3.0</hdop><vdop>3.0</vdop><extensions><gom:speed>1.603</gom:speed></extensions></trkpt>
   <trkpt lat="59.0935499987" lon="29.9937330395"><ele>93.084</ele><time>2026-04-25T14:24:57.000Z</time><hdop>3.0</hdop><vdop>3.0</vdop><extensions><gom:speed>1.529</gom:speed></extensions></trkpt>
   <trkpt lat="59.0935569557" lon="29.9937538267"><ele>93.051</ele><time>2026-04-25T14:24:58.000Z</time><hdop>3.0</hdop><vdop>3.0</vdop><extensions><gom:speed>1.433</gom:speed></extensions></trkpt>
   <trkpt lat="59.0935650442" lon="29.9937766254"><ele>93.11</ele><time>2026-04-25T14:24:59.000Z</time><hdop>3.0</hdop><vdop>3.0</vdop><extensions><gom:speed>1.621</gom:speed></extensions></trkpt>
   <trkpt lat="59.0935729232" lon="29.9938071356"><ele>92.994</ele><time>2026-04-25T14:25:00.000Z</time><hdop>3.0</hdop><vdop>3.0</vdop><extensions><gom:speed>1.872</gom:speed></extensions></trkpt>
   <trkpt lat="59.0935811794" lon="29.9938381486"><ele>92.912</ele><time>2026-04-25T14:25:01.000Z</time><hdop>3.0</hdop><vdop>3.0</vdop><extensions><gom:speed>1.808</gom:speed></extensions></trkpt>
   <trkpt lat="59.0935872562" lon="29.9938661442"><ele>92.829</ele><time>2026-04-25T14:25:02.000Z</time><hdop>3.0</hdop><vdop>3.0</vdop><extensions><gom:speed>1.698</gom:speed></extensions></trkpt>
   <trkpt lat="59.0935938779" lon="29.993890284"><ele>92.838</ele><time>2026-04-25T14:25:03.000Z</time><hdop>3.0</hdop><vdop>3.0</vdop><extensions><gom:speed>1.532</gom:speed></extensions></trkpt>
   <trkpt lat="59.0936019246" lon="29.9939150107"><ele>92.848</ele><time>2026-04-25T14:25:04.000Z</time><hdop>3.0</hdop><vdop>3.0</vdop><extensions><gom:speed>1.606</gom:speed></extensions></trkpt>
   <trkpt lat="59.0936103484" lon="29.9939405755"><ele>92.95</ele><time>2026-04-25T14:25:05.000Z</time><hdop>3.0</hdop><vdop>3.0</vdop><extensions><gom:speed>1.765</gom:speed></extensions></trkpt>
   <trkpt lat="59.0936164253" lon="29.9939563334"><ele>93.038</ele><time>2026-04-25T14:25:06.000Z</time><hdop>3.0</hdop><vdop>3.0</vdop><extensions><gom:speed>0.872</gom:speed></extensions></trkpt>
   <trkpt lat="59.093623969" lon="29.9939725943"><ele>93.06</ele><time>2026-04-25T14:25:07.000Z</time><hdop>3.0</hdop><vdop>3.0</vdop><extensions><gom:speed>1.538</gom:speed></extensions></trkpt>
   <trkpt lat="59.093623969" lon="29.9939725943"><ele>93.074</ele><time>2026-04-25T14:25:07.000Z</time><hdop>3.0</hdop><vdop>3.0</vdop><extensions><gom:speed>1.538</gom:speed></extensions></trkpt>
   <trkpt lat="59.0936305907" lon="29.9939984944"><ele>93.036</ele><time>2026-04-25T14:25:08.000Z</time><hdop>3.0</hdop><vdop>3.0</vdop><extensions><gom:speed>1.369</gom:speed></extensions></trkpt>
   <trkpt lat="59.0936363742" lon="29.9940176052"><ele>93.001</ele><time>2026-04-25T14:25:09.000Z</time><hdop>3.0</hdop><vdop>3.0</vdop><extensions><gom:speed>1.188</gom:speed></extensions></trkpt>
   <trkpt lat="59.0936385954" lon="29.994034369"><ele>93.008</ele><time>2026-04-25T14:25:10.000Z</time><hdop>3.0</hdop><vdop>3.0</vdop><extensions><gom:speed>0.841</gom:speed></extensions></trkpt>
   <trkpt lat="59.0936411519" lon="29.9940532282"><ele>93.029</ele><time>2026-04-25T14:25:11.000Z</time><hdop>3.0</hdop><vdop>3.0</vdop><extensions><gom:speed>1.263</gom:speed></extensions></trkpt>
   <trkpt lat="59.0936476479" lon="29.9940731772"><ele>93.137</ele><time>2026-04-25T14:25:12.000Z</time><hdop>3.0</hdop><vdop>3.0</vdop><extensions><gom:speed>1.365</gom:speed></extensions></trkpt>
   <trkpt lat="59.0936531799" lon="29.9940950539"><ele>93.142</ele><time>2026-04-25T14:25:13.000Z</time><hdop>3.0</hdop><vdop>3.0</vdop><extensions><gom:speed>1.679</gom:speed></extensions></trkpt>
   <trkpt lat="59.0936569099" lon="29.9941178527"><ele>93.177</ele><time>2026-04-25T14:25:14.000Z</time><hdop>3.0</hdop><vdop>3.0</vdop><extensions><gom:speed>1.105</gom:speed></extensions></trkpt>
   <trkpt lat="59.0936613523" lon="29.9941240553"><ele>93.11</ele><time>2026-04-25T14:25:15.000Z</time><hdop>3.0</hdop><vdop>3.0</vdop><extensions><gom:speed>0.442</gom:speed></extensions></trkpt>
   <trkpt lat="59.0936649146" lon="29.9941240553"><ele>93.079</ele><time>2026-04-25T14:25:16.000Z</time><hdop>3.0</hdop><vdop>3.0</vdop><extensions><gom:speed>0.304</gom:speed></extensions></trkpt>
   <trkpt lat="59.09366613" lon="29.9941212893"><ele>92.983</ele><time>2026-04-25T14:25:17.000Z</time><hdop>3.0</hdop><vdop>3.0</vdop><extensions><gom:speed>0.628</gom:speed></extensions></trkpt>
   <trkpt lat="59.09366613" lon="29.9941212893"><ele>92.926</ele><time>2026-04-25T14:25:18.000Z</time><hdop>3.0</hdop><vdop>3.0</vdop><extensions><gom:speed>0.0</gom:speed></extensions></trkpt>
   <trkpt lat="59.09366613" lon="29.9941212893"><ele>92.892</ele><time>2026-04-25T14:25:19.000Z</time><hdop>3.0</hdop><vdop>3.0</vdop><extensions><gom:speed>0.0</gom:speed></extensions></trkpt>
   <trkpt lat="59.0936657109" lon="29.9941248935"><ele>92.959</ele><time>2026-04-25T14:25:20.000Z</time><hdop>3.0</hdop><vdop>3.0</vdop><extensions><gom:speed>0.346</gom:speed></extensions></trkpt>
   <trkpt lat="59.0936614361" lon="29.9941248935"><ele>93.058</ele><time>2026-04-25T14:25:21.000Z</time><hdop>3.0</hdop><vdop>3.0</vdop><extensions><gom:speed>0.298</gom:speed></extensions></trkpt>
   <trkpt lat="59.0936614361" lon="29.9941248935"><ele>93.117</ele><time>2026-04-25T14:25:22.000Z</time><hdop>3.0</hdop><vdop>3.0</vdop><extensions><gom:speed>0.0</gom:speed></extensions></trkpt>
   <trkpt lat="59.0936614361" lon="29.9941248935"><ele>93.153</ele><time>2026-04-25T14:25:23.000Z</time><hdop>3.0</hdop><vdop>3.0</vdop><extensions><gom:speed>0.0</gom:speed></extensions></trkpt>
   <trkpt lat="59.0936614361" lon="29.9941248935"><ele>93.174</ele><time>2026-04-25T14:25:24.000Z</time><hdop>3.0</hdop><vdop>3.0</vdop><extensions><gom:speed>0.0</gom:speed></extensions></trkpt>
   <trkpt lat="59.0936614361" lon="29.9941248935"><ele>93.186</ele><time>2026-04-25T14:25:25.000Z</time><hdop>3.0</hdop><vdop>3.0</vdop><extensions><gom:speed>0.0</gom:speed></extensions></trkpt>
   <trkpt lat="59.0936614361" lon="29.9941248935"><ele>93.194</ele><time>2026-04-25T14:25:26.000Z</time><hdop>3.0</hdop><vdop>3.0</vdop><extensions><gom:speed>0.0</gom:speed></extensions></trkpt>
   <trkpt lat="59.0936590472" lon="29.9941263184"><ele>93.184</ele><time>2026-04-25T14:25:27.000Z</time><hdop>3.0</hdop><vdop>3.0</vdop><extensions><gom:speed>0.632</gom:speed></extensions></trkpt>
   <trkpt lat="59.0936590472" lon="29.9941263184"><ele>93.178</ele><time>2026-04-25T14:25:27.000Z</time><hdop>3.0</hdop><vdop>3.0</vdop><extensions><gom:speed>0.632</gom:speed></extensions></trkpt>
   <trkpt lat="59.0936588796" lon="29.9941461835"><ele>93.081</ele><time>2026-04-25T14:25:28.000Z</time><hdop>3.187</hdop><vdop>3.187</vdop><extensions><gom:speed>1.671</gom:speed></extensions></trkpt>
   <trkpt lat="59.0936681835" lon="29.994155236"><ele>93.013</ele><time>2026-04-25T14:25:29.000Z</time><hdop>3.25</hdop><vdop>3.25</vdop><extensions><gom:speed>0.76</gom:speed></extensions></trkpt>
   <trkpt lat="59.0936742185" lon="29.9941569124"><ele>93.087</ele><time>2026-04-25T14:25:30.000Z</time><hdop>3.125</hdop><vdop>3.125</vdop><extensions><gom:speed>0.455</gom:speed></extensions></trkpt>
   <trkpt lat="59.0936766911" lon="29.9941636179"><ele>93.221</ele><time>2026-04-25T14:25:31.000Z</time><hdop>3.187</hdop><vdop>3.187</vdop><extensions><gom:speed>0.484</gom:speed></extensions></trkpt>
   <trkpt lat="59.0936785352" lon="29.9941709102"><ele>93.393</ele><time>2026-04-25T14:25:32.000Z</time><hdop>3.312</hdop><vdop>3.312</vdop><extensions><gom:speed>0.52</gom:speed></extensions></trkpt>
   <trkpt lat="59.0936792057" lon="29.9941813037"><ele>93.621</ele><time>2026-04-25T14:25:33.000Z</time><hdop>3.25</hdop><vdop>3.25</vdop><extensions><gom:speed>0.705</gom:speed></extensions></trkpt>
   <trkpt lat="59.0936802115" lon="29.9941929546"><ele>93.806</ele><time>2026-04-25T14:25:34.000Z</time><hdop>3.062</hdop><vdop>3.062</vdop><extensions><gom:speed>0.793</gom:speed></extensions></trkpt>
   <trkpt lat="59.0936808821" lon="29.9942053598"><ele>93.935</ele><time>2026-04-25T14:25:35.000Z</time><hdop>3.062</hdop><vdop>3.062</vdop><extensions><gom:speed>0.971</gom:speed></extensions></trkpt>
   <trkpt lat="59.0936813012" lon="29.9942206987"><ele>94.098</ele><time>2026-04-25T14:25:36.000Z</time><hdop>3.0</hdop><vdop>3.0</vdop><extensions><gom:speed>1.132</gom:speed></extensions></trkpt>
   <trkpt lat="59.0936825585" lon="29.994232601"><ele>94.342</ele><time>2026-04-25T14:25:37.000Z</time><hdop>3.312</hdop><vdop>3.312</vdop><extensions><gom:speed>0.697</gom:speed></extensions></trkpt>
   <trkpt lat="59.0936823489" lon="29.9942424916"><ele>94.549</ele><time>2026-04-25T14:25:38.000Z</time><hdop>3.437</hdop><vdop>3.437</vdop><extensions><gom:speed>0.895</gom:speed></extensions></trkpt>
   <trkpt lat="59.0936821813" lon="29.9942532205"><ele>94.774</ele><time>2026-04-25T14:25:39.000Z</time><hdop>3.312</hdop><vdop>3.312</vdop><extensions><gom:speed>0.899</gom:speed></extensions></trkpt>
   <trkpt lat="59.0936819717" lon="29.9942692299"><ele>94.927</ele><time>2026-04-25T14:25:40.000Z</time><hdop>3.5</hdop><vdop>3.5</vdop><extensions><gom:speed>0.79</gom:speed></extensions></trkpt>
   <trkpt lat="59.0936805468" lon="29.9942833953"><ele>95.028</ele><time>2026-04-25T14:25:41.000Z</time><hdop>3.375</hdop><vdop>3.375</vdop><extensions><gom:speed>0.801</gom:speed></extensions></trkpt>
   <trkpt lat="59.0936805468" lon="29.9942833953"><ele>95.089</ele><time>2026-04-25T14:25:42.000Z</time><hdop>3.375</hdop><vdop>3.375</vdop><extensions><gom:speed>0.0</gom:speed></extensions></trkpt>
   <trkpt lat="59.0936794153" lon="29.9942847364"><ele>95.233</ele><time>2026-04-25T14:25:43.000Z</time><hdop>3.062</hdop><vdop>3.062</vdop><extensions><gom:speed>0.239</gom:speed></extensions></trkpt>
   <trkpt lat="59.0936794153" lon="29.9942847364"><ele>95.319</ele><time>2026-04-25T14:25:44.000Z</time><hdop>3.062</hdop><vdop>3.062</vdop><extensions><gom:speed>0.0</gom:speed></extensions></trkpt>
   <trkpt lat="59.0936794153" lon="29.9942847364"><ele>95.37</ele><time>2026-04-25T14:25:45.000Z</time><hdop>3.062</hdop><vdop>3.062</vdop><extensions><gom:speed>0.0</gom:speed></extensions></trkpt>
   <trkpt lat="59.0936794153" lon="29.9942847364"><ele>95.4</ele><time>2026-04-25T14:25:46.000Z</time><hdop>3.062</hdop><vdop>3.062</vdop><extensions><gom:speed>0.0</gom:speed></extensions></trkpt>
   <trkpt lat="59.0936799601" lon="29.9942954652"><ele>95.397</ele><time>2026-04-25T14:25:47.000Z</time><hdop>3.187</hdop><vdop>3.187</vdop><extensions><gom:speed>1.147</gom:speed></extensions></trkpt>
   <trkpt lat="59.0936805468" lon="29.994314576"><ele>95.439</ele><time>2026-04-25T14:25:48.000Z</time><hdop>3.375</hdop><vdop>3.375</vdop><extensions><gom:speed>0.976</gom:speed></extensions></trkpt>
   <trkpt lat="59.0936805468" lon="29.994314576"><ele>95.465</ele><time>2026-04-25T14:25:48.000Z</time><hdop>3.375</hdop><vdop>3.375</vdop><extensions><gom:speed>0.976</gom:speed></extensions></trkpt>
   <trkpt lat="59.0936805468" lon="29.994314576"><ele>95.48</ele><time>2026-04-25T14:25:49.000Z</time><hdop>3.375</hdop><vdop>3.375</vdop><extensions><gom:speed>0.0</gom:speed></extensions></trkpt>
   <trkpt lat="59.0936805468" lon="29.994314576"><ele>95.488</ele><time>2026-04-25T14:25:50.000Z</time><hdop>3.375</hdop><vdop>3.375</vdop><extensions><gom:speed>0.0</gom:speed></extensions></trkpt>
   <trkpt lat="59.0936805468" lon="29.994314576"><ele>95.494</ele><time>2026-04-25T14:25:51.000Z</time><hdop>3.375</hdop><vdop>3.375</vdop><extensions><gom:speed>0.0</gom:speed></extensions></trkpt>
   <trkpt lat="59.0936805468" lon="29.994314576"><ele>95.497</ele><time>2026-04-25T14:25:52.000Z</time><hdop>3.375</hdop><vdop>3.375</vdop><extensions><gom:speed>0.0</gom:speed></extensions></trkpt>
   <trkpt lat="59.0936783256" lon="29.9943278194"><ele>95.464</ele><time>2026-04-25T14:25:53.000Z</time><hdop>3.125</hdop><vdop>3.125</vdop><extensions><gom:speed>0.438</gom:speed></extensions></trkpt>
   <trkpt lat="59.0936783256" lon="29.9943278194"><ele>95.445</ele><time>2026-04-25T14:25:54.000Z</time><hdop>3.125</hdop><vdop>3.125</vdop><extensions><gom:speed>0.0</gom:speed></extensions></trkpt>
   <trkpt lat="59.0936783256" lon="29.9943278194"><ele>95.433</ele><time>2026-04-25T14:25:55.000Z</time><hdop>3.125</hdop><vdop>3.125</vdop><extensions><gom:speed>0.0</gom:speed></extensions></trkpt>
   <trkpt lat="59.0936783256" lon="29.9943278194"><ele>95.426</ele><time>2026-04-25T14:25:56.000Z</time><hdop>3.125</hdop><vdop>3.125</vdop><extensions><gom:speed>0.0</gom:speed></extensions></trkpt>
   <trkpt lat="59.0936783256" lon="29.9943278194"><ele>95.422</ele><time>2026-04-25T14:25:57.000Z</time><hdop>3.125</hdop><vdop>3.125</vdop><extensions><gom:speed>0.0</gom:speed></extensions></trkpt>
   <trkpt lat="59.0936783256" lon="29.9943278194"><ele>95.419</ele><time>2026-04-25T14:25:58.000Z</time><hdop>3.125</hdop><vdop>3.125</vdop><extensions><gom:speed>0.0</gom:speed></extensions></trkpt>
   <trkpt lat="59.0936783256" lon="29.9943278194"><ele>95.418</ele><time>2026-04-25T14:25:59.000Z</time><hdop>3.125</hdop><vdop>3.125</vdop><extensions><gom:speed>0.0</gom:speed></extensions></trkpt>
   <trkpt lat="59.0936783256" lon="29.9943278194"><ele>95.417</ele><time>2026-04-25T14:26:00.000Z</time><hdop>3.125</hdop><vdop>3.125</vdop><extensions><gom:speed>0.0</gom:speed></extensions></trkpt>
   <trkpt lat="59.0936783256" lon="29.9943278194"><ele>95.416</ele><time>2026-04-25T14:26:01.000Z</time><hdop>3.125</hdop><vdop>3.125</vdop><extensions><gom:speed>0.0</gom:speed></extensions></trkpt>
   <trkpt lat="59.0936783256" lon="29.9943278194"><ele>95.416</ele><time>2026-04-25T14:26:02.000Z</time><hdop>3.125</hdop><vdop>3.125</vdop><extensions><gom:speed>0.0</gom:speed></extensions></trkpt>
   <trkpt lat="59.0936783256" lon="29.9943278194"><ele>95.416</ele><time>2026-04-25T14:26:03.000Z</time><hdop>3.125</hdop><vdop>3.125</vdop><extensions><gom:speed>0.0</gom:speed></extensions></trkpt>
   <trkpt lat="59.0936783256" lon="29.9943278194"><ele>95.415</ele><time>2026-04-25T14:26:04.000Z</time><hdop>3.125</hdop><vdop>3.125</vdop><extensions><gom:speed>0.0</gom:speed></extensions></trkpt>
   <trkpt lat="59.0936783256" lon="29.9943278194"><ele>95.415</ele><time>2026-04-25T14:26:05.000Z</time><hdop>3.125</hdop><vdop>3.125</vdop><extensions><gom:speed>0.0</gom:speed></extensions></trkpt>
   <trkpt lat="59.0936783256" lon="29.9943278194"><ele>95.415</ele><time>2026-04-25T14:26:06.000Z</time><hdop>3.125</hdop><vdop>3.125</vdop><extensions><gom:speed>0.0</gom:speed></extensions></trkpt>
   <trkpt lat="59.0936783256" lon="29.9943278194"><ele>95.415</ele><time>2026-04-25T14:26:07.000Z</time><hdop>3.125</hdop><vdop>3.125</vdop><extensions><gom:speed>0.0</gom:speed></extensions></trkpt>
   <trkpt lat="59.0936783256" lon="29.9943278194"><ele>95.415</ele><time>2026-04-25T14:26:07.000Z</time><hdop>3.125</hdop><vdop>3.125</vdop><extensions><gom:speed>0.0</gom:speed></extensions></trkpt>
   <trkpt lat="59.0936783256" lon="29.9943278194"><ele>95.415</ele><time>2026-04-25T14:26:08.000Z</time><hdop>3.125</hdop><vdop>3.125</vdop><extensions><gom:speed>0.0</gom:speed></extensions></trkpt>
   <trkpt lat="59.0936783256" lon="29.9943278194"><ele>95.415</ele><time>2026-04-25T14:26:09.000Z</time><hdop>3.125</hdop><vdop>3.125</vdop><extensions><gom:speed>0.0</gom:speed></extensions></trkpt>
   <trkpt lat="59.0936783256" lon="29.9943278194"><ele>95.415</ele><time>2026-04-25T14:26:10.000Z</time><hdop>3.125</hdop><vdop>3.125</vdop><extensions><gom:speed>0.0</gom:speed></extensions></trkpt>
   <trkpt lat="59.0936783256" lon="29.9943278194"><ele>95.415</ele><time>2026-04-25T14:26:11.000Z</time><hdop>3.125</hdop><vdop>3.125</vdop><extensions><gom:speed>0.0</gom:speed></extensions></trkpt>
   <trkpt lat="59.0936783256" lon="29.9943278194"><ele>95.415</ele><time>2026-04-25T14:26:12.000Z</time><hdop>3.125</hdop><vdop>3.125</vdop><extensions><gom:speed>0.0</gom:speed></extensions></trkpt>
   <trkpt lat="59.0936783256" lon="29.9943278194"><ele>95.415</ele><time>2026-04-25T14:26:13.000Z</time><hdop>3.125</hdop><vdop>3.125</vdop><extensions><gom:speed>0.0</gom:speed></extensions></trkpt>
   <trkpt lat="59.0936783256" lon="29.9943278194"><ele>95.415</ele><time>2026-04-25T14:26:14.000Z</time><hdop>3.125</hdop><vdop>3.125</vdop><extensions><gom:speed>0.0</gom:speed></extensions></trkpt>
   <trkpt lat="59.0936783256" lon="29.9943278194"><ele>95.415</ele><time>2026-04-25T14:26:15.000Z</time><hdop>3.125</hdop><vdop>3.125</vdop><extensions><gom:speed>0.0</gom:speed></extensions></trkpt>
   <trkpt lat="59.0936783256" lon="29.9943278194"><ele>95.415</ele><time>2026-04-25T14:26:16.000Z</time><hdop>3.125</hdop><vdop>3.125</vdop><extensions><gom:speed>0.0</gom:speed></extensions></trkpt>
   <trkpt lat="59.0936783256" lon="29.9943278194"><ele>95.415</ele><time>2026-04-25T14:26:17.000Z</time><hdop>3.125</hdop><vdop>3.125</vdop><extensions><gom:speed>0.0</gom:speed></extensions></trkpt>
   <trkpt lat="59.0936783256" lon="29.9943278194"><ele>95.415</ele><time>2026-04-25T14:26:18.000Z</time><hdop>3.125</hdop><vdop>3.125</vdop><extensions><gom:speed>0.0</gom:speed></extensions></trkpt>
   <trkpt lat="59.0936783256" lon="29.9943278194"><ele>95.415</ele><time>2026-04-25T14:26:19.000Z</time><hdop>3.125</hdop><vdop>3.125</vdop><extensions><gom:speed>0.0</gom:speed></extensions></trkpt>
   <trkpt lat="59.0936783256" lon="29.9943278194"><ele>95.415</ele><time>2026-04-25T14:26:20.000Z</time><hdop>3.125</hdop><vdop>3.125</vdop><extensions><gom:speed>0.0</gom:speed></extensions></trkpt>
   <trkpt lat="59.0936783256" lon="29.9943278194"><ele>95.415</ele><time>2026-04-25T14:26:21.000Z</time><hdop>3.125</hdop><vdop>3.125</vdop><extensions><gom:speed>0.0</gom:speed></extensions></trkpt>
   <trkpt lat="59.0936783256" lon="29.9943278194"><ele>95.415</ele><time>2026-04-25T14:26:22.000Z</time><hdop>3.125</hdop><vdop>3.125</vdop><extensions><gom:speed>0.0</gom:speed></extensions></trkpt>
   <trkpt lat="59.0936783256" lon="29.9943278194"><ele>95.415</ele><time>2026-04-25T14:26:23.000Z</time><hdop>3.125</hdop><vdop>3.125</vdop><extensions><gom:speed>0.0</gom:speed></extensions></trkpt>
   <trkpt lat="59.0936783256" lon="29.9943278194"><ele>95.415</ele><time>2026-04-25T14:26:24.000Z</time><hdop>3.125</hdop><vdop>3.125</vdop><extensions><gom:speed>0.0</gom:speed></extensions></trkpt>
   <trkpt lat="59.0936783256" lon="29.9943278194"><ele>95.415</ele><time>2026-04-25T14:26:25.000Z</time><hdop>3.125</hdop><vdop>3.125</vdop><extensions><gom:speed>0.0</gom:speed></extensions></trkpt>
   <trkpt lat="59.0936783256" lon="29.9943278194"><ele>95.415</ele><time>2026-04-25T14:26:26.000Z</time><hdop>3.125</hdop><vdop>3.125</vdop><extensions><gom:speed>0.0</gom:speed></extensions></trkpt>
   <trkpt lat="59.0936783256" lon="29.9943278194"><ele>95.415</ele><time>2026-04-25T14:26:27.000Z</time><hdop>3.125</hdop><vdop>3.125</vdop><extensions><gom:speed>0.0</gom:speed></extensions></trkpt>
   <trkpt lat="59.0936783256" lon="29.9943278194"><ele>95.415</ele><time>2026-04-25T14:26:27.000Z</time><hdop>3.125</hdop><vdop>3.125</vdop><extensions><gom:speed>0.0</gom:speed></extensions></trkpt>
   <trkpt lat="59.0936783256" lon="29.9943278194"><ele>95.415</ele><time>2026-04-25T14:26:28.000Z</time><hdop>3.125</hdop><vdop>3.125</vdop><extensions><gom:speed>0.0</gom:speed></extensions></trkpt>
   <trkpt lat="59.0936783256" lon="29.9943278194"><ele>95.415</ele><time>2026-04-25T14:26:29.000Z</time><hdop>3.125</hdop><vdop>3.125</vdop><extensions><gom:speed>0.0</gom:speed></extensions></trkpt>
   <trkpt lat="59.0936783256" lon="29.9943278194"><ele>95.415</ele><time>2026-04-25T14:26:30.000Z</time><hdop>3.125</hdop><vdop>3.125</vdop><extensions><gom:speed>0.0</gom:speed></extensions></trkpt>
   <trkpt lat="59.0936783256" lon="29.9943278194"><ele>95.415</ele><time>2026-04-25T14:26:31.000Z</time><hdop>3.125</hdop><vdop>3.125</vdop><extensions><gom:speed>0.0</gom:speed></extensions></trkpt>
   <trkpt lat="59.0936783256" lon="29.9943278194"><ele>95.415</ele><time>2026-04-25T14:26:32.000Z</time><hdop>3.125</hdop><vdop>3.125</vdop><extensions><gom:speed>0.0</gom:speed></extensions></trkpt>
   <trkpt lat="59.0936783256" lon="29.9943278194"><ele>95.415</ele><time>2026-04-25T14:26:33.000Z</time><hdop>3.125</hdop><vdop>3.125</vdop><extensions><gom:speed>0.0</gom:speed></extensions></trkpt>
   <trkpt lat="59.0936783256" lon="29.9943278194"><ele>95.415</ele><time>2026-04-25T14:26:34.000Z</time><hdop>3.125</hdop><vdop>3.125</vdop><extensions><gom:speed>0.0</gom:speed></extensions></trkpt>
   <trkpt lat="59.0936783256" lon="29.9943278194"><ele>95.415</ele><time>2026-04-25T14:26:35.000Z</time><hdop>3.125</hdop><vdop>3.125</vdop><extensions><gom:speed>0.0</gom:speed></extensions></trkpt>
   <trkpt lat="59.0936783256" lon="29.9943278194"><ele>95.415</ele><time>2026-04-25T14:26:36.000Z</time><hdop>3.125</hdop><vdop>3.125</vdop><extensions><gom:speed>0.0</gom:speed></extensions></trkpt>
   <trkpt lat="59.0936783256" lon="29.9943278194"><ele>95.415</ele><time>2026-04-25T14:26:37.000Z</time><hdop>3.125</hdop><vdop>3.125</vdop><extensions><gom:speed>0.0</gom:speed></extensions></trkpt>
   <trkpt lat="59.0936783256" lon="29.9943278194"><ele>95.415</ele><time>2026-04-25T14:26:38.000Z</time><hdop>3.125</hdop><vdop>3.125</vdop><extensions><gom:speed>0.0</gom:speed></extensions></trkpt>
   <trkpt lat="59.0936783256" lon="29.9943278194"><ele>95.415</ele><time>2026-04-25T14:26:39.000Z</time><hdop>3.125</hdop><vdop>3.125</vdop><extensions><gom:speed>0.0</gom:speed></extensions></trkpt>
   <trkpt lat="59.0936783256" lon="29.9943278194"><ele>95.415</ele><time>2026-04-25T14:26:40.000Z</time><hdop>3.125</hdop><vdop>3.125</vdop><extensions><gom:speed>0.0</gom:speed></extensions></trkpt>
   <trkpt lat="59.0936783256" lon="29.9943278194"><ele>95.415</ele><time>2026-04-25T14:26:41.000Z</time><hdop>3.125</hdop><vdop>3.125</vdop><extensions><gom:speed>0.0</gom:speed></extensions></trkpt>
   <trkpt lat="59.0936783256" lon="29.9943278194"><ele>95.415</ele><time>2026-04-25T14:26:42.000Z</time><hdop>3.125</hdop><vdop>3.125</vdop><extensions><gom:speed>0.0</gom:speed></extensions></trkpt>
   <trkpt lat="59.0936783256" lon="29.9943278194"><ele>95.415</ele><time>2026-04-25T14:26:43.000Z</time><hdop>3.125</hdop><vdop>3.125</vdop><extensions><gom:speed>0.0</gom:speed></extensions></trkpt>
   <trkpt lat="59.0936783256" lon="29.9943278194"><ele>95.415</ele><time>2026-04-25T14:26:44.000Z</time><hdop>3.125</hdop><vdop>3.125</vdop><extensions><gom:speed>0.0</gom:speed></extensions></trkpt>
   <trkpt lat="59.0936783256" lon="29.9943278194"><ele>95.415</ele><time>2026-04-25T14:26:45.000Z</time><hdop>3.125</hdop><vdop>3.125</vdop><extensions><gom:speed>0.0</gom:speed></extensions></trkpt>
   <trkpt lat="59.0936783256" lon="29.9943278194"><ele>95.415</ele><time>2026-04-25T14:26:46.000Z</time><hdop>3.125</hdop><vdop>3.125</vdop><extensions><gom:speed>0.0</gom:speed></extensions></trkpt>
   <trkpt lat="59.0936783256" lon="29.9943278194"><ele>95.415</ele><time>2026-04-25T14:26:47.000Z</time><hdop>3.125</hdop><vdop>3.125</vdop><extensions><gom:speed>0.0</gom:speed></extensions></trkpt>
   <trkpt lat="59.0936783256" lon="29.9943278194"><ele>95.415</ele><time>2026-04-25T14:26:47.000Z</time><hdop>3.125</hdop><vdop>3.125</vdop><extensions><gom:speed>0.0</gom:speed></extensions></trkpt>
   <trkpt lat="59.0936783256" lon="29.9943278194"><ele>95.415</ele><time>2026-04-25T14:26:48.000Z</time><hdop>3.125</hdop><vdop>3.125</vdop><extensions><gom:speed>0.0</gom:speed></extensions></trkpt>
   <trkpt lat="59.0936783256" lon="29.9943278194"><ele>95.415</ele><time>2026-04-25T14:26:49.000Z</time><hdop>3.125</hdop><vdop>3.125</vdop><extensions><gom:speed>0.0</gom:speed></extensions></trkpt>
   <trkpt lat="59.0936783256" lon="29.9943278194"><ele>95.415</ele><time>2026-04-25T14:26:50.000Z</time><hdop>3.125</hdop><vdop>3.125</vdop><extensions><gom:speed>0.0</gom:speed></extensions></trkpt>
   <trkpt lat="59.0936783256" lon="29.9943278194"><ele>95.415</ele><time>2026-04-25T14:26:51.000Z</time><hdop>3.125</hdop><vdop>3.125</vdop><extensions><gom:speed>0.0</gom:speed></extensions></trkpt>
   <trkpt lat="59.0936783256" lon="29.9943278194"><ele>95.415</ele><time>2026-04-25T14:26:52.000Z</time><hdop>3.125</hdop><vdop>3.125</vdop><extensions><gom:speed>0.0</gom:speed></extensions></trkpt>
   <trkpt lat="59.0936783256" lon="29.9943278194"><ele>95.415</ele><time>2026-04-25T14:26:53.000Z</time><hdop>3.125</hdop><vdop>3.125</vdop><extensions><gom:speed>0.0</gom:speed></extensions></trkpt>
   <trkpt lat="59.0936783256" lon="29.9943278194"><ele>95.415</ele><time>2026-04-25T14:26:54.000Z</time><hdop>3.125</hdop><vdop>3.125</vdop><extensions><gom:speed>0.0</gom:speed></extensions></trkpt>
   <trkpt lat="59.0936783256" lon="29.9943278194"><ele>95.415</ele><time>2026-04-25T14:26:55.000Z</time><hdop>3.125</hdop><vdop>3.125</vdop><extensions><gom:speed>0.0</gom:speed></extensions></trkpt>
   <trkpt lat="59.0936783256" lon="29.9943278194"><ele>95.415</ele><time>2026-04-25T14:26:56.000Z</time><hdop>3.125</hdop><vdop>3.125</vdop><extensions><gom:speed>0.0</gom:speed></extensions></trkpt>
   <trkpt lat="59.0936783256" lon="29.9943278194"><ele>95.415</ele><time>2026-04-25T14:26:57.000Z</time><hdop>3.125</hdop><vdop>3.125</vdop><extensions><gom:speed>0.0</gom:speed></extensions></trkpt>
   <trkpt lat="59.0936783256" lon="29.9943278194"><ele>95.415</ele><time>2026-04-25T14:26:58.000Z</time><hdop>3.125</hdop><vdop>3.125</vdop><extensions><gom:speed>0.0</gom:speed></extensions></trkpt>
   <trkpt lat="59.0936783256" lon="29.9943278194"><ele>95.415</ele><time>2026-04-25T14:26:59.000Z</time><hdop>3.125</hdop><vdop>3.125</vdop><extensions><gom:speed>0.0</gom:speed></extensions></trkpt>
   <trkpt lat="59.0936783256" lon="29.9943278194"><ele>95.415</ele><time>2026-04-25T14:27:00.000Z</time><hdop>3.125</hdop><vdop>3.125</vdop><extensions><gom:speed>0.0</gom:speed></extensions></trkpt>
   <trkpt lat="59.0936783256" lon="29.9943278194"><ele>95.415</ele><time>2026-04-25T14:27:01.000Z</time><hdop>3.125</hdop><vdop>3.125</vdop><extensions><gom:speed>0.0</gom:speed></extensions></trkpt>
   <trkpt lat="59.0936783256" lon="29.9943278194"><ele>95.415</ele><time>2026-04-25T14:27:02.000Z</time><hdop>3.125</hdop><vdop>3.125</vdop><extensions><gom:speed>0.0</gom:speed></extensions></trkpt>
   <trkpt lat="59.0936783256" lon="29.9943278194"><ele>95.415</ele><time>2026-04-25T14:27:03.000Z</time><hdop>3.125</hdop><vdop>3.125</vdop><extensions><gom:speed>0.0</gom:speed></extensions></trkpt>
   <trkpt lat="59.0936783256" lon="29.9943278194"><ele>95.415</ele><time>2026-04-25T14:27:04.000Z</time><hdop>3.125</hdop><vdop>3.125</vdop><extensions><gom:speed>0.0</gom:speed></extensions></trkpt>
   <trkpt lat="59.0936783256" lon="29.9943278194"><ele>95.415</ele><time>2026-04-25T14:27:05.000Z</time><hdop>3.125</hdop><vdop>3.125</vdop><extensions><gom:speed>0.0</gom:speed></extensions></trkpt>
   <trkpt lat="59.0936783256" lon="29.9943278194"><ele>95.415</ele><time>2026-04-25T14:27:06.000Z</time><hdop>3.125</hdop><vdop>3.125</vdop><extensions><gom:speed>0.0</gom:speed></extensions></trkpt>
   <trkpt lat="59.0936783256" lon="29.9943278194"><ele>95.415</ele><time>2026-04-25T14:27:07.000Z</time><hdop>3.125</hdop><vdop>3.125</vdop><extensions><gom:speed>0.0</gom:speed></extensions></trkpt>
   <trkpt lat="59.0936783256" lon="29.9943278194"><ele>95.415</ele><time>2026-04-25T14:27:07.000Z</time><hdop>3.125</hdop><vdop>3.125</vdop><extensions><gom:speed>0.0</gom:speed></extensions></trkpt>
   <trkpt lat="59.0936783256" lon="29.9943278194"><ele>95.415</ele><time>2026-04-25T14:27:08.000Z</time><hdop>3.125</hdop><vdop>3.125</vdop><extensions><gom:speed>0.0</gom:speed></extensions></trkpt>
   <trkpt lat="59.0936783256" lon="29.9943278194"><ele>95.415</ele><time>2026-04-25T14:27:09.000Z</time><hdop>3.125</hdop><vdop>3.125</vdop><extensions><gom:speed>0.0</gom:speed></extensions></trkpt>
   <trkpt lat="59.0936783256" lon="29.9943278194"><ele>95.415</ele><time>2026-04-25T14:27:10.000Z</time><hdop>3.125</hdop><vdop>3.125</vdop><extensions><gom:speed>0.0</gom:speed></extensions></trkpt>
   <trkpt lat="59.0936783256" lon="29.9943278194"><ele>95.415</ele><time>2026-04-25T14:27:11.000Z</time><hdop>3.125</hdop><vdop>3.125</vdop><extensions><gom:speed>0.0</gom:speed></extensions></trkpt>
   <trkpt lat="59.0936783256" lon="29.9943278194"><ele>95.415</ele><time>2026-04-25T14:27:12.000Z</time><hdop>3.125</hdop><vdop>3.125</vdop><extensions><gom:speed>0.0</gom:speed></extensions></trkpt>
   <trkpt lat="59.0936783256" lon="29.9943278194"><ele>95.415</ele><time>2026-04-25T14:27:13.000Z</time><hdop>3.125</hdop><vdop>3.125</vdop><extensions><gom:speed>0.0</gom:speed></extensions></trkpt>
   <trkpt lat="59.0936783256" lon="29.9943278194"><ele>95.415</ele><time>2026-04-25T14:27:14.000Z</time><hdop>3.125</hdop><vdop>3.125</vdop><extensions><gom:speed>0.0</gom:speed></extensions></trkpt>
   <trkpt lat="59.0936783256" lon="29.9943278194"><ele>95.415</ele><time>2026-04-25T14:27:15.000Z</time><hdop>3.125</hdop><vdop>3.125</vdop><extensions><gom:speed>0.0</gom:speed></extensions></trkpt>
   <trkpt lat="59.0936783256" lon="29.9943278194"><ele>95.415</ele><time>2026-04-25T14:27:16.000Z</time><hdop>3.125</hdop><vdop>3.125</vdop><extensions><gom:speed>0.0</gom:speed></extensions></trkpt>
   <trkpt lat="59.0936783256" lon="29.9943278194"><ele>95.415</ele><time>2026-04-25T14:27:17.000Z</time><hdop>3.125</hdop><vdop>3.125</vdop><extensions><gom:speed>0.0</gom:speed></extensions></trkpt>
   <trkpt lat="59.0936783256" lon="29.9943278194"><ele>95.415</ele><time>2026-04-25T14:27:18.000Z</time><hdop>3.125</hdop><vdop>3.125</vdop><extensions><gom:speed>0.0</gom:speed></extensions></trkpt>
   <trkpt lat="59.0936783256" lon="29.9943278194"><ele>95.415</ele><time>2026-04-25T14:27:19.000Z</time><hdop>3.125</hdop><vdop>3.125</vdop><extensions><gom:speed>0.0</gom:speed></extensions></trkpt>
   <trkpt lat="59.0936783256" lon="29.9943278194"><ele>95.415</ele><time>2026-04-25T14:27:20.000Z</time><hdop>3.125</hdop><vdop>3.125</vdop><extensions><gom:speed>0.0</gom:speed></extensions></trkpt>
   <trkpt lat="59.0936783256" lon="29.9943278194"><ele>95.415</ele><time>2026-04-25T14:27:21.000Z</time><hdop>3.125</hdop><vdop>3.125</vdop><extensions><gom:speed>0.0</gom:speed></extensions></trkpt>
   <trkpt lat="59.0936783256" lon="29.9943278194"><ele>95.415</ele><time>2026-04-25T14:27:22.000Z</time><hdop>3.125</hdop><vdop>3.125</vdop><extensions><gom:speed>0.0</gom:speed></extensions></trkpt>
   <trkpt lat="59.0936783256" lon="29.9943278194"><ele>95.415</ele><time>2026-04-25T14:27:23.000Z</time><hdop>3.125</hdop><vdop>3.125</vdop><extensions><gom:speed>0.0</gom:speed></extensions></trkpt>
   <trkpt lat="59.0936783256" lon="29.9943278194"><ele>95.415</ele><time>2026-04-25T14:27:24.000Z</time><hdop>3.125</hdop><vdop>3.125</vdop><extensions><gom:speed>0.0</gom:speed></extensions></trkpt>
   <trkpt lat="59.0936774036" lon="29.9943253048"><ele>95.513</ele><time>2026-04-25T14:27:25.000Z</time><hdop>3.125</hdop><vdop>3.125</vdop><extensions><gom:speed>0.447</gom:speed></extensions></trkpt>
   <trkpt lat="59.0936766911" lon="29.9943242152"><ele>95.607</ele><time>2026-04-25T14:27:26.000Z</time><hdop>3.0</hdop><vdop>3.0</vdop><extensions><gom:speed>0.243</gom:speed></extensions></trkpt>
   <trkpt lat="59.0936766911" lon="29.9943242152"><ele>95.663</ele><time>2026-04-25T14:27:27.000Z</time><hdop>3.0</hdop><vdop>3.0</vdop><extensions><gom:speed>0.0</gom:speed></extensions></trkpt>
   <trkpt lat="59.0936766911" lon="29.9943242152"><ele>95.697</ele><time>2026-04-25T14:27:27.000Z</time><hdop>3.0</hdop><vdop>3.0</vdop><extensions><gom:speed>0.0</gom:speed></extensions></trkpt>
   <trkpt lat="59.0936766911" lon="29.9943242152"><ele>95.717</ele><time>2026-04-25T14:27:28.000Z</time><hdop>3.0</hdop><vdop>3.0</vdop><extensions><gom:speed>0.0</gom:speed></extensions></trkpt>
   <trkpt lat="59.0936749729" lon="29.9943209462"><ele>95.709</ele><time>2026-04-25T14:27:29.000Z</time><hdop>3.0</hdop><vdop>3.0</vdop><extensions><gom:speed>0.177</gom:speed></extensions></trkpt>
   <trkpt lat="59.0936714105" lon="29.9943153304"><ele>95.623</ele><time>2026-04-25T14:27:30.000Z</time><hdop>3.0</hdop><vdop>3.0</vdop><extensions><gom:speed>0.262</gom:speed></extensions></trkpt>
   <trkpt lat="59.0936663814" lon="29.9943107203"><ele>95.553</ele><time>2026-04-25T14:27:31.000Z</time><hdop>3.187</hdop><vdop>3.187</vdop><extensions><gom:speed>0.449</gom:speed></extensions></trkpt>
   <trkpt lat="59.0936663814" lon="29.9943107203"><ele>95.512</ele><time>2026-04-25T14:27:32.000Z</time><hdop>3.187</hdop><vdop>3.187</vdop><extensions><gom:speed>0.0</gom:speed></extensions></trkpt>
   <trkpt lat="59.0936631963" lon="29.9943177611"><ele>95.499</ele><time>2026-04-25T14:27:33.000Z</time><hdop>3.0</hdop><vdop>3.0</vdop><extensions><gom:speed>0.311</gom:speed></extensions></trkpt>
   <trkpt lat="59.0936600112" lon="29.9943263945"><ele>95.494</ele><time>2026-04-25T14:27:34.000Z</time><hdop>3.0</hdop><vdop>3.0</vdop><extensions><gom:speed>0.399</gom:speed></extensions></trkpt>
   <trkpt lat="59.0936600112" lon="29.9943263945"><ele>95.491</ele><time>2026-04-25T14:27:35.000Z</time><hdop>3.0</hdop><vdop>3.0</vdop><extensions><gom:speed>0.0</gom:speed></extensions></trkpt>
   <trkpt lat="59.0936600112" lon="29.9943263945"><ele>95.489</ele><time>2026-04-25T14:27:36.000Z</time><hdop>3.0</hdop><vdop>3.0</vdop><extensions><gom:speed>0.0</gom:speed></extensions></trkpt>
   <trkpt lat="59.0936600112" lon="29.9943263945"><ele>95.488</ele><time>2026-04-25T14:27:37.000Z</time><hdop>3.0</hdop><vdop>3.0</vdop><extensions><gom:speed>0.0</gom:speed></extensions></trkpt>
   <trkpt lat="59.0936600112" lon="29.9943263945"><ele>95.487</ele><time>2026-04-25T14:27:38.000Z</time><hdop>3.0</hdop><vdop>3.0</vdop><extensions><gom:speed>0.0</gom:speed></extensions></trkpt>
   <trkpt lat="59.0936600112" lon="29.9943263945"><ele>95.486</ele><time>2026-04-25T14:27:39.000Z</time><hdop>3.0</hdop><vdop>3.0</vdop><extensions><gom:speed>0.0</gom:speed></extensions></trkpt>
   <trkpt lat="59.0936600112" lon="29.9943263945"><ele>95.486</ele><time>2026-04-25T14:27:40.000Z</time><hdop>3.0</hdop><vdop>3.0</vdop><extensions><gom:speed>0.0</gom:speed></extensions></trkpt>
   <trkpt lat="59.0936600112" lon="29.9943263945"><ele>95.486</ele><time>2026-04-25T14:27:41.000Z</time><hdop>3.0</hdop><vdop>3.0</vdop><extensions><gom:speed>0.0</gom:speed></extensions></trkpt>
   <trkpt lat="59.0936600112" lon="29.9943263945"><ele>95.486</ele><time>2026-04-25T14:27:42.000Z</time><hdop>3.0</hdop><vdop>3.0</vdop><extensions><gom:speed>0.0</gom:speed></extensions></trkpt>
   <trkpt lat="59.0936600112" lon="29.9943263945"><ele>95.486</ele><time>2026-04-25T14:27:43.000Z</time><hdop>3.0</hdop><vdop>3.0</vdop><extensions><gom:speed>0.0</gom:speed></extensions></trkpt>
   <trkpt lat="59.0936600112" lon="29.9943263945"><ele>95.486</ele><time>2026-04-25T14:27:44.000Z</time><hdop>3.0</hdop><vdop>3.0</vdop><extensions><gom:speed>0.0</gom:speed></extensions></trkpt>
   <trkpt lat="59.0936600112" lon="29.9943263945"><ele>95.486</ele><time>2026-04-25T14:27:45.000Z</time><hdop>3.0</hdop><vdop>3.0</vdop><extensions><gom:speed>0.0</gom:speed></extensions></trkpt>
   <trkpt lat="59.0936600112" lon="29.9943351116"><ele>95.442</ele><time>2026-04-25T14:27:46.000Z</time><hdop>3.0</hdop><vdop>3.0</vdop><extensions><gom:speed>0.368</gom:speed></extensions></trkpt>
   <trkpt lat="59.0936600112" lon="29.9943351116"><ele>95.416</ele><time>2026-04-25T14:27:47.000Z</time><hdop>3.0</hdop><vdop>3.0</vdop><extensions><gom:speed>0.0</gom:speed></extensions></trkpt>
   <trkpt lat="59.0936600112" lon="29.9943351116"><ele>95.4</ele><time>2026-04-25T14:27:47.000Z</time><hdop>3.0</hdop><vdop>3.0</vdop><extensions><gom:speed>0.0</gom:speed></extensions></trkpt>
   <trkpt lat="59.0936600112" lon="29.9943351116"><ele>95.391</ele><time>2026-04-25T14:27:48.000Z</time><hdop>3.0</hdop><vdop>3.0</vdop><extensions><gom:speed>0.0</gom:speed></extensions></trkpt>
   <trkpt lat="59.0936600112" lon="29.9943351116"><ele>95.385</ele><time>2026-04-25T14:27:49.000Z</time><hdop>3.0</hdop><vdop>3.0</vdop><extensions><gom:speed>0.0</gom:speed></extensions></trkpt>
   <trkpt lat="59.0936585862" lon="29.9943496962"><ele>95.326</ele><time>2026-04-25T14:27:50.000Z</time><hdop>3.0</hdop><vdop>3.0</vdop><extensions><gom:speed>0.7</gom:speed></extensions></trkpt>
   <trkpt lat="59.093656365" lon="29.9943707347"><ele>95.239</ele><time>2026-04-25T14:27:51.000Z</time><hdop>3.0</hdop><vdop>3.0</vdop><extensions><gom:speed>0.723</gom:speed></extensions></trkpt>
   <trkpt lat="59.0936521322" lon="29.9943849001"><ele>95.215</ele><time>2026-04-25T14:27:52.000Z</time><hdop>3.062</hdop><vdop>3.062</vdop><extensions><gom:speed>0.63</gom:speed></extensions></trkpt>
   <trkpt lat="59.0936521322" lon="29.9943849001"><ele>95.201</ele><time>2026-04-25T14:27:53.000Z</time><hdop>3.062</hdop><vdop>3.062</vdop><extensions><gom:speed>0.0</gom:speed></extensions></trkpt>
   <trkpt lat="59.0936521322" lon="29.9943849001"><ele>95.192</ele><time>2026-04-25T14:27:54.000Z</time><hdop>3.062</hdop><vdop>3.062</vdop><extensions><gom:speed>0.0</gom:speed></extensions></trkpt>
   <trkpt lat="59.0936521322" lon="29.9943849001"><ele>95.187</ele><time>2026-04-25T14:27:55.000Z</time><hdop>3.062</hdop><vdop>3.062</vdop><extensions><gom:speed>0.0</gom:speed></extensions></trkpt>
   <trkpt lat="59.0936551916" lon="29.9943962157"><ele>95.139</ele><time>2026-04-25T14:27:56.000Z</time><hdop>3.062</hdop><vdop>3.062</vdop><extensions><gom:speed>0.501</gom:speed></extensions></trkpt>
   <trkpt lat="59.0936543534" lon="29.9944121413"><ele>95.185</ele><time>2026-04-25T14:27:57.000Z</time><hdop>3.5</hdop><vdop>3.5</vdop><extensions><gom:speed>0.258</gom:speed></extensions></trkpt>
   <trkpt lat="59.0936502882" lon="29.9944299948"><ele>95.137</ele><time>2026-04-25T14:27:58.000Z</time><hdop>3.562</hdop><vdop>3.562</vdop><extensions><gom:speed>0.598</gom:speed></extensions></trkpt>
   <trkpt lat="59.0936502882" lon="29.9944299948"><ele>95.109</ele><time>2026-04-25T14:27:59.000Z</time><hdop>3.562</hdop><vdop>3.562</vdop><extensions><gom:speed>0.0</gom:speed></extensions></trkpt>
   <trkpt lat="59.0936472707" lon="29.9944424838"><ele>95.092</ele><time>2026-04-25T14:28:00.000Z</time><hdop>3.75</hdop><vdop>3.75</vdop><extensions><gom:speed>1.03</gom:speed></extensions></trkpt>
   <trkpt lat="59.0936375477" lon="29.9944634386"><ele>95.087</ele><time>2026-04-25T14:28:01.000Z</time><hdop>3.875</hdop><vdop>3.875</vdop><extensions><gom:speed>1.022</gom:speed></extensions></trkpt>
   <trkpt lat="59.0936269026" lon="29.9944762629"><ele>95.113</ele><time>2026-04-25T14:28:02.000Z</time><hdop>3.187</hdop><vdop>3.187</vdop><extensions><gom:speed>1.117</gom:speed></extensions></trkpt>
   <trkpt lat="59.0936144555" lon="29.9944863212"><ele>95.084</ele><time>2026-04-25T14:28:03.000Z</time><hdop>3.0</hdop><vdop>3.0</vdop><extensions><gom:speed>1.039</gom:speed></extensions></trkpt>
   <trkpt lat="59.093602176" lon="29.994493362"><ele>95.043</ele><time>2026-04-25T14:28:04.000Z</time><hdop>3.0</hdop><vdop>3.0</vdop><extensions><gom:speed>0.718</gom:speed></extensions></trkpt>
   <trkpt lat="59.0935904833" lon="29.9944982235"><ele>94.983</ele><time>2026-04-25T14:28:05.000Z</time><hdop>3.0</hdop><vdop>3.0</vdop><extensions><gom:speed>0.815</gom:speed></extensions></trkpt>
   <trkpt lat="59.0935904833" lon="29.9944982235"><ele>94.948</ele><time>2026-04-25T14:28:06.000Z</time><hdop>3.0</hdop><vdop>3.0</vdop><extensions><gom:speed>0.0</gom:speed></extensions></trkpt>
   <trkpt lat="59.0935812632" lon="29.9945001513"><ele>94.992</ele><time>2026-04-25T14:28:07.000Z</time><hdop>3.187</hdop><vdop>3.187</vdop><extensions><gom:speed>0.595</gom:speed></extensions></trkpt>
   <trkpt lat="59.0935812632" lon="29.9945001513"><ele>95.019</ele><time>2026-04-25T14:28:07.000Z</time><hdop>3.187</hdop><vdop>3.187</vdop><extensions><gom:speed>0.595</gom:speed></extensions></trkpt>
   <trkpt lat="59.0935677264" lon="29.9945107963"><ele>95.181</ele><time>2026-04-25T14:28:08.000Z</time><hdop>3.625</hdop><vdop>3.625</vdop><extensions><gom:speed>0.942</gom:speed></extensions></trkpt>
   <trkpt lat="59.0935579615" lon="29.9945211899"><ele>95.374</ele><time>2026-04-25T14:28:09.000Z</time><hdop>3.875</hdop><vdop>3.875</vdop><extensions><gom:speed>0.6</gom:speed></extensions></trkpt>
   <trkpt lat="59.0935579615" lon="29.9945211899"><ele>95.489</ele><time>2026-04-25T14:28:10.000Z</time><hdop>3.875</hdop><vdop>3.875</vdop><extensions><gom:speed>0.0</gom:speed></extensions></trkpt>
   <trkpt lat="59.0935482385" lon="29.9945290689"><ele>95.886</ele><time>2026-04-25T14:28:11.000Z</time><hdop>4.125</hdop><vdop>4.125</vdop><extensions><gom:speed>0.553</gom:speed></extensions></trkpt>
   <trkpt lat="59.0935356237" lon="29.9945369479"><ele>96.298</ele><time>2026-04-25T14:28:12.000Z</time><hdop>4.25</hdop><vdop>4.25</vdop><extensions><gom:speed>0.822</gom:speed></extensions></trkpt>
   <trkpt lat="59.0935200753" lon="29.9945418094"><ele>96.522</ele><time>2026-04-25T14:28:13.000Z</time><hdop>4.187</hdop><vdop>4.187</vdop><extensions><gom:speed>0.602</gom:speed></extensions></trkpt>
   <trkpt lat="59.0935200753" lon="29.9945418094"><ele>96.656</ele><time>2026-04-25T14:28:14.000Z</time><hdop>4.187</hdop><vdop>4.187</vdop><extensions><gom:speed>0.0</gom:speed></extensions></trkpt>
   <trkpt lat="59.0935064966" lon="29.9945473414"><ele>96.611</ele><time>2026-04-25T14:28:15.000Z</time><hdop>4.25</hdop><vdop>4.25</vdop><extensions><gom:speed>0.861</gom:speed></extensions></trkpt>
   <trkpt lat="59.093487805" lon="29.9945575674"><ele>96.656</ele><time>2026-04-25T14:28:16.000Z</time><hdop>4.062</hdop><vdop>4.062</vdop><extensions><gom:speed>1.226</gom:speed></extensions></trkpt>
   <trkpt lat="59.0934741005" lon="29.9945584894"><ele>96.67</ele><time>2026-04-25T14:28:17.000Z</time><hdop>4.0</hdop><vdop>4.0</vdop><extensions><gom:speed>1.072</gom:speed></extensions></trkpt>
   <trkpt lat="59.0934616115" lon="29.9945597467"><ele>96.714</ele><time>2026-04-25T14:28:18.000Z</time><hdop>3.625</hdop><vdop>3.625</vdop><extensions><gom:speed>1.092</gom:speed></extensions></trkpt>
   <trkpt lat="59.0934469432" lon="29.9945690506"><ele>96.731</ele><time>2026-04-25T14:28:19.000Z</time><hdop>3.312</hdop><vdop>3.312</vdop><extensions><gom:speed>0.635</gom:speed></extensions></trkpt>
   <trkpt lat="59.0934353342" lon="29.9945695535"><ele>96.86</ele><time>2026-04-25T14:28:20.000Z</time><hdop>3.312</hdop><vdop>3.312</vdop><extensions><gom:speed>1.042</gom:speed></extensions></trkpt>
   <trkpt lat="59.0934189476" lon="29.9945680447"><ele>96.84</ele><time>2026-04-25T14:28:21.000Z</time><hdop>3.312</hdop><vdop>3.312</vdop><extensions><gom:speed>0.939</gom:speed></extensions></trkpt>
   <trkpt lat="59.0933971128" lon="29.9945713975"><ele>96.914</ele><time>2026-04-25T14:28:22.000Z</time><hdop>3.5</hdop><vdop>3.5</vdop><extensions><gom:speed>1.725</gom:speed></extensions></trkpt>
   <trkpt lat="59.0933788402" lon="29.9945732415"><ele>97.021</ele><time>2026-04-25T14:28:23.000Z</time><hdop>3.5</hdop><vdop>3.5</vdop><extensions><gom:speed>0.741</gom:speed></extensions></trkpt>
   <trkpt lat="59.0933624955" lon="29.9945744988"><ele>97.112</ele><time>2026-04-25T14:28:24.000Z</time><hdop>3.937</hdop><vdop>3.937</vdop><extensions><gom:speed>1.14</gom:speed></extensions></trkpt>
   <trkpt lat="59.0933471985" lon="29.9945784383"><ele>97.22</ele><time>2026-04-25T14:28:25.000Z</time><hdop>3.937</hdop><vdop>3.937</vdop><extensions><gom:speed>0.68</gom:speed></extensions></trkpt>
   <trkpt lat="59.0933351286" lon="29.9945797794"><ele>97.364</ele><time>2026-04-25T14:28:26.000Z</time><hdop>3.875</hdop><vdop>3.875</vdop><extensions><gom:speed>0.724</gom:speed></extensions></trkpt>
   <trkpt lat="59.0933228491" lon="29.9945739121"><ele>97.596</ele><time>2026-04-25T14:28:27.000Z</time><hdop>3.687</hdop><vdop>3.687</vdop><extensions><gom:speed>1.052</gom:speed></extensions></trkpt>
   <trkpt lat="59.0933228491" lon="29.9945739121"><ele>97.735</ele><time>2026-04-25T14:28:27.000Z</time><hdop>3.687</hdop><vdop>3.687</vdop><extensions><gom:speed>1.052</gom:speed></extensions></trkpt>
   <trkpt lat="59.0933106953" lon="29.9945688829"><ele>97.915</ele><time>2026-04-25T14:28:28.000Z</time><hdop>3.25</hdop><vdop>3.25</vdop><extensions><gom:speed>1.121</gom:speed></extensions></trkpt>
   <trkpt lat="59.0932990864" lon="29.9945638538"><ele>98.093</ele><time>2026-04-25T14:28:29.000Z</time><hdop>3.125</hdop><vdop>3.125</vdop><extensions><gom:speed>1.205</gom:speed></extensions></trkpt>
   <trkpt lat="59.0932840828" lon="29.9945579026"><ele>98.231</ele><time>2026-04-25T14:28:30.000Z</time><hdop>3.0</hdop><vdop>3.0</vdop><extensions><gom:speed>1.107</gom:speed></extensions></trkpt>
   <trkpt lat="59.0932732282" lon="29.9945551366"><ele>98.327</ele><time>2026-04-25T14:28:31.000Z</time><hdop>3.0</hdop><vdop>3.0</vdop><extensions><gom:speed>1.072</gom:speed></extensions></trkpt>
   <trkpt lat="59.0932595238" lon="29.9945522868"><ele>98.355</ele><time>2026-04-25T14:28:32.000Z</time><hdop>3.0</hdop><vdop>3.0</vdop><extensions><gom:speed>1.156</gom:speed></extensions></trkpt>
   <trkpt lat="59.0932472443" lon="29.9945465871"><ele>98.369</ele><time>2026-04-25T14:28:33.000Z</time><hdop>3.0</hdop><vdop>3.0</vdop><extensions><gom:speed>1.284</gom:speed></extensions></trkpt>
   <trkpt lat="59.093231654" lon="29.9945369479"><ele>98.536</ele><time>2026-04-25T14:28:34.000Z</time><hdop>3.0</hdop><vdop>3.0</vdop><extensions><gom:speed>1.594</gom:speed></extensions></trkpt>
   <trkpt lat="59.093218662" lon="29.9945244588"><ele>98.686</ele><time>2026-04-25T14:28:35.000Z</time><hdop>3.0</hdop><vdop>3.0</vdop><extensions><gom:speed>1.441</gom:speed></extensions></trkpt>
   <trkpt lat="59.0932049157" lon="29.9945126404"><ele>98.713</ele><time>2026-04-25T14:28:36.000Z</time><hdop>3.0</hdop><vdop>3.0</vdop><extensions><gom:speed>1.391</gom:speed></extensions></trkpt>
   <trkpt lat="59.0931892416" lon="29.9945028335"><ele>98.769</ele><time>2026-04-25T14:28:37.000Z</time><hdop>3.0</hdop><vdop>3.0</vdop><extensions><gom:speed>1.211</gom:speed></extensions></trkpt>
   <trkpt lat="59.0931744475" lon="29.9944958765"><ele>98.736</ele><time>2026-04-25T14:28:38.000Z</time><hdop>3.0</hdop><vdop>3.0</vdop><extensions><gom:speed>1.167</gom:speed></extensions></trkpt>
   <trkpt lat="59.0931609946" lon="29.994491015"><ele>98.793</ele><time>2026-04-25T14:28:39.000Z</time><hdop>3.0</hdop><vdop>3.0</vdop><extensions><gom:speed>0.977</gom:speed></extensions></trkpt>
   <trkpt lat="59.0931494694" lon="29.9944823817"><ele>98.851</ele><time>2026-04-25T14:28:40.000Z</time><hdop>3.0</hdop><vdop>3.0</vdop><extensions><gom:speed>1.386</gom:speed></extensions></trkpt>
   <trkpt lat="59.0931381539" lon="29.9944744189"><ele>98.92</ele><time>2026-04-25T14:28:41.000Z</time><hdop>3.062</hdop><vdop>3.062</vdop><extensions><gom:speed>1.012</gom:speed></extensions></trkpt>
   <trkpt lat="59.0931281375" lon="29.9944689706"><ele>99.008</ele><time>2026-04-25T14:28:42.000Z</time><hdop>3.0</hdop><vdop>3.0</vdop><extensions><gom:speed>0.802</gom:speed></extensions></trkpt>
   <trkpt lat="59.0931281375" lon="29.9944712338"><ele>96.782</ele><time>2026-04-25T14:28:43.000Z</time><hdop>1.812</hdop><vdop>1.812</vdop><extensions><gom:speed>1.144</gom:speed></extensions></trkpt>
   <trkpt lat="59.0931199232" lon="29.9944701441"><ele>97.755</ele><time>2026-04-25T14:28:44.000Z</time><hdop>3.0</hdop><vdop>3.0</vdop><extensions><gom:speed>0.908</gom:speed></extensions></trkpt>
   <trkpt lat="59.0931053806" lon="29.9944683001"><ele>98.218</ele><time>2026-04-25T14:28:45.000Z</time><hdop>3.125</hdop><vdop>3.125</vdop><extensions><gom:speed>1.118</gom:speed></extensions></trkpt>
   <trkpt lat="59.0930904189" lon="29.9944646959"><ele>98.432</ele><time>2026-04-25T14:28:46.000Z</time><hdop>3.125</hdop><vdop>3.125</vdop><extensions><gom:speed>0.957</gom:speed></extensions></trkpt>
   <trkpt lat="59.0930802349" lon="29.9944599182"><ele>98.62</ele><time>2026-04-25T14:28:47.000Z</time><hdop>3.312</hdop><vdop>3.312</vdop><extensions><gom:speed>1.151</gom:speed></extensions></trkpt>
   <trkpt lat="59.0930802349" lon="29.9944599182"><ele>98.732</ele><time>2026-04-25T14:28:47.000Z</time><hdop>3.312</hdop><vdop>3.312</vdop><extensions><gom:speed>1.151</gom:speed></extensions></trkpt>
   <trkpt lat="59.0930678716" lon="29.9944560625"><ele>98.834</ele><time>2026-04-25T14:28:48.000Z</time><hdop>3.437</hdop><vdop>3.437</vdop><extensions><gom:speed>1.189</gom:speed></extensions></trkpt>
   <trkpt lat="59.093057017" lon="29.9944498599"><ele>98.924</ele><time>2026-04-25T14:28:49.000Z</time><hdop>3.375</hdop><vdop>3.375</vdop><extensions><gom:speed>1.176</gom:speed></extensions></trkpt>
   <trkpt lat="59.0930459948" lon="29.9944420647"><ele>98.951</ele><time>2026-04-25T14:28:50.000Z</time><hdop>3.25</hdop><vdop>3.25</vdop><extensions><gom:speed>1.077</gom:speed></extensions></trkpt>
   <trkpt lat="59.0930368586" lon="29.9944369518"><ele>98.926</ele><time>2026-04-25T14:28:51.000Z</time><hdop>3.187</hdop><vdop>3.187</vdop><extensions><gom:speed>0.727</gom:speed></extensions></trkpt>
   <trkpt lat="59.093027848" lon="29.9944359459"><ele>98.897</ele><time>2026-04-25T14:28:52.000Z</time><hdop>3.125</hdop><vdop>3.125</vdop><extensions><gom:speed>1.016</gom:speed></extensions></trkpt>
   <trkpt lat="59.0930165325" lon="29.9944384605"><ele>98.883</ele><time>2026-04-25T14:28:53.000Z</time><hdop>3.0</hdop><vdop>3.0</vdop><extensions><gom:speed>1.342</gom:speed></extensions></trkpt>
   <trkpt lat="59.0930024928" lon="29.9944404722"><ele>98.885</ele><time>2026-04-25T14:28:54.000Z</time><hdop>3.0</hdop><vdop>3.0</vdop><extensions><gom:speed>1.556</gom:speed></extensions></trkpt>
   <trkpt lat="59.092987573" lon="29.9944422324"><ele>98.863</ele><time>2026-04-25T14:28:55.000Z</time><hdop>3.0</hdop><vdop>3.0</vdop><extensions><gom:speed>1.477</gom:speed></extensions></trkpt>
   <trkpt lat="59.0929727789" lon="29.994445166"><ele>98.828</ele><time>2026-04-25T14:28:56.000Z</time><hdop>3.0</hdop><vdop>3.0</vdop><extensions><gom:speed>1.434</gom:speed></extensions></trkpt>
   <trkpt lat="59.0929558475" lon="29.9944467586"><ele>98.764</ele><time>2026-04-25T14:28:57.000Z</time><hdop>3.0</hdop><vdop>3.0</vdop><extensions><gom:speed>1.438</gom:speed></extensions></trkpt>
   <trkpt lat="59.0929415563" lon="29.9944413942"><ele>98.739</ele><time>2026-04-25T14:28:58.000Z</time><hdop>3.0</hdop><vdop>3.0</vdop><extensions><gom:speed>1.313</gom:speed></extensions></trkpt>
   <trkpt lat="59.0929274747" lon="29.9944390472"><ele>98.693</ele><time>2026-04-25T14:28:59.000Z</time><hdop>3.0</hdop><vdop>3.0</vdop><extensions><gom:speed>1.366</gom:speed></extensions></trkpt>
   <trkpt lat="59.0929116329" lon="29.9944382091"><ele>98.634</ele><time>2026-04-25T14:29:00.000Z</time><hdop>3.0</hdop><vdop>3.0</vdop><extensions><gom:speed>1.345</gom:speed></extensions></trkpt>
   <trkpt lat="59.0928966712" lon="29.9944424"><ele>98.584</ele><time>2026-04-25T14:29:01.000Z</time><hdop>3.0</hdop><vdop>3.0</vdop><extensions><gom:speed>1.399</gom:speed></extensions></trkpt>
   <trkpt lat="59.0928844756" lon="29.9944416456"><ele>98.562</ele><time>2026-04-25T14:29:02.000Z</time><hdop>3.0</hdop><vdop>3.0</vdop><extensions><gom:speed>1.084</gom:speed></extensions></trkpt>
   <trkpt lat="59.0928726571" lon="29.9944454175"><ele>98.539</ele><time>2026-04-25T14:29:03.000Z</time><hdop>3.0</hdop><vdop>3.0</vdop><extensions><gom:speed>1.099</gom:speed></extensions></trkpt>
   <trkpt lat="59.0928596232" lon="29.994446591"><ele>98.519</ele><time>2026-04-25T14:29:04.000Z</time><hdop>3.0</hdop><vdop>3.0</vdop><extensions><gom:speed>1.176</gom:speed></extensions></trkpt>
   <trkpt lat="59.0928471761" lon="29.9944483512"><ele>98.546</ele><time>2026-04-25T14:29:05.000Z</time><hdop>3.0</hdop><vdop>3.0</vdop><extensions><gom:speed>1.176</gom:speed></extensions></trkpt>
   <trkpt lat="59.092834729" lon="29.9944460042"><ele>98.598</ele><time>2026-04-25T14:29:06.000Z</time><hdop>3.0</hdop><vdop>3.0</vdop><extensions><gom:speed>1.289</gom:speed></extensions></trkpt>
   <trkpt lat="59.0928224914" lon="29.9944450822"><ele>98.647</ele><time>2026-04-25T14:29:07.000Z</time><hdop>3.0</hdop><vdop>3.0</vdop><extensions><gom:speed>1.217</gom:speed></extensions></trkpt>
   <trkpt lat="59.0928224914" lon="29.9944450822"><ele>98.676</ele><time>2026-04-25T14:29:07.000Z</time><hdop>3.0</hdop><vdop>3.0</vdop><extensions><gom:speed>1.217</gom:speed></extensions></trkpt>
   <trkpt lat="59.0928091642" lon="29.9944449984"><ele>98.702</ele><time>2026-04-25T14:29:08.000Z</time><hdop>3.0</hdop><vdop>3.0</vdop><extensions><gom:speed>1.399</gom:speed></extensions></trkpt>
   <trkpt lat="59.0927955855" lon="29.9944446631"><ele>98.702</ele><time>2026-04-25T14:29:09.000Z</time><hdop>3.0</hdop><vdop>3.0</vdop><extensions><gom:speed>1.321</gom:speed></extensions></trkpt>
   <trkpt lat="59.0927845633" lon="29.9944424838"><ele>98.724</ele><time>2026-04-25T14:29:10.000Z</time><hdop>3.0</hdop><vdop>3.0</vdop><extensions><gom:speed>1.168</gom:speed></extensions></trkpt>
   <trkpt lat="59.0927750079" lon="29.9944419809"><ele>98.758</ele><time>2026-04-25T14:29:11.000Z</time><hdop>3.0</hdop><vdop>3.0</vdop><extensions><gom:speed>0.995</gom:speed></extensions></trkpt>
   <trkpt lat="59.0927644048" lon="29.9944421485"><ele>98.79</ele><time>2026-04-25T14:29:12.000Z</time><hdop>3.0</hdop><vdop>3.0</vdop><extensions><gom:speed>1.142</gom:speed></extensions></trkpt>
   <trkpt lat="59.092752293" lon="29.9944421485"><ele>98.797</ele><time>2026-04-25T14:29:13.000Z</time><hdop>3.0</hdop><vdop>3.0</vdop><extensions><gom:speed>1.239</gom:speed></extensions></trkpt>
   <trkpt lat="59.0927416898" lon="29.9944418971"><ele>98.829</ele><time>2026-04-25T14:29:14.000Z</time><hdop>3.0</hdop><vdop>3.0</vdop><extensions><gom:speed>1.402</gom:speed></extensions></trkpt>
   <trkpt lat="59.0927299552" lon="29.9944438249"><ele>98.911</ele><time>2026-04-25T14:29:15.000Z</time><hdop>3.0</hdop><vdop>3.0</vdop><extensions><gom:speed>1.367</gom:speed></extensions></trkpt>
   <trkpt lat="59.0927177595" lon="29.994443322"><ele>98.95</ele><time>2026-04-25T14:29:16.000Z</time><hdop>3.0</hdop><vdop>3.0</vdop><extensions><gom:speed>1.305</gom:speed></extensions></trkpt>
   <trkpt lat="59.0927049352" lon="29.9944462557"><ele>98.955</ele><time>2026-04-25T14:29:17.000Z</time><hdop>3.0</hdop><vdop>3.0</vdop><extensions><gom:speed>1.33</gom:speed></extensions></trkpt>
   <trkpt lat="59.092692069" lon="29.9944445793"><ele>98.933</ele><time>2026-04-25T14:29:18.000Z</time><hdop>3.0</hdop><vdop>3.0</vdop><extensions><gom:speed>1.26</gom:speed></extensions></trkpt>
   <trkpt lat="59.0926802086" lon="29.9944378738"><ele>98.951</ele><time>2026-04-25T14:29:19.000Z</time><hdop>3.0</hdop><vdop>3.0</vdop><extensions><gom:speed>1.309</gom:speed></extensions></trkpt>
   <trkpt lat="59.0926657498" lon="29.994441478"><ele>98.953</ele><time>2026-04-25T14:29:20.000Z</time><hdop>3.0</hdop><vdop>3.0</vdop><extensions><gom:speed>1.391</gom:speed></extensions></trkpt>
   <trkpt lat="59.092651752" lon="29.9944413104"><ele>98.938</ele><time>2026-04-25T14:29:21.000Z</time><hdop>3.0</hdop><vdop>3.0</vdop><extensions><gom:speed>1.5</gom:speed></extensions></trkpt>
   <trkpt lat="59.0926391373" lon="29.9944407236"><ele>96.805</ele><time>2026-04-25T14:29:22.000Z</time><hdop>1.687</hdop><vdop>1.687</vdop><extensions><gom:speed>0.795</gom:speed></extensions></trkpt>
   <trkpt lat="59.0926260196" lon="29.9944419809"><ele>95.572</ele><time>2026-04-25T14:29:23.000Z</time><hdop>2.562</hdop><vdop>2.562</vdop><extensions><gom:speed>0.644</gom:speed></extensions></trkpt>
   <trkpt lat="59.0926205713" lon="29.9944342696"><ele>95.177</ele><time>2026-04-25T14:29:24.000Z</time><hdop>3.687</hdop><vdop>3.687</vdop><extensions><gom:speed>0.043</gom:speed></extensions></trkpt>
   <trkpt lat="59.0926118542" lon="29.9944450822"><ele>94.948</ele><time>2026-04-25T14:29:25.000Z</time><hdop>4.562</hdop><vdop>4.562</vdop><extensions><gom:speed>0.253</gom:speed></extensions></trkpt>
   <trkpt lat="59.0925973954" lon="29.9944543023"><ele>94.78</ele><time>2026-04-25T14:29:26.000Z</time><hdop>4.687</hdop><vdop>4.687</vdop><extensions><gom:speed>0.276</gom:speed></extensions></trkpt>
   <trkpt lat="59.0925810507" lon="29.9944586609"><ele>96.472</ele><time>2026-04-25T14:29:27.000Z</time><hdop>3.0</hdop><vdop>3.0</vdop><extensions><gom:speed>1.268</gom:speed></extensions></trkpt>
   <trkpt lat="59.0925810507" lon="29.9944586609"><ele>97.482</ele><time>2026-04-25T14:29:27.000Z</time><hdop>3.0</hdop><vdop>3.0</vdop><extensions><gom:speed>1.268</gom:speed></extensions></trkpt>
   <trkpt lat="59.0925745128" lon="29.9944543023"><ele>96.734</ele><time>2026-04-25T14:29:28.000Z</time><hdop>4.687</hdop><vdop>4.687</vdop><extensions><gom:speed>0.682</gom:speed></extensions></trkpt>
   <trkpt lat="59.0925724592" lon="29.9944458366"><ele>96.241</ele><time>2026-04-25T14:29:29.000Z</time><hdop>4.687</hdop><vdop>4.687</vdop><extensions><gom:speed>0.374</gom:speed></extensions></trkpt>
   <trkpt lat="59.0925737584" lon="29.9944339343"><ele>96.005</ele><time>2026-04-25T14:29:30.000Z</time><hdop>4.687</hdop><vdop>4.687</vdop><extensions><gom:speed>0.692</gom:speed></extensions></trkpt>
   <trkpt lat="59.0925736327" lon="29.9944127281"><ele>95.935</ele><time>2026-04-25T14:29:31.000Z</time><hdop>4.687</hdop><vdop>4.687</vdop><extensions><gom:speed>0.22</gom:speed></extensions></trkpt>
   <trkpt lat="59.0925709086" lon="29.9943829723"><ele>95.927</ele><time>2026-04-25T14:29:32.000Z</time><hdop>4.687</hdop><vdop>4.687</vdop><extensions><gom:speed>1.096</gom:speed></extensions></trkpt>
   <trkpt lat="59.0925575813" lon="29.9943708186"><ele>95.912</ele><time>2026-04-25T14:29:33.000Z</time><hdop>4.687</hdop><vdop>4.687</vdop><extensions><gom:speed>0.856</gom:speed></extensions></trkpt>
   <trkpt lat="59.0925509596" lon="29.9943452537"><ele>95.933</ele><time>2026-04-25T14:29:34.000Z</time><hdop>4.687</hdop><vdop>4.687</vdop><extensions><gom:speed>1.227</gom:speed></extensions></trkpt>
   <trkpt lat="59.0925403984" lon="29.9943221197"><ele>96.062</ele><time>2026-04-25T14:29:35.000Z</time><hdop>4.625</hdop><vdop>4.625</vdop><extensions><gom:speed>0.975</gom:speed></extensions></trkpt>
   <trkpt lat="59.0925332738" lon="29.9943174258"><ele>96.14</ele><time>2026-04-25T14:29:36.000Z</time><hdop>3.812</hdop><vdop>3.812</vdop><extensions><gom:speed>0.738</gom:speed></extensions></trkpt>
   <trkpt lat="59.0925230898" lon="29.9943007458"><ele>96.114</ele><time>2026-04-25T14:29:37.000Z</time><hdop>4.062</hdop><vdop>4.062</vdop><extensions><gom:speed>0.197</gom:speed></extensions></trkpt>
   <trkpt lat="59.0925215392" lon="29.9942903523"><ele>96.045</ele><time>2026-04-25T14:29:38.000Z</time><hdop>4.625</hdop><vdop>4.625</vdop><extensions><gom:speed>0.59</gom:speed></extensions></trkpt>
   <trkpt lat="59.0925192341" lon="29.9942926992"><ele>96.073</ele><time>2026-04-25T14:29:39.000Z</time><hdop>4.5</hdop><vdop>4.5</vdop><extensions><gom:speed>0.253</gom:speed></extensions></trkpt>
   <trkpt lat="59.0925192341" lon="29.9942926992"><ele>96.09</ele><time>2026-04-25T14:29:40.000Z</time><hdop>4.25</hdop><vdop>4.25</vdop><extensions><gom:speed>0.0</gom:speed></extensions></trkpt>
   <trkpt lat="59.0925192341" lon="29.9942926992"><ele>96.1</ele><time>2026-04-25T14:29:41.000Z</time><hdop>3.875</hdop><vdop>3.875</vdop><extensions><gom:speed>0.0</gom:speed></extensions></trkpt>
   <trkpt lat="59.0925164262" lon="29.9942934536"><ele>96.135</ele><time>2026-04-25T14:29:42.000Z</time><hdop>3.187</hdop><vdop>3.187</vdop><extensions><gom:speed>0.254</gom:speed></extensions></trkpt>
   <trkpt lat="59.0925164262" lon="29.9942934536"><ele>96.155</ele><time>2026-04-25T14:29:43.000Z</time><hdop>3.312</hdop><vdop>3.312</vdop><extensions><gom:speed>0.323</gom:speed></extensions></trkpt>
   <trkpt lat="59.0925124867" lon="29.9942980636"><ele>96.214</ele><time>2026-04-25T14:29:44.000Z</time><hdop>3.937</hdop><vdop>3.937</vdop><extensions><gom:speed>0.419</gom:speed></extensions></trkpt>
   <trkpt lat="59.0925104751" lon="29.9942932021"><ele>96.227</ele><time>2026-04-25T14:29:45.000Z</time><hdop>4.437</hdop><vdop>4.437</vdop><extensions><gom:speed>0.573</gom:speed></extensions></trkpt>
   <trkpt lat="59.0925030152" lon="29.9942934536"><ele>96.355</ele><time>2026-04-25T14:29:46.000Z</time><hdop>4.625</hdop><vdop>4.625</vdop><extensions><gom:speed>0.285</gom:speed></extensions></trkpt>
   <trkpt lat="59.0924996205" lon="29.9942976445"><ele>96.395</ele><time>2026-04-25T14:29:47.000Z</time><hdop>4.812</hdop><vdop>4.812</vdop><extensions><gom:speed>0.469</gom:speed></extensions></trkpt>
   <trkpt lat="59.0924996205" lon="29.9942976445"><ele>96.418</ele><time>2026-04-25T14:29:47.000Z</time><hdop>4.812</hdop><vdop>4.812</vdop><extensions><gom:speed>0.469</gom:speed></extensions></trkpt>
   <trkpt lat="59.092491993" lon="29.9942994886"><ele>96.377</ele><time>2026-04-25T14:29:48.000Z</time><hdop>4.375</hdop><vdop>4.375</vdop><extensions><gom:speed>0.432</gom:speed></extensions></trkpt>
   <trkpt lat="59.0924870895" lon="29.9942972254"><ele>96.354</ele><time>2026-04-25T14:29:49.000Z</time><hdop>4.625</hdop><vdop>4.625</vdop><extensions><gom:speed>0.599</gom:speed></extensions></trkpt>
   <trkpt lat="59.0924838625" lon="29.9942915257"><ele>96.341</ele><time>2026-04-25T14:29:50.000Z</time><hdop>4.687</hdop><vdop>4.687</vdop><extensions><gom:speed>0.379</gom:speed></extensions></trkpt>
   <trkpt lat="59.092485497" lon="29.9942947109"><ele>96.333</ele><time>2026-04-25T14:29:51.000Z</time><hdop>4.687</hdop><vdop>4.687</vdop><extensions><gom:speed>0.263</gom:speed></extensions></trkpt>
   <trkpt lat="59.0924844912" lon="29.9942932859"><ele>96.345</ele><time>2026-04-25T14:29:52.000Z</time><hdop>4.687</hdop><vdop>4.687</vdop><extensions><gom:speed>0.531</gom:speed></extensions></trkpt>
   <trkpt lat="59.0924856646" lon="29.9942982313"><ele>96.353</ele><time>2026-04-25T14:29:53.000Z</time><hdop>4.687</hdop><vdop>4.687</vdop><extensions><gom:speed>0.558</gom:speed></extensions></trkpt>
   <trkpt lat="59.0924775761" lon="29.9943098821"><ele>96.418</ele><time>2026-04-25T14:29:54.000Z</time><hdop>4.687</hdop><vdop>4.687</vdop><extensions><gom:speed>0.587</gom:speed></extensions></trkpt>
   <trkpt lat="59.0924678112" lon="29.994320611"><ele>96.562</ele><time>2026-04-25T14:29:55.000Z</time><hdop>4.875</hdop><vdop>4.875</vdop><extensions><gom:speed>1.22</gom:speed></extensions></trkpt>
   <trkpt lat="59.0924623629" lon="29.9943320942"><ele>98.313</ele><time>2026-04-25T14:29:56.000Z</time><hdop>3.0</hdop><vdop>3.0</vdop><extensions><gom:speed>0.0</gom:speed></extensions></trkpt>
   <trkpt lat="59.0924529333" lon="29.9943501153"><ele>99.359</ele><time>2026-04-25T14:29:57.000Z</time><hdop>3.0</hdop><vdop>3.0</vdop><extensions><gom:speed>0.0</gom:speed></extensions></trkpt>
   <trkpt lat="59.0924441323" lon="29.9943662085"><ele>99.984</ele><time>2026-04-25T14:29:58.000Z</time><hdop>3.0</hdop><vdop>3.0</vdop><extensions><gom:speed>0.0</gom:speed></extensions></trkpt>
   <trkpt lat="59.092439187" lon="29.9943746742"><ele>100.358</ele><time>2026-04-25T14:29:59.000Z</time><hdop>3.0</hdop><vdop>3.0</vdop><extensions><gom:speed>0.0</gom:speed></extensions></trkpt>
   <trkpt lat="59.0924370915" lon="29.9943763506"><ele>100.581</ele><time>2026-04-25T14:30:00.000Z</time><hdop>3.0</hdop><vdop>3.0</vdop><extensions><gom:speed>0.0</gom:speed></extensions></trkpt>
   <trkpt lat="59.0924370915" lon="29.9943763506"><ele>100.714</ele><time>2026-04-25T14:30:01.000Z</time><hdop>3.0</hdop><vdop>3.0</vdop><extensions><gom:speed>0.0</gom:speed></extensions></trkpt>
   <trkpt lat="59.0924370915" lon="29.9943763506"><ele>100.794</ele><time>2026-04-25T14:30:02.000Z</time><hdop>3.0</hdop><vdop>3.0</vdop><extensions><gom:speed>0.0</gom:speed></extensions></trkpt>
   <trkpt lat="59.0924370915" lon="29.9943763506"><ele>100.841</ele><time>2026-04-25T14:30:03.000Z</time><hdop>3.0</hdop><vdop>3.0</vdop><extensions><gom:speed>0.0</gom:speed></extensions></trkpt>
   <trkpt lat="59.0924370915" lon="29.9943763506"><ele>100.87</ele><time>2026-04-25T14:30:04.000Z</time><hdop>3.0</hdop><vdop>3.0</vdop><extensions><gom:speed>0.0</gom:speed></extensions></trkpt>
   <trkpt lat="59.0924370915" lon="29.9943763506"><ele>100.887</ele><time>2026-04-25T14:30:05.000Z</time><hdop>3.0</hdop><vdop>3.0</vdop><extensions><gom:speed>0.0</gom:speed></extensions></trkpt>
   <trkpt lat="59.0924370915" lon="29.9943763506"><ele>100.897</ele><time>2026-04-25T14:30:06.000Z</time><hdop>3.0</hdop><vdop>3.0</vdop><extensions><gom:speed>0.0</gom:speed></extensions></trkpt>
   <trkpt lat="59.0924370915" lon="29.9943763506"><ele>100.903</ele><time>2026-04-25T14:30:06.000Z</time><hdop>3.0</hdop><vdop>3.0</vdop><extensions><gom:speed>0.0</gom:speed></extensions></trkpt>
   <trkpt lat="59.1038199675" lon="29.9812799622"><ele>60.291</ele><time>2026-04-25T14:30:06.660Z</time><hdop>273.0</hdop><vdop>0.0</vdop><extensions><gom:speed>0.0</gom:speed></extensions></trkpt>
   <trkpt lat="59.0924370915" lon="29.9943763506"><ele>76.64</ele><time>2026-04-25T14:30:07.000Z</time><hdop>3.0</hdop><vdop>3.0</vdop><extensions><gom:speed>0.0</gom:speed></extensions></trkpt>
   <trkpt lat="59.0924370915" lon="29.9943763506"><ele>86.409</ele><time>2026-04-25T14:30:08.000Z</time><hdop>3.0</hdop><vdop>3.0</vdop><extensions><gom:speed>0.0</gom:speed></extensions></trkpt>
   <trkpt lat="59.0924367562" lon="29.9943795357"><ele>92.289</ele><time>2026-04-25T14:30:09.000Z</time><hdop>3.0</hdop><vdop>3.0</vdop><extensions><gom:speed>0.3</gom:speed></extensions></trkpt>
   <trkpt lat="59.0924321462" lon="29.9943776917"><ele>95.797</ele><time>2026-04-25T14:30:10.000Z</time><hdop>3.0</hdop><vdop>3.0</vdop><extensions><gom:speed>0.428</gom:speed></extensions></trkpt>
   <trkpt lat="59.0924261531" lon="29.9943797872"><ele>97.946</ele><time>2026-04-25T14:30:11.000Z</time><hdop>3.0</hdop><vdop>3.0</vdop><extensions><gom:speed>0.544</gom:speed></extensions></trkpt>
   <trkpt lat="59.0924182322" lon="29.9943792005"><ele>99.244</ele><time>2026-04-25T14:30:12.000Z</time><hdop>3.0</hdop><vdop>3.0</vdop><extensions><gom:speed>0.779</gom:speed></extensions></trkpt>
   <trkpt lat="59.0924063718" lon="29.9943730817"><ele>100.015</ele><time>2026-04-25T14:30:13.000Z</time><hdop>3.0</hdop><vdop>3.0</vdop><extensions><gom:speed>0.935</gom:speed></extensions></trkpt>
   <trkpt lat="59.092392374" lon="29.9943639454"><ele>100.473</ele><time>2026-04-25T14:30:14.000Z</time><hdop>3.0</hdop><vdop>3.0</vdop><extensions><gom:speed>1.118</gom:speed></extensions></trkpt>
   <trkpt lat="59.0923815614" lon="29.9943539709"><ele>100.763</ele><time>2026-04-25T14:30:15.000Z</time><hdop>3.0</hdop><vdop>3.0</vdop><extensions><gom:speed>1.072</gom:speed></extensions></trkpt>
   <trkpt lat="59.0923681922" lon="29.9943436612"><ele>100.925</ele><time>2026-04-25T14:30:16.000Z</time><hdop>3.0</hdop><vdop>3.0</vdop><extensions><gom:speed>1.06</gom:speed></extensions></trkpt>
   <trkpt lat="59.0923535658" lon="29.994330334"><ele>100.94</ele><time>2026-04-25T14:30:17.000Z</time><hdop>3.0</hdop><vdop>3.0</vdop><extensions><gom:speed>1.041</gom:speed></extensions></trkpt>
   <trkpt lat="59.092339568" lon="29.9943153304"><ele>100.803</ele><time>2026-04-25T14:30:18.000Z</time><hdop>3.0</hdop><vdop>3.0</vdop><extensions><gom:speed>1.003</gom:speed></extensions></trkpt>
   <trkpt lat="59.0923237682" lon="29.9942994886"><ele>100.62</ele><time>2026-04-25T14:30:19.000Z</time><hdop>3.0</hdop><vdop>3.0</vdop><extensions><gom:speed>1.071</gom:speed></extensions></trkpt>
   <trkpt lat="59.0923082197" lon="29.9942847364"><ele>100.441</ele><time>2026-04-25T14:30:20.000Z</time><hdop>3.0</hdop><vdop>3.0</vdop><extensions><gom:speed>1.158</gom:speed></extensions></trkpt>
   <trkpt lat="59.0922935095" lon="29.9942717445"><ele>100.293</ele><time>2026-04-25T14:30:21.000Z</time><hdop>3.0</hdop><vdop>3.0</vdop><extensions><gom:speed>1.113</gom:speed></extensions></trkpt>
   <trkpt lat="59.0922802242" lon="29.9942633626"><ele>100.195</ele><time>2026-04-25T14:30:22.000Z</time><hdop>3.0</hdop><vdop>3.0</vdop><extensions><gom:speed>0.975</gom:speed></extensions></trkpt>
   <trkpt lat="59.0922673579" lon="29.9942574114"><ele>100.14</ele><time>2026-04-25T14:30:23.000Z</time><hdop>3.0</hdop><vdop>3.0</vdop><extensions><gom:speed>0.937</gom:speed></extensions></trkpt>
   <trkpt lat="59.0922531506" lon="29.9942591716"><ele>100.174</ele><time>2026-04-25T14:30:24.000Z</time><hdop>3.187</hdop><vdop>3.187</vdop><extensions><gom:speed>0.959</gom:speed></extensions></trkpt>
   <trkpt lat="59.0922405359" lon="29.994260848"><ele>100.166</ele><time>2026-04-25T14:30:25.000Z</time><hdop>3.25</hdop><vdop>3.25</vdop><extensions><gom:speed>1.184</gom:speed></extensions></trkpt>
   <trkpt lat="59.0922269991" lon="29.9942655418"><ele>100.128</ele><time>2026-04-25T14:30:26.000Z</time><hdop>3.0</hdop><vdop>3.0</vdop><extensions><gom:speed>1.228</gom:speed></extensions></trkpt>
   <trkpt lat="59.0922155159" lon="29.9942652904"><ele>100.102</ele><time>2026-04-25T14:30:27.000Z</time><hdop>3.0</hdop><vdop>3.0</vdop><extensions><gom:speed>1.021</gom:speed></extensions></trkpt>
   <trkpt lat="59.0922155159" lon="29.9942652904"><ele>100.087</ele><time>2026-04-25T14:30:27.000Z</time><hdop>3.0</hdop><vdop>3.0</vdop><extensions><gom:speed>1.021</gom:speed></extensions></trkpt>
   <trkpt lat="59.092207134" lon="29.9942628596"><ele>100.056</ele><time>2026-04-25T14:30:28.000Z</time><hdop>3.0</hdop><vdop>3.0</vdop><extensions><gom:speed>1.159</gom:speed></extensions></trkpt>
   <trkpt lat="59.0921991293" lon="29.9942594231"><ele>100.046</ele><time>2026-04-25T14:30:29.000Z</time><hdop>3.0</hdop><vdop>3.0</vdop><extensions><gom:speed>0.911</gom:speed></extensions></trkpt>
   <trkpt lat="59.0921910407" lon="29.994257579"><ele>100.086</ele><time>2026-04-25T14:30:30.000Z</time><hdop>3.0</hdop><vdop>3.0</vdop><extensions><gom:speed>1.153</gom:speed></extensions></trkpt>
   <trkpt lat="59.0921812758" lon="29.9942495324"><ele>100.166</ele><time>2026-04-25T14:30:31.000Z</time><hdop>3.0</hdop><vdop>3.0</vdop><extensions><gom:speed>1.293</gom:speed></extensions></trkpt>
   <trkpt lat="59.0921690801" lon="29.994239977"><ele>100.277</ele><time>2026-04-25T14:30:32.000Z</time><hdop>3.0</hdop><vdop>3.0</vdop><extensions><gom:speed>1.371</gom:speed></extensions></trkpt>
   <trkpt lat="59.0921550404" lon="29.9942364566"><ele>100.35</ele><time>2026-04-25T14:30:33.000Z</time><hdop>3.0</hdop><vdop>3.0</vdop><extensions><gom:speed>1.501</gom:speed></extensions></trkpt>
   <trkpt lat="59.0921410008" lon="29.9942339421"><ele>100.37</ele><time>2026-04-25T14:30:34.000Z</time><hdop>3.0</hdop><vdop>3.0</vdop><extensions><gom:speed>1.338</gom:speed></extensions></trkpt>
   <trkpt lat="59.0921281764" lon="29.9942301702"><ele>100.363</ele><time>2026-04-25T14:30:35.000Z</time><hdop>3.0</hdop><vdop>3.0</vdop><extensions><gom:speed>1.258</gom:speed></extensions></trkpt>
   <trkpt lat="59.0921161065" lon="29.9942249734"><ele>100.306</ele><time>2026-04-25T14:30:36.000Z</time><hdop>3.0</hdop><vdop>3.0</vdop><extensions><gom:speed>1.208</gom:speed></extensions></trkpt>
   <trkpt lat="59.0921036594" lon="29.994224722"><ele>100.25</ele><time>2026-04-25T14:30:37.000Z</time><hdop>3.0</hdop><vdop>3.0</vdop><extensions><gom:speed>1.261</gom:speed></extensions></trkpt>
   <trkpt lat="59.0920919666" lon="29.9942243029"><ele>100.187</ele><time>2026-04-25T14:30:38.000Z</time><hdop>3.0</hdop><vdop>3.0</vdop><extensions><gom:speed>1.25</gom:speed></extensions></trkpt>
   <trkpt lat="59.0920790585" lon="29.9942207825"><ele>100.161</ele><time>2026-04-25T14:30:39.000Z</time><hdop>3.0</hdop><vdop>3.0</vdop><extensions><gom:speed>1.389</gom:speed></extensions></trkpt>
   <trkpt lat="59.092065396" lon="29.9942166754"><ele>100.139</ele><time>2026-04-25T14:30:40.000Z</time><hdop>3.0</hdop><vdop>3.0</vdop><extensions><gom:speed>1.31</gom:speed></extensions></trkpt>
   <trkpt lat="59.09205056" lon="29.9942093831"><ele>100.127</ele><time>2026-04-25T14:30:41.000Z</time><hdop>3.0</hdop><vdop>3.0</vdop><extensions><gom:speed>1.409</gom:speed></extensions></trkpt>
   <trkpt lat="59.0920367718" lon="29.9941998277"><ele>102.71</ele><time>2026-04-25T14:30:42.000Z</time><hdop>4.687</hdop><vdop>4.687</vdop><extensions><gom:speed>1.3</gom:speed></extensions></trkpt>
   <trkpt lat="59.092010746" lon="29.9942351994"><ele>104.047</ele><time>2026-04-25T14:30:43.000Z</time><hdop>4.687</hdop><vdop>4.687</vdop><extensions><gom:speed>1.057</gom:speed></extensions></trkpt>
   <trkpt lat="59.0919964129" lon="29.9942182679"><ele>104.415</ele><time>2026-04-25T14:30:44.000Z</time><hdop>4.812</hdop><vdop>4.812</vdop><extensions><gom:speed>0.874</gom:speed></extensions></trkpt>
   <trkpt lat="59.0919877796" lon="29.9941841536"><ele>104.415</ele><time>2026-04-25T14:30:45.000Z</time><hdop>4.25</hdop><vdop>4.25</vdop><extensions><gom:speed>0.752</gom:speed></extensions></trkpt>
   <trkpt lat="59.0919265917" lon="29.9941341974"><ele>102.269</ele><time>2026-04-25T14:30:46.000Z</time><hdop>2.5</hdop><vdop>2.5</vdop><extensions><gom:speed>1.363</gom:speed></extensions></trkpt>
   <trkpt lat="59.0919265917" lon="29.9941341974"><ele>100.987</ele><time>2026-04-25T14:30:46.000Z</time><hdop>2.5</hdop><vdop>2.5</vdop><extensions><gom:speed>1.363</gom:speed></extensions></trkpt>
   <trkpt lat="59.0919058465" lon="29.9941229657"><ele>99.922</ele><time>2026-04-25T14:30:47.000Z</time><hdop>1.0</hdop><vdop>1.0</vdop><extensions><gom:speed>1.351</gom:speed></extensions></trkpt>
   <trkpt lat="59.0919058465" lon="29.9941229657"><ele>99.285</ele><time>2026-04-25T14:30:47.000Z</time><hdop>1.0</hdop><vdop>1.0</vdop><extensions><gom:speed>1.351</gom:speed></extensions></trkpt>
   <trkpt lat="59.091883383" lon="29.994093629"><ele>98.504</ele><time>2026-04-25T14:30:48.000Z</time><hdop>1.0</hdop><vdop>1.0</vdop><extensions><gom:speed>1.441</gom:speed></extensions></trkpt>
   <trkpt lat="59.0918707682" lon="29.9940788769"><ele>98.191</ele><time>2026-04-25T14:30:49.000Z</time><hdop>1.0</hdop><vdop>1.0</vdop><extensions><gom:speed>1.414</gom:speed></extensions></trkpt>
   <trkpt lat="59.0918783119" lon="29.9940798827"><ele>97.585</ele><time>2026-04-25T14:30:50.000Z</time><hdop>1.0</hdop><vdop>1.0</vdop><extensions><gom:speed>1.216</gom:speed></extensions></trkpt>
   <trkpt lat="59.0918580277" lon="29.9940583412"><ele>96.875</ele><time>2026-04-25T14:30:51.000Z</time><hdop>1.0</hdop><vdop>1.0</vdop><extensions><gom:speed>1.135</gom:speed></extensions></trkpt>
   <trkpt lat="59.0918502744" lon="29.9940507975"><ele>96.287</ele><time>2026-04-25T14:30:52.000Z</time><hdop>1.437</hdop><vdop>1.437</vdop><extensions><gom:speed>0.536</gom:speed></extensions></trkpt>
   <trkpt lat="59.0918436108" lon="29.9940532282"><ele>95.967</ele><time>2026-04-25T14:30:53.000Z</time><hdop>1.875</hdop><vdop>1.875</vdop><extensions><gom:speed>0.215</gom:speed></extensions></trkpt>
   <trkpt lat="59.0918490591" lon="29.9940525577"><ele>96.981</ele><time>2026-04-25T14:30:54.000Z</time><hdop>4.375</hdop><vdop>4.375</vdop><extensions><gom:speed>0.857</gom:speed></extensions></trkpt>
   <trkpt lat="59.0918524537" lon="29.9940490373"><ele>97.537</ele><time>2026-04-25T14:30:55.000Z</time><hdop>4.312</hdop><vdop>4.312</vdop><extensions><gom:speed>1.157</gom:speed></extensions></trkpt>
   <trkpt lat="59.0918470474" lon="29.9940445111"><ele>97.82</ele><time>2026-04-25T14:30:56.000Z</time><hdop>3.875</hdop><vdop>3.875</vdop><extensions><gom:speed>1.372</gom:speed></extensions></trkpt>
   <trkpt lat="59.0918325048" lon="29.9940421641"><ele>97.908</ele><time>2026-04-25T14:30:57.000Z</time><hdop>3.562</hdop><vdop>3.562</vdop><extensions><gom:speed>1.33</gom:speed></extensions></trkpt>
   <trkpt lat="59.0918159925" lon="29.9940434214"><ele>97.951</ele><time>2026-04-25T14:30:58.000Z</time><hdop>3.437</hdop><vdop>3.437</vdop><extensions><gom:speed>1.301</gom:speed></extensions></trkpt>
   <trkpt lat="59.0918014918" lon="29.9940454331"><ele>97.955</ele><time>2026-04-25T14:30:59.000Z</time><hdop>3.125</hdop><vdop>3.125</vdop><extensions><gom:speed>1.34</gom:speed></extensions></trkpt>
   <trkpt lat="59.0917890866" lon="29.9940490373"><ele>97.966</ele><time>2026-04-25T14:31:00.000Z</time><hdop>3.0</hdop><vdop>3.0</vdop><extensions><gom:speed>1.078</gom:speed></extensions></trkpt>
   <trkpt lat="59.0917794474" lon="29.9940508813"><ele>98.003</ele><time>2026-04-25T14:31:01.000Z</time><hdop>3.0</hdop><vdop>3.0</vdop><extensions><gom:speed>1.009</gom:speed></extensions></trkpt>
   <trkpt lat="59.0917681318" lon="29.9940517195"><ele>98.025</ele><time>2026-04-25T14:31:02.000Z</time><hdop>3.0</hdop><vdop>3.0</vdop><extensions><gom:speed>1.278</gom:speed></extensions></trkpt>
   <trkpt lat="59.0917539245" lon="29.994051971"><ele>98.021</ele><time>2026-04-25T14:31:03.000Z</time><hdop>3.0</hdop><vdop>3.0</vdop><extensions><gom:speed>1.353</gom:speed></extensions></trkpt>
   <trkpt lat="59.0917395495" lon="29.9940512166"><ele>98.037</ele><time>2026-04-25T14:31:04.000Z</time><hdop>3.0</hdop><vdop>3.0</vdop><extensions><gom:speed>1.454</gom:speed></extensions></trkpt>
   <trkpt lat="59.0917253003" lon="29.9940510489"><ele>98.031</ele><time>2026-04-25T14:31:05.000Z</time><hdop>3.0</hdop><vdop>3.0</vdop><extensions><gom:speed>1.528</gom:speed></extensions></trkpt>
   <trkpt lat="59.0917127693" lon="29.9940507137"><ele>98.069</ele><time>2026-04-25T14:31:06.000Z</time><hdop>3.0</hdop><vdop>3.0</vdop><extensions><gom:speed>1.296</gom:speed></extensions></trkpt>
   <trkpt lat="59.0917000288" lon="29.9940515519"><ele>98.113</ele><time>2026-04-25T14:31:07.000Z</time><hdop>3.0</hdop><vdop>3.0</vdop><extensions><gom:speed>1.266</gom:speed></extensions></trkpt>
   <trkpt lat="59.0917000288" lon="29.9940515519"><ele>98.14</ele><time>2026-04-25T14:31:07.000Z</time><hdop>3.0</hdop><vdop>3.0</vdop><extensions><gom:speed>1.266</gom:speed></extensions></trkpt>
   <trkpt lat="59.0916861568" lon="29.9940522224"><ele>98.165</ele><time>2026-04-25T14:31:08.000Z</time><hdop>3.0</hdop><vdop>3.0</vdop><extensions><gom:speed>1.304</gom:speed></extensions></trkpt>
   <trkpt lat="59.0916718237" lon="29.994048702"><ele>98.172</ele><time>2026-04-25T14:31:09.000Z</time><hdop>3.0</hdop><vdop>3.0</vdop><extensions><gom:speed>1.356</gom:speed></extensions></trkpt>
   <trkpt lat="59.091658245" lon="29.9940445111"><ele>98.2</ele><time>2026-04-25T14:31:10.000Z</time><hdop>3.0</hdop><vdop>3.0</vdop><extensions><gom:speed>1.337</gom:speed></extensions></trkpt>
   <trkpt lat="59.0916451693" lon="29.9940437567"><ele>98.317</ele><time>2026-04-25T14:31:11.000Z</time><hdop>3.0</hdop><vdop>3.0</vdop><extensions><gom:speed>1.415</gom:speed></extensions></trkpt>
   <trkpt lat="59.0916325545" lon="29.9940422479"><ele>98.447</ele><time>2026-04-25T14:31:12.000Z</time><hdop>3.0</hdop><vdop>3.0</vdop><extensions><gom:speed>1.421</gom:speed></extensions></trkpt>
   <trkpt lat="59.091620275" lon="29.9940385599"><ele>98.623</ele><time>2026-04-25T14:31:13.000Z</time><hdop>3.0</hdop><vdop>3.0</vdop><extensions><gom:speed>1.512</gom:speed></extensions></trkpt>
   <trkpt lat="59.0916072831" lon="29.9940332793"><ele>100.183</ele><time>2026-04-25T14:31:14.000Z</time><hdop>4.687</hdop><vdop>4.687</vdop><extensions><gom:speed>0.994</gom:speed></extensions></trkpt>
   <trkpt lat="59.0915894296" lon="29.9940263223"><ele>100.982</ele><time>2026-04-25T14:31:15.000Z</time><hdop>4.875</hdop><vdop>4.875</vdop><extensions><gom:speed>1.372</gom:speed></extensions></trkpt>
   <trkpt lat="59.0915805867" lon="29.9940142524"><ele>101.516</ele><time>2026-04-25T14:31:16.000Z</time><hdop>2.625</hdop><vdop>2.625</vdop><extensions><gom:speed>1.193</gom:speed></extensions></trkpt>
   <trkpt lat="59.0915596739" lon="29.9939860892"><ele>100.872</ele><time>2026-04-25T14:31:17.000Z</time><hdop>2.625</hdop><vdop>2.625</vdop><extensions><gom:speed>1.133</gom:speed></extensions></trkpt>
   <trkpt lat="59.0915509567" lon="29.9939860054"><ele>99.806</ele><time>2026-04-25T14:31:18.000Z</time><hdop>1.75</hdop><vdop>1.75</vdop><extensions><gom:speed>1.14</gom:speed></extensions></trkpt>
   <trkpt lat="59.0915302534" lon="29.9939693254"><ele>99.163</ele><time>2026-04-25T14:31:19.000Z</time><hdop>3.0</hdop><vdop>3.0</vdop><extensions><gom:speed>1.38</gom:speed></extensions></trkpt>
   <trkpt lat="59.0915166328" lon="29.9939641286"><ele>98.561</ele><time>2026-04-25T14:31:20.000Z</time><hdop>2.125</hdop><vdop>2.125</vdop><extensions><gom:speed>1.27</gom:speed></extensions></trkpt>
   <trkpt lat="59.0915001624" lon="29.9939304334"><ele>98.083</ele><time>2026-04-25T14:31:21.000Z</time><hdop>2.625</hdop><vdop>2.625</vdop><extensions><gom:speed>2.546</gom:speed></extensions></trkpt>
   <trkpt lat="59.0914884696" lon="29.993881483"><ele>97.916</ele><time>2026-04-25T14:31:22.000Z</time><hdop>3.0</hdop><vdop>3.0</vdop><extensions><gom:speed>3.316</gom:speed></extensions></trkpt>
   <trkpt lat="59.091475771" lon="29.9938577623"><ele>97.701</ele><time>2026-04-25T14:31:23.000Z</time><hdop>3.125</hdop><vdop>3.125</vdop><extensions><gom:speed>1.975</gom:speed></extensions></trkpt>
   <trkpt lat="59.0914684368" lon="29.9938434292"><ele>97.627</ele><time>2026-04-25T14:31:24.000Z</time><hdop>3.062</hdop><vdop>3.062</vdop><extensions><gom:speed>1.078</gom:speed></extensions></trkpt>
   <trkpt lat="59.0914617732" lon="29.9938297667"><ele>97.623</ele><time>2026-04-25T14:31:25.000Z</time><hdop>3.125</hdop><vdop>3.125</vdop><extensions><gom:speed>1.145</gom:speed></extensions></trkpt>
   <trkpt lat="59.0914493261" lon="29.9938423396"><ele>97.484</ele><time>2026-04-25T14:31:26.000Z</time><hdop>3.0</hdop><vdop>3.0</vdop><extensions><gom:speed>1.018</gom:speed></extensions></trkpt>
   <trkpt lat="59.0914372981" lon="29.9938339577"><ele>97.375</ele><time>2026-04-25T14:31:27.000Z</time><hdop>2.937</hdop><vdop>2.937</vdop><extensions><gom:speed>1.322</gom:speed></extensions></trkpt>
   <trkpt lat="59.0914372981" lon="29.9938339577"><ele>97.31</ele><time>2026-04-25T14:31:27.000Z</time><hdop>2.937</hdop><vdop>2.937</vdop><extensions><gom:speed>1.322</gom:speed></extensions></trkpt>
   <trkpt lat="59.0914227136" lon="29.9938252405"><ele>97.247</ele><time>2026-04-25T14:31:28.000Z</time><hdop>2.812</hdop><vdop>2.812</vdop><extensions><gom:speed>2.498</gom:speed></extensions></trkpt>
   <trkpt lat="59.09140771" lon="29.9938409146"><ele>97.189</ele><time>2026-04-25T14:31:29.000Z</time><hdop>2.937</hdop><vdop>2.937</vdop><extensions><gom:speed>1.867</gom:speed></extensions></trkpt>
   <trkpt lat="59.0914069137" lon="29.9938299343"><ele>97.183</ele><time>2026-04-25T14:31:30.000Z</time><hdop>3.375</hdop><vdop>3.375</vdop><extensions><gom:speed>0.537</gom:speed></extensions></trkpt>
   <trkpt lat="59.0913999567" lon="29.9938270007"><ele>97.179</ele><time>2026-04-25T14:31:31.000Z</time><hdop>3.5</hdop><vdop>3.5</vdop><extensions><gom:speed>0.758</gom:speed></extensions></trkpt>
   <trkpt lat="59.0913906947" lon="29.993827336"><ele>97.186</ele><time>2026-04-25T14:31:32.000Z</time><hdop>3.562</hdop><vdop>3.562</vdop><extensions><gom:speed>0.607</gom:speed></extensions></trkpt>
   <trkpt lat="59.0913839054" lon="29.9938202113"><ele>97.176</ele><time>2026-04-25T14:31:33.000Z</time><hdop>3.625</hdop><vdop>3.625</vdop><extensions><gom:speed>0.992</gom:speed></extensions></trkpt>
   <trkpt lat="59.0913781638" lon="29.9938257434"><ele>97.098</ele><time>2026-04-25T14:31:34.000Z</time><hdop>3.625</hdop><vdop>3.625</vdop><extensions><gom:speed>0.806</gom:speed></extensions></trkpt>
   <trkpt lat="59.0913669739" lon="29.9938363046"><ele>97.034</ele><time>2026-04-25T14:31:35.000Z</time><hdop>3.937</hdop><vdop>3.937</vdop><extensions><gom:speed>1.004</gom:speed></extensions></trkpt>
   <trkpt lat="59.0913438399" lon="29.9938558344"><ele>97.129</ele><time>2026-04-25T14:31:36.000Z</time><hdop>3.937</hdop><vdop>3.937</vdop><extensions><gom:speed>2.496</gom:speed></extensions></trkpt>
   <trkpt lat="59.0913158443" lon="29.9938764539"><ele>97.289</ele><time>2026-04-25T14:31:37.000Z</time><hdop>4.5</hdop><vdop>4.5</vdop><extensions><gom:speed>0.376</gom:speed></extensions></trkpt>
   <trkpt lat="59.0912913272" lon="29.9938905355"><ele>97.497</ele><time>2026-04-25T14:31:38.000Z</time><hdop>4.562</hdop><vdop>4.562</vdop><extensions><gom:speed>0.49</gom:speed></extensions></trkpt>
   <trkpt lat="59.0912717136" lon="29.9938984145"><ele>96.912</ele><time>2026-04-25T14:31:39.000Z</time><hdop>3.0</hdop><vdop>3.0</vdop><extensions><gom:speed>1.291</gom:speed></extensions></trkpt>
   <trkpt lat="59.0912580511" lon="29.9938971572"><ele>96.514</ele><time>2026-04-25T14:31:40.000Z</time><hdop>3.0</hdop><vdop>3.0</vdop><extensions><gom:speed>1.483</gom:speed></extensions></trkpt>
   <trkpt lat="59.0912450172" lon="29.9938952294"><ele>96.254</ele><time>2026-04-25T14:31:41.000Z</time><hdop>3.0</hdop><vdop>3.0</vdop><extensions><gom:speed>1.265</gom:speed></extensions></trkpt>
   <trkpt lat="59.0912330311" lon="29.993890787"><ele>96.078</ele><time>2026-04-25T14:31:42.000Z</time><hdop>3.0</hdop><vdop>3.0</vdop><extensions><gom:speed>1.246</gom:speed></extensions></trkpt>
   <trkpt lat="59.091220584" lon="29.9938843329"><ele>95.941</ele><time>2026-04-25T14:31:43.000Z</time><hdop>3.0</hdop><vdop>3.0</vdop><extensions><gom:speed>1.352</gom:speed></extensions></trkpt>
   <trkpt lat="59.0912063766" lon="29.9938778788"><ele>95.867</ele><time>2026-04-25T14:31:44.000Z</time><hdop>3.0</hdop><vdop>3.0</vdop><extensions><gom:speed>1.55</gom:speed></extensions></trkpt>
   <trkpt lat="59.0911922531" lon="29.9938711733"><ele>95.804</ele><time>2026-04-25T14:31:45.000Z</time><hdop>3.0</hdop><vdop>3.0</vdop><extensions><gom:speed>1.479</gom:speed></extensions></trkpt>
   <trkpt lat="59.0911790516" lon="29.9938675691"><ele>95.806</ele><time>2026-04-25T14:31:46.000Z</time><hdop>3.0</hdop><vdop>3.0</vdop><extensions><gom:speed>1.296</gom:speed></extensions></trkpt>
   <trkpt lat="59.0911657663" lon="29.9938652222"><ele>95.808</ele><time>2026-04-25T14:31:47.000Z</time><hdop>3.0</hdop><vdop>3.0</vdop><extensions><gom:speed>1.282</gom:speed></extensions></trkpt>
   <trkpt lat="59.0911657663" lon="29.9938652222"><ele>95.81</ele><time>2026-04-25T14:31:47.000Z</time><hdop>3.0</hdop><vdop>3.0</vdop><extensions><gom:speed>1.282</gom:speed></extensions></trkpt>
   <trkpt lat="59.0911543669" lon="29.9938595225"><ele>95.8</ele><time>2026-04-25T14:31:48.000Z</time><hdop>3.0</hdop><vdop>3.0</vdop><extensions><gom:speed>1.402</gom:speed></extensions></trkpt>
   <trkpt lat="59.0911430933" lon="29.9938502185"><ele>95.807</ele><time>2026-04-25T14:31:49.000Z</time><hdop>3.0</hdop><vdop>3.0</vdop><extensions><gom:speed>1.404</gom:speed></extensions></trkpt>
   <trkpt lat="59.0911323644" lon="29.9938396573"><ele>95.835</ele><time>2026-04-25T14:31:50.000Z</time><hdop>3.0</hdop><vdop>3.0</vdop><extensions><gom:speed>1.334</gom:speed></extensions></trkpt>
   <trkpt lat="59.0911215518" lon="29.9938285932"><ele>95.869</ele><time>2026-04-25T14:31:51.000Z</time><hdop>3.0</hdop><vdop>3.0</vdop><extensions><gom:speed>1.383</gom:speed></extensions></trkpt>
   <trkpt lat="59.0911109487" lon="29.993814344"><ele>95.925</ele><time>2026-04-25T14:31:52.000Z</time><hdop>3.0</hdop><vdop>3.0</vdop><extensions><gom:speed>1.357</gom:speed></extensions></trkpt>
   <trkpt lat="59.0911003875" lon="29.9938005139"><ele>95.99</ele><time>2026-04-25T14:31:53.000Z</time><hdop>3.0</hdop><vdop>3.0</vdop><extensions><gom:speed>1.328</gom:speed></extensions></trkpt>
   <trkpt lat="59.0910905387" lon="29.9937844206"><ele>96.096</ele><time>2026-04-25T14:31:54.000Z</time><hdop>3.0</hdop><vdop>3.0</vdop><extensions><gom:speed>1.367</gom:speed></extensions></trkpt>
   <trkpt lat="59.0910801033" lon="29.993771261"><ele>96.228</ele><time>2026-04-25T14:31:55.000Z</time><hdop>3.0</hdop><vdop>3.0</vdop><extensions><gom:speed>1.341</gom:speed></extensions></trkpt>
   <trkpt lat="59.0910674466" lon="29.9937612866"><ele>96.343</ele><time>2026-04-25T14:31:56.000Z</time><hdop>3.0</hdop><vdop>3.0</vdop><extensions><gom:speed>1.249</gom:speed></extensions></trkpt>
   <trkpt lat="59.091057053" lon="29.9937502224"><ele>96.447</ele><time>2026-04-25T14:31:57.000Z</time><hdop>3.0</hdop><vdop>3.0</vdop><extensions><gom:speed>1.186</gom:speed></extensions></trkpt>
   <trkpt lat="59.0910474139" lon="29.99374117"><ele>96.564</ele><time>2026-04-25T14:31:58.000Z</time><hdop>3.0</hdop><vdop>3.0</vdop><extensions><gom:speed>1.103</gom:speed></extensions></trkpt>
   <trkpt lat="59.0910373975" lon="29.9937342968"><ele>99.566</ele><time>2026-04-25T14:31:59.000Z</time><hdop>5.187</hdop><vdop>5.187</vdop><extensions><gom:speed>1.541</gom:speed></extensions></trkpt>
   <trkpt lat="59.0910290575" lon="29.9937246576"><ele>101.301</ele><time>2026-04-25T14:32:00.000Z</time><hdop>14.187</hdop><vdop>14.187</vdop><extensions><gom:speed>1.146</gom:speed></extensions></trkpt>
   <trkpt lat="59.0910280517" lon="29.9937152699"><ele>102.064</ele><time>2026-04-25T14:32:01.000Z</time><hdop>16.437</hdop><vdop>16.437</vdop><extensions><gom:speed>0.964</gom:speed></extensions></trkpt>
   <trkpt lat="59.0910271296" lon="29.9936987576"><ele>101.379</ele><time>2026-04-25T14:32:02.000Z</time><hdop>17.687</hdop><vdop>17.687</vdop><extensions><gom:speed>0.72</gom:speed></extensions></trkpt>
   <trkpt lat="59.0910301052" lon="29.9936964106"><ele>101.139</ele><time>2026-04-25T14:32:03.000Z</time><hdop>15.937</hdop><vdop>15.937</vdop><extensions><gom:speed>0.804</gom:speed></extensions></trkpt>
   <trkpt lat="59.0910309434" lon="29.9936984223"><ele>101.664</ele><time>2026-04-25T14:32:04.000Z</time><hdop>10.812</hdop><vdop>10.812</vdop><extensions><gom:speed>1.586</gom:speed></extensions></trkpt>
   <trkpt lat="59.0910390739" lon="29.9936747853"><ele>101.978</ele><time>2026-04-25T14:32:05.000Z</time><hdop>4.687</hdop><vdop>4.687</vdop><extensions><gom:speed>1.67</gom:speed></extensions></trkpt>
   <trkpt lat="59.0910262076" lon="29.9936624639"><ele>102.178</ele><time>2026-04-25T14:32:06.000Z</time><hdop>4.687</hdop><vdop>4.687</vdop><extensions><gom:speed>1.66</gom:speed></extensions></trkpt>
   <trkpt lat="59.0910355954" lon="29.9936598655"><ele>102.447</ele><time>2026-04-25T14:32:07.000Z</time><hdop>4.687</hdop><vdop>4.687</vdop><extensions><gom:speed>1.414</gom:speed></extensions></trkpt>
   <trkpt lat="59.0910355954" lon="29.9936598655"><ele>102.607</ele><time>2026-04-25T14:32:07.000Z</time><hdop>4.687</hdop><vdop>4.687</vdop><extensions><gom:speed>1.414</gom:speed></extensions></trkpt>
   <trkpt lat="59.0910227711" lon="29.9936835863"><ele>102.85</ele><time>2026-04-25T14:32:08.000Z</time><hdop>4.937</hdop><vdop>4.937</vdop><extensions><gom:speed>1.104</gom:speed></extensions></trkpt>
   <trkpt lat="59.0910057139" lon="29.993692052"><ele>103.026</ele><time>2026-04-25T14:32:09.000Z</time><hdop>4.937</hdop><vdop>4.937</vdop><extensions><gom:speed>1.18</gom:speed></extensions></trkpt>
   <trkpt lat="59.090994063" lon="29.9937003501"><ele>103.071</ele><time>2026-04-25T14:32:10.000Z</time><hdop>3.875</hdop><vdop>3.875</vdop><extensions><gom:speed>1.15</gom:speed></extensions></trkpt>
   <trkpt lat="59.0909729826" lon="29.9936995119"><ele>102.828</ele><time>2026-04-25T14:32:11.000Z</time><hdop>2.812</hdop><vdop>2.812</vdop><extensions><gom:speed>1.161</gom:speed></extensions></trkpt>
   <trkpt lat="59.0909723958" lon="29.9936793954"><ele>102.72</ele><time>2026-04-25T14:32:12.000Z</time><hdop>3.437</hdop><vdop>3.437</vdop><extensions><gom:speed>1.058</gom:speed></extensions></trkpt>
   <trkpt lat="59.0909484236" lon="29.9936545849"><ele>100.785</ele><time>2026-04-25T14:32:13.000Z</time><hdop>4.75</hdop><vdop>4.75</vdop><extensions><gom:speed>1.172</gom:speed></extensions></trkpt>
   <trkpt lat="59.0909322884" lon="29.993629523"><ele>98.772</ele><time>2026-04-25T14:32:14.000Z</time><hdop>4.687</hdop><vdop>4.687</vdop><extensions><gom:speed>1.689</gom:speed></extensions></trkpt>
   <trkpt lat="59.0909311988" lon="29.9936049641"><ele>97.59</ele><time>2026-04-25T14:32:15.000Z</time><hdop>4.687</hdop><vdop>4.687</vdop><extensions><gom:speed>1.385</gom:speed></extensions></trkpt>
   <trkpt lat="59.0909364794" lon="29.9935935647"><ele>96.88</ele><time>2026-04-25T14:32:16.000Z</time><hdop>4.687</hdop><vdop>4.687</vdop><extensions><gom:speed>0.361</gom:speed></extensions></trkpt>
   <trkpt lat="59.0909296062" lon="29.9935960792"><ele>96.974</ele><time>2026-04-25T14:32:17.000Z</time><hdop>4.687</hdop><vdop>4.687</vdop><extensions><gom:speed>0.12</gom:speed></extensions></trkpt>
   <trkpt lat="59.0909285166" lon="29.9935960792"><ele>97.027</ele><time>2026-04-25T14:32:18.000Z</time><hdop>4.687</hdop><vdop>4.687</vdop><extensions><gom:speed>0.745</gom:speed></extensions></trkpt>
   <trkpt lat="59.0909212243" lon="29.9935852666"><ele>97.2</ele><time>2026-04-25T14:32:19.000Z</time><hdop>4.687</hdop><vdop>4.687</vdop><extensions><gom:speed>0.456</gom:speed></extensions></trkpt>
   <trkpt lat="59.0909007305" lon="29.9936104961"><ele>97.452</ele><time>2026-04-25T14:32:20.000Z</time><hdop>4.687</hdop><vdop>4.687</vdop><extensions><gom:speed>1.127</gom:speed></extensions></trkpt>
   <trkpt lat="59.090885685" lon="29.9936066404"><ele>97.553</ele><time>2026-04-25T14:32:21.000Z</time><hdop>4.687</hdop><vdop>4.687</vdop><extensions><gom:speed>1.145</gom:speed></extensions></trkpt>
   <trkpt lat="59.0908774708" lon="29.9935812433"><ele>97.573</ele><time>2026-04-25T14:32:22.000Z</time><hdop>4.687</hdop><vdop>4.687</vdop><extensions><gom:speed>0.929</gom:speed></extensions></trkpt>
   <trkpt lat="59.0908507325" lon="29.9935990967"><ele>97.362</ele><time>2026-04-25T14:32:23.000Z</time><hdop>4.687</hdop><vdop>4.687</vdop><extensions><gom:speed>1.326</gom:speed></extensions></trkpt>
   <trkpt lat="59.090801405" lon="29.9936252483"><ele>96.463</ele><time>2026-04-25T14:32:24.000Z</time><hdop>4.687</hdop><vdop>4.687</vdop><extensions><gom:speed>1.364</gom:speed></extensions></trkpt>
   <trkpt lat="59.0907481799" lon="29.993648047"><ele>96.095</ele><time>2026-04-25T14:32:25.000Z</time><hdop>4.687</hdop><vdop>4.687</vdop><extensions><gom:speed>1.24</gom:speed></extensions></trkpt>
   <trkpt lat="59.0907084916" lon="29.993659195"><ele>95.875</ele><time>2026-04-25T14:32:26.000Z</time><hdop>4.687</hdop><vdop>4.687</vdop><extensions><gom:speed>1.345</gom:speed></extensions></trkpt>
   <trkpt lat="59.0906859024" lon="29.9936593626"><ele>96.602</ele><time>2026-04-25T14:32:27.000Z</time><hdop>3.0</hdop><vdop>3.0</vdop><extensions><gom:speed>1.277</gom:speed></extensions></trkpt>
   <trkpt lat="59.0906859024" lon="29.9936593626"><ele>97.036</ele><time>2026-04-25T14:32:27.000Z</time><hdop>3.0</hdop><vdop>3.0</vdop><extensions><gom:speed>1.277</gom:speed></extensions></trkpt>
   <trkpt lat="59.0906753831" lon="29.9936574348"><ele>97.313</ele><time>2026-04-25T14:32:28.000Z</time><hdop>3.0</hdop><vdop>3.0</vdop><extensions><gom:speed>1.155</gom:speed></extensions></trkpt>
   <trkpt lat="59.0906641932" lon="29.9936514836"><ele>97.555</ele><time>2026-04-25T14:32:29.000Z</time><hdop>3.0</hdop><vdop>3.0</vdop><extensions><gom:speed>1.351</gom:speed></extensions></trkpt>
   <trkpt lat="59.090651327" lon="29.9936450296"><ele>97.748</ele><time>2026-04-25T14:32:30.000Z</time><hdop>3.0</hdop><vdop>3.0</vdop><extensions><gom:speed>1.474</gom:speed></extensions></trkpt>
   <trkpt lat="59.0906367425" lon="29.9936384917"><ele>97.87</ele><time>2026-04-25T14:32:31.000Z</time><hdop>3.0</hdop><vdop>3.0</vdop><extensions><gom:speed>1.454</gom:speed></extensions></trkpt>
   <trkpt lat="59.0906234991" lon="29.9936266732"><ele>97.94</ele><time>2026-04-25T14:32:32.000Z</time><hdop>3.0</hdop><vdop>3.0</vdop><extensions><gom:speed>1.49</gom:speed></extensions></trkpt>
   <trkpt lat="59.0906190567" lon="29.9936078139"><ele>97.858</ele><time>2026-04-25T14:32:33.000Z</time><hdop>3.5</hdop><vdop>3.5</vdop><extensions><gom:speed>1.599</gom:speed></extensions></trkpt>
   <trkpt lat="59.0906075735" lon="29.9936283496"><ele>97.921</ele><time>2026-04-25T14:32:34.000Z</time><hdop>3.375</hdop><vdop>3.375</vdop><extensions><gom:speed>0.904</gom:speed></extensions></trkpt>
   <trkpt lat="59.0906095013" lon="29.9935941514"><ele>97.966</ele><time>2026-04-25T14:32:35.000Z</time><hdop>3.0</hdop><vdop>3.0</vdop><extensions><gom:speed>1.369</gom:speed></extensions></trkpt>
   <trkpt lat="59.0905942882" lon="29.9936103285"><ele>98.001</ele><time>2026-04-25T14:32:36.000Z</time><hdop>3.562</hdop><vdop>3.562</vdop><extensions><gom:speed>1.286</gom:speed></extensions></trkpt>
   <trkpt lat="59.0905863254" lon="29.9935849313"><ele>98.007</ele><time>2026-04-25T14:32:37.000Z</time><hdop>4.312</hdop><vdop>4.312</vdop><extensions><gom:speed>1.208</gom:speed></extensions></trkpt>
   <trkpt lat="59.0905741297" lon="29.9935733643"><ele>98.07</ele><time>2026-04-25T14:32:38.000Z</time><hdop>4.687</hdop><vdop>4.687</vdop><extensions><gom:speed>1.483</gom:speed></extensions></trkpt>
   <trkpt lat="59.0905572402" lon="29.99357722"><ele>98.089</ele><time>2026-04-25T14:32:39.000Z</time><hdop>4.375</hdop><vdop>4.375</vdop><extensions><gom:speed>1.121</gom:speed></extensions></trkpt>
   <trkpt lat="59.0905437872" lon="29.9935692572"><ele>98.036</ele><time>2026-04-25T14:32:40.000Z</time><hdop>4.5</hdop><vdop>4.5</vdop><extensions><gom:speed>1.137</gom:speed></extensions></trkpt>
   <trkpt lat="59.0905282807" lon="29.9935824167"><ele>97.997</ele><time>2026-04-25T14:32:41.000Z</time><hdop>3.875</hdop><vdop>3.875</vdop><extensions><gom:speed>0.96</gom:speed></extensions></trkpt>
   <trkpt lat="59.0905237545" lon="29.9935652338"><ele>97.972</ele><time>2026-04-25T14:32:42.000Z</time><hdop>3.187</hdop><vdop>3.187</vdop><extensions><gom:speed>1.221</gom:speed></extensions></trkpt>
   <trkpt lat="59.090504979" lon="29.9935718555"><ele>97.908</ele><time>2026-04-25T14:32:43.000Z</time><hdop>2.187</hdop><vdop>2.187</vdop><extensions><gom:speed>1.015</gom:speed></extensions></trkpt>
   <trkpt lat="59.0904926576" lon="29.993558193"><ele>97.866</ele><time>2026-04-25T14:32:44.000Z</time><hdop>1.75</hdop><vdop>1.75</vdop><extensions><gom:speed>0.821</gom:speed></extensions></trkpt>
   <trkpt lat="59.0904813001" lon="29.9935619649"><ele>97.85</ele><time>2026-04-25T14:32:45.000Z</time><hdop>1.625</hdop><vdop>1.625</vdop><extensions><gom:speed>0.927</gom:speed></extensions></trkpt>
   <trkpt lat="59.0904691883" lon="29.9935423512"><ele>97.689</ele><time>2026-04-25T14:32:46.000Z</time><hdop>1.187</hdop><vdop>1.187</vdop><extensions><gom:speed>0.762</gom:speed></extensions></trkpt>
   <trkpt lat="59.0904543104" lon="29.993540591"><ele>97.464</ele><time>2026-04-25T14:32:47.000Z</time><hdop>1.25</hdop><vdop>1.25</vdop><extensions><gom:speed>0.443</gom:speed></extensions></trkpt>
   <trkpt lat="59.0904543104" lon="29.993540591"><ele>97.329</ele><time>2026-04-25T14:32:47.000Z</time><hdop>1.25</hdop><vdop>1.25</vdop><extensions><gom:speed>0.443</gom:speed></extensions></trkpt>
   <trkpt lat="59.0904424919" lon="29.9935295269"><ele>96.995</ele><time>2026-04-25T14:32:48.000Z</time><hdop>1.187</hdop><vdop>1.187</vdop><extensions><gom:speed>0.615</gom:speed></extensions></trkpt>
   <trkpt lat="59.0904320564" lon="29.99352257"><ele>96.642</ele><time>2026-04-25T14:32:49.000Z</time><hdop>1.125</hdop><vdop>1.125</vdop><extensions><gom:speed>1.081</gom:speed></extensions></trkpt>
   <trkpt lat="59.0904201122" lon="29.9935120088"><ele>96.337</ele><time>2026-04-25T14:32:50.000Z</time><hdop>1.25</hdop><vdop>1.25</vdop><extensions><gom:speed>1.443</gom:speed></extensions></trkpt>
   <trkpt lat="59.0904095929" lon="29.9935024534"><ele>96.171</ele><time>2026-04-25T14:32:51.000Z</time><hdop>2.375</hdop><vdop>2.375</vdop><extensions><gom:speed>1.04</gom:speed></extensions></trkpt>
   <trkpt lat="59.0903988222" lon="29.9934903834"><ele>95.916</ele><time>2026-04-25T14:32:52.000Z</time><hdop>2.875</hdop><vdop>2.875</vdop><extensions><gom:speed>1.649</gom:speed></extensions></trkpt>
   <trkpt lat="59.0903953856" lon="29.9934695125"><ele>95.756</ele><time>2026-04-25T14:32:53.000Z</time><hdop>3.437</hdop><vdop>3.437</vdop><extensions><gom:speed>1.464</gom:speed></extensions></trkpt>
   <trkpt lat="59.0903906917" lon="29.9934508209"><ele>95.675</ele><time>2026-04-25T14:32:54.000Z</time><hdop>3.75</hdop><vdop>3.75</vdop><extensions><gom:speed>1.375</gom:speed></extensions></trkpt>
   <trkpt lat="59.0903758558" lon="29.9934516591"><ele>95.622</ele><time>2026-04-25T14:32:55.000Z</time><hdop>4.0</hdop><vdop>4.0</vdop><extensions><gom:speed>1.463</gom:speed></extensions></trkpt>
   <trkpt lat="59.0903579185" lon="29.9934493959"><ele>95.45</ele><time>2026-04-25T14:32:56.000Z</time><hdop>3.187</hdop><vdop>3.187</vdop><extensions><gom:speed>1.283</gom:speed></extensions></trkpt>
   <trkpt lat="59.0903445494" lon="29.9934475519"><ele>95.412</ele><time>2026-04-25T14:32:57.000Z</time><hdop>3.062</hdop><vdop>3.062</vdop><extensions><gom:speed>0.85</gom:speed></extensions></trkpt>
   <trkpt lat="59.0903422443" lon="29.993430369"><ele>95.465</ele><time>2026-04-25T14:32:58.000Z</time><hdop>3.437</hdop><vdop>3.437</vdop><extensions><gom:speed>0.569</gom:speed></extensions></trkpt>
   <trkpt lat="59.090342412" lon="29.993433135"><ele>95.568</ele><time>2026-04-25T14:32:59.000Z</time><hdop>3.687</hdop><vdop>3.687</vdop><extensions><gom:speed>1.254</gom:speed></extensions></trkpt>
   <trkpt lat="59.0903309288" lon="29.9934482225"><ele>95.737</ele><time>2026-04-25T14:33:00.000Z</time><hdop>3.875</hdop><vdop>3.875</vdop><extensions><gom:speed>1.378</gom:speed></extensions></trkpt>
   <trkpt lat="59.0903204095" lon="29.9934272677"><ele>95.97</ele><time>2026-04-25T14:33:01.000Z</time><hdop>3.875</hdop><vdop>3.875</vdop><extensions><gom:speed>1.108</gom:speed></extensions></trkpt>
   <trkpt lat="59.0903104769" lon="29.9934332189"><ele>96.231</ele><time>2026-04-25T14:33:02.000Z</time><hdop>3.75</hdop><vdop>3.75</vdop><extensions><gom:speed>1.264</gom:speed></extensions></trkpt>
   <trkpt lat="59.0902996643" lon="29.9934379127"><ele>96.423</ele><time>2026-04-25T14:33:03.000Z</time><hdop>3.25</hdop><vdop>3.25</vdop><extensions><gom:speed>1.08</gom:speed></extensions></trkpt>
   <trkpt lat="59.0902898574" lon="29.9934514914"><ele>96.604</ele><time>2026-04-25T14:33:04.000Z</time><hdop>3.125</hdop><vdop>3.125</vdop><extensions><gom:speed>1.05</gom:speed></extensions></trkpt>
   <trkpt lat="59.090281727" lon="29.993449815"><ele>96.692</ele><time>2026-04-25T14:33:05.000Z</time><hdop>3.187</hdop><vdop>3.187</vdop><extensions><gom:speed>0.238</gom:speed></extensions></trkpt>
   <trkpt lat="59.0902795477" lon="29.9934427742"><ele>96.797</ele><time>2026-04-25T14:33:06.000Z</time><hdop>3.937</hdop><vdop>3.937</vdop><extensions><gom:speed>1.043</gom:speed></extensions></trkpt>
   <trkpt lat="59.0902725069" lon="29.993428525"><ele>96.859</ele><time>2026-04-25T14:33:07.000Z</time><hdop>4.687</hdop><vdop>4.687</vdop><extensions><gom:speed>1.294</gom:speed></extensions></trkpt>
   <trkpt lat="59.0902725069" lon="29.993428525"><ele>96.897</ele><time>2026-04-25T14:33:07.000Z</time><hdop>4.687</hdop><vdop>4.687</vdop><extensions><gom:speed>1.294</gom:speed></extensions></trkpt>
   <trkpt lat="59.0902606465" lon="29.9934471328"><ele>97.031</ele><time>2026-04-25T14:33:08.000Z</time><hdop>4.687</hdop><vdop>4.687</vdop><extensions><gom:speed>1.416</gom:speed></extensions></trkpt>
   <trkpt lat="59.090243757" lon="29.9934408464"><ele>97.386</ele><time>2026-04-25T14:33:09.000Z</time><hdop>4.687</hdop><vdop>4.687</vdop><extensions><gom:speed>1.415</gom:speed></extensions></trkpt>
   <trkpt lat="59.0902318547" lon="29.9934320454"><ele>97.594</ele><time>2026-04-25T14:33:10.000Z</time><hdop>4.687</hdop><vdop>4.687</vdop><extensions><gom:speed>0.953</gom:speed></extensions></trkpt>
   <trkpt lat="59.0902263645" lon="29.9934498989"><ele>97.72</ele><time>2026-04-25T14:33:11.000Z</time><hdop>4.687</hdop><vdop>4.687</vdop><extensions><gom:speed>1.108</gom:speed></extensions></trkpt>
   <trkpt lat="59.0902202457" lon="29.9934363202"><ele>97.796</ele><time>2026-04-25T14:33:12.000Z</time><hdop>4.687</hdop><vdop>4.687</vdop><extensions><gom:speed>0.384</gom:speed></extensions></trkpt>
   <trkpt lat="59.0902209163" lon="29.9934360687"><ele>97.944</ele><time>2026-04-25T14:33:13.000Z</time><hdop>4.687</hdop><vdop>4.687</vdop><extensions><gom:speed>1.012</gom:speed></extensions></trkpt>
   <trkpt lat="59.0902203715" lon="29.9934051395"><ele>98.038</ele><time>2026-04-25T14:33:14.000Z</time><hdop>4.687</hdop><vdop>4.687</vdop><extensions><gom:speed>0.869</gom:speed></extensions></trkpt>
   <trkpt lat="59.0902012188" lon="29.9934146949"><ele>97.879</ele><time>2026-04-25T14:33:15.000Z</time><hdop>4.687</hdop><vdop>4.687</vdop><extensions><gom:speed>1.203</gom:speed></extensions></trkpt>
   <trkpt lat="59.0901898613" lon="29.9933983501"><ele>97.865</ele><time>2026-04-25T14:33:16.000Z</time><hdop>4.687</hdop><vdop>4.687</vdop><extensions><gom:speed>1.169</gom:speed></extensions></trkpt>
   <trkpt lat="59.0901804736" lon="29.9933979311"><ele>98.056</ele><time>2026-04-25T14:33:17.000Z</time><hdop>4.687</hdop><vdop>4.687</vdop><extensions><gom:speed>0.166</gom:speed></extensions></trkpt>
   <trkpt lat="59.0901772885" lon="29.9934012"><ele>98.18</ele><time>2026-04-25T14:33:18.000Z</time><hdop>4.687</hdop><vdop>4.687</vdop><extensions><gom:speed>0.75</gom:speed></extensions></trkpt>
   <trkpt lat="59.0901648414" lon="29.9934056424"><ele>98.183</ele><time>2026-04-25T14:33:19.000Z</time><hdop>4.687</hdop><vdop>4.687</vdop><extensions><gom:speed>0.969</gom:speed></extensions></trkpt>
   <trkpt lat="59.0901505502" lon="29.9934036307"><ele>98.2</ele><time>2026-04-25T14:33:20.000Z</time><hdop>4.687</hdop><vdop>4.687</vdop><extensions><gom:speed>1.165</gom:speed></extensions></trkpt>
   <trkpt lat="59.0901342055" lon="29.9933892139"><ele>98.23</ele><time>2026-04-25T14:33:21.000Z</time><hdop>4.687</hdop><vdop>4.687</vdop><extensions><gom:speed>1.371</gom:speed></extensions></trkpt>
   <trkpt lat="59.0901173579" lon="29.9933887948"><ele>98.303</ele><time>2026-04-25T14:33:22.000Z</time><hdop>4.687</hdop><vdop>4.687</vdop><extensions><gom:speed>1.259</gom:speed></extensions></trkpt>
   <trkpt lat="59.090115891" lon="29.9933426943"><ele>98.406</ele><time>2026-04-25T14:33:23.000Z</time><hdop>4.937</hdop><vdop>4.937</vdop><extensions><gom:speed>1.663</gom:speed></extensions></trkpt>
   <trkpt lat="59.0900814833" lon="29.9933388386"><ele>98.538</ele><time>2026-04-25T14:33:24.000Z</time><hdop>4.625</hdop><vdop>4.625</vdop><extensions><gom:speed>1.267</gom:speed></extensions></trkpt>
   <trkpt lat="59.0900687847" lon="29.9933072389"><ele>98.702</ele><time>2026-04-25T14:33:25.000Z</time><hdop>4.562</hdop><vdop>4.562</vdop><extensions><gom:speed>1.519</gom:speed></extensions></trkpt>
   <trkpt lat="59.09005244" lon="29.993285865"><ele>98.714</ele><time>2026-04-25T14:33:26.000Z</time><hdop>4.312</hdop><vdop>4.312</vdop><extensions><gom:speed>1.501</gom:speed></extensions></trkpt>
   <trkpt lat="59.0900321558" lon="29.9932877928"><ele>98.604</ele><time>2026-04-25T14:33:27.000Z</time><hdop>3.75</hdop><vdop>3.75</vdop><extensions><gom:speed>1.423</gom:speed></extensions></trkpt>
   <trkpt lat="59.0900321558" lon="29.9932877928"><ele>98.538</ele><time>2026-04-25T14:33:27.000Z</time><hdop>3.75</hdop><vdop>3.75</vdop><extensions><gom:speed>1.423</gom:speed></extensions></trkpt>
   <trkpt lat="59.0900188286" lon="29.9932723701"><ele>98.473</ele><time>2026-04-25T14:33:28.000Z</time><hdop>3.937</hdop><vdop>3.937</vdop><extensions><gom:speed>1.677</gom:speed></extensions></trkpt>
   <trkpt lat="59.0900010171" lon="29.9932784889"><ele>98.407</ele><time>2026-04-25T14:33:29.000Z</time><hdop>3.312</hdop><vdop>3.312</vdop><extensions><gom:speed>1.556</gom:speed></extensions></trkpt>
   <trkpt lat="59.0899844628" lon="29.9932639882"><ele>98.413</ele><time>2026-04-25T14:33:30.000Z</time><hdop>3.625</hdop><vdop>3.625</vdop><extensions><gom:speed>1.984</gom:speed></extensions></trkpt>
   <trkpt lat="59.0899709679" lon="29.9932547681"><ele>98.435</ele><time>2026-04-25T14:33:31.000Z</time><hdop>3.812</hdop><vdop>3.812</vdop><extensions><gom:speed>1.59</gom:speed></extensions></trkpt>
   <trkpt lat="59.0899425533" lon="29.9932333105"><ele>98.093</ele><time>2026-04-25T14:33:32.000Z</time><hdop>3.625</hdop><vdop>3.625</vdop><extensions><gom:speed>3.413</gom:speed></extensions></trkpt>
   <trkpt lat="59.0899129652" lon="29.993192323"><ele>97.263</ele><time>2026-04-25T14:33:33.000Z</time><hdop>3.375</hdop><vdop>3.375</vdop><extensions><gom:speed>3.229</gom:speed></extensions></trkpt>
   <trkpt lat="59.0898883643" lon="29.9931688536"><ele>96.418</ele><time>2026-04-25T14:33:34.000Z</time><hdop>3.812</hdop><vdop>3.812</vdop><extensions><gom:speed>4.083</gom:speed></extensions></trkpt>
   <trkpt lat="59.089874115" lon="29.9931670096"><ele>95.903</ele><time>2026-04-25T14:33:35.000Z</time><hdop>3.312</hdop><vdop>3.312</vdop><extensions><gom:speed>1.601</gom:speed></extensions></trkpt>
   <trkpt lat="59.0898577703" lon="29.9931698595"><ele>95.724</ele><time>2026-04-25T14:33:36.000Z</time><hdop>3.437</hdop><vdop>3.437</vdop><extensions><gom:speed>1.87</gom:speed></extensions></trkpt>
   <trkpt lat="59.089843102" lon="29.99314924"><ele>95.446</ele><time>2026-04-25T14:33:37.000Z</time><hdop>3.5</hdop><vdop>3.5</vdop><extensions><gom:speed>2.033</gom:speed></extensions></trkpt>
   <trkpt lat="59.0898238655" lon="29.9931393493"><ele>95.262</ele><time>2026-04-25T14:33:38.000Z</time><hdop>3.562</hdop><vdop>3.562</vdop><extensions><gom:speed>2.104</gom:speed></extensions></trkpt>
   <trkpt lat="59.0898107479" lon="29.9931178078"><ele>95.167</ele><time>2026-04-25T14:33:39.000Z</time><hdop>3.437</hdop><vdop>3.437</vdop><extensions><gom:speed>0.825</gom:speed></extensions></trkpt>
   <trkpt lat="59.0898007734" lon="29.9931270279"><ele>95.151</ele><time>2026-04-25T14:33:40.000Z</time><hdop>3.062</hdop><vdop>3.062</vdop><extensions><gom:speed>1.518</gom:speed></extensions></trkpt>
   <trkpt lat="59.0897877395" lon="29.9931095936"><ele>95.217</ele><time>2026-04-25T14:33:41.000Z</time><hdop>2.625</hdop><vdop>2.625</vdop><extensions><gom:speed>1.516</gom:speed></extensions></trkpt>
   <trkpt lat="59.0897731131" lon="29.9931051512"><ele>95.23</ele><time>2026-04-25T14:33:42.000Z</time><hdop>2.312</hdop><vdop>2.312</vdop><extensions><gom:speed>1.646</gom:speed></extensions></trkpt>
   <trkpt lat="59.0897577323" lon="29.9931025528"><ele>95.328</ele><time>2026-04-25T14:33:43.000Z</time><hdop>2.812</hdop><vdop>2.812</vdop><extensions><gom:speed>0.348</gom:speed></extensions></trkpt>
   <trkpt lat="59.0897561817" lon="29.9931054026"><ele>95.364</ele><time>2026-04-25T14:33:44.000Z</time><hdop>2.5</hdop><vdop>2.5</vdop><extensions><gom:speed>0.237</gom:speed></extensions></trkpt>
   <trkpt lat="59.0897509011" lon="29.9931007926"><ele>95.366</ele><time>2026-04-25T14:33:45.000Z</time><hdop>3.125</hdop><vdop>3.125</vdop><extensions><gom:speed>0.649</gom:speed></extensions></trkpt>
   <trkpt lat="59.0897493085" lon="29.9931025528"><ele>95.416</ele><time>2026-04-25T14:33:46.000Z</time><hdop>3.25</hdop><vdop>3.25</vdop><extensions><gom:speed>1.392</gom:speed></extensions></trkpt>
   <trkpt lat="59.0897339696" lon="29.9931137845"><ele>95.506</ele><time>2026-04-25T14:33:47.000Z</time><hdop>4.062</hdop><vdop>4.062</vdop><extensions><gom:speed>0.653</gom:speed></extensions></trkpt>
   <trkpt lat="59.0897339696" lon="29.9931137845"><ele>95.559</ele><time>2026-04-25T14:33:47.000Z</time><hdop>4.062</hdop><vdop>4.062</vdop><extensions><gom:speed>0.653</gom:speed></extensions></trkpt>
   <trkpt lat="59.0897327542" lon="29.9931193166"><ele>95.688</ele><time>2026-04-25T14:33:48.000Z</time><hdop>3.875</hdop><vdop>3.875</vdop><extensions><gom:speed>1.386</gom:speed></extensions></trkpt>
   <trkpt lat="59.0897123443" lon="29.9931136169"><ele>95.844</ele><time>2026-04-25T14:33:49.000Z</time><hdop>4.062</hdop><vdop>4.062</vdop><extensions><gom:speed>1.381</gom:speed></extensions></trkpt>
   <trkpt lat="59.0896947004" lon="29.9931157962"><ele>96.088</ele><time>2026-04-25T14:33:50.000Z</time><hdop>3.875</hdop><vdop>3.875</vdop><extensions><gom:speed>1.38</gom:speed></extensions></trkpt>
   <trkpt lat="59.0896814989" lon="29.9931214959"><ele>96.334</ele><time>2026-04-25T14:33:51.000Z</time><hdop>4.5</hdop><vdop>4.5</vdop><extensions><gom:speed>0.232</gom:speed></extensions></trkpt>
   <trkpt lat="59.0896766793" lon="29.9931163829"><ele>96.593</ele><time>2026-04-25T14:33:52.000Z</time><hdop>4.875</hdop><vdop>4.875</vdop><extensions><gom:speed>0.78</gom:speed></extensions></trkpt>
   <trkpt lat="59.0896688422" lon="29.9931208253"><ele>96.739</ele><time>2026-04-25T14:33:53.000Z</time><hdop>4.687</hdop><vdop>4.687</vdop><extensions><gom:speed>1.372</gom:speed></extensions></trkpt>
   <trkpt lat="59.08964948" lon="29.9931199871"><ele>96.921</ele><time>2026-04-25T14:33:54.000Z</time><hdop>4.687</hdop><vdop>4.687</vdop><extensions><gom:speed>1.527</gom:speed></extensions></trkpt>
   <trkpt lat="59.0896347279" lon="29.9931343202"><ele>97.017</ele><time>2026-04-25T14:33:55.000Z</time><hdop>4.687</hdop><vdop>4.687</vdop><extensions><gom:speed>1.67</gom:speed></extensions></trkpt>
   <trkpt lat="59.0896182575" lon="29.9931296263"><ele>97.13</ele><time>2026-04-25T14:33:56.000Z</time><hdop>4.687</hdop><vdop>4.687</vdop><extensions><gom:speed>1.703</gom:speed></extensions></trkpt>
   <trkpt lat="59.0895975122" lon="29.9931247648"><ele>97.26</ele><time>2026-04-25T14:33:57.000Z</time><hdop>4.687</hdop><vdop>4.687</vdop><extensions><gom:speed>1.672</gom:speed></extensions></trkpt>
   <trkpt lat="59.0895768089" lon="29.993126525"><ele>97.442</ele><time>2026-04-25T14:33:58.000Z</time><hdop>4.687</hdop><vdop>4.687</vdop><extensions><gom:speed>0.862</gom:speed></extensions></trkpt>
   <trkpt lat="59.0895769766" lon="29.9931424506"><ele>97.604</ele><time>2026-04-25T14:33:59.000Z</time><hdop>4.687</hdop><vdop>4.687</vdop><extensions><gom:speed>0.609</gom:speed></extensions></trkpt>
   <trkpt lat="59.0895791559" lon="29.993141361"><ele>97.734</ele><time>2026-04-25T14:34:00.000Z</time><hdop>4.687</hdop><vdop>4.687</vdop><extensions><gom:speed>1.501</gom:speed></extensions></trkpt>
   <trkpt lat="59.0895633141" lon="29.9931400199"><ele>97.826</ele><time>2026-04-25T14:34:01.000Z</time><hdop>4.687</hdop><vdop>4.687</vdop><extensions><gom:speed>1.687</gom:speed></extensions></trkpt>
   <trkpt lat="59.0895353185" lon="29.99313256"><ele>97.844</ele><time>2026-04-25T14:34:02.000Z</time><hdop>4.687</hdop><vdop>4.687</vdop><extensions><gom:speed>1.591</gom:speed></extensions></trkpt>
   <trkpt lat="59.0895106338" lon="29.9931408581"><ele>97.911</ele><time>2026-04-25T14:34:03.000Z</time><hdop>4.687</hdop><vdop>4.687</vdop><extensions><gom:speed>1.247</gom:speed></extensions></trkpt>
   <trkpt lat="59.0894636532" lon="29.9931541853"><ele>98.027</ele><time>2026-04-25T14:34:04.000Z</time><hdop>4.875</hdop><vdop>4.875</vdop><extensions><gom:speed>1.181</gom:speed></extensions></trkpt>
   <trkpt lat="59.0894103024" lon="29.9931636569"><ele>98.105</ele><time>2026-04-25T14:34:05.000Z</time><hdop>4.687</hdop><vdop>4.687</vdop><extensions><gom:speed>1.217</gom:speed></extensions></trkpt>
   <trkpt lat="59.0893670099" lon="29.9931665067"><ele>98.16</ele><time>2026-04-25T14:34:06.000Z</time><hdop>4.687</hdop><vdop>4.687</vdop><extensions><gom:speed>1.072</gom:speed></extensions></trkpt>
   <trkpt lat="59.0893390982" lon="29.9931639921"><ele>97.762</ele><time>2026-04-25T14:34:07.000Z</time><hdop>3.0</hdop><vdop>3.0</vdop><extensions><gom:speed>1.704</gom:speed></extensions></trkpt>
   <trkpt lat="59.0893390982" lon="29.9931639921"><ele>97.525</ele><time>2026-04-25T14:34:07.000Z</time><hdop>3.0</hdop><vdop>3.0</vdop><extensions><gom:speed>1.704</gom:speed></extensions></trkpt>
   <trkpt lat="59.0893239688" lon="29.9931598012"><ele>97.374</ele><time>2026-04-25T14:34:08.000Z</time><hdop>3.0</hdop><vdop>3.0</vdop><extensions><gom:speed>1.749</gom:speed></extensions></trkpt>
   <trkpt lat="59.0893079175" lon="29.993155694"><ele>97.271</ele><time>2026-04-25T14:34:09.000Z</time><hdop>3.0</hdop><vdop>3.0</vdop><extensions><gom:speed>1.749</gom:speed></extensions></trkpt>
   <trkpt lat="59.0892917404" lon="29.9931517546"><ele>97.195</ele><time>2026-04-25T14:34:10.000Z</time><hdop>3.0</hdop><vdop>3.0</vdop><extensions><gom:speed>1.794</gom:speed></extensions></trkpt>
   <trkpt lat="59.0892764853" lon="29.9931458034"><ele>97.164</ele><time>2026-04-25T14:34:11.000Z</time><hdop>3.0</hdop><vdop>3.0</vdop><extensions><gom:speed>1.709</gom:speed></extensions></trkpt>
   <trkpt lat="59.0892618589" lon="29.9931414448"><ele>97.172</ele><time>2026-04-25T14:34:12.000Z</time><hdop>3.0</hdop><vdop>3.0</vdop><extensions><gom:speed>1.643</gom:speed></extensions></trkpt>
   <trkpt lat="59.0892624457" lon="29.9931295425"><ele>97.553</ele><time>2026-04-25T14:34:13.000Z</time><hdop>4.687</hdop><vdop>4.687</vdop><extensions><gom:speed>1.927</gom:speed></extensions></trkpt>
   <trkpt lat="59.0892585062" lon="29.9931348231"><ele>97.81</ele><time>2026-04-25T14:34:14.000Z</time><hdop>4.687</hdop><vdop>4.687</vdop><extensions><gom:speed>1.14</gom:speed></extensions></trkpt>
   <trkpt lat="59.089292411" lon="29.9929922469"><ele>97.639</ele><time>2026-04-25T14:34:15.000Z</time><hdop>4.687</hdop><vdop>4.687</vdop><extensions><gom:speed>1.057</gom:speed></extensions></trkpt>
   <trkpt lat="59.089292411" lon="29.9929922469"><ele>97.536</ele><time>2026-04-25T14:34:15.000Z</time><hdop>4.687</hdop><vdop>4.687</vdop><extensions><gom:speed>1.057</gom:speed></extensions></trkpt>
   <trkpt lat="59.0893035589" lon="29.9929601442"><ele>97.497</ele><time>2026-04-25T14:34:16.000Z</time><hdop>4.687</hdop><vdop>4.687</vdop><extensions><gom:speed>1.208</gom:speed></extensions></trkpt>
   <trkpt lat="59.0893035589" lon="29.9929601442"><ele>97.474</ele><time>2026-04-25T14:34:16.000Z</time><hdop>4.687</hdop><vdop>4.687</vdop><extensions><gom:speed>1.208</gom:speed></extensions></trkpt>
   <trkpt lat="59.0893175148" lon="29.9929181509"><ele>97.475</ele><time>2026-04-25T14:34:17.000Z</time><hdop>4.687</hdop><vdop>4.687</vdop><extensions><gom:speed>1.869</gom:speed></extensions></trkpt>
   <trkpt lat="59.0892938359" lon="29.9929154687"><ele>97.426</ele><time>2026-04-25T14:34:18.000Z</time><hdop>5.562</hdop><vdop>5.562</vdop><extensions><gom:speed>1.616</gom:speed></extensions></trkpt>
   <trkpt lat="59.0892730069" lon="29.9928955198"><ele>97.404</ele><time>2026-04-25T14:34:19.000Z</time><hdop>5.687</hdop><vdop>5.687</vdop><extensions><gom:speed>2.042</gom:speed></extensions></trkpt>
   <trkpt lat="59.0892513396" lon="29.9928855453"><ele>97.391</ele><time>2026-04-25T14:34:20.000Z</time><hdop>5.062</hdop><vdop>5.062</vdop><extensions><gom:speed>1.956</gom:speed></extensions></trkpt>
   <trkpt lat="59.0892185664" lon="29.9928994593"><ele>97.484</ele><time>2026-04-25T14:34:21.000Z</time><hdop>4.687</hdop><vdop>4.687</vdop><extensions><gom:speed>1.884</gom:speed></extensions></trkpt>
   <trkpt lat="59.0892070413" lon="29.9928633333"><ele>97.498</ele><time>2026-04-25T14:34:22.000Z</time><hdop>4.687</hdop><vdop>4.687</vdop><extensions><gom:speed>1.588</gom:speed></extensions></trkpt>
   <trkpt lat="59.0891976535" lon="29.9928555381"><ele>97.513</ele><time>2026-04-25T14:34:23.000Z</time><hdop>4.687</hdop><vdop>4.687</vdop><extensions><gom:speed>1.139</gom:speed></extensions></trkpt>
   <trkpt lat="59.0891921634" lon="29.9928595614"><ele>97.445</ele><time>2026-04-25T14:34:24.000Z</time><hdop>4.687</hdop><vdop>4.687</vdop><extensions><gom:speed>1.392</gom:speed></extensions></trkpt>
   <trkpt lat="59.0891921634" lon="29.9928595614"><ele>97.404</ele><time>2026-04-25T14:34:24.000Z</time><hdop>4.687</hdop><vdop>4.687</vdop><extensions><gom:speed>1.392</gom:speed></extensions></trkpt>
   <trkpt lat="59.0891749386" lon="29.9928834498"><ele>97.385</ele><time>2026-04-25T14:34:25.000Z</time><hdop>4.687</hdop><vdop>4.687</vdop><extensions><gom:speed>0.978</gom:speed></extensions></trkpt>
   <trkpt lat="59.0891713763" lon="29.9928603996"><ele>97.258</ele><time>2026-04-25T14:34:26.000Z</time><hdop>4.687</hdop><vdop>4.687</vdop><extensions><gom:speed>0.584</gom:speed></extensions></trkpt>
   <trkpt lat="59.0891606894" lon="29.9928485811"><ele>97.148</ele><time>2026-04-25T14:34:27.000Z</time><hdop>4.687</hdop><vdop>4.687</vdop><extensions><gom:speed>1.181</gom:speed></extensions></trkpt>
   <trkpt lat="59.0891606894" lon="29.9928485811"><ele>97.083</ele><time>2026-04-25T14:34:27.000Z</time><hdop>4.687</hdop><vdop>4.687</vdop><extensions><gom:speed>1.181</gom:speed></extensions></trkpt>
   <trkpt lat="59.0891393155" lon="29.9928515148"><ele>97.017</ele><time>2026-04-25T14:34:28.000Z</time><hdop>4.687</hdop><vdop>4.687</vdop><extensions><gom:speed>1.797</gom:speed></extensions></trkpt>
   <trkpt lat="59.089127036" lon="29.9928291351"><ele>96.976</ele><time>2026-04-25T14:34:29.000Z</time><hdop>4.687</hdop><vdop>4.687</vdop><extensions><gom:speed>1.729</gom:speed></extensions></trkpt>
   <trkpt lat="59.089109434" lon="29.992848162"><ele>96.86</ele><time>2026-04-25T14:34:30.000Z</time><hdop>4.687</hdop><vdop>4.687</vdop><extensions><gom:speed>1.539</gom:speed></extensions></trkpt>
   <trkpt lat="59.0890991243" lon="29.9928270396"><ele>96.79</ele><time>2026-04-25T14:34:31.000Z</time><hdop>4.687</hdop><vdop>4.687</vdop><extensions><gom:speed>2.113</gom:speed></extensions></trkpt>
   <trkpt lat="59.0890933827" lon="29.9928548675"><ele>96.773</ele><time>2026-04-25T14:34:32.000Z</time><hdop>4.687</hdop><vdop>4.687</vdop><extensions><gom:speed>2.154</gom:speed></extensions></trkpt>
   <trkpt lat="59.0890760321" lon="29.9928540294"><ele>96.756</ele><time>2026-04-25T14:34:33.000Z</time><hdop>4.687</hdop><vdop>4.687</vdop><extensions><gom:speed>1.573</gom:speed></extensions></trkpt>
   <trkpt lat="59.0890629983" lon="29.9928619083"><ele>96.928</ele><time>2026-04-25T14:34:34.000Z</time><hdop>4.687</hdop><vdop>4.687</vdop><extensions><gom:speed>1.493</gom:speed></extensions></trkpt>
   <trkpt lat="59.0890471984" lon="29.9928515148"><ele>96.999</ele><time>2026-04-25T14:34:35.000Z</time><hdop>4.687</hdop><vdop>4.687</vdop><extensions><gom:speed>1.008</gom:speed></extensions></trkpt>
   <trkpt lat="59.0890465697" lon="29.9928695359"><ele>97.153</ele><time>2026-04-25T14:34:36.000Z</time><hdop>4.687</hdop><vdop>4.687</vdop><extensions><gom:speed>1.069</gom:speed></extensions></trkpt>
   <trkpt lat="59.0890355895" lon="29.9928293027"><ele>97.306</ele><time>2026-04-25T14:34:37.000Z</time><hdop>4.687</hdop><vdop>4.687</vdop><extensions><gom:speed>1.315</gom:speed></extensions></trkpt>
   <trkpt lat="59.0890189933" lon="29.9928265367"><ele>97.063</ele><time>2026-04-25T14:34:38.000Z</time><hdop>4.687</hdop><vdop>4.687</vdop><extensions><gom:speed>1.36</gom:speed></extensions></trkpt>
   <trkpt lat="59.0890040316" lon="29.9927824479"><ele>96.661</ele><time>2026-04-25T14:34:39.000Z</time><hdop>4.687</hdop><vdop>4.687</vdop><extensions><gom:speed>1.384</gom:speed></extensions></trkpt>
   <trkpt lat="59.0889913749" lon="29.9927591462"><ele>96.612</ele><time>2026-04-25T14:34:40.000Z</time><hdop>4.687</hdop><vdop>4.687</vdop><extensions><gom:speed>1.526</gom:speed></extensions></trkpt>
   <trkpt lat="59.0889645947" lon="29.9927585595"><ele>96.35</ele><time>2026-04-25T14:34:41.000Z</time><hdop>4.687</hdop><vdop>4.687</vdop><extensions><gom:speed>1.48</gom:speed></extensions></trkpt>
   <trkpt lat="59.0889469927" lon="29.9927344196"><ele>96.06</ele><time>2026-04-25T14:34:42.000Z</time><hdop>4.687</hdop><vdop>4.687</vdop><extensions><gom:speed>1.375</gom:speed></extensions></trkpt>
   <trkpt lat="59.0889331207" lon="29.9927354254"><ele>95.909</ele><time>2026-04-25T14:34:43.000Z</time><hdop>4.687</hdop><vdop>4.687</vdop><extensions><gom:speed>1.466</gom:speed></extensions></trkpt>
   <trkpt lat="59.088916315" lon="29.992730983"><ele>95.868</ele><time>2026-04-25T14:34:44.000Z</time><hdop>4.687</hdop><vdop>4.687</vdop><extensions><gom:speed>1.017</gom:speed></extensions></trkpt>
   <trkpt lat="59.0889023591" lon="29.9927350901"><ele>95.931</ele><time>2026-04-25T14:34:45.000Z</time><hdop>4.687</hdop><vdop>4.687</vdop><extensions><gom:speed>1.401</gom:speed></extensions></trkpt>
   <trkpt lat="59.0888891157" lon="29.9927134648"><ele>96.059</ele><time>2026-04-25T14:34:46.000Z</time><hdop>4.687</hdop><vdop>4.687</vdop><extensions><gom:speed>0.555</gom:speed></extensions></trkpt>
   <trkpt lat="59.0888859306" lon="29.9927196674"><ele>96.162</ele><time>2026-04-25T14:34:47.000Z</time><hdop>4.687</hdop><vdop>4.687</vdop><extensions><gom:speed>1.393</gom:speed></extensions></trkpt>
   <trkpt lat="59.0888859306" lon="29.9927196674"><ele>96.223</ele><time>2026-04-25T14:34:47.000Z</time><hdop>4.687</hdop><vdop>4.687</vdop><extensions><gom:speed>1.393</gom:speed></extensions></trkpt>
   <trkpt lat="59.0888780516" lon="29.9927077651"><ele>96.378</ele><time>2026-04-25T14:34:48.000Z</time><hdop>4.687</hdop><vdop>4.687</vdop><extensions><gom:speed>1.511</gom:speed></extensions></trkpt>
   <trkpt lat="59.0888596114" lon="29.992698126"><ele>96.529</ele><time>2026-04-25T14:34:49.000Z</time><hdop>4.687</hdop><vdop>4.687</vdop><extensions><gom:speed>1.13</gom:speed></extensions></trkpt>
   <trkpt lat="59.088848673" lon="29.9926830385"><ele>96.687</ele><time>2026-04-25T14:34:50.000Z</time><hdop>4.687</hdop><vdop>4.687</vdop><extensions><gom:speed>1.483</gom:speed></extensions></trkpt>
   <trkpt lat="59.0888336694" lon="29.9926785123"><ele>96.779</ele><time>2026-04-25T14:34:51.000Z</time><hdop>4.687</hdop><vdop>4.687</vdop><extensions><gom:speed>1.794</gom:speed></extensions></trkpt>
   <trkpt lat="59.0888168637" lon="29.9926646822"><ele>97.012</ele><time>2026-04-25T14:34:52.000Z</time><hdop>4.687</hdop><vdop>4.687</vdop><extensions><gom:speed>1.39</gom:speed></extensions></trkpt>
   <trkpt lat="59.0888265867" lon="29.9926496786"><ele>97.175</ele><time>2026-04-25T14:34:53.000Z</time><hdop>4.687</hdop><vdop>4.687</vdop><extensions><gom:speed>1.528</gom:speed></extensions></trkpt>
   <trkpt lat="59.0888038717" lon="29.9926665262"><ele>97.207</ele><time>2026-04-25T14:34:54.000Z</time><hdop>4.687</hdop><vdop>4.687</vdop><extensions><gom:speed>1.861</gom:speed></extensions></trkpt>
   <trkpt lat="59.0887937715" lon="29.992690247"><ele>97.378</ele><time>2026-04-25T14:34:55.000Z</time><hdop>6.625</hdop><vdop>6.625</vdop><extensions><gom:speed>1.58</gom:speed></extensions></trkpt>
   <trkpt lat="59.088807434" lon="29.9926931806"><ele>97.479</ele><time>2026-04-25T14:34:56.000Z</time><hdop>7.125</hdop><vdop>7.125</vdop><extensions><gom:speed>1.634</gom:speed></extensions></trkpt>
   <trkpt lat="59.0887871498" lon="29.9927243613"><ele>97.63</ele><time>2026-04-25T14:34:57.000Z</time><hdop>6.75</hdop><vdop>6.75</vdop><extensions><gom:speed>1.256</gom:speed></extensions></trkpt>
   <trkpt lat="59.0887747027" lon="29.9926842958"><ele>97.693</ele><time>2026-04-25T14:34:58.000Z</time><hdop>6.5</hdop><vdop>6.5</vdop><extensions><gom:speed>1.308</gom:speed></extensions></trkpt>
   <trkpt lat="59.0887605373" lon="29.9926665262"><ele>97.818</ele><time>2026-04-25T14:34:59.000Z</time><hdop>7.125</hdop><vdop>7.125</vdop><extensions><gom:speed>0.555</gom:speed></extensions></trkpt>
   <trkpt lat="59.0887524907" lon="29.9926719744"><ele>97.985</ele><time>2026-04-25T14:35:00.000Z</time><hdop>5.937</hdop><vdop>5.937</vdop><extensions><gom:speed>1.064</gom:speed></extensions></trkpt>
   <trkpt lat="59.0887395825" lon="29.9926894088"><ele>98.208</ele><time>2026-04-25T14:35:01.000Z</time><hdop>5.25</hdop><vdop>5.25</vdop><extensions><gom:speed>1.758</gom:speed></extensions></trkpt>
   <trkpt lat="59.0887209328" lon="29.9926538695"><ele>98.428</ele><time>2026-04-25T14:35:02.000Z</time><hdop>4.687</hdop><vdop>4.687</vdop><extensions><gom:speed>1.734</gom:speed></extensions></trkpt>
   <trkpt lat="59.0887001876" lon="29.9926551268"><ele>98.678</ele><time>2026-04-25T14:35:03.000Z</time><hdop>4.687</hdop><vdop>4.687</vdop><extensions><gom:speed>1.854</gom:speed></extensions></trkpt>
   <trkpt lat="59.0886718987" lon="29.9926423863"><ele>98.565</ele><time>2026-04-25T14:35:04.000Z</time><hdop>4.687</hdop><vdop>4.687</vdop><extensions><gom:speed>1.702</gom:speed></extensions></trkpt>
   <trkpt lat="59.0886455376" lon="29.9926065956"><ele>98.323</ele><time>2026-04-25T14:35:05.000Z</time><hdop>4.687</hdop><vdop>4.687</vdop><extensions><gom:speed>1.995</gom:speed></extensions></trkpt>
   <trkpt lat="59.0886225712" lon="29.9926029075"><ele>98.242</ele><time>2026-04-25T14:35:06.000Z</time><hdop>4.687</hdop><vdop>4.687</vdop><extensions><gom:speed>2.08</gom:speed></extensions></trkpt>
   <trkpt lat="59.0885967549" lon="29.9926145584"><ele>98.043</ele><time>2026-04-25T14:35:07.000Z</time><hdop>4.687</hdop><vdop>4.687</vdop><extensions><gom:speed>1.667</gom:speed></extensions></trkpt>
   <trkpt lat="59.0885965035" lon="29.9925926816"><ele>97.929</ele><time>2026-04-25T14:35:08.000Z</time><hdop>4.687</hdop><vdop>4.687</vdop><extensions><gom:speed>1.3</gom:speed></extensions></trkpt>
   <trkpt lat="59.0885840144" lon="29.9925811146"><ele>97.929</ele><time>2026-04-25T14:35:09.000Z</time><hdop>5.125</hdop><vdop>5.125</vdop><extensions><gom:speed>1.494</gom:speed></extensions></trkpt>
   <trkpt lat="59.0885768479" lon="29.9925496824"><ele>98.004</ele><time>2026-04-25T14:35:10.000Z</time><hdop>5.062</hdop><vdop>5.062</vdop><extensions><gom:speed>1.561</gom:speed></extensions></trkpt>
   <trkpt lat="59.0885564799" lon="29.9925543763"><ele>98.072</ele><time>2026-04-25T14:35:11.000Z</time><hdop>5.125</hdop><vdop>5.125</vdop><extensions><gom:speed>1.955</gom:speed></extensions></trkpt>
   <trkpt lat="59.0885334715" lon="29.9925330863"><ele>98.034</ele><time>2026-04-25T14:35:12.000Z</time><hdop>4.687</hdop><vdop>4.687</vdop><extensions><gom:speed>1.676</gom:speed></extensions></trkpt>
   <trkpt lat="59.088508703" lon="29.9925087788"><ele>97.907</ele><time>2026-04-25T14:35:13.000Z</time><hdop>4.687</hdop><vdop>4.687</vdop><extensions><gom:speed>1.592</gom:speed></extensions></trkpt>
   <trkpt lat="59.0884830544" lon="29.992514227"><ele>97.678</ele><time>2026-04-25T14:35:14.000Z</time><hdop>4.687</hdop><vdop>4.687</vdop><extensions><gom:speed>1.571</gom:speed></extensions></trkpt>
   <trkpt lat="59.0884714455" lon="29.9924812861"><ele>97.623</ele><time>2026-04-25T14:35:15.000Z</time><hdop>4.687</hdop><vdop>4.687</vdop><extensions><gom:speed>1.763</gom:speed></extensions></trkpt>
   <trkpt lat="59.0884530053" lon="29.9924791906"><ele>97.743</ele><time>2026-04-25T14:35:16.000Z</time><hdop>4.687</hdop><vdop>4.687</vdop><extensions><gom:speed>1.738</gom:speed></extensions></trkpt>
   <trkpt lat="59.088430919" lon="29.992486902"><ele>97.899</ele><time>2026-04-25T14:35:17.000Z</time><hdop>4.687</hdop><vdop>4.687</vdop><extensions><gom:speed>1.808</gom:speed></extensions></trkpt>
   <trkpt lat="59.0884183461" lon="29.9924710602"><ele>98.019</ele><time>2026-04-25T14:35:18.000Z</time><hdop>4.687</hdop><vdop>4.687</vdop><extensions><gom:speed>1.758</gom:speed></extensions></trkpt>
   <trkpt lat="59.0884074915" lon="29.9924301565"><ele>98.186</ele><time>2026-04-25T14:35:19.000Z</time><hdop>4.687</hdop><vdop>4.687</vdop><extensions><gom:speed>2.03</gom:speed></extensions></trkpt>
   <trkpt lat="59.0883886742" lon="29.992432252"><ele>98.307</ele><time>2026-04-25T14:35:20.000Z</time><hdop>4.687</hdop><vdop>4.687</vdop><extensions><gom:speed>1.972</gom:speed></extensions></trkpt>
   <trkpt lat="59.0883681804" lon="29.9924568948"><ele>98.452</ele><time>2026-04-25T14:35:21.000Z</time><hdop>4.687</hdop><vdop>4.687</vdop><extensions><gom:speed>1.907</gom:speed></extensions></trkpt>
   <trkpt lat="59.0883502012" lon="29.9924334255"><ele>98.437</ele><time>2026-04-25T14:35:22.000Z</time><hdop>4.687</hdop><vdop>4.687</vdop><extensions><gom:speed>1.922</gom:speed></extensions></trkpt>
   <trkpt lat="59.0883280311" lon="29.9924501893"><ele>98.487</ele><time>2026-04-25T14:35:23.000Z</time><hdop>4.687</hdop><vdop>4.687</vdop><extensions><gom:speed>1.554</gom:speed></extensions></trkpt>
   <trkpt lat="59.0883200683" lon="29.992435018"><ele>98.51</ele><time>2026-04-25T14:35:24.000Z</time><hdop>4.687</hdop><vdop>4.687</vdop><extensions><gom:speed>1.884</gom:speed></extensions></trkpt>
   <trkpt lat="59.0883045618" lon="29.9924184218"><ele>98.512</ele><time>2026-04-25T14:35:25.000Z</time><hdop>4.687</hdop><vdop>4.687</vdop><extensions><gom:speed>1.988</gom:speed></extensions></trkpt>
   <trkpt lat="59.088286834" lon="29.9924037535"><ele>98.595</ele><time>2026-04-25T14:35:26.000Z</time><hdop>4.687</hdop><vdop>4.687</vdop><extensions><gom:speed>1.996</gom:speed></extensions></trkpt>
   <trkpt lat="59.0882704893" lon="29.9923839722"><ele>98.648</ele><time>2026-04-25T14:35:27.000Z</time><hdop>4.687</hdop><vdop>4.687</vdop><extensions><gom:speed>1.782</gom:speed></extensions></trkpt>
   <trkpt lat="59.0882545637" lon="29.9924082797"><ele>98.702</ele><time>2026-04-25T14:35:28.000Z</time><hdop>4.687</hdop><vdop>4.687</vdop><extensions><gom:speed>1.426</gom:speed></extensions></trkpt>
   <trkpt lat="59.0882338185" lon="29.992412806"><ele>98.806</ele><time>2026-04-25T14:35:29.000Z</time><hdop>4.687</hdop><vdop>4.687</vdop><extensions><gom:speed>1.477</gom:speed></extensions></trkpt>
   <trkpt lat="59.0882091757" lon="29.9924090341"><ele>98.947</ele><time>2026-04-25T14:35:30.000Z</time><hdop>4.687</hdop><vdop>4.687</vdop><extensions><gom:speed>1.568</gom:speed></extensions></trkpt>
   <trkpt lat="59.0881961418" lon="29.9923797813"><ele>99.077</ele><time>2026-04-25T14:35:31.000Z</time><hdop>4.687</hdop><vdop>4.687</vdop><extensions><gom:speed>1.728</gom:speed></extensions></trkpt>
   <trkpt lat="59.0881521369" lon="29.99240258"><ele>98.887</ele><time>2026-04-25T14:35:32.000Z</time><hdop>4.687</hdop><vdop>4.687</vdop><extensions><gom:speed>0.303</gom:speed></extensions></trkpt>
   <trkpt lat="59.0881367142" lon="29.9923998978"><ele>98.612</ele><time>2026-04-25T14:35:33.000Z</time><hdop>4.687</hdop><vdop>4.687</vdop><extensions><gom:speed>1.855</gom:speed></extensions></trkpt>
   <trkpt lat="59.0881367142" lon="29.9923998978"><ele>98.447</ele><time>2026-04-25T14:35:33.000Z</time><hdop>4.687</hdop><vdop>4.687</vdop><extensions><gom:speed>1.855</gom:speed></extensions></trkpt>
   <trkpt lat="59.0881092634" lon="29.9924382031"><ele>98.116</ele><time>2026-04-25T14:35:34.000Z</time><hdop>4.687</hdop><vdop>4.687</vdop><extensions><gom:speed>0.191</gom:speed></extensions></trkpt>
   <trkpt lat="59.0880800525" lon="29.9924026639"><ele>97.502</ele><time>2026-04-25T14:35:35.000Z</time><hdop>4.687</hdop><vdop>4.687</vdop><extensions><gom:speed>1.458</gom:speed></extensions></trkpt>
   <trkpt lat="59.0880476145" lon="29.9924083636"><ele>97.032</ele><time>2026-04-25T14:35:36.000Z</time><hdop>4.687</hdop><vdop>4.687</vdop><extensions><gom:speed>1.762</gom:speed></extensions></trkpt>
   <trkpt lat="59.088008974" lon="29.9924320843"><ele>96.658</ele><time>2026-04-25T14:35:37.000Z</time><hdop>4.125</hdop><vdop>4.125</vdop><extensions><gom:speed>1.775</gom:speed></extensions></trkpt>
   <trkpt lat="59.087983493" lon="29.9924263847"><ele>96.342</ele><time>2026-04-25T14:35:38.000Z</time><hdop>4.125</hdop><vdop>4.125</vdop><extensions><gom:speed>1.103</gom:speed></extensions></trkpt>
   <trkpt lat="59.08798211" lon="29.9924028315"><ele>96.096</ele><time>2026-04-25T14:35:39.000Z</time><hdop>4.125</hdop><vdop>4.125</vdop><extensions><gom:speed>0.879</gom:speed></extensions></trkpt>
   <trkpt lat="59.0879764941" lon="29.9924093694"><ele>95.96</ele><time>2026-04-25T14:35:40.000Z</time><hdop>4.25</hdop><vdop>4.25</vdop><extensions><gom:speed>1.29</gom:speed></extensions></trkpt>
   <trkpt lat="59.0879661424" lon="29.9924166616"><ele>95.88</ele><time>2026-04-25T14:35:41.000Z</time><hdop>4.437</hdop><vdop>4.437</vdop><extensions><gom:speed>1.763</gom:speed></extensions></trkpt>
   <trkpt lat="59.0879472412" lon="29.9924194277"><ele>95.822</ele><time>2026-04-25T14:35:42.000Z</time><hdop>4.625</hdop><vdop>4.625</vdop><extensions><gom:speed>1.145</gom:speed></extensions></trkpt>
   <trkpt lat="59.0879306032" lon="29.9924311623"><ele>95.784</ele><time>2026-04-25T14:35:43.000Z</time><hdop>4.125</hdop><vdop>4.125</vdop><extensions><gom:speed>1.345</gom:speed></extensions></trkpt>
   <trkpt lat="59.087897327" lon="29.9924495187"><ele>95.819</ele><time>2026-04-25T14:35:44.000Z</time><hdop>3.375</hdop><vdop>3.375</vdop><extensions><gom:speed>1.103</gom:speed></extensions></trkpt>
   <trkpt lat="59.08785701" lon="29.992466534"><ele>95.792</ele><time>2026-04-25T14:35:45.000Z</time><hdop>3.312</hdop><vdop>3.312</vdop><extensions><gom:speed>1.036</gom:speed></extensions></trkpt>
   <trkpt lat="59.0878215965" lon="29.9924775981"><ele>95.757</ele><time>2026-04-25T14:35:46.000Z</time><hdop>3.187</hdop><vdop>3.187</vdop><extensions><gom:speed>1.864</gom:speed></extensions></trkpt>
   <trkpt lat="59.0877945649" lon="29.9924773466"><ele>96.254</ele><time>2026-04-25T14:35:47.000Z</time><hdop>3.0</hdop><vdop>3.0</vdop><extensions><gom:speed>1.877</gom:speed></extensions></trkpt>
   <trkpt lat="59.0877945649" lon="29.9924773466"><ele>96.552</ele><time>2026-04-25T14:35:47.000Z</time><hdop>3.0</hdop><vdop>3.0</vdop><extensions><gom:speed>1.877</gom:speed></extensions></trkpt>
   <trkpt lat="59.0877750769" lon="29.9924722337"><ele>96.797</ele><time>2026-04-25T14:35:48.000Z</time><hdop>3.0</hdop><vdop>3.0</vdop><extensions><gom:speed>1.894</gom:speed></extensions></trkpt>
   <trkpt lat="59.0877587741" lon="29.9924677913"><ele>96.978</ele><time>2026-04-25T14:35:49.000Z</time><hdop>3.0</hdop><vdop>3.0</vdop><extensions><gom:speed>1.891</gom:speed></extensions></trkpt>
   <trkpt lat="59.0877434772" lon="29.9924634327"><ele>97.247</ele><time>2026-04-25T14:35:50.000Z</time><hdop>3.0</hdop><vdop>3.0</vdop><extensions><gom:speed>1.855</gom:speed></extensions></trkpt>
   <trkpt lat="59.0877274677" lon="29.9924624268"><ele>97.502</ele><time>2026-04-25T14:35:51.000Z</time><hdop>3.0</hdop><vdop>3.0</vdop><extensions><gom:speed>1.786</gom:speed></extensions></trkpt>
   <trkpt lat="59.087723654" lon="29.9924506084"><ele>96.798</ele><time>2026-04-25T14:35:52.000Z</time><hdop>3.375</hdop><vdop>3.375</vdop><extensions><gom:speed>2.443</gom:speed></extensions></trkpt>
   <trkpt lat="59.0877145177" lon="29.9924573977"><ele>96.503</ele><time>2026-04-25T14:35:53.000Z</time><hdop>3.25</hdop><vdop>3.25</vdop><extensions><gom:speed>2.217</gom:speed></extensions></trkpt>
   <trkpt lat="59.0877092371" lon="29.9924366106"><ele>96.315</ele><time>2026-04-25T14:35:54.000Z</time><hdop>4.125</hdop><vdop>4.125</vdop><extensions><gom:speed>0.802</gom:speed></extensions></trkpt>
   <trkpt lat="59.0877225224" lon="29.9924194277"><ele>96.134</ele><time>2026-04-25T14:35:55.000Z</time><hdop>4.5</hdop><vdop>4.5</vdop><extensions><gom:speed>0.132</gom:speed></extensions></trkpt>
   <trkpt lat="59.0877326645" lon="29.9923917674"><ele>95.925</ele><time>2026-04-25T14:35:56.000Z</time><hdop>4.687</hdop><vdop>4.687</vdop><extensions><gom:speed>0.267</gom:speed></extensions></trkpt>
   <trkpt lat="59.0877197983" lon="29.9923895881"><ele>95.764</ele><time>2026-04-25T14:35:57.000Z</time><hdop>4.687</hdop><vdop>4.687</vdop><extensions><gom:speed>0.952</gom:speed></extensions></trkpt>
   <trkpt lat="59.0877130928" lon="29.9923863192"><ele>95.636</ele><time>2026-04-25T14:35:58.000Z</time><hdop>4.687</hdop><vdop>4.687</vdop><extensions><gom:speed>0.952</gom:speed></extensions></trkpt>
   <trkpt lat="59.0877006876" lon="29.992375758"><ele>95.598</ele><time>2026-04-25T14:35:59.000Z</time><hdop>4.687</hdop><vdop>4.687</vdop><extensions><gom:speed>0.772</gom:speed></extensions></trkpt>
   <trkpt lat="59.0876913417" lon="29.9923946172"><ele>95.722</ele><time>2026-04-25T14:36:00.000Z</time><hdop>4.75</hdop><vdop>4.75</vdop><extensions><gom:speed>1.261</gom:speed></extensions></trkpt>
   <trkpt lat="59.0876774278" lon="29.9923750874"><ele>95.801</ele><time>2026-04-25T14:36:01.000Z</time><hdop>4.437</hdop><vdop>4.437</vdop><extensions><gom:speed>1.127</gom:speed></extensions></trkpt>
   <trkpt lat="59.0876639329" lon="29.99239336"><ele>95.885</ele><time>2026-04-25T14:36:02.000Z</time><hdop>4.812</hdop><vdop>4.812</vdop><extensions><gom:speed>1.483</gom:speed></extensions></trkpt>
   <trkpt lat="59.0876560539" lon="29.9923527915"><ele>95.861</ele><time>2026-04-25T14:36:03.000Z</time><hdop>4.687</hdop><vdop>4.687</vdop><extensions><gom:speed>0.789</gom:speed></extensions></trkpt>
   <trkpt lat="59.0876529945" lon="29.9923587427"><ele>95.969</ele><time>2026-04-25T14:36:04.000Z</time><hdop>4.687</hdop><vdop>4.687</vdop><extensions><gom:speed>0.04</gom:speed></extensions></trkpt>
   <trkpt lat="59.0876436906" lon="29.9923515343"><ele>96.168</ele><time>2026-04-25T14:36:05.000Z</time><hdop>4.687</hdop><vdop>4.687</vdop><extensions><gom:speed>0.761</gom:speed></extensions></trkpt>
   <trkpt lat="59.0876302796" lon="29.992346086"><ele>96.273</ele><time>2026-04-25T14:36:06.000Z</time><hdop>4.687</hdop><vdop>4.687</vdop><extensions><gom:speed>0.133</gom:speed></extensions></trkpt>
   <trkpt lat="59.0876158627" lon="29.9923321721"><ele>96.22</ele><time>2026-04-25T14:36:07.000Z</time><hdop>4.687</hdop><vdop>4.687</vdop><extensions><gom:speed>0.93</gom:speed></extensions></trkpt>
   <trkpt lat="59.0876158627" lon="29.9923321721"><ele>96.188</ele><time>2026-04-25T14:36:07.000Z</time><hdop>4.687</hdop><vdop>4.687</vdop><extensions><gom:speed>0.93</gom:speed></extensions></trkpt>
   <trkpt lat="59.0876021583" lon="29.9923586589"><ele>96.255</ele><time>2026-04-25T14:36:08.000Z</time><hdop>4.687</hdop><vdop>4.687</vdop><extensions><gom:speed>1.223</gom:speed></extensions></trkpt>
   <trkpt lat="59.087587909" lon="29.9923446611"><ele>96.43</ele><time>2026-04-25T14:36:09.000Z</time><hdop>4.687</hdop><vdop>4.687</vdop><extensions><gom:speed>1.401</gom:speed></extensions></trkpt>
   <trkpt lat="59.0875751266" lon="29.9923492711"><ele>96.537</ele><time>2026-04-25T14:36:10.000Z</time><hdop>4.687</hdop><vdop>4.687</vdop><extensions><gom:speed>1.499</gom:speed></extensions></trkpt>
   <trkpt lat="59.0875614641" lon="29.9923508637"><ele>96.633</ele><time>2026-04-25T14:36:11.000Z</time><hdop>4.687</hdop><vdop>4.687</vdop><extensions><gom:speed>1.563</gom:speed></extensions></trkpt>
   <trkpt lat="59.0875434011" lon="29.9923289031"><ele>96.723</ele><time>2026-04-25T14:36:12.000Z</time><hdop>4.937</hdop><vdop>4.937</vdop><extensions><gom:speed>1.571</gom:speed></extensions></trkpt>
   <trkpt lat="59.0875172496" lon="29.9923491035"><ele>96.903</ele><time>2026-04-25T14:36:13.000Z</time><hdop>4.812</hdop><vdop>4.812</vdop><extensions><gom:speed>1.297</gom:speed></extensions></trkpt>
   <trkpt lat="59.0875115499" lon="29.9923223652"><ele>97.011</ele><time>2026-04-25T14:36:14.000Z</time><hdop>4.687</hdop><vdop>4.687</vdop><extensions><gom:speed>0.878</gom:speed></extensions></trkpt>
   <trkpt lat="59.0874968397" lon="29.9923386261"><ele>97.219</ele><time>2026-04-25T14:36:15.000Z</time><hdop>4.687</hdop><vdop>4.687</vdop><extensions><gom:speed>1.263</gom:speed></extensions></trkpt>
   <trkpt lat="59.0874743343" lon="29.9923128937"><ele>97.486</ele><time>2026-04-25T14:36:16.000Z</time><hdop>4.687</hdop><vdop>4.687</vdop><extensions><gom:speed>1.324</gom:speed></extensions></trkpt>
   <trkpt lat="59.0874550559" lon="29.9923224491"><ele>97.733</ele><time>2026-04-25T14:36:17.000Z</time><hdop>4.687</hdop><vdop>4.687</vdop><extensions><gom:speed>0.98</gom:speed></extensions></trkpt>
   <trkpt lat="59.0874493981" lon="29.9923138157"><ele>97.966</ele><time>2026-04-25T14:36:18.000Z</time><hdop>4.687</hdop><vdop>4.687</vdop><extensions><gom:speed>1.496</gom:speed></extensions></trkpt>
   <trkpt lat="59.0874370348" lon="29.9922824674"><ele>98.117</ele><time>2026-04-25T14:36:19.000Z</time><hdop>4.687</hdop><vdop>4.687</vdop><extensions><gom:speed>1.328</gom:speed></extensions></trkpt>
   <trkpt lat="59.0874204386" lon="29.9922794499"><ele>98.192</ele><time>2026-04-25T14:36:20.000Z</time><hdop>4.687</hdop><vdop>4.687</vdop><extensions><gom:speed>1.275</gom:speed></extensions></trkpt>
   <trkpt lat="59.0874112604" lon="29.9922723253"><ele>98.182</ele><time>2026-04-25T14:36:21.000Z</time><hdop>4.687</hdop><vdop>4.687</vdop><extensions><gom:speed>1.447</gom:speed></extensions></trkpt>
   <trkpt lat="59.0873979332" lon="29.9922639434"><ele>98.048</ele><time>2026-04-25T14:36:22.000Z</time><hdop>4.562</hdop><vdop>4.562</vdop><extensions><gom:speed>1.57</gom:speed></extensions></trkpt>
   <trkpt lat="59.0873850251" lon="29.9922482692"><ele>97.779</ele><time>2026-04-25T14:36:23.000Z</time><hdop>4.312</hdop><vdop>4.312</vdop><extensions><gom:speed>1.077</gom:speed></extensions></trkpt>
   <trkpt lat="59.0873700634" lon="29.9922626861"><ele>97.689</ele><time>2026-04-25T14:36:24.000Z</time><hdop>4.375</hdop><vdop>4.375</vdop><extensions><gom:speed>1.032</gom:speed></extensions></trkpt>
   <trkpt lat="59.0873545569" lon="29.9922703974"><ele>97.573</ele><time>2026-04-25T14:36:25.000Z</time><hdop>4.0</hdop><vdop>4.0</vdop><extensions><gom:speed>0.893</gom:speed></extensions></trkpt>
   <trkpt lat="59.0873435766" lon="29.9922790308"><ele>97.514</ele><time>2026-04-25T14:36:26.000Z</time><hdop>4.312</hdop><vdop>4.312</vdop><extensions><gom:speed>0.749</gom:speed></extensions></trkpt>
   <trkpt lat="59.0873348175" lon="29.9922871612"><ele>97.503</ele><time>2026-04-25T14:36:27.000Z</time><hdop>4.75</hdop><vdop>4.75</vdop><extensions><gom:speed>0.949</gom:speed></extensions></trkpt>
   <trkpt lat="59.0873348175" lon="29.9922871612"><ele>97.496</ele><time>2026-04-25T14:36:27.000Z</time><hdop>4.75</hdop><vdop>4.75</vdop><extensions><gom:speed>0.949</gom:speed></extensions></trkpt>
   <trkpt lat="59.0873289082" lon="29.9923360277"><ele>97.639</ele><time>2026-04-25T14:36:28.000Z</time><hdop>4.562</hdop><vdop>4.562</vdop><extensions><gom:speed>1.12</gom:speed></extensions></trkpt>
   <trkpt lat="59.0873183889" lon="29.9922990635"><ele>97.714</ele><time>2026-04-25T14:36:29.000Z</time><hdop>4.625</hdop><vdop>4.625</vdop><extensions><gom:speed>1.445</gom:speed></extensions></trkpt>
   <trkpt lat="59.0872909801" lon="29.9922843952"><ele>97.724</ele><time>2026-04-25T14:36:30.000Z</time><hdop>4.625</hdop><vdop>4.625</vdop><extensions><gom:speed>1.448</gom:speed></extensions></trkpt>
   <trkpt lat="59.0872671755" lon="29.9922891729"><ele>97.692</ele><time>2026-04-25T14:36:31.000Z</time><hdop>4.0</hdop><vdop>4.0</vdop><extensions><gom:speed>1.55</gom:speed></extensions></trkpt>
   <trkpt lat="59.0872494059" lon="29.9922728282"><ele>97.926</ele><time>2026-04-25T14:36:32.000Z</time><hdop>3.75</hdop><vdop>3.75</vdop><extensions><gom:speed>1.038</gom:speed></extensions></trkpt>
   <trkpt lat="59.0872352824" lon="29.992284479"><ele>98.201</ele><time>2026-04-25T14:36:33.000Z</time><hdop>3.812</hdop><vdop>3.812</vdop><extensions><gom:speed>1.211</gom:speed></extensions></trkpt>
   <trkpt lat="59.0872251403" lon="29.9922353611"><ele>98.188</ele><time>2026-04-25T14:36:34.000Z</time><hdop>4.062</hdop><vdop>4.062</vdop><extensions><gom:speed>1.173</gom:speed></extensions></trkpt>
   <trkpt lat="59.0872082088" lon="29.992245587"><ele>98.145</ele><time>2026-04-25T14:36:35.000Z</time><hdop>4.25</hdop><vdop>4.25</vdop><extensions><gom:speed>1.1</gom:speed></extensions></trkpt>
   <trkpt lat="59.0871986954" lon="29.9922359478"><ele>98.142</ele><time>2026-04-25T14:36:36.000Z</time><hdop>4.5</hdop><vdop>4.5</vdop><extensions><gom:speed>1.165</gom:speed></extensions></trkpt>
   <trkpt lat="59.0871917384" lon="29.9922152445"><ele>98.163</ele><time>2026-04-25T14:36:37.000Z</time><hdop>4.437</hdop><vdop>4.437</vdop><extensions><gom:speed>1.251</gom:speed></extensions></trkpt>
   <trkpt lat="59.0871714542" lon="29.9922193516"><ele>98.304</ele><time>2026-04-25T14:36:38.000Z</time><hdop>4.5</hdop><vdop>4.5</vdop><extensions><gom:speed>1.201</gom:speed></extensions></trkpt>
   <trkpt lat="59.0871551933" lon="29.9922174238"><ele>98.427</ele><time>2026-04-25T14:36:39.000Z</time><hdop>4.625</hdop><vdop>4.625</vdop><extensions><gom:speed>1.384</gom:speed></extensions></trkpt>
   <trkpt lat="59.0871362921" lon="29.9922222853"><ele>98.505</ele><time>2026-04-25T14:36:40.000Z</time><hdop>4.75</hdop><vdop>4.75</vdop><extensions><gom:speed>0.949</gom:speed></extensions></trkpt>
   <trkpt lat="59.0871243479" lon="29.9922192678"><ele>98.556</ele><time>2026-04-25T14:36:41.000Z</time><hdop>4.5</hdop><vdop>4.5</vdop><extensions><gom:speed>1.358</gom:speed></extensions></trkpt>
   <trkpt lat="59.0871219171" lon="29.9921978102"><ele>98.597</ele><time>2026-04-25T14:36:42.000Z</time><hdop>4.75</hdop><vdop>4.75</vdop><extensions><gom:speed>1.277</gom:speed></extensions></trkpt>
   <trkpt lat="59.0871084642" lon="29.9922294099"><ele>98.783</ele><time>2026-04-25T14:36:43.000Z</time><hdop>4.625</hdop><vdop>4.625</vdop><extensions><gom:speed>0.587</gom:speed></extensions></trkpt>
   <trkpt lat="59.0871005014" lon="29.9922303319"><ele>99.09</ele><time>2026-04-25T14:36:44.000Z</time><hdop>4.5</hdop><vdop>4.5</vdop><extensions><gom:speed>0.928</gom:speed></extensions></trkpt>
   <trkpt lat="59.087095598" lon="29.9922092095"><ele>99.487</ele><time>2026-04-25T14:36:45.000Z</time><hdop>4.187</hdop><vdop>4.187</vdop><extensions><gom:speed>1.035</gom:speed></extensions></trkpt>
   <trkpt lat="59.087076571" lon="29.9922202737"><ele>99.812</ele><time>2026-04-25T14:36:46.000Z</time><hdop>4.875</hdop><vdop>4.875</vdop><extensions><gom:speed>1.097</gom:speed></extensions></trkpt>
   <trkpt lat="59.0870631181" lon="29.9922071979"><ele>100.171</ele><time>2026-04-25T14:36:47.000Z</time><hdop>4.812</hdop><vdop>4.812</vdop><extensions><gom:speed>0.673</gom:speed></extensions></trkpt>
   <trkpt lat="59.0870631181" lon="29.9922071979"><ele>100.386</ele><time>2026-04-25T14:36:47.000Z</time><hdop>4.812</hdop><vdop>4.812</vdop><extensions><gom:speed>0.673</gom:speed></extensions></trkpt>
   <trkpt lat="59.0870494975" lon="29.9921976425"><ele>100.609</ele><time>2026-04-25T14:36:48.000Z</time><hdop>4.687</hdop><vdop>4.687</vdop><extensions><gom:speed>0.925</gom:speed></extensions></trkpt>
   <trkpt lat="59.0870340748" lon="29.9921835609"><ele>100.685</ele><time>2026-04-25T14:36:49.000Z</time><hdop>4.687</hdop><vdop>4.687</vdop><extensions><gom:speed>0.97</gom:speed></extensions></trkpt>
   <trkpt lat="59.0870240584" lon="29.9921656236"><ele>100.75</ele><time>2026-04-25T14:36:50.000Z</time><hdop>4.687</hdop><vdop>4.687</vdop><extensions><gom:speed>0.74</gom:speed></extensions></trkpt>
   <trkpt lat="59.0870199513" lon="29.9921706528"><ele>100.87</ele><time>2026-04-25T14:36:51.000Z</time><hdop>4.875</hdop><vdop>4.875</vdop><extensions><gom:speed>1.078</gom:speed></extensions></trkpt>
   <trkpt lat="59.0870048639" lon="29.9921974749"><ele>100.859</ele><time>2026-04-25T14:36:52.000Z</time><hdop>4.937</hdop><vdop>4.937</vdop><extensions><gom:speed>1.41</gom:speed></extensions></trkpt>
   <trkpt lat="59.0869873457" lon="29.9921947089"><ele>100.869</ele><time>2026-04-25T14:36:53.000Z</time><hdop>4.625</hdop><vdop>4.625</vdop><extensions><gom:speed>1.45</gom:speed></extensions></trkpt>
   <trkpt lat="59.0869744376" lon="29.9921718263"><ele>100.928</ele><time>2026-04-25T14:36:54.000Z</time><hdop>4.687</hdop><vdop>4.687</vdop><extensions><gom:speed>1.414</gom:speed></extensions></trkpt>
   <trkpt lat="59.0869586377" lon="29.9921825551"><ele>101.037</ele><time>2026-04-25T14:36:55.000Z</time><hdop>4.687</hdop><vdop>4.687</vdop><extensions><gom:speed>2.159</gom:speed></extensions></trkpt>
   <trkpt lat="59.086932067" lon="29.9921877519"><ele>101.086</ele><time>2026-04-25T14:36:56.000Z</time><hdop>4.937</hdop><vdop>4.937</vdop><extensions><gom:speed>1.735</gom:speed></extensions></trkpt>
   <trkpt lat="59.0869115314" lon="29.992206695"><ele>101.128</ele><time>2026-04-25T14:36:57.000Z</time><hdop>4.687</hdop><vdop>4.687</vdop><extensions><gom:speed>2.438</gom:speed></extensions></trkpt>
   <trkpt lat="59.0868961087" lon="29.9921861593"><ele>101.105</ele><time>2026-04-25T14:36:58.000Z</time><hdop>4.687</hdop><vdop>4.687</vdop><extensions><gom:speed>2.162</gom:speed></extensions></trkpt>
   <trkpt lat="59.086881608" lon="29.9921661266"><ele>101.175</ele><time>2026-04-25T14:36:59.000Z</time><hdop>4.687</hdop><vdop>4.687</vdop><extensions><gom:speed>2.235</gom:speed></extensions></trkpt>
   <trkpt lat="59.0868595636" lon="29.9921437469"><ele>101.399</ele><time>2026-04-25T14:37:00.000Z</time><hdop>4.687</hdop><vdop>4.687</vdop><extensions><gom:speed>2.276</gom:speed></extensions></trkpt>
   <trkpt lat="59.086844099" lon="29.9921227921"><ele>101.594</ele><time>2026-04-25T14:37:01.000Z</time><hdop>4.687</hdop><vdop>4.687</vdop><extensions><gom:speed>1.601</gom:speed></extensions></trkpt>
   <trkpt lat="59.0868489605" lon="29.9921183497"><ele>101.686</ele><time>2026-04-25T14:37:02.000Z</time><hdop>4.687</hdop><vdop>4.687</vdop><extensions><gom:speed>0.901</gom:speed></extensions></trkpt>
   <trkpt lat="59.0868319033" lon="29.9921363708"><ele>101.957</ele><time>2026-04-25T14:37:03.000Z</time><hdop>4.687</hdop><vdop>4.687</vdop><extensions><gom:speed>2.224</gom:speed></extensions></trkpt>
   <trkpt lat="59.0868216774" lon="29.9921310902"><ele>102.321</ele><time>2026-04-25T14:37:04.000Z</time><hdop>4.687</hdop><vdop>4.687</vdop><extensions><gom:speed>0.062</gom:speed></extensions></trkpt>
   <trkpt lat="59.0868187437" lon="29.9921243009"><ele>102.522</ele><time>2026-04-25T14:37:05.000Z</time><hdop>4.687</hdop><vdop>4.687</vdop><extensions><gom:speed>1.062</gom:speed></extensions></trkpt>
   <trkpt lat="59.0867906643" lon="29.9921082076"><ele>102.422</ele><time>2026-04-25T14:37:06.000Z</time><hdop>4.687</hdop><vdop>4.687</vdop><extensions><gom:speed>1.351</gom:speed></extensions></trkpt>
   <trkpt lat="59.0867687876" lon="29.9921369575"><ele>102.43</ele><time>2026-04-25T14:37:07.000Z</time><hdop>4.687</hdop><vdop>4.687</vdop><extensions><gom:speed>1.46</gom:speed></extensions></trkpt>
   <trkpt lat="59.0867687876" lon="29.9921369575"><ele>102.435</ele><time>2026-04-25T14:37:07.000Z</time><hdop>4.687</hdop><vdop>4.687</vdop><extensions><gom:speed>1.46</gom:speed></extensions></trkpt>
   <trkpt lat="59.0867527781" lon="29.9921277374"><ele>102.461</ele><time>2026-04-25T14:37:08.000Z</time><hdop>4.687</hdop><vdop>4.687</vdop><extensions><gom:speed>1.64</gom:speed></extensions></trkpt>
   <trkpt lat="59.086729225" lon="29.9921231274"><ele>102.586</ele><time>2026-04-25T14:37:09.000Z</time><hdop>4.625</hdop><vdop>4.625</vdop><extensions><gom:speed>1.699</gom:speed></extensions></trkpt>
   <trkpt lat="59.0867004331" lon="29.9921376281"><ele>102.77</ele><time>2026-04-25T14:37:10.000Z</time><hdop>4.5</hdop><vdop>4.5</vdop><extensions><gom:speed>1.524</gom:speed></extensions></trkpt>
   <trkpt lat="59.0866811548" lon="29.9921403103"><ele>102.879</ele><time>2026-04-25T14:37:11.000Z</time><hdop>4.687</hdop><vdop>4.687</vdop><extensions><gom:speed>1.344</gom:speed></extensions></trkpt>
   <trkpt lat="59.0866759161" lon="29.9921118118"><ele>102.973</ele><time>2026-04-25T14:37:12.000Z</time><hdop>4.812</hdop><vdop>4.812</vdop><extensions><gom:speed>0.975</gom:speed></extensions></trkpt>
   <trkpt lat="59.0866644329" lon="29.9921331857"><ele>103.03</ele><time>2026-04-25T14:37:13.000Z</time><hdop>4.687</hdop><vdop>4.687</vdop><extensions><gom:speed>0.463</gom:speed></extensions></trkpt>
   <trkpt lat="59.0866596133" lon="29.9921281565"><ele>103.036</ele><time>2026-04-25T14:37:14.000Z</time><hdop>4.687</hdop><vdop>4.687</vdop><extensions><gom:speed>1.499</gom:speed></extensions></trkpt>
   <trkpt lat="59.0866436038" lon="29.9921110575"><ele>103.154</ele><time>2026-04-25T14:37:15.000Z</time><hdop>4.687</hdop><vdop>4.687</vdop><extensions><gom:speed>1.441</gom:speed></extensions></trkpt>
   <trkpt lat="59.0866234454" lon="29.9921072856"><ele>103.211</ele><time>2026-04-25T14:37:16.000Z</time><hdop>4.687</hdop><vdop>4.687</vdop><extensions><gom:speed>1.527</gom:speed></extensions></trkpt>
   <trkpt lat="59.0865956593" lon="29.9920859117"><ele>103.329</ele><time>2026-04-25T14:37:17.000Z</time><hdop>4.687</hdop><vdop>4.687</vdop><extensions><gom:speed>1.405</gom:speed></extensions></trkpt>
   <trkpt lat="59.086574034" lon="29.992084403"><ele>103.421</ele><time>2026-04-25T14:37:18.000Z</time><hdop>4.375</hdop><vdop>4.375</vdop><extensions><gom:speed>1.374</gom:speed></extensions></trkpt>
   <trkpt lat="59.0865565159" lon="29.9920624424"><ele>103.45</ele><time>2026-04-25T14:37:19.000Z</time><hdop>4.062</hdop><vdop>4.062</vdop><extensions><gom:speed>1.066</gom:speed></extensions></trkpt>
   <trkpt lat="59.0865423504" lon="29.9920710758"><ele>103.471</ele><time>2026-04-25T14:37:20.000Z</time><hdop>4.062</hdop><vdop>4.062</vdop><extensions><gom:speed>1.266</gom:speed></extensions></trkpt>
   <trkpt lat="59.0865242036" lon="29.9920688965"><ele>103.45</ele><time>2026-04-25T14:37:21.000Z</time><hdop>4.062</hdop><vdop>4.062</vdop><extensions><gom:speed>1.504</gom:speed></extensions></trkpt>
   <trkpt lat="59.0865111279" lon="29.9920559045"><ele>103.431</ele><time>2026-04-25T14:37:22.000Z</time><hdop>4.062</hdop><vdop>4.062</vdop><extensions><gom:speed>1.268</gom:speed></extensions></trkpt>
   <trkpt lat="59.0865038356" lon="29.9920347821"><ele>103.371</ele><time>2026-04-25T14:37:23.000Z</time><hdop>4.125</hdop><vdop>4.125</vdop><extensions><gom:speed>1.366</gom:speed></extensions></trkpt>
   <trkpt lat="59.086485605" lon="29.9920221255"><ele>103.454</ele><time>2026-04-25T14:37:24.000Z</time><hdop>4.312</hdop><vdop>4.312</vdop><extensions><gom:speed>1.153</gom:speed></extensions></trkpt>
   <trkpt lat="59.0864753371" lon="29.9920242209"><ele>103.412</ele><time>2026-04-25T14:37:25.000Z</time><hdop>4.875</hdop><vdop>4.875</vdop><extensions><gom:speed>0.659</gom:speed></extensions></trkpt>
   <trkpt lat="59.0864543405" lon="29.9920366262"><ele>103.157</ele><time>2026-04-25T14:37:26.000Z</time><hdop>4.687</hdop><vdop>4.687</vdop><extensions><gom:speed>1.088</gom:speed></extensions></trkpt>
   <trkpt lat="59.0864381215" lon="29.9920243048"><ele>102.97</ele><time>2026-04-25T14:37:27.000Z</time><hdop>4.687</hdop><vdop>4.687</vdop><extensions><gom:speed>1.459</gom:speed></extensions></trkpt>
   <trkpt lat="59.0864381215" lon="29.9920243048"><ele>102.859</ele><time>2026-04-25T14:37:27.000Z</time><hdop>4.687</hdop><vdop>4.687</vdop><extensions><gom:speed>1.459</gom:speed></extensions></trkpt>
   <trkpt lat="59.0864224054" lon="29.9920238018"><ele>102.837</ele><time>2026-04-25T14:37:28.000Z</time><hdop>4.687</hdop><vdop>4.687</vdop><extensions><gom:speed>1.519</gom:speed></extensions></trkpt>
   <trkpt lat="59.0864029594" lon="29.9920160067"><ele>102.736</ele><time>2026-04-25T14:37:29.000Z</time><hdop>4.562</hdop><vdop>4.562</vdop><extensions><gom:speed>1.659</gom:speed></extensions></trkpt>
   <trkpt lat="59.0863830524" lon="29.9920141627"><ele>102.691</ele><time>2026-04-25T14:37:30.000Z</time><hdop>4.187</hdop><vdop>4.187</vdop><extensions><gom:speed>1.55</gom:speed></extensions></trkpt>
   <trkpt lat="59.086364696" lon="29.9920055293"><ele>102.445</ele><time>2026-04-25T14:37:31.000Z</time><hdop>3.875</hdop><vdop>3.875</vdop><extensions><gom:speed>1.361</gom:speed></extensions></trkpt>
   <trkpt lat="59.0863521651" lon="29.9920030985"><ele>102.123</ele><time>2026-04-25T14:37:32.000Z</time><hdop>3.937</hdop><vdop>3.937</vdop><extensions><gom:speed>1.283</gom:speed></extensions></trkpt>
   <trkpt lat="59.0863398018" lon="29.9919975665"><ele>101.939</ele><time>2026-04-25T14:37:33.000Z</time><hdop>4.125</hdop><vdop>4.125</vdop><extensions><gom:speed>1.433</gom:speed></extensions></trkpt>
   <trkpt lat="59.0863236247" lon="29.9919939623"><ele>102.022</ele><time>2026-04-25T14:37:34.000Z</time><hdop>4.375</hdop><vdop>4.375</vdop><extensions><gom:speed>1.197</gom:speed></extensions></trkpt>
   <trkpt lat="59.0863146141" lon="29.9920208682"><ele>102.183</ele><time>2026-04-25T14:37:35.000Z</time><hdop>4.312</hdop><vdop>4.312</vdop><extensions><gom:speed>1.217</gom:speed></extensions></trkpt>
   <trkpt lat="59.0863065675" lon="29.9920085468"><ele>102.374</ele><time>2026-04-25T14:37:36.000Z</time><hdop>4.625</hdop><vdop>4.625</vdop><extensions><gom:speed>1.164</gom:speed></extensions></trkpt>
   <trkpt lat="59.0862980599" lon="29.9920074571"><ele>102.566</ele><time>2026-04-25T14:37:37.000Z</time><hdop>4.875</hdop><vdop>4.875</vdop><extensions><gom:speed>0.989</gom:speed></extensions></trkpt>
   <trkpt lat="59.0862939108" lon="29.9920093012"><ele>102.622</ele><time>2026-04-25T14:37:38.000Z</time><hdop>4.812</hdop><vdop>4.812</vdop><extensions><gom:speed>1.004</gom:speed></extensions></trkpt>
   <trkpt lat="59.0862848165" lon="29.9919757735"><ele>102.708</ele><time>2026-04-25T14:37:39.000Z</time><hdop>4.687</hdop><vdop>4.687</vdop><extensions><gom:speed>0.476</gom:speed></extensions></trkpt>
   <trkpt lat="59.0862728303" lon="29.9919761926"><ele>102.718</ele><time>2026-04-25T14:37:40.000Z</time><hdop>4.687</hdop><vdop>4.687</vdop><extensions><gom:speed>1.295</gom:speed></extensions></trkpt>
   <trkpt lat="59.0862662925" lon="29.9919933755"><ele>102.64</ele><time>2026-04-25T14:37:41.000Z</time><hdop>4.687</hdop><vdop>4.687</vdop><extensions><gom:speed>0.702</gom:speed></extensions></trkpt>
   <trkpt lat="59.0862649094" lon="29.9919838202"><ele>102.627</ele><time>2026-04-25T14:37:42.000Z</time><hdop>4.687</hdop><vdop>4.687</vdop><extensions><gom:speed>0.283</gom:speed></extensions></trkpt>
   <trkpt lat="59.0862578267" lon="29.9919818923"><ele>102.721</ele><time>2026-04-25T14:37:43.000Z</time><hdop>4.687</hdop><vdop>4.687</vdop><extensions><gom:speed>1.041</gom:speed></extensions></trkpt>
   <trkpt lat="59.0862463854" lon="29.9919968959"><ele>102.862</ele><time>2026-04-25T14:37:44.000Z</time><hdop>4.687</hdop><vdop>4.687</vdop><extensions><gom:speed>1.218</gom:speed></extensions></trkpt>
   <trkpt lat="59.0862341479" lon="29.9919774499"><ele>103.043</ele><time>2026-04-25T14:37:45.000Z</time><hdop>4.687</hdop><vdop>4.687</vdop><extensions><gom:speed>1.526</gom:speed></extensions></trkpt>
   <trkpt lat="59.0862155819" lon="29.9919756897"><ele>103.251</ele><time>2026-04-25T14:37:46.000Z</time><hdop>4.687</hdop><vdop>4.687</vdop><extensions><gom:speed>1.526</gom:speed></extensions></trkpt>
   <trkpt lat="59.0861955073" lon="29.9919595126"><ele>103.591</ele><time>2026-04-25T14:37:47.000Z</time><hdop>4.687</hdop><vdop>4.687</vdop><extensions><gom:speed>1.138</gom:speed></extensions></trkpt>
   <trkpt lat="59.0861955073" lon="29.9919595126"><ele>103.794</ele><time>2026-04-25T14:37:47.000Z</time><hdop>4.687</hdop><vdop>4.687</vdop><extensions><gom:speed>1.138</gom:speed></extensions></trkpt>
   <trkpt lat="59.0861826411" lon="29.9919813056"><ele>104.106</ele><time>2026-04-25T14:37:48.000Z</time><hdop>4.687</hdop><vdop>4.687</vdop><extensions><gom:speed>1.197</gom:speed></extensions></trkpt>
   <trkpt lat="59.0861723732" lon="29.991963033"><ele>104.574</ele><time>2026-04-25T14:37:49.000Z</time><hdop>4.687</hdop><vdop>4.687</vdop><extensions><gom:speed>1.389</gom:speed></extensions></trkpt>
   <trkpt lat="59.0861588784" lon="29.9919226323"><ele>104.925</ele><time>2026-04-25T14:37:50.000Z</time><hdop>4.687</hdop><vdop>4.687</vdop><extensions><gom:speed>1.623</gom:speed></extensions></trkpt>
   <trkpt lat="59.0861379655" lon="29.9919352889"><ele>105.207</ele><time>2026-04-25T14:37:51.000Z</time><hdop>4.687</hdop><vdop>4.687</vdop><extensions><gom:speed>1.943</gom:speed></extensions></trkpt>
   <trkpt lat="59.0861218304" lon="29.9919128254"><ele>105.301</ele><time>2026-04-25T14:37:52.000Z</time><hdop>4.687</hdop><vdop>4.687</vdop><extensions><gom:speed>1.549</gom:speed></extensions></trkpt>
   <trkpt lat="59.0861043541" lon="29.9918887694"><ele>105.201</ele><time>2026-04-25T14:37:53.000Z</time><hdop>4.687</hdop><vdop>4.687</vdop><extensions><gom:speed>1.551</gom:speed></extensions></trkpt>
   <trkpt lat="59.0860815134" lon="29.9918818962"><ele>104.894</ele><time>2026-04-25T14:37:54.000Z</time><hdop>4.687</hdop><vdop>4.687</vdop><extensions><gom:speed>1.623</gom:speed></extensions></trkpt>
   <trkpt lat="59.0860604748" lon="29.991886171"><ele>104.684</ele><time>2026-04-25T14:37:55.000Z</time><hdop>4.687</hdop><vdop>4.687</vdop><extensions><gom:speed>2.236</gom:speed></extensions></trkpt>
   <trkpt lat="59.0860429986" lon="29.9918564152"><ele>104.564</ele><time>2026-04-25T14:37:56.000Z</time><hdop>4.687</hdop><vdop>4.687</vdop><extensions><gom:speed>2.031</gom:speed></extensions></trkpt>
   <trkpt lat="59.0860434596" lon="29.9918290902"><ele>104.483</ele><time>2026-04-25T14:37:57.000Z</time><hdop>4.687</hdop><vdop>4.687</vdop><extensions><gom:speed>1.286</gom:speed></extensions></trkpt>
   <trkpt lat="59.0860442558" lon="29.9918253184"><ele>104.514</ele><time>2026-04-25T14:37:58.000Z</time><hdop>4.687</hdop><vdop>4.687</vdop><extensions><gom:speed>0.702</gom:speed></extensions></trkpt>
   <trkpt lat="59.0860339461" lon="29.9918268271"><ele>104.509</ele><time>2026-04-25T14:37:59.000Z</time><hdop>4.687</hdop><vdop>4.687</vdop><extensions><gom:speed>0.05</gom:speed></extensions></trkpt>
   <trkpt lat="59.0860235525" lon="29.9918269948"><ele>104.577</ele><time>2026-04-25T14:38:00.000Z</time><hdop>4.687</hdop><vdop>4.687</vdop><extensions><gom:speed>0.416</gom:speed></extensions></trkpt>
   <trkpt lat="59.0860134104" lon="29.9918232229"><ele>104.608</ele><time>2026-04-25T14:38:01.000Z</time><hdop>4.687</hdop><vdop>4.687</vdop><extensions><gom:speed>1.113</gom:speed></extensions></trkpt>
   <trkpt lat="59.0859985745" lon="29.9918104824"><ele>104.674</ele><time>2026-04-25T14:38:02.000Z</time><hdop>4.687</hdop><vdop>4.687</vdop><extensions><gom:speed>1.267</gom:speed></extensions></trkpt>
   <trkpt lat="59.0859810982" lon="29.9918119912"><ele>104.8</ele><time>2026-04-25T14:38:03.000Z</time><hdop>4.687</hdop><vdop>4.687</vdop><extensions><gom:speed>1.546</gom:speed></extensions></trkpt>
   <trkpt lat="59.085960353" lon="29.99181065"><ele>104.933</ele><time>2026-04-25T14:38:04.000Z</time><hdop>4.687</hdop><vdop>4.687</vdop><extensions><gom:speed>1.551</gom:speed></extensions></trkpt>
   <trkpt lat="59.0859440921" lon="29.9918024358"><ele>105.003</ele><time>2026-04-25T14:38:05.000Z</time><hdop>4.687</hdop><vdop>4.687</vdop><extensions><gom:speed>1.81</gom:speed></extensions></trkpt>
   <trkpt lat="59.0859215867" lon="29.9918178585"><ele>105.069</ele><time>2026-04-25T14:38:06.000Z</time><hdop>4.687</hdop><vdop>4.687</vdop><extensions><gom:speed>1.64</gom:speed></extensions></trkpt>
   <trkpt lat="59.0859037332" lon="29.9918184452"><ele>105.163</ele><time>2026-04-25T14:38:07.000Z</time><hdop>4.687</hdop><vdop>4.687</vdop><extensions><gom:speed>1.531</gom:speed></extensions></trkpt>
   <trkpt lat="59.0859037332" lon="29.9918184452"><ele>105.22</ele><time>2026-04-25T14:38:07.000Z</time><hdop>4.687</hdop><vdop>4.687</vdop><extensions><gom:speed>1.531</gom:speed></extensions></trkpt>
   <trkpt lat="59.0858881848" lon="29.9917903658"><ele>105.331</ele><time>2026-04-25T14:38:08.000Z</time><hdop>4.687</hdop><vdop>4.687</vdop><extensions><gom:speed>2.004</gom:speed></extensions></trkpt>
   <trkpt lat="59.0858651765" lon="29.9917958979"><ele>105.421</ele><time>2026-04-25T14:38:09.000Z</time><hdop>4.687</hdop><vdop>4.687</vdop><extensions><gom:speed>1.942</gom:speed></extensions></trkpt>
   <trkpt lat="59.0858439703" lon="29.9917722609"><ele>105.717</ele><time>2026-04-25T14:38:10.000Z</time><hdop>4.687</hdop><vdop>4.687</vdop><extensions><gom:speed>1.053</gom:speed></extensions></trkpt>
   <trkpt lat="59.0858281704" lon="29.9917635438"><ele>105.593</ele><time>2026-04-25T14:38:11.000Z</time><hdop>4.687</hdop><vdop>4.687</vdop><extensions><gom:speed>0.727</gom:speed></extensions></trkpt>
   <trkpt lat="59.0858202495" lon="29.9917634599"><ele>105.535</ele><time>2026-04-25T14:38:12.000Z</time><hdop>4.687</hdop><vdop>4.687</vdop><extensions><gom:speed>1.068</gom:speed></extensions></trkpt>
   <trkpt lat="59.0858109037" lon="29.9917692434"><ele>105.58</ele><time>2026-04-25T14:38:13.000Z</time><hdop>4.687</hdop><vdop>4.687</vdop><extensions><gom:speed>1.368</gom:speed></extensions></trkpt>
   <trkpt lat="59.0857986661" lon="29.9917821516"><ele>105.632</ele><time>2026-04-25T14:38:14.000Z</time><hdop>4.687</hdop><vdop>4.687</vdop><extensions><gom:speed>1.623</gom:speed></extensions></trkpt>
   <trkpt lat="59.0857797649" lon="29.9917666451"><ele>105.629</ele><time>2026-04-25T14:38:15.000Z</time><hdop>4.687</hdop><vdop>4.687</vdop><extensions><gom:speed>1.751</gom:speed></extensions></trkpt>
   <trkpt lat="59.0857754482" lon="29.9917478696"><ele>105.632</ele><time>2026-04-25T14:38:16.000Z</time><hdop>4.687</hdop><vdop>4.687</vdop><extensions><gom:speed>1.803</gom:speed></extensions></trkpt>
   <trkpt lat="59.0857541582" lon="29.9917422537"><ele>105.668</ele><time>2026-04-25T14:38:17.000Z</time><hdop>4.687</hdop><vdop>4.687</vdop><extensions><gom:speed>0.501</gom:speed></extensions></trkpt>
   <trkpt lat="59.0857542839" lon="29.9917294294"><ele>105.717</ele><time>2026-04-25T14:38:18.000Z</time><hdop>4.687</hdop><vdop>4.687</vdop><extensions><gom:speed>1.055</gom:speed></extensions></trkpt>
   <trkpt lat="59.0857302698" lon="29.991719874"><ele>105.537</ele><time>2026-04-25T14:38:19.000Z</time><hdop>4.687</hdop><vdop>4.687</vdop><extensions><gom:speed>2.865</gom:speed></extensions></trkpt>
   <trkpt lat="59.0857171102" lon="29.9917062115"><ele>105.256</ele><time>2026-04-25T14:38:20.000Z</time><hdop>4.687</hdop><vdop>4.687</vdop><extensions><gom:speed>0.624</gom:speed></extensions></trkpt>
   <trkpt lat="59.085706549" lon="29.9916855921"><ele>104.903</ele><time>2026-04-25T14:38:21.000Z</time><hdop>4.687</hdop><vdop>4.687</vdop><extensions><gom:speed>1.337</gom:speed></extensions></trkpt>
   <trkpt lat="59.0856868515" lon="29.9916657269"><ele>104.441</ele><time>2026-04-25T14:38:22.000Z</time><hdop>4.687</hdop><vdop>4.687</vdop><extensions><gom:speed>1.406</gom:speed></extensions></trkpt>
   <trkpt lat="59.0856763741" lon="29.9916452751"><ele>104.21</ele><time>2026-04-25T14:38:23.000Z</time><hdop>4.687</hdop><vdop>4.687</vdop><extensions><gom:speed>1.53</gom:speed></extensions></trkpt>
   <trkpt lat="59.0856576825" lon="29.9916416709"><ele>104.056</ele><time>2026-04-25T14:38:24.000Z</time><hdop>4.687</hdop><vdop>4.687</vdop><extensions><gom:speed>1.699</gom:speed></extensions></trkpt>
   <trkpt lat="59.0856457383" lon="29.991624488"><ele>103.963</ele><time>2026-04-25T14:38:25.000Z</time><hdop>4.687</hdop><vdop>4.687</vdop><extensions><gom:speed>1.387</gom:speed></extensions></trkpt>
   <trkpt lat="59.0856306508" lon="29.9916111608"><ele>104.001</ele><time>2026-04-25T14:38:26.000Z</time><hdop>4.687</hdop><vdop>4.687</vdop><extensions><gom:speed>1.393</gom:speed></extensions></trkpt>
   <trkpt lat="59.0856172817" lon="29.9915861827"><ele>103.832</ele><time>2026-04-25T14:38:27.000Z</time><hdop>4.687</hdop><vdop>4.687</vdop><extensions><gom:speed>1.805</gom:speed></extensions></trkpt>
   <trkpt lat="59.0856172817" lon="29.9915861827"><ele>103.731</ele><time>2026-04-25T14:38:27.000Z</time><hdop>4.687</hdop><vdop>4.687</vdop><extensions><gom:speed>1.805</gom:speed></extensions></trkpt>
   <trkpt lat="59.0855889509" lon="29.9915802315"><ele>103.512</ele><time>2026-04-25T14:38:28.000Z</time><hdop>4.687</hdop><vdop>4.687</vdop><extensions><gom:speed>1.54</gom:speed></extensions></trkpt>
   <trkpt lat="59.0855684152" lon="29.991573526"><ele>103.391</ele><time>2026-04-25T14:38:29.000Z</time><hdop>4.687</hdop><vdop>4.687</vdop><extensions><gom:speed>1.642</gom:speed></extensions></trkpt>
   <trkpt lat="59.0855516095" lon="29.991589284"><ele>103.375</ele><time>2026-04-25T14:38:30.000Z</time><hdop>4.687</hdop><vdop>4.687</vdop><extensions><gom:speed>1.586</gom:speed></extensions></trkpt>
   <trkpt lat="59.0855239492" lon="29.9916112446"><ele>103.272</ele><time>2026-04-25T14:38:31.000Z</time><hdop>4.687</hdop><vdop>4.687</vdop><extensions><gom:speed>1.665</gom:speed></extensions></trkpt>
   <trkpt lat="59.0855048385" lon="29.991606886"><ele>103.3</ele><time>2026-04-25T14:38:32.000Z</time><hdop>4.687</hdop><vdop>4.687</vdop><extensions><gom:speed>1.481</gom:speed></extensions></trkpt>
   <trkpt lat="59.0854930619" lon="29.9915936426"><ele>103.338</ele><time>2026-04-25T14:38:33.000Z</time><hdop>4.687</hdop><vdop>4.687</vdop><extensions><gom:speed>1.608</gom:speed></extensions></trkpt>
   <trkpt lat="59.0854719395" lon="29.9916037009"><ele>103.328</ele><time>2026-04-25T14:38:34.000Z</time><hdop>4.687</hdop><vdop>4.687</vdop><extensions><gom:speed>0.937</gom:speed></extensions></trkpt>
   <trkpt lat="59.0854682934" lon="29.9916031141"><ele>103.327</ele><time>2026-04-25T14:38:35.000Z</time><hdop>4.687</hdop><vdop>4.687</vdop><extensions><gom:speed>1.426</gom:speed></extensions></trkpt>
   <trkpt lat="59.0854554691" lon="29.9915923853"><ele>103.368</ele><time>2026-04-25T14:38:36.000Z</time><hdop>4.687</hdop><vdop>4.687</vdop><extensions><gom:speed>1.331</gom:speed></extensions></trkpt>
   <trkpt lat="59.0854381604" lon="29.9916125019"><ele>103.543</ele><time>2026-04-25T14:38:37.000Z</time><hdop>4.687</hdop><vdop>4.687</vdop><extensions><gom:speed>1.534</gom:speed></extensions></trkpt>
   <trkpt lat="59.0854162418" lon="29.9916094006"><ele>103.727</ele><time>2026-04-25T14:38:38.000Z</time><hdop>4.687</hdop><vdop>4.687</vdop><extensions><gom:speed>1.589</gom:speed></extensions></trkpt>
   <trkpt lat="59.0854079018" lon="29.9915725202"><ele>103.931</ele><time>2026-04-25T14:38:39.000Z</time><hdop>4.75</hdop><vdop>4.75</vdop><extensions><gom:speed>1.633</gom:speed></extensions></trkpt>
   <trkpt lat="59.0853905512" lon="29.9915793095"><ele>104.122</ele><time>2026-04-25T14:38:40.000Z</time><hdop>4.812</hdop><vdop>4.812</vdop><extensions><gom:speed>1.701</gom:speed></extensions></trkpt>
   <trkpt lat="59.0853667885" lon="29.9915812374"><ele>104.384</ele><time>2026-04-25T14:38:41.000Z</time><hdop>4.5</hdop><vdop>4.5</vdop><extensions><gom:speed>1.621</gom:speed></extensions></trkpt>
   <trkpt lat="59.0853462948" lon="29.9915888649"><ele>104.674</ele><time>2026-04-25T14:38:42.000Z</time><hdop>4.625</hdop><vdop>4.625</vdop><extensions><gom:speed>1.67</gom:speed></extensions></trkpt>
   <trkpt lat="59.0853236636" lon="29.9915684969"><ele>104.71</ele><time>2026-04-25T14:38:43.000Z</time><hdop>4.437</hdop><vdop>4.437</vdop><extensions><gom:speed>1.567</gom:speed></extensions></trkpt>
   <trkpt lat="59.0853032118" lon="29.9915767111"><ele>104.641</ele><time>2026-04-25T14:38:44.000Z</time><hdop>4.0</hdop><vdop>4.0</vdop><extensions><gom:speed>1.565</gom:speed></extensions></trkpt>
   <trkpt lat="59.0852862803" lon="29.9915510625"><ele>104.61</ele><time>2026-04-25T14:38:45.000Z</time><hdop>4.0</hdop><vdop>4.0</vdop><extensions><gom:speed>1.448</gom:speed></extensions></trkpt>
   <trkpt lat="59.0852799101" lon="29.9915511463"><ele>104.659</ele><time>2026-04-25T14:38:46.000Z</time><hdop>4.625</hdop><vdop>4.625</vdop><extensions><gom:speed>1.175</gom:speed></extensions></trkpt>
   <trkpt lat="59.0852798682" lon="29.9915689998"><ele>104.691</ele><time>2026-04-25T14:38:47.000Z</time><hdop>4.687</hdop><vdop>4.687</vdop><extensions><gom:speed>1.631</gom:speed></extensions></trkpt>
   <trkpt lat="59.0852798682" lon="29.9915689998"><ele>104.71</ele><time>2026-04-25T14:38:47.000Z</time><hdop>4.687</hdop><vdop>4.687</vdop><extensions><gom:speed>1.631</gom:speed></extensions></trkpt>
   <trkpt lat="59.0852621405" lon="29.9915868532"><ele>104.736</ele><time>2026-04-25T14:38:48.000Z</time><hdop>4.687</hdop><vdop>4.687</vdop><extensions><gom:speed>1.262</gom:speed></extensions></trkpt>
   <trkpt lat="59.0852431135" lon="29.9915678263"><ele>104.767</ele><time>2026-04-25T14:38:49.000Z</time><hdop>4.687</hdop><vdop>4.687</vdop><extensions><gom:speed>1.414</gom:speed></extensions></trkpt>
   <trkpt lat="59.0852241704" lon="29.9915605341"><ele>104.874</ele><time>2026-04-25T14:38:50.000Z</time><hdop>4.687</hdop><vdop>4.687</vdop><extensions><gom:speed>1.385</gom:speed></extensions></trkpt>
   <trkpt lat="59.0852069456" lon="29.9915783875"><ele>104.843</ele><time>2026-04-25T14:38:51.000Z</time><hdop>4.687</hdop><vdop>4.687</vdop><extensions><gom:speed>1.163</gom:speed></extensions></trkpt>
   <trkpt lat="59.08519475" lon="29.991548045"><ele>104.927</ele><time>2026-04-25T14:38:52.000Z</time><hdop>4.687</hdop><vdop>4.687</vdop><extensions><gom:speed>1.32</gom:speed></extensions></trkpt>
   <trkpt lat="59.085175262" lon="29.9915668205"><ele>104.979</ele><time>2026-04-25T14:38:53.000Z</time><hdop>4.687</hdop><vdop>4.687</vdop><extensions><gom:speed>1.473</gom:speed></extensions></trkpt>
   <trkpt lat="59.0851722865" lon="29.9915254977"><ele>104.962</ele><time>2026-04-25T14:38:54.000Z</time><hdop>4.687</hdop><vdop>4.687</vdop><extensions><gom:speed>1.58</gom:speed></extensions></trkpt>
   <trkpt lat="59.0851535529" lon="29.9915320356"><ele>105.041</ele><time>2026-04-25T14:38:55.000Z</time><hdop>4.687</hdop><vdop>4.687</vdop><extensions><gom:speed>0.971</gom:speed></extensions></trkpt>
   <trkpt lat="59.0851407286" lon="29.9915524036"><ele>105.197</ele><time>2026-04-25T14:38:56.000Z</time><hdop>4.687</hdop><vdop>4.687</vdop><extensions><gom:speed>1.971</gom:speed></extensions></trkpt>
   <trkpt lat="59.0851277366" lon="29.9915410042"><ele>105.151</ele><time>2026-04-25T14:38:57.000Z</time><hdop>4.687</hdop><vdop>4.687</vdop><extensions><gom:speed>1.037</gom:speed></extensions></trkpt>
   <trkpt lat="59.0851053989" lon="29.9915262521"><ele>105.058</ele><time>2026-04-25T14:38:58.000Z</time><hdop>4.687</hdop><vdop>4.687</vdop><extensions><gom:speed>0.35</gom:speed></extensions></trkpt>
   <trkpt lat="59.0850890542" lon="29.9915286828"><ele>104.87</ele><time>2026-04-25T14:38:59.000Z</time><hdop>4.687</hdop><vdop>4.687</vdop><extensions><gom:speed>0.149</gom:speed></extensions></trkpt>
   <trkpt lat="59.0850769423" lon="29.9915236537"><ele>104.733</ele><time>2026-04-25T14:39:00.000Z</time><hdop>4.687</hdop><vdop>4.687</vdop><extensions><gom:speed>0.28</gom:speed></extensions></trkpt>
   <trkpt lat="59.0850724999" lon="29.9915200495"><ele>104.466</ele><time>2026-04-25T14:39:01.000Z</time><hdop>4.687</hdop><vdop>4.687</vdop><extensions><gom:speed>0.251</gom:speed></extensions></trkpt>
   <trkpt lat="59.0850608071" lon="29.9915255815"><ele>104.413</ele><time>2026-04-25T14:39:02.000Z</time><hdop>4.687</hdop><vdop>4.687</vdop><extensions><gom:speed>1.308</gom:speed></extensions></trkpt>
   <trkpt lat="59.0850483181" lon="29.9915245757"><ele>104.482</ele><time>2026-04-25T14:39:03.000Z</time><hdop>4.687</hdop><vdop>4.687</vdop><extensions><gom:speed>0.041</gom:speed></extensions></trkpt>
   <trkpt lat="59.085034949" lon="29.9915229831"><ele>104.443</ele><time>2026-04-25T14:39:04.000Z</time><hdop>4.687</hdop><vdop>4.687</vdop><extensions><gom:speed>0.703</gom:speed></extensions></trkpt>
   <trkpt lat="59.0850240106" lon="29.9915136792"><ele>104.307</ele><time>2026-04-25T14:39:05.000Z</time><hdop>4.687</hdop><vdop>4.687</vdop><extensions><gom:speed>1.319</gom:speed></extensions></trkpt>
   <trkpt lat="59.085021496" lon="29.9915117514"><ele>104.226</ele><time>2026-04-25T14:39:06.000Z</time><hdop>4.687</hdop><vdop>4.687</vdop><extensions><gom:speed>0.285</gom:speed></extensions></trkpt>
   <trkpt lat="59.0850156706" lon="29.9914969154"><ele>104.094</ele><time>2026-04-25T14:39:07.000Z</time><hdop>4.687</hdop><vdop>4.687</vdop><extensions><gom:speed>1.125</gom:speed></extensions></trkpt>
   <trkpt lat="59.0850156706" lon="29.9914969154"><ele>104.016</ele><time>2026-04-25T14:39:07.000Z</time><hdop>4.687</hdop><vdop>4.687</vdop><extensions><gom:speed>1.125</gom:speed></extensions></trkpt>
   <trkpt lat="59.0850049418" lon="29.9915010225"><ele>104.049</ele><time>2026-04-25T14:39:08.000Z</time><hdop>4.687</hdop><vdop>4.687</vdop><extensions><gom:speed>0.694</gom:speed></extensions></trkpt>
   <trkpt lat="59.0849984458" lon="29.9914796487"><ele>104.214</ele><time>2026-04-25T14:39:09.000Z</time><hdop>4.687</hdop><vdop>4.687</vdop><extensions><gom:speed>0.522</gom:speed></extensions></trkpt>
   <trkpt lat="59.0849898962" lon="29.9914793134"><ele>104.334</ele><time>2026-04-25T14:39:10.000Z</time><hdop>4.687</hdop><vdop>4.687</vdop><extensions><gom:speed>0.237</gom:speed></extensions></trkpt>
   <trkpt lat="59.0849803828" lon="29.9914759607"><ele>104.478</ele><time>2026-04-25T14:39:11.000Z</time><hdop>4.687</hdop><vdop>4.687</vdop><extensions><gom:speed>1.087</gom:speed></extensions></trkpt>
   <trkpt lat="59.0849625293" lon="29.9914810736"><ele>104.622</ele><time>2026-04-25T14:39:12.000Z</time><hdop>4.687</hdop><vdop>4.687</vdop><extensions><gom:speed>1.4</gom:speed></extensions></trkpt>
   <trkpt lat="59.0849500822" lon="29.9914496415"><ele>104.674</ele><time>2026-04-25T14:39:13.000Z</time><hdop>4.687</hdop><vdop>4.687</vdop><extensions><gom:speed>0.708</gom:speed></extensions></trkpt>
   <trkpt lat="59.0849391438" lon="29.9914664891"><ele>104.67</ele><time>2026-04-25T14:39:14.000Z</time><hdop>4.687</hdop><vdop>4.687</vdop><extensions><gom:speed>1.095</gom:speed></extensions></trkpt>
   <trkpt lat="59.0849233858" lon="29.9914608732"><ele>104.66</ele><time>2026-04-25T14:39:15.000Z</time><hdop>4.687</hdop><vdop>4.687</vdop><extensions><gom:speed>1.365</gom:speed></extensions></trkpt>
   <trkpt lat="59.0849044847" lon="29.9914546706"><ele>104.652</ele><time>2026-04-25T14:39:16.000Z</time><hdop>4.687</hdop><vdop>4.687</vdop><extensions><gom:speed>1.23</gom:speed></extensions></trkpt>
   <trkpt lat="59.0848938815" lon="29.9914377392"><ele>104.703</ele><time>2026-04-25T14:39:17.000Z</time><hdop>4.687</hdop><vdop>4.687</vdop><extensions><gom:speed>1.15</gom:speed></extensions></trkpt>
   <trkpt lat="59.0848807639" lon="29.9914260045"><ele>104.774</ele><time>2026-04-25T14:39:18.000Z</time><hdop>4.687</hdop><vdop>4.687</vdop><extensions><gom:speed>0.092</gom:speed></extensions></trkpt>
   <trkpt lat="59.0848707475" lon="29.9914230708"><ele>104.789</ele><time>2026-04-25T14:39:19.000Z</time><hdop>4.687</hdop><vdop>4.687</vdop><extensions><gom:speed>1.136</gom:speed></extensions></trkpt>
   <trkpt lat="59.0848611083" lon="29.9914198857"><ele>104.624</ele><time>2026-04-25T14:39:20.000Z</time><hdop>4.687</hdop><vdop>4.687</vdop><extensions><gom:speed>0.299</gom:speed></extensions></trkpt>
   <trkpt lat="59.0848521397" lon="29.9914330453"><ele>104.327</ele><time>2026-04-25T14:39:21.000Z</time><hdop>4.687</hdop><vdop>4.687</vdop><extensions><gom:speed>1.169</gom:speed></extensions></trkpt>
   <trkpt lat="59.0848321488" lon="29.9914477975"><ele>104.03</ele><time>2026-04-25T14:39:22.000Z</time><hdop>4.687</hdop><vdop>4.687</vdop><extensions><gom:speed>1.083</gom:speed></extensions></trkpt>
   <trkpt lat="59.0848125352" lon="29.9914462887"><ele>103.989</ele><time>2026-04-25T14:39:23.000Z</time><hdop>4.687</hdop><vdop>4.687</vdop><extensions><gom:speed>1.307</gom:speed></extensions></trkpt>
   <trkpt lat="59.0847815221" lon="29.9914733623"><ele>104.033</ele><time>2026-04-25T14:39:24.000Z</time><hdop>4.687</hdop><vdop>4.687</vdop><extensions><gom:speed>0.954</gom:speed></extensions></trkpt>
   <trkpt lat="59.0847260339" lon="29.991517032"><ele>103.906</ele><time>2026-04-25T14:39:25.000Z</time><hdop>4.687</hdop><vdop>4.687</vdop><extensions><gom:speed>1.35</gom:speed></extensions></trkpt>
   <trkpt lat="59.0846668158" lon="29.9915560078"><ele>103.798</ele><time>2026-04-25T14:39:26.000Z</time><hdop>4.687</hdop><vdop>4.687</vdop><extensions><gom:speed>1.539</gom:speed></extensions></trkpt>
   <trkpt lat="59.0846220564" lon="29.9915713467"><ele>103.688</ele><time>2026-04-25T14:39:27.000Z</time><hdop>4.687</hdop><vdop>4.687</vdop><extensions><gom:speed>1.269</gom:speed></extensions></trkpt>
   <trkpt lat="59.0846220564" lon="29.9915713467"><ele>103.622</ele><time>2026-04-25T14:39:27.000Z</time><hdop>4.687</hdop><vdop>4.687</vdop><extensions><gom:speed>1.269</gom:speed></extensions></trkpt>
   <trkpt lat="59.0845956534" lon="29.9915612884"><ele>101.973</ele><time>2026-04-25T14:39:28.000Z</time><hdop>3.0</hdop><vdop>3.0</vdop><extensions><gom:speed>1.65</gom:speed></extensions></trkpt>
   <trkpt lat="59.0845850084" lon="29.991547123"><ele>101.022</ele><time>2026-04-25T14:39:29.000Z</time><hdop>3.0</hdop><vdop>3.0</vdop><extensions><gom:speed>1.096</gom:speed></extensions></trkpt>
   <trkpt lat="59.0845737348" lon="29.9915292696"><ele>100.366</ele><time>2026-04-25T14:39:30.000Z</time><hdop>3.187</hdop><vdop>3.187</vdop><extensions><gom:speed>1.378</gom:speed></extensions></trkpt>
   <trkpt lat="59.0845653109" lon="29.9915144336"><ele>99.972</ele><time>2026-04-25T14:39:31.000Z</time><hdop>3.187</hdop><vdop>3.187</vdop><extensions><gom:speed>1.02</gom:speed></extensions></trkpt>
   <trkpt lat="59.0845562166" lon="29.9915001005"><ele>99.802</ele><time>2026-04-25T14:39:32.000Z</time><hdop>3.312</hdop><vdop>3.312</vdop><extensions><gom:speed>1.237</gom:speed></extensions></trkpt>
   <trkpt lat="59.0845434342" lon="29.9914840073"><ele>99.627</ele><time>2026-04-25T14:39:33.000Z</time><hdop>3.562</hdop><vdop>3.562</vdop><extensions><gom:speed>1.84</gom:speed></extensions></trkpt>
   <trkpt lat="59.0845294364" lon="29.991473027"><ele>99.538</ele><time>2026-04-25T14:39:34.000Z</time><hdop>3.625</hdop><vdop>3.625</vdop><extensions><gom:speed>1.301</gom:speed></extensions></trkpt>
   <trkpt lat="59.0845145166" lon="29.9914679978"><ele>99.434</ele><time>2026-04-25T14:39:35.000Z</time><hdop>3.562</hdop><vdop>3.562</vdop><extensions><gom:speed>1.643</gom:speed></extensions></trkpt>
   <trkpt lat="59.0844978366" lon="29.9914631363"><ele>99.306</ele><time>2026-04-25T14:39:36.000Z</time><hdop>3.5</hdop><vdop>3.5</vdop><extensions><gom:speed>1.583</gom:speed></extensions></trkpt>
   <trkpt lat="59.084481911" lon="29.9914580234"><ele>99.212</ele><time>2026-04-25T14:39:37.000Z</time><hdop>3.312</hdop><vdop>3.312</vdop><extensions><gom:speed>1.493</gom:speed></extensions></trkpt>
   <trkpt lat="59.0844642671" lon="29.9914561794"><ele>99.103</ele><time>2026-04-25T14:39:38.000Z</time><hdop>3.312</hdop><vdop>3.312</vdop><extensions><gom:speed>1.716</gom:speed></extensions></trkpt>
   <trkpt lat="59.0844493892" lon="29.9914569337"><ele>99.067</ele><time>2026-04-25T14:39:39.000Z</time><hdop>3.562</hdop><vdop>3.562</vdop><extensions><gom:speed>1.546</gom:speed></extensions></trkpt>
   <trkpt lat="59.0844542088" lon="29.9914323748"><ele>100.554</ele><time>2026-04-25T14:39:40.000Z</time><hdop>4.687</hdop><vdop>4.687</vdop><extensions><gom:speed>1.545</gom:speed></extensions></trkpt>
   <trkpt lat="59.0844613334" lon="29.991398428"><ele>101.408</ele><time>2026-04-25T14:39:41.000Z</time><hdop>4.687</hdop><vdop>4.687</vdop><extensions><gom:speed>1.61</gom:speed></extensions></trkpt>
   <trkpt lat="59.0844968308" lon="29.9913617153"><ele>102.024</ele><time>2026-04-25T14:39:42.000Z</time><hdop>4.687</hdop><vdop>4.687</vdop><extensions><gom:speed>0.524</gom:speed></extensions></trkpt>
   <trkpt lat="59.0844977109" lon="29.9913968355"><ele>102.498</ele><time>2026-04-25T14:39:43.000Z</time><hdop>4.687</hdop><vdop>4.687</vdop><extensions><gom:speed>0.97</gom:speed></extensions></trkpt>
   <trkpt lat="59.084507853" lon="29.9914021161"><ele>103.054</ele><time>2026-04-25T14:39:44.000Z</time><hdop>4.687</hdop><vdop>4.687</vdop><extensions><gom:speed>1.087</gom:speed></extensions></trkpt>
   <trkpt lat="59.0844806118" lon="29.9914346379"><ele>103.378</ele><time>2026-04-25T14:39:45.000Z</time><hdop>4.687</hdop><vdop>4.687</vdop><extensions><gom:speed>1.115</gom:speed></extensions></trkpt>
   <trkpt lat="59.0844522391" lon="29.9914631363"><ele>103.569</ele><time>2026-04-25T14:39:46.000Z</time><hdop>4.687</hdop><vdop>4.687</vdop><extensions><gom:speed>1.427</gom:speed></extensions></trkpt>
   <trkpt lat="59.0844316196" lon="29.9914617952"><ele>103.698</ele><time>2026-04-25T14:39:47.000Z</time><hdop>4.687</hdop><vdop>4.687</vdop><extensions><gom:speed>1.442</gom:speed></extensions></trkpt>
   <trkpt lat="59.0844316196" lon="29.9914617952"><ele>103.776</ele><time>2026-04-25T14:39:47.000Z</time><hdop>4.687</hdop><vdop>4.687</vdop><extensions><gom:speed>1.442</gom:speed></extensions></trkpt>
   <trkpt lat="59.0844215613" lon="29.9914436065"><ele>103.732</ele><time>2026-04-25T14:39:48.000Z</time><hdop>4.875</hdop><vdop>4.875</vdop><extensions><gom:speed>1.11</gom:speed></extensions></trkpt>
   <trkpt lat="59.0844032888" lon="29.9914200534"><ele>103.652</ele><time>2026-04-25T14:39:49.000Z</time><hdop>4.687</hdop><vdop>4.687</vdop><extensions><gom:speed>0.7</gom:speed></extensions></trkpt>
   <trkpt lat="59.0843963318" lon="29.9914069776"><ele>103.469</ele><time>2026-04-25T14:39:50.000Z</time><hdop>4.687</hdop><vdop>4.687</vdop><extensions><gom:speed>1.11</gom:speed></extensions></trkpt>
   <trkpt lat="59.0843845971" lon="29.9914047983"><ele>103.278</ele><time>2026-04-25T14:39:51.000Z</time><hdop>4.687</hdop><vdop>4.687</vdop><extensions><gom:speed>1.053</gom:speed></extensions></trkpt>
   <trkpt lat="59.0843716052" lon="29.9913943209"><ele>103.038</ele><time>2026-04-25T14:39:52.000Z</time><hdop>4.687</hdop><vdop>4.687</vdop><extensions><gom:speed>2.034</gom:speed></extensions></trkpt>
   <trkpt lat="59.0843584875" lon="29.9914021999"><ele>102.812</ele><time>2026-04-25T14:39:53.000Z</time><hdop>4.687</hdop><vdop>4.687</vdop><extensions><gom:speed>1.491</gom:speed></extensions></trkpt>
   <trkpt lat="59.0843528716" lon="29.9914115038"><ele>102.46</ele><time>2026-04-25T14:39:54.000Z</time><hdop>4.937</hdop><vdop>4.937</vdop><extensions><gom:speed>0.689</gom:speed></extensions></trkpt>
   <trkpt lat="59.0843408855" lon="29.9914154433"><ele>102.192</ele><time>2026-04-25T14:39:55.000Z</time><hdop>4.687</hdop><vdop>4.687</vdop><extensions><gom:speed>1.261</gom:speed></extensions></trkpt>
   <trkpt lat="59.0843386224" lon="29.991418377"><ele>102.048</ele><time>2026-04-25T14:39:56.000Z</time><hdop>4.687</hdop><vdop>4.687</vdop><extensions><gom:speed>0.315</gom:speed></extensions></trkpt>
   <trkpt lat="59.0843345152" lon="29.9914125096"><ele>101.961</ele><time>2026-04-25T14:39:57.000Z</time><hdop>4.687</hdop><vdop>4.687</vdop><extensions><gom:speed>0.615</gom:speed></extensions></trkpt>
   <trkpt lat="59.084327684" lon="29.9914180417"><ele>101.977</ele><time>2026-04-25T14:39:58.000Z</time><hdop>4.687</hdop><vdop>4.687</vdop><extensions><gom:speed>0.763</gom:speed></extensions></trkpt>
   <trkpt lat="59.0843172485" lon="29.991429944"><ele>102.069</ele><time>2026-04-25T14:39:59.000Z</time><hdop>4.687</hdop><vdop>4.687</vdop><extensions><gom:speed>0.631</gom:speed></extensions></trkpt>
   <trkpt lat="59.084306352" lon="29.9914352246"><ele>102.249</ele><time>2026-04-25T14:40:00.000Z</time><hdop>4.687</hdop><vdop>4.687</vdop><extensions><gom:speed>1.114</gom:speed></extensions></trkpt>
   <trkpt lat="59.0842934858" lon="29.9914391641"><ele>102.472</ele><time>2026-04-25T14:40:01.000Z</time><hdop>4.687</hdop><vdop>4.687</vdop><extensions><gom:speed>1.157</gom:speed></extensions></trkpt>
   <trkpt lat="59.0842792366" lon="29.9914508988"><ele>102.769</ele><time>2026-04-25T14:40:02.000Z</time><hdop>4.812</hdop><vdop>4.812</vdop><extensions><gom:speed>0.593</gom:speed></extensions></trkpt>
   <trkpt lat="59.0842796557" lon="29.9914333806"><ele>102.944</ele><time>2026-04-25T14:40:03.000Z</time><hdop>4.75</hdop><vdop>4.75</vdop><extensions><gom:speed>1.198</gom:speed></extensions></trkpt>
   <trkpt lat="59.0842600839" lon="29.9914316204"><ele>102.959</ele><time>2026-04-25T14:40:04.000Z</time><hdop>4.687</hdop><vdop>4.687</vdop><extensions><gom:speed>1.43</gom:speed></extensions></trkpt>
   <trkpt lat="59.0842557253" lon="29.9914265912"><ele>103.042</ele><time>2026-04-25T14:40:05.000Z</time><hdop>4.687</hdop><vdop>4.687</vdop><extensions><gom:speed>0.435</gom:speed></extensions></trkpt>
   <trkpt lat="59.0842467148" lon="29.9914281838"><ele>103.12</ele><time>2026-04-25T14:40:06.000Z</time><hdop>4.687</hdop><vdop>4.687</vdop><extensions><gom:speed>0.771</gom:speed></extensions></trkpt>
   <trkpt lat="59.0842320884" lon="29.9914206401"><ele>103.295</ele><time>2026-04-25T14:40:07.000Z</time><hdop>4.687</hdop><vdop>4.687</vdop><extensions><gom:speed>1.104</gom:speed></extensions></trkpt>
   <trkpt lat="59.0842320884" lon="29.9914206401"><ele>103.399</ele><time>2026-04-25T14:40:07.000Z</time><hdop>4.687</hdop><vdop>4.687</vdop><extensions><gom:speed>1.104</gom:speed></extensions></trkpt>
   <trkpt lat="59.0842236646" lon="29.991400775"><ele>103.528</ele><time>2026-04-25T14:40:08.000Z</time><hdop>4.687</hdop><vdop>4.687</vdop><extensions><gom:speed>1.759</gom:speed></extensions></trkpt>
   <trkpt lat="59.0842048891" lon="29.9913853523"><ele>103.593</ele><time>2026-04-25T14:40:09.000Z</time><hdop>4.687</hdop><vdop>4.687</vdop><extensions><gom:speed>1.511</gom:speed></extensions></trkpt>
   <trkpt lat="59.0841913104" lon="29.9914071452"><ele>103.692</ele><time>2026-04-25T14:40:10.000Z</time><hdop>4.687</hdop><vdop>4.687</vdop><extensions><gom:speed>1.445</gom:speed></extensions></trkpt>
   <trkpt lat="59.0841959205" lon="29.9913933151"><ele>103.792</ele><time>2026-04-25T14:40:11.000Z</time><hdop>4.687</hdop><vdop>4.687</vdop><extensions><gom:speed>1.303</gom:speed></extensions></trkpt>
   <trkpt lat="59.0841911009" lon="29.9913739529"><ele>103.955</ele><time>2026-04-25T14:40:12.000Z</time><hdop>4.687</hdop><vdop>4.687</vdop><extensions><gom:speed>1.214</gom:speed></extensions></trkpt>
   <trkpt lat="59.0841812521" lon="29.9913602904"><ele>104.075</ele><time>2026-04-25T14:40:13.000Z</time><hdop>4.687</hdop><vdop>4.687</vdop><extensions><gom:speed>1.166</gom:speed></extensions></trkpt>
   <trkpt lat="59.0841765583" lon="29.9913469632"><ele>104.077</ele><time>2026-04-25T14:40:14.000Z</time><hdop>4.687</hdop><vdop>4.687</vdop><extensions><gom:speed>0.735</gom:speed></extensions></trkpt>
   <trkpt lat="59.0841692241" lon="29.9913606257"><ele>103.987</ele><time>2026-04-25T14:40:15.000Z</time><hdop>4.687</hdop><vdop>4.687</vdop><extensions><gom:speed>1.088</gom:speed></extensions></trkpt>
   <trkpt lat="59.0841654523" lon="29.9913480528"><ele>103.936</ele><time>2026-04-25T14:40:16.000Z</time><hdop>4.687</hdop><vdop>4.687</vdop><extensions><gom:speed>0.951</gom:speed></extensions></trkpt>
   <trkpt lat="59.0841504486" lon="29.9913560994"><ele>103.881</ele><time>2026-04-25T14:40:17.000Z</time><hdop>4.687</hdop><vdop>4.687</vdop><extensions><gom:speed>1.062</gom:speed></extensions></trkpt>
   <trkpt lat="59.084113233" lon="29.9913064786"><ele>103.384</ele><time>2026-04-25T14:40:18.000Z</time><hdop>4.687</hdop><vdop>4.687</vdop><extensions><gom:speed>1.251</gom:speed></extensions></trkpt>
   <trkpt lat="59.0840727065" lon="29.9912903853"><ele>102.728</ele><time>2026-04-25T14:40:19.000Z</time><hdop>4.687</hdop><vdop>4.687</vdop><extensions><gom:speed>1.5</gom:speed></extensions></trkpt>
   <trkpt lat="59.0840320962" lon="29.9912976776"><ele>102.019</ele><time>2026-04-25T14:40:20.000Z</time><hdop>4.687</hdop><vdop>4.687</vdop><extensions><gom:speed>0.189</gom:speed></extensions></trkpt>
   <trkpt lat="59.0840140332" lon="29.991313687"><ele>101.4</ele><time>2026-04-25T14:40:21.000Z</time><hdop>4.687</hdop><vdop>4.687</vdop><extensions><gom:speed>1.093</gom:speed></extensions></trkpt>
   <trkpt lat="59.0839774881" lon="29.99133548"><ele>100.744</ele><time>2026-04-25T14:40:22.000Z</time><hdop>4.687</hdop><vdop>4.687</vdop><extensions><gom:speed>1.502</gom:speed></extensions></trkpt>
   <trkpt lat="59.0839523424" lon="29.9912747112"><ele>100.188</ele><time>2026-04-25T14:40:23.000Z</time><hdop>4.5</hdop><vdop>4.5</vdop><extensions><gom:speed>1.574</gom:speed></extensions></trkpt>
   <trkpt lat="59.0839378836" lon="29.9912379984"><ele>99.715</ele><time>2026-04-25T14:40:24.000Z</time><hdop>4.625</hdop><vdop>4.625</vdop><extensions><gom:speed>0.584</gom:speed></extensions></trkpt>
   <trkpt lat="59.0839349499" lon="29.9912273534"><ele>99.355</ele><time>2026-04-25T14:40:25.000Z</time><hdop>4.125</hdop><vdop>4.125</vdop><extensions><gom:speed>1.255</gom:speed></extensions></trkpt>
   <trkpt lat="59.0839188986" lon="29.9912455421"><ele>99.156</ele><time>2026-04-25T14:40:26.000Z</time><hdop>3.562</hdop><vdop>3.562</vdop><extensions><gom:speed>1.493</gom:speed></extensions></trkpt>
   <trkpt lat="59.0838859577" lon="29.991272448"><ele>99.008</ele><time>2026-04-25T14:40:27.000Z</time><hdop>3.437</hdop><vdop>3.437</vdop><extensions><gom:speed>1.641</gom:speed></extensions></trkpt>
   <trkpt lat="59.0838859577" lon="29.991272448"><ele>98.92</ele><time>2026-04-25T14:40:27.000Z</time><hdop>3.437</hdop><vdop>3.437</vdop><extensions><gom:speed>1.641</gom:speed></extensions></trkpt>
   <trkpt lat="59.0838450121" lon="29.9912952468"><ele>98.77</ele><time>2026-04-25T14:40:28.000Z</time><hdop>3.437</hdop><vdop>3.437</vdop><extensions><gom:speed>1.682</gom:speed></extensions></trkpt>
   <trkpt lat="59.0838082574" lon="29.9913049698"><ele>98.646</ele><time>2026-04-25T14:40:29.000Z</time><hdop>3.062</hdop><vdop>3.062</vdop><extensions><gom:speed>1.699</gom:speed></extensions></trkpt>
   <trkpt lat="59.0837803457" lon="29.9913042993"><ele>98.555</ele><time>2026-04-25T14:40:30.000Z</time><hdop>3.0</hdop><vdop>3.0</vdop><extensions><gom:speed>1.536</gom:speed></extensions></trkpt>
   <trkpt lat="59.0837654259" lon="29.9913062271"><ele>98.523</ele><time>2026-04-25T14:40:31.000Z</time><hdop>3.0</hdop><vdop>3.0</vdop><extensions><gom:speed>1.521</gom:speed></extensions></trkpt>
   <trkpt lat="59.0837509252" lon="29.9913095799"><ele>98.545</ele><time>2026-04-25T14:40:32.000Z</time><hdop>3.0</hdop><vdop>3.0</vdop><extensions><gom:speed>1.468</gom:speed></extensions></trkpt>
   <trkpt lat="59.0837382266" lon="29.9913159501"><ele>98.552</ele><time>2026-04-25T14:40:33.000Z</time><hdop>3.0</hdop><vdop>3.0</vdop><extensions><gom:speed>1.498</gom:speed></extensions></trkpt>
   <trkpt lat="59.0837229716" lon="29.9913219013"><ele>98.514</ele><time>2026-04-25T14:40:34.000Z</time><hdop>3.0</hdop><vdop>3.0</vdop><extensions><gom:speed>1.638</gom:speed></extensions></trkpt>
   <trkpt lat="59.0837080937" lon="29.991326679"><ele>98.481</ele><time>2026-04-25T14:40:35.000Z</time><hdop>3.0</hdop><vdop>3.0</vdop><extensions><gom:speed>1.611</gom:speed></extensions></trkpt>
   <trkpt lat="59.083694976" lon="29.9913270142"><ele>98.489</ele><time>2026-04-25T14:40:36.000Z</time><hdop>3.0</hdop><vdop>3.0</vdop><extensions><gom:speed>1.456</gom:speed></extensions></trkpt>
   <trkpt lat="59.0836806849" lon="29.9913268466"><ele>98.492</ele><time>2026-04-25T14:40:37.000Z</time><hdop>3.0</hdop><vdop>3.0</vdop><extensions><gom:speed>1.567</gom:speed></extensions></trkpt>
   <trkpt lat="59.0836658489" lon="29.9913230747"><ele>98.505</ele><time>2026-04-25T14:40:38.000Z</time><hdop>3.0</hdop><vdop>3.0</vdop><extensions><gom:speed>1.51</gom:speed></extensions></trkpt>
   <trkpt lat="59.0836515997" lon="29.9913156148"><ele>98.493</ele><time>2026-04-25T14:40:39.000Z</time><hdop>3.0</hdop><vdop>3.0</vdop><extensions><gom:speed>1.446</gom:speed></extensions></trkpt>
   <trkpt lat="59.083639404" lon="29.991309999"><ele>95.836</ele><time>2026-04-25T14:40:40.000Z</time><hdop>4.687</hdop><vdop>4.687</vdop><extensions><gom:speed>1.059</gom:speed></extensions></trkpt>
   <trkpt lat="59.0836253224" lon="29.9913071491"><ele>94.118</ele><time>2026-04-25T14:40:41.000Z</time><hdop>4.687</hdop><vdop>4.687</vdop><extensions><gom:speed>0.963</gom:speed></extensions></trkpt>
   <trkpt lat="59.0836113665" lon="29.9913064786"><ele>92.81</ele><time>2026-04-25T14:40:42.000Z</time><hdop>4.625</hdop><vdop>4.625</vdop><extensions><gom:speed>0.853</gom:speed></extensions></trkpt>
   <trkpt lat="59.0836024398" lon="29.9913167045"><ele>92.576</ele><time>2026-04-25T14:40:43.000Z</time><hdop>4.125</hdop><vdop>4.125</vdop><extensions><gom:speed>0.756</gom:speed></extensions></trkpt>
   <trkpt lat="59.0835997157" lon="29.9913313728"><ele>92.935</ele><time>2026-04-25T14:40:44.000Z</time><hdop>3.937</hdop><vdop>3.937</vdop><extensions><gom:speed>0.706</gom:speed></extensions></trkpt>
   <trkpt lat="59.0835969078" lon="29.991334055"><ele>94.045</ele><time>2026-04-25T14:40:45.000Z</time><hdop>4.75</hdop><vdop>4.75</vdop><extensions><gom:speed>0.632</gom:speed></extensions></trkpt>
   <trkpt lat="59.0835954828" lon="29.9913183809"><ele>94.877</ele><time>2026-04-25T14:40:46.000Z</time><hdop>4.687</hdop><vdop>4.687</vdop><extensions><gom:speed>0.653</gom:speed></extensions></trkpt>
   <trkpt lat="59.0835834129" lon="29.9913101666"><ele>95.695</ele><time>2026-04-25T14:40:47.000Z</time><hdop>4.312</hdop><vdop>4.312</vdop><extensions><gom:speed>0.993</gom:speed></extensions></trkpt>
   <trkpt lat="59.0835834129" lon="29.9913101666"><ele>96.185</ele><time>2026-04-25T14:40:47.000Z</time><hdop>4.312</hdop><vdop>4.312</vdop><extensions><gom:speed>0.993</gom:speed></extensions></trkpt>
   <trkpt lat="59.083575492" lon="29.9913201411"><ele>96.91</ele><time>2026-04-25T14:40:48.000Z</time><hdop>3.812</hdop><vdop>3.812</vdop><extensions><gom:speed>0.571</gom:speed></extensions></trkpt>
   <trkpt lat="59.0835710915" lon="29.9913322948"><ele>97.644</ele><time>2026-04-25T14:40:49.000Z</time><hdop>4.0</hdop><vdop>4.0</vdop><extensions><gom:speed>0.872</gom:speed></extensions></trkpt>
   <trkpt lat="59.0835547049" lon="29.9913120106"><ele>98.175</ele><time>2026-04-25T14:40:50.000Z</time><hdop>4.187</hdop><vdop>4.187</vdop><extensions><gom:speed>2.121</gom:speed></extensions></trkpt>
   <trkpt lat="59.0835442694" lon="29.9912995216"><ele>99.554</ele><time>2026-04-25T14:40:51.000Z</time><hdop>3.937</hdop><vdop>3.937</vdop><extensions><gom:speed>1.367</gom:speed></extensions></trkpt>
   <trkpt lat="59.0835231889" lon="29.9912626412"><ele>99.992</ele><time>2026-04-25T14:40:52.000Z</time><hdop>4.937</hdop><vdop>4.937</vdop><extensions><gom:speed>3.125</gom:speed></extensions></trkpt>
   <trkpt lat="59.0835153937" lon="29.9912584503"><ele>100.405</ele><time>2026-04-25T14:40:53.000Z</time><hdop>4.562</hdop><vdop>4.562</vdop><extensions><gom:speed>1.364</gom:speed></extensions></trkpt>
   <trkpt lat="59.0834971212" lon="29.9912532535"><ele>100.55</ele><time>2026-04-25T14:40:54.000Z</time><hdop>4.312</hdop><vdop>4.312</vdop><extensions><gom:speed>1.453</gom:speed></extensions></trkpt>
   <trkpt lat="59.0834783876" lon="29.9912481405"><ele>100.758</ele><time>2026-04-25T14:40:55.000Z</time><hdop>4.125</hdop><vdop>4.125</vdop><extensions><gom:speed>1.488</gom:speed></extensions></trkpt>
   <trkpt lat="59.0834668206" lon="29.9912271858"><ele>100.974</ele><time>2026-04-25T14:40:56.000Z</time><hdop>4.375</hdop><vdop>4.375</vdop><extensions><gom:speed>1.521</gom:speed></extensions></trkpt>
   <trkpt lat="59.0834535772" lon="29.9912208993"><ele>101.329</ele><time>2026-04-25T14:40:57.000Z</time><hdop>3.875</hdop><vdop>3.875</vdop><extensions><gom:speed>1.482</gom:speed></extensions></trkpt>
   <trkpt lat="59.0834417168" lon="29.9912060634"><ele>101.825</ele><time>2026-04-25T14:40:58.000Z</time><hdop>4.25</hdop><vdop>4.25</vdop><extensions><gom:speed>1.559</gom:speed></extensions></trkpt>
   <trkpt lat="59.0834279705" lon="29.9911774811"><ele>102.25</ele><time>2026-04-25T14:40:59.000Z</time><hdop>4.625</hdop><vdop>4.625</vdop><extensions><gom:speed>1.324</gom:speed></extensions></trkpt>
   <trkpt lat="59.0834126735" lon="29.9911712785"><ele>102.707</ele><time>2026-04-25T14:41:00.000Z</time><hdop>4.75</hdop><vdop>4.75</vdop><extensions><gom:speed>1.235</gom:speed></extensions></trkpt>
   <trkpt lat="59.0833990948" lon="29.9911832646"><ele>103.008</ele><time>2026-04-25T14:41:01.000Z</time><hdop>4.812</hdop><vdop>4.812</vdop><extensions><gom:speed>1.412</gom:speed></extensions></trkpt>
   <trkpt lat="59.0833883241" lon="29.9911590409"><ele>103.192</ele><time>2026-04-25T14:41:02.000Z</time><hdop>4.687</hdop><vdop>4.687</vdop><extensions><gom:speed>1.395</gom:speed></extensions></trkpt>
   <trkpt lat="59.0833715184" lon="29.9911685124"><ele>103.136</ele><time>2026-04-25T14:41:03.000Z</time><hdop>4.687</hdop><vdop>4.687</vdop><extensions><gom:speed>1.473</gom:speed></extensions></trkpt>
   <trkpt lat="59.0833516114" lon="29.9911528383"><ele>102.907</ele><time>2026-04-25T14:41:04.000Z</time><hdop>4.687</hdop><vdop>4.687</vdop><extensions><gom:speed>1.394</gom:speed></extensions></trkpt>
   <trkpt lat="59.0833409663" lon="29.9911763914"><ele>102.725</ele><time>2026-04-25T14:41:05.000Z</time><hdop>4.687</hdop><vdop>4.687</vdop><extensions><gom:speed>1.696</gom:speed></extensions></trkpt>
   <trkpt lat="59.0833225262" lon="29.991147893"><ele>102.711</ele><time>2026-04-25T14:41:06.000Z</time><hdop>4.687</hdop><vdop>4.687</vdop><extensions><gom:speed>1.642</gom:speed></extensions></trkpt>
   <trkpt lat="59.0833046727" lon="29.9911370803"><ele>102.902</ele><time>2026-04-25T14:41:07.000Z</time><hdop>4.687</hdop><vdop>4.687</vdop><extensions><gom:speed>1.719</gom:speed></extensions></trkpt>
   <trkpt lat="59.0833046727" lon="29.9911370803"><ele>103.017</ele><time>2026-04-25T14:41:07.000Z</time><hdop>4.687</hdop><vdop>4.687</vdop><extensions><gom:speed>1.719</gom:speed></extensions></trkpt>
   <trkpt lat="59.0832856877" lon="29.9911295366"><ele>103.291</ele><time>2026-04-25T14:41:08.000Z</time><hdop>4.687</hdop><vdop>4.687</vdop><extensions><gom:speed>1.519</gom:speed></extensions></trkpt>
   <trkpt lat="59.0832702231" lon="29.9911213223"><ele>103.47</ele><time>2026-04-25T14:41:09.000Z</time><hdop>4.812</hdop><vdop>4.812</vdop><extensions><gom:speed>1.568</gom:speed></extensions></trkpt>
   <trkpt lat="59.0832574407" lon="29.9911100068"><ele>103.577</ele><time>2026-04-25T14:41:10.000Z</time><hdop>4.5</hdop><vdop>4.5</vdop><extensions><gom:speed>1.614</gom:speed></extensions></trkpt>
   <trkpt lat="59.0832407607" lon="29.9911064864"><ele>103.593</ele><time>2026-04-25T14:41:11.000Z</time><hdop>4.375</hdop><vdop>4.375</vdop><extensions><gom:speed>1.676</gom:speed></extensions></trkpt>
   <trkpt lat="59.0832240388" lon="29.9910945002"><ele>103.481</ele><time>2026-04-25T14:41:12.000Z</time><hdop>4.437</hdop><vdop>4.437</vdop><extensions><gom:speed>1.723</gom:speed></extensions></trkpt>
   <trkpt lat="59.0832088256" lon="29.9910949193"><ele>103.367</ele><time>2026-04-25T14:41:13.000Z</time><hdop>4.062</hdop><vdop>4.062</vdop><extensions><gom:speed>1.463</gom:speed></extensions></trkpt>
   <trkpt lat="59.0831979711" lon="29.9910701089"><ele>103.216</ele><time>2026-04-25T14:41:14.000Z</time><hdop>4.187</hdop><vdop>4.187</vdop><extensions><gom:speed>1.574</gom:speed></extensions></trkpt>
   <trkpt lat="59.0831839733" lon="29.9910742999"><ele>103.127</ele><time>2026-04-25T14:41:15.000Z</time><hdop>4.562</hdop><vdop>4.562</vdop><extensions><gom:speed>1.567</gom:speed></extensions></trkpt>
   <trkpt lat="59.0831800757" lon="29.9910704442"><ele>103.215</ele><time>2026-04-25T14:41:16.000Z</time><hdop>4.5</hdop><vdop>4.5</vdop><extensions><gom:speed>1.435</gom:speed></extensions></trkpt>
   <trkpt lat="59.0831673771" lon="29.9910576199"><ele>103.188</ele><time>2026-04-25T14:41:17.000Z</time><hdop>4.625</hdop><vdop>4.625</vdop><extensions><gom:speed>1.707</gom:speed></extensions></trkpt>
   <trkpt lat="59.0831514934" lon="29.991049238"><ele>103.324</ele><time>2026-04-25T14:41:18.000Z</time><hdop>4.687</hdop><vdop>4.687</vdop><extensions><gom:speed>1.555</gom:speed></extensions></trkpt>
   <trkpt lat="59.083135945" lon="29.9910545186"><ele>103.603</ele><time>2026-04-25T14:41:19.000Z</time><hdop>4.687</hdop><vdop>4.687</vdop><extensions><gom:speed>1.544</gom:speed></extensions></trkpt>
   <trkpt lat="59.0831194746" lon="29.9910455499"><ele>103.877</ele><time>2026-04-25T14:41:20.000Z</time><hdop>4.687</hdop><vdop>4.687</vdop><extensions><gom:speed>1.661</gom:speed></extensions></trkpt>
   <trkpt lat="59.0830975559" lon="29.9910394311"><ele>103.979</ele><time>2026-04-25T14:41:21.000Z</time><hdop>4.687</hdop><vdop>4.687</vdop><extensions><gom:speed>1.611</gom:speed></extensions></trkpt>
   <trkpt lat="59.0830822589" lon="29.9910171353"><ele>104.066</ele><time>2026-04-25T14:41:22.000Z</time><hdop>4.687</hdop><vdop>4.687</vdop><extensions><gom:speed>1.526</gom:speed></extensions></trkpt>
   <trkpt lat="59.0830618071" lon="29.991013112"><ele>104.084</ele><time>2026-04-25T14:41:23.000Z</time><hdop>4.75</hdop><vdop>4.75</vdop><extensions><gom:speed>1.666</gom:speed></extensions></trkpt>
   <trkpt lat="59.0830499886" lon="29.9909826018"><ele>104.102</ele><time>2026-04-25T14:41:24.000Z</time><hdop>3.562</hdop><vdop>3.562</vdop><extensions><gom:speed>1.275</gom:speed></extensions></trkpt>
   <trkpt lat="59.0830385473" lon="29.9910012097"><ele>104.116</ele><time>2026-04-25T14:41:25.000Z</time><hdop>3.375</hdop><vdop>3.375</vdop><extensions><gom:speed>1.27</gom:speed></extensions></trkpt>
   <trkpt lat="59.0830315065" lon="29.9909699452"><ele>104.237</ele><time>2026-04-25T14:41:26.000Z</time><hdop>3.375</hdop><vdop>3.375</vdop><extensions><gom:speed>1.449</gom:speed></extensions></trkpt>
   <trkpt lat="59.0830165448" lon="29.9909907323"><ele>104.313</ele><time>2026-04-25T14:41:27.000Z</time><hdop>3.812</hdop><vdop>3.812</vdop><extensions><gom:speed>1.406</gom:speed></extensions></trkpt>
   <trkpt lat="59.0830165448" lon="29.9909907323"><ele>104.359</ele><time>2026-04-25T14:41:27.000Z</time><hdop>3.812</hdop><vdop>3.812</vdop><extensions><gom:speed>1.406</gom:speed></extensions></trkpt>
   <trkpt lat="59.0830045168" lon="29.9909649998"><ele>104.423</ele><time>2026-04-25T14:41:28.000Z</time><hdop>3.562</hdop><vdop>3.562</vdop><extensions><gom:speed>1.592</gom:speed></extensions></trkpt>
   <trkpt lat="59.0829876691" lon="29.9909495771"><ele>104.446</ele><time>2026-04-25T14:41:29.000Z</time><hdop>4.0</hdop><vdop>4.0</vdop><extensions><gom:speed>1.553</gom:speed></extensions></trkpt>
   <trkpt lat="59.0829684746" lon="29.9909592163"><ele>104.504</ele><time>2026-04-25T14:41:30.000Z</time><hdop>4.062</hdop><vdop>4.062</vdop><extensions><gom:speed>1.486</gom:speed></extensions></trkpt>
   <trkpt lat="59.0829554407" lon="29.9909434583"><ele>104.533</ele><time>2026-04-25T14:41:31.000Z</time><hdop>4.625</hdop><vdop>4.625</vdop><extensions><gom:speed>1.484</gom:speed></extensions></trkpt>
   <trkpt lat="59.0829393894" lon="29.990939435"><ele>104.475</ele><time>2026-04-25T14:41:32.000Z</time><hdop>4.687</hdop><vdop>4.687</vdop><extensions><gom:speed>1.061</gom:speed></extensions></trkpt>
   <trkpt lat="59.0829333544" lon="29.9909178097"><ele>104.421</ele><time>2026-04-25T14:41:33.000Z</time><hdop>4.812</hdop><vdop>4.812</vdop><extensions><gom:speed>1.387</gom:speed></extensions></trkpt>
   <trkpt lat="59.0829186022" lon="29.9908967711"><ele>104.313</ele><time>2026-04-25T14:41:34.000Z</time><hdop>4.562</hdop><vdop>4.562</vdop><extensions><gom:speed>2.467</gom:speed></extensions></trkpt>
   <trkpt lat="59.0829138665" lon="29.9908828572"><ele>104.21</ele><time>2026-04-25T14:41:35.000Z</time><hdop>4.375</hdop><vdop>4.375</vdop><extensions><gom:speed>1.181</gom:speed></extensions></trkpt>
   <trkpt lat="59.0829002459" lon="29.9908888083"><ele>104.1</ele><time>2026-04-25T14:41:36.000Z</time><hdop>3.937</hdop><vdop>3.937</vdop><extensions><gom:speed>1.558</gom:speed></extensions></trkpt>
   <trkpt lat="59.08288168" lon="29.9908891436"><ele>104.088</ele><time>2026-04-25T14:41:37.000Z</time><hdop>3.625</hdop><vdop>3.625</vdop><extensions><gom:speed>1.696</gom:speed></extensions></trkpt>
   <trkpt lat="59.0828623597" lon="29.9908612319"><ele>103.903</ele><time>2026-04-25T14:41:38.000Z</time><hdop>3.625</hdop><vdop>3.625</vdop><extensions><gom:speed>1.56</gom:speed></extensions></trkpt>
   <trkpt lat="59.082847398" lon="29.9908489105"><ele>103.82</ele><time>2026-04-25T14:41:39.000Z</time><hdop>3.25</hdop><vdop>3.25</vdop><extensions><gom:speed>1.559</gom:speed></extensions></trkpt>
   <trkpt lat="59.0828243897" lon="29.9908375111"><ele>103.655</ele><time>2026-04-25T14:41:40.000Z</time><hdop>3.062</hdop><vdop>3.062</vdop><extensions><gom:speed>1.584</gom:speed></extensions></trkpt>
   <trkpt lat="59.0828037702" lon="29.9908139579"><ele>103.517</ele><time>2026-04-25T14:41:41.000Z</time><hdop>3.125</hdop><vdop>3.125</vdop><extensions><gom:speed>1.527</gom:speed></extensions></trkpt>
   <trkpt lat="59.0827834441" lon="29.99080281"><ele>103.289</ele><time>2026-04-25T14:41:42.000Z</time><hdop>3.062</hdop><vdop>3.062</vdop><extensions><gom:speed>1.694</gom:speed></extensions></trkpt>
   <trkpt lat="59.0827624893" lon="29.9908076715"><ele>103.022</ele><time>2026-04-25T14:41:43.000Z</time><hdop>3.0</hdop><vdop>3.0</vdop><extensions><gom:speed>1.451</gom:speed></extensions></trkpt>
   <trkpt lat="59.0827461027" lon="29.9907982"><ele>102.856</ele><time>2026-04-25T14:41:44.000Z</time><hdop>3.125</hdop><vdop>3.125</vdop><extensions><gom:speed>1.463</gom:speed></extensions></trkpt>
   <trkpt lat="59.0827331945" lon="29.9907693662"><ele>102.777</ele><time>2026-04-25T14:41:45.000Z</time><hdop>3.25</hdop><vdop>3.25</vdop><extensions><gom:speed>1.592</gom:speed></extensions></trkpt>
   <trkpt lat="59.0827148382" lon="29.9907501717"><ele>102.634</ele><time>2026-04-25T14:41:46.000Z</time><hdop>3.375</hdop><vdop>3.375</vdop><extensions><gom:speed>0.89</gom:speed></extensions></trkpt>
   <trkpt lat="59.0827038579" lon="29.9907601461"><ele>102.585</ele><time>2026-04-25T14:41:47.000Z</time><hdop>3.375</hdop><vdop>3.375</vdop><extensions><gom:speed>1.577</gom:speed></extensions></trkpt>
   <trkpt lat="59.0827038579" lon="29.9907601461"><ele>102.556</ele><time>2026-04-25T14:41:47.000Z</time><hdop>3.375</hdop><vdop>3.375</vdop><extensions><gom:speed>1.577</gom:speed></extensions></trkpt>
   <trkpt lat="59.0826882675" lon="29.9907388561"><ele>102.483</ele><time>2026-04-25T14:41:48.000Z</time><hdop>3.375</hdop><vdop>3.375</vdop><extensions><gom:speed>1.638</gom:speed></extensions></trkpt>
   <trkpt lat="59.0826707913" lon="29.9907324858"><ele>102.366</ele><time>2026-04-25T14:41:49.000Z</time><hdop>3.812</hdop><vdop>3.812</vdop><extensions><gom:speed>1.649</gom:speed></extensions></trkpt>
   <trkpt lat="59.082657045" lon="29.9907119502"><ele>102.214</ele><time>2026-04-25T14:41:50.000Z</time><hdop>3.812</hdop><vdop>3.812</vdop><extensions><gom:speed>1.679</gom:speed></extensions></trkpt>
   <trkpt lat="59.0826390239" lon="29.9906932585"><ele>102.039</ele><time>2026-04-25T14:41:51.000Z</time><hdop>3.75</hdop><vdop>3.75</vdop><extensions><gom:speed>1.671</gom:speed></extensions></trkpt>
   <trkpt lat="59.0826236431" lon="29.9906793446"><ele>101.799</ele><time>2026-04-25T14:41:52.000Z</time><hdop>3.937</hdop><vdop>3.937</vdop><extensions><gom:speed>1.791</gom:speed></extensions></trkpt>
   <trkpt lat="59.0826057477" lon="29.9906764109"><ele>101.613</ele><time>2026-04-25T14:41:53.000Z</time><hdop>3.937</hdop><vdop>3.937</vdop><extensions><gom:speed>1.628</gom:speed></extensions></trkpt>
   <trkpt lat="59.0825909117" lon="29.9906655144"><ele>101.393</ele><time>2026-04-25T14:41:54.000Z</time><hdop>3.437</hdop><vdop>3.437</vdop><extensions><gom:speed>1.526</gom:speed></extensions></trkpt>
   <trkpt lat="59.0825793866" lon="29.9906405364"><ele>101.227</ele><time>2026-04-25T14:41:55.000Z</time><hdop>3.312</hdop><vdop>3.312</vdop><extensions><gom:speed>1.614</gom:speed></extensions></trkpt>
   <trkpt lat="59.0825619104" lon="29.9906441406"><ele>101.003</ele><time>2026-04-25T14:41:56.000Z</time><hdop>3.0</hdop><vdop>3.0</vdop><extensions><gom:speed>1.744</gom:speed></extensions></trkpt>
   <trkpt lat="59.0825471163" lon="29.9906163127"><ele>100.731</ele><time>2026-04-25T14:41:57.000Z</time><hdop>2.625</hdop><vdop>2.625</vdop><extensions><gom:speed>1.774</gom:speed></extensions></trkpt>
   <trkpt lat="59.0825311488" lon="29.9906122894"><ele>100.59</ele><time>2026-04-25T14:41:58.000Z</time><hdop>2.625</hdop><vdop>2.625</vdop><extensions><gom:speed>1.812</gom:speed></extensions></trkpt>
   <trkpt lat="59.0825124152" lon="29.9906023987"><ele>100.438</ele><time>2026-04-25T14:41:59.000Z</time><hdop>2.625</hdop><vdop>2.625</vdop><extensions><gom:speed>1.754</gom:speed></extensions></trkpt>
   <trkpt lat="59.0824961124" lon="29.9905977887"><ele>100.18</ele><time>2026-04-25T14:42:00.000Z</time><hdop>2.937</hdop><vdop>2.937</vdop><extensions><gom:speed>1.58</gom:speed></extensions></trkpt>
   <trkpt lat="59.0824844197" lon="29.990581863"><ele>99.99</ele><time>2026-04-25T14:42:01.000Z</time><hdop>2.937</hdop><vdop>2.937</vdop><extensions><gom:speed>1.661</gom:speed></extensions></trkpt>
   <trkpt lat="59.0824647222" lon="29.9906046618"><ele>99.853</ele><time>2026-04-25T14:42:02.000Z</time><hdop>3.0</hdop><vdop>3.0</vdop><extensions><gom:speed>1.607</gom:speed></extensions></trkpt>
   <trkpt lat="59.082450892" lon="29.9905847129"><ele>99.679</ele><time>2026-04-25T14:42:03.000Z</time><hdop>3.062</hdop><vdop>3.062</vdop><extensions><gom:speed>1.67</gom:speed></extensions></trkpt>
   <trkpt lat="59.0824343797" lon="29.9905808572"><ele>99.593</ele><time>2026-04-25T14:42:04.000Z</time><hdop>3.125</hdop><vdop>3.125</vdop><extensions><gom:speed>1.739</gom:speed></extensions></trkpt>
   <trkpt lat="59.0824176159" lon="29.9905657698"><ele>99.569</ele><time>2026-04-25T14:42:05.000Z</time><hdop>2.812</hdop><vdop>2.812</vdop><extensions><gom:speed>1.563</gom:speed></extensions></trkpt>
   <trkpt lat="59.0824034924" lon="29.990561495"><ele>99.507</ele><time>2026-04-25T14:42:06.000Z</time><hdop>2.812</hdop><vdop>2.812</vdop><extensions><gom:speed>1.654</gom:speed></extensions></trkpt>
   <trkpt lat="59.0823903747" lon="29.9905628361"><ele>99.454</ele><time>2026-04-25T14:42:07.000Z</time><hdop>2.75</hdop><vdop>2.75</vdop><extensions><gom:speed>1.677</gom:speed></extensions></trkpt>
   <trkpt lat="59.0823903747" lon="29.9905628361"><ele>99.422</ele><time>2026-04-25T14:42:07.000Z</time><hdop>2.75</hdop><vdop>2.75</vdop><extensions><gom:speed>1.677</gom:speed></extensions></trkpt>
   <trkpt lat="59.0823734014" lon="29.9905578908"><ele>99.363</ele><time>2026-04-25T14:42:08.000Z</time><hdop>2.75</hdop><vdop>2.75</vdop><extensions><gom:speed>1.721</gom:speed></extensions></trkpt>
   <trkpt lat="59.0823586911" lon="29.9905490898"><ele>99.263</ele><time>2026-04-25T14:42:09.000Z</time><hdop>2.75</hdop><vdop>2.75</vdop><extensions><gom:speed>1.632</gom:speed></extensions></trkpt>
   <trkpt lat="59.0823429331" lon="29.9905505147"><ele>99.129</ele><time>2026-04-25T14:42:10.000Z</time><hdop>2.562</hdop><vdop>2.562</vdop><extensions><gom:speed>1.61</gom:speed></extensions></trkpt>
   <trkpt lat="59.0823262531" lon="29.9905496765"><ele>98.926</ele><time>2026-04-25T14:42:11.000Z</time><hdop>2.75</hdop><vdop>2.75</vdop><extensions><gom:speed>1.653</gom:speed></extensions></trkpt>
   <trkpt lat="59.0823112076" lon="29.9905474134"><ele>98.802</ele><time>2026-04-25T14:42:12.000Z</time><hdop>2.75</hdop><vdop>2.75</vdop><extensions><gom:speed>1.809</gom:speed></extensions></trkpt>
   <trkpt lat="59.0822947372" lon="29.9905637581"><ele>98.811</ele><time>2026-04-25T14:42:13.000Z</time><hdop>2.625</hdop><vdop>2.625</vdop><extensions><gom:speed>1.453</gom:speed></extensions></trkpt>
   <trkpt lat="59.0822824158" lon="29.9905485869"><ele>98.843</ele><time>2026-04-25T14:42:14.000Z</time><hdop>2.437</hdop><vdop>2.437</vdop><extensions><gom:speed>1.634</gom:speed></extensions></trkpt>
   <trkpt lat="59.0822683342" lon="29.9905630038"><ele>98.918</ele><time>2026-04-25T14:42:15.000Z</time><hdop>2.812</hdop><vdop>2.812</vdop><extensions><gom:speed>1.495</gom:speed></extensions></trkpt>
   <trkpt lat="59.0822536659" lon="29.9905604892"><ele>98.911</ele><time>2026-04-25T14:42:16.000Z</time><hdop>2.625</hdop><vdop>2.625</vdop><extensions><gom:speed>1.363</gom:speed></extensions></trkpt>
   <trkpt lat="59.0822428532" lon="29.9905538675"><ele>98.981</ele><time>2026-04-25T14:42:17.000Z</time><hdop>3.0</hdop><vdop>3.0</vdop><extensions><gom:speed>0.324</gom:speed></extensions></trkpt>
   <trkpt lat="59.0822423922" lon="29.9905563821"><ele>99.03</ele><time>2026-04-25T14:42:18.000Z</time><hdop>3.437</hdop><vdop>3.437</vdop><extensions><gom:speed>1.176</gom:speed></extensions></trkpt>
   <trkpt lat="59.0822308671" lon="29.990563339"><ele>99.063</ele><time>2026-04-25T14:42:19.000Z</time><hdop>3.625</hdop><vdop>3.625</vdop><extensions><gom:speed>1.6</gom:speed></extensions></trkpt>
   <trkpt lat="59.0822138099" lon="29.9905539513"><ele>99.043</ele><time>2026-04-25T14:42:20.000Z</time><hdop>3.562</hdop><vdop>3.562</vdop><extensions><gom:speed>1.671</gom:speed></extensions></trkpt>
   <trkpt lat="59.0821977586" lon="29.9905422166"><ele>98.994</ele><time>2026-04-25T14:42:21.000Z</time><hdop>3.625</hdop><vdop>3.625</vdop><extensions><gom:speed>1.586</gom:speed></extensions></trkpt>
   <trkpt lat="59.0821822101" lon="29.9905491736"><ele>98.987</ele><time>2026-04-25T14:42:22.000Z</time><hdop>3.375</hdop><vdop>3.375</vdop><extensions><gom:speed>1.665</gom:speed></extensions></trkpt>
   <trkpt lat="59.0821673323" lon="29.9905279674"><ele>98.909</ele><time>2026-04-25T14:42:23.000Z</time><hdop>3.062</hdop><vdop>3.062</vdop><extensions><gom:speed>1.722</gom:speed></extensions></trkpt>
   <trkpt lat="59.0821514066" lon="29.990502235"><ele>98.821</ele><time>2026-04-25T14:42:24.000Z</time><hdop>3.125</hdop><vdop>3.125</vdop><extensions><gom:speed>1.03</gom:speed></extensions></trkpt>
   <trkpt lat="59.0821428571" lon="29.9904993851"><ele>98.775</ele><time>2026-04-25T14:42:25.000Z</time><hdop>3.125</hdop><vdop>3.125</vdop><extensions><gom:speed>1.399</gom:speed></extensions></trkpt>
   <trkpt lat="59.0821302423" lon="29.9905070965"><ele>98.681</ele><time>2026-04-25T14:42:26.000Z</time><hdop>3.25</hdop><vdop>3.25</vdop><extensions><gom:speed>1.133</gom:speed></extensions></trkpt>
   <trkpt lat="59.0821244169" lon="29.9904985469"><ele>98.58</ele><time>2026-04-25T14:42:27.000Z</time><hdop>3.312</hdop><vdop>3.312</vdop><extensions><gom:speed>1.011</gom:speed></extensions></trkpt>
   <trkpt lat="59.0821244169" lon="29.9904985469"><ele>98.52</ele><time>2026-04-25T14:42:27.000Z</time><hdop>3.312</hdop><vdop>3.312</vdop><extensions><gom:speed>1.011</gom:speed></extensions></trkpt>
   <trkpt lat="59.0821148196" lon="29.9904940207"><ele>98.492</ele><time>2026-04-25T14:42:28.000Z</time><hdop>3.25</hdop><vdop>3.25</vdop><extensions><gom:speed>1.222</gom:speed></extensions></trkpt>
   <trkpt lat="59.0821063958" lon="29.9904727307"><ele>98.436</ele><time>2026-04-25T14:42:29.000Z</time><hdop>3.25</hdop><vdop>3.25</vdop><extensions><gom:speed>1.186</gom:speed></extensions></trkpt>
   <trkpt lat="59.0820926914" lon="29.9904887401"><ele>98.406</ele><time>2026-04-25T14:42:30.000Z</time><hdop>3.5</hdop><vdop>3.5</vdop><extensions><gom:speed>0.931</gom:speed></extensions></trkpt>
   <trkpt lat="59.0820860697" lon="29.9904715572"><ele>98.448</ele><time>2026-04-25T14:42:31.000Z</time><hdop>3.312</hdop><vdop>3.312</vdop><extensions><gom:speed>1.36</gom:speed></extensions></trkpt>
   <trkpt lat="59.0820717367" lon="29.9904820346"><ele>98.473</ele><time>2026-04-25T14:42:32.000Z</time><hdop>3.25</hdop><vdop>3.25</vdop><extensions><gom:speed>1.322</gom:speed></extensions></trkpt>
   <trkpt lat="59.0820579484" lon="29.9904750776"><ele>98.476</ele><time>2026-04-25T14:42:33.000Z</time><hdop>3.5</hdop><vdop>3.5</vdop><extensions><gom:speed>1.473</gom:speed></extensions></trkpt>
   <trkpt lat="59.0820418552" lon="29.990461918"><ele>98.447</ele><time>2026-04-25T14:42:34.000Z</time><hdop>3.625</hdop><vdop>3.625</vdop><extensions><gom:speed>1.318</gom:speed></extensions></trkpt>
   <trkpt lat="59.082026642" lon="29.9904768378"><ele>98.426</ele><time>2026-04-25T14:42:35.000Z</time><hdop>3.437</hdop><vdop>3.437</vdop><extensions><gom:speed>1.612</gom:speed></extensions></trkpt>
   <trkpt lat="59.0820100039" lon="29.9904700485"><ele>98.356</ele><time>2026-04-25T14:42:36.000Z</time><hdop>3.375</hdop><vdop>3.375</vdop><extensions><gom:speed>1.634</gom:speed></extensions></trkpt>
   <trkpt lat="59.0819938269" lon="29.9904863932"><ele>98.273</ele><time>2026-04-25T14:42:37.000Z</time><hdop>4.375</hdop><vdop>4.375</vdop><extensions><gom:speed>0.458</gom:speed></extensions></trkpt>
   <trkpt lat="59.0819885044" lon="29.9904742394"><ele>98.249</ele><time>2026-04-25T14:42:38.000Z</time><hdop>4.437</hdop><vdop>4.437</vdop><extensions><gom:speed>1.397</gom:speed></extensions></trkpt>
   <trkpt lat="59.081971531" lon="29.9904780951"><ele>98.249</ele><time>2026-04-25T14:42:39.000Z</time><hdop>4.375</hdop><vdop>4.375</vdop><extensions><gom:speed>1.443</gom:speed></extensions></trkpt>
   <trkpt lat="59.0819583295" lon="29.9904919252"><ele>98.225</ele><time>2026-04-25T14:42:40.000Z</time><hdop>4.562</hdop><vdop>4.562</vdop><extensions><gom:speed>1.482</gom:speed></extensions></trkpt>
   <trkpt lat="59.0819416076" lon="29.9904959485"><ele>98.195</ele><time>2026-04-25T14:42:41.000Z</time><hdop>4.75</hdop><vdop>4.75</vdop><extensions><gom:speed>1.075</gom:speed></extensions></trkpt>
   <trkpt lat="59.0819373328" lon="29.9905190826"><ele>98.182</ele><time>2026-04-25T14:42:42.000Z</time><hdop>3.812</hdop><vdop>3.812</vdop><extensions><gom:speed>1.317</gom:speed></extensions></trkpt>
   <trkpt lat="59.0819265202" lon="29.990537439"><ele>98.191</ele><time>2026-04-25T14:42:43.000Z</time><hdop>4.187</hdop><vdop>4.187</vdop><extensions><gom:speed>1.248</gom:speed></extensions></trkpt>
   <trkpt lat="59.0819143245" lon="29.9905459047"><ele>98.211</ele><time>2026-04-25T14:42:44.000Z</time><hdop>4.25</hdop><vdop>4.25</vdop><extensions><gom:speed>1.727</gom:speed></extensions></trkpt>
   <trkpt lat="59.081901584" lon="29.9905579746"><ele>98.133</ele><time>2026-04-25T14:42:45.000Z</time><hdop>4.0</hdop><vdop>4.0</vdop><extensions><gom:speed>1.58</gom:speed></extensions></trkpt>
   <trkpt lat="59.0818948785" lon="29.9905652669"><ele>98.075</ele><time>2026-04-25T14:42:46.000Z</time><hdop>3.875</hdop><vdop>3.875</vdop><extensions><gom:speed>1.428</gom:speed></extensions></trkpt>
   <trkpt lat="59.0818823895" lon="29.9905843776"><ele>98.132</ele><time>2026-04-25T14:42:47.000Z</time><hdop>3.75</hdop><vdop>3.75</vdop><extensions><gom:speed>1.85</gom:speed></extensions></trkpt>
   <trkpt lat="59.0818823895" lon="29.9905843776"><ele>98.166</ele><time>2026-04-25T14:42:47.000Z</time><hdop>3.75</hdop><vdop>3.75</vdop><extensions><gom:speed>1.85</gom:speed></extensions></trkpt>
   <trkpt lat="59.0818787852" lon="29.9905892391"><ele>98.34</ele><time>2026-04-25T14:42:48.000Z</time><hdop>3.312</hdop><vdop>3.312</vdop><extensions><gom:speed>0.607</gom:speed></extensions></trkpt>
   <trkpt lat="59.081872876" lon="29.9905808572"><ele>98.475</ele><time>2026-04-25T14:42:49.000Z</time><hdop>3.25</hdop><vdop>3.25</vdop><extensions><gom:speed>0.796</gom:speed></extensions></trkpt>
   <trkpt lat="59.0818683498" lon="29.9905816954"><ele>98.556</ele><time>2026-04-25T14:42:50.000Z</time><hdop>3.562</hdop><vdop>3.562</vdop><extensions><gom:speed>0.511</gom:speed></extensions></trkpt>
   <trkpt lat="59.0818563637" lon="29.9905918375"><ele>98.709</ele><time>2026-04-25T14:42:51.000Z</time><hdop>4.875</hdop><vdop>4.875</vdop><extensions><gom:speed>0.041</gom:speed></extensions></trkpt>
   <trkpt lat="59.0818551902" lon="29.9905932624"><ele>98.82</ele><time>2026-04-25T14:42:52.000Z</time><hdop>4.687</hdop><vdop>4.687</vdop><extensions><gom:speed>1.249</gom:speed></extensions></trkpt>
   <trkpt lat="59.0818431622" lon="29.9905987107"><ele>98.95</ele><time>2026-04-25T14:42:53.000Z</time><hdop>4.687</hdop><vdop>4.687</vdop><extensions><gom:speed>1.327</gom:speed></extensions></trkpt>
   <trkpt lat="59.0818260631" lon="29.9905822821"><ele>99.14</ele><time>2026-04-25T14:42:54.000Z</time><hdop>4.687</hdop><vdop>4.687</vdop><extensions><gom:speed>0.675</gom:speed></extensions></trkpt>
   <trkpt lat="59.0818234228" lon="29.990573565"><ele>99.308</ele><time>2026-04-25T14:42:55.000Z</time><hdop>4.687</hdop><vdop>4.687</vdop><extensions><gom:speed>1.127</gom:speed></extensions></trkpt>
   <trkpt lat="59.0818147056" lon="29.9905537837"><ele>99.39</ele><time>2026-04-25T14:42:56.000Z</time><hdop>4.687</hdop><vdop>4.687</vdop><extensions><gom:speed>0.415</gom:speed></extensions></trkpt>
   <trkpt lat="59.0818040606" lon="29.9905454856"><ele>99.234</ele><time>2026-04-25T14:42:57.000Z</time><hdop>4.687</hdop><vdop>4.687</vdop><extensions><gom:speed>1.578</gom:speed></extensions></trkpt>
   <trkpt lat="59.0817841116" lon="29.990539283"><ele>99.077</ele><time>2026-04-25T14:42:58.000Z</time><hdop>4.687</hdop><vdop>4.687</vdop><extensions><gom:speed>1.691</gom:speed></extensions></trkpt>
   <trkpt lat="59.0817660486" lon="29.9905315716"><ele>99.035</ele><time>2026-04-25T14:42:59.000Z</time><hdop>4.687</hdop><vdop>4.687</vdop><extensions><gom:speed>1.701</gom:speed></extensions></trkpt>
   <trkpt lat="59.0817442557" lon="29.9905233574"><ele>98.912</ele><time>2026-04-25T14:43:00.000Z</time><hdop>4.687</hdop><vdop>4.687</vdop><extensions><gom:speed>1.709</gom:speed></extensions></trkpt>
   <trkpt lat="59.0817269471" lon="29.9905100301"><ele>98.864</ele><time>2026-04-25T14:43:01.000Z</time><hdop>4.687</hdop><vdop>4.687</vdop><extensions><gom:speed>1.554</gom:speed></extensions></trkpt>
   <trkpt lat="59.081713075" lon="29.9905164842"><ele>98.832</ele><time>2026-04-25T14:43:02.000Z</time><hdop>4.687</hdop><vdop>4.687</vdop><extensions><gom:speed>1.386</gom:speed></extensions></trkpt>
   <trkpt lat="59.0816969399" lon="29.9905109521"><ele>98.763</ele><time>2026-04-25T14:43:03.000Z</time><hdop>4.687</hdop><vdop>4.687</vdop><extensions><gom:speed>1.345</gom:speed></extensions></trkpt>
   <trkpt lat="59.0816781644" lon="29.9905455694"><ele>98.731</ele><time>2026-04-25T14:43:04.000Z</time><hdop>4.687</hdop><vdop>4.687</vdop><extensions><gom:speed>1.455</gom:speed></extensions></trkpt>
   <trkpt lat="59.0816668488" lon="29.9905269616"><ele>98.729</ele><time>2026-04-25T14:43:05.000Z</time><hdop>4.687</hdop><vdop>4.687</vdop><extensions><gom:speed>1.592</gom:speed></extensions></trkpt>
   <trkpt lat="59.0816498336" lon="29.990513802"><ele>98.596</ele><time>2026-04-25T14:43:06.000Z</time><hdop>4.687</hdop><vdop>4.687</vdop><extensions><gom:speed>1.537</gom:speed></extensions></trkpt>
   <trkpt lat="59.0816335308" lon="29.9905155622"><ele>98.489</ele><time>2026-04-25T14:43:07.000Z</time><hdop>4.687</hdop><vdop>4.687</vdop><extensions><gom:speed>1.478</gom:speed></extensions></trkpt>
   <trkpt lat="59.0816335308" lon="29.9905155622"><ele>98.426</ele><time>2026-04-25T14:43:07.000Z</time><hdop>4.687</hdop><vdop>4.687</vdop><extensions><gom:speed>1.478</gom:speed></extensions></trkpt>
   <trkpt lat="59.0816184852" lon="29.9904951103"><ele>98.327</ele><time>2026-04-25T14:43:08.000Z</time><hdop>4.687</hdop><vdop>4.687</vdop><extensions><gom:speed>0.406</gom:speed></extensions></trkpt>
   <trkpt lat="59.0816148391" lon="29.9904848006"><ele>98.261</ele><time>2026-04-25T14:43:09.000Z</time><hdop>4.687</hdop><vdop>4.687</vdop><extensions><gom:speed>1.031</gom:speed></extensions></trkpt>
   <trkpt lat="59.0816189882" lon="29.9904921767"><ele>98.23</ele><time>2026-04-25T14:43:10.000Z</time><hdop>6.125</hdop><vdop>6.125</vdop><extensions><gom:speed>0.315</gom:speed></extensions></trkpt>
   <trkpt lat="59.0816207064" lon="29.9905043304"><ele>98.208</ele><time>2026-04-25T14:43:11.000Z</time><hdop>6.937</hdop><vdop>6.937</vdop><extensions><gom:speed>1.08</gom:speed></extensions></trkpt>
   <trkpt lat="59.0816055771" lon="29.9904970382"><ele>98.217</ele><time>2026-04-25T14:43:12.000Z</time><hdop>6.937</hdop><vdop>6.937</vdop><extensions><gom:speed>1.416</gom:speed></extensions></trkpt>
   <trkpt lat="59.0815851672" lon="29.9904902488"><ele>98.375</ele><time>2026-04-25T14:43:13.000Z</time><hdop>6.75</hdop><vdop>6.75</vdop><extensions><gom:speed>1.448</gom:speed></extensions></trkpt>
   <trkpt lat="59.0815696187" lon="29.9904877343"><ele>98.581</ele><time>2026-04-25T14:43:14.000Z</time><hdop>6.75</hdop><vdop>6.75</vdop><extensions><gom:speed>0.068</gom:speed></extensions></trkpt>
   <trkpt lat="59.0815655116" lon="29.9904879019"><ele>98.786</ele><time>2026-04-25T14:43:15.000Z</time><hdop>5.75</hdop><vdop>5.75</vdop><extensions><gom:speed>0.625</gom:speed></extensions></trkpt>
   <trkpt lat="59.081553274" lon="29.9904649355"><ele>99.13</ele><time>2026-04-25T14:43:16.000Z</time><hdop>4.687</hdop><vdop>4.687</vdop><extensions><gom:speed>1.303</gom:speed></extensions></trkpt>
   <trkpt lat="59.0815188244" lon="29.9904676177"><ele>99.55</ele><time>2026-04-25T14:43:17.000Z</time><hdop>4.687</hdop><vdop>4.687</vdop><extensions><gom:speed>1.352</gom:speed></extensions></trkpt>
   <trkpt lat="59.0815036951" lon="29.9904402927"><ele>99.97</ele><time>2026-04-25T14:43:18.000Z</time><hdop>4.687</hdop><vdop>4.687</vdop><extensions><gom:speed>1.248</gom:speed></extensions></trkpt>
   <trkpt lat="59.0814798067" lon="29.9904370238"><ele>100.294</ele><time>2026-04-25T14:43:19.000Z</time><hdop>4.687</hdop><vdop>4.687</vdop><extensions><gom:speed>1.156</gom:speed></extensions></trkpt>
   <trkpt lat="59.0814592291" lon="29.9904496804"><ele>100.601</ele><time>2026-04-25T14:43:20.000Z</time><hdop>4.687</hdop><vdop>4.687</vdop><extensions><gom:speed>1.555</gom:speed></extensions></trkpt>
   <trkpt lat="59.0814406213" lon="29.9904513568"><ele>100.812</ele><time>2026-04-25T14:43:21.000Z</time><hdop>4.687</hdop><vdop>4.687</vdop><extensions><gom:speed>1.564</gom:speed></extensions></trkpt>
   <trkpt lat="59.0814165652" lon="29.9904469982"><ele>101.022</ele><time>2026-04-25T14:43:22.000Z</time><hdop>4.687</hdop><vdop>4.687</vdop><extensions><gom:speed>1.336</gom:speed></extensions></trkpt>
   <trkpt lat="59.0814006396" lon="29.9904528656"><ele>101.141</ele><time>2026-04-25T14:43:23.000Z</time><hdop>4.687</hdop><vdop>4.687</vdop><extensions><gom:speed>1.397</gom:speed></extensions></trkpt>
   <trkpt lat="59.0813834567" lon="29.990444316"><ele>101.204</ele><time>2026-04-25T14:43:24.000Z</time><hdop>4.687</hdop><vdop>4.687</vdop><extensions><gom:speed>1.518</gom:speed></extensions></trkpt>
   <trkpt lat="59.0813679502" lon="29.9904226069"><ele>101.232</ele><time>2026-04-25T14:43:25.000Z</time><hdop>4.687</hdop><vdop>4.687</vdop><extensions><gom:speed>1.072</gom:speed></extensions></trkpt>
   <trkpt lat="59.0813562574" lon="29.9904250376"><ele>101.19</ele><time>2026-04-25T14:43:26.000Z</time><hdop>4.687</hdop><vdop>4.687</vdop><extensions><gom:speed>1.312</gom:speed></extensions></trkpt>
   <trkpt lat="59.0813505996" lon="29.9904185836"><ele>101.109</ele><time>2026-04-25T14:43:27.000Z</time><hdop>4.687</hdop><vdop>4.687</vdop><extensions><gom:speed>1.167</gom:speed></extensions></trkpt>
   <trkpt lat="59.0813505996" lon="29.9904185836"><ele>101.06</ele><time>2026-04-25T14:43:27.000Z</time><hdop>4.687</hdop><vdop>4.687</vdop><extensions><gom:speed>1.167</gom:speed></extensions></trkpt>
   <trkpt lat="59.0813342968" lon="29.9904020712"><ele>101.093</ele><time>2026-04-25T14:43:28.000Z</time><hdop>4.687</hdop><vdop>4.687</vdop><extensions><gom:speed>1.471</gom:speed></extensions></trkpt>
   <trkpt lat="59.0813171558" lon="29.9904017359"><ele>101.026</ele><time>2026-04-25T14:43:29.000Z</time><hdop>4.687</hdop><vdop>4.687</vdop><extensions><gom:speed>1.482</gom:speed></extensions></trkpt>
   <trkpt lat="59.0812952791" lon="29.9903904204"><ele>100.902</ele><time>2026-04-25T14:43:30.000Z</time><hdop>4.75</hdop><vdop>4.75</vdop><extensions><gom:speed>1.476</gom:speed></extensions></trkpt>
   <trkpt lat="59.0812744919" lon="29.9903792724"><ele>100.738</ele><time>2026-04-25T14:43:31.000Z</time><hdop>4.187</hdop><vdop>4.187</vdop><extensions><gom:speed>1.407</gom:speed></extensions></trkpt>
   <trkpt lat="59.0812576443" lon="29.990378099"><ele>100.553</ele><time>2026-04-25T14:43:32.000Z</time><hdop>4.0</hdop><vdop>4.0</vdop><extensions><gom:speed>1.265</gom:speed></extensions></trkpt>
   <trkpt lat="59.08124482" lon="29.9903576471"><ele>100.402</ele><time>2026-04-25T14:43:33.000Z</time><hdop>3.937</hdop><vdop>3.937</vdop><extensions><gom:speed>1.387</gom:speed></extensions></trkpt>
   <trkpt lat="59.0812285172" lon="29.9903461639"><ele>100.276</ele><time>2026-04-25T14:43:34.000Z</time><hdop>3.75</hdop><vdop>3.75</vdop><extensions><gom:speed>1.375</gom:speed></extensions></trkpt>
   <trkpt lat="59.0812093645" lon="29.990342895"><ele>100.214</ele><time>2026-04-25T14:43:35.000Z</time><hdop>4.0</hdop><vdop>4.0</vdop><extensions><gom:speed>1.012</gom:speed></extensions></trkpt>
   <trkpt lat="59.0811974203" lon="29.990373908"><ele>100.156</ele><time>2026-04-25T14:43:36.000Z</time><hdop>4.187</hdop><vdop>4.187</vdop><extensions><gom:speed>1.215</gom:speed></extensions></trkpt>
   <trkpt lat="59.0811848894" lon="29.9903687112"><ele>100.125</ele><time>2026-04-25T14:43:37.000Z</time><hdop>4.187</hdop><vdop>4.187</vdop><extensions><gom:speed>1.479</gom:speed></extensions></trkpt>
   <trkpt lat="59.0811726937" lon="29.9903393746"><ele>100.092</ele><time>2026-04-25T14:43:38.000Z</time><hdop>4.625</hdop><vdop>4.625</vdop><extensions><gom:speed>1.3</gom:speed></extensions></trkpt>
   <trkpt lat="59.0811603723" lon="29.990321102"><ele>100.248</ele><time>2026-04-25T14:43:39.000Z</time><hdop>4.5</hdop><vdop>4.5</vdop><extensions><gom:speed>1.097</gom:speed></extensions></trkpt>
   <trkpt lat="59.081147548" lon="29.9903283943"><ele>100.305</ele><time>2026-04-25T14:43:40.000Z</time><hdop>4.375</hdop><vdop>4.375</vdop><extensions><gom:speed>1.196</gom:speed></extensions></trkpt>
   <trkpt lat="59.0811343046" lon="29.9902947829"><ele>100.405</ele><time>2026-04-25T14:43:41.000Z</time><hdop>4.375</hdop><vdop>4.375</vdop><extensions><gom:speed>0.899</gom:speed></extensions></trkpt>
   <trkpt lat="59.0811244978" lon="29.9903097865"><ele>100.45</ele><time>2026-04-25T14:43:42.000Z</time><hdop>4.812</hdop><vdop>4.812</vdop><extensions><gom:speed>0.629</gom:speed></extensions></trkpt>
   <trkpt lat="59.0811265094" lon="29.9903082777"><ele>100.466</ele><time>2026-04-25T14:43:43.000Z</time><hdop>4.875</hdop><vdop>4.875</vdop><extensions><gom:speed>0.922</gom:speed></extensions></trkpt>
   <trkpt lat="59.0811229052" lon="29.9902908434"><ele>100.55</ele><time>2026-04-25T14:43:44.000Z</time><hdop>4.687</hdop><vdop>4.687</vdop><extensions><gom:speed>1.152</gom:speed></extensions></trkpt>
   <trkpt lat="59.0811164931" lon="29.9902896699"><ele>100.649</ele><time>2026-04-25T14:43:45.000Z</time><hdop>4.687</hdop><vdop>4.687</vdop><extensions><gom:speed>1.539</gom:speed></extensions></trkpt>
   <trkpt lat="59.0810958736" lon="29.990293777"><ele>100.568</ele><time>2026-04-25T14:43:46.000Z</time><hdop>4.687</hdop><vdop>4.687</vdop><extensions><gom:speed>1.567</gom:speed></extensions></trkpt>
   <trkpt lat="59.0810906349" lon="29.9902851437"><ele>100.367</ele><time>2026-04-25T14:43:47.000Z</time><hdop>4.687</hdop><vdop>4.687</vdop><extensions><gom:speed>1.391</gom:speed></extensions></trkpt>
   <trkpt lat="59.0810906349" lon="29.9902851437"><ele>100.247</ele><time>2026-04-25T14:43:47.000Z</time><hdop>4.687</hdop><vdop>4.687</vdop><extensions><gom:speed>1.391</gom:speed></extensions></trkpt>
   <trkpt lat="59.0810695963" lon="29.9902933579"><ele>100.188</ele><time>2026-04-25T14:43:48.000Z</time><hdop>4.687</hdop><vdop>4.687</vdop><extensions><gom:speed>1.199</gom:speed></extensions></trkpt>
   <trkpt lat="59.081059077" lon="29.9902832997"><ele>100.118</ele><time>2026-04-25T14:43:49.000Z</time><hdop>4.812</hdop><vdop>4.812</vdop><extensions><gom:speed>0.512</gom:speed></extensions></trkpt>
   <trkpt lat="59.0810480548" lon="29.9902848084"><ele>99.827</ele><time>2026-04-25T14:43:50.000Z</time><hdop>4.875</hdop><vdop>4.875</vdop><extensions><gom:speed>0.77</gom:speed></extensions></trkpt>
   <trkpt lat="59.0810360268" lon="29.9902755045"><ele>99.629</ele><time>2026-04-25T14:43:51.000Z</time><hdop>4.875</hdop><vdop>4.875</vdop><extensions><gom:speed>1.127</gom:speed></extensions></trkpt>
   <trkpt lat="59.0810263038" lon="29.9902584892"><ele>99.455</ele><time>2026-04-25T14:43:52.000Z</time><hdop>4.687</hdop><vdop>4.687</vdop><extensions><gom:speed>1.14</gom:speed></extensions></trkpt>
   <trkpt lat="59.0810165808" lon="29.9902371154"><ele>99.208</ele><time>2026-04-25T14:43:53.000Z</time><hdop>4.687</hdop><vdop>4.687</vdop><extensions><gom:speed>0.958</gom:speed></extensions></trkpt>
   <trkpt lat="59.0810008647" lon="29.9902475089"><ele>98.909</ele><time>2026-04-25T14:43:54.000Z</time><hdop>4.687</hdop><vdop>4.687</vdop><extensions><gom:speed>1.19</gom:speed></extensions></trkpt>
   <trkpt lat="59.0810031278" lon="29.9902299069"><ele>98.731</ele><time>2026-04-25T14:43:55.000Z</time><hdop>4.687</hdop><vdop>4.687</vdop><extensions><gom:speed>1.467</gom:speed></extensions></trkpt>
   <trkpt lat="59.0809890462" lon="29.9902163282"><ele>98.628</ele><time>2026-04-25T14:43:56.000Z</time><hdop>4.687</hdop><vdop>4.687</vdop><extensions><gom:speed>1.58</gom:speed></extensions></trkpt>
   <trkpt lat="59.0809754256" lon="29.9902160768"><ele>98.535</ele><time>2026-04-25T14:43:57.000Z</time><hdop>4.875</hdop><vdop>4.875</vdop><extensions><gom:speed>1.662</gom:speed></extensions></trkpt>
   <trkpt lat="59.0809638586" lon="29.9902165797"><ele>98.489</ele><time>2026-04-25T14:43:58.000Z</time><hdop>4.687</hdop><vdop>4.687</vdop><extensions><gom:speed>0.968</gom:speed></extensions></trkpt>
   <trkpt lat="59.0809618889" lon="29.9902221118"><ele>98.409</ele><time>2026-04-25T14:43:59.000Z</time><hdop>4.687</hdop><vdop>4.687</vdop><extensions><gom:speed>0.562</gom:speed></extensions></trkpt>
   <trkpt lat="59.0809477234" lon="29.9902318348"><ele>98.333</ele><time>2026-04-25T14:44:00.000Z</time><hdop>4.687</hdop><vdop>4.687</vdop><extensions><gom:speed>0.977</gom:speed></extensions></trkpt>
   <trkpt lat="59.0809301214" lon="29.9902089522"><ele>98.089</ele><time>2026-04-25T14:44:01.000Z</time><hdop>4.687</hdop><vdop>4.687</vdop><extensions><gom:speed>2.459</gom:speed></extensions></trkpt>
   <trkpt lat="59.0809229968" lon="29.9902035878"><ele>97.909</ele><time>2026-04-25T14:44:02.000Z</time><hdop>4.687</hdop><vdop>4.687</vdop><extensions><gom:speed>0.841</gom:speed></extensions></trkpt>
   <trkpt lat="59.0809089571" lon="29.9901943677"><ele>97.751</ele><time>2026-04-25T14:44:03.000Z</time><hdop>4.687</hdop><vdop>4.687</vdop><extensions><gom:speed>1.082</gom:speed></extensions></trkpt>
   <trkpt lat="59.0808898883" lon="29.9902081978"><ele>97.614</ele><time>2026-04-25T14:44:04.000Z</time><hdop>4.687</hdop><vdop>4.687</vdop><extensions><gom:speed>1.08</gom:speed></extensions></trkpt>
   <trkpt lat="59.0808786146" lon="29.9901885841"><ele>97.561</ele><time>2026-04-25T14:44:05.000Z</time><hdop>4.687</hdop><vdop>4.687</vdop><extensions><gom:speed>1.114</gom:speed></extensions></trkpt>
   <trkpt lat="59.0808749266" lon="29.9901308328"><ele>97.482</ele><time>2026-04-25T14:44:06.000Z</time><hdop>4.687</hdop><vdop>4.687</vdop><extensions><gom:speed>1.374</gom:speed></extensions></trkpt>
   <trkpt lat="59.0808498228" lon="29.9901232891"><ele>97.316</ele><time>2026-04-25T14:44:07.000Z</time><hdop>4.687</hdop><vdop>4.687</vdop><extensions><gom:speed>1.512</gom:speed></extensions></trkpt>
   <trkpt lat="59.0808498228" lon="29.9901232891"><ele>97.218</ele><time>2026-04-25T14:44:07.000Z</time><hdop>4.687</hdop><vdop>4.687</vdop><extensions><gom:speed>1.512</gom:speed></extensions></trkpt>
   <trkpt lat="59.0808323046" lon="29.9901019153"><ele>96.909</ele><time>2026-04-25T14:44:08.000Z</time><hdop>4.687</hdop><vdop>4.687</vdop><extensions><gom:speed>1.415</gom:speed></extensions></trkpt>
   <trkpt lat="59.0808202766" lon="29.9900761828"><ele>96.647</ele><time>2026-04-25T14:44:09.000Z</time><hdop>4.687</hdop><vdop>4.687</vdop><extensions><gom:speed>1.424</gom:speed></extensions></trkpt>
   <trkpt lat="59.0808004115" lon="29.9900931981"><ele>96.44</ele><time>2026-04-25T14:44:10.000Z</time><hdop>4.687</hdop><vdop>4.687</vdop><extensions><gom:speed>1.316</gom:speed></extensions></trkpt>
   <trkpt lat="59.0808027584" lon="29.9900633585"><ele>96.213</ele><time>2026-04-25T14:44:11.000Z</time><hdop>4.687</hdop><vdop>4.687</vdop><extensions><gom:speed>1.136</gom:speed></extensions></trkpt>
   <trkpt lat="59.0807851983" lon="29.9900723271"><ele>95.952</ele><time>2026-04-25T14:44:12.000Z</time><hdop>4.687</hdop><vdop>4.687</vdop><extensions><gom:speed>1.225</gom:speed></extensions></trkpt>
   <trkpt lat="59.0807806721" lon="29.9900564854"><ele>95.857</ele><time>2026-04-25T14:44:13.000Z</time><hdop>4.687</hdop><vdop>4.687</vdop><extensions><gom:speed>1.467</gom:speed></extensions></trkpt>
   <trkpt lat="59.0807678478" lon="29.9900357821"><ele>95.797</ele><time>2026-04-25T14:44:14.000Z</time><hdop>4.687</hdop><vdop>4.687</vdop><extensions><gom:speed>1.706</gom:speed></extensions></trkpt>
   <trkpt lat="59.0807540596" lon="29.9900207784"><ele>95.674</ele><time>2026-04-25T14:44:15.000Z</time><hdop>4.687</hdop><vdop>4.687</vdop><extensions><gom:speed>1.34</gom:speed></extensions></trkpt>
   <trkpt lat="59.0807426183" lon="29.9900041823"><ele>95.633</ele><time>2026-04-25T14:44:16.000Z</time><hdop>4.687</hdop><vdop>4.687</vdop><extensions><gom:speed>1.432</gom:speed></extensions></trkpt>
   <trkpt lat="59.0807263574" lon="29.9900194373"><ele>95.626</ele><time>2026-04-25T14:44:17.000Z</time><hdop>4.687</hdop><vdop>4.687</vdop><extensions><gom:speed>1.059</gom:speed></extensions></trkpt>
   <trkpt lat="59.0807194423" lon="29.9900103849"><ele>95.569</ele><time>2026-04-25T14:44:18.000Z</time><hdop>4.687</hdop><vdop>4.687</vdop><extensions><gom:speed>0.141</gom:speed></extensions></trkpt>
   <trkpt lat="59.0807095936" lon="29.9900250532"><ele>95.476</ele><time>2026-04-25T14:44:19.000Z</time><hdop>4.937</hdop><vdop>4.937</vdop><extensions><gom:speed>0.369</gom:speed></extensions></trkpt>
   <trkpt lat="59.0807017565" lon="29.9900387157"><ele>95.398</ele><time>2026-04-25T14:44:20.000Z</time><hdop>4.687</hdop><vdop>4.687</vdop><extensions><gom:speed>0.531</gom:speed></extensions></trkpt>
   <trkpt lat="59.0806957634" lon="29.9900340219"><ele>95.408</ele><time>2026-04-25T14:44:21.000Z</time><hdop>4.687</hdop><vdop>4.687</vdop><extensions><gom:speed>0.903</gom:speed></extensions></trkpt>
   <trkpt lat="59.0806846993" lon="29.9900545575"><ele>95.498</ele><time>2026-04-25T14:44:22.000Z</time><hdop>4.687</hdop><vdop>4.687</vdop><extensions><gom:speed>1.159</gom:speed></extensions></trkpt>
   <trkpt lat="59.0806741381" lon="29.9900856544"><ele>95.551</ele><time>2026-04-25T14:44:23.000Z</time><hdop>4.687</hdop><vdop>4.687</vdop><extensions><gom:speed>1.237</gom:speed></extensions></trkpt>
   <trkpt lat="59.0806581287" lon="29.9901027535"><ele>95.689</ele><time>2026-04-25T14:44:24.000Z</time><hdop>4.687</hdop><vdop>4.687</vdop><extensions><gom:speed>1.029</gom:speed></extensions></trkpt>
   <trkpt lat="59.0806416582" lon="29.9901200202"><ele>95.835</ele><time>2026-04-25T14:44:25.000Z</time><hdop>4.687</hdop><vdop>4.687</vdop><extensions><gom:speed>0.97</gom:speed></extensions></trkpt>
   <trkpt lat="59.0806290016" lon="29.9901223671"><ele>95.927</ele><time>2026-04-25T14:44:26.000Z</time><hdop>4.687</hdop><vdop>4.687</vdop><extensions><gom:speed>1.113</gom:speed></extensions></trkpt>
   <trkpt lat="59.0806187757" lon="29.990111303"><ele>96.011</ele><time>2026-04-25T14:44:27.000Z</time><hdop>4.687</hdop><vdop>4.687</vdop><extensions><gom:speed>1.535</gom:speed></extensions></trkpt>
   <trkpt lat="59.0806187757" lon="29.990111303"><ele>96.061</ele><time>2026-04-25T14:44:27.000Z</time><hdop>4.687</hdop><vdop>4.687</vdop><extensions><gom:speed>1.535</gom:speed></extensions></trkpt>
   <trkpt lat="59.0806061609" lon="29.9900921923"><ele>96.078</ele><time>2026-04-25T14:44:28.000Z</time><hdop>4.687</hdop><vdop>4.687</vdop><extensions><gom:speed>0.205</gom:speed></extensions></trkpt>
   <trkpt lat="59.0805990782" lon="29.9900942877"><ele>96.15</ele><time>2026-04-25T14:44:29.000Z</time><hdop>4.687</hdop><vdop>4.687</vdop><extensions><gom:speed>0.98</gom:speed></extensions></trkpt>
   <trkpt lat="59.0805848289" lon="29.9900790327"><ele>96.345</ele><time>2026-04-25T14:44:30.000Z</time><hdop>4.687</hdop><vdop>4.687</vdop><extensions><gom:speed>0.641</gom:speed></extensions></trkpt>
   <trkpt lat="59.0805835297" lon="29.9900817149"><ele>96.451</ele><time>2026-04-25T14:44:31.000Z</time><hdop>4.687</hdop><vdop>4.687</vdop><extensions><gom:speed>0.994</gom:speed></extensions></trkpt>
   <trkpt lat="59.0805770757" lon="29.9900873308"><ele>96.507</ele><time>2026-04-25T14:44:32.000Z</time><hdop>4.687</hdop><vdop>4.687</vdop><extensions><gom:speed>0.742</gom:speed></extensions></trkpt>
   <trkpt lat="59.0805627426" lon="29.990081212"><ele>96.485</ele><time>2026-04-25T14:44:33.000Z</time><hdop>4.687</hdop><vdop>4.687</vdop><extensions><gom:speed>1.225</gom:speed></extensions></trkpt>
   <trkpt lat="59.0805469847" lon="29.9900902644"><ele>96.47</ele><time>2026-04-25T14:44:34.000Z</time><hdop>4.687</hdop><vdop>4.687</vdop><extensions><gom:speed>1.152</gom:speed></extensions></trkpt>
   <trkpt lat="59.0805360044" lon="29.9900706508"><ele>96.633</ele><time>2026-04-25T14:44:35.000Z</time><hdop>4.687</hdop><vdop>4.687</vdop><extensions><gom:speed>1.237</gom:speed></extensions></trkpt>
   <trkpt lat="59.0805183185" lon="29.990065454"><ele>96.699</ele><time>2026-04-25T14:44:36.000Z</time><hdop>4.687</hdop><vdop>4.687</vdop><extensions><gom:speed>0.614</gom:speed></extensions></trkpt>
   <trkpt lat="59.0805070449" lon="29.9900596705"><ele>96.768</ele><time>2026-04-25T14:44:37.000Z</time><hdop>4.687</hdop><vdop>4.687</vdop><extensions><gom:speed>1.577</gom:speed></extensions></trkpt>
   <trkpt lat="59.0804996269" lon="29.9900496122"><ele>96.792</ele><time>2026-04-25T14:44:38.000Z</time><hdop>4.687</hdop><vdop>4.687</vdop><extensions><gom:speed>0.467</gom:speed></extensions></trkpt>
   <trkpt lat="59.0804884371" lon="29.9900404759"><ele>96.695</ele><time>2026-04-25T14:44:39.000Z</time><hdop>4.687</hdop><vdop>4.687</vdop><extensions><gom:speed>0.084</gom:speed></extensions></trkpt>
   <trkpt lat="59.080487096" lon="29.9900440801"><ele>96.736</ele><time>2026-04-25T14:44:40.000Z</time><hdop>4.687</hdop><vdop>4.687</vdop><extensions><gom:speed>1.101</gom:speed></extensions></trkpt>
   <trkpt lat="59.0804689072" lon="29.9900264781"><ele>96.71</ele><time>2026-04-25T14:44:41.000Z</time><hdop>4.687</hdop><vdop>4.687</vdop><extensions><gom:speed>1.195</gom:speed></extensions></trkpt>
   <trkpt lat="59.0804502575" lon="29.9900092952"><ele>96.66</ele><time>2026-04-25T14:44:42.000Z</time><hdop>4.687</hdop><vdop>4.687</vdop><extensions><gom:speed>1.131</gom:speed></extensions></trkpt>
   <trkpt lat="59.0804442225" lon="29.9899761867"><ele>96.636</ele><time>2026-04-25T14:44:43.000Z</time><hdop>4.687</hdop><vdop>4.687</vdop><extensions><gom:speed>1.146</gom:speed></extensions></trkpt>
   <trkpt lat="59.0804280874" lon="29.9899907712"><ele>96.856</ele><time>2026-04-25T14:44:44.000Z</time><hdop>4.687</hdop><vdop>4.687</vdop><extensions><gom:speed>1.523</gom:speed></extensions></trkpt>
   <trkpt lat="59.0804118684" lon="29.9900105525"><ele>97.018</ele><time>2026-04-25T14:44:45.000Z</time><hdop>4.687</hdop><vdop>4.687</vdop><extensions><gom:speed>1.165</gom:speed></extensions></trkpt>
   <trkpt lat="59.0803970743" lon="29.9899906036"><ele>97.174</ele><time>2026-04-25T14:44:46.000Z</time><hdop>4.687</hdop><vdop>4.687</vdop><extensions><gom:speed>1.026</gom:speed></extensions></trkpt>
   <trkpt lat="59.0803917518" lon="29.9899791204"><ele>97.408</ele><time>2026-04-25T14:44:47.000Z</time><hdop>4.687</hdop><vdop>4.687</vdop><extensions><gom:speed>0.821</gom:speed></extensions></trkpt>
   <trkpt lat="59.0803917518" lon="29.9899791204"><ele>97.549</ele><time>2026-04-25T14:44:47.000Z</time><hdop>4.687</hdop><vdop>4.687</vdop><extensions><gom:speed>0.821</gom:speed></extensions></trkpt>
   <trkpt lat="59.0803765806" lon="29.9899667152"><ele>97.718</ele><time>2026-04-25T14:44:48.000Z</time><hdop>4.687</hdop><vdop>4.687</vdop><extensions><gom:speed>0.672</gom:speed></extensions></trkpt>
   <trkpt lat="59.0803597748" lon="29.9899479397"><ele>97.66</ele><time>2026-04-25T14:44:49.000Z</time><hdop>4.687</hdop><vdop>4.687</vdop><extensions><gom:speed>2.186</gom:speed></extensions></trkpt>
   <trkpt lat="59.0803404546" lon="29.9899417371"><ele>97.285</ele><time>2026-04-25T14:44:50.000Z</time><hdop>4.687</hdop><vdop>4.687</vdop><extensions><gom:speed>2.118</gom:speed></extensions></trkpt>
   <trkpt lat="59.0803247804" lon="29.989931595"><ele>97.166</ele><time>2026-04-25T14:44:51.000Z</time><hdop>4.687</hdop><vdop>4.687</vdop><extensions><gom:speed>0.452</gom:speed></extensions></trkpt>
   <trkpt lat="59.080310154" lon="29.9899150826"><ele>96.974</ele><time>2026-04-25T14:44:52.000Z</time><hdop>4.687</hdop><vdop>4.687</vdop><extensions><gom:speed>0.205</gom:speed></extensions></trkpt>
   <trkpt lat="59.0802862236" lon="29.989917681"><ele>96.898</ele><time>2026-04-25T14:44:53.000Z</time><hdop>4.687</hdop><vdop>4.687</vdop><extensions><gom:speed>2.946</gom:speed></extensions></trkpt>
   <trkpt lat="59.0802450685" lon="29.9899151665"><ele>96.969</ele><time>2026-04-25T14:44:54.000Z</time><hdop>4.687</hdop><vdop>4.687</vdop><extensions><gom:speed>5.4</gom:speed></extensions></trkpt>
   <trkpt lat="59.080217031" lon="29.9898974806"><ele>96.891</ele><time>2026-04-25T14:44:55.000Z</time><hdop>4.687</hdop><vdop>4.687</vdop><extensions><gom:speed>3.203</gom:speed></extensions></trkpt>
   <trkpt lat="59.0802032847" lon="29.9898742628"><ele>96.918</ele><time>2026-04-25T14:44:56.000Z</time><hdop>4.812</hdop><vdop>4.812</vdop><extensions><gom:speed>1.123</gom:speed></extensions></trkpt>
   <trkpt lat="59.0801766303" lon="29.9898445908"><ele>96.59</ele><time>2026-04-25T14:44:57.000Z</time><hdop>4.125</hdop><vdop>4.125</vdop><extensions><gom:speed>1.445</gom:speed></extensions></trkpt>
   <trkpt lat="59.0801514007" lon="29.9898424115"><ele>96.366</ele><time>2026-04-25T14:44:58.000Z</time><hdop>3.375</hdop><vdop>3.375</vdop><extensions><gom:speed>0.806</gom:speed></extensions></trkpt>
   <trkpt lat="59.0801395822" lon="29.9898308445"><ele>96.269</ele><time>2026-04-25T14:44:59.000Z</time><hdop>3.062</hdop><vdop>3.062</vdop><extensions><gom:speed>0.613</gom:speed></extensions></trkpt>
   <trkpt lat="59.0801356847" lon="29.9898161762"><ele>96.062</ele><time>2026-04-25T14:45:00.000Z</time><hdop>3.187</hdop><vdop>3.187</vdop><extensions><gom:speed>0.96</gom:speed></extensions></trkpt>
   <trkpt lat="59.0801314518" lon="29.9898022622"><ele>95.779</ele><time>2026-04-25T14:45:01.000Z</time><hdop>3.25</hdop><vdop>3.25</vdop><extensions><gom:speed>0.875</gom:speed></extensions></trkpt>
   <trkpt lat="59.0801228604" lon="29.9897886835"><ele>95.477</ele><time>2026-04-25T14:45:02.000Z</time><hdop>3.562</hdop><vdop>3.562</vdop><extensions><gom:speed>1.297</gom:speed></extensions></trkpt>
   <trkpt lat="59.0801199267" lon="29.9897760269"><ele>95.216</ele><time>2026-04-25T14:45:03.000Z</time><hdop>3.562</hdop><vdop>3.562</vdop><extensions><gom:speed>0.406</gom:speed></extensions></trkpt>
   <trkpt lat="59.0801117962" lon="29.989760688"><ele>94.941</ele><time>2026-04-25T14:45:04.000Z</time><hdop>3.375</hdop><vdop>3.375</vdop><extensions><gom:speed>0.953</gom:speed></extensions></trkpt>
   <trkpt lat="59.0801008159" lon="29.9897304293"><ele>94.766</ele><time>2026-04-25T14:45:05.000Z</time><hdop>2.937</hdop><vdop>2.937</vdop><extensions><gom:speed>1.291</gom:speed></extensions></trkpt>
   <trkpt lat="59.0800807413" lon="29.9897400685"><ele>94.69</ele><time>2026-04-25T14:45:06.000Z</time><hdop>3.375</hdop><vdop>3.375</vdop><extensions><gom:speed>0.836</gom:speed></extensions></trkpt>
   <trkpt lat="59.0800824177" lon="29.9897247296"><ele>94.691</ele><time>2026-04-25T14:45:07.000Z</time><hdop>3.187</hdop><vdop>3.187</vdop><extensions><gom:speed>1.14</gom:speed></extensions></trkpt>
   <trkpt lat="59.0800824177" lon="29.9897247296"><ele>94.691</ele><time>2026-04-25T14:45:07.000Z</time><hdop>3.187</hdop><vdop>3.187</vdop><extensions><gom:speed>1.14</gom:speed></extensions></trkpt>
   <trkpt lat="59.0800728204" lon="29.9897195328"><ele>94.742</ele><time>2026-04-25T14:45:08.000Z</time><hdop>3.125</hdop><vdop>3.125</vdop><extensions><gom:speed>1.06</gom:speed></extensions></trkpt>
   <trkpt lat="59.080064648" lon="29.9897193652"><ele>94.907</ele><time>2026-04-25T14:45:09.000Z</time><hdop>3.187</hdop><vdop>3.187</vdop><extensions><gom:speed>0.954</gom:speed></extensions></trkpt>
   <trkpt lat="59.0800544221" lon="29.9897208739"><ele>94.954</ele><time>2026-04-25T14:45:10.000Z</time><hdop>3.312</hdop><vdop>3.312</vdop><extensions><gom:speed>0.888</gom:speed></extensions></trkpt>
   <trkpt lat="59.0800457049" lon="29.9897362128"><ele>95.065</ele><time>2026-04-25T14:45:11.000Z</time><hdop>2.812</hdop><vdop>2.812</vdop><extensions><gom:speed>1.003</gom:speed></extensions></trkpt>
   <trkpt lat="59.0800335093" lon="29.989737973"><ele>95.235</ele><time>2026-04-25T14:45:12.000Z</time><hdop>3.0</hdop><vdop>3.0</vdop><extensions><gom:speed>0.741</gom:speed></extensions></trkpt>
   <trkpt lat="59.0800270133" lon="29.9897580896"><ele>95.391</ele><time>2026-04-25T14:45:13.000Z</time><hdop>3.25</hdop><vdop>3.25</vdop><extensions><gom:speed>0.481</gom:speed></extensions></trkpt>
   <trkpt lat="59.0800208526" lon="29.989767645"><ele>95.493</ele><time>2026-04-25T14:45:14.000Z</time><hdop>3.312</hdop><vdop>3.312</vdop><extensions><gom:speed>0.844</gom:speed></extensions></trkpt>
   <trkpt lat="59.0800130155" lon="29.9897715006"><ele>95.677</ele><time>2026-04-25T14:45:15.000Z</time><hdop>3.375</hdop><vdop>3.375</vdop><extensions><gom:speed>0.68</gom:speed></extensions></trkpt>
   <trkpt lat="59.0800062681" lon="29.9897778709"><ele>95.721</ele><time>2026-04-25T14:45:16.000Z</time><hdop>3.25</hdop><vdop>3.25</vdop><extensions><gom:speed>1.206</gom:speed></extensions></trkpt>
   <trkpt lat="59.0800048012" lon="29.989779212"><ele>95.7</ele><time>2026-04-25T14:45:17.000Z</time><hdop>3.125</hdop><vdop>3.125</vdop><extensions><gom:speed>0.043</gom:speed></extensions></trkpt>
   <trkpt lat="59.079998431" lon="29.9897858337"><ele>94.547</ele><time>2026-04-25T14:45:18.000Z</time><hdop>3.0</hdop><vdop>3.0</vdop><extensions><gom:speed>0.388</gom:speed></extensions></trkpt>
   <trkpt lat="59.0799875764" lon="29.9897959758"><ele>93.858</ele><time>2026-04-25T14:45:19.000Z</time><hdop>3.0</hdop><vdop>3.0</vdop><extensions><gom:speed>0.0</gom:speed></extensions></trkpt>
   <trkpt lat="59.0799774762" lon="29.9898049444"><ele>93.446</ele><time>2026-04-25T14:45:20.000Z</time><hdop>3.0</hdop><vdop>3.0</vdop><extensions><gom:speed>0.0</gom:speed></extensions></trkpt>
   <trkpt lat="59.0799718604" lon="29.9898096383"><ele>93.2</ele><time>2026-04-25T14:45:21.000Z</time><hdop>3.0</hdop><vdop>3.0</vdop><extensions><gom:speed>0.0</gom:speed></extensions></trkpt>
   <trkpt lat="59.0799695973" lon="29.9898103927"><ele>93.053</ele><time>2026-04-25T14:45:22.000Z</time><hdop>3.0</hdop><vdop>3.0</vdop><extensions><gom:speed>0.0</gom:speed></extensions></trkpt>
   <trkpt lat="59.0799695973" lon="29.9898103927"><ele>92.966</ele><time>2026-04-25T14:45:23.000Z</time><hdop>3.0</hdop><vdop>3.0</vdop><extensions><gom:speed>0.0</gom:speed></extensions></trkpt>
   <trkpt lat="59.0799695973" lon="29.9898103927"><ele>92.913</ele><time>2026-04-25T14:45:24.000Z</time><hdop>3.0</hdop><vdop>3.0</vdop><extensions><gom:speed>0.0</gom:speed></extensions></trkpt>
   <trkpt lat="59.0799695973" lon="29.9898103927"><ele>92.882</ele><time>2026-04-25T14:45:25.000Z</time><hdop>3.0</hdop><vdop>3.0</vdop><extensions><gom:speed>0.0</gom:speed></extensions></trkpt>
   <trkpt lat="59.0799695973" lon="29.9898103927"><ele>92.863</ele><time>2026-04-25T14:45:26.000Z</time><hdop>3.0</hdop><vdop>3.0</vdop><extensions><gom:speed>0.0</gom:speed></extensions></trkpt>
   <trkpt lat="59.0799695973" lon="29.9898103927"><ele>92.852</ele><time>2026-04-25T14:45:27.000Z</time><hdop>3.0</hdop><vdop>3.0</vdop><extensions><gom:speed>0.0</gom:speed></extensions></trkpt>
   <trkpt lat="59.0799695973" lon="29.9898103927"><ele>92.845</ele><time>2026-04-25T14:45:27.000Z</time><hdop>3.0</hdop><vdop>3.0</vdop><extensions><gom:speed>0.0</gom:speed></extensions></trkpt>
   <trkpt lat="59.0799695973" lon="29.9898103927"><ele>92.841</ele><time>2026-04-25T14:45:28.000Z</time><hdop>3.0</hdop><vdop>3.0</vdop><extensions><gom:speed>0.0</gom:speed></extensions></trkpt>
   <trkpt lat="59.0799695973" lon="29.9898103927"><ele>92.839</ele><time>2026-04-25T14:45:29.000Z</time><hdop>3.0</hdop><vdop>3.0</vdop><extensions><gom:speed>0.0</gom:speed></extensions></trkpt>
   <trkpt lat="59.0799695973" lon="29.9898103927"><ele>92.837</ele><time>2026-04-25T14:45:30.000Z</time><hdop>3.0</hdop><vdop>3.0</vdop><extensions><gom:speed>0.0</gom:speed></extensions></trkpt>
   <trkpt lat="59.0799695973" lon="29.9898103927"><ele>92.837</ele><time>2026-04-25T14:45:31.000Z</time><hdop>3.0</hdop><vdop>3.0</vdop><extensions><gom:speed>0.0</gom:speed></extensions></trkpt>
   <trkpt lat="59.0799695973" lon="29.9898103927"><ele>92.836</ele><time>2026-04-25T14:45:32.000Z</time><hdop>3.0</hdop><vdop>3.0</vdop><extensions><gom:speed>0.0</gom:speed></extensions></trkpt>
   <trkpt lat="59.0799695973" lon="29.9898103927"><ele>92.836</ele><time>2026-04-25T14:45:33.000Z</time><hdop>3.0</hdop><vdop>3.0</vdop><extensions><gom:speed>0.0</gom:speed></extensions></trkpt>
   <trkpt lat="59.0799695973" lon="29.9898103927"><ele>92.835</ele><time>2026-04-25T14:45:34.000Z</time><hdop>3.0</hdop><vdop>3.0</vdop><extensions><gom:speed>0.0</gom:speed></extensions></trkpt>
   <trkpt lat="59.0799695973" lon="29.9898103927"><ele>92.835</ele><time>2026-04-25T14:45:35.000Z</time><hdop>3.0</hdop><vdop>3.0</vdop><extensions><gom:speed>0.0</gom:speed></extensions></trkpt>
   <trkpt lat="59.0799695973" lon="29.9898103927"><ele>92.835</ele><time>2026-04-25T14:45:36.000Z</time><hdop>3.0</hdop><vdop>3.0</vdop><extensions><gom:speed>0.0</gom:speed></extensions></trkpt>
   <trkpt lat="59.0799695973" lon="29.9898103927"><ele>92.835</ele><time>2026-04-25T14:45:37.000Z</time><hdop>3.0</hdop><vdop>3.0</vdop><extensions><gom:speed>0.0</gom:speed></extensions></trkpt>
   <trkpt lat="59.0799695973" lon="29.9898103927"><ele>92.835</ele><time>2026-04-25T14:45:38.000Z</time><hdop>3.0</hdop><vdop>3.0</vdop><extensions><gom:speed>0.0</gom:speed></extensions></trkpt>
   <trkpt lat="59.0799695973" lon="29.9898103927"><ele>92.835</ele><time>2026-04-25T14:45:39.000Z</time><hdop>3.0</hdop><vdop>3.0</vdop><extensions><gom:speed>0.0</gom:speed></extensions></trkpt>
   <trkpt lat="59.0799695973" lon="29.9898103927"><ele>92.835</ele><time>2026-04-25T14:45:40.000Z</time><hdop>3.0</hdop><vdop>3.0</vdop><extensions><gom:speed>0.0</gom:speed></extensions></trkpt>
   <trkpt lat="59.0799695973" lon="29.9898103927"><ele>92.835</ele><time>2026-04-25T14:45:41.000Z</time><hdop>3.0</hdop><vdop>3.0</vdop><extensions><gom:speed>0.0</gom:speed></extensions></trkpt>
   <trkpt lat="59.0799695973" lon="29.9898103927"><ele>92.835</ele><time>2026-04-25T14:45:42.000Z</time><hdop>3.0</hdop><vdop>3.0</vdop><extensions><gom:speed>0.0</gom:speed></extensions></trkpt>
   <trkpt lat="59.0799695973" lon="29.9898103927"><ele>92.835</ele><time>2026-04-25T14:45:43.000Z</time><hdop>3.0</hdop><vdop>3.0</vdop><extensions><gom:speed>0.0</gom:speed></extensions></trkpt>
   <trkpt lat="59.0799695973" lon="29.9898103927"><ele>92.835</ele><time>2026-04-25T14:45:44.000Z</time><hdop>3.0</hdop><vdop>3.0</vdop><extensions><gom:speed>0.0</gom:speed></extensions></trkpt>
   <trkpt lat="59.0799695973" lon="29.9898103927"><ele>92.835</ele><time>2026-04-25T14:45:45.000Z</time><hdop>3.0</hdop><vdop>3.0</vdop><extensions><gom:speed>0.0</gom:speed></extensions></trkpt>
   <trkpt lat="59.0799695973" lon="29.9898103927"><ele>92.835</ele><time>2026-04-25T14:45:46.000Z</time><hdop>3.0</hdop><vdop>3.0</vdop><extensions><gom:speed>0.0</gom:speed></extensions></trkpt>
   <trkpt lat="59.0799695973" lon="29.9898103927"><ele>92.835</ele><time>2026-04-25T14:45:47.000Z</time><hdop>3.0</hdop><vdop>3.0</vdop><extensions><gom:speed>0.0</gom:speed></extensions></trkpt>
   <trkpt lat="59.0799695973" lon="29.9898103927"><ele>92.835</ele><time>2026-04-25T14:45:47.000Z</time><hdop>3.0</hdop><vdop>3.0</vdop><extensions><gom:speed>0.0</gom:speed></extensions></trkpt>
   <trkpt lat="59.0799695973" lon="29.9898103927"><ele>92.835</ele><time>2026-04-25T14:45:48.000Z</time><hdop>3.0</hdop><vdop>3.0</vdop><extensions><gom:speed>0.0</gom:speed></extensions></trkpt>
   <trkpt lat="59.0799695973" lon="29.9898103927"><ele>92.835</ele><time>2026-04-25T14:45:49.000Z</time><hdop>3.0</hdop><vdop>3.0</vdop><extensions><gom:speed>0.0</gom:speed></extensions></trkpt>
   <trkpt lat="59.0799658673" lon="29.9898177687"><ele>92.745</ele><time>2026-04-25T14:45:50.000Z</time><hdop>3.0</hdop><vdop>3.0</vdop><extensions><gom:speed>0.827</gom:speed></extensions></trkpt>
   <trkpt lat="59.0799625145" lon="29.9898220435"><ele>92.69</ele><time>2026-04-25T14:45:51.000Z</time><hdop>3.125</hdop><vdop>3.125</vdop><extensions><gom:speed>0.194</gom:speed></extensions></trkpt>
   <trkpt lat="59.0799625145" lon="29.9898220435"><ele>92.658</ele><time>2026-04-25T14:45:52.000Z</time><hdop>3.125</hdop><vdop>3.125</vdop><extensions><gom:speed>0.0</gom:speed></extensions></trkpt>
   <trkpt lat="59.0799625145" lon="29.9898220435"><ele>92.638</ele><time>2026-04-25T14:45:53.000Z</time><hdop>3.125</hdop><vdop>3.125</vdop><extensions><gom:speed>0.0</gom:speed></extensions></trkpt>
   <trkpt lat="59.0799625145" lon="29.9898220435"><ele>92.627</ele><time>2026-04-25T14:45:54.000Z</time><hdop>3.125</hdop><vdop>3.125</vdop><extensions><gom:speed>0.0</gom:speed></extensions></trkpt>
   <trkpt lat="59.0799625145" lon="29.9898220435"><ele>92.62</ele><time>2026-04-25T14:45:55.000Z</time><hdop>3.125</hdop><vdop>3.125</vdop><extensions><gom:speed>0.0</gom:speed></extensions></trkpt>
   <trkpt lat="59.0799625145" lon="29.9898220435"><ele>92.616</ele><time>2026-04-25T14:45:56.000Z</time><hdop>3.125</hdop><vdop>3.125</vdop><extensions><gom:speed>0.0</gom:speed></extensions></trkpt>
   <trkpt lat="59.0799625145" lon="29.9898220435"><ele>92.613</ele><time>2026-04-25T14:45:57.000Z</time><hdop>3.125</hdop><vdop>3.125</vdop><extensions><gom:speed>0.0</gom:speed></extensions></trkpt>
   <trkpt lat="59.0799625145" lon="29.9898220435"><ele>92.612</ele><time>2026-04-25T14:45:58.000Z</time><hdop>3.125</hdop><vdop>3.125</vdop><extensions><gom:speed>0.0</gom:speed></extensions></trkpt>
   <trkpt lat="59.0799625145" lon="29.9898220435"><ele>92.611</ele><time>2026-04-25T14:45:59.000Z</time><hdop>3.125</hdop><vdop>3.125</vdop><extensions><gom:speed>0.0</gom:speed></extensions></trkpt>
   <trkpt lat="59.0799625145" lon="29.9898220435"><ele>92.61</ele><time>2026-04-25T14:46:00.000Z</time><hdop>3.125</hdop><vdop>3.125</vdop><extensions><gom:speed>0.0</gom:speed></extensions></trkpt>
   <trkpt lat="59.0799625145" lon="29.9898220435"><ele>92.61</ele><time>2026-04-25T14:46:01.000Z</time><hdop>3.125</hdop><vdop>3.125</vdop><extensions><gom:speed>0.0</gom:speed></extensions></trkpt>
   <trkpt lat="59.0799625145" lon="29.9898220435"><ele>92.61</ele><time>2026-04-25T14:46:02.000Z</time><hdop>3.125</hdop><vdop>3.125</vdop><extensions><gom:speed>0.0</gom:speed></extensions></trkpt>
   <trkpt lat="59.0799625145" lon="29.9898220435"><ele>92.61</ele><time>2026-04-25T14:46:03.000Z</time><hdop>3.125</hdop><vdop>3.125</vdop><extensions><gom:speed>0.0</gom:speed></extensions></trkpt>
   <trkpt lat="59.0799625145" lon="29.9898220435"><ele>92.61</ele><time>2026-04-25T14:46:04.000Z</time><hdop>3.125</hdop><vdop>3.125</vdop><extensions><gom:speed>0.0</gom:speed></extensions></trkpt>
   <trkpt lat="59.0799625145" lon="29.9898220435"><ele>92.61</ele><time>2026-04-25T14:46:05.000Z</time><hdop>3.125</hdop><vdop>3.125</vdop><extensions><gom:speed>0.0</gom:speed></extensions></trkpt>
   <trkpt lat="59.0799625145" lon="29.9898220435"><ele>92.61</ele><time>2026-04-25T14:46:06.000Z</time><hdop>3.125</hdop><vdop>3.125</vdop><extensions><gom:speed>0.0</gom:speed></extensions></trkpt>
   <trkpt lat="59.0799625145" lon="29.9898220435"><ele>92.61</ele><time>2026-04-25T14:46:07.000Z</time><hdop>3.125</hdop><vdop>3.125</vdop><extensions><gom:speed>0.0</gom:speed></extensions></trkpt>
   <trkpt lat="59.0799625145" lon="29.9898220435"><ele>92.61</ele><time>2026-04-25T14:46:08.000Z</time><hdop>3.125</hdop><vdop>3.125</vdop><extensions><gom:speed>0.0</gom:speed></extensions></trkpt>
   <trkpt lat="59.0799625145" lon="29.9898220435"><ele>92.61</ele><time>2026-04-25T14:46:09.000Z</time><hdop>3.125</hdop><vdop>3.125</vdop><extensions><gom:speed>0.0</gom:speed></extensions></trkpt>
   <trkpt lat="59.0799625145" lon="29.9898220435"><ele>92.61</ele><time>2026-04-25T14:46:10.000Z</time><hdop>3.125</hdop><vdop>3.125</vdop><extensions><gom:speed>0.0</gom:speed></extensions></trkpt>
   <trkpt lat="59.0799625145" lon="29.9898220435"><ele>92.61</ele><time>2026-04-25T14:46:11.000Z</time><hdop>3.125</hdop><vdop>3.125</vdop><extensions><gom:speed>0.0</gom:speed></extensions></trkpt>
   <trkpt lat="59.0799625145" lon="29.9898220435"><ele>92.61</ele><time>2026-04-25T14:46:11.000Z</time><hdop>3.125</hdop><vdop>3.125</vdop><extensions><gom:speed>0.0</gom:speed></extensions></trkpt>
   <trkpt lat="59.0799625145" lon="29.9898220435"><ele>92.61</ele><time>2026-04-25T14:46:12.000Z</time><hdop>3.125</hdop><vdop>3.125</vdop><extensions><gom:speed>0.0</gom:speed></extensions></trkpt>
   <trkpt lat="59.0799625145" lon="29.9898220435"><ele>92.61</ele><time>2026-04-25T14:46:13.000Z</time><hdop>3.125</hdop><vdop>3.125</vdop><extensions><gom:speed>0.0</gom:speed></extensions></trkpt>
   <trkpt lat="59.0799625145" lon="29.9898220435"><ele>92.61</ele><time>2026-04-25T14:46:14.000Z</time><hdop>3.125</hdop><vdop>3.125</vdop><extensions><gom:speed>0.0</gom:speed></extensions></trkpt>
   <trkpt lat="59.0799625145" lon="29.9898220435"><ele>92.61</ele><time>2026-04-25T14:46:15.000Z</time><hdop>3.125</hdop><vdop>3.125</vdop><extensions><gom:speed>0.0</gom:speed></extensions></trkpt>
   <trkpt lat="59.0799625145" lon="29.9898220435"><ele>92.61</ele><time>2026-04-25T14:46:16.000Z</time><hdop>3.125</hdop><vdop>3.125</vdop><extensions><gom:speed>0.0</gom:speed></extensions></trkpt>
   <trkpt lat="59.0799625145" lon="29.9898220435"><ele>92.61</ele><time>2026-04-25T14:46:17.000Z</time><hdop>3.125</hdop><vdop>3.125</vdop><extensions><gom:speed>0.0</gom:speed></extensions></trkpt>
   <trkpt lat="59.0799625145" lon="29.9898220435"><ele>92.61</ele><time>2026-04-25T14:46:18.000Z</time><hdop>3.125</hdop><vdop>3.125</vdop><extensions><gom:speed>0.0</gom:speed></extensions></trkpt>
   <trkpt lat="59.0799625145" lon="29.9898220435"><ele>92.61</ele><time>2026-04-25T14:46:19.000Z</time><hdop>3.125</hdop><vdop>3.125</vdop><extensions><gom:speed>0.0</gom:speed></extensions></trkpt>
   <trkpt lat="59.0799625145" lon="29.9898220435"><ele>92.61</ele><time>2026-04-25T14:46:20.000Z</time><hdop>3.125</hdop><vdop>3.125</vdop><extensions><gom:speed>0.0</gom:speed></extensions></trkpt>
   <trkpt lat="59.0799625145" lon="29.9898220435"><ele>92.61</ele><time>2026-04-25T14:46:21.000Z</time><hdop>3.125</hdop><vdop>3.125</vdop><extensions><gom:speed>0.0</gom:speed></extensions></trkpt>
   <trkpt lat="59.0799625145" lon="29.9898220435"><ele>92.61</ele><time>2026-04-25T14:46:22.000Z</time><hdop>3.125</hdop><vdop>3.125</vdop><extensions><gom:speed>0.0</gom:speed></extensions></trkpt>
   <trkpt lat="59.0799625145" lon="29.9898220435"><ele>92.61</ele><time>2026-04-25T14:46:23.000Z</time><hdop>3.125</hdop><vdop>3.125</vdop><extensions><gom:speed>0.0</gom:speed></extensions></trkpt>
   <trkpt lat="59.0799625145" lon="29.9898220435"><ele>92.61</ele><time>2026-04-25T14:46:24.000Z</time><hdop>3.125</hdop><vdop>3.125</vdop><extensions><gom:speed>0.0</gom:speed></extensions></trkpt>
   <trkpt lat="59.0799625145" lon="29.9898220435"><ele>92.61</ele><time>2026-04-25T14:46:25.000Z</time><hdop>3.125</hdop><vdop>3.125</vdop><extensions><gom:speed>0.0</gom:speed></extensions></trkpt>
   <trkpt lat="59.0799625145" lon="29.9898220435"><ele>92.61</ele><time>2026-04-25T14:46:26.000Z</time><hdop>3.125</hdop><vdop>3.125</vdop><extensions><gom:speed>0.0</gom:speed></extensions></trkpt>
   <trkpt lat="59.079961383" lon="29.9898124881"><ele>92.575</ele><time>2026-04-25T14:46:27.000Z</time><hdop>3.062</hdop><vdop>3.062</vdop><extensions><gom:speed>0.734</gom:speed></extensions></trkpt>
   <trkpt lat="59.079961383" lon="29.9898124881"><ele>92.554</ele><time>2026-04-25T14:46:28.000Z</time><hdop>3.062</hdop><vdop>3.062</vdop><extensions><gom:speed>0.0</gom:speed></extensions></trkpt>
   <trkpt lat="59.079961383" lon="29.9898124881"><ele>92.542</ele><time>2026-04-25T14:46:29.000Z</time><hdop>3.062</hdop><vdop>3.062</vdop><extensions><gom:speed>0.0</gom:speed></extensions></trkpt>
   <trkpt lat="59.079961383" lon="29.9898124881"><ele>92.534</ele><time>2026-04-25T14:46:29.000Z</time><hdop>3.062</hdop><vdop>3.062</vdop><extensions><gom:speed>0.0</gom:speed></extensions></trkpt>
   <trkpt lat="59.079961383" lon="29.9898124881"><ele>92.53</ele><time>2026-04-25T14:46:30.000Z</time><hdop>3.062</hdop><vdop>3.062</vdop><extensions><gom:speed>0.0</gom:speed></extensions></trkpt>
   <trkpt lat="59.079961383" lon="29.9898124881"><ele>92.527</ele><time>2026-04-25T14:46:31.000Z</time><hdop>3.062</hdop><vdop>3.062</vdop><extensions><gom:speed>0.0</gom:speed></extensions></trkpt>
   <trkpt lat="59.079961383" lon="29.9898124881"><ele>92.526</ele><time>2026-04-25T14:46:32.000Z</time><hdop>3.062</hdop><vdop>3.062</vdop><extensions><gom:speed>0.0</gom:speed></extensions></trkpt>
   <trkpt lat="59.079961383" lon="29.9898124881"><ele>92.525</ele><time>2026-04-25T14:46:33.000Z</time><hdop>3.062</hdop><vdop>3.062</vdop><extensions><gom:speed>0.0</gom:speed></extensions></trkpt>
   <trkpt lat="59.079961383" lon="29.9898124881"><ele>92.524</ele><time>2026-04-25T14:46:34.000Z</time><hdop>3.062</hdop><vdop>3.062</vdop><extensions><gom:speed>0.0</gom:speed></extensions></trkpt>
   <trkpt lat="59.079961383" lon="29.9898124881"><ele>92.524</ele><time>2026-04-25T14:46:35.000Z</time><hdop>3.062</hdop><vdop>3.062</vdop><extensions><gom:speed>0.0</gom:speed></extensions></trkpt>
   <trkpt lat="59.079961383" lon="29.9898124881"><ele>92.523</ele><time>2026-04-25T14:46:36.000Z</time><hdop>3.062</hdop><vdop>3.062</vdop><extensions><gom:speed>0.0</gom:speed></extensions></trkpt>
   <trkpt lat="59.079961383" lon="29.9898124881"><ele>92.523</ele><time>2026-04-25T14:46:37.000Z</time><hdop>3.062</hdop><vdop>3.062</vdop><extensions><gom:speed>0.0</gom:speed></extensions></trkpt>
   <trkpt lat="59.079961383" lon="29.9898124881"><ele>92.523</ele><time>2026-04-25T14:46:38.000Z</time><hdop>3.062</hdop><vdop>3.062</vdop><extensions><gom:speed>0.0</gom:speed></extensions></trkpt>
   <trkpt lat="59.079961383" lon="29.9898124881"><ele>92.523</ele><time>2026-04-25T14:46:39.000Z</time><hdop>3.062</hdop><vdop>3.062</vdop><extensions><gom:speed>0.0</gom:speed></extensions></trkpt>
   <trkpt lat="59.079961383" lon="29.9898124881"><ele>92.523</ele><time>2026-04-25T14:46:40.000Z</time><hdop>3.062</hdop><vdop>3.062</vdop><extensions><gom:speed>0.0</gom:speed></extensions></trkpt>
   <trkpt lat="59.079961383" lon="29.9898124881"><ele>92.523</ele><time>2026-04-25T14:46:41.000Z</time><hdop>3.062</hdop><vdop>3.062</vdop><extensions><gom:speed>0.0</gom:speed></extensions></trkpt>
   <trkpt lat="59.079961383" lon="29.9898124881"><ele>92.523</ele><time>2026-04-25T14:46:42.000Z</time><hdop>3.062</hdop><vdop>3.062</vdop><extensions><gom:speed>0.0</gom:speed></extensions></trkpt>
   <trkpt lat="59.0799641071" lon="29.9898088001"><ele>92.504</ele><time>2026-04-25T14:46:43.000Z</time><hdop>3.187</hdop><vdop>3.187</vdop><extensions><gom:speed>0.402</gom:speed></extensions></trkpt>
   <trkpt lat="59.079969262" lon="29.9898032681"><ele>92.527</ele><time>2026-04-25T14:46:44.000Z</time><hdop>3.125</hdop><vdop>3.125</vdop><extensions><gom:speed>0.469</gom:speed></extensions></trkpt>
   <trkpt lat="59.0799760513" lon="29.9897998315"><ele>92.588</ele><time>2026-04-25T14:46:45.000Z</time><hdop>3.0</hdop><vdop>3.0</vdop><extensions><gom:speed>0.597</gom:speed></extensions></trkpt>
   <trkpt lat="59.0799819186" lon="29.9897963111"><ele>92.65</ele><time>2026-04-25T14:46:46.000Z</time><hdop>3.0</hdop><vdop>3.0</vdop><extensions><gom:speed>0.713</gom:speed></extensions></trkpt>
   <trkpt lat="59.0799893785" lon="29.9897932098"><ele>92.693</ele><time>2026-04-25T14:46:47.000Z</time><hdop>3.0</hdop><vdop>3.0</vdop><extensions><gom:speed>0.947</gom:speed></extensions></trkpt>
   <trkpt lat="59.0799972994" lon="29.9897915334"><ele>92.744</ele><time>2026-04-25T14:46:48.000Z</time><hdop>3.0</hdop><vdop>3.0</vdop><extensions><gom:speed>0.937</gom:speed></extensions></trkpt>
   <trkpt lat="59.0799972994" lon="29.9897915334"><ele>92.774</ele><time>2026-04-25T14:46:48.000Z</time><hdop>3.0</hdop><vdop>3.0</vdop><extensions><gom:speed>0.937</gom:speed></extensions></trkpt>
   <trkpt lat="59.080005849" lon="29.9897933774"><ele>92.803</ele><time>2026-04-25T14:46:49.000Z</time><hdop>3.0</hdop><vdop>3.0</vdop><extensions><gom:speed>0.886</gom:speed></extensions></trkpt>
   <trkpt lat="59.080012303" lon="29.989795892"><ele>92.808</ele><time>2026-04-25T14:46:50.000Z</time><hdop>3.0</hdop><vdop>3.0</vdop><extensions><gom:speed>0.489</gom:speed></extensions></trkpt>
   <trkpt lat="59.0800146081" lon="29.9897951376"><ele>92.829</ele><time>2026-04-25T14:46:51.000Z</time><hdop>3.312</hdop><vdop>3.312</vdop><extensions><gom:speed>0.182</gom:speed></extensions></trkpt>
   <trkpt lat="59.0800146081" lon="29.9897951376"><ele>92.841</ele><time>2026-04-25T14:46:52.000Z</time><hdop>3.312</hdop><vdop>3.312</vdop><extensions><gom:speed>0.0</gom:speed></extensions></trkpt>
   <trkpt lat="59.0800146081" lon="29.9897951376"><ele>92.848</ele><time>2026-04-25T14:46:53.000Z</time><hdop>3.312</hdop><vdop>3.312</vdop><extensions><gom:speed>0.0</gom:speed></extensions></trkpt>
   <trkpt lat="59.0800146081" lon="29.9897951376"><ele>92.852</ele><time>2026-04-25T14:46:54.000Z</time><hdop>3.312</hdop><vdop>3.312</vdop><extensions><gom:speed>0.0</gom:speed></extensions></trkpt>
   <trkpt lat="59.0800146081" lon="29.9897951376"><ele>92.855</ele><time>2026-04-25T14:46:55.000Z</time><hdop>3.312</hdop><vdop>3.312</vdop><extensions><gom:speed>0.0</gom:speed></extensions></trkpt>
   <trkpt lat="59.0800146081" lon="29.9897951376"><ele>92.856</ele><time>2026-04-25T14:46:56.000Z</time><hdop>3.312</hdop><vdop>3.312</vdop><extensions><gom:speed>0.0</gom:speed></extensions></trkpt>
   <trkpt lat="59.0800146081" lon="29.9897951376"><ele>92.857</ele><time>2026-04-25T14:46:57.000Z</time><hdop>3.312</hdop><vdop>3.312</vdop><extensions><gom:speed>0.0</gom:speed></extensions></trkpt>
   <trkpt lat="59.0800146081" lon="29.9897951376"><ele>92.858</ele><time>2026-04-25T14:46:58.000Z</time><hdop>3.312</hdop><vdop>3.312</vdop><extensions><gom:speed>0.0</gom:speed></extensions></trkpt>
   <trkpt lat="59.0800146081" lon="29.9897951376"><ele>92.858</ele><time>2026-04-25T14:46:59.000Z</time><hdop>3.312</hdop><vdop>3.312</vdop><extensions><gom:speed>0.0</gom:speed></extensions></trkpt>
   <trkpt lat="59.0800146081" lon="29.9897951376"><ele>92.858</ele><time>2026-04-25T14:47:00.000Z</time><hdop>3.312</hdop><vdop>3.312</vdop><extensions><gom:speed>0.0</gom:speed></extensions></trkpt>
   <trkpt lat="59.0800146081" lon="29.9897951376"><ele>92.858</ele><time>2026-04-25T14:47:01.000Z</time><hdop>3.312</hdop><vdop>3.312</vdop><extensions><gom:speed>0.0</gom:speed></extensions></trkpt>
   <trkpt lat="59.0800146081" lon="29.9897951376"><ele>92.858</ele><time>2026-04-25T14:47:02.000Z</time><hdop>3.312</hdop><vdop>3.312</vdop><extensions><gom:speed>0.0</gom:speed></extensions></trkpt>
   <trkpt lat="59.0800146081" lon="29.9897951376"><ele>92.858</ele><time>2026-04-25T14:47:03.000Z</time><hdop>3.312</hdop><vdop>3.312</vdop><extensions><gom:speed>0.0</gom:speed></extensions></trkpt>
   <trkpt lat="59.0800152786" lon="29.9897972331"><ele>92.878</ele><time>2026-04-25T14:47:04.000Z</time><hdop>3.5</hdop><vdop>3.5</vdop><extensions><gom:speed>0.422</gom:speed></extensions></trkpt>
   <trkpt lat="59.0800122192" lon="29.9897955567"><ele>92.863</ele><time>2026-04-25T14:47:05.000Z</time><hdop>3.875</hdop><vdop>3.875</vdop><extensions><gom:speed>0.596</gom:speed></extensions></trkpt>
   <trkpt lat="59.0800122192" lon="29.9897955567"><ele>92.854</ele><time>2026-04-25T14:47:06.000Z</time><hdop>3.875</hdop><vdop>3.875</vdop><extensions><gom:speed>0.0</gom:speed></extensions></trkpt>
   <trkpt lat="59.0800122192" lon="29.9897955567"><ele>92.848</ele><time>2026-04-25T14:47:07.000Z</time><hdop>3.875</hdop><vdop>3.875</vdop><extensions><gom:speed>0.0</gom:speed></extensions></trkpt>
   <trkpt lat="59.0800122192" lon="29.9897955567"><ele>92.845</ele><time>2026-04-25T14:47:07.000Z</time><hdop>3.875</hdop><vdop>3.875</vdop><extensions><gom:speed>0.0</gom:speed></extensions></trkpt>
   <trkpt lat="59.0800093694" lon="29.9897951376"><ele>92.845</ele><time>2026-04-25T14:47:08.000Z</time><hdop>3.687</hdop><vdop>3.687</vdop><extensions><gom:speed>0.629</gom:speed></extensions></trkpt>
   <trkpt lat="59.0800032925" lon="29.989793545"><ele>92.842</ele><time>2026-04-25T14:47:09.000Z</time><hdop>3.375</hdop><vdop>3.375</vdop><extensions><gom:speed>0.677</gom:speed></extensions></trkpt>
   <trkpt lat="59.079996587" lon="29.9897880968"><ele>92.81</ele><time>2026-04-25T14:47:10.000Z</time><hdop>3.062</hdop><vdop>3.062</vdop><extensions><gom:speed>0.479</gom:speed></extensions></trkpt>
   <trkpt lat="59.0799888756" lon="29.9897847441"><ele>92.792</ele><time>2026-04-25T14:47:11.000Z</time><hdop>3.187</hdop><vdop>3.187</vdop><extensions><gom:speed>0.679</gom:speed></extensions></trkpt>
   <trkpt lat="59.0799798232" lon="29.9897712492"><ele>92.72</ele><time>2026-04-25T14:47:12.000Z</time><hdop>3.562</hdop><vdop>3.562</vdop><extensions><gom:speed>1.504</gom:speed></extensions></trkpt>
   <trkpt lat="59.0799717765" lon="29.9897575029"><ele>92.675</ele><time>2026-04-25T14:47:13.000Z</time><hdop>3.437</hdop><vdop>3.437</vdop><extensions><gom:speed>0.602</gom:speed></extensions></trkpt>
   <trkpt lat="59.0799682981" lon="29.989757419"><ele>92.585</ele><time>2026-04-25T14:47:14.000Z</time><hdop>3.375</hdop><vdop>3.375</vdop><extensions><gom:speed>0.299</gom:speed></extensions></trkpt>
   <trkpt lat="59.0799682981" lon="29.989757419"><ele>92.53</ele><time>2026-04-25T14:47:15.000Z</time><hdop>3.375</hdop><vdop>3.375</vdop><extensions><gom:speed>0.0</gom:speed></extensions></trkpt>
   <trkpt lat="59.0799682981" lon="29.989757419"><ele>92.498</ele><time>2026-04-25T14:47:16.000Z</time><hdop>3.375</hdop><vdop>3.375</vdop><extensions><gom:speed>0.0</gom:speed></extensions></trkpt>
   <trkpt lat="59.0799682981" lon="29.989757419"><ele>92.479</ele><time>2026-04-25T14:47:17.000Z</time><hdop>3.375</hdop><vdop>3.375</vdop><extensions><gom:speed>0.0</gom:speed></extensions></trkpt>
   <trkpt lat="59.0799660349" lon="29.9897566647"><ele>92.375</ele><time>2026-04-25T14:47:18.000Z</time><hdop>3.937</hdop><vdop>3.937</vdop><extensions><gom:speed>0.168</gom:speed></extensions></trkpt>
   <trkpt lat="59.0799630175" lon="29.9897544854"><ele>92.34</ele><time>2026-04-25T14:47:19.000Z</time><hdop>3.812</hdop><vdop>3.812</vdop><extensions><gom:speed>0.132</gom:speed></extensions></trkpt>
   <trkpt lat="59.0799612992" lon="29.9897494562"><ele>92.377</ele><time>2026-04-25T14:47:20.000Z</time><hdop>3.625</hdop><vdop>3.625</vdop><extensions><gom:speed>0.27</gom:speed></extensions></trkpt>
   <trkpt lat="59.0799612992" lon="29.9897494562"><ele>92.399</ele><time>2026-04-25T14:47:21.000Z</time><hdop>3.625</hdop><vdop>3.625</vdop><extensions><gom:speed>0.0</gom:speed></extensions></trkpt>
   <trkpt lat="59.0799612992" lon="29.9897494562"><ele>92.413</ele><time>2026-04-25T14:47:22.000Z</time><hdop>3.625</hdop><vdop>3.625</vdop><extensions><gom:speed>0.0</gom:speed></extensions></trkpt>
   <trkpt lat="59.0799612992" lon="29.9897494562"><ele>92.421</ele><time>2026-04-25T14:47:23.000Z</time><hdop>3.625</hdop><vdop>3.625</vdop><extensions><gom:speed>0.0</gom:speed></extensions></trkpt>
   <trkpt lat="59.0799612992" lon="29.9897494562"><ele>92.425</ele><time>2026-04-25T14:47:24.000Z</time><hdop>3.625</hdop><vdop>3.625</vdop><extensions><gom:speed>0.0</gom:speed></extensions></trkpt>
   <trkpt lat="59.0799612992" lon="29.9897494562"><ele>92.428</ele><time>2026-04-25T14:47:25.000Z</time><hdop>3.625</hdop><vdop>3.625</vdop><extensions><gom:speed>0.0</gom:speed></extensions></trkpt>
   <trkpt lat="59.0799612153" lon="29.989750965"><ele>92.418</ele><time>2026-04-25T14:47:26.000Z</time><hdop>3.312</hdop><vdop>3.312</vdop><extensions><gom:speed>0.388</gom:speed></extensions></trkpt>
   <trkpt lat="59.0799622631" lon="29.9897554074"><ele>92.386</ele><time>2026-04-25T14:47:27.000Z</time><hdop>3.687</hdop><vdop>3.687</vdop><extensions><gom:speed>0.565</gom:speed></extensions></trkpt>
   <trkpt lat="59.0799640652" lon="29.9897632026"><ele>92.37</ele><time>2026-04-25T14:47:28.000Z</time><hdop>3.937</hdop><vdop>3.937</vdop><extensions><gom:speed>0.862</gom:speed></extensions></trkpt>
   <trkpt lat="59.0799640652" lon="29.9897632026"><ele>92.361</ele><time>2026-04-25T14:47:28.000Z</time><hdop>3.937</hdop><vdop>3.937</vdop><extensions><gom:speed>0.862</gom:speed></extensions></trkpt>
   <trkpt lat="59.0799659511" lon="29.9897707463"><ele>92.361</ele><time>2026-04-25T14:47:29.000Z</time><hdop>4.062</hdop><vdop>4.062</vdop><extensions><gom:speed>0.471</gom:speed></extensions></trkpt>
   <trkpt lat="59.0799656578" lon="29.9897719197"><ele>92.426</ele><time>2026-04-25T14:47:30.000Z</time><hdop>4.125</hdop><vdop>4.125</vdop><extensions><gom:speed>0.147</gom:speed></extensions></trkpt>
   <trkpt lat="59.0799656578" lon="29.9897719197"><ele>92.465</ele><time>2026-04-25T14:47:31.000Z</time><hdop>4.125</hdop><vdop>4.125</vdop><extensions><gom:speed>0.0</gom:speed></extensions></trkpt>
   <trkpt lat="59.0799645262" lon="29.9897697404"><ele>92.489</ele><time>2026-04-25T14:47:32.000Z</time><hdop>4.0</hdop><vdop>4.0</vdop><extensions><gom:speed>0.129</gom:speed></extensions></trkpt>
   <trkpt lat="59.0799645262" lon="29.9897697404"><ele>92.503</ele><time>2026-04-25T14:47:33.000Z</time><hdop>4.0</hdop><vdop>4.0</vdop><extensions><gom:speed>0.0</gom:speed></extensions></trkpt>
   <trkpt lat="59.0799645262" lon="29.9897697404"><ele>92.512</ele><time>2026-04-25T14:47:34.000Z</time><hdop>4.0</hdop><vdop>4.0</vdop><extensions><gom:speed>0.0</gom:speed></extensions></trkpt>
   <trkpt lat="59.0799645262" lon="29.9897697404"><ele>92.517</ele><time>2026-04-25T14:47:35.000Z</time><hdop>4.0</hdop><vdop>4.0</vdop><extensions><gom:speed>0.0</gom:speed></extensions></trkpt>
   <trkpt lat="59.0799645262" lon="29.9897697404"><ele>92.52</ele><time>2026-04-25T14:47:36.000Z</time><hdop>4.0</hdop><vdop>4.0</vdop><extensions><gom:speed>0.0</gom:speed></extensions></trkpt>
   <trkpt lat="59.0799645262" lon="29.9897697404"><ele>92.522</ele><time>2026-04-25T14:47:37.000Z</time><hdop>4.0</hdop><vdop>4.0</vdop><extensions><gom:speed>0.0</gom:speed></extensions></trkpt>
   <trkpt lat="59.0799645262" lon="29.9897697404"><ele>92.523</ele><time>2026-04-25T14:47:38.000Z</time><hdop>4.0</hdop><vdop>4.0</vdop><extensions><gom:speed>0.0</gom:speed></extensions></trkpt>
   <trkpt lat="59.0799645262" lon="29.9897697404"><ele>92.524</ele><time>2026-04-25T14:47:39.000Z</time><hdop>4.0</hdop><vdop>4.0</vdop><extensions><gom:speed>0.0</gom:speed></extensions></trkpt>
   <trkpt lat="59.0799645262" lon="29.9897697404"><ele>92.524</ele><time>2026-04-25T14:47:40.000Z</time><hdop>4.0</hdop><vdop>4.0</vdop><extensions><gom:speed>0.0</gom:speed></extensions></trkpt>
   <trkpt lat="59.0799645262" lon="29.9897697404"><ele>92.524</ele><time>2026-04-25T14:47:41.000Z</time><hdop>4.0</hdop><vdop>4.0</vdop><extensions><gom:speed>0.0</gom:speed></extensions></trkpt>
   <trkpt lat="59.0799645262" lon="29.9897697404"><ele>92.525</ele><time>2026-04-25T14:47:42.000Z</time><hdop>4.0</hdop><vdop>4.0</vdop><extensions><gom:speed>0.0</gom:speed></extensions></trkpt>
   <trkpt lat="59.0799645262" lon="29.9897697404"><ele>92.525</ele><time>2026-04-25T14:47:43.000Z</time><hdop>4.0</hdop><vdop>4.0</vdop><extensions><gom:speed>0.0</gom:speed></extensions></trkpt>
   <trkpt lat="59.0799645262" lon="29.9897697404"><ele>92.525</ele><time>2026-04-25T14:47:44.000Z</time><hdop>4.0</hdop><vdop>4.0</vdop><extensions><gom:speed>0.0</gom:speed></extensions></trkpt>
   <trkpt lat="59.0799653644" lon="29.9897689023"><ele>92.515</ele><time>2026-04-25T14:47:45.000Z</time><hdop>3.687</hdop><vdop>3.687</vdop><extensions><gom:speed>0.312</gom:speed></extensions></trkpt>
   <trkpt lat="59.0799653644" lon="29.9897689023"><ele>92.51</ele><time>2026-04-25T14:47:46.000Z</time><hdop>3.687</hdop><vdop>3.687</vdop><extensions><gom:speed>0.0</gom:speed></extensions></trkpt>
   <trkpt lat="59.0799653644" lon="29.9897689023"><ele>92.506</ele><time>2026-04-25T14:47:47.000Z</time><hdop>3.687</hdop><vdop>3.687</vdop><extensions><gom:speed>0.0</gom:speed></extensions></trkpt>
   <trkpt lat="59.0799653644" lon="29.9897689023"><ele>92.504</ele><time>2026-04-25T14:47:47.000Z</time><hdop>3.687</hdop><vdop>3.687</vdop><extensions><gom:speed>0.0</gom:speed></extensions></trkpt>
   <trkpt lat="59.0799653644" lon="29.9897689023"><ele>92.503</ele><time>2026-04-25T14:47:48.000Z</time><hdop>3.687</hdop><vdop>3.687</vdop><extensions><gom:speed>0.0</gom:speed></extensions></trkpt>
   <trkpt lat="59.0799653644" lon="29.9897689023"><ele>92.502</ele><time>2026-04-25T14:47:49.000Z</time><hdop>3.687</hdop><vdop>3.687</vdop><extensions><gom:speed>0.0</gom:speed></extensions></trkpt>
   <trkpt lat="59.0799653644" lon="29.9897689023"><ele>92.502</ele><time>2026-04-25T14:47:50.000Z</time><hdop>3.687</hdop><vdop>3.687</vdop><extensions><gom:speed>0.0</gom:speed></extensions></trkpt>
   <trkpt lat="59.0799653644" lon="29.9897689023"><ele>92.502</ele><time>2026-04-25T14:47:51.000Z</time><hdop>3.687</hdop><vdop>3.687</vdop><extensions><gom:speed>0.0</gom:speed></extensions></trkpt>
   <trkpt lat="59.0799653644" lon="29.9897689023"><ele>92.502</ele><time>2026-04-25T14:47:52.000Z</time><hdop>3.687</hdop><vdop>3.687</vdop><extensions><gom:speed>0.0</gom:speed></extensions></trkpt>
   <trkpt lat="59.0799653644" lon="29.9897689023"><ele>92.502</ele><time>2026-04-25T14:47:53.000Z</time><hdop>3.687</hdop><vdop>3.687</vdop><extensions><gom:speed>0.0</gom:speed></extensions></trkpt>
   <trkpt lat="59.0799653644" lon="29.9897689023"><ele>92.501</ele><time>2026-04-25T14:47:54.000Z</time><hdop>3.687</hdop><vdop>3.687</vdop><extensions><gom:speed>0.0</gom:speed></extensions></trkpt>
   <trkpt lat="59.0799653644" lon="29.9897689023"><ele>92.501</ele><time>2026-04-25T14:47:55.000Z</time><hdop>3.687</hdop><vdop>3.687</vdop><extensions><gom:speed>0.0</gom:speed></extensions></trkpt>
   <trkpt lat="59.0799679209" lon="29.989773177"><ele>92.537</ele><time>2026-04-25T14:47:56.000Z</time><hdop>3.625</hdop><vdop>3.625</vdop><extensions><gom:speed>0.684</gom:speed></extensions></trkpt>
   <trkpt lat="59.0799714413" lon="29.989784325"><ele>92.531</ele><time>2026-04-25T14:47:57.000Z</time><hdop>3.5</hdop><vdop>3.5</vdop><extensions><gom:speed>0.642</gom:speed></extensions></trkpt>
   <trkpt lat="59.0799718604" lon="29.9897948023"><ele>92.497</ele><time>2026-04-25T14:47:58.000Z</time><hdop>3.312</hdop><vdop>3.312</vdop><extensions><gom:speed>0.488</gom:speed></extensions></trkpt>
   <trkpt lat="59.0799701002" lon="29.9898012564"><ele>92.466</ele><time>2026-04-25T14:47:59.000Z</time><hdop>3.187</hdop><vdop>3.187</vdop><extensions><gom:speed>0.195</gom:speed></extensions></trkpt>
   <trkpt lat="59.0799701002" lon="29.9898012564"><ele>92.448</ele><time>2026-04-25T14:48:00.000Z</time><hdop>3.187</hdop><vdop>3.187</vdop><extensions><gom:speed>0.0</gom:speed></extensions></trkpt>
   <trkpt lat="59.0799701002" lon="29.9898012564"><ele>92.437</ele><time>2026-04-25T14:48:01.000Z</time><hdop>3.187</hdop><vdop>3.187</vdop><extensions><gom:speed>0.0</gom:speed></extensions></trkpt>
   <trkpt lat="59.0799701002" lon="29.9898012564"><ele>92.43</ele><time>2026-04-25T14:48:02.000Z</time><hdop>3.187</hdop><vdop>3.187</vdop><extensions><gom:speed>0.0</gom:speed></extensions></trkpt>
   <trkpt lat="59.0799701002" lon="29.9898012564"><ele>92.426</ele><time>2026-04-25T14:48:03.000Z</time><hdop>3.187</hdop><vdop>3.187</vdop><extensions><gom:speed>0.0</gom:speed></extensions></trkpt>
   <trkpt lat="59.0799701002" lon="29.9898012564"><ele>92.424</ele><time>2026-04-25T14:48:04.000Z</time><hdop>3.187</hdop><vdop>3.187</vdop><extensions><gom:speed>0.0</gom:speed></extensions></trkpt>
   <trkpt lat="59.0799701002" lon="29.9898012564"><ele>92.423</ele><time>2026-04-25T14:48:05.000Z</time><hdop>3.187</hdop><vdop>3.187</vdop><extensions><gom:speed>0.0</gom:speed></extensions></trkpt>
   <trkpt lat="59.0799701002" lon="29.9898012564"><ele>92.422</ele><time>2026-04-25T14:48:06.000Z</time><hdop>3.187</hdop><vdop>3.187</vdop><extensions><gom:speed>0.0</gom:speed></extensions></trkpt>
   <trkpt lat="59.0799701002" lon="29.9898012564"><ele>92.421</ele><time>2026-04-25T14:48:07.000Z</time><hdop>3.187</hdop><vdop>3.187</vdop><extensions><gom:speed>0.0</gom:speed></extensions></trkpt>
   <trkpt lat="59.0799701002" lon="29.9898012564"><ele>92.421</ele><time>2026-04-25T14:48:07.000Z</time><hdop>3.187</hdop><vdop>3.187</vdop><extensions><gom:speed>0.0</gom:speed></extensions></trkpt>
   <trkpt lat="59.0799701002" lon="29.9898012564"><ele>92.421</ele><time>2026-04-25T14:48:08.000Z</time><hdop>3.187</hdop><vdop>3.187</vdop><extensions><gom:speed>0.0</gom:speed></extensions></trkpt>
   <trkpt lat="59.0799701002" lon="29.9898012564"><ele>92.421</ele><time>2026-04-25T14:48:09.000Z</time><hdop>3.187</hdop><vdop>3.187</vdop><extensions><gom:speed>0.0</gom:speed></extensions></trkpt>
   <trkpt lat="59.0799701002" lon="29.9898012564"><ele>92.421</ele><time>2026-04-25T14:48:10.000Z</time><hdop>3.187</hdop><vdop>3.187</vdop><extensions><gom:speed>0.0</gom:speed></extensions></trkpt>
   <trkpt lat="59.0799701002" lon="29.9898012564"><ele>92.421</ele><time>2026-04-25T14:48:11.000Z</time><hdop>3.187</hdop><vdop>3.187</vdop><extensions><gom:speed>0.0</gom:speed></extensions></trkpt>
   <trkpt lat="59.0799701002" lon="29.9898012564"><ele>92.421</ele><time>2026-04-25T14:48:12.000Z</time><hdop>3.187</hdop><vdop>3.187</vdop><extensions><gom:speed>0.0</gom:speed></extensions></trkpt>
   <trkpt lat="59.0799701002" lon="29.9898012564"><ele>92.421</ele><time>2026-04-25T14:48:13.000Z</time><hdop>3.187</hdop><vdop>3.187</vdop><extensions><gom:speed>0.0</gom:speed></extensions></trkpt>
   <trkpt lat="59.0799701002" lon="29.9898012564"><ele>92.421</ele><time>2026-04-25T14:48:14.000Z</time><hdop>3.187</hdop><vdop>3.187</vdop><extensions><gom:speed>0.0</gom:speed></extensions></trkpt>
   <trkpt lat="59.0799701002" lon="29.9898012564"><ele>92.421</ele><time>2026-04-25T14:48:15.000Z</time><hdop>3.187</hdop><vdop>3.187</vdop><extensions><gom:speed>0.0</gom:speed></extensions></trkpt>
   <trkpt lat="59.079969262" lon="29.9897932098"><ele>92.385</ele><time>2026-04-25T14:48:16.000Z</time><hdop>3.187</hdop><vdop>3.187</vdop><extensions><gom:speed>0.623</gom:speed></extensions></trkpt>
   <trkpt lat="59.0799708126" lon="29.989781056"><ele>92.337</ele><time>2026-04-25T14:48:17.000Z</time><hdop>3.062</hdop><vdop>3.062</vdop><extensions><gom:speed>0.883</gom:speed></extensions></trkpt>
   <trkpt lat="59.0799763447" lon="29.9897690699"><ele>92.323</ele><time>2026-04-25T14:48:18.000Z</time><hdop>3.0</hdop><vdop>3.0</vdop><extensions><gom:speed>0.941</gom:speed></extensions></trkpt>
   <trkpt lat="59.0799831759" lon="29.9897599336"><ele>92.346</ele><time>2026-04-25T14:48:19.000Z</time><hdop>3.0</hdop><vdop>3.0</vdop><extensions><gom:speed>1.045</gom:speed></extensions></trkpt>
   <trkpt lat="59.0799913902" lon="29.9897514679"><ele>92.388</ele><time>2026-04-25T14:48:20.000Z</time><hdop>3.0</hdop><vdop>3.0</vdop><extensions><gom:speed>0.984</gom:speed></extensions></trkpt>
   <trkpt lat="59.0800003169" lon="29.9897435051"><ele>92.452</ele><time>2026-04-25T14:48:21.000Z</time><hdop>3.0</hdop><vdop>3.0</vdop><extensions><gom:speed>0.946</gom:speed></extensions></trkpt>
   <trkpt lat="59.080008154" lon="29.9897347879"><ele>92.443</ele><time>2026-04-25T14:48:22.000Z</time><hdop>3.0</hdop><vdop>3.0</vdop><extensions><gom:speed>0.715</gom:speed></extensions></trkpt>
   <trkpt lat="59.0800171646" lon="29.9897287529"><ele>92.432</ele><time>2026-04-25T14:48:23.000Z</time><hdop>3.0</hdop><vdop>3.0</vdop><extensions><gom:speed>1.226</gom:speed></extensions></trkpt>
   <trkpt lat="59.0800294021" lon="29.9897231371"><ele>92.415</ele><time>2026-04-25T14:48:24.000Z</time><hdop>3.0</hdop><vdop>3.0</vdop><extensions><gom:speed>1.203</gom:speed></extensions></trkpt>
   <trkpt lat="59.0800402148" lon="29.9897149228"><ele>92.435</ele><time>2026-04-25T14:48:25.000Z</time><hdop>3.0</hdop><vdop>3.0</vdop><extensions><gom:speed>1.118</gom:speed></extensions></trkpt>
   <trkpt lat="59.0800463336" lon="29.9897067924"><ele>92.397</ele><time>2026-04-25T14:48:26.000Z</time><hdop>3.0</hdop><vdop>3.0</vdop><extensions><gom:speed>0.423</gom:speed></extensions></trkpt>
   <trkpt lat="59.0800490158" lon="29.989703272"><ele>92.376</ele><time>2026-04-25T14:48:27.000Z</time><hdop>3.0</hdop><vdop>3.0</vdop><extensions><gom:speed>0.265</gom:speed></extensions></trkpt>
   <trkpt lat="59.0800493511" lon="29.9897000868"><ele>92.354</ele><time>2026-04-25T14:48:28.000Z</time><hdop>3.0</hdop><vdop>3.0</vdop><extensions><gom:speed>0.215</gom:speed></extensions></trkpt>
   <trkpt lat="59.0800493511" lon="29.9897000868"><ele>92.341</ele><time>2026-04-25T14:48:28.000Z</time><hdop>3.0</hdop><vdop>3.0</vdop><extensions><gom:speed>0.215</gom:speed></extensions></trkpt>
   <trkpt lat="59.080050315" lon="29.9896938842"><ele>92.282</ele><time>2026-04-25T14:48:29.000Z</time><hdop>3.0</hdop><vdop>3.0</vdop><extensions><gom:speed>0.511</gom:speed></extensions></trkpt>
   <trkpt lat="59.0800524524" lon="29.989682401"><ele>92.196</ele><time>2026-04-25T14:48:30.000Z</time><hdop>3.0</hdop><vdop>3.0</vdop><extensions><gom:speed>0.821</gom:speed></extensions></trkpt>
   <trkpt lat="59.0800583197" lon="29.98966899"><ele>92.162</ele><time>2026-04-25T14:48:31.000Z</time><hdop>3.0</hdop><vdop>3.0</vdop><extensions><gom:speed>1.008</gom:speed></extensions></trkpt>
   <trkpt lat="59.0800659891" lon="29.9896568362"><ele>92.165</ele><time>2026-04-25T14:48:32.000Z</time><hdop>3.0</hdop><vdop>3.0</vdop><extensions><gom:speed>0.941</gom:speed></extensions></trkpt>
   <trkpt lat="59.0800732395" lon="29.9896404077"><ele>92.203</ele><time>2026-04-25T14:48:33.000Z</time><hdop>3.0</hdop><vdop>3.0</vdop><extensions><gom:speed>1.297</gom:speed></extensions></trkpt>
   <trkpt lat="59.0800783105" lon="29.9896218837"><ele>92.219</ele><time>2026-04-25T14:48:34.000Z</time><hdop>3.0</hdop><vdop>3.0</vdop><extensions><gom:speed>0.995</gom:speed></extensions></trkpt>
   <trkpt lat="59.0800774304" lon="29.9896057904"><ele>92.19</ele><time>2026-04-25T14:48:35.000Z</time><hdop>3.0</hdop><vdop>3.0</vdop><extensions><gom:speed>0.687</gom:speed></extensions></trkpt>
   <trkpt lat="59.0800762989" lon="29.9895922117"><ele>92.195</ele><time>2026-04-25T14:48:36.000Z</time><hdop>3.0</hdop><vdop>3.0</vdop><extensions><gom:speed>0.732</gom:speed></extensions></trkpt>
   <trkpt lat="59.0800761731" lon="29.9895799742"><ele>92.202</ele><time>2026-04-25T14:48:37.000Z</time><hdop>3.0</hdop><vdop>3.0</vdop><extensions><gom:speed>0.701</gom:speed></extensions></trkpt>
   <trkpt lat="59.0800698448" lon="29.9895655573"><ele>92.024</ele><time>2026-04-25T14:48:38.000Z</time><hdop>3.0</hdop><vdop>3.0</vdop><extensions><gom:speed>0.965</gom:speed></extensions></trkpt>
   <trkpt lat="59.0800630136" lon="29.989551308"><ele>91.921</ele><time>2026-04-25T14:48:39.000Z</time><hdop>3.0</hdop><vdop>3.0</vdop><extensions><gom:speed>1.007</gom:speed></extensions></trkpt>
   <trkpt lat="59.0800566433" lon="29.9895373103"><ele>91.868</ele><time>2026-04-25T14:48:40.000Z</time><hdop>3.0</hdop><vdop>3.0</vdop><extensions><gom:speed>0.871</gom:speed></extensions></trkpt>
   <trkpt lat="59.0800519914" lon="29.9895248212"><ele>91.834</ele><time>2026-04-25T14:48:41.000Z</time><hdop>3.0</hdop><vdop>3.0</vdop><extensions><gom:speed>0.684</gom:speed></extensions></trkpt>
   <trkpt lat="59.0800495187" lon="29.9895146791"><ele>91.872</ele><time>2026-04-25T14:48:42.000Z</time><hdop>3.0</hdop><vdop>3.0</vdop><extensions><gom:speed>0.37</gom:speed></extensions></trkpt>
   <trkpt lat="59.0800480938" lon="29.9895046208"><ele>91.951</ele><time>2026-04-25T14:48:43.000Z</time><hdop>3.0</hdop><vdop>3.0</vdop><extensions><gom:speed>0.447</gom:speed></extensions></trkpt>
   <trkpt lat="59.0800437771" lon="29.9894917965"><ele>92.047</ele><time>2026-04-25T14:48:44.000Z</time><hdop>3.0</hdop><vdop>3.0</vdop><extensions><gom:speed>0.735</gom:speed></extensions></trkpt>
   <trkpt lat="59.0800381612" lon="29.9894709256"><ele>92.111</ele><time>2026-04-25T14:48:45.000Z</time><hdop>3.0</hdop><vdop>3.0</vdop><extensions><gom:speed>1.283</gom:speed></extensions></trkpt>
   <trkpt lat="59.0800307013" lon="29.9894491326"><ele>93.913</ele><time>2026-04-25T14:48:46.000Z</time><hdop>1.437</hdop><vdop>1.437</vdop><extensions><gom:speed>1.311</gom:speed></extensions></trkpt>
   <trkpt lat="59.0800198049" lon="29.9894259148"><ele>95.074</ele><time>2026-04-25T14:48:47.000Z</time><hdop>1.5</hdop><vdop>1.5</vdop><extensions><gom:speed>1.237</gom:speed></extensions></trkpt>
   <trkpt lat="59.0800198049" lon="29.9894259148"><ele>95.768</ele><time>2026-04-25T14:48:47.000Z</time><hdop>1.5</hdop><vdop>1.5</vdop><extensions><gom:speed>1.237</gom:speed></extensions></trkpt>
   <trkpt lat="59.0800066034" lon="29.9894007691"><ele>96.037</ele><time>2026-04-25T14:48:48.000Z</time><hdop>1.625</hdop><vdop>1.625</vdop><extensions><gom:speed>1.185</gom:speed></extensions></trkpt>
   <trkpt lat="59.0799916836" lon="29.9893767968"><ele>96.11</ele><time>2026-04-25T14:48:49.000Z</time><hdop>1.812</hdop><vdop>1.812</vdop><extensions><gom:speed>1.209</gom:speed></extensions></trkpt>
   <trkpt lat="59.0799925637" lon="29.9893758748"><ele>96.075</ele><time>2026-04-25T14:48:50.000Z</time><hdop>2.187</hdop><vdop>2.187</vdop><extensions><gom:speed>1.237</gom:speed></extensions></trkpt>
   <trkpt lat="59.0799869897" lon="29.9893693369"><ele>96.02</ele><time>2026-04-25T14:48:51.000Z</time><hdop>2.625</hdop><vdop>2.625</vdop><extensions><gom:speed>1.234</gom:speed></extensions></trkpt>
   <trkpt lat="59.0799749198" lon="29.9893633858"><ele>95.888</ele><time>2026-04-25T14:48:52.000Z</time><hdop>3.125</hdop><vdop>3.125</vdop><extensions><gom:speed>1.306</gom:speed></extensions></trkpt>
   <trkpt lat="59.0799633946" lon="29.9893542495"><ele>94.828</ele><time>2026-04-25T14:48:53.000Z</time><hdop>3.0</hdop><vdop>3.0</vdop><extensions><gom:speed>0.807</gom:speed></extensions></trkpt>
   <trkpt lat="59.0799616764" lon="29.9893470411"><ele>95.12</ele><time>2026-04-25T14:48:54.000Z</time><hdop>3.937</hdop><vdop>3.937</vdop><extensions><gom:speed>1.317</gom:speed></extensions></trkpt>
   <trkpt lat="59.0799654063" lon="29.9893408385"><ele>95.118</ele><time>2026-04-25T14:48:55.000Z</time><hdop>3.937</hdop><vdop>3.937</vdop><extensions><gom:speed>0.618</gom:speed></extensions></trkpt>
   <trkpt lat="59.0799706869" lon="29.9893353064"><ele>95.018</ele><time>2026-04-25T14:48:56.000Z</time><hdop>3.75</hdop><vdop>3.75</vdop><extensions><gom:speed>0.272</gom:speed></extensions></trkpt>
   <trkpt lat="59.0799781887" lon="29.9893302773"><ele>94.842</ele><time>2026-04-25T14:48:57.000Z</time><hdop>3.437</hdop><vdop>3.437</vdop><extensions><gom:speed>0.296</gom:speed></extensions></trkpt>
   <trkpt lat="59.0799724052" lon="29.9893367313"><ele>94.696</ele><time>2026-04-25T14:48:58.000Z</time><hdop>3.0</hdop><vdop>3.0</vdop><extensions><gom:speed>0.434</gom:speed></extensions></trkpt>
   <trkpt lat="59.0799643167" lon="29.989340587"><ele>94.545</ele><time>2026-04-25T14:48:59.000Z</time><hdop>2.75</hdop><vdop>2.75</vdop><extensions><gom:speed>0.621</gom:speed></extensions></trkpt>
   <trkpt lat="59.0799536297" lon="29.9893406708"><ele>94.469</ele><time>2026-04-25T14:49:00.000Z</time><hdop>2.875</hdop><vdop>2.875</vdop><extensions><gom:speed>0.839</gom:speed></extensions></trkpt>
   <trkpt lat="59.07993959" lon="29.9893374857"><ele>93.766</ele><time>2026-04-25T14:49:01.000Z</time><hdop>3.0</hdop><vdop>3.0</vdop><extensions><gom:speed>1.326</gom:speed></extensions></trkpt>
   <trkpt lat="59.0799288193" lon="29.989335977"><ele>93.332</ele><time>2026-04-25T14:49:02.000Z</time><hdop>3.0</hdop><vdop>3.0</vdop><extensions><gom:speed>1.085</gom:speed></extensions></trkpt>
   <trkpt lat="59.0799212337" lon="29.9893295229"><ele>93.678</ele><time>2026-04-25T14:49:03.000Z</time><hdop>3.687</hdop><vdop>3.687</vdop><extensions><gom:speed>1.127</gom:speed></extensions></trkpt>
   <trkpt lat="59.0799091637" lon="29.9893324566"><ele>93.261</ele><time>2026-04-25T14:49:04.000Z</time><hdop>3.0</hdop><vdop>3.0</vdop><extensions><gom:speed>1.182</gom:speed></extensions></trkpt>
   <trkpt lat="59.0798975548" lon="29.9893276789"><ele>92.993</ele><time>2026-04-25T14:49:05.000Z</time><hdop>3.0</hdop><vdop>3.0</vdop><extensions><gom:speed>1.304</gom:speed></extensions></trkpt>
   <trkpt lat="59.0798851077" lon="29.9893229012"><ele>92.814</ele><time>2026-04-25T14:49:06.000Z</time><hdop>3.0</hdop><vdop>3.0</vdop><extensions><gom:speed>1.414</gom:speed></extensions></trkpt>
   <trkpt lat="59.0798737502" lon="29.9893210572"><ele>92.689</ele><time>2026-04-25T14:49:07.000Z</time><hdop>3.0</hdop><vdop>3.0</vdop><extensions><gom:speed>1.159</gom:speed></extensions></trkpt>
   <trkpt lat="59.0798737502" lon="29.9893210572"><ele>92.613</ele><time>2026-04-25T14:49:07.000Z</time><hdop>3.0</hdop><vdop>3.0</vdop><extensions><gom:speed>1.159</gom:speed></extensions></trkpt>
   <trkpt lat="59.0798630214" lon="29.989320219"><ele>92.585</ele><time>2026-04-25T14:49:08.000Z</time><hdop>3.0</hdop><vdop>3.0</vdop><extensions><gom:speed>1.295</gom:speed></extensions></trkpt>
   <trkpt lat="59.0798519572" lon="29.9893177044"><ele>92.533</ele><time>2026-04-25T14:49:09.000Z</time><hdop>3.0</hdop><vdop>3.0</vdop><extensions><gom:speed>1.153</gom:speed></extensions></trkpt>
   <trkpt lat="59.0798395939" lon="29.9893149384"><ele>92.36</ele><time>2026-04-25T14:49:10.000Z</time><hdop>3.562</hdop><vdop>3.562</vdop><extensions><gom:speed>1.398</gom:speed></extensions></trkpt>
   <trkpt lat="59.0798263086" lon="29.9893144355"><ele>92.549</ele><time>2026-04-25T14:49:11.000Z</time><hdop>3.5</hdop><vdop>3.5</vdop><extensions><gom:speed>1.422</gom:speed></extensions></trkpt>
   <trkpt lat="59.0798155379" lon="29.9893086519"><ele>93.012</ele><time>2026-04-25T14:49:12.000Z</time><hdop>3.812</hdop><vdop>3.812</vdop><extensions><gom:speed>1.516</gom:speed></extensions></trkpt>
   <trkpt lat="59.079799738" lon="29.9893010244"><ele>93.248</ele><time>2026-04-25T14:49:13.000Z</time><hdop>4.437</hdop><vdop>4.437</vdop><extensions><gom:speed>1.473</gom:speed></extensions></trkpt>
   <trkpt lat="59.0797866622" lon="29.9892909661"><ele>93.46</ele><time>2026-04-25T14:49:14.000Z</time><hdop>4.75</hdop><vdop>4.75</vdop><extensions><gom:speed>1.419</gom:speed></extensions></trkpt>
   <trkpt lat="59.0797724549" lon="29.9892944865"><ele>93.549</ele><time>2026-04-25T14:49:15.000Z</time><hdop>4.687</hdop><vdop>4.687</vdop><extensions><gom:speed>1.457</gom:speed></extensions></trkpt>
   <trkpt lat="59.0797726225" lon="29.98929566"><ele>93.36</ele><time>2026-04-25T14:49:16.000Z</time><hdop>3.0</hdop><vdop>3.0</vdop><extensions><gom:speed>1.641</gom:speed></extensions></trkpt>
   <trkpt lat="59.0797660008" lon="29.9892959115"><ele>93.185</ele><time>2026-04-25T14:49:17.000Z</time><hdop>3.0</hdop><vdop>3.0</vdop><extensions><gom:speed>1.561</gom:speed></extensions></trkpt>
   <trkpt lat="59.0797512487" lon="29.9892948218"><ele>93.025</ele><time>2026-04-25T14:49:18.000Z</time><hdop>3.0</hdop><vdop>3.0</vdop><extensions><gom:speed>1.456</gom:speed></extensions></trkpt>
   <trkpt lat="59.0797341496" lon="29.9892882839"><ele>92.917</ele><time>2026-04-25T14:49:19.000Z</time><hdop>3.0</hdop><vdop>3.0</vdop><extensions><gom:speed>1.283</gom:speed></extensions></trkpt>
   <trkpt lat="59.0797179725" lon="29.9892760463"><ele>92.89</ele><time>2026-04-25T14:49:20.000Z</time><hdop>3.0</hdop><vdop>3.0</vdop><extensions><gom:speed>1.36</gom:speed></extensions></trkpt>
   <trkpt lat="59.0797051063" lon="29.9892682512"><ele>92.893</ele><time>2026-04-25T14:49:21.000Z</time><hdop>3.0</hdop><vdop>3.0</vdop><extensions><gom:speed>1.567</gom:speed></extensions></trkpt>
   <trkpt lat="59.0796923658" lon="29.9892610427"><ele>92.934</ele><time>2026-04-25T14:49:22.000Z</time><hdop>3.0</hdop><vdop>3.0</vdop><extensions><gom:speed>1.441</gom:speed></extensions></trkpt>
   <trkpt lat="59.079680254" lon="29.9892543372"><ele>93.045</ele><time>2026-04-25T14:49:23.000Z</time><hdop>3.0</hdop><vdop>3.0</vdop><extensions><gom:speed>1.463</gom:speed></extensions></trkpt>
   <trkpt lat="59.0796683936" lon="29.9892471288"><ele>93.124</ele><time>2026-04-25T14:49:24.000Z</time><hdop>3.0</hdop><vdop>3.0</vdop><extensions><gom:speed>1.35</gom:speed></extensions></trkpt>
   <trkpt lat="59.0796585867" lon="29.9892397527"><ele>93.216</ele><time>2026-04-25T14:49:25.000Z</time><hdop>3.0</hdop><vdop>3.0</vdop><extensions><gom:speed>1.209</gom:speed></extensions></trkpt>
   <trkpt lat="59.0796469359" lon="29.9892322928"><ele>93.307</ele><time>2026-04-25T14:49:26.000Z</time><hdop>3.0</hdop><vdop>3.0</vdop><extensions><gom:speed>1.568</gom:speed></extensions></trkpt>
   <trkpt lat="59.0796339439" lon="29.9892231565"><ele>93.377</ele><time>2026-04-25T14:49:27.000Z</time><hdop>3.0</hdop><vdop>3.0</vdop><extensions><gom:speed>1.594</gom:speed></extensions></trkpt>
   <trkpt lat="59.0796339439" lon="29.9892231565"><ele>93.419</ele><time>2026-04-25T14:49:27.000Z</time><hdop>3.0</hdop><vdop>3.0</vdop><extensions><gom:speed>1.594</gom:speed></extensions></trkpt>
   <trkpt lat="59.0796204491" lon="29.9892141879"><ele>93.473</ele><time>2026-04-25T14:49:28.000Z</time><hdop>3.0</hdop><vdop>3.0</vdop><extensions><gom:speed>1.431</gom:speed></extensions></trkpt>
   <trkpt lat="59.0796078343" lon="29.9892069795"><ele>93.507</ele><time>2026-04-25T14:49:29.000Z</time><hdop>3.0</hdop><vdop>3.0</vdop><extensions><gom:speed>1.286</gom:speed></extensions></trkpt>
   <trkpt lat="59.0795960158" lon="29.9892004416"><ele>93.572</ele><time>2026-04-25T14:49:30.000Z</time><hdop>3.0</hdop><vdop>3.0</vdop><extensions><gom:speed>1.321</gom:speed></extensions></trkpt>
   <trkpt lat="59.0795853289" lon="29.9891944904"><ele>93.608</ele><time>2026-04-25T14:49:31.000Z</time><hdop>3.0</hdop><vdop>3.0</vdop><extensions><gom:speed>1.13</gom:speed></extensions></trkpt>
   <trkpt lat="59.0795754383" lon="29.9891902995"><ele>93.641</ele><time>2026-04-25T14:49:32.000Z</time><hdop>3.0</hdop><vdop>3.0</vdop><extensions><gom:speed>1.092</gom:speed></extensions></trkpt>
   <trkpt lat="59.0795651285" lon="29.9891801574"><ele>93.654</ele><time>2026-04-25T14:49:33.000Z</time><hdop>3.0</hdop><vdop>3.0</vdop><extensions><gom:speed>1.548</gom:speed></extensions></trkpt>
   <trkpt lat="59.0795541482" lon="29.9891652376"><ele>93.699</ele><time>2026-04-25T14:49:34.000Z</time><hdop>3.0</hdop><vdop>3.0</vdop><extensions><gom:speed>1.555</gom:speed></extensions></trkpt>
   <trkpt lat="59.0795441738" lon="29.9891507369"><ele>93.782</ele><time>2026-04-25T14:49:35.000Z</time><hdop>3.0</hdop><vdop>3.0</vdop><extensions><gom:speed>1.375</gom:speed></extensions></trkpt>
   <trkpt lat="59.0795345346" lon="29.9891364877"><ele>93.878</ele><time>2026-04-25T14:49:36.000Z</time><hdop>3.0</hdop><vdop>3.0</vdop><extensions><gom:speed>1.35</gom:speed></extensions></trkpt>
   <trkpt lat="59.0795241829" lon="29.9891251721"><ele>94.041</ele><time>2026-04-25T14:49:37.000Z</time><hdop>3.0</hdop><vdop>3.0</vdop><extensions><gom:speed>1.433</gom:speed></extensions></trkpt>
   <trkpt lat="59.0795129512" lon="29.9891167064"><ele>94.162</ele><time>2026-04-25T14:49:38.000Z</time><hdop>3.0</hdop><vdop>3.0</vdop><extensions><gom:speed>1.294</gom:speed></extensions></trkpt>
   <trkpt lat="59.0795022223" lon="29.9891110067"><ele>94.306</ele><time>2026-04-25T14:49:39.000Z</time><hdop>3.0</hdop><vdop>3.0</vdop><extensions><gom:speed>1.327</gom:speed></extensions></trkpt>
   <trkpt lat="59.0794918288" lon="29.9891042173"><ele>94.405</ele><time>2026-04-25T14:49:40.000Z</time><hdop>3.0</hdop><vdop>3.0</vdop><extensions><gom:speed>1.284</gom:speed></extensions></trkpt>
   <trkpt lat="59.0794817286" lon="29.9890969251"><ele>94.433</ele><time>2026-04-25T14:49:41.000Z</time><hdop>3.0</hdop><vdop>3.0</vdop><extensions><gom:speed>1.357</gom:speed></extensions></trkpt>
   <trkpt lat="59.0794686109" lon="29.9890916445"><ele>94.388</ele><time>2026-04-25T14:49:42.000Z</time><hdop>3.0</hdop><vdop>3.0</vdop><extensions><gom:speed>1.619</gom:speed></extensions></trkpt>
   <trkpt lat="59.0794546131" lon="29.9890838493"><ele>94.393</ele><time>2026-04-25T14:49:43.000Z</time><hdop>3.0</hdop><vdop>3.0</vdop><extensions><gom:speed>1.747</gom:speed></extensions></trkpt>
   <trkpt lat="59.0794404477" lon="29.9890743778"><ele>94.365</ele><time>2026-04-25T14:49:44.000Z</time><hdop>3.0</hdop><vdop>3.0</vdop><extensions><gom:speed>1.606</gom:speed></extensions></trkpt>
   <trkpt lat="59.0794290902" lon="29.9890637327"><ele>94.37</ele><time>2026-04-25T14:49:45.000Z</time><hdop>3.0</hdop><vdop>3.0</vdop><extensions><gom:speed>1.43</gom:speed></extensions></trkpt>
   <trkpt lat="59.0794179004" lon="29.9890533392"><ele>94.377</ele><time>2026-04-25T14:49:46.000Z</time><hdop>3.0</hdop><vdop>3.0</vdop><extensions><gom:speed>1.369</gom:speed></extensions></trkpt>
   <trkpt lat="59.0794072135" lon="29.9890437"><ele>94.444</ele><time>2026-04-25T14:49:47.000Z</time><hdop>3.0</hdop><vdop>3.0</vdop><extensions><gom:speed>1.412</gom:speed></extensions></trkpt>
   <trkpt lat="59.079394934" lon="29.9890353181"><ele>94.481</ele><time>2026-04-25T14:49:48.000Z</time><hdop>3.0</hdop><vdop>3.0</vdop><extensions><gom:speed>1.398</gom:speed></extensions></trkpt>
   <trkpt lat="59.079394934" lon="29.9890353181"><ele>94.503</ele><time>2026-04-25T14:49:48.000Z</time><hdop>3.0</hdop><vdop>3.0</vdop><extensions><gom:speed>1.398</gom:speed></extensions></trkpt>
   <trkpt lat="59.0793830736" lon="29.9890272715"><ele>94.531</ele><time>2026-04-25T14:49:49.000Z</time><hdop>3.0</hdop><vdop>3.0</vdop><extensions><gom:speed>1.498</gom:speed></extensions></trkpt>
   <trkpt lat="59.0793692434" lon="29.9890183028"><ele>94.56</ele><time>2026-04-25T14:49:50.000Z</time><hdop>3.0</hdop><vdop>3.0</vdop><extensions><gom:speed>1.722</gom:speed></extensions></trkpt>
   <trkpt lat="59.079355539" lon="29.9890090827"><ele>94.588</ele><time>2026-04-25T14:49:51.000Z</time><hdop>3.0</hdop><vdop>3.0</vdop><extensions><gom:speed>1.386</gom:speed></extensions></trkpt>
   <trkpt lat="59.0793430919" lon="29.9890030478"><ele>94.59</ele><time>2026-04-25T14:49:52.000Z</time><hdop>3.0</hdop><vdop>3.0</vdop><extensions><gom:speed>1.37</gom:speed></extensions></trkpt>
   <trkpt lat="59.0793302676" lon="29.9889970128"><ele>94.575</ele><time>2026-04-25T14:49:53.000Z</time><hdop>3.0</hdop><vdop>3.0</vdop><extensions><gom:speed>1.443</gom:speed></extensions></trkpt>
   <trkpt lat="59.0793171918" lon="29.9889897205"><ele>94.575</ele><time>2026-04-25T14:49:54.000Z</time><hdop>3.0</hdop><vdop>3.0</vdop><extensions><gom:speed>1.561</gom:speed></extensions></trkpt>
   <trkpt lat="59.0793043675" lon="29.9889825121"><ele>94.597</ele><time>2026-04-25T14:49:55.000Z</time><hdop>3.0</hdop><vdop>3.0</vdop><extensions><gom:speed>1.34</gom:speed></extensions></trkpt>
   <trkpt lat="59.0792929681" lon="29.9889727891"><ele>94.628</ele><time>2026-04-25T14:49:56.000Z</time><hdop>3.0</hdop><vdop>3.0</vdop><extensions><gom:speed>1.35</gom:speed></extensions></trkpt>
   <trkpt lat="59.0792810658" lon="29.9889607191"><ele>94.609</ele><time>2026-04-25T14:49:57.000Z</time><hdop>3.0</hdop><vdop>3.0</vdop><extensions><gom:speed>1.317</gom:speed></extensions></trkpt>
   <trkpt lat="59.0792689959" lon="29.9889522534"><ele>94.557</ele><time>2026-04-25T14:49:58.000Z</time><hdop>3.0</hdop><vdop>3.0</vdop><extensions><gom:speed>1.238</gom:speed></extensions></trkpt>
   <trkpt lat="59.0792573869" lon="29.9889454641"><ele>94.478</ele><time>2026-04-25T14:49:59.000Z</time><hdop>3.0</hdop><vdop>3.0</vdop><extensions><gom:speed>1.353</gom:speed></extensions></trkpt>
   <trkpt lat="59.0792461552" lon="29.9889391777"><ele>94.399</ele><time>2026-04-25T14:50:00.000Z</time><hdop>3.0</hdop><vdop>3.0</vdop><extensions><gom:speed>1.33</gom:speed></extensions></trkpt>
   <trkpt lat="59.0792347977" lon="29.9889342323"><ele>94.348</ele><time>2026-04-25T14:50:01.000Z</time><hdop>3.0</hdop><vdop>3.0</vdop><extensions><gom:speed>1.345</gom:speed></extensions></trkpt>
   <trkpt lat="59.0792229373" lon="29.9889304605"><ele>94.325</ele><time>2026-04-25T14:50:02.000Z</time><hdop>3.0</hdop><vdop>3.0</vdop><extensions><gom:speed>1.449</gom:speed></extensions></trkpt>
   <trkpt lat="59.0792109093" lon="29.9889276106"><ele>94.333</ele><time>2026-04-25T14:50:03.000Z</time><hdop>3.0</hdop><vdop>3.0</vdop><extensions><gom:speed>1.435</gom:speed></extensions></trkpt>
   <trkpt lat="59.0791992165" lon="29.9889235035"><ele>94.39</ele><time>2026-04-25T14:50:04.000Z</time><hdop>3.0</hdop><vdop>3.0</vdop><extensions><gom:speed>1.324</gom:speed></extensions></trkpt>
   <trkpt lat="59.0791877333" lon="29.9889164627"><ele>94.429</ele><time>2026-04-25T14:50:05.000Z</time><hdop>3.0</hdop><vdop>3.0</vdop><extensions><gom:speed>1.418</gom:speed></extensions></trkpt>
   <trkpt lat="59.0791761244" lon="29.9889082484"><ele>94.531</ele><time>2026-04-25T14:50:06.000Z</time><hdop>3.0</hdop><vdop>3.0</vdop><extensions><gom:speed>1.37</gom:speed></extensions></trkpt>
   <trkpt lat="59.0791643897" lon="29.9889012915"><ele>94.543</ele><time>2026-04-25T14:50:07.000Z</time><hdop>3.0</hdop><vdop>3.0</vdop><extensions><gom:speed>1.28</gom:speed></extensions></trkpt>
   <trkpt lat="59.0791643897" lon="29.9889012915"><ele>94.55</ele><time>2026-04-25T14:50:07.000Z</time><hdop>3.0</hdop><vdop>3.0</vdop><extensions><gom:speed>1.28</gom:speed></extensions></trkpt>
   <trkpt lat="59.0791530742" lon="29.9888955079"><ele>94.45</ele><time>2026-04-25T14:50:08.000Z</time><hdop>3.0</hdop><vdop>3.0</vdop><extensions><gom:speed>1.199</gom:speed></extensions></trkpt>
   <trkpt lat="59.079143435" lon="29.9888893053"><ele>94.383</ele><time>2026-04-25T14:50:09.000Z</time><hdop>3.0</hdop><vdop>3.0</vdop><extensions><gom:speed>1.118</gom:speed></extensions></trkpt>
   <trkpt lat="59.0791324128" lon="29.9888862878"><ele>94.327</ele><time>2026-04-25T14:50:10.000Z</time><hdop>3.0</hdop><vdop>3.0</vdop><extensions><gom:speed>1.373</gom:speed></extensions></trkpt>
   <trkpt lat="59.0791205943" lon="29.9888854497"><ele>94.268</ele><time>2026-04-25T14:50:11.000Z</time><hdop>3.0</hdop><vdop>3.0</vdop><extensions><gom:speed>1.255</gom:speed></extensions></trkpt>
   <trkpt lat="59.0791081052" lon="29.9888841924"><ele>94.201</ele><time>2026-04-25T14:50:12.000Z</time><hdop>3.0</hdop><vdop>3.0</vdop><extensions><gom:speed>1.284</gom:speed></extensions></trkpt>
   <trkpt lat="59.079096161" lon="29.9888826836"><ele>94.187</ele><time>2026-04-25T14:50:13.000Z</time><hdop>3.0</hdop><vdop>3.0</vdop><extensions><gom:speed>1.386</gom:speed></extensions></trkpt>
   <trkpt lat="59.0790837139" lon="29.9888782412"><ele>94.176</ele><time>2026-04-25T14:50:14.000Z</time><hdop>3.0</hdop><vdop>3.0</vdop><extensions><gom:speed>1.419</gom:speed></extensions></trkpt>
   <trkpt lat="59.0790701771" lon="29.9888729606"><ele>94.203</ele><time>2026-04-25T14:50:15.000Z</time><hdop>3.0</hdop><vdop>3.0</vdop><extensions><gom:speed>1.633</gom:speed></extensions></trkpt>
   <trkpt lat="59.0790568918" lon="29.988869524"><ele>94.251</ele><time>2026-04-25T14:50:16.000Z</time><hdop>3.0</hdop><vdop>3.0</vdop><extensions><gom:speed>1.349</gom:speed></extensions></trkpt>
   <trkpt lat="59.0790449057" lon="29.9888660875"><ele>94.234</ele><time>2026-04-25T14:50:17.000Z</time><hdop>3.0</hdop><vdop>3.0</vdop><extensions><gom:speed>1.352</gom:speed></extensions></trkpt>
   <trkpt lat="59.0790322071" lon="29.9888627347"><ele>94.227</ele><time>2026-04-25T14:50:18.000Z</time><hdop>3.0</hdop><vdop>3.0</vdop><extensions><gom:speed>1.4</gom:speed></extensions></trkpt>
   <trkpt lat="59.0790181255" lon="29.9888613098"><ele>94.182</ele><time>2026-04-25T14:50:19.000Z</time><hdop>3.0</hdop><vdop>3.0</vdop><extensions><gom:speed>1.435</gom:speed></extensions></trkpt>
   <trkpt lat="59.0790034991" lon="29.9888590467"><ele>94.159</ele><time>2026-04-25T14:50:20.000Z</time><hdop>3.0</hdop><vdop>3.0</vdop><extensions><gom:speed>1.579</gom:speed></extensions></trkpt>
   <trkpt lat="59.078990088" lon="29.9888546881"><ele>94.109</ele><time>2026-04-25T14:50:21.000Z</time><hdop>3.0</hdop><vdop>3.0</vdop><extensions><gom:speed>1.432</gom:speed></extensions></trkpt>
   <trkpt lat="59.0789770542" lon="29.9888495751"><ele>94.031</ele><time>2026-04-25T14:50:22.000Z</time><hdop>3.0</hdop><vdop>3.0</vdop><extensions><gom:speed>1.479</gom:speed></extensions></trkpt>
   <trkpt lat="59.0789635593" lon="29.98884639"><ele>93.897</ele><time>2026-04-25T14:50:23.000Z</time><hdop>3.0</hdop><vdop>3.0</vdop><extensions><gom:speed>1.488</gom:speed></extensions></trkpt>
   <trkpt lat="59.0789499806" lon="29.9888428696"><ele>93.761</ele><time>2026-04-25T14:50:24.000Z</time><hdop>3.0</hdop><vdop>3.0</vdop><extensions><gom:speed>1.468</gom:speed></extensions></trkpt>
   <trkpt lat="59.0789373659" lon="29.9888370023"><ele>93.67</ele><time>2026-04-25T14:50:25.000Z</time><hdop>3.0</hdop><vdop>3.0</vdop><extensions><gom:speed>1.419</gom:speed></extensions></trkpt>
   <trkpt lat="59.078924793" lon="29.9888292909"><ele>93.567</ele><time>2026-04-25T14:50:26.000Z</time><hdop>3.0</hdop><vdop>3.0</vdop><extensions><gom:speed>1.436</gom:speed></extensions></trkpt>
   <trkpt lat="59.0789122202" lon="29.9888228368"><ele>93.493</ele><time>2026-04-25T14:50:27.000Z</time><hdop>3.0</hdop><vdop>3.0</vdop><extensions><gom:speed>1.31</gom:speed></extensions></trkpt>
   <trkpt lat="59.0789018685" lon="29.9888177239"><ele>93.47</ele><time>2026-04-25T14:50:28.000Z</time><hdop>3.0</hdop><vdop>3.0</vdop><extensions><gom:speed>1.083</gom:speed></extensions></trkpt>
   <trkpt lat="59.0789018685" lon="29.9888177239"><ele>93.456</ele><time>2026-04-25T14:50:28.000Z</time><hdop>3.0</hdop><vdop>3.0</vdop><extensions><gom:speed>1.083</gom:speed></extensions></trkpt>
   <trkpt lat="59.0788913492" lon="29.9888204899"><ele>93.446</ele><time>2026-04-25T14:50:29.000Z</time><hdop>3.0</hdop><vdop>3.0</vdop><extensions><gom:speed>1.21</gom:speed></extensions></trkpt>
   <trkpt lat="59.0788799917" lon="29.9888219987"><ele>93.399</ele><time>2026-04-25T14:50:30.000Z</time><hdop>3.0</hdop><vdop>3.0</vdop><extensions><gom:speed>1.2</gom:speed></extensions></trkpt>
   <trkpt lat="59.0788678799" lon="29.9888240941"><ele>93.313</ele><time>2026-04-25T14:50:31.000Z</time><hdop>3.0</hdop><vdop>3.0</vdop><extensions><gom:speed>1.329</gom:speed></extensions></trkpt>
   <trkpt lat="59.078854846" lon="29.9888271116"><ele>93.214</ele><time>2026-04-25T14:50:32.000Z</time><hdop>3.0</hdop><vdop>3.0</vdop><extensions><gom:speed>1.377</gom:speed></extensions></trkpt>
   <trkpt lat="59.0788411835" lon="29.9888280336"><ele>93.09</ele><time>2026-04-25T14:50:33.000Z</time><hdop>3.0</hdop><vdop>3.0</vdop><extensions><gom:speed>1.497</gom:speed></extensions></trkpt>
   <trkpt lat="59.0788279401" lon="29.9888289556"><ele>92.999</ele><time>2026-04-25T14:50:34.000Z</time><hdop>3.0</hdop><vdop>3.0</vdop><extensions><gom:speed>1.433</gom:speed></extensions></trkpt>
   <trkpt lat="59.0788158283" lon="29.988827866"><ele>93.008</ele><time>2026-04-25T14:50:35.000Z</time><hdop>3.0</hdop><vdop>3.0</vdop><extensions><gom:speed>1.417</gom:speed></extensions></trkpt>
   <trkpt lat="59.0788046384" lon="29.9888275307"><ele>93.035</ele><time>2026-04-25T14:50:36.000Z</time><hdop>3.0</hdop><vdop>3.0</vdop><extensions><gom:speed>1.295</gom:speed></extensions></trkpt>
   <trkpt lat="59.0787940353" lon="29.988826944"><ele>93.091</ele><time>2026-04-25T14:50:37.000Z</time><hdop>3.0</hdop><vdop>3.0</vdop><extensions><gom:speed>1.384</gom:speed></extensions></trkpt>
   <trkpt lat="59.0787821749" lon="29.9888248485"><ele>93.124</ele><time>2026-04-25T14:50:38.000Z</time><hdop>3.0</hdop><vdop>3.0</vdop><extensions><gom:speed>1.44</gom:speed></extensions></trkpt>
   <trkpt lat="59.0787695602" lon="29.988821831"><ele>93.133</ele><time>2026-04-25T14:50:39.000Z</time><hdop>3.0</hdop><vdop>3.0</vdop><extensions><gom:speed>1.559</gom:speed></extensions></trkpt>
   <trkpt lat="59.0787571969" lon="29.9888178915"><ele>93.121</ele><time>2026-04-25T14:50:40.000Z</time><hdop>3.0</hdop><vdop>3.0</vdop><extensions><gom:speed>1.387</gom:speed></extensions></trkpt>
   <trkpt lat="59.0787460489" lon="29.9888150417"><ele>93.131</ele><time>2026-04-25T14:50:41.000Z</time><hdop>3.0</hdop><vdop>3.0</vdop><extensions><gom:speed>1.266</gom:speed></extensions></trkpt>
   <trkpt lat="59.0787338533" lon="29.9888121918"><ele>93.09</ele><time>2026-04-25T14:50:42.000Z</time><hdop>3.0</hdop><vdop>3.0</vdop><extensions><gom:speed>1.347</gom:speed></extensions></trkpt>
   <trkpt lat="59.0787211547" lon="29.9888091743"><ele>93.025</ele><time>2026-04-25T14:50:43.000Z</time><hdop>3.0</hdop><vdop>3.0</vdop><extensions><gom:speed>1.401</gom:speed></extensions></trkpt>
   <trkpt lat="59.0787069474" lon="29.988806995"><ele>92.942</ele><time>2026-04-25T14:50:44.000Z</time><hdop>3.0</hdop><vdop>3.0</vdop><extensions><gom:speed>1.599</gom:speed></extensions></trkpt>
   <trkpt lat="59.0786913989" lon="29.988803307"><ele>92.815</ele><time>2026-04-25T14:50:45.000Z</time><hdop>3.0</hdop><vdop>3.0</vdop><extensions><gom:speed>1.749</gom:speed></extensions></trkpt>
   <trkpt lat="59.0786763115" lon="29.9887982779"><ele>92.714</ele><time>2026-04-25T14:50:46.000Z</time><hdop>3.0</hdop><vdop>3.0</vdop><extensions><gom:speed>1.52</gom:speed></extensions></trkpt>
   <trkpt lat="59.0786620623" lon="29.9887940869"><ele>92.631</ele><time>2026-04-25T14:50:47.000Z</time><hdop>3.0</hdop><vdop>3.0</vdop><extensions><gom:speed>1.395</gom:speed></extensions></trkpt>
   <trkpt lat="59.0786620623" lon="29.9887940869"><ele>92.581</ele><time>2026-04-25T14:50:47.000Z</time><hdop>3.0</hdop><vdop>3.0</vdop><extensions><gom:speed>1.395</gom:speed></extensions></trkpt>
   <trkpt lat="59.078649196" lon="29.9887886387"><ele>92.517</ele><time>2026-04-25T14:50:48.000Z</time><hdop>3.0</hdop><vdop>3.0</vdop><extensions><gom:speed>1.308</gom:speed></extensions></trkpt>
   <trkpt lat="59.0786370004" lon="29.9887812626"><ele>92.439</ele><time>2026-04-25T14:50:49.000Z</time><hdop>3.0</hdop><vdop>3.0</vdop><extensions><gom:speed>1.48</gom:speed></extensions></trkpt>
   <trkpt lat="59.0786241761" lon="29.988774138"><ele>92.329</ele><time>2026-04-25T14:50:50.000Z</time><hdop>3.0</hdop><vdop>3.0</vdop><extensions><gom:speed>1.451</gom:speed></extensions></trkpt>
   <trkpt lat="59.078610304" lon="29.988767181"><ele>92.192</ele><time>2026-04-25T14:50:51.000Z</time><hdop>3.0</hdop><vdop>3.0</vdop><extensions><gom:speed>1.472</gom:speed></extensions></trkpt>
   <trkpt lat="59.0785970187" lon="29.9887572904"><ele>92.108</ele><time>2026-04-25T14:50:52.000Z</time><hdop>3.0</hdop><vdop>3.0</vdop><extensions><gom:speed>1.57</gom:speed></extensions></trkpt>
   <trkpt lat="59.0785830628" lon="29.9887472321"><ele>92.01</ele><time>2026-04-25T14:50:53.000Z</time><hdop>3.0</hdop><vdop>3.0</vdop><extensions><gom:speed>1.487</gom:speed></extensions></trkpt>
   <trkpt lat="59.0785683526" lon="29.9887397722"><ele>91.865</ele><time>2026-04-25T14:50:54.000Z</time><hdop>3.0</hdop><vdop>3.0</vdop><extensions><gom:speed>1.668</gom:speed></extensions></trkpt>
   <trkpt lat="59.0785540195" lon="29.9887339048"><ele>91.758</ele><time>2026-04-25T14:50:55.000Z</time><hdop>3.0</hdop><vdop>3.0</vdop><extensions><gom:speed>1.451</gom:speed></extensions></trkpt>
   <trkpt lat="59.0785401056" lon="29.9887288757"><ele>91.684</ele><time>2026-04-25T14:50:56.000Z</time><hdop>3.0</hdop><vdop>3.0</vdop><extensions><gom:speed>1.644</gom:speed></extensions></trkpt>
   <trkpt lat="59.0785261497" lon="29.988724098"><ele>91.642</ele><time>2026-04-25T14:50:57.000Z</time><hdop>3.0</hdop><vdop>3.0</vdop><extensions><gom:speed>1.392</gom:speed></extensions></trkpt>
   <trkpt lat="59.0785137445" lon="29.9887191527"><ele>91.612</ele><time>2026-04-25T14:50:58.000Z</time><hdop>3.0</hdop><vdop>3.0</vdop><extensions><gom:speed>1.351</gom:speed></extensions></trkpt>
   <trkpt lat="59.0785015069" lon="29.9887140397"><ele>91.624</ele><time>2026-04-25T14:50:59.000Z</time><hdop>3.0</hdop><vdop>3.0</vdop><extensions><gom:speed>1.429</gom:speed></extensions></trkpt>
   <trkpt lat="59.0784904428" lon="29.988707418"><ele>91.633</ele><time>2026-04-25T14:51:00.000Z</time><hdop>3.0</hdop><vdop>3.0</vdop><extensions><gom:speed>1.196</gom:speed></extensions></trkpt>
   <trkpt lat="59.0784798816" lon="29.9886992038"><ele>91.619</ele><time>2026-04-25T14:51:01.000Z</time><hdop>3.0</hdop><vdop>3.0</vdop><extensions><gom:speed>1.507</gom:speed></extensions></trkpt>
   <trkpt lat="59.0784668058" lon="29.9886922468"><ele>91.562</ele><time>2026-04-25T14:51:02.000Z</time><hdop>3.0</hdop><vdop>3.0</vdop><extensions><gom:speed>1.314</gom:speed></extensions></trkpt>
   <trkpt lat="59.0784530595" lon="29.9886849545"><ele>91.518</ele><time>2026-04-25T14:51:03.000Z</time><hdop>3.0</hdop><vdop>3.0</vdop><extensions><gom:speed>1.283</gom:speed></extensions></trkpt>
   <trkpt lat="59.0784414087" lon="29.9886779137"><ele>91.549</ele><time>2026-04-25T14:51:04.000Z</time><hdop>3.0</hdop><vdop>3.0</vdop><extensions><gom:speed>1.497</gom:speed></extensions></trkpt>
   <trkpt lat="59.0784298416" lon="29.988669448"><ele>91.606</ele><time>2026-04-25T14:51:05.000Z</time><hdop>3.0</hdop><vdop>3.0</vdop><extensions><gom:speed>1.404</gom:speed></extensions></trkpt>
   <trkpt lat="59.0784195738" lon="29.9886600603"><ele>91.629</ele><time>2026-04-25T14:51:06.000Z</time><hdop>3.0</hdop><vdop>3.0</vdop><extensions><gom:speed>1.339</gom:speed></extensions></trkpt>
   <trkpt lat="59.0784093898" lon="29.9886507564"><ele>91.624</ele><time>2026-04-25T14:51:07.000Z</time><hdop>3.0</hdop><vdop>3.0</vdop><extensions><gom:speed>1.314</gom:speed></extensions></trkpt>
   <trkpt lat="59.0783983257" lon="29.9886423745"><ele>91.612</ele><time>2026-04-25T14:51:08.000Z</time><hdop>3.0</hdop><vdop>3.0</vdop><extensions><gom:speed>1.45</gom:speed></extensions></trkpt>
   <trkpt lat="59.0783883512" lon="29.9886338249"><ele>91.616</ele><time>2026-04-25T14:51:09.000Z</time><hdop>3.0</hdop><vdop>3.0</vdop><extensions><gom:speed>1.242</gom:speed></extensions></trkpt>
   <trkpt lat="59.0783782091" lon="29.9886232637"><ele>91.585</ele><time>2026-04-25T14:51:10.000Z</time><hdop>3.0</hdop><vdop>3.0</vdop><extensions><gom:speed>1.548</gom:speed></extensions></trkpt>
   <trkpt lat="59.0783782091" lon="29.9886232637"><ele>91.567</ele><time>2026-04-25T14:51:10.000Z</time><hdop>3.0</hdop><vdop>3.0</vdop><extensions><gom:speed>1.548</gom:speed></extensions></trkpt>
   <trkpt lat="59.0783664744" lon="29.9886064999"><ele>91.617</ele><time>2026-04-25T14:51:11.000Z</time><hdop>3.0</hdop><vdop>3.0</vdop><extensions><gom:speed>1.48</gom:speed></extensions></trkpt>
   <trkpt lat="59.0783565419" lon="29.9885945138"><ele>91.661</ele><time>2026-04-25T14:51:12.000Z</time><hdop>3.0</hdop><vdop>3.0</vdop><extensions><gom:speed>1.155</gom:speed></extensions></trkpt>
   <trkpt lat="59.0783480762" lon="29.9885852937"><ele>91.659</ele><time>2026-04-25T14:51:13.000Z</time><hdop>3.0</hdop><vdop>3.0</vdop><extensions><gom:speed>1.094</gom:speed></extensions></trkpt>
   <trkpt lat="59.0783387304" lon="29.9885746487"><ele>91.658</ele><time>2026-04-25T14:51:14.000Z</time><hdop>3.0</hdop><vdop>3.0</vdop><extensions><gom:speed>1.216</gom:speed></extensions></trkpt>
   <trkpt lat="59.0783307675" lon="29.9885624111"><ele>91.636</ele><time>2026-04-25T14:51:15.000Z</time><hdop>3.0</hdop><vdop>3.0</vdop><extensions><gom:speed>0.962</gom:speed></extensions></trkpt>
   <trkpt lat="59.0783248583" lon="29.9885561247"><ele>91.655</ele><time>2026-04-25T14:51:16.000Z</time><hdop>3.0</hdop><vdop>3.0</vdop><extensions><gom:speed>0.765</gom:speed></extensions></trkpt>
   <trkpt lat="59.078318069" lon="29.9885510117"><ele>91.671</ele><time>2026-04-25T14:51:17.000Z</time><hdop>3.0</hdop><vdop>3.0</vdop><extensions><gom:speed>0.855</gom:speed></extensions></trkpt>
   <trkpt lat="59.0783088908" lon="29.9885445577"><ele>91.591</ele><time>2026-04-25T14:51:18.000Z</time><hdop>3.0</hdop><vdop>3.0</vdop><extensions><gom:speed>1.166</gom:speed></extensions></trkpt>
   <trkpt lat="59.0782970723" lon="29.9885335774"><ele>91.418</ele><time>2026-04-25T14:51:19.000Z</time><hdop>3.0</hdop><vdop>3.0</vdop><extensions><gom:speed>1.459</gom:speed></extensions></trkpt>
   <trkpt lat="59.0782872236" lon="29.9885260337"><ele>91.279</ele><time>2026-04-25T14:51:20.000Z</time><hdop>3.0</hdop><vdop>3.0</vdop><extensions><gom:speed>0.925</gom:speed></extensions></trkpt>
   <trkpt lat="59.078278674" lon="29.9885230162"><ele>91.097</ele><time>2026-04-25T14:51:21.000Z</time><hdop>3.0</hdop><vdop>3.0</vdop><extensions><gom:speed>0.925</gom:speed></extensions></trkpt>
   <trkpt lat="59.0782699568" lon="29.9885237705"><ele>90.957</ele><time>2026-04-25T14:51:22.000Z</time><hdop>3.0</hdop><vdop>3.0</vdop><extensions><gom:speed>0.927</gom:speed></extensions></trkpt>
   <trkpt lat="59.0782617007" lon="29.9885246925"><ele>90.882</ele><time>2026-04-25T14:51:23.000Z</time><hdop>3.0</hdop><vdop>3.0</vdop><extensions><gom:speed>0.737</gom:speed></extensions></trkpt>
   <trkpt lat="59.0782535283" lon="29.9885235191"><ele>90.802</ele><time>2026-04-25T14:51:24.000Z</time><hdop>3.0</hdop><vdop>3.0</vdop><extensions><gom:speed>0.85</gom:speed></extensions></trkpt>
   <trkpt lat="59.0782468647" lon="29.9885215912"><ele>90.776</ele><time>2026-04-25T14:51:25.000Z</time><hdop>3.0</hdop><vdop>3.0</vdop><extensions><gom:speed>0.521</gom:speed></extensions></trkpt>
   <trkpt lat="59.0782426737" lon="29.9885206692"><ele>90.806</ele><time>2026-04-25T14:51:26.000Z</time><hdop>3.0</hdop><vdop>3.0</vdop><extensions><gom:speed>0.311</gom:speed></extensions></trkpt>
   <trkpt lat="59.0782398239" lon="29.9885199987"><ele>90.893</ele><time>2026-04-25T14:51:27.000Z</time><hdop>3.0</hdop><vdop>3.0</vdop><extensions><gom:speed>0.375</gom:speed></extensions></trkpt>
   <trkpt lat="59.0782347109" lon="29.988521256"><ele>91.013</ele><time>2026-04-25T14:51:28.000Z</time><hdop>3.0</hdop><vdop>3.0</vdop><extensions><gom:speed>0.545</gom:speed></extensions></trkpt>
   <trkpt lat="59.0782347109" lon="29.988521256"><ele>91.084</ele><time>2026-04-25T14:51:28.000Z</time><hdop>3.0</hdop><vdop>3.0</vdop><extensions><gom:speed>0.545</gom:speed></extensions></trkpt>
   <trkpt lat="59.0782288017" lon="29.9885237705"><ele>91.174</ele><time>2026-04-25T14:51:29.000Z</time><hdop>3.0</hdop><vdop>3.0</vdop><extensions><gom:speed>0.675</gom:speed></extensions></trkpt>
   <trkpt lat="59.0782225572" lon="29.9885241896"><ele>91.257</ele><time>2026-04-25T14:51:30.000Z</time><hdop>3.0</hdop><vdop>3.0</vdop><extensions><gom:speed>0.665</gom:speed></extensions></trkpt>
   <trkpt lat="59.0782176957" lon="29.9885245249"><ele>91.361</ele><time>2026-04-25T14:51:31.000Z</time><hdop>3.0</hdop><vdop>3.0</vdop><extensions><gom:speed>0.557</gom:speed></extensions></trkpt>
   <trkpt lat="59.0782107387" lon="29.9885229323"><ele>91.44</ele><time>2026-04-25T14:51:32.000Z</time><hdop>3.062</hdop><vdop>3.062</vdop><extensions><gom:speed>0.986</gom:speed></extensions></trkpt>
   <trkpt lat="59.0781997165" lon="29.9885184061"><ele>91.465</ele><time>2026-04-25T14:51:33.000Z</time><hdop>3.0</hdop><vdop>3.0</vdop><extensions><gom:speed>0.882</gom:speed></extensions></trkpt>
   <trkpt lat="59.0781909993" lon="29.9885095213"><ele>91.611</ele><time>2026-04-25T14:51:34.000Z</time><hdop>3.0</hdop><vdop>3.0</vdop><extensions><gom:speed>0.897</gom:speed></extensions></trkpt>
   <trkpt lat="59.0781838328" lon="29.9885020614"><ele>91.713</ele><time>2026-04-25T14:51:35.000Z</time><hdop>3.0</hdop><vdop>3.0</vdop><extensions><gom:speed>0.756</gom:speed></extensions></trkpt>
   <trkpt lat="59.0781792646" lon="29.988493428"><ele>91.838</ele><time>2026-04-25T14:51:36.000Z</time><hdop>3.0</hdop><vdop>3.0</vdop><extensions><gom:speed>0.461</gom:speed></extensions></trkpt>
   <trkpt lat="59.0781765405" lon="29.9884858005"><ele>91.976</ele><time>2026-04-25T14:51:37.000Z</time><hdop>3.0</hdop><vdop>3.0</vdop><extensions><gom:speed>0.362</gom:speed></extensions></trkpt>
   <trkpt lat="59.0781720981" lon="29.9884812743"><ele>92.064</ele><time>2026-04-25T14:51:38.000Z</time><hdop>3.0</hdop><vdop>3.0</vdop><extensions><gom:speed>0.465</gom:speed></extensions></trkpt>
   <trkpt lat="59.0781679072" lon="29.9884764128"><ele>92.162</ele><time>2026-04-25T14:51:39.000Z</time><hdop>3.0</hdop><vdop>3.0</vdop><extensions><gom:speed>0.501</gom:speed></extensions></trkpt>
   <trkpt lat="59.0781650992" lon="29.9884699587"><ele>92.332</ele><time>2026-04-25T14:51:40.000Z</time><hdop>3.0</hdop><vdop>3.0</vdop><extensions><gom:speed>0.475</gom:speed></extensions></trkpt>
   <trkpt lat="59.0781617465" lon="29.9884602357"><ele>92.51</ele><time>2026-04-25T14:51:41.000Z</time><hdop>3.0</hdop><vdop>3.0</vdop><extensions><gom:speed>0.668</gom:speed></extensions></trkpt>
   <trkpt lat="59.0781561306" lon="29.9884491716"><ele>92.576</ele><time>2026-04-25T14:51:42.000Z</time><hdop>3.0</hdop><vdop>3.0</vdop><extensions><gom:speed>0.971</gom:speed></extensions></trkpt>
   <trkpt lat="59.0781484611" lon="29.9884380237"><ele>92.73</ele><time>2026-04-25T14:51:43.000Z</time><hdop>3.0</hdop><vdop>3.0</vdop><extensions><gom:speed>1.067</gom:speed></extensions></trkpt>
   <trkpt lat="59.0781393668" lon="29.9884313181"><ele>92.95</ele><time>2026-04-25T14:51:44.000Z</time><hdop>3.0</hdop><vdop>3.0</vdop><extensions><gom:speed>0.953</gom:speed></extensions></trkpt>
   <trkpt lat="59.0781312363" lon="29.9884309829"><ele>93.246</ele><time>2026-04-25T14:51:45.000Z</time><hdop>3.0</hdop><vdop>3.0</vdop><extensions><gom:speed>0.938</gom:speed></extensions></trkpt>
   <trkpt lat="59.0781220582" lon="29.9884339165"><ele>93.523</ele><time>2026-04-25T14:51:46.000Z</time><hdop>3.0</hdop><vdop>3.0</vdop><extensions><gom:speed>0.977</gom:speed></extensions></trkpt>
   <trkpt lat="59.0781127123" lon="29.9884353415"><ele>93.667</ele><time>2026-04-25T14:51:47.000Z</time><hdop>3.0</hdop><vdop>3.0</vdop><extensions><gom:speed>1.06</gom:speed></extensions></trkpt>
   <trkpt lat="59.0781020254" lon="29.9884321563"><ele>93.819</ele><time>2026-04-25T14:51:48.000Z</time><hdop>3.0</hdop><vdop>3.0</vdop><extensions><gom:speed>1.307</gom:speed></extensions></trkpt>
   <trkpt lat="59.0781020254" lon="29.9884321563"><ele>93.91</ele><time>2026-04-25T14:51:48.000Z</time><hdop>3.0</hdop><vdop>3.0</vdop><extensions><gom:speed>1.307</gom:speed></extensions></trkpt>
   <trkpt lat="59.0780913385" lon="29.9884274625"><ele>93.964</ele><time>2026-04-25T14:51:49.000Z</time><hdop>3.0</hdop><vdop>3.0</vdop><extensions><gom:speed>1.205</gom:speed></extensions></trkpt>
   <trkpt lat="59.0780824118" lon="29.9884189967"><ele>93.972</ele><time>2026-04-25T14:51:50.000Z</time><hdop>3.0</hdop><vdop>3.0</vdop><extensions><gom:speed>1.154</gom:speed></extensions></trkpt>
   <trkpt lat="59.0780741137" lon="29.988406843"><ele>94.005</ele><time>2026-04-25T14:51:51.000Z</time><hdop>3.0</hdop><vdop>3.0</vdop><extensions><gom:speed>1.219</gom:speed></extensions></trkpt>
   <trkpt lat="59.0780662347" lon="29.988392929"><ele>94.109</ele><time>2026-04-25T14:51:52.000Z</time><hdop>3.0</hdop><vdop>3.0</vdop><extensions><gom:speed>1.033</gom:speed></extensions></trkpt>
   <trkpt lat="59.078057769" lon="29.9883849662"><ele>94.199</ele><time>2026-04-25T14:51:53.000Z</time><hdop>3.0</hdop><vdop>3.0</vdop><extensions><gom:speed>0.96</gom:speed></extensions></trkpt>
   <trkpt lat="59.0780499319" lon="29.9883821164"><ele>94.317</ele><time>2026-04-25T14:51:54.000Z</time><hdop>3.0</hdop><vdop>3.0</vdop><extensions><gom:speed>1.041</gom:speed></extensions></trkpt>
   <trkpt lat="59.0780403765" lon="29.9883788474"><ele>94.47</ele><time>2026-04-25T14:51:55.000Z</time><hdop>3.0</hdop><vdop>3.0</vdop><extensions><gom:speed>1.237</gom:speed></extensions></trkpt>
   <trkpt lat="59.078029019" lon="29.9883760814"><ele>94.615</ele><time>2026-04-25T14:51:56.000Z</time><hdop>3.0</hdop><vdop>3.0</vdop><extensions><gom:speed>1.233</gom:speed></extensions></trkpt>
   <trkpt lat="59.078018835" lon="29.9883748241"><ele>94.757</ele><time>2026-04-25T14:51:57.000Z</time><hdop>3.0</hdop><vdop>3.0</vdop><extensions><gom:speed>0.943</gom:speed></extensions></trkpt>
   <trkpt lat="59.0780092377" lon="29.9883750756"><ele>94.827</ele><time>2026-04-25T14:51:58.000Z</time><hdop>3.0</hdop><vdop>3.0</vdop><extensions><gom:speed>0.964</gom:speed></extensions></trkpt>
   <trkpt lat="59.0779990537" lon="29.9883792665"><ele>94.905</ele><time>2026-04-25T14:51:59.000Z</time><hdop>3.0</hdop><vdop>3.0</vdop><extensions><gom:speed>0.846</gom:speed></extensions></trkpt>
   <trkpt lat="59.0779902108" lon="29.9883787636"><ele>94.92</ele><time>2026-04-25T14:52:00.000Z</time><hdop>3.0</hdop><vdop>3.0</vdop><extensions><gom:speed>0.847</gom:speed></extensions></trkpt>
   <trkpt lat="59.0779902108" lon="29.9883787636"><ele>94.929</ele><time>2026-04-25T14:52:01.000Z</time><hdop>3.0</hdop><vdop>3.0</vdop><extensions><gom:speed>0.0</gom:speed></extensions></trkpt>
   <trkpt lat="59.0779842178" lon="29.9883745727"><ele>94.904</ele><time>2026-04-25T14:52:02.000Z</time><hdop>3.0</hdop><vdop>3.0</vdop><extensions><gom:speed>0.976</gom:speed></extensions></trkpt>
   <trkpt lat="59.0779723155" lon="29.9883672804"><ele>94.866</ele><time>2026-04-25T14:52:03.000Z</time><hdop>3.0</hdop><vdop>3.0</vdop><extensions><gom:speed>1.136</gom:speed></extensions></trkpt>
   <trkpt lat="59.0779600779" lon="29.9883609102"><ele>94.797</ele><time>2026-04-25T14:52:04.000Z</time><hdop>3.0</hdop><vdop>3.0</vdop><extensions><gom:speed>1.152</gom:speed></extensions></trkpt>
   <trkpt lat="59.0779477565" lon="29.9883618322"><ele>94.73</ele><time>2026-04-25T14:52:05.000Z</time><hdop>3.0</hdop><vdop>3.0</vdop><extensions><gom:speed>1.087</gom:speed></extensions></trkpt>
   <trkpt lat="59.0779361056" lon="29.9883664422"><ele>94.647</ele><time>2026-04-25T14:52:06.000Z</time><hdop>3.0</hdop><vdop>3.0</vdop><extensions><gom:speed>1.14</gom:speed></extensions></trkpt>
   <trkpt lat="59.0779262569" lon="29.9883745727"><ele>94.592</ele><time>2026-04-25T14:52:07.000Z</time><hdop>3.0</hdop><vdop>3.0</vdop><extensions><gom:speed>1.098</gom:speed></extensions></trkpt>
   <trkpt lat="59.0779157376" lon="29.9883825355"><ele>94.502</ele><time>2026-04-25T14:52:08.000Z</time><hdop>3.0</hdop><vdop>3.0</vdop><extensions><gom:speed>1.104</gom:speed></extensions></trkpt>
   <trkpt lat="59.0779157376" lon="29.9883825355"><ele>94.449</ele><time>2026-04-25T14:52:08.000Z</time><hdop>3.0</hdop><vdop>3.0</vdop><extensions><gom:speed>1.104</gom:speed></extensions></trkpt>
   <trkpt lat="59.0779068528" lon="29.9883926776"><ele>94.386</ele><time>2026-04-25T14:52:09.000Z</time><hdop>3.0</hdop><vdop>3.0</vdop><extensions><gom:speed>1.127</gom:speed></extensions></trkpt>
   <trkpt lat="59.0778984709" lon="29.9884038255"><ele>94.374</ele><time>2026-04-25T14:52:10.000Z</time><hdop>3.0</hdop><vdop>3.0</vdop><extensions><gom:speed>1.09</gom:speed></extensions></trkpt>
   <trkpt lat="59.0778897537" lon="29.988412878"><ele>94.403</ele><time>2026-04-25T14:52:11.000Z</time><hdop>3.0</hdop><vdop>3.0</vdop><extensions><gom:speed>1.103</gom:speed></extensions></trkpt>
   <trkpt lat="59.0778796954" lon="29.988423523"><ele>94.422</ele><time>2026-04-25T14:52:12.000Z</time><hdop>3.0</hdop><vdop>3.0</vdop><extensions><gom:speed>1.222</gom:speed></extensions></trkpt>
   <trkpt lat="59.0778695114" lon="29.9884305638"><ele>94.41</ele><time>2026-04-25T14:52:13.000Z</time><hdop>3.0</hdop><vdop>3.0</vdop><extensions><gom:speed>1.269</gom:speed></extensions></trkpt>
   <trkpt lat="59.0778583635" lon="29.9884391971"><ele>94.406</ele><time>2026-04-25T14:52:14.000Z</time><hdop>3.0</hdop><vdop>3.0</vdop><extensions><gom:speed>1.218</gom:speed></extensions></trkpt>
   <trkpt lat="59.0778477604" lon="29.9884470761"><ele>94.373</ele><time>2026-04-25T14:52:15.000Z</time><hdop>3.0</hdop><vdop>3.0</vdop><extensions><gom:speed>1.25</gom:speed></extensions></trkpt>
   <trkpt lat="59.0778369477" lon="29.9884541169"><ele>94.351</ele><time>2026-04-25T14:52:16.000Z</time><hdop>3.0</hdop><vdop>3.0</vdop><extensions><gom:speed>1.096</gom:speed></extensions></trkpt>
   <trkpt lat="59.0778268056" lon="29.9884608224"><ele>94.309</ele><time>2026-04-25T14:52:17.000Z</time><hdop>3.0</hdop><vdop>3.0</vdop><extensions><gom:speed>1.07</gom:speed></extensions></trkpt>
   <trkpt lat="59.0778165378" lon="29.9884658516"><ele>94.285</ele><time>2026-04-25T14:52:18.000Z</time><hdop>3.0</hdop><vdop>3.0</vdop><extensions><gom:speed>1.214</gom:speed></extensions></trkpt>
   <trkpt lat="59.0778065633" lon="29.9884697073"><ele>94.221</ele><time>2026-04-25T14:52:19.000Z</time><hdop>3.0</hdop><vdop>3.0</vdop><extensions><gom:speed>0.945</gom:speed></extensions></trkpt>
   <trkpt lat="59.0777975947" lon="29.9884712998"><ele>94.157</ele><time>2026-04-25T14:52:20.000Z</time><hdop>3.0</hdop><vdop>3.0</vdop><extensions><gom:speed>0.979</gom:speed></extensions></trkpt>
   <trkpt lat="59.0777879555" lon="29.9884717189"><ele>94.126</ele><time>2026-04-25T14:52:21.000Z</time><hdop>3.0</hdop><vdop>3.0</vdop><extensions><gom:speed>0.835</gom:speed></extensions></trkpt>
   <trkpt lat="59.0777751731" lon="29.9884689529"><ele>94.098</ele><time>2026-04-25T14:52:22.000Z</time><hdop>3.0</hdop><vdop>3.0</vdop><extensions><gom:speed>1.325</gom:speed></extensions></trkpt>
   <trkpt lat="59.077759918" lon="29.9884658516"><ele>94.058</ele><time>2026-04-25T14:52:23.000Z</time><hdop>3.0</hdop><vdop>3.0</vdop><extensions><gom:speed>1.424</gom:speed></extensions></trkpt>
   <trkpt lat="59.07774416" lon="29.9884618283"><ele>93.966</ele><time>2026-04-25T14:52:24.000Z</time><hdop>3.0</hdop><vdop>3.0</vdop><extensions><gom:speed>1.39</gom:speed></extensions></trkpt>
   <trkpt lat="59.0777295755" lon="29.9884614092"><ele>93.912</ele><time>2026-04-25T14:52:25.000Z</time><hdop>3.0</hdop><vdop>3.0</vdop><extensions><gom:speed>1.425</gom:speed></extensions></trkpt>
   <trkpt lat="59.0777141947" lon="29.9884594813"><ele>93.842</ele><time>2026-04-25T14:52:26.000Z</time><hdop>3.0</hdop><vdop>3.0</vdop><extensions><gom:speed>1.462</gom:speed></extensions></trkpt>
   <trkpt lat="59.0776977662" lon="29.9884581402"><ele>93.759</ele><time>2026-04-25T14:52:27.000Z</time><hdop>3.0</hdop><vdop>3.0</vdop><extensions><gom:speed>1.494</gom:speed></extensions></trkpt>
   <trkpt lat="59.0776821759" lon="29.9884538655"><ele>93.723</ele><time>2026-04-25T14:52:28.000Z</time><hdop>3.0</hdop><vdop>3.0</vdop><extensions><gom:speed>1.551</gom:speed></extensions></trkpt>
   <trkpt lat="59.0776680105" lon="29.9884473276"><ele>93.656</ele><time>2026-04-25T14:52:29.000Z</time><hdop>3.0</hdop><vdop>3.0</vdop><extensions><gom:speed>1.366</gom:speed></extensions></trkpt>
   <trkpt lat="59.0776680105" lon="29.9884473276"><ele>93.616</ele><time>2026-04-25T14:52:29.000Z</time><hdop>3.0</hdop><vdop>3.0</vdop><extensions><gom:speed>1.366</gom:speed></extensions></trkpt>
   <trkpt lat="59.0776546832" lon="29.9884393648"><ele>93.608</ele><time>2026-04-25T14:52:30.000Z</time><hdop>3.0</hdop><vdop>3.0</vdop><extensions><gom:speed>1.373</gom:speed></extensions></trkpt>
   <trkpt lat="59.077642278" lon="29.9884348385"><ele>93.607</ele><time>2026-04-25T14:52:31.000Z</time><hdop>3.0</hdop><vdop>3.0</vdop><extensions><gom:speed>1.118</gom:speed></extensions></trkpt>
   <trkpt lat="59.0776308786" lon="29.9884319049"><ele>93.611</ele><time>2026-04-25T14:52:32.000Z</time><hdop>3.0</hdop><vdop>3.0</vdop><extensions><gom:speed>1.136</gom:speed></extensions></trkpt>
   <trkpt lat="59.0776168389" lon="29.9884312343"><ele>93.588</ele><time>2026-04-25T14:52:33.000Z</time><hdop>3.0</hdop><vdop>3.0</vdop><extensions><gom:speed>1.447</gom:speed></extensions></trkpt>
   <trkpt lat="59.0776027573" lon="29.9884333298"><ele>93.572</ele><time>2026-04-25T14:52:34.000Z</time><hdop>3.0</hdop><vdop>3.0</vdop><extensions><gom:speed>1.379</gom:speed></extensions></trkpt>
   <trkpt lat="59.0775874185" lon="29.9884364311"><ele>93.508</ele><time>2026-04-25T14:52:35.000Z</time><hdop>3.0</hdop><vdop>3.0</vdop><extensions><gom:speed>1.515</gom:speed></extensions></trkpt>
   <trkpt lat="59.0775874185" lon="29.9884364311"><ele>93.469</ele><time>2026-04-25T14:52:35.000Z</time><hdop>3.0</hdop><vdop>3.0</vdop><extensions><gom:speed>1.515</gom:speed></extensions></trkpt>
   <trkpt lat="59.07757187" lon="29.9884419632"><ele>93.447</ele><time>2026-04-25T14:52:36.000Z</time><hdop>3.0</hdop><vdop>3.0</vdop><extensions><gom:speed>1.397</gom:speed></extensions></trkpt>
   <trkpt lat="59.0775577046" lon="29.9884422146"><ele>93.46</ele><time>2026-04-25T14:52:37.000Z</time><hdop>3.0</hdop><vdop>3.0</vdop><extensions><gom:speed>1.353</gom:speed></extensions></trkpt>
   <trkpt lat="59.0775445869" lon="29.9884427175"><ele>93.492</ele><time>2026-04-25T14:52:38.000Z</time><hdop>3.0</hdop><vdop>3.0</vdop><extensions><gom:speed>1.244</gom:speed></extensions></trkpt>
   <trkpt lat="59.0775445869" lon="29.9884427175"><ele>93.511</ele><time>2026-04-25T14:52:38.000Z</time><hdop>3.0</hdop><vdop>3.0</vdop><extensions><gom:speed>1.244</gom:speed></extensions></trkpt>
   <trkpt lat="59.0775306311" lon="29.9884396162"><ele>93.524</ele><time>2026-04-25T14:52:39.000Z</time><hdop>3.0</hdop><vdop>3.0</vdop><extensions><gom:speed>1.336</gom:speed></extensions></trkpt>
   <trkpt lat="59.0775157113" lon="29.9884406221"><ele>93.551</ele><time>2026-04-25T14:52:40.000Z</time><hdop>3.0</hdop><vdop>3.0</vdop><extensions><gom:speed>1.422</gom:speed></extensions></trkpt>
   <trkpt lat="59.0774996599" lon="29.9884376046"><ele>93.579</ele><time>2026-04-25T14:52:41.000Z</time><hdop>3.0</hdop><vdop>3.0</vdop><extensions><gom:speed>1.468</gom:speed></extensions></trkpt>
   <trkpt lat="59.0774846144" lon="29.988430899"><ele>93.542</ele><time>2026-04-25T14:52:42.000Z</time><hdop>3.0</hdop><vdop>3.0</vdop><extensions><gom:speed>1.541</gom:speed></extensions></trkpt>
   <trkpt lat="59.0774702814" lon="29.9884243612"><ele>93.521</ele><time>2026-04-25T14:52:43.000Z</time><hdop>3.0</hdop><vdop>3.0</vdop><extensions><gom:speed>1.533</gom:speed></extensions></trkpt>
   <trkpt lat="59.0774556549" lon="29.9884185777"><ele>93.475</ele><time>2026-04-25T14:52:44.000Z</time><hdop>3.0</hdop><vdop>3.0</vdop><extensions><gom:speed>1.442</gom:speed></extensions></trkpt>
   <trkpt lat="59.0774423696" lon="29.9884182424"><ele>93.434</ele><time>2026-04-25T14:52:45.000Z</time><hdop>3.0</hdop><vdop>3.0</vdop><extensions><gom:speed>1.363</gom:speed></extensions></trkpt>
   <trkpt lat="59.0774302997" lon="29.9884162307"><ele>93.378</ele><time>2026-04-25T14:52:46.000Z</time><hdop>3.0</hdop><vdop>3.0</vdop><extensions><gom:speed>1.342</gom:speed></extensions></trkpt>
   <trkpt lat="59.0774168048" lon="29.9884097767"><ele>93.306</ele><time>2026-04-25T14:52:47.000Z</time><hdop>3.0</hdop><vdop>3.0</vdop><extensions><gom:speed>1.677</gom:speed></extensions></trkpt>
   <trkpt lat="59.0774015498" lon="29.9884009757"><ele>93.233</ele><time>2026-04-25T14:52:48.000Z</time><hdop>3.0</hdop><vdop>3.0</vdop><extensions><gom:speed>1.681</gom:speed></extensions></trkpt>
   <trkpt lat="59.0774015498" lon="29.9884009757"><ele>93.19</ele><time>2026-04-25T14:52:48.000Z</time><hdop>3.0</hdop><vdop>3.0</vdop><extensions><gom:speed>1.681</gom:speed></extensions></trkpt>
   <trkpt lat="59.077384744" lon="29.9883932643"><ele>93.187</ele><time>2026-04-25T14:52:49.000Z</time><hdop>3.0</hdop><vdop>3.0</vdop><extensions><gom:speed>1.692</gom:speed></extensions></trkpt>
   <trkpt lat="59.0773696985" lon="29.9883819487"><ele>93.216</ele><time>2026-04-25T14:52:50.000Z</time><hdop>3.0</hdop><vdop>3.0</vdop><extensions><gom:speed>1.436</gom:speed></extensions></trkpt>
   <trkpt lat="59.0773549464" lon="29.9883733154"><ele>93.203</ele><time>2026-04-25T14:52:51.000Z</time><hdop>3.0</hdop><vdop>3.0</vdop><extensions><gom:speed>1.393</gom:speed></extensions></trkpt>
   <trkpt lat="59.0773399009" lon="29.9883655202"><ele>93.173</ele><time>2026-04-25T14:52:52.000Z</time><hdop>3.0</hdop><vdop>3.0</vdop><extensions><gom:speed>1.551</gom:speed></extensions></trkpt>
   <trkpt lat="59.0773243943" lon="29.9883641791"><ele>93.114</ele><time>2026-04-25T14:52:53.000Z</time><hdop>3.0</hdop><vdop>3.0</vdop><extensions><gom:speed>1.272</gom:speed></extensions></trkpt>
   <trkpt lat="59.0773117796" lon="29.988361916"><ele>93.088</ele><time>2026-04-25T14:52:54.000Z</time><hdop>3.0</hdop><vdop>3.0</vdop><extensions><gom:speed>1.22</gom:speed></extensions></trkpt>
   <trkpt lat="59.0773001706" lon="29.9883619998"><ele>93.118</ele><time>2026-04-25T14:52:55.000Z</time><hdop>3.0</hdop><vdop>3.0</vdop><extensions><gom:speed>1.225</gom:speed></extensions></trkpt>
   <trkpt lat="59.077287053" lon="29.9883613293"><ele>93.147</ele><time>2026-04-25T14:52:56.000Z</time><hdop>3.0</hdop><vdop>3.0</vdop><extensions><gom:speed>1.337</gom:speed></extensions></trkpt>
   <trkpt lat="59.0772714626" lon="29.9883630895"><ele>93.129</ele><time>2026-04-25T14:52:57.000Z</time><hdop>3.0</hdop><vdop>3.0</vdop><extensions><gom:speed>1.369</gom:speed></extensions></trkpt>
   <trkpt lat="59.0772603566" lon="29.9883599881"><ele>93.138</ele><time>2026-04-25T14:52:58.000Z</time><hdop>3.0</hdop><vdop>3.0</vdop><extensions><gom:speed>1.113</gom:speed></extensions></trkpt>
   <trkpt lat="59.0772470713" lon="29.9883599881"><ele>93.111</ele><time>2026-04-25T14:52:59.000Z</time><hdop>3.0</hdop><vdop>3.0</vdop><extensions><gom:speed>1.254</gom:speed></extensions></trkpt>
   <trkpt lat="59.0772335345" lon="29.9883631733"><ele>93.125</ele><time>2026-04-25T14:53:00.000Z</time><hdop>3.0</hdop><vdop>3.0</vdop><extensions><gom:speed>1.459</gom:speed></extensions></trkpt>
   <trkpt lat="59.0772204168" lon="29.9883651849"><ele>93.158</ele><time>2026-04-25T14:53:01.000Z</time><hdop>3.5</hdop><vdop>3.5</vdop><extensions><gom:speed>1.389</gom:speed></extensions></trkpt>
   <trkpt lat="59.0772085564" lon="29.9883652687"><ele>93.212</ele><time>2026-04-25T14:53:02.000Z</time><hdop>3.187</hdop><vdop>3.187</vdop><extensions><gom:speed>1.281</gom:speed></extensions></trkpt>
   <trkpt lat="59.0771950197" lon="29.9883623351"><ele>93.238</ele><time>2026-04-25T14:53:03.000Z</time><hdop>3.812</hdop><vdop>3.812</vdop><extensions><gom:speed>1.423</gom:speed></extensions></trkpt>
   <trkpt lat="59.0771800999" lon="29.9883612454"><ele>93.257</ele><time>2026-04-25T14:53:04.000Z</time><hdop>3.875</hdop><vdop>3.875</vdop><extensions><gom:speed>1.462</gom:speed></extensions></trkpt>
   <trkpt lat="59.0771670241" lon="29.9883599881"><ele>93.242</ele><time>2026-04-25T14:53:05.000Z</time><hdop>4.125</hdop><vdop>4.125</vdop><extensions><gom:speed>1.3</gom:speed></extensions></trkpt>
   <trkpt lat="59.0771547027" lon="29.9883566354"><ele>93.235</ele><time>2026-04-25T14:53:06.000Z</time><hdop>3.687</hdop><vdop>3.687</vdop><extensions><gom:speed>1.354</gom:speed></extensions></trkpt>
   <trkpt lat="59.077141585" lon="29.9883552943"><ele>93.218</ele><time>2026-04-25T14:53:07.000Z</time><hdop>3.187</hdop><vdop>3.187</vdop><extensions><gom:speed>1.291</gom:speed></extensions></trkpt>
   <trkpt lat="59.0771282159" lon="29.9883554619"><ele>93.225</ele><time>2026-04-25T14:53:08.000Z</time><hdop>3.0</hdop><vdop>3.0</vdop><extensions><gom:speed>1.27</gom:speed></extensions></trkpt>
   <trkpt lat="59.0771282159" lon="29.9883554619"><ele>93.23</ele><time>2026-04-25T14:53:08.000Z</time><hdop>3.0</hdop><vdop>3.0</vdop><extensions><gom:speed>1.27</gom:speed></extensions></trkpt>
   <trkpt lat="59.0771155173" lon="29.988360072"><ele>93.248</ele><time>2026-04-25T14:53:09.000Z</time><hdop>3.062</hdop><vdop>3.062</vdop><extensions><gom:speed>1.331</gom:speed></extensions></trkpt>
   <trkpt lat="59.0771015195" lon="29.9883645144"><ele>93.295</ele><time>2026-04-25T14:53:10.000Z</time><hdop>3.187</hdop><vdop>3.187</vdop><extensions><gom:speed>1.413</gom:speed></extensions></trkpt>
   <trkpt lat="59.0770873541" lon="29.9883676995"><ele>93.4</ele><time>2026-04-25T14:53:11.000Z</time><hdop>3.187</hdop><vdop>3.187</vdop><extensions><gom:speed>1.393</gom:speed></extensions></trkpt>
   <trkpt lat="59.0770731049" lon="29.9883702979"><ele>93.548</ele><time>2026-04-25T14:53:12.000Z</time><hdop>3.25</hdop><vdop>3.25</vdop><extensions><gom:speed>1.484</gom:speed></extensions></trkpt>
   <trkpt lat="59.0770579755" lon="29.988368873"><ele>93.65</ele><time>2026-04-25T14:53:13.000Z</time><hdop>3.187</hdop><vdop>3.187</vdop><extensions><gom:speed>1.56</gom:speed></extensions></trkpt>
   <trkpt lat="59.0770447321" lon="29.988364682"><ele>93.756</ele><time>2026-04-25T14:53:14.000Z</time><hdop>3.0</hdop><vdop>3.0</vdop><extensions><gom:speed>1.398</gom:speed></extensions></trkpt>
   <trkpt lat="59.077031824" lon="29.9883635924"><ele>93.882</ele><time>2026-04-25T14:53:15.000Z</time><hdop>3.0</hdop><vdop>3.0</vdop><extensions><gom:speed>1.465</gom:speed></extensions></trkpt>
   <trkpt lat="59.0770187482" lon="29.9883642629"><ele>94.09</ele><time>2026-04-25T14:53:16.000Z</time><hdop>3.0</hdop><vdop>3.0</vdop><extensions><gom:speed>1.524</gom:speed></extensions></trkpt>
   <trkpt lat="59.0770053791" lon="29.9883640115"><ele>94.374</ele><time>2026-04-25T14:53:17.000Z</time><hdop>3.125</hdop><vdop>3.125</vdop><extensions><gom:speed>1.466</gom:speed></extensions></trkpt>
   <trkpt lat="59.0769909622" lon="29.9883627542"><ele>94.575</ele><time>2026-04-25T14:53:18.000Z</time><hdop>3.0</hdop><vdop>3.0</vdop><extensions><gom:speed>1.44</gom:speed></extensions></trkpt>
   <trkpt lat="59.0769759167" lon="29.9883607425"><ele>94.697</ele><time>2026-04-25T14:53:19.000Z</time><hdop>3.0</hdop><vdop>3.0</vdop><extensions><gom:speed>1.533</gom:speed></extensions></trkpt>
   <trkpt lat="59.0769627571" lon="29.988361916"><ele>94.804</ele><time>2026-04-25T14:53:20.000Z</time><hdop>3.0</hdop><vdop>3.0</vdop><extensions><gom:speed>1.462</gom:speed></extensions></trkpt>
   <trkpt lat="59.0769492623" lon="29.9883638438"><ele>94.834</ele><time>2026-04-25T14:53:21.000Z</time><hdop>3.0</hdop><vdop>3.0</vdop><extensions><gom:speed>1.462</gom:speed></extensions></trkpt>
   <trkpt lat="59.0769347197" lon="29.9883626704"><ele>94.809</ele><time>2026-04-25T14:53:22.000Z</time><hdop>3.0</hdop><vdop>3.0</vdop><extensions><gom:speed>1.58</gom:speed></extensions></trkpt>
   <trkpt lat="59.0769201351" lon="29.9883580603"><ele>94.807</ele><time>2026-04-25T14:53:23.000Z</time><hdop>3.0</hdop><vdop>3.0</vdop><extensions><gom:speed>1.604</gom:speed></extensions></trkpt>
   <trkpt lat="59.0769062631" lon="29.9883517739"><ele>94.833</ele><time>2026-04-25T14:53:24.000Z</time><hdop>3.0</hdop><vdop>3.0</vdop><extensions><gom:speed>1.514</gom:speed></extensions></trkpt>
   <trkpt lat="59.0768926844" lon="29.9883463256"><ele>94.842</ele><time>2026-04-25T14:53:25.000Z</time><hdop>3.0</hdop><vdop>3.0</vdop><extensions><gom:speed>1.396</gom:speed></extensions></trkpt>
   <trkpt lat="59.0768790219" lon="29.9883408774"><ele>94.854</ele><time>2026-04-25T14:53:26.000Z</time><hdop>3.0</hdop><vdop>3.0</vdop><extensions><gom:speed>1.398</gom:speed></extensions></trkpt>
   <trkpt lat="59.0768656947" lon="29.9883375246"><ele>94.867</ele><time>2026-04-25T14:53:27.000Z</time><hdop>3.0</hdop><vdop>3.0</vdop><extensions><gom:speed>1.415</gom:speed></extensions></trkpt>
   <trkpt lat="59.0768523675" lon="29.9883363512"><ele>94.906</ele><time>2026-04-25T14:53:28.000Z</time><hdop>3.0</hdop><vdop>3.0</vdop><extensions><gom:speed>1.549</gom:speed></extensions></trkpt>
   <trkpt lat="59.0768523675" lon="29.9883363512"><ele>94.93</ele><time>2026-04-25T14:53:28.000Z</time><hdop>3.0</hdop><vdop>3.0</vdop><extensions><gom:speed>1.549</gom:speed></extensions></trkpt>
   <trkpt lat="59.0768381182" lon="29.9883334175"><ele>94.952</ele><time>2026-04-25T14:53:29.000Z</time><hdop>3.0</hdop><vdop>3.0</vdop><extensions><gom:speed>1.698</gom:speed></extensions></trkpt>
   <trkpt lat="59.0768240785" lon="29.988329478"><ele>94.99</ele><time>2026-04-25T14:53:30.000Z</time><hdop>3.0</hdop><vdop>3.0</vdop><extensions><gom:speed>1.646</gom:speed></extensions></trkpt>
   <trkpt lat="59.0768111285" lon="29.9883213476"><ele>95.016</ele><time>2026-04-25T14:53:31.000Z</time><hdop>3.0</hdop><vdop>3.0</vdop><extensions><gom:speed>1.467</gom:speed></extensions></trkpt>
   <trkpt lat="59.0767990586" lon="29.9883111217"><ele>95.044</ele><time>2026-04-25T14:53:32.000Z</time><hdop>3.0</hdop><vdop>3.0</vdop><extensions><gom:speed>1.381</gom:speed></extensions></trkpt>
   <trkpt lat="59.0767870724" lon="29.9883041647"><ele>95.13</ele><time>2026-04-25T14:53:33.000Z</time><hdop>3.0</hdop><vdop>3.0</vdop><extensions><gom:speed>1.342</gom:speed></extensions></trkpt>
   <trkpt lat="59.0767743739" lon="29.9882969562"><ele>95.209</ele><time>2026-04-25T14:53:34.000Z</time><hdop>3.0</hdop><vdop>3.0</vdop><extensions><gom:speed>1.414</gom:speed></extensions></trkpt>
   <trkpt lat="59.0767609628" lon="29.9882884067"><ele>95.262</ele><time>2026-04-25T14:53:35.000Z</time><hdop>3.0</hdop><vdop>3.0</vdop><extensions><gom:speed>1.535</gom:speed></extensions></trkpt>
   <trkpt lat="59.0767466298" lon="29.9882811144"><ele>95.279</ele><time>2026-04-25T14:53:36.000Z</time><hdop>3.0</hdop><vdop>3.0</vdop><extensions><gom:speed>1.551</gom:speed></extensions></trkpt>
   <trkpt lat="59.0767330092" lon="29.9882744927"><ele>95.242</ele><time>2026-04-25T14:53:37.000Z</time><hdop>3.0</hdop><vdop>3.0</vdop><extensions><gom:speed>1.513</gom:speed></extensions></trkpt>
   <trkpt lat="59.0767189695" lon="29.9882686254"><ele>95.285</ele><time>2026-04-25T14:53:38.000Z</time><hdop>3.0</hdop><vdop>3.0</vdop><extensions><gom:speed>1.59</gom:speed></extensions></trkpt>
   <trkpt lat="59.0767035049" lon="29.9882621713"><ele>95.291</ele><time>2026-04-25T14:53:39.000Z</time><hdop>3.0</hdop><vdop>3.0</vdop><extensions><gom:speed>1.582</gom:speed></extensions></trkpt>
   <trkpt lat="59.0766892975" lon="29.9882567231"><ele>95.272</ele><time>2026-04-25T14:53:40.000Z</time><hdop>3.0</hdop><vdop>3.0</vdop><extensions><gom:speed>1.677</gom:speed></extensions></trkpt>
   <trkpt lat="59.0766747968" lon="29.9882505205"><ele>95.205</ele><time>2026-04-25T14:53:41.000Z</time><hdop>3.0</hdop><vdop>3.0</vdop><extensions><gom:speed>1.549</gom:speed></extensions></trkpt>
   <trkpt lat="59.0766619306" lon="29.988240546"><ele>95.112</ele><time>2026-04-25T14:53:42.000Z</time><hdop>3.0</hdop><vdop>3.0</vdop><extensions><gom:speed>1.457</gom:speed></extensions></trkpt>
   <trkpt lat="59.0766514532" lon="29.9882247042"><ele>95.1</ele><time>2026-04-25T14:53:43.000Z</time><hdop>3.0</hdop><vdop>3.0</vdop><extensions><gom:speed>1.381</gom:speed></extensions></trkpt>
   <trkpt lat="59.0766407244" lon="29.9882111255"><ele>95.113</ele><time>2026-04-25T14:53:44.000Z</time><hdop>3.0</hdop><vdop>3.0</vdop><extensions><gom:speed>1.38</gom:speed></extensions></trkpt>
   <trkpt lat="59.0766308338" lon="29.9881981336"><ele>95.183</ele><time>2026-04-25T14:53:45.000Z</time><hdop>3.0</hdop><vdop>3.0</vdop><extensions><gom:speed>1.425</gom:speed></extensions></trkpt>
   <trkpt lat="59.0766174646" lon="29.9881887459"><ele>95.199</ele><time>2026-04-25T14:53:46.000Z</time><hdop>3.0</hdop><vdop>3.0</vdop><extensions><gom:speed>1.313</gom:speed></extensions></trkpt>
   <trkpt lat="59.0766057719" lon="29.988182208"><ele>95.23</ele><time>2026-04-25T14:53:47.000Z</time><hdop>3.0</hdop><vdop>3.0</vdop><extensions><gom:speed>1.366</gom:speed></extensions></trkpt>
   <trkpt lat="59.0765939953" lon="29.9881702219"><ele>95.278</ele><time>2026-04-25T14:53:48.000Z</time><hdop>3.0</hdop><vdop>3.0</vdop><extensions><gom:speed>1.495</gom:speed></extensions></trkpt>
   <trkpt lat="59.0765939953" lon="29.9881702219"><ele>95.307</ele><time>2026-04-25T14:53:48.000Z</time><hdop>3.0</hdop><vdop>3.0</vdop><extensions><gom:speed>1.495</gom:speed></extensions></trkpt>
   <trkpt lat="59.0765806681" lon="29.9881584034"><ele>95.287</ele><time>2026-04-25T14:53:49.000Z</time><hdop>3.0</hdop><vdop>3.0</vdop><extensions><gom:speed>1.465</gom:speed></extensions></trkpt>
   <trkpt lat="59.0765674666" lon="29.9881464173"><ele>95.293</ele><time>2026-04-25T14:53:50.000Z</time><hdop>3.0</hdop><vdop>3.0</vdop><extensions><gom:speed>1.479</gom:speed></extensions></trkpt>
   <trkpt lat="59.0765549775" lon="29.9881332577"><ele>95.302</ele><time>2026-04-25T14:53:51.000Z</time><hdop>3.0</hdop><vdop>3.0</vdop><extensions><gom:speed>1.504</gom:speed></extensions></trkpt>
   <trkpt lat="59.076543662" lon="29.9881197628"><ele>95.301</ele><time>2026-04-25T14:53:52.000Z</time><hdop>3.0</hdop><vdop>3.0</vdop><extensions><gom:speed>1.34</gom:speed></extensions></trkpt>
   <trkpt lat="59.0765324302" lon="29.9881072738"><ele>95.307</ele><time>2026-04-25T14:53:53.000Z</time><hdop>3.0</hdop><vdop>3.0</vdop><extensions><gom:speed>1.449</gom:speed></extensions></trkpt>
   <trkpt lat="59.0765192706" lon="29.9880952876"><ele>95.358</ele><time>2026-04-25T14:53:54.000Z</time><hdop>3.0</hdop><vdop>3.0</vdop><extensions><gom:speed>1.498</gom:speed></extensions></trkpt>
   <trkpt lat="59.0765049376" lon="29.9880864028"><ele>95.379</ele><time>2026-04-25T14:53:55.000Z</time><hdop>3.0</hdop><vdop>3.0</vdop><extensions><gom:speed>1.524</gom:speed></extensions></trkpt>
   <trkpt lat="59.0764898501" lon="29.9880763445"><ele>95.399</ele><time>2026-04-25T14:53:56.000Z</time><hdop>3.0</hdop><vdop>3.0</vdop><extensions><gom:speed>1.681</gom:speed></extensions></trkpt>
   <trkpt lat="59.076474637" lon="29.988065029"><ele>95.444</ele><time>2026-04-25T14:53:57.000Z</time><hdop>3.0</hdop><vdop>3.0</vdop><extensions><gom:speed>1.698</gom:speed></extensions></trkpt>
   <trkpt lat="59.0764582504" lon="29.9880539649"><ele>95.367</ele><time>2026-04-25T14:53:58.000Z</time><hdop>3.0</hdop><vdop>3.0</vdop><extensions><gom:speed>1.642</gom:speed></extensions></trkpt>
   <trkpt lat="59.0764410256" lon="29.9880478461"><ele>95.238</ele><time>2026-04-25T14:53:59.000Z</time><hdop>3.0</hdop><vdop>3.0</vdop><extensions><gom:speed>1.809</gom:speed></extensions></trkpt>
   <trkpt lat="59.0764242618" lon="29.9880456668"><ele>95.049</ele><time>2026-04-25T14:54:00.000Z</time><hdop>3.0</hdop><vdop>3.0</vdop><extensions><gom:speed>1.615</gom:speed></extensions></trkpt>
   <trkpt lat="59.0764082942" lon="29.9880473432"><ele>94.877</ele><time>2026-04-25T14:54:01.000Z</time><hdop>3.0</hdop><vdop>3.0</vdop><extensions><gom:speed>1.875</gom:speed></extensions></trkpt>
   <trkpt lat="59.0763922429" lon="29.9880472593"><ele>94.767</ele><time>2026-04-25T14:54:02.000Z</time><hdop>3.0</hdop><vdop>3.0</vdop><extensions><gom:speed>1.603</gom:speed></extensions></trkpt>
   <trkpt lat="59.0763784966" lon="29.9880495225"><ele>94.734</ele><time>2026-04-25T14:54:03.000Z</time><hdop>3.0</hdop><vdop>3.0</vdop><extensions><gom:speed>1.628</gom:speed></extensions></trkpt>
   <trkpt lat="59.0763654208" lon="29.9880473432"><ele>94.776</ele><time>2026-04-25T14:54:04.000Z</time><hdop>3.0</hdop><vdop>3.0</vdop><extensions><gom:speed>1.512</gom:speed></extensions></trkpt>
   <trkpt lat="59.076352345" lon="29.9880401347"><ele>94.753</ele><time>2026-04-25T14:54:05.000Z</time><hdop>3.0</hdop><vdop>3.0</vdop><extensions><gom:speed>1.413</gom:speed></extensions></trkpt>
   <trkpt lat="59.0763394788" lon="29.9880351056"><ele>94.683</ele><time>2026-04-25T14:54:06.000Z</time><hdop>3.0</hdop><vdop>3.0</vdop><extensions><gom:speed>1.517</gom:speed></extensions></trkpt>
   <trkpt lat="59.0763258582" lon="29.9880315852"><ele>94.587</ele><time>2026-04-25T14:54:07.000Z</time><hdop>3.0</hdop><vdop>3.0</vdop><extensions><gom:speed>1.45</gom:speed></extensions></trkpt>
   <trkpt lat="59.0763116928" lon="29.9880308308"><ele>94.55</ele><time>2026-04-25T14:54:08.000Z</time><hdop>3.0</hdop><vdop>3.0</vdop><extensions><gom:speed>1.477</gom:speed></extensions></trkpt>
   <trkpt lat="59.0763116928" lon="29.9880308308"><ele>94.527</ele><time>2026-04-25T14:54:08.000Z</time><hdop>3.0</hdop><vdop>3.0</vdop><extensions><gom:speed>1.477</gom:speed></extensions></trkpt>
   <trkpt lat="59.0762977788" lon="29.9880296573"><ele>94.544</ele><time>2026-04-25T14:54:09.000Z</time><hdop>3.0</hdop><vdop>3.0</vdop><extensions><gom:speed>1.694</gom:speed></extensions></trkpt>
   <trkpt lat="59.0762816856" lon="29.9880280648"><ele>94.511</ele><time>2026-04-25T14:54:10.000Z</time><hdop>3.0</hdop><vdop>3.0</vdop><extensions><gom:speed>1.907</gom:speed></extensions></trkpt>
   <trkpt lat="59.0762651313" lon="29.9880275619"><ele>94.426</ele><time>2026-04-25T14:54:11.000Z</time><hdop>3.0</hdop><vdop>3.0</vdop><extensions><gom:speed>1.78</gom:speed></extensions></trkpt>
   <trkpt lat="59.0762491638" lon="29.9880261369"><ele>94.366</ele><time>2026-04-25T14:54:12.000Z</time><hdop>3.0</hdop><vdop>3.0</vdop><extensions><gom:speed>1.794</gom:speed></extensions></trkpt>
   <trkpt lat="59.0762340345" lon="29.988024712"><ele>94.36</ele><time>2026-04-25T14:54:13.000Z</time><hdop>3.0</hdop><vdop>3.0</vdop><extensions><gom:speed>1.664</gom:speed></extensions></trkpt>
   <trkpt lat="59.0762191566" lon="29.9880247958"><ele>94.39</ele><time>2026-04-25T14:54:14.000Z</time><hdop>3.0</hdop><vdop>3.0</vdop><extensions><gom:speed>1.574</gom:speed></extensions></trkpt>
   <trkpt lat="59.0762042787" lon="29.9880249635"><ele>94.447</ele><time>2026-04-25T14:54:15.000Z</time><hdop>3.0</hdop><vdop>3.0</vdop><extensions><gom:speed>1.638</gom:speed></extensions></trkpt>
   <trkpt lat="59.0761906162" lon="29.9880227004"><ele>94.539</ele><time>2026-04-25T14:54:16.000Z</time><hdop>3.0</hdop><vdop>3.0</vdop><extensions><gom:speed>1.332</gom:speed></extensions></trkpt>
   <trkpt lat="59.0761785463" lon="29.9880188447"><ele>94.601</ele><time>2026-04-25T14:54:17.000Z</time><hdop>3.0</hdop><vdop>3.0</vdop><extensions><gom:speed>1.164</gom:speed></extensions></trkpt>
   <trkpt lat="59.0761673145" lon="29.9880170845"><ele>94.648</ele><time>2026-04-25T14:54:18.000Z</time><hdop>3.0</hdop><vdop>3.0</vdop><extensions><gom:speed>1.046</gom:speed></extensions></trkpt>
   <trkpt lat="59.076155496" lon="29.9880150728"><ele>94.716</ele><time>2026-04-25T14:54:19.000Z</time><hdop>3.0</hdop><vdop>3.0</vdop><extensions><gom:speed>1.211</gom:speed></extensions></trkpt>
   <trkpt lat="59.0761429232" lon="29.9880148214"><ele>94.762</ele><time>2026-04-25T14:54:20.000Z</time><hdop>3.0</hdop><vdop>3.0</vdop><extensions><gom:speed>1.226</gom:speed></extensions></trkpt>
   <trkpt lat="59.0761300989" lon="29.9880150728"><ele>94.771</ele><time>2026-04-25T14:54:21.000Z</time><hdop>3.0</hdop><vdop>3.0</vdop><extensions><gom:speed>1.29</gom:speed></extensions></trkpt>
   <trkpt lat="59.0761163106" lon="29.9880151567"><ele>94.787</ele><time>2026-04-25T14:54:22.000Z</time><hdop>3.0</hdop><vdop>3.0</vdop><extensions><gom:speed>1.382</gom:speed></extensions></trkpt>
   <trkpt lat="59.0761029834" lon="29.9880118039"><ele>94.766</ele><time>2026-04-25T14:54:23.000Z</time><hdop>3.0</hdop><vdop>3.0</vdop><extensions><gom:speed>1.276</gom:speed></extensions></trkpt>
   <trkpt lat="59.0760897819" lon="29.9880019971"><ele>94.667</ele><time>2026-04-25T14:54:24.000Z</time><hdop>3.0</hdop><vdop>3.0</vdop><extensions><gom:speed>1.503</gom:speed></extensions></trkpt>
   <trkpt lat="59.0760765385" lon="29.9879933637"><ele>94.57</ele><time>2026-04-25T14:54:25.000Z</time><hdop>3.0</hdop><vdop>3.0</vdop><extensions><gom:speed>1.3</gom:speed></extensions></trkpt>
   <trkpt lat="59.0760632113" lon="29.9879919388"><ele>94.543</ele><time>2026-04-25T14:54:26.000Z</time><hdop>3.0</hdop><vdop>3.0</vdop><extensions><gom:speed>1.471</gom:speed></extensions></trkpt>
   <trkpt lat="59.0760491297" lon="29.9879924417"><ele>94.505</ele><time>2026-04-25T14:54:27.000Z</time><hdop>3.0</hdop><vdop>3.0</vdop><extensions><gom:speed>1.415</gom:speed></extensions></trkpt>
   <trkpt lat="59.076037395" lon="29.9879926093"><ele>94.475</ele><time>2026-04-25T14:54:28.000Z</time><hdop>3.0</hdop><vdop>3.0</vdop><extensions><gom:speed>1.158</gom:speed></extensions></trkpt>
   <trkpt lat="59.076037395" lon="29.9879926093"><ele>94.457</ele><time>2026-04-25T14:54:28.000Z</time><hdop>3.0</hdop><vdop>3.0</vdop><extensions><gom:speed>1.158</gom:speed></extensions></trkpt>
   <trkpt lat="59.076026289" lon="29.9879898433"><ele>94.477</ele><time>2026-04-25T14:54:29.000Z</time><hdop>3.0</hdop><vdop>3.0</vdop><extensions><gom:speed>1.276</gom:speed></extensions></trkpt>
   <trkpt lat="59.0760134228" lon="29.9879838083"><ele>94.486</ele><time>2026-04-25T14:54:30.000Z</time><hdop>3.0</hdop><vdop>3.0</vdop><extensions><gom:speed>1.501</gom:speed></extensions></trkpt>
   <trkpt lat="59.0759999698" lon="29.9879754264"><ele>94.527</ele><time>2026-04-25T14:54:31.000Z</time><hdop>3.0</hdop><vdop>3.0</vdop><extensions><gom:speed>1.426</gom:speed></extensions></trkpt>
   <trkpt lat="59.075986936" lon="29.9879658711"><ele>94.491</ele><time>2026-04-25T14:54:32.000Z</time><hdop>3.0</hdop><vdop>3.0</vdop><extensions><gom:speed>1.264</gom:speed></extensions></trkpt>
   <trkpt lat="59.0759733154" lon="29.9879554775"><ele>94.41</ele><time>2026-04-25T14:54:33.000Z</time><hdop>3.0</hdop><vdop>3.0</vdop><extensions><gom:speed>1.438</gom:speed></extensions></trkpt>
   <trkpt lat="59.0759578508" lon="29.9879475985"><ele>94.354</ele><time>2026-04-25T14:54:34.000Z</time><hdop>3.0</hdop><vdop>3.0</vdop><extensions><gom:speed>1.649</gom:speed></extensions></trkpt>
   <trkpt lat="59.0759420509" lon="29.9879383784"><ele>94.367</ele><time>2026-04-25T14:54:35.000Z</time><hdop>3.0</hdop><vdop>3.0</vdop><extensions><gom:speed>1.778</gom:speed></extensions></trkpt>
   <trkpt lat="59.0759276759" lon="29.9879315053"><ele>94.357</ele><time>2026-04-25T14:54:36.000Z</time><hdop>3.0</hdop><vdop>3.0</vdop><extensions><gom:speed>1.522</gom:speed></extensions></trkpt>
   <trkpt lat="59.0759142229" lon="29.9879259732"><ele>94.382</ele><time>2026-04-25T14:54:37.000Z</time><hdop>3.0</hdop><vdop>3.0</vdop><extensions><gom:speed>1.545</gom:speed></extensions></trkpt>
   <trkpt lat="59.0759018177" lon="29.9879215308"><ele>94.398</ele><time>2026-04-25T14:54:38.000Z</time><hdop>3.0</hdop><vdop>3.0</vdop><extensions><gom:speed>1.423</gom:speed></extensions></trkpt>
   <trkpt lat="59.0758886581" lon="29.9879182619"><ele>94.385</ele><time>2026-04-25T14:54:39.000Z</time><hdop>3.0</hdop><vdop>3.0</vdop><extensions><gom:speed>1.491</gom:speed></extensions></trkpt>
   <trkpt lat="59.0758741994" lon="29.9879159987"><ele>94.397</ele><time>2026-04-25T14:54:40.000Z</time><hdop>3.0</hdop><vdop>3.0</vdop><extensions><gom:speed>1.606</gom:speed></extensions></trkpt>
   <trkpt lat="59.0758594891" lon="29.9879125622"><ele>94.452</ele><time>2026-04-25T14:54:41.000Z</time><hdop>3.0</hdop><vdop>3.0</vdop><extensions><gom:speed>1.569</gom:speed></extensions></trkpt>
   <trkpt lat="59.0758454913" lon="29.9879099638"><ele>94.479</ele><time>2026-04-25T14:54:42.000Z</time><hdop>3.0</hdop><vdop>3.0</vdop><extensions><gom:speed>1.478</gom:speed></extensions></trkpt>
   <trkpt lat="59.0758323318" lon="29.9879129813"><ele>94.512</ele><time>2026-04-25T14:54:43.000Z</time><hdop>3.0</hdop><vdop>3.0</vdop><extensions><gom:speed>1.359</gom:speed></extensions></trkpt>
   <trkpt lat="59.075820178" lon="29.9879170046"><ele>94.542</ele><time>2026-04-25T14:54:44.000Z</time><hdop>3.0</hdop><vdop>3.0</vdop><extensions><gom:speed>1.258</gom:speed></extensions></trkpt>
   <trkpt lat="59.0758093234" lon="29.9879204411"><ele>94.552</ele><time>2026-04-25T14:54:45.000Z</time><hdop>3.0</hdop><vdop>3.0</vdop><extensions><gom:speed>1.149</gom:speed></extensions></trkpt>
   <trkpt lat="59.0757988461" lon="29.9879233748"><ele>94.564</ele><time>2026-04-25T14:54:46.000Z</time><hdop>3.0</hdop><vdop>3.0</vdop><extensions><gom:speed>1.244</gom:speed></extensions></trkpt>
   <trkpt lat="59.0757876143" lon="29.9879268114"><ele>94.541</ele><time>2026-04-25T14:54:47.000Z</time><hdop>3.0</hdop><vdop>3.0</vdop><extensions><gom:speed>1.292</gom:speed></extensions></trkpt>
   <trkpt lat="59.0757761311" lon="29.9879296612"><ele>94.547</ele><time>2026-04-25T14:54:48.000Z</time><hdop>3.0</hdop><vdop>3.0</vdop><extensions><gom:speed>1.308</gom:speed></extensions></trkpt>
   <trkpt lat="59.0757761311" lon="29.9879296612"><ele>94.551</ele><time>2026-04-25T14:54:48.000Z</time><hdop>3.0</hdop><vdop>3.0</vdop><extensions><gom:speed>1.308</gom:speed></extensions></trkpt>
   <trkpt lat="59.0757677911" lon="29.9879336007"><ele>94.627</ele><time>2026-04-25T14:54:49.000Z</time><hdop>3.0</hdop><vdop>3.0</vdop><extensions><gom:speed>0.866</gom:speed></extensions></trkpt>
   <trkpt lat="59.0757597864" lon="29.9879388813"><ele>94.704</ele><time>2026-04-25T14:54:50.000Z</time><hdop>3.0</hdop><vdop>3.0</vdop><extensions><gom:speed>1.037</gom:speed></extensions></trkpt>
   <trkpt lat="59.0757496862" lon="29.9879421503"><ele>94.74</ele><time>2026-04-25T14:54:51.000Z</time><hdop>3.0</hdop><vdop>3.0</vdop><extensions><gom:speed>1.119</gom:speed></extensions></trkpt>
   <trkpt lat="59.0757388735" lon="29.9879434914"><ele>94.795</ele><time>2026-04-25T14:54:52.000Z</time><hdop>3.0</hdop><vdop>3.0</vdop><extensions><gom:speed>1.16</gom:speed></extensions></trkpt>
   <trkpt lat="59.0757278932" lon="29.9879413959"><ele>94.741</ele><time>2026-04-25T14:54:53.000Z</time><hdop>3.0</hdop><vdop>3.0</vdop><extensions><gom:speed>1.047</gom:speed></extensions></trkpt>
   <trkpt lat="59.0757170387" lon="29.9879408092"><ele>94.689</ele><time>2026-04-25T14:54:54.000Z</time><hdop>3.0</hdop><vdop>3.0</vdop><extensions><gom:speed>1.061</gom:speed></extensions></trkpt>
   <trkpt lat="59.0757050526" lon="29.9879426532"><ele>94.702</ele><time>2026-04-25T14:54:55.000Z</time><hdop>3.0</hdop><vdop>3.0</vdop><extensions><gom:speed>1.083</gom:speed></extensions></trkpt>
   <trkpt lat="59.0756970478" lon="29.9879480176"><ele>94.716</ele><time>2026-04-25T14:54:56.000Z</time><hdop>3.0</hdop><vdop>3.0</vdop><extensions><gom:speed>0.737</gom:speed></extensions></trkpt>
   <trkpt lat="59.0756970478" lon="29.9879480176"><ele>94.725</ele><time>2026-04-25T14:54:57.000Z</time><hdop>3.0</hdop><vdop>3.0</vdop><extensions><gom:speed>0.0</gom:speed></extensions></trkpt>
   <trkpt lat="59.0756970478" lon="29.9879480176"><ele>94.73</ele><time>2026-04-25T14:54:58.000Z</time><hdop>3.0</hdop><vdop>3.0</vdop><extensions><gom:speed>0.0</gom:speed></extensions></trkpt>
   <trkpt lat="59.0756970478" lon="29.9879480176"><ele>94.733</ele><time>2026-04-25T14:54:59.000Z</time><hdop>3.0</hdop><vdop>3.0</vdop><extensions><gom:speed>0.0</gom:speed></extensions></trkpt>
   <trkpt lat="59.0756970478" lon="29.9879480176"><ele>94.735</ele><time>2026-04-25T14:55:00.000Z</time><hdop>3.0</hdop><vdop>3.0</vdop><extensions><gom:speed>0.0</gom:speed></extensions></trkpt>
   <trkpt lat="59.0756970478" lon="29.9879480176"><ele>94.736</ele><time>2026-04-25T14:55:01.000Z</time><hdop>3.0</hdop><vdop>3.0</vdop><extensions><gom:speed>0.0</gom:speed></extensions></trkpt>
   <trkpt lat="59.0756951619" lon="29.9879444134"><ele>94.758</ele><time>2026-04-25T14:55:02.000Z</time><hdop>3.0</hdop><vdop>3.0</vdop><extensions><gom:speed>0.214</gom:speed></extensions></trkpt>
   <trkpt lat="59.0756951619" lon="29.9879444134"><ele>94.771</ele><time>2026-04-25T14:55:03.000Z</time><hdop>3.0</hdop><vdop>3.0</vdop><extensions><gom:speed>0.0</gom:speed></extensions></trkpt>
   <trkpt lat="59.0756951619" lon="29.9879444134"><ele>94.779</ele><time>2026-04-25T14:55:04.000Z</time><hdop>3.0</hdop><vdop>3.0</vdop><extensions><gom:speed>0.0</gom:speed></extensions></trkpt>
   <trkpt lat="59.0756951619" lon="29.9879444134"><ele>94.784</ele><time>2026-04-25T14:55:05.000Z</time><hdop>3.0</hdop><vdop>3.0</vdop><extensions><gom:speed>0.0</gom:speed></extensions></trkpt>
   <trkpt lat="59.0756951619" lon="29.9879444134"><ele>94.786</ele><time>2026-04-25T14:55:06.000Z</time><hdop>3.0</hdop><vdop>3.0</vdop><extensions><gom:speed>0.0</gom:speed></extensions></trkpt>
   <trkpt lat="59.0756951619" lon="29.9879444134"><ele>94.788</ele><time>2026-04-25T14:55:07.000Z</time><hdop>3.0</hdop><vdop>3.0</vdop><extensions><gom:speed>0.0</gom:speed></extensions></trkpt>
   <trkpt lat="59.0756951619" lon="29.9879444134"><ele>94.789</ele><time>2026-04-25T14:55:08.000Z</time><hdop>3.0</hdop><vdop>3.0</vdop><extensions><gom:speed>0.0</gom:speed></extensions></trkpt>
   <trkpt lat="59.0756951619" lon="29.9879444134"><ele>94.79</ele><time>2026-04-25T14:55:08.000Z</time><hdop>3.0</hdop><vdop>3.0</vdop><extensions><gom:speed>0.0</gom:speed></extensions></trkpt>
   <trkpt lat="59.0756951619" lon="29.9879444134"><ele>94.79</ele><time>2026-04-25T14:55:09.000Z</time><hdop>3.0</hdop><vdop>3.0</vdop><extensions><gom:speed>0.0</gom:speed></extensions></trkpt>
   <trkpt lat="59.0756951619" lon="29.9879444134"><ele>94.79</ele><time>2026-04-25T14:55:10.000Z</time><hdop>3.0</hdop><vdop>3.0</vdop><extensions><gom:speed>0.0</gom:speed></extensions></trkpt>
   <trkpt lat="59.0756951619" lon="29.9879444134"><ele>94.79</ele><time>2026-04-25T14:55:11.000Z</time><hdop>3.0</hdop><vdop>3.0</vdop><extensions><gom:speed>0.0</gom:speed></extensions></trkpt>
   <trkpt lat="59.0756951619" lon="29.9879444134"><ele>94.79</ele><time>2026-04-25T14:55:12.000Z</time><hdop>3.0</hdop><vdop>3.0</vdop><extensions><gom:speed>0.0</gom:speed></extensions></trkpt>
   <trkpt lat="59.0756951619" lon="29.9879444134"><ele>94.79</ele><time>2026-04-25T14:55:13.000Z</time><hdop>3.0</hdop><vdop>3.0</vdop><extensions><gom:speed>0.0</gom:speed></extensions></trkpt>
   <trkpt lat="59.0756951619" lon="29.9879444134"><ele>94.79</ele><time>2026-04-25T14:55:14.000Z</time><hdop>3.0</hdop><vdop>3.0</vdop><extensions><gom:speed>0.0</gom:speed></extensions></trkpt>
   <trkpt lat="59.0756951619" lon="29.9879444134"><ele>94.791</ele><time>2026-04-25T14:55:15.000Z</time><hdop>3.0</hdop><vdop>3.0</vdop><extensions><gom:speed>0.0</gom:speed></extensions></trkpt>
   <trkpt lat="59.0756951619" lon="29.9879444134"><ele>94.791</ele><time>2026-04-25T14:55:16.000Z</time><hdop>3.0</hdop><vdop>3.0</vdop><extensions><gom:speed>0.0</gom:speed></extensions></trkpt>
   <trkpt lat="59.0756951619" lon="29.9879444134"><ele>94.791</ele><time>2026-04-25T14:55:17.000Z</time><hdop>3.0</hdop><vdop>3.0</vdop><extensions><gom:speed>0.0</gom:speed></extensions></trkpt>
   <trkpt lat="59.0756951619" lon="29.9879444134"><ele>94.791</ele><time>2026-04-25T14:55:18.000Z</time><hdop>3.0</hdop><vdop>3.0</vdop><extensions><gom:speed>0.0</gom:speed></extensions></trkpt>
   <trkpt lat="59.0756951619" lon="29.9879444134"><ele>94.791</ele><time>2026-04-25T14:55:19.000Z</time><hdop>3.0</hdop><vdop>3.0</vdop><extensions><gom:speed>0.0</gom:speed></extensions></trkpt>
   <trkpt lat="59.0756951619" lon="29.9879444134"><ele>94.791</ele><time>2026-04-25T14:55:20.000Z</time><hdop>3.0</hdop><vdop>3.0</vdop><extensions><gom:speed>0.0</gom:speed></extensions></trkpt>
   <trkpt lat="59.0756951619" lon="29.9879444134"><ele>94.791</ele><time>2026-04-25T14:55:21.000Z</time><hdop>3.0</hdop><vdop>3.0</vdop><extensions><gom:speed>0.0</gom:speed></extensions></trkpt>
   <trkpt lat="59.0756951619" lon="29.9879444134"><ele>94.791</ele><time>2026-04-25T14:55:22.000Z</time><hdop>3.0</hdop><vdop>3.0</vdop><extensions><gom:speed>0.0</gom:speed></extensions></trkpt>
   <trkpt lat="59.0756951619" lon="29.9879444134"><ele>94.791</ele><time>2026-04-25T14:55:23.000Z</time><hdop>3.0</hdop><vdop>3.0</vdop><extensions><gom:speed>0.0</gom:speed></extensions></trkpt>
   <trkpt lat="59.0756951619" lon="29.9879444134"><ele>94.791</ele><time>2026-04-25T14:55:24.000Z</time><hdop>3.0</hdop><vdop>3.0</vdop><extensions><gom:speed>0.0</gom:speed></extensions></trkpt>
   <trkpt lat="59.0756951619" lon="29.9879444134"><ele>94.791</ele><time>2026-04-25T14:55:25.000Z</time><hdop>3.0</hdop><vdop>3.0</vdop><extensions><gom:speed>0.0</gom:speed></extensions></trkpt>
   <trkpt lat="59.0756951619" lon="29.9879444134"><ele>94.791</ele><time>2026-04-25T14:55:26.000Z</time><hdop>3.0</hdop><vdop>3.0</vdop><extensions><gom:speed>0.0</gom:speed></extensions></trkpt>
   <trkpt lat="59.0756951619" lon="29.9879444134"><ele>94.791</ele><time>2026-04-25T14:55:27.000Z</time><hdop>3.0</hdop><vdop>3.0</vdop><extensions><gom:speed>0.0</gom:speed></extensions></trkpt>
   <trkpt lat="59.0756951619" lon="29.9879444134"><ele>94.791</ele><time>2026-04-25T14:55:28.000Z</time><hdop>3.0</hdop><vdop>3.0</vdop><extensions><gom:speed>0.0</gom:speed></extensions></trkpt>
   <trkpt lat="59.0756951619" lon="29.9879444134"><ele>94.791</ele><time>2026-04-25T14:55:28.000Z</time><hdop>3.0</hdop><vdop>3.0</vdop><extensions><gom:speed>0.0</gom:speed></extensions></trkpt>
   <trkpt lat="59.0756951619" lon="29.9879444134"><ele>94.791</ele><time>2026-04-25T14:55:29.000Z</time><hdop>3.0</hdop><vdop>3.0</vdop><extensions><gom:speed>0.0</gom:speed></extensions></trkpt>
   <trkpt lat="59.0756951619" lon="29.9879444134"><ele>94.791</ele><time>2026-04-25T14:55:30.000Z</time><hdop>3.0</hdop><vdop>3.0</vdop><extensions><gom:speed>0.0</gom:speed></extensions></trkpt>
   <trkpt lat="59.0756951619" lon="29.9879444134"><ele>94.791</ele><time>2026-04-25T14:55:31.000Z</time><hdop>3.0</hdop><vdop>3.0</vdop><extensions><gom:speed>0.0</gom:speed></extensions></trkpt>
   <trkpt lat="59.0756951619" lon="29.9879444134"><ele>94.791</ele><time>2026-04-25T14:55:32.000Z</time><hdop>3.0</hdop><vdop>3.0</vdop><extensions><gom:speed>0.0</gom:speed></extensions></trkpt>
   <trkpt lat="59.0756951619" lon="29.9879444134"><ele>94.791</ele><time>2026-04-25T14:55:33.000Z</time><hdop>3.0</hdop><vdop>3.0</vdop><extensions><gom:speed>0.0</gom:speed></extensions></trkpt>
   <trkpt lat="59.0756951619" lon="29.9879444134"><ele>94.791</ele><time>2026-04-25T14:55:34.000Z</time><hdop>3.0</hdop><vdop>3.0</vdop><extensions><gom:speed>0.0</gom:speed></extensions></trkpt>
   <trkpt lat="59.0756951619" lon="29.9879444134"><ele>94.791</ele><time>2026-04-25T14:55:35.000Z</time><hdop>3.0</hdop><vdop>3.0</vdop><extensions><gom:speed>0.0</gom:speed></extensions></trkpt>
   <trkpt lat="59.0756951619" lon="29.9879444134"><ele>94.791</ele><time>2026-04-25T14:55:36.000Z</time><hdop>3.0</hdop><vdop>3.0</vdop><extensions><gom:speed>0.0</gom:speed></extensions></trkpt>
   <trkpt lat="59.0756951619" lon="29.9879444134"><ele>94.791</ele><time>2026-04-25T14:55:37.000Z</time><hdop>3.0</hdop><vdop>3.0</vdop><extensions><gom:speed>0.0</gom:speed></extensions></trkpt>
   <trkpt lat="59.0756951619" lon="29.9879444134"><ele>94.791</ele><time>2026-04-25T14:55:38.000Z</time><hdop>3.0</hdop><vdop>3.0</vdop><extensions><gom:speed>0.0</gom:speed></extensions></trkpt>
   <trkpt lat="59.0756951619" lon="29.9879444134"><ele>94.791</ele><time>2026-04-25T14:55:39.000Z</time><hdop>3.0</hdop><vdop>3.0</vdop><extensions><gom:speed>0.0</gom:speed></extensions></trkpt>
   <trkpt lat="59.0756951619" lon="29.9879444134"><ele>94.791</ele><time>2026-04-25T14:55:40.000Z</time><hdop>3.0</hdop><vdop>3.0</vdop><extensions><gom:speed>0.0</gom:speed></extensions></trkpt>
   <trkpt lat="59.0756951619" lon="29.9879444134"><ele>94.791</ele><time>2026-04-25T14:55:41.000Z</time><hdop>3.0</hdop><vdop>3.0</vdop><extensions><gom:speed>0.0</gom:speed></extensions></trkpt>
   <trkpt lat="59.0756951619" lon="29.9879444134"><ele>94.791</ele><time>2026-04-25T14:55:42.000Z</time><hdop>3.0</hdop><vdop>3.0</vdop><extensions><gom:speed>0.0</gom:speed></extensions></trkpt>
   <trkpt lat="59.0756951619" lon="29.9879444134"><ele>94.791</ele><time>2026-04-25T14:55:43.000Z</time><hdop>3.0</hdop><vdop>3.0</vdop><extensions><gom:speed>0.0</gom:speed></extensions></trkpt>
   <trkpt lat="59.0756951619" lon="29.9879444134"><ele>94.791</ele><time>2026-04-25T14:55:44.000Z</time><hdop>3.0</hdop><vdop>3.0</vdop><extensions><gom:speed>0.0</gom:speed></extensions></trkpt>
   <trkpt lat="59.0756951619" lon="29.9879444134"><ele>94.791</ele><time>2026-04-25T14:55:45.000Z</time><hdop>3.0</hdop><vdop>3.0</vdop><extensions><gom:speed>0.0</gom:speed></extensions></trkpt>
   <trkpt lat="59.0756951619" lon="29.9879444134"><ele>94.791</ele><time>2026-04-25T14:55:46.000Z</time><hdop>3.0</hdop><vdop>3.0</vdop><extensions><gom:speed>0.0</gom:speed></extensions></trkpt>
   <trkpt lat="59.0756951619" lon="29.9879444134"><ele>94.791</ele><time>2026-04-25T14:55:47.000Z</time><hdop>3.0</hdop><vdop>3.0</vdop><extensions><gom:speed>0.0</gom:speed></extensions></trkpt>
   <trkpt lat="59.0756951619" lon="29.9879444134"><ele>94.791</ele><time>2026-04-25T14:55:48.000Z</time><hdop>3.0</hdop><vdop>3.0</vdop><extensions><gom:speed>0.0</gom:speed></extensions></trkpt>
   <trkpt lat="59.0756951619" lon="29.9879444134"><ele>94.791</ele><time>2026-04-25T14:55:48.000Z</time><hdop>3.0</hdop><vdop>3.0</vdop><extensions><gom:speed>0.0</gom:speed></extensions></trkpt>
   <trkpt lat="59.0756951619" lon="29.9879444134"><ele>94.791</ele><time>2026-04-25T14:55:49.000Z</time><hdop>3.0</hdop><vdop>3.0</vdop><extensions><gom:speed>0.0</gom:speed></extensions></trkpt>
   <trkpt lat="59.0756951619" lon="29.9879444134"><ele>94.791</ele><time>2026-04-25T14:55:50.000Z</time><hdop>3.0</hdop><vdop>3.0</vdop><extensions><gom:speed>0.0</gom:speed></extensions></trkpt>
   <trkpt lat="59.0756951619" lon="29.9879444134"><ele>94.791</ele><time>2026-04-25T14:55:51.000Z</time><hdop>3.0</hdop><vdop>3.0</vdop><extensions><gom:speed>0.0</gom:speed></extensions></trkpt>
   <trkpt lat="59.0756951619" lon="29.9879444134"><ele>94.791</ele><time>2026-04-25T14:55:52.000Z</time><hdop>3.0</hdop><vdop>3.0</vdop><extensions><gom:speed>0.0</gom:speed></extensions></trkpt>
   <trkpt lat="59.0756951619" lon="29.9879444134"><ele>94.791</ele><time>2026-04-25T14:55:53.000Z</time><hdop>3.0</hdop><vdop>3.0</vdop><extensions><gom:speed>0.0</gom:speed></extensions></trkpt>
   <trkpt lat="59.0756951619" lon="29.9879444134"><ele>94.791</ele><time>2026-04-25T14:55:54.000Z</time><hdop>3.0</hdop><vdop>3.0</vdop><extensions><gom:speed>0.0</gom:speed></extensions></trkpt>
   <trkpt lat="59.0756951619" lon="29.9879444134"><ele>94.791</ele><time>2026-04-25T14:55:55.000Z</time><hdop>3.0</hdop><vdop>3.0</vdop><extensions><gom:speed>0.0</gom:speed></extensions></trkpt>
   <trkpt lat="59.0756951619" lon="29.9879444134"><ele>94.791</ele><time>2026-04-25T14:55:56.000Z</time><hdop>3.0</hdop><vdop>3.0</vdop><extensions><gom:speed>0.0</gom:speed></extensions></trkpt>
   <trkpt lat="59.0756951619" lon="29.9879444134"><ele>94.791</ele><time>2026-04-25T14:55:57.000Z</time><hdop>3.0</hdop><vdop>3.0</vdop><extensions><gom:speed>0.0</gom:speed></extensions></trkpt>
   <trkpt lat="59.0756951619" lon="29.9879444134"><ele>94.791</ele><time>2026-04-25T14:55:58.000Z</time><hdop>3.0</hdop><vdop>3.0</vdop><extensions><gom:speed>0.0</gom:speed></extensions></trkpt>
   <trkpt lat="59.0756951619" lon="29.9879444134"><ele>94.791</ele><time>2026-04-25T14:55:59.000Z</time><hdop>3.0</hdop><vdop>3.0</vdop><extensions><gom:speed>0.0</gom:speed></extensions></trkpt>
   <trkpt lat="59.0756951619" lon="29.9879444134"><ele>94.791</ele><time>2026-04-25T14:56:00.000Z</time><hdop>3.0</hdop><vdop>3.0</vdop><extensions><gom:speed>0.0</gom:speed></extensions></trkpt>
   <trkpt lat="59.0756951619" lon="29.9879444134"><ele>94.791</ele><time>2026-04-25T14:56:01.000Z</time><hdop>3.0</hdop><vdop>3.0</vdop><extensions><gom:speed>0.0</gom:speed></extensions></trkpt>
   <trkpt lat="59.0756951619" lon="29.9879444134"><ele>94.791</ele><time>2026-04-25T14:56:02.000Z</time><hdop>3.0</hdop><vdop>3.0</vdop><extensions><gom:speed>0.0</gom:speed></extensions></trkpt>
   <trkpt lat="59.0756964192" lon="29.9879410606"><ele>94.908</ele><time>2026-04-25T14:56:03.000Z</time><hdop>3.187</hdop><vdop>3.187</vdop><extensions><gom:speed>0.295</gom:speed></extensions></trkpt>
   <trkpt lat="59.0756964192" lon="29.9879410606"><ele>94.978</ele><time>2026-04-25T14:56:04.000Z</time><hdop>3.187</hdop><vdop>3.187</vdop><extensions><gom:speed>0.0</gom:speed></extensions></trkpt>
   <trkpt lat="59.0756964192" lon="29.9879410606"><ele>95.02</ele><time>2026-04-25T14:56:05.000Z</time><hdop>3.187</hdop><vdop>3.187</vdop><extensions><gom:speed>0.0</gom:speed></extensions></trkpt>
   <trkpt lat="59.0756964192" lon="29.9879410606"><ele>95.045</ele><time>2026-04-25T14:56:06.000Z</time><hdop>3.187</hdop><vdop>3.187</vdop><extensions><gom:speed>0.0</gom:speed></extensions></trkpt>
   <trkpt lat="59.0756964192" lon="29.9879410606"><ele>95.06</ele><time>2026-04-25T14:56:07.000Z</time><hdop>3.187</hdop><vdop>3.187</vdop><extensions><gom:speed>0.0</gom:speed></extensions></trkpt>
   <trkpt lat="59.0756964192" lon="29.9879410606"><ele>95.069</ele><time>2026-04-25T14:56:08.000Z</time><hdop>3.187</hdop><vdop>3.187</vdop><extensions><gom:speed>0.0</gom:speed></extensions></trkpt>
   <trkpt lat="59.0756964192" lon="29.9879410606"><ele>95.074</ele><time>2026-04-25T14:56:08.000Z</time><hdop>3.187</hdop><vdop>3.187</vdop><extensions><gom:speed>0.0</gom:speed></extensions></trkpt>
   <trkpt lat="59.0756964192" lon="29.9879410606"><ele>95.077</ele><time>2026-04-25T14:56:09.000Z</time><hdop>3.187</hdop><vdop>3.187</vdop><extensions><gom:speed>0.0</gom:speed></extensions></trkpt>
   <trkpt lat="59.0756964192" lon="29.9879410606"><ele>95.079</ele><time>2026-04-25T14:56:10.000Z</time><hdop>3.187</hdop><vdop>3.187</vdop><extensions><gom:speed>0.0</gom:speed></extensions></trkpt>
   <trkpt lat="59.0756964192" lon="29.9879410606"><ele>95.08</ele><time>2026-04-25T14:56:11.000Z</time><hdop>3.187</hdop><vdop>3.187</vdop><extensions><gom:speed>0.0</gom:speed></extensions></trkpt>
   <trkpt lat="59.0756964192" lon="29.9879410606"><ele>95.081</ele><time>2026-04-25T14:56:12.000Z</time><hdop>3.187</hdop><vdop>3.187</vdop><extensions><gom:speed>0.0</gom:speed></extensions></trkpt>
   <trkpt lat="59.0756964192" lon="29.9879410606"><ele>95.082</ele><time>2026-04-25T14:56:13.000Z</time><hdop>3.187</hdop><vdop>3.187</vdop><extensions><gom:speed>0.0</gom:speed></extensions></trkpt>
   <trkpt lat="59.0756964192" lon="29.9879410606"><ele>95.082</ele><time>2026-04-25T14:56:14.000Z</time><hdop>3.187</hdop><vdop>3.187</vdop><extensions><gom:speed>0.0</gom:speed></extensions></trkpt>
   <trkpt lat="59.0756964192" lon="29.9879410606"><ele>95.082</ele><time>2026-04-25T14:56:15.000Z</time><hdop>3.187</hdop><vdop>3.187</vdop><extensions><gom:speed>0.0</gom:speed></extensions></trkpt>
   <trkpt lat="59.0756964192" lon="29.9879410606"><ele>95.082</ele><time>2026-04-25T14:56:16.000Z</time><hdop>3.187</hdop><vdop>3.187</vdop><extensions><gom:speed>0.0</gom:speed></extensions></trkpt>
   <trkpt lat="59.0756964192" lon="29.9879410606"><ele>95.082</ele><time>2026-04-25T14:56:17.000Z</time><hdop>3.187</hdop><vdop>3.187</vdop><extensions><gom:speed>0.0</gom:speed></extensions></trkpt>
   <trkpt lat="59.0756964192" lon="29.9879410606"><ele>95.082</ele><time>2026-04-25T14:56:18.000Z</time><hdop>3.187</hdop><vdop>3.187</vdop><extensions><gom:speed>0.0</gom:speed></extensions></trkpt>
   <trkpt lat="59.0756964192" lon="29.9879410606"><ele>95.082</ele><time>2026-04-25T14:56:19.000Z</time><hdop>3.187</hdop><vdop>3.187</vdop><extensions><gom:speed>0.0</gom:speed></extensions></trkpt>
   <trkpt lat="59.0756964192" lon="29.9879410606"><ele>95.082</ele><time>2026-04-25T14:56:20.000Z</time><hdop>3.187</hdop><vdop>3.187</vdop><extensions><gom:speed>0.0</gom:speed></extensions></trkpt>
   <trkpt lat="59.0756964192" lon="29.9879410606"><ele>95.082</ele><time>2026-04-25T14:56:21.000Z</time><hdop>3.187</hdop><vdop>3.187</vdop><extensions><gom:speed>0.0</gom:speed></extensions></trkpt>
   <trkpt lat="59.0756964192" lon="29.9879410606"><ele>95.082</ele><time>2026-04-25T14:56:22.000Z</time><hdop>3.187</hdop><vdop>3.187</vdop><extensions><gom:speed>0.0</gom:speed></extensions></trkpt>
   <trkpt lat="59.0756964192" lon="29.9879410606"><ele>95.082</ele><time>2026-04-25T14:56:23.000Z</time><hdop>3.187</hdop><vdop>3.187</vdop><extensions><gom:speed>0.0</gom:speed></extensions></trkpt>
   <trkpt lat="59.0756964192" lon="29.9879410606"><ele>95.082</ele><time>2026-04-25T14:56:24.000Z</time><hdop>3.187</hdop><vdop>3.187</vdop><extensions><gom:speed>0.0</gom:speed></extensions></trkpt>
   <trkpt lat="59.0756964192" lon="29.9879410606"><ele>95.082</ele><time>2026-04-25T14:56:25.000Z</time><hdop>3.187</hdop><vdop>3.187</vdop><extensions><gom:speed>0.0</gom:speed></extensions></trkpt>
   <trkpt lat="59.0756964192" lon="29.9879410606"><ele>95.082</ele><time>2026-04-25T14:56:26.000Z</time><hdop>3.187</hdop><vdop>3.187</vdop><extensions><gom:speed>0.0</gom:speed></extensions></trkpt>
   <trkpt lat="59.0756964192" lon="29.9879410606"><ele>95.082</ele><time>2026-04-25T14:56:27.000Z</time><hdop>3.187</hdop><vdop>3.187</vdop><extensions><gom:speed>0.0</gom:speed></extensions></trkpt>
   <trkpt lat="59.0756964192" lon="29.9879410606"><ele>95.082</ele><time>2026-04-25T14:56:28.000Z</time><hdop>3.187</hdop><vdop>3.187</vdop><extensions><gom:speed>0.0</gom:speed></extensions></trkpt>
   <trkpt lat="59.0756964192" lon="29.9879410606"><ele>95.082</ele><time>2026-04-25T14:56:28.000Z</time><hdop>3.187</hdop><vdop>3.187</vdop><extensions><gom:speed>0.0</gom:speed></extensions></trkpt>
   <trkpt lat="59.0756964192" lon="29.9879410606"><ele>95.082</ele><time>2026-04-25T14:56:29.000Z</time><hdop>3.187</hdop><vdop>3.187</vdop><extensions><gom:speed>0.0</gom:speed></extensions></trkpt>
   <trkpt lat="59.0756964192" lon="29.9879410606"><ele>95.082</ele><time>2026-04-25T14:56:30.000Z</time><hdop>3.187</hdop><vdop>3.187</vdop><extensions><gom:speed>0.0</gom:speed></extensions></trkpt>
   <trkpt lat="59.0756964192" lon="29.9879410606"><ele>95.082</ele><time>2026-04-25T14:56:31.000Z</time><hdop>3.187</hdop><vdop>3.187</vdop><extensions><gom:speed>0.0</gom:speed></extensions></trkpt>
   <trkpt lat="59.0756964192" lon="29.9879410606"><ele>95.082</ele><time>2026-04-25T14:56:32.000Z</time><hdop>3.187</hdop><vdop>3.187</vdop><extensions><gom:speed>0.0</gom:speed></extensions></trkpt>
   <trkpt lat="59.0756964192" lon="29.9879410606"><ele>95.082</ele><time>2026-04-25T14:56:33.000Z</time><hdop>3.187</hdop><vdop>3.187</vdop><extensions><gom:speed>0.0</gom:speed></extensions></trkpt>
   <trkpt lat="59.0756964192" lon="29.9879410606"><ele>95.082</ele><time>2026-04-25T14:56:34.000Z</time><hdop>3.187</hdop><vdop>3.187</vdop><extensions><gom:speed>0.0</gom:speed></extensions></trkpt>
   <trkpt lat="59.0756964192" lon="29.9879410606"><ele>95.082</ele><time>2026-04-25T14:56:35.000Z</time><hdop>3.187</hdop><vdop>3.187</vdop><extensions><gom:speed>0.0</gom:speed></extensions></trkpt>
   <trkpt lat="59.0756964192" lon="29.9879410606"><ele>95.082</ele><time>2026-04-25T14:56:36.000Z</time><hdop>3.187</hdop><vdop>3.187</vdop><extensions><gom:speed>0.0</gom:speed></extensions></trkpt>
   <trkpt lat="59.0756964192" lon="29.9879410606"><ele>95.082</ele><time>2026-04-25T14:56:37.000Z</time><hdop>3.187</hdop><vdop>3.187</vdop><extensions><gom:speed>0.0</gom:speed></extensions></trkpt>
   <trkpt lat="59.0756964192" lon="29.9879410606"><ele>95.082</ele><time>2026-04-25T14:56:38.000Z</time><hdop>3.187</hdop><vdop>3.187</vdop><extensions><gom:speed>0.0</gom:speed></extensions></trkpt>
   <trkpt lat="59.0756964192" lon="29.9879410606"><ele>95.082</ele><time>2026-04-25T14:56:39.000Z</time><hdop>3.187</hdop><vdop>3.187</vdop><extensions><gom:speed>0.0</gom:speed></extensions></trkpt>
   <trkpt lat="59.0756964192" lon="29.9879410606"><ele>95.082</ele><time>2026-04-25T14:56:40.000Z</time><hdop>3.187</hdop><vdop>3.187</vdop><extensions><gom:speed>0.0</gom:speed></extensions></trkpt>
   <trkpt lat="59.0756964192" lon="29.9879410606"><ele>95.082</ele><time>2026-04-25T14:56:41.000Z</time><hdop>3.187</hdop><vdop>3.187</vdop><extensions><gom:speed>0.0</gom:speed></extensions></trkpt>
   <trkpt lat="59.0756964192" lon="29.9879410606"><ele>95.082</ele><time>2026-04-25T14:56:42.000Z</time><hdop>3.187</hdop><vdop>3.187</vdop><extensions><gom:speed>0.0</gom:speed></extensions></trkpt>
   <trkpt lat="59.0756964192" lon="29.9879410606"><ele>95.082</ele><time>2026-04-25T14:56:43.000Z</time><hdop>3.187</hdop><vdop>3.187</vdop><extensions><gom:speed>0.0</gom:speed></extensions></trkpt>
   <trkpt lat="59.0756964192" lon="29.9879410606"><ele>95.082</ele><time>2026-04-25T14:56:44.000Z</time><hdop>3.187</hdop><vdop>3.187</vdop><extensions><gom:speed>0.0</gom:speed></extensions></trkpt>
   <trkpt lat="59.0756964192" lon="29.9879410606"><ele>95.082</ele><time>2026-04-25T14:56:45.000Z</time><hdop>3.187</hdop><vdop>3.187</vdop><extensions><gom:speed>0.0</gom:speed></extensions></trkpt>
   <trkpt lat="59.0756964192" lon="29.9879410606"><ele>95.082</ele><time>2026-04-25T14:56:46.000Z</time><hdop>3.187</hdop><vdop>3.187</vdop><extensions><gom:speed>0.0</gom:speed></extensions></trkpt>
   <trkpt lat="59.0756964192" lon="29.9879410606"><ele>95.082</ele><time>2026-04-25T14:56:47.000Z</time><hdop>3.187</hdop><vdop>3.187</vdop><extensions><gom:speed>0.0</gom:speed></extensions></trkpt>
   <trkpt lat="59.0756964192" lon="29.9879410606"><ele>95.082</ele><time>2026-04-25T14:56:48.000Z</time><hdop>3.187</hdop><vdop>3.187</vdop><extensions><gom:speed>0.0</gom:speed></extensions></trkpt>
   <trkpt lat="59.0756964192" lon="29.9879410606"><ele>95.082</ele><time>2026-04-25T14:56:48.000Z</time><hdop>3.187</hdop><vdop>3.187</vdop><extensions><gom:speed>0.0</gom:speed></extensions></trkpt>
   <trkpt lat="59.0756964192" lon="29.9879410606"><ele>95.082</ele><time>2026-04-25T14:56:49.000Z</time><hdop>3.187</hdop><vdop>3.187</vdop><extensions><gom:speed>0.0</gom:speed></extensions></trkpt>
   <trkpt lat="59.0756964192" lon="29.9879410606"><ele>95.082</ele><time>2026-04-25T14:56:50.000Z</time><hdop>3.187</hdop><vdop>3.187</vdop><extensions><gom:speed>0.0</gom:speed></extensions></trkpt>
   <trkpt lat="59.0756964192" lon="29.9879410606"><ele>95.082</ele><time>2026-04-25T14:56:51.000Z</time><hdop>3.187</hdop><vdop>3.187</vdop><extensions><gom:speed>0.0</gom:speed></extensions></trkpt>
   <trkpt lat="59.0756964192" lon="29.9879410606"><ele>95.082</ele><time>2026-04-25T14:56:52.000Z</time><hdop>3.187</hdop><vdop>3.187</vdop><extensions><gom:speed>0.0</gom:speed></extensions></trkpt>
   <trkpt lat="59.0756964192" lon="29.9879410606"><ele>95.082</ele><time>2026-04-25T14:56:53.000Z</time><hdop>3.187</hdop><vdop>3.187</vdop><extensions><gom:speed>0.0</gom:speed></extensions></trkpt>
   <trkpt lat="59.0756964192" lon="29.9879410606"><ele>95.082</ele><time>2026-04-25T14:56:54.000Z</time><hdop>3.187</hdop><vdop>3.187</vdop><extensions><gom:speed>0.0</gom:speed></extensions></trkpt>
   <trkpt lat="59.0756964192" lon="29.9879410606"><ele>95.082</ele><time>2026-04-25T14:56:55.000Z</time><hdop>3.187</hdop><vdop>3.187</vdop><extensions><gom:speed>0.0</gom:speed></extensions></trkpt>
   <trkpt lat="59.0756964192" lon="29.9879410606"><ele>95.082</ele><time>2026-04-25T14:56:56.000Z</time><hdop>3.187</hdop><vdop>3.187</vdop><extensions><gom:speed>0.0</gom:speed></extensions></trkpt>
   <trkpt lat="59.0756964192" lon="29.9879410606"><ele>95.082</ele><time>2026-04-25T14:56:57.000Z</time><hdop>3.187</hdop><vdop>3.187</vdop><extensions><gom:speed>0.0</gom:speed></extensions></trkpt>
   <trkpt lat="59.0756964192" lon="29.9879410606"><ele>95.082</ele><time>2026-04-25T14:56:58.000Z</time><hdop>3.187</hdop><vdop>3.187</vdop><extensions><gom:speed>0.0</gom:speed></extensions></trkpt>
   <trkpt lat="59.0756964192" lon="29.9879410606"><ele>95.082</ele><time>2026-04-25T14:56:59.000Z</time><hdop>3.187</hdop><vdop>3.187</vdop><extensions><gom:speed>0.0</gom:speed></extensions></trkpt>
   <trkpt lat="59.0756964192" lon="29.9879410606"><ele>95.082</ele><time>2026-04-25T14:57:00.000Z</time><hdop>3.187</hdop><vdop>3.187</vdop><extensions><gom:speed>0.0</gom:speed></extensions></trkpt>
   <trkpt lat="59.0756964192" lon="29.9879410606"><ele>95.082</ele><time>2026-04-25T14:57:01.000Z</time><hdop>3.187</hdop><vdop>3.187</vdop><extensions><gom:speed>0.0</gom:speed></extensions></trkpt>
   <trkpt lat="59.0756964192" lon="29.9879410606"><ele>95.082</ele><time>2026-04-25T14:57:02.000Z</time><hdop>3.187</hdop><vdop>3.187</vdop><extensions><gom:speed>0.0</gom:speed></extensions></trkpt>
   <trkpt lat="59.0756964192" lon="29.9879410606"><ele>95.082</ele><time>2026-04-25T14:57:03.000Z</time><hdop>3.187</hdop><vdop>3.187</vdop><extensions><gom:speed>0.0</gom:speed></extensions></trkpt>
   <trkpt lat="59.0756964192" lon="29.9879410606"><ele>95.082</ele><time>2026-04-25T14:57:04.000Z</time><hdop>3.187</hdop><vdop>3.187</vdop><extensions><gom:speed>0.0</gom:speed></extensions></trkpt>
   <trkpt lat="59.0756964192" lon="29.9879410606"><ele>95.082</ele><time>2026-04-25T14:57:05.000Z</time><hdop>3.187</hdop><vdop>3.187</vdop><extensions><gom:speed>0.0</gom:speed></extensions></trkpt>
   <trkpt lat="59.0756964192" lon="29.9879410606"><ele>95.082</ele><time>2026-04-25T14:57:06.000Z</time><hdop>3.187</hdop><vdop>3.187</vdop><extensions><gom:speed>0.0</gom:speed></extensions></trkpt>
   <trkpt lat="59.0756964192" lon="29.9879410606"><ele>95.082</ele><time>2026-04-25T14:57:07.000Z</time><hdop>3.187</hdop><vdop>3.187</vdop><extensions><gom:speed>0.0</gom:speed></extensions></trkpt>
   <trkpt lat="59.0756964192" lon="29.9879410606"><ele>95.082</ele><time>2026-04-25T14:57:08.000Z</time><hdop>3.187</hdop><vdop>3.187</vdop><extensions><gom:speed>0.0</gom:speed></extensions></trkpt>
   <trkpt lat="59.0756964192" lon="29.9879410606"><ele>95.082</ele><time>2026-04-25T14:57:08.000Z</time><hdop>3.187</hdop><vdop>3.187</vdop><extensions><gom:speed>0.0</gom:speed></extensions></trkpt>
   <trkpt lat="59.0756964192" lon="29.9879410606"><ele>95.082</ele><time>2026-04-25T14:57:09.000Z</time><hdop>3.187</hdop><vdop>3.187</vdop><extensions><gom:speed>0.0</gom:speed></extensions></trkpt>
   <trkpt lat="59.0756964192" lon="29.9879410606"><ele>95.082</ele><time>2026-04-25T14:57:10.000Z</time><hdop>3.187</hdop><vdop>3.187</vdop><extensions><gom:speed>0.0</gom:speed></extensions></trkpt>
   <trkpt lat="59.0756964192" lon="29.9879410606"><ele>95.082</ele><time>2026-04-25T14:57:11.000Z</time><hdop>3.187</hdop><vdop>3.187</vdop><extensions><gom:speed>0.0</gom:speed></extensions></trkpt>
   <trkpt lat="59.0756964192" lon="29.9879410606"><ele>95.082</ele><time>2026-04-25T14:57:12.000Z</time><hdop>3.187</hdop><vdop>3.187</vdop><extensions><gom:speed>0.0</gom:speed></extensions></trkpt>
   <trkpt lat="59.0756964192" lon="29.9879410606"><ele>95.082</ele><time>2026-04-25T14:57:13.000Z</time><hdop>3.187</hdop><vdop>3.187</vdop><extensions><gom:speed>0.0</gom:speed></extensions></trkpt>
   <trkpt lat="59.0756964192" lon="29.9879410606"><ele>95.082</ele><time>2026-04-25T14:57:14.000Z</time><hdop>3.187</hdop><vdop>3.187</vdop><extensions><gom:speed>0.0</gom:speed></extensions></trkpt>
   <trkpt lat="59.0756964192" lon="29.9879410606"><ele>95.082</ele><time>2026-04-25T14:57:15.000Z</time><hdop>3.187</hdop><vdop>3.187</vdop><extensions><gom:speed>0.0</gom:speed></extensions></trkpt>
   <trkpt lat="59.0756964192" lon="29.9879410606"><ele>95.082</ele><time>2026-04-25T14:57:16.000Z</time><hdop>3.187</hdop><vdop>3.187</vdop><extensions><gom:speed>0.0</gom:speed></extensions></trkpt>
   <trkpt lat="59.0756964192" lon="29.9879410606"><ele>95.082</ele><time>2026-04-25T14:57:17.000Z</time><hdop>3.187</hdop><vdop>3.187</vdop><extensions><gom:speed>0.0</gom:speed></extensions></trkpt>
   <trkpt lat="59.0756964192" lon="29.9879410606"><ele>95.082</ele><time>2026-04-25T14:57:18.000Z</time><hdop>3.187</hdop><vdop>3.187</vdop><extensions><gom:speed>0.0</gom:speed></extensions></trkpt>
   <trkpt lat="59.0756964192" lon="29.9879410606"><ele>95.082</ele><time>2026-04-25T14:57:19.000Z</time><hdop>3.187</hdop><vdop>3.187</vdop><extensions><gom:speed>0.0</gom:speed></extensions></trkpt>
   <trkpt lat="59.0756964192" lon="29.9879370373"><ele>95.018</ele><time>2026-04-25T14:57:20.000Z</time><hdop>3.312</hdop><vdop>3.312</vdop><extensions><gom:speed>0.139</gom:speed></extensions></trkpt>
   <trkpt lat="59.0757014902" lon="29.9879306671"><ele>94.87</ele><time>2026-04-25T14:57:21.000Z</time><hdop>3.687</hdop><vdop>3.687</vdop><extensions><gom:speed>0.563</gom:speed></extensions></trkpt>
   <trkpt lat="59.0757014902" lon="29.9879306671"><ele>94.782</ele><time>2026-04-25T14:57:22.000Z</time><hdop>3.687</hdop><vdop>3.687</vdop><extensions><gom:speed>0.0</gom:speed></extensions></trkpt>
   <trkpt lat="59.0756986823" lon="29.987921447"><ele>94.62</ele><time>2026-04-25T14:57:23.000Z</time><hdop>3.875</hdop><vdop>3.875</vdop><extensions><gom:speed>0.444</gom:speed></extensions></trkpt>
   <trkpt lat="59.0756955391" lon="29.9879187648"><ele>94.417</ele><time>2026-04-25T14:57:24.000Z</time><hdop>3.562</hdop><vdop>3.562</vdop><extensions><gom:speed>0.746</gom:speed></extensions></trkpt>
   <trkpt lat="59.0756927312" lon="29.9879208602"><ele>94.246</ele><time>2026-04-25T14:57:25.000Z</time><hdop>3.812</hdop><vdop>3.812</vdop><extensions><gom:speed>0.144</gom:speed></extensions></trkpt>
   <trkpt lat="59.0756862352" lon="29.9879152444"><ele>94.082</ele><time>2026-04-25T14:57:26.000Z</time><hdop>4.062</hdop><vdop>4.062</vdop><extensions><gom:speed>0.593</gom:speed></extensions></trkpt>
   <trkpt lat="59.0756781047" lon="29.987908455"><ele>93.958</ele><time>2026-04-25T14:57:27.000Z</time><hdop>3.812</hdop><vdop>3.812</vdop><extensions><gom:speed>0.799</gom:speed></extensions></trkpt>
   <trkpt lat="59.0756718183" lon="29.9878942058"><ele>93.86</ele><time>2026-04-25T14:57:28.000Z</time><hdop>3.625</hdop><vdop>3.625</vdop><extensions><gom:speed>0.927</gom:speed></extensions></trkpt>
   <trkpt lat="59.0756718183" lon="29.9878942058"><ele>93.801</ele><time>2026-04-25T14:57:28.000Z</time><hdop>3.625</hdop><vdop>3.625</vdop><extensions><gom:speed>0.927</gom:speed></extensions></trkpt>
   <trkpt lat="59.0756670406" lon="29.9878744245"><ele>93.709</ele><time>2026-04-25T14:57:29.000Z</time><hdop>3.437</hdop><vdop>3.437</vdop><extensions><gom:speed>1.002</gom:speed></extensions></trkpt>
   <trkpt lat="59.0756623468" lon="29.987853805"><ele>93.487</ele><time>2026-04-25T14:57:30.000Z</time><hdop>3.312</hdop><vdop>3.312</vdop><extensions><gom:speed>1.117</gom:speed></extensions></trkpt>
   <trkpt lat="59.0756582815" lon="29.9878336046"><ele>93.303</ele><time>2026-04-25T14:57:31.000Z</time><hdop>3.0</hdop><vdop>3.0</vdop><extensions><gom:speed>0.946</gom:speed></extensions></trkpt>
   <trkpt lat="59.0756561861" lon="29.987812147"><ele>93.161</ele><time>2026-04-25T14:57:32.000Z</time><hdop>3.0</hdop><vdop>3.0</vdop><extensions><gom:speed>1.09</gom:speed></extensions></trkpt>
   <trkpt lat="59.0756519532" lon="29.9877941259"><ele>93.023</ele><time>2026-04-25T14:57:33.000Z</time><hdop>3.0</hdop><vdop>3.0</vdop><extensions><gom:speed>0.877</gom:speed></extensions></trkpt>
   <trkpt lat="59.0756464631" lon="29.9877788708"><ele>92.873</ele><time>2026-04-25T14:57:34.000Z</time><hdop>3.0</hdop><vdop>3.0</vdop><extensions><gom:speed>0.802</gom:speed></extensions></trkpt>
   <trkpt lat="59.0756411405" lon="29.9877668009"><ele>92.788</ele><time>2026-04-25T14:57:35.000Z</time><hdop>3.0</hdop><vdop>3.0</vdop><extensions><gom:speed>0.644</gom:speed></extensions></trkpt>
   <trkpt lat="59.0756349798" lon="29.9877543118"><ele>92.676</ele><time>2026-04-25T14:57:36.000Z</time><hdop>3.0</hdop><vdop>3.0</vdop><extensions><gom:speed>0.76</gom:speed></extensions></trkpt>
   <trkpt lat="59.0756281067" lon="29.987746349"><ele>92.575</ele><time>2026-04-25T14:57:37.000Z</time><hdop>3.0</hdop><vdop>3.0</vdop><extensions><gom:speed>0.618</gom:speed></extensions></trkpt>
   <trkpt lat="59.0756171683" lon="29.9877440859"><ele>92.412</ele><time>2026-04-25T14:57:38.000Z</time><hdop>3.0</hdop><vdop>3.0</vdop><extensions><gom:speed>1.202</gom:speed></extensions></trkpt>
   <trkpt lat="59.0756074453" lon="29.9877305072"><ele>92.346</ele><time>2026-04-25T14:57:39.000Z</time><hdop>3.0</hdop><vdop>3.0</vdop><extensions><gom:speed>1.181</gom:speed></extensions></trkpt>
   <trkpt lat="59.0755996082" lon="29.9877195269"><ele>92.246</ele><time>2026-04-25T14:57:40.000Z</time><hdop>3.0</hdop><vdop>3.0</vdop><extensions><gom:speed>0.577</gom:speed></extensions></trkpt>
   <trkpt lat="59.0755937409" lon="29.987710223"><ele>92.263</ele><time>2026-04-25T14:57:41.000Z</time><hdop>3.0</hdop><vdop>3.0</vdop><extensions><gom:speed>0.804</gom:speed></extensions></trkpt>
   <trkpt lat="59.0755850656" lon="29.9876979854"><ele>92.369</ele><time>2026-04-25T14:57:42.000Z</time><hdop>3.0</hdop><vdop>3.0</vdop><extensions><gom:speed>1.668</gom:speed></extensions></trkpt>
   <trkpt lat="59.0755747978" lon="29.9876831495"><ele>92.436</ele><time>2026-04-25T14:57:43.000Z</time><hdop>3.0</hdop><vdop>3.0</vdop><extensions><gom:speed>1.158</gom:speed></extensions></trkpt>
   <trkpt lat="59.0755636918" lon="29.987680132"><ele>92.393</ele><time>2026-04-25T14:57:44.000Z</time><hdop>3.0</hdop><vdop>3.0</vdop><extensions><gom:speed>0.863</gom:speed></extensions></trkpt>
   <trkpt lat="59.0755564414" lon="29.9876728397"><ele>92.346</ele><time>2026-04-25T14:57:45.000Z</time><hdop>3.0</hdop><vdop>3.0</vdop><extensions><gom:speed>0.993</gom:speed></extensions></trkpt>
   <trkpt lat="59.0755505322" lon="29.9876564112"><ele>92.361</ele><time>2026-04-25T14:57:46.000Z</time><hdop>3.0</hdop><vdop>3.0</vdop><extensions><gom:speed>1.125</gom:speed></extensions></trkpt>
   <trkpt lat="59.0755435752" lon="29.987639815"><ele>92.331</ele><time>2026-04-25T14:57:47.000Z</time><hdop>3.0</hdop><vdop>3.0</vdop><extensions><gom:speed>1.026</gom:speed></extensions></trkpt>
   <trkpt lat="59.0755362829" lon="29.9876235541"><ele>92.327</ele><time>2026-04-25T14:57:48.000Z</time><hdop>3.0</hdop><vdop>3.0</vdop><extensions><gom:speed>1.127</gom:speed></extensions></trkpt>
   <trkpt lat="59.075529745" lon="29.9876091373"><ele>92.358</ele><time>2026-04-25T14:57:49.000Z</time><hdop>3.0</hdop><vdop>3.0</vdop><extensions><gom:speed>0.883</gom:speed></extensions></trkpt>
   <trkpt lat="59.0755216984" lon="29.9875989113"><ele>92.42</ele><time>2026-04-25T14:57:50.000Z</time><hdop>3.0</hdop><vdop>3.0</vdop><extensions><gom:speed>1.113</gom:speed></extensions></trkpt>
   <trkpt lat="59.0755216984" lon="29.9875989113"><ele>92.457</ele><time>2026-04-25T14:57:50.000Z</time><hdop>3.0</hdop><vdop>3.0</vdop><extensions><gom:speed>1.113</gom:speed></extensions></trkpt>
   <trkpt lat="59.0755110115" lon="29.9875901103"><ele>92.443</ele><time>2026-04-25T14:57:51.000Z</time><hdop>3.0</hdop><vdop>3.0</vdop><extensions><gom:speed>1.042</gom:speed></extensions></trkpt>
   <trkpt lat="59.0755035516" lon="29.9875793815"><ele>92.392</ele><time>2026-04-25T14:57:52.000Z</time><hdop>3.0</hdop><vdop>3.0</vdop><extensions><gom:speed>0.773</gom:speed></extensions></trkpt>
   <trkpt lat="59.0754992349" lon="29.9875691556"><ele>92.325</ele><time>2026-04-25T14:57:53.000Z</time><hdop>3.0</hdop><vdop>3.0</vdop><extensions><gom:speed>0.677</gom:speed></extensions></trkpt>
   <trkpt lat="59.0754938286" lon="29.9875601031"><ele>92.233</ele><time>2026-04-25T14:57:54.000Z</time><hdop>3.0</hdop><vdop>3.0</vdop><extensions><gom:speed>0.728</gom:speed></extensions></trkpt>
   <trkpt lat="59.0754882965" lon="29.9875449319"><ele>92.217</ele><time>2026-04-25T14:57:55.000Z</time><hdop>3.0</hdop><vdop>3.0</vdop><extensions><gom:speed>1.468</gom:speed></extensions></trkpt>
   <trkpt lat="59.0754824292" lon="29.9875222169"><ele>92.174</ele><time>2026-04-25T14:57:56.000Z</time><hdop>3.0</hdop><vdop>3.0</vdop><extensions><gom:speed>1.368</gom:speed></extensions></trkpt>
   <trkpt lat="59.0754767714" lon="29.9875042797"><ele>92.084</ele><time>2026-04-25T14:57:57.000Z</time><hdop>3.0</hdop><vdop>3.0</vdop><extensions><gom:speed>1.076</gom:speed></extensions></trkpt>
   <trkpt lat="59.0754712813" lon="29.9874885217"><ele>92.004</ele><time>2026-04-25T14:57:58.000Z</time><hdop>3.0</hdop><vdop>3.0</vdop><extensions><gom:speed>1.029</gom:speed></extensions></trkpt>
   <trkpt lat="59.075466797" lon="29.9874691595"><ele>91.96</ele><time>2026-04-25T14:57:59.000Z</time><hdop>3.0</hdop><vdop>3.0</vdop><extensions><gom:speed>1.251</gom:speed></extensions></trkpt>
   <trkpt lat="59.0754611811" lon="29.9874541559"><ele>91.92</ele><time>2026-04-25T14:58:00.000Z</time><hdop>3.0</hdop><vdop>3.0</vdop><extensions><gom:speed>0.815</gom:speed></extensions></trkpt>
   <trkpt lat="59.0754571578" lon="29.9874427565"><ele>91.89</ele><time>2026-04-25T14:58:01.000Z</time><hdop>3.0</hdop><vdop>3.0</vdop><extensions><gom:speed>0.609</gom:speed></extensions></trkpt>
   <trkpt lat="59.0754560262" lon="29.9874363024"><ele>91.881</ele><time>2026-04-25T14:58:02.000Z</time><hdop>3.0</hdop><vdop>3.0</vdop><extensions><gom:speed>0.274</gom:speed></extensions></trkpt>
   <trkpt lat="59.0754580379" lon="29.9874362186"><ele>91.849</ele><time>2026-04-25T14:58:03.000Z</time><hdop>3.0</hdop><vdop>3.0</vdop><extensions><gom:speed>0.31</gom:speed></extensions></trkpt>
   <trkpt lat="59.0754583731" lon="29.9874427565"><ele>91.907</ele><time>2026-04-25T14:58:04.000Z</time><hdop>3.062</hdop><vdop>3.062</vdop><extensions><gom:speed>0.31</gom:speed></extensions></trkpt>
   <trkpt lat="59.0754583731" lon="29.9874427565"><ele>91.942</ele><time>2026-04-25T14:58:05.000Z</time><hdop>3.062</hdop><vdop>3.062</vdop><extensions><gom:speed>0.0</gom:speed></extensions></trkpt>
   <trkpt lat="59.0754583731" lon="29.9874427565"><ele>91.962</ele><time>2026-04-25T14:58:06.000Z</time><hdop>3.062</hdop><vdop>3.062</vdop><extensions><gom:speed>0.0</gom:speed></extensions></trkpt>
   <trkpt lat="59.0754583731" lon="29.9874427565"><ele>91.975</ele><time>2026-04-25T14:58:07.000Z</time><hdop>3.062</hdop><vdop>3.062</vdop><extensions><gom:speed>0.0</gom:speed></extensions></trkpt>
   <trkpt lat="59.0754583731" lon="29.9874427565"><ele>91.982</ele><time>2026-04-25T14:58:08.000Z</time><hdop>3.062</hdop><vdop>3.062</vdop><extensions><gom:speed>0.0</gom:speed></extensions></trkpt>
   <trkpt lat="59.0754583731" lon="29.9874427565"><ele>91.987</ele><time>2026-04-25T14:58:09.000Z</time><hdop>3.062</hdop><vdop>3.062</vdop><extensions><gom:speed>0.0</gom:speed></extensions></trkpt>
   <trkpt lat="59.0754583731" lon="29.9874427565"><ele>91.989</ele><time>2026-04-25T14:58:09.000Z</time><hdop>3.062</hdop><vdop>3.062</vdop><extensions><gom:speed>0.0</gom:speed></extensions></trkpt>
   <trkpt lat="59.0754583731" lon="29.9874427565"><ele>91.991</ele><time>2026-04-25T14:58:10.000Z</time><hdop>3.062</hdop><vdop>3.062</vdop><extensions><gom:speed>0.0</gom:speed></extensions></trkpt>
   <trkpt lat="59.0754583731" lon="29.9874427565"><ele>91.992</ele><time>2026-04-25T14:58:11.000Z</time><hdop>3.062</hdop><vdop>3.062</vdop><extensions><gom:speed>0.0</gom:speed></extensions></trkpt>
   <trkpt lat="59.0754583731" lon="29.9874427565"><ele>91.992</ele><time>2026-04-25T14:58:12.000Z</time><hdop>3.062</hdop><vdop>3.062</vdop><extensions><gom:speed>0.0</gom:speed></extensions></trkpt>
   <trkpt lat="59.0754583731" lon="29.9874427565"><ele>91.993</ele><time>2026-04-25T14:58:13.000Z</time><hdop>3.062</hdop><vdop>3.062</vdop><extensions><gom:speed>0.0</gom:speed></extensions></trkpt>
   <trkpt lat="59.0754583731" lon="29.9874427565"><ele>91.993</ele><time>2026-04-25T14:58:14.000Z</time><hdop>3.062</hdop><vdop>3.062</vdop><extensions><gom:speed>0.0</gom:speed></extensions></trkpt>
   <trkpt lat="59.0754583731" lon="29.9874427565"><ele>91.993</ele><time>2026-04-25T14:58:15.000Z</time><hdop>3.062</hdop><vdop>3.062</vdop><extensions><gom:speed>0.0</gom:speed></extensions></trkpt>
   <trkpt lat="59.0754583731" lon="29.9874427565"><ele>91.993</ele><time>2026-04-25T14:58:16.000Z</time><hdop>3.062</hdop><vdop>3.062</vdop><extensions><gom:speed>0.0</gom:speed></extensions></trkpt>
   <trkpt lat="59.0754583731" lon="29.9874427565"><ele>91.993</ele><time>2026-04-25T14:58:17.000Z</time><hdop>3.062</hdop><vdop>3.062</vdop><extensions><gom:speed>0.0</gom:speed></extensions></trkpt>
   <trkpt lat="59.0754583731" lon="29.9874427565"><ele>91.993</ele><time>2026-04-25T14:58:18.000Z</time><hdop>3.062</hdop><vdop>3.062</vdop><extensions><gom:speed>0.0</gom:speed></extensions></trkpt>
   <trkpt lat="59.0754583731" lon="29.9874427565"><ele>91.993</ele><time>2026-04-25T14:58:19.000Z</time><hdop>3.062</hdop><vdop>3.062</vdop><extensions><gom:speed>0.0</gom:speed></extensions></trkpt>
   <trkpt lat="59.0754583731" lon="29.9874427565"><ele>91.993</ele><time>2026-04-25T14:58:20.000Z</time><hdop>3.062</hdop><vdop>3.062</vdop><extensions><gom:speed>0.0</gom:speed></extensions></trkpt>
   <trkpt lat="59.0754583731" lon="29.9874427565"><ele>91.993</ele><time>2026-04-25T14:58:21.000Z</time><hdop>3.062</hdop><vdop>3.062</vdop><extensions><gom:speed>0.0</gom:speed></extensions></trkpt>
   <trkpt lat="59.0754583731" lon="29.9874427565"><ele>91.993</ele><time>2026-04-25T14:58:22.000Z</time><hdop>3.062</hdop><vdop>3.062</vdop><extensions><gom:speed>0.0</gom:speed></extensions></trkpt>
   <trkpt lat="59.0754583731" lon="29.9874427565"><ele>91.993</ele><time>2026-04-25T14:58:23.000Z</time><hdop>3.062</hdop><vdop>3.062</vdop><extensions><gom:speed>0.0</gom:speed></extensions></trkpt>
   <trkpt lat="59.0754583731" lon="29.9874427565"><ele>91.993</ele><time>2026-04-25T14:58:24.000Z</time><hdop>3.062</hdop><vdop>3.062</vdop><extensions><gom:speed>0.0</gom:speed></extensions></trkpt>
   <trkpt lat="59.0754583731" lon="29.9874427565"><ele>91.993</ele><time>2026-04-25T14:58:25.000Z</time><hdop>3.062</hdop><vdop>3.062</vdop><extensions><gom:speed>0.0</gom:speed></extensions></trkpt>
   <trkpt lat="59.0754583731" lon="29.9874427565"><ele>91.993</ele><time>2026-04-25T14:58:26.000Z</time><hdop>3.062</hdop><vdop>3.062</vdop><extensions><gom:speed>0.0</gom:speed></extensions></trkpt>
   <trkpt lat="59.0754583731" lon="29.9874427565"><ele>91.993</ele><time>2026-04-25T14:58:27.000Z</time><hdop>3.062</hdop><vdop>3.062</vdop><extensions><gom:speed>0.0</gom:speed></extensions></trkpt>
   <trkpt lat="59.0754583731" lon="29.9874427565"><ele>91.993</ele><time>2026-04-25T14:58:28.000Z</time><hdop>3.062</hdop><vdop>3.062</vdop><extensions><gom:speed>0.0</gom:speed></extensions></trkpt>
   <trkpt lat="59.0754583731" lon="29.9874427565"><ele>91.993</ele><time>2026-04-25T14:58:28.000Z</time><hdop>3.062</hdop><vdop>3.062</vdop><extensions><gom:speed>0.0</gom:speed></extensions></trkpt>
   <trkpt lat="59.0754583731" lon="29.9874427565"><ele>91.993</ele><time>2026-04-25T14:58:29.000Z</time><hdop>3.062</hdop><vdop>3.062</vdop><extensions><gom:speed>0.0</gom:speed></extensions></trkpt>
   <trkpt lat="59.0754583731" lon="29.9874427565"><ele>91.993</ele><time>2026-04-25T14:58:30.000Z</time><hdop>3.062</hdop><vdop>3.062</vdop><extensions><gom:speed>0.0</gom:speed></extensions></trkpt>
   <trkpt lat="59.0754583731" lon="29.9874427565"><ele>91.993</ele><time>2026-04-25T14:58:31.000Z</time><hdop>3.062</hdop><vdop>3.062</vdop><extensions><gom:speed>0.0</gom:speed></extensions></trkpt>
   <trkpt lat="59.0754583731" lon="29.9874427565"><ele>91.993</ele><time>2026-04-25T14:58:32.000Z</time><hdop>3.062</hdop><vdop>3.062</vdop><extensions><gom:speed>0.0</gom:speed></extensions></trkpt>
   <trkpt lat="59.0754583731" lon="29.9874427565"><ele>91.993</ele><time>2026-04-25T14:58:33.000Z</time><hdop>3.062</hdop><vdop>3.062</vdop><extensions><gom:speed>0.0</gom:speed></extensions></trkpt>
   <trkpt lat="59.0754583731" lon="29.9874427565"><ele>91.993</ele><time>2026-04-25T14:58:34.000Z</time><hdop>3.062</hdop><vdop>3.062</vdop><extensions><gom:speed>0.0</gom:speed></extensions></trkpt>
   <trkpt lat="59.0754583731" lon="29.9874427565"><ele>91.993</ele><time>2026-04-25T14:58:35.000Z</time><hdop>3.062</hdop><vdop>3.062</vdop><extensions><gom:speed>0.0</gom:speed></extensions></trkpt>
   <trkpt lat="59.0754583731" lon="29.9874427565"><ele>91.993</ele><time>2026-04-25T14:58:36.000Z</time><hdop>3.062</hdop><vdop>3.062</vdop><extensions><gom:speed>0.0</gom:speed></extensions></trkpt>
   <trkpt lat="59.0754583731" lon="29.9874427565"><ele>91.993</ele><time>2026-04-25T14:58:37.000Z</time><hdop>3.062</hdop><vdop>3.062</vdop><extensions><gom:speed>0.0</gom:speed></extensions></trkpt>
   <trkpt lat="59.0754583731" lon="29.9874427565"><ele>91.993</ele><time>2026-04-25T14:58:38.000Z</time><hdop>3.062</hdop><vdop>3.062</vdop><extensions><gom:speed>0.0</gom:speed></extensions></trkpt>
   <trkpt lat="59.0754583731" lon="29.9874427565"><ele>91.993</ele><time>2026-04-25T14:58:39.000Z</time><hdop>3.062</hdop><vdop>3.062</vdop><extensions><gom:speed>0.0</gom:speed></extensions></trkpt>
   <trkpt lat="59.0754583731" lon="29.9874427565"><ele>91.993</ele><time>2026-04-25T14:58:40.000Z</time><hdop>3.062</hdop><vdop>3.062</vdop><extensions><gom:speed>0.0</gom:speed></extensions></trkpt>
   <trkpt lat="59.0754583731" lon="29.9874427565"><ele>91.993</ele><time>2026-04-25T14:58:41.000Z</time><hdop>3.062</hdop><vdop>3.062</vdop><extensions><gom:speed>0.0</gom:speed></extensions></trkpt>
   <trkpt lat="59.0754583731" lon="29.9874427565"><ele>91.993</ele><time>2026-04-25T14:58:42.000Z</time><hdop>3.062</hdop><vdop>3.062</vdop><extensions><gom:speed>0.0</gom:speed></extensions></trkpt>
   <trkpt lat="59.0754583731" lon="29.9874427565"><ele>91.993</ele><time>2026-04-25T14:58:43.000Z</time><hdop>3.062</hdop><vdop>3.062</vdop><extensions><gom:speed>0.0</gom:speed></extensions></trkpt>
   <trkpt lat="59.0754583731" lon="29.9874427565"><ele>91.993</ele><time>2026-04-25T14:58:44.000Z</time><hdop>3.062</hdop><vdop>3.062</vdop><extensions><gom:speed>0.0</gom:speed></extensions></trkpt>
   <trkpt lat="59.0754583731" lon="29.9874427565"><ele>91.993</ele><time>2026-04-25T14:58:45.000Z</time><hdop>3.062</hdop><vdop>3.062</vdop><extensions><gom:speed>0.0</gom:speed></extensions></trkpt>
   <trkpt lat="59.0754583731" lon="29.9874427565"><ele>91.993</ele><time>2026-04-25T14:58:46.000Z</time><hdop>3.062</hdop><vdop>3.062</vdop><extensions><gom:speed>0.0</gom:speed></extensions></trkpt>
   <trkpt lat="59.0754583731" lon="29.9874427565"><ele>91.993</ele><time>2026-04-25T14:58:47.000Z</time><hdop>3.062</hdop><vdop>3.062</vdop><extensions><gom:speed>0.0</gom:speed></extensions></trkpt>
   <trkpt lat="59.0754583731" lon="29.9874427565"><ele>91.993</ele><time>2026-04-25T14:58:48.000Z</time><hdop>3.062</hdop><vdop>3.062</vdop><extensions><gom:speed>0.0</gom:speed></extensions></trkpt>
   <trkpt lat="59.0754583731" lon="29.9874427565"><ele>91.993</ele><time>2026-04-25T14:58:48.000Z</time><hdop>3.062</hdop><vdop>3.062</vdop><extensions><gom:speed>0.0</gom:speed></extensions></trkpt>
   <trkpt lat="59.0754583731" lon="29.9874427565"><ele>91.993</ele><time>2026-04-25T14:58:49.000Z</time><hdop>3.062</hdop><vdop>3.062</vdop><extensions><gom:speed>0.0</gom:speed></extensions></trkpt>
   <trkpt lat="59.0754583731" lon="29.9874427565"><ele>91.993</ele><time>2026-04-25T14:58:50.000Z</time><hdop>3.062</hdop><vdop>3.062</vdop><extensions><gom:speed>0.0</gom:speed></extensions></trkpt>
   <trkpt lat="59.0754583731" lon="29.9874427565"><ele>91.993</ele><time>2026-04-25T14:58:51.000Z</time><hdop>3.062</hdop><vdop>3.062</vdop><extensions><gom:speed>0.0</gom:speed></extensions></trkpt>
   <trkpt lat="59.0754523382" lon="29.9874336202"><ele>92.022</ele><time>2026-04-25T14:58:52.000Z</time><hdop>3.0</hdop><vdop>3.0</vdop><extensions><gom:speed>0.252</gom:speed></extensions></trkpt>
   <trkpt lat="59.0754471414" lon="29.9874204606"><ele>92.072</ele><time>2026-04-25T14:58:53.000Z</time><hdop>3.562</hdop><vdop>3.562</vdop><extensions><gom:speed>0.67</gom:speed></extensions></trkpt>
   <trkpt lat="59.0754395558" lon="29.9874049541"><ele>92.129</ele><time>2026-04-25T14:58:54.000Z</time><hdop>4.062</hdop><vdop>4.062</vdop><extensions><gom:speed>1.129</gom:speed></extensions></trkpt>
   <trkpt lat="59.0754296232" lon="29.9873871845"><ele>92.141</ele><time>2026-04-25T14:58:55.000Z</time><hdop>4.062</hdop><vdop>4.062</vdop><extensions><gom:speed>1.291</gom:speed></extensions></trkpt>
   <trkpt lat="59.075421367" lon="29.987369331"><ele>92.198</ele><time>2026-04-25T14:58:56.000Z</time><hdop>3.687</hdop><vdop>3.687</vdop><extensions><gom:speed>1.258</gom:speed></extensions></trkpt>
   <trkpt lat="59.0754161703" lon="29.9873510585"><ele>92.345</ele><time>2026-04-25T14:58:57.000Z</time><hdop>3.562</hdop><vdop>3.562</vdop><extensions><gom:speed>1.197</gom:speed></extensions></trkpt>
   <trkpt lat="59.0754113507" lon="29.9873339594"><ele>92.426</ele><time>2026-04-25T14:58:58.000Z</time><hdop>3.312</hdop><vdop>3.312</vdop><extensions><gom:speed>1.237</gom:speed></extensions></trkpt>
   <trkpt lat="59.075407034" lon="29.9873182014"><ele>92.503</ele><time>2026-04-25T14:58:59.000Z</time><hdop>3.062</hdop><vdop>3.062</vdop><extensions><gom:speed>1.007</gom:speed></extensions></trkpt>
   <trkpt lat="59.0754035136" lon="29.9873061315"><ele>92.525</ele><time>2026-04-25T14:59:00.000Z</time><hdop>3.0</hdop><vdop>3.0</vdop><extensions><gom:speed>0.762</gom:speed></extensions></trkpt>
   <trkpt lat="59.0754002866" lon="29.9872973305"><ele>92.56</ele><time>2026-04-25T14:59:01.000Z</time><hdop>3.0</hdop><vdop>3.0</vdop><extensions><gom:speed>0.588</gom:speed></extensions></trkpt>
   <trkpt lat="59.0753960956" lon="29.9872902897"><ele>92.578</ele><time>2026-04-25T14:59:02.000Z</time><hdop>3.0</hdop><vdop>3.0</vdop><extensions><gom:speed>0.596</gom:speed></extensions></trkpt>
   <trkpt lat="59.0753916951" lon="29.9872861825"><ele>92.601</ele><time>2026-04-25T14:59:03.000Z</time><hdop>3.0</hdop><vdop>3.0</vdop><extensions><gom:speed>0.231</gom:speed></extensions></trkpt>
   <trkpt lat="59.0753910246" lon="29.9872837518"><ele>92.548</ele><time>2026-04-25T14:59:04.000Z</time><hdop>3.0</hdop><vdop>3.0</vdop><extensions><gom:speed>0.126</gom:speed></extensions></trkpt>
   <trkpt lat="59.075390815" lon="29.9872808181"><ele>92.538</ele><time>2026-04-25T14:59:05.000Z</time><hdop>3.062</hdop><vdop>3.062</vdop><extensions><gom:speed>0.226</gom:speed></extensions></trkpt>
   <trkpt lat="59.075390815" lon="29.9872808181"><ele>92.531</ele><time>2026-04-25T14:59:06.000Z</time><hdop>3.062</hdop><vdop>3.062</vdop><extensions><gom:speed>0.0</gom:speed></extensions></trkpt>
   <trkpt lat="59.075390815" lon="29.9872808181"><ele>92.528</ele><time>2026-04-25T14:59:07.000Z</time><hdop>3.062</hdop><vdop>3.062</vdop><extensions><gom:speed>0.0</gom:speed></extensions></trkpt>
   <trkpt lat="59.075390815" lon="29.9872808181"><ele>92.526</ele><time>2026-04-25T14:59:08.000Z</time><hdop>3.062</hdop><vdop>3.062</vdop><extensions><gom:speed>0.0</gom:speed></extensions></trkpt>
   <trkpt lat="59.075390815" lon="29.9872808181"><ele>92.524</ele><time>2026-04-25T14:59:08.000Z</time><hdop>3.062</hdop><vdop>3.062</vdop><extensions><gom:speed>0.0</gom:speed></extensions></trkpt>
   <trkpt lat="59.075390815" lon="29.9872808181"><ele>92.523</ele><time>2026-04-25T14:59:09.000Z</time><hdop>3.062</hdop><vdop>3.062</vdop><extensions><gom:speed>0.0</gom:speed></extensions></trkpt>
   <trkpt lat="59.075390815" lon="29.9872808181"><ele>92.523</ele><time>2026-04-25T14:59:10.000Z</time><hdop>3.062</hdop><vdop>3.062</vdop><extensions><gom:speed>0.0</gom:speed></extensions></trkpt>
   <trkpt lat="59.075390815" lon="29.9872808181"><ele>92.523</ele><time>2026-04-25T14:59:11.000Z</time><hdop>3.062</hdop><vdop>3.062</vdop><extensions><gom:speed>0.0</gom:speed></extensions></trkpt>
   <trkpt lat="59.075390815" lon="29.9872808181"><ele>92.522</ele><time>2026-04-25T14:59:12.000Z</time><hdop>3.062</hdop><vdop>3.062</vdop><extensions><gom:speed>0.0</gom:speed></extensions></trkpt>
   <trkpt lat="59.075390815" lon="29.9872808181"><ele>92.522</ele><time>2026-04-25T14:59:13.000Z</time><hdop>3.062</hdop><vdop>3.062</vdop><extensions><gom:speed>0.0</gom:speed></extensions></trkpt>
   <trkpt lat="59.075390815" lon="29.9872808181"><ele>92.522</ele><time>2026-04-25T14:59:14.000Z</time><hdop>3.062</hdop><vdop>3.062</vdop><extensions><gom:speed>0.0</gom:speed></extensions></trkpt>
   <trkpt lat="59.075390815" lon="29.9872808181"><ele>92.522</ele><time>2026-04-25T14:59:15.000Z</time><hdop>3.062</hdop><vdop>3.062</vdop><extensions><gom:speed>0.0</gom:speed></extensions></trkpt>
   <trkpt lat="59.075390815" lon="29.9872808181"><ele>92.522</ele><time>2026-04-25T14:59:16.000Z</time><hdop>3.062</hdop><vdop>3.062</vdop><extensions><gom:speed>0.0</gom:speed></extensions></trkpt>
   <trkpt lat="59.075390815" lon="29.9872808181"><ele>92.522</ele><time>2026-04-25T14:59:17.000Z</time><hdop>3.062</hdop><vdop>3.062</vdop><extensions><gom:speed>0.0</gom:speed></extensions></trkpt>
   <trkpt lat="59.075390815" lon="29.9872808181"><ele>92.522</ele><time>2026-04-25T14:59:18.000Z</time><hdop>3.062</hdop><vdop>3.062</vdop><extensions><gom:speed>0.0</gom:speed></extensions></trkpt>
   <trkpt lat="59.075390815" lon="29.9872808181"><ele>92.522</ele><time>2026-04-25T14:59:19.000Z</time><hdop>3.062</hdop><vdop>3.062</vdop><extensions><gom:speed>0.0</gom:speed></extensions></trkpt>
   <trkpt lat="59.075390815" lon="29.9872808181"><ele>92.522</ele><time>2026-04-25T14:59:20.000Z</time><hdop>3.062</hdop><vdop>3.062</vdop><extensions><gom:speed>0.0</gom:speed></extensions></trkpt>
   <trkpt lat="59.075390815" lon="29.9872808181"><ele>92.522</ele><time>2026-04-25T14:59:21.000Z</time><hdop>3.062</hdop><vdop>3.062</vdop><extensions><gom:speed>0.0</gom:speed></extensions></trkpt>
   <trkpt lat="59.075390815" lon="29.9872808181"><ele>92.522</ele><time>2026-04-25T14:59:22.000Z</time><hdop>3.062</hdop><vdop>3.062</vdop><extensions><gom:speed>0.0</gom:speed></extensions></trkpt>
   <trkpt lat="59.075390815" lon="29.9872808181"><ele>92.522</ele><time>2026-04-25T14:59:23.000Z</time><hdop>3.062</hdop><vdop>3.062</vdop><extensions><gom:speed>0.0</gom:speed></extensions></trkpt>
   <trkpt lat="59.075390815" lon="29.9872808181"><ele>92.522</ele><time>2026-04-25T14:59:24.000Z</time><hdop>3.062</hdop><vdop>3.062</vdop><extensions><gom:speed>0.0</gom:speed></extensions></trkpt>
   <trkpt lat="59.075390815" lon="29.9872808181"><ele>92.522</ele><time>2026-04-25T14:59:25.000Z</time><hdop>3.062</hdop><vdop>3.062</vdop><extensions><gom:speed>0.0</gom:speed></extensions></trkpt>
   <trkpt lat="59.075390815" lon="29.9872808181"><ele>92.522</ele><time>2026-04-25T14:59:26.000Z</time><hdop>3.062</hdop><vdop>3.062</vdop><extensions><gom:speed>0.0</gom:speed></extensions></trkpt>
   <trkpt lat="59.075390815" lon="29.9872808181"><ele>92.522</ele><time>2026-04-25T14:59:27.000Z</time><hdop>3.062</hdop><vdop>3.062</vdop><extensions><gom:speed>0.0</gom:speed></extensions></trkpt>
   <trkpt lat="59.075390815" lon="29.9872808181"><ele>92.522</ele><time>2026-04-25T14:59:28.000Z</time><hdop>3.062</hdop><vdop>3.062</vdop><extensions><gom:speed>0.0</gom:speed></extensions></trkpt>
   <trkpt lat="59.075390815" lon="29.9872808181"><ele>92.522</ele><time>2026-04-25T14:59:28.000Z</time><hdop>3.062</hdop><vdop>3.062</vdop><extensions><gom:speed>0.0</gom:speed></extensions></trkpt>
   <trkpt lat="59.075390815" lon="29.9872808181"><ele>92.522</ele><time>2026-04-25T14:59:29.000Z</time><hdop>3.062</hdop><vdop>3.062</vdop><extensions><gom:speed>0.0</gom:speed></extensions></trkpt>
   <trkpt lat="59.075390815" lon="29.9872808181"><ele>92.522</ele><time>2026-04-25T14:59:30.000Z</time><hdop>3.062</hdop><vdop>3.062</vdop><extensions><gom:speed>0.0</gom:speed></extensions></trkpt>
   <trkpt lat="59.075390815" lon="29.9872808181"><ele>92.522</ele><time>2026-04-25T14:59:31.000Z</time><hdop>3.062</hdop><vdop>3.062</vdop><extensions><gom:speed>0.0</gom:speed></extensions></trkpt>
   <trkpt lat="59.075390815" lon="29.9872808181"><ele>92.522</ele><time>2026-04-25T14:59:32.000Z</time><hdop>3.062</hdop><vdop>3.062</vdop><extensions><gom:speed>0.0</gom:speed></extensions></trkpt>
   <trkpt lat="59.075390815" lon="29.9872808181"><ele>92.522</ele><time>2026-04-25T14:59:33.000Z</time><hdop>3.062</hdop><vdop>3.062</vdop><extensions><gom:speed>0.0</gom:speed></extensions></trkpt>
   <trkpt lat="59.075390815" lon="29.9872808181"><ele>92.522</ele><time>2026-04-25T14:59:34.000Z</time><hdop>3.062</hdop><vdop>3.062</vdop><extensions><gom:speed>0.0</gom:speed></extensions></trkpt>
   <trkpt lat="59.075390815" lon="29.9872808181"><ele>92.522</ele><time>2026-04-25T14:59:35.000Z</time><hdop>3.062</hdop><vdop>3.062</vdop><extensions><gom:speed>0.0</gom:speed></extensions></trkpt>
   <trkpt lat="59.075390815" lon="29.9872808181"><ele>92.522</ele><time>2026-04-25T14:59:36.000Z</time><hdop>3.062</hdop><vdop>3.062</vdop><extensions><gom:speed>0.0</gom:speed></extensions></trkpt>
   <trkpt lat="59.075390815" lon="29.9872808181"><ele>92.522</ele><time>2026-04-25T14:59:37.000Z</time><hdop>3.062</hdop><vdop>3.062</vdop><extensions><gom:speed>0.0</gom:speed></extensions></trkpt>
   <trkpt lat="59.075390815" lon="29.9872808181"><ele>92.522</ele><time>2026-04-25T14:59:38.000Z</time><hdop>3.062</hdop><vdop>3.062</vdop><extensions><gom:speed>0.0</gom:speed></extensions></trkpt>
   <trkpt lat="59.075390815" lon="29.9872808181"><ele>92.522</ele><time>2026-04-25T14:59:39.000Z</time><hdop>3.062</hdop><vdop>3.062</vdop><extensions><gom:speed>0.0</gom:speed></extensions></trkpt>
   <trkpt lat="59.075390815" lon="29.9872808181"><ele>92.522</ele><time>2026-04-25T14:59:40.000Z</time><hdop>3.062</hdop><vdop>3.062</vdop><extensions><gom:speed>0.0</gom:speed></extensions></trkpt>
   <trkpt lat="59.075390815" lon="29.9872808181"><ele>92.522</ele><time>2026-04-25T14:59:41.000Z</time><hdop>3.062</hdop><vdop>3.062</vdop><extensions><gom:speed>0.0</gom:speed></extensions></trkpt>
   <trkpt lat="59.075390815" lon="29.9872808181"><ele>92.522</ele><time>2026-04-25T14:59:42.000Z</time><hdop>3.062</hdop><vdop>3.062</vdop><extensions><gom:speed>0.0</gom:speed></extensions></trkpt>
   <trkpt lat="59.075390815" lon="29.9872808181"><ele>92.522</ele><time>2026-04-25T14:59:43.000Z</time><hdop>3.062</hdop><vdop>3.062</vdop><extensions><gom:speed>0.0</gom:speed></extensions></trkpt>
   <trkpt lat="59.075390815" lon="29.9872808181"><ele>92.522</ele><time>2026-04-25T14:59:44.000Z</time><hdop>3.062</hdop><vdop>3.062</vdop><extensions><gom:speed>0.0</gom:speed></extensions></trkpt>
   <trkpt lat="59.075390815" lon="29.9872808181"><ele>92.522</ele><time>2026-04-25T14:59:45.000Z</time><hdop>3.062</hdop><vdop>3.062</vdop><extensions><gom:speed>0.0</gom:speed></extensions></trkpt>
   <trkpt lat="59.075390815" lon="29.9872808181"><ele>92.522</ele><time>2026-04-25T14:59:46.000Z</time><hdop>3.062</hdop><vdop>3.062</vdop><extensions><gom:speed>0.0</gom:speed></extensions></trkpt>
   <trkpt lat="59.075390815" lon="29.9872808181"><ele>92.522</ele><time>2026-04-25T14:59:47.000Z</time><hdop>3.062</hdop><vdop>3.062</vdop><extensions><gom:speed>0.0</gom:speed></extensions></trkpt>
   <trkpt lat="59.075390815" lon="29.9872808181"><ele>92.522</ele><time>2026-04-25T14:59:48.000Z</time><hdop>3.062</hdop><vdop>3.062</vdop><extensions><gom:speed>0.0</gom:speed></extensions></trkpt>
   <trkpt lat="59.075390815" lon="29.9872808181"><ele>92.522</ele><time>2026-04-25T14:59:48.000Z</time><hdop>3.062</hdop><vdop>3.062</vdop><extensions><gom:speed>0.0</gom:speed></extensions></trkpt>
   <trkpt lat="59.075390815" lon="29.9872808181"><ele>92.522</ele><time>2026-04-25T14:59:49.000Z</time><hdop>3.062</hdop><vdop>3.062</vdop><extensions><gom:speed>0.0</gom:speed></extensions></trkpt>
   <trkpt lat="59.075390815" lon="29.9872808181"><ele>92.522</ele><time>2026-04-25T14:59:50.000Z</time><hdop>3.062</hdop><vdop>3.062</vdop><extensions><gom:speed>0.0</gom:speed></extensions></trkpt>
   <trkpt lat="59.075390815" lon="29.9872808181"><ele>92.522</ele><time>2026-04-25T14:59:51.000Z</time><hdop>3.062</hdop><vdop>3.062</vdop><extensions><gom:speed>0.0</gom:speed></extensions></trkpt>
   <trkpt lat="59.075390815" lon="29.9872808181"><ele>92.522</ele><time>2026-04-25T14:59:52.000Z</time><hdop>3.062</hdop><vdop>3.062</vdop><extensions><gom:speed>0.0</gom:speed></extensions></trkpt>
   <trkpt lat="59.075390815" lon="29.9872808181"><ele>92.522</ele><time>2026-04-25T14:59:53.000Z</time><hdop>3.062</hdop><vdop>3.062</vdop><extensions><gom:speed>0.0</gom:speed></extensions></trkpt>
   <trkpt lat="59.075390815" lon="29.9872808181"><ele>92.522</ele><time>2026-04-25T14:59:54.000Z</time><hdop>3.062</hdop><vdop>3.062</vdop><extensions><gom:speed>0.0</gom:speed></extensions></trkpt>
   <trkpt lat="59.075390815" lon="29.9872808181"><ele>92.522</ele><time>2026-04-25T14:59:55.000Z</time><hdop>3.062</hdop><vdop>3.062</vdop><extensions><gom:speed>0.0</gom:speed></extensions></trkpt>
   <trkpt lat="59.075390815" lon="29.9872808181"><ele>92.522</ele><time>2026-04-25T14:59:56.000Z</time><hdop>3.062</hdop><vdop>3.062</vdop><extensions><gom:speed>0.0</gom:speed></extensions></trkpt>
   <trkpt lat="59.075390815" lon="29.9872808181"><ele>92.522</ele><time>2026-04-25T14:59:57.000Z</time><hdop>3.062</hdop><vdop>3.062</vdop><extensions><gom:speed>0.0</gom:speed></extensions></trkpt>
   <trkpt lat="59.075390815" lon="29.9872808181"><ele>92.522</ele><time>2026-04-25T14:59:58.000Z</time><hdop>3.062</hdop><vdop>3.062</vdop><extensions><gom:speed>0.0</gom:speed></extensions></trkpt>
   <trkpt lat="59.075390815" lon="29.9872808181"><ele>92.522</ele><time>2026-04-25T14:59:59.000Z</time><hdop>3.062</hdop><vdop>3.062</vdop><extensions><gom:speed>0.0</gom:speed></extensions></trkpt>
   <trkpt lat="59.075390815" lon="29.9872808181"><ele>92.522</ele><time>2026-04-25T15:00:00.000Z</time><hdop>3.062</hdop><vdop>3.062</vdop><extensions><gom:speed>0.0</gom:speed></extensions></trkpt>
   <trkpt lat="59.075390815" lon="29.9872808181"><ele>92.522</ele><time>2026-04-25T15:00:01.000Z</time><hdop>3.062</hdop><vdop>3.062</vdop><extensions><gom:speed>0.0</gom:speed></extensions></trkpt>
   <trkpt lat="59.075390815" lon="29.9872808181"><ele>92.522</ele><time>2026-04-25T15:00:02.000Z</time><hdop>3.062</hdop><vdop>3.062</vdop><extensions><gom:speed>0.0</gom:speed></extensions></trkpt>
   <trkpt lat="59.075390815" lon="29.9872808181"><ele>92.522</ele><time>2026-04-25T15:00:03.000Z</time><hdop>3.062</hdop><vdop>3.062</vdop><extensions><gom:speed>0.0</gom:speed></extensions></trkpt>
   <trkpt lat="59.075390815" lon="29.9872808181"><ele>92.522</ele><time>2026-04-25T15:00:04.000Z</time><hdop>3.062</hdop><vdop>3.062</vdop><extensions><gom:speed>0.0</gom:speed></extensions></trkpt>
   <trkpt lat="59.075390815" lon="29.9872808181"><ele>92.522</ele><time>2026-04-25T15:00:05.000Z</time><hdop>3.062</hdop><vdop>3.062</vdop><extensions><gom:speed>0.0</gom:speed></extensions></trkpt>
   <trkpt lat="59.075390815" lon="29.9872808181"><ele>92.522</ele><time>2026-04-25T15:00:06.000Z</time><hdop>3.062</hdop><vdop>3.062</vdop><extensions><gom:speed>0.0</gom:speed></extensions></trkpt>
   <trkpt lat="59.0512399955" lon="29.9639399838"><ele>55.283</ele><time>2026-04-25T15:00:07.075Z</time><hdop>4095.937</hdop><vdop>0.0</vdop><extensions><gom:speed>0.0</gom:speed></extensions></trkpt>
   <trkpt lat="59.075390815" lon="29.9872808181"><ele>70.271</ele><time>2026-04-25T15:00:07.000Z</time><hdop>3.062</hdop><vdop>3.062</vdop><extensions><gom:speed>0.0</gom:speed></extensions></trkpt>
   <trkpt lat="59.075390815" lon="29.9872808181"><ele>79.227</ele><time>2026-04-25T15:00:08.000Z</time><hdop>3.062</hdop><vdop>3.062</vdop><extensions><gom:speed>0.0</gom:speed></extensions></trkpt>
   <trkpt lat="59.075390815" lon="29.9872808181"><ele>84.578</ele><time>2026-04-25T15:00:08.000Z</time><hdop>3.062</hdop><vdop>3.062</vdop><extensions><gom:speed>0.0</gom:speed></extensions></trkpt>
   <trkpt lat="59.075390815" lon="29.9872808181"><ele>87.775</ele><time>2026-04-25T15:00:09.000Z</time><hdop>3.062</hdop><vdop>3.062</vdop><extensions><gom:speed>0.0</gom:speed></extensions></trkpt>
   <trkpt lat="59.075390815" lon="29.9872808181"><ele>89.686</ele><time>2026-04-25T15:00:10.000Z</time><hdop>3.062</hdop><vdop>3.062</vdop><extensions><gom:speed>0.0</gom:speed></extensions></trkpt>
   <trkpt lat="59.075390815" lon="29.9872808181"><ele>90.827</ele><time>2026-04-25T15:00:11.000Z</time><hdop>3.062</hdop><vdop>3.062</vdop><extensions><gom:speed>0.0</gom:speed></extensions></trkpt>
   <trkpt lat="59.075390815" lon="29.9872808181"><ele>91.51</ele><time>2026-04-25T15:00:12.000Z</time><hdop>3.062</hdop><vdop>3.062</vdop><extensions><gom:speed>0.0</gom:speed></extensions></trkpt>
   <trkpt lat="59.075390815" lon="29.9872808181"><ele>91.917</ele><time>2026-04-25T15:00:13.000Z</time><hdop>3.062</hdop><vdop>3.062</vdop><extensions><gom:speed>0.0</gom:speed></extensions></trkpt>
   <trkpt lat="59.075390815" lon="29.9872808181"><ele>92.161</ele><time>2026-04-25T15:00:14.000Z</time><hdop>3.062</hdop><vdop>3.062</vdop><extensions><gom:speed>0.0</gom:speed></extensions></trkpt>
   <trkpt lat="59.075390815" lon="29.9872808181"><ele>92.306</ele><time>2026-04-25T15:00:15.000Z</time><hdop>3.062</hdop><vdop>3.062</vdop><extensions><gom:speed>0.0</gom:speed></extensions></trkpt>
   <trkpt lat="59.075390815" lon="29.9872808181"><ele>92.393</ele><time>2026-04-25T15:00:16.000Z</time><hdop>3.062</hdop><vdop>3.062</vdop><extensions><gom:speed>0.0</gom:speed></extensions></trkpt>
   <trkpt lat="59.075390815" lon="29.9872808181"><ele>92.445</ele><time>2026-04-25T15:00:17.000Z</time><hdop>3.062</hdop><vdop>3.062</vdop><extensions><gom:speed>0.0</gom:speed></extensions></trkpt>
   <trkpt lat="59.075390815" lon="29.9872808181"><ele>92.476</ele><time>2026-04-25T15:00:18.000Z</time><hdop>3.062</hdop><vdop>3.062</vdop><extensions><gom:speed>0.0</gom:speed></extensions></trkpt>
   <trkpt lat="59.075390815" lon="29.9872808181"><ele>92.495</ele><time>2026-04-25T15:00:19.000Z</time><hdop>3.062</hdop><vdop>3.062</vdop><extensions><gom:speed>0.0</gom:speed></extensions></trkpt>
   <trkpt lat="59.075390815" lon="29.9872808181"><ele>92.506</ele><time>2026-04-25T15:00:20.000Z</time><hdop>3.062</hdop><vdop>3.062</vdop><extensions><gom:speed>0.0</gom:speed></extensions></trkpt>
   <trkpt lat="59.075390815" lon="29.9872808181"><ele>92.512</ele><time>2026-04-25T15:00:21.000Z</time><hdop>3.062</hdop><vdop>3.062</vdop><extensions><gom:speed>0.0</gom:speed></extensions></trkpt>
   <trkpt lat="59.075390815" lon="29.9872808181"><ele>92.516</ele><time>2026-04-25T15:00:22.000Z</time><hdop>3.062</hdop><vdop>3.062</vdop><extensions><gom:speed>0.0</gom:speed></extensions></trkpt>
   <trkpt lat="59.075390815" lon="29.9872808181"><ele>92.519</ele><time>2026-04-25T15:00:23.000Z</time><hdop>3.062</hdop><vdop>3.062</vdop><extensions><gom:speed>0.0</gom:speed></extensions></trkpt>
   <trkpt lat="59.075390815" lon="29.9872808181"><ele>92.52</ele><time>2026-04-25T15:00:24.000Z</time><hdop>3.062</hdop><vdop>3.062</vdop><extensions><gom:speed>0.0</gom:speed></extensions></trkpt>
   <trkpt lat="59.075390815" lon="29.9872808181"><ele>92.521</ele><time>2026-04-25T15:00:25.000Z</time><hdop>3.062</hdop><vdop>3.062</vdop><extensions><gom:speed>0.0</gom:speed></extensions></trkpt>
   <trkpt lat="59.075390815" lon="29.9872808181"><ele>92.521</ele><time>2026-04-25T15:00:26.000Z</time><hdop>3.062</hdop><vdop>3.062</vdop><extensions><gom:speed>0.0</gom:speed></extensions></trkpt>
   <trkpt lat="59.075390815" lon="29.9872808181"><ele>92.522</ele><time>2026-04-25T15:00:27.000Z</time><hdop>3.062</hdop><vdop>3.062</vdop><extensions><gom:speed>0.0</gom:speed></extensions></trkpt>
   <trkpt lat="59.075390815" lon="29.9872808181"><ele>92.522</ele><time>2026-04-25T15:00:28.000Z</time><hdop>3.062</hdop><vdop>3.062</vdop><extensions><gom:speed>0.0</gom:speed></extensions></trkpt>
   <trkpt lat="59.075390815" lon="29.9872808181"><ele>92.522</ele><time>2026-04-25T15:00:28.000Z</time><hdop>3.062</hdop><vdop>3.062</vdop><extensions><gom:speed>0.0</gom:speed></extensions></trkpt>
   <trkpt lat="59.075390815" lon="29.9872808181"><ele>92.522</ele><time>2026-04-25T15:00:29.000Z</time><hdop>3.062</hdop><vdop>3.062</vdop><extensions><gom:speed>0.0</gom:speed></extensions></trkpt>
   <trkpt lat="59.075390815" lon="29.9872808181"><ele>92.522</ele><time>2026-04-25T15:00:30.000Z</time><hdop>3.062</hdop><vdop>3.062</vdop><extensions><gom:speed>0.0</gom:speed></extensions></trkpt>
   <trkpt lat="59.075390815" lon="29.9872808181"><ele>92.522</ele><time>2026-04-25T15:00:31.000Z</time><hdop>3.062</hdop><vdop>3.062</vdop><extensions><gom:speed>0.0</gom:speed></extensions></trkpt>
   <trkpt lat="59.075390815" lon="29.9872808181"><ele>92.522</ele><time>2026-04-25T15:00:32.000Z</time><hdop>3.062</hdop><vdop>3.062</vdop><extensions><gom:speed>0.0</gom:speed></extensions></trkpt>
   <trkpt lat="59.075390815" lon="29.9872808181"><ele>92.522</ele><time>2026-04-25T15:00:33.000Z</time><hdop>3.062</hdop><vdop>3.062</vdop><extensions><gom:speed>0.0</gom:speed></extensions></trkpt>
   <trkpt lat="59.075390815" lon="29.9872808181"><ele>92.522</ele><time>2026-04-25T15:00:34.000Z</time><hdop>3.062</hdop><vdop>3.062</vdop><extensions><gom:speed>0.0</gom:speed></extensions></trkpt>
   <trkpt lat="59.075390815" lon="29.9872808181"><ele>92.522</ele><time>2026-04-25T15:00:35.000Z</time><hdop>3.062</hdop><vdop>3.062</vdop><extensions><gom:speed>0.0</gom:speed></extensions></trkpt>
   <trkpt lat="59.075390815" lon="29.9872808181"><ele>92.522</ele><time>2026-04-25T15:00:36.000Z</time><hdop>3.062</hdop><vdop>3.062</vdop><extensions><gom:speed>0.0</gom:speed></extensions></trkpt>
   <trkpt lat="59.075390815" lon="29.9872808181"><ele>92.522</ele><time>2026-04-25T15:00:37.000Z</time><hdop>3.062</hdop><vdop>3.062</vdop><extensions><gom:speed>0.0</gom:speed></extensions></trkpt>
   <trkpt lat="59.075390815" lon="29.9872808181"><ele>92.522</ele><time>2026-04-25T15:00:38.000Z</time><hdop>3.062</hdop><vdop>3.062</vdop><extensions><gom:speed>0.0</gom:speed></extensions></trkpt>
   <trkpt lat="59.075390815" lon="29.9872808181"><ele>92.522</ele><time>2026-04-25T15:00:39.000Z</time><hdop>3.062</hdop><vdop>3.062</vdop><extensions><gom:speed>0.0</gom:speed></extensions></trkpt>
   <trkpt lat="59.075390815" lon="29.9872808181"><ele>92.522</ele><time>2026-04-25T15:00:40.000Z</time><hdop>3.062</hdop><vdop>3.062</vdop><extensions><gom:speed>0.0</gom:speed></extensions></trkpt>
   <trkpt lat="59.075390815" lon="29.9872808181"><ele>92.522</ele><time>2026-04-25T15:00:41.000Z</time><hdop>3.062</hdop><vdop>3.062</vdop><extensions><gom:speed>0.0</gom:speed></extensions></trkpt>
   <trkpt lat="59.075390815" lon="29.9872808181"><ele>92.522</ele><time>2026-04-25T15:00:42.000Z</time><hdop>3.062</hdop><vdop>3.062</vdop><extensions><gom:speed>0.0</gom:speed></extensions></trkpt>
   <trkpt lat="59.075390815" lon="29.9872808181"><ele>92.522</ele><time>2026-04-25T15:00:43.000Z</time><hdop>3.062</hdop><vdop>3.062</vdop><extensions><gom:speed>0.0</gom:speed></extensions></trkpt>
   <trkpt lat="59.075390815" lon="29.9872808181"><ele>92.522</ele><time>2026-04-25T15:00:44.000Z</time><hdop>3.062</hdop><vdop>3.062</vdop><extensions><gom:speed>0.0</gom:speed></extensions></trkpt>
   <trkpt lat="59.075390815" lon="29.9872808181"><ele>92.522</ele><time>2026-04-25T15:00:45.000Z</time><hdop>3.062</hdop><vdop>3.062</vdop><extensions><gom:speed>0.0</gom:speed></extensions></trkpt>
   <trkpt lat="59.075390815" lon="29.9872808181"><ele>92.522</ele><time>2026-04-25T15:00:46.000Z</time><hdop>3.062</hdop><vdop>3.062</vdop><extensions><gom:speed>0.0</gom:speed></extensions></trkpt>
   <trkpt lat="59.075390815" lon="29.9872808181"><ele>92.522</ele><time>2026-04-25T15:00:47.000Z</time><hdop>3.062</hdop><vdop>3.062</vdop><extensions><gom:speed>0.0</gom:speed></extensions></trkpt>
   <trkpt lat="59.075390815" lon="29.9872808181"><ele>92.522</ele><time>2026-04-25T15:00:48.000Z</time><hdop>3.062</hdop><vdop>3.062</vdop><extensions><gom:speed>0.0</gom:speed></extensions></trkpt>
   <trkpt lat="59.075390815" lon="29.9872808181"><ele>92.522</ele><time>2026-04-25T15:00:48.000Z</time><hdop>3.062</hdop><vdop>3.062</vdop><extensions><gom:speed>0.0</gom:speed></extensions></trkpt>
   <trkpt lat="59.075390815" lon="29.9872808181"><ele>92.522</ele><time>2026-04-25T15:00:49.000Z</time><hdop>3.062</hdop><vdop>3.062</vdop><extensions><gom:speed>0.0</gom:speed></extensions></trkpt>
   <trkpt lat="59.075390815" lon="29.9872808181"><ele>92.522</ele><time>2026-04-25T15:00:50.000Z</time><hdop>3.062</hdop><vdop>3.062</vdop><extensions><gom:speed>0.0</gom:speed></extensions></trkpt>
   <trkpt lat="59.075390815" lon="29.9872808181"><ele>92.522</ele><time>2026-04-25T15:00:51.000Z</time><hdop>3.062</hdop><vdop>3.062</vdop><extensions><gom:speed>0.0</gom:speed></extensions></trkpt>
   <trkpt lat="59.075390815" lon="29.9872808181"><ele>92.522</ele><time>2026-04-25T15:00:52.000Z</time><hdop>3.062</hdop><vdop>3.062</vdop><extensions><gom:speed>0.0</gom:speed></extensions></trkpt>
   <trkpt lat="59.075390815" lon="29.9872808181"><ele>92.522</ele><time>2026-04-25T15:00:53.000Z</time><hdop>3.062</hdop><vdop>3.062</vdop><extensions><gom:speed>0.0</gom:speed></extensions></trkpt>
   <trkpt lat="59.075390815" lon="29.9872808181"><ele>92.522</ele><time>2026-04-25T15:00:54.000Z</time><hdop>3.062</hdop><vdop>3.062</vdop><extensions><gom:speed>0.0</gom:speed></extensions></trkpt>
   <trkpt lat="59.075390815" lon="29.9872808181"><ele>92.522</ele><time>2026-04-25T15:00:55.000Z</time><hdop>3.062</hdop><vdop>3.062</vdop><extensions><gom:speed>0.0</gom:speed></extensions></trkpt>
   <trkpt lat="59.075390815" lon="29.9872808181"><ele>92.522</ele><time>2026-04-25T15:00:56.000Z</time><hdop>3.062</hdop><vdop>3.062</vdop><extensions><gom:speed>0.0</gom:speed></extensions></trkpt>
   <trkpt lat="59.075390815" lon="29.9872808181"><ele>92.522</ele><time>2026-04-25T15:00:57.000Z</time><hdop>3.062</hdop><vdop>3.062</vdop><extensions><gom:speed>0.0</gom:speed></extensions></trkpt>
   <trkpt lat="59.075390815" lon="29.9872808181"><ele>92.522</ele><time>2026-04-25T15:00:58.000Z</time><hdop>3.062</hdop><vdop>3.062</vdop><extensions><gom:speed>0.0</gom:speed></extensions></trkpt>
   <trkpt lat="59.075390815" lon="29.9872808181"><ele>92.522</ele><time>2026-04-25T15:00:59.000Z</time><hdop>3.062</hdop><vdop>3.062</vdop><extensions><gom:speed>0.0</gom:speed></extensions></trkpt>
   <trkpt lat="59.075390815" lon="29.9872808181"><ele>92.522</ele><time>2026-04-25T15:01:00.000Z</time><hdop>3.062</hdop><vdop>3.062</vdop><extensions><gom:speed>0.0</gom:speed></extensions></trkpt>
   <trkpt lat="59.075390815" lon="29.9872808181"><ele>92.522</ele><time>2026-04-25T15:01:01.000Z</time><hdop>3.062</hdop><vdop>3.062</vdop><extensions><gom:speed>0.0</gom:speed></extensions></trkpt>
   <trkpt lat="59.075390815" lon="29.9872808181"><ele>92.522</ele><time>2026-04-25T15:01:02.000Z</time><hdop>3.062</hdop><vdop>3.062</vdop><extensions><gom:speed>0.0</gom:speed></extensions></trkpt>
   <trkpt lat="59.075390815" lon="29.9872808181"><ele>92.522</ele><time>2026-04-25T15:01:03.000Z</time><hdop>3.062</hdop><vdop>3.062</vdop><extensions><gom:speed>0.0</gom:speed></extensions></trkpt>
   <trkpt lat="59.075390815" lon="29.9872808181"><ele>92.522</ele><time>2026-04-25T15:01:04.000Z</time><hdop>3.062</hdop><vdop>3.062</vdop><extensions><gom:speed>0.0</gom:speed></extensions></trkpt>
   <trkpt lat="59.075390815" lon="29.9872808181"><ele>92.522</ele><time>2026-04-25T15:01:05.000Z</time><hdop>3.062</hdop><vdop>3.062</vdop><extensions><gom:speed>0.0</gom:speed></extensions></trkpt>
   <trkpt lat="59.075390815" lon="29.9872808181"><ele>92.522</ele><time>2026-04-25T15:01:06.000Z</time><hdop>3.062</hdop><vdop>3.062</vdop><extensions><gom:speed>0.0</gom:speed></extensions></trkpt>
   <trkpt lat="59.075390815" lon="29.9872808181"><ele>92.522</ele><time>2026-04-25T15:01:07.000Z</time><hdop>3.062</hdop><vdop>3.062</vdop><extensions><gom:speed>0.0</gom:speed></extensions></trkpt>
   <trkpt lat="59.075390815" lon="29.9872808181"><ele>92.522</ele><time>2026-04-25T15:01:08.000Z</time><hdop>3.062</hdop><vdop>3.062</vdop><extensions><gom:speed>0.0</gom:speed></extensions></trkpt>
   <trkpt lat="59.075390815" lon="29.9872808181"><ele>92.522</ele><time>2026-04-25T15:01:08.000Z</time><hdop>3.062</hdop><vdop>3.062</vdop><extensions><gom:speed>0.0</gom:speed></extensions></trkpt>
   <trkpt lat="59.075390815" lon="29.9872808181"><ele>92.522</ele><time>2026-04-25T15:01:09.000Z</time><hdop>3.062</hdop><vdop>3.062</vdop><extensions><gom:speed>0.0</gom:speed></extensions></trkpt>
   <trkpt lat="59.075390815" lon="29.9872808181"><ele>92.522</ele><time>2026-04-25T15:01:10.000Z</time><hdop>3.062</hdop><vdop>3.062</vdop><extensions><gom:speed>0.0</gom:speed></extensions></trkpt>
   <trkpt lat="59.075390815" lon="29.9872808181"><ele>92.522</ele><time>2026-04-25T15:01:11.000Z</time><hdop>3.062</hdop><vdop>3.062</vdop><extensions><gom:speed>0.0</gom:speed></extensions></trkpt>
   <trkpt lat="59.075390815" lon="29.9872808181"><ele>92.522</ele><time>2026-04-25T15:01:12.000Z</time><hdop>3.062</hdop><vdop>3.062</vdop><extensions><gom:speed>0.0</gom:speed></extensions></trkpt>
   <trkpt lat="59.075390815" lon="29.9872808181"><ele>92.522</ele><time>2026-04-25T15:01:13.000Z</time><hdop>3.062</hdop><vdop>3.062</vdop><extensions><gom:speed>0.0</gom:speed></extensions></trkpt>
   <trkpt lat="59.075390815" lon="29.9872808181"><ele>92.522</ele><time>2026-04-25T15:01:14.000Z</time><hdop>3.062</hdop><vdop>3.062</vdop><extensions><gom:speed>0.0</gom:speed></extensions></trkpt>
   <trkpt lat="59.075390815" lon="29.9872808181"><ele>92.522</ele><time>2026-04-25T15:01:15.000Z</time><hdop>3.062</hdop><vdop>3.062</vdop><extensions><gom:speed>0.0</gom:speed></extensions></trkpt>
   <trkpt lat="59.075390815" lon="29.9872808181"><ele>92.522</ele><time>2026-04-25T15:01:16.000Z</time><hdop>3.062</hdop><vdop>3.062</vdop><extensions><gom:speed>0.0</gom:speed></extensions></trkpt>
   <trkpt lat="59.075390815" lon="29.9872808181"><ele>92.522</ele><time>2026-04-25T15:01:17.000Z</time><hdop>3.062</hdop><vdop>3.062</vdop><extensions><gom:speed>0.0</gom:speed></extensions></trkpt>
   <trkpt lat="59.075390815" lon="29.9872808181"><ele>92.522</ele><time>2026-04-25T15:01:18.000Z</time><hdop>3.062</hdop><vdop>3.062</vdop><extensions><gom:speed>0.0</gom:speed></extensions></trkpt>
   <trkpt lat="59.075390815" lon="29.9872808181"><ele>92.522</ele><time>2026-04-25T15:01:19.000Z</time><hdop>3.062</hdop><vdop>3.062</vdop><extensions><gom:speed>0.0</gom:speed></extensions></trkpt>
   <trkpt lat="59.075390815" lon="29.9872808181"><ele>92.522</ele><time>2026-04-25T15:01:20.000Z</time><hdop>3.062</hdop><vdop>3.062</vdop><extensions><gom:speed>0.0</gom:speed></extensions></trkpt>
   <trkpt lat="59.075390815" lon="29.9872808181"><ele>92.522</ele><time>2026-04-25T15:01:21.000Z</time><hdop>3.062</hdop><vdop>3.062</vdop><extensions><gom:speed>0.0</gom:speed></extensions></trkpt>
   <trkpt lat="59.075390815" lon="29.9872808181"><ele>92.522</ele><time>2026-04-25T15:01:22.000Z</time><hdop>3.062</hdop><vdop>3.062</vdop><extensions><gom:speed>0.0</gom:speed></extensions></trkpt>
   <trkpt lat="59.075390815" lon="29.9872808181"><ele>92.522</ele><time>2026-04-25T15:01:23.000Z</time><hdop>3.062</hdop><vdop>3.062</vdop><extensions><gom:speed>0.0</gom:speed></extensions></trkpt>
   <trkpt lat="59.075390815" lon="29.9872808181"><ele>92.522</ele><time>2026-04-25T15:01:24.000Z</time><hdop>3.062</hdop><vdop>3.062</vdop><extensions><gom:speed>0.0</gom:speed></extensions></trkpt>
   <trkpt lat="59.075390815" lon="29.9872808181"><ele>92.522</ele><time>2026-04-25T15:01:25.000Z</time><hdop>3.062</hdop><vdop>3.062</vdop><extensions><gom:speed>0.0</gom:speed></extensions></trkpt>
   <trkpt lat="59.075390815" lon="29.9872808181"><ele>92.522</ele><time>2026-04-25T15:01:26.000Z</time><hdop>3.062</hdop><vdop>3.062</vdop><extensions><gom:speed>0.0</gom:speed></extensions></trkpt>
   <trkpt lat="59.075390815" lon="29.9872808181"><ele>92.522</ele><time>2026-04-25T15:01:27.000Z</time><hdop>3.062</hdop><vdop>3.062</vdop><extensions><gom:speed>0.0</gom:speed></extensions></trkpt>
   <trkpt lat="59.075390815" lon="29.9872808181"><ele>92.522</ele><time>2026-04-25T15:01:28.000Z</time><hdop>3.062</hdop><vdop>3.062</vdop><extensions><gom:speed>0.0</gom:speed></extensions></trkpt>
   <trkpt lat="59.075390815" lon="29.9872808181"><ele>92.522</ele><time>2026-04-25T15:01:29.000Z</time><hdop>3.062</hdop><vdop>3.062</vdop><extensions><gom:speed>0.0</gom:speed></extensions></trkpt>
   <trkpt lat="59.075390815" lon="29.9872808181"><ele>92.522</ele><time>2026-04-25T15:01:30.000Z</time><hdop>3.062</hdop><vdop>3.062</vdop><extensions><gom:speed>0.0</gom:speed></extensions></trkpt>
   <trkpt lat="59.075390815" lon="29.9872808181"><ele>92.522</ele><time>2026-04-25T15:01:31.000Z</time><hdop>3.062</hdop><vdop>3.062</vdop><extensions><gom:speed>0.0</gom:speed></extensions></trkpt>
   <trkpt lat="59.075390815" lon="29.9872808181"><ele>92.522</ele><time>2026-04-25T15:01:31.000Z</time><hdop>3.062</hdop><vdop>3.062</vdop><extensions><gom:speed>0.0</gom:speed></extensions></trkpt>
   <trkpt lat="59.075390815" lon="29.9872808181"><ele>92.522</ele><time>2026-04-25T15:01:32.000Z</time><hdop>3.062</hdop><vdop>3.062</vdop><extensions><gom:speed>0.0</gom:speed></extensions></trkpt>
   <trkpt lat="59.075390815" lon="29.9872808181"><ele>92.522</ele><time>2026-04-25T15:01:33.000Z</time><hdop>3.062</hdop><vdop>3.062</vdop><extensions><gom:speed>0.0</gom:speed></extensions></trkpt>
   <trkpt lat="59.075390815" lon="29.9872808181"><ele>92.522</ele><time>2026-04-25T15:01:34.000Z</time><hdop>3.062</hdop><vdop>3.062</vdop><extensions><gom:speed>0.0</gom:speed></extensions></trkpt>
   <trkpt lat="59.075390815" lon="29.9872808181"><ele>92.522</ele><time>2026-04-25T15:01:35.000Z</time><hdop>3.062</hdop><vdop>3.062</vdop><extensions><gom:speed>0.0</gom:speed></extensions></trkpt>
   <trkpt lat="59.075390815" lon="29.9872808181"><ele>92.522</ele><time>2026-04-25T15:01:36.000Z</time><hdop>3.062</hdop><vdop>3.062</vdop><extensions><gom:speed>0.0</gom:speed></extensions></trkpt>
   <trkpt lat="59.075390815" lon="29.9872808181"><ele>92.522</ele><time>2026-04-25T15:01:37.000Z</time><hdop>3.062</hdop><vdop>3.062</vdop><extensions><gom:speed>0.0</gom:speed></extensions></trkpt>
   <trkpt lat="59.075390815" lon="29.9872808181"><ele>92.522</ele><time>2026-04-25T15:01:38.000Z</time><hdop>3.062</hdop><vdop>3.062</vdop><extensions><gom:speed>0.0</gom:speed></extensions></trkpt>
   <trkpt lat="59.075390815" lon="29.9872808181"><ele>92.522</ele><time>2026-04-25T15:01:39.000Z</time><hdop>3.062</hdop><vdop>3.062</vdop><extensions><gom:speed>0.0</gom:speed></extensions></trkpt>
   <trkpt lat="59.075390815" lon="29.9872808181"><ele>92.522</ele><time>2026-04-25T15:01:40.000Z</time><hdop>3.062</hdop><vdop>3.062</vdop><extensions><gom:speed>0.0</gom:speed></extensions></trkpt>
   <trkpt lat="59.075390815" lon="29.9872808181"><ele>92.522</ele><time>2026-04-25T15:01:41.000Z</time><hdop>3.062</hdop><vdop>3.062</vdop><extensions><gom:speed>0.0</gom:speed></extensions></trkpt>
   <trkpt lat="59.075390815" lon="29.9872808181"><ele>92.522</ele><time>2026-04-25T15:01:42.000Z</time><hdop>3.062</hdop><vdop>3.062</vdop><extensions><gom:speed>0.0</gom:speed></extensions></trkpt>
   <trkpt lat="59.075390815" lon="29.9872808181"><ele>92.522</ele><time>2026-04-25T15:01:43.000Z</time><hdop>3.062</hdop><vdop>3.062</vdop><extensions><gom:speed>0.0</gom:speed></extensions></trkpt>
   <trkpt lat="59.075390815" lon="29.9872808181"><ele>92.522</ele><time>2026-04-25T15:01:44.000Z</time><hdop>3.062</hdop><vdop>3.062</vdop><extensions><gom:speed>0.0</gom:speed></extensions></trkpt>
   <trkpt lat="59.075390815" lon="29.9872808181"><ele>92.522</ele><time>2026-04-25T15:01:45.000Z</time><hdop>3.062</hdop><vdop>3.062</vdop><extensions><gom:speed>0.0</gom:speed></extensions></trkpt>
   <trkpt lat="59.075390815" lon="29.9872808181"><ele>92.522</ele><time>2026-04-25T15:01:46.000Z</time><hdop>3.062</hdop><vdop>3.062</vdop><extensions><gom:speed>0.0</gom:speed></extensions></trkpt>
   <trkpt lat="59.075390815" lon="29.9872808181"><ele>92.522</ele><time>2026-04-25T15:01:47.000Z</time><hdop>3.062</hdop><vdop>3.062</vdop><extensions><gom:speed>0.0</gom:speed></extensions></trkpt>
   <trkpt lat="59.075390815" lon="29.9872808181"><ele>92.522</ele><time>2026-04-25T15:01:48.000Z</time><hdop>3.062</hdop><vdop>3.062</vdop><extensions><gom:speed>0.0</gom:speed></extensions></trkpt>
   <trkpt lat="59.075390815" lon="29.9872808181"><ele>92.522</ele><time>2026-04-25T15:01:48.000Z</time><hdop>3.062</hdop><vdop>3.062</vdop><extensions><gom:speed>0.0</gom:speed></extensions></trkpt>
   <trkpt lat="59.075390815" lon="29.9872808181"><ele>92.522</ele><time>2026-04-25T15:01:49.000Z</time><hdop>3.062</hdop><vdop>3.062</vdop><extensions><gom:speed>0.0</gom:speed></extensions></trkpt>
   <trkpt lat="59.075390815" lon="29.9872808181"><ele>92.522</ele><time>2026-04-25T15:01:50.000Z</time><hdop>3.062</hdop><vdop>3.062</vdop><extensions><gom:speed>0.0</gom:speed></extensions></trkpt>
   <trkpt lat="59.075390815" lon="29.9872808181"><ele>92.522</ele><time>2026-04-25T15:01:51.000Z</time><hdop>3.062</hdop><vdop>3.062</vdop><extensions><gom:speed>0.0</gom:speed></extensions></trkpt>
   <trkpt lat="59.075390815" lon="29.9872808181"><ele>92.522</ele><time>2026-04-25T15:01:52.000Z</time><hdop>3.062</hdop><vdop>3.062</vdop><extensions><gom:speed>0.0</gom:speed></extensions></trkpt>
   <trkpt lat="59.075390815" lon="29.9872808181"><ele>92.522</ele><time>2026-04-25T15:01:53.000Z</time><hdop>3.062</hdop><vdop>3.062</vdop><extensions><gom:speed>0.0</gom:speed></extensions></trkpt>
   <trkpt lat="59.075390815" lon="29.9872808181"><ele>92.522</ele><time>2026-04-25T15:01:54.000Z</time><hdop>3.062</hdop><vdop>3.062</vdop><extensions><gom:speed>0.0</gom:speed></extensions></trkpt>
   <trkpt lat="59.075390815" lon="29.9872808181"><ele>92.522</ele><time>2026-04-25T15:01:55.000Z</time><hdop>3.062</hdop><vdop>3.062</vdop><extensions><gom:speed>0.0</gom:speed></extensions></trkpt>
   <trkpt lat="59.075390815" lon="29.9872808181"><ele>92.522</ele><time>2026-04-25T15:01:56.000Z</time><hdop>3.062</hdop><vdop>3.062</vdop><extensions><gom:speed>0.0</gom:speed></extensions></trkpt>
   <trkpt lat="59.075390815" lon="29.9872808181"><ele>92.522</ele><time>2026-04-25T15:01:57.000Z</time><hdop>3.062</hdop><vdop>3.062</vdop><extensions><gom:speed>0.0</gom:speed></extensions></trkpt>
   <trkpt lat="59.075390815" lon="29.9872808181"><ele>92.522</ele><time>2026-04-25T15:01:58.000Z</time><hdop>3.062</hdop><vdop>3.062</vdop><extensions><gom:speed>0.0</gom:speed></extensions></trkpt>
   <trkpt lat="59.075390815" lon="29.9872808181"><ele>92.522</ele><time>2026-04-25T15:01:59.000Z</time><hdop>3.062</hdop><vdop>3.062</vdop><extensions><gom:speed>0.0</gom:speed></extensions></trkpt>
   <trkpt lat="59.075390815" lon="29.9872808181"><ele>92.522</ele><time>2026-04-25T15:02:00.000Z</time><hdop>3.062</hdop><vdop>3.062</vdop><extensions><gom:speed>0.0</gom:speed></extensions></trkpt>
   <trkpt lat="59.075390815" lon="29.9872808181"><ele>92.522</ele><time>2026-04-25T15:02:01.000Z</time><hdop>3.062</hdop><vdop>3.062</vdop><extensions><gom:speed>0.0</gom:speed></extensions></trkpt>
   <trkpt lat="59.075390815" lon="29.9872808181"><ele>92.522</ele><time>2026-04-25T15:02:02.000Z</time><hdop>3.062</hdop><vdop>3.062</vdop><extensions><gom:speed>0.0</gom:speed></extensions></trkpt>
   <trkpt lat="59.075390815" lon="29.9872808181"><ele>92.522</ele><time>2026-04-25T15:02:03.000Z</time><hdop>3.062</hdop><vdop>3.062</vdop><extensions><gom:speed>0.0</gom:speed></extensions></trkpt>
   <trkpt lat="59.075390815" lon="29.9872808181"><ele>92.522</ele><time>2026-04-25T15:02:04.000Z</time><hdop>3.062</hdop><vdop>3.062</vdop><extensions><gom:speed>0.0</gom:speed></extensions></trkpt>
   <trkpt lat="59.075390815" lon="29.9872808181"><ele>92.522</ele><time>2026-04-25T15:02:05.000Z</time><hdop>3.062</hdop><vdop>3.062</vdop><extensions><gom:speed>0.0</gom:speed></extensions></trkpt>
   <trkpt lat="59.075390815" lon="29.9872808181"><ele>92.522</ele><time>2026-04-25T15:02:06.000Z</time><hdop>3.062</hdop><vdop>3.062</vdop><extensions><gom:speed>0.0</gom:speed></extensions></trkpt>
   <trkpt lat="59.075390815" lon="29.9872808181"><ele>92.522</ele><time>2026-04-25T15:02:07.000Z</time><hdop>3.062</hdop><vdop>3.062</vdop><extensions><gom:speed>0.0</gom:speed></extensions></trkpt>
   <trkpt lat="59.075390815" lon="29.9872808181"><ele>92.522</ele><time>2026-04-25T15:02:08.000Z</time><hdop>3.062</hdop><vdop>3.062</vdop><extensions><gom:speed>0.0</gom:speed></extensions></trkpt>
   <trkpt lat="59.075390815" lon="29.9872808181"><ele>92.522</ele><time>2026-04-25T15:02:08.000Z</time><hdop>3.062</hdop><vdop>3.062</vdop><extensions><gom:speed>0.0</gom:speed></extensions></trkpt>
   <trkpt lat="59.075390815" lon="29.9872808181"><ele>92.522</ele><time>2026-04-25T15:02:09.000Z</time><hdop>3.062</hdop><vdop>3.062</vdop><extensions><gom:speed>0.0</gom:speed></extensions></trkpt>
   <trkpt lat="59.075390815" lon="29.9872808181"><ele>92.522</ele><time>2026-04-25T15:02:10.000Z</time><hdop>3.062</hdop><vdop>3.062</vdop><extensions><gom:speed>0.0</gom:speed></extensions></trkpt>
   <trkpt lat="59.075390815" lon="29.9872808181"><ele>92.522</ele><time>2026-04-25T15:02:11.000Z</time><hdop>3.062</hdop><vdop>3.062</vdop><extensions><gom:speed>0.0</gom:speed></extensions></trkpt>
   <trkpt lat="59.075390815" lon="29.9872808181"><ele>92.522</ele><time>2026-04-25T15:02:12.000Z</time><hdop>3.062</hdop><vdop>3.062</vdop><extensions><gom:speed>0.0</gom:speed></extensions></trkpt>
   <trkpt lat="59.075390815" lon="29.9872808181"><ele>92.522</ele><time>2026-04-25T15:02:13.000Z</time><hdop>3.062</hdop><vdop>3.062</vdop><extensions><gom:speed>0.0</gom:speed></extensions></trkpt>
   <trkpt lat="59.075390815" lon="29.9872808181"><ele>92.522</ele><time>2026-04-25T15:02:14.000Z</time><hdop>3.062</hdop><vdop>3.062</vdop><extensions><gom:speed>0.0</gom:speed></extensions></trkpt>
   <trkpt lat="59.075390815" lon="29.9872808181"><ele>92.522</ele><time>2026-04-25T15:02:15.000Z</time><hdop>3.062</hdop><vdop>3.062</vdop><extensions><gom:speed>0.0</gom:speed></extensions></trkpt>
   <trkpt lat="59.075390815" lon="29.9872808181"><ele>92.522</ele><time>2026-04-25T15:02:16.000Z</time><hdop>3.062</hdop><vdop>3.062</vdop><extensions><gom:speed>0.0</gom:speed></extensions></trkpt>
   <trkpt lat="59.075390815" lon="29.9872808181"><ele>92.522</ele><time>2026-04-25T15:02:17.000Z</time><hdop>3.062</hdop><vdop>3.062</vdop><extensions><gom:speed>0.0</gom:speed></extensions></trkpt>
   <trkpt lat="59.075390815" lon="29.9872808181"><ele>92.522</ele><time>2026-04-25T15:02:18.000Z</time><hdop>3.062</hdop><vdop>3.062</vdop><extensions><gom:speed>0.0</gom:speed></extensions></trkpt>
   <trkpt lat="59.075390815" lon="29.9872808181"><ele>92.522</ele><time>2026-04-25T15:02:19.000Z</time><hdop>3.062</hdop><vdop>3.062</vdop><extensions><gom:speed>0.0</gom:speed></extensions></trkpt>
   <trkpt lat="59.075390815" lon="29.9872808181"><ele>92.522</ele><time>2026-04-25T15:02:20.000Z</time><hdop>3.062</hdop><vdop>3.062</vdop><extensions><gom:speed>0.0</gom:speed></extensions></trkpt>
   <trkpt lat="59.075390815" lon="29.9872808181"><ele>92.522</ele><time>2026-04-25T15:02:21.000Z</time><hdop>3.062</hdop><vdop>3.062</vdop><extensions><gom:speed>0.0</gom:speed></extensions></trkpt>
   <trkpt lat="59.075390815" lon="29.9872808181"><ele>92.522</ele><time>2026-04-25T15:02:22.000Z</time><hdop>3.062</hdop><vdop>3.062</vdop><extensions><gom:speed>0.0</gom:speed></extensions></trkpt>
   <trkpt lat="59.075390815" lon="29.9872808181"><ele>92.522</ele><time>2026-04-25T15:02:23.000Z</time><hdop>3.062</hdop><vdop>3.062</vdop><extensions><gom:speed>0.0</gom:speed></extensions></trkpt>
   <trkpt lat="59.075390815" lon="29.9872808181"><ele>92.522</ele><time>2026-04-25T15:02:24.000Z</time><hdop>3.062</hdop><vdop>3.062</vdop><extensions><gom:speed>0.0</gom:speed></extensions></trkpt>
   <trkpt lat="59.075390815" lon="29.9872808181"><ele>92.522</ele><time>2026-04-25T15:02:25.000Z</time><hdop>3.062</hdop><vdop>3.062</vdop><extensions><gom:speed>0.0</gom:speed></extensions></trkpt>
   <trkpt lat="59.075390815" lon="29.9872808181"><ele>92.522</ele><time>2026-04-25T15:02:26.000Z</time><hdop>3.062</hdop><vdop>3.062</vdop><extensions><gom:speed>0.0</gom:speed></extensions></trkpt>
   <trkpt lat="59.075390815" lon="29.9872808181"><ele>92.522</ele><time>2026-04-25T15:02:27.000Z</time><hdop>3.062</hdop><vdop>3.062</vdop><extensions><gom:speed>0.0</gom:speed></extensions></trkpt>
   <trkpt lat="59.075390815" lon="29.9872808181"><ele>92.522</ele><time>2026-04-25T15:02:28.000Z</time><hdop>3.062</hdop><vdop>3.062</vdop><extensions><gom:speed>0.0</gom:speed></extensions></trkpt>
   <trkpt lat="59.075390815" lon="29.9872808181"><ele>92.522</ele><time>2026-04-25T15:02:29.000Z</time><hdop>3.062</hdop><vdop>3.062</vdop><extensions><gom:speed>0.0</gom:speed></extensions></trkpt>
   <trkpt lat="59.075390815" lon="29.9872808181"><ele>92.522</ele><time>2026-04-25T15:02:30.000Z</time><hdop>3.062</hdop><vdop>3.062</vdop><extensions><gom:speed>0.0</gom:speed></extensions></trkpt>
   <trkpt lat="59.075390815" lon="29.9872808181"><ele>92.522</ele><time>2026-04-25T15:02:31.000Z</time><hdop>3.062</hdop><vdop>3.062</vdop><extensions><gom:speed>0.0</gom:speed></extensions></trkpt>
   <trkpt lat="59.075390815" lon="29.9872808181"><ele>92.522</ele><time>2026-04-25T15:02:31.000Z</time><hdop>3.062</hdop><vdop>3.062</vdop><extensions><gom:speed>0.0</gom:speed></extensions></trkpt>
   <trkpt lat="59.075390815" lon="29.9872808181"><ele>92.522</ele><time>2026-04-25T15:02:32.000Z</time><hdop>3.062</hdop><vdop>3.062</vdop><extensions><gom:speed>0.0</gom:speed></extensions></trkpt>
   <trkpt lat="59.075390815" lon="29.9872808181"><ele>92.522</ele><time>2026-04-25T15:02:33.000Z</time><hdop>3.062</hdop><vdop>3.062</vdop><extensions><gom:speed>0.0</gom:speed></extensions></trkpt>
   <trkpt lat="59.075390815" lon="29.9872808181"><ele>92.522</ele><time>2026-04-25T15:02:34.000Z</time><hdop>3.062</hdop><vdop>3.062</vdop><extensions><gom:speed>0.0</gom:speed></extensions></trkpt>
   <trkpt lat="59.075390815" lon="29.9872808181"><ele>92.522</ele><time>2026-04-25T15:02:35.000Z</time><hdop>3.062</hdop><vdop>3.062</vdop><extensions><gom:speed>0.0</gom:speed></extensions></trkpt>
   <trkpt lat="59.075390815" lon="29.9872808181"><ele>92.522</ele><time>2026-04-25T15:02:36.000Z</time><hdop>3.062</hdop><vdop>3.062</vdop><extensions><gom:speed>0.0</gom:speed></extensions></trkpt>
   <trkpt lat="59.075390815" lon="29.9872808181"><ele>92.522</ele><time>2026-04-25T15:02:37.000Z</time><hdop>3.062</hdop><vdop>3.062</vdop><extensions><gom:speed>0.0</gom:speed></extensions></trkpt>
   <trkpt lat="59.075390815" lon="29.9872808181"><ele>92.522</ele><time>2026-04-25T15:02:38.000Z</time><hdop>3.062</hdop><vdop>3.062</vdop><extensions><gom:speed>0.0</gom:speed></extensions></trkpt>
   <trkpt lat="59.075390815" lon="29.9872808181"><ele>92.522</ele><time>2026-04-25T15:02:39.000Z</time><hdop>3.062</hdop><vdop>3.062</vdop><extensions><gom:speed>0.0</gom:speed></extensions></trkpt>
   <trkpt lat="59.075390815" lon="29.9872808181"><ele>92.522</ele><time>2026-04-25T15:02:40.000Z</time><hdop>3.062</hdop><vdop>3.062</vdop><extensions><gom:speed>0.0</gom:speed></extensions></trkpt>
   <trkpt lat="59.075390815" lon="29.9872808181"><ele>92.522</ele><time>2026-04-25T15:02:41.000Z</time><hdop>3.062</hdop><vdop>3.062</vdop><extensions><gom:speed>0.0</gom:speed></extensions></trkpt>
   <trkpt lat="59.075390815" lon="29.9872808181"><ele>92.522</ele><time>2026-04-25T15:02:42.000Z</time><hdop>3.062</hdop><vdop>3.062</vdop><extensions><gom:speed>0.0</gom:speed></extensions></trkpt>
   <trkpt lat="59.075390815" lon="29.9872808181"><ele>92.522</ele><time>2026-04-25T15:02:43.000Z</time><hdop>3.062</hdop><vdop>3.062</vdop><extensions><gom:speed>0.0</gom:speed></extensions></trkpt>
   <trkpt lat="59.075390815" lon="29.9872808181"><ele>92.522</ele><time>2026-04-25T15:02:44.000Z</time><hdop>3.062</hdop><vdop>3.062</vdop><extensions><gom:speed>0.0</gom:speed></extensions></trkpt>
   <trkpt lat="59.075390815" lon="29.9872808181"><ele>92.522</ele><time>2026-04-25T15:02:45.000Z</time><hdop>3.062</hdop><vdop>3.062</vdop><extensions><gom:speed>0.0</gom:speed></extensions></trkpt>
   <trkpt lat="59.075390815" lon="29.9872808181"><ele>92.522</ele><time>2026-04-25T15:02:46.000Z</time><hdop>3.062</hdop><vdop>3.062</vdop><extensions><gom:speed>0.0</gom:speed></extensions></trkpt>
   <trkpt lat="59.075390815" lon="29.9872808181"><ele>92.522</ele><time>2026-04-25T15:02:47.000Z</time><hdop>3.062</hdop><vdop>3.062</vdop><extensions><gom:speed>0.0</gom:speed></extensions></trkpt>
   <trkpt lat="59.075390815" lon="29.9872808181"><ele>92.522</ele><time>2026-04-25T15:02:48.000Z</time><hdop>3.062</hdop><vdop>3.062</vdop><extensions><gom:speed>0.0</gom:speed></extensions></trkpt>
   <trkpt lat="59.075390815" lon="29.9872808181"><ele>92.522</ele><time>2026-04-25T15:02:48.000Z</time><hdop>3.062</hdop><vdop>3.062</vdop><extensions><gom:speed>0.0</gom:speed></extensions></trkpt>
   <trkpt lat="59.075390815" lon="29.9872808181"><ele>92.522</ele><time>2026-04-25T15:02:49.000Z</time><hdop>3.062</hdop><vdop>3.062</vdop><extensions><gom:speed>0.0</gom:speed></extensions></trkpt>
   <trkpt lat="59.075390815" lon="29.9872808181"><ele>92.522</ele><time>2026-04-25T15:02:50.000Z</time><hdop>3.062</hdop><vdop>3.062</vdop><extensions><gom:speed>0.0</gom:speed></extensions></trkpt>
   <trkpt lat="59.075390815" lon="29.9872808181"><ele>92.522</ele><time>2026-04-25T15:02:51.000Z</time><hdop>3.062</hdop><vdop>3.062</vdop><extensions><gom:speed>0.0</gom:speed></extensions></trkpt>
   <trkpt lat="59.075390815" lon="29.9872808181"><ele>92.522</ele><time>2026-04-25T15:02:52.000Z</time><hdop>3.062</hdop><vdop>3.062</vdop><extensions><gom:speed>0.0</gom:speed></extensions></trkpt>
   <trkpt lat="59.075390815" lon="29.9872808181"><ele>92.522</ele><time>2026-04-25T15:02:53.000Z</time><hdop>3.062</hdop><vdop>3.062</vdop><extensions><gom:speed>0.0</gom:speed></extensions></trkpt>
   <trkpt lat="59.075390815" lon="29.9872808181"><ele>92.522</ele><time>2026-04-25T15:02:54.000Z</time><hdop>3.062</hdop><vdop>3.062</vdop><extensions><gom:speed>0.0</gom:speed></extensions></trkpt>
   <trkpt lat="59.075390815" lon="29.9872808181"><ele>92.522</ele><time>2026-04-25T15:02:55.000Z</time><hdop>3.062</hdop><vdop>3.062</vdop><extensions><gom:speed>0.0</gom:speed></extensions></trkpt>
   <trkpt lat="59.075390815" lon="29.9872808181"><ele>92.522</ele><time>2026-04-25T15:02:56.000Z</time><hdop>3.062</hdop><vdop>3.062</vdop><extensions><gom:speed>0.0</gom:speed></extensions></trkpt>
   <trkpt lat="59.075390815" lon="29.9872808181"><ele>92.522</ele><time>2026-04-25T15:02:57.000Z</time><hdop>3.062</hdop><vdop>3.062</vdop><extensions><gom:speed>0.0</gom:speed></extensions></trkpt>
   <trkpt lat="59.075390815" lon="29.9872808181"><ele>92.522</ele><time>2026-04-25T15:02:58.000Z</time><hdop>3.062</hdop><vdop>3.062</vdop><extensions><gom:speed>0.0</gom:speed></extensions></trkpt>
   <trkpt lat="59.075390815" lon="29.9872808181"><ele>92.522</ele><time>2026-04-25T15:02:59.000Z</time><hdop>3.062</hdop><vdop>3.062</vdop><extensions><gom:speed>0.0</gom:speed></extensions></trkpt>
   <trkpt lat="59.075390815" lon="29.9872808181"><ele>92.522</ele><time>2026-04-25T15:03:00.000Z</time><hdop>3.062</hdop><vdop>3.062</vdop><extensions><gom:speed>0.0</gom:speed></extensions></trkpt>
   <trkpt lat="59.075390815" lon="29.9872808181"><ele>92.522</ele><time>2026-04-25T15:03:01.000Z</time><hdop>3.062</hdop><vdop>3.062</vdop><extensions><gom:speed>0.0</gom:speed></extensions></trkpt>
   <trkpt lat="59.075390815" lon="29.9872808181"><ele>92.522</ele><time>2026-04-25T15:03:02.000Z</time><hdop>3.062</hdop><vdop>3.062</vdop><extensions><gom:speed>0.0</gom:speed></extensions></trkpt>
   <trkpt lat="59.075390815" lon="29.9872808181"><ele>92.522</ele><time>2026-04-25T15:03:03.000Z</time><hdop>3.062</hdop><vdop>3.062</vdop><extensions><gom:speed>0.0</gom:speed></extensions></trkpt>
   <trkpt lat="59.075390815" lon="29.9872808181"><ele>92.522</ele><time>2026-04-25T15:03:04.000Z</time><hdop>3.062</hdop><vdop>3.062</vdop><extensions><gom:speed>0.0</gom:speed></extensions></trkpt>
   <trkpt lat="59.075390815" lon="29.9872808181"><ele>92.522</ele><time>2026-04-25T15:03:05.000Z</time><hdop>3.062</hdop><vdop>3.062</vdop><extensions><gom:speed>0.0</gom:speed></extensions></trkpt>
   <trkpt lat="59.075390815" lon="29.9872808181"><ele>92.522</ele><time>2026-04-25T15:03:06.000Z</time><hdop>3.062</hdop><vdop>3.062</vdop><extensions><gom:speed>0.0</gom:speed></extensions></trkpt>
   <trkpt lat="59.075390815" lon="29.9872808181"><ele>92.522</ele><time>2026-04-25T15:03:07.000Z</time><hdop>3.062</hdop><vdop>3.062</vdop><extensions><gom:speed>0.0</gom:speed></extensions></trkpt>
   <trkpt lat="59.075390815" lon="29.9872808181"><ele>92.522</ele><time>2026-04-25T15:03:08.000Z</time><hdop>3.062</hdop><vdop>3.062</vdop><extensions><gom:speed>0.0</gom:speed></extensions></trkpt>
   <trkpt lat="59.075390815" lon="29.9872808181"><ele>92.522</ele><time>2026-04-25T15:03:08.000Z</time><hdop>3.062</hdop><vdop>3.062</vdop><extensions><gom:speed>0.0</gom:speed></extensions></trkpt>
   <trkpt lat="59.075390815" lon="29.9872808181"><ele>92.522</ele><time>2026-04-25T15:03:09.000Z</time><hdop>3.062</hdop><vdop>3.062</vdop><extensions><gom:speed>0.0</gom:speed></extensions></trkpt>
   <trkpt lat="59.075390815" lon="29.9872808181"><ele>92.522</ele><time>2026-04-25T15:03:10.000Z</time><hdop>3.062</hdop><vdop>3.062</vdop><extensions><gom:speed>0.0</gom:speed></extensions></trkpt>
   <trkpt lat="59.075390815" lon="29.9872808181"><ele>92.522</ele><time>2026-04-25T15:03:11.000Z</time><hdop>3.062</hdop><vdop>3.062</vdop><extensions><gom:speed>0.0</gom:speed></extensions></trkpt>
   <trkpt lat="59.075390815" lon="29.9872808181"><ele>92.522</ele><time>2026-04-25T15:03:12.000Z</time><hdop>3.062</hdop><vdop>3.062</vdop><extensions><gom:speed>0.0</gom:speed></extensions></trkpt>
   <trkpt lat="59.075390815" lon="29.9872808181"><ele>92.522</ele><time>2026-04-25T15:03:13.000Z</time><hdop>3.062</hdop><vdop>3.062</vdop><extensions><gom:speed>0.0</gom:speed></extensions></trkpt>
   <trkpt lat="59.075390815" lon="29.9872808181"><ele>92.522</ele><time>2026-04-25T15:03:14.000Z</time><hdop>3.062</hdop><vdop>3.062</vdop><extensions><gom:speed>0.0</gom:speed></extensions></trkpt>
   <trkpt lat="59.075390815" lon="29.9872808181"><ele>92.522</ele><time>2026-04-25T15:03:15.000Z</time><hdop>3.062</hdop><vdop>3.062</vdop><extensions><gom:speed>0.0</gom:speed></extensions></trkpt>
   <trkpt lat="59.075390815" lon="29.9872808181"><ele>92.522</ele><time>2026-04-25T15:03:16.000Z</time><hdop>3.062</hdop><vdop>3.062</vdop><extensions><gom:speed>0.0</gom:speed></extensions></trkpt>
   <trkpt lat="59.075390815" lon="29.9872808181"><ele>92.522</ele><time>2026-04-25T15:03:17.000Z</time><hdop>3.062</hdop><vdop>3.062</vdop><extensions><gom:speed>0.0</gom:speed></extensions></trkpt>
   <trkpt lat="59.075390815" lon="29.9872808181"><ele>92.522</ele><time>2026-04-25T15:03:18.000Z</time><hdop>3.062</hdop><vdop>3.062</vdop><extensions><gom:speed>0.0</gom:speed></extensions></trkpt>
   <trkpt lat="59.075390815" lon="29.9872808181"><ele>92.522</ele><time>2026-04-25T15:03:19.000Z</time><hdop>3.062</hdop><vdop>3.062</vdop><extensions><gom:speed>0.0</gom:speed></extensions></trkpt>
   <trkpt lat="59.075390815" lon="29.9872808181"><ele>92.522</ele><time>2026-04-25T15:03:20.000Z</time><hdop>3.062</hdop><vdop>3.062</vdop><extensions><gom:speed>0.0</gom:speed></extensions></trkpt>
   <trkpt lat="59.075390815" lon="29.9872808181"><ele>92.522</ele><time>2026-04-25T15:03:21.000Z</time><hdop>3.062</hdop><vdop>3.062</vdop><extensions><gom:speed>0.0</gom:speed></extensions></trkpt>
   <trkpt lat="59.075390815" lon="29.9872808181"><ele>92.522</ele><time>2026-04-25T15:03:22.000Z</time><hdop>3.062</hdop><vdop>3.062</vdop><extensions><gom:speed>0.0</gom:speed></extensions></trkpt>
   <trkpt lat="59.075390815" lon="29.9872808181"><ele>92.522</ele><time>2026-04-25T15:03:23.000Z</time><hdop>3.062</hdop><vdop>3.062</vdop><extensions><gom:speed>0.0</gom:speed></extensions></trkpt>
   <trkpt lat="59.075390815" lon="29.9872808181"><ele>92.522</ele><time>2026-04-25T15:03:24.000Z</time><hdop>3.062</hdop><vdop>3.062</vdop><extensions><gom:speed>0.0</gom:speed></extensions></trkpt>
   <trkpt lat="59.075390815" lon="29.9872808181"><ele>92.522</ele><time>2026-04-25T15:03:25.000Z</time><hdop>3.062</hdop><vdop>3.062</vdop><extensions><gom:speed>0.0</gom:speed></extensions></trkpt>
   <trkpt lat="59.075390815" lon="29.9872808181"><ele>92.522</ele><time>2026-04-25T15:03:26.000Z</time><hdop>3.062</hdop><vdop>3.062</vdop><extensions><gom:speed>0.0</gom:speed></extensions></trkpt>
   <trkpt lat="59.075390815" lon="29.9872808181"><ele>92.522</ele><time>2026-04-25T15:03:27.000Z</time><hdop>3.062</hdop><vdop>3.062</vdop><extensions><gom:speed>0.0</gom:speed></extensions></trkpt>
   <trkpt lat="59.075390815" lon="29.9872808181"><ele>92.522</ele><time>2026-04-25T15:03:28.000Z</time><hdop>3.062</hdop><vdop>3.062</vdop><extensions><gom:speed>0.0</gom:speed></extensions></trkpt>
   <trkpt lat="59.075390815" lon="29.9872808181"><ele>92.522</ele><time>2026-04-25T15:03:29.000Z</time><hdop>3.062</hdop><vdop>3.062</vdop><extensions><gom:speed>0.0</gom:speed></extensions></trkpt>
   <trkpt lat="59.075390815" lon="29.9872808181"><ele>92.522</ele><time>2026-04-25T15:03:30.000Z</time><hdop>3.062</hdop><vdop>3.062</vdop><extensions><gom:speed>0.0</gom:speed></extensions></trkpt>
   <trkpt lat="59.075390815" lon="29.9872808181"><ele>92.522</ele><time>2026-04-25T15:03:31.000Z</time><hdop>3.062</hdop><vdop>3.062</vdop><extensions><gom:speed>0.0</gom:speed></extensions></trkpt>
   <trkpt lat="59.075390815" lon="29.9872808181"><ele>92.522</ele><time>2026-04-25T15:03:31.000Z</time><hdop>3.062</hdop><vdop>3.062</vdop><extensions><gom:speed>0.0</gom:speed></extensions></trkpt>
   <trkpt lat="59.075390815" lon="29.9872808181"><ele>92.522</ele><time>2026-04-25T15:03:31.000Z</time><hdop>3.062</hdop><vdop>3.062</vdop><extensions><gom:speed>0.0</gom:speed></extensions></trkpt>
   <trkpt lat="59.075390815" lon="29.9872808181"><ele>92.522</ele><time>2026-04-25T15:03:32.000Z</time><hdop>3.062</hdop><vdop>3.062</vdop><extensions><gom:speed>0.0</gom:speed></extensions></trkpt>
   <trkpt lat="59.075390815" lon="29.9872808181"><ele>92.522</ele><time>2026-04-25T15:03:33.000Z</time><hdop>3.062</hdop><vdop>3.062</vdop><extensions><gom:speed>0.0</gom:speed></extensions></trkpt>
   <trkpt lat="59.075390815" lon="29.9872808181"><ele>92.522</ele><time>2026-04-25T15:03:34.000Z</time><hdop>3.062</hdop><vdop>3.062</vdop><extensions><gom:speed>0.0</gom:speed></extensions></trkpt>
   <trkpt lat="59.075390815" lon="29.9872808181"><ele>92.522</ele><time>2026-04-25T15:03:35.000Z</time><hdop>3.062</hdop><vdop>3.062</vdop><extensions><gom:speed>0.0</gom:speed></extensions></trkpt>
   <trkpt lat="59.075390815" lon="29.9872808181"><ele>92.522</ele><time>2026-04-25T15:03:36.000Z</time><hdop>3.062</hdop><vdop>3.062</vdop><extensions><gom:speed>0.0</gom:speed></extensions></trkpt>
   <trkpt lat="59.075390815" lon="29.9872808181"><ele>92.522</ele><time>2026-04-25T15:03:37.000Z</time><hdop>3.062</hdop><vdop>3.062</vdop><extensions><gom:speed>0.0</gom:speed></extensions></trkpt>
   <trkpt lat="59.075390815" lon="29.9872808181"><ele>92.522</ele><time>2026-04-25T15:03:38.000Z</time><hdop>3.062</hdop><vdop>3.062</vdop><extensions><gom:speed>0.0</gom:speed></extensions></trkpt>
   <trkpt lat="59.075390815" lon="29.9872808181"><ele>92.522</ele><time>2026-04-25T15:03:39.000Z</time><hdop>3.062</hdop><vdop>3.062</vdop><extensions><gom:speed>0.0</gom:speed></extensions></trkpt>
   <trkpt lat="59.075390815" lon="29.9872808181"><ele>92.522</ele><time>2026-04-25T15:03:40.000Z</time><hdop>3.062</hdop><vdop>3.062</vdop><extensions><gom:speed>0.0</gom:speed></extensions></trkpt>
   <trkpt lat="59.075390815" lon="29.9872808181"><ele>92.522</ele><time>2026-04-25T15:03:41.000Z</time><hdop>3.062</hdop><vdop>3.062</vdop><extensions><gom:speed>0.0</gom:speed></extensions></trkpt>
   <trkpt lat="59.075390815" lon="29.9872808181"><ele>92.522</ele><time>2026-04-25T15:03:42.000Z</time><hdop>3.062</hdop><vdop>3.062</vdop><extensions><gom:speed>0.0</gom:speed></extensions></trkpt>
   <trkpt lat="59.075390815" lon="29.9872808181"><ele>92.522</ele><time>2026-04-25T15:03:43.000Z</time><hdop>3.062</hdop><vdop>3.062</vdop><extensions><gom:speed>0.0</gom:speed></extensions></trkpt>
   <trkpt lat="59.075390815" lon="29.9872808181"><ele>92.522</ele><time>2026-04-25T15:03:44.000Z</time><hdop>3.062</hdop><vdop>3.062</vdop><extensions><gom:speed>0.0</gom:speed></extensions></trkpt>
   <trkpt lat="59.075390815" lon="29.9872808181"><ele>92.522</ele><time>2026-04-25T15:03:45.000Z</time><hdop>3.062</hdop><vdop>3.062</vdop><extensions><gom:speed>0.0</gom:speed></extensions></trkpt>
   <trkpt lat="59.075390815" lon="29.9872808181"><ele>92.522</ele><time>2026-04-25T15:03:46.000Z</time><hdop>3.062</hdop><vdop>3.062</vdop><extensions><gom:speed>0.0</gom:speed></extensions></trkpt>
   <trkpt lat="59.075390815" lon="29.9872808181"><ele>92.522</ele><time>2026-04-25T15:03:47.000Z</time><hdop>3.062</hdop><vdop>3.062</vdop><extensions><gom:speed>0.0</gom:speed></extensions></trkpt>
   <trkpt lat="59.075390815" lon="29.9872808181"><ele>92.522</ele><time>2026-04-25T15:03:48.000Z</time><hdop>3.062</hdop><vdop>3.062</vdop><extensions><gom:speed>0.0</gom:speed></extensions></trkpt>
   <trkpt lat="59.075390815" lon="29.9872808181"><ele>92.522</ele><time>2026-04-25T15:03:49.000Z</time><hdop>3.062</hdop><vdop>3.062</vdop><extensions><gom:speed>0.0</gom:speed></extensions></trkpt>
   <trkpt lat="59.075390815" lon="29.9872808181"><ele>92.522</ele><time>2026-04-25T15:03:50.000Z</time><hdop>3.062</hdop><vdop>3.062</vdop><extensions><gom:speed>0.0</gom:speed></extensions></trkpt>
   <trkpt lat="59.075390815" lon="29.9872808181"><ele>92.522</ele><time>2026-04-25T15:03:51.000Z</time><hdop>3.062</hdop><vdop>3.062</vdop><extensions><gom:speed>0.0</gom:speed></extensions></trkpt>
   <trkpt lat="59.075390815" lon="29.9872808181"><ele>92.522</ele><time>2026-04-25T15:03:51.000Z</time><hdop>3.062</hdop><vdop>3.062</vdop><extensions><gom:speed>0.0</gom:speed></extensions></trkpt>
   <trkpt lat="59.075390815" lon="29.9872808181"><ele>92.522</ele><time>2026-04-25T15:03:52.000Z</time><hdop>3.062</hdop><vdop>3.062</vdop><extensions><gom:speed>0.0</gom:speed></extensions></trkpt>
   <trkpt lat="59.075390815" lon="29.9872808181"><ele>92.522</ele><time>2026-04-25T15:03:52.000Z</time><hdop>3.062</hdop><vdop>3.062</vdop><extensions><gom:speed>0.0</gom:speed></extensions></trkpt>
   <trkpt lat="59.075390815" lon="29.9872808181"><ele>92.522</ele><time>2026-04-25T15:03:53.000Z</time><hdop>3.062</hdop><vdop>3.062</vdop><extensions><gom:speed>0.0</gom:speed></extensions></trkpt>
   <trkpt lat="59.075390815" lon="29.9872808181"><ele>92.522</ele><time>2026-04-25T15:03:54.000Z</time><hdop>3.062</hdop><vdop>3.062</vdop><extensions><gom:speed>0.0</gom:speed></extensions></trkpt>
   <trkpt lat="59.075390815" lon="29.9872808181"><ele>92.522</ele><time>2026-04-25T15:03:55.000Z</time><hdop>3.062</hdop><vdop>3.062</vdop><extensions><gom:speed>0.0</gom:speed></extensions></trkpt>
   <trkpt lat="59.075390815" lon="29.9872808181"><ele>92.522</ele><time>2026-04-25T15:03:56.000Z</time><hdop>3.062</hdop><vdop>3.062</vdop><extensions><gom:speed>0.0</gom:speed></extensions></trkpt>
   <trkpt lat="59.075390815" lon="29.9872808181"><ele>92.522</ele><time>2026-04-25T15:03:57.000Z</time><hdop>3.062</hdop><vdop>3.062</vdop><extensions><gom:speed>0.0</gom:speed></extensions></trkpt>
   <trkpt lat="59.075390815" lon="29.9872808181"><ele>92.522</ele><time>2026-04-25T15:03:58.000Z</time><hdop>3.062</hdop><vdop>3.062</vdop><extensions><gom:speed>0.0</gom:speed></extensions></trkpt>
   <trkpt lat="59.075390815" lon="29.9872808181"><ele>92.522</ele><time>2026-04-25T15:03:59.000Z</time><hdop>3.062</hdop><vdop>3.062</vdop><extensions><gom:speed>0.0</gom:speed></extensions></trkpt>
   <trkpt lat="59.075390815" lon="29.9872808181"><ele>92.522</ele><time>2026-04-25T15:04:00.000Z</time><hdop>3.062</hdop><vdop>3.062</vdop><extensions><gom:speed>0.0</gom:speed></extensions></trkpt>
   <trkpt lat="59.075390815" lon="29.9872808181"><ele>92.522</ele><time>2026-04-25T15:04:01.000Z</time><hdop>3.062</hdop><vdop>3.062</vdop><extensions><gom:speed>0.0</gom:speed></extensions></trkpt>
   <trkpt lat="59.075390815" lon="29.9872808181"><ele>92.522</ele><time>2026-04-25T15:04:02.000Z</time><hdop>3.062</hdop><vdop>3.062</vdop><extensions><gom:speed>0.0</gom:speed></extensions></trkpt>
   <trkpt lat="59.075390815" lon="29.9872808181"><ele>92.522</ele><time>2026-04-25T15:04:03.000Z</time><hdop>3.062</hdop><vdop>3.062</vdop><extensions><gom:speed>0.0</gom:speed></extensions></trkpt>
   <trkpt lat="59.075390815" lon="29.9872808181"><ele>92.522</ele><time>2026-04-25T15:04:04.000Z</time><hdop>3.062</hdop><vdop>3.062</vdop><extensions><gom:speed>0.0</gom:speed></extensions></trkpt>
   <trkpt lat="59.075390815" lon="29.9872808181"><ele>92.522</ele><time>2026-04-25T15:04:05.000Z</time><hdop>3.062</hdop><vdop>3.062</vdop><extensions><gom:speed>0.0</gom:speed></extensions></trkpt>
   <trkpt lat="59.075390815" lon="29.9872808181"><ele>92.522</ele><time>2026-04-25T15:04:06.000Z</time><hdop>3.062</hdop><vdop>3.062</vdop><extensions><gom:speed>0.0</gom:speed></extensions></trkpt>
   <trkpt lat="59.075390815" lon="29.9872808181"><ele>92.522</ele><time>2026-04-25T15:04:07.000Z</time><hdop>3.062</hdop><vdop>3.062</vdop><extensions><gom:speed>0.0</gom:speed></extensions></trkpt>
   <trkpt lat="59.075390815" lon="29.9872808181"><ele>92.522</ele><time>2026-04-25T15:04:08.000Z</time><hdop>3.062</hdop><vdop>3.062</vdop><extensions><gom:speed>0.0</gom:speed></extensions></trkpt>
   <trkpt lat="59.075390815" lon="29.9872808181"><ele>92.522</ele><time>2026-04-25T15:04:09.000Z</time><hdop>3.062</hdop><vdop>3.062</vdop><extensions><gom:speed>0.0</gom:speed></extensions></trkpt>
   <trkpt lat="59.075390815" lon="29.9872808181"><ele>92.522</ele><time>2026-04-25T15:04:10.000Z</time><hdop>3.062</hdop><vdop>3.062</vdop><extensions><gom:speed>0.0</gom:speed></extensions></trkpt>
   <trkpt lat="59.075390815" lon="29.9872808181"><ele>92.522</ele><time>2026-04-25T15:04:11.000Z</time><hdop>3.062</hdop><vdop>3.062</vdop><extensions><gom:speed>0.0</gom:speed></extensions></trkpt>
   <trkpt lat="59.075390815" lon="29.9872808181"><ele>92.522</ele><time>2026-04-25T15:04:12.000Z</time><hdop>3.062</hdop><vdop>3.062</vdop><extensions><gom:speed>0.0</gom:speed></extensions></trkpt>
   <trkpt lat="59.075390815" lon="29.9872808181"><ele>92.522</ele><time>2026-04-25T15:04:13.000Z</time><hdop>3.062</hdop><vdop>3.062</vdop><extensions><gom:speed>0.0</gom:speed></extensions></trkpt>
   <trkpt lat="59.075390815" lon="29.9872808181"><ele>92.522</ele><time>2026-04-25T15:04:14.000Z</time><hdop>3.062</hdop><vdop>3.062</vdop><extensions><gom:speed>0.0</gom:speed></extensions></trkpt>
   <trkpt lat="59.075390815" lon="29.9872808181"><ele>92.522</ele><time>2026-04-25T15:04:15.000Z</time><hdop>3.062</hdop><vdop>3.062</vdop><extensions><gom:speed>0.0</gom:speed></extensions></trkpt>
   <trkpt lat="59.075390815" lon="29.9872808181"><ele>92.522</ele><time>2026-04-25T15:04:16.000Z</time><hdop>3.062</hdop><vdop>3.062</vdop><extensions><gom:speed>0.0</gom:speed></extensions></trkpt>
   <trkpt lat="59.075390815" lon="29.9872808181"><ele>92.522</ele><time>2026-04-25T15:04:17.000Z</time><hdop>3.062</hdop><vdop>3.062</vdop><extensions><gom:speed>0.0</gom:speed></extensions></trkpt>
   <trkpt lat="59.075390815" lon="29.9872808181"><ele>92.522</ele><time>2026-04-25T15:04:18.000Z</time><hdop>3.062</hdop><vdop>3.062</vdop><extensions><gom:speed>0.0</gom:speed></extensions></trkpt>
   <trkpt lat="59.075390815" lon="29.9872808181"><ele>92.522</ele><time>2026-04-25T15:04:19.000Z</time><hdop>3.062</hdop><vdop>3.062</vdop><extensions><gom:speed>0.0</gom:speed></extensions></trkpt>
   <trkpt lat="59.075390815" lon="29.9872808181"><ele>92.522</ele><time>2026-04-25T15:04:20.000Z</time><hdop>3.062</hdop><vdop>3.062</vdop><extensions><gom:speed>0.0</gom:speed></extensions></trkpt>
   <trkpt lat="59.075390815" lon="29.9872808181"><ele>92.522</ele><time>2026-04-25T15:04:21.000Z</time><hdop>3.062</hdop><vdop>3.062</vdop><extensions><gom:speed>0.0</gom:speed></extensions></trkpt>
   <trkpt lat="59.075390815" lon="29.9872808181"><ele>92.522</ele><time>2026-04-25T15:04:22.000Z</time><hdop>3.062</hdop><vdop>3.062</vdop><extensions><gom:speed>0.0</gom:speed></extensions></trkpt>
   <trkpt lat="59.075390815" lon="29.9872808181"><ele>92.522</ele><time>2026-04-25T15:04:23.000Z</time><hdop>3.062</hdop><vdop>3.062</vdop><extensions><gom:speed>0.0</gom:speed></extensions></trkpt>
   <trkpt lat="59.075390815" lon="29.9872808181"><ele>92.522</ele><time>2026-04-25T15:04:24.000Z</time><hdop>3.062</hdop><vdop>3.062</vdop><extensions><gom:speed>0.0</gom:speed></extensions></trkpt>
   <trkpt lat="59.075390815" lon="29.9872808181"><ele>92.522</ele><time>2026-04-25T15:04:25.000Z</time><hdop>3.062</hdop><vdop>3.062</vdop><extensions><gom:speed>0.0</gom:speed></extensions></trkpt>
   <trkpt lat="59.075390815" lon="29.9872808181"><ele>92.522</ele><time>2026-04-25T15:04:26.000Z</time><hdop>3.062</hdop><vdop>3.062</vdop><extensions><gom:speed>0.0</gom:speed></extensions></trkpt>
   <trkpt lat="59.075390815" lon="29.9872808181"><ele>92.522</ele><time>2026-04-25T15:04:27.000Z</time><hdop>3.062</hdop><vdop>3.062</vdop><extensions><gom:speed>0.0</gom:speed></extensions></trkpt>
   <trkpt lat="59.075390815" lon="29.9872808181"><ele>92.522</ele><time>2026-04-25T15:04:28.000Z</time><hdop>3.062</hdop><vdop>3.062</vdop><extensions><gom:speed>0.0</gom:speed></extensions></trkpt>
   <trkpt lat="59.075390815" lon="29.9872808181"><ele>92.522</ele><time>2026-04-25T15:04:28.000Z</time><hdop>3.062</hdop><vdop>3.062</vdop><extensions><gom:speed>0.0</gom:speed></extensions></trkpt>
   <trkpt lat="59.075390815" lon="29.9872808181"><ele>92.522</ele><time>2026-04-25T15:04:29.000Z</time><hdop>3.062</hdop><vdop>3.062</vdop><extensions><gom:speed>0.0</gom:speed></extensions></trkpt>
   <trkpt lat="59.075390815" lon="29.9872808181"><ele>92.522</ele><time>2026-04-25T15:04:30.000Z</time><hdop>3.062</hdop><vdop>3.062</vdop><extensions><gom:speed>0.0</gom:speed></extensions></trkpt>
   <trkpt lat="59.075390815" lon="29.9872808181"><ele>92.522</ele><time>2026-04-25T15:04:31.000Z</time><hdop>3.062</hdop><vdop>3.062</vdop><extensions><gom:speed>0.0</gom:speed></extensions></trkpt>
   <trkpt lat="59.075390815" lon="29.9872808181"><ele>92.522</ele><time>2026-04-25T15:04:32.000Z</time><hdop>3.062</hdop><vdop>3.062</vdop><extensions><gom:speed>0.0</gom:speed></extensions></trkpt>
   <trkpt lat="59.075390815" lon="29.9872808181"><ele>92.522</ele><time>2026-04-25T15:04:33.000Z</time><hdop>3.062</hdop><vdop>3.062</vdop><extensions><gom:speed>0.0</gom:speed></extensions></trkpt>
   <trkpt lat="59.075390815" lon="29.9872808181"><ele>92.522</ele><time>2026-04-25T15:04:34.000Z</time><hdop>3.062</hdop><vdop>3.062</vdop><extensions><gom:speed>0.0</gom:speed></extensions></trkpt>
   <trkpt lat="59.075390815" lon="29.9872808181"><ele>92.522</ele><time>2026-04-25T15:04:35.000Z</time><hdop>3.062</hdop><vdop>3.062</vdop><extensions><gom:speed>0.0</gom:speed></extensions></trkpt>
   <trkpt lat="59.075390815" lon="29.9872808181"><ele>92.522</ele><time>2026-04-25T15:04:36.000Z</time><hdop>3.062</hdop><vdop>3.062</vdop><extensions><gom:speed>0.0</gom:speed></extensions></trkpt>
   <trkpt lat="59.075390815" lon="29.9872808181"><ele>92.522</ele><time>2026-04-25T15:04:37.000Z</time><hdop>3.062</hdop><vdop>3.062</vdop><extensions><gom:speed>0.0</gom:speed></extensions></trkpt>
   <trkpt lat="59.075390815" lon="29.9872808181"><ele>92.522</ele><time>2026-04-25T15:04:38.000Z</time><hdop>3.062</hdop><vdop>3.062</vdop><extensions><gom:speed>0.0</gom:speed></extensions></trkpt>
   <trkpt lat="59.075390815" lon="29.9872808181"><ele>92.522</ele><time>2026-04-25T15:04:39.000Z</time><hdop>3.062</hdop><vdop>3.062</vdop><extensions><gom:speed>0.0</gom:speed></extensions></trkpt>
   <trkpt lat="59.075390815" lon="29.9872808181"><ele>92.522</ele><time>2026-04-25T15:04:40.000Z</time><hdop>3.062</hdop><vdop>3.062</vdop><extensions><gom:speed>0.0</gom:speed></extensions></trkpt>
   <trkpt lat="59.075390815" lon="29.9872808181"><ele>92.522</ele><time>2026-04-25T15:04:41.000Z</time><hdop>3.062</hdop><vdop>3.062</vdop><extensions><gom:speed>0.0</gom:speed></extensions></trkpt>
   <trkpt lat="59.075390815" lon="29.9872808181"><ele>92.522</ele><time>2026-04-25T15:04:42.000Z</time><hdop>3.062</hdop><vdop>3.062</vdop><extensions><gom:speed>0.0</gom:speed></extensions></trkpt>
   <trkpt lat="59.075390815" lon="29.9872808181"><ele>92.522</ele><time>2026-04-25T15:04:43.000Z</time><hdop>3.062</hdop><vdop>3.062</vdop><extensions><gom:speed>0.0</gom:speed></extensions></trkpt>
   <trkpt lat="59.075390815" lon="29.9872808181"><ele>92.522</ele><time>2026-04-25T15:04:44.000Z</time><hdop>3.062</hdop><vdop>3.062</vdop><extensions><gom:speed>0.0</gom:speed></extensions></trkpt>
   <trkpt lat="59.075390815" lon="29.9872808181"><ele>92.522</ele><time>2026-04-25T15:04:45.000Z</time><hdop>3.062</hdop><vdop>3.062</vdop><extensions><gom:speed>0.0</gom:speed></extensions></trkpt>
   <trkpt lat="59.075390815" lon="29.9872808181"><ele>92.522</ele><time>2026-04-25T15:04:46.000Z</time><hdop>3.062</hdop><vdop>3.062</vdop><extensions><gom:speed>0.0</gom:speed></extensions></trkpt>
   <trkpt lat="59.075390815" lon="29.9872808181"><ele>92.522</ele><time>2026-04-25T15:04:47.000Z</time><hdop>3.062</hdop><vdop>3.062</vdop><extensions><gom:speed>0.0</gom:speed></extensions></trkpt>
   <trkpt lat="59.075390815" lon="29.9872808181"><ele>92.522</ele><time>2026-04-25T15:04:48.000Z</time><hdop>3.062</hdop><vdop>3.062</vdop><extensions><gom:speed>0.0</gom:speed></extensions></trkpt>
   <trkpt lat="59.075390815" lon="29.9872808181"><ele>92.522</ele><time>2026-04-25T15:04:48.000Z</time><hdop>3.062</hdop><vdop>3.062</vdop><extensions><gom:speed>0.0</gom:speed></extensions></trkpt>
   <trkpt lat="59.075390815" lon="29.9872808181"><ele>92.522</ele><time>2026-04-25T15:04:49.000Z</time><hdop>3.062</hdop><vdop>3.062</vdop><extensions><gom:speed>0.0</gom:speed></extensions></trkpt>
   <trkpt lat="59.075390815" lon="29.9872808181"><ele>92.522</ele><time>2026-04-25T15:04:50.000Z</time><hdop>3.062</hdop><vdop>3.062</vdop><extensions><gom:speed>0.0</gom:speed></extensions></trkpt>
   <trkpt lat="59.075390815" lon="29.9872808181"><ele>92.522</ele><time>2026-04-25T15:04:51.000Z</time><hdop>3.062</hdop><vdop>3.062</vdop><extensions><gom:speed>0.0</gom:speed></extensions></trkpt>
   <trkpt lat="59.075390815" lon="29.9872808181"><ele>92.522</ele><time>2026-04-25T15:04:52.000Z</time><hdop>3.062</hdop><vdop>3.062</vdop><extensions><gom:speed>0.0</gom:speed></extensions></trkpt>
   <trkpt lat="59.075390815" lon="29.9872808181"><ele>92.522</ele><time>2026-04-25T15:04:53.000Z</time><hdop>3.062</hdop><vdop>3.062</vdop><extensions><gom:speed>0.0</gom:speed></extensions></trkpt>
   <trkpt lat="59.075390815" lon="29.9872808181"><ele>92.522</ele><time>2026-04-25T15:04:54.000Z</time><hdop>3.062</hdop><vdop>3.062</vdop><extensions><gom:speed>0.0</gom:speed></extensions></trkpt>
   <trkpt lat="59.075390815" lon="29.9872808181"><ele>92.522</ele><time>2026-04-25T15:04:55.000Z</time><hdop>3.062</hdop><vdop>3.062</vdop><extensions><gom:speed>0.0</gom:speed></extensions></trkpt>
   <trkpt lat="59.075390815" lon="29.9872808181"><ele>92.522</ele><time>2026-04-25T15:04:56.000Z</time><hdop>3.062</hdop><vdop>3.062</vdop><extensions><gom:speed>0.0</gom:speed></extensions></trkpt>
   <trkpt lat="59.075390815" lon="29.9872808181"><ele>92.522</ele><time>2026-04-25T15:04:57.000Z</time><hdop>3.062</hdop><vdop>3.062</vdop><extensions><gom:speed>0.0</gom:speed></extensions></trkpt>
   <trkpt lat="59.075390815" lon="29.9872808181"><ele>92.522</ele><time>2026-04-25T15:04:58.000Z</time><hdop>3.062</hdop><vdop>3.062</vdop><extensions><gom:speed>0.0</gom:speed></extensions></trkpt>
   <trkpt lat="59.075390815" lon="29.9872808181"><ele>92.522</ele><time>2026-04-25T15:04:59.000Z</time><hdop>3.062</hdop><vdop>3.062</vdop><extensions><gom:speed>0.0</gom:speed></extensions></trkpt>
   <trkpt lat="59.075390815" lon="29.9872808181"><ele>92.522</ele><time>2026-04-25T15:05:00.000Z</time><hdop>3.062</hdop><vdop>3.062</vdop><extensions><gom:speed>0.0</gom:speed></extensions></trkpt>
   <trkpt lat="59.075390815" lon="29.9872808181"><ele>92.522</ele><time>2026-04-25T15:05:01.000Z</time><hdop>3.062</hdop><vdop>3.062</vdop><extensions><gom:speed>0.0</gom:speed></extensions></trkpt>
   <trkpt lat="59.075390815" lon="29.9872808181"><ele>92.522</ele><time>2026-04-25T15:05:02.000Z</time><hdop>3.062</hdop><vdop>3.062</vdop><extensions><gom:speed>0.0</gom:speed></extensions></trkpt>
   <trkpt lat="59.075390815" lon="29.9872808181"><ele>92.522</ele><time>2026-04-25T15:05:03.000Z</time><hdop>3.062</hdop><vdop>3.062</vdop><extensions><gom:speed>0.0</gom:speed></extensions></trkpt>
   <trkpt lat="59.075390815" lon="29.9872808181"><ele>92.522</ele><time>2026-04-25T15:05:04.000Z</time><hdop>3.062</hdop><vdop>3.062</vdop><extensions><gom:speed>0.0</gom:speed></extensions></trkpt>
   <trkpt lat="59.075390815" lon="29.9872808181"><ele>92.522</ele><time>2026-04-25T15:05:05.000Z</time><hdop>3.062</hdop><vdop>3.062</vdop><extensions><gom:speed>0.0</gom:speed></extensions></trkpt>
   <trkpt lat="59.075390815" lon="29.9872808181"><ele>92.522</ele><time>2026-04-25T15:05:06.000Z</time><hdop>3.062</hdop><vdop>3.062</vdop><extensions><gom:speed>0.0</gom:speed></extensions></trkpt>
   <trkpt lat="59.075390815" lon="29.9872808181"><ele>92.522</ele><time>2026-04-25T15:05:07.000Z</time><hdop>3.062</hdop><vdop>3.062</vdop><extensions><gom:speed>0.0</gom:speed></extensions></trkpt>
   <trkpt lat="59.075390815" lon="29.9872808181"><ele>92.522</ele><time>2026-04-25T15:05:08.000Z</time><hdop>3.062</hdop><vdop>3.062</vdop><extensions><gom:speed>0.0</gom:speed></extensions></trkpt>
   <trkpt lat="59.075390815" lon="29.9872808181"><ele>92.522</ele><time>2026-04-25T15:05:09.000Z</time><hdop>3.062</hdop><vdop>3.062</vdop><extensions><gom:speed>0.0</gom:speed></extensions></trkpt>
   <trkpt lat="59.075390815" lon="29.9872808181"><ele>92.522</ele><time>2026-04-25T15:05:10.000Z</time><hdop>3.062</hdop><vdop>3.062</vdop><extensions><gom:speed>0.0</gom:speed></extensions></trkpt>
   <trkpt lat="59.075390815" lon="29.9872808181"><ele>92.522</ele><time>2026-04-25T15:05:11.000Z</time><hdop>3.062</hdop><vdop>3.062</vdop><extensions><gom:speed>0.0</gom:speed></extensions></trkpt>
   <trkpt lat="59.075390815" lon="29.9872808181"><ele>92.522</ele><time>2026-04-25T15:05:12.000Z</time><hdop>3.062</hdop><vdop>3.062</vdop><extensions><gom:speed>0.0</gom:speed></extensions></trkpt>
   <trkpt lat="59.075390815" lon="29.9872808181"><ele>92.522</ele><time>2026-04-25T15:05:13.000Z</time><hdop>3.062</hdop><vdop>3.062</vdop><extensions><gom:speed>0.0</gom:speed></extensions></trkpt>
   <trkpt lat="59.075390815" lon="29.9872808181"><ele>92.522</ele><time>2026-04-25T15:05:14.000Z</time><hdop>3.062</hdop><vdop>3.062</vdop><extensions><gom:speed>0.0</gom:speed></extensions></trkpt>
   <trkpt lat="59.075390815" lon="29.9872808181"><ele>92.522</ele><time>2026-04-25T15:05:15.000Z</time><hdop>3.062</hdop><vdop>3.062</vdop><extensions><gom:speed>0.0</gom:speed></extensions></trkpt>
   <trkpt lat="59.075390815" lon="29.9872808181"><ele>92.522</ele><time>2026-04-25T15:05:16.000Z</time><hdop>3.062</hdop><vdop>3.062</vdop><extensions><gom:speed>0.0</gom:speed></extensions></trkpt>
   <trkpt lat="59.075390815" lon="29.9872808181"><ele>92.522</ele><time>2026-04-25T15:05:17.000Z</time><hdop>3.062</hdop><vdop>3.062</vdop><extensions><gom:speed>0.0</gom:speed></extensions></trkpt>
   <trkpt lat="59.075390815" lon="29.9872808181"><ele>92.522</ele><time>2026-04-25T15:05:18.000Z</time><hdop>3.062</hdop><vdop>3.062</vdop><extensions><gom:speed>0.0</gom:speed></extensions></trkpt>
   <trkpt lat="59.075390815" lon="29.9872808181"><ele>92.522</ele><time>2026-04-25T15:05:19.000Z</time><hdop>3.062</hdop><vdop>3.062</vdop><extensions><gom:speed>0.0</gom:speed></extensions></trkpt>
   <trkpt lat="59.075390815" lon="29.9872808181"><ele>92.522</ele><time>2026-04-25T15:05:20.000Z</time><hdop>3.062</hdop><vdop>3.062</vdop><extensions><gom:speed>0.0</gom:speed></extensions></trkpt>
   <trkpt lat="59.075390815" lon="29.9872808181"><ele>92.522</ele><time>2026-04-25T15:05:21.000Z</time><hdop>3.062</hdop><vdop>3.062</vdop><extensions><gom:speed>0.0</gom:speed></extensions></trkpt>
   <trkpt lat="59.075390815" lon="29.9872808181"><ele>92.522</ele><time>2026-04-25T15:05:22.000Z</time><hdop>3.062</hdop><vdop>3.062</vdop><extensions><gom:speed>0.0</gom:speed></extensions></trkpt>
   <trkpt lat="59.075390815" lon="29.9872808181"><ele>92.522</ele><time>2026-04-25T15:05:23.000Z</time><hdop>3.062</hdop><vdop>3.062</vdop><extensions><gom:speed>0.0</gom:speed></extensions></trkpt>
   <trkpt lat="59.075390815" lon="29.9872808181"><ele>92.522</ele><time>2026-04-25T15:05:24.000Z</time><hdop>3.062</hdop><vdop>3.062</vdop><extensions><gom:speed>0.0</gom:speed></extensions></trkpt>
   <trkpt lat="59.075390815" lon="29.9872808181"><ele>92.522</ele><time>2026-04-25T15:05:25.000Z</time><hdop>3.062</hdop><vdop>3.062</vdop><extensions><gom:speed>0.0</gom:speed></extensions></trkpt>
   <trkpt lat="59.075390815" lon="29.9872808181"><ele>92.522</ele><time>2026-04-25T15:05:26.000Z</time><hdop>3.062</hdop><vdop>3.062</vdop><extensions><gom:speed>0.0</gom:speed></extensions></trkpt>
   <trkpt lat="59.075390815" lon="29.9872808181"><ele>92.522</ele><time>2026-04-25T15:05:27.000Z</time><hdop>3.062</hdop><vdop>3.062</vdop><extensions><gom:speed>0.0</gom:speed></extensions></trkpt>
   <trkpt lat="59.075390815" lon="29.9872808181"><ele>92.522</ele><time>2026-04-25T15:05:28.000Z</time><hdop>3.062</hdop><vdop>3.062</vdop><extensions><gom:speed>0.0</gom:speed></extensions></trkpt>
   <trkpt lat="59.075390815" lon="29.9872808181"><ele>92.522</ele><time>2026-04-25T15:05:28.000Z</time><hdop>3.062</hdop><vdop>3.062</vdop><extensions><gom:speed>0.0</gom:speed></extensions></trkpt>
   <trkpt lat="59.075390815" lon="29.9872808181"><ele>92.522</ele><time>2026-04-25T15:05:29.000Z</time><hdop>3.062</hdop><vdop>3.062</vdop><extensions><gom:speed>0.0</gom:speed></extensions></trkpt>
   <trkpt lat="59.075390815" lon="29.9872808181"><ele>92.522</ele><time>2026-04-25T15:05:30.000Z</time><hdop>3.062</hdop><vdop>3.062</vdop><extensions><gom:speed>0.0</gom:speed></extensions></trkpt>
   <trkpt lat="59.075390815" lon="29.9872808181"><ele>92.522</ele><time>2026-04-25T15:05:31.000Z</time><hdop>3.062</hdop><vdop>3.062</vdop><extensions><gom:speed>0.0</gom:speed></extensions></trkpt>
   <trkpt lat="59.075390815" lon="29.9872808181"><ele>92.522</ele><time>2026-04-25T15:05:32.000Z</time><hdop>3.062</hdop><vdop>3.062</vdop><extensions><gom:speed>0.0</gom:speed></extensions></trkpt>
   <trkpt lat="59.075390815" lon="29.9872808181"><ele>92.522</ele><time>2026-04-25T15:05:33.000Z</time><hdop>3.062</hdop><vdop>3.062</vdop><extensions><gom:speed>0.0</gom:speed></extensions></trkpt>
   <trkpt lat="59.075390815" lon="29.9872808181"><ele>92.522</ele><time>2026-04-25T15:05:34.000Z</time><hdop>3.062</hdop><vdop>3.062</vdop><extensions><gom:speed>0.0</gom:speed></extensions></trkpt>
   <trkpt lat="59.075390815" lon="29.9872808181"><ele>92.522</ele><time>2026-04-25T15:05:35.000Z</time><hdop>3.062</hdop><vdop>3.062</vdop><extensions><gom:speed>0.0</gom:speed></extensions></trkpt>
   <trkpt lat="59.075390815" lon="29.9872808181"><ele>92.522</ele><time>2026-04-25T15:05:36.000Z</time><hdop>3.062</hdop><vdop>3.062</vdop><extensions><gom:speed>0.0</gom:speed></extensions></trkpt>
   <trkpt lat="59.075390815" lon="29.9872808181"><ele>92.522</ele><time>2026-04-25T15:05:37.000Z</time><hdop>3.062</hdop><vdop>3.062</vdop><extensions><gom:speed>0.0</gom:speed></extensions></trkpt>
   <trkpt lat="59.075390815" lon="29.9872808181"><ele>92.522</ele><time>2026-04-25T15:05:38.000Z</time><hdop>3.062</hdop><vdop>3.062</vdop><extensions><gom:speed>0.0</gom:speed></extensions></trkpt>
   <trkpt lat="59.075390815" lon="29.9872808181"><ele>92.522</ele><time>2026-04-25T15:05:39.000Z</time><hdop>3.062</hdop><vdop>3.062</vdop><extensions><gom:speed>0.0</gom:speed></extensions></trkpt>
   <trkpt lat="59.075390815" lon="29.9872808181"><ele>92.522</ele><time>2026-04-25T15:05:40.000Z</time><hdop>3.062</hdop><vdop>3.062</vdop><extensions><gom:speed>0.0</gom:speed></extensions></trkpt>
   <trkpt lat="59.075390815" lon="29.9872808181"><ele>92.522</ele><time>2026-04-25T15:05:41.000Z</time><hdop>3.062</hdop><vdop>3.062</vdop><extensions><gom:speed>0.0</gom:speed></extensions></trkpt>
   <trkpt lat="59.075390815" lon="29.9872808181"><ele>92.522</ele><time>2026-04-25T15:05:42.000Z</time><hdop>3.062</hdop><vdop>3.062</vdop><extensions><gom:speed>0.0</gom:speed></extensions></trkpt>
   <trkpt lat="59.075390815" lon="29.9872808181"><ele>92.522</ele><time>2026-04-25T15:05:43.000Z</time><hdop>3.062</hdop><vdop>3.062</vdop><extensions><gom:speed>0.0</gom:speed></extensions></trkpt>
   <trkpt lat="59.075390815" lon="29.9872808181"><ele>92.522</ele><time>2026-04-25T15:05:44.000Z</time><hdop>3.062</hdop><vdop>3.062</vdop><extensions><gom:speed>0.0</gom:speed></extensions></trkpt>
   <trkpt lat="59.075390815" lon="29.9872808181"><ele>92.522</ele><time>2026-04-25T15:05:45.000Z</time><hdop>3.062</hdop><vdop>3.062</vdop><extensions><gom:speed>0.0</gom:speed></extensions></trkpt>
   <trkpt lat="59.075390815" lon="29.9872808181"><ele>92.522</ele><time>2026-04-25T15:05:46.000Z</time><hdop>3.062</hdop><vdop>3.062</vdop><extensions><gom:speed>0.0</gom:speed></extensions></trkpt>
   <trkpt lat="59.075390815" lon="29.9872808181"><ele>92.522</ele><time>2026-04-25T15:05:47.000Z</time><hdop>3.062</hdop><vdop>3.062</vdop><extensions><gom:speed>0.0</gom:speed></extensions></trkpt>
   <trkpt lat="59.075390815" lon="29.9872808181"><ele>92.522</ele><time>2026-04-25T15:05:48.000Z</time><hdop>3.062</hdop><vdop>3.062</vdop><extensions><gom:speed>0.0</gom:speed></extensions></trkpt>
   <trkpt lat="59.075390815" lon="29.9872808181"><ele>92.522</ele><time>2026-04-25T15:05:48.000Z</time><hdop>3.062</hdop><vdop>3.062</vdop><extensions><gom:speed>0.0</gom:speed></extensions></trkpt>
   <trkpt lat="59.075390815" lon="29.9872808181"><ele>92.522</ele><time>2026-04-25T15:05:49.000Z</time><hdop>3.062</hdop><vdop>3.062</vdop><extensions><gom:speed>0.0</gom:speed></extensions></trkpt>
   <trkpt lat="59.075390815" lon="29.9872808181"><ele>92.522</ele><time>2026-04-25T15:05:50.000Z</time><hdop>3.062</hdop><vdop>3.062</vdop><extensions><gom:speed>0.0</gom:speed></extensions></trkpt>
   <trkpt lat="59.075390815" lon="29.9872808181"><ele>92.522</ele><time>2026-04-25T15:05:51.000Z</time><hdop>3.062</hdop><vdop>3.062</vdop><extensions><gom:speed>0.0</gom:speed></extensions></trkpt>
   <trkpt lat="59.075390815" lon="29.9872808181"><ele>92.522</ele><time>2026-04-25T15:05:52.000Z</time><hdop>3.062</hdop><vdop>3.062</vdop><extensions><gom:speed>0.0</gom:speed></extensions></trkpt>
   <trkpt lat="59.075390815" lon="29.9872808181"><ele>92.522</ele><time>2026-04-25T15:05:53.000Z</time><hdop>3.062</hdop><vdop>3.062</vdop><extensions><gom:speed>0.0</gom:speed></extensions></trkpt>
   <trkpt lat="59.075390815" lon="29.9872808181"><ele>92.522</ele><time>2026-04-25T15:05:54.000Z</time><hdop>3.062</hdop><vdop>3.062</vdop><extensions><gom:speed>0.0</gom:speed></extensions></trkpt>
   <trkpt lat="59.075390815" lon="29.9872808181"><ele>92.522</ele><time>2026-04-25T15:05:55.000Z</time><hdop>3.062</hdop><vdop>3.062</vdop><extensions><gom:speed>0.0</gom:speed></extensions></trkpt>
   <trkpt lat="59.075390815" lon="29.9872808181"><ele>92.522</ele><time>2026-04-25T15:05:56.000Z</time><hdop>3.062</hdop><vdop>3.062</vdop><extensions><gom:speed>0.0</gom:speed></extensions></trkpt>
   <trkpt lat="59.075390815" lon="29.9872808181"><ele>92.522</ele><time>2026-04-25T15:05:57.000Z</time><hdop>3.062</hdop><vdop>3.062</vdop><extensions><gom:speed>0.0</gom:speed></extensions></trkpt>
   <trkpt lat="59.075390815" lon="29.9872808181"><ele>92.522</ele><time>2026-04-25T15:05:58.000Z</time><hdop>3.062</hdop><vdop>3.062</vdop><extensions><gom:speed>0.0</gom:speed></extensions></trkpt>
   <trkpt lat="59.075390815" lon="29.9872808181"><ele>92.522</ele><time>2026-04-25T15:05:59.000Z</time><hdop>3.062</hdop><vdop>3.062</vdop><extensions><gom:speed>0.0</gom:speed></extensions></trkpt>
   <trkpt lat="59.075390815" lon="29.9872808181"><ele>92.522</ele><time>2026-04-25T15:06:00.000Z</time><hdop>3.062</hdop><vdop>3.062</vdop><extensions><gom:speed>0.0</gom:speed></extensions></trkpt>
   <trkpt lat="59.075390815" lon="29.9872808181"><ele>92.522</ele><time>2026-04-25T15:06:01.000Z</time><hdop>3.062</hdop><vdop>3.062</vdop><extensions><gom:speed>0.0</gom:speed></extensions></trkpt>
   <trkpt lat="59.075390815" lon="29.9872808181"><ele>92.522</ele><time>2026-04-25T15:06:02.000Z</time><hdop>3.062</hdop><vdop>3.062</vdop><extensions><gom:speed>0.0</gom:speed></extensions></trkpt>
   <trkpt lat="59.075390815" lon="29.9872808181"><ele>92.522</ele><time>2026-04-25T15:06:03.000Z</time><hdop>3.062</hdop><vdop>3.062</vdop><extensions><gom:speed>0.0</gom:speed></extensions></trkpt>
   <trkpt lat="59.075390815" lon="29.9872808181"><ele>92.522</ele><time>2026-04-25T15:06:04.000Z</time><hdop>3.062</hdop><vdop>3.062</vdop><extensions><gom:speed>0.0</gom:speed></extensions></trkpt>
   <trkpt lat="59.075390815" lon="29.9872808181"><ele>92.522</ele><time>2026-04-25T15:06:05.000Z</time><hdop>3.062</hdop><vdop>3.062</vdop><extensions><gom:speed>0.0</gom:speed></extensions></trkpt>
   <trkpt lat="59.075390815" lon="29.9872808181"><ele>92.522</ele><time>2026-04-25T15:06:06.000Z</time><hdop>3.062</hdop><vdop>3.062</vdop><extensions><gom:speed>0.0</gom:speed></extensions></trkpt>
   <trkpt lat="59.075390815" lon="29.9872808181"><ele>92.522</ele><time>2026-04-25T15:06:07.000Z</time><hdop>3.062</hdop><vdop>3.062</vdop><extensions><gom:speed>0.0</gom:speed></extensions></trkpt>
   <trkpt lat="59.075390815" lon="29.9872808181"><ele>92.522</ele><time>2026-04-25T15:06:08.000Z</time><hdop>3.062</hdop><vdop>3.062</vdop><extensions><gom:speed>0.0</gom:speed></extensions></trkpt>
   <trkpt lat="59.075390815" lon="29.9872808181"><ele>92.522</ele><time>2026-04-25T15:06:08.000Z</time><hdop>3.062</hdop><vdop>3.062</vdop><extensions><gom:speed>0.0</gom:speed></extensions></trkpt>
   <trkpt lat="59.075390815" lon="29.9872808181"><ele>92.522</ele><time>2026-04-25T15:06:09.000Z</time><hdop>3.062</hdop><vdop>3.062</vdop><extensions><gom:speed>0.0</gom:speed></extensions></trkpt>
   <trkpt lat="59.075390815" lon="29.9872808181"><ele>92.522</ele><time>2026-04-25T15:06:10.000Z</time><hdop>3.062</hdop><vdop>3.062</vdop><extensions><gom:speed>0.0</gom:speed></extensions></trkpt>
   <trkpt lat="59.075390815" lon="29.9872808181"><ele>92.522</ele><time>2026-04-25T15:06:11.000Z</time><hdop>3.062</hdop><vdop>3.062</vdop><extensions><gom:speed>0.0</gom:speed></extensions></trkpt>
   <trkpt lat="59.075390815" lon="29.9872808181"><ele>92.522</ele><time>2026-04-25T15:06:12.000Z</time><hdop>3.062</hdop><vdop>3.062</vdop><extensions><gom:speed>0.0</gom:speed></extensions></trkpt>
   <trkpt lat="59.075390815" lon="29.9872808181"><ele>92.522</ele><time>2026-04-25T15:06:13.000Z</time><hdop>3.062</hdop><vdop>3.062</vdop><extensions><gom:speed>0.0</gom:speed></extensions></trkpt>
   <trkpt lat="59.075390815" lon="29.9872808181"><ele>92.522</ele><time>2026-04-25T15:06:14.000Z</time><hdop>3.062</hdop><vdop>3.062</vdop><extensions><gom:speed>0.0</gom:speed></extensions></trkpt>
   <trkpt lat="59.075390815" lon="29.9872808181"><ele>92.522</ele><time>2026-04-25T15:06:15.000Z</time><hdop>3.062</hdop><vdop>3.062</vdop><extensions><gom:speed>0.0</gom:speed></extensions></trkpt>
   <trkpt lat="59.075390815" lon="29.9872808181"><ele>92.522</ele><time>2026-04-25T15:06:16.000Z</time><hdop>3.062</hdop><vdop>3.062</vdop><extensions><gom:speed>0.0</gom:speed></extensions></trkpt>
   <trkpt lat="59.075390815" lon="29.9872808181"><ele>92.522</ele><time>2026-04-25T15:06:17.000Z</time><hdop>3.062</hdop><vdop>3.062</vdop><extensions><gom:speed>0.0</gom:speed></extensions></trkpt>
   <trkpt lat="59.075390815" lon="29.9872808181"><ele>92.522</ele><time>2026-04-25T15:06:18.000Z</time><hdop>3.062</hdop><vdop>3.062</vdop><extensions><gom:speed>0.0</gom:speed></extensions></trkpt>
   <trkpt lat="59.075390815" lon="29.9872808181"><ele>92.522</ele><time>2026-04-25T15:06:19.000Z</time><hdop>3.062</hdop><vdop>3.062</vdop><extensions><gom:speed>0.0</gom:speed></extensions></trkpt>
   <trkpt lat="59.075390815" lon="29.9872808181"><ele>92.522</ele><time>2026-04-25T15:06:20.000Z</time><hdop>3.062</hdop><vdop>3.062</vdop><extensions><gom:speed>0.0</gom:speed></extensions></trkpt>
   <trkpt lat="59.075390815" lon="29.9872808181"><ele>92.522</ele><time>2026-04-25T15:06:21.000Z</time><hdop>3.062</hdop><vdop>3.062</vdop><extensions><gom:speed>0.0</gom:speed></extensions></trkpt>
   <trkpt lat="59.075390815" lon="29.9872808181"><ele>92.522</ele><time>2026-04-25T15:06:22.000Z</time><hdop>3.062</hdop><vdop>3.062</vdop><extensions><gom:speed>0.0</gom:speed></extensions></trkpt>
   <trkpt lat="59.075390815" lon="29.9872808181"><ele>92.522</ele><time>2026-04-25T15:06:23.000Z</time><hdop>3.062</hdop><vdop>3.062</vdop><extensions><gom:speed>0.0</gom:speed></extensions></trkpt>
   <trkpt lat="59.075390815" lon="29.9872808181"><ele>92.522</ele><time>2026-04-25T15:06:24.000Z</time><hdop>3.062</hdop><vdop>3.062</vdop><extensions><gom:speed>0.0</gom:speed></extensions></trkpt>
   <trkpt lat="59.075390815" lon="29.9872808181"><ele>92.522</ele><time>2026-04-25T15:06:25.000Z</time><hdop>3.062</hdop><vdop>3.062</vdop><extensions><gom:speed>0.0</gom:speed></extensions></trkpt>
   <trkpt lat="59.075390815" lon="29.9872808181"><ele>92.522</ele><time>2026-04-25T15:06:26.000Z</time><hdop>3.062</hdop><vdop>3.062</vdop><extensions><gom:speed>0.0</gom:speed></extensions></trkpt>
   <trkpt lat="59.075390815" lon="29.9872808181"><ele>92.522</ele><time>2026-04-25T15:06:27.000Z</time><hdop>3.062</hdop><vdop>3.062</vdop><extensions><gom:speed>0.0</gom:speed></extensions></trkpt>
   <trkpt lat="59.075390815" lon="29.9872808181"><ele>92.522</ele><time>2026-04-25T15:06:28.000Z</time><hdop>3.062</hdop><vdop>3.062</vdop><extensions><gom:speed>0.0</gom:speed></extensions></trkpt>
   <trkpt lat="59.075390815" lon="29.9872808181"><ele>92.522</ele><time>2026-04-25T15:06:28.000Z</time><hdop>3.062</hdop><vdop>3.062</vdop><extensions><gom:speed>0.0</gom:speed></extensions></trkpt>
   <trkpt lat="59.075390815" lon="29.9872808181"><ele>92.522</ele><time>2026-04-25T15:06:29.000Z</time><hdop>3.062</hdop><vdop>3.062</vdop><extensions><gom:speed>0.0</gom:speed></extensions></trkpt>
   <trkpt lat="59.075390815" lon="29.9872808181"><ele>92.522</ele><time>2026-04-25T15:06:30.000Z</time><hdop>3.062</hdop><vdop>3.062</vdop><extensions><gom:speed>0.0</gom:speed></extensions></trkpt>
   <trkpt lat="59.075390815" lon="29.9872808181"><ele>92.522</ele><time>2026-04-25T15:06:31.000Z</time><hdop>3.062</hdop><vdop>3.062</vdop><extensions><gom:speed>0.0</gom:speed></extensions></trkpt>
   <trkpt lat="59.075390815" lon="29.9872808181"><ele>92.522</ele><time>2026-04-25T15:06:32.000Z</time><hdop>3.062</hdop><vdop>3.062</vdop><extensions><gom:speed>0.0</gom:speed></extensions></trkpt>
   <trkpt lat="59.075390815" lon="29.9872808181"><ele>92.522</ele><time>2026-04-25T15:06:33.000Z</time><hdop>3.062</hdop><vdop>3.062</vdop><extensions><gom:speed>0.0</gom:speed></extensions></trkpt>
   <trkpt lat="59.075390815" lon="29.9872808181"><ele>92.522</ele><time>2026-04-25T15:06:34.000Z</time><hdop>3.062</hdop><vdop>3.062</vdop><extensions><gom:speed>0.0</gom:speed></extensions></trkpt>
   <trkpt lat="59.075390815" lon="29.9872808181"><ele>92.522</ele><time>2026-04-25T15:06:35.000Z</time><hdop>3.062</hdop><vdop>3.062</vdop><extensions><gom:speed>0.0</gom:speed></extensions></trkpt>
   <trkpt lat="59.075390815" lon="29.9872808181"><ele>92.522</ele><time>2026-04-25T15:06:36.000Z</time><hdop>3.062</hdop><vdop>3.062</vdop><extensions><gom:speed>0.0</gom:speed></extensions></trkpt>
   <trkpt lat="59.075390815" lon="29.9872808181"><ele>92.522</ele><time>2026-04-25T15:06:37.000Z</time><hdop>3.062</hdop><vdop>3.062</vdop><extensions><gom:speed>0.0</gom:speed></extensions></trkpt>
   <trkpt lat="59.075390815" lon="29.9872808181"><ele>92.522</ele><time>2026-04-25T15:06:38.000Z</time><hdop>3.062</hdop><vdop>3.062</vdop><extensions><gom:speed>0.0</gom:speed></extensions></trkpt>
   <trkpt lat="59.075390815" lon="29.9872808181"><ele>92.522</ele><time>2026-04-25T15:06:39.000Z</time><hdop>3.062</hdop><vdop>3.062</vdop><extensions><gom:speed>0.0</gom:speed></extensions></trkpt>
   <trkpt lat="59.075390815" lon="29.9872808181"><ele>92.522</ele><time>2026-04-25T15:06:40.000Z</time><hdop>3.062</hdop><vdop>3.062</vdop><extensions><gom:speed>0.0</gom:speed></extensions></trkpt>
   <trkpt lat="59.075390815" lon="29.9872808181"><ele>92.522</ele><time>2026-04-25T15:06:41.000Z</time><hdop>3.062</hdop><vdop>3.062</vdop><extensions><gom:speed>0.0</gom:speed></extensions></trkpt>
   <trkpt lat="59.075390815" lon="29.9872808181"><ele>92.522</ele><time>2026-04-25T15:06:42.000Z</time><hdop>3.062</hdop><vdop>3.062</vdop><extensions><gom:speed>0.0</gom:speed></extensions></trkpt>
   <trkpt lat="59.075390815" lon="29.9872808181"><ele>92.522</ele><time>2026-04-25T15:06:43.000Z</time><hdop>3.062</hdop><vdop>3.062</vdop><extensions><gom:speed>0.0</gom:speed></extensions></trkpt>
   <trkpt lat="59.075390815" lon="29.9872808181"><ele>92.522</ele><time>2026-04-25T15:06:44.000Z</time><hdop>3.062</hdop><vdop>3.062</vdop><extensions><gom:speed>0.0</gom:speed></extensions></trkpt>
   <trkpt lat="59.075390815" lon="29.9872808181"><ele>92.522</ele><time>2026-04-25T15:06:45.000Z</time><hdop>3.062</hdop><vdop>3.062</vdop><extensions><gom:speed>0.0</gom:speed></extensions></trkpt>
   <trkpt lat="59.075390815" lon="29.9872808181"><ele>92.522</ele><time>2026-04-25T15:06:46.000Z</time><hdop>3.062</hdop><vdop>3.062</vdop><extensions><gom:speed>0.0</gom:speed></extensions></trkpt>
   <trkpt lat="59.075390815" lon="29.9872808181"><ele>92.522</ele><time>2026-04-25T15:06:47.000Z</time><hdop>3.062</hdop><vdop>3.062</vdop><extensions><gom:speed>0.0</gom:speed></extensions></trkpt>
   <trkpt lat="59.075390815" lon="29.9872808181"><ele>92.522</ele><time>2026-04-25T15:06:48.000Z</time><hdop>3.062</hdop><vdop>3.062</vdop><extensions><gom:speed>0.0</gom:speed></extensions></trkpt>
   <trkpt lat="59.075390815" lon="29.9872808181"><ele>92.522</ele><time>2026-04-25T15:06:48.000Z</time><hdop>3.062</hdop><vdop>3.062</vdop><extensions><gom:speed>0.0</gom:speed></extensions></trkpt>
   <trkpt lat="59.075390815" lon="29.9872808181"><ele>92.522</ele><time>2026-04-25T15:06:49.000Z</time><hdop>3.062</hdop><vdop>3.062</vdop><extensions><gom:speed>0.0</gom:speed></extensions></trkpt>
   <trkpt lat="59.075390815" lon="29.9872808181"><ele>92.522</ele><time>2026-04-25T15:06:50.000Z</time><hdop>3.062</hdop><vdop>3.062</vdop><extensions><gom:speed>0.0</gom:speed></extensions></trkpt>
   <trkpt lat="59.075390815" lon="29.9872808181"><ele>92.522</ele><time>2026-04-25T15:06:51.000Z</time><hdop>3.062</hdop><vdop>3.062</vdop><extensions><gom:speed>0.0</gom:speed></extensions></trkpt>
   <trkpt lat="59.075390815" lon="29.9872808181"><ele>92.522</ele><time>2026-04-25T15:06:52.000Z</time><hdop>3.062</hdop><vdop>3.062</vdop><extensions><gom:speed>0.0</gom:speed></extensions></trkpt>
   <trkpt lat="59.075390815" lon="29.9872808181"><ele>92.522</ele><time>2026-04-25T15:06:53.000Z</time><hdop>3.062</hdop><vdop>3.062</vdop><extensions><gom:speed>0.0</gom:speed></extensions></trkpt>
   <trkpt lat="59.075390815" lon="29.9872808181"><ele>92.522</ele><time>2026-04-25T15:06:54.000Z</time><hdop>3.062</hdop><vdop>3.062</vdop><extensions><gom:speed>0.0</gom:speed></extensions></trkpt>
   <trkpt lat="59.075390815" lon="29.9872808181"><ele>92.522</ele><time>2026-04-25T15:06:55.000Z</time><hdop>3.062</hdop><vdop>3.062</vdop><extensions><gom:speed>0.0</gom:speed></extensions></trkpt>
   <trkpt lat="59.075390815" lon="29.9872808181"><ele>92.522</ele><time>2026-04-25T15:06:56.000Z</time><hdop>3.062</hdop><vdop>3.062</vdop><extensions><gom:speed>0.0</gom:speed></extensions></trkpt>
   <trkpt lat="59.075390815" lon="29.9872808181"><ele>92.522</ele><time>2026-04-25T15:06:57.000Z</time><hdop>3.062</hdop><vdop>3.062</vdop><extensions><gom:speed>0.0</gom:speed></extensions></trkpt>
   <trkpt lat="59.075390815" lon="29.9872808181"><ele>92.522</ele><time>2026-04-25T15:06:58.000Z</time><hdop>3.062</hdop><vdop>3.062</vdop><extensions><gom:speed>0.0</gom:speed></extensions></trkpt>
   <trkpt lat="59.075390815" lon="29.9872808181"><ele>92.522</ele><time>2026-04-25T15:06:59.000Z</time><hdop>3.062</hdop><vdop>3.062</vdop><extensions><gom:speed>0.0</gom:speed></extensions></trkpt>
   <trkpt lat="59.075390815" lon="29.9872808181"><ele>92.522</ele><time>2026-04-25T15:07:00.000Z</time><hdop>3.062</hdop><vdop>3.062</vdop><extensions><gom:speed>0.0</gom:speed></extensions></trkpt>
   <trkpt lat="59.075390815" lon="29.9872808181"><ele>92.522</ele><time>2026-04-25T15:07:01.000Z</time><hdop>3.062</hdop><vdop>3.062</vdop><extensions><gom:speed>0.0</gom:speed></extensions></trkpt>
   <trkpt lat="59.075390815" lon="29.9872808181"><ele>92.522</ele><time>2026-04-25T15:07:02.000Z</time><hdop>3.062</hdop><vdop>3.062</vdop><extensions><gom:speed>0.0</gom:speed></extensions></trkpt>
   <trkpt lat="59.075390815" lon="29.9872808181"><ele>92.522</ele><time>2026-04-25T15:07:03.000Z</time><hdop>3.062</hdop><vdop>3.062</vdop><extensions><gom:speed>0.0</gom:speed></extensions></trkpt>
   <trkpt lat="59.075390815" lon="29.9872808181"><ele>92.522</ele><time>2026-04-25T15:07:04.000Z</time><hdop>3.062</hdop><vdop>3.062</vdop><extensions><gom:speed>0.0</gom:speed></extensions></trkpt>
   <trkpt lat="59.075390815" lon="29.9872808181"><ele>92.522</ele><time>2026-04-25T15:07:05.000Z</time><hdop>3.062</hdop><vdop>3.062</vdop><extensions><gom:speed>0.0</gom:speed></extensions></trkpt>
   <trkpt lat="59.075390815" lon="29.9872808181"><ele>92.522</ele><time>2026-04-25T15:07:06.000Z</time><hdop>3.062</hdop><vdop>3.062</vdop><extensions><gom:speed>0.0</gom:speed></extensions></trkpt>
   <trkpt lat="59.075390815" lon="29.9872808181"><ele>92.522</ele><time>2026-04-25T15:07:07.000Z</time><hdop>3.062</hdop><vdop>3.062</vdop><extensions><gom:speed>0.0</gom:speed></extensions></trkpt>
   <trkpt lat="59.075390815" lon="29.9872808181"><ele>92.522</ele><time>2026-04-25T15:07:08.000Z</time><hdop>3.062</hdop><vdop>3.062</vdop><extensions><gom:speed>0.0</gom:speed></extensions></trkpt>
   <trkpt lat="59.075390815" lon="29.9872808181"><ele>92.522</ele><time>2026-04-25T15:07:08.000Z</time><hdop>3.062</hdop><vdop>3.062</vdop><extensions><gom:speed>0.0</gom:speed></extensions></trkpt>
   <trkpt lat="59.075390815" lon="29.9872808181"><ele>92.522</ele><time>2026-04-25T15:07:09.000Z</time><hdop>3.062</hdop><vdop>3.062</vdop><extensions><gom:speed>0.0</gom:speed></extensions></trkpt>
   <trkpt lat="59.075390815" lon="29.9872808181"><ele>92.522</ele><time>2026-04-25T15:07:10.000Z</time><hdop>3.062</hdop><vdop>3.062</vdop><extensions><gom:speed>0.0</gom:speed></extensions></trkpt>
   <trkpt lat="59.075390815" lon="29.9872808181"><ele>92.522</ele><time>2026-04-25T15:07:11.000Z</time><hdop>3.062</hdop><vdop>3.062</vdop><extensions><gom:speed>0.0</gom:speed></extensions></trkpt>
   <trkpt lat="59.075390815" lon="29.9872808181"><ele>92.522</ele><time>2026-04-25T15:07:12.000Z</time><hdop>3.062</hdop><vdop>3.062</vdop><extensions><gom:speed>0.0</gom:speed></extensions></trkpt>
   <trkpt lat="59.075390815" lon="29.9872808181"><ele>92.522</ele><time>2026-04-25T15:07:13.000Z</time><hdop>3.062</hdop><vdop>3.062</vdop><extensions><gom:speed>0.0</gom:speed></extensions></trkpt>
   <trkpt lat="59.075390815" lon="29.9872808181"><ele>92.522</ele><time>2026-04-25T15:07:14.000Z</time><hdop>3.062</hdop><vdop>3.062</vdop><extensions><gom:speed>0.0</gom:speed></extensions></trkpt>
   <trkpt lat="59.075390815" lon="29.9872808181"><ele>92.522</ele><time>2026-04-25T15:07:15.000Z</time><hdop>3.062</hdop><vdop>3.062</vdop><extensions><gom:speed>0.0</gom:speed></extensions></trkpt>
   <trkpt lat="59.075390815" lon="29.9872808181"><ele>92.522</ele><time>2026-04-25T15:07:16.000Z</time><hdop>3.062</hdop><vdop>3.062</vdop><extensions><gom:speed>0.0</gom:speed></extensions></trkpt>
   <trkpt lat="59.075390815" lon="29.9872808181"><ele>92.522</ele><time>2026-04-25T15:07:17.000Z</time><hdop>3.062</hdop><vdop>3.062</vdop><extensions><gom:speed>0.0</gom:speed></extensions></trkpt>
   <trkpt lat="59.075390815" lon="29.9872808181"><ele>92.522</ele><time>2026-04-25T15:07:18.000Z</time><hdop>3.062</hdop><vdop>3.062</vdop><extensions><gom:speed>0.0</gom:speed></extensions></trkpt>
   <trkpt lat="59.075390815" lon="29.9872808181"><ele>92.522</ele><time>2026-04-25T15:07:19.000Z</time><hdop>3.062</hdop><vdop>3.062</vdop><extensions><gom:speed>0.0</gom:speed></extensions></trkpt>
   <trkpt lat="59.075390815" lon="29.9872808181"><ele>92.522</ele><time>2026-04-25T15:07:20.000Z</time><hdop>3.062</hdop><vdop>3.062</vdop><extensions><gom:speed>0.0</gom:speed></extensions></trkpt>
   <trkpt lat="59.075390815" lon="29.9872808181"><ele>92.522</ele><time>2026-04-25T15:07:21.000Z</time><hdop>3.062</hdop><vdop>3.062</vdop><extensions><gom:speed>0.0</gom:speed></extensions></trkpt>
   <trkpt lat="59.075390815" lon="29.9872808181"><ele>92.522</ele><time>2026-04-25T15:07:22.000Z</time><hdop>3.062</hdop><vdop>3.062</vdop><extensions><gom:speed>0.0</gom:speed></extensions></trkpt>
   <trkpt lat="59.075390815" lon="29.9872808181"><ele>92.522</ele><time>2026-04-25T15:07:23.000Z</time><hdop>3.062</hdop><vdop>3.062</vdop><extensions><gom:speed>0.0</gom:speed></extensions></trkpt>
   <trkpt lat="59.075390815" lon="29.9872808181"><ele>92.522</ele><time>2026-04-25T15:07:24.000Z</time><hdop>3.062</hdop><vdop>3.062</vdop><extensions><gom:speed>0.0</gom:speed></extensions></trkpt>
   <trkpt lat="59.075390815" lon="29.9872808181"><ele>92.522</ele><time>2026-04-25T15:07:25.000Z</time><hdop>3.062</hdop><vdop>3.062</vdop><extensions><gom:speed>0.0</gom:speed></extensions></trkpt>
   <trkpt lat="59.075390815" lon="29.9872808181"><ele>92.522</ele><time>2026-04-25T15:07:26.000Z</time><hdop>3.062</hdop><vdop>3.062</vdop><extensions><gom:speed>0.0</gom:speed></extensions></trkpt>
   <trkpt lat="59.075390815" lon="29.9872808181"><ele>92.522</ele><time>2026-04-25T15:07:27.000Z</time><hdop>3.062</hdop><vdop>3.062</vdop><extensions><gom:speed>0.0</gom:speed></extensions></trkpt>
   <trkpt lat="59.075390815" lon="29.9872808181"><ele>92.522</ele><time>2026-04-25T15:07:28.000Z</time><hdop>3.062</hdop><vdop>3.062</vdop><extensions><gom:speed>0.0</gom:speed></extensions></trkpt>
   <trkpt lat="59.075390815" lon="29.9872808181"><ele>92.522</ele><time>2026-04-25T15:07:28.000Z</time><hdop>3.062</hdop><vdop>3.062</vdop><extensions><gom:speed>0.0</gom:speed></extensions></trkpt>
   <trkpt lat="59.075390815" lon="29.9872808181"><ele>92.522</ele><time>2026-04-25T15:07:29.000Z</time><hdop>3.062</hdop><vdop>3.062</vdop><extensions><gom:speed>0.0</gom:speed></extensions></trkpt>
   <trkpt lat="59.075390815" lon="29.9872808181"><ele>92.522</ele><time>2026-04-25T15:07:30.000Z</time><hdop>3.062</hdop><vdop>3.062</vdop><extensions><gom:speed>0.0</gom:speed></extensions></trkpt>
   <trkpt lat="59.075390815" lon="29.9872808181"><ele>92.522</ele><time>2026-04-25T15:07:31.000Z</time><hdop>3.062</hdop><vdop>3.062</vdop><extensions><gom:speed>0.0</gom:speed></extensions></trkpt>
   <trkpt lat="59.075390815" lon="29.9872808181"><ele>92.522</ele><time>2026-04-25T15:07:32.000Z</time><hdop>3.062</hdop><vdop>3.062</vdop><extensions><gom:speed>0.0</gom:speed></extensions></trkpt>
   <trkpt lat="59.075390815" lon="29.9872808181"><ele>92.522</ele><time>2026-04-25T15:07:33.000Z</time><hdop>3.062</hdop><vdop>3.062</vdop><extensions><gom:speed>0.0</gom:speed></extensions></trkpt>
   <trkpt lat="59.075390815" lon="29.9872808181"><ele>92.522</ele><time>2026-04-25T15:07:34.000Z</time><hdop>3.062</hdop><vdop>3.062</vdop><extensions><gom:speed>0.0</gom:speed></extensions></trkpt>
   <trkpt lat="59.075390815" lon="29.9872808181"><ele>92.522</ele><time>2026-04-25T15:07:35.000Z</time><hdop>3.062</hdop><vdop>3.062</vdop><extensions><gom:speed>0.0</gom:speed></extensions></trkpt>
   <trkpt lat="59.075390815" lon="29.9872808181"><ele>92.522</ele><time>2026-04-25T15:07:36.000Z</time><hdop>3.062</hdop><vdop>3.062</vdop><extensions><gom:speed>0.0</gom:speed></extensions></trkpt>
   <trkpt lat="59.075390815" lon="29.9872808181"><ele>92.522</ele><time>2026-04-25T15:07:37.000Z</time><hdop>3.062</hdop><vdop>3.062</vdop><extensions><gom:speed>0.0</gom:speed></extensions></trkpt>
   <trkpt lat="59.075390815" lon="29.9872808181"><ele>92.522</ele><time>2026-04-25T15:07:38.000Z</time><hdop>3.062</hdop><vdop>3.062</vdop><extensions><gom:speed>0.0</gom:speed></extensions></trkpt>
   <trkpt lat="59.075390815" lon="29.9872808181"><ele>92.522</ele><time>2026-04-25T15:07:39.000Z</time><hdop>3.062</hdop><vdop>3.062</vdop><extensions><gom:speed>0.0</gom:speed></extensions></trkpt>
   <trkpt lat="59.075390815" lon="29.9872808181"><ele>92.522</ele><time>2026-04-25T15:07:40.000Z</time><hdop>3.062</hdop><vdop>3.062</vdop><extensions><gom:speed>0.0</gom:speed></extensions></trkpt>
   <trkpt lat="59.075390815" lon="29.9872808181"><ele>92.522</ele><time>2026-04-25T15:07:41.000Z</time><hdop>3.062</hdop><vdop>3.062</vdop><extensions><gom:speed>0.0</gom:speed></extensions></trkpt>
   <trkpt lat="59.075390815" lon="29.9872808181"><ele>92.522</ele><time>2026-04-25T15:07:42.000Z</time><hdop>3.062</hdop><vdop>3.062</vdop><extensions><gom:speed>0.0</gom:speed></extensions></trkpt>
   <trkpt lat="59.075390815" lon="29.9872808181"><ele>92.522</ele><time>2026-04-25T15:07:43.000Z</time><hdop>3.062</hdop><vdop>3.062</vdop><extensions><gom:speed>0.0</gom:speed></extensions></trkpt>
   <trkpt lat="59.075390815" lon="29.9872808181"><ele>92.522</ele><time>2026-04-25T15:07:44.000Z</time><hdop>3.062</hdop><vdop>3.062</vdop><extensions><gom:speed>0.0</gom:speed></extensions></trkpt>
   <trkpt lat="59.075390815" lon="29.9872808181"><ele>92.522</ele><time>2026-04-25T15:07:45.000Z</time><hdop>3.062</hdop><vdop>3.062</vdop><extensions><gom:speed>0.0</gom:speed></extensions></trkpt>
   <trkpt lat="59.075390815" lon="29.9872808181"><ele>92.522</ele><time>2026-04-25T15:07:46.000Z</time><hdop>3.062</hdop><vdop>3.062</vdop><extensions><gom:speed>0.0</gom:speed></extensions></trkpt>
   <trkpt lat="59.075390815" lon="29.9872808181"><ele>92.522</ele><time>2026-04-25T15:07:47.000Z</time><hdop>3.062</hdop><vdop>3.062</vdop><extensions><gom:speed>0.0</gom:speed></extensions></trkpt>
   <trkpt lat="59.075390815" lon="29.9872808181"><ele>92.522</ele><time>2026-04-25T15:07:48.000Z</time><hdop>3.062</hdop><vdop>3.062</vdop><extensions><gom:speed>0.0</gom:speed></extensions></trkpt>
   <trkpt lat="59.075390815" lon="29.9872808181"><ele>92.522</ele><time>2026-04-25T15:07:48.000Z</time><hdop>3.062</hdop><vdop>3.062</vdop><extensions><gom:speed>0.0</gom:speed></extensions></trkpt>
   <trkpt lat="59.075390815" lon="29.9872808181"><ele>92.522</ele><time>2026-04-25T15:07:49.000Z</time><hdop>3.062</hdop><vdop>3.062</vdop><extensions><gom:speed>0.0</gom:speed></extensions></trkpt>
   <trkpt lat="59.075390815" lon="29.9872808181"><ele>92.522</ele><time>2026-04-25T15:07:50.000Z</time><hdop>3.062</hdop><vdop>3.062</vdop><extensions><gom:speed>0.0</gom:speed></extensions></trkpt>
   <trkpt lat="59.075390815" lon="29.9872808181"><ele>92.522</ele><time>2026-04-25T15:07:51.000Z</time><hdop>3.062</hdop><vdop>3.062</vdop><extensions><gom:speed>0.0</gom:speed></extensions></trkpt>
   <trkpt lat="59.075390815" lon="29.9872808181"><ele>92.522</ele><time>2026-04-25T15:07:52.000Z</time><hdop>3.062</hdop><vdop>3.062</vdop><extensions><gom:speed>0.0</gom:speed></extensions></trkpt>
   <trkpt lat="59.075390815" lon="29.9872808181"><ele>92.522</ele><time>2026-04-25T15:07:53.000Z</time><hdop>3.062</hdop><vdop>3.062</vdop><extensions><gom:speed>0.0</gom:speed></extensions></trkpt>
   <trkpt lat="59.075390815" lon="29.9872808181"><ele>92.522</ele><time>2026-04-25T15:07:54.000Z</time><hdop>3.062</hdop><vdop>3.062</vdop><extensions><gom:speed>0.0</gom:speed></extensions></trkpt>
   <trkpt lat="59.075390815" lon="29.9872808181"><ele>92.522</ele><time>2026-04-25T15:07:55.000Z</time><hdop>3.062</hdop><vdop>3.062</vdop><extensions><gom:speed>0.0</gom:speed></extensions></trkpt>
   <trkpt lat="59.075390815" lon="29.9872808181"><ele>92.522</ele><time>2026-04-25T15:07:56.000Z</time><hdop>3.062</hdop><vdop>3.062</vdop><extensions><gom:speed>0.0</gom:speed></extensions></trkpt>
   <trkpt lat="59.075390815" lon="29.9872808181"><ele>92.522</ele><time>2026-04-25T15:07:57.000Z</time><hdop>3.062</hdop><vdop>3.062</vdop><extensions><gom:speed>0.0</gom:speed></extensions></trkpt>
   <trkpt lat="59.075390815" lon="29.9872808181"><ele>92.522</ele><time>2026-04-25T15:07:58.000Z</time><hdop>3.062</hdop><vdop>3.062</vdop><extensions><gom:speed>0.0</gom:speed></extensions></trkpt>
   <trkpt lat="59.075390815" lon="29.9872808181"><ele>92.522</ele><time>2026-04-25T15:07:59.000Z</time><hdop>3.062</hdop><vdop>3.062</vdop><extensions><gom:speed>0.0</gom:speed></extensions></trkpt>
   <trkpt lat="59.075390815" lon="29.9872808181"><ele>92.522</ele><time>2026-04-25T15:08:00.000Z</time><hdop>3.062</hdop><vdop>3.062</vdop><extensions><gom:speed>0.0</gom:speed></extensions></trkpt>
   <trkpt lat="59.075390815" lon="29.9872808181"><ele>92.522</ele><time>2026-04-25T15:08:01.000Z</time><hdop>3.062</hdop><vdop>3.062</vdop><extensions><gom:speed>0.0</gom:speed></extensions></trkpt>
   <trkpt lat="59.075390815" lon="29.9872808181"><ele>92.522</ele><time>2026-04-25T15:08:02.000Z</time><hdop>3.062</hdop><vdop>3.062</vdop><extensions><gom:speed>0.0</gom:speed></extensions></trkpt>
   <trkpt lat="59.075390815" lon="29.9872808181"><ele>92.522</ele><time>2026-04-25T15:08:03.000Z</time><hdop>3.062</hdop><vdop>3.062</vdop><extensions><gom:speed>0.0</gom:speed></extensions></trkpt>
   <trkpt lat="59.075390815" lon="29.9872808181"><ele>92.522</ele><time>2026-04-25T15:08:04.000Z</time><hdop>3.062</hdop><vdop>3.062</vdop><extensions><gom:speed>0.0</gom:speed></extensions></trkpt>
   <trkpt lat="59.075390815" lon="29.9872808181"><ele>92.522</ele><time>2026-04-25T15:08:05.000Z</time><hdop>3.062</hdop><vdop>3.062</vdop><extensions><gom:speed>0.0</gom:speed></extensions></trkpt>
   <trkpt lat="59.075390815" lon="29.9872808181"><ele>92.522</ele><time>2026-04-25T15:08:06.000Z</time><hdop>3.062</hdop><vdop>3.062</vdop><extensions><gom:speed>0.0</gom:speed></extensions></trkpt>
   <trkpt lat="59.075390815" lon="29.9872808181"><ele>92.522</ele><time>2026-04-25T15:08:07.000Z</time><hdop>3.062</hdop><vdop>3.062</vdop><extensions><gom:speed>0.0</gom:speed></extensions></trkpt>
   <trkpt lat="59.075390815" lon="29.9872808181"><ele>92.522</ele><time>2026-04-25T15:08:08.000Z</time><hdop>3.062</hdop><vdop>3.062</vdop><extensions><gom:speed>0.0</gom:speed></extensions></trkpt>
   <trkpt lat="59.075390815" lon="29.9872808181"><ele>92.522</ele><time>2026-04-25T15:08:08.000Z</time><hdop>3.062</hdop><vdop>3.062</vdop><extensions><gom:speed>0.0</gom:speed></extensions></trkpt>
   <trkpt lat="59.075390815" lon="29.9872808181"><ele>92.522</ele><time>2026-04-25T15:08:09.000Z</time><hdop>3.062</hdop><vdop>3.062</vdop><extensions><gom:speed>0.0</gom:speed></extensions></trkpt>
   <trkpt lat="59.075390815" lon="29.9872808181"><ele>92.522</ele><time>2026-04-25T15:08:10.000Z</time><hdop>3.062</hdop><vdop>3.062</vdop><extensions><gom:speed>0.0</gom:speed></extensions></trkpt>
   <trkpt lat="59.075390815" lon="29.9872808181"><ele>92.522</ele><time>2026-04-25T15:08:11.000Z</time><hdop>3.062</hdop><vdop>3.062</vdop><extensions><gom:speed>0.0</gom:speed></extensions></trkpt>
   <trkpt lat="59.075390815" lon="29.9872808181"><ele>92.522</ele><time>2026-04-25T15:08:12.000Z</time><hdop>3.062</hdop><vdop>3.062</vdop><extensions><gom:speed>0.0</gom:speed></extensions></trkpt>
   <trkpt lat="59.075390815" lon="29.9872808181"><ele>92.522</ele><time>2026-04-25T15:08:13.000Z</time><hdop>3.062</hdop><vdop>3.062</vdop><extensions><gom:speed>0.0</gom:speed></extensions></trkpt>
   <trkpt lat="59.075390815" lon="29.9872808181"><ele>92.522</ele><time>2026-04-25T15:08:14.000Z</time><hdop>3.062</hdop><vdop>3.062</vdop><extensions><gom:speed>0.0</gom:speed></extensions></trkpt>
   <trkpt lat="59.075390815" lon="29.9872808181"><ele>92.522</ele><time>2026-04-25T15:08:15.000Z</time><hdop>3.062</hdop><vdop>3.062</vdop><extensions><gom:speed>0.0</gom:speed></extensions></trkpt>
   <trkpt lat="59.075390815" lon="29.9872808181"><ele>92.522</ele><time>2026-04-25T15:08:16.000Z</time><hdop>3.062</hdop><vdop>3.062</vdop><extensions><gom:speed>0.0</gom:speed></extensions></trkpt>
   <trkpt lat="59.075390815" lon="29.9872808181"><ele>92.522</ele><time>2026-04-25T15:08:17.000Z</time><hdop>3.062</hdop><vdop>3.062</vdop><extensions><gom:speed>0.0</gom:speed></extensions></trkpt>
   <trkpt lat="59.075390815" lon="29.9872808181"><ele>92.522</ele><time>2026-04-25T15:08:18.000Z</time><hdop>3.062</hdop><vdop>3.062</vdop><extensions><gom:speed>0.0</gom:speed></extensions></trkpt>
   <trkpt lat="59.075390815" lon="29.9872808181"><ele>92.522</ele><time>2026-04-25T15:08:19.000Z</time><hdop>3.062</hdop><vdop>3.062</vdop><extensions><gom:speed>0.0</gom:speed></extensions></trkpt>
   <trkpt lat="59.075390815" lon="29.9872808181"><ele>92.522</ele><time>2026-04-25T15:08:20.000Z</time><hdop>3.062</hdop><vdop>3.062</vdop><extensions><gom:speed>0.0</gom:speed></extensions></trkpt>
   <trkpt lat="59.075390815" lon="29.9872808181"><ele>92.522</ele><time>2026-04-25T15:08:21.000Z</time><hdop>3.062</hdop><vdop>3.062</vdop><extensions><gom:speed>0.0</gom:speed></extensions></trkpt>
   <trkpt lat="59.075390815" lon="29.9872808181"><ele>92.522</ele><time>2026-04-25T15:08:22.000Z</time><hdop>3.062</hdop><vdop>3.062</vdop><extensions><gom:speed>0.0</gom:speed></extensions></trkpt>
   <trkpt lat="59.075390815" lon="29.9872808181"><ele>92.522</ele><time>2026-04-25T15:08:23.000Z</time><hdop>3.062</hdop><vdop>3.062</vdop><extensions><gom:speed>0.0</gom:speed></extensions></trkpt>
   <trkpt lat="59.075390815" lon="29.9872808181"><ele>92.522</ele><time>2026-04-25T15:08:24.000Z</time><hdop>3.062</hdop><vdop>3.062</vdop><extensions><gom:speed>0.0</gom:speed></extensions></trkpt>
   <trkpt lat="59.075390815" lon="29.9872808181"><ele>92.522</ele><time>2026-04-25T15:08:25.000Z</time><hdop>3.062</hdop><vdop>3.062</vdop><extensions><gom:speed>0.0</gom:speed></extensions></trkpt>
   <trkpt lat="59.075390815" lon="29.9872808181"><ele>92.522</ele><time>2026-04-25T15:08:26.000Z</time><hdop>3.062</hdop><vdop>3.062</vdop><extensions><gom:speed>0.0</gom:speed></extensions></trkpt>
   <trkpt lat="59.075390815" lon="29.9872808181"><ele>92.522</ele><time>2026-04-25T15:08:27.000Z</time><hdop>3.062</hdop><vdop>3.062</vdop><extensions><gom:speed>0.0</gom:speed></extensions></trkpt>
   <trkpt lat="59.075390815" lon="29.9872808181"><ele>92.522</ele><time>2026-04-25T15:08:28.000Z</time><hdop>3.062</hdop><vdop>3.062</vdop><extensions><gom:speed>0.0</gom:speed></extensions></trkpt>
   <trkpt lat="59.075390815" lon="29.9872808181"><ele>92.522</ele><time>2026-04-25T15:08:28.000Z</time><hdop>3.062</hdop><vdop>3.062</vdop><extensions><gom:speed>0.0</gom:speed></extensions></trkpt>
   <trkpt lat="59.075390815" lon="29.9872808181"><ele>92.522</ele><time>2026-04-25T15:08:29.000Z</time><hdop>3.062</hdop><vdop>3.062</vdop><extensions><gom:speed>0.0</gom:speed></extensions></trkpt>
   <trkpt lat="59.075390815" lon="29.9872808181"><ele>92.522</ele><time>2026-04-25T15:08:30.000Z</time><hdop>3.062</hdop><vdop>3.062</vdop><extensions><gom:speed>0.0</gom:speed></extensions></trkpt>
   <trkpt lat="59.0753903121" lon="29.9872789741"><ele>92.502</ele><time>2026-04-25T15:08:31.000Z</time><hdop>3.562</hdop><vdop>3.562</vdop><extensions><gom:speed>0.334</gom:speed></extensions></trkpt>
   <trkpt lat="59.0753903121" lon="29.9872789741"><ele>92.49</ele><time>2026-04-25T15:08:32.000Z</time><hdop>3.562</hdop><vdop>3.562</vdop><extensions><gom:speed>0.0</gom:speed></extensions></trkpt>
   <trkpt lat="59.0753911084" lon="29.9872938939"><ele>92.49</ele><time>2026-04-25T15:08:33.000Z</time><hdop>4.937</hdop><vdop>4.937</vdop><extensions><gom:speed>0.464</gom:speed></extensions></trkpt>
   <trkpt lat="59.0753914856" lon="29.9872964923"><ele>92.465</ele><time>2026-04-25T15:08:34.000Z</time><hdop>4.812</hdop><vdop>4.812</vdop><extensions><gom:speed>0.445</gom:speed></extensions></trkpt>
   <trkpt lat="59.075390354" lon="29.9872954026"><ele>92.433</ele><time>2026-04-25T15:08:35.000Z</time><hdop>4.687</hdop><vdop>4.687</vdop><extensions><gom:speed>0.237</gom:speed></extensions></trkpt>
   <trkpt lat="59.075390354" lon="29.9872954026"><ele>92.413</ele><time>2026-04-25T15:08:36.000Z</time><hdop>4.687</hdop><vdop>4.687</vdop><extensions><gom:speed>0.0</gom:speed></extensions></trkpt>
   <trkpt lat="59.075390354" lon="29.9872954026"><ele>92.401</ele><time>2026-04-25T15:08:37.000Z</time><hdop>4.687</hdop><vdop>4.687</vdop><extensions><gom:speed>0.0</gom:speed></extensions></trkpt>
   <trkpt lat="59.075390354" lon="29.9872954026"><ele>92.394</ele><time>2026-04-25T15:08:38.000Z</time><hdop>4.687</hdop><vdop>4.687</vdop><extensions><gom:speed>0.0</gom:speed></extensions></trkpt>
   <trkpt lat="59.075390354" lon="29.9872954026"><ele>92.39</ele><time>2026-04-25T15:08:39.000Z</time><hdop>4.687</hdop><vdop>4.687</vdop><extensions><gom:speed>0.0</gom:speed></extensions></trkpt>
   <trkpt lat="59.075390354" lon="29.9872954026"><ele>92.388</ele><time>2026-04-25T15:08:40.000Z</time><hdop>4.687</hdop><vdop>4.687</vdop><extensions><gom:speed>0.0</gom:speed></extensions></trkpt>
   <trkpt lat="59.075390354" lon="29.9872954026"><ele>92.386</ele><time>2026-04-25T15:08:41.000Z</time><hdop>4.687</hdop><vdop>4.687</vdop><extensions><gom:speed>0.0</gom:speed></extensions></trkpt>
   <trkpt lat="59.075390354" lon="29.9872954026"><ele>92.385</ele><time>2026-04-25T15:08:42.000Z</time><hdop>4.687</hdop><vdop>4.687</vdop><extensions><gom:speed>0.0</gom:speed></extensions></trkpt>
   <trkpt lat="59.075390354" lon="29.9872954026"><ele>92.385</ele><time>2026-04-25T15:08:43.000Z</time><hdop>4.687</hdop><vdop>4.687</vdop><extensions><gom:speed>0.0</gom:speed></extensions></trkpt>
   <trkpt lat="59.075390354" lon="29.9872954026"><ele>92.384</ele><time>2026-04-25T15:08:44.000Z</time><hdop>4.687</hdop><vdop>4.687</vdop><extensions><gom:speed>0.0</gom:speed></extensions></trkpt>
   <trkpt lat="59.075390354" lon="29.9872954026"><ele>92.384</ele><time>2026-04-25T15:08:45.000Z</time><hdop>4.687</hdop><vdop>4.687</vdop><extensions><gom:speed>0.0</gom:speed></extensions></trkpt>
   <trkpt lat="59.07538851" lon="29.9872929719"><ele>92.392</ele><time>2026-04-25T15:08:46.000Z</time><hdop>4.812</hdop><vdop>4.812</vdop><extensions><gom:speed>0.477</gom:speed></extensions></trkpt>
   <trkpt lat="59.07538851" lon="29.9872929719"><ele>92.396</ele><time>2026-04-25T15:08:47.000Z</time><hdop>4.812</hdop><vdop>4.812</vdop><extensions><gom:speed>0.0</gom:speed></extensions></trkpt>
   <trkpt lat="59.07538851" lon="29.9872929719"><ele>92.399</ele><time>2026-04-25T15:08:48.000Z</time><hdop>4.812</hdop><vdop>4.812</vdop><extensions><gom:speed>0.0</gom:speed></extensions></trkpt>
   <trkpt lat="59.07538851" lon="29.9872929719"><ele>92.4</ele><time>2026-04-25T15:08:48.000Z</time><hdop>4.812</hdop><vdop>4.812</vdop><extensions><gom:speed>0.0</gom:speed></extensions></trkpt>
   <trkpt lat="59.07538851" lon="29.9872929719"><ele>92.401</ele><time>2026-04-25T15:08:49.000Z</time><hdop>4.812</hdop><vdop>4.812</vdop><extensions><gom:speed>0.0</gom:speed></extensions></trkpt>
   <trkpt lat="59.07538851" lon="29.9872929719"><ele>92.402</ele><time>2026-04-25T15:08:50.000Z</time><hdop>4.812</hdop><vdop>4.812</vdop><extensions><gom:speed>0.0</gom:speed></extensions></trkpt>
   <trkpt lat="59.07538851" lon="29.9872929719"><ele>92.402</ele><time>2026-04-25T15:08:51.000Z</time><hdop>4.812</hdop><vdop>4.812</vdop><extensions><gom:speed>0.0</gom:speed></extensions></trkpt>
   <trkpt lat="59.07538851" lon="29.9872929719"><ele>92.402</ele><time>2026-04-25T15:08:52.000Z</time><hdop>4.812</hdop><vdop>4.812</vdop><extensions><gom:speed>0.0</gom:speed></extensions></trkpt>
   <trkpt lat="59.07538851" lon="29.9872929719"><ele>92.403</ele><time>2026-04-25T15:08:53.000Z</time><hdop>4.812</hdop><vdop>4.812</vdop><extensions><gom:speed>0.0</gom:speed></extensions></trkpt>
   <trkpt lat="59.07538851" lon="29.9872929719"><ele>92.403</ele><time>2026-04-25T15:08:54.000Z</time><hdop>4.812</hdop><vdop>4.812</vdop><extensions><gom:speed>0.0</gom:speed></extensions></trkpt>
   <trkpt lat="59.07538851" lon="29.9872929719"><ele>92.403</ele><time>2026-04-25T15:08:55.000Z</time><hdop>4.812</hdop><vdop>4.812</vdop><extensions><gom:speed>0.0</gom:speed></extensions></trkpt>
   <trkpt lat="59.07538851" lon="29.9872929719"><ele>92.403</ele><time>2026-04-25T15:08:56.000Z</time><hdop>4.812</hdop><vdop>4.812</vdop><extensions><gom:speed>0.0</gom:speed></extensions></trkpt>
   <trkpt lat="59.07538851" lon="29.9872929719"><ele>92.403</ele><time>2026-04-25T15:08:57.000Z</time><hdop>4.812</hdop><vdop>4.812</vdop><extensions><gom:speed>0.0</gom:speed></extensions></trkpt>
   <trkpt lat="59.07538851" lon="29.9872929719"><ele>92.403</ele><time>2026-04-25T15:08:58.000Z</time><hdop>4.812</hdop><vdop>4.812</vdop><extensions><gom:speed>0.0</gom:speed></extensions></trkpt>
   <trkpt lat="59.07538851" lon="29.9872929719"><ele>92.403</ele><time>2026-04-25T15:08:59.000Z</time><hdop>4.812</hdop><vdop>4.812</vdop><extensions><gom:speed>0.0</gom:speed></extensions></trkpt>
   <trkpt lat="59.07538851" lon="29.9872929719"><ele>92.403</ele><time>2026-04-25T15:09:00.000Z</time><hdop>4.812</hdop><vdop>4.812</vdop><extensions><gom:speed>0.0</gom:speed></extensions></trkpt>
   <trkpt lat="59.07538851" lon="29.9872929719"><ele>92.403</ele><time>2026-04-25T15:09:01.000Z</time><hdop>4.812</hdop><vdop>4.812</vdop><extensions><gom:speed>0.0</gom:speed></extensions></trkpt>
   <trkpt lat="59.07538851" lon="29.9872929719"><ele>92.403</ele><time>2026-04-25T15:09:02.000Z</time><hdop>4.812</hdop><vdop>4.812</vdop><extensions><gom:speed>0.0</gom:speed></extensions></trkpt>
   <trkpt lat="59.07538851" lon="29.9872929719"><ele>92.403</ele><time>2026-04-25T15:09:03.000Z</time><hdop>4.812</hdop><vdop>4.812</vdop><extensions><gom:speed>0.0</gom:speed></extensions></trkpt>
   <trkpt lat="59.07538851" lon="29.9872929719"><ele>92.403</ele><time>2026-04-25T15:09:04.000Z</time><hdop>4.812</hdop><vdop>4.812</vdop><extensions><gom:speed>0.0</gom:speed></extensions></trkpt>
   <trkpt lat="59.07538851" lon="29.9872929719"><ele>92.403</ele><time>2026-04-25T15:09:05.000Z</time><hdop>4.812</hdop><vdop>4.812</vdop><extensions><gom:speed>0.0</gom:speed></extensions></trkpt>
   <trkpt lat="59.07538851" lon="29.9872929719"><ele>92.403</ele><time>2026-04-25T15:09:06.000Z</time><hdop>4.812</hdop><vdop>4.812</vdop><extensions><gom:speed>0.0</gom:speed></extensions></trkpt>
   <trkpt lat="59.07538851" lon="29.9872929719"><ele>92.403</ele><time>2026-04-25T15:09:07.000Z</time><hdop>4.812</hdop><vdop>4.812</vdop><extensions><gom:speed>0.0</gom:speed></extensions></trkpt>
   <trkpt lat="59.07538851" lon="29.9872929719"><ele>92.403</ele><time>2026-04-25T15:09:08.000Z</time><hdop>4.812</hdop><vdop>4.812</vdop><extensions><gom:speed>0.0</gom:speed></extensions></trkpt>
   <trkpt lat="59.07538851" lon="29.9872929719"><ele>92.403</ele><time>2026-04-25T15:09:08.000Z</time><hdop>4.812</hdop><vdop>4.812</vdop><extensions><gom:speed>0.0</gom:speed></extensions></trkpt>
   <trkpt lat="59.07538851" lon="29.9872929719"><ele>92.403</ele><time>2026-04-25T15:09:09.000Z</time><hdop>4.812</hdop><vdop>4.812</vdop><extensions><gom:speed>0.0</gom:speed></extensions></trkpt>
   <trkpt lat="59.07538851" lon="29.9872929719"><ele>92.403</ele><time>2026-04-25T15:09:10.000Z</time><hdop>4.812</hdop><vdop>4.812</vdop><extensions><gom:speed>0.0</gom:speed></extensions></trkpt>
   <trkpt lat="59.07538851" lon="29.9872929719"><ele>92.403</ele><time>2026-04-25T15:09:11.000Z</time><hdop>4.812</hdop><vdop>4.812</vdop><extensions><gom:speed>0.0</gom:speed></extensions></trkpt>
   <trkpt lat="59.07538851" lon="29.9872929719"><ele>92.403</ele><time>2026-04-25T15:09:12.000Z</time><hdop>4.812</hdop><vdop>4.812</vdop><extensions><gom:speed>0.0</gom:speed></extensions></trkpt>
   <trkpt lat="59.07538851" lon="29.9872929719"><ele>92.403</ele><time>2026-04-25T15:09:13.000Z</time><hdop>4.812</hdop><vdop>4.812</vdop><extensions><gom:speed>0.0</gom:speed></extensions></trkpt>
   <trkpt lat="59.07538851" lon="29.9872929719"><ele>92.403</ele><time>2026-04-25T15:09:14.000Z</time><hdop>4.812</hdop><vdop>4.812</vdop><extensions><gom:speed>0.0</gom:speed></extensions></trkpt>
   <trkpt lat="59.07538851" lon="29.9872929719"><ele>92.403</ele><time>2026-04-25T15:09:15.000Z</time><hdop>4.812</hdop><vdop>4.812</vdop><extensions><gom:speed>0.0</gom:speed></extensions></trkpt>
   <trkpt lat="59.07538851" lon="29.9872929719"><ele>92.403</ele><time>2026-04-25T15:09:16.000Z</time><hdop>4.812</hdop><vdop>4.812</vdop><extensions><gom:speed>0.0</gom:speed></extensions></trkpt>
   <trkpt lat="59.07538851" lon="29.9872929719"><ele>92.403</ele><time>2026-04-25T15:09:17.000Z</time><hdop>4.812</hdop><vdop>4.812</vdop><extensions><gom:speed>0.0</gom:speed></extensions></trkpt>
   <trkpt lat="59.07538851" lon="29.9872929719"><ele>92.403</ele><time>2026-04-25T15:09:18.000Z</time><hdop>4.812</hdop><vdop>4.812</vdop><extensions><gom:speed>0.0</gom:speed></extensions></trkpt>
   <trkpt lat="59.07538851" lon="29.9872929719"><ele>92.403</ele><time>2026-04-25T15:09:19.000Z</time><hdop>4.812</hdop><vdop>4.812</vdop><extensions><gom:speed>0.0</gom:speed></extensions></trkpt>
   <trkpt lat="59.07538851" lon="29.9872929719"><ele>92.403</ele><time>2026-04-25T15:09:20.000Z</time><hdop>4.812</hdop><vdop>4.812</vdop><extensions><gom:speed>0.0</gom:speed></extensions></trkpt>
   <trkpt lat="59.07538851" lon="29.9872929719"><ele>92.403</ele><time>2026-04-25T15:09:21.000Z</time><hdop>4.812</hdop><vdop>4.812</vdop><extensions><gom:speed>0.0</gom:speed></extensions></trkpt>
   <trkpt lat="59.07538851" lon="29.9872929719"><ele>92.403</ele><time>2026-04-25T15:09:22.000Z</time><hdop>4.812</hdop><vdop>4.812</vdop><extensions><gom:speed>0.0</gom:speed></extensions></trkpt>
   <trkpt lat="59.07538851" lon="29.9872929719"><ele>92.403</ele><time>2026-04-25T15:09:23.000Z</time><hdop>4.812</hdop><vdop>4.812</vdop><extensions><gom:speed>0.0</gom:speed></extensions></trkpt>
   <trkpt lat="59.07538851" lon="29.9872929719"><ele>92.403</ele><time>2026-04-25T15:09:24.000Z</time><hdop>4.812</hdop><vdop>4.812</vdop><extensions><gom:speed>0.0</gom:speed></extensions></trkpt>
   <trkpt lat="59.07538851" lon="29.9872929719"><ele>92.403</ele><time>2026-04-25T15:09:25.000Z</time><hdop>4.812</hdop><vdop>4.812</vdop><extensions><gom:speed>0.0</gom:speed></extensions></trkpt>
   <trkpt lat="59.07538851" lon="29.9872929719"><ele>92.403</ele><time>2026-04-25T15:09:26.000Z</time><hdop>4.812</hdop><vdop>4.812</vdop><extensions><gom:speed>0.0</gom:speed></extensions></trkpt>
   <trkpt lat="59.07538851" lon="29.9872929719"><ele>92.403</ele><time>2026-04-25T15:09:27.000Z</time><hdop>4.812</hdop><vdop>4.812</vdop><extensions><gom:speed>0.0</gom:speed></extensions></trkpt>
   <trkpt lat="59.07538851" lon="29.9872929719"><ele>92.403</ele><time>2026-04-25T15:09:28.000Z</time><hdop>4.812</hdop><vdop>4.812</vdop><extensions><gom:speed>0.0</gom:speed></extensions></trkpt>
   <trkpt lat="59.07538851" lon="29.9872929719"><ele>92.403</ele><time>2026-04-25T15:09:28.000Z</time><hdop>4.812</hdop><vdop>4.812</vdop><extensions><gom:speed>0.0</gom:speed></extensions></trkpt>
   <trkpt lat="59.07538851" lon="29.9872929719"><ele>92.403</ele><time>2026-04-25T15:09:29.000Z</time><hdop>4.812</hdop><vdop>4.812</vdop><extensions><gom:speed>0.0</gom:speed></extensions></trkpt>
   <trkpt lat="59.07538851" lon="29.9872929719"><ele>92.403</ele><time>2026-04-25T15:09:30.000Z</time><hdop>4.812</hdop><vdop>4.812</vdop><extensions><gom:speed>0.0</gom:speed></extensions></trkpt>
   <trkpt lat="59.0753868336" lon="29.9872897029"><ele>92.335</ele><time>2026-04-25T15:09:31.000Z</time><hdop>4.25</hdop><vdop>4.25</vdop><extensions><gom:speed>0.619</gom:speed></extensions></trkpt>
   <trkpt lat="59.0753868336" lon="29.9872897029"><ele>92.295</ele><time>2026-04-25T15:09:32.000Z</time><hdop>4.25</hdop><vdop>4.25</vdop><extensions><gom:speed>0.0</gom:speed></extensions></trkpt>
   <trkpt lat="59.0753868336" lon="29.9872897029"><ele>92.271</ele><time>2026-04-25T15:09:33.000Z</time><hdop>4.25</hdop><vdop>4.25</vdop><extensions><gom:speed>0.0</gom:speed></extensions></trkpt>
   <trkpt lat="59.0753868336" lon="29.9872897029"><ele>92.257</ele><time>2026-04-25T15:09:34.000Z</time><hdop>4.25</hdop><vdop>4.25</vdop><extensions><gom:speed>0.0</gom:speed></extensions></trkpt>
   <trkpt lat="59.0753868336" lon="29.9872897029"><ele>92.248</ele><time>2026-04-25T15:09:35.000Z</time><hdop>4.25</hdop><vdop>4.25</vdop><extensions><gom:speed>0.0</gom:speed></extensions></trkpt>
   <trkpt lat="59.0753868336" lon="29.9872897029"><ele>92.243</ele><time>2026-04-25T15:09:36.000Z</time><hdop>4.25</hdop><vdop>4.25</vdop><extensions><gom:speed>0.0</gom:speed></extensions></trkpt>
   <trkpt lat="59.0753868336" lon="29.9872897029"><ele>92.24</ele><time>2026-04-25T15:09:37.000Z</time><hdop>4.25</hdop><vdop>4.25</vdop><extensions><gom:speed>0.0</gom:speed></extensions></trkpt>
   <trkpt lat="59.0753868336" lon="29.9872897029"><ele>92.238</ele><time>2026-04-25T15:09:38.000Z</time><hdop>4.25</hdop><vdop>4.25</vdop><extensions><gom:speed>0.0</gom:speed></extensions></trkpt>
   <trkpt lat="59.0753868336" lon="29.9872897029"><ele>92.237</ele><time>2026-04-25T15:09:39.000Z</time><hdop>4.25</hdop><vdop>4.25</vdop><extensions><gom:speed>0.0</gom:speed></extensions></trkpt>
   <trkpt lat="59.0753868336" lon="29.9872897029"><ele>92.237</ele><time>2026-04-25T15:09:40.000Z</time><hdop>4.25</hdop><vdop>4.25</vdop><extensions><gom:speed>0.0</gom:speed></extensions></trkpt>
   <trkpt lat="59.0753868336" lon="29.9872897029"><ele>92.236</ele><time>2026-04-25T15:09:41.000Z</time><hdop>4.25</hdop><vdop>4.25</vdop><extensions><gom:speed>0.0</gom:speed></extensions></trkpt>
   <trkpt lat="59.0753868336" lon="29.9872897029"><ele>92.236</ele><time>2026-04-25T15:09:42.000Z</time><hdop>4.25</hdop><vdop>4.25</vdop><extensions><gom:speed>0.0</gom:speed></extensions></trkpt>
   <trkpt lat="59.0753868336" lon="29.9872897029"><ele>92.236</ele><time>2026-04-25T15:09:43.000Z</time><hdop>4.25</hdop><vdop>4.25</vdop><extensions><gom:speed>0.0</gom:speed></extensions></trkpt>
   <trkpt lat="59.0753868336" lon="29.9872897029"><ele>92.236</ele><time>2026-04-25T15:09:44.000Z</time><hdop>4.25</hdop><vdop>4.25</vdop><extensions><gom:speed>0.0</gom:speed></extensions></trkpt>
   <trkpt lat="59.0753868336" lon="29.9872897029"><ele>92.236</ele><time>2026-04-25T15:09:45.000Z</time><hdop>4.25</hdop><vdop>4.25</vdop><extensions><gom:speed>0.0</gom:speed></extensions></trkpt>
   <trkpt lat="59.0753868336" lon="29.9872897029"><ele>92.236</ele><time>2026-04-25T15:09:46.000Z</time><hdop>4.25</hdop><vdop>4.25</vdop><extensions><gom:speed>0.0</gom:speed></extensions></trkpt>
   <trkpt lat="59.0753868336" lon="29.9872897029"><ele>92.236</ele><time>2026-04-25T15:09:47.000Z</time><hdop>4.25</hdop><vdop>4.25</vdop><extensions><gom:speed>0.0</gom:speed></extensions></trkpt>
   <trkpt lat="59.0753868336" lon="29.9872897029"><ele>92.236</ele><time>2026-04-25T15:09:48.000Z</time><hdop>4.25</hdop><vdop>4.25</vdop><extensions><gom:speed>0.0</gom:speed></extensions></trkpt>
   <trkpt lat="59.0753868336" lon="29.9872897029"><ele>92.236</ele><time>2026-04-25T15:09:48.000Z</time><hdop>4.25</hdop><vdop>4.25</vdop><extensions><gom:speed>0.0</gom:speed></extensions></trkpt>
   <trkpt lat="59.0753868336" lon="29.9872897029"><ele>92.236</ele><time>2026-04-25T15:09:49.000Z</time><hdop>4.25</hdop><vdop>4.25</vdop><extensions><gom:speed>0.0</gom:speed></extensions></trkpt>
   <trkpt lat="59.0753868336" lon="29.9872897029"><ele>92.236</ele><time>2026-04-25T15:09:50.000Z</time><hdop>4.25</hdop><vdop>4.25</vdop><extensions><gom:speed>0.0</gom:speed></extensions></trkpt>
   <trkpt lat="59.0753868336" lon="29.9872897029"><ele>92.236</ele><time>2026-04-25T15:09:51.000Z</time><hdop>4.25</hdop><vdop>4.25</vdop><extensions><gom:speed>0.0</gom:speed></extensions></trkpt>
   <trkpt lat="59.0753868336" lon="29.9872897029"><ele>92.236</ele><time>2026-04-25T15:09:52.000Z</time><hdop>4.25</hdop><vdop>4.25</vdop><extensions><gom:speed>0.0</gom:speed></extensions></trkpt>
   <trkpt lat="59.0753868336" lon="29.9872897029"><ele>92.236</ele><time>2026-04-25T15:09:53.000Z</time><hdop>4.25</hdop><vdop>4.25</vdop><extensions><gom:speed>0.0</gom:speed></extensions></trkpt>
   <trkpt lat="59.0753868336" lon="29.9872897029"><ele>92.236</ele><time>2026-04-25T15:09:54.000Z</time><hdop>4.25</hdop><vdop>4.25</vdop><extensions><gom:speed>0.0</gom:speed></extensions></trkpt>
   <trkpt lat="59.0753868336" lon="29.9872897029"><ele>92.236</ele><time>2026-04-25T15:09:55.000Z</time><hdop>4.25</hdop><vdop>4.25</vdop><extensions><gom:speed>0.0</gom:speed></extensions></trkpt>
   <trkpt lat="59.0753868336" lon="29.9872897029"><ele>92.236</ele><time>2026-04-25T15:09:56.000Z</time><hdop>4.25</hdop><vdop>4.25</vdop><extensions><gom:speed>0.0</gom:speed></extensions></trkpt>
   <trkpt lat="59.0753868336" lon="29.9872897029"><ele>92.236</ele><time>2026-04-25T15:09:57.000Z</time><hdop>4.25</hdop><vdop>4.25</vdop><extensions><gom:speed>0.0</gom:speed></extensions></trkpt>
   <trkpt lat="59.0753868336" lon="29.9872897029"><ele>92.236</ele><time>2026-04-25T15:09:58.000Z</time><hdop>4.25</hdop><vdop>4.25</vdop><extensions><gom:speed>0.0</gom:speed></extensions></trkpt>
   <trkpt lat="59.0753868336" lon="29.9872897029"><ele>92.236</ele><time>2026-04-25T15:09:59.000Z</time><hdop>4.25</hdop><vdop>4.25</vdop><extensions><gom:speed>0.0</gom:speed></extensions></trkpt>
   <trkpt lat="59.0753868336" lon="29.9872897029"><ele>92.236</ele><time>2026-04-25T15:10:00.000Z</time><hdop>4.25</hdop><vdop>4.25</vdop><extensions><gom:speed>0.0</gom:speed></extensions></trkpt>
   <trkpt lat="59.0753868336" lon="29.9872897029"><ele>92.236</ele><time>2026-04-25T15:10:01.000Z</time><hdop>4.25</hdop><vdop>4.25</vdop><extensions><gom:speed>0.0</gom:speed></extensions></trkpt>
   <trkpt lat="59.0753868336" lon="29.9872897029"><ele>92.236</ele><time>2026-04-25T15:10:02.000Z</time><hdop>4.25</hdop><vdop>4.25</vdop><extensions><gom:speed>0.0</gom:speed></extensions></trkpt>
   <trkpt lat="59.0753868336" lon="29.9872897029"><ele>92.236</ele><time>2026-04-25T15:10:03.000Z</time><hdop>4.25</hdop><vdop>4.25</vdop><extensions><gom:speed>0.0</gom:speed></extensions></trkpt>
   <trkpt lat="59.0753868336" lon="29.9872897029"><ele>92.236</ele><time>2026-04-25T15:10:04.000Z</time><hdop>4.25</hdop><vdop>4.25</vdop><extensions><gom:speed>0.0</gom:speed></extensions></trkpt>
   <trkpt lat="59.0753868336" lon="29.9872897029"><ele>92.236</ele><time>2026-04-25T15:10:05.000Z</time><hdop>4.25</hdop><vdop>4.25</vdop><extensions><gom:speed>0.0</gom:speed></extensions></trkpt>
   <trkpt lat="59.0753868336" lon="29.9872897029"><ele>92.236</ele><time>2026-04-25T15:10:06.000Z</time><hdop>4.25</hdop><vdop>4.25</vdop><extensions><gom:speed>0.0</gom:speed></extensions></trkpt>
   <trkpt lat="59.0753868336" lon="29.9872897029"><ele>92.236</ele><time>2026-04-25T15:10:07.000Z</time><hdop>4.25</hdop><vdop>4.25</vdop><extensions><gom:speed>0.0</gom:speed></extensions></trkpt>
   <trkpt lat="59.0753868336" lon="29.9872897029"><ele>92.236</ele><time>2026-04-25T15:10:08.000Z</time><hdop>4.25</hdop><vdop>4.25</vdop><extensions><gom:speed>0.0</gom:speed></extensions></trkpt>
   <trkpt lat="59.0753868336" lon="29.9872897029"><ele>92.236</ele><time>2026-04-25T15:10:08.000Z</time><hdop>4.25</hdop><vdop>4.25</vdop><extensions><gom:speed>0.0</gom:speed></extensions></trkpt>
   <trkpt lat="59.0753868336" lon="29.9872897029"><ele>92.236</ele><time>2026-04-25T15:10:09.000Z</time><hdop>4.25</hdop><vdop>4.25</vdop><extensions><gom:speed>0.0</gom:speed></extensions></trkpt>
   <trkpt lat="59.0753868336" lon="29.9872897029"><ele>92.236</ele><time>2026-04-25T15:10:10.000Z</time><hdop>4.25</hdop><vdop>4.25</vdop><extensions><gom:speed>0.0</gom:speed></extensions></trkpt>
   <trkpt lat="59.0753847381" lon="29.9872886971"><ele>92.185</ele><time>2026-04-25T15:10:11.000Z</time><hdop>4.5</hdop><vdop>4.5</vdop><extensions><gom:speed>0.2</gom:speed></extensions></trkpt>
   <trkpt lat="59.0753847381" lon="29.9872886971"><ele>92.154</ele><time>2026-04-25T15:10:12.000Z</time><hdop>4.5</hdop><vdop>4.5</vdop><extensions><gom:speed>0.0</gom:speed></extensions></trkpt>
   <trkpt lat="59.0753847381" lon="29.9872886971"><ele>92.136</ele><time>2026-04-25T15:10:13.000Z</time><hdop>4.5</hdop><vdop>4.5</vdop><extensions><gom:speed>0.0</gom:speed></extensions></trkpt>
   <trkpt lat="59.0753847381" lon="29.9872886971"><ele>92.125</ele><time>2026-04-25T15:10:14.000Z</time><hdop>4.5</hdop><vdop>4.5</vdop><extensions><gom:speed>0.0</gom:speed></extensions></trkpt>
   <trkpt lat="59.0753847381" lon="29.9872886971"><ele>92.119</ele><time>2026-04-25T15:10:15.000Z</time><hdop>4.5</hdop><vdop>4.5</vdop><extensions><gom:speed>0.0</gom:speed></extensions></trkpt>
   <trkpt lat="59.0753847381" lon="29.9872886971"><ele>92.115</ele><time>2026-04-25T15:10:16.000Z</time><hdop>4.5</hdop><vdop>4.5</vdop><extensions><gom:speed>0.0</gom:speed></extensions></trkpt>
   <trkpt lat="59.0753847381" lon="29.9872886971"><ele>92.112</ele><time>2026-04-25T15:10:17.000Z</time><hdop>4.5</hdop><vdop>4.5</vdop><extensions><gom:speed>0.0</gom:speed></extensions></trkpt>
   <trkpt lat="59.0753847381" lon="29.9872886971"><ele>92.111</ele><time>2026-04-25T15:10:18.000Z</time><hdop>4.5</hdop><vdop>4.5</vdop><extensions><gom:speed>0.0</gom:speed></extensions></trkpt>
   <trkpt lat="59.0753847381" lon="29.9872886971"><ele>92.11</ele><time>2026-04-25T15:10:19.000Z</time><hdop>4.5</hdop><vdop>4.5</vdop><extensions><gom:speed>0.0</gom:speed></extensions></trkpt>
   <trkpt lat="59.0753847381" lon="29.9872886971"><ele>92.11</ele><time>2026-04-25T15:10:20.000Z</time><hdop>4.5</hdop><vdop>4.5</vdop><extensions><gom:speed>0.0</gom:speed></extensions></trkpt>
   <trkpt lat="59.0753847381" lon="29.9872886971"><ele>92.109</ele><time>2026-04-25T15:10:21.000Z</time><hdop>4.5</hdop><vdop>4.5</vdop><extensions><gom:speed>0.0</gom:speed></extensions></trkpt>
   <trkpt lat="59.0753847381" lon="29.9872886971"><ele>92.109</ele><time>2026-04-25T15:10:22.000Z</time><hdop>4.5</hdop><vdop>4.5</vdop><extensions><gom:speed>0.0</gom:speed></extensions></trkpt>
   <trkpt lat="59.0753847381" lon="29.9872886971"><ele>92.109</ele><time>2026-04-25T15:10:23.000Z</time><hdop>4.5</hdop><vdop>4.5</vdop><extensions><gom:speed>0.0</gom:speed></extensions></trkpt>
   <trkpt lat="59.0753847381" lon="29.9872886971"><ele>92.109</ele><time>2026-04-25T15:10:24.000Z</time><hdop>4.5</hdop><vdop>4.5</vdop><extensions><gom:speed>0.0</gom:speed></extensions></trkpt>
   <trkpt lat="59.0753847381" lon="29.9872886971"><ele>92.109</ele><time>2026-04-25T15:10:25.000Z</time><hdop>4.5</hdop><vdop>4.5</vdop><extensions><gom:speed>0.0</gom:speed></extensions></trkpt>
   <trkpt lat="59.0753847381" lon="29.9872886971"><ele>92.109</ele><time>2026-04-25T15:10:26.000Z</time><hdop>4.5</hdop><vdop>4.5</vdop><extensions><gom:speed>0.0</gom:speed></extensions></trkpt>
   <trkpt lat="59.0753847381" lon="29.9872886971"><ele>92.109</ele><time>2026-04-25T15:10:27.000Z</time><hdop>4.5</hdop><vdop>4.5</vdop><extensions><gom:speed>0.0</gom:speed></extensions></trkpt>
   <trkpt lat="59.0753847381" lon="29.9872886971"><ele>92.109</ele><time>2026-04-25T15:10:28.000Z</time><hdop>4.5</hdop><vdop>4.5</vdop><extensions><gom:speed>0.0</gom:speed></extensions></trkpt>
   <trkpt lat="59.0753847381" lon="29.9872886971"><ele>92.109</ele><time>2026-04-25T15:10:28.000Z</time><hdop>4.5</hdop><vdop>4.5</vdop><extensions><gom:speed>0.0</gom:speed></extensions></trkpt>
   <trkpt lat="59.0753847381" lon="29.9872886971"><ele>92.109</ele><time>2026-04-25T15:10:29.000Z</time><hdop>4.5</hdop><vdop>4.5</vdop><extensions><gom:speed>0.0</gom:speed></extensions></trkpt>
   <trkpt lat="59.0753847381" lon="29.9872886971"><ele>92.109</ele><time>2026-04-25T15:10:30.000Z</time><hdop>4.5</hdop><vdop>4.5</vdop><extensions><gom:speed>0.0</gom:speed></extensions></trkpt>
   <trkpt lat="59.0753847381" lon="29.9872886971"><ele>92.109</ele><time>2026-04-25T15:10:31.000Z</time><hdop>4.5</hdop><vdop>4.5</vdop><extensions><gom:speed>0.0</gom:speed></extensions></trkpt>
   <trkpt lat="59.0753847381" lon="29.9872886971"><ele>92.109</ele><time>2026-04-25T15:10:32.000Z</time><hdop>4.5</hdop><vdop>4.5</vdop><extensions><gom:speed>0.0</gom:speed></extensions></trkpt>
   <trkpt lat="59.0753847381" lon="29.9872886971"><ele>92.109</ele><time>2026-04-25T15:10:33.000Z</time><hdop>4.5</hdop><vdop>4.5</vdop><extensions><gom:speed>0.0</gom:speed></extensions></trkpt>
   <trkpt lat="59.0753847381" lon="29.9872886971"><ele>92.109</ele><time>2026-04-25T15:10:34.000Z</time><hdop>4.5</hdop><vdop>4.5</vdop><extensions><gom:speed>0.0</gom:speed></extensions></trkpt>
   <trkpt lat="59.0753847381" lon="29.9872886971"><ele>92.109</ele><time>2026-04-25T15:10:35.000Z</time><hdop>4.5</hdop><vdop>4.5</vdop><extensions><gom:speed>0.0</gom:speed></extensions></trkpt>
   <trkpt lat="59.0753847381" lon="29.9872886971"><ele>92.109</ele><time>2026-04-25T15:10:36.000Z</time><hdop>4.5</hdop><vdop>4.5</vdop><extensions><gom:speed>0.0</gom:speed></extensions></trkpt>
   <trkpt lat="59.0753847381" lon="29.9872886971"><ele>92.109</ele><time>2026-04-25T15:10:37.000Z</time><hdop>4.5</hdop><vdop>4.5</vdop><extensions><gom:speed>0.0</gom:speed></extensions></trkpt>
   <trkpt lat="59.0753847381" lon="29.9872886971"><ele>92.109</ele><time>2026-04-25T15:10:38.000Z</time><hdop>4.5</hdop><vdop>4.5</vdop><extensions><gom:speed>0.0</gom:speed></extensions></trkpt>
   <trkpt lat="59.0753847381" lon="29.9872886971"><ele>92.109</ele><time>2026-04-25T15:10:39.000Z</time><hdop>4.5</hdop><vdop>4.5</vdop><extensions><gom:speed>0.0</gom:speed></extensions></trkpt>
   <trkpt lat="59.0753847381" lon="29.9872886971"><ele>92.109</ele><time>2026-04-25T15:10:40.000Z</time><hdop>4.5</hdop><vdop>4.5</vdop><extensions><gom:speed>0.0</gom:speed></extensions></trkpt>
   <trkpt lat="59.0753847381" lon="29.9872886971"><ele>92.109</ele><time>2026-04-25T15:10:41.000Z</time><hdop>4.5</hdop><vdop>4.5</vdop><extensions><gom:speed>0.0</gom:speed></extensions></trkpt>
   <trkpt lat="59.0753847381" lon="29.9872886971"><ele>92.109</ele><time>2026-04-25T15:10:42.000Z</time><hdop>4.5</hdop><vdop>4.5</vdop><extensions><gom:speed>0.0</gom:speed></extensions></trkpt>
   <trkpt lat="59.0753847381" lon="29.9872886971"><ele>92.109</ele><time>2026-04-25T15:10:43.000Z</time><hdop>4.5</hdop><vdop>4.5</vdop><extensions><gom:speed>0.0</gom:speed></extensions></trkpt>
   <trkpt lat="59.0753847381" lon="29.9872886971"><ele>92.109</ele><time>2026-04-25T15:10:44.000Z</time><hdop>4.5</hdop><vdop>4.5</vdop><extensions><gom:speed>0.0</gom:speed></extensions></trkpt>
   <trkpt lat="59.0753847381" lon="29.9872886971"><ele>92.109</ele><time>2026-04-25T15:10:45.000Z</time><hdop>4.5</hdop><vdop>4.5</vdop><extensions><gom:speed>0.0</gom:speed></extensions></trkpt>
   <trkpt lat="59.0753847381" lon="29.9872886971"><ele>92.109</ele><time>2026-04-25T15:10:46.000Z</time><hdop>4.5</hdop><vdop>4.5</vdop><extensions><gom:speed>0.0</gom:speed></extensions></trkpt>
   <trkpt lat="59.0753847381" lon="29.9872886971"><ele>92.109</ele><time>2026-04-25T15:10:47.000Z</time><hdop>4.5</hdop><vdop>4.5</vdop><extensions><gom:speed>0.0</gom:speed></extensions></trkpt>
   <trkpt lat="59.0753847381" lon="29.9872886971"><ele>92.109</ele><time>2026-04-25T15:10:48.000Z</time><hdop>4.5</hdop><vdop>4.5</vdop><extensions><gom:speed>0.0</gom:speed></extensions></trkpt>
   <trkpt lat="59.0753847381" lon="29.9872886971"><ele>92.109</ele><time>2026-04-25T15:10:48.000Z</time><hdop>4.5</hdop><vdop>4.5</vdop><extensions><gom:speed>0.0</gom:speed></extensions></trkpt>
   <trkpt lat="59.0753847381" lon="29.9872886971"><ele>92.109</ele><time>2026-04-25T15:10:49.000Z</time><hdop>4.5</hdop><vdop>4.5</vdop><extensions><gom:speed>0.0</gom:speed></extensions></trkpt>
   <trkpt lat="59.0753847381" lon="29.9872886971"><ele>92.109</ele><time>2026-04-25T15:10:50.000Z</time><hdop>4.5</hdop><vdop>4.5</vdop><extensions><gom:speed>0.0</gom:speed></extensions></trkpt>
   <trkpt lat="59.0753847381" lon="29.9872886971"><ele>92.109</ele><time>2026-04-25T15:10:51.000Z</time><hdop>4.5</hdop><vdop>4.5</vdop><extensions><gom:speed>0.0</gom:speed></extensions></trkpt>
   <trkpt lat="59.0753847381" lon="29.9872886971"><ele>92.109</ele><time>2026-04-25T15:10:52.000Z</time><hdop>4.5</hdop><vdop>4.5</vdop><extensions><gom:speed>0.0</gom:speed></extensions></trkpt>
   <trkpt lat="59.0753847381" lon="29.9872886971"><ele>92.109</ele><time>2026-04-25T15:10:53.000Z</time><hdop>4.5</hdop><vdop>4.5</vdop><extensions><gom:speed>0.0</gom:speed></extensions></trkpt>
   <trkpt lat="59.0753835647" lon="29.9872959055"><ele>92.067</ele><time>2026-04-25T15:10:54.000Z</time><hdop>4.062</hdop><vdop>4.062</vdop><extensions><gom:speed>0.307</gom:speed></extensions></trkpt>
   <trkpt lat="59.0753839418" lon="29.9873061315"><ele>92.026</ele><time>2026-04-25T15:10:55.000Z</time><hdop>3.625</hdop><vdop>3.625</vdop><extensions><gom:speed>0.383</gom:speed></extensions></trkpt>
   <trkpt lat="59.0753855763" lon="29.9873168603"><ele>91.997</ele><time>2026-04-25T15:10:56.000Z</time><hdop>3.375</hdop><vdop>3.375</vdop><extensions><gom:speed>0.497</gom:speed></extensions></trkpt>
   <trkpt lat="59.0753892224" lon="29.9873269186"><ele>91.976</ele><time>2026-04-25T15:10:57.000Z</time><hdop>3.125</hdop><vdop>3.125</vdop><extensions><gom:speed>0.552</gom:speed></extensions></trkpt>
   <trkpt lat="59.0753892224" lon="29.9873269186"><ele>91.963</ele><time>2026-04-25T15:10:58.000Z</time><hdop>3.125</hdop><vdop>3.125</vdop><extensions><gom:speed>0.0</gom:speed></extensions></trkpt>
   <trkpt lat="59.0753917789" lon="29.9873337079"><ele>91.915</ele><time>2026-04-25T15:10:59.000Z</time><hdop>3.0</hdop><vdop>3.0</vdop><extensions><gom:speed>0.383</gom:speed></extensions></trkpt>
   <trkpt lat="59.0753961794" lon="29.9873431795"><ele>91.84</ele><time>2026-04-25T15:11:00.000Z</time><hdop>3.0</hdop><vdop>3.0</vdop><extensions><gom:speed>0.495</gom:speed></extensions></trkpt>
   <trkpt lat="59.0754005799" lon="29.9873533216"><ele>91.776</ele><time>2026-04-25T15:11:01.000Z</time><hdop>3.0</hdop><vdop>3.0</vdop><extensions><gom:speed>0.517</gom:speed></extensions></trkpt>
   <trkpt lat="59.0754005799" lon="29.9873533216"><ele>91.738</ele><time>2026-04-25T15:11:02.000Z</time><hdop>3.0</hdop><vdop>3.0</vdop><extensions><gom:speed>0.0</gom:speed></extensions></trkpt>
   <trkpt lat="59.0754028849" lon="29.9873593565"><ele>91.698</ele><time>2026-04-25T15:11:03.000Z</time><hdop>3.0</hdop><vdop>3.0</vdop><extensions><gom:speed>0.347</gom:speed></extensions></trkpt>
   <trkpt lat="59.0754028849" lon="29.9873593565"><ele>91.674</ele><time>2026-04-25T15:11:04.000Z</time><hdop>3.0</hdop><vdop>3.0</vdop><extensions><gom:speed>0.0</gom:speed></extensions></trkpt>
   <trkpt lat="59.0754030526" lon="29.9873609491"><ele>91.635</ele><time>2026-04-25T15:11:05.000Z</time><hdop>3.0</hdop><vdop>3.0</vdop><extensions><gom:speed>0.122</gom:speed></extensions></trkpt>
   <trkpt lat="59.0754015019" lon="29.9873644695"><ele>91.635</ele><time>2026-04-25T15:11:06.000Z</time><hdop>3.0</hdop><vdop>3.0</vdop><extensions><gom:speed>0.1</gom:speed></extensions></trkpt>
   <trkpt lat="59.0754015019" lon="29.9873644695"><ele>91.636</ele><time>2026-04-25T15:11:07.000Z</time><hdop>3.0</hdop><vdop>3.0</vdop><extensions><gom:speed>0.0</gom:speed></extensions></trkpt>
   <trkpt lat="59.0754015019" lon="29.9873644695"><ele>91.636</ele><time>2026-04-25T15:11:08.000Z</time><hdop>3.0</hdop><vdop>3.0</vdop><extensions><gom:speed>0.0</gom:speed></extensions></trkpt>
   <trkpt lat="59.0754015019" lon="29.9873644695"><ele>91.636</ele><time>2026-04-25T15:11:08.000Z</time><hdop>3.0</hdop><vdop>3.0</vdop><extensions><gom:speed>0.0</gom:speed></extensions></trkpt>
   <trkpt lat="59.0754015019" lon="29.9873644695"><ele>91.636</ele><time>2026-04-25T15:11:09.000Z</time><hdop>3.0</hdop><vdop>3.0</vdop><extensions><gom:speed>0.0</gom:speed></extensions></trkpt>
   <trkpt lat="59.0754015019" lon="29.9873644695"><ele>91.636</ele><time>2026-04-25T15:11:10.000Z</time><hdop>3.0</hdop><vdop>3.0</vdop><extensions><gom:speed>0.0</gom:speed></extensions></trkpt>
   <trkpt lat="59.0754015019" lon="29.9873644695"><ele>91.636</ele><time>2026-04-25T15:11:11.000Z</time><hdop>3.0</hdop><vdop>3.0</vdop><extensions><gom:speed>0.0</gom:speed></extensions></trkpt>
   <trkpt lat="59.0754015019" lon="29.9873644695"><ele>91.636</ele><time>2026-04-25T15:11:12.000Z</time><hdop>3.0</hdop><vdop>3.0</vdop><extensions><gom:speed>0.0</gom:speed></extensions></trkpt>
   <trkpt lat="59.0754045613" lon="29.9873689957"><ele>91.753</ele><time>2026-04-25T15:11:13.000Z</time><hdop>3.0</hdop><vdop>3.0</vdop><extensions><gom:speed>0.363</gom:speed></extensions></trkpt>
   <trkpt lat="59.0754045613" lon="29.9873689957"><ele>91.823</ele><time>2026-04-25T15:11:14.000Z</time><hdop>3.0</hdop><vdop>3.0</vdop><extensions><gom:speed>0.0</gom:speed></extensions></trkpt>
   <trkpt lat="59.0754081236" lon="29.9873749469"><ele>91.858</ele><time>2026-04-25T15:11:15.000Z</time><hdop>3.0</hdop><vdop>3.0</vdop><extensions><gom:speed>0.458</gom:speed></extensions></trkpt>
   <trkpt lat="59.0754134461" lon="29.9873834126"><ele>91.943</ele><time>2026-04-25T15:11:16.000Z</time><hdop>3.0</hdop><vdop>3.0</vdop><extensions><gom:speed>0.519</gom:speed></extensions></trkpt>
   <trkpt lat="59.0754163798" lon="29.9873900343"><ele>91.991</ele><time>2026-04-25T15:11:17.000Z</time><hdop>3.0</hdop><vdop>3.0</vdop><extensions><gom:speed>0.274</gom:speed></extensions></trkpt>
   <trkpt lat="59.0754208222" lon="29.9873950635"><ele>92.021</ele><time>2026-04-25T15:11:18.000Z</time><hdop>3.0</hdop><vdop>3.0</vdop><extensions><gom:speed>0.402</gom:speed></extensions></trkpt>
   <trkpt lat="59.0754245941" lon="29.987399925"><ele>92.054</ele><time>2026-04-25T15:11:19.000Z</time><hdop>3.0</hdop><vdop>3.0</vdop><extensions><gom:speed>0.354</gom:speed></extensions></trkpt>
   <trkpt lat="59.0754265219" lon="29.9874055408"><ele>92.077</ele><time>2026-04-25T15:11:20.000Z</time><hdop>3.0</hdop><vdop>3.0</vdop><extensions><gom:speed>0.356</gom:speed></extensions></trkpt>
   <trkpt lat="59.0754265219" lon="29.9874055408"><ele>92.09</ele><time>2026-04-25T15:11:21.000Z</time><hdop>3.0</hdop><vdop>3.0</vdop><extensions><gom:speed>0.0</gom:speed></extensions></trkpt>
   <trkpt lat="59.0754265219" lon="29.9874055408"><ele>92.098</ele><time>2026-04-25T15:11:22.000Z</time><hdop>3.0</hdop><vdop>3.0</vdop><extensions><gom:speed>0.0</gom:speed></extensions></trkpt>
   <trkpt lat="59.0754265219" lon="29.9874055408"><ele>92.103</ele><time>2026-04-25T15:11:23.000Z</time><hdop>3.0</hdop><vdop>3.0</vdop><extensions><gom:speed>0.0</gom:speed></extensions></trkpt>
   <trkpt lat="59.0754265219" lon="29.9874055408"><ele>92.106</ele><time>2026-04-25T15:11:24.000Z</time><hdop>3.0</hdop><vdop>3.0</vdop><extensions><gom:speed>0.0</gom:speed></extensions></trkpt>
   <trkpt lat="59.0754265219" lon="29.9874055408"><ele>92.108</ele><time>2026-04-25T15:11:25.000Z</time><hdop>3.0</hdop><vdop>3.0</vdop><extensions><gom:speed>0.0</gom:speed></extensions></trkpt>
   <trkpt lat="59.0754265219" lon="29.9874055408"><ele>92.109</ele><time>2026-04-25T15:11:26.000Z</time><hdop>3.0</hdop><vdop>3.0</vdop><extensions><gom:speed>0.0</gom:speed></extensions></trkpt>
   <trkpt lat="59.0754265219" lon="29.9874055408"><ele>92.11</ele><time>2026-04-25T15:11:27.000Z</time><hdop>3.0</hdop><vdop>3.0</vdop><extensions><gom:speed>0.0</gom:speed></extensions></trkpt>
   <trkpt lat="59.0754265219" lon="29.9874055408"><ele>92.11</ele><time>2026-04-25T15:11:28.000Z</time><hdop>3.0</hdop><vdop>3.0</vdop><extensions><gom:speed>0.0</gom:speed></extensions></trkpt>
   <trkpt lat="59.0754265219" lon="29.9874055408"><ele>92.11</ele><time>2026-04-25T15:11:28.000Z</time><hdop>3.0</hdop><vdop>3.0</vdop><extensions><gom:speed>0.0</gom:speed></extensions></trkpt>
   <trkpt lat="59.0754265219" lon="29.9874055408"><ele>92.11</ele><time>2026-04-25T15:11:29.000Z</time><hdop>3.0</hdop><vdop>3.0</vdop><extensions><gom:speed>0.0</gom:speed></extensions></trkpt>
   <trkpt lat="59.0754265219" lon="29.9874055408"><ele>92.11</ele><time>2026-04-25T15:11:30.000Z</time><hdop>3.0</hdop><vdop>3.0</vdop><extensions><gom:speed>0.0</gom:speed></extensions></trkpt>
   <trkpt lat="59.0754265219" lon="29.9874055408"><ele>92.11</ele><time>2026-04-25T15:11:31.000Z</time><hdop>3.0</hdop><vdop>3.0</vdop><extensions><gom:speed>0.0</gom:speed></extensions></trkpt>
   <trkpt lat="59.0754265219" lon="29.9874055408"><ele>92.11</ele><time>2026-04-25T15:11:32.000Z</time><hdop>3.0</hdop><vdop>3.0</vdop><extensions><gom:speed>0.0</gom:speed></extensions></trkpt>
   <trkpt lat="59.0754265219" lon="29.9874055408"><ele>92.11</ele><time>2026-04-25T15:11:33.000Z</time><hdop>3.0</hdop><vdop>3.0</vdop><extensions><gom:speed>0.0</gom:speed></extensions></trkpt>
   <trkpt lat="59.0754265219" lon="29.9874055408"><ele>92.11</ele><time>2026-04-25T15:11:34.000Z</time><hdop>3.0</hdop><vdop>3.0</vdop><extensions><gom:speed>0.0</gom:speed></extensions></trkpt>
   <trkpt lat="59.0754265219" lon="29.9874055408"><ele>92.11</ele><time>2026-04-25T15:11:35.000Z</time><hdop>3.0</hdop><vdop>3.0</vdop><extensions><gom:speed>0.0</gom:speed></extensions></trkpt>
   <trkpt lat="59.0754265219" lon="29.9874055408"><ele>92.11</ele><time>2026-04-25T15:11:35.000Z</time><hdop>3.0</hdop><vdop>3.0</vdop><extensions><gom:speed>0.0</gom:speed></extensions></trkpt>
   <trkpt lat="59.0754265219" lon="29.9874055408"><ele>92.11</ele><time>2026-04-25T15:11:36.000Z</time><hdop>3.0</hdop><vdop>3.0</vdop><extensions><gom:speed>0.0</gom:speed></extensions></trkpt>
   <trkpt lat="59.0754265219" lon="29.9874055408"><ele>92.11</ele><time>2026-04-25T15:11:36.000Z</time><hdop>3.0</hdop><vdop>3.0</vdop><extensions><gom:speed>0.0</gom:speed></extensions></trkpt>
   <trkpt lat="59.0754265219" lon="29.9874055408"><ele>92.11</ele><time>2026-04-25T15:11:37.000Z</time><hdop>3.0</hdop><vdop>3.0</vdop><extensions><gom:speed>0.0</gom:speed></extensions></trkpt>
   <trkpt lat="59.0754265219" lon="29.9874055408"><ele>92.11</ele><time>2026-04-25T15:11:38.000Z</time><hdop>3.0</hdop><vdop>3.0</vdop><extensions><gom:speed>0.0</gom:speed></extensions></trkpt>
   <trkpt lat="59.0754265219" lon="29.9874055408"><ele>92.11</ele><time>2026-04-25T15:11:39.000Z</time><hdop>3.0</hdop><vdop>3.0</vdop><extensions><gom:speed>0.0</gom:speed></extensions></trkpt>
   <trkpt lat="59.0754265219" lon="29.9874055408"><ele>92.11</ele><time>2026-04-25T15:11:40.000Z</time><hdop>3.0</hdop><vdop>3.0</vdop><extensions><gom:speed>0.0</gom:speed></extensions></trkpt>
   <trkpt lat="59.0754265219" lon="29.9874055408"><ele>92.11</ele><time>2026-04-25T15:11:41.000Z</time><hdop>3.0</hdop><vdop>3.0</vdop><extensions><gom:speed>0.0</gom:speed></extensions></trkpt>
   <trkpt lat="59.0754265219" lon="29.9874055408"><ele>92.11</ele><time>2026-04-25T15:11:42.000Z</time><hdop>3.0</hdop><vdop>3.0</vdop><extensions><gom:speed>0.0</gom:speed></extensions></trkpt>
   <trkpt lat="59.0754265219" lon="29.9874055408"><ele>92.11</ele><time>2026-04-25T15:11:43.000Z</time><hdop>3.0</hdop><vdop>3.0</vdop><extensions><gom:speed>0.0</gom:speed></extensions></trkpt>
   <trkpt lat="59.0754265219" lon="29.9874055408"><ele>92.11</ele><time>2026-04-25T15:11:44.000Z</time><hdop>3.0</hdop><vdop>3.0</vdop><extensions><gom:speed>0.0</gom:speed></extensions></trkpt>
   <trkpt lat="59.0754265219" lon="29.9874055408"><ele>92.11</ele><time>2026-04-25T15:11:45.000Z</time><hdop>3.0</hdop><vdop>3.0</vdop><extensions><gom:speed>0.0</gom:speed></extensions></trkpt>
   <trkpt lat="59.0754265219" lon="29.9874055408"><ele>92.11</ele><time>2026-04-25T15:11:46.000Z</time><hdop>3.0</hdop><vdop>3.0</vdop><extensions><gom:speed>0.0</gom:speed></extensions></trkpt>
   <trkpt lat="59.0754265219" lon="29.9874055408"><ele>92.11</ele><time>2026-04-25T15:11:47.000Z</time><hdop>3.0</hdop><vdop>3.0</vdop><extensions><gom:speed>0.0</gom:speed></extensions></trkpt>
   <trkpt lat="59.0754265219" lon="29.9874055408"><ele>92.11</ele><time>2026-04-25T15:11:48.000Z</time><hdop>3.0</hdop><vdop>3.0</vdop><extensions><gom:speed>0.0</gom:speed></extensions></trkpt>
   <trkpt lat="59.0754265219" lon="29.9874055408"><ele>92.11</ele><time>2026-04-25T15:11:48.000Z</time><hdop>3.0</hdop><vdop>3.0</vdop><extensions><gom:speed>0.0</gom:speed></extensions></trkpt>
   <trkpt lat="59.0754265219" lon="29.9874055408"><ele>92.11</ele><time>2026-04-25T15:11:49.000Z</time><hdop>3.0</hdop><vdop>3.0</vdop><extensions><gom:speed>0.0</gom:speed></extensions></trkpt>
   <trkpt lat="59.0754265219" lon="29.9874055408"><ele>92.11</ele><time>2026-04-25T15:11:50.000Z</time><hdop>3.0</hdop><vdop>3.0</vdop><extensions><gom:speed>0.0</gom:speed></extensions></trkpt>
   <trkpt lat="59.0754265219" lon="29.9874055408"><ele>92.11</ele><time>2026-04-25T15:11:51.000Z</time><hdop>3.0</hdop><vdop>3.0</vdop><extensions><gom:speed>0.0</gom:speed></extensions></trkpt>
   <trkpt lat="59.0754265219" lon="29.9874055408"><ele>92.11</ele><time>2026-04-25T15:11:52.000Z</time><hdop>3.0</hdop><vdop>3.0</vdop><extensions><gom:speed>0.0</gom:speed></extensions></trkpt>
   <trkpt lat="59.0754265219" lon="29.9874055408"><ele>92.11</ele><time>2026-04-25T15:11:53.000Z</time><hdop>3.0</hdop><vdop>3.0</vdop><extensions><gom:speed>0.0</gom:speed></extensions></trkpt>
   <trkpt lat="59.0754265219" lon="29.9874055408"><ele>92.11</ele><time>2026-04-25T15:11:54.000Z</time><hdop>3.0</hdop><vdop>3.0</vdop><extensions><gom:speed>0.0</gom:speed></extensions></trkpt>
   <trkpt lat="59.0754265219" lon="29.9874055408"><ele>92.11</ele><time>2026-04-25T15:11:55.000Z</time><hdop>3.0</hdop><vdop>3.0</vdop><extensions><gom:speed>0.0</gom:speed></extensions></trkpt>
   <trkpt lat="59.0754265219" lon="29.9874055408"><ele>92.11</ele><time>2026-04-25T15:11:56.000Z</time><hdop>3.0</hdop><vdop>3.0</vdop><extensions><gom:speed>0.0</gom:speed></extensions></trkpt>
   <trkpt lat="59.0754265219" lon="29.9874055408"><ele>92.11</ele><time>2026-04-25T15:11:57.000Z</time><hdop>3.0</hdop><vdop>3.0</vdop><extensions><gom:speed>0.0</gom:speed></extensions></trkpt>
   <trkpt lat="59.0754265219" lon="29.9874055408"><ele>92.11</ele><time>2026-04-25T15:11:58.000Z</time><hdop>3.0</hdop><vdop>3.0</vdop><extensions><gom:speed>0.0</gom:speed></extensions></trkpt>
   <trkpt lat="59.0754265219" lon="29.9874055408"><ele>92.11</ele><time>2026-04-25T15:11:59.000Z</time><hdop>3.0</hdop><vdop>3.0</vdop><extensions><gom:speed>0.0</gom:speed></extensions></trkpt>
   <trkpt lat="59.0754265219" lon="29.9874055408"><ele>92.11</ele><time>2026-04-25T15:12:00.000Z</time><hdop>3.0</hdop><vdop>3.0</vdop><extensions><gom:speed>0.0</gom:speed></extensions></trkpt>
   <trkpt lat="59.0754265219" lon="29.9874055408"><ele>92.11</ele><time>2026-04-25T15:12:01.000Z</time><hdop>3.0</hdop><vdop>3.0</vdop><extensions><gom:speed>0.0</gom:speed></extensions></trkpt>
   <trkpt lat="59.0754265219" lon="29.9874055408"><ele>92.11</ele><time>2026-04-25T15:12:02.000Z</time><hdop>3.0</hdop><vdop>3.0</vdop><extensions><gom:speed>0.0</gom:speed></extensions></trkpt>
   <trkpt lat="59.0754265219" lon="29.9874055408"><ele>92.11</ele><time>2026-04-25T15:12:03.000Z</time><hdop>3.0</hdop><vdop>3.0</vdop><extensions><gom:speed>0.0</gom:speed></extensions></trkpt>
   <trkpt lat="59.0754265219" lon="29.9874055408"><ele>92.11</ele><time>2026-04-25T15:12:04.000Z</time><hdop>3.0</hdop><vdop>3.0</vdop><extensions><gom:speed>0.0</gom:speed></extensions></trkpt>
   <trkpt lat="59.0754265219" lon="29.9874055408"><ele>92.11</ele><time>2026-04-25T15:12:05.000Z</time><hdop>3.0</hdop><vdop>3.0</vdop><extensions><gom:speed>0.0</gom:speed></extensions></trkpt>
   <trkpt lat="59.0754265219" lon="29.9874055408"><ele>92.11</ele><time>2026-04-25T15:12:06.000Z</time><hdop>3.0</hdop><vdop>3.0</vdop><extensions><gom:speed>0.0</gom:speed></extensions></trkpt>
   <trkpt lat="59.0754265219" lon="29.9874055408"><ele>92.11</ele><time>2026-04-25T15:12:07.000Z</time><hdop>3.0</hdop><vdop>3.0</vdop><extensions><gom:speed>0.0</gom:speed></extensions></trkpt>
   <trkpt lat="59.0754265219" lon="29.9874055408"><ele>92.11</ele><time>2026-04-25T15:12:08.000Z</time><hdop>3.0</hdop><vdop>3.0</vdop><extensions><gom:speed>0.0</gom:speed></extensions></trkpt>
   <trkpt lat="59.0754265219" lon="29.9874055408"><ele>92.11</ele><time>2026-04-25T15:12:08.000Z</time><hdop>3.0</hdop><vdop>3.0</vdop><extensions><gom:speed>0.0</gom:speed></extensions></trkpt>
   <trkpt lat="59.0754265219" lon="29.9874055408"><ele>92.11</ele><time>2026-04-25T15:12:09.000Z</time><hdop>3.0</hdop><vdop>3.0</vdop><extensions><gom:speed>0.0</gom:speed></extensions></trkpt>
   <trkpt lat="59.0754265219" lon="29.9874055408"><ele>92.11</ele><time>2026-04-25T15:12:10.000Z</time><hdop>3.0</hdop><vdop>3.0</vdop><extensions><gom:speed>0.0</gom:speed></extensions></trkpt>
   <trkpt lat="59.0754265219" lon="29.9874055408"><ele>92.11</ele><time>2026-04-25T15:12:11.000Z</time><hdop>3.0</hdop><vdop>3.0</vdop><extensions><gom:speed>0.0</gom:speed></extensions></trkpt>
   <trkpt lat="59.0754265219" lon="29.9874055408"><ele>92.11</ele><time>2026-04-25T15:12:12.000Z</time><hdop>3.0</hdop><vdop>3.0</vdop><extensions><gom:speed>0.0</gom:speed></extensions></trkpt>
   <trkpt lat="59.0754265219" lon="29.9874055408"><ele>92.11</ele><time>2026-04-25T15:12:13.000Z</time><hdop>3.0</hdop><vdop>3.0</vdop><extensions><gom:speed>0.0</gom:speed></extensions></trkpt>
   <trkpt lat="59.0754265219" lon="29.9874055408"><ele>92.11</ele><time>2026-04-25T15:12:14.000Z</time><hdop>3.0</hdop><vdop>3.0</vdop><extensions><gom:speed>0.0</gom:speed></extensions></trkpt>
   <trkpt lat="59.0754265219" lon="29.9874055408"><ele>92.11</ele><time>2026-04-25T15:12:15.000Z</time><hdop>3.0</hdop><vdop>3.0</vdop><extensions><gom:speed>0.0</gom:speed></extensions></trkpt>
   <trkpt lat="59.0754265219" lon="29.9874055408"><ele>92.11</ele><time>2026-04-25T15:12:16.000Z</time><hdop>3.0</hdop><vdop>3.0</vdop><extensions><gom:speed>0.0</gom:speed></extensions></trkpt>
   <trkpt lat="59.0754265219" lon="29.9874055408"><ele>92.11</ele><time>2026-04-25T15:12:17.000Z</time><hdop>3.0</hdop><vdop>3.0</vdop><extensions><gom:speed>0.0</gom:speed></extensions></trkpt>
   <trkpt lat="59.0754265219" lon="29.9874055408"><ele>92.11</ele><time>2026-04-25T15:12:18.000Z</time><hdop>3.0</hdop><vdop>3.0</vdop><extensions><gom:speed>0.0</gom:speed></extensions></trkpt>
   <trkpt lat="59.0754265219" lon="29.9874055408"><ele>92.11</ele><time>2026-04-25T15:12:19.000Z</time><hdop>3.0</hdop><vdop>3.0</vdop><extensions><gom:speed>0.0</gom:speed></extensions></trkpt>
   <trkpt lat="59.0754265219" lon="29.9874055408"><ele>92.11</ele><time>2026-04-25T15:12:20.000Z</time><hdop>3.0</hdop><vdop>3.0</vdop><extensions><gom:speed>0.0</gom:speed></extensions></trkpt>
   <trkpt lat="59.0754265219" lon="29.9874055408"><ele>92.11</ele><time>2026-04-25T15:12:21.000Z</time><hdop>3.0</hdop><vdop>3.0</vdop><extensions><gom:speed>0.0</gom:speed></extensions></trkpt>
   <trkpt lat="59.0754265219" lon="29.9874055408"><ele>92.11</ele><time>2026-04-25T15:12:22.000Z</time><hdop>3.0</hdop><vdop>3.0</vdop><extensions><gom:speed>0.0</gom:speed></extensions></trkpt>
   <trkpt lat="59.0754265219" lon="29.9874055408"><ele>92.11</ele><time>2026-04-25T15:12:23.000Z</time><hdop>3.0</hdop><vdop>3.0</vdop><extensions><gom:speed>0.0</gom:speed></extensions></trkpt>
   <trkpt lat="59.0754265219" lon="29.9874055408"><ele>92.11</ele><time>2026-04-25T15:12:24.000Z</time><hdop>3.0</hdop><vdop>3.0</vdop><extensions><gom:speed>0.0</gom:speed></extensions></trkpt>
   <trkpt lat="59.0754265219" lon="29.9874055408"><ele>92.11</ele><time>2026-04-25T15:12:25.000Z</time><hdop>3.0</hdop><vdop>3.0</vdop><extensions><gom:speed>0.0</gom:speed></extensions></trkpt>
   <trkpt lat="59.0754265219" lon="29.9874055408"><ele>92.11</ele><time>2026-04-25T15:12:26.000Z</time><hdop>3.0</hdop><vdop>3.0</vdop><extensions><gom:speed>0.0</gom:speed></extensions></trkpt>
   <trkpt lat="59.0754265219" lon="29.9874055408"><ele>92.11</ele><time>2026-04-25T15:12:27.000Z</time><hdop>3.0</hdop><vdop>3.0</vdop><extensions><gom:speed>0.0</gom:speed></extensions></trkpt>
   <trkpt lat="59.0754265219" lon="29.9874055408"><ele>92.11</ele><time>2026-04-25T15:12:28.000Z</time><hdop>3.0</hdop><vdop>3.0</vdop><extensions><gom:speed>0.0</gom:speed></extensions></trkpt>
   <trkpt lat="59.0754265219" lon="29.9874055408"><ele>92.11</ele><time>2026-04-25T15:12:28.000Z</time><hdop>3.0</hdop><vdop>3.0</vdop><extensions><gom:speed>0.0</gom:speed></extensions></trkpt>
   <trkpt lat="59.0754265219" lon="29.9874055408"><ele>92.11</ele><time>2026-04-25T15:12:29.000Z</time><hdop>3.0</hdop><vdop>3.0</vdop><extensions><gom:speed>0.0</gom:speed></extensions></trkpt>
   <trkpt lat="59.0754265219" lon="29.9874055408"><ele>92.11</ele><time>2026-04-25T15:12:30.000Z</time><hdop>3.0</hdop><vdop>3.0</vdop><extensions><gom:speed>0.0</gom:speed></extensions></trkpt>
   <trkpt lat="59.0754265219" lon="29.9874055408"><ele>92.11</ele><time>2026-04-25T15:12:31.000Z</time><hdop>3.0</hdop><vdop>3.0</vdop><extensions><gom:speed>0.0</gom:speed></extensions></trkpt>
   <trkpt lat="59.0754265219" lon="29.9874055408"><ele>92.11</ele><time>2026-04-25T15:12:32.000Z</time><hdop>3.0</hdop><vdop>3.0</vdop><extensions><gom:speed>0.0</gom:speed></extensions></trkpt>
   <trkpt lat="59.0754265219" lon="29.9874055408"><ele>92.11</ele><time>2026-04-25T15:12:33.000Z</time><hdop>3.0</hdop><vdop>3.0</vdop><extensions><gom:speed>0.0</gom:speed></extensions></trkpt>
   <trkpt lat="59.0754265219" lon="29.9874055408"><ele>92.11</ele><time>2026-04-25T15:12:34.000Z</time><hdop>3.0</hdop><vdop>3.0</vdop><extensions><gom:speed>0.0</gom:speed></extensions></trkpt>
   <trkpt lat="59.0754265219" lon="29.9874055408"><ele>92.11</ele><time>2026-04-25T15:12:35.000Z</time><hdop>3.0</hdop><vdop>3.0</vdop><extensions><gom:speed>0.0</gom:speed></extensions></trkpt>
   <trkpt lat="59.0754265219" lon="29.9874055408"><ele>92.11</ele><time>2026-04-25T15:12:36.000Z</time><hdop>3.0</hdop><vdop>3.0</vdop><extensions><gom:speed>0.0</gom:speed></extensions></trkpt>
   <trkpt lat="59.0754265219" lon="29.9874055408"><ele>92.11</ele><time>2026-04-25T15:12:37.000Z</time><hdop>3.0</hdop><vdop>3.0</vdop><extensions><gom:speed>0.0</gom:speed></extensions></trkpt>
   <trkpt lat="59.0754265219" lon="29.9874055408"><ele>92.11</ele><time>2026-04-25T15:12:38.000Z</time><hdop>3.0</hdop><vdop>3.0</vdop><extensions><gom:speed>0.0</gom:speed></extensions></trkpt>
   <trkpt lat="59.0754265219" lon="29.9874055408"><ele>92.11</ele><time>2026-04-25T15:12:39.000Z</time><hdop>3.0</hdop><vdop>3.0</vdop><extensions><gom:speed>0.0</gom:speed></extensions></trkpt>
   <trkpt lat="59.0754265219" lon="29.9874055408"><ele>92.11</ele><time>2026-04-25T15:12:40.000Z</time><hdop>3.0</hdop><vdop>3.0</vdop><extensions><gom:speed>0.0</gom:speed></extensions></trkpt>
   <trkpt lat="59.0754265219" lon="29.9874055408"><ele>92.11</ele><time>2026-04-25T15:12:41.000Z</time><hdop>3.0</hdop><vdop>3.0</vdop><extensions><gom:speed>0.0</gom:speed></extensions></trkpt>
   <trkpt lat="59.0754265219" lon="29.9874055408"><ele>92.11</ele><time>2026-04-25T15:12:42.000Z</time><hdop>3.0</hdop><vdop>3.0</vdop><extensions><gom:speed>0.0</gom:speed></extensions></trkpt>
   <trkpt lat="59.0754265219" lon="29.9874055408"><ele>92.11</ele><time>2026-04-25T15:12:43.000Z</time><hdop>3.0</hdop><vdop>3.0</vdop><extensions><gom:speed>0.0</gom:speed></extensions></trkpt>
   <trkpt lat="59.0754265219" lon="29.9874055408"><ele>92.11</ele><time>2026-04-25T15:12:44.000Z</time><hdop>3.0</hdop><vdop>3.0</vdop><extensions><gom:speed>0.0</gom:speed></extensions></trkpt>
   <trkpt lat="59.0754265219" lon="29.9874055408"><ele>92.11</ele><time>2026-04-25T15:12:45.000Z</time><hdop>3.0</hdop><vdop>3.0</vdop><extensions><gom:speed>0.0</gom:speed></extensions></trkpt>
   <trkpt lat="59.0754265219" lon="29.9874055408"><ele>92.11</ele><time>2026-04-25T15:12:46.000Z</time><hdop>3.0</hdop><vdop>3.0</vdop><extensions><gom:speed>0.0</gom:speed></extensions></trkpt>
   <trkpt lat="59.0754265219" lon="29.9874055408"><ele>92.11</ele><time>2026-04-25T15:12:47.000Z</time><hdop>3.0</hdop><vdop>3.0</vdop><extensions><gom:speed>0.0</gom:speed></extensions></trkpt>
   <trkpt lat="59.0754265219" lon="29.9874055408"><ele>92.11</ele><time>2026-04-25T15:12:48.000Z</time><hdop>3.0</hdop><vdop>3.0</vdop><extensions><gom:speed>0.0</gom:speed></extensions></trkpt>
   <trkpt lat="59.0754265219" lon="29.9874055408"><ele>92.11</ele><time>2026-04-25T15:12:48.000Z</time><hdop>3.0</hdop><vdop>3.0</vdop><extensions><gom:speed>0.0</gom:speed></extensions></trkpt>
   <trkpt lat="59.0754265219" lon="29.9874055408"><ele>92.11</ele><time>2026-04-25T15:12:49.000Z</time><hdop>3.0</hdop><vdop>3.0</vdop><extensions><gom:speed>0.0</gom:speed></extensions></trkpt>
   <trkpt lat="59.0754265219" lon="29.9874055408"><ele>92.11</ele><time>2026-04-25T15:12:50.000Z</time><hdop>3.0</hdop><vdop>3.0</vdop><extensions><gom:speed>0.0</gom:speed></extensions></trkpt>
   <trkpt lat="59.0754265219" lon="29.9874055408"><ele>92.11</ele><time>2026-04-25T15:12:51.000Z</time><hdop>3.0</hdop><vdop>3.0</vdop><extensions><gom:speed>0.0</gom:speed></extensions></trkpt>
   <trkpt lat="59.0754265219" lon="29.9874055408"><ele>92.11</ele><time>2026-04-25T15:12:52.000Z</time><hdop>3.0</hdop><vdop>3.0</vdop><extensions><gom:speed>0.0</gom:speed></extensions></trkpt>
   <trkpt lat="59.0754265219" lon="29.9874055408"><ele>92.11</ele><time>2026-04-25T15:12:53.000Z</time><hdop>3.0</hdop><vdop>3.0</vdop><extensions><gom:speed>0.0</gom:speed></extensions></trkpt>
   <trkpt lat="59.0754265219" lon="29.9874055408"><ele>92.11</ele><time>2026-04-25T15:12:54.000Z</time><hdop>3.0</hdop><vdop>3.0</vdop><extensions><gom:speed>0.0</gom:speed></extensions></trkpt>
   <trkpt lat="59.0754265219" lon="29.9874055408"><ele>92.11</ele><time>2026-04-25T15:12:55.000Z</time><hdop>3.0</hdop><vdop>3.0</vdop><extensions><gom:speed>0.0</gom:speed></extensions></trkpt>
   <trkpt lat="59.0754265219" lon="29.9874055408"><ele>92.11</ele><time>2026-04-25T15:12:56.000Z</time><hdop>3.0</hdop><vdop>3.0</vdop><extensions><gom:speed>0.0</gom:speed></extensions></trkpt>
   <trkpt lat="59.0754265219" lon="29.9874055408"><ele>92.11</ele><time>2026-04-25T15:12:57.000Z</time><hdop>3.0</hdop><vdop>3.0</vdop><extensions><gom:speed>0.0</gom:speed></extensions></trkpt>
   <trkpt lat="59.0754265219" lon="29.9874055408"><ele>92.11</ele><time>2026-04-25T15:12:58.000Z</time><hdop>3.0</hdop><vdop>3.0</vdop><extensions><gom:speed>0.0</gom:speed></extensions></trkpt>
   <trkpt lat="59.0754265219" lon="29.9874055408"><ele>92.11</ele><time>2026-04-25T15:12:59.000Z</time><hdop>3.0</hdop><vdop>3.0</vdop><extensions><gom:speed>0.0</gom:speed></extensions></trkpt>
   <trkpt lat="59.0754265219" lon="29.9874055408"><ele>92.11</ele><time>2026-04-25T15:13:00.000Z</time><hdop>3.0</hdop><vdop>3.0</vdop><extensions><gom:speed>0.0</gom:speed></extensions></trkpt>
   <trkpt lat="59.0754265219" lon="29.9874055408"><ele>92.11</ele><time>2026-04-25T15:13:01.000Z</time><hdop>3.0</hdop><vdop>3.0</vdop><extensions><gom:speed>0.0</gom:speed></extensions></trkpt>
   <trkpt lat="59.0754265219" lon="29.9874055408"><ele>92.11</ele><time>2026-04-25T15:13:01.000Z</time><hdop>3.0</hdop><vdop>3.0</vdop><extensions><gom:speed>0.0</gom:speed></extensions></trkpt>
   <trkpt lat="59.075426941" lon="29.9874103185"><ele>92.132</ele><time>2026-04-25T15:13:02.000Z</time><hdop>3.0</hdop><vdop>3.0</vdop><extensions><gom:speed>0.246</gom:speed></extensions></trkpt>
   <trkpt lat="59.075432515" lon="29.9874205444"><ele>92.267</ele><time>2026-04-25T15:13:03.000Z</time><hdop>3.0</hdop><vdop>3.0</vdop><extensions><gom:speed>0.499</gom:speed></extensions></trkpt>
   <trkpt lat="59.075432515" lon="29.9874205444"><ele>92.348</ele><time>2026-04-25T15:13:03.000Z</time><hdop>3.0</hdop><vdop>3.0</vdop><extensions><gom:speed>0.499</gom:speed></extensions></trkpt>
   <trkpt lat="59.0754369155" lon="29.9874344584"><ele>92.469</ele><time>2026-04-25T15:13:04.000Z</time><hdop>3.0</hdop><vdop>3.0</vdop><extensions><gom:speed>0.694</gom:speed></extensions></trkpt>
   <trkpt lat="59.0754419446" lon="29.9874578439"><ele>92.601</ele><time>2026-04-25T15:13:05.000Z</time><hdop>3.0</hdop><vdop>3.0</vdop><extensions><gom:speed>0.855</gom:speed></extensions></trkpt>
   <trkpt lat="59.0754481891" lon="29.9874788825"><ele>92.747</ele><time>2026-04-25T15:13:06.000Z</time><hdop>3.0</hdop><vdop>3.0</vdop><extensions><gom:speed>1.042</gom:speed></extensions></trkpt>
   <trkpt lat="59.0754481891" lon="29.9874788825"><ele>92.835</ele><time>2026-04-25T15:13:06.000Z</time><hdop>3.0</hdop><vdop>3.0</vdop><extensions><gom:speed>1.042</gom:speed></extensions></trkpt>
   <trkpt lat="59.0754581217" lon="29.9874948081"><ele>92.907</ele><time>2026-04-25T15:13:07.000Z</time><hdop>3.0</hdop><vdop>3.0</vdop><extensions><gom:speed>1.014</gom:speed></extensions></trkpt>
   <trkpt lat="59.0754678028" lon="29.9875041958"><ele>92.974</ele><time>2026-04-25T15:13:08.000Z</time><hdop>3.0</hdop><vdop>3.0</vdop><extensions><gom:speed>0.823</gom:speed></extensions></trkpt>
   <trkpt lat="59.0754678028" lon="29.9875041958"><ele>93.013</ele><time>2026-04-25T15:13:08.000Z</time><hdop>3.0</hdop><vdop>3.0</vdop><extensions><gom:speed>0.823</gom:speed></extensions></trkpt>
   <trkpt lat="59.0754743407" lon="29.9875185289"><ele>93.033</ele><time>2026-04-25T15:13:09.000Z</time><hdop>3.0</hdop><vdop>3.0</vdop><extensions><gom:speed>1.058</gom:speed></extensions></trkpt>
   <trkpt lat="59.0754812557" lon="29.987535628"><ele>93.088</ele><time>2026-04-25T15:13:10.000Z</time><hdop>3.0</hdop><vdop>3.0</vdop><extensions><gom:speed>0.996</gom:speed></extensions></trkpt>
   <trkpt lat="59.0754878774" lon="29.9875501287"><ele>93.194</ele><time>2026-04-25T15:13:11.000Z</time><hdop>3.0</hdop><vdop>3.0</vdop><extensions><gom:speed>0.922</gom:speed></extensions></trkpt>
   <trkpt lat="59.0754948344" lon="29.9875585944"><ele>93.25</ele><time>2026-04-25T15:13:12.000Z</time><hdop>3.0</hdop><vdop>3.0</vdop><extensions><gom:speed>0.747</gom:speed></extensions></trkpt>
   <trkpt lat="59.0754999055" lon="29.9875673954"><ele>93.267</ele><time>2026-04-25T15:13:13.000Z</time><hdop>3.125</hdop><vdop>3.125</vdop><extensions><gom:speed>0.66</gom:speed></extensions></trkpt>
   <trkpt lat="59.0755012885" lon="29.9875790462"><ele>93.247</ele><time>2026-04-25T15:13:14.000Z</time><hdop>3.0</hdop><vdop>3.0</vdop><extensions><gom:speed>0.768</gom:speed></extensions></trkpt>
   <trkpt lat="59.0755042222" lon="29.9875903618"><ele>93.237</ele><time>2026-04-25T15:13:15.000Z</time><hdop>3.0</hdop><vdop>3.0</vdop><extensions><gom:speed>0.516</gom:speed></extensions></trkpt>
   <trkpt lat="59.0755042222" lon="29.9875903618"><ele>93.231</ele><time>2026-04-25T15:13:15.000Z</time><hdop>3.0</hdop><vdop>3.0</vdop><extensions><gom:speed>0.516</gom:speed></extensions></trkpt>
   <trkpt lat="59.0755130651" lon="29.9876044434"><ele>94.893</ele><time>2026-04-25T15:13:16.000Z</time><hdop>1.562</hdop><vdop>1.562</vdop><extensions><gom:speed>0.718</gom:speed></extensions></trkpt>
   <trkpt lat="59.0755224109" lon="29.9876114004"><ele>95.636</ele><time>2026-04-25T15:13:17.000Z</time><hdop>2.125</hdop><vdop>2.125</vdop><extensions><gom:speed>0.729</gom:speed></extensions></trkpt>
   <trkpt lat="59.0755320082" lon="29.9876164295"><ele>96.163</ele><time>2026-04-25T15:13:18.000Z</time><hdop>2.875</hdop><vdop>2.875</vdop><extensions><gom:speed>0.728</gom:speed></extensions></trkpt>
   <trkpt lat="59.0755401386" lon="29.9876202014"><ele>96.288</ele><time>2026-04-25T15:13:19.000Z</time><hdop>3.25</hdop><vdop>3.25</vdop><extensions><gom:speed>0.711</gom:speed></extensions></trkpt>
   <trkpt lat="59.0755489815" lon="29.9876305111"><ele>96.138</ele><time>2026-04-25T15:13:20.000Z</time><hdop>4.187</hdop><vdop>4.187</vdop><extensions><gom:speed>0.783</gom:speed></extensions></trkpt>
   <trkpt lat="59.0755594589" lon="29.9876408209"><ele>96.262</ele><time>2026-04-25T15:13:21.000Z</time><hdop>4.625</hdop><vdop>4.625</vdop><extensions><gom:speed>0.848</gom:speed></extensions></trkpt>
   <trkpt lat="59.0755659549" lon="29.9876563274"><ele>96.36</ele><time>2026-04-25T15:13:22.000Z</time><hdop>4.687</hdop><vdop>4.687</vdop><extensions><gom:speed>0.901</gom:speed></extensions></trkpt>
   <trkpt lat="59.0755718222" lon="29.9876708281"><ele>96.419</ele><time>2026-04-25T15:13:23.000Z</time><hdop>4.687</hdop><vdop>4.687</vdop><extensions><gom:speed>0.946</gom:speed></extensions></trkpt>
   <trkpt lat="59.0755783601" lon="29.9876771983"><ele>96.383</ele><time>2026-04-25T15:13:24.000Z</time><hdop>4.687</hdop><vdop>4.687</vdop><extensions><gom:speed>0.967</gom:speed></extensions></trkpt>
   <trkpt lat="59.0755841017" lon="29.9877118994"><ele>96.418</ele><time>2026-04-25T15:13:25.000Z</time><hdop>4.5</hdop><vdop>4.5</vdop><extensions><gom:speed>0.912</gom:speed></extensions></trkpt>
   <trkpt lat="59.075587664" lon="29.9877377157"><ele>96.393</ele><time>2026-04-25T15:13:26.000Z</time><hdop>4.687</hdop><vdop>4.687</vdop><extensions><gom:speed>0.879</gom:speed></extensions></trkpt>
   <trkpt lat="59.0755931541" lon="29.9877528869"><ele>96.392</ele><time>2026-04-25T15:13:27.000Z</time><hdop>4.687</hdop><vdop>4.687</vdop><extensions><gom:speed>0.897</gom:speed></extensions></trkpt>
   <trkpt lat="59.075592316" lon="29.9877664656"><ele>96.33</ele><time>2026-04-25T15:13:28.000Z</time><hdop>4.437</hdop><vdop>4.437</vdop><extensions><gom:speed>0.573</gom:speed></extensions></trkpt>
   <trkpt lat="59.075592316" lon="29.9877664656"><ele>96.292</ele><time>2026-04-25T15:13:28.000Z</time><hdop>4.437</hdop><vdop>4.437</vdop><extensions><gom:speed>0.573</gom:speed></extensions></trkpt>
   <trkpt lat="59.0755907653" lon="29.9877759371"><ele>96.168</ele><time>2026-04-25T15:13:29.000Z</time><hdop>4.875</hdop><vdop>4.875</vdop><extensions><gom:speed>0.117</gom:speed></extensions></trkpt>
   <trkpt lat="59.0755928189" lon="29.9877813016"><ele>96.16</ele><time>2026-04-25T15:13:30.000Z</time><hdop>4.937</hdop><vdop>4.937</vdop><extensions><gom:speed>0.942</gom:speed></extensions></trkpt>
   <trkpt lat="59.0756053917" lon="29.9877830618"><ele>96.15</ele><time>2026-04-25T15:13:31.000Z</time><hdop>4.812</hdop><vdop>4.812</vdop><extensions><gom:speed>0.506</gom:speed></extensions></trkpt>
   <trkpt lat="59.0756112171" lon="29.9877780326"><ele>96.118</ele><time>2026-04-25T15:13:32.000Z</time><hdop>4.875</hdop><vdop>4.875</vdop><extensions><gom:speed>0.722</gom:speed></extensions></trkpt>
   <trkpt lat="59.0756173778" lon="29.9877756019"><ele>96.07</ele><time>2026-04-25T15:13:33.000Z</time><hdop>4.812</hdop><vdop>4.812</vdop><extensions><gom:speed>0.828</gom:speed></extensions></trkpt>
   <trkpt lat="59.075625634" lon="29.9877798766"><ele>95.987</ele><time>2026-04-25T15:13:34.000Z</time><hdop>4.437</hdop><vdop>4.437</vdop><extensions><gom:speed>0.705</gom:speed></extensions></trkpt>
   <trkpt lat="59.0756327167" lon="29.9877870012"><ele>95.989</ele><time>2026-04-25T15:13:35.000Z</time><hdop>4.625</hdop><vdop>4.625</vdop><extensions><gom:speed>0.663</gom:speed></extensions></trkpt>
   <trkpt lat="59.0756377459" lon="29.9877947126"><ele>96.019</ele><time>2026-04-25T15:13:36.000Z</time><hdop>4.375</hdop><vdop>4.375</vdop><extensions><gom:speed>0.636</gom:speed></extensions></trkpt>
   <trkpt lat="59.0756437808" lon="29.9878037651"><ele>95.983</ele><time>2026-04-25T15:13:37.000Z</time><hdop>4.25</hdop><vdop>4.25</vdop><extensions><gom:speed>0.631</gom:speed></extensions></trkpt>
   <trkpt lat="59.0756498996" lon="29.9878093809"><ele>95.952</ele><time>2026-04-25T15:13:38.000Z</time><hdop>4.312</hdop><vdop>4.312</vdop><extensions><gom:speed>0.203</gom:speed></extensions></trkpt>
   <trkpt lat="59.0756509893" lon="29.9878118117"><ele>95.908</ele><time>2026-04-25T15:13:39.000Z</time><hdop>4.562</hdop><vdop>4.562</vdop><extensions><gom:speed>0.269</gom:speed></extensions></trkpt>
   <trkpt lat="59.0756542582" lon="29.9878098"><ele>95.793</ele><time>2026-04-25T15:13:40.000Z</time><hdop>4.687</hdop><vdop>4.687</vdop><extensions><gom:speed>0.854</gom:speed></extensions></trkpt>
   <trkpt lat="59.0756610476" lon="29.9878187687"><ele>95.682</ele><time>2026-04-25T15:13:41.000Z</time><hdop>4.687</hdop><vdop>4.687</vdop><extensions><gom:speed>0.761</gom:speed></extensions></trkpt>
   <trkpt lat="59.0756700162" lon="29.9878201936"><ele>95.53</ele><time>2026-04-25T15:13:42.000Z</time><hdop>4.812</hdop><vdop>4.812</vdop><extensions><gom:speed>0.707</gom:speed></extensions></trkpt>
   <trkpt lat="59.0756783143" lon="29.9878284917"><ele>95.346</ele><time>2026-04-25T15:13:43.000Z</time><hdop>4.75</hdop><vdop>4.75</vdop><extensions><gom:speed>0.76</gom:speed></extensions></trkpt>
   <trkpt lat="59.0756845169" lon="29.9878409807"><ele>95.281</ele><time>2026-04-25T15:13:44.000Z</time><hdop>4.562</hdop><vdop>4.562</vdop><extensions><gom:speed>0.167</gom:speed></extensions></trkpt>
   <trkpt lat="59.075685858" lon="29.9878455069"><ele>95.24</ele><time>2026-04-25T15:13:45.000Z</time><hdop>4.312</hdop><vdop>4.312</vdop><extensions><gom:speed>0.653</gom:speed></extensions></trkpt>
   <trkpt lat="59.0756876601" lon="29.9878537212"><ele>95.093</ele><time>2026-04-25T15:13:46.000Z</time><hdop>4.0</hdop><vdop>4.0</vdop><extensions><gom:speed>0.776</gom:speed></extensions></trkpt>
   <trkpt lat="59.07569051" lon="29.9878724128"><ele>94.981</ele><time>2026-04-25T15:13:47.000Z</time><hdop>4.062</hdop><vdop>4.062</vdop><extensions><gom:speed>0.717</gom:speed></extensions></trkpt>
   <trkpt lat="59.075690468" lon="29.9878933676"><ele>94.904</ele><time>2026-04-25T15:13:48.000Z</time><hdop>4.062</hdop><vdop>4.062</vdop><extensions><gom:speed>0.516</gom:speed></extensions></trkpt>
   <trkpt lat="59.075690468" lon="29.9878933676"><ele>94.859</ele><time>2026-04-25T15:13:48.000Z</time><hdop>4.062</hdop><vdop>4.062</vdop><extensions><gom:speed>0.516</gom:speed></extensions></trkpt>
   <trkpt lat="59.0756816251" lon="29.9878946249"><ele>94.833</ele><time>2026-04-25T15:13:49.000Z</time><hdop>3.812</hdop><vdop>3.812</vdop><extensions><gom:speed>0.417</gom:speed></extensions></trkpt>
   <trkpt lat="59.0756831758" lon="29.9878978938"><ele>94.75</ele><time>2026-04-25T15:13:50.000Z</time><hdop>3.625</hdop><vdop>3.625</vdop><extensions><gom:speed>0.515</gom:speed></extensions></trkpt>
   <trkpt lat="59.0756839302" lon="29.9879015819"><ele>94.715</ele><time>2026-04-25T15:13:51.000Z</time><hdop>3.562</hdop><vdop>3.562</vdop><extensions><gom:speed>0.345</gom:speed></extensions></trkpt>
   <trkpt lat="59.0756830501" lon="29.9879023362"><ele>94.618</ele><time>2026-04-25T15:13:52.000Z</time><hdop>3.75</hdop><vdop>3.75</vdop><extensions><gom:speed>0.356</gom:speed></extensions></trkpt>
   <trkpt lat="59.0756805774" lon="29.9879037612"><ele>94.582</ele><time>2026-04-25T15:13:53.000Z</time><hdop>3.562</hdop><vdop>3.562</vdop><extensions><gom:speed>0.188</gom:speed></extensions></trkpt>
   <trkpt lat="59.0756791106" lon="29.9879036773"><ele>93.935</ele><time>2026-04-25T15:13:54.000Z</time><hdop>4.625</hdop><vdop>4.625</vdop><extensions><gom:speed>0.0</gom:speed></extensions></trkpt>
   <trkpt lat="59.0756796973" lon="29.9879025039"><ele>93.538</ele><time>2026-04-25T15:13:55.000Z</time><hdop>4.875</hdop><vdop>4.875</vdop><extensions><gom:speed>0.103</gom:speed></extensions></trkpt>
   <trkpt lat="59.0756791944" lon="29.9878999055"><ele>93.328</ele><time>2026-04-25T15:13:56.000Z</time><hdop>4.875</hdop><vdop>4.875</vdop><extensions><gom:speed>0.218</gom:speed></extensions></trkpt>
   <trkpt lat="59.0756791944" lon="29.9878999055"><ele>93.202</ele><time>2026-04-25T15:13:57.000Z</time><hdop>4.875</hdop><vdop>4.875</vdop><extensions><gom:speed>0.0</gom:speed></extensions></trkpt>
   <trkpt lat="59.0756791944" lon="29.9878999055"><ele>93.127</ele><time>2026-04-25T15:13:58.000Z</time><hdop>4.875</hdop><vdop>4.875</vdop><extensions><gom:speed>0.0</gom:speed></extensions></trkpt>
   <trkpt lat="59.0756791944" lon="29.9878999055"><ele>93.082</ele><time>2026-04-25T15:13:59.000Z</time><hdop>4.875</hdop><vdop>4.875</vdop><extensions><gom:speed>0.0</gom:speed></extensions></trkpt>
   <trkpt lat="59.0756791944" lon="29.9878999055"><ele>93.055</ele><time>2026-04-25T15:14:00.000Z</time><hdop>4.875</hdop><vdop>4.875</vdop><extensions><gom:speed>0.0</gom:speed></extensions></trkpt>
   <trkpt lat="59.0756791944" lon="29.9878999055"><ele>93.039</ele><time>2026-04-25T15:14:01.000Z</time><hdop>4.875</hdop><vdop>4.875</vdop><extensions><gom:speed>0.0</gom:speed></extensions></trkpt>
   <trkpt lat="59.0756791944" lon="29.9878999055"><ele>93.029</ele><time>2026-04-25T15:14:02.000Z</time><hdop>4.875</hdop><vdop>4.875</vdop><extensions><gom:speed>0.0</gom:speed></extensions></trkpt>
   <trkpt lat="59.0756791944" lon="29.9878999055"><ele>93.024</ele><time>2026-04-25T15:14:03.000Z</time><hdop>4.875</hdop><vdop>4.875</vdop><extensions><gom:speed>0.0</gom:speed></extensions></trkpt>
   <trkpt lat="59.0756791944" lon="29.9878999055"><ele>93.02</ele><time>2026-04-25T15:14:04.000Z</time><hdop>4.875</hdop><vdop>4.875</vdop><extensions><gom:speed>0.0</gom:speed></extensions></trkpt>
   <trkpt lat="59.0756791944" lon="29.9878999055"><ele>93.018</ele><time>2026-04-25T15:14:05.000Z</time><hdop>4.875</hdop><vdop>4.875</vdop><extensions><gom:speed>0.0</gom:speed></extensions></trkpt>
   <trkpt lat="59.0756791944" lon="29.9878999055"><ele>93.017</ele><time>2026-04-25T15:14:06.000Z</time><hdop>4.875</hdop><vdop>4.875</vdop><extensions><gom:speed>0.0</gom:speed></extensions></trkpt>
   <trkpt lat="59.0756791944" lon="29.9878999055"><ele>93.016</ele><time>2026-04-25T15:14:07.000Z</time><hdop>4.875</hdop><vdop>4.875</vdop><extensions><gom:speed>0.0</gom:speed></extensions></trkpt>
   <trkpt lat="59.0756791944" lon="29.9878999055"><ele>93.016</ele><time>2026-04-25T15:14:08.000Z</time><hdop>4.875</hdop><vdop>4.875</vdop><extensions><gom:speed>0.0</gom:speed></extensions></trkpt>
   <trkpt lat="59.0756791944" lon="29.9878999055"><ele>93.016</ele><time>2026-04-25T15:14:08.000Z</time><hdop>4.875</hdop><vdop>4.875</vdop><extensions><gom:speed>0.0</gom:speed></extensions></trkpt>
   <trkpt lat="59.0756791944" lon="29.9878999055"><ele>93.015</ele><time>2026-04-25T15:14:09.000Z</time><hdop>4.875</hdop><vdop>4.875</vdop><extensions><gom:speed>0.0</gom:speed></extensions></trkpt>
   <trkpt lat="59.0756791944" lon="29.9878999055"><ele>93.015</ele><time>2026-04-25T15:14:10.000Z</time><hdop>4.875</hdop><vdop>4.875</vdop><extensions><gom:speed>0.0</gom:speed></extensions></trkpt>
   <trkpt lat="59.0756791944" lon="29.9878999055"><ele>93.015</ele><time>2026-04-25T15:14:11.000Z</time><hdop>4.875</hdop><vdop>4.875</vdop><extensions><gom:speed>0.0</gom:speed></extensions></trkpt>
   <trkpt lat="59.0756791944" lon="29.9878999055"><ele>93.015</ele><time>2026-04-25T15:14:12.000Z</time><hdop>4.875</hdop><vdop>4.875</vdop><extensions><gom:speed>0.0</gom:speed></extensions></trkpt>
   <trkpt lat="59.0756791944" lon="29.9878999055"><ele>93.015</ele><time>2026-04-25T15:14:13.000Z</time><hdop>4.875</hdop><vdop>4.875</vdop><extensions><gom:speed>0.0</gom:speed></extensions></trkpt>
   <trkpt lat="59.0756791944" lon="29.9878999055"><ele>93.015</ele><time>2026-04-25T15:14:14.000Z</time><hdop>4.875</hdop><vdop>4.875</vdop><extensions><gom:speed>0.0</gom:speed></extensions></trkpt>
   <trkpt lat="59.0756791944" lon="29.9878999055"><ele>93.015</ele><time>2026-04-25T15:14:15.000Z</time><hdop>4.875</hdop><vdop>4.875</vdop><extensions><gom:speed>0.0</gom:speed></extensions></trkpt>
   <trkpt lat="59.0756791944" lon="29.9878999055"><ele>93.015</ele><time>2026-04-25T15:14:16.000Z</time><hdop>4.875</hdop><vdop>4.875</vdop><extensions><gom:speed>0.0</gom:speed></extensions></trkpt>
   <trkpt lat="59.0756791944" lon="29.9878999055"><ele>93.015</ele><time>2026-04-25T15:14:17.000Z</time><hdop>4.875</hdop><vdop>4.875</vdop><extensions><gom:speed>0.0</gom:speed></extensions></trkpt>
   <trkpt lat="59.0756791944" lon="29.9878999055"><ele>93.015</ele><time>2026-04-25T15:14:18.000Z</time><hdop>4.875</hdop><vdop>4.875</vdop><extensions><gom:speed>0.0</gom:speed></extensions></trkpt>
   <trkpt lat="59.0756791944" lon="29.9878999055"><ele>93.015</ele><time>2026-04-25T15:14:19.000Z</time><hdop>4.875</hdop><vdop>4.875</vdop><extensions><gom:speed>0.0</gom:speed></extensions></trkpt>
   <trkpt lat="59.0756791944" lon="29.9878999055"><ele>93.015</ele><time>2026-04-25T15:14:20.000Z</time><hdop>4.875</hdop><vdop>4.875</vdop><extensions><gom:speed>0.0</gom:speed></extensions></trkpt>
   <trkpt lat="59.0756791944" lon="29.9878999055"><ele>93.015</ele><time>2026-04-25T15:14:21.000Z</time><hdop>4.875</hdop><vdop>4.875</vdop><extensions><gom:speed>0.0</gom:speed></extensions></trkpt>
   <trkpt lat="59.0756791944" lon="29.9878999055"><ele>93.015</ele><time>2026-04-25T15:14:21.000Z</time><hdop>4.875</hdop><vdop>4.875</vdop><extensions><gom:speed>0.0</gom:speed></extensions></trkpt>
   <trkpt lat="59.0756791944" lon="29.9878999055"><ele>93.015</ele><time>2026-04-25T15:14:22.000Z</time><hdop>4.875</hdop><vdop>4.875</vdop><extensions><gom:speed>0.0</gom:speed></extensions></trkpt>
   <trkpt lat="59.0756791944" lon="29.9878999055"><ele>93.015</ele><time>2026-04-25T15:14:23.000Z</time><hdop>4.875</hdop><vdop>4.875</vdop><extensions><gom:speed>0.0</gom:speed></extensions></trkpt>
   <trkpt lat="59.0756791944" lon="29.9878999055"><ele>93.015</ele><time>2026-04-25T15:14:23.000Z</time><hdop>4.875</hdop><vdop>4.875</vdop><extensions><gom:speed>0.0</gom:speed></extensions></trkpt>
   <trkpt lat="59.0756791944" lon="29.9878999055"><ele>93.015</ele><time>2026-04-25T15:14:24.000Z</time><hdop>4.875</hdop><vdop>4.875</vdop><extensions><gom:speed>0.0</gom:speed></extensions></trkpt>
   <trkpt lat="59.0756791944" lon="29.9878999055"><ele>93.015</ele><time>2026-04-25T15:14:25.000Z</time><hdop>4.875</hdop><vdop>4.875</vdop><extensions><gom:speed>0.0</gom:speed></extensions></trkpt>
   <trkpt lat="59.0756791944" lon="29.9878999055"><ele>93.015</ele><time>2026-04-25T15:14:26.000Z</time><hdop>4.875</hdop><vdop>4.875</vdop><extensions><gom:speed>0.0</gom:speed></extensions></trkpt>
   <trkpt lat="59.0756791944" lon="29.9878999055"><ele>93.015</ele><time>2026-04-25T15:14:27.000Z</time><hdop>4.875</hdop><vdop>4.875</vdop><extensions><gom:speed>0.0</gom:speed></extensions></trkpt>
   <trkpt lat="59.0756791944" lon="29.9878999055"><ele>93.015</ele><time>2026-04-25T15:14:28.000Z</time><hdop>4.875</hdop><vdop>4.875</vdop><extensions><gom:speed>0.0</gom:speed></extensions></trkpt>
   <trkpt lat="59.0756791944" lon="29.9878999055"><ele>93.015</ele><time>2026-04-25T15:14:28.000Z</time><hdop>4.875</hdop><vdop>4.875</vdop><extensions><gom:speed>0.0</gom:speed></extensions></trkpt>
   <trkpt lat="59.0756791944" lon="29.9878999055"><ele>93.015</ele><time>2026-04-25T15:14:29.000Z</time><hdop>4.875</hdop><vdop>4.875</vdop><extensions><gom:speed>0.0</gom:speed></extensions></trkpt>
   <trkpt lat="59.0756791944" lon="29.9878999055"><ele>93.015</ele><time>2026-04-25T15:14:30.000Z</time><hdop>4.875</hdop><vdop>4.875</vdop><extensions><gom:speed>0.0</gom:speed></extensions></trkpt>
   <trkpt lat="59.0756791944" lon="29.9878999055"><ele>93.015</ele><time>2026-04-25T15:14:31.000Z</time><hdop>4.875</hdop><vdop>4.875</vdop><extensions><gom:speed>0.0</gom:speed></extensions></trkpt>
   <trkpt lat="59.0756791944" lon="29.9878999055"><ele>93.015</ele><time>2026-04-25T15:14:32.000Z</time><hdop>4.875</hdop><vdop>4.875</vdop><extensions><gom:speed>0.0</gom:speed></extensions></trkpt>
   <trkpt lat="59.0756791944" lon="29.9878999055"><ele>93.015</ele><time>2026-04-25T15:14:33.000Z</time><hdop>4.875</hdop><vdop>4.875</vdop><extensions><gom:speed>0.0</gom:speed></extensions></trkpt>
   <trkpt lat="59.0756791944" lon="29.9878999055"><ele>93.015</ele><time>2026-04-25T15:14:34.000Z</time><hdop>4.875</hdop><vdop>4.875</vdop><extensions><gom:speed>0.0</gom:speed></extensions></trkpt>
   <trkpt lat="59.0756791944" lon="29.9878999055"><ele>93.015</ele><time>2026-04-25T15:14:35.000Z</time><hdop>4.875</hdop><vdop>4.875</vdop><extensions><gom:speed>0.0</gom:speed></extensions></trkpt>
   <trkpt lat="59.0756791944" lon="29.9878999055"><ele>93.015</ele><time>2026-04-25T15:14:36.000Z</time><hdop>4.875</hdop><vdop>4.875</vdop><extensions><gom:speed>0.0</gom:speed></extensions></trkpt>
   <trkpt lat="59.0756791944" lon="29.9878999055"><ele>93.015</ele><time>2026-04-25T15:14:37.000Z</time><hdop>4.875</hdop><vdop>4.875</vdop><extensions><gom:speed>0.0</gom:speed></extensions></trkpt>
   <trkpt lat="59.0756791944" lon="29.9878999055"><ele>93.015</ele><time>2026-04-25T15:14:38.000Z</time><hdop>4.875</hdop><vdop>4.875</vdop><extensions><gom:speed>0.0</gom:speed></extensions></trkpt>
   <trkpt lat="59.0756791944" lon="29.9878999055"><ele>93.015</ele><time>2026-04-25T15:14:39.000Z</time><hdop>4.875</hdop><vdop>4.875</vdop><extensions><gom:speed>0.0</gom:speed></extensions></trkpt>
   <trkpt lat="59.0756791944" lon="29.9878999055"><ele>93.015</ele><time>2026-04-25T15:14:40.000Z</time><hdop>4.875</hdop><vdop>4.875</vdop><extensions><gom:speed>0.0</gom:speed></extensions></trkpt>
   <trkpt lat="59.0756791944" lon="29.9878999055"><ele>93.015</ele><time>2026-04-25T15:14:41.000Z</time><hdop>4.875</hdop><vdop>4.875</vdop><extensions><gom:speed>0.0</gom:speed></extensions></trkpt>
   <trkpt lat="59.0756791944" lon="29.9878999055"><ele>93.015</ele><time>2026-04-25T15:14:42.000Z</time><hdop>4.875</hdop><vdop>4.875</vdop><extensions><gom:speed>0.0</gom:speed></extensions></trkpt>
   <trkpt lat="59.0756791944" lon="29.9878999055"><ele>93.015</ele><time>2026-04-25T15:14:43.000Z</time><hdop>4.875</hdop><vdop>4.875</vdop><extensions><gom:speed>0.0</gom:speed></extensions></trkpt>
   <trkpt lat="59.0756791944" lon="29.9878999055"><ele>93.015</ele><time>2026-04-25T15:14:44.000Z</time><hdop>4.875</hdop><vdop>4.875</vdop><extensions><gom:speed>0.0</gom:speed></extensions></trkpt>
   <trkpt lat="59.0756791944" lon="29.9878999055"><ele>93.015</ele><time>2026-04-25T15:14:45.000Z</time><hdop>4.875</hdop><vdop>4.875</vdop><extensions><gom:speed>0.0</gom:speed></extensions></trkpt>
   <trkpt lat="59.0756791944" lon="29.9878999055"><ele>93.015</ele><time>2026-04-25T15:14:46.000Z</time><hdop>4.875</hdop><vdop>4.875</vdop><extensions><gom:speed>0.0</gom:speed></extensions></trkpt>
   <trkpt lat="59.0756791944" lon="29.9878999055"><ele>93.015</ele><time>2026-04-25T15:14:47.000Z</time><hdop>4.875</hdop><vdop>4.875</vdop><extensions><gom:speed>0.0</gom:speed></extensions></trkpt>
   <trkpt lat="59.0756791944" lon="29.9878999055"><ele>93.015</ele><time>2026-04-25T15:14:48.000Z</time><hdop>4.875</hdop><vdop>4.875</vdop><extensions><gom:speed>0.0</gom:speed></extensions></trkpt>
   <trkpt lat="59.0756791944" lon="29.9878999055"><ele>93.015</ele><time>2026-04-25T15:14:48.000Z</time><hdop>4.875</hdop><vdop>4.875</vdop><extensions><gom:speed>0.0</gom:speed></extensions></trkpt>
   <trkpt lat="59.0756791944" lon="29.9878999055"><ele>93.015</ele><time>2026-04-25T15:14:49.000Z</time><hdop>4.875</hdop><vdop>4.875</vdop><extensions><gom:speed>0.0</gom:speed></extensions></trkpt>
   <trkpt lat="59.0756791944" lon="29.9878999055"><ele>93.015</ele><time>2026-04-25T15:14:50.000Z</time><hdop>4.875</hdop><vdop>4.875</vdop><extensions><gom:speed>0.0</gom:speed></extensions></trkpt>
   <trkpt lat="59.0756791944" lon="29.9878999055"><ele>93.015</ele><time>2026-04-25T15:14:51.000Z</time><hdop>4.875</hdop><vdop>4.875</vdop><extensions><gom:speed>0.0</gom:speed></extensions></trkpt>
   <trkpt lat="59.0756791944" lon="29.9878999055"><ele>93.015</ele><time>2026-04-25T15:14:52.000Z</time><hdop>4.875</hdop><vdop>4.875</vdop><extensions><gom:speed>0.0</gom:speed></extensions></trkpt>
   <trkpt lat="59.0756791944" lon="29.9878999055"><ele>93.015</ele><time>2026-04-25T15:14:53.000Z</time><hdop>4.875</hdop><vdop>4.875</vdop><extensions><gom:speed>0.0</gom:speed></extensions></trkpt>
   <trkpt lat="59.0756791944" lon="29.9878999055"><ele>93.015</ele><time>2026-04-25T15:14:54.000Z</time><hdop>4.875</hdop><vdop>4.875</vdop><extensions><gom:speed>0.0</gom:speed></extensions></trkpt>
   <trkpt lat="59.0756791944" lon="29.9878999055"><ele>93.015</ele><time>2026-04-25T15:14:55.000Z</time><hdop>4.875</hdop><vdop>4.875</vdop><extensions><gom:speed>0.0</gom:speed></extensions></trkpt>
   <trkpt lat="59.0756791944" lon="29.9878999055"><ele>93.015</ele><time>2026-04-25T15:14:56.000Z</time><hdop>4.875</hdop><vdop>4.875</vdop><extensions><gom:speed>0.0</gom:speed></extensions></trkpt>
   <trkpt lat="59.0756791944" lon="29.9878999055"><ele>93.015</ele><time>2026-04-25T15:14:57.000Z</time><hdop>4.875</hdop><vdop>4.875</vdop><extensions><gom:speed>0.0</gom:speed></extensions></trkpt>
   <trkpt lat="59.0756791944" lon="29.9878999055"><ele>93.015</ele><time>2026-04-25T15:14:58.000Z</time><hdop>4.875</hdop><vdop>4.875</vdop><extensions><gom:speed>0.0</gom:speed></extensions></trkpt>
   <trkpt lat="59.0756791944" lon="29.9878999055"><ele>93.015</ele><time>2026-04-25T15:14:59.000Z</time><hdop>4.875</hdop><vdop>4.875</vdop><extensions><gom:speed>0.0</gom:speed></extensions></trkpt>
   <trkpt lat="59.0756812899" lon="29.9879003246"><ele>92.977</ele><time>2026-04-25T15:15:00.000Z</time><hdop>4.687</hdop><vdop>4.687</vdop><extensions><gom:speed>0.511</gom:speed></extensions></trkpt>
   <trkpt lat="59.0756857742" lon="29.9879015819"><ele>92.919</ele><time>2026-04-25T15:15:01.000Z</time><hdop>4.687</hdop><vdop>4.687</vdop><extensions><gom:speed>0.569</gom:speed></extensions></trkpt>
   <trkpt lat="59.0756857742" lon="29.9879015819"><ele>92.885</ele><time>2026-04-25T15:15:02.000Z</time><hdop>4.875</hdop><vdop>4.875</vdop><extensions><gom:speed>0.0</gom:speed></extensions></trkpt>
   <trkpt lat="59.0756857742" lon="29.9879015819"><ele>92.864</ele><time>2026-04-25T15:15:03.000Z</time><hdop>4.875</hdop><vdop>4.875</vdop><extensions><gom:speed>0.0</gom:speed></extensions></trkpt>
   <trkpt lat="59.0756857742" lon="29.9879015819"><ele>92.852</ele><time>2026-04-25T15:15:04.000Z</time><hdop>4.875</hdop><vdop>4.875</vdop><extensions><gom:speed>0.0</gom:speed></extensions></trkpt>
   <trkpt lat="59.0756857742" lon="29.9879015819"><ele>92.845</ele><time>2026-04-25T15:15:05.000Z</time><hdop>4.875</hdop><vdop>4.875</vdop><extensions><gom:speed>0.0</gom:speed></extensions></trkpt>
   <trkpt lat="59.0756857742" lon="29.9879015819"><ele>92.84</ele><time>2026-04-25T15:15:06.000Z</time><hdop>4.875</hdop><vdop>4.875</vdop><extensions><gom:speed>0.0</gom:speed></extensions></trkpt>
   <trkpt lat="59.0756857742" lon="29.9879015819"><ele>92.837</ele><time>2026-04-25T15:15:07.000Z</time><hdop>4.875</hdop><vdop>4.875</vdop><extensions><gom:speed>0.0</gom:speed></extensions></trkpt>
   <trkpt lat="59.0756857742" lon="29.9879015819"><ele>92.836</ele><time>2026-04-25T15:15:08.000Z</time><hdop>4.875</hdop><vdop>4.875</vdop><extensions><gom:speed>0.0</gom:speed></extensions></trkpt>
   <trkpt lat="59.0756857742" lon="29.9879015819"><ele>92.835</ele><time>2026-04-25T15:15:08.000Z</time><hdop>4.875</hdop><vdop>4.875</vdop><extensions><gom:speed>0.0</gom:speed></extensions></trkpt>
   <trkpt lat="59.0756857742" lon="29.9879015819"><ele>92.834</ele><time>2026-04-25T15:15:09.000Z</time><hdop>4.875</hdop><vdop>4.875</vdop><extensions><gom:speed>0.0</gom:speed></extensions></trkpt>
   <trkpt lat="59.0756857742" lon="29.9879015819"><ele>92.834</ele><time>2026-04-25T15:15:10.000Z</time><hdop>4.875</hdop><vdop>4.875</vdop><extensions><gom:speed>0.0</gom:speed></extensions></trkpt>
   <trkpt lat="59.0756857742" lon="29.9879015819"><ele>92.834</ele><time>2026-04-25T15:15:11.000Z</time><hdop>4.875</hdop><vdop>4.875</vdop><extensions><gom:speed>0.0</gom:speed></extensions></trkpt>
   <trkpt lat="59.0756857742" lon="29.9879015819"><ele>92.834</ele><time>2026-04-25T15:15:12.000Z</time><hdop>4.875</hdop><vdop>4.875</vdop><extensions><gom:speed>0.0</gom:speed></extensions></trkpt>
   <trkpt lat="59.0756857742" lon="29.9879015819"><ele>92.834</ele><time>2026-04-25T15:15:13.000Z</time><hdop>4.875</hdop><vdop>4.875</vdop><extensions><gom:speed>0.0</gom:speed></extensions></trkpt>
   <trkpt lat="59.0756857742" lon="29.9879015819"><ele>92.834</ele><time>2026-04-25T15:15:14.000Z</time><hdop>4.875</hdop><vdop>4.875</vdop><extensions><gom:speed>0.0</gom:speed></extensions></trkpt>
   <trkpt lat="59.0756857742" lon="29.9879015819"><ele>92.834</ele><time>2026-04-25T15:15:15.000Z</time><hdop>4.875</hdop><vdop>4.875</vdop><extensions><gom:speed>0.0</gom:speed></extensions></trkpt>
   <trkpt lat="59.0756857742" lon="29.9879015819"><ele>92.834</ele><time>2026-04-25T15:15:16.000Z</time><hdop>4.875</hdop><vdop>4.875</vdop><extensions><gom:speed>0.0</gom:speed></extensions></trkpt>
   <trkpt lat="59.0756857742" lon="29.9879015819"><ele>92.834</ele><time>2026-04-25T15:15:17.000Z</time><hdop>4.875</hdop><vdop>4.875</vdop><extensions><gom:speed>0.0</gom:speed></extensions></trkpt>
   <trkpt lat="59.0756857742" lon="29.9879015819"><ele>92.834</ele><time>2026-04-25T15:15:18.000Z</time><hdop>4.875</hdop><vdop>4.875</vdop><extensions><gom:speed>0.0</gom:speed></extensions></trkpt>
   <trkpt lat="59.0756857742" lon="29.9879015819"><ele>92.834</ele><time>2026-04-25T15:15:19.000Z</time><hdop>4.875</hdop><vdop>4.875</vdop><extensions><gom:speed>0.0</gom:speed></extensions></trkpt>
   <trkpt lat="59.0756857742" lon="29.9879015819"><ele>92.834</ele><time>2026-04-25T15:15:20.000Z</time><hdop>4.875</hdop><vdop>4.875</vdop><extensions><gom:speed>0.0</gom:speed></extensions></trkpt>
   <trkpt lat="59.0756857742" lon="29.9879015819"><ele>92.834</ele><time>2026-04-25T15:15:21.000Z</time><hdop>4.875</hdop><vdop>4.875</vdop><extensions><gom:speed>0.0</gom:speed></extensions></trkpt>
   <trkpt lat="59.0756857742" lon="29.9879015819"><ele>92.834</ele><time>2026-04-25T15:15:22.000Z</time><hdop>4.875</hdop><vdop>4.875</vdop><extensions><gom:speed>0.0</gom:speed></extensions></trkpt>
   <trkpt lat="59.0756857742" lon="29.9879015819"><ele>92.834</ele><time>2026-04-25T15:15:23.000Z</time><hdop>4.875</hdop><vdop>4.875</vdop><extensions><gom:speed>0.0</gom:speed></extensions></trkpt>
   <trkpt lat="59.0756857742" lon="29.9879015819"><ele>92.834</ele><time>2026-04-25T15:15:24.000Z</time><hdop>4.875</hdop><vdop>4.875</vdop><extensions><gom:speed>0.0</gom:speed></extensions></trkpt>
   <trkpt lat="59.0756857742" lon="29.9879015819"><ele>92.834</ele><time>2026-04-25T15:15:25.000Z</time><hdop>4.875</hdop><vdop>4.875</vdop><extensions><gom:speed>0.0</gom:speed></extensions></trkpt>
   <trkpt lat="59.0756857742" lon="29.9879015819"><ele>92.834</ele><time>2026-04-25T15:15:26.000Z</time><hdop>4.875</hdop><vdop>4.875</vdop><extensions><gom:speed>0.0</gom:speed></extensions></trkpt>
   <trkpt lat="59.0756857742" lon="29.9879015819"><ele>92.834</ele><time>2026-04-25T15:15:27.000Z</time><hdop>4.875</hdop><vdop>4.875</vdop><extensions><gom:speed>0.0</gom:speed></extensions></trkpt>
   <trkpt lat="59.0756857742" lon="29.9879015819"><ele>92.834</ele><time>2026-04-25T15:15:28.000Z</time><hdop>4.875</hdop><vdop>4.875</vdop><extensions><gom:speed>0.0</gom:speed></extensions></trkpt>
   <trkpt lat="59.0756857742" lon="29.9879015819"><ele>92.834</ele><time>2026-04-25T15:15:28.000Z</time><hdop>4.875</hdop><vdop>4.875</vdop><extensions><gom:speed>0.0</gom:speed></extensions></trkpt>
   <trkpt lat="59.0756857742" lon="29.9879015819"><ele>92.834</ele><time>2026-04-25T15:15:29.000Z</time><hdop>4.875</hdop><vdop>4.875</vdop><extensions><gom:speed>0.0</gom:speed></extensions></trkpt>
   <trkpt lat="59.0756857742" lon="29.9879015819"><ele>92.834</ele><time>2026-04-25T15:15:30.000Z</time><hdop>4.875</hdop><vdop>4.875</vdop><extensions><gom:speed>0.0</gom:speed></extensions></trkpt>
   <trkpt lat="59.0756857742" lon="29.9879015819"><ele>92.834</ele><time>2026-04-25T15:15:31.000Z</time><hdop>4.875</hdop><vdop>4.875</vdop><extensions><gom:speed>0.0</gom:speed></extensions></trkpt>
   <trkpt lat="59.0756857742" lon="29.9879015819"><ele>92.834</ele><time>2026-04-25T15:15:32.000Z</time><hdop>4.875</hdop><vdop>4.875</vdop><extensions><gom:speed>0.0</gom:speed></extensions></trkpt>
   <trkpt lat="59.0756857742" lon="29.9879015819"><ele>92.834</ele><time>2026-04-25T15:15:33.000Z</time><hdop>4.875</hdop><vdop>4.875</vdop><extensions><gom:speed>0.0</gom:speed></extensions></trkpt>
   <trkpt lat="59.0756857742" lon="29.9879015819"><ele>92.834</ele><time>2026-04-25T15:15:34.000Z</time><hdop>4.875</hdop><vdop>4.875</vdop><extensions><gom:speed>0.0</gom:speed></extensions></trkpt>
   <trkpt lat="59.0756857742" lon="29.9879015819"><ele>92.834</ele><time>2026-04-25T15:15:35.000Z</time><hdop>4.875</hdop><vdop>4.875</vdop><extensions><gom:speed>0.0</gom:speed></extensions></trkpt>
   <trkpt lat="59.0756857742" lon="29.9879015819"><ele>92.834</ele><time>2026-04-25T15:15:36.000Z</time><hdop>4.875</hdop><vdop>4.875</vdop><extensions><gom:speed>0.0</gom:speed></extensions></trkpt>
   <trkpt lat="59.0756857742" lon="29.9879015819"><ele>92.834</ele><time>2026-04-25T15:15:37.000Z</time><hdop>4.875</hdop><vdop>4.875</vdop><extensions><gom:speed>0.0</gom:speed></extensions></trkpt>
   <trkpt lat="59.0756857742" lon="29.9879015819"><ele>92.834</ele><time>2026-04-25T15:15:38.000Z</time><hdop>4.875</hdop><vdop>4.875</vdop><extensions><gom:speed>0.0</gom:speed></extensions></trkpt>
   <trkpt lat="59.0756857742" lon="29.9879015819"><ele>92.834</ele><time>2026-04-25T15:15:39.000Z</time><hdop>4.875</hdop><vdop>4.875</vdop><extensions><gom:speed>0.0</gom:speed></extensions></trkpt>
   <trkpt lat="59.0756857742" lon="29.9879015819"><ele>92.834</ele><time>2026-04-25T15:15:40.000Z</time><hdop>4.875</hdop><vdop>4.875</vdop><extensions><gom:speed>0.0</gom:speed></extensions></trkpt>
   <trkpt lat="59.0756857742" lon="29.9879015819"><ele>92.834</ele><time>2026-04-25T15:15:41.000Z</time><hdop>4.875</hdop><vdop>4.875</vdop><extensions><gom:speed>0.0</gom:speed></extensions></trkpt>
   <trkpt lat="59.0756857742" lon="29.9879015819"><ele>92.834</ele><time>2026-04-25T15:15:42.000Z</time><hdop>4.875</hdop><vdop>4.875</vdop><extensions><gom:speed>0.0</gom:speed></extensions></trkpt>
   <trkpt lat="59.0756857742" lon="29.9879015819"><ele>92.834</ele><time>2026-04-25T15:15:43.000Z</time><hdop>4.875</hdop><vdop>4.875</vdop><extensions><gom:speed>0.0</gom:speed></extensions></trkpt>
   <trkpt lat="59.0756857742" lon="29.9879015819"><ele>92.834</ele><time>2026-04-25T15:15:44.000Z</time><hdop>4.875</hdop><vdop>4.875</vdop><extensions><gom:speed>0.0</gom:speed></extensions></trkpt>
   <trkpt lat="59.0756857742" lon="29.9879015819"><ele>92.834</ele><time>2026-04-25T15:15:45.000Z</time><hdop>4.875</hdop><vdop>4.875</vdop><extensions><gom:speed>0.0</gom:speed></extensions></trkpt>
   <trkpt lat="59.0756857742" lon="29.9879015819"><ele>92.834</ele><time>2026-04-25T15:15:46.000Z</time><hdop>4.875</hdop><vdop>4.875</vdop><extensions><gom:speed>0.0</gom:speed></extensions></trkpt>
   <trkpt lat="59.0756857742" lon="29.9879015819"><ele>92.834</ele><time>2026-04-25T15:15:47.000Z</time><hdop>4.875</hdop><vdop>4.875</vdop><extensions><gom:speed>0.0</gom:speed></extensions></trkpt>
   <trkpt lat="59.0756857742" lon="29.9879015819"><ele>92.834</ele><time>2026-04-25T15:15:48.000Z</time><hdop>4.875</hdop><vdop>4.875</vdop><extensions><gom:speed>0.0</gom:speed></extensions></trkpt>
   <trkpt lat="59.0756857742" lon="29.9879015819"><ele>92.834</ele><time>2026-04-25T15:15:48.000Z</time><hdop>4.875</hdop><vdop>4.875</vdop><extensions><gom:speed>0.0</gom:speed></extensions></trkpt>
   <trkpt lat="59.0756857742" lon="29.9879015819"><ele>92.834</ele><time>2026-04-25T15:15:49.000Z</time><hdop>4.875</hdop><vdop>4.875</vdop><extensions><gom:speed>0.0</gom:speed></extensions></trkpt>
   <trkpt lat="59.0756857742" lon="29.9879015819"><ele>92.834</ele><time>2026-04-25T15:15:50.000Z</time><hdop>4.875</hdop><vdop>4.875</vdop><extensions><gom:speed>0.0</gom:speed></extensions></trkpt>
   <trkpt lat="59.0756857742" lon="29.9879015819"><ele>92.834</ele><time>2026-04-25T15:15:51.000Z</time><hdop>4.875</hdop><vdop>4.875</vdop><extensions><gom:speed>0.0</gom:speed></extensions></trkpt>
   <trkpt lat="59.0756857742" lon="29.9879015819"><ele>92.834</ele><time>2026-04-25T15:15:52.000Z</time><hdop>4.875</hdop><vdop>4.875</vdop><extensions><gom:speed>0.0</gom:speed></extensions></trkpt>
   <trkpt lat="59.0756857742" lon="29.9879015819"><ele>92.834</ele><time>2026-04-25T15:15:53.000Z</time><hdop>4.875</hdop><vdop>4.875</vdop><extensions><gom:speed>0.0</gom:speed></extensions></trkpt>
   <trkpt lat="59.0756857742" lon="29.9879015819"><ele>92.834</ele><time>2026-04-25T15:15:54.000Z</time><hdop>4.875</hdop><vdop>4.875</vdop><extensions><gom:speed>0.0</gom:speed></extensions></trkpt>
   <trkpt lat="59.0756857742" lon="29.9879015819"><ele>92.834</ele><time>2026-04-25T15:15:55.000Z</time><hdop>4.875</hdop><vdop>4.875</vdop><extensions><gom:speed>0.0</gom:speed></extensions></trkpt>
   <trkpt lat="59.0756857742" lon="29.9879015819"><ele>92.834</ele><time>2026-04-25T15:15:56.000Z</time><hdop>4.875</hdop><vdop>4.875</vdop><extensions><gom:speed>0.0</gom:speed></extensions></trkpt>
   <trkpt lat="59.0756857742" lon="29.9879015819"><ele>92.834</ele><time>2026-04-25T15:15:57.000Z</time><hdop>4.875</hdop><vdop>4.875</vdop><extensions><gom:speed>0.0</gom:speed></extensions></trkpt>
   <trkpt lat="59.0756857742" lon="29.9879015819"><ele>92.834</ele><time>2026-04-25T15:15:58.000Z</time><hdop>4.875</hdop><vdop>4.875</vdop><extensions><gom:speed>0.0</gom:speed></extensions></trkpt>
   <trkpt lat="59.0756857742" lon="29.9879015819"><ele>92.834</ele><time>2026-04-25T15:15:59.000Z</time><hdop>4.875</hdop><vdop>4.875</vdop><extensions><gom:speed>0.0</gom:speed></extensions></trkpt>
   <trkpt lat="59.0756857742" lon="29.9879015819"><ele>92.834</ele><time>2026-04-25T15:16:00.000Z</time><hdop>4.875</hdop><vdop>4.875</vdop><extensions><gom:speed>0.0</gom:speed></extensions></trkpt>
   <trkpt lat="59.0756857742" lon="29.9879015819"><ele>92.834</ele><time>2026-04-25T15:16:01.000Z</time><hdop>4.875</hdop><vdop>4.875</vdop><extensions><gom:speed>0.0</gom:speed></extensions></trkpt>
   <trkpt lat="59.0756857742" lon="29.9879015819"><ele>92.834</ele><time>2026-04-25T15:16:02.000Z</time><hdop>4.875</hdop><vdop>4.875</vdop><extensions><gom:speed>0.0</gom:speed></extensions></trkpt>
   <trkpt lat="59.0756857742" lon="29.9879015819"><ele>92.834</ele><time>2026-04-25T15:16:03.000Z</time><hdop>4.875</hdop><vdop>4.875</vdop><extensions><gom:speed>0.0</gom:speed></extensions></trkpt>
   <trkpt lat="59.0756857742" lon="29.9879015819"><ele>92.834</ele><time>2026-04-25T15:16:04.000Z</time><hdop>4.875</hdop><vdop>4.875</vdop><extensions><gom:speed>0.0</gom:speed></extensions></trkpt>
   <trkpt lat="59.0756857742" lon="29.9879015819"><ele>92.834</ele><time>2026-04-25T15:16:05.000Z</time><hdop>4.875</hdop><vdop>4.875</vdop><extensions><gom:speed>0.0</gom:speed></extensions></trkpt>
   <trkpt lat="59.0756857742" lon="29.9879015819"><ele>92.834</ele><time>2026-04-25T15:16:06.000Z</time><hdop>4.875</hdop><vdop>4.875</vdop><extensions><gom:speed>0.0</gom:speed></extensions></trkpt>
   <trkpt lat="59.0756857742" lon="29.9879015819"><ele>92.834</ele><time>2026-04-25T15:16:07.000Z</time><hdop>4.875</hdop><vdop>4.875</vdop><extensions><gom:speed>0.0</gom:speed></extensions></trkpt>
   <trkpt lat="59.0756857742" lon="29.9879015819"><ele>92.834</ele><time>2026-04-25T15:16:08.000Z</time><hdop>4.875</hdop><vdop>4.875</vdop><extensions><gom:speed>0.0</gom:speed></extensions></trkpt>
   <trkpt lat="59.0756857742" lon="29.9879015819"><ele>92.834</ele><time>2026-04-25T15:16:08.000Z</time><hdop>4.875</hdop><vdop>4.875</vdop><extensions><gom:speed>0.0</gom:speed></extensions></trkpt>
   <trkpt lat="59.0756857742" lon="29.9879015819"><ele>92.834</ele><time>2026-04-25T15:16:09.000Z</time><hdop>4.875</hdop><vdop>4.875</vdop><extensions><gom:speed>0.0</gom:speed></extensions></trkpt>
   <trkpt lat="59.0756857742" lon="29.9879015819"><ele>92.834</ele><time>2026-04-25T15:16:10.000Z</time><hdop>4.875</hdop><vdop>4.875</vdop><extensions><gom:speed>0.0</gom:speed></extensions></trkpt>
   <trkpt lat="59.0756857742" lon="29.9879015819"><ele>92.834</ele><time>2026-04-25T15:16:11.000Z</time><hdop>4.875</hdop><vdop>4.875</vdop><extensions><gom:speed>0.0</gom:speed></extensions></trkpt>
   <trkpt lat="59.0756857742" lon="29.9879015819"><ele>92.834</ele><time>2026-04-25T15:16:12.000Z</time><hdop>4.875</hdop><vdop>4.875</vdop><extensions><gom:speed>0.0</gom:speed></extensions></trkpt>
   <trkpt lat="59.0756857742" lon="29.9879015819"><ele>92.834</ele><time>2026-04-25T15:16:13.000Z</time><hdop>4.875</hdop><vdop>4.875</vdop><extensions><gom:speed>0.0</gom:speed></extensions></trkpt>
   <trkpt lat="59.0756857742" lon="29.9879015819"><ele>92.834</ele><time>2026-04-25T15:16:14.000Z</time><hdop>4.875</hdop><vdop>4.875</vdop><extensions><gom:speed>0.0</gom:speed></extensions></trkpt>
   <trkpt lat="59.0756857742" lon="29.9879015819"><ele>92.834</ele><time>2026-04-25T15:16:15.000Z</time><hdop>4.875</hdop><vdop>4.875</vdop><extensions><gom:speed>0.0</gom:speed></extensions></trkpt>
   <trkpt lat="59.0756857742" lon="29.9879015819"><ele>92.834</ele><time>2026-04-25T15:16:16.000Z</time><hdop>4.875</hdop><vdop>4.875</vdop><extensions><gom:speed>0.0</gom:speed></extensions></trkpt>
   <trkpt lat="59.0756857742" lon="29.9879015819"><ele>92.834</ele><time>2026-04-25T15:16:17.000Z</time><hdop>4.875</hdop><vdop>4.875</vdop><extensions><gom:speed>0.0</gom:speed></extensions></trkpt>
   <trkpt lat="59.0756857742" lon="29.9879015819"><ele>92.834</ele><time>2026-04-25T15:16:18.000Z</time><hdop>4.875</hdop><vdop>4.875</vdop><extensions><gom:speed>0.0</gom:speed></extensions></trkpt>
   <trkpt lat="59.0756857742" lon="29.9879015819"><ele>92.834</ele><time>2026-04-25T15:16:19.000Z</time><hdop>4.875</hdop><vdop>4.875</vdop><extensions><gom:speed>0.0</gom:speed></extensions></trkpt>
   <trkpt lat="59.0756857742" lon="29.9879015819"><ele>92.834</ele><time>2026-04-25T15:16:20.000Z</time><hdop>4.875</hdop><vdop>4.875</vdop><extensions><gom:speed>0.0</gom:speed></extensions></trkpt>
   <trkpt lat="59.0756857742" lon="29.9879015819"><ele>92.834</ele><time>2026-04-25T15:16:21.000Z</time><hdop>4.875</hdop><vdop>4.875</vdop><extensions><gom:speed>0.0</gom:speed></extensions></trkpt>
   <trkpt lat="59.0756857742" lon="29.9879015819"><ele>92.834</ele><time>2026-04-25T15:16:22.000Z</time><hdop>4.875</hdop><vdop>4.875</vdop><extensions><gom:speed>0.0</gom:speed></extensions></trkpt>
   <trkpt lat="59.0756857742" lon="29.9879015819"><ele>92.834</ele><time>2026-04-25T15:16:23.000Z</time><hdop>4.875</hdop><vdop>4.875</vdop><extensions><gom:speed>0.0</gom:speed></extensions></trkpt>
   <trkpt lat="59.0756857742" lon="29.9879015819"><ele>92.834</ele><time>2026-04-25T15:16:24.000Z</time><hdop>4.875</hdop><vdop>4.875</vdop><extensions><gom:speed>0.0</gom:speed></extensions></trkpt>
   <trkpt lat="59.0756857742" lon="29.9879015819"><ele>92.834</ele><time>2026-04-25T15:16:25.000Z</time><hdop>4.875</hdop><vdop>4.875</vdop><extensions><gom:speed>0.0</gom:speed></extensions></trkpt>
   <trkpt lat="59.0756857742" lon="29.9879015819"><ele>92.834</ele><time>2026-04-25T15:16:26.000Z</time><hdop>4.875</hdop><vdop>4.875</vdop><extensions><gom:speed>0.0</gom:speed></extensions></trkpt>
   <trkpt lat="59.0756857742" lon="29.9879015819"><ele>92.834</ele><time>2026-04-25T15:16:27.000Z</time><hdop>4.875</hdop><vdop>4.875</vdop><extensions><gom:speed>0.0</gom:speed></extensions></trkpt>
   <trkpt lat="59.0756857742" lon="29.9879015819"><ele>92.834</ele><time>2026-04-25T15:16:28.000Z</time><hdop>4.875</hdop><vdop>4.875</vdop><extensions><gom:speed>0.0</gom:speed></extensions></trkpt>
   <trkpt lat="59.0756857742" lon="29.9879015819"><ele>92.834</ele><time>2026-04-25T15:16:28.000Z</time><hdop>4.875</hdop><vdop>4.875</vdop><extensions><gom:speed>0.0</gom:speed></extensions></trkpt>
   <trkpt lat="59.0756857742" lon="29.9879015819"><ele>92.834</ele><time>2026-04-25T15:16:29.000Z</time><hdop>4.875</hdop><vdop>4.875</vdop><extensions><gom:speed>0.0</gom:speed></extensions></trkpt>
   <trkpt lat="59.0756857742" lon="29.9879015819"><ele>92.834</ele><time>2026-04-25T15:16:30.000Z</time><hdop>4.875</hdop><vdop>4.875</vdop><extensions><gom:speed>0.0</gom:speed></extensions></trkpt>
   <trkpt lat="59.0756857742" lon="29.9879015819"><ele>92.834</ele><time>2026-04-25T15:16:31.000Z</time><hdop>4.875</hdop><vdop>4.875</vdop><extensions><gom:speed>0.0</gom:speed></extensions></trkpt>
   <trkpt lat="59.0756857742" lon="29.9879015819"><ele>92.834</ele><time>2026-04-25T15:16:32.000Z</time><hdop>4.875</hdop><vdop>4.875</vdop><extensions><gom:speed>0.0</gom:speed></extensions></trkpt>
   <trkpt lat="59.0756857742" lon="29.9879015819"><ele>92.834</ele><time>2026-04-25T15:16:33.000Z</time><hdop>4.875</hdop><vdop>4.875</vdop><extensions><gom:speed>0.0</gom:speed></extensions></trkpt>
   <trkpt lat="59.0756857742" lon="29.9879015819"><ele>92.834</ele><time>2026-04-25T15:16:34.000Z</time><hdop>4.875</hdop><vdop>4.875</vdop><extensions><gom:speed>0.0</gom:speed></extensions></trkpt>
   <trkpt lat="59.0756857742" lon="29.9879015819"><ele>92.834</ele><time>2026-04-25T15:16:35.000Z</time><hdop>4.875</hdop><vdop>4.875</vdop><extensions><gom:speed>0.0</gom:speed></extensions></trkpt>
   <trkpt lat="59.0756857742" lon="29.9879015819"><ele>92.834</ele><time>2026-04-25T15:16:36.000Z</time><hdop>4.875</hdop><vdop>4.875</vdop><extensions><gom:speed>0.0</gom:speed></extensions></trkpt>
   <trkpt lat="59.0756857742" lon="29.9879015819"><ele>92.834</ele><time>2026-04-25T15:16:37.000Z</time><hdop>4.875</hdop><vdop>4.875</vdop><extensions><gom:speed>0.0</gom:speed></extensions></trkpt>
   <trkpt lat="59.0756857742" lon="29.9879015819"><ele>92.834</ele><time>2026-04-25T15:16:38.000Z</time><hdop>4.875</hdop><vdop>4.875</vdop><extensions><gom:speed>0.0</gom:speed></extensions></trkpt>
   <trkpt lat="59.0756857742" lon="29.9879015819"><ele>92.834</ele><time>2026-04-25T15:16:39.000Z</time><hdop>4.875</hdop><vdop>4.875</vdop><extensions><gom:speed>0.0</gom:speed></extensions></trkpt>
   <trkpt lat="59.0756857742" lon="29.9879015819"><ele>92.834</ele><time>2026-04-25T15:16:40.000Z</time><hdop>4.875</hdop><vdop>4.875</vdop><extensions><gom:speed>0.0</gom:speed></extensions></trkpt>
   <trkpt lat="59.0756857742" lon="29.9879015819"><ele>92.834</ele><time>2026-04-25T15:16:41.000Z</time><hdop>4.875</hdop><vdop>4.875</vdop><extensions><gom:speed>0.0</gom:speed></extensions></trkpt>
   <trkpt lat="59.0756857742" lon="29.9879015819"><ele>92.834</ele><time>2026-04-25T15:16:42.000Z</time><hdop>4.875</hdop><vdop>4.875</vdop><extensions><gom:speed>0.0</gom:speed></extensions></trkpt>
   <trkpt lat="59.0756857742" lon="29.9879015819"><ele>92.834</ele><time>2026-04-25T15:16:43.000Z</time><hdop>4.875</hdop><vdop>4.875</vdop><extensions><gom:speed>0.0</gom:speed></extensions></trkpt>
   <trkpt lat="59.0756857742" lon="29.9879015819"><ele>92.834</ele><time>2026-04-25T15:16:44.000Z</time><hdop>4.875</hdop><vdop>4.875</vdop><extensions><gom:speed>0.0</gom:speed></extensions></trkpt>
   <trkpt lat="59.0756857742" lon="29.9879015819"><ele>92.834</ele><time>2026-04-25T15:16:45.000Z</time><hdop>4.875</hdop><vdop>4.875</vdop><extensions><gom:speed>0.0</gom:speed></extensions></trkpt>
   <trkpt lat="59.0756857742" lon="29.9879015819"><ele>92.834</ele><time>2026-04-25T15:16:46.000Z</time><hdop>4.875</hdop><vdop>4.875</vdop><extensions><gom:speed>0.0</gom:speed></extensions></trkpt>
   <trkpt lat="59.0756857742" lon="29.9879015819"><ele>92.834</ele><time>2026-04-25T15:16:47.000Z</time><hdop>4.875</hdop><vdop>4.875</vdop><extensions><gom:speed>0.0</gom:speed></extensions></trkpt>
   <trkpt lat="59.0756857742" lon="29.9879015819"><ele>92.834</ele><time>2026-04-25T15:16:48.000Z</time><hdop>4.875</hdop><vdop>4.875</vdop><extensions><gom:speed>0.0</gom:speed></extensions></trkpt>
   <trkpt lat="59.0756857742" lon="29.9879015819"><ele>92.834</ele><time>2026-04-25T15:16:48.000Z</time><hdop>4.875</hdop><vdop>4.875</vdop><extensions><gom:speed>0.0</gom:speed></extensions></trkpt>
   <trkpt lat="59.0756857742" lon="29.9879015819"><ele>92.834</ele><time>2026-04-25T15:16:49.000Z</time><hdop>4.875</hdop><vdop>4.875</vdop><extensions><gom:speed>0.0</gom:speed></extensions></trkpt>
   <trkpt lat="59.0756857742" lon="29.9879015819"><ele>92.834</ele><time>2026-04-25T15:16:50.000Z</time><hdop>4.875</hdop><vdop>4.875</vdop><extensions><gom:speed>0.0</gom:speed></extensions></trkpt>
   <trkpt lat="59.0756857742" lon="29.9879015819"><ele>92.834</ele><time>2026-04-25T15:16:51.000Z</time><hdop>4.875</hdop><vdop>4.875</vdop><extensions><gom:speed>0.0</gom:speed></extensions></trkpt>
   <trkpt lat="59.0756857742" lon="29.9879015819"><ele>92.834</ele><time>2026-04-25T15:16:52.000Z</time><hdop>4.875</hdop><vdop>4.875</vdop><extensions><gom:speed>0.0</gom:speed></extensions></trkpt>
   <trkpt lat="59.0756857742" lon="29.9879015819"><ele>92.834</ele><time>2026-04-25T15:16:53.000Z</time><hdop>4.875</hdop><vdop>4.875</vdop><extensions><gom:speed>0.0</gom:speed></extensions></trkpt>
   <trkpt lat="59.0756857742" lon="29.9879015819"><ele>92.834</ele><time>2026-04-25T15:16:54.000Z</time><hdop>4.875</hdop><vdop>4.875</vdop><extensions><gom:speed>0.0</gom:speed></extensions></trkpt>
   <trkpt lat="59.0756857742" lon="29.9879015819"><ele>92.834</ele><time>2026-04-25T15:16:55.000Z</time><hdop>4.875</hdop><vdop>4.875</vdop><extensions><gom:speed>0.0</gom:speed></extensions></trkpt>
   <trkpt lat="59.0756857742" lon="29.9879015819"><ele>92.834</ele><time>2026-04-25T15:16:56.000Z</time><hdop>4.875</hdop><vdop>4.875</vdop><extensions><gom:speed>0.0</gom:speed></extensions></trkpt>
   <trkpt lat="59.0756857742" lon="29.9879015819"><ele>92.834</ele><time>2026-04-25T15:16:57.000Z</time><hdop>4.875</hdop><vdop>4.875</vdop><extensions><gom:speed>0.0</gom:speed></extensions></trkpt>
   <trkpt lat="59.0756857742" lon="29.9879015819"><ele>92.834</ele><time>2026-04-25T15:16:58.000Z</time><hdop>4.875</hdop><vdop>4.875</vdop><extensions><gom:speed>0.0</gom:speed></extensions></trkpt>
   <trkpt lat="59.0756857742" lon="29.9879015819"><ele>92.834</ele><time>2026-04-25T15:16:59.000Z</time><hdop>4.875</hdop><vdop>4.875</vdop><extensions><gom:speed>0.0</gom:speed></extensions></trkpt>
   <trkpt lat="59.0756857742" lon="29.9879015819"><ele>92.834</ele><time>2026-04-25T15:17:00.000Z</time><hdop>4.875</hdop><vdop>4.875</vdop><extensions><gom:speed>0.0</gom:speed></extensions></trkpt>
   <trkpt lat="59.0756857742" lon="29.9879015819"><ele>92.834</ele><time>2026-04-25T15:17:01.000Z</time><hdop>4.875</hdop><vdop>4.875</vdop><extensions><gom:speed>0.0</gom:speed></extensions></trkpt>
   <trkpt lat="59.0756857742" lon="29.9879015819"><ele>92.834</ele><time>2026-04-25T15:17:02.000Z</time><hdop>4.875</hdop><vdop>4.875</vdop><extensions><gom:speed>0.0</gom:speed></extensions></trkpt>
   <trkpt lat="59.0756857742" lon="29.9879015819"><ele>92.834</ele><time>2026-04-25T15:17:03.000Z</time><hdop>4.875</hdop><vdop>4.875</vdop><extensions><gom:speed>0.0</gom:speed></extensions></trkpt>
   <trkpt lat="59.0756857742" lon="29.9879015819"><ele>92.834</ele><time>2026-04-25T15:17:04.000Z</time><hdop>4.875</hdop><vdop>4.875</vdop><extensions><gom:speed>0.0</gom:speed></extensions></trkpt>
   <trkpt lat="59.0756857742" lon="29.9879015819"><ele>92.834</ele><time>2026-04-25T15:17:05.000Z</time><hdop>4.875</hdop><vdop>4.875</vdop><extensions><gom:speed>0.0</gom:speed></extensions></trkpt>
   <trkpt lat="59.0756857742" lon="29.9879015819"><ele>92.834</ele><time>2026-04-25T15:17:06.000Z</time><hdop>4.875</hdop><vdop>4.875</vdop><extensions><gom:speed>0.0</gom:speed></extensions></trkpt>
   <trkpt lat="59.0756857742" lon="29.9879015819"><ele>92.834</ele><time>2026-04-25T15:17:07.000Z</time><hdop>4.875</hdop><vdop>4.875</vdop><extensions><gom:speed>0.0</gom:speed></extensions></trkpt>
   <trkpt lat="59.0756857742" lon="29.9879015819"><ele>92.834</ele><time>2026-04-25T15:17:08.000Z</time><hdop>4.875</hdop><vdop>4.875</vdop><extensions><gom:speed>0.0</gom:speed></extensions></trkpt>
   <trkpt lat="59.0756857742" lon="29.9879015819"><ele>92.834</ele><time>2026-04-25T15:17:08.000Z</time><hdop>4.875</hdop><vdop>4.875</vdop><extensions><gom:speed>0.0</gom:speed></extensions></trkpt>
   <trkpt lat="59.0756857742" lon="29.9879015819"><ele>92.834</ele><time>2026-04-25T15:17:09.000Z</time><hdop>4.875</hdop><vdop>4.875</vdop><extensions><gom:speed>0.0</gom:speed></extensions></trkpt>
   <trkpt lat="59.0756857742" lon="29.9879015819"><ele>92.834</ele><time>2026-04-25T15:17:10.000Z</time><hdop>4.875</hdop><vdop>4.875</vdop><extensions><gom:speed>0.0</gom:speed></extensions></trkpt>
   <trkpt lat="59.0756857742" lon="29.9879015819"><ele>92.834</ele><time>2026-04-25T15:17:11.000Z</time><hdop>4.875</hdop><vdop>4.875</vdop><extensions><gom:speed>0.0</gom:speed></extensions></trkpt>
   <trkpt lat="59.0756857742" lon="29.9879015819"><ele>92.834</ele><time>2026-04-25T15:17:12.000Z</time><hdop>4.875</hdop><vdop>4.875</vdop><extensions><gom:speed>0.0</gom:speed></extensions></trkpt>
   <trkpt lat="59.0756857742" lon="29.9879015819"><ele>92.834</ele><time>2026-04-25T15:17:13.000Z</time><hdop>4.875</hdop><vdop>4.875</vdop><extensions><gom:speed>0.0</gom:speed></extensions></trkpt>
   <trkpt lat="59.0756857742" lon="29.9879015819"><ele>92.834</ele><time>2026-04-25T15:17:14.000Z</time><hdop>4.875</hdop><vdop>4.875</vdop><extensions><gom:speed>0.0</gom:speed></extensions></trkpt>
   <trkpt lat="59.0756857742" lon="29.9879015819"><ele>92.834</ele><time>2026-04-25T15:17:15.000Z</time><hdop>4.875</hdop><vdop>4.875</vdop><extensions><gom:speed>0.0</gom:speed></extensions></trkpt>
   <trkpt lat="59.0756857742" lon="29.9879015819"><ele>92.834</ele><time>2026-04-25T15:17:16.000Z</time><hdop>4.875</hdop><vdop>4.875</vdop><extensions><gom:speed>0.0</gom:speed></extensions></trkpt>
   <trkpt lat="59.0756857742" lon="29.9879015819"><ele>92.834</ele><time>2026-04-25T15:17:17.000Z</time><hdop>4.875</hdop><vdop>4.875</vdop><extensions><gom:speed>0.0</gom:speed></extensions></trkpt>
   <trkpt lat="59.0756871153" lon="29.9878999893"><ele>92.773</ele><time>2026-04-25T15:17:18.000Z</time><hdop>4.75</hdop><vdop>4.75</vdop><extensions><gom:speed>0.47</gom:speed></extensions></trkpt>
   <trkpt lat="59.0756912224" lon="29.9878970556"><ele>92.718</ele><time>2026-04-25T15:17:19.000Z</time><hdop>4.375</hdop><vdop>4.375</vdop><extensions><gom:speed>0.568</gom:speed></extensions></trkpt>
   <trkpt lat="59.0756912224" lon="29.9878970556"><ele>92.685</ele><time>2026-04-25T15:17:20.000Z</time><hdop>4.375</hdop><vdop>4.375</vdop><extensions><gom:speed>0.0</gom:speed></extensions></trkpt>
   <trkpt lat="59.0756943656" lon="29.9878983129"><ele>92.666</ele><time>2026-04-25T15:17:21.000Z</time><hdop>3.937</hdop><vdop>3.937</vdop><extensions><gom:speed>0.614</gom:speed></extensions></trkpt>
   <trkpt lat="59.0756943656" lon="29.9878983129"><ele>92.654</ele><time>2026-04-25T15:17:22.000Z</time><hdop>3.937</hdop><vdop>3.937</vdop><extensions><gom:speed>0.0</gom:speed></extensions></trkpt>
   <trkpt lat="59.0756943656" lon="29.9878983129"><ele>92.647</ele><time>2026-04-25T15:17:23.000Z</time><hdop>3.937</hdop><vdop>3.937</vdop><extensions><gom:speed>0.0</gom:speed></extensions></trkpt>
   <trkpt lat="59.0756943656" lon="29.9878983129"><ele>92.643</ele><time>2026-04-25T15:17:24.000Z</time><hdop>3.937</hdop><vdop>3.937</vdop><extensions><gom:speed>0.0</gom:speed></extensions></trkpt>
   <trkpt lat="59.0757002749" lon="29.9878999893"><ele>92.632</ele><time>2026-04-25T15:17:25.000Z</time><hdop>4.125</hdop><vdop>4.125</vdop><extensions><gom:speed>0.944</gom:speed></extensions></trkpt>
   <trkpt lat="59.0757102912" lon="29.9879026715"><ele>92.615</ele><time>2026-04-25T15:17:26.000Z</time><hdop>3.75</hdop><vdop>3.75</vdop><extensions><gom:speed>0.865</gom:speed></extensions></trkpt>
   <trkpt lat="59.0757102912" lon="29.9879026715"><ele>92.605</ele><time>2026-04-25T15:17:27.000Z</time><hdop>3.75</hdop><vdop>3.75</vdop><extensions><gom:speed>0.0</gom:speed></extensions></trkpt>
   <trkpt lat="59.0757102912" lon="29.9879026715"><ele>92.599</ele><time>2026-04-25T15:17:28.000Z</time><hdop>3.75</hdop><vdop>3.75</vdop><extensions><gom:speed>0.0</gom:speed></extensions></trkpt>
   <trkpt lat="59.0757102912" lon="29.9879026715"><ele>92.596</ele><time>2026-04-25T15:17:28.000Z</time><hdop>3.75</hdop><vdop>3.75</vdop><extensions><gom:speed>0.0</gom:speed></extensions></trkpt>
   <trkpt lat="59.075719218" lon="29.9879057728"><ele>92.608</ele><time>2026-04-25T15:17:29.000Z</time><hdop>4.25</hdop><vdop>4.25</vdop><extensions><gom:speed>1.114</gom:speed></extensions></trkpt>
   <trkpt lat="59.0757341378" lon="29.9879121431"><ele>92.665</ele><time>2026-04-25T15:17:30.000Z</time><hdop>4.125</hdop><vdop>4.125</vdop><extensions><gom:speed>0.994</gom:speed></extensions></trkpt>
   <trkpt lat="59.0757457467" lon="29.9879170046"><ele>92.741</ele><time>2026-04-25T15:17:31.000Z</time><hdop>3.75</hdop><vdop>3.75</vdop><extensions><gom:speed>0.732</gom:speed></extensions></trkpt>
   <trkpt lat="59.0757457467" lon="29.9879170046"><ele>92.786</ele><time>2026-04-25T15:17:32.000Z</time><hdop>3.75</hdop><vdop>3.75</vdop><extensions><gom:speed>0.0</gom:speed></extensions></trkpt>
   <trkpt lat="59.0757500634" lon="29.9879212793"><ele>92.779</ele><time>2026-04-25T15:17:33.000Z</time><hdop>3.562</hdop><vdop>3.562</vdop><extensions><gom:speed>0.486</gom:speed></extensions></trkpt>
   <trkpt lat="59.0757576909" lon="29.9879247997"><ele>92.753</ele><time>2026-04-25T15:17:34.000Z</time><hdop>3.437</hdop><vdop>3.437</vdop><extensions><gom:speed>0.911</gom:speed></extensions></trkpt>
   <trkpt lat="59.0757680426" lon="29.987929326"><ele>92.713</ele><time>2026-04-25T15:17:35.000Z</time><hdop>3.187</hdop><vdop>3.187</vdop><extensions><gom:speed>0.781</gom:speed></extensions></trkpt>
   <trkpt lat="59.0757680426" lon="29.987929326"><ele>92.69</ele><time>2026-04-25T15:17:36.000Z</time><hdop>3.187</hdop><vdop>3.187</vdop><extensions><gom:speed>0.0</gom:speed></extensions></trkpt>
   <trkpt lat="59.0757680426" lon="29.987929326"><ele>92.675</ele><time>2026-04-25T15:17:37.000Z</time><hdop>3.187</hdop><vdop>3.187</vdop><extensions><gom:speed>0.0</gom:speed></extensions></trkpt>
   <trkpt lat="59.0757680426" lon="29.987929326"><ele>92.667</ele><time>2026-04-25T15:17:38.000Z</time><hdop>3.187</hdop><vdop>3.187</vdop><extensions><gom:speed>0.0</gom:speed></extensions></trkpt>
   <trkpt lat="59.0757680426" lon="29.987929326"><ele>92.662</ele><time>2026-04-25T15:17:39.000Z</time><hdop>3.187</hdop><vdop>3.187</vdop><extensions><gom:speed>0.0</gom:speed></extensions></trkpt>
   <trkpt lat="59.0757680426" lon="29.987929326"><ele>92.659</ele><time>2026-04-25T15:17:40.000Z</time><hdop>3.187</hdop><vdop>3.187</vdop><extensions><gom:speed>0.0</gom:speed></extensions></trkpt>
   <trkpt lat="59.0757680426" lon="29.987929326"><ele>92.657</ele><time>2026-04-25T15:17:41.000Z</time><hdop>3.187</hdop><vdop>3.187</vdop><extensions><gom:speed>0.0</gom:speed></extensions></trkpt>
   <trkpt lat="59.0757680426" lon="29.987929326"><ele>92.656</ele><time>2026-04-25T15:17:42.000Z</time><hdop>3.187</hdop><vdop>3.187</vdop><extensions><gom:speed>0.0</gom:speed></extensions></trkpt>
   <trkpt lat="59.0757680426" lon="29.987929326"><ele>92.655</ele><time>2026-04-25T15:17:43.000Z</time><hdop>3.187</hdop><vdop>3.187</vdop><extensions><gom:speed>0.0</gom:speed></extensions></trkpt>
   <trkpt lat="59.0757680426" lon="29.987929326"><ele>92.655</ele><time>2026-04-25T15:17:44.000Z</time><hdop>3.187</hdop><vdop>3.187</vdop><extensions><gom:speed>0.0</gom:speed></extensions></trkpt>
   <trkpt lat="59.0757680426" lon="29.987929326"><ele>92.655</ele><time>2026-04-25T15:17:45.000Z</time><hdop>3.187</hdop><vdop>3.187</vdop><extensions><gom:speed>0.0</gom:speed></extensions></trkpt>
   <trkpt lat="59.0757680426" lon="29.987929326"><ele>92.654</ele><time>2026-04-25T15:17:46.000Z</time><hdop>3.187</hdop><vdop>3.187</vdop><extensions><gom:speed>0.0</gom:speed></extensions></trkpt>
   <trkpt lat="59.0757680426" lon="29.987929326"><ele>92.654</ele><time>2026-04-25T15:17:47.000Z</time><hdop>3.187</hdop><vdop>3.187</vdop><extensions><gom:speed>0.0</gom:speed></extensions></trkpt>
   <trkpt lat="59.0757680426" lon="29.987929326"><ele>92.654</ele><time>2026-04-25T15:17:48.000Z</time><hdop>3.187</hdop><vdop>3.187</vdop><extensions><gom:speed>0.0</gom:speed></extensions></trkpt>
   <trkpt lat="59.0757680426" lon="29.987929326"><ele>92.654</ele><time>2026-04-25T15:17:48.000Z</time><hdop>3.187</hdop><vdop>3.187</vdop><extensions><gom:speed>0.0</gom:speed></extensions></trkpt>
   <trkpt lat="59.0757680426" lon="29.987929326"><ele>92.654</ele><time>2026-04-25T15:17:49.000Z</time><hdop>3.187</hdop><vdop>3.187</vdop><extensions><gom:speed>0.0</gom:speed></extensions></trkpt>
   <trkpt lat="59.0757680426" lon="29.987929326"><ele>92.654</ele><time>2026-04-25T15:17:50.000Z</time><hdop>3.187</hdop><vdop>3.187</vdop><extensions><gom:speed>0.0</gom:speed></extensions></trkpt>
   <trkpt lat="59.0757680426" lon="29.987929326"><ele>92.654</ele><time>2026-04-25T15:17:51.000Z</time><hdop>3.187</hdop><vdop>3.187</vdop><extensions><gom:speed>0.0</gom:speed></extensions></trkpt>
   <trkpt lat="59.0757680426" lon="29.987929326"><ele>92.654</ele><time>2026-04-25T15:17:52.000Z</time><hdop>3.187</hdop><vdop>3.187</vdop><extensions><gom:speed>0.0</gom:speed></extensions></trkpt>
   <trkpt lat="59.0757680426" lon="29.987929326"><ele>92.654</ele><time>2026-04-25T15:17:53.000Z</time><hdop>3.187</hdop><vdop>3.187</vdop><extensions><gom:speed>0.0</gom:speed></extensions></trkpt>
   <trkpt lat="59.0757680426" lon="29.987929326"><ele>92.654</ele><time>2026-04-25T15:17:54.000Z</time><hdop>3.187</hdop><vdop>3.187</vdop><extensions><gom:speed>0.0</gom:speed></extensions></trkpt>
   <trkpt lat="59.0757680426" lon="29.987929326"><ele>92.654</ele><time>2026-04-25T15:17:55.000Z</time><hdop>3.187</hdop><vdop>3.187</vdop><extensions><gom:speed>0.0</gom:speed></extensions></trkpt>
   <trkpt lat="59.0757680426" lon="29.987929326"><ele>92.654</ele><time>2026-04-25T15:17:56.000Z</time><hdop>3.187</hdop><vdop>3.187</vdop><extensions><gom:speed>0.0</gom:speed></extensions></trkpt>
   <trkpt lat="59.0757680426" lon="29.987929326"><ele>92.654</ele><time>2026-04-25T15:17:57.000Z</time><hdop>3.187</hdop><vdop>3.187</vdop><extensions><gom:speed>0.0</gom:speed></extensions></trkpt>
   <trkpt lat="59.0757680426" lon="29.987929326"><ele>92.654</ele><time>2026-04-25T15:17:58.000Z</time><hdop>3.187</hdop><vdop>3.187</vdop><extensions><gom:speed>0.0</gom:speed></extensions></trkpt>
   <trkpt lat="59.0757680426" lon="29.987929326"><ele>92.654</ele><time>2026-04-25T15:17:59.000Z</time><hdop>3.187</hdop><vdop>3.187</vdop><extensions><gom:speed>0.0</gom:speed></extensions></trkpt>
   <trkpt lat="59.0757680426" lon="29.987929326"><ele>92.654</ele><time>2026-04-25T15:18:00.000Z</time><hdop>3.187</hdop><vdop>3.187</vdop><extensions><gom:speed>0.0</gom:speed></extensions></trkpt>
   <trkpt lat="59.0757680426" lon="29.987929326"><ele>92.654</ele><time>2026-04-25T15:18:01.000Z</time><hdop>3.187</hdop><vdop>3.187</vdop><extensions><gom:speed>0.0</gom:speed></extensions></trkpt>
   <trkpt lat="59.0757680426" lon="29.987929326"><ele>92.654</ele><time>2026-04-25T15:18:02.000Z</time><hdop>3.187</hdop><vdop>3.187</vdop><extensions><gom:speed>0.0</gom:speed></extensions></trkpt>
   <trkpt lat="59.0757680426" lon="29.987929326"><ele>92.654</ele><time>2026-04-25T15:18:03.000Z</time><hdop>3.187</hdop><vdop>3.187</vdop><extensions><gom:speed>0.0</gom:speed></extensions></trkpt>
   <trkpt lat="59.0757680426" lon="29.987929326"><ele>92.654</ele><time>2026-04-25T15:18:04.000Z</time><hdop>3.187</hdop><vdop>3.187</vdop><extensions><gom:speed>0.0</gom:speed></extensions></trkpt>
   <trkpt lat="59.0757680426" lon="29.987929326"><ele>92.654</ele><time>2026-04-25T15:18:05.000Z</time><hdop>3.187</hdop><vdop>3.187</vdop><extensions><gom:speed>0.0</gom:speed></extensions></trkpt>
   <trkpt lat="59.0757666176" lon="29.9879272305"><ele>92.681</ele><time>2026-04-25T15:18:06.000Z</time><hdop>3.5</hdop><vdop>3.5</vdop><extensions><gom:speed>0.501</gom:speed></extensions></trkpt>
   <trkpt lat="59.0757666176" lon="29.9879272305"><ele>92.696</ele><time>2026-04-25T15:18:07.000Z</time><hdop>3.5</hdop><vdop>3.5</vdop><extensions><gom:speed>0.0</gom:speed></extensions></trkpt>
   <trkpt lat="59.0757644383" lon="29.9879229557"><ele>92.755</ele><time>2026-04-25T15:18:08.000Z</time><hdop>4.187</hdop><vdop>4.187</vdop><extensions><gom:speed>0.855</gom:speed></extensions></trkpt>
   <trkpt lat="59.0757644383" lon="29.9879229557"><ele>92.791</ele><time>2026-04-25T15:18:08.000Z</time><hdop>4.187</hdop><vdop>4.187</vdop><extensions><gom:speed>0.855</gom:speed></extensions></trkpt>
   <trkpt lat="59.0757644383" lon="29.9879229557"><ele>92.812</ele><time>2026-04-25T15:18:09.000Z</time><hdop>4.187</hdop><vdop>4.187</vdop><extensions><gom:speed>0.0</gom:speed></extensions></trkpt>
   <trkpt lat="59.0757644802" lon="29.9879175075"><ele>92.773</ele><time>2026-04-25T15:18:10.000Z</time><hdop>4.25</hdop><vdop>4.25</vdop><extensions><gom:speed>0.535</gom:speed></extensions></trkpt>
   <trkpt lat="59.075760876" lon="29.9879089579"><ele>92.709</ele><time>2026-04-25T15:18:11.000Z</time><hdop>3.937</hdop><vdop>3.937</vdop><extensions><gom:speed>0.531</gom:speed></extensions></trkpt>
   <trkpt lat="59.0757586129" lon="29.9879040126"><ele>92.636</ele><time>2026-04-25T15:18:12.000Z</time><hdop>3.75</hdop><vdop>3.75</vdop><extensions><gom:speed>0.455</gom:speed></extensions></trkpt>
   <trkpt lat="59.075757188" lon="29.987899654"><ele>92.558</ele><time>2026-04-25T15:18:13.000Z</time><hdop>3.375</hdop><vdop>3.375</vdop><extensions><gom:speed>0.324</gom:speed></extensions></trkpt>
   <trkpt lat="59.075756266" lon="29.9878954631"><ele>92.507</ele><time>2026-04-25T15:18:14.000Z</time><hdop>3.25</hdop><vdop>3.25</vdop><extensions><gom:speed>0.357</gom:speed></extensions></trkpt>
   <trkpt lat="59.0757566432" lon="29.9878905178"><ele>92.461</ele><time>2026-04-25T15:18:15.000Z</time><hdop>3.0</hdop><vdop>3.0</vdop><extensions><gom:speed>0.354</gom:speed></extensions></trkpt>
   <trkpt lat="59.0757575233" lon="29.9878866621"><ele>92.407</ele><time>2026-04-25T15:18:16.000Z</time><hdop>3.0</hdop><vdop>3.0</vdop><extensions><gom:speed>0.216</gom:speed></extensions></trkpt>
   <trkpt lat="59.0757575233" lon="29.9878866621"><ele>92.374</ele><time>2026-04-25T15:18:17.000Z</time><hdop>3.0</hdop><vdop>3.0</vdop><extensions><gom:speed>0.0</gom:speed></extensions></trkpt>
   <trkpt lat="59.0757575233" lon="29.9878866621"><ele>92.355</ele><time>2026-04-25T15:18:18.000Z</time><hdop>3.0</hdop><vdop>3.0</vdop><extensions><gom:speed>0.0</gom:speed></extensions></trkpt>
   <trkpt lat="59.0757575233" lon="29.9878866621"><ele>92.344</ele><time>2026-04-25T15:18:19.000Z</time><hdop>3.0</hdop><vdop>3.0</vdop><extensions><gom:speed>0.0</gom:speed></extensions></trkpt>
   <trkpt lat="59.0757575233" lon="29.9878866621"><ele>92.337</ele><time>2026-04-25T15:18:20.000Z</time><hdop>3.0</hdop><vdop>3.0</vdop><extensions><gom:speed>0.0</gom:speed></extensions></trkpt>
   <trkpt lat="59.0757575233" lon="29.9878866621"><ele>92.333</ele><time>2026-04-25T15:18:21.000Z</time><hdop>3.0</hdop><vdop>3.0</vdop><extensions><gom:speed>0.0</gom:speed></extensions></trkpt>
   <trkpt lat="59.0757575233" lon="29.9878866621"><ele>92.33</ele><time>2026-04-25T15:18:22.000Z</time><hdop>3.0</hdop><vdop>3.0</vdop><extensions><gom:speed>0.0</gom:speed></extensions></trkpt>
   <trkpt lat="59.0757575233" lon="29.9878866621"><ele>92.329</ele><time>2026-04-25T15:18:23.000Z</time><hdop>3.0</hdop><vdop>3.0</vdop><extensions><gom:speed>0.0</gom:speed></extensions></trkpt>
   <trkpt lat="59.0757575233" lon="29.9878866621"><ele>92.328</ele><time>2026-04-25T15:18:24.000Z</time><hdop>3.0</hdop><vdop>3.0</vdop><extensions><gom:speed>0.0</gom:speed></extensions></trkpt>
   <trkpt lat="59.0757575233" lon="29.9878866621"><ele>92.327</ele><time>2026-04-25T15:18:25.000Z</time><hdop>3.0</hdop><vdop>3.0</vdop><extensions><gom:speed>0.0</gom:speed></extensions></trkpt>
   <trkpt lat="59.0757575233" lon="29.9878866621"><ele>92.327</ele><time>2026-04-25T15:18:26.000Z</time><hdop>3.0</hdop><vdop>3.0</vdop><extensions><gom:speed>0.0</gom:speed></extensions></trkpt>
   <trkpt lat="59.0757575233" lon="29.9878866621"><ele>92.327</ele><time>2026-04-25T15:18:27.000Z</time><hdop>3.0</hdop><vdop>3.0</vdop><extensions><gom:speed>0.0</gom:speed></extensions></trkpt>
   <trkpt lat="59.0757575233" lon="29.9878866621"><ele>92.327</ele><time>2026-04-25T15:18:28.000Z</time><hdop>3.0</hdop><vdop>3.0</vdop><extensions><gom:speed>0.0</gom:speed></extensions></trkpt>
   <trkpt lat="59.0757575233" lon="29.9878866621"><ele>92.327</ele><time>2026-04-25T15:18:28.000Z</time><hdop>3.0</hdop><vdop>3.0</vdop><extensions><gom:speed>0.0</gom:speed></extensions></trkpt>
   <trkpt lat="59.0757579843" lon="29.9878909368"><ele>92.268</ele><time>2026-04-25T15:18:29.000Z</time><hdop>3.0</hdop><vdop>3.0</vdop><extensions><gom:speed>0.502</gom:speed></extensions></trkpt>
   <trkpt lat="59.0757579843" lon="29.9878909368"><ele>92.233</ele><time>2026-04-25T15:18:30.000Z</time><hdop>3.0</hdop><vdop>3.0</vdop><extensions><gom:speed>0.0</gom:speed></extensions></trkpt>
   <trkpt lat="59.0757579843" lon="29.9878909368"><ele>92.213</ele><time>2026-04-25T15:18:31.000Z</time><hdop>3.0</hdop><vdop>3.0</vdop><extensions><gom:speed>0.0</gom:speed></extensions></trkpt>
   <trkpt lat="59.0757579843" lon="29.9878909368"><ele>92.2</ele><time>2026-04-25T15:18:32.000Z</time><hdop>3.0</hdop><vdop>3.0</vdop><extensions><gom:speed>0.0</gom:speed></extensions></trkpt>
   <trkpt lat="59.0757593673" lon="29.9879023362"><ele>92.143</ele><time>2026-04-25T15:18:33.000Z</time><hdop>3.0</hdop><vdop>3.0</vdop><extensions><gom:speed>0.508</gom:speed></extensions></trkpt>
   <trkpt lat="59.0757605408" lon="29.9879154958"><ele>92.035</ele><time>2026-04-25T15:18:34.000Z</time><hdop>3.0</hdop><vdop>3.0</vdop><extensions><gom:speed>0.412</gom:speed></extensions></trkpt>
   <trkpt lat="59.0757619238" lon="29.9879254703"><ele>91.894</ele><time>2026-04-25T15:18:35.000Z</time><hdop>3.0</hdop><vdop>3.0</vdop><extensions><gom:speed>0.279</gom:speed></extensions></trkpt>
   <trkpt lat="59.0757633906" lon="29.9879329302"><ele>91.764</ele><time>2026-04-25T15:18:36.000Z</time><hdop>3.0</hdop><vdop>3.0</vdop><extensions><gom:speed>0.288</gom:speed></extensions></trkpt>
   <trkpt lat="59.0757633487" lon="29.9879382946"><ele>91.663</ele><time>2026-04-25T15:18:37.000Z</time><hdop>3.0</hdop><vdop>3.0</vdop><extensions><gom:speed>0.153</gom:speed></extensions></trkpt>
   <trkpt lat="59.0757633487" lon="29.9879382946"><ele>91.603</ele><time>2026-04-25T15:18:38.000Z</time><hdop>3.0</hdop><vdop>3.0</vdop><extensions><gom:speed>0.0</gom:speed></extensions></trkpt>
   <trkpt lat="59.0757633487" lon="29.9879382946"><ele>91.568</ele><time>2026-04-25T15:18:39.000Z</time><hdop>3.0</hdop><vdop>3.0</vdop><extensions><gom:speed>0.0</gom:speed></extensions></trkpt>
   <trkpt lat="59.0757633487" lon="29.9879382946"><ele>91.546</ele><time>2026-04-25T15:18:40.000Z</time><hdop>3.0</hdop><vdop>3.0</vdop><extensions><gom:speed>0.0</gom:speed></extensions></trkpt>
   <trkpt lat="59.0757633487" lon="29.9879382946"><ele>91.533</ele><time>2026-04-25T15:18:41.000Z</time><hdop>3.0</hdop><vdop>3.0</vdop><extensions><gom:speed>0.0</gom:speed></extensions></trkpt>
   <trkpt lat="59.0757633487" lon="29.9879382946"><ele>91.526</ele><time>2026-04-25T15:18:42.000Z</time><hdop>3.0</hdop><vdop>3.0</vdop><extensions><gom:speed>0.0</gom:speed></extensions></trkpt>
   <trkpt lat="59.0757642707" lon="29.987933936"><ele>91.49</ele><time>2026-04-25T15:18:43.000Z</time><hdop>3.0</hdop><vdop>3.0</vdop><extensions><gom:speed>0.479</gom:speed></extensions></trkpt>
   <trkpt lat="59.0757649832" lon="29.9879253027"><ele>91.445</ele><time>2026-04-25T15:18:44.000Z</time><hdop>3.0</hdop><vdop>3.0</vdop><extensions><gom:speed>0.533</gom:speed></extensions></trkpt>
   <trkpt lat="59.0757644802" lon="29.9879148253"><ele>91.399</ele><time>2026-04-25T15:18:45.000Z</time><hdop>3.0</hdop><vdop>3.0</vdop><extensions><gom:speed>0.69</gom:speed></extensions></trkpt>
   <trkpt lat="59.0757637678" lon="29.9879025039"><ele>91.362</ele><time>2026-04-25T15:18:46.000Z</time><hdop>3.0</hdop><vdop>3.0</vdop><extensions><gom:speed>0.952</gom:speed></extensions></trkpt>
   <trkpt lat="59.0757631391" lon="29.9878873326"><ele>91.313</ele><time>2026-04-25T15:18:47.000Z</time><hdop>3.0</hdop><vdop>3.0</vdop><extensions><gom:speed>0.919</gom:speed></extensions></trkpt>
   <trkpt lat="59.0757628458" lon="29.9878773582"><ele>91.266</ele><time>2026-04-25T15:18:48.000Z</time><hdop>3.0</hdop><vdop>3.0</vdop><extensions><gom:speed>0.481</gom:speed></extensions></trkpt>
   <trkpt lat="59.0757628458" lon="29.9878773582"><ele>91.239</ele><time>2026-04-25T15:18:48.000Z</time><hdop>3.0</hdop><vdop>3.0</vdop><extensions><gom:speed>0.481</gom:speed></extensions></trkpt>
   <trkpt lat="59.0757642707" lon="29.9878708203"><ele>91.23</ele><time>2026-04-25T15:18:49.000Z</time><hdop>3.0</hdop><vdop>3.0</vdop><extensions><gom:speed>0.623</gom:speed></extensions></trkpt>
   <trkpt lat="59.0757669529" lon="29.9878605944"><ele>91.233</ele><time>2026-04-25T15:18:50.000Z</time><hdop>3.0</hdop><vdop>3.0</vdop><extensions><gom:speed>0.732</gom:speed></extensions></trkpt>
   <trkpt lat="59.0757697189" lon="29.9878485244"><ele>91.217</ele><time>2026-04-25T15:18:51.000Z</time><hdop>3.0</hdop><vdop>3.0</vdop><extensions><gom:speed>0.792</gom:speed></extensions></trkpt>
   <trkpt lat="59.0757736584" lon="29.9878397234"><ele>91.246</ele><time>2026-04-25T15:18:52.000Z</time><hdop>3.0</hdop><vdop>3.0</vdop><extensions><gom:speed>0.508</gom:speed></extensions></trkpt>
   <trkpt lat="59.0757765502" lon="29.9878377118"><ele>91.266</ele><time>2026-04-25T15:18:53.000Z</time><hdop>3.0</hdop><vdop>3.0</vdop><extensions><gom:speed>0.167</gom:speed></extensions></trkpt>
   <trkpt lat="59.0757765502" lon="29.9878377118"><ele>91.278</ele><time>2026-04-25T15:18:54.000Z</time><hdop>3.0</hdop><vdop>3.0</vdop><extensions><gom:speed>0.0</gom:speed></extensions></trkpt>
   <trkpt lat="59.0757765502" lon="29.9878377118"><ele>91.284</ele><time>2026-04-25T15:18:55.000Z</time><hdop>3.0</hdop><vdop>3.0</vdop><extensions><gom:speed>0.0</gom:speed></extensions></trkpt>
   <trkpt lat="59.0757765502" lon="29.9878377118"><ele>91.289</ele><time>2026-04-25T15:18:56.000Z</time><hdop>3.0</hdop><vdop>3.0</vdop><extensions><gom:speed>0.0</gom:speed></extensions></trkpt>
   <trkpt lat="59.0757765502" lon="29.9878377118"><ele>91.291</ele><time>2026-04-25T15:18:57.000Z</time><hdop>3.0</hdop><vdop>3.0</vdop><extensions><gom:speed>0.0</gom:speed></extensions></trkpt>
   <trkpt lat="59.0757765502" lon="29.9878377118"><ele>91.293</ele><time>2026-04-25T15:18:58.000Z</time><hdop>3.0</hdop><vdop>3.0</vdop><extensions><gom:speed>0.0</gom:speed></extensions></trkpt>
   <trkpt lat="59.0757765502" lon="29.9878377118"><ele>91.293</ele><time>2026-04-25T15:18:59.000Z</time><hdop>3.0</hdop><vdop>3.0</vdop><extensions><gom:speed>0.0</gom:speed></extensions></trkpt>
   <trkpt lat="59.0757765502" lon="29.9878377118"><ele>91.294</ele><time>2026-04-25T15:19:00.000Z</time><hdop>3.0</hdop><vdop>3.0</vdop><extensions><gom:speed>0.0</gom:speed></extensions></trkpt>
   <trkpt lat="59.0757765502" lon="29.9878377118"><ele>91.294</ele><time>2026-04-25T15:19:01.000Z</time><hdop>3.0</hdop><vdop>3.0</vdop><extensions><gom:speed>0.0</gom:speed></extensions></trkpt>
   <trkpt lat="59.0757765502" lon="29.9878377118"><ele>91.295</ele><time>2026-04-25T15:19:02.000Z</time><hdop>3.0</hdop><vdop>3.0</vdop><extensions><gom:speed>0.0</gom:speed></extensions></trkpt>
   <trkpt lat="59.0757765502" lon="29.9878377118"><ele>91.295</ele><time>2026-04-25T15:19:03.000Z</time><hdop>3.0</hdop><vdop>3.0</vdop><extensions><gom:speed>0.0</gom:speed></extensions></trkpt>
   <trkpt lat="59.0757765502" lon="29.9878377118"><ele>91.295</ele><time>2026-04-25T15:19:04.000Z</time><hdop>3.0</hdop><vdop>3.0</vdop><extensions><gom:speed>0.0</gom:speed></extensions></trkpt>
   <trkpt lat="59.0757765502" lon="29.9878377118"><ele>91.295</ele><time>2026-04-25T15:19:05.000Z</time><hdop>3.0</hdop><vdop>3.0</vdop><extensions><gom:speed>0.0</gom:speed></extensions></trkpt>
   <trkpt lat="59.075771521" lon="29.9878416513"><ele>91.296</ele><time>2026-04-25T15:19:06.000Z</time><hdop>3.0</hdop><vdop>3.0</vdop><extensions><gom:speed>0.874</gom:speed></extensions></trkpt>
   <trkpt lat="59.075761798" lon="29.9878504523"><ele>91.303</ele><time>2026-04-25T15:19:07.000Z</time><hdop>3.0</hdop><vdop>3.0</vdop><extensions><gom:speed>0.821</gom:speed></extensions></trkpt>
   <trkpt lat="59.0757530809" lon="29.9878559843"><ele>91.287</ele><time>2026-04-25T15:19:08.000Z</time><hdop>3.0</hdop><vdop>3.0</vdop><extensions><gom:speed>0.847</gom:speed></extensions></trkpt>
   <trkpt lat="59.0757530809" lon="29.9878559843"><ele>91.278</ele><time>2026-04-25T15:19:08.000Z</time><hdop>3.0</hdop><vdop>3.0</vdop><extensions><gom:speed>0.847</gom:speed></extensions></trkpt>
   <trkpt lat="59.0757447828" lon="29.9878612649"><ele>91.245</ele><time>2026-04-25T15:19:09.000Z</time><hdop>3.0</hdop><vdop>3.0</vdop><extensions><gom:speed>0.662</gom:speed></extensions></trkpt>
   <trkpt lat="59.0757392507" lon="29.9878657073"><ele>91.229</ele><time>2026-04-25T15:19:10.000Z</time><hdop>3.0</hdop><vdop>3.0</vdop><extensions><gom:speed>0.268</gom:speed></extensions></trkpt>
   <trkpt lat="59.0757392507" lon="29.9878657073"><ele>91.219</ele><time>2026-04-25T15:19:11.000Z</time><hdop>3.0</hdop><vdop>3.0</vdop><extensions><gom:speed>0.0</gom:speed></extensions></trkpt>
   <trkpt lat="59.0757385383" lon="29.9878676352"><ele>91.289</ele><time>2026-04-25T15:19:12.000Z</time><hdop>3.0</hdop><vdop>3.0</vdop><extensions><gom:speed>0.121</gom:speed></extensions></trkpt>
   <trkpt lat="59.0757385383" lon="29.9878676352"><ele>91.33</ele><time>2026-04-25T15:19:13.000Z</time><hdop>3.0</hdop><vdop>3.0</vdop><extensions><gom:speed>0.0</gom:speed></extensions></trkpt>
   <trkpt lat="59.0757385383" lon="29.9878676352"><ele>91.355</ele><time>2026-04-25T15:19:14.000Z</time><hdop>3.0</hdop><vdop>3.0</vdop><extensions><gom:speed>0.0</gom:speed></extensions></trkpt>
   <trkpt lat="59.0757385383" lon="29.9878676352"><ele>91.37</ele><time>2026-04-25T15:19:15.000Z</time><hdop>3.0</hdop><vdop>3.0</vdop><extensions><gom:speed>0.0</gom:speed></extensions></trkpt>
   <trkpt lat="59.0757385383" lon="29.9878676352"><ele>91.379</ele><time>2026-04-25T15:19:16.000Z</time><hdop>3.0</hdop><vdop>3.0</vdop><extensions><gom:speed>0.0</gom:speed></extensions></trkpt>
   <trkpt lat="59.0757424358" lon="29.9878670484"><ele>91.405</ele><time>2026-04-25T15:19:17.000Z</time><hdop>3.0</hdop><vdop>3.0</vdop><extensions><gom:speed>0.979</gom:speed></extensions></trkpt>
   <trkpt lat="59.0757512368" lon="29.9878661264"><ele>91.443</ele><time>2026-04-25T15:19:18.000Z</time><hdop>3.0</hdop><vdop>3.0</vdop><extensions><gom:speed>1.088</gom:speed></extensions></trkpt>
   <trkpt lat="59.0757610018" lon="29.9878633604"><ele>91.481</ele><time>2026-04-25T15:19:19.000Z</time><hdop>3.0</hdop><vdop>3.0</vdop><extensions><gom:speed>1.059</gom:speed></extensions></trkpt>
   <trkpt lat="59.0757708924" lon="29.9878588342"><ele>91.499</ele><time>2026-04-25T15:19:20.000Z</time><hdop>3.0</hdop><vdop>3.0</vdop><extensions><gom:speed>1.443</gom:speed></extensions></trkpt>
   <trkpt lat="59.0757823756" lon="29.9878550623"><ele>91.524</ele><time>2026-04-25T15:19:21.000Z</time><hdop>3.0</hdop><vdop>3.0</vdop><extensions><gom:speed>1.211</gom:speed></extensions></trkpt>
   <trkpt lat="59.0757927692" lon="29.9878573254"><ele>91.553</ele><time>2026-04-25T15:19:22.000Z</time><hdop>3.0</hdop><vdop>3.0</vdop><extensions><gom:speed>1.287</gom:speed></extensions></trkpt>
   <trkpt lat="59.0758034142" lon="29.9878593371"><ele>91.588</ele><time>2026-04-25T15:19:23.000Z</time><hdop>3.0</hdop><vdop>3.0</vdop><extensions><gom:speed>1.267</gom:speed></extensions></trkpt>
   <trkpt lat="59.0758126762" lon="29.9878610973"><ele>91.624</ele><time>2026-04-25T15:19:24.000Z</time><hdop>3.0</hdop><vdop>3.0</vdop><extensions><gom:speed>1.17</gom:speed></extensions></trkpt>
   <trkpt lat="59.0758218125" lon="29.9878652044"><ele>91.666</ele><time>2026-04-25T15:19:25.000Z</time><hdop>3.0</hdop><vdop>3.0</vdop><extensions><gom:speed>1.16</gom:speed></extensions></trkpt>
   <trkpt lat="59.0758337148" lon="29.9878694792"><ele>91.718</ele><time>2026-04-25T15:19:26.000Z</time><hdop>3.0</hdop><vdop>3.0</vdop><extensions><gom:speed>1.526</gom:speed></extensions></trkpt>
   <trkpt lat="59.0758463295" lon="29.9878688086"><ele>91.747</ele><time>2026-04-25T15:19:27.000Z</time><hdop>3.0</hdop><vdop>3.0</vdop><extensions><gom:speed>1.432</gom:speed></extensions></trkpt>
   <trkpt lat="59.0758463295" lon="29.9878688086"><ele>91.765</ele><time>2026-04-25T15:19:27.000Z</time><hdop>3.0</hdop><vdop>3.0</vdop><extensions><gom:speed>1.432</gom:speed></extensions></trkpt>
   <trkpt lat="59.0758588605" lon="29.987867719"><ele>91.79</ele><time>2026-04-25T15:19:28.000Z</time><hdop>3.0</hdop><vdop>3.0</vdop><extensions><gom:speed>1.272</gom:speed></extensions></trkpt>
   <trkpt lat="59.0758695474" lon="29.9878702335"><ele>91.814</ele><time>2026-04-25T15:19:29.000Z</time><hdop>3.0</hdop><vdop>3.0</vdop><extensions><gom:speed>1.164</gom:speed></extensions></trkpt>
   <trkpt lat="59.0758804439" lon="29.9878739216"><ele>91.811</ele><time>2026-04-25T15:19:30.000Z</time><hdop>3.0</hdop><vdop>3.0</vdop><extensions><gom:speed>1.203</gom:speed></extensions></trkpt>
   <trkpt lat="59.0758900412" lon="29.9878769391"><ele>91.797</ele><time>2026-04-25T15:19:31.000Z</time><hdop>3.0</hdop><vdop>3.0</vdop><extensions><gom:speed>1.1</gom:speed></extensions></trkpt>
   <trkpt lat="59.0759000994" lon="29.9878742569"><ele>91.795</ele><time>2026-04-25T15:19:32.000Z</time><hdop>3.0</hdop><vdop>3.0</vdop><extensions><gom:speed>1.258</gom:speed></extensions></trkpt>
   <trkpt lat="59.0759116665" lon="29.9878750112"><ele>91.8</ele><time>2026-04-25T15:19:33.000Z</time><hdop>3.0</hdop><vdop>3.0</vdop><extensions><gom:speed>1.264</gom:speed></extensions></trkpt>
   <trkpt lat="59.0759226049" lon="29.987874676"><ele>91.831</ele><time>2026-04-25T15:19:34.000Z</time><hdop>3.0</hdop><vdop>3.0</vdop><extensions><gom:speed>1.29</gom:speed></extensions></trkpt>
   <trkpt lat="59.075933166" lon="29.9878753465"><ele>91.885</ele><time>2026-04-25T15:19:35.000Z</time><hdop>3.0</hdop><vdop>3.0</vdop><extensions><gom:speed>1.354</gom:speed></extensions></trkpt>
   <trkpt lat="59.075944775" lon="29.9878773582"><ele>91.971</ele><time>2026-04-25T15:19:36.000Z</time><hdop>3.0</hdop><vdop>3.0</vdop><extensions><gom:speed>1.377</gom:speed></extensions></trkpt>
   <trkpt lat="59.0759557134" lon="29.9878807109"><ele>92.053</ele><time>2026-04-25T15:19:37.000Z</time><hdop>3.0</hdop><vdop>3.0</vdop><extensions><gom:speed>1.316</gom:speed></extensions></trkpt>
   <trkpt lat="59.0759650592" lon="29.9878861592"><ele>92.135</ele><time>2026-04-25T15:19:38.000Z</time><hdop>3.0</hdop><vdop>3.0</vdop><extensions><gom:speed>1.333</gom:speed></extensions></trkpt>
   <trkpt lat="59.0759758718" lon="29.9878948763"><ele>94.057</ele><time>2026-04-25T15:19:39.000Z</time><hdop>2.937</hdop><vdop>2.937</vdop><extensions><gom:speed>1.039</gom:speed></extensions></trkpt>
   <trkpt lat="59.0759872293" lon="29.9879021686"><ele>95.176</ele><time>2026-04-25T15:19:40.000Z</time><hdop>2.875</hdop><vdop>2.875</vdop><extensions><gom:speed>1.195</gom:speed></extensions></trkpt>
   <trkpt lat="59.0759950664" lon="29.9879148253"><ele>95.81</ele><time>2026-04-25T15:19:41.000Z</time><hdop>2.5</hdop><vdop>2.5</vdop><extensions><gom:speed>1.14</gom:speed></extensions></trkpt>
   <trkpt lat="59.0760048313" lon="29.9879222852"><ele>96.127</ele><time>2026-04-25T15:19:42.000Z</time><hdop>3.312</hdop><vdop>3.312</vdop><extensions><gom:speed>0.164</gom:speed></extensions></trkpt>
   <trkpt lat="59.076007304" lon="29.9879154958"><ele>96.36</ele><time>2026-04-25T15:19:43.000Z</time><hdop>3.875</hdop><vdop>3.875</vdop><extensions><gom:speed>0.469</gom:speed></extensions></trkpt>
   <trkpt lat="59.0760057952" lon="29.987923291"><ele>96.319</ele><time>2026-04-25T15:19:44.000Z</time><hdop>4.125</hdop><vdop>4.125</vdop><extensions><gom:speed>1.067</gom:speed></extensions></trkpt>
   <trkpt lat="59.0760190806" lon="29.9879294098"><ele>96.349</ele><time>2026-04-25T15:19:45.000Z</time><hdop>4.062</hdop><vdop>4.062</vdop><extensions><gom:speed>1.233</gom:speed></extensions></trkpt>
   <trkpt lat="59.0760351738" lon="29.9879284878"><ele>96.382</ele><time>2026-04-25T15:19:46.000Z</time><hdop>4.125</hdop><vdop>4.125</vdop><extensions><gom:speed>1.071</gom:speed></extensions></trkpt>
   <trkpt lat="59.0760457769" lon="29.9879406415"><ele>96.13</ele><time>2026-04-25T15:19:47.000Z</time><hdop>3.0</hdop><vdop>3.0</vdop><extensions><gom:speed>1.48</gom:speed></extensions></trkpt>
   <trkpt lat="59.0760457769" lon="29.9879406415"><ele>95.979</ele><time>2026-04-25T15:19:47.000Z</time><hdop>3.0</hdop><vdop>3.0</vdop><extensions><gom:speed>1.48</gom:speed></extensions></trkpt>
   <trkpt lat="59.076063798" lon="29.9879263923"><ele>95.801</ele><time>2026-04-25T15:19:48.000Z</time><hdop>2.187</hdop><vdop>2.187</vdop><extensions><gom:speed>0.988</gom:speed></extensions></trkpt>
   <trkpt lat="59.0760713417" lon="29.9879429046"><ele>95.644</ele><time>2026-04-25T15:19:49.000Z</time><hdop>1.75</hdop><vdop>1.75</vdop><extensions><gom:speed>1.223</gom:speed></extensions></trkpt>
   <trkpt lat="59.0760829926" lon="29.9879451678"><ele>95.5</ele><time>2026-04-25T15:19:50.000Z</time><hdop>1.437</hdop><vdop>1.437</vdop><extensions><gom:speed>1.288</gom:speed></extensions></trkpt>
   <trkpt lat="59.0760944758" lon="29.9879468441"><ele>95.338</ele><time>2026-04-25T15:19:51.000Z</time><hdop>1.25</hdop><vdop>1.25</vdop><extensions><gom:speed>1.295</gom:speed></extensions></trkpt>
   <trkpt lat="59.0761065038" lon="29.9879476823"><ele>95.247</ele><time>2026-04-25T15:19:52.000Z</time><hdop>1.375</hdop><vdop>1.375</vdop><extensions><gom:speed>1.35</gom:speed></extensions></trkpt>
   <trkpt lat="59.0761212979" lon="29.9879529629"><ele>95.109</ele><time>2026-04-25T15:19:53.000Z</time><hdop>1.562</hdop><vdop>1.562</vdop><extensions><gom:speed>1.279</gom:speed></extensions></trkpt>
   <trkpt lat="59.0761301408" lon="29.9879694753"><ele>94.997</ele><time>2026-04-25T15:19:54.000Z</time><hdop>2.0</hdop><vdop>2.0</vdop><extensions><gom:speed>0.936</gom:speed></extensions></trkpt>
   <trkpt lat="59.076137433" lon="29.9879614287"><ele>94.771</ele><time>2026-04-25T15:19:55.000Z</time><hdop>2.437</hdop><vdop>2.437</vdop><extensions><gom:speed>1.095</gom:speed></extensions></trkpt>
   <trkpt lat="59.0761469884" lon="29.9879657872"><ele>94.625</ele><time>2026-04-25T15:19:56.000Z</time><hdop>2.375</hdop><vdop>2.375</vdop><extensions><gom:speed>0.99</gom:speed></extensions></trkpt>
   <trkpt lat="59.0761589326" lon="29.9879636918"><ele>94.517</ele><time>2026-04-25T15:19:57.000Z</time><hdop>2.312</hdop><vdop>2.312</vdop><extensions><gom:speed>1.641</gom:speed></extensions></trkpt>
   <trkpt lat="59.0761695357" lon="29.9879629374"><ele>94.373</ele><time>2026-04-25T15:19:58.000Z</time><hdop>2.125</hdop><vdop>2.125</vdop><extensions><gom:speed>1.075</gom:speed></extensions></trkpt>
   <trkpt lat="59.0761804322" lon="29.9879681342"><ele>94.326</ele><time>2026-04-25T15:19:59.000Z</time><hdop>1.687</hdop><vdop>1.687</vdop><extensions><gom:speed>1.207</gom:speed></extensions></trkpt>
   <trkpt lat="59.0761918735" lon="29.9879715708"><ele>94.344</ele><time>2026-04-25T15:20:00.000Z</time><hdop>1.375</hdop><vdop>1.375</vdop><extensions><gom:speed>1.625</gom:speed></extensions></trkpt>
   <trkpt lat="59.0762000458" lon="29.9879826349"><ele>94.36</ele><time>2026-04-25T15:20:01.000Z</time><hdop>1.562</hdop><vdop>1.562</vdop><extensions><gom:speed>0.893</gom:speed></extensions></trkpt>
   <trkpt lat="59.0762094755" lon="29.987974253"><ele>94.458</ele><time>2026-04-25T15:20:02.000Z</time><hdop>1.625</hdop><vdop>1.625</vdop><extensions><gom:speed>1.156</gom:speed></extensions></trkpt>
   <trkpt lat="59.0762195757" lon="29.9879731633"><ele>94.502</ele><time>2026-04-25T15:20:03.000Z</time><hdop>1.812</hdop><vdop>1.812</vdop><extensions><gom:speed>0.716</gom:speed></extensions></trkpt>
   <trkpt lat="59.076225904" lon="29.9879899271"><ele>94.581</ele><time>2026-04-25T15:20:04.000Z</time><hdop>2.187</hdop><vdop>2.187</vdop><extensions><gom:speed>1.29</gom:speed></extensions></trkpt>
   <trkpt lat="59.0762385607" lon="29.9879886698"><ele>94.593</ele><time>2026-04-25T15:20:05.000Z</time><hdop>2.187</hdop><vdop>2.187</vdop><extensions><gom:speed>1.542</gom:speed></extensions></trkpt>
   <trkpt lat="59.0762553664" lon="29.9879781086"><ele>94.543</ele><time>2026-04-25T15:20:06.000Z</time><hdop>2.375</hdop><vdop>2.375</vdop><extensions><gom:speed>1.926</gom:speed></extensions></trkpt>
   <trkpt lat="59.0762605213" lon="29.9879865744"><ele>94.319</ele><time>2026-04-25T15:20:07.000Z</time><hdop>2.437</hdop><vdop>2.437</vdop><extensions><gom:speed>0.768</gom:speed></extensions></trkpt>
   <trkpt lat="59.0762605213" lon="29.9879865744"><ele>94.185</ele><time>2026-04-25T15:20:07.000Z</time><hdop>2.437</hdop><vdop>2.437</vdop><extensions><gom:speed>0.768</gom:speed></extensions></trkpt>
   <trkpt lat="59.0762756087" lon="29.9879895918"><ele>94.086</ele><time>2026-04-25T15:20:08.000Z</time><hdop>2.625</hdop><vdop>2.625</vdop><extensions><gom:speed>1.255</gom:speed></extensions></trkpt>
   <trkpt lat="59.076288894" lon="29.9879896757"><ele>94.016</ele><time>2026-04-25T15:20:09.000Z</time><hdop>2.562</hdop><vdop>2.562</vdop><extensions><gom:speed>1.44</gom:speed></extensions></trkpt>
   <trkpt lat="59.0763051549" lon="29.987994621"><ele>93.79</ele><time>2026-04-25T15:20:10.000Z</time><hdop>3.125</hdop><vdop>3.125</vdop><extensions><gom:speed>1.395</gom:speed></extensions></trkpt>
   <trkpt lat="59.0763222121" lon="29.9879916873"><ele>93.433</ele><time>2026-04-25T15:20:11.000Z</time><hdop>3.0</hdop><vdop>3.0</vdop><extensions><gom:speed>1.267</gom:speed></extensions></trkpt>
   <trkpt lat="59.0763337791" lon="29.9879960459"><ele>93.105</ele><time>2026-04-25T15:20:12.000Z</time><hdop>3.437</hdop><vdop>3.437</vdop><extensions><gom:speed>1.385</gom:speed></extensions></trkpt>
   <trkpt lat="59.0763476931" lon="29.9880033382"><ele>92.872</ele><time>2026-04-25T15:20:13.000Z</time><hdop>3.187</hdop><vdop>3.187</vdop><extensions><gom:speed>1.38</gom:speed></extensions></trkpt>
   <trkpt lat="59.0763566198" lon="29.9880036734"><ele>93.077</ele><time>2026-04-25T15:20:14.000Z</time><hdop>3.0</hdop><vdop>3.0</vdop><extensions><gom:speed>1.333</gom:speed></extensions></trkpt>
   <trkpt lat="59.0763750181" lon="29.9880038411"><ele>93.186</ele><time>2026-04-25T15:20:15.000Z</time><hdop>3.0</hdop><vdop>3.0</vdop><extensions><gom:speed>1.395</gom:speed></extensions></trkpt>
   <trkpt lat="59.0763982359" lon="29.9880028353"><ele>93.238</ele><time>2026-04-25T15:20:16.000Z</time><hdop>3.0</hdop><vdop>3.0</vdop><extensions><gom:speed>1.481</gom:speed></extensions></trkpt>
   <trkpt lat="59.0764211185" lon="29.9880024162"><ele>93.259</ele><time>2026-04-25T15:20:17.000Z</time><hdop>3.0</hdop><vdop>3.0</vdop><extensions><gom:speed>1.5</gom:speed></extensions></trkpt>
   <trkpt lat="59.0764407322" lon="29.9880031705"><ele>93.248</ele><time>2026-04-25T15:20:18.000Z</time><hdop>3.0</hdop><vdop>3.0</vdop><extensions><gom:speed>1.463</gom:speed></extensions></trkpt>
   <trkpt lat="59.0764537661" lon="29.9880045116"><ele>93.228</ele><time>2026-04-25T15:20:19.000Z</time><hdop>3.0</hdop><vdop>3.0</vdop><extensions><gom:speed>1.352</gom:speed></extensions></trkpt>
   <trkpt lat="59.0764655845" lon="29.9880088702"><ele>93.24</ele><time>2026-04-25T15:20:20.000Z</time><hdop>3.0</hdop><vdop>3.0</vdop><extensions><gom:speed>1.345</gom:speed></extensions></trkpt>
   <trkpt lat="59.0764761876" lon="29.9880185932"><ele>93.283</ele><time>2026-04-25T15:20:21.000Z</time><hdop>3.0</hdop><vdop>3.0</vdop><extensions><gom:speed>1.367</gom:speed></extensions></trkpt>
   <trkpt lat="59.0764847372" lon="29.9880325072"><ele>93.319</ele><time>2026-04-25T15:20:22.000Z</time><hdop>3.0</hdop><vdop>3.0</vdop><extensions><gom:speed>1.329</gom:speed></extensions></trkpt>
   <trkpt lat="59.0764927838" lon="29.9880470079"><ele>93.374</ele><time>2026-04-25T15:20:23.000Z</time><hdop>3.0</hdop><vdop>3.0</vdop><extensions><gom:speed>1.209</gom:speed></extensions></trkpt>
   <trkpt lat="59.0765002437" lon="29.9880622629"><ele>93.462</ele><time>2026-04-25T15:20:24.000Z</time><hdop>3.0</hdop><vdop>3.0</vdop><extensions><gom:speed>1.305</gom:speed></extensions></trkpt>
   <trkpt lat="59.0765073264" lon="29.9880789429"><ele>93.551</ele><time>2026-04-25T15:20:25.000Z</time><hdop>3.0</hdop><vdop>3.0</vdop><extensions><gom:speed>1.289</gom:speed></extensions></trkpt>
   <trkpt lat="59.0765145349" lon="29.988094198"><ele>93.658</ele><time>2026-04-25T15:20:26.000Z</time><hdop>3.0</hdop><vdop>3.0</vdop><extensions><gom:speed>1.262</gom:speed></extensions></trkpt>
   <trkpt lat="59.0765235873" lon="29.9881046754"><ele>93.747</ele><time>2026-04-25T15:20:27.000Z</time><hdop>3.0</hdop><vdop>3.0</vdop><extensions><gom:speed>1.366</gom:speed></extensions></trkpt>
   <trkpt lat="59.076533939" lon="29.9881135602"><ele>93.813</ele><time>2026-04-25T15:20:28.000Z</time><hdop>3.0</hdop><vdop>3.0</vdop><extensions><gom:speed>1.374</gom:speed></extensions></trkpt>
   <trkpt lat="59.076533939" lon="29.9881135602"><ele>93.852</ele><time>2026-04-25T15:20:28.000Z</time><hdop>3.0</hdop><vdop>3.0</vdop><extensions><gom:speed>1.374</gom:speed></extensions></trkpt>
   <trkpt lat="59.0765429495" lon="29.9881234508"><ele>93.91</ele><time>2026-04-25T15:20:29.000Z</time><hdop>3.0</hdop><vdop>3.0</vdop><extensions><gom:speed>1.218</gom:speed></extensions></trkpt>
   <trkpt lat="59.0765518343" lon="29.9881322518"><ele>93.99</ele><time>2026-04-25T15:20:30.000Z</time><hdop>3.0</hdop><vdop>3.0</vdop><extensions><gom:speed>1.252</gom:speed></extensions></trkpt>
   <trkpt lat="59.0765619764" lon="29.988143316"><ele>94.113</ele><time>2026-04-25T15:20:31.000Z</time><hdop>3.0</hdop><vdop>3.0</vdop><extensions><gom:speed>1.47</gom:speed></extensions></trkpt>
   <trkpt lat="59.0765727891" lon="29.9881546315"><ele>94.24</ele><time>2026-04-25T15:20:32.000Z</time><hdop>3.0</hdop><vdop>3.0</vdop><extensions><gom:speed>1.47</gom:speed></extensions></trkpt>
   <trkpt lat="59.0765828055" lon="29.9881656118"><ele>94.328</ele><time>2026-04-25T15:20:33.000Z</time><hdop>3.0</hdop><vdop>3.0</vdop><extensions><gom:speed>1.309</gom:speed></extensions></trkpt>
   <trkpt lat="59.0765924866" lon="29.988173407"><ele>94.415</ele><time>2026-04-25T15:20:34.000Z</time><hdop>3.0</hdop><vdop>3.0</vdop><extensions><gom:speed>1.354</gom:speed></extensions></trkpt>
   <trkpt lat="59.0765924866" lon="29.988173407"><ele>94.467</ele><time>2026-04-25T15:20:34.000Z</time><hdop>3.0</hdop><vdop>3.0</vdop><extensions><gom:speed>1.354</gom:speed></extensions></trkpt>
   <trkpt lat="59.0766031735" lon="29.9881841358"><ele>94.523</ele><time>2026-04-25T15:20:35.000Z</time><hdop>3.0</hdop><vdop>3.0</vdop><extensions><gom:speed>1.434</gom:speed></extensions></trkpt>
   <trkpt lat="59.0766156206" lon="29.9881945294"><ele>94.599</ele><time>2026-04-25T15:20:36.000Z</time><hdop>3.0</hdop><vdop>3.0</vdop><extensions><gom:speed>1.486</gom:speed></extensions></trkpt>
   <trkpt lat="59.0766156206" lon="29.9881945294"><ele>94.644</ele><time>2026-04-25T15:20:36.000Z</time><hdop>3.0</hdop><vdop>3.0</vdop><extensions><gom:speed>1.486</gom:speed></extensions></trkpt>
   <trkpt lat="59.0766275229" lon="29.988203498"><ele>94.671</ele><time>2026-04-25T15:20:37.000Z</time><hdop>3.0</hdop><vdop>3.0</vdop><extensions><gom:speed>1.463</gom:speed></extensions></trkpt>
   <trkpt lat="59.0766386708" lon="29.9882123828"><ele>94.669</ele><time>2026-04-25T15:20:38.000Z</time><hdop>3.0</hdop><vdop>3.0</vdop><extensions><gom:speed>1.333</gom:speed></extensions></trkpt>
   <trkpt lat="59.0766499026" lon="29.988222944"><ele>94.67</ele><time>2026-04-25T15:20:39.000Z</time><hdop>3.0</hdop><vdop>3.0</vdop><extensions><gom:speed>1.341</gom:speed></extensions></trkpt>
   <trkpt lat="59.0766607572" lon="29.9882336729"><ele>94.674</ele><time>2026-04-25T15:20:40.000Z</time><hdop>3.0</hdop><vdop>3.0</vdop><extensions><gom:speed>1.294</gom:speed></extensions></trkpt>
   <trkpt lat="59.0766720308" lon="29.988243815"><ele>94.662</ele><time>2026-04-25T15:20:41.000Z</time><hdop>3.0</hdop><vdop>3.0</vdop><extensions><gom:speed>1.346</gom:speed></extensions></trkpt>
   <trkpt lat="59.0766843941" lon="29.9882517778"><ele>94.634</ele><time>2026-04-25T15:20:42.000Z</time><hdop>3.0</hdop><vdop>3.0</vdop><extensions><gom:speed>1.406</gom:speed></extensions></trkpt>
   <trkpt lat="59.0766968412" lon="29.9882580642"><ele>94.609</ele><time>2026-04-25T15:20:43.000Z</time><hdop>3.0</hdop><vdop>3.0</vdop><extensions><gom:speed>1.435</gom:speed></extensions></trkpt>
   <trkpt lat="59.0767101685" lon="29.9882636801"><ele>94.573</ele><time>2026-04-25T15:20:44.000Z</time><hdop>3.0</hdop><vdop>3.0</vdop><extensions><gom:speed>1.556</gom:speed></extensions></trkpt>
   <trkpt lat="59.0767101685" lon="29.9882636801"><ele>94.551</ele><time>2026-04-25T15:20:44.000Z</time><hdop>3.0</hdop><vdop>3.0</vdop><extensions><gom:speed>1.556</gom:speed></extensions></trkpt>
   <trkpt lat="59.0767248787" lon="29.9882672005"><ele>94.498</ele><time>2026-04-25T15:20:45.000Z</time><hdop>3.0</hdop><vdop>3.0</vdop><extensions><gom:speed>1.672</gom:speed></extensions></trkpt>
   <trkpt lat="59.0767393375" lon="29.9882723134"><ele>94.416</ele><time>2026-04-25T15:20:46.000Z</time><hdop>3.0</hdop><vdop>3.0</vdop><extensions><gom:speed>1.606</gom:speed></extensions></trkpt>
   <trkpt lat="59.0767528324" lon="29.988278516"><ele>94.349</ele><time>2026-04-25T15:20:47.000Z</time><hdop>3.0</hdop><vdop>3.0</vdop><extensions><gom:speed>1.497</gom:speed></extensions></trkpt>
   <trkpt lat="59.0767661177" lon="29.988283629"><ele>94.299</ele><time>2026-04-25T15:20:48.000Z</time><hdop>3.0</hdop><vdop>3.0</vdop><extensions><gom:speed>1.44</gom:speed></extensions></trkpt>
   <trkpt lat="59.0767661177" lon="29.988283629"><ele>94.269</ele><time>2026-04-25T15:20:48.000Z</time><hdop>3.0</hdop><vdop>3.0</vdop><extensions><gom:speed>1.44</gom:speed></extensions></trkpt>
   <trkpt lat="59.0767780619" lon="29.9882871494"><ele>94.25</ele><time>2026-04-25T15:20:49.000Z</time><hdop>3.0</hdop><vdop>3.0</vdop><extensions><gom:speed>1.346</gom:speed></extensions></trkpt>
   <trkpt lat="59.0767887488" lon="29.9882891611"><ele>94.216</ele><time>2026-04-25T15:20:50.000Z</time><hdop>3.0</hdop><vdop>3.0</vdop><extensions><gom:speed>1.288</gom:speed></extensions></trkpt>
   <trkpt lat="59.0768001482" lon="29.9882941902"><ele>94.202</ele><time>2026-04-25T15:20:51.000Z</time><hdop>3.0</hdop><vdop>3.0</vdop><extensions><gom:speed>1.282</gom:speed></extensions></trkpt>
   <trkpt lat="59.0768111285" lon="29.9883003928"><ele>94.195</ele><time>2026-04-25T15:20:52.000Z</time><hdop>3.0</hdop><vdop>3.0</vdop><extensions><gom:speed>1.3</gom:speed></extensions></trkpt>
   <trkpt lat="59.076822486" lon="29.9883070145"><ele>94.183</ele><time>2026-04-25T15:20:53.000Z</time><hdop>3.0</hdop><vdop>3.0</vdop><extensions><gom:speed>1.436</gom:speed></extensions></trkpt>
   <trkpt lat="59.0768357713" lon="29.9883139715"><ele>94.137</ele><time>2026-04-25T15:20:54.000Z</time><hdop>3.0</hdop><vdop>3.0</vdop><extensions><gom:speed>1.54</gom:speed></extensions></trkpt>
   <trkpt lat="59.0768489728" lon="29.9883199227"><ele>94.031</ele><time>2026-04-25T15:20:55.000Z</time><hdop>3.0</hdop><vdop>3.0</vdop><extensions><gom:speed>1.631</gom:speed></extensions></trkpt>
   <trkpt lat="59.0768614199" lon="29.9883231078"><ele>93.895</ele><time>2026-04-25T15:20:56.000Z</time><hdop>3.0</hdop><vdop>3.0</vdop><extensions><gom:speed>1.527</gom:speed></extensions></trkpt>
   <trkpt lat="59.0768742023" lon="29.9883226887"><ele>93.756</ele><time>2026-04-25T15:20:57.000Z</time><hdop>3.0</hdop><vdop>3.0</vdop><extensions><gom:speed>1.478</gom:speed></extensions></trkpt>
   <trkpt lat="59.0768871524" lon="29.9883222696"><ele>93.613</ele><time>2026-04-25T15:20:58.000Z</time><hdop>3.0</hdop><vdop>3.0</vdop><extensions><gom:speed>1.468</gom:speed></extensions></trkpt>
   <trkpt lat="59.076901192" lon="29.9883245327"><ele>93.465</ele><time>2026-04-25T15:20:59.000Z</time><hdop>3.0</hdop><vdop>3.0</vdop><extensions><gom:speed>1.445</gom:speed></extensions></trkpt>
   <trkpt lat="59.0769149803" lon="29.9883245327"><ele>93.319</ele><time>2026-04-25T15:21:00.000Z</time><hdop>3.0</hdop><vdop>3.0</vdop><extensions><gom:speed>1.438</gom:speed></extensions></trkpt>
   <trkpt lat="59.0769261701" lon="29.9883274664"><ele>93.187</ele><time>2026-04-25T15:21:01.000Z</time><hdop>3.0</hdop><vdop>3.0</vdop><extensions><gom:speed>1.358</gom:speed></extensions></trkpt>
   <trkpt lat="59.0769381981" lon="29.9883304838"><ele>93.088</ele><time>2026-04-25T15:21:02.000Z</time><hdop>3.0</hdop><vdop>3.0</vdop><extensions><gom:speed>1.225</gom:speed></extensions></trkpt>
   <trkpt lat="59.0769488432" lon="29.9883359321"><ele>92.978</ele><time>2026-04-25T15:21:03.000Z</time><hdop>3.0</hdop><vdop>3.0</vdop><extensions><gom:speed>1.246</gom:speed></extensions></trkpt>
   <trkpt lat="59.0769583985" lon="29.9883412127"><ele>92.925</ele><time>2026-04-25T15:21:04.000Z</time><hdop>3.0</hdop><vdop>3.0</vdop><extensions><gom:speed>1.256</gom:speed></extensions></trkpt>
   <trkpt lat="59.0769703847" lon="29.9883416318"><ele>92.913</ele><time>2026-04-25T15:21:05.000Z</time><hdop>3.0</hdop><vdop>3.0</vdop><extensions><gom:speed>1.424</gom:speed></extensions></trkpt>
   <trkpt lat="59.0769840891" lon="29.9883393687"><ele>92.915</ele><time>2026-04-25T15:21:06.000Z</time><hdop>3.0</hdop><vdop>3.0</vdop><extensions><gom:speed>1.502</gom:speed></extensions></trkpt>
   <trkpt lat="59.0769977097" lon="29.988336435"><ele>92.92</ele><time>2026-04-25T15:21:07.000Z</time><hdop>3.0</hdop><vdop>3.0</vdop><extensions><gom:speed>1.518</gom:speed></extensions></trkpt>
   <trkpt lat="59.0770110369" lon="29.9883340042"><ele>92.956</ele><time>2026-04-25T15:21:08.000Z</time><hdop>3.0</hdop><vdop>3.0</vdop><extensions><gom:speed>1.433</gom:speed></extensions></trkpt>
   <trkpt lat="59.0770110369" lon="29.9883340042"><ele>92.977</ele><time>2026-04-25T15:21:08.000Z</time><hdop>3.0</hdop><vdop>3.0</vdop><extensions><gom:speed>1.433</gom:speed></extensions></trkpt>
   <trkpt lat="59.0770249508" lon="29.9883307353"><ele>92.997</ele><time>2026-04-25T15:21:09.000Z</time><hdop>3.0</hdop><vdop>3.0</vdop><extensions><gom:speed>1.426</gom:speed></extensions></trkpt>
   <trkpt lat="59.0770385714" lon="29.9883283046"><ele>93.022</ele><time>2026-04-25T15:21:10.000Z</time><hdop>3.0</hdop><vdop>3.0</vdop><extensions><gom:speed>1.402</gom:speed></extensions></trkpt>
   <trkpt lat="59.0770509767" lon="29.9883287236"><ele>93.061</ele><time>2026-04-25T15:21:11.000Z</time><hdop>3.0</hdop><vdop>3.0</vdop><extensions><gom:speed>1.433</gom:speed></extensions></trkpt>
   <trkpt lat="59.0770636333" lon="29.9883323279"><ele>93.102</ele><time>2026-04-25T15:21:12.000Z</time><hdop>3.0</hdop><vdop>3.0</vdop><extensions><gom:speed>1.445</gom:speed></extensions></trkpt>
   <trkpt lat="59.0770757452" lon="29.9883391172"><ele>93.115</ele><time>2026-04-25T15:21:13.000Z</time><hdop>3.0</hdop><vdop>3.0</vdop><extensions><gom:speed>1.293</gom:speed></extensions></trkpt>
   <trkpt lat="59.0770866417" lon="29.9883449007"><ele>93.104</ele><time>2026-04-25T15:21:14.000Z</time><hdop>3.0</hdop><vdop>3.0</vdop><extensions><gom:speed>1.323</gom:speed></extensions></trkpt>
   <trkpt lat="59.0770978734" lon="29.9883482535"><ele>93.12</ele><time>2026-04-25T15:21:15.000Z</time><hdop>3.0</hdop><vdop>3.0</vdop><extensions><gom:speed>1.285</gom:speed></extensions></trkpt>
   <trkpt lat="59.0771099014" lon="29.9883493431"><ele>93.143</ele><time>2026-04-25T15:21:16.000Z</time><hdop>3.0</hdop><vdop>3.0</vdop><extensions><gom:speed>1.361</gom:speed></extensions></trkpt>
   <trkpt lat="59.0771226838" lon="29.9883480858"><ele>93.137</ele><time>2026-04-25T15:21:17.000Z</time><hdop>3.0</hdop><vdop>3.0</vdop><extensions><gom:speed>1.385</gom:speed></extensions></trkpt>
   <trkpt lat="59.0771352986" lon="29.9883446493"><ele>93.106</ele><time>2026-04-25T15:21:18.000Z</time><hdop>3.0</hdop><vdop>3.0</vdop><extensions><gom:speed>1.282</gom:speed></extensions></trkpt>
   <trkpt lat="59.0771474105" lon="29.9883428052"><ele>93.066</ele><time>2026-04-25T15:21:19.000Z</time><hdop>3.0</hdop><vdop>3.0</vdop><extensions><gom:speed>1.436</gom:speed></extensions></trkpt>
   <trkpt lat="59.0771602348" lon="29.988341548"><ele>93.023</ele><time>2026-04-25T15:21:20.000Z</time><hdop>3.0</hdop><vdop>3.0</vdop><extensions><gom:speed>1.452</gom:speed></extensions></trkpt>
   <trkpt lat="59.0771730172" lon="29.9883433082"><ele>93.004</ele><time>2026-04-25T15:21:21.000Z</time><hdop>3.0</hdop><vdop>3.0</vdop><extensions><gom:speed>1.467</gom:speed></extensions></trkpt>
   <trkpt lat="59.0771857157" lon="29.9883464095"><ele>92.984</ele><time>2026-04-25T15:21:22.000Z</time><hdop>3.0</hdop><vdop>3.0</vdop><extensions><gom:speed>1.51</gom:speed></extensions></trkpt>
   <trkpt lat="59.0771984982" lon="29.9883499299"><ele>92.944</ele><time>2026-04-25T15:21:23.000Z</time><hdop>3.0</hdop><vdop>3.0</vdop><extensions><gom:speed>1.472</gom:speed></extensions></trkpt>
   <trkpt lat="59.0772117835" lon="29.9883526959"><ele>92.893</ele><time>2026-04-25T15:21:24.000Z</time><hdop>3.0</hdop><vdop>3.0</vdop><extensions><gom:speed>1.493</gom:speed></extensions></trkpt>
   <trkpt lat="59.0772244401" lon="29.9883551266"><ele>92.837</ele><time>2026-04-25T15:21:25.000Z</time><hdop>3.0</hdop><vdop>3.0</vdop><extensions><gom:speed>1.393</gom:speed></extensions></trkpt>
   <trkpt lat="59.0772372645" lon="29.9883594014"><ele>92.797</ele><time>2026-04-25T15:21:26.000Z</time><hdop>3.0</hdop><vdop>3.0</vdop><extensions><gom:speed>1.385</gom:speed></extensions></trkpt>
   <trkpt lat="59.0772502564" lon="29.9883622513"><ele>92.761</ele><time>2026-04-25T15:21:27.000Z</time><hdop>3.0</hdop><vdop>3.0</vdop><extensions><gom:speed>1.394</gom:speed></extensions></trkpt>
   <trkpt lat="59.0772626616" lon="29.9883652687"><ele>92.763</ele><time>2026-04-25T15:21:28.000Z</time><hdop>3.0</hdop><vdop>3.0</vdop><extensions><gom:speed>1.422</gom:speed></extensions></trkpt>
   <trkpt lat="59.0772626616" lon="29.9883652687"><ele>92.765</ele><time>2026-04-25T15:21:28.000Z</time><hdop>3.0</hdop><vdop>3.0</vdop><extensions><gom:speed>1.422</gom:speed></extensions></trkpt>
   <trkpt lat="59.0772769528" lon="29.9883652687"><ele>92.721</ele><time>2026-04-25T15:21:29.000Z</time><hdop>3.0</hdop><vdop>3.0</vdop><extensions><gom:speed>1.531</gom:speed></extensions></trkpt>
   <trkpt lat="59.0772884779" lon="29.9883689568"><ele>92.689</ele><time>2026-04-25T15:21:30.000Z</time><hdop>3.0</hdop><vdop>3.0</vdop><extensions><gom:speed>1.336</gom:speed></extensions></trkpt>
   <trkpt lat="59.0773005478" lon="29.9883744888"><ele>92.661</ele><time>2026-04-25T15:21:31.000Z</time><hdop>3.0</hdop><vdop>3.0</vdop><extensions><gom:speed>1.389</gom:speed></extensions></trkpt>
   <trkpt lat="59.0773126178" lon="29.9883782607"><ele>92.587</ele><time>2026-04-25T15:21:32.000Z</time><hdop>3.0</hdop><vdop>3.0</vdop><extensions><gom:speed>1.567</gom:speed></extensions></trkpt>
   <trkpt lat="59.0773256935" lon="29.9883824516"><ele>92.5</ele><time>2026-04-25T15:21:33.000Z</time><hdop>3.0</hdop><vdop>3.0</vdop><extensions><gom:speed>1.531</gom:speed></extensions></trkpt>
   <trkpt lat="59.0773392303" lon="29.9883871455"><ele>92.401</ele><time>2026-04-25T15:21:34.000Z</time><hdop>3.0</hdop><vdop>3.0</vdop><extensions><gom:speed>1.54</gom:speed></extensions></trkpt>
   <trkpt lat="59.0773537729" lon="29.9883900792"><ele>92.321</ele><time>2026-04-25T15:21:35.000Z</time><hdop>3.0</hdop><vdop>3.0</vdop><extensions><gom:speed>1.653</gom:speed></extensions></trkpt>
   <trkpt lat="59.0773680641" lon="29.9883920908"><ele>92.225</ele><time>2026-04-25T15:21:36.000Z</time><hdop>3.0</hdop><vdop>3.0</vdop><extensions><gom:speed>1.575</gom:speed></extensions></trkpt>
   <trkpt lat="59.0773821037" lon="29.9883911688"><ele>92.099</ele><time>2026-04-25T15:21:37.000Z</time><hdop>3.0</hdop><vdop>3.0</vdop><extensions><gom:speed>1.55</gom:speed></extensions></trkpt>
   <trkpt lat="59.0773961853" lon="29.9883941025"><ele>91.997</ele><time>2026-04-25T15:21:38.000Z</time><hdop>3.0</hdop><vdop>3.0</vdop><extensions><gom:speed>1.501</gom:speed></extensions></trkpt>
   <trkpt lat="59.0774090935" lon="29.9883977067"><ele>91.919</ele><time>2026-04-25T15:21:39.000Z</time><hdop>3.0</hdop><vdop>3.0</vdop><extensions><gom:speed>1.386</gom:speed></extensions></trkpt>
   <trkpt lat="59.077421373" lon="29.9883983773"><ele>91.828</ele><time>2026-04-25T15:21:40.000Z</time><hdop>3.0</hdop><vdop>3.0</vdop><extensions><gom:speed>1.406</gom:speed></extensions></trkpt>
   <trkpt lat="59.0774340715" lon="29.9883982096"><ele>91.743</ele><time>2026-04-25T15:21:41.000Z</time><hdop>3.0</hdop><vdop>3.0</vdop><extensions><gom:speed>1.475</gom:speed></extensions></trkpt>
   <trkpt lat="59.0774479855" lon="29.9883988802"><ele>91.657</ele><time>2026-04-25T15:21:42.000Z</time><hdop>3.0</hdop><vdop>3.0</vdop><extensions><gom:speed>1.561</gom:speed></extensions></trkpt>
   <trkpt lat="59.0774624024" lon="29.9884013109"><ele>91.553</ele><time>2026-04-25T15:21:43.000Z</time><hdop>3.0</hdop><vdop>3.0</vdop><extensions><gom:speed>1.573</gom:speed></extensions></trkpt>
   <trkpt lat="59.0774767354" lon="29.9884071783"><ele>91.435</ele><time>2026-04-25T15:21:44.000Z</time><hdop>3.0</hdop><vdop>3.0</vdop><extensions><gom:speed>1.551</gom:speed></extensions></trkpt>
   <trkpt lat="59.0774903141" lon="29.9884126265"><ele>91.341</ele><time>2026-04-25T15:21:45.000Z</time><hdop>3.0</hdop><vdop>3.0</vdop><extensions><gom:speed>1.475</gom:speed></extensions></trkpt>
   <trkpt lat="59.0775041023" lon="29.9884176556"><ele>91.277</ele><time>2026-04-25T15:21:46.000Z</time><hdop>3.0</hdop><vdop>3.0</vdop><extensions><gom:speed>1.499</gom:speed></extensions></trkpt>
   <trkpt lat="59.0775175972" lon="29.9884200864"><ele>91.205</ele><time>2026-04-25T15:21:47.000Z</time><hdop>3.0</hdop><vdop>3.0</vdop><extensions><gom:speed>1.522</gom:speed></extensions></trkpt>
   <trkpt lat="59.0775301701" lon="29.9884203379"><ele>91.133</ele><time>2026-04-25T15:21:48.000Z</time><hdop>3.0</hdop><vdop>3.0</vdop><extensions><gom:speed>1.442</gom:speed></extensions></trkpt>
   <trkpt lat="59.0775301701" lon="29.9884203379"><ele>91.09</ele><time>2026-04-25T15:21:48.000Z</time><hdop>3.0</hdop><vdop>3.0</vdop><extensions><gom:speed>1.442</gom:speed></extensions></trkpt>
   <trkpt lat="59.0775416533" lon="29.988420254"><ele>91.05</ele><time>2026-04-25T15:21:49.000Z</time><hdop>3.0</hdop><vdop>3.0</vdop><extensions><gom:speed>1.245</gom:speed></extensions></trkpt>
   <trkpt lat="59.0775534298" lon="29.9884178233"><ele>91.032</ele><time>2026-04-25T15:21:50.000Z</time><hdop>3.0</hdop><vdop>3.0</vdop><extensions><gom:speed>1.272</gom:speed></extensions></trkpt>
   <trkpt lat="59.077566338" lon="29.9884132971"><ele>90.983</ele><time>2026-04-25T15:21:51.000Z</time><hdop>3.0</hdop><vdop>3.0</vdop><extensions><gom:speed>1.378</gom:speed></extensions></trkpt>
   <trkpt lat="59.0775801262" lon="29.9884056695"><ele>90.944</ele><time>2026-04-25T15:21:52.000Z</time><hdop>3.0</hdop><vdop>3.0</vdop><extensions><gom:speed>1.471</gom:speed></extensions></trkpt>
   <trkpt lat="59.0775951717" lon="29.9884013109"><ele>90.901</ele><time>2026-04-25T15:21:53.000Z</time><hdop>3.0</hdop><vdop>3.0</vdop><extensions><gom:speed>1.596</gom:speed></extensions></trkpt>
   <trkpt lat="59.0776088761" lon="29.9884005566"><ele>90.847</ele><time>2026-04-25T15:21:54.000Z</time><hdop>3.0</hdop><vdop>3.0</vdop><extensions><gom:speed>1.548</gom:speed></extensions></trkpt>
   <trkpt lat="59.0776220357" lon="29.9883993831"><ele>90.813</ele><time>2026-04-25T15:21:55.000Z</time><hdop>3.0</hdop><vdop>3.0</vdop><extensions><gom:speed>1.428</gom:speed></extensions></trkpt>
   <trkpt lat="59.0776345248" lon="29.9884036579"><ele>90.83</ele><time>2026-04-25T15:21:56.000Z</time><hdop>3.0</hdop><vdop>3.0</vdop><extensions><gom:speed>1.335</gom:speed></extensions></trkpt>
   <trkpt lat="59.0776475586" lon="29.9884096928"><ele>90.885</ele><time>2026-04-25T15:21:57.000Z</time><hdop>3.0</hdop><vdop>3.0</vdop><extensions><gom:speed>1.44</gom:speed></extensions></trkpt>
   <trkpt lat="59.0776618498" lon="29.9884160631"><ele>90.933</ele><time>2026-04-25T15:21:58.000Z</time><hdop>3.0</hdop><vdop>3.0</vdop><extensions><gom:speed>1.47</gom:speed></extensions></trkpt>
   <trkpt lat="59.077675638" lon="29.988421679"><ele>90.971</ele><time>2026-04-25T15:21:59.000Z</time><hdop>3.0</hdop><vdop>3.0</vdop><extensions><gom:speed>1.432</gom:speed></extensions></trkpt>
   <trkpt lat="59.0776880013" lon="29.9884280492"><ele>91.038</ele><time>2026-04-25T15:22:00.000Z</time><hdop>3.0</hdop><vdop>3.0</vdop><extensions><gom:speed>1.34</gom:speed></extensions></trkpt>
   <trkpt lat="59.0777004903" lon="29.9884333298"><ele>91.122</ele><time>2026-04-25T15:22:01.000Z</time><hdop>3.0</hdop><vdop>3.0</vdop><extensions><gom:speed>1.308</gom:speed></extensions></trkpt>
   <trkpt lat="59.0777134404" lon="29.98843509"><ele>91.189</ele><time>2026-04-25T15:22:02.000Z</time><hdop>3.0</hdop><vdop>3.0</vdop><extensions><gom:speed>1.382</gom:speed></extensions></trkpt>
   <trkpt lat="59.0777268095" lon="29.9884344194"><ele>91.216</ele><time>2026-04-25T15:22:03.000Z</time><hdop>3.0</hdop><vdop>3.0</vdop><extensions><gom:speed>1.343</gom:speed></extensions></trkpt>
   <trkpt lat="59.0777405977" lon="29.988436012"><ele>91.235</ele><time>2026-04-25T15:22:04.000Z</time><hdop>3.0</hdop><vdop>3.0</vdop><extensions><gom:speed>1.41</gom:speed></extensions></trkpt>
   <trkpt lat="59.0777533382" lon="29.9884344194"><ele>91.221</ele><time>2026-04-25T15:22:05.000Z</time><hdop>3.0</hdop><vdop>3.0</vdop><extensions><gom:speed>1.391</gom:speed></extensions></trkpt>
   <trkpt lat="59.077765953" lon="29.9884298932"><ele>91.184</ele><time>2026-04-25T15:22:06.000Z</time><hdop>3.0</hdop><vdop>3.0</vdop><extensions><gom:speed>1.434</gom:speed></extensions></trkpt>
   <trkpt lat="59.0777810823" lon="29.9884204217"><ele>91.149</ele><time>2026-04-25T15:22:07.000Z</time><hdop>3.0</hdop><vdop>3.0</vdop><extensions><gom:speed>1.561</gom:speed></extensions></trkpt>
   <trkpt lat="59.0777957507" lon="29.9884089385"><ele>91.124</ele><time>2026-04-25T15:22:08.000Z</time><hdop>3.0</hdop><vdop>3.0</vdop><extensions><gom:speed>1.55</gom:speed></extensions></trkpt>
   <trkpt lat="59.0777957507" lon="29.9884089385"><ele>91.108</ele><time>2026-04-25T15:22:08.000Z</time><hdop>3.0</hdop><vdop>3.0</vdop><extensions><gom:speed>1.55</gom:speed></extensions></trkpt>
   <trkpt lat="59.077809497" lon="29.9884007242"><ele>91.093</ele><time>2026-04-25T15:22:09.000Z</time><hdop>3.0</hdop><vdop>3.0</vdop><extensions><gom:speed>1.355</gom:speed></extensions></trkpt>
   <trkpt lat="59.0778215669" lon="29.9883948569"><ele>91.087</ele><time>2026-04-25T15:22:10.000Z</time><hdop>3.0</hdop><vdop>3.0</vdop><extensions><gom:speed>1.275</gom:speed></extensions></trkpt>
   <trkpt lat="59.0778329244" lon="29.988394773"><ele>91.14</ele><time>2026-04-25T15:22:11.000Z</time><hdop>3.0</hdop><vdop>3.0</vdop><extensions><gom:speed>1.21</gom:speed></extensions></trkpt>
   <trkpt lat="59.0778420188" lon="29.9883910012"><ele>91.164</ele><time>2026-04-25T15:22:12.000Z</time><hdop>3.0</hdop><vdop>3.0</vdop><extensions><gom:speed>1.205</gom:speed></extensions></trkpt>
   <trkpt lat="59.0778506521" lon="29.9883889895"><ele>91.153</ele><time>2026-04-25T15:22:13.000Z</time><hdop>3.0</hdop><vdop>3.0</vdop><extensions><gom:speed>1.108</gom:speed></extensions></trkpt>
   <trkpt lat="59.0778573157" lon="29.9883842957"><ele>91.136</ele><time>2026-04-25T15:22:14.000Z</time><hdop>3.0</hdop><vdop>3.0</vdop><extensions><gom:speed>0.924</gom:speed></extensions></trkpt>
   <trkpt lat="59.0778638117" lon="29.9883765005"><ele>90.986</ele><time>2026-04-25T15:22:15.000Z</time><hdop>3.0</hdop><vdop>3.0</vdop><extensions><gom:speed>0.972</gom:speed></extensions></trkpt>
   <trkpt lat="59.0778726546" lon="29.9883723934"><ele>90.952</ele><time>2026-04-25T15:22:16.000Z</time><hdop>3.0</hdop><vdop>3.0</vdop><extensions><gom:speed>1.047</gom:speed></extensions></trkpt>
   <trkpt lat="59.077883132" lon="29.988366526"><ele>90.991</ele><time>2026-04-25T15:22:17.000Z</time><hdop>3.0</hdop><vdop>3.0</vdop><extensions><gom:speed>1.512</gom:speed></extensions></trkpt>
   <trkpt lat="59.0778963754" lon="29.9883542046"><ele>91.112</ele><time>2026-04-25T15:22:18.000Z</time><hdop>3.0</hdop><vdop>3.0</vdop><extensions><gom:speed>2.006</gom:speed></extensions></trkpt>
   <trkpt lat="59.0778963754" lon="29.9883542046"><ele>91.183</ele><time>2026-04-25T15:22:18.000Z</time><hdop>3.0</hdop><vdop>3.0</vdop><extensions><gom:speed>2.006</gom:speed></extensions></trkpt>
   <trkpt lat="59.0779102894" lon="29.9883464095"><ele>91.26</ele><time>2026-04-25T15:22:19.000Z</time><hdop>3.0</hdop><vdop>3.0</vdop><extensions><gom:speed>2.061</gom:speed></extensions></trkpt>
   <trkpt lat="59.077923407" lon="29.9883399554"><ele>91.344</ele><time>2026-04-25T15:22:20.000Z</time><hdop>3.0</hdop><vdop>3.0</vdop><extensions><gom:speed>1.864</gom:speed></extensions></trkpt>
   <trkpt lat="59.077923407" lon="29.9883399554"><ele>91.394</ele><time>2026-04-25T15:22:20.000Z</time><hdop>3.0</hdop><vdop>3.0</vdop><extensions><gom:speed>1.864</gom:speed></extensions></trkpt>
   <trkpt lat="59.0779346388" lon="29.9883371056"><ele>91.469</ele><time>2026-04-25T15:22:21.000Z</time><hdop>3.0</hdop><vdop>3.0</vdop><extensions><gom:speed>1.552</gom:speed></extensions></trkpt>
   <trkpt lat="59.0779457867" lon="29.9883351777"><ele>91.541</ele><time>2026-04-25T15:22:22.000Z</time><hdop>3.0</hdop><vdop>3.0</vdop><extensions><gom:speed>1.331</gom:speed></extensions></trkpt>
   <trkpt lat="59.0779550068" lon="29.9883340881"><ele>91.569</ele><time>2026-04-25T15:22:23.000Z</time><hdop>3.0</hdop><vdop>3.0</vdop><extensions><gom:speed>1.185</gom:speed></extensions></trkpt>
   <trkpt lat="59.0779650232" lon="29.9883323279"><ele>91.584</ele><time>2026-04-25T15:22:24.000Z</time><hdop>3.0</hdop><vdop>3.0</vdop><extensions><gom:speed>1.336</gom:speed></extensions></trkpt>
   <trkpt lat="59.077976716" lon="29.9883309029"><ele>91.616</ele><time>2026-04-25T15:22:25.000Z</time><hdop>3.0</hdop><vdop>3.0</vdop><extensions><gom:speed>1.349</gom:speed></extensions></trkpt>
   <trkpt lat="59.0779893726" lon="29.9883309029"><ele>91.649</ele><time>2026-04-25T15:22:26.000Z</time><hdop>3.0</hdop><vdop>3.0</vdop><extensions><gom:speed>1.521</gom:speed></extensions></trkpt>
   <trkpt lat="59.0780022388" lon="29.9883341719"><ele>91.705</ele><time>2026-04-25T15:22:27.000Z</time><hdop>3.0</hdop><vdop>3.0</vdop><extensions><gom:speed>1.594</gom:speed></extensions></trkpt>
   <trkpt lat="59.0780149793" lon="29.9883350101"><ele>91.771</ele><time>2026-04-25T15:22:28.000Z</time><hdop>3.0</hdop><vdop>3.0</vdop><extensions><gom:speed>1.564</gom:speed></extensions></trkpt>
   <trkpt lat="59.0780149793" lon="29.9883350101"><ele>91.81</ele><time>2026-04-25T15:22:28.000Z</time><hdop>3.0</hdop><vdop>3.0</vdop><extensions><gom:speed>1.564</gom:speed></extensions></trkpt>
   <trkpt lat="59.0780270493" lon="29.9883386143"><ele>91.829</ele><time>2026-04-25T15:22:29.000Z</time><hdop>3.0</hdop><vdop>3.0</vdop><extensions><gom:speed>1.494</gom:speed></extensions></trkpt>
   <trkpt lat="59.0780392449" lon="29.988341045"><ele>91.842</ele><time>2026-04-25T15:22:30.000Z</time><hdop>3.0</hdop><vdop>3.0</vdop><extensions><gom:speed>1.29</gom:speed></extensions></trkpt>
   <trkpt lat="59.0780496804" lon="29.9883421347"><ele>91.813</ele><time>2026-04-25T15:22:31.000Z</time><hdop>3.0</hdop><vdop>3.0</vdop><extensions><gom:speed>1.239</gom:speed></extensions></trkpt>
   <trkpt lat="59.0780610379" lon="29.9883421347"><ele>91.801</ele><time>2026-04-25T15:22:32.000Z</time><hdop>3.0</hdop><vdop>3.0</vdop><extensions><gom:speed>1.198</gom:speed></extensions></trkpt>
   <trkpt lat="59.078070719" lon="29.9883432243"><ele>91.777</ele><time>2026-04-25T15:22:33.000Z</time><hdop>3.0</hdop><vdop>3.0</vdop><extensions><gom:speed>1.247</gom:speed></extensions></trkpt>
   <trkpt lat="59.0780813221" lon="29.9883430567"><ele>91.742</ele><time>2026-04-25T15:22:34.000Z</time><hdop>3.0</hdop><vdop>3.0</vdop><extensions><gom:speed>1.303</gom:speed></extensions></trkpt>
   <trkpt lat="59.0780925119" lon="29.9883435596"><ele>91.717</ele><time>2026-04-25T15:22:35.000Z</time><hdop>3.0</hdop><vdop>3.0</vdop><extensions><gom:speed>1.22</gom:speed></extensions></trkpt>
   <trkpt lat="59.0781037018" lon="29.9883448169"><ele>91.682</ele><time>2026-04-25T15:22:36.000Z</time><hdop>3.0</hdop><vdop>3.0</vdop><extensions><gom:speed>1.315</gom:speed></extensions></trkpt>
   <trkpt lat="59.078114724" lon="29.9883471638"><ele>91.613</ele><time>2026-04-25T15:22:37.000Z</time><hdop>3.0</hdop><vdop>3.0</vdop><extensions><gom:speed>1.232</gom:speed></extensions></trkpt>
   <trkpt lat="59.0781235669" lon="29.9883575574"><ele>91.545</ele><time>2026-04-25T15:22:38.000Z</time><hdop>3.0</hdop><vdop>3.0</vdop><extensions><gom:speed>1.172</gom:speed></extensions></trkpt>
   <trkpt lat="59.0781296438" lon="29.9883695435"><ele>91.468</ele><time>2026-04-25T15:22:39.000Z</time><hdop>3.0</hdop><vdop>3.0</vdop><extensions><gom:speed>1.093</gom:speed></extensions></trkpt>
   <trkpt lat="59.0781443121" lon="29.9883798533"><ele>91.357</ele><time>2026-04-25T15:22:40.000Z</time><hdop>3.0</hdop><vdop>3.0</vdop><extensions><gom:speed>1.253</gom:speed></extensions></trkpt>
   <trkpt lat="59.0781533646" lon="29.988389241"><ele>91.279</ele><time>2026-04-25T15:22:41.000Z</time><hdop>3.0</hdop><vdop>3.0</vdop><extensions><gom:speed>1.145</gom:speed></extensions></trkpt>
   <trkpt lat="59.0781618722" lon="29.9883982096"><ele>91.213</ele><time>2026-04-25T15:22:42.000Z</time><hdop>3.0</hdop><vdop>3.0</vdop><extensions><gom:speed>1.07</gom:speed></extensions></trkpt>
   <trkpt lat="59.0781687873" lon="29.9884065915"><ele>91.151</ele><time>2026-04-25T15:22:43.000Z</time><hdop>3.0</hdop><vdop>3.0</vdop><extensions><gom:speed>0.796</gom:speed></extensions></trkpt>
   <trkpt lat="59.0781757442" lon="29.988416566"><ele>91.136</ele><time>2026-04-25T15:22:44.000Z</time><hdop>3.0</hdop><vdop>3.0</vdop><extensions><gom:speed>1.027</gom:speed></extensions></trkpt>
   <trkpt lat="59.0781809829" lon="29.9884263728"><ele>91.11</ele><time>2026-04-25T15:22:45.000Z</time><hdop>3.0</hdop><vdop>3.0</vdop><extensions><gom:speed>0.782</gom:speed></extensions></trkpt>
   <trkpt lat="59.0781861378" lon="29.9884334974"><ele>91.094</ele><time>2026-04-25T15:22:46.000Z</time><hdop>3.0</hdop><vdop>3.0</vdop><extensions><gom:speed>0.78</gom:speed></extensions></trkpt>
   <trkpt lat="59.0781917537" lon="29.9884391133"><ele>91.064</ele><time>2026-04-25T15:22:47.000Z</time><hdop>3.0</hdop><vdop>3.0</vdop><extensions><gom:speed>0.547</gom:speed></extensions></trkpt>
   <trkpt lat="59.0781956513" lon="29.9884412926"><ele>91.026</ele><time>2026-04-25T15:22:48.000Z</time><hdop>3.0</hdop><vdop>3.0</vdop><extensions><gom:speed>0.425</gom:speed></extensions></trkpt>
   <trkpt lat="59.0781956513" lon="29.9884412926"><ele>91.004</ele><time>2026-04-25T15:22:48.000Z</time><hdop>3.0</hdop><vdop>3.0</vdop><extensions><gom:speed>0.425</gom:speed></extensions></trkpt>
   <trkpt lat="59.07820089" lon="29.9884413764"><ele>90.922</ele><time>2026-04-25T15:22:49.000Z</time><hdop>3.0</hdop><vdop>3.0</vdop><extensions><gom:speed>0.551</gom:speed></extensions></trkpt>
   <trkpt lat="59.0782069668" lon="29.9884488363"><ele>90.823</ele><time>2026-04-25T15:22:50.000Z</time><hdop>3.0</hdop><vdop>3.0</vdop><extensions><gom:speed>0.686</gom:speed></extensions></trkpt>
   <trkpt lat="59.0782100262" lon="29.9884519376"><ele>90.757</ele><time>2026-04-25T15:22:51.000Z</time><hdop>3.0</hdop><vdop>3.0</vdop><extensions><gom:speed>0.285</gom:speed></extensions></trkpt>
   <trkpt lat="59.0782100262" lon="29.9884519376"><ele>90.718</ele><time>2026-04-25T15:22:52.000Z</time><hdop>3.0</hdop><vdop>3.0</vdop><extensions><gom:speed>0.0</gom:speed></extensions></trkpt>
   <trkpt lat="59.0782100262" lon="29.9884519376"><ele>90.694</ele><time>2026-04-25T15:22:53.000Z</time><hdop>3.0</hdop><vdop>3.0</vdop><extensions><gom:speed>0.0</gom:speed></extensions></trkpt>
   <trkpt lat="59.0782166479" lon="29.9884555418"><ele>90.72</ele><time>2026-04-25T15:22:54.000Z</time><hdop>3.0</hdop><vdop>3.0</vdop><extensions><gom:speed>0.225</gom:speed></extensions></trkpt>
   <trkpt lat="59.0782223476" lon="29.9884615768"><ele>90.777</ele><time>2026-04-25T15:22:55.000Z</time><hdop>3.0</hdop><vdop>3.0</vdop><extensions><gom:speed>0.465</gom:speed></extensions></trkpt>
   <trkpt lat="59.078231442" lon="29.9884676956"><ele>90.867</ele><time>2026-04-25T15:22:56.000Z</time><hdop>3.0</hdop><vdop>3.0</vdop><extensions><gom:speed>0.715</gom:speed></extensions></trkpt>
   <trkpt lat="59.0782391114" lon="29.9884766642"><ele>90.953</ele><time>2026-04-25T15:22:57.000Z</time><hdop>3.0</hdop><vdop>3.0</vdop><extensions><gom:speed>0.734</gom:speed></extensions></trkpt>
   <trkpt lat="59.0782464037" lon="29.9884832859"><ele>91.007</ele><time>2026-04-25T15:22:58.000Z</time><hdop>3.0</hdop><vdop>3.0</vdop><extensions><gom:speed>0.704</gom:speed></extensions></trkpt>
   <trkpt lat="59.0782464037" lon="29.9884832859"><ele>91.04</ele><time>2026-04-25T15:22:59.000Z</time><hdop>3.0</hdop><vdop>3.0</vdop><extensions><gom:speed>0.0</gom:speed></extensions></trkpt>
   <trkpt lat="59.0782486668" lon="29.9884873093"><ele>91.069</ele><time>2026-04-25T15:23:00.000Z</time><hdop>3.0</hdop><vdop>3.0</vdop><extensions><gom:speed>0.272</gom:speed></extensions></trkpt>
   <trkpt lat="59.0782486668" lon="29.9884873093"><ele>91.086</ele><time>2026-04-25T15:23:01.000Z</time><hdop>3.0</hdop><vdop>3.0</vdop><extensions><gom:speed>0.0</gom:speed></extensions></trkpt>
   <trkpt lat="59.0782515586" lon="29.988493009"><ele>91.113</ele><time>2026-04-25T15:23:02.000Z</time><hdop>3.187</hdop><vdop>3.187</vdop><extensions><gom:speed>0.153</gom:speed></extensions></trkpt>
   <trkpt lat="59.0782549113" lon="29.9884955235"><ele>91.145</ele><time>2026-04-25T15:23:03.000Z</time><hdop>3.187</hdop><vdop>3.187</vdop><extensions><gom:speed>0.239</gom:speed></extensions></trkpt>
   <trkpt lat="59.0782612397" lon="29.9884998821"><ele>91.181</ele><time>2026-04-25T15:23:04.000Z</time><hdop>3.125</hdop><vdop>3.125</vdop><extensions><gom:speed>0.368</gom:speed></extensions></trkpt>
   <trkpt lat="59.0782612397" lon="29.9884998821"><ele>91.203</ele><time>2026-04-25T15:23:05.000Z</time><hdop>3.125</hdop><vdop>3.125</vdop><extensions><gom:speed>0.0</gom:speed></extensions></trkpt>
   <trkpt lat="59.0782661431" lon="29.9885039892"><ele>91.26</ele><time>2026-04-25T15:23:06.000Z</time><hdop>3.312</hdop><vdop>3.312</vdop><extensions><gom:speed>0.312</gom:speed></extensions></trkpt>
   <trkpt lat="59.0782782968" lon="29.9885154725"><ele>91.286</ele><time>2026-04-25T15:23:07.000Z</time><hdop>3.312</hdop><vdop>3.312</vdop><extensions><gom:speed>0.773</gom:speed></extensions></trkpt>
   <trkpt lat="59.078294893" lon="29.988534667"><ele>91.285</ele><time>2026-04-25T15:23:08.000Z</time><hdop>3.437</hdop><vdop>3.437</vdop><extensions><gom:speed>1.45</gom:speed></extensions></trkpt>
   <trkpt lat="59.078294893" lon="29.988534667"><ele>91.284</ele><time>2026-04-25T15:23:08.000Z</time><hdop>3.437</hdop><vdop>3.437</vdop><extensions><gom:speed>1.45</gom:speed></extensions></trkpt>
   <trkpt lat="59.0783267861" lon="29.9885598965"><ele>91.54</ele><time>2026-04-25T15:23:09.000Z</time><hdop>3.937</hdop><vdop>3.937</vdop><extensions><gom:speed>1.331</gom:speed></extensions></trkpt>
   <trkpt lat="59.0783495011" lon="29.9885781691"><ele>91.859</ele><time>2026-04-25T15:23:10.000Z</time><hdop>3.75</hdop><vdop>3.75</vdop><extensions><gom:speed>1.046</gom:speed></extensions></trkpt>
   <trkpt lat="59.0783622416" lon="29.9885899876"><ele>92.186</ele><time>2026-04-25T15:23:11.000Z</time><hdop>3.875</hdop><vdop>3.875</vdop><extensions><gom:speed>1.199</gom:speed></extensions></trkpt>
   <trkpt lat="59.0783759879" lon="29.9886025604"><ele>92.453</ele><time>2026-04-25T15:23:12.000Z</time><hdop>3.5</hdop><vdop>3.5</vdop><extensions><gom:speed>1.365</gom:speed></extensions></trkpt>
   <trkpt lat="59.0783891475" lon="29.9886144627"><ele>92.617</ele><time>2026-04-25T15:23:13.000Z</time><hdop>3.875</hdop><vdop>3.875</vdop><extensions><gom:speed>1.408</gom:speed></extensions></trkpt>
   <trkpt lat="59.078403271" lon="29.9886261136"><ele>92.761</ele><time>2026-04-25T15:23:14.000Z</time><hdop>3.5</hdop><vdop>3.5</vdop><extensions><gom:speed>1.571</gom:speed></extensions></trkpt>
   <trkpt lat="59.0784166401" lon="29.988637513"><ele>92.844</ele><time>2026-04-25T15:23:15.000Z</time><hdop>3.5</hdop><vdop>3.5</vdop><extensions><gom:speed>1.573</gom:speed></extensions></trkpt>
   <trkpt lat="59.0784321048" lon="29.988646314"><ele>92.914</ele><time>2026-04-25T15:23:16.000Z</time><hdop>3.0</hdop><vdop>3.0</vdop><extensions><gom:speed>1.638</gom:speed></extensions></trkpt>
   <trkpt lat="59.0784469407" lon="29.9886567913"><ele>93.007</ele><time>2026-04-25T15:23:17.000Z</time><hdop>3.187</hdop><vdop>3.187</vdop><extensions><gom:speed>1.605</gom:speed></extensions></trkpt>
   <trkpt lat="59.0784598489" lon="29.9886629101"><ele>93.041</ele><time>2026-04-25T15:23:18.000Z</time><hdop>3.187</hdop><vdop>3.187</vdop><extensions><gom:speed>1.529</gom:speed></extensions></trkpt>
   <trkpt lat="59.0784731761" lon="29.98866576"><ele>93.008</ele><time>2026-04-25T15:23:19.000Z</time><hdop>3.187</hdop><vdop>3.187</vdop><extensions><gom:speed>1.757</gom:speed></extensions></trkpt>
   <trkpt lat="59.0784877606" lon="29.9886717111"><ele>92.908</ele><time>2026-04-25T15:23:20.000Z</time><hdop>3.375</hdop><vdop>3.375</vdop><extensions><gom:speed>1.736</gom:speed></extensions></trkpt>
   <trkpt lat="59.0785017165" lon="29.9886808474"><ele>92.79</ele><time>2026-04-25T15:23:21.000Z</time><hdop>3.125</hdop><vdop>3.125</vdop><extensions><gom:speed>1.647</gom:speed></extensions></trkpt>
   <trkpt lat="59.0785155885" lon="29.9886908219"><ele>92.735</ele><time>2026-04-25T15:23:22.000Z</time><hdop>3.375</hdop><vdop>3.375</vdop><extensions><gom:speed>1.568</gom:speed></extensions></trkpt>
   <trkpt lat="59.0785279518" lon="29.9887016345"><ele>92.713</ele><time>2026-04-25T15:23:23.000Z</time><hdop>3.0</hdop><vdop>3.0</vdop><extensions><gom:speed>1.515</gom:speed></extensions></trkpt>
   <trkpt lat="59.0785402732" lon="29.9887120281"><ele>92.679</ele><time>2026-04-25T15:23:24.000Z</time><hdop>3.0</hdop><vdop>3.0</vdop><extensions><gom:speed>1.491</gom:speed></extensions></trkpt>
   <trkpt lat="59.0785545644" lon="29.9887232598"><ele>92.606</ele><time>2026-04-25T15:23:25.000Z</time><hdop>3.0</hdop><vdop>3.0</vdop><extensions><gom:speed>1.62</gom:speed></extensions></trkpt>
   <trkpt lat="59.0785678916" lon="29.9887309712"><ele>92.477</ele><time>2026-04-25T15:23:26.000Z</time><hdop>3.0</hdop><vdop>3.0</vdop><extensions><gom:speed>1.567</gom:speed></extensions></trkpt>
   <trkpt lat="59.0785804225" lon="29.9887379282"><ele>92.381</ele><time>2026-04-25T15:23:27.000Z</time><hdop>3.0</hdop><vdop>3.0</vdop><extensions><gom:speed>1.647</gom:speed></extensions></trkpt>
   <trkpt lat="59.0785934983" lon="29.9887423706"><ele>92.284</ele><time>2026-04-25T15:23:28.000Z</time><hdop>3.0</hdop><vdop>3.0</vdop><extensions><gom:speed>1.409</gom:speed></extensions></trkpt>
   <trkpt lat="59.0785934983" lon="29.9887423706"><ele>92.227</ele><time>2026-04-25T15:23:28.000Z</time><hdop>3.0</hdop><vdop>3.0</vdop><extensions><gom:speed>1.409</gom:speed></extensions></trkpt>
   <trkpt lat="59.0786051491" lon="29.9887476512"><ele>92.161</ele><time>2026-04-25T15:23:29.000Z</time><hdop>3.0</hdop><vdop>3.0</vdop><extensions><gom:speed>1.485</gom:speed></extensions></trkpt>
   <trkpt lat="59.0786164647" lon="29.9887576256"><ele>92.133</ele><time>2026-04-25T15:23:30.000Z</time><hdop>3.0</hdop><vdop>3.0</vdop><extensions><gom:speed>1.489</gom:speed></extensions></trkpt>
   <trkpt lat="59.0786292471" lon="29.9887649179"><ele>92.146</ele><time>2026-04-25T15:23:31.000Z</time><hdop>3.0</hdop><vdop>3.0</vdop><extensions><gom:speed>1.505</gom:speed></extensions></trkpt>
   <trkpt lat="59.078640395" lon="29.9887717072"><ele>92.198</ele><time>2026-04-25T15:23:32.000Z</time><hdop>3.0</hdop><vdop>3.0</vdop><extensions><gom:speed>1.37</gom:speed></extensions></trkpt>
   <trkpt lat="59.0786521297" lon="29.9887743056"><ele>92.248</ele><time>2026-04-25T15:23:33.000Z</time><hdop>3.0</hdop><vdop>3.0</vdop><extensions><gom:speed>1.486</gom:speed></extensions></trkpt>
   <trkpt lat="59.0786647445" lon="29.988776904"><ele>92.293</ele><time>2026-04-25T15:23:34.000Z</time><hdop>3.0</hdop><vdop>3.0</vdop><extensions><gom:speed>1.476</gom:speed></extensions></trkpt>
   <trkpt lat="59.0786764791" lon="29.9887807597"><ele>92.307</ele><time>2026-04-25T15:23:35.000Z</time><hdop>3.0</hdop><vdop>3.0</vdop><extensions><gom:speed>1.404</gom:speed></extensions></trkpt>
   <trkpt lat="59.0786894292" lon="29.9887841124"><ele>92.311</ele><time>2026-04-25T15:23:36.000Z</time><hdop>3.0</hdop><vdop>3.0</vdop><extensions><gom:speed>1.543</gom:speed></extensions></trkpt>
   <trkpt lat="59.0787030079" lon="29.9887888901"><ele>92.322</ele><time>2026-04-25T15:23:37.000Z</time><hdop>3.0</hdop><vdop>3.0</vdop><extensions><gom:speed>1.507</gom:speed></extensions></trkpt>
   <trkpt lat="59.0787147425" lon="29.988795428"><ele>92.344</ele><time>2026-04-25T15:23:38.000Z</time><hdop>3.0</hdop><vdop>3.0</vdop><extensions><gom:speed>1.359</gom:speed></extensions></trkpt>
   <trkpt lat="59.0787257228" lon="29.9888011277"><ele>92.361</ele><time>2026-04-25T15:23:39.000Z</time><hdop>3.0</hdop><vdop>3.0</vdop><extensions><gom:speed>1.277</gom:speed></extensions></trkpt>
   <trkpt lat="59.0787369127" lon="29.9888038937"><ele>92.36</ele><time>2026-04-25T15:23:40.000Z</time><hdop>3.0</hdop><vdop>3.0</vdop><extensions><gom:speed>1.372</gom:speed></extensions></trkpt>
   <trkpt lat="59.0787494017" lon="29.9888063245"><ele>92.379</ele><time>2026-04-25T15:23:41.000Z</time><hdop>3.0</hdop><vdop>3.0</vdop><extensions><gom:speed>1.5</gom:speed></extensions></trkpt>
   <trkpt lat="59.0787639024" lon="29.9888072465"><ele>92.4</ele><time>2026-04-25T15:23:42.000Z</time><hdop>3.0</hdop><vdop>3.0</vdop><extensions><gom:speed>1.671</gom:speed></extensions></trkpt>
   <trkpt lat="59.0787791994" lon="29.9888075818"><ele>92.41</ele><time>2026-04-25T15:23:43.000Z</time><hdop>3.0</hdop><vdop>3.0</vdop><extensions><gom:speed>1.757</gom:speed></extensions></trkpt>
   <trkpt lat="59.078793742" lon="29.9888108507"><ele>92.364</ele><time>2026-04-25T15:23:44.000Z</time><hdop>3.0</hdop><vdop>3.0</vdop><extensions><gom:speed>1.582</gom:speed></extensions></trkpt>
   <trkpt lat="59.0788072368" lon="29.988813952"><ele>92.306</ele><time>2026-04-25T15:23:45.000Z</time><hdop>3.0</hdop><vdop>3.0</vdop><extensions><gom:speed>1.536</gom:speed></extensions></trkpt>
   <trkpt lat="59.0788220309" lon="29.988816299"><ele>92.273</ele><time>2026-04-25T15:23:46.000Z</time><hdop>3.0</hdop><vdop>3.0</vdop><extensions><gom:speed>1.566</gom:speed></extensions></trkpt>
   <trkpt lat="59.0788342685" lon="29.9888201546"><ele>92.67</ele><time>2026-04-25T15:23:47.000Z</time><hdop>7.812</hdop><vdop>7.812</vdop><extensions><gom:speed>1.193</gom:speed></extensions></trkpt>
   <trkpt lat="59.0788473442" lon="29.9888247647"><ele>93.568</ele><time>2026-04-25T15:23:48.000Z</time><hdop>4.687</hdop><vdop>4.687</vdop><extensions><gom:speed>0.887</gom:speed></extensions></trkpt>
   <trkpt lat="59.0788473442" lon="29.9888247647"><ele>94.104</ele><time>2026-04-25T15:23:48.000Z</time><hdop>4.687</hdop><vdop>4.687</vdop><extensions><gom:speed>0.887</gom:speed></extensions></trkpt>
   <trkpt lat="59.0788587436" lon="29.9888353259"><ele>94.505</ele><time>2026-04-25T15:23:49.000Z</time><hdop>4.312</hdop><vdop>4.312</vdop><extensions><gom:speed>1.161</gom:speed></extensions></trkpt>
   <trkpt lat="59.0788708555" lon="29.9888380081"><ele>94.674</ele><time>2026-04-25T15:23:50.000Z</time><hdop>4.75</hdop><vdop>4.75</vdop><extensions><gom:speed>0.996</gom:speed></extensions></trkpt>
   <trkpt lat="59.0788837217" lon="29.9888235912"><ele>94.37</ele><time>2026-04-25T15:23:51.000Z</time><hdop>4.562</hdop><vdop>4.562</vdop><extensions><gom:speed>0.776</gom:speed></extensions></trkpt>
   <trkpt lat="59.0788835121" lon="29.9888660036"><ele>94.333</ele><time>2026-04-25T15:23:52.000Z</time><hdop>4.687</hdop><vdop>4.687</vdop><extensions><gom:speed>1.439</gom:speed></extensions></trkpt>
   <trkpt lat="59.0788998569" lon="29.988857957"><ele>94.183</ele><time>2026-04-25T15:23:53.000Z</time><hdop>4.687</hdop><vdop>4.687</vdop><extensions><gom:speed>1.546</gom:speed></extensions></trkpt>
   <trkpt lat="59.0789227814" lon="29.9888259381"><ele>94.133</ele><time>2026-04-25T15:23:54.000Z</time><hdop>4.687</hdop><vdop>4.687</vdop><extensions><gom:speed>1.08</gom:speed></extensions></trkpt>
   <trkpt lat="59.0789304508" lon="29.9888387625"><ele>94.195</ele><time>2026-04-25T15:23:55.000Z</time><hdop>4.687</hdop><vdop>4.687</vdop><extensions><gom:speed>1.463</gom:speed></extensions></trkpt>
   <trkpt lat="59.078946586" lon="29.9888364993"><ele>94.124</ele><time>2026-04-25T15:23:56.000Z</time><hdop>4.625</hdop><vdop>4.625</vdop><extensions><gom:speed>1.383</gom:speed></extensions></trkpt>
   <trkpt lat="59.0789570214" lon="29.9888480664"><ele>94.039</ele><time>2026-04-25T15:23:57.000Z</time><hdop>4.0</hdop><vdop>4.0</vdop><extensions><gom:speed>1.347</gom:speed></extensions></trkpt>
   <trkpt lat="59.0789679598" lon="29.9888571188"><ele>94.105</ele><time>2026-04-25T15:23:58.000Z</time><hdop>3.937</hdop><vdop>3.937</vdop><extensions><gom:speed>1.881</gom:speed></extensions></trkpt>
   <trkpt lat="59.0789810775" lon="29.9888444622"><ele>94.146</ele><time>2026-04-25T15:23:59.000Z</time><hdop>3.937</hdop><vdop>3.937</vdop><extensions><gom:speed>0.908</gom:speed></extensions></trkpt>
   <trkpt lat="59.0789920578" lon="29.9888506648"><ele>94.136</ele><time>2026-04-25T15:24:00.000Z</time><hdop>3.875</hdop><vdop>3.875</vdop><extensions><gom:speed>1.324</gom:speed></extensions></trkpt>
   <trkpt lat="59.0790055527" lon="29.9888546881"><ele>94.048</ele><time>2026-04-25T15:24:01.000Z</time><hdop>4.062</hdop><vdop>4.062</vdop><extensions><gom:speed>1.527</gom:speed></extensions></trkpt>
   <trkpt lat="59.0790144794" lon="29.9888762296"><ele>94.088</ele><time>2026-04-25T15:24:02.000Z</time><hdop>4.25</hdop><vdop>4.25</vdop><extensions><gom:speed>1.542</gom:speed></extensions></trkpt>
   <trkpt lat="59.0790277647" lon="29.9888739665"><ele>94.207</ele><time>2026-04-25T15:24:03.000Z</time><hdop>4.125</hdop><vdop>4.125</vdop><extensions><gom:speed>1.547</gom:speed></extensions></trkpt>
   <trkpt lat="59.0790334644" lon="29.9888585437"><ele>94.283</ele><time>2026-04-25T15:24:04.000Z</time><hdop>4.125</hdop><vdop>4.125</vdop><extensions><gom:speed>0.656</gom:speed></extensions></trkpt>
   <trkpt lat="59.0790426845" lon="29.9888675962"><ele>93.604</ele><time>2026-04-25T15:24:05.000Z</time><hdop>3.0</hdop><vdop>3.0</vdop><extensions><gom:speed>1.452</gom:speed></extensions></trkpt>
   <trkpt lat="59.0790620886" lon="29.9888841924"><ele>93.239</ele><time>2026-04-25T15:24:06.000Z</time><hdop>3.0</hdop><vdop>3.0</vdop><extensions><gom:speed>1.454</gom:speed></extensions></trkpt>
   <trkpt lat="59.0790876534" lon="29.9889035546"><ele>93.049</ele><time>2026-04-25T15:24:07.000Z</time><hdop>3.0</hdop><vdop>3.0</vdop><extensions><gom:speed>1.541</gom:speed></extensions></trkpt>
   <trkpt lat="59.079110997" lon="29.9889207375"><ele>92.977</ele><time>2026-04-25T15:24:08.000Z</time><hdop>3.0</hdop><vdop>3.0</vdop><extensions><gom:speed>1.492</gom:speed></extensions></trkpt>
   <trkpt lat="59.079110997" lon="29.9889207375"><ele>92.935</ele><time>2026-04-25T15:24:08.000Z</time><hdop>3.0</hdop><vdop>3.0</vdop><extensions><gom:speed>1.492</gom:speed></extensions></trkpt>
   <trkpt lat="59.0791289762" lon="29.9889287003"><ele>92.934</ele><time>2026-04-25T15:24:09.000Z</time><hdop>3.0</hdop><vdop>3.0</vdop><extensions><gom:speed>1.525</gom:speed></extensions></trkpt>
   <trkpt lat="59.079142513" lon="29.9889306281"><ele>92.962</ele><time>2026-04-25T15:24:10.000Z</time><hdop>3.0</hdop><vdop>3.0</vdop><extensions><gom:speed>1.414</gom:speed></extensions></trkpt>
   <trkpt lat="59.079153158" lon="29.9889376689"><ele>93.055</ele><time>2026-04-25T15:24:11.000Z</time><hdop>3.0</hdop><vdop>3.0</vdop><extensions><gom:speed>1.474</gom:speed></extensions></trkpt>
   <trkpt lat="59.0791657727" lon="29.9889454641"><ele>93.136</ele><time>2026-04-25T15:24:12.000Z</time><hdop>3.0</hdop><vdop>3.0</vdop><extensions><gom:speed>1.649</gom:speed></extensions></trkpt>
   <trkpt lat="59.0791810278" lon="29.9889521696"><ele>93.251</ele><time>2026-04-25T15:24:13.000Z</time><hdop>3.0</hdop><vdop>3.0</vdop><extensions><gom:speed>1.576</gom:speed></extensions></trkpt>
   <trkpt lat="59.079194816" lon="29.9889554386"><ele>93.366</ele><time>2026-04-25T15:24:14.000Z</time><hdop>3.0</hdop><vdop>3.0</vdop><extensions><gom:speed>1.583</gom:speed></extensions></trkpt>
   <trkpt lat="59.0792094844" lon="29.9889577017"><ele>93.481</ele><time>2026-04-25T15:24:15.000Z</time><hdop>3.0</hdop><vdop>3.0</vdop><extensions><gom:speed>1.707</gom:speed></extensions></trkpt>
   <trkpt lat="59.07922541" lon="29.9889631499"><ele>93.61</ele><time>2026-04-25T15:24:16.000Z</time><hdop>3.0</hdop><vdop>3.0</vdop><extensions><gom:speed>1.655</gom:speed></extensions></trkpt>
   <trkpt lat="59.0792395754" lon="29.9889665027"><ele>93.718</ele><time>2026-04-25T15:24:17.000Z</time><hdop>3.0</hdop><vdop>3.0</vdop><extensions><gom:speed>1.522</gom:speed></extensions></trkpt>
   <trkpt lat="59.0792517292" lon="29.9889752198"><ele>93.825</ele><time>2026-04-25T15:24:18.000Z</time><hdop>3.0</hdop><vdop>3.0</vdop><extensions><gom:speed>1.384</gom:speed></extensions></trkpt>
   <trkpt lat="59.0792645535" lon="29.9889806681"><ele>93.908</ele><time>2026-04-25T15:24:19.000Z</time><hdop>3.0</hdop><vdop>3.0</vdop><extensions><gom:speed>1.586</gom:speed></extensions></trkpt>
   <trkpt lat="59.0792783417" lon="29.9889887147"><ele>94.014</ele><time>2026-04-25T15:24:20.000Z</time><hdop>3.0</hdop><vdop>3.0</vdop><extensions><gom:speed>1.61</gom:speed></extensions></trkpt>
   <trkpt lat="59.0792927586" lon="29.9889967613"><ele>94.115</ele><time>2026-04-25T15:24:21.000Z</time><hdop>3.0</hdop><vdop>3.0</vdop><extensions><gom:speed>1.561</gom:speed></extensions></trkpt>
   <trkpt lat="59.079307385" lon="29.9890058976"><ele>94.21</ele><time>2026-04-25T15:24:22.000Z</time><hdop>3.0</hdop><vdop>3.0</vdop><extensions><gom:speed>1.65</gom:speed></extensions></trkpt>
   <trkpt lat="59.0793218857" lon="29.9890146986"><ele>94.295</ele><time>2026-04-25T15:24:23.000Z</time><hdop>3.0</hdop><vdop>3.0</vdop><extensions><gom:speed>1.633</gom:speed></extensions></trkpt>
   <trkpt lat="59.0793354644" lon="29.9890256789"><ele>94.401</ele><time>2026-04-25T15:24:24.000Z</time><hdop>3.0</hdop><vdop>3.0</vdop><extensions><gom:speed>1.489</gom:speed></extensions></trkpt>
   <trkpt lat="59.0793469476" lon="29.9890352343"><ele>94.534</ele><time>2026-04-25T15:24:25.000Z</time><hdop>3.0</hdop><vdop>3.0</vdop><extensions><gom:speed>1.406</gom:speed></extensions></trkpt>
   <trkpt lat="59.0793593947" lon="29.9890456278"><ele>94.681</ele><time>2026-04-25T15:24:26.000Z</time><hdop>3.0</hdop><vdop>3.0</vdop><extensions><gom:speed>1.634</gom:speed></extensions></trkpt>
   <trkpt lat="59.0793739792" lon="29.9890537583"><ele>94.81</ele><time>2026-04-25T15:24:27.000Z</time><hdop>3.0</hdop><vdop>3.0</vdop><extensions><gom:speed>1.701</gom:speed></extensions></trkpt>
   <trkpt lat="59.0793878513" lon="29.9890602962"><ele>94.933</ele><time>2026-04-25T15:24:28.000Z</time><hdop>3.0</hdop><vdop>3.0</vdop><extensions><gom:speed>1.679</gom:speed></extensions></trkpt>
   <trkpt lat="59.0793878513" lon="29.9890602962"><ele>95.006</ele><time>2026-04-25T15:24:28.000Z</time><hdop>3.0</hdop><vdop>3.0</vdop><extensions><gom:speed>1.679</gom:speed></extensions></trkpt>
   <trkpt lat="59.0794035673" lon="29.9890646547"><ele>95.099</ele><time>2026-04-25T15:24:29.000Z</time><hdop>3.0</hdop><vdop>3.0</vdop><extensions><gom:speed>1.691</gom:speed></extensions></trkpt>
   <trkpt lat="59.0794181938" lon="29.9890706897"><ele>95.206</ele><time>2026-04-25T15:24:30.000Z</time><hdop>3.0</hdop><vdop>3.0</vdop><extensions><gom:speed>1.502</gom:speed></extensions></trkpt>
   <trkpt lat="59.0794332393" lon="29.9890771438"><ele>95.328</ele><time>2026-04-25T15:24:31.000Z</time><hdop>3.0</hdop><vdop>3.0</vdop><extensions><gom:speed>1.493</gom:speed></extensions></trkpt>
   <trkpt lat="59.0794481171" lon="29.9890870344"><ele>95.476</ele><time>2026-04-25T15:24:32.000Z</time><hdop>3.0</hdop><vdop>3.0</vdop><extensions><gom:speed>1.737</gom:speed></extensions></trkpt>
   <trkpt lat="59.0794616539" lon="29.9891001102"><ele>95.599</ele><time>2026-04-25T15:24:33.000Z</time><hdop>3.0</hdop><vdop>3.0</vdop><extensions><gom:speed>1.663</gom:speed></extensions></trkpt>
   <trkpt lat="59.0794741849" lon="29.9891154491"><ele>95.687</ele><time>2026-04-25T15:24:34.000Z</time><hdop>3.0</hdop><vdop>3.0</vdop><extensions><gom:speed>1.538</gom:speed></extensions></trkpt>
   <trkpt lat="59.0794865901" lon="29.9891276028"><ele>95.726</ele><time>2026-04-25T15:24:35.000Z</time><hdop>3.0</hdop><vdop>3.0</vdop><extensions><gom:speed>1.433</gom:speed></extensions></trkpt>
   <trkpt lat="59.0794987019" lon="29.9891374935"><ele>95.784</ele><time>2026-04-25T15:24:36.000Z</time><hdop>3.0</hdop><vdop>3.0</vdop><extensions><gom:speed>1.494</gom:speed></extensions></trkpt>
   <trkpt lat="59.0795096822" lon="29.9891467974"><ele>95.821</ele><time>2026-04-25T15:24:37.000Z</time><hdop>3.0</hdop><vdop>3.0</vdop><extensions><gom:speed>1.283</gom:speed></extensions></trkpt>
   <trkpt lat="59.0795183575" lon="29.9891558499"><ele>95.832</ele><time>2026-04-25T15:24:38.000Z</time><hdop>3.0</hdop><vdop>3.0</vdop><extensions><gom:speed>1.237</gom:speed></extensions></trkpt>
   <trkpt lat="59.0795291701" lon="29.9891601246"><ele>95.852</ele><time>2026-04-25T15:24:39.000Z</time><hdop>3.0</hdop><vdop>3.0</vdop><extensions><gom:speed>1.085</gom:speed></extensions></trkpt>
   <trkpt lat="59.0795401085" lon="29.9891664111"><ele>95.864</ele><time>2026-04-25T15:24:40.000Z</time><hdop>3.0</hdop><vdop>3.0</vdop><extensions><gom:speed>1.036</gom:speed></extensions></trkpt>
   <trkpt lat="59.0795497477" lon="29.9891736195"><ele>95.856</ele><time>2026-04-25T15:24:41.000Z</time><hdop>3.0</hdop><vdop>3.0</vdop><extensions><gom:speed>1.152</gom:speed></extensions></trkpt>
   <trkpt lat="59.0795597641" lon="29.9891816661"><ele>95.846</ele><time>2026-04-25T15:24:42.000Z</time><hdop>3.0</hdop><vdop>3.0</vdop><extensions><gom:speed>1.316</gom:speed></extensions></trkpt>
   <trkpt lat="59.0795695709" lon="29.9891910538"><ele>95.844</ele><time>2026-04-25T15:24:43.000Z</time><hdop>3.0</hdop><vdop>3.0</vdop><extensions><gom:speed>1.315</gom:speed></extensions></trkpt>
   <trkpt lat="59.0795790006" lon="29.9892023694"><ele>95.839</ele><time>2026-04-25T15:24:44.000Z</time><hdop>3.0</hdop><vdop>3.0</vdop><extensions><gom:speed>1.166</gom:speed></extensions></trkpt>
   <trkpt lat="59.0795890588" lon="29.9892103322"><ele>95.848</ele><time>2026-04-25T15:24:45.000Z</time><hdop>3.0</hdop><vdop>3.0</vdop><extensions><gom:speed>1.255</gom:speed></extensions></trkpt>
   <trkpt lat="59.0795979856" lon="29.9892179598"><ele>95.863</ele><time>2026-04-25T15:24:46.000Z</time><hdop>3.0</hdop><vdop>3.0</vdop><extensions><gom:speed>1.141</gom:speed></extensions></trkpt>
   <trkpt lat="59.0796076248" lon="29.9892229889"><ele>95.927</ele><time>2026-04-25T15:24:47.000Z</time><hdop>3.0</hdop><vdop>3.0</vdop><extensions><gom:speed>1.118</gom:speed></extensions></trkpt>
   <trkpt lat="59.0796160486" lon="29.9892301973"><ele>96.034</ele><time>2026-04-25T15:24:48.000Z</time><hdop>3.0</hdop><vdop>3.0</vdop><extensions><gom:speed>1.184</gom:speed></extensions></trkpt>
   <trkpt lat="59.0796160486" lon="29.9892301973"><ele>96.098</ele><time>2026-04-25T15:24:48.000Z</time><hdop>3.0</hdop><vdop>3.0</vdop><extensions><gom:speed>1.184</gom:speed></extensions></trkpt>
   <trkpt lat="59.0796261069" lon="29.9892379925"><ele>96.187</ele><time>2026-04-25T15:24:49.000Z</time><hdop>3.0</hdop><vdop>3.0</vdop><extensions><gom:speed>1.216</gom:speed></extensions></trkpt>
   <trkpt lat="59.0796377577" lon="29.9892477993"><ele>96.292</ele><time>2026-04-25T15:24:50.000Z</time><hdop>3.0</hdop><vdop>3.0</vdop><extensions><gom:speed>1.402</gom:speed></extensions></trkpt>
   <trkpt lat="59.0796499534" lon="29.9892610427"><ele>96.419</ele><time>2026-04-25T15:24:51.000Z</time><hdop>3.0</hdop><vdop>3.0</vdop><extensions><gom:speed>1.496</gom:speed></extensions></trkpt>
   <trkpt lat="59.0796632387" lon="29.9892732803"><ele>96.526</ele><time>2026-04-25T15:24:52.000Z</time><hdop>3.0</hdop><vdop>3.0</vdop><extensions><gom:speed>1.489</gom:speed></extensions></trkpt>
   <trkpt lat="59.0796756439" lon="29.9892874457"><ele>96.611</ele><time>2026-04-25T15:24:53.000Z</time><hdop>3.0</hdop><vdop>3.0</vdop><extensions><gom:speed>1.574</gom:speed></extensions></trkpt>
   <trkpt lat="59.0796876719" lon="29.989298426"><ele>96.663</ele><time>2026-04-25T15:24:54.000Z</time><hdop>3.0</hdop><vdop>3.0</vdop><extensions><gom:speed>1.459</gom:speed></extensions></trkpt>
   <trkpt lat="59.0797005801" lon="29.9893055506"><ele>96.7</ele><time>2026-04-25T15:24:55.000Z</time><hdop>3.0</hdop><vdop>3.0</vdop><extensions><gom:speed>1.471</gom:speed></extensions></trkpt>
   <trkpt lat="59.0797122728" lon="29.9893104121"><ele>96.717</ele><time>2026-04-25T15:24:56.000Z</time><hdop>3.0</hdop><vdop>3.0</vdop><extensions><gom:speed>1.34</gom:speed></extensions></trkpt>
   <trkpt lat="59.0797232531" lon="29.9893135973"><ele>96.736</ele><time>2026-04-25T15:24:57.000Z</time><hdop>3.0</hdop><vdop>3.0</vdop><extensions><gom:speed>1.277</gom:speed></extensions></trkpt>
   <trkpt lat="59.0797345687" lon="29.9893228174"><ele>96.736</ele><time>2026-04-25T15:24:58.000Z</time><hdop>3.0</hdop><vdop>3.0</vdop><extensions><gom:speed>1.522</gom:speed></extensions></trkpt>
   <trkpt lat="59.0797483569" lon="29.9893301934"><ele>96.721</ele><time>2026-04-25T15:24:59.000Z</time><hdop>3.0</hdop><vdop>3.0</vdop><extensions><gom:speed>1.344</gom:speed></extensions></trkpt>
   <trkpt lat="59.0797606364" lon="29.989334552"><ele>96.684</ele><time>2026-04-25T15:25:00.000Z</time><hdop>3.0</hdop><vdop>3.0</vdop><extensions><gom:speed>1.297</gom:speed></extensions></trkpt>
   <trkpt lat="59.0797725387" lon="29.9893383239"><ele>96.621</ele><time>2026-04-25T15:25:01.000Z</time><hdop>3.0</hdop><vdop>3.0</vdop><extensions><gom:speed>1.264</gom:speed></extensions></trkpt>
   <trkpt lat="59.0797852373" lon="29.9893401679"><ele>96.576</ele><time>2026-04-25T15:25:02.000Z</time><hdop>3.0</hdop><vdop>3.0</vdop><extensions><gom:speed>1.421</gom:speed></extensions></trkpt>
   <trkpt lat="59.079800199" lon="29.9893413414"><ele>96.521</ele><time>2026-04-25T15:25:03.000Z</time><hdop>3.0</hdop><vdop>3.0</vdop><extensions><gom:speed>1.537</gom:speed></extensions></trkpt>
   <trkpt lat="59.0798134424" lon="29.9893421796"><ele>96.479</ele><time>2026-04-25T15:25:04.000Z</time><hdop>3.0</hdop><vdop>3.0</vdop><extensions><gom:speed>1.396</gom:speed></extensions></trkpt>
   <trkpt lat="59.0798263086" lon="29.989342431"><ele>96.455</ele><time>2026-04-25T15:25:05.000Z</time><hdop>3.0</hdop><vdop>3.0</vdop><extensions><gom:speed>1.341</gom:speed></extensions></trkpt>
   <trkpt lat="59.079839091" lon="29.9893446103"><ele>96.428</ele><time>2026-04-25T15:25:06.000Z</time><hdop>3.0</hdop><vdop>3.0</vdop><extensions><gom:speed>1.318</gom:speed></extensions></trkpt>
   <trkpt lat="59.0798527954" lon="29.9893467896"><ele>96.438</ele><time>2026-04-25T15:25:07.000Z</time><hdop>3.0</hdop><vdop>3.0</vdop><extensions><gom:speed>1.594</gom:speed></extensions></trkpt>
   <trkpt lat="59.0798669608" lon="29.9893520702"><ele>96.472</ele><time>2026-04-25T15:25:08.000Z</time><hdop>3.0</hdop><vdop>3.0</vdop><extensions><gom:speed>1.611</gom:speed></extensions></trkpt>
   <trkpt lat="59.0798669608" lon="29.9893520702"><ele>96.493</ele><time>2026-04-25T15:25:08.000Z</time><hdop>3.0</hdop><vdop>3.0</vdop><extensions><gom:speed>1.611</gom:speed></extensions></trkpt>
   <trkpt lat="59.0798818806" lon="29.9893513997"><ele>96.506</ele><time>2026-04-25T15:25:09.000Z</time><hdop>3.0</hdop><vdop>3.0</vdop><extensions><gom:speed>1.664</gom:speed></extensions></trkpt>
   <trkpt lat="59.0798974291" lon="29.989348466"><ele>96.451</ele><time>2026-04-25T15:25:10.000Z</time><hdop>3.0</hdop><vdop>3.0</vdop><extensions><gom:speed>1.711</gom:speed></extensions></trkpt>
   <trkpt lat="59.0799135223" lon="29.9893401679"><ele>96.345</ele><time>2026-04-25T15:25:11.000Z</time><hdop>3.0</hdop><vdop>3.0</vdop><extensions><gom:speed>1.583</gom:speed></extensions></trkpt>
   <trkpt lat="59.0799257599" lon="29.9893374019"><ele>96.2</ele><time>2026-04-25T15:25:12.000Z</time><hdop>3.0</hdop><vdop>3.0</vdop><extensions><gom:speed>1.429</gom:speed></extensions></trkpt>
   <trkpt lat="59.0799351476" lon="29.9893414252"><ele>96.064</ele><time>2026-04-25T15:25:13.000Z</time><hdop>3.0</hdop><vdop>3.0</vdop><extensions><gom:speed>1.342</gom:speed></extensions></trkpt>
   <trkpt lat="59.079947469" lon="29.9893441074"><ele>95.966</ele><time>2026-04-25T15:25:14.000Z</time><hdop>3.0</hdop><vdop>3.0</vdop><extensions><gom:speed>1.477</gom:speed></extensions></trkpt>
   <trkpt lat="59.0799582398" lon="29.9893454485"><ele>95.826</ele><time>2026-04-25T15:25:15.000Z</time><hdop>3.0</hdop><vdop>3.0</vdop><extensions><gom:speed>1.499</gom:speed></extensions></trkpt>
   <trkpt lat="59.0799700583" lon="29.9893472925"><ele>95.652</ele><time>2026-04-25T15:25:16.000Z</time><hdop>3.0</hdop><vdop>3.0</vdop><extensions><gom:speed>1.527</gom:speed></extensions></trkpt>
   <trkpt lat="59.0799840979" lon="29.9893476278"><ele>95.542</ele><time>2026-04-25T15:25:17.000Z</time><hdop>3.0</hdop><vdop>3.0</vdop><extensions><gom:speed>1.567</gom:speed></extensions></trkpt>
   <trkpt lat="59.0799980957" lon="29.9893480469"><ele>95.472</ele><time>2026-04-25T15:25:18.000Z</time><hdop>3.0</hdop><vdop>3.0</vdop><extensions><gom:speed>1.543</gom:speed></extensions></trkpt>
   <trkpt lat="59.080011884" lon="29.9893491365"><ele>95.397</ele><time>2026-04-25T15:25:19.000Z</time><hdop>3.0</hdop><vdop>3.0</vdop><extensions><gom:speed>1.479</gom:speed></extensions></trkpt>
   <trkpt lat="59.0800255465" lon="29.9893489689"><ele>95.32</ele><time>2026-04-25T15:25:20.000Z</time><hdop>3.0</hdop><vdop>3.0</vdop><extensions><gom:speed>1.4</gom:speed></extensions></trkpt>
   <trkpt lat="59.0800380774" lon="29.9893483822"><ele>95.269</ele><time>2026-04-25T15:25:21.000Z</time><hdop>3.0</hdop><vdop>3.0</vdop><extensions><gom:speed>1.358</gom:speed></extensions></trkpt>
   <trkpt lat="59.0800504826" lon="29.9893509806"><ele>95.257</ele><time>2026-04-25T15:25:22.000Z</time><hdop>3.0</hdop><vdop>3.0</vdop><extensions><gom:speed>1.378</gom:speed></extensions></trkpt>
   <trkpt lat="59.0800635584" lon="29.989355423"><ele>95.271</ele><time>2026-04-25T15:25:23.000Z</time><hdop>3.0</hdop><vdop>3.0</vdop><extensions><gom:speed>1.458</gom:speed></extensions></trkpt>
   <trkpt lat="59.0800768018" lon="29.989360955"><ele>95.262</ele><time>2026-04-25T15:25:24.000Z</time><hdop>3.0</hdop><vdop>3.0</vdop><extensions><gom:speed>1.595</gom:speed></extensions></trkpt>
   <trkpt lat="59.0800908834" lon="29.9893668224"><ele>95.201</ele><time>2026-04-25T15:25:25.000Z</time><hdop>3.0</hdop><vdop>3.0</vdop><extensions><gom:speed>1.82</gom:speed></extensions></trkpt>
   <trkpt lat="59.0801053422" lon="29.9893741984"><ele>95.148</ele><time>2026-04-25T15:25:26.000Z</time><hdop>3.0</hdop><vdop>3.0</vdop><extensions><gom:speed>1.753</gom:speed></extensions></trkpt>
   <trkpt lat="59.0801205972" lon="29.9893829156"><ele>95.102</ele><time>2026-04-25T15:25:27.000Z</time><hdop>3.0</hdop><vdop>3.0</vdop><extensions><gom:speed>1.628</gom:speed></extensions></trkpt>
   <trkpt lat="59.0801323738" lon="29.9893985898"><ele>95.021</ele><time>2026-04-25T15:25:28.000Z</time><hdop>3.0</hdop><vdop>3.0</vdop><extensions><gom:speed>1.529</gom:speed></extensions></trkpt>
   <trkpt lat="59.0801323738" lon="29.9893985898"><ele>94.973</ele><time>2026-04-25T15:25:28.000Z</time><hdop>3.0</hdop><vdop>3.0</vdop><extensions><gom:speed>1.529</gom:speed></extensions></trkpt>
   <trkpt lat="59.0801426416" lon="29.9894118332"><ele>94.888</ele><time>2026-04-25T15:25:29.000Z</time><hdop>3.0</hdop><vdop>3.0</vdop><extensions><gom:speed>1.296</gom:speed></extensions></trkpt>
   <trkpt lat="59.0801529514" lon="29.9894235678"><ele>94.839</ele><time>2026-04-25T15:25:30.000Z</time><hdop>3.0</hdop><vdop>3.0</vdop><extensions><gom:speed>1.331</gom:speed></extensions></trkpt>
   <trkpt lat="59.0801615428" lon="29.9894362245"><ele>94.802</ele><time>2026-04-25T15:25:31.000Z</time><hdop>3.0</hdop><vdop>3.0</vdop><extensions><gom:speed>1.157</gom:speed></extensions></trkpt>
   <trkpt lat="59.0801710982" lon="29.9894512281"><ele>94.784</ele><time>2026-04-25T15:25:32.000Z</time><hdop>3.0</hdop><vdop>3.0</vdop><extensions><gom:speed>1.34</gom:speed></extensions></trkpt>
   <trkpt lat="59.0801827071" lon="29.9894653935"><ele>94.782</ele><time>2026-04-25T15:25:33.000Z</time><hdop>3.0</hdop><vdop>3.0</vdop><extensions><gom:speed>1.374</gom:speed></extensions></trkpt>
   <trkpt lat="59.0801946933" lon="29.9894757033"><ele>94.77</ele><time>2026-04-25T15:25:34.000Z</time><hdop>3.0</hdop><vdop>3.0</vdop><extensions><gom:speed>1.378</gom:speed></extensions></trkpt>
   <trkpt lat="59.0802037876" lon="29.98948836"><ele>94.761</ele><time>2026-04-25T15:25:35.000Z</time><hdop>3.0</hdop><vdop>3.0</vdop><extensions><gom:speed>1.229</gom:speed></extensions></trkpt>
   <trkpt lat="59.0802115409" lon="29.9895022739"><ele>94.763</ele><time>2026-04-25T15:25:36.000Z</time><hdop>3.0</hdop><vdop>3.0</vdop><extensions><gom:speed>1.179</gom:speed></extensions></trkpt>
   <trkpt lat="59.0802192522" lon="29.9895120807"><ele>94.756</ele><time>2026-04-25T15:25:37.000Z</time><hdop>3.0</hdop><vdop>3.0</vdop><extensions><gom:speed>1.025</gom:speed></extensions></trkpt>
   <trkpt lat="59.0802271312" lon="29.9895234801"><ele>94.748</ele><time>2026-04-25T15:25:38.000Z</time><hdop>3.0</hdop><vdop>3.0</vdop><extensions><gom:speed>1.033</gom:speed></extensions></trkpt>
   <trkpt lat="59.0802347168" lon="29.9895358015"><ele>94.694</ele><time>2026-04-25T15:25:39.000Z</time><hdop>3.0</hdop><vdop>3.0</vdop><extensions><gom:speed>1.023</gom:speed></extensions></trkpt>
   <trkpt lat="59.0802435598" lon="29.9895459436"><ele>94.617</ele><time>2026-04-25T15:25:40.000Z</time><hdop>3.0</hdop><vdop>3.0</vdop><extensions><gom:speed>1.065</gom:speed></extensions></trkpt>
   <trkpt lat="59.0802510196" lon="29.9895572592"><ele>94.538</ele><time>2026-04-25T15:25:41.000Z</time><hdop>3.0</hdop><vdop>3.0</vdop><extensions><gom:speed>0.92</gom:speed></extensions></trkpt>
   <trkpt lat="59.0802563841" lon="29.9895662278"><ele>94.472</ele><time>2026-04-25T15:25:42.000Z</time><hdop>3.0</hdop><vdop>3.0</vdop><extensions><gom:speed>0.722</gom:speed></extensions></trkpt>
   <trkpt lat="59.080262922" lon="29.989574023"><ele>94.47</ele><time>2026-04-25T15:25:43.000Z</time><hdop>3.0</hdop><vdop>3.0</vdop><extensions><gom:speed>0.743</gom:speed></extensions></trkpt>
   <trkpt lat="59.0802704238" lon="29.9895781301"><ele>94.508</ele><time>2026-04-25T15:25:44.000Z</time><hdop>3.0</hdop><vdop>3.0</vdop><extensions><gom:speed>0.795</gom:speed></extensions></trkpt>
   <trkpt lat="59.0802775065" lon="29.9895819858"><ele>94.54</ele><time>2026-04-25T15:25:45.000Z</time><hdop>3.0</hdop><vdop>3.0</vdop><extensions><gom:speed>0.722</gom:speed></extensions></trkpt>
   <trkpt lat="59.0802849244" lon="29.9895871826"><ele>94.52</ele><time>2026-04-25T15:25:46.000Z</time><hdop>3.0</hdop><vdop>3.0</vdop><extensions><gom:speed>0.818</gom:speed></extensions></trkpt>
   <trkpt lat="59.0802849244" lon="29.9895871826"><ele>94.508</ele><time>2026-04-25T15:25:47.000Z</time><hdop>3.0</hdop><vdop>3.0</vdop><extensions><gom:speed>0.0</gom:speed></extensions></trkpt>
   <trkpt lat="59.08029163" lon="29.9895918765"><ele>94.43</ele><time>2026-04-25T15:25:48.000Z</time><hdop>3.0</hdop><vdop>3.0</vdop><extensions><gom:speed>1.301</gom:speed></extensions></trkpt>
   <trkpt lat="59.08029163" lon="29.9895918765"><ele>94.383</ele><time>2026-04-25T15:25:48.000Z</time><hdop>3.0</hdop><vdop>3.0</vdop><extensions><gom:speed>1.301</gom:speed></extensions></trkpt>
   <trkpt lat="59.0803022331" lon="29.9895958998"><ele>94.302</ele><time>2026-04-25T15:25:49.000Z</time><hdop>3.0</hdop><vdop>3.0</vdop><extensions><gom:speed>1.076</gom:speed></extensions></trkpt>
   <trkpt lat="59.0803108664" lon="29.9896043655"><ele>94.236</ele><time>2026-04-25T15:25:50.000Z</time><hdop>3.0</hdop><vdop>3.0</vdop><extensions><gom:speed>1.192</gom:speed></extensions></trkpt>
   <trkpt lat="59.0803194998" lon="29.989612915"><ele>94.168</ele><time>2026-04-25T15:25:51.000Z</time><hdop>3.0</hdop><vdop>3.0</vdop><extensions><gom:speed>1.037</gom:speed></extensions></trkpt>
   <trkpt lat="59.0803275045" lon="29.9896205426"><ele>94.119</ele><time>2026-04-25T15:25:52.000Z</time><hdop>3.0</hdop><vdop>3.0</vdop><extensions><gom:speed>0.973</gom:speed></extensions></trkpt>
   <trkpt lat="59.0803355511" lon="29.9896287568"><ele>94.078</ele><time>2026-04-25T15:25:53.000Z</time><hdop>3.0</hdop><vdop>3.0</vdop><extensions><gom:speed>0.998</gom:speed></extensions></trkpt>
   <trkpt lat="59.0803423824" lon="29.9896367196"><ele>94.07</ele><time>2026-04-25T15:25:54.000Z</time><hdop>3.0</hdop><vdop>3.0</vdop><extensions><gom:speed>0.64</gom:speed></extensions></trkpt>
   <trkpt lat="59.0803481659" lon="29.9896425032"><ele>94.033</ele><time>2026-04-25T15:25:55.000Z</time><hdop>3.0</hdop><vdop>3.0</vdop><extensions><gom:speed>0.736</gom:speed></extensions></trkpt>
   <trkpt lat="59.0803547038" lon="29.9896485381"><ele>93.985</ele><time>2026-04-25T15:25:56.000Z</time><hdop>3.0</hdop><vdop>3.0</vdop><extensions><gom:speed>0.82</gom:speed></extensions></trkpt>
   <trkpt lat="59.0803613255" lon="29.9896607757"><ele>93.906</ele><time>2026-04-25T15:25:57.000Z</time><hdop>3.0</hdop><vdop>3.0</vdop><extensions><gom:speed>0.997</gom:speed></extensions></trkpt>
   <trkpt lat="59.0803658098" lon="29.9896727618"><ele>93.828</ele><time>2026-04-25T15:25:58.000Z</time><hdop>3.0</hdop><vdop>3.0</vdop><extensions><gom:speed>0.763</gom:speed></extensions></trkpt>
   <trkpt lat="59.0803704199" lon="29.9896803894"><ele>93.799</ele><time>2026-04-25T15:25:59.000Z</time><hdop>3.0</hdop><vdop>3.0</vdop><extensions><gom:speed>0.913</gom:speed></extensions></trkpt>
   <trkpt lat="59.0803788437" lon="29.9896826525"><ele>93.778</ele><time>2026-04-25T15:26:00.000Z</time><hdop>3.0</hdop><vdop>3.0</vdop><extensions><gom:speed>1.178</gom:speed></extensions></trkpt>
   <trkpt lat="59.0803864712" lon="29.9896879331"><ele>93.78</ele><time>2026-04-25T15:26:01.000Z</time><hdop>3.0</hdop><vdop>3.0</vdop><extensions><gom:speed>0.61</gom:speed></extensions></trkpt>
   <trkpt lat="59.0803931767" lon="29.9896929622"><ele>93.801</ele><time>2026-04-25T15:26:02.000Z</time><hdop>3.0</hdop><vdop>3.0</vdop><extensions><gom:speed>1.065</gom:speed></extensions></trkpt>
   <trkpt lat="59.0804037798" lon="29.9896984943"><ele>93.864</ele><time>2026-04-25T15:26:03.000Z</time><hdop>3.0</hdop><vdop>3.0</vdop><extensions><gom:speed>1.092</gom:speed></extensions></trkpt>
   <trkpt lat="59.0804138381" lon="29.9897056189"><ele>93.937</ele><time>2026-04-25T15:26:04.000Z</time><hdop>3.0</hdop><vdop>3.0</vdop><extensions><gom:speed>1.149</gom:speed></extensions></trkpt>
   <trkpt lat="59.0804233935" lon="29.9897134141"><ele>94.003</ele><time>2026-04-25T15:26:05.000Z</time><hdop>3.0</hdop><vdop>3.0</vdop><extensions><gom:speed>1.166</gom:speed></extensions></trkpt>
   <trkpt lat="59.0804337451" lon="29.9897206225"><ele>94.038</ele><time>2026-04-25T15:26:06.000Z</time><hdop>3.0</hdop><vdop>3.0</vdop><extensions><gom:speed>1.15</gom:speed></extensions></trkpt>
   <trkpt lat="59.0804418337" lon="29.98972825"><ele>94.052</ele><time>2026-04-25T15:26:07.000Z</time><hdop>3.0</hdop><vdop>3.0</vdop><extensions><gom:speed>0.851</gom:speed></extensions></trkpt>
   <trkpt lat="59.0804492098" lon="29.9897341174"><ele>94.054</ele><time>2026-04-25T15:26:08.000Z</time><hdop>3.0</hdop><vdop>3.0</vdop><extensions><gom:speed>0.881</gom:speed></extensions></trkpt>
   <trkpt lat="59.0804492098" lon="29.9897341174"><ele>94.056</ele><time>2026-04-25T15:26:08.000Z</time><hdop>3.0</hdop><vdop>3.0</vdop><extensions><gom:speed>0.881</gom:speed></extensions></trkpt>
   <trkpt lat="59.0804581365" lon="29.989744008"><ele>94.075</ele><time>2026-04-25T15:26:09.000Z</time><hdop>3.0</hdop><vdop>3.0</vdop><extensions><gom:speed>1.263</gom:speed></extensions></trkpt>
   <trkpt lat="59.0804660993" lon="29.989753731"><ele>94.077</ele><time>2026-04-25T15:26:10.000Z</time><hdop>3.0</hdop><vdop>3.0</vdop><extensions><gom:speed>0.77</gom:speed></extensions></trkpt>
   <trkpt lat="59.080472721" lon="29.9897619453"><ele>94.093</ele><time>2026-04-25T15:26:11.000Z</time><hdop>3.0</hdop><vdop>3.0</vdop><extensions><gom:speed>0.925</gom:speed></extensions></trkpt>
   <trkpt lat="59.0804806" lon="29.9897703272"><ele>94.121</ele><time>2026-04-25T15:26:12.000Z</time><hdop>3.0</hdop><vdop>3.0</vdop><extensions><gom:speed>0.945</gom:speed></extensions></trkpt>
   <trkpt lat="59.0804890657" lon="29.98977829"><ele>94.141</ele><time>2026-04-25T15:26:13.000Z</time><hdop>3.0</hdop><vdop>3.0</vdop><extensions><gom:speed>0.892</gom:speed></extensions></trkpt>
   <trkpt lat="59.0804984115" lon="29.989786169"><ele>94.183</ele><time>2026-04-25T15:26:14.000Z</time><hdop>3.0</hdop><vdop>3.0</vdop><extensions><gom:speed>0.968</gom:speed></extensions></trkpt>
   <trkpt lat="59.0805059552" lon="29.9897962273"><ele>94.21</ele><time>2026-04-25T15:26:15.000Z</time><hdop>3.0</hdop><vdop>3.0</vdop><extensions><gom:speed>1.039</gom:speed></extensions></trkpt>
   <trkpt lat="59.0805127027" lon="29.9898063694"><ele>94.197</ele><time>2026-04-25T15:26:16.000Z</time><hdop>3.0</hdop><vdop>3.0</vdop><extensions><gom:speed>0.965</gom:speed></extensions></trkpt>
   <trkpt lat="59.0805186538" lon="29.9898134102"><ele>94.146</ele><time>2026-04-25T15:26:17.000Z</time><hdop>3.0</hdop><vdop>3.0</vdop><extensions><gom:speed>0.694</gom:speed></extensions></trkpt>
   <trkpt lat="59.0805248145" lon="29.9898178526"><ele>94.083</ele><time>2026-04-25T15:26:18.000Z</time><hdop>3.0</hdop><vdop>3.0</vdop><extensions><gom:speed>0.958</gom:speed></extensions></trkpt>
   <trkpt lat="59.0805326935" lon="29.9898224626"><ele>94.014</ele><time>2026-04-25T15:26:19.000Z</time><hdop>3.0</hdop><vdop>3.0</vdop><extensions><gom:speed>0.994</gom:speed></extensions></trkpt>
   <trkpt lat="59.0805431709" lon="29.9898253963"><ele>93.952</ele><time>2026-04-25T15:26:20.000Z</time><hdop>3.0</hdop><vdop>3.0</vdop><extensions><gom:speed>1.225</gom:speed></extensions></trkpt>
   <trkpt lat="59.080554235" lon="29.9898305092"><ele>93.905</ele><time>2026-04-25T15:26:21.000Z</time><hdop>3.0</hdop><vdop>3.0</vdop><extensions><gom:speed>1.313</gom:speed></extensions></trkpt>
   <trkpt lat="59.0805654248" lon="29.9898364604"><ele>93.875</ele><time>2026-04-25T15:26:22.000Z</time><hdop>3.0</hdop><vdop>3.0</vdop><extensions><gom:speed>1.142</gom:speed></extensions></trkpt>
   <trkpt lat="59.0805752317" lon="29.9898440879"><ele>93.846</ele><time>2026-04-25T15:26:23.000Z</time><hdop>3.0</hdop><vdop>3.0</vdop><extensions><gom:speed>1.037</gom:speed></extensions></trkpt>
   <trkpt lat="59.0805850804" lon="29.9898534757"><ele>93.847</ele><time>2026-04-25T15:26:24.000Z</time><hdop>3.0</hdop><vdop>3.0</vdop><extensions><gom:speed>1.171</gom:speed></extensions></trkpt>
   <trkpt lat="59.080596396" lon="29.9898613546"><ele>93.859</ele><time>2026-04-25T15:26:25.000Z</time><hdop>3.0</hdop><vdop>3.0</vdop><extensions><gom:speed>1.364</gom:speed></extensions></trkpt>
   <trkpt lat="59.080607963" lon="29.9898720835"><ele>93.836</ele><time>2026-04-25T15:26:26.000Z</time><hdop>3.0</hdop><vdop>3.0</vdop><extensions><gom:speed>1.434</gom:speed></extensions></trkpt>
   <trkpt lat="59.0806194881" lon="29.9898813036"><ele>93.817</ele><time>2026-04-25T15:26:27.000Z</time><hdop>3.0</hdop><vdop>3.0</vdop><extensions><gom:speed>1.293</gom:speed></extensions></trkpt>
   <trkpt lat="59.0806300074" lon="29.9898892664"><ele>93.801</ele><time>2026-04-25T15:26:28.000Z</time><hdop>3.0</hdop><vdop>3.0</vdop><extensions><gom:speed>1.252</gom:speed></extensions></trkpt>
   <trkpt lat="59.0806300074" lon="29.9898892664"><ele>93.791</ele><time>2026-04-25T15:26:28.000Z</time><hdop>3.0</hdop><vdop>3.0</vdop><extensions><gom:speed>1.252</gom:speed></extensions></trkpt>
   <trkpt lat="59.0806403591" lon="29.9898989056"><ele>93.782</ele><time>2026-04-25T15:26:29.000Z</time><hdop>3.0</hdop><vdop>3.0</vdop><extensions><gom:speed>1.338</gom:speed></extensions></trkpt>
   <trkpt lat="59.0806502078" lon="29.9899073713"><ele>93.721</ele><time>2026-04-25T15:26:30.000Z</time><hdop>3.0</hdop><vdop>3.0</vdop><extensions><gom:speed>1.311</gom:speed></extensions></trkpt>
   <trkpt lat="59.0806594698" lon="29.9899155856"><ele>93.628</ele><time>2026-04-25T15:26:31.000Z</time><hdop>3.0</hdop><vdop>3.0</vdop><extensions><gom:speed>1.206</gom:speed></extensions></trkpt>
   <trkpt lat="59.0806701986" lon="29.9899240513"><ele>93.535</ele><time>2026-04-25T15:26:32.000Z</time><hdop>3.0</hdop><vdop>3.0</vdop><extensions><gom:speed>1.323</gom:speed></extensions></trkpt>
   <trkpt lat="59.0806799216" lon="29.9899342772"><ele>93.467</ele><time>2026-04-25T15:26:33.000Z</time><hdop>3.0</hdop><vdop>3.0</vdop><extensions><gom:speed>1.339</gom:speed></extensions></trkpt>
   <trkpt lat="59.0806898542" lon="29.9899449222"><ele>93.43</ele><time>2026-04-25T15:26:34.000Z</time><hdop>3.0</hdop><vdop>3.0</vdop><extensions><gom:speed>1.409</gom:speed></extensions></trkpt>
   <trkpt lat="59.080700583" lon="29.9899532203"><ele>93.381</ele><time>2026-04-25T15:26:35.000Z</time><hdop>3.0</hdop><vdop>3.0</vdop><extensions><gom:speed>1.367</gom:speed></extensions></trkpt>
   <trkpt lat="59.0807085877" lon="29.9899631948"><ele>93.371</ele><time>2026-04-25T15:26:36.000Z</time><hdop>3.0</hdop><vdop>3.0</vdop><extensions><gom:speed>1.146</gom:speed></extensions></trkpt>
   <trkpt lat="59.0807165506" lon="29.9899726663"><ele>93.38</ele><time>2026-04-25T15:26:37.000Z</time><hdop>3.0</hdop><vdop>3.0</vdop><extensions><gom:speed>1.109</gom:speed></extensions></trkpt>
   <trkpt lat="59.0807247229" lon="29.9899830599"><ele>93.401</ele><time>2026-04-25T15:26:38.000Z</time><hdop>3.0</hdop><vdop>3.0</vdop><extensions><gom:speed>1.133</gom:speed></extensions></trkpt>
   <trkpt lat="59.0807347393" lon="29.9899915256"><ele>93.433</ele><time>2026-04-25T15:26:39.000Z</time><hdop>3.0</hdop><vdop>3.0</vdop><extensions><gom:speed>1.262</gom:speed></extensions></trkpt>
   <trkpt lat="59.0807460129" lon="29.9900008295"><ele>93.48</ele><time>2026-04-25T15:26:40.000Z</time><hdop>3.0</hdop><vdop>3.0</vdop><extensions><gom:speed>1.36</gom:speed></extensions></trkpt>
   <trkpt lat="59.0807574542" lon="29.9900093791"><ele>93.534</ele><time>2026-04-25T15:26:41.000Z</time><hdop>3.0</hdop><vdop>3.0</vdop><extensions><gom:speed>1.359</gom:speed></extensions></trkpt>
   <trkpt lat="59.0807688955" lon="29.9900188506"><ele>93.617</ele><time>2026-04-25T15:26:42.000Z</time><hdop>3.0</hdop><vdop>3.0</vdop><extensions><gom:speed>1.291</gom:speed></extensions></trkpt>
   <trkpt lat="59.0807818037" lon="29.9900289927"><ele>94.309</ele><time>2026-04-25T15:26:43.000Z</time><hdop>3.437</hdop><vdop>3.437</vdop><extensions><gom:speed>1.04</gom:speed></extensions></trkpt>
   <trkpt lat="59.0807911495" lon="29.9900392186"><ele>94.696</ele><time>2026-04-25T15:26:44.000Z</time><hdop>3.812</hdop><vdop>3.812</vdop><extensions><gom:speed>0.816</gom:speed></extensions></trkpt>
   <trkpt lat="59.0807986932" lon="29.9900429067"><ele>95.068</ele><time>2026-04-25T15:26:45.000Z</time><hdop>4.0</hdop><vdop>4.0</vdop><extensions><gom:speed>0.851</gom:speed></extensions></trkpt>
   <trkpt lat="59.0807967235" lon="29.9900582456"><ele>95.434</ele><time>2026-04-25T15:26:46.000Z</time><hdop>4.062</hdop><vdop>4.062</vdop><extensions><gom:speed>0.929</gom:speed></extensions></trkpt>
   <trkpt lat="59.0808091287" lon="29.9900513724"><ele>95.643</ele><time>2026-04-25T15:26:47.000Z</time><hdop>4.062</hdop><vdop>4.062</vdop><extensions><gom:speed>1.427</gom:speed></extensions></trkpt>
   <trkpt lat="59.0808091287" lon="29.9900513724"><ele>95.769</ele><time>2026-04-25T15:26:47.000Z</time><hdop>4.062</hdop><vdop>4.062</vdop><extensions><gom:speed>1.427</gom:speed></extensions></trkpt>
   <trkpt lat="59.0808188936" lon="29.9900655378"><ele>95.761</ele><time>2026-04-25T15:26:48.000Z</time><hdop>3.937</hdop><vdop>3.937</vdop><extensions><gom:speed>1.359</gom:speed></extensions></trkpt>
   <trkpt lat="59.0808305025" lon="29.9900760152"><ele>95.827</ele><time>2026-04-25T15:26:49.000Z</time><hdop>3.75</hdop><vdop>3.75</vdop><extensions><gom:speed>1.403</gom:speed></extensions></trkpt>
   <trkpt lat="59.0808418181" lon="29.9900790327"><ele>95.932</ele><time>2026-04-25T15:26:50.000Z</time><hdop>3.625</hdop><vdop>3.625</vdop><extensions><gom:speed>1.346</gom:speed></extensions></trkpt>
   <trkpt lat="59.0808462186" lon="29.9900921084"><ele>95.933</ele><time>2026-04-25T15:26:51.000Z</time><hdop>3.687</hdop><vdop>3.687</vdop><extensions><gom:speed>1.197</gom:speed></extensions></trkpt>
   <trkpt lat="59.0808603002" lon="29.9900975567"><ele>95.996</ele><time>2026-04-25T15:26:52.000Z</time><hdop>4.0</hdop><vdop>4.0</vdop><extensions><gom:speed>1.578</gom:speed></extensions></trkpt>
   <trkpt lat="59.0808611384" lon="29.9901022505"><ele>95.947</ele><time>2026-04-25T15:26:53.000Z</time><hdop>4.0</hdop><vdop>4.0</vdop><extensions><gom:speed>0.28</gom:speed></extensions></trkpt>
   <trkpt lat="59.0808678439" lon="29.9901087046"><ele>95.886</ele><time>2026-04-25T15:26:54.000Z</time><hdop>4.0</hdop><vdop>4.0</vdop><extensions><gom:speed>0.864</gom:speed></extensions></trkpt>
   <trkpt lat="59.0808762677" lon="29.9901201878"><ele>95.798</ele><time>2026-04-25T15:26:55.000Z</time><hdop>3.937</hdop><vdop>3.937</vdop><extensions><gom:speed>1.18</gom:speed></extensions></trkpt>
   <trkpt lat="59.0808771059" lon="29.9901442439"><ele>95.884</ele><time>2026-04-25T15:26:56.000Z</time><hdop>4.187</hdop><vdop>4.187</vdop><extensions><gom:speed>0.841</gom:speed></extensions></trkpt>
   <trkpt lat="59.0808856135" lon="29.9901510332"><ele>96.061</ele><time>2026-04-25T15:26:57.000Z</time><hdop>3.875</hdop><vdop>3.875</vdop><extensions><gom:speed>0.875</gom:speed></extensions></trkpt>
   <trkpt lat="59.0808987731" lon="29.9901651148"><ele>96.126</ele><time>2026-04-25T15:26:58.000Z</time><hdop>4.312</hdop><vdop>4.312</vdop><extensions><gom:speed>1.972</gom:speed></extensions></trkpt>
   <trkpt lat="59.0808981864" lon="29.9901728262"><ele>96.105</ele><time>2026-04-25T15:26:59.000Z</time><hdop>4.375</hdop><vdop>4.375</vdop><extensions><gom:speed>0.47</gom:speed></extensions></trkpt>
   <trkpt lat="59.0809130643" lon="29.9901716527"><ele>96.245</ele><time>2026-04-25T15:27:00.000Z</time><hdop>4.937</hdop><vdop>4.937</vdop><extensions><gom:speed>1.648</gom:speed></extensions></trkpt>
   <trkpt lat="59.0809273973" lon="29.9901799508"><ele>96.301</ele><time>2026-04-25T15:27:01.000Z</time><hdop>4.687</hdop><vdop>4.687</vdop><extensions><gom:speed>1.677</gom:speed></extensions></trkpt>
   <trkpt lat="59.0809315045" lon="29.990187243"><ele>96.314</ele><time>2026-04-25T15:27:02.000Z</time><hdop>4.687</hdop><vdop>4.687</vdop><extensions><gom:speed>0.611</gom:speed></extensions></trkpt>
   <trkpt lat="59.0809449574" lon="29.9901948706"><ele>96.264</ele><time>2026-04-25T15:27:03.000Z</time><hdop>4.687</hdop><vdop>4.687</vdop><extensions><gom:speed>1.577</gom:speed></extensions></trkpt>
   <trkpt lat="59.080950238" lon="29.9902013246"><ele>96.309</ele><time>2026-04-25T15:27:04.000Z</time><hdop>4.687</hdop><vdop>4.687</vdop><extensions><gom:speed>0.68</gom:speed></extensions></trkpt>
   <trkpt lat="59.080950238" lon="29.9902013246"><ele>96.335</ele><time>2026-04-25T15:27:05.000Z</time><hdop>4.875</hdop><vdop>4.875</vdop><extensions><gom:speed>0.0</gom:speed></extensions></trkpt>
   <trkpt lat="59.080950238" lon="29.9902013246"><ele>96.351</ele><time>2026-04-25T15:27:06.000Z</time><hdop>4.437</hdop><vdop>4.437</vdop><extensions><gom:speed>0.034</gom:speed></extensions></trkpt>
   <trkpt lat="59.0809607992" lon="29.9902061023"><ele>95.752</ele><time>2026-04-25T15:27:07.000Z</time><hdop>3.0</hdop><vdop>3.0</vdop><extensions><gom:speed>0.0</gom:speed></extensions></trkpt>
   <trkpt lat="59.0809769763" lon="29.9902134784"><ele>95.394</ele><time>2026-04-25T15:27:08.000Z</time><hdop>3.0</hdop><vdop>3.0</vdop><extensions><gom:speed>0.0</gom:speed></extensions></trkpt>
   <trkpt lat="59.0809769763" lon="29.9902134784"><ele>95.18</ele><time>2026-04-25T15:27:08.000Z</time><hdop>3.0</hdop><vdop>3.0</vdop><extensions><gom:speed>0.0</gom:speed></extensions></trkpt>
   <trkpt lat="59.0809911836" lon="29.9902199325"><ele>95.053</ele><time>2026-04-25T15:27:09.000Z</time><hdop>3.0</hdop><vdop>3.0</vdop><extensions><gom:speed>0.0</gom:speed></extensions></trkpt>
   <trkpt lat="59.080995626" lon="29.9902211059"><ele>94.977</ele><time>2026-04-25T15:27:10.000Z</time><hdop>3.0</hdop><vdop>3.0</vdop><extensions><gom:speed>0.337</gom:speed></extensions></trkpt>
   <trkpt lat="59.080991477" lon="29.9902159091"><ele>94.91</ele><time>2026-04-25T15:27:11.000Z</time><hdop>3.0</hdop><vdop>3.0</vdop><extensions><gom:speed>0.421</gom:speed></extensions></trkpt>
   <trkpt lat="59.0809897168" lon="29.9902066052"><ele>94.84</ele><time>2026-04-25T15:27:12.000Z</time><hdop>3.0</hdop><vdop>3.0</vdop><extensions><gom:speed>0.459</gom:speed></extensions></trkpt>
   <trkpt lat="59.0809897168" lon="29.9902066052"><ele>94.798</ele><time>2026-04-25T15:27:13.000Z</time><hdop>3.0</hdop><vdop>3.0</vdop><extensions><gom:speed>0.0</gom:speed></extensions></trkpt>
   <trkpt lat="59.0809901778" lon="29.9901936971"><ele>94.754</ele><time>2026-04-25T15:27:14.000Z</time><hdop>3.0</hdop><vdop>3.0</vdop><extensions><gom:speed>0.843</gom:speed></extensions></trkpt>
   <trkpt lat="59.0809895072" lon="29.99017291"><ele>94.726</ele><time>2026-04-25T15:27:15.000Z</time><hdop>3.0</hdop><vdop>3.0</vdop><extensions><gom:speed>0.887</gom:speed></extensions></trkpt>
   <trkpt lat="59.0809895072" lon="29.99017291"><ele>94.71</ele><time>2026-04-25T15:27:16.000Z</time><hdop>3.0</hdop><vdop>3.0</vdop><extensions><gom:speed>0.0</gom:speed></extensions></trkpt>
   <trkpt lat="59.0809895072" lon="29.99017291"><ele>94.7</ele><time>2026-04-25T15:27:17.000Z</time><hdop>3.0</hdop><vdop>3.0</vdop><extensions><gom:speed>0.0</gom:speed></extensions></trkpt>
   <trkpt lat="59.0809895072" lon="29.99017291"><ele>94.694</ele><time>2026-04-25T15:27:18.000Z</time><hdop>3.0</hdop><vdop>3.0</vdop><extensions><gom:speed>0.0</gom:speed></extensions></trkpt>
   <trkpt lat="59.0809905131" lon="29.990173832"><ele>94.738</ele><time>2026-04-25T15:27:19.000Z</time><hdop>3.0</hdop><vdop>3.0</vdop><extensions><gom:speed>0.221</gom:speed></extensions></trkpt>
   <trkpt lat="59.0809905131" lon="29.990173832"><ele>94.764</ele><time>2026-04-25T15:27:20.000Z</time><hdop>3.0</hdop><vdop>3.0</vdop><extensions><gom:speed>0.0</gom:speed></extensions></trkpt>
   <trkpt lat="59.0809883757" lon="29.9901812919"><ele>94.859</ele><time>2026-04-25T15:27:21.000Z</time><hdop>3.0</hdop><vdop>3.0</vdop><extensions><gom:speed>0.761</gom:speed></extensions></trkpt>
   <trkpt lat="59.0809903035" lon="29.9902009055"><ele>94.951</ele><time>2026-04-25T15:27:22.000Z</time><hdop>3.0</hdop><vdop>3.0</vdop><extensions><gom:speed>0.986</gom:speed></extensions></trkpt>
   <trkpt lat="59.0809926085" lon="29.9902208545"><ele>95.05</ele><time>2026-04-25T15:27:23.000Z</time><hdop>3.0</hdop><vdop>3.0</vdop><extensions><gom:speed>1.13</gom:speed></extensions></trkpt>
   <trkpt lat="59.0809949136" lon="29.9902343493"><ele>95.209</ele><time>2026-04-25T15:27:24.000Z</time><hdop>3.0</hdop><vdop>3.0</vdop><extensions><gom:speed>0.705</gom:speed></extensions></trkpt>
   <trkpt lat="59.0809952488" lon="29.9902392108"><ele>95.34</ele><time>2026-04-25T15:27:25.000Z</time><hdop>3.0</hdop><vdop>3.0</vdop><extensions><gom:speed>0.123</gom:speed></extensions></trkpt>
   <trkpt lat="59.0809952488" lon="29.9902392108"><ele>95.418</ele><time>2026-04-25T15:27:26.000Z</time><hdop>3.0</hdop><vdop>3.0</vdop><extensions><gom:speed>0.0</gom:speed></extensions></trkpt>
   <trkpt lat="59.0809952488" lon="29.9902392108"><ele>95.465</ele><time>2026-04-25T15:27:27.000Z</time><hdop>3.0</hdop><vdop>3.0</vdop><extensions><gom:speed>0.0</gom:speed></extensions></trkpt>
   <trkpt lat="59.0809994398" lon="29.990240971"><ele>95.551</ele><time>2026-04-25T15:27:28.000Z</time><hdop>3.0</hdop><vdop>3.0</vdop><extensions><gom:speed>0.667</gom:speed></extensions></trkpt>
   <trkpt lat="59.0809994398" lon="29.990240971"><ele>95.603</ele><time>2026-04-25T15:27:28.000Z</time><hdop>3.0</hdop><vdop>3.0</vdop><extensions><gom:speed>0.667</gom:speed></extensions></trkpt>
   <trkpt lat="59.0810061034" lon="29.990246084"><ele>95.701</ele><time>2026-04-25T15:27:29.000Z</time><hdop>3.0</hdop><vdop>3.0</vdop><extensions><gom:speed>0.939</gom:speed></extensions></trkpt>
   <trkpt lat="59.0810113002" lon="29.9902533763"><ele>95.82</ele><time>2026-04-25T15:27:30.000Z</time><hdop>3.0</hdop><vdop>3.0</vdop><extensions><gom:speed>0.974</gom:speed></extensions></trkpt>
   <trkpt lat="59.0810203945" lon="29.99026553"><ele>95.921</ele><time>2026-04-25T15:27:31.000Z</time><hdop>3.0</hdop><vdop>3.0</vdop><extensions><gom:speed>1.183</gom:speed></extensions></trkpt>
   <trkpt lat="59.081027603" lon="29.9902769294"><ele>95.998</ele><time>2026-04-25T15:27:32.000Z</time><hdop>3.0</hdop><vdop>3.0</vdop><extensions><gom:speed>0.958</gom:speed></extensions></trkpt>
   <trkpt lat="59.0810355239" lon="29.9902884126"><ele>96.006</ele><time>2026-04-25T15:27:33.000Z</time><hdop>3.0</hdop><vdop>3.0</vdop><extensions><gom:speed>0.93</gom:speed></extensions></trkpt>
   <trkpt lat="59.0810409302" lon="29.9903006502"><ele>96.02</ele><time>2026-04-25T15:27:34.000Z</time><hdop>3.0</hdop><vdop>3.0</vdop><extensions><gom:speed>1.029</gom:speed></extensions></trkpt>
   <trkpt lat="59.0810454564" lon="29.9903123849"><ele>96.065</ele><time>2026-04-25T15:27:35.000Z</time><hdop>3.0</hdop><vdop>3.0</vdop><extensions><gom:speed>0.906</gom:speed></extensions></trkpt>
   <trkpt lat="59.0810519105" lon="29.9903239519"><ele>96.151</ele><time>2026-04-25T15:27:36.000Z</time><hdop>3.0</hdop><vdop>3.0</vdop><extensions><gom:speed>1.038</gom:speed></extensions></trkpt>
   <trkpt lat="59.0810601667" lon="29.9903373629"><ele>96.185</ele><time>2026-04-25T15:27:37.000Z</time><hdop>3.0</hdop><vdop>3.0</vdop><extensions><gom:speed>1.108</gom:speed></extensions></trkpt>
   <trkpt lat="59.0810711889" lon="29.9903504387"><ele>96.206</ele><time>2026-04-25T15:27:38.000Z</time><hdop>3.0</hdop><vdop>3.0</vdop><extensions><gom:speed>1.3</gom:speed></extensions></trkpt>
   <trkpt lat="59.081081792" lon="29.9903592397"><ele>96.21</ele><time>2026-04-25T15:27:39.000Z</time><hdop>3.0</hdop><vdop>3.0</vdop><extensions><gom:speed>1.129</gom:speed></extensions></trkpt>
   <trkpt lat="59.0810934847" lon="29.990369298"><ele>96.201</ele><time>2026-04-25T15:27:40.000Z</time><hdop>3.0</hdop><vdop>3.0</vdop><extensions><gom:speed>1.248</gom:speed></extensions></trkpt>
   <trkpt lat="59.0811048841" lon="29.9903759197"><ele>96.265</ele><time>2026-04-25T15:27:41.000Z</time><hdop>3.0</hdop><vdop>3.0</vdop><extensions><gom:speed>1.424</gom:speed></extensions></trkpt>
   <trkpt lat="59.0811189238" lon="29.9903863132"><ele>96.298</ele><time>2026-04-25T15:27:42.000Z</time><hdop>3.0</hdop><vdop>3.0</vdop><extensions><gom:speed>1.489</gom:speed></extensions></trkpt>
   <trkpt lat="59.0811314548" lon="29.9903939408"><ele>96.377</ele><time>2026-04-25T15:27:43.000Z</time><hdop>3.0</hdop><vdop>3.0</vdop><extensions><gom:speed>1.442</gom:speed></extensions></trkpt>
   <trkpt lat="59.0811456621" lon="29.9904056754"><ele>92.825</ele><time>2026-04-25T15:27:44.000Z</time><hdop>4.687</hdop><vdop>4.687</vdop><extensions><gom:speed>1.243</gom:speed></extensions></trkpt>
   <trkpt lat="59.0811596599" lon="29.9904170748"><ele>90.53</ele><time>2026-04-25T15:27:45.000Z</time><hdop>4.625</hdop><vdop>4.625</vdop><extensions><gom:speed>0.917</gom:speed></extensions></trkpt>
   <trkpt lat="59.0811743701" lon="29.9904236965"><ele>89.384</ele><time>2026-04-25T15:27:46.000Z</time><hdop>4.687</hdop><vdop>4.687</vdop><extensions><gom:speed>0.749</gom:speed></extensions></trkpt>
   <trkpt lat="59.0811854761" lon="29.9904164881"><ele>88.712</ele><time>2026-04-25T15:27:47.000Z</time><hdop>4.687</hdop><vdop>4.687</vdop><extensions><gom:speed>0.744</gom:speed></extensions></trkpt>
   <trkpt lat="59.0811854761" lon="29.9904164881"><ele>88.31</ele><time>2026-04-25T15:27:47.000Z</time><hdop>4.687</hdop><vdop>4.687</vdop><extensions><gom:speed>0.744</gom:speed></extensions></trkpt>
   <trkpt lat="59.0811931875" lon="29.99040819"><ele>88.148</ele><time>2026-04-25T15:27:48.000Z</time><hdop>4.687</hdop><vdop>4.687</vdop><extensions><gom:speed>0.676</gom:speed></extensions></trkpt>
   <trkpt lat="59.0812045869" lon="29.9904117104"><ele>88.097</ele><time>2026-04-25T15:27:49.000Z</time><hdop>4.687</hdop><vdop>4.687</vdop><extensions><gom:speed>0.544</gom:speed></extensions></trkpt>
   <trkpt lat="59.0812037487" lon="29.9904156499"><ele>88.083</ele><time>2026-04-25T15:27:50.000Z</time><hdop>4.687</hdop><vdop>4.687</vdop><extensions><gom:speed>0.213</gom:speed></extensions></trkpt>
   <trkpt lat="59.0812222308" lon="29.9904024065"><ele>88.084</ele><time>2026-04-25T15:27:51.000Z</time><hdop>4.687</hdop><vdop>4.687</vdop><extensions><gom:speed>1.789</gom:speed></extensions></trkpt>
   <trkpt lat="59.0812397909" lon="29.990403077"><ele>87.688</ele><time>2026-04-25T15:27:52.000Z</time><hdop>4.687</hdop><vdop>4.687</vdop><extensions><gom:speed>2.6</gom:speed></extensions></trkpt>
   <trkpt lat="59.0812522799" lon="29.9904210143"><ele>87.108</ele><time>2026-04-25T15:27:53.000Z</time><hdop>4.687</hdop><vdop>4.687</vdop><extensions><gom:speed>0.902</gom:speed></extensions></trkpt>
   <trkpt lat="59.0812659005" lon="29.9904319108"><ele>86.838</ele><time>2026-04-25T15:27:54.000Z</time><hdop>4.687</hdop><vdop>4.687</vdop><extensions><gom:speed>0.598</gom:speed></extensions></trkpt>
   <trkpt lat="59.0812740309" lon="29.9904340901"><ele>86.082</ele><time>2026-04-25T15:27:55.000Z</time><hdop>4.687</hdop><vdop>4.687</vdop><extensions><gom:speed>0.935</gom:speed></extensions></trkpt>
   <trkpt lat="59.0812907109" lon="29.9904516083"><ele>85.384</ele><time>2026-04-25T15:27:56.000Z</time><hdop>4.687</hdop><vdop>4.687</vdop><extensions><gom:speed>2.079</gom:speed></extensions></trkpt>
   <trkpt lat="59.0813099893" lon="29.9904547934"><ele>84.88</ele><time>2026-04-25T15:27:57.000Z</time><hdop>4.687</hdop><vdop>4.687</vdop><extensions><gom:speed>2.17</gom:speed></extensions></trkpt>
   <trkpt lat="59.0813314051" lon="29.990454961"><ele>84.596</ele><time>2026-04-25T15:27:58.000Z</time><hdop>4.687</hdop><vdop>4.687</vdop><extensions><gom:speed>2.331</gom:speed></extensions></trkpt>
   <trkpt lat="59.0813490071" lon="29.9904731498"><ele>84.593</ele><time>2026-04-25T15:27:59.000Z</time><hdop>4.687</hdop><vdop>4.687</vdop><extensions><gom:speed>2.221</gom:speed></extensions></trkpt>
   <trkpt lat="59.0813694589" lon="29.9904775922"><ele>84.905</ele><time>2026-04-25T15:28:00.000Z</time><hdop>4.687</hdop><vdop>4.687</vdop><extensions><gom:speed>2.329</gom:speed></extensions></trkpt>
   <trkpt lat="59.0813887373" lon="29.990484633"><ele>85.292</ele><time>2026-04-25T15:28:01.000Z</time><hdop>4.687</hdop><vdop>4.687</vdop><extensions><gom:speed>2.194</gom:speed></extensions></trkpt>
   <trkpt lat="59.0814012682" lon="29.9905127962"><ele>85.797</ele><time>2026-04-25T15:28:02.000Z</time><hdop>4.812</hdop><vdop>4.812</vdop><extensions><gom:speed>2.21</gom:speed></extensions></trkpt>
   <trkpt lat="59.0814179063" lon="29.9905182444"><ele>86.271</ele><time>2026-04-25T15:28:03.000Z</time><hdop>4.937</hdop><vdop>4.937</vdop><extensions><gom:speed>1.8</gom:speed></extensions></trkpt>
   <trkpt lat="59.081432868" lon="29.9905292247"><ele>86.566</ele><time>2026-04-25T15:28:04.000Z</time><hdop>4.687</hdop><vdop>4.687</vdop><extensions><gom:speed>1.832</gom:speed></extensions></trkpt>
   <trkpt lat="59.0814502185" lon="29.9905366846"><ele>86.718</ele><time>2026-04-25T15:28:05.000Z</time><hdop>4.687</hdop><vdop>4.687</vdop><extensions><gom:speed>1.9</gom:speed></extensions></trkpt>
   <trkpt lat="59.0814661861" lon="29.9905490898"><ele>86.884</ele><time>2026-04-25T15:28:06.000Z</time><hdop>4.875</hdop><vdop>4.875</vdop><extensions><gom:speed>1.883</gom:speed></extensions></trkpt>
   <trkpt lat="59.0814682396" lon="29.9905561306"><ele>90.791</ele><time>2026-04-25T15:28:07.000Z</time><hdop>3.0</hdop><vdop>3.0</vdop><extensions><gom:speed>1.721</gom:speed></extensions></trkpt>
   <trkpt lat="59.0814779207" lon="29.9905690387"><ele>93.123</ele><time>2026-04-25T15:28:08.000Z</time><hdop>3.0</hdop><vdop>3.0</vdop><extensions><gom:speed>2.105</gom:speed></extensions></trkpt>
   <trkpt lat="59.0814779207" lon="29.9905690387"><ele>94.517</ele><time>2026-04-25T15:28:08.000Z</time><hdop>3.0</hdop><vdop>3.0</vdop><extensions><gom:speed>2.105</gom:speed></extensions></trkpt>
   <trkpt lat="59.0814961933" lon="29.9905811087"><ele>95.344</ele><time>2026-04-25T15:28:09.000Z</time><hdop>3.0</hdop><vdop>3.0</vdop><extensions><gom:speed>1.681</gom:speed></extensions></trkpt>
   <trkpt lat="59.0815155974" lon="29.9905855511"><ele>95.859</ele><time>2026-04-25T15:28:10.000Z</time><hdop>3.0</hdop><vdop>3.0</vdop><extensions><gom:speed>1.088</gom:speed></extensions></trkpt>
   <trkpt lat="59.0815282121" lon="29.9905926757"><ele>96.192</ele><time>2026-04-25T15:28:11.000Z</time><hdop>3.0</hdop><vdop>3.0</vdop><extensions><gom:speed>1.082</gom:speed></extensions></trkpt>
   <trkpt lat="59.0815400306" lon="29.9906006385"><ele>96.391</ele><time>2026-04-25T15:28:12.000Z</time><hdop>3.0</hdop><vdop>3.0</vdop><extensions><gom:speed>1.236</gom:speed></extensions></trkpt>
   <trkpt lat="59.0815544475" lon="29.9906052486"><ele>96.532</ele><time>2026-04-25T15:28:13.000Z</time><hdop>3.0</hdop><vdop>3.0</vdop><extensions><gom:speed>1.461</gom:speed></extensions></trkpt>
   <trkpt lat="59.0815676909" lon="29.9906056676"><ele>96.626</ele><time>2026-04-25T15:28:14.000Z</time><hdop>3.0</hdop><vdop>3.0</vdop><extensions><gom:speed>1.542</gom:speed></extensions></trkpt>
   <trkpt lat="59.0815804733" lon="29.9906015605"><ele>96.707</ele><time>2026-04-25T15:28:15.000Z</time><hdop>3.0</hdop><vdop>3.0</vdop><extensions><gom:speed>1.5</gom:speed></extensions></trkpt>
   <trkpt lat="59.0815946387" lon="29.9905949388"><ele>96.791</ele><time>2026-04-25T15:28:16.000Z</time><hdop>3.0</hdop><vdop>3.0</vdop><extensions><gom:speed>1.476</gom:speed></extensions></trkpt>
   <trkpt lat="59.0816082174" lon="29.9905930948"><ele>96.848</ele><time>2026-04-25T15:28:17.000Z</time><hdop>3.0</hdop><vdop>3.0</vdop><extensions><gom:speed>1.562</gom:speed></extensions></trkpt>
   <trkpt lat="59.0816233048" lon="29.9905919213"><ele>96.898</ele><time>2026-04-25T15:28:18.000Z</time><hdop>3.0</hdop><vdop>3.0</vdop><extensions><gom:speed>1.695</gom:speed></extensions></trkpt>
   <trkpt lat="59.0816372188" lon="29.9905878142"><ele>96.921</ele><time>2026-04-25T15:28:19.000Z</time><hdop>3.0</hdop><vdop>3.0</vdop><extensions><gom:speed>1.675</gom:speed></extensions></trkpt>
   <trkpt lat="59.0816501688" lon="29.9905878142"><ele>96.956</ele><time>2026-04-25T15:28:20.000Z</time><hdop>3.0</hdop><vdop>3.0</vdop><extensions><gom:speed>1.595</gom:speed></extensions></trkpt>
   <trkpt lat="59.0816630351" lon="29.9905889877"><ele>96.983</ele><time>2026-04-25T15:28:21.000Z</time><hdop>3.0</hdop><vdop>3.0</vdop><extensions><gom:speed>1.549</gom:speed></extensions></trkpt>
   <trkpt lat="59.0816759432" lon="29.9905965314"><ele>97.012</ele><time>2026-04-25T15:28:22.000Z</time><hdop>3.0</hdop><vdop>3.0</vdop><extensions><gom:speed>1.607</gom:speed></extensions></trkpt>
   <trkpt lat="59.081689941" lon="29.9906056676"><ele>97.068</ele><time>2026-04-25T15:28:23.000Z</time><hdop>3.0</hdop><vdop>3.0</vdop><extensions><gom:speed>1.616</gom:speed></extensions></trkpt>
   <trkpt lat="59.0817049865" lon="29.9906134628"><ele>97.12</ele><time>2026-04-25T15:28:24.000Z</time><hdop>3.0</hdop><vdop>3.0</vdop><extensions><gom:speed>1.694</gom:speed></extensions></trkpt>
   <trkpt lat="59.0817182718" lon="29.9906226829"><ele>97.153</ele><time>2026-04-25T15:28:25.000Z</time><hdop>3.0</hdop><vdop>3.0</vdop><extensions><gom:speed>1.55</gom:speed></extensions></trkpt>
   <trkpt lat="59.081729755" lon="29.9906317354"><ele>97.177</ele><time>2026-04-25T15:28:26.000Z</time><hdop>3.0</hdop><vdop>3.0</vdop><extensions><gom:speed>1.476</gom:speed></extensions></trkpt>
   <trkpt lat="59.0817437947" lon="29.9906373512"><ele>97.228</ele><time>2026-04-25T15:28:27.000Z</time><hdop>3.0</hdop><vdop>3.0</vdop><extensions><gom:speed>1.492</gom:speed></extensions></trkpt>
   <trkpt lat="59.0817590917" lon="29.990642548"><ele>97.251</ele><time>2026-04-25T15:28:28.000Z</time><hdop>3.0</hdop><vdop>3.0</vdop><extensions><gom:speed>1.496</gom:speed></extensions></trkpt>
   <trkpt lat="59.0817590917" lon="29.990642548"><ele>97.264</ele><time>2026-04-25T15:28:28.000Z</time><hdop>3.0</hdop><vdop>3.0</vdop><extensions><gom:speed>1.496</gom:speed></extensions></trkpt>
   <trkpt lat="59.0817735924" lon="29.9906460684"><ele>97.273</ele><time>2026-04-25T15:28:29.000Z</time><hdop>3.0</hdop><vdop>3.0</vdop><extensions><gom:speed>1.663</gom:speed></extensions></trkpt>
   <trkpt lat="59.0817900209" lon="29.9906509299"><ele>97.264</ele><time>2026-04-25T15:28:30.000Z</time><hdop>3.0</hdop><vdop>3.0</vdop><extensions><gom:speed>1.829</gom:speed></extensions></trkpt>
   <trkpt lat="59.0818074552" lon="29.9906526901"><ele>97.245</ele><time>2026-04-25T15:28:31.000Z</time><hdop>3.0</hdop><vdop>3.0</vdop><extensions><gom:speed>1.761</gom:speed></extensions></trkpt>
   <trkpt lat="59.0818244286" lon="29.9906582222"><ele>97.221</ele><time>2026-04-25T15:28:32.000Z</time><hdop>3.0</hdop><vdop>3.0</vdop><extensions><gom:speed>1.958</gom:speed></extensions></trkpt>
   <trkpt lat="59.0818416115" lon="29.9906673585"><ele>97.201</ele><time>2026-04-25T15:28:33.000Z</time><hdop>3.0</hdop><vdop>3.0</vdop><extensions><gom:speed>1.994</gom:speed></extensions></trkpt>
   <trkpt lat="59.0818588782" lon="29.9906728067"><ele>97.16</ele><time>2026-04-25T15:28:34.000Z</time><hdop>3.0</hdop><vdop>3.0</vdop><extensions><gom:speed>1.895</gom:speed></extensions></trkpt>
   <trkpt lat="59.0818761869" lon="29.9906783387"><ele>97.083</ele><time>2026-04-25T15:28:35.000Z</time><hdop>3.0</hdop><vdop>3.0</vdop><extensions><gom:speed>1.837</gom:speed></extensions></trkpt>
   <trkpt lat="59.0818898494" lon="29.9906875588"><ele>97.035</ele><time>2026-04-25T15:28:36.000Z</time><hdop>3.0</hdop><vdop>3.0</vdop><extensions><gom:speed>1.39</gom:speed></extensions></trkpt>
   <trkpt lat="59.0819025899" lon="29.9906923365"><ele>96.953</ele><time>2026-04-25T15:28:37.000Z</time><hdop>3.0</hdop><vdop>3.0</vdop><extensions><gom:speed>1.48</gom:speed></extensions></trkpt>
   <trkpt lat="59.0819167134" lon="29.9906948511"><ele>96.917</ele><time>2026-04-25T15:28:38.000Z</time><hdop>3.0</hdop><vdop>3.0</vdop><extensions><gom:speed>1.502</gom:speed></extensions></trkpt>
   <trkpt lat="59.0819320942" lon="29.9906959407"><ele>96.848</ele><time>2026-04-25T15:28:39.000Z</time><hdop>3.0</hdop><vdop>3.0</vdop><extensions><gom:speed>1.788</gom:speed></extensions></trkpt>
   <trkpt lat="59.0819483131" lon="29.9907040712"><ele>96.783</ele><time>2026-04-25T15:28:40.000Z</time><hdop>3.0</hdop><vdop>3.0</vdop><extensions><gom:speed>1.822</gom:speed></extensions></trkpt>
   <trkpt lat="59.0819644483" lon="29.9907127046"><ele>96.714</ele><time>2026-04-25T15:28:41.000Z</time><hdop>3.0</hdop><vdop>3.0</vdop><extensions><gom:speed>1.728</gom:speed></extensions></trkpt>
   <trkpt lat="59.0819798291" lon="29.9907200806"><ele>96.624</ele><time>2026-04-25T15:28:42.000Z</time><hdop>3.0</hdop><vdop>3.0</vdop><extensions><gom:speed>1.585</gom:speed></extensions></trkpt>
   <trkpt lat="59.0819947908" lon="29.9907243554"><ele>96.557</ele><time>2026-04-25T15:28:43.000Z</time><hdop>3.0</hdop><vdop>3.0</vdop><extensions><gom:speed>1.666</gom:speed></extensions></trkpt>
   <trkpt lat="59.0820097525" lon="29.9907267861"><ele>96.555</ele><time>2026-04-25T15:28:44.000Z</time><hdop>3.0</hdop><vdop>3.0</vdop><extensions><gom:speed>1.662</gom:speed></extensions></trkpt>
   <trkpt lat="59.0820255524" lon="29.9907267861"><ele>96.592</ele><time>2026-04-25T15:28:45.000Z</time><hdop>3.0</hdop><vdop>3.0</vdop><extensions><gom:speed>1.799</gom:speed></extensions></trkpt>
   <trkpt lat="59.0820417294" lon="29.9907292169"><ele>96.597</ele><time>2026-04-25T15:28:46.000Z</time><hdop>3.0</hdop><vdop>3.0</vdop><extensions><gom:speed>1.729</gom:speed></extensions></trkpt>
   <trkpt lat="59.0820569426" lon="29.9907263671"><ele>96.662</ele><time>2026-04-25T15:28:47.000Z</time><hdop>3.0</hdop><vdop>3.0</vdop><extensions><gom:speed>1.523</gom:speed></extensions></trkpt>
   <trkpt lat="59.0820713595" lon="29.9907331564"><ele>96.684</ele><time>2026-04-25T15:28:48.000Z</time><hdop>3.0</hdop><vdop>3.0</vdop><extensions><gom:speed>1.681</gom:speed></extensions></trkpt>
   <trkpt lat="59.0820713595" lon="29.9907331564"><ele>96.697</ele><time>2026-04-25T15:28:48.000Z</time><hdop>3.0</hdop><vdop>3.0</vdop><extensions><gom:speed>1.681</gom:speed></extensions></trkpt>
   <trkpt lat="59.0820867403" lon="29.9907422088"><ele>96.714</ele><time>2026-04-25T15:28:49.000Z</time><hdop>3.0</hdop><vdop>3.0</vdop><extensions><gom:speed>1.733</gom:speed></extensions></trkpt>
   <trkpt lat="59.0821019953" lon="29.9907493335"><ele>96.738</ele><time>2026-04-25T15:28:50.000Z</time><hdop>3.0</hdop><vdop>3.0</vdop><extensions><gom:speed>1.737</gom:speed></extensions></trkpt>
   <trkpt lat="59.0821181305" lon="29.9907507584"><ele>96.798</ele><time>2026-04-25T15:28:51.000Z</time><hdop>3.0</hdop><vdop>3.0</vdop><extensions><gom:speed>1.789</gom:speed></extensions></trkpt>
   <trkpt lat="59.0821333436" lon="29.9907519319"><ele>96.858</ele><time>2026-04-25T15:28:52.000Z</time><hdop>3.0</hdop><vdop>3.0</vdop><extensions><gom:speed>1.704</gom:speed></extensions></trkpt>
   <trkpt lat="59.0821490178" lon="29.9907546979"><ele>96.949</ele><time>2026-04-25T15:28:53.000Z</time><hdop>3.0</hdop><vdop>3.0</vdop><extensions><gom:speed>1.806</gom:speed></extensions></trkpt>
   <trkpt lat="59.0821630575" lon="29.9907536082"><ele>97.013</ele><time>2026-04-25T15:28:54.000Z</time><hdop>3.0</hdop><vdop>3.0</vdop><extensions><gom:speed>1.676</gom:speed></extensions></trkpt>
   <trkpt lat="59.0821762171" lon="29.9907543626"><ele>97.07</ele><time>2026-04-25T15:28:55.000Z</time><hdop>3.0</hdop><vdop>3.0</vdop><extensions><gom:speed>1.561</gom:speed></extensions></trkpt>
   <trkpt lat="59.0821909692" lon="29.9907602299"><ele>97.106</ele><time>2026-04-25T15:28:56.000Z</time><hdop>3.0</hdop><vdop>3.0</vdop><extensions><gom:speed>1.681</gom:speed></extensions></trkpt>
   <trkpt lat="59.0822062662" lon="29.9907592241"><ele>97.181</ele><time>2026-04-25T15:28:57.000Z</time><hdop>3.0</hdop><vdop>3.0</vdop><extensions><gom:speed>1.826</gom:speed></extensions></trkpt>
   <trkpt lat="59.0822234491" lon="29.9907616549"><ele>97.264</ele><time>2026-04-25T15:28:58.000Z</time><hdop>3.0</hdop><vdop>3.0</vdop><extensions><gom:speed>1.785</gom:speed></extensions></trkpt>
   <trkpt lat="59.0822400872" lon="29.9907679413"><ele>97.336</ele><time>2026-04-25T15:28:59.000Z</time><hdop>3.0</hdop><vdop>3.0</vdop><extensions><gom:speed>1.773</gom:speed></extensions></trkpt>
   <trkpt lat="59.0822560547" lon="29.9907779996"><ele>97.369</ele><time>2026-04-25T15:29:00.000Z</time><hdop>3.0</hdop><vdop>3.0</vdop><extensions><gom:speed>1.791</gom:speed></extensions></trkpt>
   <trkpt lat="59.0822695077" lon="29.9907890637"><ele>97.377</ele><time>2026-04-25T15:29:01.000Z</time><hdop>3.0</hdop><vdop>3.0</vdop><extensions><gom:speed>1.741</gom:speed></extensions></trkpt>
   <trkpt lat="59.0822834635" lon="29.9907938414"><ele>97.293</ele><time>2026-04-25T15:29:02.000Z</time><hdop>3.0</hdop><vdop>3.0</vdop><extensions><gom:speed>1.63</gom:speed></extensions></trkpt>
   <trkpt lat="59.0822989701" lon="29.9907997087"><ele>97.204</ele><time>2026-04-25T15:29:03.000Z</time><hdop>3.0</hdop><vdop>3.0</vdop><extensions><gom:speed>1.66</gom:speed></extensions></trkpt>
   <trkpt lat="59.0823119201" lon="29.9908032291"><ele>97.176</ele><time>2026-04-25T15:29:04.000Z</time><hdop>3.0</hdop><vdop>3.0</vdop><extensions><gom:speed>1.567</gom:speed></extensions></trkpt>
   <trkpt lat="59.082324451" lon="29.9908069171"><ele>97.199</ele><time>2026-04-25T15:29:05.000Z</time><hdop>3.0</hdop><vdop>3.0</vdop><extensions><gom:speed>1.481</gom:speed></extensions></trkpt>
   <trkpt lat="59.0823392451" lon="29.9908130359"><ele>97.245</ele><time>2026-04-25T15:29:06.000Z</time><hdop>3.0</hdop><vdop>3.0</vdop><extensions><gom:speed>1.763</gom:speed></extensions></trkpt>
   <trkpt lat="59.0823542068" lon="29.9908202444"><ele>97.262</ele><time>2026-04-25T15:29:07.000Z</time><hdop>3.0</hdop><vdop>3.0</vdop><extensions><gom:speed>1.612</gom:speed></extensions></trkpt>
   <trkpt lat="59.0823542068" lon="29.9908202444"><ele>97.273</ele><time>2026-04-25T15:29:07.000Z</time><hdop>3.0</hdop><vdop>3.0</vdop><extensions><gom:speed>1.612</gom:speed></extensions></trkpt>
   <trkpt lat="59.0823695457" lon="29.990827369"><ele>97.298</ele><time>2026-04-25T15:29:08.000Z</time><hdop>3.0</hdop><vdop>3.0</vdop><extensions><gom:speed>1.634</gom:speed></extensions></trkpt>
   <trkpt lat="59.0823865609" lon="29.9908363376"><ele>97.309</ele><time>2026-04-25T15:29:09.000Z</time><hdop>3.0</hdop><vdop>3.0</vdop><extensions><gom:speed>1.85</gom:speed></extensions></trkpt>
   <trkpt lat="59.0824016065" lon="29.990844049"><ele>97.317</ele><time>2026-04-25T15:29:10.000Z</time><hdop>3.0</hdop><vdop>3.0</vdop><extensions><gom:speed>1.733</gom:speed></extensions></trkpt>
   <trkpt lat="59.0824171968" lon="29.990848659"><ele>97.313</ele><time>2026-04-25T15:29:11.000Z</time><hdop>3.0</hdop><vdop>3.0</vdop><extensions><gom:speed>1.799</gom:speed></extensions></trkpt>
   <trkpt lat="59.082432829" lon="29.9908508383"><ele>97.359</ele><time>2026-04-25T15:29:12.000Z</time><hdop>3.0</hdop><vdop>3.0</vdop><extensions><gom:speed>1.792</gom:speed></extensions></trkpt>
   <trkpt lat="59.0824479165" lon="29.9908541911"><ele>97.422</ele><time>2026-04-25T15:29:13.000Z</time><hdop>3.0</hdop><vdop>3.0</vdop><extensions><gom:speed>1.866</gom:speed></extensions></trkpt>
   <trkpt lat="59.0824632554" lon="29.9908580468"><ele>97.464</ele><time>2026-04-25T15:29:14.000Z</time><hdop>3.0</hdop><vdop>3.0</vdop><extensions><gom:speed>1.716</gom:speed></extensions></trkpt>
   <trkpt lat="59.0824804802" lon="29.9908614833"><ele>94.591</ele><time>2026-04-25T15:29:15.000Z</time><hdop>4.687</hdop><vdop>4.687</vdop><extensions><gom:speed>1.169</gom:speed></extensions></trkpt>
   <trkpt lat="59.0825040752" lon="29.9908536882"><ele>92.203</ele><time>2026-04-25T15:29:16.000Z</time><hdop>4.687</hdop><vdop>4.687</vdop><extensions><gom:speed>1.356</gom:speed></extensions></trkpt>
   <trkpt lat="59.0825155165" lon="29.9908727151"><ele>90.778</ele><time>2026-04-25T15:29:17.000Z</time><hdop>4.687</hdop><vdop>4.687</vdop><extensions><gom:speed>1.042</gom:speed></extensions></trkpt>
   <trkpt lat="59.0825272512" lon="29.9908683565"><ele>90.046</ele><time>2026-04-25T15:29:18.000Z</time><hdop>5.875</hdop><vdop>5.875</vdop><extensions><gom:speed>1.383</gom:speed></extensions></trkpt>
   <trkpt lat="59.0825446855" lon="29.9908369244"><ele>89.329</ele><time>2026-04-25T15:29:19.000Z</time><hdop>6.125</hdop><vdop>6.125</vdop><extensions><gom:speed>1.501</gom:speed></extensions></trkpt>
   <trkpt lat="59.0825606531" lon="29.9908575438"><ele>88.745</ele><time>2026-04-25T15:29:20.000Z</time><hdop>6.375</hdop><vdop>6.375</vdop><extensions><gom:speed>1.688</gom:speed></extensions></trkpt>
   <trkpt lat="59.0825768721" lon="29.9908580468"><ele>88.48</ele><time>2026-04-25T15:29:21.000Z</time><hdop>6.625</hdop><vdop>6.625</vdop><extensions><gom:speed>1.828</gom:speed></extensions></trkpt>
   <trkpt lat="59.0825983297" lon="29.9908670992"><ele>87.903</ele><time>2026-04-25T15:29:22.000Z</time><hdop>7.125</hdop><vdop>7.125</vdop><extensions><gom:speed>0.15</gom:speed></extensions></trkpt>
   <trkpt lat="59.0826089328" lon="29.9908634112"><ele>87.045</ele><time>2026-04-25T15:29:23.000Z</time><hdop>7.187</hdop><vdop>7.187</vdop><extensions><gom:speed>1.189</gom:speed></extensions></trkpt>
   <trkpt lat="59.0826158479" lon="29.9908707034"><ele>86.283</ele><time>2026-04-25T15:29:24.000Z</time><hdop>7.625</hdop><vdop>7.625</vdop><extensions><gom:speed>1.12</gom:speed></extensions></trkpt>
   <trkpt lat="59.0826321926" lon="29.9908827734"><ele>85.67</ele><time>2026-04-25T15:29:25.000Z</time><hdop>7.187</hdop><vdop>7.187</vdop><extensions><gom:speed>1.58</gom:speed></extensions></trkpt>
   <trkpt lat="59.0826543208" lon="29.9908833601"><ele>85.058</ele><time>2026-04-25T15:29:26.000Z</time><hdop>6.625</hdop><vdop>6.625</vdop><extensions><gom:speed>1.64</gom:speed></extensions></trkpt>
   <trkpt lat="59.0826742279" lon="29.9908981122"><ele>84.515</ele><time>2026-04-25T15:29:27.000Z</time><hdop>6.125</hdop><vdop>6.125</vdop><extensions><gom:speed>1.418</gom:speed></extensions></trkpt>
   <trkpt lat="59.0826922909" lon="29.9908924126"><ele>84.168</ele><time>2026-04-25T15:29:28.000Z</time><hdop>5.437</hdop><vdop>5.437</vdop><extensions><gom:speed>1.408</gom:speed></extensions></trkpt>
   <trkpt lat="59.0826922909" lon="29.9908924126"><ele>83.961</ele><time>2026-04-25T15:29:28.000Z</time><hdop>5.437</hdop><vdop>5.437</vdop><extensions><gom:speed>1.408</gom:speed></extensions></trkpt>
   <trkpt lat="59.0827023491" lon="29.9909038958"><ele>84.073</ele><time>2026-04-25T15:29:29.000Z</time><hdop>5.562</hdop><vdop>5.562</vdop><extensions><gom:speed>1.238</gom:speed></extensions></trkpt>
   <trkpt lat="59.0827080488" lon="29.9909255211"><ele>84.132</ele><time>2026-04-25T15:29:30.000Z</time><hdop>5.312</hdop><vdop>5.312</vdop><extensions><gom:speed>1.845</gom:speed></extensions></trkpt>
   <trkpt lat="59.0827303866" lon="29.9909236771"><ele>84.042</ele><time>2026-04-25T15:29:31.000Z</time><hdop>5.0</hdop><vdop>5.0</vdop><extensions><gom:speed>1.939</gom:speed></extensions></trkpt>
   <trkpt lat="59.0827469828" lon="29.9909399379"><ele>84.07</ele><time>2026-04-25T15:29:32.000Z</time><hdop>4.687</hdop><vdop>4.687</vdop><extensions><gom:speed>1.743</gom:speed></extensions></trkpt>
   <trkpt lat="59.0827610644" lon="29.9909635749"><ele>84.153</ele><time>2026-04-25T15:29:33.000Z</time><hdop>4.687</hdop><vdop>4.687</vdop><extensions><gom:speed>1.583</gom:speed></extensions></trkpt>
   <trkpt lat="59.0827777444" lon="29.9909573723"><ele>84.15</ele><time>2026-04-25T15:29:34.000Z</time><hdop>4.687</hdop><vdop>4.687</vdop><extensions><gom:speed>1.439</gom:speed></extensions></trkpt>
   <trkpt lat="59.0827933347" lon="29.9909582943"><ele>84.044</ele><time>2026-04-25T15:29:35.000Z</time><hdop>4.687</hdop><vdop>4.687</vdop><extensions><gom:speed>1.242</gom:speed></extensions></trkpt>
   <trkpt lat="59.0828060752" lon="29.9909511697"><ele>83.91</ele><time>2026-04-25T15:29:36.000Z</time><hdop>4.687</hdop><vdop>4.687</vdop><extensions><gom:speed>1.167</gom:speed></extensions></trkpt>
   <trkpt lat="59.0828178937" lon="29.9909609765"><ele>83.902</ele><time>2026-04-25T15:29:37.000Z</time><hdop>4.687</hdop><vdop>4.687</vdop><extensions><gom:speed>1.173</gom:speed></extensions></trkpt>
   <trkpt lat="59.0828303827" lon="29.990968185"><ele>83.74</ele><time>2026-04-25T15:29:38.000Z</time><hdop>4.687</hdop><vdop>4.687</vdop><extensions><gom:speed>0.616</gom:speed></extensions></trkpt>
   <trkpt lat="59.0828333164" lon="29.9909640778"><ele>83.565</ele><time>2026-04-25T15:29:39.000Z</time><hdop>4.687</hdop><vdop>4.687</vdop><extensions><gom:speed>0.439</gom:speed></extensions></trkpt>
   <trkpt lat="59.0828368368" lon="29.9909693584"><ele>83.45</ele><time>2026-04-25T15:29:40.000Z</time><hdop>4.687</hdop><vdop>4.687</vdop><extensions><gom:speed>1.2</gom:speed></extensions></trkpt>
   <trkpt lat="59.0828537263" lon="29.9909589649"><ele>83.485</ele><time>2026-04-25T15:29:41.000Z</time><hdop>4.687</hdop><vdop>4.687</vdop><extensions><gom:speed>0.967</gom:speed></extensions></trkpt>
   <trkpt lat="59.0828650838" lon="29.9909742199"><ele>83.468</ele><time>2026-04-25T15:29:42.000Z</time><hdop>5.125</hdop><vdop>5.125</vdop><extensions><gom:speed>1.275</gom:speed></extensions></trkpt>
   <trkpt lat="59.082885368" lon="29.9909782432"><ele>83.349</ele><time>2026-04-25T15:29:43.000Z</time><hdop>4.687</hdop><vdop>4.687</vdop><extensions><gom:speed>1.493</gom:speed></extensions></trkpt>
   <trkpt lat="59.0829026766" lon="29.9909987789"><ele>83.223</ele><time>2026-04-25T15:29:44.000Z</time><hdop>4.687</hdop><vdop>4.687</vdop><extensions><gom:speed>0.565</gom:speed></extensions></trkpt>
   <trkpt lat="59.0829056941" lon="29.9909975216"><ele>83.11</ele><time>2026-04-25T15:29:45.000Z</time><hdop>5.125</hdop><vdop>5.125</vdop><extensions><gom:speed>0.694</gom:speed></extensions></trkpt>
   <trkpt lat="59.0829072867" lon="29.9909914028"><ele>83.153</ele><time>2026-04-25T15:29:46.000Z</time><hdop>5.625</hdop><vdop>5.625</vdop><extensions><gom:speed>0.197</gom:speed></extensions></trkpt>
   <trkpt lat="59.0829098432" lon="29.9909935821"><ele>83.231</ele><time>2026-04-25T15:29:47.000Z</time><hdop>5.562</hdop><vdop>5.562</vdop><extensions><gom:speed>0.323</gom:speed></extensions></trkpt>
   <trkpt lat="59.0829098432" lon="29.9909935821"><ele>83.278</ele><time>2026-04-25T15:29:47.000Z</time><hdop>5.562</hdop><vdop>5.562</vdop><extensions><gom:speed>0.323</gom:speed></extensions></trkpt>
   <trkpt lat="59.0829177221" lon="29.9910060712"><ele>83.242</ele><time>2026-04-25T15:29:48.000Z</time><hdop>5.312</hdop><vdop>5.312</vdop><extensions><gom:speed>0.715</gom:speed></extensions></trkpt>
   <trkpt lat="59.082929373" lon="29.9910211586"><ele>83.119</ele><time>2026-04-25T15:29:49.000Z</time><hdop>5.312</hdop><vdop>5.312</vdop><extensions><gom:speed>0.506</gom:speed></extensions></trkpt>
   <trkpt lat="59.0829366233" lon="29.9910396826"><ele>83.166</ele><time>2026-04-25T15:29:50.000Z</time><hdop>5.25</hdop><vdop>5.25</vdop><extensions><gom:speed>1.399</gom:speed></extensions></trkpt>
   <trkpt lat="59.0829540158" lon="29.9910331447"><ele>83.229</ele><time>2026-04-25T15:29:51.000Z</time><hdop>4.687</hdop><vdop>4.687</vdop><extensions><gom:speed>1.435</gom:speed></extensions></trkpt>
   <trkpt lat="59.0829707377" lon="29.991047813"><ele>83.221</ele><time>2026-04-25T15:29:52.000Z</time><hdop>5.437</hdop><vdop>5.437</vdop><extensions><gom:speed>0.39</gom:speed></extensions></trkpt>
   <trkpt lat="59.0829763116" lon="29.9910649959"><ele>83.277</ele><time>2026-04-25T15:29:53.000Z</time><hdop>5.25</hdop><vdop>5.25</vdop><extensions><gom:speed>1.636</gom:speed></extensions></trkpt>
   <trkpt lat="59.0830006611" lon="29.9910556082"><ele>83.351</ele><time>2026-04-25T15:29:54.000Z</time><hdop>4.687</hdop><vdop>4.687</vdop><extensions><gom:speed>1.2</gom:speed></extensions></trkpt>
   <trkpt lat="59.0830168381" lon="29.9910726235"><ele>83.253</ele><time>2026-04-25T15:29:55.000Z</time><hdop>5.0</hdop><vdop>5.0</vdop><extensions><gom:speed>1.072</gom:speed></extensions></trkpt>
   <trkpt lat="59.0830218254" lon="29.9910427839"><ele>83.263</ele><time>2026-04-25T15:29:56.000Z</time><hdop>4.687</hdop><vdop>4.687</vdop><extensions><gom:speed>1.355</gom:speed></extensions></trkpt>
   <trkpt lat="59.0830343982" lon="29.9910568655"><ele>83.347</ele><time>2026-04-25T15:29:57.000Z</time><hdop>4.687</hdop><vdop>4.687</vdop><extensions><gom:speed>1.455</gom:speed></extensions></trkpt>
   <trkpt lat="59.0830440793" lon="29.9910616432"><ele>83.334</ele><time>2026-04-25T15:29:58.000Z</time><hdop>4.687</hdop><vdop>4.687</vdop><extensions><gom:speed>1.359</gom:speed></extensions></trkpt>
   <trkpt lat="59.0830569456" lon="29.9910788261"><ele>83.402</ele><time>2026-04-25T15:29:59.000Z</time><hdop>4.687</hdop><vdop>4.687</vdop><extensions><gom:speed>1.507</gom:speed></extensions></trkpt>
   <trkpt lat="59.0830569456" lon="29.9910788261"><ele>83.442</ele><time>2026-04-25T15:29:59.000Z</time><hdop>4.687</hdop><vdop>4.687</vdop><extensions><gom:speed>1.507</gom:speed></extensions></trkpt>
   <trkpt lat="59.0830732903" lon="29.9910835199"><ele>83.612</ele><time>2026-04-25T15:30:00.000Z</time><hdop>4.687</hdop><vdop>4.687</vdop><extensions><gom:speed>1.497</gom:speed></extensions></trkpt>
   <trkpt lat="59.0830732903" lon="29.9910835199"><ele>83.714</ele><time>2026-04-25T15:30:00.000Z</time><hdop>4.687</hdop><vdop>4.687</vdop><extensions><gom:speed>1.497</gom:speed></extensions></trkpt>
   <trkpt lat="59.0830918562" lon="29.9910800834"><ele>83.908</ele><time>2026-04-25T15:30:01.000Z</time><hdop>4.687</hdop><vdop>4.687</vdop><extensions><gom:speed>1.271</gom:speed></extensions></trkpt>
   <trkpt lat="59.0831061892" lon="29.9910794966"><ele>84.286</ele><time>2026-04-25T15:30:02.000Z</time><hdop>4.687</hdop><vdop>4.687</vdop><extensions><gom:speed>1.537</gom:speed></extensions></trkpt>
   <trkpt lat="59.0831133977" lon="29.9910746351"><ele>84.727</ele><time>2026-04-25T15:30:03.000Z</time><hdop>4.687</hdop><vdop>4.687</vdop><extensions><gom:speed>0.855</gom:speed></extensions></trkpt>
   <trkpt lat="59.0831291976" lon="29.9910781555"><ele>85.236</ele><time>2026-04-25T15:30:04.000Z</time><hdop>4.687</hdop><vdop>4.687</vdop><extensions><gom:speed>1.746</gom:speed></extensions></trkpt>
   <trkpt lat="59.0831467157" lon="29.991096009"><ele>85.719</ele><time>2026-04-25T15:30:05.000Z</time><hdop>4.687</hdop><vdop>4.687</vdop><extensions><gom:speed>2.169</gom:speed></extensions></trkpt>
   <trkpt lat="59.0831663294" lon="29.9910855316"><ele>85.954</ele><time>2026-04-25T15:30:06.000Z</time><hdop>4.687</hdop><vdop>4.687</vdop><extensions><gom:speed>2.336</gom:speed></extensions></trkpt>
   <trkpt lat="59.0831663294" lon="29.9910855316"><ele>86.095</ele><time>2026-04-25T15:30:06.000Z</time><hdop>4.687</hdop><vdop>4.687</vdop><extensions><gom:speed>2.336</gom:speed></extensions></trkpt>
   <trkpt lat="59.0512399955" lon="29.9639399838"><ele>51.443</ele><time>2026-04-25T15:30:07.474Z</time><hdop>4095.937</hdop><vdop>0.0</vdop><extensions><gom:speed>0.0</gom:speed></extensions></trkpt>
   <trkpt lat="59.0831788184" lon="29.9910955061"><ele>65.375</ele><time>2026-04-25T15:30:07.000Z</time><hdop>4.687</hdop><vdop>4.687</vdop><extensions><gom:speed>0.889</gom:speed></extensions></trkpt>
   <trkpt lat="59.083191517" lon="29.9911047262"><ele>73.756</ele><time>2026-04-25T15:30:08.000Z</time><hdop>4.687</hdop><vdop>4.687</vdop><extensions><gom:speed>0.863</gom:speed></extensions></trkpt>
   <trkpt lat="59.083191517" lon="29.9911047262"><ele>78.764</ele><time>2026-04-25T15:30:08.000Z</time><hdop>4.687</hdop><vdop>4.687</vdop><extensions><gom:speed>0.863</gom:speed></extensions></trkpt>
   <trkpt lat="59.0831926067" lon="29.9911241722"><ele>81.805</ele><time>2026-04-25T15:30:09.000Z</time><hdop>4.687</hdop><vdop>4.687</vdop><extensions><gom:speed>1.047</gom:speed></extensions></trkpt>
   <trkpt lat="59.0832077779" lon="29.9911338114"><ele>83.571</ele><time>2026-04-25T15:30:10.000Z</time><hdop>4.687</hdop><vdop>4.687</vdop><extensions><gom:speed>0.66</gom:speed></extensions></trkpt>
   <trkpt lat="59.0832193868" lon="29.9911272735"><ele>84.724</ele><time>2026-04-25T15:30:11.000Z</time><hdop>4.687</hdop><vdop>4.687</vdop><extensions><gom:speed>1.348</gom:speed></extensions></trkpt>
   <trkpt lat="59.0832372822" lon="29.9911329732"><ele>85.368</ele><time>2026-04-25T15:30:12.000Z</time><hdop>4.687</hdop><vdop>4.687</vdop><extensions><gom:speed>2.039</gom:speed></extensions></trkpt>
   <trkpt lat="59.0832505675" lon="29.9911083304"><ele>85.754</ele><time>2026-04-25T15:30:13.000Z</time><hdop>4.687</hdop><vdop>4.687</vdop><extensions><gom:speed>0.875</gom:speed></extensions></trkpt>
   <trkpt lat="59.0832649006" lon="29.9911184725"><ele>85.947</ele><time>2026-04-25T15:30:14.000Z</time><hdop>4.687</hdop><vdop>4.687</vdop><extensions><gom:speed>1.322</gom:speed></extensions></trkpt>
   <trkpt lat="59.0832856039" lon="29.991130291"><ele>86.065</ele><time>2026-04-25T15:30:15.000Z</time><hdop>4.687</hdop><vdop>4.687</vdop><extensions><gom:speed>1.679</gom:speed></extensions></trkpt>
   <trkpt lat="59.0833070615" lon="29.9911285308"><ele>86.222</ele><time>2026-04-25T15:30:16.000Z</time><hdop>4.687</hdop><vdop>4.687</vdop><extensions><gom:speed>1.653</gom:speed></extensions></trkpt>
   <trkpt lat="59.0833243283" lon="29.9911264353"><ele>86.304</ele><time>2026-04-25T15:30:17.000Z</time><hdop>4.687</hdop><vdop>4.687</vdop><extensions><gom:speed>1.849</gom:speed></extensions></trkpt>
   <trkpt lat="59.0833272619" lon="29.9911304586"><ele>86.352</ele><time>2026-04-25T15:30:18.000Z</time><hdop>4.687</hdop><vdop>4.687</vdop><extensions><gom:speed>0.424</gom:speed></extensions></trkpt>
   <trkpt lat="59.0833362725" lon="29.9911236693"><ele>86.448</ele><time>2026-04-25T15:30:19.000Z</time><hdop>4.687</hdop><vdop>4.687</vdop><extensions><gom:speed>1.132</gom:speed></extensions></trkpt>
   <trkpt lat="59.0833506474" lon="29.9911545985"><ele>86.536</ele><time>2026-04-25T15:30:20.000Z</time><hdop>4.687</hdop><vdop>4.687</vdop><extensions><gom:speed>1.32</gom:speed></extensions></trkpt>
   <trkpt lat="59.08336892" lon="29.9911668361"><ele>86.551</ele><time>2026-04-25T15:30:21.000Z</time><hdop>4.687</hdop><vdop>4.687</vdop><extensions><gom:speed>0.774</gom:speed></extensions></trkpt>
   <trkpt lat="59.0833835045" lon="29.991154347"><ele>86.541</ele><time>2026-04-25T15:30:22.000Z</time><hdop>4.687</hdop><vdop>4.687</vdop><extensions><gom:speed>0.607</gom:speed></extensions></trkpt>
   <trkpt lat="59.0833934371" lon="29.9911686801"><ele>86.525</ele><time>2026-04-25T15:30:23.000Z</time><hdop>4.687</hdop><vdop>4.687</vdop><extensions><gom:speed>0.477</gom:speed></extensions></trkpt>
   <trkpt lat="59.0834026152" lon="29.9911773134"><ele>86.523</ele><time>2026-04-25T15:30:24.000Z</time><hdop>4.687</hdop><vdop>4.687</vdop><extensions><gom:speed>1.165</gom:speed></extensions></trkpt>
   <trkpt lat="59.0834159425" lon="29.9911826779"><ele>86.436</ele><time>2026-04-25T15:30:25.000Z</time><hdop>4.687</hdop><vdop>4.687</vdop><extensions><gom:speed>1.277</gom:speed></extensions></trkpt>
   <trkpt lat="59.0834394118" lon="29.9911944125"><ele>86.529</ele><time>2026-04-25T15:30:26.000Z</time><hdop>4.687</hdop><vdop>4.687</vdop><extensions><gom:speed>1.606</gom:speed></extensions></trkpt>
   <trkpt lat="59.0834597379" lon="29.9912084941"><ele>86.623</ele><time>2026-04-25T15:30:27.000Z</time><hdop>4.687</hdop><vdop>4.687</vdop><extensions><gom:speed>1.868</gom:speed></extensions></trkpt>
   <trkpt lat="59.0834597379" lon="29.9912084941"><ele>86.679</ele><time>2026-04-25T15:30:27.000Z</time><hdop>4.687</hdop><vdop>4.687</vdop><extensions><gom:speed>1.868</gom:speed></extensions></trkpt>
   <trkpt lat="59.083474532" lon="29.9912157026"><ele>86.713</ele><time>2026-04-25T15:30:28.000Z</time><hdop>4.687</hdop><vdop>4.687</vdop><extensions><gom:speed>1.166</gom:speed></extensions></trkpt>
   <trkpt lat="59.0834645994" lon="29.9912249227"><ele>86.733</ele><time>2026-04-25T15:30:29.000Z</time><hdop>4.687</hdop><vdop>4.687</vdop><extensions><gom:speed>1.323</gom:speed></extensions></trkpt>
   <trkpt lat="59.0834829977" lon="29.9912260961"><ele>86.715</ele><time>2026-04-25T15:30:30.000Z</time><hdop>4.687</hdop><vdop>4.687</vdop><extensions><gom:speed>1.057</gom:speed></extensions></trkpt>
   <trkpt lat="59.0834866857" lon="29.9912096676"><ele>86.551</ele><time>2026-04-25T15:30:31.000Z</time><hdop>4.687</hdop><vdop>4.687</vdop><extensions><gom:speed>0.31</gom:speed></extensions></trkpt>
   <trkpt lat="59.0834889908" lon="29.9911996093"><ele>86.541</ele><time>2026-04-25T15:30:32.000Z</time><hdop>4.687</hdop><vdop>4.687</vdop><extensions><gom:speed>1.101</gom:speed></extensions></trkpt>
   <trkpt lat="59.0835105742" lon="29.9912014533"><ele>86.688</ele><time>2026-04-25T15:30:33.000Z</time><hdop>4.687</hdop><vdop>4.687</vdop><extensions><gom:speed>1.334</gom:speed></extensions></trkpt>
   <trkpt lat="59.0835293077" lon="29.9911938258"><ele>86.973</ele><time>2026-04-25T15:30:34.000Z</time><hdop>4.687</hdop><vdop>4.687</vdop><extensions><gom:speed>1.685</gom:speed></extensions></trkpt>
   <trkpt lat="59.0835442275" lon="29.9911897187"><ele>87.143</ele><time>2026-04-25T15:30:35.000Z</time><hdop>5.312</hdop><vdop>5.312</vdop><extensions><gom:speed>1.493</gom:speed></extensions></trkpt>
   <trkpt lat="59.0835446885" lon="29.9911630642"><ele>87.245</ele><time>2026-04-25T15:30:36.000Z</time><hdop>5.187</hdop><vdop>5.187</vdop><extensions><gom:speed>1.748</gom:speed></extensions></trkpt>
   <trkpt lat="59.0835575128" lon="29.9911668361"><ele>87.306</ele><time>2026-04-25T15:30:37.000Z</time><hdop>6.562</hdop><vdop>6.562</vdop><extensions><gom:speed>0.59</gom:speed></extensions></trkpt>
   <trkpt lat="59.0835686188" lon="29.9911745474"><ele>87.47</ele><time>2026-04-25T15:30:38.000Z</time><hdop>7.062</hdop><vdop>7.062</vdop><extensions><gom:speed>0.023</gom:speed></extensions></trkpt>
   <trkpt lat="59.083589867" lon="29.9911777325"><ele>87.783</ele><time>2026-04-25T15:30:39.000Z</time><hdop>7.312</hdop><vdop>7.312</vdop><extensions><gom:speed>2.411</gom:speed></extensions></trkpt>
   <trkpt lat="59.0835912081" lon="29.9911810853"><ele>87.97</ele><time>2026-04-25T15:30:40.000Z</time><hdop>7.25</hdop><vdop>7.25</vdop><extensions><gom:speed>0.84</gom:speed></extensions></trkpt>
   <trkpt lat="59.0836150127" lon="29.9911964242"><ele>88.246</ele><time>2026-04-25T15:30:41.000Z</time><hdop>7.25</hdop><vdop>7.25</vdop><extensions><gom:speed>1.299</gom:speed></extensions></trkpt>
   <trkpt lat="59.0836679444" lon="29.9912250903"><ele>88.453</ele><time>2026-04-25T15:30:42.000Z</time><hdop>6.875</hdop><vdop>6.875</vdop><extensions><gom:speed>1.621</gom:speed></extensions></trkpt>
   <trkpt lat="59.0837138353" lon="29.9912476376"><ele>89.074</ele><time>2026-04-25T15:30:43.000Z</time><hdop>7.625</hdop><vdop>7.625</vdop><extensions><gom:speed>0.738</gom:speed></extensions></trkpt>
   <trkpt lat="59.0837402383" lon="29.9912480567"><ele>90.09</ele><time>2026-04-25T15:30:44.000Z</time><hdop>8.937</hdop><vdop>8.937</vdop><extensions><gom:speed>1.157</gom:speed></extensions></trkpt>
   <trkpt lat="59.0837659707" lon="29.9912458774"><ele>91.036</ele><time>2026-04-25T15:30:45.000Z</time><hdop>9.375</hdop><vdop>9.375</vdop><extensions><gom:speed>1.634</gom:speed></extensions></trkpt>
   <trkpt lat="59.083790865" lon="29.991263228"><ele>91.857</ele><time>2026-04-25T15:30:46.000Z</time><hdop>10.312</hdop><vdop>10.312</vdop><extensions><gom:speed>1.702</gom:speed></extensions></trkpt>
   <trkpt lat="59.083810311" lon="29.9912726157"><ele>92.753</ele><time>2026-04-25T15:30:47.000Z</time><hdop>11.25</hdop><vdop>11.25</vdop><extensions><gom:speed>1.684</gom:speed></extensions></trkpt>
   <trkpt lat="59.083810311" lon="29.9912726157"><ele>93.289</ele><time>2026-04-25T15:30:47.000Z</time><hdop>11.25</hdop><vdop>11.25</vdop><extensions><gom:speed>1.684</gom:speed></extensions></trkpt>
   <trkpt lat="59.0838337803" lon="29.9912899662"><ele>93.87</ele><time>2026-04-25T15:30:48.000Z</time><hdop>11.562</hdop><vdop>11.562</vdop><extensions><gom:speed>1.77</gom:speed></extensions></trkpt>
   <trkpt lat="59.0838501251" lon="29.9912928161"><ele>94.236</ele><time>2026-04-25T15:30:49.000Z</time><hdop>9.187</hdop><vdop>9.187</vdop><extensions><gom:speed>1.581</gom:speed></extensions></trkpt>
   <trkpt lat="59.0838654639" lon="29.9912948277"><ele>94.455</ele><time>2026-04-25T15:30:50.000Z</time><hdop>7.625</hdop><vdop>7.625</vdop><extensions><gom:speed>1.582</gom:speed></extensions></trkpt>
   <trkpt lat="59.0838778692" lon="29.9913023714"><ele>94.583</ele><time>2026-04-25T15:30:51.000Z</time><hdop>6.5</hdop><vdop>6.5</vdop><extensions><gom:speed>1.225</gom:speed></extensions></trkpt>
   <trkpt lat="59.0838805514" lon="29.9913022038"><ele>94.647</ele><time>2026-04-25T15:30:52.000Z</time><hdop>4.687</hdop><vdop>4.687</vdop><extensions><gom:speed>0.915</gom:speed></extensions></trkpt>
   <trkpt lat="59.0838871312" lon="29.9913113401"><ele>94.649</ele><time>2026-04-25T15:30:53.000Z</time><hdop>4.687</hdop><vdop>4.687</vdop><extensions><gom:speed>0.295</gom:speed></extensions></trkpt>
   <trkpt lat="59.0838818506" lon="29.9913204763"><ele>94.633</ele><time>2026-04-25T15:30:54.000Z</time><hdop>4.687</hdop><vdop>4.687</vdop><extensions><gom:speed>1.57</gom:speed></extensions></trkpt>
   <trkpt lat="59.0838958483" lon="29.9913185485"><ele>94.624</ele><time>2026-04-25T15:30:55.000Z</time><hdop>4.687</hdop><vdop>4.687</vdop><extensions><gom:speed>1.874</gom:speed></extensions></trkpt>
   <trkpt lat="59.0839188986" lon="29.9913240806"><ele>96.225</ele><time>2026-04-25T15:30:56.000Z</time><hdop>3.0</hdop><vdop>3.0</vdop><extensions><gom:speed>1.777</gom:speed></extensions></trkpt>
   <trkpt lat="59.0839618139" lon="29.9913336359"><ele>97.254</ele><time>2026-04-25T15:30:57.000Z</time><hdop>3.0</hdop><vdop>3.0</vdop><extensions><gom:speed>1.826</gom:speed></extensions></trkpt>
   <trkpt lat="59.0840095489" lon="29.9913415987"><ele>97.953</ele><time>2026-04-25T15:30:58.000Z</time><hdop>3.0</hdop><vdop>3.0</vdop><extensions><gom:speed>1.776</gom:speed></extensions></trkpt>
   <trkpt lat="59.0840477284" lon="29.9913476337"><ele>98.463</ele><time>2026-04-25T15:30:59.000Z</time><hdop>3.0</hdop><vdop>3.0</vdop><extensions><gom:speed>1.646</gom:speed></extensions></trkpt>
   <trkpt lat="59.0840711139" lon="29.9913495616"><ele>98.772</ele><time>2026-04-25T15:31:00.000Z</time><hdop>3.0</hdop><vdop>3.0</vdop><extensions><gom:speed>1.53</gom:speed></extensions></trkpt>
   <trkpt lat="59.0840825971" lon="29.9913514894"><ele>98.97</ele><time>2026-04-25T15:31:01.000Z</time><hdop>3.0</hdop><vdop>3.0</vdop><extensions><gom:speed>1.443</gom:speed></extensions></trkpt>
   <trkpt lat="59.0840950443" lon="29.9913540878"><ele>99.053</ele><time>2026-04-25T15:31:02.000Z</time><hdop>3.0</hdop><vdop>3.0</vdop><extensions><gom:speed>1.201</gom:speed></extensions></trkpt>
   <trkpt lat="59.0841061503" lon="29.9913577758"><ele>99.08</ele><time>2026-04-25T15:31:03.000Z</time><hdop>3.0</hdop><vdop>3.0</vdop><extensions><gom:speed>1.218</gom:speed></extensions></trkpt>
   <trkpt lat="59.0841170049" lon="29.9913668283"><ele>99.074</ele><time>2026-04-25T15:31:04.000Z</time><hdop>3.0</hdop><vdop>3.0</vdop><extensions><gom:speed>1.255</gom:speed></extensions></trkpt>
   <trkpt lat="59.0841281528" lon="29.9913749587"><ele>99.075</ele><time>2026-04-25T15:31:05.000Z</time><hdop>3.0</hdop><vdop>3.0</vdop><extensions><gom:speed>1.326</gom:speed></extensions></trkpt>
   <trkpt lat="59.0841410609" lon="29.9913827539"><ele>99.119</ele><time>2026-04-25T15:31:06.000Z</time><hdop>3.0</hdop><vdop>3.0</vdop><extensions><gom:speed>1.635</gom:speed></extensions></trkpt>
   <trkpt lat="59.0841541786" lon="29.9913885374"><ele>99.159</ele><time>2026-04-25T15:31:07.000Z</time><hdop>3.0</hdop><vdop>3.0</vdop><extensions><gom:speed>1.297</gom:speed></extensions></trkpt>
   <trkpt lat="59.0841659971" lon="29.9913928122"><ele>99.171</ele><time>2026-04-25T15:31:08.000Z</time><hdop>3.0</hdop><vdop>3.0</vdop><extensions><gom:speed>1.394</gom:speed></extensions></trkpt>
   <trkpt lat="59.0841659971" lon="29.9913928122"><ele>99.178</ele><time>2026-04-25T15:31:08.000Z</time><hdop>3.0</hdop><vdop>3.0</vdop><extensions><gom:speed>1.394</gom:speed></extensions></trkpt>
   <trkpt lat="59.0841802882" lon="29.9913941533"><ele>99.162</ele><time>2026-04-25T15:31:09.000Z</time><hdop>3.0</hdop><vdop>3.0</vdop><extensions><gom:speed>1.552</gom:speed></extensions></trkpt>
   <trkpt lat="59.0841939088" lon="29.9913997692"><ele>99.15</ele><time>2026-04-25T15:31:10.000Z</time><hdop>3.0</hdop><vdop>3.0</vdop><extensions><gom:speed>1.517</gom:speed></extensions></trkpt>
   <trkpt lat="59.0842068589" lon="29.9914034572"><ele>99.169</ele><time>2026-04-25T15:31:11.000Z</time><hdop>3.0</hdop><vdop>3.0</vdop><extensions><gom:speed>1.627</gom:speed></extensions></trkpt>
   <trkpt lat="59.0842205633" lon="29.9914062232"><ele>99.209</ele><time>2026-04-25T15:31:12.000Z</time><hdop>3.0</hdop><vdop>3.0</vdop><extensions><gom:speed>1.708</gom:speed></extensions></trkpt>
   <trkpt lat="59.0842362793" lon="29.9914107494"><ele>99.239</ele><time>2026-04-25T15:31:13.000Z</time><hdop>3.0</hdop><vdop>3.0</vdop><extensions><gom:speed>1.658</gom:speed></extensions></trkpt>
   <trkpt lat="59.0842482235" lon="29.991414186"><ele>99.301</ele><time>2026-04-25T15:31:14.000Z</time><hdop>3.0</hdop><vdop>3.0</vdop><extensions><gom:speed>1.552</gom:speed></extensions></trkpt>
   <trkpt lat="59.0842605449" lon="29.9914198857"><ele>99.339</ele><time>2026-04-25T15:31:15.000Z</time><hdop>3.0</hdop><vdop>3.0</vdop><extensions><gom:speed>1.395</gom:speed></extensions></trkpt>
   <trkpt lat="59.0842739979" lon="29.9914249149"><ele>99.374</ele><time>2026-04-25T15:31:16.000Z</time><hdop>3.0</hdop><vdop>3.0</vdop><extensions><gom:speed>1.463</gom:speed></extensions></trkpt>
   <trkpt lat="59.0842864869" lon="29.9914272618"><ele>99.42</ele><time>2026-04-25T15:31:17.000Z</time><hdop>3.0</hdop><vdop>3.0</vdop><extensions><gom:speed>1.318</gom:speed></extensions></trkpt>
   <trkpt lat="59.0843004847" lon="29.9914321233"><ele>99.521</ele><time>2026-04-25T15:31:18.000Z</time><hdop>3.0</hdop><vdop>3.0</vdop><extensions><gom:speed>1.408</gom:speed></extensions></trkpt>
   <trkpt lat="59.084316117" lon="29.9914337159"><ele>99.639</ele><time>2026-04-25T15:31:19.000Z</time><hdop>3.0</hdop><vdop>3.0</vdop><extensions><gom:speed>1.677</gom:speed></extensions></trkpt>
   <trkpt lat="59.084332755" lon="29.9914358952"><ele>99.752</ele><time>2026-04-25T15:31:20.000Z</time><hdop>3.0</hdop><vdop>3.0</vdop><extensions><gom:speed>1.476</gom:speed></extensions></trkpt>
   <trkpt lat="59.084346208" lon="29.9914363981"><ele>99.841</ele><time>2026-04-25T15:31:21.000Z</time><hdop>3.0</hdop><vdop>3.0</vdop><extensions><gom:speed>1.282</gom:speed></extensions></trkpt>
   <trkpt lat="59.0843581941" lon="29.9914335482"><ele>99.988</ele><time>2026-04-25T15:31:22.000Z</time><hdop>3.0</hdop><vdop>3.0</vdop><extensions><gom:speed>1.429</gom:speed></extensions></trkpt>
   <trkpt lat="59.084371228" lon="29.9914267589"><ele>100.047</ele><time>2026-04-25T15:31:23.000Z</time><hdop>3.0</hdop><vdop>3.0</vdop><extensions><gom:speed>1.449</gom:speed></extensions></trkpt>
   <trkpt lat="59.0843847228" lon="29.991420221"><ele>100.1</ele><time>2026-04-25T15:31:24.000Z</time><hdop>3.0</hdop><vdop>3.0</vdop><extensions><gom:speed>1.389</gom:speed></extensions></trkpt>
   <trkpt lat="59.0843985111" lon="29.991417455"><ele>100.14</ele><time>2026-04-25T15:31:25.000Z</time><hdop>3.0</hdop><vdop>3.0</vdop><extensions><gom:speed>1.449</gom:speed></extensions></trkpt>
   <trkpt lat="59.0844122993" lon="29.9914129287"><ele>100.151</ele><time>2026-04-25T15:31:26.000Z</time><hdop>3.0</hdop><vdop>3.0</vdop><extensions><gom:speed>1.463</gom:speed></extensions></trkpt>
   <trkpt lat="59.084425878" lon="29.9914056365"><ele>100.197</ele><time>2026-04-25T15:31:27.000Z</time><hdop>3.0</hdop><vdop>3.0</vdop><extensions><gom:speed>1.357</gom:speed></extensions></trkpt>
   <trkpt lat="59.0844395405" lon="29.991398009"><ele>100.287</ele><time>2026-04-25T15:31:28.000Z</time><hdop>3.0</hdop><vdop>3.0</vdop><extensions><gom:speed>1.354</gom:speed></extensions></trkpt>
   <trkpt lat="59.0844395405" lon="29.991398009"><ele>100.341</ele><time>2026-04-25T15:31:28.000Z</time><hdop>3.0</hdop><vdop>3.0</vdop><extensions><gom:speed>1.354</gom:speed></extensions></trkpt>
   <trkpt lat="59.0844532449" lon="29.9913923093"><ele>100.396</ele><time>2026-04-25T15:31:29.000Z</time><hdop>3.0</hdop><vdop>3.0</vdop><extensions><gom:speed>1.367</gom:speed></extensions></trkpt>
   <trkpt lat="59.0844683742" lon="29.9913949076"><ele>100.443</ele><time>2026-04-25T15:31:30.000Z</time><hdop>3.0</hdop><vdop>3.0</vdop><extensions><gom:speed>1.434</gom:speed></extensions></trkpt>
   <trkpt lat="59.0844834617" lon="29.9913986795"><ele>100.493</ele><time>2026-04-25T15:31:31.000Z</time><hdop>3.0</hdop><vdop>3.0</vdop><extensions><gom:speed>1.689</gom:speed></extensions></trkpt>
   <trkpt lat="59.0845001836" lon="29.991405385"><ele>100.542</ele><time>2026-04-25T15:31:32.000Z</time><hdop>3.0</hdop><vdop>3.0</vdop><extensions><gom:speed>1.814</gom:speed></extensions></trkpt>
   <trkpt lat="59.0845150614" lon="29.9914083187"><ele>100.59</ele><time>2026-04-25T15:31:33.000Z</time><hdop>3.0</hdop><vdop>3.0</vdop><extensions><gom:speed>1.628</gom:speed></extensions></trkpt>
   <trkpt lat="59.0845297298" lon="29.9914136831"><ele>100.638</ele><time>2026-04-25T15:31:34.000Z</time><hdop>3.0</hdop><vdop>3.0</vdop><extensions><gom:speed>1.553</gom:speed></extensions></trkpt>
   <trkpt lat="59.0845431408" lon="29.9914221488"><ele>100.733</ele><time>2026-04-25T15:31:35.000Z</time><hdop>3.0</hdop><vdop>3.0</vdop><extensions><gom:speed>1.51</gom:speed></extensions></trkpt>
   <trkpt lat="59.0845581444" lon="29.9914307822"><ele>100.838</ele><time>2026-04-25T15:31:36.000Z</time><hdop>3.0</hdop><vdop>3.0</vdop><extensions><gom:speed>1.436</gom:speed></extensions></trkpt>
   <trkpt lat="59.0845723517" lon="29.9914454505"><ele>100.872</ele><time>2026-04-25T15:31:37.000Z</time><hdop>3.0</hdop><vdop>3.0</vdop><extensions><gom:speed>1.578</gom:speed></extensions></trkpt>
   <trkpt lat="59.0845868524" lon="29.9914571014"><ele>100.869</ele><time>2026-04-25T15:31:38.000Z</time><hdop>3.0</hdop><vdop>3.0</vdop><extensions><gom:speed>1.576</gom:speed></extensions></trkpt>
   <trkpt lat="59.084600473" lon="29.9914665729"><ele>100.869</ele><time>2026-04-25T15:31:39.000Z</time><hdop>3.0</hdop><vdop>3.0</vdop><extensions><gom:speed>1.474</gom:speed></extensions></trkpt>
   <trkpt lat="59.0846154766" lon="29.9914721888"><ele>100.861</ele><time>2026-04-25T15:31:40.000Z</time><hdop>3.0</hdop><vdop>3.0</vdop><extensions><gom:speed>1.197</gom:speed></extensions></trkpt>
   <trkpt lat="59.084629181" lon="29.9914733623"><ele>100.842</ele><time>2026-04-25T15:31:41.000Z</time><hdop>3.0</hdop><vdop>3.0</vdop><extensions><gom:speed>1.227</gom:speed></extensions></trkpt>
   <trkpt lat="59.0846414605" lon="29.9914726079"><ele>100.851</ele><time>2026-04-25T15:31:42.000Z</time><hdop>3.0</hdop><vdop>3.0</vdop><extensions><gom:speed>1.185</gom:speed></extensions></trkpt>
   <trkpt lat="59.0846554164" lon="29.991470261"><ele>100.874</ele><time>2026-04-25T15:31:43.000Z</time><hdop>3.0</hdop><vdop>3.0</vdop><extensions><gom:speed>1.49</gom:speed></extensions></trkpt>
   <trkpt lat="59.0846687436" lon="29.9914674949"><ele>100.895</ele><time>2026-04-25T15:31:44.000Z</time><hdop>3.0</hdop><vdop>3.0</vdop><extensions><gom:speed>1.461</gom:speed></extensions></trkpt>
   <trkpt lat="59.0846818194" lon="29.9914664891"><ele>100.973</ele><time>2026-04-25T15:31:45.000Z</time><hdop>3.0</hdop><vdop>3.0</vdop><extensions><gom:speed>1.39</gom:speed></extensions></trkpt>
   <trkpt lat="59.0846957334" lon="29.9914709315"><ele>101.025</ele><time>2026-04-25T15:31:46.000Z</time><hdop>3.0</hdop><vdop>3.0</vdop><extensions><gom:speed>1.501</gom:speed></extensions></trkpt>
   <trkpt lat="59.0847101502" lon="29.9914774694"><ele>101.084</ele><time>2026-04-25T15:31:47.000Z</time><hdop>3.0</hdop><vdop>3.0</vdop><extensions><gom:speed>1.532</gom:speed></extensions></trkpt>
   <trkpt lat="59.0847252377" lon="29.99148275"><ele>101.158</ele><time>2026-04-25T15:31:48.000Z</time><hdop>3.0</hdop><vdop>3.0</vdop><extensions><gom:speed>1.615</gom:speed></extensions></trkpt>
   <trkpt lat="59.0847252377" lon="29.99148275"><ele>101.203</ele><time>2026-04-25T15:31:48.000Z</time><hdop>3.0</hdop><vdop>3.0</vdop><extensions><gom:speed>1.615</gom:speed></extensions></trkpt>
   <trkpt lat="59.0847395288" lon="29.9914870248"><ele>101.287</ele><time>2026-04-25T15:31:49.000Z</time><hdop>3.0</hdop><vdop>3.0</vdop><extensions><gom:speed>1.476</gom:speed></extensions></trkpt>
   <trkpt lat="59.0847524369" lon="29.9914897908"><ele>101.363</ele><time>2026-04-25T15:31:50.000Z</time><hdop>3.0</hdop><vdop>3.0</vdop><extensions><gom:speed>1.439</gom:speed></extensions></trkpt>
   <trkpt lat="59.0847665185" lon="29.9914921377"><ele>101.432</ele><time>2026-04-25T15:31:51.000Z</time><hdop>3.0</hdop><vdop>3.0</vdop><extensions><gom:speed>1.618</gom:speed></extensions></trkpt>
   <trkpt lat="59.0847815221" lon="29.9914925568"><ele>101.466</ele><time>2026-04-25T15:31:52.000Z</time><hdop>3.0</hdop><vdop>3.0</vdop><extensions><gom:speed>1.699</gom:speed></extensions></trkpt>
   <trkpt lat="59.0847959809" lon="29.9914976698"><ele>101.47</ele><time>2026-04-25T15:31:53.000Z</time><hdop>3.0</hdop><vdop>3.0</vdop><extensions><gom:speed>1.661</gom:speed></extensions></trkpt>
   <trkpt lat="59.0848091405" lon="29.9915034533"><ele>101.452</ele><time>2026-04-25T15:31:54.000Z</time><hdop>3.0</hdop><vdop>3.0</vdop><extensions><gom:speed>1.552</gom:speed></extensions></trkpt>
   <trkpt lat="59.0848214619" lon="29.9915072252"><ele>98.447</ele><time>2026-04-25T15:31:55.000Z</time><hdop>1.625</hdop><vdop>1.625</vdop><extensions><gom:speed>1.951</gom:speed></extensions></trkpt>
   <trkpt lat="59.0848295923" lon="29.9915066384"><ele>96.721</ele><time>2026-04-25T15:31:56.000Z</time><hdop>1.625</hdop><vdop>1.625</vdop><extensions><gom:speed>1.527</gom:speed></extensions></trkpt>
   <trkpt lat="59.0848371361" lon="29.9914904613"><ele>95.662</ele><time>2026-04-25T15:31:57.000Z</time><hdop>1.812</hdop><vdop>1.812</vdop><extensions><gom:speed>1.007</gom:speed></extensions></trkpt>
   <trkpt lat="59.0848366751" lon="29.9914896232"><ele>94.897</ele><time>2026-04-25T15:31:58.000Z</time><hdop>1.625</hdop><vdop>1.625</vdop><extensions><gom:speed>0.066</gom:speed></extensions></trkpt>
   <trkpt lat="59.0848308496" lon="29.9914590292"><ele>94.503</ele><time>2026-04-25T15:31:59.000Z</time><hdop>1.687</hdop><vdop>1.687</vdop><extensions><gom:speed>0.666</gom:speed></extensions></trkpt>
   <trkpt lat="59.08482976" lon="29.9914683331"><ele>94.269</ele><time>2026-04-25T15:32:00.000Z</time><hdop>1.687</hdop><vdop>1.687</vdop><extensions><gom:speed>0.191</gom:speed></extensions></trkpt>
   <trkpt lat="59.0848290475" lon="29.9914477136"><ele>94.169</ele><time>2026-04-25T15:32:01.000Z</time><hdop>2.625</hdop><vdop>2.625</vdop><extensions><gom:speed>0.47</gom:speed></extensions></trkpt>
   <trkpt lat="59.0848300953" lon="29.991448468"><ele>94.154</ele><time>2026-04-25T15:32:02.000Z</time><hdop>2.562</hdop><vdop>2.562</vdop><extensions><gom:speed>0.124</gom:speed></extensions></trkpt>
   <trkpt lat="59.0848336157" lon="29.9914534133"><ele>94.166</ele><time>2026-04-25T15:32:03.000Z</time><hdop>2.375</hdop><vdop>2.375</vdop><extensions><gom:speed>0.402</gom:speed></extensions></trkpt>
   <trkpt lat="59.0848316459" lon="29.9914576043"><ele>94.168</ele><time>2026-04-25T15:32:04.000Z</time><hdop>2.375</hdop><vdop>2.375</vdop><extensions><gom:speed>0.398</gom:speed></extensions></trkpt>
   <trkpt lat="59.0848347891" lon="29.9914633878"><ele>94.15</ele><time>2026-04-25T15:32:05.000Z</time><hdop>2.375</hdop><vdop>2.375</vdop><extensions><gom:speed>0.504</gom:speed></extensions></trkpt>
   <trkpt lat="59.0848503376" lon="29.9914752901"><ele>93.979</ele><time>2026-04-25T15:32:06.000Z</time><hdop>2.687</hdop><vdop>2.687</vdop><extensions><gom:speed>1.816</gom:speed></extensions></trkpt>
   <trkpt lat="59.0848624913" lon="29.9914712668"><ele>93.853</ele><time>2026-04-25T15:32:07.000Z</time><hdop>3.062</hdop><vdop>3.062</vdop><extensions><gom:speed>1.382</gom:speed></extensions></trkpt>
   <trkpt lat="59.0848745613" lon="29.9914759607"><ele>93.778</ele><time>2026-04-25T15:32:08.000Z</time><hdop>3.687</hdop><vdop>3.687</vdop><extensions><gom:speed>0.824</gom:speed></extensions></trkpt>
   <trkpt lat="59.0848745613" lon="29.9914759607"><ele>93.734</ele><time>2026-04-25T15:32:08.000Z</time><hdop>3.687</hdop><vdop>3.687</vdop><extensions><gom:speed>0.824</gom:speed></extensions></trkpt>
   <trkpt lat="59.0848845776" lon="29.9914954905"><ele>93.69</ele><time>2026-04-25T15:32:09.000Z</time><hdop>4.687</hdop><vdop>4.687</vdop><extensions><gom:speed>0.642</gom:speed></extensions></trkpt>
   <trkpt lat="59.0848922052" lon="29.9914958258"><ele>93.485</ele><time>2026-04-25T15:32:10.000Z</time><hdop>4.687</hdop><vdop>4.687</vdop><extensions><gom:speed>0.83</gom:speed></extensions></trkpt>
   <trkpt lat="59.0849064544" lon="29.991519798"><ele>93.127</ele><time>2026-04-25T15:32:11.000Z</time><hdop>4.687</hdop><vdop>4.687</vdop><extensions><gom:speed>0.402</gom:speed></extensions></trkpt>
   <trkpt lat="59.0849128246" lon="29.9915143498"><ele>92.801</ele><time>2026-04-25T15:32:12.000Z</time><hdop>4.687</hdop><vdop>4.687</vdop><extensions><gom:speed>0.644</gom:speed></extensions></trkpt>
   <trkpt lat="59.084915423" lon="29.9915214744"><ele>92.603</ele><time>2026-04-25T15:32:13.000Z</time><hdop>4.687</hdop><vdop>4.687</vdop><extensions><gom:speed>0.596</gom:speed></extensions></trkpt>
   <trkpt lat="59.0849354977" lon="29.9915344663"><ele>92.27</ele><time>2026-04-25T15:32:14.000Z</time><hdop>4.687</hdop><vdop>4.687</vdop><extensions><gom:speed>2.011</gom:speed></extensions></trkpt>
   <trkpt lat="59.084952052" lon="29.9915663176"><ele>91.772</ele><time>2026-04-25T15:32:15.000Z</time><hdop>4.687</hdop><vdop>4.687</vdop><extensions><gom:speed>2.549</gom:speed></extensions></trkpt>
   <trkpt lat="59.0849640381" lon="29.9915683292"><ele>91.468</ele><time>2026-04-25T15:32:16.000Z</time><hdop>4.687</hdop><vdop>4.687</vdop><extensions><gom:speed>0.925</gom:speed></extensions></trkpt>
   <trkpt lat="59.0849786645" lon="29.991571682"><ele>91.381</ele><time>2026-04-25T15:32:17.000Z</time><hdop>4.687</hdop><vdop>4.687</vdop><extensions><gom:speed>1.359</gom:speed></extensions></trkpt>
   <trkpt lat="59.0849935843" lon="29.9915784713"><ele>91.448</ele><time>2026-04-25T15:32:18.000Z</time><hdop>4.687</hdop><vdop>4.687</vdop><extensions><gom:speed>0.638</gom:speed></extensions></trkpt>
   <trkpt lat="59.0850026786" lon="29.9915673234"><ele>91.444</ele><time>2026-04-25T15:32:19.000Z</time><hdop>4.687</hdop><vdop>4.687</vdop><extensions><gom:speed>1.231</gom:speed></extensions></trkpt>
   <trkpt lat="59.0850067439" lon="29.9915662338"><ele>91.5</ele><time>2026-04-25T15:32:20.000Z</time><hdop>5.125</hdop><vdop>5.125</vdop><extensions><gom:speed>0.447</gom:speed></extensions></trkpt>
   <trkpt lat="59.0850142876" lon="29.9915710953"><ele>91.551</ele><time>2026-04-25T15:32:21.000Z</time><hdop>5.687</hdop><vdop>5.687</vdop><extensions><gom:speed>0.136</gom:speed></extensions></trkpt>
   <trkpt lat="59.0850192329" lon="29.9915708438"><ele>91.664</ele><time>2026-04-25T15:32:22.000Z</time><hdop>4.687</hdop><vdop>4.687</vdop><extensions><gom:speed>1.0</gom:speed></extensions></trkpt>
   <trkpt lat="59.0850291655" lon="29.9915683292"><ele>91.68</ele><time>2026-04-25T15:32:23.000Z</time><hdop>4.687</hdop><vdop>4.687</vdop><extensions><gom:speed>1.11</gom:speed></extensions></trkpt>
   <trkpt lat="59.0850331888" lon="29.991577717"><ele>91.696</ele><time>2026-04-25T15:32:24.000Z</time><hdop>4.687</hdop><vdop>4.687</vdop><extensions><gom:speed>1.282</gom:speed></extensions></trkpt>
   <trkpt lat="59.0850486534" lon="29.9915692512"><ele>91.843</ele><time>2026-04-25T15:32:25.000Z</time><hdop>4.687</hdop><vdop>4.687</vdop><extensions><gom:speed>1.569</gom:speed></extensions></trkpt>
   <trkpt lat="59.0850622321" lon="29.9915634677"><ele>91.931</ele><time>2026-04-25T15:32:26.000Z</time><hdop>4.687</hdop><vdop>4.687</vdop><extensions><gom:speed>1.495</gom:speed></extensions></trkpt>
   <trkpt lat="59.0850538921" lon="29.9915459495"><ele>91.984</ele><time>2026-04-25T15:32:27.000Z</time><hdop>5.875</hdop><vdop>5.875</vdop><extensions><gom:speed>0.638</gom:speed></extensions></trkpt>
   <trkpt lat="59.0850639923" lon="29.9915539962"><ele>92.048</ele><time>2026-04-25T15:32:28.000Z</time><hdop>6.5</hdop><vdop>6.5</vdop><extensions><gom:speed>0.944</gom:speed></extensions></trkpt>
   <trkpt lat="59.0850639923" lon="29.9915539962"><ele>92.086</ele><time>2026-04-25T15:32:28.000Z</time><hdop>6.5</hdop><vdop>6.5</vdop><extensions><gom:speed>0.944</gom:speed></extensions></trkpt>
   <trkpt lat="59.0850901438" lon="29.9915395793"><ele>91.823</ele><time>2026-04-25T15:32:29.000Z</time><hdop>7.125</hdop><vdop>7.125</vdop><extensions><gom:speed>0.433</gom:speed></extensions></trkpt>
   <trkpt lat="59.085110428" lon="29.9915484641"><ele>91.672</ele><time>2026-04-25T15:32:30.000Z</time><hdop>6.437</hdop><vdop>6.437</vdop><extensions><gom:speed>2.305</gom:speed></extensions></trkpt>
   <trkpt lat="59.0851105957" lon="29.9915507272"><ele>91.581</ele><time>2026-04-25T15:32:31.000Z</time><hdop>4.687</hdop><vdop>4.687</vdop><extensions><gom:speed>0.13</gom:speed></extensions></trkpt>
   <trkpt lat="59.0851381302" lon="29.9915496376"><ele>91.429</ele><time>2026-04-25T15:32:32.000Z</time><hdop>4.687</hdop><vdop>4.687</vdop><extensions><gom:speed>1.21</gom:speed></extensions></trkpt>
   <trkpt lat="59.0851641979" lon="29.9915570975"><ele>91.387</ele><time>2026-04-25T15:32:33.000Z</time><hdop>4.687</hdop><vdop>4.687</vdop><extensions><gom:speed>1.349</gom:speed></extensions></trkpt>
   <trkpt lat="59.0851824286" lon="29.9915468716"><ele>91.507</ele><time>2026-04-25T15:32:34.000Z</time><hdop>4.687</hdop><vdop>4.687</vdop><extensions><gom:speed>1.531</gom:speed></extensions></trkpt>
   <trkpt lat="59.085205395" lon="29.991546201"><ele>91.729</ele><time>2026-04-25T15:32:35.000Z</time><hdop>4.687</hdop><vdop>4.687</vdop><extensions><gom:speed>1.603</gom:speed></extensions></trkpt>
   <trkpt lat="59.0852235418" lon="29.9915396631"><ele>92.016</ele><time>2026-04-25T15:32:36.000Z</time><hdop>4.687</hdop><vdop>4.687</vdop><extensions><gom:speed>1.769</gom:speed></extensions></trkpt>
   <trkpt lat="59.0852520822" lon="29.9915505596"><ele>92.371</ele><time>2026-04-25T15:32:37.000Z</time><hdop>4.687</hdop><vdop>4.687</vdop><extensions><gom:speed>1.155</gom:speed></extensions></trkpt>
   <trkpt lat="59.0852659542" lon="29.9915399146"><ele>92.767</ele><time>2026-04-25T15:32:38.000Z</time><hdop>4.687</hdop><vdop>4.687</vdop><extensions><gom:speed>1.544</gom:speed></extensions></trkpt>
   <trkpt lat="59.0852803292" lon="29.9915379029"><ele>93.003</ele><time>2026-04-25T15:32:39.000Z</time><hdop>4.937</hdop><vdop>4.937</vdop><extensions><gom:speed>1.311</gom:speed></extensions></trkpt>
   <trkpt lat="59.0852900941" lon="29.9915373162"><ele>93.263</ele><time>2026-04-25T15:32:40.000Z</time><hdop>4.687</hdop><vdop>4.687</vdop><extensions><gom:speed>1.453</gom:speed></extensions></trkpt>
   <trkpt lat="59.0853120128" lon="29.9915511463"><ele>93.464</ele><time>2026-04-25T15:32:41.000Z</time><hdop>4.687</hdop><vdop>4.687</vdop><extensions><gom:speed>1.181</gom:speed></extensions></trkpt>
   <trkpt lat="59.0853127252" lon="29.9915337958"><ele>93.584</ele><time>2026-04-25T15:32:42.000Z</time><hdop>4.687</hdop><vdop>4.687</vdop><extensions><gom:speed>1.319</gom:speed></extensions></trkpt>
   <trkpt lat="59.0853441574" lon="29.9915654794"><ele>93.704</ele><time>2026-04-25T15:32:43.000Z</time><hdop>4.687</hdop><vdop>4.687</vdop><extensions><gom:speed>0.701</gom:speed></extensions></trkpt>
   <trkpt lat="59.0853686745" lon="29.9916085624"><ele>93.743</ele><time>2026-04-25T15:32:44.000Z</time><hdop>4.687</hdop><vdop>4.687</vdop><extensions><gom:speed>1.033</gom:speed></extensions></trkpt>
   <trkpt lat="59.0853972148" lon="29.991636055"><ele>93.809</ele><time>2026-04-25T15:32:45.000Z</time><hdop>4.687</hdop><vdop>4.687</vdop><extensions><gom:speed>1.65</gom:speed></extensions></trkpt>
   <trkpt lat="59.0854249589" lon="29.9916612845"><ele>93.911</ele><time>2026-04-25T15:32:46.000Z</time><hdop>4.187</hdop><vdop>4.187</vdop><extensions><gom:speed>1.617</gom:speed></extensions></trkpt>
   <trkpt lat="59.0854423514" lon="29.9916321993"><ele>94.007</ele><time>2026-04-25T15:32:47.000Z</time><hdop>2.937</hdop><vdop>2.937</vdop><extensions><gom:speed>1.186</gom:speed></extensions></trkpt>
   <trkpt lat="59.0854578579" lon="29.9916461971"><ele>94.094</ele><time>2026-04-25T15:32:48.000Z</time><hdop>3.125</hdop><vdop>3.125</vdop><extensions><gom:speed>1.389</gom:speed></extensions></trkpt>
   <trkpt lat="59.0854578579" lon="29.9916461971"><ele>94.146</ele><time>2026-04-25T15:32:48.000Z</time><hdop>3.125</hdop><vdop>3.125</vdop><extensions><gom:speed>1.389</gom:speed></extensions></trkpt>
   <trkpt lat="59.0854741607" lon="29.9916398269"><ele>94.164</ele><time>2026-04-25T15:32:49.000Z</time><hdop>2.75</hdop><vdop>2.75</vdop><extensions><gom:speed>0.542</gom:speed></extensions></trkpt>
   <trkpt lat="59.0854903378" lon="29.9916477897"><ele>94.156</ele><time>2026-04-25T15:32:50.000Z</time><hdop>2.812</hdop><vdop>2.812</vdop><extensions><gom:speed>0.903</gom:speed></extensions></trkpt>
   <trkpt lat="59.0855116278" lon="29.9916612845"><ele>97.542</ele><time>2026-04-25T15:32:51.000Z</time><hdop>3.0</hdop><vdop>3.0</vdop><extensions><gom:speed>1.217</gom:speed></extensions></trkpt>
   <trkpt lat="59.0855495978" lon="29.9916814011"><ele>99.566</ele><time>2026-04-25T15:32:52.000Z</time><hdop>3.0</hdop><vdop>3.0</vdop><extensions><gom:speed>1.274</gom:speed></extensions></trkpt>
   <trkpt lat="59.0855902501" lon="29.991699506"><ele>100.741</ele><time>2026-04-25T15:32:53.000Z</time><hdop>3.0</hdop><vdop>3.0</vdop><extensions><gom:speed>1.273</gom:speed></extensions></trkpt>
   <trkpt lat="59.0856204668" lon="29.9917093128"><ele>101.445</ele><time>2026-04-25T15:32:54.000Z</time><hdop>3.0</hdop><vdop>3.0</vdop><extensions><gom:speed>1.433</gom:speed></extensions></trkpt>
   <trkpt lat="59.0856389908" lon="29.991710151"><ele>101.854</ele><time>2026-04-25T15:32:55.000Z</time><hdop>3.0</hdop><vdop>3.0</vdop><extensions><gom:speed>1.397</gom:speed></extensions></trkpt>
   <trkpt lat="59.0856500969" lon="29.9917106539"><ele>102.082</ele><time>2026-04-25T15:32:56.000Z</time><hdop>3.0</hdop><vdop>3.0</vdop><extensions><gom:speed>1.287</gom:speed></extensions></trkpt>
   <trkpt lat="59.0856614962" lon="29.9917157669"><ele>102.254</ele><time>2026-04-25T15:32:57.000Z</time><hdop>3.0</hdop><vdop>3.0</vdop><extensions><gom:speed>1.468</gom:speed></extensions></trkpt>
   <trkpt lat="59.0856735243" lon="29.991722221"><ele>102.38</ele><time>2026-04-25T15:32:58.000Z</time><hdop>3.0</hdop><vdop>3.0</vdop><extensions><gom:speed>1.335</gom:speed></extensions></trkpt>
   <trkpt lat="59.0856858457" lon="29.9917298485"><ele>102.466</ele><time>2026-04-25T15:32:59.000Z</time><hdop>3.0</hdop><vdop>3.0</vdop><extensions><gom:speed>1.199</gom:speed></extensions></trkpt>
   <trkpt lat="59.0856971193" lon="29.9917347938"><ele>102.491</ele><time>2026-04-25T15:33:00.000Z</time><hdop>3.0</hdop><vdop>3.0</vdop><extensions><gom:speed>1.228</gom:speed></extensions></trkpt>
   <trkpt lat="59.0857087283" lon="29.9917413317"><ele>102.5</ele><time>2026-04-25T15:33:01.000Z</time><hdop>3.0</hdop><vdop>3.0</vdop><extensions><gom:speed>1.238</gom:speed></extensions></trkpt>
   <trkpt lat="59.0857210497" lon="29.9917451036"><ele>102.501</ele><time>2026-04-25T15:33:02.000Z</time><hdop>3.0</hdop><vdop>3.0</vdop><extensions><gom:speed>1.427</gom:speed></extensions></trkpt>
   <trkpt lat="59.0857362209" lon="29.9917513062"><ele>102.467</ele><time>2026-04-25T15:33:03.000Z</time><hdop>3.0</hdop><vdop>3.0</vdop><extensions><gom:speed>1.613</gom:speed></extensions></trkpt>
   <trkpt lat="59.0857503863" lon="29.9917585146"><ele>102.434</ele><time>2026-04-25T15:33:04.000Z</time><hdop>3.0</hdop><vdop>3.0</vdop><extensions><gom:speed>1.583</gom:speed></extensions></trkpt>
   <trkpt lat="59.0857650127" lon="29.9917659745"><ele>102.391</ele><time>2026-04-25T15:33:05.000Z</time><hdop>3.0</hdop><vdop>3.0</vdop><extensions><gom:speed>1.591</gom:speed></extensions></trkpt>
   <trkpt lat="59.0857785076" lon="29.9917729315"><ele>102.339</ele><time>2026-04-25T15:33:06.000Z</time><hdop>3.0</hdop><vdop>3.0</vdop><extensions><gom:speed>1.503</gom:speed></extensions></trkpt>
   <trkpt lat="59.0857916253" lon="29.9917803076"><ele>102.321</ele><time>2026-04-25T15:33:07.000Z</time><hdop>3.0</hdop><vdop>3.0</vdop><extensions><gom:speed>1.539</gom:speed></extensions></trkpt>
   <trkpt lat="59.0858054554" lon="29.9917896953"><ele>102.349</ele><time>2026-04-25T15:33:08.000Z</time><hdop>3.0</hdop><vdop>3.0</vdop><extensions><gom:speed>1.615</gom:speed></extensions></trkpt>
   <trkpt lat="59.0858054554" lon="29.9917896953"><ele>102.365</ele><time>2026-04-25T15:33:08.000Z</time><hdop>3.0</hdop><vdop>3.0</vdop><extensions><gom:speed>1.615</gom:speed></extensions></trkpt>
   <trkpt lat="59.0858190341" lon="29.991803274"><ele>102.353</ele><time>2026-04-25T15:33:09.000Z</time><hdop>3.0</hdop><vdop>3.0</vdop><extensions><gom:speed>1.551</gom:speed></extensions></trkpt>
   <trkpt lat="59.0858311879" lon="29.9918125779"><ele>102.409</ele><time>2026-04-25T15:33:10.000Z</time><hdop>3.0</hdop><vdop>3.0</vdop><extensions><gom:speed>1.547</gom:speed></extensions></trkpt>
   <trkpt lat="59.0858445989" lon="29.9918202054"><ele>97.396</ele><time>2026-04-25T15:33:11.000Z</time><hdop>3.687</hdop><vdop>3.687</vdop><extensions><gom:speed>1.016</gom:speed></extensions></trkpt>
   <trkpt lat="59.085858932" lon="29.9918299284"><ele>99.401</ele><time>2026-04-25T15:33:12.000Z</time><hdop>3.0</hdop><vdop>3.0</vdop><extensions><gom:speed>1.477</gom:speed></extensions></trkpt>
   <trkpt lat="59.0858735165" lon="29.9918392323"><ele>100.572</ele><time>2026-04-25T15:33:13.000Z</time><hdop>3.0</hdop><vdop>3.0</vdop><extensions><gom:speed>1.655</gom:speed></extensions></trkpt>
   <trkpt lat="59.0858886039" lon="29.9918484524"><ele>101.252</ele><time>2026-04-25T15:33:14.000Z</time><hdop>3.0</hdop><vdop>3.0</vdop><extensions><gom:speed>1.713</gom:speed></extensions></trkpt>
   <trkpt lat="59.085902015" lon="29.9918552418"><ele>101.701</ele><time>2026-04-25T15:33:15.000Z</time><hdop>3.0</hdop><vdop>3.0</vdop><extensions><gom:speed>1.67</gom:speed></extensions></trkpt>
   <trkpt lat="59.0859168928" lon="29.9918675632"><ele>101.943</ele><time>2026-04-25T15:33:16.000Z</time><hdop>3.0</hdop><vdop>3.0</vdop><extensions><gom:speed>1.669</gom:speed></extensions></trkpt>
   <trkpt lat="59.0859324832" lon="29.9918777891"><ele>102.057</ele><time>2026-04-25T15:33:17.000Z</time><hdop>3.0</hdop><vdop>3.0</vdop><extensions><gom:speed>1.683</gom:speed></extensions></trkpt>
   <trkpt lat="59.0859462295" lon="29.9918832373"><ele>102.176</ele><time>2026-04-25T15:33:18.000Z</time><hdop>3.0</hdop><vdop>3.0</vdop><extensions><gom:speed>1.753</gom:speed></extensions></trkpt>
   <trkpt lat="59.0859591795" lon="29.991890781"><ele>102.285</ele><time>2026-04-25T15:33:19.000Z</time><hdop>3.0</hdop><vdop>3.0</vdop><extensions><gom:speed>1.751</gom:speed></extensions></trkpt>
   <trkpt lat="59.0859741412" lon="29.9918973189"><ele>102.381</ele><time>2026-04-25T15:33:20.000Z</time><hdop>3.0</hdop><vdop>3.0</vdop><extensions><gom:speed>1.701</gom:speed></extensions></trkpt>
   <trkpt lat="59.0859882228" lon="29.9919026833"><ele>102.482</ele><time>2026-04-25T15:33:21.000Z</time><hdop>3.0</hdop><vdop>3.0</vdop><extensions><gom:speed>1.671</gom:speed></extensions></trkpt>
   <trkpt lat="59.0860032683" lon="29.9919146695"><ele>102.549</ele><time>2026-04-25T15:33:22.000Z</time><hdop>3.0</hdop><vdop>3.0</vdop><extensions><gom:speed>1.666</gom:speed></extensions></trkpt>
   <trkpt lat="59.0860183977" lon="29.9919255659"><ele>102.582</ele><time>2026-04-25T15:33:23.000Z</time><hdop>3.0</hdop><vdop>3.0</vdop><extensions><gom:speed>1.699</gom:speed></extensions></trkpt>
   <trkpt lat="59.0860345328" lon="29.9919302598"><ele>102.615</ele><time>2026-04-25T15:33:24.000Z</time><hdop>3.0</hdop><vdop>3.0</vdop><extensions><gom:speed>1.663</gom:speed></extensions></trkpt>
   <trkpt lat="59.0860510871" lon="29.9919335287"><ele>102.6</ele><time>2026-04-25T15:33:25.000Z</time><hdop>3.0</hdop><vdop>3.0</vdop><extensions><gom:speed>1.74</gom:speed></extensions></trkpt>
   <trkpt lat="59.086067809" lon="29.991940821"><ele>102.569</ele><time>2026-04-25T15:33:26.000Z</time><hdop>3.0</hdop><vdop>3.0</vdop><extensions><gom:speed>1.74</gom:speed></extensions></trkpt>
   <trkpt lat="59.0860832736" lon="29.9919476103"><ele>102.532</ele><time>2026-04-25T15:33:27.000Z</time><hdop>3.0</hdop><vdop>3.0</vdop><extensions><gom:speed>1.588</gom:speed></extensions></trkpt>
   <trkpt lat="59.0860990735" lon="29.9919537291"><ele>102.503</ele><time>2026-04-25T15:33:28.000Z</time><hdop>3.0</hdop><vdop>3.0</vdop><extensions><gom:speed>1.707</gom:speed></extensions></trkpt>
   <trkpt lat="59.0860990735" lon="29.9919537291"><ele>102.487</ele><time>2026-04-25T15:33:28.000Z</time><hdop>3.0</hdop><vdop>3.0</vdop><extensions><gom:speed>1.707</gom:speed></extensions></trkpt>
   <trkpt lat="59.0861150829" lon="29.9919544835"><ele>102.462</ele><time>2026-04-25T15:33:29.000Z</time><hdop>3.0</hdop><vdop>3.0</vdop><extensions><gom:speed>1.709</gom:speed></extensions></trkpt>
   <trkpt lat="59.0861323916" lon="29.9919592612"><ele>102.431</ele><time>2026-04-25T15:33:30.000Z</time><hdop>3.0</hdop><vdop>3.0</vdop><extensions><gom:speed>1.691</gom:speed></extensions></trkpt>
   <trkpt lat="59.0861491135" lon="29.9919658829"><ele>102.399</ele><time>2026-04-25T15:33:31.000Z</time><hdop>3.0</hdop><vdop>3.0</vdop><extensions><gom:speed>1.707</gom:speed></extensions></trkpt>
   <trkpt lat="59.0861655839" lon="29.9919693195"><ele>102.377</ele><time>2026-04-25T15:33:32.000Z</time><hdop>3.0</hdop><vdop>3.0</vdop><extensions><gom:speed>1.736</gom:speed></extensions></trkpt>
   <trkpt lat="59.0861806713" lon="29.9919716664"><ele>102.352</ele><time>2026-04-25T15:33:33.000Z</time><hdop>3.0</hdop><vdop>3.0</vdop><extensions><gom:speed>1.489</gom:speed></extensions></trkpt>
   <trkpt lat="59.086195633" lon="29.9919713311"><ele>102.359</ele><time>2026-04-25T15:33:34.000Z</time><hdop>3.0</hdop><vdop>3.0</vdop><extensions><gom:speed>1.731</gom:speed></extensions></trkpt>
   <trkpt lat="59.0862107624" lon="29.9919733428"><ele>102.407</ele><time>2026-04-25T15:33:35.000Z</time><hdop>3.0</hdop><vdop>3.0</vdop><extensions><gom:speed>1.62</gom:speed></extensions></trkpt>
   <trkpt lat="59.0862239639" lon="29.9919771146"><ele>102.404</ele><time>2026-04-25T15:33:36.000Z</time><hdop>3.0</hdop><vdop>3.0</vdop><extensions><gom:speed>1.493</gom:speed></extensions></trkpt>
   <trkpt lat="59.086234064" lon="29.9919836525"><ele>102.404</ele><time>2026-04-25T15:33:37.000Z</time><hdop>3.0</hdop><vdop>3.0</vdop><extensions><gom:speed>1.02</gom:speed></extensions></trkpt>
   <trkpt lat="59.08624429" lon="29.9919929564"><ele>102.412</ele><time>2026-04-25T15:33:38.000Z</time><hdop>3.0</hdop><vdop>3.0</vdop><extensions><gom:speed>1.379</gom:speed></extensions></trkpt>
   <trkpt lat="59.0862575753" lon="29.9919997458"><ele>102.434</ele><time>2026-04-25T15:33:39.000Z</time><hdop>3.0</hdop><vdop>3.0</vdop><extensions><gom:speed>1.441</gom:speed></extensions></trkpt>
   <trkpt lat="59.0862738781" lon="29.9920072895"><ele>100.237</ele><time>2026-04-25T15:33:40.000Z</time><hdop>20.0</hdop><vdop>20.0</vdop><extensions><gom:speed>1.478</gom:speed></extensions></trkpt>
   <trkpt lat="59.0862911867" lon="29.9920155876"><ele>98.437</ele><time>2026-04-25T15:33:41.000Z</time><hdop>20.0</hdop><vdop>20.0</vdop><extensions><gom:speed>2.23</gom:speed></extensions></trkpt>
   <trkpt lat="59.0863164582" lon="29.992016761"><ele>96.845</ele><time>2026-04-25T15:33:42.000Z</time><hdop>20.0</hdop><vdop>20.0</vdop><extensions><gom:speed>2.194</gom:speed></extensions></trkpt>
   <trkpt lat="59.0863398437" lon="29.9920199462"><ele>95.521</ele><time>2026-04-25T15:33:43.000Z</time><hdop>20.0</hdop><vdop>20.0</vdop><extensions><gom:speed>1.938</gom:speed></extensions></trkpt>
   <trkpt lat="59.086332761" lon="29.9920021765"><ele>94.444</ele><time>2026-04-25T15:33:44.000Z</time><hdop>20.0</hdop><vdop>20.0</vdop><extensions><gom:speed>1.997</gom:speed></extensions></trkpt>
   <trkpt lat="59.0863361975" lon="29.9920094688"><ele>94.785</ele><time>2026-04-25T15:33:45.000Z</time><hdop>20.0</hdop><vdop>20.0</vdop><extensions><gom:speed>1.605</gom:speed></extensions></trkpt>
   <trkpt lat="59.0863472616" lon="29.992022796"><ele>95.358</ele><time>2026-04-25T15:33:46.000Z</time><hdop>15.625</hdop><vdop>15.625</vdop><extensions><gom:speed>1.001</gom:speed></extensions></trkpt>
   <trkpt lat="59.08636654" lon="29.9920369614"><ele>95.679</ele><time>2026-04-25T15:33:47.000Z</time><hdop>13.5</hdop><vdop>13.5</vdop><extensions><gom:speed>0.904</gom:speed></extensions></trkpt>
   <trkpt lat="59.0863893807" lon="29.9920481932"><ele>95.847</ele><time>2026-04-25T15:33:48.000Z</time><hdop>14.812</hdop><vdop>14.812</vdop><extensions><gom:speed>1.222</gom:speed></extensions></trkpt>
   <trkpt lat="59.0863893807" lon="29.9920481932"><ele>95.947</ele><time>2026-04-25T15:33:48.000Z</time><hdop>14.812</hdop><vdop>14.812</vdop><extensions><gom:speed>1.222</gom:speed></extensions></trkpt>
   <trkpt lat="59.086410545" lon="29.9920547311"><ele>98.557</ele><time>2026-04-25T15:33:49.000Z</time><hdop>3.0</hdop><vdop>3.0</vdop><extensions><gom:speed>1.678</gom:speed></extensions></trkpt>
   <trkpt lat="59.0864265964" lon="29.9920586706"><ele>100.112</ele><time>2026-04-25T15:33:50.000Z</time><hdop>3.0</hdop><vdop>3.0</vdop><extensions><gom:speed>1.708</gom:speed></extensions></trkpt>
   <trkpt lat="59.0864418095" lon="29.9920595088"><ele>101.042</ele><time>2026-04-25T15:33:51.000Z</time><hdop>3.0</hdop><vdop>3.0</vdop><extensions><gom:speed>1.757</gom:speed></extensions></trkpt>
   <trkpt lat="59.086455472" lon="29.9920618557"><ele>101.577</ele><time>2026-04-25T15:33:52.000Z</time><hdop>3.0</hdop><vdop>3.0</vdop><extensions><gom:speed>1.677</gom:speed></extensions></trkpt>
   <trkpt lat="59.0864703499" lon="29.9920648732"><ele>101.832</ele><time>2026-04-25T15:33:53.000Z</time><hdop>3.0</hdop><vdop>3.0</vdop><extensions><gom:speed>1.756</gom:speed></extensions></trkpt>
   <trkpt lat="59.0864861498" lon="29.9920671363"><ele>101.912</ele><time>2026-04-25T15:33:54.000Z</time><hdop>3.0</hdop><vdop>3.0</vdop><extensions><gom:speed>1.913</gom:speed></extensions></trkpt>
   <trkpt lat="59.0865021173" lon="29.9920642026"><ele>98.993</ele><time>2026-04-25T15:33:55.000Z</time><hdop>9.5</hdop><vdop>9.5</vdop><extensions><gom:speed>1.035</gom:speed></extensions></trkpt>
   <trkpt lat="59.0865351001" lon="29.9921018374"><ele>96.927</ele><time>2026-04-25T15:33:56.000Z</time><hdop>10.75</hdop><vdop>10.75</vdop><extensions><gom:speed>0.98</gom:speed></extensions></trkpt>
   <trkpt lat="59.0865596591" lon="29.9921137397"><ele>94.607</ele><time>2026-04-25T15:33:57.000Z</time><hdop>11.062</hdop><vdop>11.062</vdop><extensions><gom:speed>1.405</gom:speed></extensions></trkpt>
   <trkpt lat="59.0865775544" lon="29.9921284918"><ele>93.087</ele><time>2026-04-25T15:33:58.000Z</time><hdop>9.937</hdop><vdop>9.937</vdop><extensions><gom:speed>1.021</gom:speed></extensions></trkpt>
   <trkpt lat="59.0865854334" lon="29.992121451"><ele>92.2</ele><time>2026-04-25T15:33:59.000Z</time><hdop>9.062</hdop><vdop>9.062</vdop><extensions><gom:speed>1.429</gom:speed></extensions></trkpt>
   <trkpt lat="59.0865919713" lon="29.9921075371"><ele>91.658</ele><time>2026-04-25T15:34:00.000Z</time><hdop>7.875</hdop><vdop>7.875</vdop><extensions><gom:speed>1.613</gom:speed></extensions></trkpt>
   <trkpt lat="59.0866031192" lon="29.9921100516"><ele>91.32</ele><time>2026-04-25T15:34:01.000Z</time><hdop>5.5</hdop><vdop>5.5</vdop><extensions><gom:speed>1.656</gom:speed></extensions></trkpt>
   <trkpt lat="59.0866146444" lon="29.9921072018"><ele>91.14</ele><time>2026-04-25T15:34:02.000Z</time><hdop>4.687</hdop><vdop>4.687</vdop><extensions><gom:speed>1.845</gom:speed></extensions></trkpt>
   <trkpt lat="59.0866275944" lon="29.9920996581"><ele>91.07</ele><time>2026-04-25T15:34:03.000Z</time><hdop>4.687</hdop><vdop>4.687</vdop><extensions><gom:speed>1.882</gom:speed></extensions></trkpt>
   <trkpt lat="59.0866408378" lon="29.9921025917"><ele>91.027</ele><time>2026-04-25T15:34:04.000Z</time><hdop>4.687</hdop><vdop>4.687</vdop><extensions><gom:speed>1.854</gom:speed></extensions></trkpt>
   <trkpt lat="59.0866542069" lon="29.9921053578"><ele>91.041</ele><time>2026-04-25T15:34:05.000Z</time><hdop>4.687</hdop><vdop>4.687</vdop><extensions><gom:speed>1.519</gom:speed></extensions></trkpt>
   <trkpt lat="59.0866647262" lon="29.992107118"><ele>91.079</ele><time>2026-04-25T15:34:06.000Z</time><hdop>4.687</hdop><vdop>4.687</vdop><extensions><gom:speed>1.331</gom:speed></extensions></trkpt>
   <trkpt lat="59.0866711384" lon="29.9921026756"><ele>91.132</ele><time>2026-04-25T15:34:07.000Z</time><hdop>4.687</hdop><vdop>4.687</vdop><extensions><gom:speed>0.938</gom:speed></extensions></trkpt>
   <trkpt lat="59.0866777601" lon="29.9920967244"><ele>91.215</ele><time>2026-04-25T15:34:08.000Z</time><hdop>4.687</hdop><vdop>4.687</vdop><extensions><gom:speed>1.055</gom:speed></extensions></trkpt>
   <trkpt lat="59.0866777601" lon="29.9920967244"><ele>91.264</ele><time>2026-04-25T15:34:08.000Z</time><hdop>4.687</hdop><vdop>4.687</vdop><extensions><gom:speed>1.055</gom:speed></extensions></trkpt>
   <trkpt lat="59.0866856391" lon="29.9920982331"><ele>91.32</ele><time>2026-04-25T15:34:09.000Z</time><hdop>4.687</hdop><vdop>4.687</vdop><extensions><gom:speed>0.494</gom:speed></extensions></trkpt>
   <trkpt lat="59.0866829569" lon="29.9920971435"><ele>91.373</ele><time>2026-04-25T15:34:10.000Z</time><hdop>4.687</hdop><vdop>4.687</vdop><extensions><gom:speed>1.543</gom:speed></extensions></trkpt>
   <trkpt lat="59.0866941886" lon="29.9921070341"><ele>91.407</ele><time>2026-04-25T15:34:11.000Z</time><hdop>4.687</hdop><vdop>4.687</vdop><extensions><gom:speed>0.704</gom:speed></extensions></trkpt>
   <trkpt lat="59.0866984215" lon="29.9921049387"><ele>91.413</ele><time>2026-04-25T15:34:12.000Z</time><hdop>4.687</hdop><vdop>4.687</vdop><extensions><gom:speed>1.129</gom:speed></extensions></trkpt>
   <trkpt lat="59.0867079768" lon="29.9920990713"><ele>91.417</ele><time>2026-04-25T15:34:13.000Z</time><hdop>4.687</hdop><vdop>4.687</vdop><extensions><gom:speed>1.775</gom:speed></extensions></trkpt>
   <trkpt lat="59.0867247826" lon="29.9920963053"><ele>91.422</ele><time>2026-04-25T15:34:14.000Z</time><hdop>4.687</hdop><vdop>4.687</vdop><extensions><gom:speed>1.498</gom:speed></extensions></trkpt>
   <trkpt lat="59.0867390737" lon="29.9920963891"><ele>91.443</ele><time>2026-04-25T15:34:15.000Z</time><hdop>4.687</hdop><vdop>4.687</vdop><extensions><gom:speed>0.605</gom:speed></extensions></trkpt>
   <trkpt lat="59.0867411692" lon="29.9921096325"><ele>91.458</ele><time>2026-04-25T15:34:16.000Z</time><hdop>4.687</hdop><vdop>4.687</vdop><extensions><gom:speed>1.464</gom:speed></extensions></trkpt>
   <trkpt lat="59.0867562147" lon="29.992111728"><ele>91.456</ele><time>2026-04-25T15:34:17.000Z</time><hdop>4.687</hdop><vdop>4.687</vdop><extensions><gom:speed>0.671</gom:speed></extensions></trkpt>
   <trkpt lat="59.0867539935" lon="29.9921155837"><ele>91.454</ele><time>2026-04-25T15:34:18.000Z</time><hdop>4.687</hdop><vdop>4.687</vdop><extensions><gom:speed>0.35</gom:speed></extensions></trkpt>
   <trkpt lat="59.0867547479" lon="29.9921147455"><ele>91.453</ele><time>2026-04-25T15:34:19.000Z</time><hdop>4.687</hdop><vdop>4.687</vdop><extensions><gom:speed>0.493</gom:speed></extensions></trkpt>
   <trkpt lat="59.0867574301" lon="29.9921246361"><ele>91.454</ele><time>2026-04-25T15:34:20.000Z</time><hdop>4.687</hdop><vdop>4.687</vdop><extensions><gom:speed>1.129</gom:speed></extensions></trkpt>
   <trkpt lat="59.0867686618" lon="29.9921193555"><ele>91.456</ele><time>2026-04-25T15:34:21.000Z</time><hdop>4.687</hdop><vdop>4.687</vdop><extensions><gom:speed>1.657</gom:speed></extensions></trkpt>
   <trkpt lat="59.0867846713" lon="29.9921114766"><ele>91.475</ele><time>2026-04-25T15:34:22.000Z</time><hdop>4.687</hdop><vdop>4.687</vdop><extensions><gom:speed>1.697</gom:speed></extensions></trkpt>
   <trkpt lat="59.0868008483" lon="29.9921138235"><ele>91.498</ele><time>2026-04-25T15:34:23.000Z</time><hdop>4.687</hdop><vdop>4.687</vdop><extensions><gom:speed>1.892</gom:speed></extensions></trkpt>
   <trkpt lat="59.0868184922" lon="29.9921114766"><ele>91.513</ele><time>2026-04-25T15:34:24.000Z</time><hdop>4.687</hdop><vdop>4.687</vdop><extensions><gom:speed>1.732</gom:speed></extensions></trkpt>
   <trkpt lat="59.0868344598" lon="29.9921222054"><ele>91.543</ele><time>2026-04-25T15:34:25.000Z</time><hdop>4.687</hdop><vdop>4.687</vdop><extensions><gom:speed>1.349</gom:speed></extensions></trkpt>
   <trkpt lat="59.0868470745" lon="29.992106615"><ele>91.607</ele><time>2026-04-25T15:34:26.000Z</time><hdop>4.687</hdop><vdop>4.687</vdop><extensions><gom:speed>1.563</gom:speed></extensions></trkpt>
   <trkpt lat="59.0868631259" lon="29.9921105545"><ele>91.713</ele><time>2026-04-25T15:34:27.000Z</time><hdop>4.687</hdop><vdop>4.687</vdop><extensions><gom:speed>0.543</gom:speed></extensions></trkpt>
   <trkpt lat="59.0868657243" lon="29.9921170924"><ele>91.845</ele><time>2026-04-25T15:34:28.000Z</time><hdop>4.687</hdop><vdop>4.687</vdop><extensions><gom:speed>0.557</gom:speed></extensions></trkpt>
   <trkpt lat="59.0868657243" lon="29.9921170924"><ele>91.924</ele><time>2026-04-25T15:34:28.000Z</time><hdop>4.687</hdop><vdop>4.687</vdop><extensions><gom:speed>0.557</gom:speed></extensions></trkpt>
   <trkpt lat="59.0868707534" lon="29.9921215348"><ele>92.062</ele><time>2026-04-25T15:34:29.000Z</time><hdop>4.687</hdop><vdop>4.687</vdop><extensions><gom:speed>0.805</gom:speed></extensions></trkpt>
   <trkpt lat="59.0868838711" lon="29.9921164219"><ele>92.184</ele><time>2026-04-25T15:34:30.000Z</time><hdop>5.375</hdop><vdop>5.375</vdop><extensions><gom:speed>1.443</gom:speed></extensions></trkpt>
   <trkpt lat="59.0869032752" lon="29.9921042681"><ele>92.27</ele><time>2026-04-25T15:34:31.000Z</time><hdop>6.0</hdop><vdop>6.0</vdop><extensions><gom:speed>1.543</gom:speed></extensions></trkpt>
   <trkpt lat="59.0869221345" lon="29.9921062798"><ele>92.34</ele><time>2026-04-25T15:34:32.000Z</time><hdop>5.312</hdop><vdop>5.312</vdop><extensions><gom:speed>1.786</gom:speed></extensions></trkpt>
   <trkpt lat="59.0869378086" lon="29.9921082914"><ele>92.382</ele><time>2026-04-25T15:34:33.000Z</time><hdop>4.687</hdop><vdop>4.687</vdop><extensions><gom:speed>1.661</gom:speed></extensions></trkpt>
   <trkpt lat="59.0869514292" lon="29.9921167572"><ele>92.408</ele><time>2026-04-25T15:34:34.000Z</time><hdop>4.687</hdop><vdop>4.687</vdop><extensions><gom:speed>1.654</gom:speed></extensions></trkpt>
   <trkpt lat="59.0869786285" lon="29.9921230436"><ele>92.45</ele><time>2026-04-25T15:34:35.000Z</time><hdop>4.687</hdop><vdop>4.687</vdop><extensions><gom:speed>1.492</gom:speed></extensions></trkpt>
   <trkpt lat="59.0869870942" lon="29.992110806"><ele>92.475</ele><time>2026-04-25T15:34:36.000Z</time><hdop>4.687</hdop><vdop>4.687</vdop><extensions><gom:speed>1.177</gom:speed></extensions></trkpt>
   <trkpt lat="59.086987639" lon="29.9921070341"><ele>92.49</ele><time>2026-04-25T15:34:37.000Z</time><hdop>4.687</hdop><vdop>4.687</vdop><extensions><gom:speed>0.094</gom:speed></extensions></trkpt>
   <trkpt lat="59.086987639" lon="29.9921129015"><ele>92.499</ele><time>2026-04-25T15:34:38.000Z</time><hdop>9.5</hdop><vdop>9.5</vdop><extensions><gom:speed>1.37</gom:speed></extensions></trkpt>
   <trkpt lat="59.0870076299" lon="29.9921106384"><ele>92.552</ele><time>2026-04-25T15:34:39.000Z</time><hdop>11.125</hdop><vdop>11.125</vdop><extensions><gom:speed>1.989</gom:speed></extensions></trkpt>
   <trkpt lat="59.087022382" lon="29.9921153322"><ele>92.584</ele><time>2026-04-25T15:34:40.000Z</time><hdop>13.5</hdop><vdop>13.5</vdop><extensions><gom:speed>0.662</gom:speed></extensions></trkpt>
   <trkpt lat="59.0870419957" lon="29.9921251391"><ele>92.635</ele><time>2026-04-25T15:34:41.000Z</time><hdop>10.875</hdop><vdop>10.875</vdop><extensions><gom:speed>2.263</gom:speed></extensions></trkpt>
   <trkpt lat="59.0870586757" lon="29.9921090458"><ele>92.732</ele><time>2026-04-25T15:34:42.000Z</time><hdop>7.875</hdop><vdop>7.875</vdop><extensions><gom:speed>0.594</gom:speed></extensions></trkpt>
   <trkpt lat="59.0870841148" lon="29.9921298329"><ele>92.914</ele><time>2026-04-25T15:34:43.000Z</time><hdop>4.687</hdop><vdop>4.687</vdop><extensions><gom:speed>0.278</gom:speed></extensions></trkpt>
   <trkpt lat="59.0871100148" lon="29.9921789509"><ele>93.097</ele><time>2026-04-25T15:34:44.000Z</time><hdop>4.687</hdop><vdop>4.687</vdop><extensions><gom:speed>1.375</gom:speed></extensions></trkpt>
   <trkpt lat="59.087145135" lon="29.99220527"><ele>93.282</ele><time>2026-04-25T15:34:45.000Z</time><hdop>4.687</hdop><vdop>4.687</vdop><extensions><gom:speed>1.737</gom:speed></extensions></trkpt>
   <trkpt lat="59.0871608511" lon="29.9922028393"><ele>93.425</ele><time>2026-04-25T15:34:46.000Z</time><hdop>4.687</hdop><vdop>4.687</vdop><extensions><gom:speed>1.675</gom:speed></extensions></trkpt>
   <trkpt lat="59.087199324" lon="29.9922256381"><ele>93.625</ele><time>2026-04-25T15:34:47.000Z</time><hdop>4.687</hdop><vdop>4.687</vdop><extensions><gom:speed>0.893</gom:speed></extensions></trkpt>
   <trkpt lat="59.0871984439" lon="29.9922359478"><ele>93.744</ele><time>2026-04-25T15:34:48.000Z</time><hdop>4.25</hdop><vdop>4.25</vdop><extensions><gom:speed>0.126</gom:speed></extensions></trkpt>
   <trkpt lat="59.0871984439" lon="29.9922359478"><ele>93.816</ele><time>2026-04-25T15:34:48.000Z</time><hdop>4.25</hdop><vdop>4.25</vdop><extensions><gom:speed>0.126</gom:speed></extensions></trkpt>
   <trkpt lat="59.08721416" lon="29.9922229559"><ele>93.931</ele><time>2026-04-25T15:34:49.000Z</time><hdop>3.312</hdop><vdop>3.312</vdop><extensions><gom:speed>1.092</gom:speed></extensions></trkpt>
   <trkpt lat="59.0872339413" lon="29.9922171724"><ele>94.041</ele><time>2026-04-25T15:34:50.000Z</time><hdop>4.0</hdop><vdop>4.0</vdop><extensions><gom:speed>1.61</gom:speed></extensions></trkpt>
   <trkpt lat="59.0872626912" lon="29.9922401388"><ele>94.196</ele><time>2026-04-25T15:34:51.000Z</time><hdop>4.375</hdop><vdop>4.375</vdop><extensions><gom:speed>1.659</gom:speed></extensions></trkpt>
   <trkpt lat="59.0872830173" lon="29.9922337685"><ele>94.293</ele><time>2026-04-25T15:34:52.000Z</time><hdop>4.375</hdop><vdop>4.375</vdop><extensions><gom:speed>1.676</gom:speed></extensions></trkpt>
   <trkpt lat="59.0873003679" lon="29.9922417313"><ele>94.355</ele><time>2026-04-25T15:34:53.000Z</time><hdop>4.25</hdop><vdop>4.25</vdop><extensions><gom:speed>1.91</gom:speed></extensions></trkpt>
   <trkpt lat="59.0873166707" lon="29.9922419828"><ele>94.395</ele><time>2026-04-25T15:34:54.000Z</time><hdop>4.562</hdop><vdop>4.562</vdop><extensions><gom:speed>1.82</gom:speed></extensions></trkpt>
   <trkpt lat="59.0873326382" lon="29.9922382109"><ele>94.42</ele><time>2026-04-25T15:34:55.000Z</time><hdop>4.5</hdop><vdop>4.5</vdop><extensions><gom:speed>1.548</gom:speed></extensions></trkpt>
   <trkpt lat="59.0873646571" lon="29.9922845629"><ele>94.513</ele><time>2026-04-25T15:34:56.000Z</time><hdop>4.312</hdop><vdop>4.312</vdop><extensions><gom:speed>1.715</gom:speed></extensions></trkpt>
   <trkpt lat="59.0873823429" lon="29.992282635"><ele>94.576</ele><time>2026-04-25T15:34:57.000Z</time><hdop>4.687</hdop><vdop>4.687</vdop><extensions><gom:speed>0.298</gom:speed></extensions></trkpt>
   <trkpt lat="59.0873836421" lon="29.9922775221"><ele>94.608</ele><time>2026-04-25T15:34:58.000Z</time><hdop>4.687</hdop><vdop>4.687</vdop><extensions><gom:speed>1.435</gom:speed></extensions></trkpt>
   <trkpt lat="59.0874025013" lon="29.992272912"><ele>94.613</ele><time>2026-04-25T15:34:59.000Z</time><hdop>4.687</hdop><vdop>4.687</vdop><extensions><gom:speed>1.795</gom:speed></extensions></trkpt>
   <trkpt lat="59.0874221569" lon="29.9922857363"><ele>94.598</ele><time>2026-04-25T15:35:00.000Z</time><hdop>4.687</hdop><vdop>4.687</vdop><extensions><gom:speed>1.876</gom:speed></extensions></trkpt>
   <trkpt lat="59.0874413515" lon="29.9922958784"><ele>94.586</ele><time>2026-04-25T15:35:01.000Z</time><hdop>4.687</hdop><vdop>4.687</vdop><extensions><gom:speed>1.802</gom:speed></extensions></trkpt>
   <trkpt lat="59.087460546" lon="29.9922927771"><ele>94.584</ele><time>2026-04-25T15:35:02.000Z</time><hdop>4.687</hdop><vdop>4.687</vdop><extensions><gom:speed>1.446</gom:speed></extensions></trkpt>
   <trkpt lat="59.0874714006" lon="29.9922814615"><ele>94.583</ele><time>2026-04-25T15:35:03.000Z</time><hdop>4.687</hdop><vdop>4.687</vdop><extensions><gom:speed>1.645</gom:speed></extensions></trkpt>
   <trkpt lat="59.0874848955" lon="29.9922852334"><ele>94.582</ele><time>2026-04-25T15:35:04.000Z</time><hdop>4.687</hdop><vdop>4.687</vdop><extensions><gom:speed>1.723</gom:speed></extensions></trkpt>
   <trkpt lat="59.0875001924" lon="29.9922843952"><ele>94.581</ele><time>2026-04-25T15:35:05.000Z</time><hdop>4.687</hdop><vdop>4.687</vdop><extensions><gom:speed>1.701</gom:speed></extensions></trkpt>
   <trkpt lat="59.0875159923" lon="29.9922681343"><ele>94.569</ele><time>2026-04-25T15:35:06.000Z</time><hdop>4.687</hdop><vdop>4.687</vdop><extensions><gom:speed>1.207</gom:speed></extensions></trkpt>
   <trkpt lat="59.0875328819" lon="29.9922728282"><ele>94.593</ele><time>2026-04-25T15:35:07.000Z</time><hdop>4.687</hdop><vdop>4.687</vdop><extensions><gom:speed>0.563</gom:speed></extensions></trkpt>
   <trkpt lat="59.0875363603" lon="29.9922717385"><ele>94.601</ele><time>2026-04-25T15:35:08.000Z</time><hdop>4.687</hdop><vdop>4.687</vdop><extensions><gom:speed>1.024</gom:speed></extensions></trkpt>
   <trkpt lat="59.0875363603" lon="29.9922717385"><ele>94.606</ele><time>2026-04-25T15:35:08.000Z</time><hdop>4.687</hdop><vdop>4.687</vdop><extensions><gom:speed>1.024</gom:speed></extensions></trkpt>
   <trkpt lat="59.0875403417" lon="29.9922887538"><ele>94.61</ele><time>2026-04-25T15:35:09.000Z</time><hdop>4.687</hdop><vdop>4.687</vdop><extensions><gom:speed>1.182</gom:speed></extensions></trkpt>
   <trkpt lat="59.087547634" lon="29.9922802043"><ele>94.612</ele><time>2026-04-25T15:35:10.000Z</time><hdop>4.687</hdop><vdop>4.687</vdop><extensions><gom:speed>0.348</gom:speed></extensions></trkpt>
   <trkpt lat="59.0875514059" lon="29.9922698107"><ele>94.666</ele><time>2026-04-25T15:35:11.000Z</time><hdop>5.25</hdop><vdop>5.25</vdop><extensions><gom:speed>1.224</gom:speed></extensions></trkpt>
   <trkpt lat="59.0875586981" lon="29.9922784441"><ele>94.699</ele><time>2026-04-25T15:35:12.000Z</time><hdop>6.062</hdop><vdop>6.062</vdop><extensions><gom:speed>0.602</gom:speed></extensions></trkpt>
   <trkpt lat="59.0875631405" lon="29.9922803719"><ele>94.731</ele><time>2026-04-25T15:35:13.000Z</time><hdop>6.937</hdop><vdop>6.937</vdop><extensions><gom:speed>0.296</gom:speed></extensions></trkpt>
   <trkpt lat="59.0875908427" lon="29.9923330941"><ele>94.874</ele><time>2026-04-25T15:35:14.000Z</time><hdop>5.937</hdop><vdop>5.937</vdop><extensions><gom:speed>0.748</gom:speed></extensions></trkpt>
   <trkpt lat="59.087629148" lon="29.9924047593"><ele>95.103</ele><time>2026-04-25T15:35:15.000Z</time><hdop>5.75</hdop><vdop>5.75</vdop><extensions><gom:speed>1.066</gom:speed></extensions></trkpt>
   <trkpt lat="59.0876611669" lon="29.9924283963"><ele>95.304</ele><time>2026-04-25T15:35:16.000Z</time><hdop>5.25</hdop><vdop>5.25</vdop><extensions><gom:speed>0.81</gom:speed></extensions></trkpt>
   <trkpt lat="59.0876855582" lon="29.9924194277"><ele>95.528</ele><time>2026-04-25T15:35:17.000Z</time><hdop>4.687</hdop><vdop>4.687</vdop><extensions><gom:speed>1.23</gom:speed></extensions></trkpt>
   <trkpt lat="59.0877162779" lon="29.9924682104"><ele>95.713</ele><time>2026-04-25T15:35:18.000Z</time><hdop>4.687</hdop><vdop>4.687</vdop><extensions><gom:speed>1.381</gom:speed></extensions></trkpt>
   <trkpt lat="59.0877363945" lon="29.9924755864"><ele>95.87</ele><time>2026-04-25T15:35:19.000Z</time><hdop>4.687</hdop><vdop>4.687</vdop><extensions><gom:speed>1.812</gom:speed></extensions></trkpt>
   <trkpt lat="59.0877540384" lon="29.9925028276"><ele>96.052</ele><time>2026-04-25T15:35:20.000Z</time><hdop>4.687</hdop><vdop>4.687</vdop><extensions><gom:speed>2.56</gom:speed></extensions></trkpt>
   <trkpt lat="59.0877641805" lon="29.9925024923"><ele>96.213</ele><time>2026-04-25T15:35:21.000Z</time><hdop>4.625</hdop><vdop>4.625</vdop><extensions><gom:speed>0.989</gom:speed></extensions></trkpt>
   <trkpt lat="59.0877772981" lon="29.9925078568"><ele>96.363</ele><time>2026-04-25T15:35:22.000Z</time><hdop>4.437</hdop><vdop>4.437</vdop><extensions><gom:speed>1.241</gom:speed></extensions></trkpt>
   <trkpt lat="59.08779402" lon="29.9925053422"><ele>96.517</ele><time>2026-04-25T15:35:23.000Z</time><hdop>4.437</hdop><vdop>4.437</vdop><extensions><gom:speed>1.908</gom:speed></extensions></trkpt>
   <trkpt lat="59.087816274" lon="29.9925108742"><ele>96.625</ele><time>2026-04-25T15:35:24.000Z</time><hdop>4.687</hdop><vdop>4.687</vdop><extensions><gom:speed>2.419</gom:speed></extensions></trkpt>
   <trkpt lat="59.087837103" lon="29.9925122153"><ele>96.678</ele><time>2026-04-25T15:35:25.000Z</time><hdop>4.687</hdop><vdop>4.687</vdop><extensions><gom:speed>2.345</gom:speed></extensions></trkpt>
   <trkpt lat="59.0878594408" lon="29.9925224413"><ele>96.649</ele><time>2026-04-25T15:35:26.000Z</time><hdop>4.687</hdop><vdop>4.687</vdop><extensions><gom:speed>2.518</gom:speed></extensions></trkpt>
   <trkpt lat="59.0878691638" lon="29.9925399594"><ele>96.625</ele><time>2026-04-25T15:35:27.000Z</time><hdop>4.687</hdop><vdop>4.687</vdop><extensions><gom:speed>1.46</gom:speed></extensions></trkpt>
   <trkpt lat="59.0878857181" lon="29.9925407138"><ele>96.503</ele><time>2026-04-25T15:35:28.000Z</time><hdop>4.687</hdop><vdop>4.687</vdop><extensions><gom:speed>1.925</gom:speed></extensions></trkpt>
   <trkpt lat="59.0878857181" lon="29.9925407138"><ele>96.43</ele><time>2026-04-25T15:35:28.000Z</time><hdop>4.687</hdop><vdop>4.687</vdop><extensions><gom:speed>1.925</gom:speed></extensions></trkpt>
   <trkpt lat="59.0879009312" lon="29.9925538734"><ele>96.358</ele><time>2026-04-25T15:35:29.000Z</time><hdop>4.687</hdop><vdop>4.687</vdop><extensions><gom:speed>1.829</gom:speed></extensions></trkpt>
   <trkpt lat="59.0879191199" lon="29.9925470002"><ele>96.324</ele><time>2026-04-25T15:35:30.000Z</time><hdop>4.687</hdop><vdop>4.687</vdop><extensions><gom:speed>0.334</gom:speed></extensions></trkpt>
   <trkpt lat="59.0879244425" lon="29.9925376963"><ele>96.303</ele><time>2026-04-25T15:35:31.000Z</time><hdop>4.687</hdop><vdop>4.687</vdop><extensions><gom:speed>0.786</gom:speed></extensions></trkpt>
   <trkpt lat="59.0879377697" lon="29.992529063"><ele>96.32</ele><time>2026-04-25T15:35:32.000Z</time><hdop>4.687</hdop><vdop>4.687</vdop><extensions><gom:speed>1.549</gom:speed></extensions></trkpt>
   <trkpt lat="59.0879396137" lon="29.9925373611"><ele>96.338</ele><time>2026-04-25T15:35:33.000Z</time><hdop>4.687</hdop><vdop>4.687</vdop><extensions><gom:speed>0.521</gom:speed></extensions></trkpt>
   <trkpt lat="59.087954743" lon="29.9925287277"><ele>96.342</ele><time>2026-04-25T15:35:34.000Z</time><hdop>4.687</hdop><vdop>4.687</vdop><extensions><gom:speed>1.715</gom:speed></extensions></trkpt>
   <trkpt lat="59.0879712973" lon="29.992529063"><ele>96.357</ele><time>2026-04-25T15:35:35.000Z</time><hdop>4.687</hdop><vdop>4.687</vdop><extensions><gom:speed>1.842</gom:speed></extensions></trkpt>
   <trkpt lat="59.0879889412" lon="29.9925274704"><ele>96.289</ele><time>2026-04-25T15:35:36.000Z</time><hdop>4.687</hdop><vdop>4.687</vdop><extensions><gom:speed>2.018</gom:speed></extensions></trkpt>
   <trkpt lat="59.0880061241" lon="29.9925314099"><ele>96.266</ele><time>2026-04-25T15:35:37.000Z</time><hdop>4.687</hdop><vdop>4.687</vdop><extensions><gom:speed>1.852</gom:speed></extensions></trkpt>
   <trkpt lat="59.0880209182" lon="29.9925347627"><ele>96.276</ele><time>2026-04-25T15:35:38.000Z</time><hdop>4.687</hdop><vdop>4.687</vdop><extensions><gom:speed>0.853</gom:speed></extensions></trkpt>
   <trkpt lat="59.0880300544" lon="29.9925283924"><ele>96.279</ele><time>2026-04-25T15:35:39.000Z</time><hdop>4.687</hdop><vdop>4.687</vdop><extensions><gom:speed>0.899</gom:speed></extensions></trkpt>
   <trkpt lat="59.0880432978" lon="29.9925338407"><ele>96.329</ele><time>2026-04-25T15:35:40.000Z</time><hdop>4.687</hdop><vdop>4.687</vdop><extensions><gom:speed>1.851</gom:speed></extensions></trkpt>
   <trkpt lat="59.0880614447" lon="29.9925400433"><ele>96.346</ele><time>2026-04-25T15:35:41.000Z</time><hdop>4.687</hdop><vdop>4.687</vdop><extensions><gom:speed>2.037</gom:speed></extensions></trkpt>
   <trkpt lat="59.0880731793" lon="29.9925275542"><ele>96.296</ele><time>2026-04-25T15:35:42.000Z</time><hdop>4.687</hdop><vdop>4.687</vdop><extensions><gom:speed>1.527</gom:speed></extensions></trkpt>
   <trkpt lat="59.0880763645" lon="29.992530907"><ele>96.306</ele><time>2026-04-25T15:35:43.000Z</time><hdop>4.687</hdop><vdop>4.687</vdop><extensions><gom:speed>0.405</gom:speed></extensions></trkpt>
   <trkpt lat="59.0880795915" lon="29.9925231118"><ele>96.328</ele><time>2026-04-25T15:35:44.000Z</time><hdop>5.312</hdop><vdop>5.312</vdop><extensions><gom:speed>0.573</gom:speed></extensions></trkpt>
   <trkpt lat="59.0880914938" lon="29.9925333377"><ele>96.312</ele><time>2026-04-25T15:35:45.000Z</time><hdop>5.875</hdop><vdop>5.875</vdop><extensions><gom:speed>0.098</gom:speed></extensions></trkpt>
   <trkpt lat="59.0880981574" lon="29.9925373611"><ele>96.419</ele><time>2026-04-25T15:35:46.000Z</time><hdop>6.687</hdop><vdop>6.687</vdop><extensions><gom:speed>0.612</gom:speed></extensions></trkpt>
   <trkpt lat="59.0881046534" lon="29.9925361876"><ele>96.566</ele><time>2026-04-25T15:35:47.000Z</time><hdop>6.937</hdop><vdop>6.937</vdop><extensions><gom:speed>0.703</gom:speed></extensions></trkpt>
   <trkpt lat="59.0881104788" lon="29.9925435637"><ele>96.675</ele><time>2026-04-25T15:35:48.000Z</time><hdop>7.062</hdop><vdop>7.062</vdop><extensions><gom:speed>0.698</gom:speed></extensions></trkpt>
   <trkpt lat="59.0881104788" lon="29.9925435637"><ele>96.741</ele><time>2026-04-25T15:35:48.000Z</time><hdop>7.062</hdop><vdop>7.062</vdop><extensions><gom:speed>0.698</gom:speed></extensions></trkpt>
   <trkpt lat="59.0881192798" lon="29.9925332539"><ele>96.751</ele><time>2026-04-25T15:35:49.000Z</time><hdop>7.5</hdop><vdop>7.5</vdop><extensions><gom:speed>1.087</gom:speed></extensions></trkpt>
   <trkpt lat="59.0881315593" lon="29.9925302364"><ele>96.837</ele><time>2026-04-25T15:35:50.000Z</time><hdop>7.437</hdop><vdop>7.437</vdop><extensions><gom:speed>1.348</gom:speed></extensions></trkpt>
   <trkpt lat="59.0881401088" lon="29.9925389536"><ele>96.941</ele><time>2026-04-25T15:35:51.000Z</time><hdop>7.187</hdop><vdop>7.187</vdop><extensions><gom:speed>1.111</gom:speed></extensions></trkpt>
   <trkpt lat="59.0881521788" lon="29.9925575614"><ele>97.068</ele><time>2026-04-25T15:35:52.000Z</time><hdop>7.187</hdop><vdop>7.187</vdop><extensions><gom:speed>1.869</gom:speed></extensions></trkpt>
   <trkpt lat="59.0881681882" lon="29.9925615848"><ele>97.167</ele><time>2026-04-25T15:35:53.000Z</time><hdop>6.875</hdop><vdop>6.875</vdop><extensions><gom:speed>0.782</gom:speed></extensions></trkpt>
   <trkpt lat="59.0881719601" lon="29.9925535381"><ele>97.227</ele><time>2026-04-25T15:35:54.000Z</time><hdop>6.75</hdop><vdop>6.75</vdop><extensions><gom:speed>0.728</gom:speed></extensions></trkpt>
   <trkpt lat="59.0881980697" lon="29.9925786838"><ele>97.24</ele><time>2026-04-25T15:35:55.000Z</time><hdop>5.75</hdop><vdop>5.75</vdop><extensions><gom:speed>3.16</gom:speed></extensions></trkpt>
   <trkpt lat="59.0882225448" lon="29.992594358"><ele>97.281</ele><time>2026-04-25T15:35:56.000Z</time><hdop>4.687</hdop><vdop>4.687</vdop><extensions><gom:speed>0.065</gom:speed></extensions></trkpt>
   <trkpt lat="59.0882591738" lon="29.9925997224"><ele>97.324</ele><time>2026-04-25T15:35:57.000Z</time><hdop>4.687</hdop><vdop>4.687</vdop><extensions><gom:speed>0.618</gom:speed></extensions></trkpt>
   <trkpt lat="59.0883233372" lon="29.9926107865"><ele>97.39</ele><time>2026-04-25T15:35:58.000Z</time><hdop>4.687</hdop><vdop>4.687</vdop><extensions><gom:speed>0.942</gom:speed></extensions></trkpt>
   <trkpt lat="59.0883903925" lon="29.9926236108"><ele>97.507</ele><time>2026-04-25T15:35:59.000Z</time><hdop>4.687</hdop><vdop>4.687</vdop><extensions><gom:speed>0.812</gom:speed></extensions></trkpt>
   <trkpt lat="59.088439259" lon="29.9926375248"><ele>97.642</ele><time>2026-04-25T15:36:00.000Z</time><hdop>4.687</hdop><vdop>4.687</vdop><extensions><gom:speed>0.699</gom:speed></extensions></trkpt>
   <trkpt lat="59.0884673383" lon="29.9926521931"><ele>97.986</ele><time>2026-04-25T15:36:01.000Z</time><hdop>3.0</hdop><vdop>3.0</vdop><extensions><gom:speed>1.84</gom:speed></extensions></trkpt>
   <trkpt lat="59.0884847308" lon="29.9926633411"><ele>98.178</ele><time>2026-04-25T15:36:02.000Z</time><hdop>3.0</hdop><vdop>3.0</vdop><extensions><gom:speed>1.948</gom:speed></extensions></trkpt>
   <trkpt lat="59.0885014527" lon="29.9926744052"><ele>98.276</ele><time>2026-04-25T15:36:03.000Z</time><hdop>3.0</hdop><vdop>3.0</vdop><extensions><gom:speed>1.82</gom:speed></extensions></trkpt>
   <trkpt lat="59.0885192223" lon="29.9926863075"><ele>98.297</ele><time>2026-04-25T15:36:04.000Z</time><hdop>3.0</hdop><vdop>3.0</vdop><extensions><gom:speed>1.81</gom:speed></extensions></trkpt>
   <trkpt lat="59.0885357347" lon="29.9927006405"><ele>98.298</ele><time>2026-04-25T15:36:05.000Z</time><hdop>3.0</hdop><vdop>3.0</vdop><extensions><gom:speed>1.761</gom:speed></extensions></trkpt>
   <trkpt lat="59.0885532528" lon="29.9927116208"><ele>98.259</ele><time>2026-04-25T15:36:06.000Z</time><hdop>3.0</hdop><vdop>3.0</vdop><extensions><gom:speed>1.749</gom:speed></extensions></trkpt>
   <trkpt lat="59.088569388" lon="29.9927200027"><ele>98.229</ele><time>2026-04-25T15:36:07.000Z</time><hdop>3.0</hdop><vdop>3.0</vdop><extensions><gom:speed>1.7</gom:speed></extensions></trkpt>
   <trkpt lat="59.0885849364" lon="29.9927267921"><ele>98.253</ele><time>2026-04-25T15:36:08.000Z</time><hdop>3.0</hdop><vdop>3.0</vdop><extensions><gom:speed>1.749</gom:speed></extensions></trkpt>
   <trkpt lat="59.0885849364" lon="29.9927267921"><ele>98.268</ele><time>2026-04-25T15:36:08.000Z</time><hdop>3.0</hdop><vdop>3.0</vdop><extensions><gom:speed>1.749</gom:speed></extensions></trkpt>
   <trkpt lat="59.0886002753" lon="29.9927301448"><ele>98.34</ele><time>2026-04-25T15:36:09.000Z</time><hdop>3.0</hdop><vdop>3.0</vdop><extensions><gom:speed>1.694</gom:speed></extensions></trkpt>
   <trkpt lat="59.0886135606" lon="29.9927317374"><ele>98.439</ele><time>2026-04-25T15:36:10.000Z</time><hdop>3.0</hdop><vdop>3.0</vdop><extensions><gom:speed>1.579</gom:speed></extensions></trkpt>
   <trkpt lat="59.0886286481" lon="29.9927354254"><ele>98.484</ele><time>2026-04-25T15:36:11.000Z</time><hdop>3.0</hdop><vdop>3.0</vdop><extensions><gom:speed>1.739</gom:speed></extensions></trkpt>
   <trkpt lat="59.088645831" lon="29.9927410413"><ele>98.496</ele><time>2026-04-25T15:36:12.000Z</time><hdop>3.0</hdop><vdop>3.0</vdop><extensions><gom:speed>1.847</gom:speed></extensions></trkpt>
   <trkpt lat="59.0886636844" lon="29.9927499261"><ele>98.573</ele><time>2026-04-25T15:36:13.000Z</time><hdop>3.0</hdop><vdop>3.0</vdop><extensions><gom:speed>1.898</gom:speed></extensions></trkpt>
   <trkpt lat="59.0886809511" lon="29.9927603197"><ele>98.668</ele><time>2026-04-25T15:36:14.000Z</time><hdop>3.0</hdop><vdop>3.0</vdop><extensions><gom:speed>2.007</gom:speed></extensions></trkpt>
   <trkpt lat="59.0886971282" lon="29.9927697074"><ele>98.681</ele><time>2026-04-25T15:36:15.000Z</time><hdop>3.0</hdop><vdop>3.0</vdop><extensions><gom:speed>1.952</gom:speed></extensions></trkpt>
   <trkpt lat="59.0887116289" lon="29.9927801848"><ele>98.648</ele><time>2026-04-25T15:36:16.000Z</time><hdop>3.0</hdop><vdop>3.0</vdop><extensions><gom:speed>1.717</gom:speed></extensions></trkpt>
   <trkpt lat="59.0887255009" lon="29.9927923385"><ele>98.597</ele><time>2026-04-25T15:36:17.000Z</time><hdop>3.0</hdop><vdop>3.0</vdop><extensions><gom:speed>1.738</gom:speed></extensions></trkpt>
   <trkpt lat="59.0887403369" lon="29.9928045761"><ele>98.558</ele><time>2026-04-25T15:36:18.000Z</time><hdop>3.0</hdop><vdop>3.0</vdop><extensions><gom:speed>1.63</gom:speed></extensions></trkpt>
   <trkpt lat="59.0887541251" lon="29.9928109464"><ele>98.498</ele><time>2026-04-25T15:36:19.000Z</time><hdop>3.0</hdop><vdop>3.0</vdop><extensions><gom:speed>1.482</gom:speed></extensions></trkpt>
   <trkpt lat="59.088766237" lon="29.9928156402"><ele>98.446</ele><time>2026-04-25T15:36:20.000Z</time><hdop>3.0</hdop><vdop>3.0</vdop><extensions><gom:speed>1.187</gom:speed></extensions></trkpt>
   <trkpt lat="59.0887778459" lon="29.9928220105"><ele>98.393</ele><time>2026-04-25T15:36:21.000Z</time><hdop>3.0</hdop><vdop>3.0</vdop><extensions><gom:speed>1.352</gom:speed></extensions></trkpt>
   <trkpt lat="59.0887907541" lon="29.9928294704"><ele>98.387</ele><time>2026-04-25T15:36:22.000Z</time><hdop>3.0</hdop><vdop>3.0</vdop><extensions><gom:speed>1.406</gom:speed></extensions></trkpt>
   <trkpt lat="59.0888024468" lon="29.9928343319"><ele>98.448</ele><time>2026-04-25T15:36:23.000Z</time><hdop>3.0</hdop><vdop>3.0</vdop><extensions><gom:speed>1.345</gom:speed></extensions></trkpt>
   <trkpt lat="59.0888153549" lon="29.9928387743"><ele>98.554</ele><time>2026-04-25T15:36:24.000Z</time><hdop>3.0</hdop><vdop>3.0</vdop><extensions><gom:speed>1.622</gom:speed></extensions></trkpt>
   <trkpt lat="59.0888285564" lon="29.9928423785"><ele>98.683</ele><time>2026-04-25T15:36:25.000Z</time><hdop>3.0</hdop><vdop>3.0</vdop><extensions><gom:speed>1.606</gom:speed></extensions></trkpt>
   <trkpt lat="59.0888428057" lon="29.9928461504"><ele>98.828</ele><time>2026-04-25T15:36:26.000Z</time><hdop>3.0</hdop><vdop>3.0</vdop><extensions><gom:speed>1.687</gom:speed></extensions></trkpt>
   <trkpt lat="59.0888560491" lon="29.9928504251"><ele>98.922</ele><time>2026-04-25T15:36:27.000Z</time><hdop>3.0</hdop><vdop>3.0</vdop><extensions><gom:speed>1.673</gom:speed></extensions></trkpt>
   <trkpt lat="59.0888719747" lon="29.9928541132"><ele>99.07</ele><time>2026-04-25T15:36:28.000Z</time><hdop>3.0</hdop><vdop>3.0</vdop><extensions><gom:speed>1.736</gom:speed></extensions></trkpt>
   <trkpt lat="59.0888719747" lon="29.9928541132"><ele>99.158</ele><time>2026-04-25T15:36:28.000Z</time><hdop>3.0</hdop><vdop>3.0</vdop><extensions><gom:speed>1.736</gom:speed></extensions></trkpt>
   <trkpt lat="59.0888867688" lon="29.9928536941"><ele>99.275</ele><time>2026-04-25T15:36:29.000Z</time><hdop>3.0</hdop><vdop>3.0</vdop><extensions><gom:speed>1.571</gom:speed></extensions></trkpt>
   <trkpt lat="59.0889031135" lon="29.9928552028"><ele>99.353</ele><time>2026-04-25T15:36:30.000Z</time><hdop>3.0</hdop><vdop>3.0</vdop><extensions><gom:speed>1.761</gom:speed></extensions></trkpt>
   <trkpt lat="59.0889183266" lon="29.9928579688"><ele>99.473</ele><time>2026-04-25T15:36:31.000Z</time><hdop>3.0</hdop><vdop>3.0</vdop><extensions><gom:speed>1.641</gom:speed></extensions></trkpt>
   <trkpt lat="59.0889333721" lon="29.9928645067"><ele>99.607</ele><time>2026-04-25T15:36:32.000Z</time><hdop>3.0</hdop><vdop>3.0</vdop><extensions><gom:speed>1.815</gom:speed></extensions></trkpt>
   <trkpt lat="59.0889487529" lon="29.9928728886"><ele>99.72</ele><time>2026-04-25T15:36:33.000Z</time><hdop>3.0</hdop><vdop>3.0</vdop><extensions><gom:speed>1.681</gom:speed></extensions></trkpt>
   <trkpt lat="59.0889647624" lon="29.9928788398"><ele>99.804</ele><time>2026-04-25T15:36:34.000Z</time><hdop>3.0</hdop><vdop>3.0</vdop><extensions><gom:speed>1.864</gom:speed></extensions></trkpt>
   <trkpt lat="59.0889821548" lon="29.9928845395"><ele>99.895</ele><time>2026-04-25T15:36:35.000Z</time><hdop>3.0</hdop><vdop>3.0</vdop><extensions><gom:speed>1.848</gom:speed></extensions></trkpt>
   <trkpt lat="59.0889997987" lon="29.9928892333"><ele>99.912</ele><time>2026-04-25T15:36:36.000Z</time><hdop>3.0</hdop><vdop>3.0</vdop><extensions><gom:speed>1.81</gom:speed></extensions></trkpt>
   <trkpt lat="59.0890162692" lon="29.9928968609"><ele>99.948</ele><time>2026-04-25T15:36:37.000Z</time><hdop>3.0</hdop><vdop>3.0</vdop><extensions><gom:speed>1.849</gom:speed></extensions></trkpt>
   <trkpt lat="59.0890323205" lon="29.9929065839"><ele>99.944</ele><time>2026-04-25T15:36:38.000Z</time><hdop>3.0</hdop><vdop>3.0</vdop><extensions><gom:speed>1.981</gom:speed></extensions></trkpt>
   <trkpt lat="59.0890482042" lon="29.9929211684"><ele>99.907</ele><time>2026-04-25T15:36:39.000Z</time><hdop>3.0</hdop><vdop>3.0</vdop><extensions><gom:speed>1.871</gom:speed></extensions></trkpt>
   <trkpt lat="59.0890638784" lon="29.9929414526"><ele>99.924</ele><time>2026-04-25T15:36:40.000Z</time><hdop>3.0</hdop><vdop>3.0</vdop><extensions><gom:speed>1.806</gom:speed></extensions></trkpt>
   <trkpt lat="59.0890786305" lon="29.9929605633"><ele>99.933</ele><time>2026-04-25T15:36:41.000Z</time><hdop>3.0</hdop><vdop>3.0</vdop><extensions><gom:speed>1.719</gom:speed></extensions></trkpt>
   <trkpt lat="59.0890940951" lon="29.9929698673"><ele>99.982</ele><time>2026-04-25T15:36:42.000Z</time><hdop>3.0</hdop><vdop>3.0</vdop><extensions><gom:speed>1.671</gom:speed></extensions></trkpt>
   <trkpt lat="59.0891091826" lon="29.9929742258"><ele>100.048</ele><time>2026-04-25T15:36:43.000Z</time><hdop>3.0</hdop><vdop>3.0</vdop><extensions><gom:speed>1.573</gom:speed></extensions></trkpt>
   <trkpt lat="59.0891246053" lon="29.9929766566"><ele>100.114</ele><time>2026-04-25T15:36:44.000Z</time><hdop>3.0</hdop><vdop>3.0</vdop><extensions><gom:speed>1.697</gom:speed></extensions></trkpt>
   <trkpt lat="59.0891419139" lon="29.9929819372"><ele>100.214</ele><time>2026-04-25T15:36:45.000Z</time><hdop>3.0</hdop><vdop>3.0</vdop><extensions><gom:speed>1.658</gom:speed></extensions></trkpt>
   <trkpt lat="59.0891584262" lon="29.9929885589"><ele>100.365</ele><time>2026-04-25T15:36:46.000Z</time><hdop>3.0</hdop><vdop>3.0</vdop><extensions><gom:speed>1.817</gom:speed></extensions></trkpt>
   <trkpt lat="59.0891749805" lon="29.992994091"><ele>100.536</ele><time>2026-04-25T15:36:47.000Z</time><hdop>3.0</hdop><vdop>3.0</vdop><extensions><gom:speed>1.886</gom:speed></extensions></trkpt>
   <trkpt lat="59.0891917024" lon="29.9929997907"><ele>100.669</ele><time>2026-04-25T15:36:48.000Z</time><hdop>3.0</hdop><vdop>3.0</vdop><extensions><gom:speed>1.797</gom:speed></extensions></trkpt>
   <trkpt lat="59.0891917024" lon="29.9929997907"><ele>100.748</ele><time>2026-04-25T15:36:48.000Z</time><hdop>3.0</hdop><vdop>3.0</vdop><extensions><gom:speed>1.797</gom:speed></extensions></trkpt>
   <trkpt lat="59.0892071251" lon="29.9930095975"><ele>100.765</ele><time>2026-04-25T15:36:49.000Z</time><hdop>3.0</hdop><vdop>3.0</vdop><extensions><gom:speed>1.781</gom:speed></extensions></trkpt>
   <trkpt lat="59.0892218772" lon="29.993019991"><ele>100.754</ele><time>2026-04-25T15:36:50.000Z</time><hdop>3.0</hdop><vdop>3.0</vdop><extensions><gom:speed>1.738</gom:speed></extensions></trkpt>
   <trkpt lat="59.089236336" lon="29.9930271157"><ele>100.73</ele><time>2026-04-25T15:36:51.000Z</time><hdop>3.0</hdop><vdop>3.0</vdop><extensions><gom:speed>1.851</gom:speed></extensions></trkpt>
   <trkpt lat="59.0892520102" lon="29.993032983"><ele>100.718</ele><time>2026-04-25T15:36:52.000Z</time><hdop>3.0</hdop><vdop>3.0</vdop><extensions><gom:speed>1.839</gom:speed></extensions></trkpt>
   <trkpt lat="59.0892678939" lon="29.9930407782"><ele>100.69</ele><time>2026-04-25T15:36:53.000Z</time><hdop>3.0</hdop><vdop>3.0</vdop><extensions><gom:speed>1.78</gom:speed></extensions></trkpt>
   <trkpt lat="59.0892833585" lon="29.9930471484"><ele>100.648</ele><time>2026-04-25T15:36:54.000Z</time><hdop>3.0</hdop><vdop>3.0</vdop><extensions><gom:speed>1.778</gom:speed></extensions></trkpt>
   <trkpt lat="59.0892998709" lon="29.9930544407"><ele>100.588</ele><time>2026-04-25T15:36:55.000Z</time><hdop>3.0</hdop><vdop>3.0</vdop><extensions><gom:speed>1.813</gom:speed></extensions></trkpt>
   <trkpt lat="59.0893161737" lon="29.9930588831"><ele>100.523</ele><time>2026-04-25T15:36:56.000Z</time><hdop>3.0</hdop><vdop>3.0</vdop><extensions><gom:speed>1.863</gom:speed></extensions></trkpt>
   <trkpt lat="59.0893316802" lon="29.9930667621"><ele>100.448</ele><time>2026-04-25T15:36:57.000Z</time><hdop>3.0</hdop><vdop>3.0</vdop><extensions><gom:speed>1.776</gom:speed></extensions></trkpt>
   <trkpt lat="59.0893467676" lon="29.9930756469"><ele>100.383</ele><time>2026-04-25T15:36:58.000Z</time><hdop>3.0</hdop><vdop>3.0</vdop><extensions><gom:speed>1.717</gom:speed></extensions></trkpt>
   <trkpt lat="59.0893625675" lon="29.993083945"><ele>100.305</ele><time>2026-04-25T15:36:59.000Z</time><hdop>3.0</hdop><vdop>3.0</vdop><extensions><gom:speed>1.956</gom:speed></extensions></trkpt>
   <trkpt lat="59.089378074" lon="29.993090399"><ele>100.222</ele><time>2026-04-25T15:37:00.000Z</time><hdop>3.0</hdop><vdop>3.0</vdop><extensions><gom:speed>1.665</gom:speed></extensions></trkpt>
   <trkpt lat="59.0893932872" lon="29.9930947576"><ele>100.141</ele><time>2026-04-25T15:37:01.000Z</time><hdop>3.0</hdop><vdop>3.0</vdop><extensions><gom:speed>1.451</gom:speed></extensions></trkpt>
   <trkpt lat="59.0894069078" lon="29.9930984457"><ele>100.078</ele><time>2026-04-25T15:37:02.000Z</time><hdop>3.0</hdop><vdop>3.0</vdop><extensions><gom:speed>1.423</gom:speed></extensions></trkpt>
   <trkpt lat="59.089421157" lon="29.9931014631"><ele>100.066</ele><time>2026-04-25T15:37:03.000Z</time><hdop>3.0</hdop><vdop>3.0</vdop><extensions><gom:speed>1.499</gom:speed></extensions></trkpt>
   <trkpt lat="59.0894370407" lon="29.9931039777"><ele>100.087</ele><time>2026-04-25T15:37:04.000Z</time><hdop>3.0</hdop><vdop>3.0</vdop><extensions><gom:speed>1.629</gom:speed></extensions></trkpt>
   <trkpt lat="59.0894518348" lon="29.9931054864"><ele>100.096</ele><time>2026-04-25T15:37:05.000Z</time><hdop>3.0</hdop><vdop>3.0</vdop><extensions><gom:speed>1.458</gom:speed></extensions></trkpt>
   <trkpt lat="59.0894645753" lon="29.9931044806"><ele>100.09</ele><time>2026-04-25T15:37:06.000Z</time><hdop>3.0</hdop><vdop>3.0</vdop><extensions><gom:speed>1.322</gom:speed></extensions></trkpt>
   <trkpt lat="59.0894766033" lon="29.9931006249"><ele>100.083</ele><time>2026-04-25T15:37:07.000Z</time><hdop>3.0</hdop><vdop>3.0</vdop><extensions><gom:speed>1.478</gom:speed></extensions></trkpt>
   <trkpt lat="59.0894913973" lon="29.993089477"><ele>100.071</ele><time>2026-04-25T15:37:08.000Z</time><hdop>3.0</hdop><vdop>3.0</vdop><extensions><gom:speed>1.81</gom:speed></extensions></trkpt>
   <trkpt lat="59.0894913973" lon="29.993089477"><ele>100.063</ele><time>2026-04-25T15:37:08.000Z</time><hdop>3.0</hdop><vdop>3.0</vdop><extensions><gom:speed>1.81</gom:speed></extensions></trkpt>
   <trkpt lat="59.0895079516" lon="29.9930811789"><ele>100.052</ele><time>2026-04-25T15:37:09.000Z</time><hdop>3.0</hdop><vdop>3.0</vdop><extensions><gom:speed>1.851</gom:speed></extensions></trkpt>
   <trkpt lat="59.0895259727" lon="29.9930779938"><ele>100.052</ele><time>2026-04-25T15:37:10.000Z</time><hdop>3.0</hdop><vdop>3.0</vdop><extensions><gom:speed>1.953</gom:speed></extensions></trkpt>
   <trkpt lat="59.0895438262" lon="29.9930761498"><ele>100.04</ele><time>2026-04-25T15:37:11.000Z</time><hdop>3.0</hdop><vdop>3.0</vdop><extensions><gom:speed>1.862</gom:speed></extensions></trkpt>
   <trkpt lat="59.0895613443" lon="29.9930748087"><ele>100.013</ele><time>2026-04-25T15:37:12.000Z</time><hdop>3.0</hdop><vdop>3.0</vdop><extensions><gom:speed>1.738</gom:speed></extensions></trkpt>
   <trkpt lat="59.0895784015" lon="29.9930740543"><ele>99.988</ele><time>2026-04-25T15:37:13.000Z</time><hdop>3.0</hdop><vdop>3.0</vdop><extensions><gom:speed>1.883</gom:speed></extensions></trkpt>
   <trkpt lat="59.0895968836" lon="29.9930686061"><ele>99.964</ele><time>2026-04-25T15:37:14.000Z</time><hdop>3.0</hdop><vdop>3.0</vdop><extensions><gom:speed>1.918</gom:speed></extensions></trkpt>
   <trkpt lat="59.0896170002" lon="29.9930679355"><ele>99.965</ele><time>2026-04-25T15:37:15.000Z</time><hdop>3.0</hdop><vdop>3.0</vdop><extensions><gom:speed>2.019</gom:speed></extensions></trkpt>
   <trkpt lat="59.0896363205" lon="29.9930724618"><ele>99.938</ele><time>2026-04-25T15:37:16.000Z</time><hdop>3.0</hdop><vdop>3.0</vdop><extensions><gom:speed>1.841</gom:speed></extensions></trkpt>
   <trkpt lat="59.0896540901" lon="29.9930770718"><ele>99.91</ele><time>2026-04-25T15:37:17.000Z</time><hdop>3.0</hdop><vdop>3.0</vdop><extensions><gom:speed>1.824</gom:speed></extensions></trkpt>
   <trkpt lat="59.089671273" lon="29.9930801731"><ele>99.903</ele><time>2026-04-25T15:37:18.000Z</time><hdop>3.0</hdop><vdop>3.0</vdop><extensions><gom:speed>1.948</gom:speed></extensions></trkpt>
   <trkpt lat="59.0896886654" lon="29.9930847831"><ele>99.871</ele><time>2026-04-25T15:37:19.000Z</time><hdop>3.0</hdop><vdop>3.0</vdop><extensions><gom:speed>1.797</gom:speed></extensions></trkpt>
   <trkpt lat="59.0897057645" lon="29.9930901476"><ele>99.829</ele><time>2026-04-25T15:37:20.000Z</time><hdop>3.0</hdop><vdop>3.0</vdop><extensions><gom:speed>1.942</gom:speed></extensions></trkpt>
   <trkpt lat="59.0897249591" lon="29.9930960149"><ele>99.754</ele><time>2026-04-25T15:37:21.000Z</time><hdop>3.0</hdop><vdop>3.0</vdop><extensions><gom:speed>1.917</gom:speed></extensions></trkpt>
   <trkpt lat="59.08974122" lon="29.993103391"><ele>99.639</ele><time>2026-04-25T15:37:22.000Z</time><hdop>3.0</hdop><vdop>3.0</vdop><extensions><gom:speed>1.671</gom:speed></extensions></trkpt>
   <trkpt lat="59.0897573551" lon="29.9931132816"><ele>99.526</ele><time>2026-04-25T15:37:23.000Z</time><hdop>3.0</hdop><vdop>3.0</vdop><extensions><gom:speed>1.718</gom:speed></extensions></trkpt>
   <trkpt lat="59.0897752086" lon="29.9931241781"><ele>99.377</ele><time>2026-04-25T15:37:24.000Z</time><hdop>3.0</hdop><vdop>3.0</vdop><extensions><gom:speed>1.873</gom:speed></extensions></trkpt>
   <trkpt lat="59.0897920143" lon="29.9931364995"><ele>99.234</ele><time>2026-04-25T15:37:25.000Z</time><hdop>3.0</hdop><vdop>3.0</vdop><extensions><gom:speed>1.835</gom:speed></extensions></trkpt>
   <trkpt lat="59.0898080656" lon="29.9931480665"><ele>99.105</ele><time>2026-04-25T15:37:26.000Z</time><hdop>3.0</hdop><vdop>3.0</vdop><extensions><gom:speed>1.857</gom:speed></extensions></trkpt>
   <trkpt lat="59.089825961" lon="29.9931581248"><ele>99.002</ele><time>2026-04-25T15:37:27.000Z</time><hdop>3.0</hdop><vdop>3.0</vdop><extensions><gom:speed>1.873</gom:speed></extensions></trkpt>
   <trkpt lat="59.0898430182" lon="29.9931670934"><ele>98.893</ele><time>2026-04-25T15:37:28.000Z</time><hdop>3.0</hdop><vdop>3.0</vdop><extensions><gom:speed>1.852</gom:speed></extensions></trkpt>
   <trkpt lat="59.0898430182" lon="29.9931670934"><ele>98.827</ele><time>2026-04-25T15:37:28.000Z</time><hdop>3.0</hdop><vdop>3.0</vdop><extensions><gom:speed>1.852</gom:speed></extensions></trkpt>
   <trkpt lat="59.0898610393" lon="29.9931776546"><ele>98.744</ele><time>2026-04-25T15:37:29.000Z</time><hdop>3.0</hdop><vdop>3.0</vdop><extensions><gom:speed>1.934</gom:speed></extensions></trkpt>
   <trkpt lat="59.0898771325" lon="29.9931884673"><ele>98.65</ele><time>2026-04-25T15:37:30.000Z</time><hdop>3.0</hdop><vdop>3.0</vdop><extensions><gom:speed>1.868</gom:speed></extensions></trkpt>
   <trkpt lat="59.0898953632" lon="29.993199699"><ele>98.518</ele><time>2026-04-25T15:37:31.000Z</time><hdop>3.0</hdop><vdop>3.0</vdop><extensions><gom:speed>1.867</gom:speed></extensions></trkpt>
   <trkpt lat="59.089911666" lon="29.9932076618"><ele>98.431</ele><time>2026-04-25T15:37:32.000Z</time><hdop>3.0</hdop><vdop>3.0</vdop><extensions><gom:speed>1.938</gom:speed></extensions></trkpt>
   <trkpt lat="59.0899294356" lon="29.9932190612"><ele>98.39</ele><time>2026-04-25T15:37:33.000Z</time><hdop>3.0</hdop><vdop>3.0</vdop><extensions><gom:speed>1.892</gom:speed></extensions></trkpt>
   <trkpt lat="59.089945445" lon="29.9932303768"><ele>98.377</ele><time>2026-04-25T15:37:34.000Z</time><hdop>3.0</hdop><vdop>3.0</vdop><extensions><gom:speed>1.824</gom:speed></extensions></trkpt>
   <trkpt lat="59.0899599457" lon="29.9932417762"><ele>98.379</ele><time>2026-04-25T15:37:35.000Z</time><hdop>3.0</hdop><vdop>3.0</vdop><extensions><gom:speed>1.837</gom:speed></extensions></trkpt>
   <trkpt lat="59.0899754523" lon="29.9932526727"><ele>98.325</ele><time>2026-04-25T15:37:36.000Z</time><hdop>3.0</hdop><vdop>3.0</vdop><extensions><gom:speed>1.785</gom:speed></extensions></trkpt>
   <trkpt lat="59.0899911683" lon="29.9932652455"><ele>98.285</ele><time>2026-04-25T15:37:37.000Z</time><hdop>3.0</hdop><vdop>3.0</vdop><extensions><gom:speed>1.975</gom:speed></extensions></trkpt>
   <trkpt lat="59.0900069682" lon="29.993274298"><ele>98.262</ele><time>2026-04-25T15:37:38.000Z</time><hdop>3.0</hdop><vdop>3.0</vdop><extensions><gom:speed>1.809</gom:speed></extensions></trkpt>
   <trkpt lat="59.09002281" lon="29.9932834343"><ele>98.266</ele><time>2026-04-25T15:37:39.000Z</time><hdop>3.0</hdop><vdop>3.0</vdop><extensions><gom:speed>1.792</gom:speed></extensions></trkpt>
   <trkpt lat="59.0900365982" lon="29.9932975997"><ele>98.239</ele><time>2026-04-25T15:37:40.000Z</time><hdop>3.0</hdop><vdop>3.0</vdop><extensions><gom:speed>1.675</gom:speed></extensions></trkpt>
   <trkpt lat="59.0900481653" lon="29.9933135253"><ele>98.179</ele><time>2026-04-25T15:37:41.000Z</time><hdop>3.0</hdop><vdop>3.0</vdop><extensions><gom:speed>1.564</gom:speed></extensions></trkpt>
   <trkpt lat="59.0900595647" lon="29.9933265172"><ele>98.148</ele><time>2026-04-25T15:37:42.000Z</time><hdop>3.0</hdop><vdop>3.0</vdop><extensions><gom:speed>1.364</gom:speed></extensions></trkpt>
   <trkpt lat="59.0900695391" lon="29.9933323846"><ele>98.166</ele><time>2026-04-25T15:37:43.000Z</time><hdop>3.0</hdop><vdop>3.0</vdop><extensions><gom:speed>1.222</gom:speed></extensions></trkpt>
   <trkpt lat="59.0900824892" lon="29.9933338933"><ele>98.197</ele><time>2026-04-25T15:37:44.000Z</time><hdop>3.0</hdop><vdop>3.0</vdop><extensions><gom:speed>1.664</gom:speed></extensions></trkpt>
   <trkpt lat="59.090098331" lon="29.9933360726"><ele>98.253</ele><time>2026-04-25T15:37:45.000Z</time><hdop>3.0</hdop><vdop>3.0</vdop><extensions><gom:speed>1.909</gom:speed></extensions></trkpt>
   <trkpt lat="59.090115933" lon="29.9933399283"><ele>98.334</ele><time>2026-04-25T15:37:46.000Z</time><hdop>3.0</hdop><vdop>3.0</vdop><extensions><gom:speed>1.945</gom:speed></extensions></trkpt>
   <trkpt lat="59.0901331578" lon="29.9933421076"><ele>98.418</ele><time>2026-04-25T15:37:47.000Z</time><hdop>3.0</hdop><vdop>3.0</vdop><extensions><gom:speed>1.821</gom:speed></extensions></trkpt>
   <trkpt lat="59.0901499635" lon="29.993343784"><ele>98.495</ele><time>2026-04-25T15:37:48.000Z</time><hdop>3.0</hdop><vdop>3.0</vdop><extensions><gom:speed>1.695</gom:speed></extensions></trkpt>
   <trkpt lat="59.0901499635" lon="29.993343784"><ele>98.541</ele><time>2026-04-25T15:37:48.000Z</time><hdop>3.0</hdop><vdop>3.0</vdop><extensions><gom:speed>1.695</gom:speed></extensions></trkpt>
   <trkpt lat="59.0901653024" lon="29.9933438678"><ele>98.565</ele><time>2026-04-25T15:37:49.000Z</time><hdop>3.0</hdop><vdop>3.0</vdop><extensions><gom:speed>1.508</gom:speed></extensions></trkpt>
   <trkpt lat="59.0901810603" lon="29.9933372461"><ele>98.583</ele><time>2026-04-25T15:37:50.000Z</time><hdop>3.0</hdop><vdop>3.0</vdop><extensions><gom:speed>1.62</gom:speed></extensions></trkpt>
   <trkpt lat="59.0901976984" lon="29.993333558"><ele>98.604</ele><time>2026-04-25T15:37:51.000Z</time><hdop>3.0</hdop><vdop>3.0</vdop><extensions><gom:speed>1.885</gom:speed></extensions></trkpt>
   <trkpt lat="59.0902140012" lon="29.9933328037"><ele>98.601</ele><time>2026-04-25T15:37:52.000Z</time><hdop>3.0</hdop><vdop>3.0</vdop><extensions><gom:speed>1.889</gom:speed></extensions></trkpt>
   <trkpt lat="59.0902282085" lon="29.9933347315"><ele>98.565</ele><time>2026-04-25T15:37:53.000Z</time><hdop>3.0</hdop><vdop>3.0</vdop><extensions><gom:speed>1.677</gom:speed></extensions></trkpt>
   <trkpt lat="59.0902416196" lon="29.9933366593"><ele>98.524</ele><time>2026-04-25T15:37:54.000Z</time><hdop>3.0</hdop><vdop>3.0</vdop><extensions><gom:speed>1.63</gom:speed></extensions></trkpt>
   <trkpt lat="59.0902572099" lon="29.9933380843"><ele>98.444</ele><time>2026-04-25T15:37:55.000Z</time><hdop>3.0</hdop><vdop>3.0</vdop><extensions><gom:speed>1.699</gom:speed></extensions></trkpt>
   <trkpt lat="59.0902730936" lon="29.993340515"><ele>98.334</ele><time>2026-04-25T15:37:56.000Z</time><hdop>3.0</hdop><vdop>3.0</vdop><extensions><gom:speed>1.786</gom:speed></extensions></trkpt>
   <trkpt lat="59.0902893964" lon="29.9933413532"><ele>98.182</ele><time>2026-04-25T15:37:57.000Z</time><hdop>3.0</hdop><vdop>3.0</vdop><extensions><gom:speed>1.865</gom:speed></extensions></trkpt>
   <trkpt lat="59.0903061602" lon="29.9933372461"><ele>98.029</ele><time>2026-04-25T15:37:58.000Z</time><hdop>3.0</hdop><vdop>3.0</vdop><extensions><gom:speed>1.893</gom:speed></extensions></trkpt>
   <trkpt lat="59.0903229241" lon="29.9933339771"><ele>97.878</ele><time>2026-04-25T15:37:59.000Z</time><hdop>3.0</hdop><vdop>3.0</vdop><extensions><gom:speed>1.833</gom:speed></extensions></trkpt>
   <trkpt lat="59.0903384306" lon="29.9933339771"><ele>97.755</ele><time>2026-04-25T15:38:00.000Z</time><hdop>3.0</hdop><vdop>3.0</vdop><extensions><gom:speed>1.666</gom:speed></extensions></trkpt>
   <trkpt lat="59.0903538533" lon="29.9933351506"><ele>97.574</ele><time>2026-04-25T15:38:01.000Z</time><hdop>3.0</hdop><vdop>3.0</vdop><extensions><gom:speed>1.78</gom:speed></extensions></trkpt>
   <trkpt lat="59.0903699884" lon="29.9933375813"><ele>97.372</ele><time>2026-04-25T15:38:02.000Z</time><hdop>3.0</hdop><vdop>3.0</vdop><extensions><gom:speed>1.688</gom:speed></extensions></trkpt>
   <trkpt lat="59.0903836509" lon="29.9933422752"><ele>97.178</ele><time>2026-04-25T15:38:03.000Z</time><hdop>3.0</hdop><vdop>3.0</vdop><extensions><gom:speed>1.58</gom:speed></extensions></trkpt>
   <trkpt lat="59.0903958466" lon="29.9933499027"><ele>97.026</ele><time>2026-04-25T15:38:04.000Z</time><hdop>3.0</hdop><vdop>3.0</vdop><extensions><gom:speed>1.269</gom:speed></extensions></trkpt>
   <trkpt lat="59.0904062821" lon="29.9933614698"><ele>96.885</ele><time>2026-04-25T15:38:05.000Z</time><hdop>3.0</hdop><vdop>3.0</vdop><extensions><gom:speed>1.286</gom:speed></extensions></trkpt>
   <trkpt lat="59.0904166756" lon="29.9933715281"><ele>96.798</ele><time>2026-04-25T15:38:06.000Z</time><hdop>3.0</hdop><vdop>3.0</vdop><extensions><gom:speed>1.212</gom:speed></extensions></trkpt>
   <trkpt lat="59.0904249737" lon="29.9933799938"><ele>96.726</ele><time>2026-04-25T15:38:07.000Z</time><hdop>3.0</hdop><vdop>3.0</vdop><extensions><gom:speed>1.043</gom:speed></extensions></trkpt>
   <trkpt lat="59.0904343195" lon="29.9933868669"><ele>96.673</ele><time>2026-04-25T15:38:08.000Z</time><hdop>3.0</hdop><vdop>3.0</vdop><extensions><gom:speed>1.113</gom:speed></extensions></trkpt>
   <trkpt lat="59.0904343195" lon="29.9933868669"><ele>96.642</ele><time>2026-04-25T15:38:08.000Z</time><hdop>3.0</hdop><vdop>3.0</vdop><extensions><gom:speed>1.113</gom:speed></extensions></trkpt>
   <trkpt lat="59.0904418633" lon="29.9933955841"><ele>96.61</ele><time>2026-04-25T15:38:09.000Z</time><hdop>3.0</hdop><vdop>3.0</vdop><extensions><gom:speed>0.982</gom:speed></extensions></trkpt>
   <trkpt lat="59.0904491136" lon="29.9934007809"><ele>96.557</ele><time>2026-04-25T15:38:10.000Z</time><hdop>3.0</hdop><vdop>3.0</vdop><extensions><gom:speed>0.87</gom:speed></extensions></trkpt>
   <trkpt lat="59.0904574536" lon="29.9934070673"><ele>96.483</ele><time>2026-04-25T15:38:11.000Z</time><hdop>3.0</hdop><vdop>3.0</vdop><extensions><gom:speed>1.006</gom:speed></extensions></trkpt>
   <trkpt lat="59.0904673442" lon="29.9934135214"><ele>96.404</ele><time>2026-04-25T15:38:12.000Z</time><hdop>3.0</hdop><vdop>3.0</vdop><extensions><gom:speed>1.333</gom:speed></extensions></trkpt>
   <trkpt lat="59.0904780731" lon="29.9934180476"><ele>96.367</ele><time>2026-04-25T15:38:13.000Z</time><hdop>3.0</hdop><vdop>3.0</vdop><extensions><gom:speed>1.1</gom:speed></extensions></trkpt>
   <trkpt lat="59.0904875865" lon="29.99342249"><ele>96.361</ele><time>2026-04-25T15:38:14.000Z</time><hdop>3.0</hdop><vdop>3.0</vdop><extensions><gom:speed>1.273</gom:speed></extensions></trkpt>
   <trkpt lat="59.0904991955" lon="29.9934297823"><ele>96.296</ele><time>2026-04-25T15:38:15.000Z</time><hdop>3.0</hdop><vdop>3.0</vdop><extensions><gom:speed>1.205</gom:speed></extensions></trkpt>
   <trkpt lat="59.0905115588" lon="29.9934380804"><ele>96.223</ele><time>2026-04-25T15:38:16.000Z</time><hdop>3.0</hdop><vdop>3.0</vdop><extensions><gom:speed>1.371</gom:speed></extensions></trkpt>
   <trkpt lat="59.090523042" lon="29.9934411817"><ele>96.197</ele><time>2026-04-25T15:38:17.000Z</time><hdop>3.0</hdop><vdop>3.0</vdop><extensions><gom:speed>1.409</gom:speed></extensions></trkpt>
   <trkpt lat="59.0905343156" lon="29.993443361"><ele>96.222</ele><time>2026-04-25T15:38:18.000Z</time><hdop>3.0</hdop><vdop>3.0</vdop><extensions><gom:speed>1.42</gom:speed></extensions></trkpt>
   <trkpt lat="59.090548062" lon="29.9934436962"><ele>96.293</ele><time>2026-04-25T15:38:19.000Z</time><hdop>3.0</hdop><vdop>3.0</vdop><extensions><gom:speed>1.442</gom:speed></extensions></trkpt>
   <trkpt lat="59.0905625627" lon="29.9934444506"><ele>96.381</ele><time>2026-04-25T15:38:20.000Z</time><hdop>3.0</hdop><vdop>3.0</vdop><extensions><gom:speed>1.533</gom:speed></extensions></trkpt>
   <trkpt lat="59.0905784045" lon="29.9934478872"><ele>96.457</ele><time>2026-04-25T15:38:21.000Z</time><hdop>3.0</hdop><vdop>3.0</vdop><extensions><gom:speed>1.597</gom:speed></extensions></trkpt>
   <trkpt lat="59.0905938691" lon="29.9934619688"><ele>96.463</ele><time>2026-04-25T15:38:22.000Z</time><hdop>3.0</hdop><vdop>3.0</vdop><extensions><gom:speed>1.662</gom:speed></extensions></trkpt>
   <trkpt lat="59.0906087469" lon="29.9934760504"><ele>96.424</ele><time>2026-04-25T15:38:23.000Z</time><hdop>3.0</hdop><vdop>3.0</vdop><extensions><gom:speed>1.66</gom:speed></extensions></trkpt>
   <trkpt lat="59.0906236667" lon="29.9934905511"><ele>96.369</ele><time>2026-04-25T15:38:24.000Z</time><hdop>3.0</hdop><vdop>3.0</vdop><extensions><gom:speed>1.712</gom:speed></extensions></trkpt>
   <trkpt lat="59.0906375388" lon="29.9935089913"><ele>96.315</ele><time>2026-04-25T15:38:25.000Z</time><hdop>3.0</hdop><vdop>3.0</vdop><extensions><gom:speed>1.652</gom:speed></extensions></trkpt>
   <trkpt lat="59.0906487286" lon="29.9935276829"><ele>96.336</ele><time>2026-04-25T15:38:26.000Z</time><hdop>3.0</hdop><vdop>3.0</vdop><extensions><gom:speed>1.705</gom:speed></extensions></trkpt>
   <trkpt lat="59.0906620559" lon="29.9935462069"><ele>96.32</ele><time>2026-04-25T15:38:27.000Z</time><hdop>3.0</hdop><vdop>3.0</vdop><extensions><gom:speed>1.605</gom:speed></extensions></trkpt>
   <trkpt lat="59.090675425" lon="29.9935571034"><ele>96.342</ele><time>2026-04-25T15:38:28.000Z</time><hdop>3.0</hdop><vdop>3.0</vdop><extensions><gom:speed>1.679</gom:speed></extensions></trkpt>
   <trkpt lat="59.090675425" lon="29.9935571034"><ele>96.354</ele><time>2026-04-25T15:38:28.000Z</time><hdop>3.0</hdop><vdop>3.0</vdop><extensions><gom:speed>1.679</gom:speed></extensions></trkpt>
   <trkpt lat="59.090690219" lon="29.9935664911"><ele>96.33</ele><time>2026-04-25T15:38:29.000Z</time><hdop>3.0</hdop><vdop>3.0</vdop><extensions><gom:speed>1.62</gom:speed></extensions></trkpt>
   <trkpt lat="59.0907069409" lon="29.9935717717"><ele>96.294</ele><time>2026-04-25T15:38:30.000Z</time><hdop>3.0</hdop><vdop>3.0</vdop><extensions><gom:speed>1.722</gom:speed></extensions></trkpt>
   <trkpt lat="59.0907239562" lon="29.9935788963"><ele>96.248</ele><time>2026-04-25T15:38:31.000Z</time><hdop>3.0</hdop><vdop>3.0</vdop><extensions><gom:speed>1.735</gom:speed></extensions></trkpt>
   <trkpt lat="59.0907382893" lon="29.9935881164"><ele>96.192</ele><time>2026-04-25T15:38:32.000Z</time><hdop>3.0</hdop><vdop>3.0</vdop><extensions><gom:speed>1.754</gom:speed></extensions></trkpt>
   <trkpt lat="59.0907517841" lon="29.9935867753"><ele>96.217</ele><time>2026-04-25T15:38:33.000Z</time><hdop>3.0</hdop><vdop>3.0</vdop><extensions><gom:speed>1.563</gom:speed></extensions></trkpt>
   <trkpt lat="59.0907645246" lon="29.993585518"><ele>96.257</ele><time>2026-04-25T15:38:34.000Z</time><hdop>3.0</hdop><vdop>3.0</vdop><extensions><gom:speed>1.684</gom:speed></extensions></trkpt>
   <trkpt lat="59.0907788996" lon="29.9935946543"><ele>96.23</ele><time>2026-04-25T15:38:35.000Z</time><hdop>3.0</hdop><vdop>3.0</vdop><extensions><gom:speed>1.608</gom:speed></extensions></trkpt>
   <trkpt lat="59.090794448" lon="29.9936032877"><ele>96.219</ele><time>2026-04-25T15:38:36.000Z</time><hdop>3.0</hdop><vdop>3.0</vdop><extensions><gom:speed>1.653</gom:speed></extensions></trkpt>
   <trkpt lat="59.0908071047" lon="29.9936080654"><ele>96.215</ele><time>2026-04-25T15:38:37.000Z</time><hdop>3.0</hdop><vdop>3.0</vdop><extensions><gom:speed>1.274</gom:speed></extensions></trkpt>
   <trkpt lat="59.090817624" lon="29.9936105799"><ele>96.191</ele><time>2026-04-25T15:38:38.000Z</time><hdop>3.0</hdop><vdop>3.0</vdop><extensions><gom:speed>1.229</gom:speed></extensions></trkpt>
   <trkpt lat="59.0908296101" lon="29.9936154414"><ele>96.158</ele><time>2026-04-25T15:38:39.000Z</time><hdop>3.0</hdop><vdop>3.0</vdop><extensions><gom:speed>1.31</gom:speed></extensions></trkpt>
   <trkpt lat="59.0908401713" lon="29.9936181236"><ele>96.168</ele><time>2026-04-25T15:38:40.000Z</time><hdop>3.0</hdop><vdop>3.0</vdop><extensions><gom:speed>1.232</gom:speed></extensions></trkpt>
   <trkpt lat="59.090852367" lon="29.993622147"><ele>96.169</ele><time>2026-04-25T15:38:41.000Z</time><hdop>3.0</hdop><vdop>3.0</vdop><extensions><gom:speed>1.256</gom:speed></extensions></trkpt>
   <trkpt lat="59.0908646884" lon="29.993624913"><ele>96.151</ele><time>2026-04-25T15:38:42.000Z</time><hdop>3.0</hdop><vdop>3.0</vdop><extensions><gom:speed>1.211</gom:speed></extensions></trkpt>
   <trkpt lat="59.0908758782" lon="29.9936322891"><ele>96.146</ele><time>2026-04-25T15:38:43.000Z</time><hdop>3.0</hdop><vdop>3.0</vdop><extensions><gom:speed>1.098</gom:speed></extensions></trkpt>
   <trkpt lat="59.0908857269" lon="29.9936398328"><ele>96.15</ele><time>2026-04-25T15:38:44.000Z</time><hdop>3.0</hdop><vdop>3.0</vdop><extensions><gom:speed>1.344</gom:speed></extensions></trkpt>
   <trkpt lat="59.0908983417" lon="29.9936432694"><ele>96.138</ele><time>2026-04-25T15:38:45.000Z</time><hdop>3.0</hdop><vdop>3.0</vdop><extensions><gom:speed>1.188</gom:speed></extensions></trkpt>
   <trkpt lat="59.0909092382" lon="29.9936444428"><ele>96.117</ele><time>2026-04-25T15:38:46.000Z</time><hdop>3.0</hdop><vdop>3.0</vdop><extensions><gom:speed>1.288</gom:speed></extensions></trkpt>
   <trkpt lat="59.0909190869" lon="29.9936419283"><ele>96.129</ele><time>2026-04-25T15:38:47.000Z</time><hdop>3.0</hdop><vdop>3.0</vdop><extensions><gom:speed>1.289</gom:speed></extensions></trkpt>
   <trkpt lat="59.0909289356" lon="29.9936388269"><ele>96.132</ele><time>2026-04-25T15:38:48.000Z</time><hdop>3.0</hdop><vdop>3.0</vdop><extensions><gom:speed>1.112</gom:speed></extensions></trkpt>
   <trkpt lat="59.0909289356" lon="29.9936388269"><ele>96.133</ele><time>2026-04-25T15:38:48.000Z</time><hdop>3.0</hdop><vdop>3.0</vdop><extensions><gom:speed>1.112</gom:speed></extensions></trkpt>
   <trkpt lat="59.0909404608" lon="29.9936322891"><ele>96.124</ele><time>2026-04-25T15:38:49.000Z</time><hdop>3.0</hdop><vdop>3.0</vdop><extensions><gom:speed>1.34</gom:speed></extensions></trkpt>
   <trkpt lat="59.0909518182" lon="29.9936253321"><ele>96.099</ele><time>2026-04-25T15:38:50.000Z</time><hdop>3.0</hdop><vdop>3.0</vdop><extensions><gom:speed>1.386</gom:speed></extensions></trkpt>
   <trkpt lat="59.0909638882" lon="29.9936184589"><ele>96.061</ele><time>2026-04-25T15:38:51.000Z</time><hdop>3.0</hdop><vdop>3.0</vdop><extensions><gom:speed>1.454</gom:speed></extensions></trkpt>
   <trkpt lat="59.0909784308" lon="29.9936189618"><ele>96.048</ele><time>2026-04-25T15:38:52.000Z</time><hdop>3.0</hdop><vdop>3.0</vdop><extensions><gom:speed>1.513</gom:speed></extensions></trkpt>
   <trkpt lat="59.0909927219" lon="29.9936274276"><ele>96.088</ele><time>2026-04-25T15:38:53.000Z</time><hdop>3.0</hdop><vdop>3.0</vdop><extensions><gom:speed>1.597</gom:speed></extensions></trkpt>
   <trkpt lat="59.0910061749" lon="29.9936407548"><ele>96.12</ele><time>2026-04-25T15:38:54.000Z</time><hdop>3.0</hdop><vdop>3.0</vdop><extensions><gom:speed>1.547</gom:speed></extensions></trkpt>
   <trkpt lat="59.0910192507" lon="29.9936563451"><ele>96.161</ele><time>2026-04-25T15:38:55.000Z</time><hdop>3.0</hdop><vdop>3.0</vdop><extensions><gom:speed>1.476</gom:speed></extensions></trkpt>
   <trkpt lat="59.0910328293" lon="29.9936710973"><ele>96.188</ele><time>2026-04-25T15:38:56.000Z</time><hdop>3.0</hdop><vdop>3.0</vdop><extensions><gom:speed>1.545</gom:speed></extensions></trkpt>
   <trkpt lat="59.0910467852" lon="29.9936835025"><ele>96.239</ele><time>2026-04-25T15:38:57.000Z</time><hdop>3.0</hdop><vdop>3.0</vdop><extensions><gom:speed>1.546</gom:speed></extensions></trkpt>
   <trkpt lat="59.0910602801" lon="29.9936959915"><ele>96.284</ele><time>2026-04-25T15:38:58.000Z</time><hdop>3.0</hdop><vdop>3.0</vdop><extensions><gom:speed>1.524</gom:speed></extensions></trkpt>
   <trkpt lat="59.0910742779" lon="29.9937065527"><ele>96.308</ele><time>2026-04-25T15:38:59.000Z</time><hdop>3.0</hdop><vdop>3.0</vdop><extensions><gom:speed>1.567</gom:speed></extensions></trkpt>
   <trkpt lat="59.0910874374" lon="29.9937194609"><ele>96.341</ele><time>2026-04-25T15:39:00.000Z</time><hdop>3.0</hdop><vdop>3.0</vdop><extensions><gom:speed>1.593</gom:speed></extensions></trkpt>
   <trkpt lat="59.0911017286" lon="29.9937328719"><ele>96.329</ele><time>2026-04-25T15:39:01.000Z</time><hdop>3.0</hdop><vdop>3.0</vdop><extensions><gom:speed>1.593</gom:speed></extensions></trkpt>
   <trkpt lat="59.0911158102" lon="29.9937456124"><ele>96.298</ele><time>2026-04-25T15:39:02.000Z</time><hdop>3.0</hdop><vdop>3.0</vdop><extensions><gom:speed>1.638</gom:speed></extensions></trkpt>
   <trkpt lat="59.091129305" lon="29.9937552516"><ele>96.278</ele><time>2026-04-25T15:39:03.000Z</time><hdop>3.0</hdop><vdop>3.0</vdop><extensions><gom:speed>1.502</gom:speed></extensions></trkpt>
   <trkpt lat="59.0911442667" lon="29.9937601131"><ele>96.218</ele><time>2026-04-25T15:39:04.000Z</time><hdop>3.0</hdop><vdop>3.0</vdop><extensions><gom:speed>1.463</gom:speed></extensions></trkpt>
   <trkpt lat="59.0911602343" lon="29.9937686626"><ele>96.148</ele><time>2026-04-25T15:39:05.000Z</time><hdop>3.0</hdop><vdop>3.0</vdop><extensions><gom:speed>1.601</gom:speed></extensions></trkpt>
   <trkpt lat="59.0911755732" lon="29.9937755358"><ele>96.106</ele><time>2026-04-25T15:39:06.000Z</time><hdop>3.0</hdop><vdop>3.0</vdop><extensions><gom:speed>1.656</gom:speed></extensions></trkpt>
   <trkpt lat="59.0911896547" lon="29.9937848397"><ele>96.072</ele><time>2026-04-25T15:39:07.000Z</time><hdop>3.0</hdop><vdop>3.0</vdop><extensions><gom:speed>1.673</gom:speed></extensions></trkpt>
   <trkpt lat="59.0912037783" lon="29.9937956524"><ele>96.026</ele><time>2026-04-25T15:39:08.000Z</time><hdop>3.0</hdop><vdop>3.0</vdop><extensions><gom:speed>1.573</gom:speed></extensions></trkpt>
   <trkpt lat="59.0912037783" lon="29.9937956524"><ele>95.999</ele><time>2026-04-25T15:39:08.000Z</time><hdop>3.0</hdop><vdop>3.0</vdop><extensions><gom:speed>1.573</gom:speed></extensions></trkpt>
   <trkpt lat="59.0912167283" lon="29.993804621"><ele>95.948</ele><time>2026-04-25T15:39:09.000Z</time><hdop>3.0</hdop><vdop>3.0</vdop><extensions><gom:speed>1.486</gom:speed></extensions></trkpt>
   <trkpt lat="59.0912324025" lon="29.9938136734"><ele>95.91</ele><time>2026-04-25T15:39:10.000Z</time><hdop>3.0</hdop><vdop>3.0</vdop><extensions><gom:speed>1.641</gom:speed></extensions></trkpt>
   <trkpt lat="59.0912482023" lon="29.9938193731"><ele>95.867</ele><time>2026-04-25T15:39:11.000Z</time><hdop>3.0</hdop><vdop>3.0</vdop><extensions><gom:speed>1.639</gom:speed></extensions></trkpt>
   <trkpt lat="59.0912627869" lon="29.9938197922"><ele>95.821</ele><time>2026-04-25T15:39:12.000Z</time><hdop>3.0</hdop><vdop>3.0</vdop><extensions><gom:speed>1.603</gom:speed></extensions></trkpt>
   <trkpt lat="59.0912767846" lon="29.993818954"><ele>95.802</ele><time>2026-04-25T15:39:13.000Z</time><hdop>3.0</hdop><vdop>3.0</vdop><extensions><gom:speed>1.648</gom:speed></extensions></trkpt>
   <trkpt lat="59.0912903214" lon="29.9938166071"><ele>95.784</ele><time>2026-04-25T15:39:14.000Z</time><hdop>3.0</hdop><vdop>3.0</vdop><extensions><gom:speed>1.479</gom:speed></extensions></trkpt>
   <trkpt lat="59.0913026009" lon="29.9938126676"><ele>95.753</ele><time>2026-04-25T15:39:15.000Z</time><hdop>3.0</hdop><vdop>3.0</vdop><extensions><gom:speed>1.331</gom:speed></extensions></trkpt>
   <trkpt lat="59.091315048" lon="29.9938102369"><ele>95.758</ele><time>2026-04-25T15:39:16.000Z</time><hdop>3.0</hdop><vdop>3.0</vdop><extensions><gom:speed>1.389</gom:speed></extensions></trkpt>
   <trkpt lat="59.0913246034" lon="29.9938053754"><ele>95.767</ele><time>2026-04-25T15:39:17.000Z</time><hdop>3.0</hdop><vdop>3.0</vdop><extensions><gom:speed>1.323</gom:speed></extensions></trkpt>
   <trkpt lat="59.0913350389" lon="29.9938052915"><ele>95.8</ele><time>2026-04-25T15:39:18.000Z</time><hdop>3.0</hdop><vdop>3.0</vdop><extensions><gom:speed>1.42</gom:speed></extensions></trkpt>
   <trkpt lat="59.0913472345" lon="29.993808309"><ele>95.817</ele><time>2026-04-25T15:39:19.000Z</time><hdop>3.0</hdop><vdop>3.0</vdop><extensions><gom:speed>1.554</gom:speed></extensions></trkpt>
   <trkpt lat="59.0913615257" lon="29.9938122485"><ele>95.818</ele><time>2026-04-25T15:39:20.000Z</time><hdop>3.0</hdop><vdop>3.0</vdop><extensions><gom:speed>1.625</gom:speed></extensions></trkpt>
   <trkpt lat="59.0913764874" lon="29.9938177806"><ele>95.812</ele><time>2026-04-25T15:39:21.000Z</time><hdop>3.0</hdop><vdop>3.0</vdop><extensions><gom:speed>1.646</gom:speed></extensions></trkpt>
   <trkpt lat="59.0913901918" lon="29.9938281741"><ele>95.886</ele><time>2026-04-25T15:39:22.000Z</time><hdop>3.0</hdop><vdop>3.0</vdop><extensions><gom:speed>1.509</gom:speed></extensions></trkpt>
   <trkpt lat="59.0914036028" lon="29.9938337062"><ele>95.959</ele><time>2026-04-25T15:39:23.000Z</time><hdop>3.0</hdop><vdop>3.0</vdop><extensions><gom:speed>1.507</gom:speed></extensions></trkpt>
   <trkpt lat="59.0914168462" lon="29.9938411661"><ele>96.018</ele><time>2026-04-25T15:39:24.000Z</time><hdop>3.0</hdop><vdop>3.0</vdop><extensions><gom:speed>1.441</gom:speed></extensions></trkpt>
   <trkpt lat="59.0914294191" lon="29.9938470334"><ele>96.039</ele><time>2026-04-25T15:39:25.000Z</time><hdop>3.0</hdop><vdop>3.0</vdop><extensions><gom:speed>1.344</gom:speed></extensions></trkpt>
   <trkpt lat="59.0914447161" lon="29.9938513082"><ele>96.046</ele><time>2026-04-25T15:39:26.000Z</time><hdop>3.0</hdop><vdop>3.0</vdop><extensions><gom:speed>1.484</gom:speed></extensions></trkpt>
   <trkpt lat="59.0914601807" lon="29.9938570917"><ele>96.016</ele><time>2026-04-25T15:39:27.000Z</time><hdop>3.0</hdop><vdop>3.0</vdop><extensions><gom:speed>1.575</gom:speed></extensions></trkpt>
   <trkpt lat="59.0914766511" lon="29.9938635458"><ele>95.988</ele><time>2026-04-25T15:39:28.000Z</time><hdop>3.0</hdop><vdop>3.0</vdop><extensions><gom:speed>1.618</gom:speed></extensions></trkpt>
   <trkpt lat="59.0914766511" lon="29.9938635458"><ele>95.971</ele><time>2026-04-25T15:39:28.000Z</time><hdop>3.0</hdop><vdop>3.0</vdop><extensions><gom:speed>1.618</gom:speed></extensions></trkpt>
   <trkpt lat="59.0914923672" lon="29.9938703351"><ele>95.942</ele><time>2026-04-25T15:39:29.000Z</time><hdop>3.0</hdop><vdop>3.0</vdop><extensions><gom:speed>1.702</gom:speed></extensions></trkpt>
   <trkpt lat="59.0915092148" lon="29.9938767054"><ele>95.901</ele><time>2026-04-25T15:39:30.000Z</time><hdop>3.0</hdop><vdop>3.0</vdop><extensions><gom:speed>1.774</gom:speed></extensions></trkpt>
   <trkpt lat="59.0915241765" lon="29.9938871827"><ele>95.849</ele><time>2026-04-25T15:39:31.000Z</time><hdop>3.0</hdop><vdop>3.0</vdop><extensions><gom:speed>1.704</gom:speed></extensions></trkpt>
   <trkpt lat="59.0915406469" lon="29.9938980792"><ele>95.805</ele><time>2026-04-25T15:39:32.000Z</time><hdop>3.0</hdop><vdop>3.0</vdop><extensions><gom:speed>1.866</gom:speed></extensions></trkpt>
   <trkpt lat="59.0915577879" lon="29.9939067964"><ele>95.753</ele><time>2026-04-25T15:39:33.000Z</time><hdop>3.0</hdop><vdop>3.0</vdop><extensions><gom:speed>1.837</gom:speed></extensions></trkpt>
   <trkpt lat="59.0915747194" lon="29.9939165194"><ele>95.711</ele><time>2026-04-25T15:39:34.000Z</time><hdop>3.0</hdop><vdop>3.0</vdop><extensions><gom:speed>1.811</gom:speed></extensions></trkpt>
   <trkpt lat="59.0915915251" lon="29.9939223867"><ele>95.729</ele><time>2026-04-25T15:39:35.000Z</time><hdop>3.0</hdop><vdop>3.0</vdop><extensions><gom:speed>1.819</gom:speed></extensions></trkpt>
   <trkpt lat="59.0916074507" lon="29.9939255719"><ele>95.724</ele><time>2026-04-25T15:39:36.000Z</time><hdop>3.0</hdop><vdop>3.0</vdop><extensions><gom:speed>1.783</gom:speed></extensions></trkpt>
   <trkpt lat="59.0916233763" lon="29.9939307686"><ele>95.699</ele><time>2026-04-25T15:39:37.000Z</time><hdop>3.0</hdop><vdop>3.0</vdop><extensions><gom:speed>1.741</gom:speed></extensions></trkpt>
   <trkpt lat="59.0916384638" lon="29.9939339538"><ele>95.743</ele><time>2026-04-25T15:39:38.000Z</time><hdop>3.0</hdop><vdop>3.0</vdop><extensions><gom:speed>1.448</gom:speed></extensions></trkpt>
   <trkpt lat="59.0916508271" lon="29.9939356301"><ele>95.828</ele><time>2026-04-25T15:39:39.000Z</time><hdop>3.0</hdop><vdop>3.0</vdop><extensions><gom:speed>1.357</gom:speed></extensions></trkpt>
   <trkpt lat="59.0916635676" lon="29.9939406593"><ele>95.865</ele><time>2026-04-25T15:39:40.000Z</time><hdop>3.0</hdop><vdop>3.0</vdop><extensions><gom:speed>1.316</gom:speed></extensions></trkpt>
   <trkpt lat="59.0916739611" lon="29.9939440959"><ele>95.928</ele><time>2026-04-25T15:39:41.000Z</time><hdop>3.0</hdop><vdop>3.0</vdop><extensions><gom:speed>1.146</gom:speed></extensions></trkpt>
   <trkpt lat="59.0916844804" lon="29.9939457722"><ele>96.022</ele><time>2026-04-25T15:39:42.000Z</time><hdop>3.0</hdop><vdop>3.0</vdop><extensions><gom:speed>1.116</gom:speed></extensions></trkpt>
   <trkpt lat="59.0916946644" lon="29.9939446826"><ele>96.124</ele><time>2026-04-25T15:39:43.000Z</time><hdop>3.0</hdop><vdop>3.0</vdop><extensions><gom:speed>1.122</gom:speed></extensions></trkpt>
   <trkpt lat="59.0917016214" lon="29.9939461075"><ele>96.251</ele><time>2026-04-25T15:39:44.000Z</time><hdop>3.0</hdop><vdop>3.0</vdop><extensions><gom:speed>0.819</gom:speed></extensions></trkpt>
   <trkpt lat="59.0917093327" lon="29.9939477839"><ele>96.362</ele><time>2026-04-25T15:39:45.000Z</time><hdop>3.0</hdop><vdop>3.0</vdop><extensions><gom:speed>1.051</gom:speed></extensions></trkpt>
   <trkpt lat="59.0917093327" lon="29.9939477839"><ele>96.428</ele><time>2026-04-25T15:39:46.000Z</time><hdop>3.0</hdop><vdop>3.0</vdop><extensions><gom:speed>0.0</gom:speed></extensions></trkpt>
   <trkpt lat="59.0917113444" lon="29.9939464428"><ele>96.484</ele><time>2026-04-25T15:39:47.000Z</time><hdop>3.0</hdop><vdop>3.0</vdop><extensions><gom:speed>0.491</gom:speed></extensions></trkpt>
   <trkpt lat="59.0917174213" lon="29.9939448502"><ele>96.532</ele><time>2026-04-25T15:39:48.000Z</time><hdop>3.0</hdop><vdop>3.0</vdop><extensions><gom:speed>0.699</gom:speed></extensions></trkpt>
   <trkpt lat="59.0917174213" lon="29.9939448502"><ele>96.56</ele><time>2026-04-25T15:39:48.000Z</time><hdop>3.0</hdop><vdop>3.0</vdop><extensions><gom:speed>0.699</gom:speed></extensions></trkpt>
   <trkpt lat="59.0917264318" lon="29.9939430062"><ele>96.613</ele><time>2026-04-25T15:39:49.000Z</time><hdop>3.0</hdop><vdop>3.0</vdop><extensions><gom:speed>0.973</gom:speed></extensions></trkpt>
   <trkpt lat="59.0917371607" lon="29.9939449341"><ele>96.668</ele><time>2026-04-25T15:39:50.000Z</time><hdop>3.0</hdop><vdop>3.0</vdop><extensions><gom:speed>1.147</gom:speed></extensions></trkpt>
   <trkpt lat="59.0917508232" lon="29.9939481192"><ele>96.74</ele><time>2026-04-25T15:39:51.000Z</time><hdop>3.0</hdop><vdop>3.0</vdop><extensions><gom:speed>1.204</gom:speed></extensions></trkpt>
   <trkpt lat="59.0917630188" lon="29.9939487059"><ele>96.802</ele><time>2026-04-25T15:39:52.000Z</time><hdop>3.0</hdop><vdop>3.0</vdop><extensions><gom:speed>1.244</gom:speed></extensions></trkpt>
   <trkpt lat="59.0917760527" lon="29.9939508852"><ele>96.82</ele><time>2026-04-25T15:39:53.000Z</time><hdop>3.0</hdop><vdop>3.0</vdop><extensions><gom:speed>1.227</gom:speed></extensions></trkpt>
   <trkpt lat="59.0917871168" lon="29.9939535674"><ele>96.847</ele><time>2026-04-25T15:39:54.000Z</time><hdop>3.0</hdop><vdop>3.0</vdop><extensions><gom:speed>1.243</gom:speed></extensions></trkpt>
   <trkpt lat="59.0917991867" lon="29.9939559982"><ele>96.868</ele><time>2026-04-25T15:39:55.000Z</time><hdop>3.0</hdop><vdop>3.0</vdop><extensions><gom:speed>1.417</gom:speed></extensions></trkpt>
   <trkpt lat="59.0918124302" lon="29.9939611111"><ele>96.851</ele><time>2026-04-25T15:39:56.000Z</time><hdop>3.0</hdop><vdop>3.0</vdop><extensions><gom:speed>1.38</gom:speed></extensions></trkpt>
   <trkpt lat="59.0918254221" lon="29.9939695768"><ele>96.856</ele><time>2026-04-25T15:39:57.000Z</time><hdop>3.0</hdop><vdop>3.0</vdop><extensions><gom:speed>1.534</gom:speed></extensions></trkpt>
   <trkpt lat="59.0918386655" lon="29.9939798028"><ele>96.866</ele><time>2026-04-25T15:39:58.000Z</time><hdop>3.0</hdop><vdop>3.0</vdop><extensions><gom:speed>1.641</gom:speed></extensions></trkpt>
   <trkpt lat="59.0918544654" lon="29.9939938844"><ele>96.898</ele><time>2026-04-25T15:39:59.000Z</time><hdop>3.0</hdop><vdop>3.0</vdop><extensions><gom:speed>1.649</gom:speed></extensions></trkpt>
   <trkpt lat="59.091870391" lon="29.9940058705"><ele>96.928</ele><time>2026-04-25T15:40:00.000Z</time><hdop>3.0</hdop><vdop>3.0</vdop><extensions><gom:speed>1.733</gom:speed></extensions></trkpt>
   <trkpt lat="59.0918860652" lon="29.9940166831"><ele>96.973</ele><time>2026-04-25T15:40:01.000Z</time><hdop>3.0</hdop><vdop>3.0</vdop><extensions><gom:speed>1.59</gom:speed></extensions></trkpt>
   <trkpt lat="59.0919015298" lon="29.9940277473"><ele>97.0</ele><time>2026-04-25T15:40:02.000Z</time><hdop>3.0</hdop><vdop>3.0</vdop><extensions><gom:speed>1.484</gom:speed></extensions></trkpt>
   <trkpt lat="59.0919180421" lon="29.9940349557"><ele>96.97</ele><time>2026-04-25T15:40:03.000Z</time><hdop>3.0</hdop><vdop>3.0</vdop><extensions><gom:speed>1.488</gom:speed></extensions></trkpt>
   <trkpt lat="59.0919335906" lon="29.9940427509"><ele>96.932</ele><time>2026-04-25T15:40:04.000Z</time><hdop>3.0</hdop><vdop>3.0</vdop><extensions><gom:speed>1.715</gom:speed></extensions></trkpt>
   <trkpt lat="59.0919497257" lon="29.9940517195"><ele>96.879</ele><time>2026-04-25T15:40:05.000Z</time><hdop>3.0</hdop><vdop>3.0</vdop><extensions><gom:speed>1.656</gom:speed></extensions></trkpt>
   <trkpt lat="59.0919658609" lon="29.9940586765"><ele>96.846</ele><time>2026-04-25T15:40:06.000Z</time><hdop>3.0</hdop><vdop>3.0</vdop><extensions><gom:speed>1.729</gom:speed></extensions></trkpt>
   <trkpt lat="59.0919799844" lon="29.9940678966"><ele>96.787</ele><time>2026-04-25T15:40:07.000Z</time><hdop>3.0</hdop><vdop>3.0</vdop><extensions><gom:speed>1.715</gom:speed></extensions></trkpt>
   <trkpt lat="59.0919933535" lon="29.9940709141"><ele>96.724</ele><time>2026-04-25T15:40:08.000Z</time><hdop>3.0</hdop><vdop>3.0</vdop><extensions><gom:speed>1.564</gom:speed></extensions></trkpt>
   <trkpt lat="59.0919933535" lon="29.9940709141"><ele>96.687</ele><time>2026-04-25T15:40:08.000Z</time><hdop>3.0</hdop><vdop>3.0</vdop><extensions><gom:speed>1.564</gom:speed></extensions></trkpt>
   <trkpt lat="59.0920063455" lon="29.9940678966"><ele>96.671</ele><time>2026-04-25T15:40:09.000Z</time><hdop>3.0</hdop><vdop>3.0</vdop><extensions><gom:speed>1.338</gom:speed></extensions></trkpt>
   <trkpt lat="59.0920192955" lon="29.9940689024"><ele>96.625</ele><time>2026-04-25T15:40:10.000Z</time><hdop>3.0</hdop><vdop>3.0</vdop><extensions><gom:speed>1.385</gom:speed></extensions></trkpt>
   <trkpt lat="59.0920334609" lon="29.9940705788"><ele>96.546</ele><time>2026-04-25T15:40:11.000Z</time><hdop>3.0</hdop><vdop>3.0</vdop><extensions><gom:speed>1.257</gom:speed></extensions></trkpt>
   <trkpt lat="59.0920465367" lon="29.9940725066"><ele>96.475</ele><time>2026-04-25T15:40:12.000Z</time><hdop>3.0</hdop><vdop>3.0</vdop><extensions><gom:speed>1.197</gom:speed></extensions></trkpt>
   <trkpt lat="59.0920596544" lon="29.9940749374"><ele>96.436</ele><time>2026-04-25T15:40:13.000Z</time><hdop>3.0</hdop><vdop>3.0</vdop><extensions><gom:speed>1.277</gom:speed></extensions></trkpt>
   <trkpt lat="59.0920719339" lon="29.9940766976"><ele>96.407</ele><time>2026-04-25T15:40:14.000Z</time><hdop>3.0</hdop><vdop>3.0</vdop><extensions><gom:speed>1.356</gom:speed></extensions></trkpt>
   <trkpt lat="59.0920865184" lon="29.9940777034"><ele>96.359</ele><time>2026-04-25T15:40:15.000Z</time><hdop>3.0</hdop><vdop>3.0</vdop><extensions><gom:speed>1.672</gom:speed></extensions></trkpt>
   <trkpt lat="59.0921036175" lon="29.9940834869"><ele>96.268</ele><time>2026-04-25T15:40:16.000Z</time><hdop>3.0</hdop><vdop>3.0</vdop><extensions><gom:speed>1.649</gom:speed></extensions></trkpt>
   <trkpt lat="59.0921197107" lon="29.9940948863"><ele>96.166</ele><time>2026-04-25T15:40:17.000Z</time><hdop>3.0</hdop><vdop>3.0</vdop><extensions><gom:speed>1.634</gom:speed></extensions></trkpt>
   <trkpt lat="59.0921340019" lon="29.9941041064"><ele>96.079</ele><time>2026-04-25T15:40:18.000Z</time><hdop>3.0</hdop><vdop>3.0</vdop><extensions><gom:speed>1.545</gom:speed></extensions></trkpt>
   <trkpt lat="59.0921491731" lon="29.9941135779"><ele>95.986</ele><time>2026-04-25T15:40:19.000Z</time><hdop>3.0</hdop><vdop>3.0</vdop><extensions><gom:speed>1.536</gom:speed></extensions></trkpt>
   <trkpt lat="59.0921649311" lon="29.9941181042"><ele>95.92</ele><time>2026-04-25T15:40:20.000Z</time><hdop>3.0</hdop><vdop>3.0</vdop><extensions><gom:speed>1.515</gom:speed></extensions></trkpt>
   <trkpt lat="59.0921798509" lon="29.9941212055"><ele>95.874</ele><time>2026-04-25T15:40:21.000Z</time><hdop>3.0</hdop><vdop>3.0</vdop><extensions><gom:speed>1.405</gom:speed></extensions></trkpt>
   <trkpt lat="59.0921943935" lon="29.9941240553"><ele>95.842</ele><time>2026-04-25T15:40:22.000Z</time><hdop>3.0</hdop><vdop>3.0</vdop><extensions><gom:speed>1.482</gom:speed></extensions></trkpt>
   <trkpt lat="59.092208056" lon="29.9941289168"><ele>95.814</ele><time>2026-04-25T15:40:23.000Z</time><hdop>3.0</hdop><vdop>3.0</vdop><extensions><gom:speed>1.395</gom:speed></extensions></trkpt>
   <trkpt lat="59.0922218442" lon="29.9941313476"><ele>95.817</ele><time>2026-04-25T15:40:24.000Z</time><hdop>3.0</hdop><vdop>3.0</vdop><extensions><gom:speed>1.334</gom:speed></extensions></trkpt>
   <trkpt lat="59.0922349619" lon="29.9941426631"><ele>95.781</ele><time>2026-04-25T15:40:25.000Z</time><hdop>3.0</hdop><vdop>3.0</vdop><extensions><gom:speed>1.422</gom:speed></extensions></trkpt>
   <trkpt lat="59.092247409" lon="29.994155236"><ele>95.744</ele><time>2026-04-25T15:40:26.000Z</time><hdop>3.0</hdop><vdop>3.0</vdop><extensions><gom:speed>1.437</gom:speed></extensions></trkpt>
   <trkpt lat="59.0922593532" lon="29.9941657972"><ele>95.677</ele><time>2026-04-25T15:40:27.000Z</time><hdop>3.0</hdop><vdop>3.0</vdop><extensions><gom:speed>1.382</gom:speed></extensions></trkpt>
   <trkpt lat="59.0922693696" lon="29.9941830639"><ele>95.607</ele><time>2026-04-25T15:40:28.000Z</time><hdop>3.0</hdop><vdop>3.0</vdop><extensions><gom:speed>1.4</gom:speed></extensions></trkpt>
   <trkpt lat="59.0922693696" lon="29.9941830639"><ele>95.565</ele><time>2026-04-25T15:40:28.000Z</time><hdop>3.0</hdop><vdop>3.0</vdop><extensions><gom:speed>1.4</gom:speed></extensions></trkpt>
   <trkpt lat="59.0922784221" lon="29.994202007"><ele>95.508</ele><time>2026-04-25T15:40:29.000Z</time><hdop>3.0</hdop><vdop>3.0</vdop><extensions><gom:speed>1.398</gom:speed></extensions></trkpt>
   <trkpt lat="59.09228584" lon="29.9942187708"><ele>95.458</ele><time>2026-04-25T15:40:30.000Z</time><hdop>3.0</hdop><vdop>3.0</vdop><extensions><gom:speed>1.184</gom:speed></extensions></trkpt>
   <trkpt lat="59.0922931742" lon="29.9942324333"><ele>95.387</ele><time>2026-04-25T15:40:31.000Z</time><hdop>3.0</hdop><vdop>3.0</vdop><extensions><gom:speed>1.096</gom:speed></extensions></trkpt>
   <trkpt lat="59.0922967784" lon="29.9942380492"><ele>95.341</ele><time>2026-04-25T15:40:32.000Z</time><hdop>3.0</hdop><vdop>3.0</vdop><extensions><gom:speed>1.05</gom:speed></extensions></trkpt>
   <trkpt lat="59.0922998378" lon="29.9942416534"><ele>95.338</ele><time>2026-04-25T15:40:33.000Z</time><hdop>3.0</hdop><vdop>3.0</vdop><extensions><gom:speed>1.006</gom:speed></extensions></trkpt>
   <trkpt lat="59.0923065853" lon="29.9942486104"><ele>95.377</ele><time>2026-04-25T15:40:34.000Z</time><hdop>3.0</hdop><vdop>3.0</vdop><extensions><gom:speed>0.931</gom:speed></extensions></trkpt>
   <trkpt lat="59.0923147576" lon="29.9942540586"><ele>95.354</ele><time>2026-04-25T15:40:35.000Z</time><hdop>3.0</hdop><vdop>3.0</vdop><extensions><gom:speed>1.031</gom:speed></extensions></trkpt>
   <trkpt lat="59.0923234748" lon="29.9942552321"><ele>95.303</ele><time>2026-04-25T15:40:36.000Z</time><hdop>3.0</hdop><vdop>3.0</vdop><extensions><gom:speed>0.87</gom:speed></extensions></trkpt>
   <trkpt lat="59.0923319405" lon="29.9942522146"><ele>95.248</ele><time>2026-04-25T15:40:37.000Z</time><hdop>3.0</hdop><vdop>3.0</vdop><extensions><gom:speed>0.933</gom:speed></extensions></trkpt>
   <trkpt lat="59.0923406996" lon="29.9942507897"><ele>95.214</ele><time>2026-04-25T15:40:38.000Z</time><hdop>3.0</hdop><vdop>3.0</vdop><extensions><gom:speed>0.976</gom:speed></extensions></trkpt>
   <trkpt lat="59.0923502969" lon="29.9942483589"><ele>95.213</ele><time>2026-04-25T15:40:39.000Z</time><hdop>3.0</hdop><vdop>3.0</vdop><extensions><gom:speed>1.03</gom:speed></extensions></trkpt>
   <trkpt lat="59.0923609" lon="29.9942419049"><ele>95.207</ele><time>2026-04-25T15:40:40.000Z</time><hdop>3.0</hdop><vdop>3.0</vdop><extensions><gom:speed>1.048</gom:speed></extensions></trkpt>
   <trkpt lat="59.0923695333" lon="29.9942357861"><ele>95.187</ele><time>2026-04-25T15:40:41.000Z</time><hdop>3.0</hdop><vdop>3.0</vdop><extensions><gom:speed>0.866</gom:speed></extensions></trkpt>
   <trkpt lat="59.0923777895" lon="29.9942324333"><ele>95.17</ele><time>2026-04-25T15:40:42.000Z</time><hdop>3.0</hdop><vdop>3.0</vdop><extensions><gom:speed>0.869</gom:speed></extensions></trkpt>
   <trkpt lat="59.0923847465" lon="29.9942304217"><ele>95.157</ele><time>2026-04-25T15:40:43.000Z</time><hdop>3.0</hdop><vdop>3.0</vdop><extensions><gom:speed>0.89</gom:speed></extensions></trkpt>
   <trkpt lat="59.0923916197" lon="29.9942260631"><ele>95.182</ele><time>2026-04-25T15:40:44.000Z</time><hdop>3.0</hdop><vdop>3.0</vdop><extensions><gom:speed>0.834</gom:speed></extensions></trkpt>
   <trkpt lat="59.0923976546" lon="29.9942248896"><ele>95.226</ele><time>2026-04-25T15:40:45.000Z</time><hdop>3.0</hdop><vdop>3.0</vdop><extensions><gom:speed>0.704</gom:speed></extensions></trkpt>
   <trkpt lat="59.0924028514" lon="29.994231176"><ele>95.246</ele><time>2026-04-25T15:40:46.000Z</time><hdop>3.0</hdop><vdop>3.0</vdop><extensions><gom:speed>0.497</gom:speed></extensions></trkpt>
   <trkpt lat="59.0924054079" lon="29.9942303379"><ele>95.242</ele><time>2026-04-25T15:40:47.000Z</time><hdop>3.0</hdop><vdop>3.0</vdop><extensions><gom:speed>0.421</gom:speed></extensions></trkpt>
   <trkpt lat="59.0924054079" lon="29.9942303379"><ele>95.24</ele><time>2026-04-25T15:40:48.000Z</time><hdop>3.0</hdop><vdop>3.0</vdop><extensions><gom:speed>0.0</gom:speed></extensions></trkpt>
   <trkpt lat="59.0924054079" lon="29.9942303379"><ele>95.238</ele><time>2026-04-25T15:40:48.000Z</time><hdop>3.0</hdop><vdop>3.0</vdop><extensions><gom:speed>0.0</gom:speed></extensions></trkpt>
   <trkpt lat="59.0924105628" lon="29.9942313437"><ele>95.199</ele><time>2026-04-25T15:40:49.000Z</time><hdop>3.0</hdop><vdop>3.0</vdop><extensions><gom:speed>0.653</gom:speed></extensions></trkpt>
   <trkpt lat="59.0924199924" lon="29.9942357861"><ele>95.166</ele><time>2026-04-25T15:40:50.000Z</time><hdop>3.0</hdop><vdop>3.0</vdop><extensions><gom:speed>1.03</gom:speed></extensions></trkpt>
   <trkpt lat="59.0924303021" lon="29.9942385521"><ele>95.123</ele><time>2026-04-25T15:40:51.000Z</time><hdop>3.0</hdop><vdop>3.0</vdop><extensions><gom:speed>0.997</gom:speed></extensions></trkpt>
   <trkpt lat="59.0924395222" lon="29.9942393903"><ele>95.149</ele><time>2026-04-25T15:40:52.000Z</time><hdop>3.0</hdop><vdop>3.0</vdop><extensions><gom:speed>1.02</gom:speed></extensions></trkpt>
   <trkpt lat="59.0924510054" lon="29.9942446709"><ele>95.111</ele><time>2026-04-25T15:40:53.000Z</time><hdop>3.0</hdop><vdop>3.0</vdop><extensions><gom:speed>1.355</gom:speed></extensions></trkpt>
   <trkpt lat="59.092462782" lon="29.9942513764"><ele>95.089</ele><time>2026-04-25T15:40:54.000Z</time><hdop>3.0</hdop><vdop>3.0</vdop><extensions><gom:speed>1.219</gom:speed></extensions></trkpt>
   <trkpt lat="59.0924739719" lon="29.99426177"><ele>95.062</ele><time>2026-04-25T15:40:55.000Z</time><hdop>3.0</hdop><vdop>3.0</vdop><extensions><gom:speed>1.223</gom:speed></extensions></trkpt>
   <trkpt lat="59.0924847007" lon="29.9942723312"><ele>95.03</ele><time>2026-04-25T15:40:56.000Z</time><hdop>3.0</hdop><vdop>3.0</vdop><extensions><gom:speed>1.123</gom:speed></extensions></trkpt>
   <trkpt lat="59.0924972316" lon="29.9942803778"><ele>95.031</ele><time>2026-04-25T15:40:57.000Z</time><hdop>3.0</hdop><vdop>3.0</vdop><extensions><gom:speed>1.055</gom:speed></extensions></trkpt>
   <trkpt lat="59.0925073318" lon="29.9942871672"><ele>95.054</ele><time>2026-04-25T15:40:58.000Z</time><hdop>3.0</hdop><vdop>3.0</vdop><extensions><gom:speed>0.98</gom:speed></extensions></trkpt>
   <trkpt lat="59.0925171806" lon="29.994290017"><ele>95.069</ele><time>2026-04-25T15:40:59.000Z</time><hdop>3.0</hdop><vdop>3.0</vdop><extensions><gom:speed>0.942</gom:speed></extensions></trkpt>
   <trkpt lat="59.0925171806" lon="29.994290017"><ele>95.077</ele><time>2026-04-25T15:41:00.000Z</time><hdop>3.0</hdop><vdop>3.0</vdop><extensions><gom:speed>0.0</gom:speed></extensions></trkpt>
   <trkpt lat="59.0925214973" lon="29.9942875863"><ele>95.139</ele><time>2026-04-25T15:41:01.000Z</time><hdop>3.0</hdop><vdop>3.0</vdop><extensions><gom:speed>0.233</gom:speed></extensions></trkpt>
   <trkpt lat="59.0925265264" lon="29.9942908552"><ele>95.201</ele><time>2026-04-25T15:41:02.000Z</time><hdop>3.0</hdop><vdop>3.0</vdop><extensions><gom:speed>0.328</gom:speed></extensions></trkpt>
   <trkpt lat="59.0925323937" lon="29.9942929507"><ele>95.272</ele><time>2026-04-25T15:41:03.000Z</time><hdop>3.0</hdop><vdop>3.0</vdop><extensions><gom:speed>0.414</gom:speed></extensions></trkpt>
   <trkpt lat="59.0925415719" lon="29.9942921963"><ele>95.344</ele><time>2026-04-25T15:41:04.000Z</time><hdop>3.0</hdop><vdop>3.0</vdop><extensions><gom:speed>0.595</gom:speed></extensions></trkpt>
   <trkpt lat="59.0925515045" lon="29.9942882568"><ele>95.43</ele><time>2026-04-25T15:41:05.000Z</time><hdop>3.0</hdop><vdop>3.0</vdop><extensions><gom:speed>0.906</gom:speed></extensions></trkpt>
   <trkpt lat="59.0925639097" lon="29.9942801264"><ele>95.521</ele><time>2026-04-25T15:41:06.000Z</time><hdop>3.0</hdop><vdop>3.0</vdop><extensions><gom:speed>1.181</gom:speed></extensions></trkpt>
   <trkpt lat="59.0925783266" lon="29.9942750972"><ele>95.609</ele><time>2026-04-25T15:41:07.000Z</time><hdop>3.0</hdop><vdop>3.0</vdop><extensions><gom:speed>1.266</gom:speed></extensions></trkpt>
   <trkpt lat="59.0925928272" lon="29.9942727503"><ele>95.694</ele><time>2026-04-25T15:41:08.000Z</time><hdop>3.0</hdop><vdop>3.0</vdop><extensions><gom:speed>1.216</gom:speed></extensions></trkpt>
   <trkpt lat="59.0926073279" lon="29.9942690622"><ele>95.764</ele><time>2026-04-25T15:41:09.000Z</time><hdop>3.0</hdop><vdop>3.0</vdop><extensions><gom:speed>1.154</gom:speed></extensions></trkpt>
   <trkpt lat="59.0926229183" lon="29.9942697328"><ele>95.857</ele><time>2026-04-25T15:41:10.000Z</time><hdop>3.0</hdop><vdop>3.0</vdop><extensions><gom:speed>1.179</gom:speed></extensions></trkpt>
   <trkpt lat="59.0926376704" lon="29.9942704872"><ele>95.97</ele><time>2026-04-25T15:41:11.000Z</time><hdop>3.0</hdop><vdop>3.0</vdop><extensions><gom:speed>1.197</gom:speed></extensions></trkpt>
   <trkpt lat="59.0926510396" lon="29.9942709063"><ele>96.11</ele><time>2026-04-25T15:41:12.000Z</time><hdop>3.0</hdop><vdop>3.0</vdop><extensions><gom:speed>1.302</gom:speed></extensions></trkpt>
   <trkpt lat="59.0926665042" lon="29.9942737561"><ele>96.176</ele><time>2026-04-25T15:41:13.000Z</time><hdop>3.0</hdop><vdop>3.0</vdop><extensions><gom:speed>1.512</gom:speed></extensions></trkpt>
   <trkpt lat="59.0926817173" lon="29.994274259"><ele>96.166</ele><time>2026-04-25T15:41:14.000Z</time><hdop>3.0</hdop><vdop>3.0</vdop><extensions><gom:speed>1.636</gom:speed></extensions></trkpt>
   <trkpt lat="59.0926973077" lon="29.9942756001"><ele>96.102</ele><time>2026-04-25T15:41:15.000Z</time><hdop>3.0</hdop><vdop>3.0</vdop><extensions><gom:speed>1.481</gom:speed></extensions></trkpt>
   <trkpt lat="59.0927117245" lon="29.9942800425"><ele>96.019</ele><time>2026-04-25T15:41:16.000Z</time><hdop>3.0</hdop><vdop>3.0</vdop><extensions><gom:speed>1.482</gom:speed></extensions></trkpt>
   <trkpt lat="59.0927245908" lon="29.9942867481"><ele>95.928</ele><time>2026-04-25T15:41:17.000Z</time><hdop>3.0</hdop><vdop>3.0</vdop><extensions><gom:speed>1.48</gom:speed></extensions></trkpt>
   <trkpt lat="59.0927376665" lon="29.9942934536"><ele>95.851</ele><time>2026-04-25T15:41:18.000Z</time><hdop>3.0</hdop><vdop>3.0</vdop><extensions><gom:speed>1.347</gom:speed></extensions></trkpt>
   <trkpt lat="59.0927509519" lon="29.9942968063"><ele>95.867</ele><time>2026-04-25T15:41:19.000Z</time><hdop>3.0</hdop><vdop>3.0</vdop><extensions><gom:speed>1.431</gom:speed></extensions></trkpt>
   <trkpt lat="59.0927639438" lon="29.9943077028"><ele>95.849</ele><time>2026-04-25T15:41:20.000Z</time><hdop>3.0</hdop><vdop>3.0</vdop><extensions><gom:speed>1.517</gom:speed></extensions></trkpt>
   <trkpt lat="59.09277681" lon="29.99431642"><ele>95.811</ele><time>2026-04-25T15:41:21.000Z</time><hdop>3.0</hdop><vdop>3.0</vdop><extensions><gom:speed>1.226</gom:speed></extensions></trkpt>
   <trkpt lat="59.0927872455" lon="29.9943219521"><ele>95.771</ele><time>2026-04-25T15:41:22.000Z</time><hdop>3.0</hdop><vdop>3.0</vdop><extensions><gom:speed>1.191</gom:speed></extensions></trkpt>
   <trkpt lat="59.0927988125" lon="29.9943239637"><ele>95.735</ele><time>2026-04-25T15:41:23.000Z</time><hdop>3.0</hdop><vdop>3.0</vdop><extensions><gom:speed>1.229</gom:speed></extensions></trkpt>
   <trkpt lat="59.0928107567" lon="29.9943202757"><ele>95.668</ele><time>2026-04-25T15:41:24.000Z</time><hdop>3.0</hdop><vdop>3.0</vdop><extensions><gom:speed>1.17</gom:speed></extensions></trkpt>
   <trkpt lat="59.0928237487" lon="29.9943148274"><ele>95.586</ele><time>2026-04-25T15:41:25.000Z</time><hdop>3.0</hdop><vdop>3.0</vdop><extensions><gom:speed>1.351</gom:speed></extensions></trkpt>
   <trkpt lat="59.0928378722" lon="29.9943115585"><ele>95.513</ele><time>2026-04-25T15:41:26.000Z</time><hdop>3.0</hdop><vdop>3.0</vdop><extensions><gom:speed>1.436</gom:speed></extensions></trkpt>
   <trkpt lat="59.0928525405" lon="29.9943103012"><ele>95.473</ele><time>2026-04-25T15:41:27.000Z</time><hdop>3.0</hdop><vdop>3.0</vdop><extensions><gom:speed>1.431</gom:speed></extensions></trkpt>
   <trkpt lat="59.0928672927" lon="29.9943151627"><ele>95.448</ele><time>2026-04-25T15:41:28.000Z</time><hdop>3.0</hdop><vdop>3.0</vdop><extensions><gom:speed>1.495</gom:speed></extensions></trkpt>
   <trkpt lat="59.0928820029" lon="29.9943197728"><ele>95.433</ele><time>2026-04-25T15:41:29.000Z</time><hdop>3.0</hdop><vdop>3.0</vdop><extensions><gom:speed>1.499</gom:speed></extensions></trkpt>
   <trkpt lat="59.0928964617" lon="29.9943272327"><ele>95.44</ele><time>2026-04-25T15:41:30.000Z</time><hdop>3.0</hdop><vdop>3.0</vdop><extensions><gom:speed>1.493</gom:speed></extensions></trkpt>
   <trkpt lat="59.0929101661" lon="29.9943366204"><ele>95.449</ele><time>2026-04-25T15:41:31.000Z</time><hdop>3.0</hdop><vdop>3.0</vdop><extensions><gom:speed>1.562</gom:speed></extensions></trkpt>
   <trkpt lat="59.0929248344" lon="29.9943468463"><ele>95.417</ele><time>2026-04-25T15:41:32.000Z</time><hdop>3.0</hdop><vdop>3.0</vdop><extensions><gom:speed>1.39</gom:speed></extensions></trkpt>
   <trkpt lat="59.0929378264" lon="29.9943543062"><ele>95.364</ele><time>2026-04-25T15:41:33.000Z</time><hdop>3.0</hdop><vdop>3.0</vdop><extensions><gom:speed>1.243</gom:speed></extensions></trkpt>
   <trkpt lat="59.0929514051" lon="29.9943560664"><ele>95.256</ele><time>2026-04-25T15:41:34.000Z</time><hdop>3.0</hdop><vdop>3.0</vdop><extensions><gom:speed>1.32</gom:speed></extensions></trkpt>
   <trkpt lat="59.0929635169" lon="29.9943628557"><ele>95.137</ele><time>2026-04-25T15:41:35.000Z</time><hdop>3.0</hdop><vdop>3.0</vdop><extensions><gom:speed>1.136</gom:speed></extensions></trkpt>
   <trkpt lat="59.0929766346" lon="29.99436646"><ele>95.018</ele><time>2026-04-25T15:41:36.000Z</time><hdop>3.0</hdop><vdop>3.0</vdop><extensions><gom:speed>1.243</gom:speed></extensions></trkpt>
   <trkpt lat="59.0929887464" lon="29.994375261"><ele>94.935</ele><time>2026-04-25T15:41:37.000Z</time><hdop>3.0</hdop><vdop>3.0</vdop><extensions><gom:speed>1.084</gom:speed></extensions></trkpt>
   <trkpt lat="59.093000062" lon="29.9943791166"><ele>94.883</ele><time>2026-04-25T15:41:38.000Z</time><hdop>3.0</hdop><vdop>3.0</vdop><extensions><gom:speed>1.293</gom:speed></extensions></trkpt>
   <trkpt lat="59.0930125091" lon="29.9943808768"><ele>94.845</ele><time>2026-04-25T15:41:39.000Z</time><hdop>3.0</hdop><vdop>3.0</vdop><extensions><gom:speed>1.159</gom:speed></extensions></trkpt>
   <trkpt lat="59.0930248724" lon="29.9943818827"><ele>94.805</ele><time>2026-04-25T15:41:40.000Z</time><hdop>3.0</hdop><vdop>3.0</vdop><extensions><gom:speed>1.061</gom:speed></extensions></trkpt>
   <trkpt lat="59.0930368586" lon="29.9943855707"><ele>94.752</ele><time>2026-04-25T15:41:41.000Z</time><hdop>3.0</hdop><vdop>3.0</vdop><extensions><gom:speed>1.283</gom:speed></extensions></trkpt>
   <trkpt lat="59.0930505211" lon="29.9943905998"><ele>94.776</ele><time>2026-04-25T15:41:42.000Z</time><hdop>3.0</hdop><vdop>3.0</vdop><extensions><gom:speed>1.412</gom:speed></extensions></trkpt>
   <trkpt lat="59.0930643512" lon="29.9943971377"><ele>94.766</ele><time>2026-04-25T15:41:43.000Z</time><hdop>3.0</hdop><vdop>3.0</vdop><extensions><gom:speed>1.325</gom:speed></extensions></trkpt>
   <trkpt lat="59.0930788938" lon="29.9944024183"><ele>94.744</ele><time>2026-04-25T15:41:44.000Z</time><hdop>3.0</hdop><vdop>3.0</vdop><extensions><gom:speed>1.379</gom:speed></extensions></trkpt>
   <trkpt lat="59.0930938136" lon="29.9944089562"><ele>94.688</ele><time>2026-04-25T15:41:45.000Z</time><hdop>3.0</hdop><vdop>3.0</vdop><extensions><gom:speed>1.255</gom:speed></extensions></trkpt>
   <trkpt lat="59.0931088172" lon="29.9944165837"><ele>92.956</ele><time>2026-04-25T15:41:46.000Z</time><hdop>20.0</hdop><vdop>20.0</vdop><extensions><gom:speed>1.566</gom:speed></extensions></trkpt>
   <trkpt lat="59.0931290176" lon="29.994383559"><ele>91.294</ele><time>2026-04-25T15:41:47.000Z</time><hdop>16.312</hdop><vdop>16.312</vdop><extensions><gom:speed>0.881</gom:speed></extensions></trkpt>
   <trkpt lat="59.093156175" lon="29.9943631072"><ele>89.709</ele><time>2026-04-25T15:41:48.000Z</time><hdop>8.5</hdop><vdop>8.5</vdop><extensions><gom:speed>0.974</gom:speed></extensions></trkpt>
   <trkpt lat="59.093156175" lon="29.9943631072"><ele>88.762</ele><time>2026-04-25T15:41:48.000Z</time><hdop>8.5</hdop><vdop>8.5</vdop><extensions><gom:speed>0.974</gom:speed></extensions></trkpt>
   <trkpt lat="59.0931759563" lon="29.9943324294"><ele>88.069</ele><time>2026-04-25T15:41:49.000Z</time><hdop>4.687</hdop><vdop>4.687</vdop><extensions><gom:speed>0.438</gom:speed></extensions></trkpt>
   <trkpt lat="59.0931847992" lon="29.9943157494"><ele>87.659</ele><time>2026-04-25T15:41:50.000Z</time><hdop>4.625</hdop><vdop>4.625</vdop><extensions><gom:speed>1.266</gom:speed></extensions></trkpt>
   <trkpt lat="59.0931965757" lon="29.9943082896"><ele>87.186</ele><time>2026-04-25T15:41:51.000Z</time><hdop>3.75</hdop><vdop>3.75</vdop><extensions><gom:speed>1.711</gom:speed></extensions></trkpt>
   <trkpt lat="59.0931975397" lon="29.994329831"><ele>86.944</ele><time>2026-04-25T15:41:52.000Z</time><hdop>3.375</hdop><vdop>3.375</vdop><extensions><gom:speed>0.864</gom:speed></extensions></trkpt>
   <trkpt lat="59.0932140939" lon="29.9943264783"><ele>86.491</ele><time>2026-04-25T15:41:53.000Z</time><hdop>3.062</hdop><vdop>3.062</vdop><extensions><gom:speed>0.231</gom:speed></extensions></trkpt>
   <trkpt lat="59.0932158541" lon="29.9943495285"><ele>89.658</ele><time>2026-04-25T15:41:54.000Z</time><hdop>3.0</hdop><vdop>3.0</vdop><extensions><gom:speed>1.338</gom:speed></extensions></trkpt>
   <trkpt lat="59.0932230206" lon="29.994388672"><ele>91.514</ele><time>2026-04-25T15:41:55.000Z</time><hdop>3.0</hdop><vdop>3.0</vdop><extensions><gom:speed>1.327</gom:speed></extensions></trkpt>
   <trkpt lat="59.0932370603" lon="29.9944263906"><ele>92.591</ele><time>2026-04-25T15:41:56.000Z</time><hdop>3.0</hdop><vdop>3.0</vdop><extensions><gom:speed>1.358</gom:speed></extensions></trkpt>
   <trkpt lat="59.0932527345" lon="29.9944505305"><ele>93.223</ele><time>2026-04-25T15:41:57.000Z</time><hdop>3.0</hdop><vdop>3.0</vdop><extensions><gom:speed>1.343</gom:speed></extensions></trkpt>
   <trkpt lat="59.0932664389" lon="29.9944622651"><ele>93.56</ele><time>2026-04-25T15:41:58.000Z</time><hdop>3.0</hdop><vdop>3.0</vdop><extensions><gom:speed>1.287</gom:speed></extensions></trkpt>
   <trkpt lat="59.093278425" lon="29.9944695574"><ele>93.722</ele><time>2026-04-25T15:41:59.000Z</time><hdop>3.0</hdop><vdop>3.0</vdop><extensions><gom:speed>1.239</gom:speed></extensions></trkpt>
   <trkpt lat="59.0932917103" lon="29.9944750056"><ele>93.806</ele><time>2026-04-25T15:42:00.000Z</time><hdop>3.0</hdop><vdop>3.0</vdop><extensions><gom:speed>1.339</gom:speed></extensions></trkpt>
   <trkpt lat="59.0933040317" lon="29.9944795318"><ele>93.832</ele><time>2026-04-25T15:42:01.000Z</time><hdop>3.0</hdop><vdop>3.0</vdop><extensions><gom:speed>1.187</gom:speed></extensions></trkpt>
   <trkpt lat="59.0933157245" lon="29.9944839742"><ele>93.843</ele><time>2026-04-25T15:42:02.000Z</time><hdop>3.0</hdop><vdop>3.0</vdop><extensions><gom:speed>1.129</gom:speed></extensions></trkpt>
   <trkpt lat="59.09332616" lon="29.994489171"><ele>93.849</ele><time>2026-04-25T15:42:03.000Z</time><hdop>3.0</hdop><vdop>3.0</vdop><extensions><gom:speed>0.972</gom:speed></extensions></trkpt>
   <trkpt lat="59.093334919" lon="29.9944906798"><ele>93.853</ele><time>2026-04-25T15:42:04.000Z</time><hdop>3.0</hdop><vdop>3.0</vdop><extensions><gom:speed>0.903</gom:speed></extensions></trkpt>
   <trkpt lat="59.0933452707" lon="29.9944909312"><ele>93.871</ele><time>2026-04-25T15:42:05.000Z</time><hdop>3.0</hdop><vdop>3.0</vdop><extensions><gom:speed>1.045</gom:speed></extensions></trkpt>
   <trkpt lat="59.093356251" lon="29.9944926076"><ele>93.856</ele><time>2026-04-25T15:42:06.000Z</time><hdop>3.0</hdop><vdop>3.0</vdop><extensions><gom:speed>1.123</gom:speed></extensions></trkpt>
   <trkpt lat="59.0933684886" lon="29.9944962956"><ele>93.861</ele><time>2026-04-25T15:42:07.000Z</time><hdop>3.0</hdop><vdop>3.0</vdop><extensions><gom:speed>1.098</gom:speed></extensions></trkpt>
   <trkpt lat="59.0933797622" lon="29.9944989779"><ele>93.863</ele><time>2026-04-25T15:42:08.000Z</time><hdop>3.0</hdop><vdop>3.0</vdop><extensions><gom:speed>1.057</gom:speed></extensions></trkpt>
   <trkpt lat="59.0933797622" lon="29.9944989779"><ele>93.864</ele><time>2026-04-25T15:42:08.000Z</time><hdop>3.0</hdop><vdop>3.0</vdop><extensions><gom:speed>1.057</gom:speed></extensions></trkpt>
   <trkpt lat="59.0933897786" lon="29.9944992293"><ele>93.831</ele><time>2026-04-25T15:42:09.000Z</time><hdop>3.0</hdop><vdop>3.0</vdop><extensions><gom:speed>0.974</gom:speed></extensions></trkpt>
   <trkpt lat="59.0934003398" lon="29.9944993969"><ele>93.816</ele><time>2026-04-25T15:42:10.000Z</time><hdop>3.0</hdop><vdop>3.0</vdop><extensions><gom:speed>1.09</gom:speed></extensions></trkpt>
   <trkpt lat="59.093413667" lon="29.9944987264"><ele>93.794</ele><time>2026-04-25T15:42:11.000Z</time><hdop>3.0</hdop><vdop>3.0</vdop><extensions><gom:speed>1.273</gom:speed></extensions></trkpt>
   <trkpt lat="59.0934259465" lon="29.9944973015"><ele>93.775</ele><time>2026-04-25T15:42:12.000Z</time><hdop>3.0</hdop><vdop>3.0</vdop><extensions><gom:speed>1.238</gom:speed></extensions></trkpt>
   <trkpt lat="59.0934366334" lon="29.9945004866"><ele>93.733</ele><time>2026-04-25T15:42:13.000Z</time><hdop>3.0</hdop><vdop>3.0</vdop><extensions><gom:speed>1.122</gom:speed></extensions></trkpt>
   <trkpt lat="59.093447488" lon="29.9945042585"><ele>93.694</ele><time>2026-04-25T15:42:14.000Z</time><hdop>3.0</hdop><vdop>3.0</vdop><extensions><gom:speed>1.254</gom:speed></extensions></trkpt>
   <trkpt lat="59.093457672" lon="29.9945084494"><ele>93.629</ele><time>2026-04-25T15:42:15.000Z</time><hdop>3.0</hdop><vdop>3.0</vdop><extensions><gom:speed>1.161</gom:speed></extensions></trkpt>
   <trkpt lat="59.0934662216" lon="29.9945130594"><ele>93.562</ele><time>2026-04-25T15:42:16.000Z</time><hdop>3.0</hdop><vdop>3.0</vdop><extensions><gom:speed>0.994</gom:speed></extensions></trkpt>
   <trkpt lat="59.0934756931" lon="29.994517418"><ele>93.497</ele><time>2026-04-25T15:42:17.000Z</time><hdop>3.0</hdop><vdop>3.0</vdop><extensions><gom:speed>0.918</gom:speed></extensions></trkpt>
   <trkpt lat="59.0934816024" lon="29.9945224472"><ele>93.402</ele><time>2026-04-25T15:42:18.000Z</time><hdop>3.0</hdop><vdop>3.0</vdop><extensions><gom:speed>0.661</gom:speed></extensions></trkpt>
   <trkpt lat="59.0934816024" lon="29.9945224472"><ele>93.345</ele><time>2026-04-25T15:42:19.000Z</time><hdop>3.0</hdop><vdop>3.0</vdop><extensions><gom:speed>0.0</gom:speed></extensions></trkpt>
   <trkpt lat="59.0934821891" lon="29.9945247103"><ele>93.309</ele><time>2026-04-25T15:42:20.000Z</time><hdop>3.0</hdop><vdop>3.0</vdop><extensions><gom:speed>0.136</gom:speed></extensions></trkpt>
   <trkpt lat="59.0934821891" lon="29.9945247103"><ele>93.288</ele><time>2026-04-25T15:42:21.000Z</time><hdop>3.0</hdop><vdop>3.0</vdop><extensions><gom:speed>0.0</gom:speed></extensions></trkpt>
   <trkpt lat="59.0934821891" lon="29.9945247103"><ele>93.276</ele><time>2026-04-25T15:42:22.000Z</time><hdop>3.0</hdop><vdop>3.0</vdop><extensions><gom:speed>0.0</gom:speed></extensions></trkpt>
   <trkpt lat="59.0934866734" lon="29.9945254647"><ele>93.279</ele><time>2026-04-25T15:42:23.000Z</time><hdop>3.0</hdop><vdop>3.0</vdop><extensions><gom:speed>0.539</gom:speed></extensions></trkpt>
   <trkpt lat="59.0934866734" lon="29.9945254647"><ele>93.282</ele><time>2026-04-25T15:42:24.000Z</time><hdop>3.0</hdop><vdop>3.0</vdop><extensions><gom:speed>0.0</gom:speed></extensions></trkpt>
   <trkpt lat="59.0934894394" lon="29.9945239559"><ele>93.277</ele><time>2026-04-25T15:42:25.000Z</time><hdop>3.0</hdop><vdop>3.0</vdop><extensions><gom:speed>0.357</gom:speed></extensions></trkpt>
   <trkpt lat="59.0934942171" lon="29.9945221957"><ele>93.271</ele><time>2026-04-25T15:42:26.000Z</time><hdop>3.0</hdop><vdop>3.0</vdop><extensions><gom:speed>0.302</gom:speed></extensions></trkpt>
   <trkpt lat="59.0934942171" lon="29.9945221957"><ele>93.268</ele><time>2026-04-25T15:42:27.000Z</time><hdop>3.0</hdop><vdop>3.0</vdop><extensions><gom:speed>0.0</gom:speed></extensions></trkpt>
   <trkpt lat="59.0935007131" lon="29.9945229501"><ele>93.247</ele><time>2026-04-25T15:42:28.000Z</time><hdop>3.0</hdop><vdop>3.0</vdop><extensions><gom:speed>0.843</gom:speed></extensions></trkpt>
   <trkpt lat="59.0935007131" lon="29.9945229501"><ele>93.235</ele><time>2026-04-25T15:42:28.000Z</time><hdop>3.0</hdop><vdop>3.0</vdop><extensions><gom:speed>0.843</gom:speed></extensions></trkpt>
   <trkpt lat="59.0935105199" lon="29.9945199326"><ele>93.211</ele><time>2026-04-25T15:42:29.000Z</time><hdop>3.0</hdop><vdop>3.0</vdop><extensions><gom:speed>0.829</gom:speed></extensions></trkpt>
   <trkpt lat="59.0935227156" lon="29.99451834"><ele>93.187</ele><time>2026-04-25T15:42:30.000Z</time><hdop>1.812</hdop><vdop>1.812</vdop><extensions><gom:speed>1.381</gom:speed></extensions></trkpt>
   <trkpt lat="59.0935373839" lon="29.9945298233"><ele>93.221</ele><time>2026-04-25T15:42:31.000Z</time><hdop>1.812</hdop><vdop>1.812</vdop><extensions><gom:speed>0.704</gom:speed></extensions></trkpt>
   <trkpt lat="59.093547065" lon="29.9945220281"><ele>93.244</ele><time>2026-04-25T15:42:32.000Z</time><hdop>2.312</hdop><vdop>2.312</vdop><extensions><gom:speed>0.389</gom:speed></extensions></trkpt>
   <trkpt lat="59.0935615238" lon="29.9945198488"><ele>93.351</ele><time>2026-04-25T15:42:33.000Z</time><hdop>3.5</hdop><vdop>3.5</vdop><extensions><gom:speed>0.564</gom:speed></extensions></trkpt>
   <trkpt lat="59.0935774913" lon="29.9945269734"><ele>93.601</ele><time>2026-04-25T15:42:34.000Z</time><hdop>3.812</hdop><vdop>3.812</vdop><extensions><gom:speed>0.58</gom:speed></extensions></trkpt>
   <trkpt lat="59.093585035" lon="29.994522531"><ele>93.887</ele><time>2026-04-25T15:42:35.000Z</time><hdop>4.687</hdop><vdop>4.687</vdop><extensions><gom:speed>0.688</gom:speed></extensions></trkpt>
   <trkpt lat="59.0935945904" lon="29.9945246265"><ele>94.323</ele><time>2026-04-25T15:42:36.000Z</time><hdop>4.687</hdop><vdop>4.687</vdop><extensions><gom:speed>0.766</gom:speed></extensions></trkpt>
   <trkpt lat="59.0936054031" lon="29.994519765"><ele>94.73</ele><time>2026-04-25T15:42:37.000Z</time><hdop>4.687</hdop><vdop>4.687</vdop><extensions><gom:speed>0.89</gom:speed></extensions></trkpt>
   <trkpt lat="59.0936195266" lon="29.9945247941"><ele>95.091</ele><time>2026-04-25T15:42:38.000Z</time><hdop>4.687</hdop><vdop>4.687</vdop><extensions><gom:speed>0.636</gom:speed></extensions></trkpt>
   <trkpt lat="59.0936268607" lon="29.9945139815"><ele>95.335</ele><time>2026-04-25T15:42:39.000Z</time><hdop>4.687</hdop><vdop>4.687</vdop><extensions><gom:speed>0.862</gom:speed></extensions></trkpt>
   <trkpt lat="59.0936326442" lon="29.9944963795"><ele>95.473</ele><time>2026-04-25T15:42:40.000Z</time><hdop>4.625</hdop><vdop>4.625</vdop><extensions><gom:speed>1.002</gom:speed></extensions></trkpt>
   <trkpt lat="59.0936385535" lon="29.9944801186"><ele>95.583</ele><time>2026-04-25T15:42:41.000Z</time><hdop>4.187</hdop><vdop>4.187</vdop><extensions><gom:speed>1.081</gom:speed></extensions></trkpt>
   <trkpt lat="59.093648947" lon="29.9944674619"><ele>95.629</ele><time>2026-04-25T15:42:42.000Z</time><hdop>3.5</hdop><vdop>3.5</vdop><extensions><gom:speed>0.782</gom:speed></extensions></trkpt>
   <trkpt lat="59.0936494081" lon="29.9944499437"><ele>95.593</ele><time>2026-04-25T15:42:43.000Z</time><hdop>3.062</hdop><vdop>3.062</vdop><extensions><gom:speed>0.892</gom:speed></extensions></trkpt>
   <trkpt lat="59.0936468516" lon="29.9944297433"><ele>95.49</ele><time>2026-04-25T15:42:44.000Z</time><hdop>2.312</hdop><vdop>2.312</vdop><extensions><gom:speed>0.922</gom:speed></extensions></trkpt>
   <trkpt lat="59.0936525932" lon="29.9944091238"><ele>95.378</ele><time>2026-04-25T15:42:45.000Z</time><hdop>3.0</hdop><vdop>3.0</vdop><extensions><gom:speed>1.032</gom:speed></extensions></trkpt>
   <trkpt lat="59.0936554849" lon="29.994389594"><ele>95.33</ele><time>2026-04-25T15:42:46.000Z</time><hdop>2.75</hdop><vdop>2.75</vdop><extensions><gom:speed>0.983</gom:speed></extensions></trkpt>
   <trkpt lat="59.0936595082" lon="29.9943745904"><ele>95.308</ele><time>2026-04-25T15:42:47.000Z</time><hdop>2.937</hdop><vdop>2.937</vdop><extensions><gom:speed>1.015</gom:speed></extensions></trkpt>
   <trkpt lat="59.0936653756" lon="29.9943612632"><ele>95.24</ele><time>2026-04-25T15:42:48.000Z</time><hdop>3.562</hdop><vdop>3.562</vdop><extensions><gom:speed>1.01</gom:speed></extensions></trkpt>
   <trkpt lat="59.0936653756" lon="29.9943612632"><ele>95.2</ele><time>2026-04-25T15:42:48.000Z</time><hdop>3.562</hdop><vdop>3.562</vdop><extensions><gom:speed>1.01</gom:speed></extensions></trkpt>
   <trkpt lat="59.0936708657" lon="29.9943449185"><ele>95.155</ele><time>2026-04-25T15:42:49.000Z</time><hdop>3.937</hdop><vdop>3.937</vdop><extensions><gom:speed>1.058</gom:speed></extensions></trkpt>
   <trkpt lat="59.0936749309" lon="29.9943263106"><ele>95.05</ele><time>2026-04-25T15:42:50.000Z</time><hdop>3.125</hdop><vdop>3.125</vdop><extensions><gom:speed>0.96</gom:speed></extensions></trkpt>
   <trkpt lat="59.0936828938" lon="29.9943134863"><ele>94.973</ele><time>2026-04-25T15:42:51.000Z</time><hdop>3.25</hdop><vdop>3.25</vdop><extensions><gom:speed>0.777</gom:speed></extensions></trkpt>
   <trkpt lat="59.0936839415" lon="29.9942964711"><ele>94.816</ele><time>2026-04-25T15:42:52.000Z</time><hdop>3.25</hdop><vdop>3.25</vdop><extensions><gom:speed>0.656</gom:speed></extensions></trkpt>
   <trkpt lat="59.0936875876" lon="29.9942851555"><ele>94.71</ele><time>2026-04-25T15:42:53.000Z</time><hdop>3.187</hdop><vdop>3.187</vdop><extensions><gom:speed>0.378</gom:speed></extensions></trkpt>
   <trkpt lat="59.0936877134" lon="29.9942745105"><ele>94.585</ele><time>2026-04-25T15:42:54.000Z</time><hdop>3.125</hdop><vdop>3.125</vdop><extensions><gom:speed>0.23</gom:speed></extensions></trkpt>
   <trkpt lat="59.0936871266" lon="29.9942673859"><ele>94.455</ele><time>2026-04-25T15:42:55.000Z</time><hdop>3.562</hdop><vdop>3.562</vdop><extensions><gom:speed>0.246</gom:speed></extensions></trkpt>
   <trkpt lat="59.0936847378" lon="29.994259926"><ele>94.323</ele><time>2026-04-25T15:42:56.000Z</time><hdop>3.687</hdop><vdop>3.687</vdop><extensions><gom:speed>0.037</gom:speed></extensions></trkpt>
   <trkpt lat="59.0936824747" lon="29.9942595069"><ele>94.228</ele><time>2026-04-25T15:42:57.000Z</time><hdop>3.812</hdop><vdop>3.812</vdop><extensions><gom:speed>0.257</gom:speed></extensions></trkpt>
   <trkpt lat="59.0936823908" lon="29.9942635302"><ele>94.196</ele><time>2026-04-25T15:42:58.000Z</time><hdop>4.5</hdop><vdop>4.5</vdop><extensions><gom:speed>0.006</gom:speed></extensions></trkpt>
   <trkpt lat="59.0936833129" lon="29.9942677211"><ele>94.106</ele><time>2026-04-25T15:42:59.000Z</time><hdop>4.875</hdop><vdop>4.875</vdop><extensions><gom:speed>0.178</gom:speed></extensions></trkpt>
   <trkpt lat="59.0936851569" lon="29.9942694813"><ele>94.016</ele><time>2026-04-25T15:43:00.000Z</time><hdop>3.0</hdop><vdop>3.0</vdop><extensions><gom:speed>0.0</gom:speed></extensions></trkpt>
   <trkpt lat="59.09368742" lon="29.9942719121"><ele>93.963</ele><time>2026-04-25T15:43:01.000Z</time><hdop>3.0</hdop><vdop>3.0</vdop><extensions><gom:speed>0.0</gom:speed></extensions></trkpt>
   <trkpt lat="59.0936890964" lon="29.9942739238"><ele>93.931</ele><time>2026-04-25T15:43:02.000Z</time><hdop>3.0</hdop><vdop>3.0</vdop><extensions><gom:speed>0.0</gom:speed></extensions></trkpt>
   <trkpt lat="59.0936897669" lon="29.9942749296"><ele>93.912</ele><time>2026-04-25T15:43:03.000Z</time><hdop>3.0</hdop><vdop>3.0</vdop><extensions><gom:speed>0.0</gom:speed></extensions></trkpt>
   <trkpt lat="59.0936890964" lon="29.9942747619"><ele>93.901</ele><time>2026-04-25T15:43:04.000Z</time><hdop>3.0</hdop><vdop>3.0</vdop><extensions><gom:speed>0.0</gom:speed></extensions></trkpt>
   <trkpt lat="59.0936890964" lon="29.9942747619"><ele>93.894</ele><time>2026-04-25T15:43:05.000Z</time><hdop>3.0</hdop><vdop>3.0</vdop><extensions><gom:speed>0.0</gom:speed></extensions></trkpt>
   <trkpt lat="59.0936890964" lon="29.9942747619"><ele>93.89</ele><time>2026-04-25T15:43:06.000Z</time><hdop>3.0</hdop><vdop>3.0</vdop><extensions><gom:speed>0.0</gom:speed></extensions></trkpt>
   <trkpt lat="59.0936890964" lon="29.9942747619"><ele>93.888</ele><time>2026-04-25T15:43:07.000Z</time><hdop>3.0</hdop><vdop>3.0</vdop><extensions><gom:speed>0.0</gom:speed></extensions></trkpt>
   <trkpt lat="59.0936890964" lon="29.9942747619"><ele>93.886</ele><time>2026-04-25T15:43:08.000Z</time><hdop>3.0</hdop><vdop>3.0</vdop><extensions><gom:speed>0.0</gom:speed></extensions></trkpt>
   <trkpt lat="59.0936890964" lon="29.9942747619"><ele>93.885</ele><time>2026-04-25T15:43:08.000Z</time><hdop>3.0</hdop><vdop>3.0</vdop><extensions><gom:speed>0.0</gom:speed></extensions></trkpt>
   <trkpt lat="59.0936890964" lon="29.9942747619"><ele>93.885</ele><time>2026-04-25T15:43:09.000Z</time><hdop>3.0</hdop><vdop>3.0</vdop><extensions><gom:speed>0.0</gom:speed></extensions></trkpt>
   <trkpt lat="59.0936890964" lon="29.9942747619"><ele>93.884</ele><time>2026-04-25T15:43:10.000Z</time><hdop>3.0</hdop><vdop>3.0</vdop><extensions><gom:speed>0.0</gom:speed></extensions></trkpt>
   <trkpt lat="59.0936890964" lon="29.9942747619"><ele>93.884</ele><time>2026-04-25T15:43:11.000Z</time><hdop>3.0</hdop><vdop>3.0</vdop><extensions><gom:speed>0.0</gom:speed></extensions></trkpt>
   <trkpt lat="59.0936890964" lon="29.9942747619"><ele>93.884</ele><time>2026-04-25T15:43:12.000Z</time><hdop>3.0</hdop><vdop>3.0</vdop><extensions><gom:speed>0.0</gom:speed></extensions></trkpt>
   <trkpt lat="59.0936890964" lon="29.9942747619"><ele>93.884</ele><time>2026-04-25T15:43:13.000Z</time><hdop>3.0</hdop><vdop>3.0</vdop><extensions><gom:speed>0.0</gom:speed></extensions></trkpt>
   <trkpt lat="59.0936890964" lon="29.9942747619"><ele>93.884</ele><time>2026-04-25T15:43:14.000Z</time><hdop>3.0</hdop><vdop>3.0</vdop><extensions><gom:speed>0.0</gom:speed></extensions></trkpt>
   <trkpt lat="59.0936890964" lon="29.9942747619"><ele>93.884</ele><time>2026-04-25T15:43:15.000Z</time><hdop>3.0</hdop><vdop>3.0</vdop><extensions><gom:speed>0.0</gom:speed></extensions></trkpt>
   <trkpt lat="59.0936890964" lon="29.9942747619"><ele>93.884</ele><time>2026-04-25T15:43:16.000Z</time><hdop>3.0</hdop><vdop>3.0</vdop><extensions><gom:speed>0.0</gom:speed></extensions></trkpt>
   <trkpt lat="59.0936890964" lon="29.9942747619"><ele>93.884</ele><time>2026-04-25T15:43:17.000Z</time><hdop>3.0</hdop><vdop>3.0</vdop><extensions><gom:speed>0.0</gom:speed></extensions></trkpt>
   <trkpt lat="59.0936928682" lon="29.9942719121"><ele>93.886</ele><time>2026-04-25T15:43:18.000Z</time><hdop>3.0</hdop><vdop>3.0</vdop><extensions><gom:speed>0.362</gom:speed></extensions></trkpt>
   <trkpt lat="59.0936928682" lon="29.9942719121"><ele>93.887</ele><time>2026-04-25T15:43:19.000Z</time><hdop>3.0</hdop><vdop>3.0</vdop><extensions><gom:speed>0.0</gom:speed></extensions></trkpt>
   <trkpt lat="59.0936958857" lon="29.9942677211"><ele>93.914</ele><time>2026-04-25T15:43:20.000Z</time><hdop>3.0</hdop><vdop>3.0</vdop><extensions><gom:speed>0.36</gom:speed></extensions></trkpt>
   <trkpt lat="59.0936989451" lon="29.9942582496"><ele>93.948</ele><time>2026-04-25T15:43:21.000Z</time><hdop>3.0</hdop><vdop>3.0</vdop><extensions><gom:speed>0.558</gom:speed></extensions></trkpt>
   <trkpt lat="59.0936989451" lon="29.9942582496"><ele>93.968</ele><time>2026-04-25T15:43:22.000Z</time><hdop>3.0</hdop><vdop>3.0</vdop><extensions><gom:speed>0.0</gom:speed></extensions></trkpt>
   <trkpt lat="59.0936989451" lon="29.9942582496"><ele>93.981</ele><time>2026-04-25T15:43:23.000Z</time><hdop>3.0</hdop><vdop>3.0</vdop><extensions><gom:speed>0.0</gom:speed></extensions></trkpt>
   <trkpt lat="59.0937011663" lon="29.9942477722"><ele>93.954</ele><time>2026-04-25T15:43:24.000Z</time><hdop>3.0</hdop><vdop>3.0</vdop><extensions><gom:speed>0.407</gom:speed></extensions></trkpt>
   <trkpt lat="59.0937033037" lon="29.9942378816"><ele>93.928</ele><time>2026-04-25T15:43:25.000Z</time><hdop>3.0</hdop><vdop>3.0</vdop><extensions><gom:speed>0.293</gom:speed></extensions></trkpt>
   <trkpt lat="59.0937033037" lon="29.9942378816"><ele>93.912</ele><time>2026-04-25T15:43:26.000Z</time><hdop>3.0</hdop><vdop>3.0</vdop><extensions><gom:speed>0.0</gom:speed></extensions></trkpt>
   <trkpt lat="59.0937033037" lon="29.9942378816"><ele>93.903</ele><time>2026-04-25T15:43:27.000Z</time><hdop>3.0</hdop><vdop>3.0</vdop><extensions><gom:speed>0.0</gom:speed></extensions></trkpt>
   <trkpt lat="59.0937033037" lon="29.9942378816"><ele>93.897</ele><time>2026-04-25T15:43:28.000Z</time><hdop>3.0</hdop><vdop>3.0</vdop><extensions><gom:speed>0.0</gom:speed></extensions></trkpt>
   <trkpt lat="59.0937033037" lon="29.9942378816"><ele>93.894</ele><time>2026-04-25T15:43:28.000Z</time><hdop>3.0</hdop><vdop>3.0</vdop><extensions><gom:speed>0.0</gom:speed></extensions></trkpt>
   <trkpt lat="59.0937106798" lon="29.9942246382"><ele>93.855</ele><time>2026-04-25T15:43:29.000Z</time><hdop>3.062</hdop><vdop>3.062</vdop><extensions><gom:speed>0.762</gom:speed></extensions></trkpt>
   <trkpt lat="59.0937134458" lon="29.994213155"><ele>93.803</ele><time>2026-04-25T15:43:30.000Z</time><hdop>3.0</hdop><vdop>3.0</vdop><extensions><gom:speed>0.4</gom:speed></extensions></trkpt>
   <trkpt lat="59.0937134458" lon="29.994213155"><ele>93.772</ele><time>2026-04-25T15:43:31.000Z</time><hdop>3.0</hdop><vdop>3.0</vdop><extensions><gom:speed>0.0</gom:speed></extensions></trkpt>
   <trkpt lat="59.0937134458" lon="29.994213155"><ele>93.753</ele><time>2026-04-25T15:43:32.000Z</time><hdop>3.0</hdop><vdop>3.0</vdop><extensions><gom:speed>0.0</gom:speed></extensions></trkpt>
   <trkpt lat="59.0937134458" lon="29.994213155"><ele>93.742</ele><time>2026-04-25T15:43:33.000Z</time><hdop>3.0</hdop><vdop>3.0</vdop><extensions><gom:speed>0.0</gom:speed></extensions></trkpt>
   <trkpt lat="59.0937105121" lon="29.9942084611"><ele>93.555</ele><time>2026-04-25T15:43:34.000Z</time><hdop>3.0</hdop><vdop>3.0</vdop><extensions><gom:speed>0.233</gom:speed></extensions></trkpt>
   <trkpt lat="59.093709171" lon="29.9942072876"><ele>93.414</ele><time>2026-04-25T15:43:35.000Z</time><hdop>3.0</hdop><vdop>3.0</vdop><extensions><gom:speed>0.108</gom:speed></extensions></trkpt>
   <trkpt lat="59.093709171" lon="29.9942072876"><ele>93.33</ele><time>2026-04-25T15:43:36.000Z</time><hdop>3.0</hdop><vdop>3.0</vdop><extensions><gom:speed>0.0</gom:speed></extensions></trkpt>
   <trkpt lat="59.093709171" lon="29.9942072876"><ele>93.28</ele><time>2026-04-25T15:43:37.000Z</time><hdop>3.0</hdop><vdop>3.0</vdop><extensions><gom:speed>0.0</gom:speed></extensions></trkpt>
   <trkpt lat="59.0937093806" lon="29.9942046892"><ele>93.282</ele><time>2026-04-25T15:43:38.000Z</time><hdop>3.062</hdop><vdop>3.062</vdop><extensions><gom:speed>0.276</gom:speed></extensions></trkpt>
   <trkpt lat="59.0937126076" lon="29.9942053598"><ele>93.3</ele><time>2026-04-25T15:43:39.000Z</time><hdop>3.0</hdop><vdop>3.0</vdop><extensions><gom:speed>0.501</gom:speed></extensions></trkpt>
   <trkpt lat="59.0937187264" lon="29.9942113948"><ele>93.372</ele><time>2026-04-25T15:43:40.000Z</time><hdop>3.0</hdop><vdop>3.0</vdop><extensions><gom:speed>1.092</gom:speed></extensions></trkpt>
   <trkpt lat="59.0937259348" lon="29.9942227941"><ele>93.458</ele><time>2026-04-25T15:43:41.000Z</time><hdop>3.0</hdop><vdop>3.0</vdop><extensions><gom:speed>1.267</gom:speed></extensions></trkpt>
   <trkpt lat="59.0937356578" lon="29.9942325172"><ele>93.564</ele><time>2026-04-25T15:43:42.000Z</time><hdop>3.0</hdop><vdop>3.0</vdop><extensions><gom:speed>1.225</gom:speed></extensions></trkpt>
   <trkpt lat="59.0937449617" lon="29.9942365405"><ele>93.715</ele><time>2026-04-25T15:43:43.000Z</time><hdop>3.0</hdop><vdop>3.0</vdop><extensions><gom:speed>0.9</gom:speed></extensions></trkpt>
   <trkpt lat="59.0937530503" lon="29.9942406476"><ele>93.854</ele><time>2026-04-25T15:43:44.000Z</time><hdop>3.0</hdop><vdop>3.0</vdop><extensions><gom:speed>0.703</gom:speed></extensions></trkpt>
   <trkpt lat="59.0937530503" lon="29.9942406476"><ele>93.937</ele><time>2026-04-25T15:43:45.000Z</time><hdop>3.0</hdop><vdop>3.0</vdop><extensions><gom:speed>0.0</gom:speed></extensions></trkpt>
   <trkpt lat="59.0937530503" lon="29.9942406476"><ele>93.986</ele><time>2026-04-25T15:43:46.000Z</time><hdop>3.0</hdop><vdop>3.0</vdop><extensions><gom:speed>0.0</gom:speed></extensions></trkpt>
   <trkpt lat="59.0937530503" lon="29.9942406476"><ele>94.016</ele><time>2026-04-25T15:43:47.000Z</time><hdop>3.0</hdop><vdop>3.0</vdop><extensions><gom:speed>0.0</gom:speed></extensions></trkpt>
   <trkpt lat="59.0937530503" lon="29.9942406476"><ele>94.034</ele><time>2026-04-25T15:43:48.000Z</time><hdop>3.0</hdop><vdop>3.0</vdop><extensions><gom:speed>0.0</gom:speed></extensions></trkpt>
   <trkpt lat="59.0937530503" lon="29.9942406476"><ele>94.044</ele><time>2026-04-25T15:43:48.000Z</time><hdop>3.0</hdop><vdop>3.0</vdop><extensions><gom:speed>0.0</gom:speed></extensions></trkpt>
   <trkpt lat="59.0937530503" lon="29.9942406476"><ele>94.05</ele><time>2026-04-25T15:43:49.000Z</time><hdop>3.0</hdop><vdop>3.0</vdop><extensions><gom:speed>0.0</gom:speed></extensions></trkpt>
   <trkpt lat="59.0937530503" lon="29.9942406476"><ele>94.054</ele><time>2026-04-25T15:43:50.000Z</time><hdop>3.0</hdop><vdop>3.0</vdop><extensions><gom:speed>0.0</gom:speed></extensions></trkpt>
   <trkpt lat="59.0937530503" lon="29.9942406476"><ele>94.056</ele><time>2026-04-25T15:43:51.000Z</time><hdop>3.0</hdop><vdop>3.0</vdop><extensions><gom:speed>0.0</gom:speed></extensions></trkpt>
   <trkpt lat="59.0937530084" lon="29.9942341935"><ele>94.047</ele><time>2026-04-25T15:43:52.000Z</time><hdop>3.0</hdop><vdop>3.0</vdop><extensions><gom:speed>0.31</gom:speed></extensions></trkpt>
   <trkpt lat="59.0937515415" lon="29.9942289968"><ele>94.053</ele><time>2026-04-25T15:43:53.000Z</time><hdop>3.0</hdop><vdop>3.0</vdop><extensions><gom:speed>0.449</gom:speed></extensions></trkpt>
   <trkpt lat="59.0937464705" lon="29.9942257278"><ele>94.073</ele><time>2026-04-25T15:43:54.000Z</time><hdop>3.062</hdop><vdop>3.062</vdop><extensions><gom:speed>0.607</gom:speed></extensions></trkpt>
   <trkpt lat="59.0937464705" lon="29.9942257278"><ele>94.085</ele><time>2026-04-25T15:43:55.000Z</time><hdop>3.062</hdop><vdop>3.062</vdop><extensions><gom:speed>0.0</gom:speed></extensions></trkpt>
   <trkpt lat="59.0937468477" lon="29.9942206987"><ele>94.15</ele><time>2026-04-25T15:43:56.000Z</time><hdop>3.375</hdop><vdop>3.375</vdop><extensions><gom:speed>0.194</gom:speed></extensions></trkpt>
   <trkpt lat="59.0937464286" lon="29.9942199443"><ele>94.136</ele><time>2026-04-25T15:43:57.000Z</time><hdop>3.187</hdop><vdop>3.187</vdop><extensions><gom:speed>0.128</gom:speed></extensions></trkpt>
   <trkpt lat="59.0937464286" lon="29.9942199443"><ele>94.128</ele><time>2026-04-25T15:43:58.000Z</time><hdop>3.187</hdop><vdop>3.187</vdop><extensions><gom:speed>0.0</gom:speed></extensions></trkpt>
   <trkpt lat="59.0937464286" lon="29.9942199443"><ele>94.124</ele><time>2026-04-25T15:43:59.000Z</time><hdop>3.187</hdop><vdop>3.187</vdop><extensions><gom:speed>0.0</gom:speed></extensions></trkpt>
   <trkpt lat="59.0937464286" lon="29.9942199443"><ele>94.121</ele><time>2026-04-25T15:44:00.000Z</time><hdop>3.187</hdop><vdop>3.187</vdop><extensions><gom:speed>0.0</gom:speed></extensions></trkpt>
   <trkpt lat="59.0937464286" lon="29.9942199443"><ele>94.119</ele><time>2026-04-25T15:44:01.000Z</time><hdop>3.187</hdop><vdop>3.187</vdop><extensions><gom:speed>0.0</gom:speed></extensions></trkpt>
   <trkpt lat="59.0937464286" lon="29.9942199443"><ele>94.118</ele><time>2026-04-25T15:44:02.000Z</time><hdop>3.187</hdop><vdop>3.187</vdop><extensions><gom:speed>0.0</gom:speed></extensions></trkpt>
   <trkpt lat="59.093742992" lon="29.9942201958"><ele>94.099</ele><time>2026-04-25T15:44:03.000Z</time><hdop>3.25</hdop><vdop>3.25</vdop><extensions><gom:speed>0.266</gom:speed></extensions></trkpt>
   <trkpt lat="59.0937350292" lon="29.9942193576"><ele>94.081</ele><time>2026-04-25T15:44:04.000Z</time><hdop>3.062</hdop><vdop>3.062</vdop><extensions><gom:speed>0.656</gom:speed></extensions></trkpt>
   <trkpt lat="59.0937350292" lon="29.9942193576"><ele>94.071</ele><time>2026-04-25T15:44:05.000Z</time><hdop>3.062</hdop><vdop>3.062</vdop><extensions><gom:speed>0.0</gom:speed></extensions></trkpt>
   <trkpt lat="59.093729581" lon="29.9942204472"><ele>94.094</ele><time>2026-04-25T15:44:06.000Z</time><hdop>3.312</hdop><vdop>3.312</vdop><extensions><gom:speed>0.821</gom:speed></extensions></trkpt>
   <trkpt lat="59.0937222468" lon="29.9942306731"><ele>94.115</ele><time>2026-04-25T15:44:07.000Z</time><hdop>3.25</hdop><vdop>3.25</vdop><extensions><gom:speed>1.103</gom:speed></extensions></trkpt>
   <trkpt lat="59.0937159185" lon="29.9942422402"><ele>94.094</ele><time>2026-04-25T15:44:08.000Z</time><hdop>3.562</hdop><vdop>3.562</vdop><extensions><gom:speed>0.881</gom:speed></extensions></trkpt>
   <trkpt lat="59.0937159185" lon="29.9942422402"><ele>94.081</ele><time>2026-04-25T15:44:08.000Z</time><hdop>3.562</hdop><vdop>3.562</vdop><extensions><gom:speed>0.881</gom:speed></extensions></trkpt>
   <trkpt lat="59.0937113503" lon="29.9942547292"><ele>94.041</ele><time>2026-04-25T15:44:09.000Z</time><hdop>3.25</hdop><vdop>3.25</vdop><extensions><gom:speed>0.835</gom:speed></extensions></trkpt>
   <trkpt lat="59.0937062374" lon="29.9942631111"><ele>93.965</ele><time>2026-04-25T15:44:10.000Z</time><hdop>3.0</hdop><vdop>3.0</vdop><extensions><gom:speed>0.626</gom:speed></extensions></trkpt>
   <trkpt lat="59.0936983165" lon="29.9942697328"><ele>93.876</ele><time>2026-04-25T15:44:11.000Z</time><hdop>3.0</hdop><vdop>3.0</vdop><extensions><gom:speed>1.068</gom:speed></extensions></trkpt>
   <trkpt lat="59.0936983165" lon="29.9942697328"><ele>93.822</ele><time>2026-04-25T15:44:12.000Z</time><hdop>3.0</hdop><vdop>3.0</vdop><extensions><gom:speed>0.0</gom:speed></extensions></trkpt>
   <trkpt lat="59.0936983165" lon="29.9942697328"><ele>93.79</ele><time>2026-04-25T15:44:13.000Z</time><hdop>3.0</hdop><vdop>3.0</vdop><extensions><gom:speed>0.0</gom:speed></extensions></trkpt>
   <trkpt lat="59.0936994061" lon="29.9942657933"><ele>93.797</ele><time>2026-04-25T15:44:14.000Z</time><hdop>3.0</hdop><vdop>3.0</vdop><extensions><gom:speed>0.218</gom:speed></extensions></trkpt>
   <trkpt lat="59.0936975621" lon="29.9942517955"><ele>93.79</ele><time>2026-04-25T15:44:15.000Z</time><hdop>3.0</hdop><vdop>3.0</vdop><extensions><gom:speed>0.396</gom:speed></extensions></trkpt>
   <trkpt lat="59.0936965143" lon="29.9942410667"><ele>93.747</ele><time>2026-04-25T15:44:16.000Z</time><hdop>3.0</hdop><vdop>3.0</vdop><extensions><gom:speed>0.399</gom:speed></extensions></trkpt>
   <trkpt lat="59.0936965143" lon="29.9942410667"><ele>93.722</ele><time>2026-04-25T15:44:17.000Z</time><hdop>3.0</hdop><vdop>3.0</vdop><extensions><gom:speed>0.0</gom:speed></extensions></trkpt>
   <trkpt lat="59.0936967239" lon="29.9942365405"><ele>93.706</ele><time>2026-04-25T15:44:18.000Z</time><hdop>3.0</hdop><vdop>3.0</vdop><extensions><gom:speed>0.2</gom:speed></extensions></trkpt>
   <trkpt lat="59.0936967239" lon="29.9942365405"><ele>93.697</ele><time>2026-04-25T15:44:19.000Z</time><hdop>3.0</hdop><vdop>3.0</vdop><extensions><gom:speed>0.0</gom:speed></extensions></trkpt>
   <trkpt lat="59.0936967239" lon="29.9942365405"><ele>93.692</ele><time>2026-04-25T15:44:20.000Z</time><hdop>3.0</hdop><vdop>3.0</vdop><extensions><gom:speed>0.0</gom:speed></extensions></trkpt>
   <trkpt lat="59.0936967239" lon="29.9942365405"><ele>93.688</ele><time>2026-04-25T15:44:21.000Z</time><hdop>3.0</hdop><vdop>3.0</vdop><extensions><gom:speed>0.0</gom:speed></extensions></trkpt>
   <trkpt lat="59.0936967239" lon="29.9942365405"><ele>93.686</ele><time>2026-04-25T15:44:22.000Z</time><hdop>3.0</hdop><vdop>3.0</vdop><extensions><gom:speed>0.0</gom:speed></extensions></trkpt>
   <trkpt lat="59.0936967239" lon="29.9942365405"><ele>93.685</ele><time>2026-04-25T15:44:23.000Z</time><hdop>3.0</hdop><vdop>3.0</vdop><extensions><gom:speed>0.0</gom:speed></extensions></trkpt>
   <trkpt lat="59.0936967239" lon="29.9942365405"><ele>93.685</ele><time>2026-04-25T15:44:24.000Z</time><hdop>3.0</hdop><vdop>3.0</vdop><extensions><gom:speed>0.0</gom:speed></extensions></trkpt>
   <trkpt lat="59.0936967239" lon="29.9942365405"><ele>93.684</ele><time>2026-04-25T15:44:25.000Z</time><hdop>3.0</hdop><vdop>3.0</vdop><extensions><gom:speed>0.0</gom:speed></extensions></trkpt>
   <trkpt lat="59.0936967239" lon="29.9942365405"><ele>93.684</ele><time>2026-04-25T15:44:26.000Z</time><hdop>3.0</hdop><vdop>3.0</vdop><extensions><gom:speed>0.0</gom:speed></extensions></trkpt>
   <trkpt lat="59.0936967239" lon="29.9942365405"><ele>93.684</ele><time>2026-04-25T15:44:27.000Z</time><hdop>3.0</hdop><vdop>3.0</vdop><extensions><gom:speed>0.0</gom:speed></extensions></trkpt>
   <trkpt lat="59.0936967239" lon="29.9942365405"><ele>93.684</ele><time>2026-04-25T15:44:28.000Z</time><hdop>3.0</hdop><vdop>3.0</vdop><extensions><gom:speed>0.0</gom:speed></extensions></trkpt>
   <trkpt lat="59.0936967239" lon="29.9942365405"><ele>93.684</ele><time>2026-04-25T15:44:28.000Z</time><hdop>3.0</hdop><vdop>3.0</vdop><extensions><gom:speed>0.0</gom:speed></extensions></trkpt>
   <trkpt lat="59.0936967239" lon="29.9942365405"><ele>93.684</ele><time>2026-04-25T15:44:29.000Z</time><hdop>3.0</hdop><vdop>3.0</vdop><extensions><gom:speed>0.0</gom:speed></extensions></trkpt>
   <trkpt lat="59.0936967239" lon="29.9942365405"><ele>93.684</ele><time>2026-04-25T15:44:30.000Z</time><hdop>3.0</hdop><vdop>3.0</vdop><extensions><gom:speed>0.0</gom:speed></extensions></trkpt>
   <trkpt lat="59.0936967239" lon="29.9942365405"><ele>93.684</ele><time>2026-04-25T15:44:31.000Z</time><hdop>3.0</hdop><vdop>3.0</vdop><extensions><gom:speed>0.0</gom:speed></extensions></trkpt>
   <trkpt lat="59.0936967239" lon="29.9942365405"><ele>93.684</ele><time>2026-04-25T15:44:32.000Z</time><hdop>3.0</hdop><vdop>3.0</vdop><extensions><gom:speed>0.0</gom:speed></extensions></trkpt>
   <trkpt lat="59.0936967239" lon="29.9942365405"><ele>93.683</ele><time>2026-04-25T15:44:33.000Z</time><hdop>3.0</hdop><vdop>3.0</vdop><extensions><gom:speed>0.0</gom:speed></extensions></trkpt>
   <trkpt lat="59.0936967239" lon="29.9942365405"><ele>93.683</ele><time>2026-04-25T15:44:34.000Z</time><hdop>3.0</hdop><vdop>3.0</vdop><extensions><gom:speed>0.0</gom:speed></extensions></trkpt>
   <trkpt lat="59.0936967239" lon="29.9942365405"><ele>93.683</ele><time>2026-04-25T15:44:35.000Z</time><hdop>3.0</hdop><vdop>3.0</vdop><extensions><gom:speed>0.0</gom:speed></extensions></trkpt>
   <trkpt lat="59.0936967239" lon="29.9942365405"><ele>93.683</ele><time>2026-04-25T15:44:36.000Z</time><hdop>3.0</hdop><vdop>3.0</vdop><extensions><gom:speed>0.0</gom:speed></extensions></trkpt>
   <trkpt lat="59.0936967239" lon="29.9942365405"><ele>93.683</ele><time>2026-04-25T15:44:37.000Z</time><hdop>3.0</hdop><vdop>3.0</vdop><extensions><gom:speed>0.0</gom:speed></extensions></trkpt>
   <trkpt lat="59.0936967239" lon="29.9942365405"><ele>93.683</ele><time>2026-04-25T15:44:38.000Z</time><hdop>3.0</hdop><vdop>3.0</vdop><extensions><gom:speed>0.0</gom:speed></extensions></trkpt>
   <trkpt lat="59.0936967239" lon="29.9942365405"><ele>93.683</ele><time>2026-04-25T15:44:39.000Z</time><hdop>3.0</hdop><vdop>3.0</vdop><extensions><gom:speed>0.0</gom:speed></extensions></trkpt>
   <trkpt lat="59.0936967239" lon="29.9942365405"><ele>93.683</ele><time>2026-04-25T15:44:40.000Z</time><hdop>3.0</hdop><vdop>3.0</vdop><extensions><gom:speed>0.0</gom:speed></extensions></trkpt>
   <trkpt lat="59.0936967239" lon="29.9942365405"><ele>93.683</ele><time>2026-04-25T15:44:41.000Z</time><hdop>3.0</hdop><vdop>3.0</vdop><extensions><gom:speed>0.0</gom:speed></extensions></trkpt>
   <trkpt lat="59.0936967239" lon="29.9942365405"><ele>93.683</ele><time>2026-04-25T15:44:42.000Z</time><hdop>3.0</hdop><vdop>3.0</vdop><extensions><gom:speed>0.0</gom:speed></extensions></trkpt>
   <trkpt lat="59.0936967239" lon="29.9942365405"><ele>93.683</ele><time>2026-04-25T15:44:43.000Z</time><hdop>3.0</hdop><vdop>3.0</vdop><extensions><gom:speed>0.0</gom:speed></extensions></trkpt>
   <trkpt lat="59.0936967239" lon="29.9942365405"><ele>93.683</ele><time>2026-04-25T15:44:44.000Z</time><hdop>3.0</hdop><vdop>3.0</vdop><extensions><gom:speed>0.0</gom:speed></extensions></trkpt>
   <trkpt lat="59.0936967239" lon="29.9942365405"><ele>93.683</ele><time>2026-04-25T15:44:45.000Z</time><hdop>3.0</hdop><vdop>3.0</vdop><extensions><gom:speed>0.0</gom:speed></extensions></trkpt>
   <trkpt lat="59.0936967239" lon="29.9942365405"><ele>93.683</ele><time>2026-04-25T15:44:46.000Z</time><hdop>3.0</hdop><vdop>3.0</vdop><extensions><gom:speed>0.0</gom:speed></extensions></trkpt>
   <trkpt lat="59.0936967239" lon="29.9942365405"><ele>93.683</ele><time>2026-04-25T15:44:47.000Z</time><hdop>3.0</hdop><vdop>3.0</vdop><extensions><gom:speed>0.0</gom:speed></extensions></trkpt>
   <trkpt lat="59.0936967239" lon="29.9942365405"><ele>93.683</ele><time>2026-04-25T15:44:48.000Z</time><hdop>3.0</hdop><vdop>3.0</vdop><extensions><gom:speed>0.0</gom:speed></extensions></trkpt>
   <trkpt lat="59.0936967239" lon="29.9942365405"><ele>93.683</ele><time>2026-04-25T15:44:48.000Z</time><hdop>3.0</hdop><vdop>3.0</vdop><extensions><gom:speed>0.0</gom:speed></extensions></trkpt>
   <trkpt lat="59.0936967239" lon="29.9942365405"><ele>93.683</ele><time>2026-04-25T15:44:49.000Z</time><hdop>3.0</hdop><vdop>3.0</vdop><extensions><gom:speed>0.0</gom:speed></extensions></trkpt>
   <trkpt lat="59.0936982745" lon="29.9942262307"><ele>93.706</ele><time>2026-04-25T15:44:50.000Z</time><hdop>3.0</hdop><vdop>3.0</vdop><extensions><gom:speed>1.002</gom:speed></extensions></trkpt>
   <trkpt lat="59.0936977716" lon="29.9942057789"><ele>93.752</ele><time>2026-04-25T15:44:51.000Z</time><hdop>3.0</hdop><vdop>3.0</vdop><extensions><gom:speed>1.099</gom:speed></extensions></trkpt>
   <trkpt lat="59.093696682" lon="29.9941831477"><ele>93.825</ele><time>2026-04-25T15:44:52.000Z</time><hdop>3.187</hdop><vdop>3.187</vdop><extensions><gom:speed>1.148</gom:speed></extensions></trkpt>
   <trkpt lat="59.0936926168" lon="29.9941600137"><ele>93.847</ele><time>2026-04-25T15:44:53.000Z</time><hdop>3.0</hdop><vdop>3.0</vdop><extensions><gom:speed>1.382</gom:speed></extensions></trkpt>
   <trkpt lat="59.0936875876" lon="29.9941391427"><ele>93.868</ele><time>2026-04-25T15:44:54.000Z</time><hdop>3.0</hdop><vdop>3.0</vdop><extensions><gom:speed>1.332</gom:speed></extensions></trkpt>
   <trkpt lat="59.0936813431" lon="29.9941157572"><ele>93.879</ele><time>2026-04-25T15:44:55.000Z</time><hdop>3.0</hdop><vdop>3.0</vdop><extensions><gom:speed>1.48</gom:speed></extensions></trkpt>
   <trkpt lat="59.093674889" lon="29.994089941"><ele>93.952</ele><time>2026-04-25T15:44:56.000Z</time><hdop>3.0</hdop><vdop>3.0</vdop><extensions><gom:speed>1.644</gom:speed></extensions></trkpt>
   <trkpt lat="59.0936670101" lon="29.9940636218"><ele>93.982</ele><time>2026-04-25T15:44:57.000Z</time><hdop>3.0</hdop><vdop>3.0</vdop><extensions><gom:speed>1.776</gom:speed></extensions></trkpt>
   <trkpt lat="59.0936600531" lon="29.9940385599"><ele>93.972</ele><time>2026-04-25T15:44:58.000Z</time><hdop>3.0</hdop><vdop>3.0</vdop><extensions><gom:speed>1.563</gom:speed></extensions></trkpt>
   <trkpt lat="59.0936520484" lon="29.9940160126"><ele>93.955</ele><time>2026-04-25T15:44:59.000Z</time><hdop>3.0</hdop><vdop>3.0</vdop><extensions><gom:speed>1.636</gom:speed></extensions></trkpt>
   <trkpt lat="59.0936434569" lon="29.9939963151"><ele>93.965</ele><time>2026-04-25T15:45:00.000Z</time><hdop>3.0</hdop><vdop>3.0</vdop><extensions><gom:speed>1.503</gom:speed></extensions></trkpt>
   <trkpt lat="59.0936326862" lon="29.993975528"><ele>93.931</ele><time>2026-04-25T15:45:01.000Z</time><hdop>3.0</hdop><vdop>3.0</vdop><extensions><gom:speed>1.701</gom:speed></extensions></trkpt>
   <trkpt lat="59.0936220411" lon="29.9939546571"><ele>93.855</ele><time>2026-04-25T15:45:02.000Z</time><hdop>3.0</hdop><vdop>3.0</vdop><extensions><gom:speed>1.659</gom:speed></extensions></trkpt>
   <trkpt lat="59.0936119409" lon="29.9939285893"><ele>93.779</ele><time>2026-04-25T15:45:03.000Z</time><hdop>3.0</hdop><vdop>3.0</vdop><extensions><gom:speed>1.634</gom:speed></extensions></trkpt>
   <trkpt lat="59.0936023856" lon="29.993906042"><ele>93.716</ele><time>2026-04-25T15:45:04.000Z</time><hdop>3.0</hdop><vdop>3.0</vdop><extensions><gom:speed>1.482</gom:speed></extensions></trkpt>
   <trkpt lat="59.0935943809" lon="29.9938769568"><ele>93.662</ele><time>2026-04-25T15:45:05.000Z</time><hdop>3.0</hdop><vdop>3.0</vdop><extensions><gom:speed>1.657</gom:speed></extensions></trkpt>
   <trkpt lat="59.0935875915" lon="29.9938456085"><ele>93.609</ele><time>2026-04-25T15:45:06.000Z</time><hdop>3.0</hdop><vdop>3.0</vdop><extensions><gom:speed>1.731</gom:speed></extensions></trkpt>
   <trkpt lat="59.0935800478" lon="29.9938130867"><ele>93.599</ele><time>2026-04-25T15:45:07.000Z</time><hdop>3.0</hdop><vdop>3.0</vdop><extensions><gom:speed>1.784</gom:speed></extensions></trkpt>
   <trkpt lat="59.0935731327" lon="29.9937837501"><ele>93.624</ele><time>2026-04-25T15:45:08.000Z</time><hdop>3.0</hdop><vdop>3.0</vdop><extensions><gom:speed>1.581</gom:speed></extensions></trkpt>
   <trkpt lat="59.0935731327" lon="29.9937837501"><ele>93.639</ele><time>2026-04-25T15:45:08.000Z</time><hdop>3.0</hdop><vdop>3.0</vdop><extensions><gom:speed>1.581</gom:speed></extensions></trkpt>
   <trkpt lat="59.0935673911" lon="29.9937591073"><ele>93.713</ele><time>2026-04-25T15:45:09.000Z</time><hdop>3.0</hdop><vdop>3.0</vdop><extensions><gom:speed>1.45</gom:speed></extensions></trkpt>
   <trkpt lat="59.0935613143" lon="29.993734213"><ele>93.78</ele><time>2026-04-25T15:45:10.000Z</time><hdop>3.0</hdop><vdop>3.0</vdop><extensions><gom:speed>1.377</gom:speed></extensions></trkpt>
   <trkpt lat="59.0935556984" lon="29.9937104922"><ele>93.833</ele><time>2026-04-25T15:45:11.000Z</time><hdop>3.0</hdop><vdop>3.0</vdop><extensions><gom:speed>1.493</gom:speed></extensions></trkpt>
   <trkpt lat="59.0935476937" lon="29.9936880287"><ele>93.836</ele><time>2026-04-25T15:45:12.000Z</time><hdop>3.0</hdop><vdop>3.0</vdop><extensions><gom:speed>1.574</gom:speed></extensions></trkpt>
   <trkpt lat="59.0935414072" lon="29.9936627992"><ele>93.801</ele><time>2026-04-25T15:45:13.000Z</time><hdop>3.0</hdop><vdop>3.0</vdop><extensions><gom:speed>1.718</gom:speed></extensions></trkpt>
   <trkpt lat="59.0935352465" lon="29.9936330434"><ele>93.778</ele><time>2026-04-25T15:45:14.000Z</time><hdop>3.0</hdop><vdop>3.0</vdop><extensions><gom:speed>1.881</gom:speed></extensions></trkpt>
   <trkpt lat="59.0935279543" lon="29.993601276"><ele>93.741</ele><time>2026-04-25T15:45:15.000Z</time><hdop>3.0</hdop><vdop>3.0</vdop><extensions><gom:speed>1.88</gom:speed></extensions></trkpt>
   <trkpt lat="59.0935219193" lon="29.9935711012"><ele>93.739</ele><time>2026-04-25T15:45:16.000Z</time><hdop>3.0</hdop><vdop>3.0</vdop><extensions><gom:speed>1.759</gom:speed></extensions></trkpt>
   <trkpt lat="59.0935139146" lon="29.9935415969"><ele>93.73</ele><time>2026-04-25T15:45:17.000Z</time><hdop>3.0</hdop><vdop>3.0</vdop><extensions><gom:speed>1.695</gom:speed></extensions></trkpt>
   <trkpt lat="59.0935067062" lon="29.9935141042"><ele>93.695</ele><time>2026-04-25T15:45:18.000Z</time><hdop>3.0</hdop><vdop>3.0</vdop><extensions><gom:speed>1.731</gom:speed></extensions></trkpt>
   <trkpt lat="59.0934991624" lon="29.9934837617"><ele>93.655</ele><time>2026-04-25T15:45:19.000Z</time><hdop>3.0</hdop><vdop>3.0</vdop><extensions><gom:speed>1.88</gom:speed></extensions></trkpt>
   <trkpt lat="59.0934888527" lon="29.993450737"><ele>93.622</ele><time>2026-04-25T15:45:20.000Z</time><hdop>3.0</hdop><vdop>3.0</vdop><extensions><gom:speed>2.039</gom:speed></extensions></trkpt>
   <trkpt lat="59.0934787525" lon="29.9934158683"><ele>93.565</ele><time>2026-04-25T15:45:21.000Z</time><hdop>3.0</hdop><vdop>3.0</vdop><extensions><gom:speed>2.148</gom:speed></extensions></trkpt>
   <trkpt lat="59.0934688199" lon="29.9933787365"><ele>93.539</ele><time>2026-04-25T15:45:22.000Z</time><hdop>3.0</hdop><vdop>3.0</vdop><extensions><gom:speed>2.253</gom:speed></extensions></trkpt>
   <trkpt lat="59.093459977" lon="29.9933431972"><ele>93.483</ele><time>2026-04-25T15:45:23.000Z</time><hdop>3.0</hdop><vdop>3.0</vdop><extensions><gom:speed>2.255</gom:speed></extensions></trkpt>
   <trkpt lat="59.0934523914" lon="29.9933081609"><ele>93.404</ele><time>2026-04-25T15:45:24.000Z</time><hdop>3.0</hdop><vdop>3.0</vdop><extensions><gom:speed>1.972</gom:speed></extensions></trkpt>
   <trkpt lat="59.0934482843" lon="29.9932777346"><ele>93.337</ele><time>2026-04-25T15:45:25.000Z</time><hdop>3.0</hdop><vdop>3.0</vdop><extensions><gom:speed>1.769</gom:speed></extensions></trkpt>
   <trkpt lat="59.0934432971" lon="29.9932473921"><ele>93.299</ele><time>2026-04-25T15:45:26.000Z</time><hdop>3.0</hdop><vdop>3.0</vdop><extensions><gom:speed>1.984</gom:speed></extensions></trkpt>
   <trkpt lat="59.0934372621" lon="29.9932179716"><ele>93.276</ele><time>2026-04-25T15:45:27.000Z</time><hdop>3.0</hdop><vdop>3.0</vdop><extensions><gom:speed>2.014</gom:speed></extensions></trkpt>
   <trkpt lat="59.0934309757" lon="29.9931871262"><ele>93.232</ele><time>2026-04-25T15:45:28.000Z</time><hdop>3.0</hdop><vdop>3.0</vdop><extensions><gom:speed>2.05</gom:speed></extensions></trkpt>
   <trkpt lat="59.0934309757" lon="29.9931871262"><ele>93.206</ele><time>2026-04-25T15:45:28.000Z</time><hdop>3.0</hdop><vdop>3.0</vdop><extensions><gom:speed>2.05</gom:speed></extensions></trkpt>
   <trkpt lat="59.093425737" lon="29.9931555264"><ele>93.206</ele><time>2026-04-25T15:45:29.000Z</time><hdop>3.0</hdop><vdop>3.0</vdop><extensions><gom:speed>1.99</gom:speed></extensions></trkpt>
   <trkpt lat="59.0934209593" lon="29.993127447"><ele>93.225</ele><time>2026-04-25T15:45:30.000Z</time><hdop>3.0</hdop><vdop>3.0</vdop><extensions><gom:speed>1.774</gom:speed></extensions></trkpt>
   <trkpt lat="59.0934141699" lon="29.9931009602"><ele>93.221</ele><time>2026-04-25T15:45:31.000Z</time><hdop>3.0</hdop><vdop>3.0</vdop><extensions><gom:speed>1.811</gom:speed></extensions></trkpt>
   <trkpt lat="59.093406291" lon="29.9930740543"><ele>93.209</ele><time>2026-04-25T15:45:32.000Z</time><hdop>3.0</hdop><vdop>3.0</vdop><extensions><gom:speed>1.975</gom:speed></extensions></trkpt>
   <trkpt lat="59.0933977414" lon="29.9930440471"><ele>93.178</ele><time>2026-04-25T15:45:33.000Z</time><hdop>3.0</hdop><vdop>3.0</vdop><extensions><gom:speed>2.082</gom:speed></extensions></trkpt>
   <trkpt lat="59.0933895691" lon="29.9930124473"><ele>93.121</ele><time>2026-04-25T15:45:34.000Z</time><hdop>3.0</hdop><vdop>3.0</vdop><extensions><gom:speed>2.071</gom:speed></extensions></trkpt>
   <trkpt lat="59.0933835341" lon="29.9929789197"><ele>93.1</ele><time>2026-04-25T15:45:35.000Z</time><hdop>3.0</hdop><vdop>3.0</vdop><extensions><gom:speed>2.074</gom:speed></extensions></trkpt>
   <trkpt lat="59.0933790498" lon="29.9929433804"><ele>93.099</ele><time>2026-04-25T15:45:36.000Z</time><hdop>3.0</hdop><vdop>3.0</vdop><extensions><gom:speed>2.055</gom:speed></extensions></trkpt>
   <trkpt lat="59.0933761161" lon="29.992907925"><ele>93.084</ele><time>2026-04-25T15:45:37.000Z</time><hdop>3.0</hdop><vdop>3.0</vdop><extensions><gom:speed>1.955</gom:speed></extensions></trkpt>
   <trkpt lat="59.0933740625" lon="29.9928752356"><ele>93.085</ele><time>2026-04-25T15:45:38.000Z</time><hdop>3.0</hdop><vdop>3.0</vdop><extensions><gom:speed>1.888</gom:speed></extensions></trkpt>
   <trkpt lat="59.0933730567" lon="29.9928429652"><ele>93.112</ele><time>2026-04-25T15:45:39.000Z</time><hdop>3.0</hdop><vdop>3.0</vdop><extensions><gom:speed>1.852</gom:speed></extensions></trkpt>
   <trkpt lat="59.0933696201" lon="29.9928126228"><ele>93.15</ele><time>2026-04-25T15:45:40.000Z</time><hdop>3.0</hdop><vdop>3.0</vdop><extensions><gom:speed>1.735</gom:speed></extensions></trkpt>
   <trkpt lat="59.093365513" lon="29.992784711"><ele>93.174</ele><time>2026-04-25T15:45:41.000Z</time><hdop>3.0</hdop><vdop>3.0</vdop><extensions><gom:speed>1.661</gom:speed></extensions></trkpt>
   <trkpt lat="59.0933603581" lon="29.9927593138"><ele>93.208</ele><time>2026-04-25T15:45:42.000Z</time><hdop>3.0</hdop><vdop>3.0</vdop><extensions><gom:speed>1.619</gom:speed></extensions></trkpt>
   <trkpt lat="59.0933565444" lon="29.9927306477"><ele>93.231</ele><time>2026-04-25T15:45:43.000Z</time><hdop>3.0</hdop><vdop>3.0</vdop><extensions><gom:speed>1.624</gom:speed></extensions></trkpt>
   <trkpt lat="59.0933539879" lon="29.9927013111"><ele>93.247</ele><time>2026-04-25T15:45:44.000Z</time><hdop>3.0</hdop><vdop>3.0</vdop><extensions><gom:speed>1.686</gom:speed></extensions></trkpt>
   <trkpt lat="59.0933518086" lon="29.9926718068"><ele>93.243</ele><time>2026-04-25T15:45:45.000Z</time><hdop>3.0</hdop><vdop>3.0</vdop><extensions><gom:speed>1.67</gom:speed></extensions></trkpt>
   <trkpt lat="59.0933478272" lon="29.9926440627"><ele>93.209</ele><time>2026-04-25T15:45:46.000Z</time><hdop>3.0</hdop><vdop>3.0</vdop><extensions><gom:speed>1.619</gom:speed></extensions></trkpt>
   <trkpt lat="59.0933444744" lon="29.992617995"><ele>93.276</ele><time>2026-04-25T15:45:47.000Z</time><hdop>3.0</hdop><vdop>3.0</vdop><extensions><gom:speed>1.475</gom:speed></extensions></trkpt>
   <trkpt lat="59.093339571" lon="29.9925937713"><ele>93.316</ele><time>2026-04-25T15:45:48.000Z</time><hdop>3.0</hdop><vdop>3.0</vdop><extensions><gom:speed>1.57</gom:speed></extensions></trkpt>
   <trkpt lat="59.093339571" lon="29.9925937713"><ele>93.34</ele><time>2026-04-25T15:45:48.000Z</time><hdop>3.0</hdop><vdop>3.0</vdop><extensions><gom:speed>1.57</gom:speed></extensions></trkpt>
   <trkpt lat="59.0933332427" lon="29.9925649375"><ele>93.321</ele><time>2026-04-25T15:45:49.000Z</time><hdop>3.0</hdop><vdop>3.0</vdop><extensions><gom:speed>1.774</gom:speed></extensions></trkpt>
   <trkpt lat="59.0933271239" lon="29.9925366905"><ele>93.262</ele><time>2026-04-25T15:45:50.000Z</time><hdop>3.0</hdop><vdop>3.0</vdop><extensions><gom:speed>1.711</gom:speed></extensions></trkpt>
   <trkpt lat="59.0933216756" lon="29.9925053422"><ele>93.226</ele><time>2026-04-25T15:45:51.000Z</time><hdop>3.0</hdop><vdop>3.0</vdop><extensions><gom:speed>1.838</gom:speed></extensions></trkpt>
   <trkpt lat="59.093316395" lon="29.9924737424"><ele>93.2</ele><time>2026-04-25T15:45:52.000Z</time><hdop>3.0</hdop><vdop>3.0</vdop><extensions><gom:speed>1.88</gom:speed></extensions></trkpt>
   <trkpt lat="59.0933105696" lon="29.9924420588"><ele>93.172</ele><time>2026-04-25T15:45:53.000Z</time><hdop>3.0</hdop><vdop>3.0</vdop><extensions><gom:speed>1.972</gom:speed></extensions></trkpt>
   <trkpt lat="59.093304828" lon="29.9924097047"><ele>93.181</ele><time>2026-04-25T15:45:54.000Z</time><hdop>3.0</hdop><vdop>3.0</vdop><extensions><gom:speed>1.924</gom:speed></extensions></trkpt>
   <trkpt lat="59.0932997989" lon="29.9923775182"><ele>93.205</ele><time>2026-04-25T15:45:55.000Z</time><hdop>3.0</hdop><vdop>3.0</vdop><extensions><gom:speed>1.823</gom:speed></extensions></trkpt>
   <trkpt lat="59.0932949374" lon="29.9923473433"><ele>93.276</ele><time>2026-04-25T15:45:56.000Z</time><hdop>3.0</hdop><vdop>3.0</vdop><extensions><gom:speed>1.797</gom:speed></extensions></trkpt>
   <trkpt lat="59.093291417" lon="29.9923131451"><ele>93.369</ele><time>2026-04-25T15:45:57.000Z</time><hdop>3.0</hdop><vdop>3.0</vdop><extensions><gom:speed>1.886</gom:speed></extensions></trkpt>
   <trkpt lat="59.0932870165" lon="29.9922802881"><ele>93.45</ele><time>2026-04-25T15:45:58.000Z</time><hdop>3.0</hdop><vdop>3.0</vdop><extensions><gom:speed>1.898</gom:speed></extensions></trkpt>
   <trkpt lat="59.0932818197" lon="29.9922472634"><ele>93.484</ele><time>2026-04-25T15:45:59.000Z</time><hdop>3.0</hdop><vdop>3.0</vdop><extensions><gom:speed>1.884</gom:speed></extensions></trkpt>
   <trkpt lat="59.0932758685" lon="29.9922183458"><ele>93.55</ele><time>2026-04-25T15:46:00.000Z</time><hdop>3.0</hdop><vdop>3.0</vdop><extensions><gom:speed>1.843</gom:speed></extensions></trkpt>
   <trkpt lat="59.0932693307" lon="29.9921880871"><ele>93.598</ele><time>2026-04-25T15:46:01.000Z</time><hdop>3.0</hdop><vdop>3.0</vdop><extensions><gom:speed>1.888</gom:speed></extensions></trkpt>
   <trkpt lat="59.0932635471" lon="29.9921569065"><ele>93.652</ele><time>2026-04-25T15:46:02.000Z</time><hdop>3.0</hdop><vdop>3.0</vdop><extensions><gom:speed>1.86</gom:speed></extensions></trkpt>
   <trkpt lat="59.0932600687" lon="29.9921285756"><ele>93.702</ele><time>2026-04-25T15:46:03.000Z</time><hdop>3.0</hdop><vdop>3.0</vdop><extensions><gom:speed>1.754</gom:speed></extensions></trkpt>
   <trkpt lat="59.0932560872" lon="29.9921051063"><ele>93.806</ele><time>2026-04-25T15:46:04.000Z</time><hdop>3.0</hdop><vdop>3.0</vdop><extensions><gom:speed>1.691</gom:speed></extensions></trkpt>
   <trkpt lat="59.0932514772" lon="29.9920828104"><ele>93.956</ele><time>2026-04-25T15:46:05.000Z</time><hdop>3.0</hdop><vdop>3.0</vdop><extensions><gom:speed>1.725</gom:speed></extensions></trkpt>
   <trkpt lat="59.0932457775" lon="29.9920558207"><ele>94.074</ele><time>2026-04-25T15:46:06.000Z</time><hdop>3.0</hdop><vdop>3.0</vdop><extensions><gom:speed>1.584</gom:speed></extensions></trkpt>
   <trkpt lat="59.0932398264" lon="29.9920366262"><ele>94.241</ele><time>2026-04-25T15:46:07.000Z</time><hdop>3.0</hdop><vdop>3.0</vdop><extensions><gom:speed>1.726</gom:speed></extensions></trkpt>
   <trkpt lat="59.0932337495" lon="29.9920099717"><ele>94.373</ele><time>2026-04-25T15:46:08.000Z</time><hdop>3.0</hdop><vdop>3.0</vdop><extensions><gom:speed>1.578</gom:speed></extensions></trkpt>
   <trkpt lat="59.0932337495" lon="29.9920099717"><ele>94.452</ele><time>2026-04-25T15:46:08.000Z</time><hdop>3.0</hdop><vdop>3.0</vdop><extensions><gom:speed>1.578</gom:speed></extensions></trkpt>
   <trkpt lat="59.0932272535" lon="29.9919892684"><ele>94.589</ele><time>2026-04-25T15:46:09.000Z</time><hdop>3.0</hdop><vdop>3.0</vdop><extensions><gom:speed>1.505</gom:speed></extensions></trkpt>
   <trkpt lat="59.0932208413" lon="29.9919651285"><ele>94.737</ele><time>2026-04-25T15:46:10.000Z</time><hdop>3.0</hdop><vdop>3.0</vdop><extensions><gom:speed>1.564</gom:speed></extensions></trkpt>
   <trkpt lat="59.093216357" lon="29.9919393123"><ele>94.883</ele><time>2026-04-25T15:46:11.000Z</time><hdop>3.0</hdop><vdop>3.0</vdop><extensions><gom:speed>1.529</gom:speed></extensions></trkpt>
   <trkpt lat="59.0932106573" lon="29.9919145018"><ele>95.0</ele><time>2026-04-25T15:46:12.000Z</time><hdop>3.0</hdop><vdop>3.0</vdop><extensions><gom:speed>1.756</gom:speed></extensions></trkpt>
   <trkpt lat="59.0932040356" lon="29.9918857519"><ele>95.057</ele><time>2026-04-25T15:46:13.000Z</time><hdop>3.0</hdop><vdop>3.0</vdop><extensions><gom:speed>1.677</gom:speed></extensions></trkpt>
   <trkpt lat="59.0931998447" lon="29.9918541521"><ele>95.069</ele><time>2026-04-25T15:46:14.000Z</time><hdop>3.0</hdop><vdop>3.0</vdop><extensions><gom:speed>1.636</gom:speed></extensions></trkpt>
   <trkpt lat="59.0931972463" lon="29.9918242287"><ele>95.098</ele><time>2026-04-25T15:46:15.000Z</time><hdop>3.0</hdop><vdop>3.0</vdop><extensions><gom:speed>1.544</gom:speed></extensions></trkpt>
   <trkpt lat="59.0931959052" lon="29.991797239"><ele>95.145</ele><time>2026-04-25T15:46:16.000Z</time><hdop>3.0</hdop><vdop>3.0</vdop><extensions><gom:speed>1.302</gom:speed></extensions></trkpt>
   <trkpt lat="59.0931926781" lon="29.9917776253"><ele>95.249</ele><time>2026-04-25T15:46:17.000Z</time><hdop>3.0</hdop><vdop>3.0</vdop><extensions><gom:speed>1.224</gom:speed></extensions></trkpt>
   <trkpt lat="59.0931910018" lon="29.9917549104"><ele>95.389</ele><time>2026-04-25T15:46:18.000Z</time><hdop>3.0</hdop><vdop>3.0</vdop><extensions><gom:speed>1.316</gom:speed></extensions></trkpt>
   <trkpt lat="59.0931851763" lon="29.9917285074"><ele>95.474</ele><time>2026-04-25T15:46:19.000Z</time><hdop>3.0</hdop><vdop>3.0</vdop><extensions><gom:speed>1.556</gom:speed></extensions></trkpt>
   <trkpt lat="59.0931801472" lon="29.991700428"><ele>95.574</ele><time>2026-04-25T15:46:20.000Z</time><hdop>3.0</hdop><vdop>3.0</vdop><extensions><gom:speed>1.781</gom:speed></extensions></trkpt>
   <trkpt lat="59.0931744056" lon="29.9916710075"><ele>95.669</ele><time>2026-04-25T15:46:21.000Z</time><hdop>3.0</hdop><vdop>3.0</vdop><extensions><gom:speed>1.865</gom:speed></extensions></trkpt>
   <trkpt lat="59.0931635091" lon="29.9916371447"><ele>95.76</ele><time>2026-04-25T15:46:22.000Z</time><hdop>3.0</hdop><vdop>3.0</vdop><extensions><gom:speed>2.064</gom:speed></extensions></trkpt>
   <trkpt lat="59.0931533251" lon="29.9916027788"><ele>95.841</ele><time>2026-04-25T15:46:23.000Z</time><hdop>3.0</hdop><vdop>3.0</vdop><extensions><gom:speed>1.982</gom:speed></extensions></trkpt>
   <trkpt lat="59.0931456557" lon="29.9915692512"><ele>95.926</ele><time>2026-04-25T15:46:24.000Z</time><hdop>3.0</hdop><vdop>3.0</vdop><extensions><gom:speed>2.055</gom:speed></extensions></trkpt>
   <trkpt lat="59.093139956" lon="29.9915402499"><ele>99.765</ele><time>2026-04-25T15:46:25.000Z</time><hdop>4.687</hdop><vdop>4.687</vdop><extensions><gom:speed>3.463</gom:speed></extensions></trkpt>
   <trkpt lat="59.0931315322" lon="29.9915062193"><ele>98.274</ele><time>2026-04-25T15:46:26.000Z</time><hdop>3.0</hdop><vdop>3.0</vdop><extensions><gom:speed>1.864</gom:speed></extensions></trkpt>
   <trkpt lat="59.0931236951" lon="29.9914783914"><ele>97.44</ele><time>2026-04-25T15:46:27.000Z</time><hdop>3.0</hdop><vdop>3.0</vdop><extensions><gom:speed>1.675</gom:speed></extensions></trkpt>
   <trkpt lat="59.0931171572" lon="29.9914528266"><ele>96.965</ele><time>2026-04-25T15:46:28.000Z</time><hdop>3.0</hdop><vdop>3.0</vdop><extensions><gom:speed>1.383</gom:speed></extensions></trkpt>
   <trkpt lat="59.0931171572" lon="29.9914528266"><ele>96.681</ele><time>2026-04-25T15:46:28.000Z</time><hdop>3.0</hdop><vdop>3.0</vdop><extensions><gom:speed>1.383</gom:speed></extensions></trkpt>
   <trkpt lat="59.0931139721" lon="29.9914317042"><ele>96.588</ele><time>2026-04-25T15:46:29.000Z</time><hdop>3.0</hdop><vdop>3.0</vdop><extensions><gom:speed>1.11</gom:speed></extensions></trkpt>
   <trkpt lat="59.0931116671" lon="29.9914146051"><ele>96.625</ele><time>2026-04-25T15:46:30.000Z</time><hdop>3.0</hdop><vdop>3.0</vdop><extensions><gom:speed>0.983</gom:speed></extensions></trkpt>
   <trkpt lat="59.0931116671" lon="29.9914146051"><ele>96.647</ele><time>2026-04-25T15:46:31.000Z</time><hdop>3.0</hdop><vdop>3.0</vdop><extensions><gom:speed>0.0</gom:speed></extensions></trkpt>
   <trkpt lat="59.0931116671" lon="29.9914146051"><ele>96.66</ele><time>2026-04-25T15:46:32.000Z</time><hdop>3.0</hdop><vdop>3.0</vdop><extensions><gom:speed>0.0</gom:speed></extensions></trkpt>
   <trkpt lat="59.0931116671" lon="29.9914146051"><ele>96.668</ele><time>2026-04-25T15:46:33.000Z</time><hdop>3.0</hdop><vdop>3.0</vdop><extensions><gom:speed>0.0</gom:speed></extensions></trkpt>
   <trkpt lat="59.0931116671" lon="29.9914146051"><ele>96.673</ele><time>2026-04-25T15:46:34.000Z</time><hdop>3.0</hdop><vdop>3.0</vdop><extensions><gom:speed>0.0</gom:speed></extensions></trkpt>
   <trkpt lat="59.0931116671" lon="29.9914146051"><ele>96.675</ele><time>2026-04-25T15:46:35.000Z</time><hdop>3.0</hdop><vdop>3.0</vdop><extensions><gom:speed>0.0</gom:speed></extensions></trkpt>
   <trkpt lat="59.0931116671" lon="29.9914146051"><ele>96.677</ele><time>2026-04-25T15:46:36.000Z</time><hdop>3.0</hdop><vdop>3.0</vdop><extensions><gom:speed>0.0</gom:speed></extensions></trkpt>
   <trkpt lat="59.0931116671" lon="29.9914146051"><ele>96.678</ele><time>2026-04-25T15:46:37.000Z</time><hdop>3.0</hdop><vdop>3.0</vdop><extensions><gom:speed>0.0</gom:speed></extensions></trkpt>
   <trkpt lat="59.0931064703" lon="29.9913699296"><ele>96.683</ele><time>2026-04-25T15:46:38.000Z</time><hdop>3.25</hdop><vdop>3.25</vdop><extensions><gom:speed>1.479</gom:speed></extensions></trkpt>
   <trkpt lat="59.0930993037" lon="29.9913229071"><ele>96.71</ele><time>2026-04-25T15:46:39.000Z</time><hdop>3.375</hdop><vdop>3.375</vdop><extensions><gom:speed>1.69</gom:speed></extensions></trkpt>
   <trkpt lat="59.0930913409" lon="29.9912864458"><ele>96.72</ele><time>2026-04-25T15:46:40.000Z</time><hdop>3.375</hdop><vdop>3.375</vdop><extensions><gom:speed>1.764</gom:speed></extensions></trkpt>
   <trkpt lat="59.0930827495" lon="29.9912501522"><ele>99.965</ele><time>2026-04-25T15:46:41.000Z</time><hdop>3.062</hdop><vdop>3.062</vdop><extensions><gom:speed>1.777</gom:speed></extensions></trkpt>
   <trkpt lat="59.0930581067" lon="29.9912274372"><ele>102.184</ele><time>2026-04-25T15:46:42.000Z</time><hdop>4.687</hdop><vdop>4.687</vdop><extensions><gom:speed>0.758</gom:speed></extensions></trkpt>
   <trkpt lat="59.0930099527" lon="29.9912585341"><ele>103.977</ele><time>2026-04-25T15:46:43.000Z</time><hdop>4.687</hdop><vdop>4.687</vdop><extensions><gom:speed>1.457</gom:speed></extensions></trkpt>
   <trkpt lat="59.0929881597" lon="29.9912488111"><ele>105.24</ele><time>2026-04-25T15:46:44.000Z</time><hdop>4.687</hdop><vdop>4.687</vdop><extensions><gom:speed>2.34</gom:speed></extensions></trkpt>
   <trkpt lat="59.0929620082" lon="29.9912413512"><ele>105.998</ele><time>2026-04-25T15:46:45.000Z</time><hdop>5.625</hdop><vdop>5.625</vdop><extensions><gom:speed>1.956</gom:speed></extensions></trkpt>
   <trkpt lat="59.0929524947" lon="29.9912108411"><ele>106.456</ele><time>2026-04-25T15:46:46.000Z</time><hdop>8.375</hdop><vdop>8.375</vdop><extensions><gom:speed>1.857</gom:speed></extensions></trkpt>
   <trkpt lat="59.0929514051" lon="29.9911783193"><ele>106.722</ele><time>2026-04-25T15:46:47.000Z</time><hdop>8.875</hdop><vdop>8.875</vdop><extensions><gom:speed>1.746</gom:speed></extensions></trkpt>
   <trkpt lat="59.0929478847" lon="29.9911438696"><ele>106.751</ele><time>2026-04-25T15:46:48.000Z</time><hdop>10.125</hdop><vdop>10.125</vdop><extensions><gom:speed>1.82</gom:speed></extensions></trkpt>
   <trkpt lat="59.0929478847" lon="29.9911438696"><ele>106.769</ele><time>2026-04-25T15:46:48.000Z</time><hdop>10.125</hdop><vdop>10.125</vdop><extensions><gom:speed>1.82</gom:speed></extensions></trkpt>
   <trkpt lat="59.0929373654" lon="29.9911176343"><ele>106.778</ele><time>2026-04-25T15:46:49.000Z</time><hdop>10.562</hdop><vdop>10.562</vdop><extensions><gom:speed>1.539</gom:speed></extensions></trkpt>
   <trkpt lat="59.0929226551" lon="29.9911102582"><ele>106.789</ele><time>2026-04-25T15:46:50.000Z</time><hdop>9.75</hdop><vdop>9.75</vdop><extensions><gom:speed>1.668</gom:speed></extensions></trkpt>
   <trkpt lat="59.0929809932" lon="29.9909266107"><ele>104.135</ele><time>2026-04-25T15:46:51.000Z</time><hdop>9.937</hdop><vdop>9.937</vdop><extensions><gom:speed>1.611</gom:speed></extensions></trkpt>
   <trkpt lat="59.0929732399" lon="29.9909021356"><ele>102.662</ele><time>2026-04-25T15:46:52.000Z</time><hdop>9.687</hdop><vdop>9.687</vdop><extensions><gom:speed>1.738</gom:speed></extensions></trkpt>
   <trkpt lat="59.0929716893" lon="29.990873218"><ele>101.785</ele><time>2026-04-25T15:46:53.000Z</time><hdop>8.75</hdop><vdop>8.75</vdop><extensions><gom:speed>1.893</gom:speed></extensions></trkpt>
   <trkpt lat="59.092976425" lon="29.9908511736"><ele>99.667</ele><time>2026-04-25T15:46:54.000Z</time><hdop>3.187</hdop><vdop>3.187</vdop><extensions><gom:speed>2.251</gom:speed></extensions></trkpt>
   <trkpt lat="59.0929820828" lon="29.9907983676"><ele>98.361</ele><time>2026-04-25T15:46:55.000Z</time><hdop>3.187</hdop><vdop>3.187</vdop><extensions><gom:speed>2.268</gom:speed></extensions></trkpt>
   <trkpt lat="59.0929835497" lon="29.9907280434"><ele>97.549</ele><time>2026-04-25T15:46:56.000Z</time><hdop>3.187</hdop><vdop>3.187</vdop><extensions><gom:speed>2.202</gom:speed></extensions></trkpt>
   <trkpt lat="59.0929787301" lon="29.9906549532"><ele>96.998</ele><time>2026-04-25T15:46:57.000Z</time><hdop>3.125</hdop><vdop>3.125</vdop><extensions><gom:speed>2.087</gom:speed></extensions></trkpt>
   <trkpt lat="59.0929699291" lon="29.990596699"><ele>96.623</ele><time>2026-04-25T15:46:58.000Z</time><hdop>3.187</hdop><vdop>3.187</vdop><extensions><gom:speed>1.988</gom:speed></extensions></trkpt>
   <trkpt lat="59.092961631" lon="29.9905582261"><ele>96.356</ele><time>2026-04-25T15:46:59.000Z</time><hdop>3.25</hdop><vdop>3.25</vdop><extensions><gom:speed>2.113</gom:speed></extensions></trkpt>
   <trkpt lat="59.09295283" lon="29.9905196693"><ele>96.229</ele><time>2026-04-25T15:47:00.000Z</time><hdop>3.0</hdop><vdop>3.0</vdop><extensions><gom:speed>2.183</gom:speed></extensions></trkpt>
   <trkpt lat="59.092944951" lon="29.9904848844"><ele>96.116</ele><time>2026-04-25T15:47:01.000Z</time><hdop>3.125</hdop><vdop>3.125</vdop><extensions><gom:speed>2.093</gom:speed></extensions></trkpt>
   <trkpt lat="59.0929384131" lon="29.9904450704"><ele>96.023</ele><time>2026-04-25T15:47:02.000Z</time><hdop>3.062</hdop><vdop>3.062</vdop><extensions><gom:speed>2.032</gom:speed></extensions></trkpt>
   <trkpt lat="59.0929323781" lon="29.9904076033"><ele>95.95</ele><time>2026-04-25T15:47:03.000Z</time><hdop>3.062</hdop><vdop>3.062</vdop><extensions><gom:speed>1.988</gom:speed></extensions></trkpt>
   <trkpt lat="59.0929259241" lon="29.9903741595"><ele>95.873</ele><time>2026-04-25T15:47:04.000Z</time><hdop>3.062</hdop><vdop>3.062</vdop><extensions><gom:speed>2.028</gom:speed></extensions></trkpt>
   <trkpt lat="59.0929201825" lon="29.9903371953"><ele>95.774</ele><time>2026-04-25T15:47:05.000Z</time><hdop>3.125</hdop><vdop>3.125</vdop><extensions><gom:speed>2.077</gom:speed></extensions></trkpt>
   <trkpt lat="59.0929143151" lon="29.9903037515"><ele>95.718</ele><time>2026-04-25T15:47:06.000Z</time><hdop>3.0</hdop><vdop>3.0</vdop><extensions><gom:speed>1.935</gom:speed></extensions></trkpt>
   <trkpt lat="59.092909286" lon="29.9902678769"><ele>95.648</ele><time>2026-04-25T15:47:07.000Z</time><hdop>3.0</hdop><vdop>3.0</vdop><extensions><gom:speed>1.806</gom:speed></extensions></trkpt>
   <trkpt lat="59.092904634" lon="29.990240049"><ele>95.672</ele><time>2026-04-25T15:47:08.000Z</time><hdop>3.062</hdop><vdop>3.062</vdop><extensions><gom:speed>1.736</gom:speed></extensions></trkpt>
   <trkpt lat="59.092904634" lon="29.990240049"><ele>95.687</ele><time>2026-04-25T15:47:08.000Z</time><hdop>3.062</hdop><vdop>3.062</vdop><extensions><gom:speed>1.736</gom:speed></extensions></trkpt>
   <trkpt lat="59.0928985991" lon="29.9902056832"><ele>95.655</ele><time>2026-04-25T15:47:09.000Z</time><hdop>3.125</hdop><vdop>3.125</vdop><extensions><gom:speed>1.81</gom:speed></extensions></trkpt>
   <trkpt lat="59.0928906782" lon="29.9901787773"><ele>95.704</ele><time>2026-04-25T15:47:10.000Z</time><hdop>3.0</hdop><vdop>3.0</vdop><extensions><gom:speed>1.729</gom:speed></extensions></trkpt>
   <trkpt lat="59.0928837212" lon="29.9901515361"><ele>95.82</ele><time>2026-04-25T15:47:11.000Z</time><hdop>3.0</hdop><vdop>3.0</vdop><extensions><gom:speed>1.65</gom:speed></extensions></trkpt>
   <trkpt lat="59.0928786082" lon="29.9901189305"><ele>95.935</ele><time>2026-04-25T15:47:12.000Z</time><hdop>3.0</hdop><vdop>3.0</vdop><extensions><gom:speed>1.845</gom:speed></extensions></trkpt>
   <trkpt lat="59.0928748364" lon="29.9900859058"><ele>96.022</ele><time>2026-04-25T15:47:13.000Z</time><hdop>3.0</hdop><vdop>3.0</vdop><extensions><gom:speed>1.772</gom:speed></extensions></trkpt>
   <trkpt lat="59.0928713579" lon="29.9900534679"><ele>96.062</ele><time>2026-04-25T15:47:14.000Z</time><hdop>3.0</hdop><vdop>3.0</vdop><extensions><gom:speed>1.695</gom:speed></extensions></trkpt>
   <trkpt lat="59.0928677118" lon="29.9900231254"><ele>96.045</ele><time>2026-04-25T15:47:15.000Z</time><hdop>3.0</hdop><vdop>3.0</vdop><extensions><gom:speed>1.668</gom:speed></extensions></trkpt>
   <trkpt lat="59.092861132" lon="29.9899923638"><ele>95.993</ele><time>2026-04-25T15:47:16.000Z</time><hdop>3.0</hdop><vdop>3.0</vdop><extensions><gom:speed>1.781</gom:speed></extensions></trkpt>
   <trkpt lat="59.0928549294" lon="29.9899591715"><ele>95.886</ele><time>2026-04-25T15:47:17.000Z</time><hdop>3.0</hdop><vdop>3.0</vdop><extensions><gom:speed>1.936</gom:speed></extensions></trkpt>
   <trkpt lat="59.0928475533" lon="29.9899251409"><ele>95.772</ele><time>2026-04-25T15:47:18.000Z</time><hdop>3.0</hdop><vdop>3.0</vdop><extensions><gom:speed>1.98</gom:speed></extensions></trkpt>
   <trkpt lat="59.0928411411" lon="29.9898901884"><ele>95.653</ele><time>2026-04-25T15:47:19.000Z</time><hdop>3.0</hdop><vdop>3.0</vdop><extensions><gom:speed>2.064</gom:speed></extensions></trkpt>
   <trkpt lat="59.0928339327" lon="29.9898546491"><ele>95.568</ele><time>2026-04-25T15:47:20.000Z</time><hdop>3.0</hdop><vdop>3.0</vdop><extensions><gom:speed>2.078</gom:speed></extensions></trkpt>
   <trkpt lat="59.0928267243" lon="29.989820451"><ele>95.49</ele><time>2026-04-25T15:47:21.000Z</time><hdop>3.0</hdop><vdop>3.0</vdop><extensions><gom:speed>2.003</gom:speed></extensions></trkpt>
   <trkpt lat="59.0928178394" lon="29.9897896056"><ele>95.452</ele><time>2026-04-25T15:47:22.000Z</time><hdop>3.0</hdop><vdop>3.0</vdop><extensions><gom:speed>1.989</gom:speed></extensions></trkpt>
   <trkpt lat="59.0928094994" lon="29.9897556588"><ele>95.397</ele><time>2026-04-25T15:47:23.000Z</time><hdop>3.0</hdop><vdop>3.0</vdop><extensions><gom:speed>1.969</gom:speed></extensions></trkpt>
   <trkpt lat="59.0928016205" lon="29.9897241429"><ele>95.343</ele><time>2026-04-25T15:47:24.000Z</time><hdop>3.0</hdop><vdop>3.0</vdop><extensions><gom:speed>1.878</gom:speed></extensions></trkpt>
   <trkpt lat="59.0927941187" lon="29.989688436"><ele>95.28</ele><time>2026-04-25T15:47:25.000Z</time><hdop>3.0</hdop><vdop>3.0</vdop><extensions><gom:speed>2.055</gom:speed></extensions></trkpt>
   <trkpt lat="59.0927887123" lon="29.9896500469"><ele>95.203</ele><time>2026-04-25T15:47:26.000Z</time><hdop>3.0</hdop><vdop>3.0</vdop><extensions><gom:speed>2.129</gom:speed></extensions></trkpt>
   <trkpt lat="59.092783306" lon="29.9896088917"><ele>95.14</ele><time>2026-04-25T15:47:27.000Z</time><hdop>3.0</hdop><vdop>3.0</vdop><extensions><gom:speed>2.138</gom:speed></extensions></trkpt>
   <trkpt lat="59.0927759718" lon="29.9895706702"><ele>95.1</ele><time>2026-04-25T15:47:28.000Z</time><hdop>3.0</hdop><vdop>3.0</vdop><extensions><gom:speed>2.064</gom:speed></extensions></trkpt>
   <trkpt lat="59.0927759718" lon="29.9895706702"><ele>95.076</ele><time>2026-04-25T15:47:28.000Z</time><hdop>3.0</hdop><vdop>3.0</vdop><extensions><gom:speed>2.064</gom:speed></extensions></trkpt>
   <trkpt lat="59.0927685538" lon="29.9895335384"><ele>95.094</ele><time>2026-04-25T15:47:29.000Z</time><hdop>3.0</hdop><vdop>3.0</vdop><extensions><gom:speed>1.939</gom:speed></extensions></trkpt>
   <trkpt lat="59.0927585794" lon="29.9895022739"><ele>95.114</ele><time>2026-04-25T15:47:30.000Z</time><hdop>3.0</hdop><vdop>3.0</vdop><extensions><gom:speed>1.702</gom:speed></extensions></trkpt>
   <trkpt lat="59.0927495688" lon="29.9894759547"><ele>95.162</ele><time>2026-04-25T15:47:31.000Z</time><hdop>3.0</hdop><vdop>3.0</vdop><extensions><gom:speed>1.785</gom:speed></extensions></trkpt>
   <trkpt lat="59.0927396782" lon="29.9894496356"><ele>95.234</ele><time>2026-04-25T15:47:32.000Z</time><hdop>3.0</hdop><vdop>3.0</vdop><extensions><gom:speed>1.808</gom:speed></extensions></trkpt>
   <trkpt lat="59.0927307515" lon="29.9894204665"><ele>95.303</ele><time>2026-04-25T15:47:33.000Z</time><hdop>3.0</hdop><vdop>3.0</vdop><extensions><gom:speed>1.907</gom:speed></extensions></trkpt>
   <trkpt lat="59.0927266862" lon="29.9893887829"><ele>95.403</ele><time>2026-04-25T15:47:34.000Z</time><hdop>3.0</hdop><vdop>3.0</vdop><extensions><gom:speed>1.954</gom:speed></extensions></trkpt>
   <trkpt lat="59.0927257642" lon="29.9893516511"><ele>95.476</ele><time>2026-04-25T15:47:35.000Z</time><hdop>3.0</hdop><vdop>3.0</vdop><extensions><gom:speed>2.146</gom:speed></extensions></trkpt>
   <trkpt lat="59.0927247584" lon="29.9893122562"><ele>95.514</ele><time>2026-04-25T15:47:36.000Z</time><hdop>3.0</hdop><vdop>3.0</vdop><extensions><gom:speed>2.182</gom:speed></extensions></trkpt>
   <trkpt lat="59.0927219505" lon="29.9892750405"><ele>95.531</ele><time>2026-04-25T15:47:37.000Z</time><hdop>3.0</hdop><vdop>3.0</vdop><extensions><gom:speed>2.157</gom:speed></extensions></trkpt>
   <trkpt lat="59.0927178852" lon="29.9892359808"><ele>95.523</ele><time>2026-04-25T15:47:38.000Z</time><hdop>3.0</hdop><vdop>3.0</vdop><extensions><gom:speed>2.036</gom:speed></extensions></trkpt>
   <trkpt lat="59.0927150354" lon="29.9892001901"><ele>95.492</ele><time>2026-04-25T15:47:39.000Z</time><hdop>3.0</hdop><vdop>3.0</vdop><extensions><gom:speed>1.935</gom:speed></extensions></trkpt>
   <trkpt lat="59.0927103834" lon="29.9891656567"><ele>95.409</ele><time>2026-04-25T15:47:40.000Z</time><hdop>3.0</hdop><vdop>3.0</vdop><extensions><gom:speed>1.81</gom:speed></extensions></trkpt>
   <trkpt lat="59.0927047257" lon="29.9891306203"><ele>95.334</ele><time>2026-04-25T15:47:41.000Z</time><hdop>3.0</hdop><vdop>3.0</vdop><extensions><gom:speed>1.823</gom:speed></extensions></trkpt>
   <trkpt lat="59.0926973915" lon="29.9890958354"><ele>95.269</ele><time>2026-04-25T15:47:42.000Z</time><hdop>3.0</hdop><vdop>3.0</vdop><extensions><gom:speed>1.894</gom:speed></extensions></trkpt>
   <trkpt lat="59.0926903088" lon="29.9890595418"><ele>95.132</ele><time>2026-04-25T15:47:43.000Z</time><hdop>3.0</hdop><vdop>3.0</vdop><extensions><gom:speed>2.064</gom:speed></extensions></trkpt>
   <trkpt lat="59.0926827232" lon="29.989024254"><ele>95.023</ele><time>2026-04-25T15:47:44.000Z</time><hdop>3.0</hdop><vdop>3.0</vdop><extensions><gom:speed>2.239</gom:speed></extensions></trkpt>
   <trkpt lat="59.0926766044" lon="29.988987206"><ele>94.964</ele><time>2026-04-25T15:47:45.000Z</time><hdop>3.0</hdop><vdop>3.0</vdop><extensions><gom:speed>2.197</gom:speed></extensions></trkpt>
   <trkpt lat="59.0926670071" lon="29.9889489007"><ele>94.921</ele><time>2026-04-25T15:47:46.000Z</time><hdop>3.0</hdop><vdop>3.0</vdop><extensions><gom:speed>2.1</gom:speed></extensions></trkpt>
   <trkpt lat="59.0926594215" lon="29.9889141158"><ele>94.869</ele><time>2026-04-25T15:47:47.000Z</time><hdop>3.0</hdop><vdop>3.0</vdop><extensions><gom:speed>2.14</gom:speed></extensions></trkpt>
   <trkpt lat="59.0926496566" lon="29.9888811749"><ele>94.813</ele><time>2026-04-25T15:47:48.000Z</time><hdop>3.0</hdop><vdop>3.0</vdop><extensions><gom:speed>2.168</gom:speed></extensions></trkpt>
   <trkpt lat="59.0926496566" lon="29.9888811749"><ele>94.779</ele><time>2026-04-25T15:47:48.000Z</time><hdop>3.0</hdop><vdop>3.0</vdop><extensions><gom:speed>2.168</gom:speed></extensions></trkpt>
   <trkpt lat="59.0926416937" lon="29.9888479826"><ele>94.758</ele><time>2026-04-25T15:47:49.000Z</time><hdop>3.0</hdop><vdop>3.0</vdop><extensions><gom:speed>2.098</gom:speed></extensions></trkpt>
   <trkpt lat="59.0926348206" lon="29.9888120242"><ele>94.708</ele><time>2026-04-25T15:47:50.000Z</time><hdop>3.0</hdop><vdop>3.0</vdop><extensions><gom:speed>2.097</gom:speed></extensions></trkpt>
   <trkpt lat="59.0926297076" lon="29.9887771555"><ele>94.647</ele><time>2026-04-25T15:47:51.000Z</time><hdop>3.0</hdop><vdop>3.0</vdop><extensions><gom:speed>1.825</gom:speed></extensions></trkpt>
   <trkpt lat="59.0926247204" lon="29.9887494952"><ele>94.573</ele><time>2026-04-25T15:47:52.000Z</time><hdop>3.0</hdop><vdop>3.0</vdop><extensions><gom:speed>1.444</gom:speed></extensions></trkpt>
   <trkpt lat="59.0926216191" lon="29.9887235951"><ele>94.447</ele><time>2026-04-25T15:47:53.000Z</time><hdop>3.0</hdop><vdop>3.0</vdop><extensions><gom:speed>1.086</gom:speed></extensions></trkpt>
   <trkpt lat="59.0926208647" lon="29.9887057417"><ele>94.317</ele><time>2026-04-25T15:47:54.000Z</time><hdop>3.0</hdop><vdop>3.0</vdop><extensions><gom:speed>0.827</gom:speed></extensions></trkpt>
   <trkpt lat="59.0926208647" lon="29.9887057417"><ele>94.239</ele><time>2026-04-25T15:47:55.000Z</time><hdop>3.0</hdop><vdop>3.0</vdop><extensions><gom:speed>0.0</gom:speed></extensions></trkpt>
   <trkpt lat="59.0926208647" lon="29.9887057417"><ele>94.192</ele><time>2026-04-25T15:47:56.000Z</time><hdop>3.0</hdop><vdop>3.0</vdop><extensions><gom:speed>0.0</gom:speed></extensions></trkpt>
   <trkpt lat="59.0926208647" lon="29.9887057417"><ele>94.164</ele><time>2026-04-25T15:47:57.000Z</time><hdop>3.0</hdop><vdop>3.0</vdop><extensions><gom:speed>0.0</gom:speed></extensions></trkpt>
   <trkpt lat="59.0926208647" lon="29.9887057417"><ele>94.148</ele><time>2026-04-25T15:47:58.000Z</time><hdop>3.0</hdop><vdop>3.0</vdop><extensions><gom:speed>0.0</gom:speed></extensions></trkpt>
   <trkpt lat="59.0926208647" lon="29.9887057417"><ele>94.138</ele><time>2026-04-25T15:47:59.000Z</time><hdop>3.0</hdop><vdop>3.0</vdop><extensions><gom:speed>0.0</gom:speed></extensions></trkpt>
   <trkpt lat="59.0926206552" lon="29.9887025565"><ele>94.049</ele><time>2026-04-25T15:48:00.000Z</time><hdop>3.0</hdop><vdop>3.0</vdop><extensions><gom:speed>0.177</gom:speed></extensions></trkpt>
   <trkpt lat="59.0926176377" lon="29.9886896484"><ele>93.949</ele><time>2026-04-25T15:48:01.000Z</time><hdop>3.0</hdop><vdop>3.0</vdop><extensions><gom:speed>0.391</gom:speed></extensions></trkpt>
   <trkpt lat="59.0926095491" lon="29.9886603117"><ele>93.866</ele><time>2026-04-25T15:48:02.000Z</time><hdop>3.0</hdop><vdop>3.0</vdop><extensions><gom:speed>1.055</gom:speed></extensions></trkpt>
   <trkpt lat="59.0926010834" lon="29.9886260298"><ele>93.805</ele><time>2026-04-25T15:48:03.000Z</time><hdop>3.0</hdop><vdop>3.0</vdop><extensions><gom:speed>2.098</gom:speed></extensions></trkpt>
   <trkpt lat="59.0925913604" lon="29.9885770794"><ele>93.766</ele><time>2026-04-25T15:48:04.000Z</time><hdop>3.0</hdop><vdop>3.0</vdop><extensions><gom:speed>2.626</gom:speed></extensions></trkpt>
   <trkpt lat="59.0925814698" lon="29.9885184061"><ele>93.74</ele><time>2026-04-25T15:48:05.000Z</time><hdop>3.0</hdop><vdop>3.0</vdop><extensions><gom:speed>2.856</gom:speed></extensions></trkpt>
   <trkpt lat="59.0925718725" lon="29.9884569668"><ele>93.718</ele><time>2026-04-25T15:48:06.000Z</time><hdop>3.0</hdop><vdop>3.0</vdop><extensions><gom:speed>2.992</gom:speed></extensions></trkpt>
   <trkpt lat="59.0925636163" lon="29.988402652"><ele>93.734</ele><time>2026-04-25T15:48:07.000Z</time><hdop>3.0</hdop><vdop>3.0</vdop><extensions><gom:speed>2.963</gom:speed></extensions></trkpt>
   <trkpt lat="59.0925539352" lon="29.9883474153"><ele>93.728</ele><time>2026-04-25T15:48:08.000Z</time><hdop>3.0</hdop><vdop>3.0</vdop><extensions><gom:speed>3.11</gom:speed></extensions></trkpt>
   <trkpt lat="59.0925539352" lon="29.9883474153"><ele>93.724</ele><time>2026-04-25T15:48:08.000Z</time><hdop>3.0</hdop><vdop>3.0</vdop><extensions><gom:speed>3.11</gom:speed></extensions></trkpt>
   <trkpt lat="59.0925426616" lon="29.9882927653"><ele>93.717</ele><time>2026-04-25T15:48:09.000Z</time><hdop>3.0</hdop><vdop>3.0</vdop><extensions><gom:speed>3.182</gom:speed></extensions></trkpt>
   <trkpt lat="59.0925326871" lon="29.9882392049"><ele>93.727</ele><time>2026-04-25T15:48:10.000Z</time><hdop>3.0</hdop><vdop>3.0</vdop><extensions><gom:speed>3.147</gom:speed></extensions></trkpt>
   <trkpt lat="59.0925233832" lon="29.9881813698"><ele>93.739</ele><time>2026-04-25T15:48:11.000Z</time><hdop>3.0</hdop><vdop>3.0</vdop><extensions><gom:speed>3.122</gom:speed></extensions></trkpt>
   <trkpt lat="59.0925160071" lon="29.9881252949"><ele>93.738</ele><time>2026-04-25T15:48:12.000Z</time><hdop>3.0</hdop><vdop>3.0</vdop><extensions><gom:speed>3.07</gom:speed></extensions></trkpt>
   <trkpt lat="59.092509092" lon="29.9880708125"><ele>93.756</ele><time>2026-04-25T15:48:13.000Z</time><hdop>3.0</hdop><vdop>3.0</vdop><extensions><gom:speed>3.217</gom:speed></extensions></trkpt>
   <trkpt lat="59.0925009616" lon="29.9880141508"><ele>93.785</ele><time>2026-04-25T15:48:14.000Z</time><hdop>3.0</hdop><vdop>3.0</vdop><extensions><gom:speed>3.288</gom:speed></extensions></trkpt>
   <trkpt lat="59.0924942561" lon="29.9879574053"><ele>93.803</ele><time>2026-04-25T15:48:15.000Z</time><hdop>3.0</hdop><vdop>3.0</vdop><extensions><gom:speed>3.183</gom:speed></extensions></trkpt>
   <trkpt lat="59.0924876763" lon="29.9878999893"><ele>93.853</ele><time>2026-04-25T15:48:16.000Z</time><hdop>3.0</hdop><vdop>3.0</vdop><extensions><gom:speed>3.034</gom:speed></extensions></trkpt>
   <trkpt lat="59.0924797554" lon="29.9878437467"><ele>93.902</ele><time>2026-04-25T15:48:17.000Z</time><hdop>3.0</hdop><vdop>3.0</vdop><extensions><gom:speed>3.142</gom:speed></extensions></trkpt>
   <trkpt lat="59.0924716668" lon="29.9877870851"><ele>93.961</ele><time>2026-04-25T15:48:18.000Z</time><hdop>3.0</hdop><vdop>3.0</vdop><extensions><gom:speed>3.314</gom:speed></extensions></trkpt>
   <trkpt lat="59.0924635783" lon="29.9877317645"><ele>94.023</ele><time>2026-04-25T15:48:19.000Z</time><hdop>3.0</hdop><vdop>3.0</vdop><extensions><gom:speed>3.305</gom:speed></extensions></trkpt>
   <trkpt lat="59.0924538134" lon="29.9876755219"><ele>94.052</ele><time>2026-04-25T15:48:20.000Z</time><hdop>3.0</hdop><vdop>3.0</vdop><extensions><gom:speed>3.198</gom:speed></extensions></trkpt>
   <trkpt lat="59.0924426235" lon="29.9876196985"><ele>94.06</ele><time>2026-04-25T15:48:21.000Z</time><hdop>3.0</hdop><vdop>3.0</vdop><extensions><gom:speed>3.172</gom:speed></extensions></trkpt>
   <trkpt lat="59.0924311403" lon="29.9875647132"><ele>94.043</ele><time>2026-04-25T15:48:22.000Z</time><hdop>3.0</hdop><vdop>3.0</vdop><extensions><gom:speed>3.296</gom:speed></extensions></trkpt>
   <trkpt lat="59.0924191542" lon="29.9875076324"><ele>94.021</ele><time>2026-04-25T15:48:23.000Z</time><hdop>3.0</hdop><vdop>3.0</vdop><extensions><gom:speed>3.461</gom:speed></extensions></trkpt>
   <trkpt lat="59.0924075034" lon="29.9874482885"><ele>94.028</ele><time>2026-04-25T15:48:24.000Z</time><hdop>3.0</hdop><vdop>3.0</vdop><extensions><gom:speed>3.501</gom:speed></extensions></trkpt>
   <trkpt lat="59.0923981575" lon="29.9873886932"><ele>94.044</ele><time>2026-04-25T15:48:25.000Z</time><hdop>3.0</hdop><vdop>3.0</vdop><extensions><gom:speed>3.385</gom:speed></extensions></trkpt>
   <trkpt lat="59.0923890632" lon="29.9873303552"><ele>94.085</ele><time>2026-04-25T15:48:26.000Z</time><hdop>3.0</hdop><vdop>3.0</vdop><extensions><gom:speed>3.338</gom:speed></extensions></trkpt>
   <trkpt lat="59.0923796755" lon="29.9872710951"><ele>94.152</ele><time>2026-04-25T15:48:27.000Z</time><hdop>3.0</hdop><vdop>3.0</vdop><extensions><gom:speed>3.343</gom:speed></extensions></trkpt>
   <trkpt lat="59.0923697848" lon="29.9872136791"><ele>94.232</ele><time>2026-04-25T15:48:28.000Z</time><hdop>3.0</hdop><vdop>3.0</vdop><extensions><gom:speed>3.502</gom:speed></extensions></trkpt>
   <trkpt lat="59.0923569605" lon="29.9871564307"><ele>94.256</ele><time>2026-04-25T15:48:29.000Z</time><hdop>3.0</hdop><vdop>3.0</vdop><extensions><gom:speed>3.396</gom:speed></extensions></trkpt>
   <trkpt lat="59.0923425855" lon="29.9870965001"><ele>94.238</ele><time>2026-04-25T15:48:30.000Z</time><hdop>3.0</hdop><vdop>3.0</vdop><extensions><gom:speed>3.544</gom:speed></extensions></trkpt>
   <trkpt lat="59.0923295517" lon="29.9870358151"><ele>94.161</ele><time>2026-04-25T15:48:31.000Z</time><hdop>3.0</hdop><vdop>3.0</vdop><extensions><gom:speed>3.453</gom:speed></extensions></trkpt>
   <trkpt lat="59.0923191162" lon="29.9869764712"><ele>94.044</ele><time>2026-04-25T15:48:32.000Z</time><hdop>3.0</hdop><vdop>3.0</vdop><extensions><gom:speed>3.559</gom:speed></extensions></trkpt>
   <trkpt lat="59.0923105247" lon="29.9869167921"><ele>93.906</ele><time>2026-04-25T15:48:33.000Z</time><hdop>3.0</hdop><vdop>3.0</vdop><extensions><gom:speed>3.428</gom:speed></extensions></trkpt>
   <trkpt lat="59.0923038611" lon="29.9868559394"><ele>93.792</ele><time>2026-04-25T15:48:34.000Z</time><hdop>3.0</hdop><vdop>3.0</vdop><extensions><gom:speed>3.361</gom:speed></extensions></trkpt>
   <trkpt lat="59.0922967784" lon="29.986795925"><ele>93.695</ele><time>2026-04-25T15:48:35.000Z</time><hdop>3.0</hdop><vdop>3.0</vdop><extensions><gom:speed>3.401</gom:speed></extensions></trkpt>
   <trkpt lat="59.092290031" lon="29.9867384252"><ele>93.612</ele><time>2026-04-25T15:48:36.000Z</time><hdop>3.0</hdop><vdop>3.0</vdop><extensions><gom:speed>3.384</gom:speed></extensions></trkpt>
   <trkpt lat="59.0922807271" lon="29.9866814282"><ele>93.568</ele><time>2026-04-25T15:48:37.000Z</time><hdop>3.0</hdop><vdop>3.0</vdop><extensions><gom:speed>3.454</gom:speed></extensions></trkpt>
   <trkpt lat="59.0922689505" lon="29.9866235093"><ele>93.524</ele><time>2026-04-25T15:48:38.000Z</time><hdop>3.0</hdop><vdop>3.0</vdop><extensions><gom:speed>3.495</gom:speed></extensions></trkpt>
   <trkpt lat="59.0922563357" lon="29.9865674343"><ele>93.426</ele><time>2026-04-25T15:48:39.000Z</time><hdop>3.0</hdop><vdop>3.0</vdop><extensions><gom:speed>3.409</gom:speed></extensions></trkpt>
   <trkpt lat="59.0922454393" lon="29.9865090125"><ele>93.326</ele><time>2026-04-25T15:48:40.000Z</time><hdop>3.0</hdop><vdop>3.0</vdop><extensions><gom:speed>3.41</gom:speed></extensions></trkpt>
   <trkpt lat="59.0922389014" lon="29.9864498362"><ele>93.222</ele><time>2026-04-25T15:48:41.000Z</time><hdop>3.0</hdop><vdop>3.0</vdop><extensions><gom:speed>3.407</gom:speed></extensions></trkpt>
   <trkpt lat="59.0922334951" lon="29.9863910791"><ele>93.084</ele><time>2026-04-25T15:48:42.000Z</time><hdop>3.0</hdop><vdop>3.0</vdop><extensions><gom:speed>3.268</gom:speed></extensions></trkpt>
   <trkpt lat="59.0922304776" lon="29.9863364291"><ele>92.894</ele><time>2026-04-25T15:48:43.000Z</time><hdop>3.0</hdop><vdop>3.0</vdop><extensions><gom:speed>3.154</gom:speed></extensions></trkpt>
   <trkpt lat="59.0922262028" lon="29.9862842098"><ele>92.74</ele><time>2026-04-25T15:48:44.000Z</time><hdop>3.0</hdop><vdop>3.0</vdop><extensions><gom:speed>3.068</gom:speed></extensions></trkpt>
   <trkpt lat="59.0922236463" lon="29.9862291407"><ele>92.666</ele><time>2026-04-25T15:48:45.000Z</time><hdop>3.0</hdop><vdop>3.0</vdop><extensions><gom:speed>3.114</gom:speed></extensions></trkpt>
   <trkpt lat="59.0922214251" lon="29.9861752451"><ele>92.662</ele><time>2026-04-25T15:48:46.000Z</time><hdop>3.0</hdop><vdop>3.0</vdop><extensions><gom:speed>3.097</gom:speed></extensions></trkpt>
   <trkpt lat="59.0922203774" lon="29.9861195892"><ele>92.6</ele><time>2026-04-25T15:48:47.000Z</time><hdop>3.0</hdop><vdop>3.0</vdop><extensions><gom:speed>3.217</gom:speed></extensions></trkpt>
   <trkpt lat="59.0922202097" lon="29.9860645201"><ele>92.49</ele><time>2026-04-25T15:48:48.000Z</time><hdop>3.0</hdop><vdop>3.0</vdop><extensions><gom:speed>3.244</gom:speed></extensions></trkpt>
   <trkpt lat="59.0922202097" lon="29.9860645201"><ele>92.424</ele><time>2026-04-25T15:48:48.000Z</time><hdop>3.0</hdop><vdop>3.0</vdop><extensions><gom:speed>3.244</gom:speed></extensions></trkpt>
   <trkpt lat="59.092219162" lon="29.9860078585"><ele>92.301</ele><time>2026-04-25T15:48:49.000Z</time><hdop>3.0</hdop><vdop>3.0</vdop><extensions><gom:speed>3.04</gom:speed></extensions></trkpt>
   <trkpt lat="59.0922180304" lon="29.985953879"><ele>92.248</ele><time>2026-04-25T15:48:50.000Z</time><hdop>3.0</hdop><vdop>3.0</vdop><extensions><gom:speed>2.956</gom:speed></extensions></trkpt>
   <trkpt lat="59.0922146358" lon="29.9859008216"><ele>92.172</ele><time>2026-04-25T15:48:51.000Z</time><hdop>3.0</hdop><vdop>3.0</vdop><extensions><gom:speed>3.053</gom:speed></extensions></trkpt>
   <trkpt lat="59.0922118278" lon="29.9858496081"><ele>92.091</ele><time>2026-04-25T15:48:52.000Z</time><hdop>3.0</hdop><vdop>3.0</vdop><extensions><gom:speed>2.899</gom:speed></extensions></trkpt>
   <trkpt lat="59.0922113249" lon="29.9858021666"><ele>91.995</ele><time>2026-04-25T15:48:53.000Z</time><hdop>3.0</hdop><vdop>3.0</vdop><extensions><gom:speed>2.829</gom:speed></extensions></trkpt>
   <trkpt lat="59.0922127079" lon="29.9857538868"><ele>91.891</ele><time>2026-04-25T15:48:54.000Z</time><hdop>3.0</hdop><vdop>3.0</vdop><extensions><gom:speed>2.985</gom:speed></extensions></trkpt>
   <trkpt lat="59.0922163122" lon="29.9857029248"><ele>91.799</ele><time>2026-04-25T15:48:55.000Z</time><hdop>3.0</hdop><vdop>3.0</vdop><extensions><gom:speed>3.08</gom:speed></extensions></trkpt>
   <trkpt lat="59.0922218861" lon="29.9856532202"><ele>91.7</ele><time>2026-04-25T15:48:56.000Z</time><hdop>3.0</hdop><vdop>3.0</vdop><extensions><gom:speed>2.965</gom:speed></extensions></trkpt>
   <trkpt lat="59.0922291365" lon="29.9856056948"><ele>91.607</ele><time>2026-04-25T15:48:57.000Z</time><hdop>3.0</hdop><vdop>3.0</vdop><extensions><gom:speed>2.835</gom:speed></extensions></trkpt>
   <trkpt lat="59.0922382727" lon="29.985559259"><ele>91.549</ele><time>2026-04-25T15:48:58.000Z</time><hdop>3.0</hdop><vdop>3.0</vdop><extensions><gom:speed>2.776</gom:speed></extensions></trkpt>
   <trkpt lat="59.092246487" lon="29.9855119851"><ele>91.519</ele><time>2026-04-25T15:48:59.000Z</time><hdop>3.0</hdop><vdop>3.0</vdop><extensions><gom:speed>2.76</gom:speed></extensions></trkpt>
   <trkpt lat="59.0922526477" lon="29.9854668066"><ele>91.428</ele><time>2026-04-25T15:49:00.000Z</time><hdop>3.0</hdop><vdop>3.0</vdop><extensions><gom:speed>2.567</gom:speed></extensions></trkpt>
   <trkpt lat="59.0922572997" lon="29.985418443"><ele>91.303</ele><time>2026-04-25T15:49:01.000Z</time><hdop>3.0</hdop><vdop>3.0</vdop><extensions><gom:speed>2.713</gom:speed></extensions></trkpt>
   <trkpt lat="59.0922619935" lon="29.9853673134"><ele>91.219</ele><time>2026-04-25T15:49:02.000Z</time><hdop>3.0</hdop><vdop>3.0</vdop><extensions><gom:speed>2.884</gom:speed></extensions></trkpt>
   <trkpt lat="59.0922664778" lon="29.9853165191"><ele>91.156</ele><time>2026-04-25T15:49:03.000Z</time><hdop>3.0</hdop><vdop>3.0</vdop><extensions><gom:speed>2.88</gom:speed></extensions></trkpt>
   <trkpt lat="59.0922710041" lon="29.9852666468"><ele>91.114</ele><time>2026-04-25T15:49:04.000Z</time><hdop>3.0</hdop><vdop>3.0</vdop><extensions><gom:speed>2.838</gom:speed></extensions></trkpt>
   <trkpt lat="59.0922752788" lon="29.9852168583"><ele>91.114</ele><time>2026-04-25T15:49:05.000Z</time><hdop>3.0</hdop><vdop>3.0</vdop><extensions><gom:speed>2.885</gom:speed></extensions></trkpt>
   <trkpt lat="59.0922778353" lon="29.9851666507"><ele>91.148</ele><time>2026-04-25T15:49:06.000Z</time><hdop>3.0</hdop><vdop>3.0</vdop><extensions><gom:speed>2.911</gom:speed></extensions></trkpt>
   <trkpt lat="59.0922816072" lon="29.9851165269"><ele>91.186</ele><time>2026-04-25T15:49:07.000Z</time><hdop>3.0</hdop><vdop>3.0</vdop><extensions><gom:speed>2.878</gom:speed></extensions></trkpt>
   <trkpt lat="59.092288187" lon="29.9850714323"><ele>91.352</ele><time>2026-04-25T15:49:08.000Z</time><hdop>3.0</hdop><vdop>3.0</vdop><extensions><gom:speed>2.675</gom:speed></extensions></trkpt>
   <trkpt lat="59.092288187" lon="29.9850714323"><ele>91.451</ele><time>2026-04-25T15:49:08.000Z</time><hdop>3.0</hdop><vdop>3.0</vdop><extensions><gom:speed>2.675</gom:speed></extensions></trkpt>
   <trkpt lat="59.092295102" lon="29.985025248"><ele>91.546</ele><time>2026-04-25T15:49:09.000Z</time><hdop>3.0</hdop><vdop>3.0</vdop><extensions><gom:speed>2.715</gom:speed></extensions></trkpt>
   <trkpt lat="59.0923007598" lon="29.9849817459"><ele>91.578</ele><time>2026-04-25T15:49:10.000Z</time><hdop>3.0</hdop><vdop>3.0</vdop><extensions><gom:speed>2.363</gom:speed></extensions></trkpt>
   <trkpt lat="59.0923062919" lon="29.9849417642"><ele>91.581</ele><time>2026-04-25T15:49:11.000Z</time><hdop>3.0</hdop><vdop>3.0</vdop><extensions><gom:speed>2.278</gom:speed></extensions></trkpt>
   <trkpt lat="59.092310399" lon="29.9849030398"><ele>91.592</ele><time>2026-04-25T15:49:12.000Z</time><hdop>3.0</hdop><vdop>3.0</vdop><extensions><gom:speed>2.316</gom:speed></extensions></trkpt>
   <trkpt lat="59.092312746" lon="29.984860795"><ele>91.629</ele><time>2026-04-25T15:49:13.000Z</time><hdop>3.0</hdop><vdop>3.0</vdop><extensions><gom:speed>2.615</gom:speed></extensions></trkpt>
   <trkpt lat="59.0923153443" lon="29.9848151137"><ele>91.691</ele><time>2026-04-25T15:49:14.000Z</time><hdop>3.0</hdop><vdop>3.0</vdop><extensions><gom:speed>2.688</gom:speed></extensions></trkpt>
   <trkpt lat="59.0923179008" lon="29.9847643193"><ele>91.737</ele><time>2026-04-25T15:49:15.000Z</time><hdop>3.0</hdop><vdop>3.0</vdop><extensions><gom:speed>2.871</gom:speed></extensions></trkpt>
   <trkpt lat="59.0923192" lon="29.9847125192"><ele>91.753</ele><time>2026-04-25T15:49:16.000Z</time><hdop>3.0</hdop><vdop>3.0</vdop><extensions><gom:speed>2.997</gom:speed></extensions></trkpt>
   <trkpt lat="59.0923221756" lon="29.9846575339"><ele>91.752</ele><time>2026-04-25T15:49:17.000Z</time><hdop>3.0</hdop><vdop>3.0</vdop><extensions><gom:speed>3.006</gom:speed></extensions></trkpt>
   <trkpt lat="59.0923283782" lon="29.9846033868"><ele>91.747</ele><time>2026-04-25T15:49:18.000Z</time><hdop>3.0</hdop><vdop>3.0</vdop><extensions><gom:speed>3.024</gom:speed></extensions></trkpt>
   <trkpt lat="59.0923345389" lon="29.9845527601"><ele>91.711</ele><time>2026-04-25T15:49:19.000Z</time><hdop>3.0</hdop><vdop>3.0</vdop><extensions><gom:speed>2.876</gom:speed></extensions></trkpt>
   <trkpt lat="59.0923410349" lon="29.9845072464"><ele>91.766</ele><time>2026-04-25T15:49:20.000Z</time><hdop>3.0</hdop><vdop>3.0</vdop><extensions><gom:speed>2.643</gom:speed></extensions></trkpt>
   <trkpt lat="59.0923463574" lon="29.984462487"><ele>91.816</ele><time>2026-04-25T15:49:21.000Z</time><hdop>3.0</hdop><vdop>3.0</vdop><extensions><gom:speed>2.535</gom:speed></extensions></trkpt>
   <trkpt lat="59.0923490396" lon="29.9844199069"><ele>91.899</ele><time>2026-04-25T15:49:22.000Z</time><hdop>3.0</hdop><vdop>3.0</vdop><extensions><gom:speed>2.524</gom:speed></extensions></trkpt>
   <trkpt lat="59.0923497101" lon="29.9843770754"><ele>92.011</ele><time>2026-04-25T15:49:23.000Z</time><hdop>3.0</hdop><vdop>3.0</vdop><extensions><gom:speed>2.413</gom:speed></extensions></trkpt>
   <trkpt lat="59.092349333" lon="29.984336507"><ele>92.151</ele><time>2026-04-25T15:49:24.000Z</time><hdop>3.0</hdop><vdop>3.0</vdop><extensions><gom:speed>2.259</gom:speed></extensions></trkpt>
   <trkpt lat="59.0923510932" lon="29.9842967768"><ele>92.405</ele><time>2026-04-25T15:49:25.000Z</time><hdop>3.0</hdop><vdop>3.0</vdop><extensions><gom:speed>2.396</gom:speed></extensions></trkpt>
   <trkpt lat="59.0923541106" lon="29.9842558731"><ele>92.681</ele><time>2026-04-25T15:49:26.000Z</time><hdop>3.0</hdop><vdop>3.0</vdop><extensions><gom:speed>2.335</gom:speed></extensions></trkpt>
   <trkpt lat="59.0923574215" lon="29.9842128739"><ele>92.895</ele><time>2026-04-25T15:49:27.000Z</time><hdop>3.0</hdop><vdop>3.0</vdop><extensions><gom:speed>2.483</gom:speed></extensions></trkpt>
   <trkpt lat="59.0923633726" lon="29.9841710482"><ele>93.068</ele><time>2026-04-25T15:49:28.000Z</time><hdop>3.0</hdop><vdop>3.0</vdop><extensions><gom:speed>2.487</gom:speed></extensions></trkpt>
   <trkpt lat="59.0923633726" lon="29.9841710482"><ele>93.172</ele><time>2026-04-25T15:49:28.000Z</time><hdop>3.0</hdop><vdop>3.0</vdop><extensions><gom:speed>2.487</gom:speed></extensions></trkpt>
   <trkpt lat="59.0923697429" lon="29.9841289711"><ele>93.224</ele><time>2026-04-25T15:49:29.000Z</time><hdop>3.0</hdop><vdop>3.0</vdop><extensions><gom:speed>2.432</gom:speed></extensions></trkpt>
   <trkpt lat="59.0923746882" lon="29.9840888217"><ele>93.263</ele><time>2026-04-25T15:49:30.000Z</time><hdop>3.0</hdop><vdop>3.0</vdop><extensions><gom:speed>2.326</gom:speed></extensions></trkpt>
   <trkpt lat="59.0923784601" lon="29.9840478342"><ele>93.302</ele><time>2026-04-25T15:49:31.000Z</time><hdop>3.0</hdop><vdop>3.0</vdop><extensions><gom:speed>2.461</gom:speed></extensions></trkpt>
   <trkpt lat="59.0923834054" lon="29.9840037454"><ele>93.364</ele><time>2026-04-25T15:49:32.000Z</time><hdop>3.0</hdop><vdop>3.0</vdop><extensions><gom:speed>2.628</gom:speed></extensions></trkpt>
   <trkpt lat="59.0923888536" lon="29.983959489"><ele>93.438</ele><time>2026-04-25T15:49:33.000Z</time><hdop>3.0</hdop><vdop>3.0</vdop><extensions><gom:speed>2.614</gom:speed></extensions></trkpt>
   <trkpt lat="59.0923922902" lon="29.9839196749"><ele>93.5</ele><time>2026-04-25T15:49:34.000Z</time><hdop>3.0</hdop><vdop>3.0</vdop><extensions><gom:speed>2.41</gom:speed></extensions></trkpt>
   <trkpt lat="59.0923964812" lon="29.9838796933"><ele>93.549</ele><time>2026-04-25T15:49:35.000Z</time><hdop>3.0</hdop><vdop>3.0</vdop><extensions><gom:speed>2.358</gom:speed></extensions></trkpt>
   <trkpt lat="59.0924004207" lon="29.9838379514"><ele>93.64</ele><time>2026-04-25T15:49:36.000Z</time><hdop>3.0</hdop><vdop>3.0</vdop><extensions><gom:speed>2.54</gom:speed></extensions></trkpt>
   <trkpt lat="59.0924040668" lon="29.9837952037"><ele>93.744</ele><time>2026-04-25T15:49:37.000Z</time><hdop>3.0</hdop><vdop>3.0</vdop><extensions><gom:speed>2.617</gom:speed></extensions></trkpt>
   <trkpt lat="59.0924071262" lon="29.9837522045"><ele>93.862</ele><time>2026-04-25T15:49:38.000Z</time><hdop>3.0</hdop><vdop>3.0</vdop><extensions><gom:speed>2.421</gom:speed></extensions></trkpt>
   <trkpt lat="59.0924107723" lon="29.983709373"><ele>93.979</ele><time>2026-04-25T15:49:39.000Z</time><hdop>3.0</hdop><vdop>3.0</vdop><extensions><gom:speed>2.54</gom:speed></extensions></trkpt>
   <trkpt lat="59.0924143765" lon="29.9836636078"><ele>94.095</ele><time>2026-04-25T15:49:40.000Z</time><hdop>3.0</hdop><vdop>3.0</vdop><extensions><gom:speed>2.586</gom:speed></extensions></trkpt>
   <trkpt lat="59.092418316" lon="29.9836185132"><ele>94.211</ele><time>2026-04-25T15:49:41.000Z</time><hdop>3.0</hdop><vdop>3.0</vdop><extensions><gom:speed>2.614</gom:speed></extensions></trkpt>
   <trkpt lat="59.092422507" lon="29.983571323"><ele>94.332</ele><time>2026-04-25T15:49:42.000Z</time><hdop>3.0</hdop><vdop>3.0</vdop><extensions><gom:speed>2.774</gom:speed></extensions></trkpt>
   <trkpt lat="59.0924266141" lon="29.9835192714"><ele>94.421</ele><time>2026-04-25T15:49:43.000Z</time><hdop>3.0</hdop><vdop>3.0</vdop><extensions><gom:speed>2.941</gom:speed></extensions></trkpt>
   <trkpt lat="59.0924292963" lon="29.9834683933"><ele>94.508</ele><time>2026-04-25T15:49:44.000Z</time><hdop>3.0</hdop><vdop>3.0</vdop><extensions><gom:speed>2.873</gom:speed></extensions></trkpt>
   <trkpt lat="59.0924331939" lon="29.98341894"><ele>94.608</ele><time>2026-04-25T15:49:45.000Z</time><hdop>3.0</hdop><vdop>3.0</vdop><extensions><gom:speed>2.704</gom:speed></extensions></trkpt>
   <trkpt lat="59.0924381811" lon="29.9833709117"><ele>94.683</ele><time>2026-04-25T15:49:46.000Z</time><hdop>3.0</hdop><vdop>3.0</vdop><extensions><gom:speed>2.611</gom:speed></extensions></trkpt>
   <trkpt lat="59.0924421206" lon="29.9833286669"><ele>94.721</ele><time>2026-04-25T15:49:47.000Z</time><hdop>3.0</hdop><vdop>3.0</vdop><extensions><gom:speed>2.363</gom:speed></extensions></trkpt>
   <trkpt lat="59.0924459763" lon="29.9832866736"><ele>94.741</ele><time>2026-04-25T15:49:48.000Z</time><hdop>3.0</hdop><vdop>3.0</vdop><extensions><gom:speed>2.345</gom:speed></extensions></trkpt>
   <trkpt lat="59.0924459763" lon="29.9832866736"><ele>94.752</ele><time>2026-04-25T15:49:48.000Z</time><hdop>3.0</hdop><vdop>3.0</vdop><extensions><gom:speed>2.345</gom:speed></extensions></trkpt>
   <trkpt lat="59.0924504187" lon="29.9832462728"><ele>94.757</ele><time>2026-04-25T15:49:49.000Z</time><hdop>3.0</hdop><vdop>3.0</vdop><extensions><gom:speed>2.167</gom:speed></extensions></trkpt>
   <trkpt lat="59.0924526399" lon="29.983207297"><ele>94.716</ele><time>2026-04-25T15:49:50.000Z</time><hdop>3.0</hdop><vdop>3.0</vdop><extensions><gom:speed>1.849</gom:speed></extensions></trkpt>
   <trkpt lat="59.0924543163" lon="29.9831704166"><ele>94.691</ele><time>2026-04-25T15:49:51.000Z</time><hdop>3.0</hdop><vdop>3.0</vdop><extensions><gom:speed>2.032</gom:speed></extensions></trkpt>
   <trkpt lat="59.0924561184" lon="29.9831332848"><ele>94.646</ele><time>2026-04-25T15:49:52.000Z</time><hdop>3.0</hdop><vdop>3.0</vdop><extensions><gom:speed>2.224</gom:speed></extensions></trkpt>
   <trkpt lat="59.0924578367" lon="29.983094728"><ele>94.626</ele><time>2026-04-25T15:49:53.000Z</time><hdop>3.0</hdop><vdop>3.0</vdop><extensions><gom:speed>2.367</gom:speed></extensions></trkpt>
   <trkpt lat="59.0924611056" lon="29.98305307"><ele>94.625</ele><time>2026-04-25T15:49:54.000Z</time><hdop>3.0</hdop><vdop>3.0</vdop><extensions><gom:speed>2.416</gom:speed></extensions></trkpt>
   <trkpt lat="59.0924653804" lon="29.983007221"><ele>94.651</ele><time>2026-04-25T15:49:55.000Z</time><hdop>3.0</hdop><vdop>3.0</vdop><extensions><gom:speed>2.59</gom:speed></extensions></trkpt>
   <trkpt lat="59.0924702838" lon="29.9829604499"><ele>94.678</ele><time>2026-04-25T15:49:56.000Z</time><hdop>3.0</hdop><vdop>3.0</vdop><extensions><gom:speed>2.49</gom:speed></extensions></trkpt>
   <trkpt lat="59.0924743071" lon="29.98291502"><ele>94.688</ele><time>2026-04-25T15:49:57.000Z</time><hdop>3.0</hdop><vdop>3.0</vdop><extensions><gom:speed>2.441</gom:speed></extensions></trkpt>
   <trkpt lat="59.0924765283" lon="29.9828723561"><ele>94.701</ele><time>2026-04-25T15:49:58.000Z</time><hdop>3.0</hdop><vdop>3.0</vdop><extensions><gom:speed>2.324</gom:speed></extensions></trkpt>
   <trkpt lat="59.0924778275" lon="29.9828268424"><ele>94.729</ele><time>2026-04-25T15:49:59.000Z</time><hdop>3.0</hdop><vdop>3.0</vdop><extensions><gom:speed>2.418</gom:speed></extensions></trkpt>
   <trkpt lat="59.0924805936" lon="29.9827783112"><ele>94.708</ele><time>2026-04-25T15:50:00.000Z</time><hdop>3.0</hdop><vdop>3.0</vdop><extensions><gom:speed>2.646</gom:speed></extensions></trkpt>
   <trkpt lat="59.0924860837" lon="29.9827291932"><ele>94.662</ele><time>2026-04-25T15:50:01.000Z</time><hdop>3.0</hdop><vdop>3.0</vdop><extensions><gom:speed>2.785</gom:speed></extensions></trkpt>
   <trkpt lat="59.0924932921" lon="29.9826786504"><ele>94.621</ele><time>2026-04-25T15:50:02.000Z</time><hdop>3.0</hdop><vdop>3.0</vdop><extensions><gom:speed>2.834</gom:speed></extensions></trkpt>
   <trkpt lat="59.0925003749" lon="29.9826297839"><ele>94.579</ele><time>2026-04-25T15:50:03.000Z</time><hdop>3.0</hdop><vdop>3.0</vdop><extensions><gom:speed>2.679</gom:speed></extensions></trkpt>
   <trkpt lat="59.0925073318" lon="29.9825825099"><ele>94.547</ele><time>2026-04-25T15:50:04.000Z</time><hdop>3.0</hdop><vdop>3.0</vdop><extensions><gom:speed>2.578</gom:speed></extensions></trkpt>
   <trkpt lat="59.0925130315" lon="29.9825347331"><ele>94.507</ele><time>2026-04-25T15:50:05.000Z</time><hdop>3.0</hdop><vdop>3.0</vdop><extensions><gom:speed>2.704</gom:speed></extensions></trkpt>
   <trkpt lat="59.0925168872" lon="29.9824846931"><ele>94.468</ele><time>2026-04-25T15:50:06.000Z</time><hdop>3.0</hdop><vdop>3.0</vdop><extensions><gom:speed>2.759</gom:speed></extensions></trkpt>
   <trkpt lat="59.0925221678" lon="29.9824341502"><ele>94.411</ele><time>2026-04-25T15:50:07.000Z</time><hdop>3.0</hdop><vdop>3.0</vdop><extensions><gom:speed>2.733</gom:speed></extensions></trkpt>
   <trkpt lat="59.0925289152" lon="29.9823861219"><ele>94.357</ele><time>2026-04-25T15:50:08.000Z</time><hdop>3.0</hdop><vdop>3.0</vdop><extensions><gom:speed>2.554</gom:speed></extensions></trkpt>
   <trkpt lat="59.0925289152" lon="29.9823861219"><ele>94.325</ele><time>2026-04-25T15:50:08.000Z</time><hdop>3.0</hdop><vdop>3.0</vdop><extensions><gom:speed>2.554</gom:speed></extensions></trkpt>
   <trkpt lat="59.0925354112" lon="29.9823417817"><ele>94.233</ele><time>2026-04-25T15:50:09.000Z</time><hdop>3.0</hdop><vdop>3.0</vdop><extensions><gom:speed>2.381</gom:speed></extensions></trkpt>
   <trkpt lat="59.0925407756" lon="29.9822976929"><ele>94.125</ele><time>2026-04-25T15:50:10.000Z</time><hdop>3.0</hdop><vdop>3.0</vdop><extensions><gom:speed>2.34</gom:speed></extensions></trkpt>
   <trkpt lat="59.0925443798" lon="29.9822531011"><ele>94.012</ele><time>2026-04-25T15:50:11.000Z</time><hdop>3.0</hdop><vdop>3.0</vdop><extensions><gom:speed>2.451</gom:speed></extensions></trkpt>
   <trkpt lat="59.0925469782" lon="29.982210102"><ele>93.912</ele><time>2026-04-25T15:50:12.000Z</time><hdop>3.0</hdop><vdop>3.0</vdop><extensions><gom:speed>2.528</gom:speed></extensions></trkpt>
   <trkpt lat="59.0925490737" lon="29.9821648397"><ele>93.822</ele><time>2026-04-25T15:50:13.000Z</time><hdop>3.0</hdop><vdop>3.0</vdop><extensions><gom:speed>2.714</gom:speed></extensions></trkpt>
   <trkpt lat="59.0925538933" lon="29.9821198289"><ele>93.773</ele><time>2026-04-25T15:50:14.000Z</time><hdop>3.0</hdop><vdop>3.0</vdop><extensions><gom:speed>2.69</gom:speed></extensions></trkpt>
   <trkpt lat="59.0925616885" lon="29.9820710462"><ele>93.784</ele><time>2026-04-25T15:50:15.000Z</time><hdop>3.0</hdop><vdop>3.0</vdop><extensions><gom:speed>2.884</gom:speed></extensions></trkpt>
   <trkpt lat="59.0925702799" lon="29.9820244428"><ele>93.809</ele><time>2026-04-25T15:50:16.000Z</time><hdop>3.0</hdop><vdop>3.0</vdop><extensions><gom:speed>2.647</gom:speed></extensions></trkpt>
   <trkpt lat="59.0925758539" lon="29.9819770851"><ele>93.8</ele><time>2026-04-25T15:50:17.000Z</time><hdop>3.0</hdop><vdop>3.0</vdop><extensions><gom:speed>2.718</gom:speed></extensions></trkpt>
   <trkpt lat="59.0925805059" lon="29.9819298111"><ele>93.759</ele><time>2026-04-25T15:50:18.000Z</time><hdop>3.0</hdop><vdop>3.0</vdop><extensions><gom:speed>2.684</gom:speed></extensions></trkpt>
   <trkpt lat="59.0925851578" lon="29.9818818666"><ele>93.721</ele><time>2026-04-25T15:50:19.000Z</time><hdop>3.0</hdop><vdop>3.0</vdop><extensions><gom:speed>2.738</gom:speed></extensions></trkpt>
   <trkpt lat="59.0925900612" lon="29.9818340898"><ele>93.697</ele><time>2026-04-25T15:50:20.000Z</time><hdop>3.0</hdop><vdop>3.0</vdop><extensions><gom:speed>2.696</gom:speed></extensions></trkpt>
   <trkpt lat="59.0925937073" lon="29.9817863968"><ele>93.691</ele><time>2026-04-25T15:50:21.000Z</time><hdop>3.0</hdop><vdop>3.0</vdop><extensions><gom:speed>2.649</gom:speed></extensions></trkpt>
   <trkpt lat="59.0925963057" lon="29.9817376141"><ele>93.703</ele><time>2026-04-25T15:50:22.000Z</time><hdop>3.0</hdop><vdop>3.0</vdop><extensions><gom:speed>2.59</gom:speed></extensions></trkpt>
   <trkpt lat="59.092597563" lon="29.9816872389"><ele>93.722</ele><time>2026-04-25T15:50:23.000Z</time><hdop>3.0</hdop><vdop>3.0</vdop><extensions><gom:speed>2.634</gom:speed></extensions></trkpt>
   <trkpt lat="59.0925985689" lon="29.9816395458"><ele>93.744</ele><time>2026-04-25T15:50:24.000Z</time><hdop>3.0</hdop><vdop>3.0</vdop><extensions><gom:speed>2.57</gom:speed></extensions></trkpt>
   <trkpt lat="59.0926017959" lon="29.9815944512"><ele>93.739</ele><time>2026-04-25T15:50:25.000Z</time><hdop>3.0</hdop><vdop>3.0</vdop><extensions><gom:speed>2.54</gom:speed></extensions></trkpt>
   <trkpt lat="59.092608669" lon="29.981546842"><ele>93.755</ele><time>2026-04-25T15:50:26.000Z</time><hdop>3.0</hdop><vdop>3.0</vdop><extensions><gom:speed>2.605</gom:speed></extensions></trkpt>
   <trkpt lat="59.0926167995" lon="29.981499568"><ele>93.795</ele><time>2026-04-25T15:50:27.000Z</time><hdop>3.0</hdop><vdop>3.0</vdop><extensions><gom:speed>2.613</gom:speed></extensions></trkpt>
   <trkpt lat="59.0926258519" lon="29.9814514559"><ele>93.862</ele><time>2026-04-25T15:50:28.000Z</time><hdop>3.0</hdop><vdop>3.0</vdop><extensions><gom:speed>2.629</gom:speed></extensions></trkpt>
   <trkpt lat="59.0926338148" lon="29.9814031762"><ele>93.937</ele><time>2026-04-25T15:50:29.000Z</time><hdop>3.0</hdop><vdop>3.0</vdop><extensions><gom:speed>2.498</gom:speed></extensions></trkpt>
   <trkpt lat="59.0926403945" lon="29.9813587521"><ele>93.979</ele><time>2026-04-25T15:50:30.000Z</time><hdop>3.0</hdop><vdop>3.0</vdop><extensions><gom:speed>2.305</gom:speed></extensions></trkpt>
   <trkpt lat="59.0926458428" lon="29.981317094"><ele>94.001</ele><time>2026-04-25T15:50:31.000Z</time><hdop>3.0</hdop><vdop>3.0</vdop><extensions><gom:speed>2.356</gom:speed></extensions></trkpt>
   <trkpt lat="59.0926511234" lon="29.9812743463"><ele>94.015</ele><time>2026-04-25T15:50:32.000Z</time><hdop>3.0</hdop><vdop>3.0</vdop><extensions><gom:speed>2.515</gom:speed></extensions></trkpt>
   <trkpt lat="59.0926550629" lon="29.981228162"><ele>94.027</ele><time>2026-04-25T15:50:33.000Z</time><hdop>3.0</hdop><vdop>3.0</vdop><extensions><gom:speed>2.672</gom:speed></extensions></trkpt>
   <trkpt lat="59.0926601339" lon="29.9811797146"><ele>94.053</ele><time>2026-04-25T15:50:34.000Z</time><hdop>3.0</hdop><vdop>3.0</vdop><extensions><gom:speed>2.753</gom:speed></extensions></trkpt>
   <trkpt lat="59.0926654145" lon="29.9811317701"><ele>94.059</ele><time>2026-04-25T15:50:35.000Z</time><hdop>3.0</hdop><vdop>3.0</vdop><extensions><gom:speed>2.699</gom:speed></extensions></trkpt>
   <trkpt lat="59.0926709047" lon="29.9810860888"><ele>94.071</ele><time>2026-04-25T15:50:36.000Z</time><hdop>3.0</hdop><vdop>3.0</vdop><extensions><gom:speed>2.392</gom:speed></extensions></trkpt>
   <trkpt lat="59.0926753052" lon="29.9810464424"><ele>94.08</ele><time>2026-04-25T15:50:37.000Z</time><hdop>3.0</hdop><vdop>3.0</vdop><extensions><gom:speed>2.251</gom:speed></extensions></trkpt>
   <trkpt lat="59.0926763529" lon="29.9810109031"><ele>94.065</ele><time>2026-04-25T15:50:38.000Z</time><hdop>3.0</hdop><vdop>3.0</vdop><extensions><gom:speed>2.106</gom:speed></extensions></trkpt>
   <trkpt lat="59.0926773168" lon="29.9809742742"><ele>94.037</ele><time>2026-04-25T15:50:39.000Z</time><hdop>3.0</hdop><vdop>3.0</vdop><extensions><gom:speed>2.285</gom:speed></extensions></trkpt>
   <trkpt lat="59.0926786579" lon="29.9809358012"><ele>93.98</ele><time>2026-04-25T15:50:40.000Z</time><hdop>3.0</hdop><vdop>3.0</vdop><extensions><gom:speed>2.342</gom:speed></extensions></trkpt>
   <trkpt lat="59.0926807953" lon="29.9808929697"><ele>93.902</ele><time>2026-04-25T15:50:41.000Z</time><hdop>3.0</hdop><vdop>3.0</vdop><extensions><gom:speed>2.369</gom:speed></extensions></trkpt>
   <trkpt lat="59.0926841481" lon="29.9808531557"><ele>93.861</ele><time>2026-04-25T15:50:42.000Z</time><hdop>3.0</hdop><vdop>3.0</vdop><extensions><gom:speed>2.381</gom:speed></extensions></trkpt>
   <trkpt lat="59.0926890515" lon="29.9808145989"><ele>93.872</ele><time>2026-04-25T15:50:43.000Z</time><hdop>3.0</hdop><vdop>3.0</vdop><extensions><gom:speed>2.248</gom:speed></extensions></trkpt>
   <trkpt lat="59.0926944578" lon="29.9807750363"><ele>93.908</ele><time>2026-04-25T15:50:44.000Z</time><hdop>3.0</hdop><vdop>3.0</vdop><extensions><gom:speed>2.13</gom:speed></extensions></trkpt>
   <trkpt lat="59.092699948" lon="29.9807362281"><ele>93.985</ele><time>2026-04-25T15:50:45.000Z</time><hdop>3.0</hdop><vdop>3.0</vdop><extensions><gom:speed>2.374</gom:speed></extensions></trkpt>
   <trkpt lat="59.0927033846" lon="29.9806946539"><ele>93.99</ele><time>2026-04-25T15:50:46.000Z</time><hdop>3.0</hdop><vdop>3.0</vdop><extensions><gom:speed>2.406</gom:speed></extensions></trkpt>
   <trkpt lat="59.0927069888" lon="29.980648721"><ele>93.978</ele><time>2026-04-25T15:50:47.000Z</time><hdop>3.0</hdop><vdop>3.0</vdop><extensions><gom:speed>2.568</gom:speed></extensions></trkpt>
   <trkpt lat="59.0927101739" lon="29.9806017824"><ele>93.973</ele><time>2026-04-25T15:50:48.000Z</time><hdop>3.0</hdop><vdop>3.0</vdop><extensions><gom:speed>2.591</gom:speed></extensions></trkpt>
   <trkpt lat="59.0927101739" lon="29.9806017824"><ele>93.97</ele><time>2026-04-25T15:50:48.000Z</time><hdop>3.0</hdop><vdop>3.0</vdop><extensions><gom:speed>2.591</gom:speed></extensions></trkpt>
   <trkpt lat="59.0927128142" lon="29.9805532512"><ele>93.953</ele><time>2026-04-25T15:50:49.000Z</time><hdop>3.0</hdop><vdop>3.0</vdop><extensions><gom:speed>2.573</gom:speed></extensions></trkpt>
   <trkpt lat="59.0927141972" lon="29.9805021216"><ele>93.965</ele><time>2026-04-25T15:50:50.000Z</time><hdop>3.0</hdop><vdop>3.0</vdop><extensions><gom:speed>2.804</gom:speed></extensions></trkpt>
   <trkpt lat="59.0927137362" lon="29.9804511596"><ele>94.012</ele><time>2026-04-25T15:50:51.000Z</time><hdop>3.0</hdop><vdop>3.0</vdop><extensions><gom:speed>2.871</gom:speed></extensions></trkpt>
   <trkpt lat="59.092714742" lon="29.9803987727"><ele>94.085</ele><time>2026-04-25T15:50:52.000Z</time><hdop>3.0</hdop><vdop>3.0</vdop><extensions><gom:speed>2.982</gom:speed></extensions></trkpt>
   <trkpt lat="59.0927205255" lon="29.9803432007"><ele>94.156</ele><time>2026-04-25T15:50:53.000Z</time><hdop>3.0</hdop><vdop>3.0</vdop><extensions><gom:speed>3.207</gom:speed></extensions></trkpt>
   <trkpt lat="59.0927288655" lon="29.9802859523"><ele>94.204</ele><time>2026-04-25T15:50:54.000Z</time><hdop>3.0</hdop><vdop>3.0</vdop><extensions><gom:speed>3.399</gom:speed></extensions></trkpt>
   <trkpt lat="59.0927382533" lon="29.9802257702"><ele>94.213</ele><time>2026-04-25T15:50:55.000Z</time><hdop>3.0</hdop><vdop>3.0</vdop><extensions><gom:speed>3.414</gom:speed></extensions></trkpt>
   <trkpt lat="59.0927476829" lon="29.9801670969"><ele>94.191</ele><time>2026-04-25T15:50:56.000Z</time><hdop>3.0</hdop><vdop>3.0</vdop><extensions><gom:speed>3.353</gom:speed></extensions></trkpt>
   <trkpt lat="59.0927550171" lon="29.9801101838"><ele>94.171</ele><time>2026-04-25T15:50:57.000Z</time><hdop>3.0</hdop><vdop>3.0</vdop><extensions><gom:speed>3.082</gom:speed></extensions></trkpt>
   <trkpt lat="59.0927596271" lon="29.9800551985"><ele>94.167</ele><time>2026-04-25T15:50:58.000Z</time><hdop>3.0</hdop><vdop>3.0</vdop><extensions><gom:speed>3.079</gom:speed></extensions></trkpt>
   <trkpt lat="59.092762938" lon="29.9799989559"><ele>94.163</ele><time>2026-04-25T15:50:59.000Z</time><hdop>3.0</hdop><vdop>3.0</vdop><extensions><gom:speed>3.219</gom:speed></extensions></trkpt>
   <trkpt lat="59.092764782" lon="29.9799408693"><ele>94.132</ele><time>2026-04-25T15:51:00.000Z</time><hdop>3.0</hdop><vdop>3.0</vdop><extensions><gom:speed>3.145</gom:speed></extensions></trkpt>
   <trkpt lat="59.0927668775" lon="29.9798830342"><ele>94.09</ele><time>2026-04-25T15:51:01.000Z</time><hdop>3.0</hdop><vdop>3.0</vdop><extensions><gom:speed>3.17</gom:speed></extensions></trkpt>
   <trkpt lat="59.0927712361" lon="29.9798279651"><ele>94.045</ele><time>2026-04-25T15:51:02.000Z</time><hdop>3.0</hdop><vdop>3.0</vdop><extensions><gom:speed>3.234</gom:speed></extensions></trkpt>
   <trkpt lat="59.0927776901" lon="29.9797706329"><ele>94.014</ele><time>2026-04-25T15:51:03.000Z</time><hdop>3.0</hdop><vdop>3.0</vdop><extensions><gom:speed>3.118</gom:speed></extensions></trkpt>
   <trkpt lat="59.0927857787" lon="29.9797132168"><ele>93.969</ele><time>2026-04-25T15:51:04.000Z</time><hdop>3.0</hdop><vdop>3.0</vdop><extensions><gom:speed>3.152</gom:speed></extensions></trkpt>
   <trkpt lat="59.092792568" lon="29.9796574772"><ele>93.947</ele><time>2026-04-25T15:51:05.000Z</time><hdop>3.0</hdop><vdop>3.0</vdop><extensions><gom:speed>3.163</gom:speed></extensions></trkpt>
   <trkpt lat="59.0927997764" lon="29.9795979657"><ele>93.926</ele><time>2026-04-25T15:51:06.000Z</time><hdop>3.0</hdop><vdop>3.0</vdop><extensions><gom:speed>3.182</gom:speed></extensions></trkpt>
   <trkpt lat="59.0928048894" lon="29.9795404658"><ele>93.926</ele><time>2026-04-25T15:51:07.000Z</time><hdop>3.0</hdop><vdop>3.0</vdop><extensions><gom:speed>3.186</gom:speed></extensions></trkpt>
   <trkpt lat="59.0928100862" lon="29.979482966"><ele>93.919</ele><time>2026-04-25T15:51:08.000Z</time><hdop>3.0</hdop><vdop>3.0</vdop><extensions><gom:speed>3.123</gom:speed></extensions></trkpt>
   <trkpt lat="59.0928100862" lon="29.979482966"><ele>93.914</ele><time>2026-04-25T15:51:08.000Z</time><hdop>3.0</hdop><vdop>3.0</vdop><extensions><gom:speed>3.123</gom:speed></extensions></trkpt>
   <trkpt lat="59.0928150315" lon="29.9794269748"><ele>93.935</ele><time>2026-04-25T15:51:09.000Z</time><hdop>3.0</hdop><vdop>3.0</vdop><extensions><gom:speed>3.072</gom:speed></extensions></trkpt>
   <trkpt lat="59.0928187195" lon="29.9793707323"><ele>93.956</ele><time>2026-04-25T15:51:10.000Z</time><hdop>3.0</hdop><vdop>3.0</vdop><extensions><gom:speed>3.064</gom:speed></extensions></trkpt>
   <trkpt lat="59.0928221142" lon="29.9793174234"><ele>93.977</ele><time>2026-04-25T15:51:11.000Z</time><hdop>3.0</hdop><vdop>3.0</vdop><extensions><gom:speed>3.029</gom:speed></extensions></trkpt>
   <trkpt lat="59.0928262213" lon="29.9792651203"><ele>93.969</ele><time>2026-04-25T15:51:12.000Z</time><hdop>3.0</hdop><vdop>3.0</vdop><extensions><gom:speed>2.969</gom:speed></extensions></trkpt>
   <trkpt lat="59.0928312924" lon="29.9792135716"><ele>93.94</ele><time>2026-04-25T15:51:13.000Z</time><hdop>3.0</hdop><vdop>3.0</vdop><extensions><gom:speed>3.045</gom:speed></extensions></trkpt>
   <trkpt lat="59.0928363215" lon="29.9791613523"><ele>93.847</ele><time>2026-04-25T15:51:14.000Z</time><hdop>3.0</hdop><vdop>3.0</vdop><extensions><gom:speed>3.072</gom:speed></extensions></trkpt>
   <trkpt lat="59.0928392971" lon="29.9791093007"><ele>93.709</ele><time>2026-04-25T15:51:15.000Z</time><hdop>3.0</hdop><vdop>3.0</vdop><extensions><gom:speed>2.961</gom:speed></extensions></trkpt>
   <trkpt lat="59.0928437814" lon="29.979058674"><ele>93.601</ele><time>2026-04-25T15:51:16.000Z</time><hdop>3.0</hdop><vdop>3.0</vdop><extensions><gom:speed>2.876</gom:speed></extensions></trkpt>
   <trkpt lat="59.0928494392" lon="29.9790102266"><ele>93.522</ele><time>2026-04-25T15:51:17.000Z</time><hdop>3.0</hdop><vdop>3.0</vdop><extensions><gom:speed>2.83</gom:speed></extensions></trkpt>
   <trkpt lat="59.0928547617" lon="29.9789586779"><ele>93.433</ele><time>2026-04-25T15:51:18.000Z</time><hdop>3.0</hdop><vdop>3.0</vdop><extensions><gom:speed>2.986</gom:speed></extensions></trkpt>
   <trkpt lat="59.0928614672" lon="29.9789077998"><ele>93.339</ele><time>2026-04-25T15:51:19.000Z</time><hdop>3.0</hdop><vdop>3.0</vdop><extensions><gom:speed>3.025</gom:speed></extensions></trkpt>
   <trkpt lat="59.0928710226" lon="29.978858598"><ele>93.261</ele><time>2026-04-25T15:51:20.000Z</time><hdop>3.0</hdop><vdop>3.0</vdop><extensions><gom:speed>2.976</gom:speed></extensions></trkpt>
   <trkpt lat="59.0928820448" lon="29.9788083904"><ele>93.203</ele><time>2026-04-25T15:51:21.000Z</time><hdop>3.0</hdop><vdop>3.0</vdop><extensions><gom:speed>2.969</gom:speed></extensions></trkpt>
   <trkpt lat="59.0928933604" lon="29.978759943"><ele>93.149</ele><time>2026-04-25T15:51:22.000Z</time><hdop>3.0</hdop><vdop>3.0</vdop><extensions><gom:speed>2.992</gom:speed></extensions></trkpt>
   <trkpt lat="59.0929035863" lon="29.9787109089"><ele>93.144</ele><time>2026-04-25T15:51:23.000Z</time><hdop>3.0</hdop><vdop>3.0</vdop><extensions><gom:speed>2.89</gom:speed></extensions></trkpt>
   <trkpt lat="59.0929092441" lon="29.9786599469"><ele>93.123</ele><time>2026-04-25T15:51:24.000Z</time><hdop>3.0</hdop><vdop>3.0</vdop><extensions><gom:speed>2.892</gom:speed></extensions></trkpt>
   <trkpt lat="59.092912974" lon="29.9786089011"><ele>93.064</ele><time>2026-04-25T15:51:25.000Z</time><hdop>3.0</hdop><vdop>3.0</vdop><extensions><gom:speed>2.868</gom:speed></extensions></trkpt>
   <trkpt lat="59.0929187995" lon="29.9785576038"><ele>93.014</ele><time>2026-04-25T15:51:26.000Z</time><hdop>3.0</hdop><vdop>3.0</vdop><extensions><gom:speed>2.757</gom:speed></extensions></trkpt>
   <trkpt lat="59.0929257564" lon="29.9785100785"><ele>92.991</ele><time>2026-04-25T15:51:27.000Z</time><hdop>3.0</hdop><vdop>3.0</vdop><extensions><gom:speed>2.675</gom:speed></extensions></trkpt>
   <trkpt lat="59.0929332163" lon="29.9784634751"><ele>93.005</ele><time>2026-04-25T15:51:28.000Z</time><hdop>3.0</hdop><vdop>3.0</vdop><extensions><gom:speed>2.578</gom:speed></extensions></trkpt>
   <trkpt lat="59.0929332163" lon="29.9784634751"><ele>93.013</ele><time>2026-04-25T15:51:28.000Z</time><hdop>3.0</hdop><vdop>3.0</vdop><extensions><gom:speed>2.578</gom:speed></extensions></trkpt>
   <trkpt lat="59.0929407181" lon="29.9784193024"><ele>93.063</ele><time>2026-04-25T15:51:29.000Z</time><hdop>3.0</hdop><vdop>3.0</vdop><extensions><gom:speed>2.45</gom:speed></extensions></trkpt>
   <trkpt lat="59.0929471722" lon="29.9783737887"><ele>93.135</ele><time>2026-04-25T15:51:30.000Z</time><hdop>3.0</hdop><vdop>3.0</vdop><extensions><gom:speed>2.59</gom:speed></extensions></trkpt>
   <trkpt lat="59.0929519918" lon="29.9783244193"><ele>93.179</ele><time>2026-04-25T15:51:31.000Z</time><hdop>3.0</hdop><vdop>3.0</vdop><extensions><gom:speed>2.777</gom:speed></extensions></trkpt>
   <trkpt lat="59.0929559313" lon="29.9782724515"><ele>93.198</ele><time>2026-04-25T15:51:32.000Z</time><hdop>3.0</hdop><vdop>3.0</vdop><extensions><gom:speed>2.87</gom:speed></extensions></trkpt>
   <trkpt lat="59.0929619244" lon="29.9782216572"><ele>93.256</ele><time>2026-04-25T15:51:33.000Z</time><hdop>3.0</hdop><vdop>3.0</vdop><extensions><gom:speed>2.772</gom:speed></extensions></trkpt>
   <trkpt lat="59.092967205" lon="29.9781708628"><ele>93.292</ele><time>2026-04-25T15:51:34.000Z</time><hdop>3.0</hdop><vdop>3.0</vdop><extensions><gom:speed>2.909</gom:speed></extensions></trkpt>
   <trkpt lat="59.0929749163" lon="29.978117973"><ele>93.307</ele><time>2026-04-25T15:51:35.000Z</time><hdop>3.0</hdop><vdop>3.0</vdop><extensions><gom:speed>2.932</gom:speed></extensions></trkpt>
   <trkpt lat="59.0929813285" lon="29.9780647479"><ele>93.305</ele><time>2026-04-25T15:51:36.000Z</time><hdop>3.0</hdop><vdop>3.0</vdop><extensions><gom:speed>2.971</gom:speed></extensions></trkpt>
   <trkpt lat="59.0929869024" lon="29.9780127801"><ele>93.296</ele><time>2026-04-25T15:51:37.000Z</time><hdop>3.0</hdop><vdop>3.0</vdop><extensions><gom:speed>2.966</gom:speed></extensions></trkpt>
   <trkpt lat="59.0929917639" lon="29.9779590521"><ele>93.282</ele><time>2026-04-25T15:51:38.000Z</time><hdop>3.0</hdop><vdop>3.0</vdop><extensions><gom:speed>3.092</gom:speed></extensions></trkpt>
   <trkpt lat="59.0929961644" lon="29.9779009655"><ele>93.264</ele><time>2026-04-25T15:51:39.000Z</time><hdop>3.0</hdop><vdop>3.0</vdop><extensions><gom:speed>3.2</gom:speed></extensions></trkpt>
   <trkpt lat="59.0930002297" lon="29.9778439686"><ele>93.214</ele><time>2026-04-25T15:51:40.000Z</time><hdop>3.0</hdop><vdop>3.0</vdop><extensions><gom:speed>3.046</gom:speed></extensions></trkpt>
   <trkpt lat="59.0930048397" lon="29.9777903244"><ele>93.148</ele><time>2026-04-25T15:51:41.000Z</time><hdop>3.0</hdop><vdop>3.0</vdop><extensions><gom:speed>3.014</gom:speed></extensions></trkpt>
   <trkpt lat="59.0930106232" lon="29.9777362612"><ele>93.1</ele><time>2026-04-25T15:51:42.000Z</time><hdop>3.0</hdop><vdop>3.0</vdop><extensions><gom:speed>3.098</gom:speed></extensions></trkpt>
   <trkpt lat="59.0930162391" lon="29.9776805215"><ele>93.081</ele><time>2026-04-25T15:51:43.000Z</time><hdop>3.0</hdop><vdop>3.0</vdop><extensions><gom:speed>3.176</gom:speed></extensions></trkpt>
   <trkpt lat="59.0930212682" lon="29.9776259553"><ele>93.111</ele><time>2026-04-25T15:51:44.000Z</time><hdop>3.0</hdop><vdop>3.0</vdop><extensions><gom:speed>3.116</gom:speed></extensions></trkpt>
   <trkpt lat="59.093026926" lon="29.9775723949"><ele>93.18</ele><time>2026-04-25T15:51:45.000Z</time><hdop>3.0</hdop><vdop>3.0</vdop><extensions><gom:speed>3.178</gom:speed></extensions></trkpt>
   <trkpt lat="59.0930332544" lon="29.9775159009"><ele>93.346</ele><time>2026-04-25T15:51:46.000Z</time><hdop>3.0</hdop><vdop>3.0</vdop><extensions><gom:speed>3.255</gom:speed></extensions></trkpt>
   <trkpt lat="59.0930392055" lon="29.9774583172"><ele>93.5</ele><time>2026-04-25T15:51:47.000Z</time><hdop>3.0</hdop><vdop>3.0</vdop><extensions><gom:speed>3.206</gom:speed></extensions></trkpt>
   <trkpt lat="59.0930441927" lon="29.9774018232"><ele>93.639</ele><time>2026-04-25T15:51:48.000Z</time><hdop>3.0</hdop><vdop>3.0</vdop><extensions><gom:speed>3.236</gom:speed></extensions></trkpt>
   <trkpt lat="59.0930490961" lon="29.9773480114"><ele>93.737</ele><time>2026-04-25T15:51:49.000Z</time><hdop>3.0</hdop><vdop>3.0</vdop><extensions><gom:speed>3.141</gom:speed></extensions></trkpt>
   <trkpt lat="59.0930536224" lon="29.97729772"><ele>93.833</ele><time>2026-04-25T15:51:50.000Z</time><hdop>3.0</hdop><vdop>3.0</vdop><extensions><gom:speed>3.136</gom:speed></extensions></trkpt>
   <trkpt lat="59.0930563465" lon="29.9772459198"><ele>93.922</ele><time>2026-04-25T15:51:51.000Z</time><hdop>3.0</hdop><vdop>3.0</vdop><extensions><gom:speed>3.136</gom:speed></extensions></trkpt>
   <trkpt lat="59.0930583162" lon="29.9771942035"><ele>93.994</ele><time>2026-04-25T15:51:52.000Z</time><hdop>3.0</hdop><vdop>3.0</vdop><extensions><gom:speed>3.214</gom:speed></extensions></trkpt>
   <trkpt lat="59.0930623396" lon="29.9771396373"><ele>94.027</ele><time>2026-04-25T15:51:53.000Z</time><hdop>3.0</hdop><vdop>3.0</vdop><extensions><gom:speed>3.241</gom:speed></extensions></trkpt>
   <trkpt lat="59.0930680812" lon="29.9770848196"><ele>94.055</ele><time>2026-04-25T15:51:54.000Z</time><hdop>3.0</hdop><vdop>3.0</vdop><extensions><gom:speed>3.293</gom:speed></extensions></trkpt>
   <trkpt lat="59.0930748705" lon="29.9770283256"><ele>94.089</ele><time>2026-04-25T15:51:55.000Z</time><hdop>3.0</hdop><vdop>3.0</vdop><extensions><gom:speed>3.275</gom:speed></extensions></trkpt>
   <trkpt lat="59.0930807378" lon="29.9769724183"><ele>94.157</ele><time>2026-04-25T15:51:56.000Z</time><hdop>3.0</hdop><vdop>3.0</vdop><extensions><gom:speed>3.282</gom:speed></extensions></trkpt>
   <trkpt lat="59.0930864794" lon="29.9769160081"><ele>94.21</ele><time>2026-04-25T15:51:57.000Z</time><hdop>3.0</hdop><vdop>3.0</vdop><extensions><gom:speed>3.23</gom:speed></extensions></trkpt>
   <trkpt lat="59.0930933945" lon="29.9768621963"><ele>94.268</ele><time>2026-04-25T15:51:58.000Z</time><hdop>3.0</hdop><vdop>3.0</vdop><extensions><gom:speed>3.141</gom:speed></extensions></trkpt>
   <trkpt lat="59.0931012316" lon="29.9768120725"><ele>94.33</ele><time>2026-04-25T15:51:59.000Z</time><hdop>3.0</hdop><vdop>3.0</vdop><extensions><gom:speed>3.124</gom:speed></extensions></trkpt>
   <trkpt lat="59.0931096135" lon="29.9767609429"><ele>94.381</ele><time>2026-04-25T15:52:00.000Z</time><hdop>3.0</hdop><vdop>3.0</vdop><extensions><gom:speed>3.125</gom:speed></extensions></trkpt>
   <trkpt lat="59.0931158161" lon="29.9767093104"><ele>94.423</ele><time>2026-04-25T15:52:01.000Z</time><hdop>3.0</hdop><vdop>3.0</vdop><extensions><gom:speed>3.106</gom:speed></extensions></trkpt>
   <trkpt lat="59.0931203423" lon="29.9766562529"><ele>94.466</ele><time>2026-04-25T15:52:02.000Z</time><hdop>3.0</hdop><vdop>3.0</vdop><extensions><gom:speed>3.114</gom:speed></extensions></trkpt>
   <trkpt lat="59.0931247428" lon="29.9766007647"><ele>94.501</ele><time>2026-04-25T15:52:03.000Z</time><hdop>3.0</hdop><vdop>3.0</vdop><extensions><gom:speed>3.135</gom:speed></extensions></trkpt>
   <trkpt lat="59.0931286404" lon="29.9765429296"><ele>94.517</ele><time>2026-04-25T15:52:04.000Z</time><hdop>3.0</hdop><vdop>3.0</vdop><extensions><gom:speed>3.155</gom:speed></extensions></trkpt>
   <trkpt lat="59.0931333762" lon="29.9764877767"><ele>94.531</ele><time>2026-04-25T15:52:05.000Z</time><hdop>3.0</hdop><vdop>3.0</vdop><extensions><gom:speed>3.222</gom:speed></extensions></trkpt>
   <trkpt lat="59.0931381539" lon="29.9764306121"><ele>94.503</ele><time>2026-04-25T15:52:06.000Z</time><hdop>3.0</hdop><vdop>3.0</vdop><extensions><gom:speed>3.244</gom:speed></extensions></trkpt>
   <trkpt lat="59.0931438955" lon="29.9763750401"><ele>94.519</ele><time>2026-04-25T15:52:07.000Z</time><hdop>3.0</hdop><vdop>3.0</vdop><extensions><gom:speed>3.15</gom:speed></extensions></trkpt>
   <trkpt lat="59.0931487989" lon="29.976321815"><ele>94.522</ele><time>2026-04-25T15:52:08.000Z</time><hdop>3.0</hdop><vdop>3.0</vdop><extensions><gom:speed>2.956</gom:speed></extensions></trkpt>
   <trkpt lat="59.0931487989" lon="29.976321815"><ele>94.523</ele><time>2026-04-25T15:52:08.000Z</time><hdop>3.0</hdop><vdop>3.0</vdop><extensions><gom:speed>2.956</gom:speed></extensions></trkpt>
   <trkpt lat="59.093153367" lon="29.9762713559"><ele>94.53</ele><time>2026-04-25T15:52:09.000Z</time><hdop>3.0</hdop><vdop>3.0</vdop><extensions><gom:speed>2.844</gom:speed></extensions></trkpt>
   <trkpt lat="59.0931564264" lon="29.9762224056"><ele>94.527</ele><time>2026-04-25T15:52:10.000Z</time><hdop>3.0</hdop><vdop>3.0</vdop><extensions><gom:speed>2.646</gom:speed></extensions></trkpt>
   <trkpt lat="59.0931572646" lon="29.9761748802"><ele>94.562</ele><time>2026-04-25T15:52:11.000Z</time><hdop>3.0</hdop><vdop>3.0</vdop><extensions><gom:speed>2.767</gom:speed></extensions></trkpt>
   <trkpt lat="59.0931573065" lon="29.9761252594"><ele>94.579</ele><time>2026-04-25T15:52:12.000Z</time><hdop>3.0</hdop><vdop>3.0</vdop><extensions><gom:speed>2.835</gom:speed></extensions></trkpt>
   <trkpt lat="59.0931562169" lon="29.9760767281"><ele>94.581</ele><time>2026-04-25T15:52:13.000Z</time><hdop>3.0</hdop><vdop>3.0</vdop><extensions><gom:speed>2.752</gom:speed></extensions></trkpt>
   <trkpt lat="59.0931573484" lon="29.9760302924"><ele>94.598</ele><time>2026-04-25T15:52:14.000Z</time><hdop>3.0</hdop><vdop>3.0</vdop><extensions><gom:speed>2.68</gom:speed></extensions></trkpt>
   <trkpt lat="59.0931639282" lon="29.9759859521"><ele>94.588</ele><time>2026-04-25T15:52:15.000Z</time><hdop>3.0</hdop><vdop>3.0</vdop><extensions><gom:speed>2.654</gom:speed></extensions></trkpt>
   <trkpt lat="59.0931741961" lon="29.9759463895"><ele>94.596</ele><time>2026-04-25T15:52:16.000Z</time><hdop>3.0</hdop><vdop>3.0</vdop><extensions><gom:speed>2.614</gom:speed></extensions></trkpt>
   <trkpt lat="59.0931911694" lon="29.9759138678"><ele>94.629</ele><time>2026-04-25T15:52:17.000Z</time><hdop>3.0</hdop><vdop>3.0</vdop><extensions><gom:speed>2.78</gom:speed></extensions></trkpt>
   <trkpt lat="59.0932146387" lon="29.9758922425"><ele>94.703</ele><time>2026-04-25T15:52:18.000Z</time><hdop>3.0</hdop><vdop>3.0</vdop><extensions><gom:speed>3.033</gom:speed></extensions></trkpt>
   <trkpt lat="59.0932422152" lon="29.975882268"><ele>94.808</ele><time>2026-04-25T15:52:19.000Z</time><hdop>3.0</hdop><vdop>3.0</vdop><extensions><gom:speed>3.25</gom:speed></extensions></trkpt>
   <trkpt lat="59.0932699174" lon="29.9758874648"><ele>94.859</ele><time>2026-04-25T15:52:20.000Z</time><hdop>3.062</hdop><vdop>3.062</vdop><extensions><gom:speed>3.129</gom:speed></extensions></trkpt>
   <trkpt lat="59.0932990445" lon="29.9759000376"><ele>94.907</ele><time>2026-04-25T15:52:21.000Z</time><hdop>3.0</hdop><vdop>3.0</vdop><extensions><gom:speed>3.241</gom:speed></extensions></trkpt>
   <trkpt lat="59.0933286326" lon="29.9759144545"><ele>94.948</ele><time>2026-04-25T15:52:22.000Z</time><hdop>3.0</hdop><vdop>3.0</vdop><extensions><gom:speed>3.167</gom:speed></extensions></trkpt>
   <trkpt lat="59.0933588494" lon="29.9759247642"><ele>94.971</ele><time>2026-04-25T15:52:23.000Z</time><hdop>3.0</hdop><vdop>3.0</vdop><extensions><gom:speed>3.121</gom:speed></extensions></trkpt>
   <trkpt lat="59.0933881441" lon="29.9759320565"><ele>95.032</ele><time>2026-04-25T15:52:24.000Z</time><hdop>3.0</hdop><vdop>3.0</vdop><extensions><gom:speed>3.17</gom:speed></extensions></trkpt>
   <trkpt lat="59.0934194086" lon="29.9759351578"><ele>95.057</ele><time>2026-04-25T15:52:25.000Z</time><hdop>3.0</hdop><vdop>3.0</vdop><extensions><gom:speed>3.285</gom:speed></extensions></trkpt>
   <trkpt lat="59.0934501702" lon="29.9759354931"><ele>95.101</ele><time>2026-04-25T15:52:26.000Z</time><hdop>3.0</hdop><vdop>3.0</vdop><extensions><gom:speed>3.292</gom:speed></extensions></trkpt>
   <trkpt lat="59.0934803032" lon="29.9759373371"><ele>95.125</ele><time>2026-04-25T15:52:27.000Z</time><hdop>3.0</hdop><vdop>3.0</vdop><extensions><gom:speed>3.215</gom:speed></extensions></trkpt>
   <trkpt lat="59.0935098075" lon="29.9759383429"><ele>95.142</ele><time>2026-04-25T15:52:28.000Z</time><hdop>3.0</hdop><vdop>3.0</vdop><extensions><gom:speed>3.28</gom:speed></extensions></trkpt>
   <trkpt lat="59.0935098075" lon="29.9759383429"><ele>95.153</ele><time>2026-04-25T15:52:28.000Z</time><hdop>3.0</hdop><vdop>3.0</vdop><extensions><gom:speed>3.28</gom:speed></extensions></trkpt>
   <trkpt lat="59.0935399823" lon="29.9759385106"><ele>95.154</ele><time>2026-04-25T15:52:29.000Z</time><hdop>3.0</hdop><vdop>3.0</vdop><extensions><gom:speed>3.332</gom:speed></extensions></trkpt>
   <trkpt lat="59.093571624" lon="29.9759419471"><ele>95.176</ele><time>2026-04-25T15:52:30.000Z</time><hdop>3.0</hdop><vdop>3.0</vdop><extensions><gom:speed>3.295</gom:speed></extensions></trkpt>
   <trkpt lat="59.0936026789" lon="29.9759440426"><ele>95.172</ele><time>2026-04-25T15:52:31.000Z</time><hdop>3.0</hdop><vdop>3.0</vdop><extensions><gom:speed>3.312</gom:speed></extensions></trkpt>
   <trkpt lat="59.0936336501" lon="29.9759469763"><ele>95.151</ele><time>2026-04-25T15:52:32.000Z</time><hdop>3.0</hdop><vdop>3.0</vdop><extensions><gom:speed>3.451</gom:speed></extensions></trkpt>
   <trkpt lat="59.0936643278" lon="29.9759447132"><ele>95.115</ele><time>2026-04-25T15:52:33.000Z</time><hdop>3.0</hdop><vdop>3.0</vdop><extensions><gom:speed>3.411</gom:speed></extensions></trkpt>
   <trkpt lat="59.0936943351" lon="29.9759414442"><ele>95.09</ele><time>2026-04-25T15:52:34.000Z</time><hdop>3.0</hdop><vdop>3.0</vdop><extensions><gom:speed>3.348</gom:speed></extensions></trkpt>
   <trkpt lat="59.093724468" lon="29.9759390135"><ele>95.084</ele><time>2026-04-25T15:52:35.000Z</time><hdop>3.0</hdop><vdop>3.0</vdop><extensions><gom:speed>3.468</gom:speed></extensions></trkpt>
   <trkpt lat="59.093724468" lon="29.9759390135"><ele>95.08</ele><time>2026-04-25T15:52:35.000Z</time><hdop>3.0</hdop><vdop>3.0</vdop><extensions><gom:speed>3.468</gom:speed></extensions></trkpt>
   <trkpt lat="59.0937551458" lon="29.9759390973"><ele>95.072</ele><time>2026-04-25T15:52:36.000Z</time><hdop>3.0</hdop><vdop>3.0</vdop><extensions><gom:speed>3.461</gom:speed></extensions></trkpt>
   <trkpt lat="59.0937846501" lon="29.9759421986"><ele>95.047</ele><time>2026-04-25T15:52:37.000Z</time><hdop>3.0</hdop><vdop>3.0</vdop><extensions><gom:speed>3.413</gom:speed></extensions></trkpt>
   <trkpt lat="59.0937846501" lon="29.9759421986"><ele>95.032</ele><time>2026-04-25T15:52:37.000Z</time><hdop>3.0</hdop><vdop>3.0</vdop><extensions><gom:speed>3.413</gom:speed></extensions></trkpt>
   <trkpt lat="59.0938131485" lon="29.9759504967"><ele>94.968</ele><time>2026-04-25T15:52:38.000Z</time><hdop>3.0</hdop><vdop>3.0</vdop><extensions><gom:speed>3.242</gom:speed></extensions></trkpt>
   <trkpt lat="59.0938416889" lon="29.9759657517"><ele>94.9</ele><time>2026-04-25T15:52:39.000Z</time><hdop>3.0</hdop><vdop>3.0</vdop><extensions><gom:speed>3.331</gom:speed></extensions></trkpt>
   <trkpt lat="59.0938727439" lon="29.9759777379"><ele>94.851</ele><time>2026-04-25T15:52:40.000Z</time><hdop>3.0</hdop><vdop>3.0</vdop><extensions><gom:speed>3.419</gom:speed></extensions></trkpt>
   <trkpt lat="59.0939032959" lon="29.9759853654"><ele>94.826</ele><time>2026-04-25T15:52:41.000Z</time><hdop>3.0</hdop><vdop>3.0</vdop><extensions><gom:speed>3.467</gom:speed></extensions></trkpt>
   <trkpt lat="59.0939343509" lon="29.9759893887"><ele>94.83</ele><time>2026-04-25T15:52:42.000Z</time><hdop>3.0</hdop><vdop>3.0</vdop><extensions><gom:speed>3.396</gom:speed></extensions></trkpt>
   <trkpt lat="59.0939642742" lon="29.9759919033"><ele>94.86</ele><time>2026-04-25T15:52:43.000Z</time><hdop>3.0</hdop><vdop>3.0</vdop><extensions><gom:speed>3.407</gom:speed></extensions></trkpt>
   <trkpt lat="59.0939947425" lon="29.9759962619"><ele>94.887</ele><time>2026-04-25T15:52:44.000Z</time><hdop>3.0</hdop><vdop>3.0</vdop><extensions><gom:speed>3.342</gom:speed></extensions></trkpt>
   <trkpt lat="59.0940259231" lon="29.9760019616"><ele>94.896</ele><time>2026-04-25T15:52:45.000Z</time><hdop>3.0</hdop><vdop>3.0</vdop><extensions><gom:speed>3.352</gom:speed></extensions></trkpt>
   <trkpt lat="59.094055176" lon="29.9760081642"><ele>94.918</ele><time>2026-04-25T15:52:46.000Z</time><hdop>3.0</hdop><vdop>3.0</vdop><extensions><gom:speed>3.235</gom:speed></extensions></trkpt>
   <trkpt lat="59.0940852251" lon="29.9760102597"><ele>94.918</ele><time>2026-04-25T15:52:47.000Z</time><hdop>3.0</hdop><vdop>3.0</vdop><extensions><gom:speed>3.279</gom:speed></extensions></trkpt>
   <trkpt lat="59.094117705" lon="29.976011014"><ele>94.865</ele><time>2026-04-25T15:52:48.000Z</time><hdop>3.0</hdop><vdop>3.0</vdop><extensions><gom:speed>3.29</gom:speed></extensions></trkpt>
   <trkpt lat="59.094117705" lon="29.976011014"><ele>94.833</ele><time>2026-04-25T15:52:48.000Z</time><hdop>3.0</hdop><vdop>3.0</vdop><extensions><gom:speed>3.29</gom:speed></extensions></trkpt>
   <trkpt lat="59.0941486761" lon="29.9760108464"><ele>94.78</ele><time>2026-04-25T15:52:49.000Z</time><hdop>3.0</hdop><vdop>3.0</vdop><extensions><gom:speed>3.345</gom:speed></extensions></trkpt>
   <trkpt lat="59.0941794796" lon="29.9760100082"><ele>94.758</ele><time>2026-04-25T15:52:50.000Z</time><hdop>3.0</hdop><vdop>3.0</vdop><extensions><gom:speed>3.389</gom:speed></extensions></trkpt>
   <trkpt lat="59.0942112051" lon="29.9760117684"><ele>94.733</ele><time>2026-04-25T15:52:51.000Z</time><hdop>3.0</hdop><vdop>3.0</vdop><extensions><gom:speed>3.385</gom:speed></extensions></trkpt>
   <trkpt lat="59.0942443975" lon="29.9760135286"><ele>94.713</ele><time>2026-04-25T15:52:52.000Z</time><hdop>3.0</hdop><vdop>3.0</vdop><extensions><gom:speed>3.524</gom:speed></extensions></trkpt>
   <trkpt lat="59.0942763325" lon="29.9760173843"><ele>94.705</ele><time>2026-04-25T15:52:53.000Z</time><hdop>3.0</hdop><vdop>3.0</vdop><extensions><gom:speed>3.471</gom:speed></extensions></trkpt>
   <trkpt lat="59.0943067169" lon="29.9760186416"><ele>94.674</ele><time>2026-04-25T15:52:54.000Z</time><hdop>3.0</hdop><vdop>3.0</vdop><extensions><gom:speed>3.423</gom:speed></extensions></trkpt>
   <trkpt lat="59.0943393644" lon="29.9760162108"><ele>94.605</ele><time>2026-04-25T15:52:55.000Z</time><hdop>3.0</hdop><vdop>3.0</vdop><extensions><gom:speed>3.544</gom:speed></extensions></trkpt>
   <trkpt lat="59.0943702517" lon="29.9760157917"><ele>94.552</ele><time>2026-04-25T15:52:56.000Z</time><hdop>3.0</hdop><vdop>3.0</vdop><extensions><gom:speed>3.409</gom:speed></extensions></trkpt>
   <trkpt lat="59.0944015581" lon="29.9760171328"><ele>94.494</ele><time>2026-04-25T15:52:57.000Z</time><hdop>3.0</hdop><vdop>3.0</vdop><extensions><gom:speed>3.445</gom:speed></extensions></trkpt>
   <trkpt lat="59.0944326969" lon="29.976018893"><ele>94.436</ele><time>2026-04-25T15:52:58.000Z</time><hdop>3.0</hdop><vdop>3.0</vdop><extensions><gom:speed>3.433</gom:speed></extensions></trkpt>
   <trkpt lat="59.094463668" lon="29.976021659"><ele>94.378</ele><time>2026-04-25T15:52:59.000Z</time><hdop>3.0</hdop><vdop>3.0</vdop><extensions><gom:speed>3.431</gom:speed></extensions></trkpt>
   <trkpt lat="59.0944935495" lon="29.9760247603"><ele>94.329</ele><time>2026-04-25T15:53:00.000Z</time><hdop>3.0</hdop><vdop>3.0</vdop><extensions><gom:speed>3.31</gom:speed></extensions></trkpt>
   <trkpt lat="59.0945231795" lon="29.9760263529"><ele>94.254</ele><time>2026-04-25T15:53:01.000Z</time><hdop>3.0</hdop><vdop>3.0</vdop><extensions><gom:speed>3.186</gom:speed></extensions></trkpt>
   <trkpt lat="59.0945535639" lon="29.9760299571"><ele>94.165</ele><time>2026-04-25T15:53:02.000Z</time><hdop>3.0</hdop><vdop>3.0</vdop><extensions><gom:speed>3.121</gom:speed></extensions></trkpt>
   <trkpt lat="59.0945823977" lon="29.9760323041"><ele>94.134</ele><time>2026-04-25T15:53:03.000Z</time><hdop>3.0</hdop><vdop>3.0</vdop><extensions><gom:speed>3.189</gom:speed></extensions></trkpt>
   <trkpt lat="59.0946112734" lon="29.976034651"><ele>94.136</ele><time>2026-04-25T15:53:04.000Z</time><hdop>3.0</hdop><vdop>3.0</vdop><extensions><gom:speed>3.226</gom:speed></extensions></trkpt>
   <trkpt lat="59.094640149" lon="29.9760354892"><ele>94.147</ele><time>2026-04-25T15:53:05.000Z</time><hdop>3.0</hdop><vdop>3.0</vdop><extensions><gom:speed>3.044</gom:speed></extensions></trkpt>
   <trkpt lat="59.0946655043" lon="29.9760366626"><ele>94.187</ele><time>2026-04-25T15:53:06.000Z</time><hdop>3.0</hdop><vdop>3.0</vdop><extensions><gom:speed>2.623</gom:speed></extensions></trkpt>
   <trkpt lat="59.09468692" lon="29.9760360759"><ele>94.241</ele><time>2026-04-25T15:53:07.000Z</time><hdop>3.0</hdop><vdop>3.0</vdop><extensions><gom:speed>2.493</gom:speed></extensions></trkpt>
   <trkpt lat="59.0947075395" lon="29.9760329746"><ele>94.319</ele><time>2026-04-25T15:53:08.000Z</time><hdop>3.0</hdop><vdop>3.0</vdop><extensions><gom:speed>2.491</gom:speed></extensions></trkpt>
   <trkpt lat="59.0947075395" lon="29.9760329746"><ele>94.366</ele><time>2026-04-25T15:53:08.000Z</time><hdop>3.0</hdop><vdop>3.0</vdop><extensions><gom:speed>2.491</gom:speed></extensions></trkpt>
   <trkpt lat="59.0947302126" lon="29.976030963"><ele>94.422</ele><time>2026-04-25T15:53:09.000Z</time><hdop>3.0</hdop><vdop>3.0</vdop><extensions><gom:speed>2.489</gom:speed></extensions></trkpt>
   <trkpt lat="59.0947533047" lon="29.9760321364"><ele>94.47</ele><time>2026-04-25T15:53:10.000Z</time><hdop>3.0</hdop><vdop>3.0</vdop><extensions><gom:speed>2.545</gom:speed></extensions></trkpt>
   <trkpt lat="59.0947766064" lon="29.9760343995"><ele>94.532</ele><time>2026-04-25T15:53:11.000Z</time><hdop>3.0</hdop><vdop>3.0</vdop><extensions><gom:speed>2.813</gom:speed></extensions></trkpt>
   <trkpt lat="59.0948015006" lon="29.9760363274"><ele>94.606</ele><time>2026-04-25T15:53:12.000Z</time><hdop>3.0</hdop><vdop>3.0</vdop><extensions><gom:speed>2.999</gom:speed></extensions></trkpt>
   <trkpt lat="59.0948284066" lon="29.9760376685"><ele>94.699</ele><time>2026-04-25T15:53:13.000Z</time><hdop>3.0</hdop><vdop>3.0</vdop><extensions><gom:speed>3.118</gom:speed></extensions></trkpt>
   <trkpt lat="59.0948552706" lon="29.9760393449"><ele>94.789</ele><time>2026-04-25T15:53:14.000Z</time><hdop>3.0</hdop><vdop>3.0</vdop><extensions><gom:speed>3.007</gom:speed></extensions></trkpt>
   <trkpt lat="59.0948809192" lon="29.976039764"><ele>94.849</ele><time>2026-04-25T15:53:15.000Z</time><hdop>3.0</hdop><vdop>3.0</vdop><extensions><gom:speed>2.965</gom:speed></extensions></trkpt>
   <trkpt lat="59.0949052267" lon="29.9760363274"><ele>94.894</ele><time>2026-04-25T15:53:16.000Z</time><hdop>3.0</hdop><vdop>3.0</vdop><extensions><gom:speed>2.732</gom:speed></extensions></trkpt>
   <trkpt lat="59.0949284027" lon="29.9760318011"><ele>94.919</ele><time>2026-04-25T15:53:17.000Z</time><hdop>3.0</hdop><vdop>3.0</vdop><extensions><gom:speed>2.528</gom:speed></extensions></trkpt>
   <trkpt lat="59.0949525425" lon="29.9760268558"><ele>94.925</ele><time>2026-04-25T15:53:18.000Z</time><hdop>3.0</hdop><vdop>3.0</vdop><extensions><gom:speed>2.593</gom:speed></extensions></trkpt>
   <trkpt lat="59.0949754251" lon="29.9760245089"><ele>94.938</ele><time>2026-04-25T15:53:19.000Z</time><hdop>3.0</hdop><vdop>3.0</vdop><extensions><gom:speed>2.39</gom:speed></extensions></trkpt>
   <trkpt lat="59.0949954998" lon="29.9760214914"><ele>94.93</ele><time>2026-04-25T15:53:20.000Z</time><hdop>3.0</hdop><vdop>3.0</vdop><extensions><gom:speed>2.188</gom:speed></extensions></trkpt>
   <trkpt lat="59.0950142333" lon="29.976018893"><ele>94.945</ele><time>2026-04-25T15:53:21.000Z</time><hdop>3.0</hdop><vdop>3.0</vdop><extensions><gom:speed>1.951</gom:speed></extensions></trkpt>
   <trkpt lat="59.0950327574" lon="29.9760163784"><ele>94.997</ele><time>2026-04-25T15:53:22.000Z</time><hdop>3.0</hdop><vdop>3.0</vdop><extensions><gom:speed>1.962</gom:speed></extensions></trkpt>
   <trkpt lat="59.0950528739" lon="29.9760140315"><ele>95.044</ele><time>2026-04-25T15:53:23.000Z</time><hdop>3.0</hdop><vdop>3.0</vdop><extensions><gom:speed>2.162</gom:speed></extensions></trkpt>
   <trkpt lat="59.0950737449" lon="29.9760121875"><ele>95.022</ele><time>2026-04-25T15:53:24.000Z</time><hdop>3.0</hdop><vdop>3.0</vdop><extensions><gom:speed>2.306</gom:speed></extensions></trkpt>
   <trkpt lat="59.0950973818" lon="29.976013361"><ele>95.011</ele><time>2026-04-25T15:53:25.000Z</time><hdop>3.0</hdop><vdop>3.0</vdop><extensions><gom:speed>2.528</gom:speed></extensions></trkpt>
   <trkpt lat="59.0951222342" lon="29.9760157079"><ele>95.01</ele><time>2026-04-25T15:53:26.000Z</time><hdop>3.0</hdop><vdop>3.0</vdop><extensions><gom:speed>2.691</gom:speed></extensions></trkpt>
   <trkpt lat="59.0951478828" lon="29.9760154564"><ele>94.985</ele><time>2026-04-25T15:53:27.000Z</time><hdop>3.0</hdop><vdop>3.0</vdop><extensions><gom:speed>2.592</gom:speed></extensions></trkpt>
   <trkpt lat="59.0951728609" lon="29.9760149535"><ele>94.953</ele><time>2026-04-25T15:53:28.000Z</time><hdop>3.0</hdop><vdop>3.0</vdop><extensions><gom:speed>2.674</gom:speed></extensions></trkpt>
   <trkpt lat="59.0951728609" lon="29.9760149535"><ele>94.935</ele><time>2026-04-25T15:53:28.000Z</time><hdop>3.0</hdop><vdop>3.0</vdop><extensions><gom:speed>2.674</gom:speed></extensions></trkpt>
   <trkpt lat="59.0951993058" lon="29.9760109302"><ele>94.907</ele><time>2026-04-25T15:53:29.000Z</time><hdop>3.0</hdop><vdop>3.0</vdop><extensions><gom:speed>2.691</gom:speed></extensions></trkpt>
   <trkpt lat="59.0952267984" lon="29.9760074098"><ele>94.868</ele><time>2026-04-25T15:53:30.000Z</time><hdop>3.0</hdop><vdop>3.0</vdop><extensions><gom:speed>2.869</gom:speed></extensions></trkpt>
   <trkpt lat="59.0952547101" lon="29.9760013748"><ele>94.851</ele><time>2026-04-25T15:53:31.000Z</time><hdop>3.0</hdop><vdop>3.0</vdop><extensions><gom:speed>3.119</gom:speed></extensions></trkpt>
   <trkpt lat="59.0952829153" lon="29.9759975192"><ele>94.875</ele><time>2026-04-25T15:53:32.000Z</time><hdop>3.0</hdop><vdop>3.0</vdop><extensions><gom:speed>3.148</gom:speed></extensions></trkpt>
   <trkpt lat="59.0953151856" lon="29.9759940826"><ele>94.881</ele><time>2026-04-25T15:53:33.000Z</time><hdop>3.0</hdop><vdop>3.0</vdop><extensions><gom:speed>3.211</gom:speed></extensions></trkpt>
   <trkpt lat="59.0953459472" lon="29.9759920709"><ele>94.863</ele><time>2026-04-25T15:53:34.000Z</time><hdop>3.0</hdop><vdop>3.0</vdop><extensions><gom:speed>3.242</gom:speed></extensions></trkpt>
   <trkpt lat="59.0953759963" lon="29.9759900593"><ele>94.821</ele><time>2026-04-25T15:53:35.000Z</time><hdop>3.0</hdop><vdop>3.0</vdop><extensions><gom:speed>3.344</gom:speed></extensions></trkpt>
   <trkpt lat="59.0954069674" lon="29.975989724"><ele>94.768</ele><time>2026-04-25T15:53:36.000Z</time><hdop>3.0</hdop><vdop>3.0</vdop><extensions><gom:speed>3.325</gom:speed></extensions></trkpt>
   <trkpt lat="59.0954352144" lon="29.9759874609"><ele>94.662</ele><time>2026-04-25T15:53:37.000Z</time><hdop>3.0</hdop><vdop>3.0</vdop><extensions><gom:speed>3.143</gom:speed></extensions></trkpt>
   <trkpt lat="59.0954624556" lon="29.9759820126"><ele>94.525</ele><time>2026-04-25T15:53:38.000Z</time><hdop>3.0</hdop><vdop>3.0</vdop><extensions><gom:speed>3.19</gom:speed></extensions></trkpt>
   <trkpt lat="59.0954879366" lon="29.9759782408"><ele>94.427</ele><time>2026-04-25T15:53:39.000Z</time><hdop>3.0</hdop><vdop>3.0</vdop><extensions><gom:speed>3.04</gom:speed></extensions></trkpt>
   <trkpt lat="59.095513208" lon="29.9759757262"><ele>94.311</ele><time>2026-04-25T15:53:40.000Z</time><hdop>3.0</hdop><vdop>3.0</vdop><extensions><gom:speed>2.632</gom:speed></extensions></trkpt>
   <trkpt lat="59.095540575" lon="29.9759749718"><ele>94.185</ele><time>2026-04-25T15:53:41.000Z</time><hdop>3.0</hdop><vdop>3.0</vdop><extensions><gom:speed>3.13</gom:speed></extensions></trkpt>
   <trkpt lat="59.095540575" lon="29.9759749718"><ele>94.11</ele><time>2026-04-25T15:53:41.000Z</time><hdop>3.0</hdop><vdop>3.0</vdop><extensions><gom:speed>3.13</gom:speed></extensions></trkpt>
   <trkpt lat="59.095540575" lon="29.9759749718"><ele>94.065</ele><time>2026-04-25T15:53:41.000Z</time><hdop>3.0</hdop><vdop>3.0</vdop><extensions><gom:speed>3.13</gom:speed></extensions></trkpt>
   <trkpt lat="59.0955775811" lon="29.9759844434"><ele>93.71</ele><time>2026-04-25T15:53:42.000Z</time><hdop>3.0</hdop><vdop>3.0</vdop><extensions><gom:speed>3.34</gom:speed></extensions></trkpt>
   <trkpt lat="59.095608175" lon="29.9759872932"><ele>93.302</ele><time>2026-04-25T15:53:43.000Z</time><hdop>3.0</hdop><vdop>3.0</vdop><extensions><gom:speed>2.981</gom:speed></extensions></trkpt>
   <trkpt lat="59.0956363382" lon="29.9759905622"><ele>92.726</ele><time>2026-04-25T15:53:44.000Z</time><hdop>3.0</hdop><vdop>3.0</vdop><extensions><gom:speed>2.93</gom:speed></extensions></trkpt>
   <trkpt lat="59.0956660101" lon="29.9759941664"><ele>92.245</ele><time>2026-04-25T15:53:45.000Z</time><hdop>3.0</hdop><vdop>3.0</vdop><extensions><gom:speed>3.151</gom:speed></extensions></trkpt>
   <trkpt lat="59.0956967717" lon="29.976002213"><ele>91.832</ele><time>2026-04-25T15:53:46.000Z</time><hdop>3.0</hdop><vdop>3.0</vdop><extensions><gom:speed>2.953</gom:speed></extensions></trkpt>
  </trkseg>
 </trk>
 <trk>
  <type>TrackStyle_2196F3C8</type>
  <extensions>
   <gom:time>2026-04-25T10:14:52.887Z</gom:time>
   <line xmlns="http://www.topografix.com/GPX/gpx_style/0/2">
    <color>2196F3</color>
   </line>
  </extensions>
  <trkseg>
   <trkpt lat="59.0557961885" lon="29.9628111929"><ele>79.166</ele><time>2026-04-25T10:14:55.000Z</time><hdop>4.625</hdop><vdop>4.625</vdop><extensions><gom:speed>0.686</gom:speed></extensions></trkpt>
   <trkpt lat="59.0558024749" lon="29.9628220056"><ele>88.128</ele><time>2026-04-25T10:14:56.000Z</time><hdop>4.0</hdop><vdop>4.0</vdop><extensions><gom:speed>0.576</gom:speed></extensions></trkpt>
   <trkpt lat="59.0558085518" lon="29.9628280405"><ele>93.497</ele><time>2026-04-25T10:14:57.000Z</time><hdop>4.0</hdop><vdop>4.0</vdop><extensions><gom:speed>0.641</gom:speed></extensions></trkpt>
   <trkpt lat="59.0558136229" lon="29.9628324829"><ele>96.721</ele><time>2026-04-25T10:14:58.000Z</time><hdop>3.75</hdop><vdop>3.75</vdop><extensions><gom:speed>0.51</gom:speed></extensions></trkpt>
   <trkpt lat="59.0558207056" lon="29.9628401943"><ele>98.743</ele><time>2026-04-25T10:14:59.000Z</time><hdop>3.875</hdop><vdop>3.875</vdop><extensions><gom:speed>0.64</gom:speed></extensions></trkpt>
   <trkpt lat="59.0558282074" lon="29.9628474027"><ele>99.969</ele><time>2026-04-25T10:15:00.000Z</time><hdop>4.312</hdop><vdop>4.312</vdop><extensions><gom:speed>0.608</gom:speed></extensions></trkpt>
   <trkpt lat="59.0558361283" lon="29.9628559523"><ele>100.664</ele><time>2026-04-25T10:15:01.000Z</time><hdop>4.125</hdop><vdop>4.125</vdop><extensions><gom:speed>0.448</gom:speed></extensions></trkpt>
   <trkpt lat="59.0558431272" lon="29.9628586345"><ele>100.999</ele><time>2026-04-25T10:15:02.000Z</time><hdop>4.25</hdop><vdop>4.25</vdop><extensions><gom:speed>0.373</gom:speed></extensions></trkpt>
   <trkpt lat="59.055849204" lon="29.9628636636"><ele>101.215</ele><time>2026-04-25T10:15:03.000Z</time><hdop>4.187</hdop><vdop>4.187</vdop><extensions><gom:speed>0.506</gom:speed></extensions></trkpt>
   <trkpt lat="59.0558587594" lon="29.9628693633"><ele>101.368</ele><time>2026-04-25T10:15:04.000Z</time><hdop>4.5</hdop><vdop>4.5</vdop><extensions><gom:speed>0.981</gom:speed></extensions></trkpt>
   <trkpt lat="59.0558704522" lon="29.9628769908"><ele>101.363</ele><time>2026-04-25T10:15:05.000Z</time><hdop>4.25</hdop><vdop>4.25</vdop><extensions><gom:speed>1.065</gom:speed></extensions></trkpt>
   <trkpt lat="59.0558801752" lon="29.9628882226"><ele>101.337</ele><time>2026-04-25T10:15:06.000Z</time><hdop>4.25</hdop><vdop>4.25</vdop><extensions><gom:speed>1.134</gom:speed></extensions></trkpt>
   <trkpt lat="59.0558915326" lon="29.9629049026"><ele>101.228</ele><time>2026-04-25T10:15:07.000Z</time><hdop>4.25</hdop><vdop>4.25</vdop><extensions><gom:speed>1.198</gom:speed></extensions></trkpt>
   <trkpt lat="59.055903854" lon="29.9629151285"><ele>101.13</ele><time>2026-04-25T10:15:08.000Z</time><hdop>4.5</hdop><vdop>4.5</vdop><extensions><gom:speed>0.999</gom:speed></extensions></trkpt>
   <trkpt lat="59.0559138285" lon="29.9629219178"><ele>101.043</ele><time>2026-04-25T10:15:09.000Z</time><hdop>4.375</hdop><vdop>4.375</vdop><extensions><gom:speed>0.927</gom:speed></extensions></trkpt>
   <trkpt lat="59.0559212465" lon="29.9629246839"><ele>100.97</ele><time>2026-04-25T10:15:10.000Z</time><hdop>4.562</hdop><vdop>4.562</vdop><extensions><gom:speed>0.505</gom:speed></extensions></trkpt>
   <trkpt lat="59.0559283711" lon="29.9629266117"><ele>100.903</ele><time>2026-04-25T10:15:11.000Z</time><hdop>4.562</hdop><vdop>4.562</vdop><extensions><gom:speed>0.728</gom:speed></extensions></trkpt>
   <trkpt lat="59.0559368787" lon="29.9629308865"><ele>100.824</ele><time>2026-04-25T10:15:12.000Z</time><hdop>4.687</hdop><vdop>4.687</vdop><extensions><gom:speed>0.892</gom:speed></extensions></trkpt>
   <trkpt lat="59.0559368787" lon="29.9629308865"><ele>100.776</ele><time>2026-04-25T10:15:12.000Z</time><hdop>4.687</hdop><vdop>4.687</vdop><extensions><gom:speed>0.892</gom:speed></extensions></trkpt>
   <trkpt lat="59.0559468532" lon="29.9629365024"><ele>100.707</ele><time>2026-04-25T10:15:13.000Z</time><hdop>4.812</hdop><vdop>4.812</vdop><extensions><gom:speed>0.981</gom:speed></extensions></trkpt>
   <trkpt lat="59.0559588812" lon="29.9629421182"><ele>100.619</ele><time>2026-04-25T10:15:14.000Z</time><hdop>4.812</hdop><vdop>4.812</vdop><extensions><gom:speed>0.959</gom:speed></extensions></trkpt>
   <trkpt lat="59.0559696101" lon="29.9629573733"><ele>100.512</ele><time>2026-04-25T10:15:15.000Z</time><hdop>4.812</hdop><vdop>4.812</vdop><extensions><gom:speed>0.858</gom:speed></extensions></trkpt>
   <trkpt lat="59.0559786206" lon="29.9629710358"><ele>100.391</ele><time>2026-04-25T10:15:16.000Z</time><hdop>4.375</hdop><vdop>4.375</vdop><extensions><gom:speed>1.048</gom:speed></extensions></trkpt>
   <trkpt lat="59.0559881341" lon="29.9629854527"><ele>100.308</ele><time>2026-04-25T10:15:17.000Z</time><hdop>4.0</hdop><vdop>4.0</vdop><extensions><gom:speed>1.01</gom:speed></extensions></trkpt>
   <trkpt lat="59.0559980247" lon="29.9629974388"><ele>100.255</ele><time>2026-04-25T10:15:18.000Z</time><hdop>3.75</hdop><vdop>3.75</vdop><extensions><gom:speed>0.819</gom:speed></extensions></trkpt>
   <trkpt lat="59.0560057361" lon="29.9630130291"><ele>100.203</ele><time>2026-04-25T10:15:19.000Z</time><hdop>3.687</hdop><vdop>3.687</vdop><extensions><gom:speed>0.717</gom:speed></extensions></trkpt>
   <trkpt lat="59.0560170936" lon="29.9630423658"><ele>100.202</ele><time>2026-04-25T10:15:20.000Z</time><hdop>3.375</hdop><vdop>3.375</vdop><extensions><gom:speed>0.765</gom:speed></extensions></trkpt>
   <trkpt lat="59.0560257269" lon="29.9630535137"><ele>100.266</ele><time>2026-04-25T10:15:21.000Z</time><hdop>3.437</hdop><vdop>3.437</vdop><extensions><gom:speed>0.785</gom:speed></extensions></trkpt>
   <trkpt lat="59.0560344441" lon="29.9630623985"><ele>100.348</ele><time>2026-04-25T10:15:22.000Z</time><hdop>3.375</hdop><vdop>3.375</vdop><extensions><gom:speed>0.856</gom:speed></extensions></trkpt>
   <trkpt lat="59.0560447538" lon="29.963067763"><ele>100.377</ele><time>2026-04-25T10:15:23.000Z</time><hdop>3.375</hdop><vdop>3.375</vdop><extensions><gom:speed>0.822</gom:speed></extensions></trkpt>
   <trkpt lat="59.0560532615" lon="29.9630693555"><ele>100.376</ele><time>2026-04-25T10:15:24.000Z</time><hdop>3.125</hdop><vdop>3.125</vdop><extensions><gom:speed>0.74</gom:speed></extensions></trkpt>
   <trkpt lat="59.0560625654" lon="29.9630782403"><ele>100.391</ele><time>2026-04-25T10:15:25.000Z</time><hdop>3.562</hdop><vdop>3.562</vdop><extensions><gom:speed>0.759</gom:speed></extensions></trkpt>
   <trkpt lat="59.0560689775" lon="29.9630952556"><ele>100.379</ele><time>2026-04-25T10:15:26.000Z</time><hdop>3.625</hdop><vdop>3.625</vdop><extensions><gom:speed>0.755</gom:speed></extensions></trkpt>
   <trkpt lat="59.0560783653" lon="29.9631001171"><ele>100.341</ele><time>2026-04-25T10:15:27.000Z</time><hdop>3.687</hdop><vdop>3.687</vdop><extensions><gom:speed>0.839</gom:speed></extensions></trkpt>
   <trkpt lat="59.0560902676" lon="29.9630986922"><ele>100.24</ele><time>2026-04-25T10:15:28.000Z</time><hdop>3.812</hdop><vdop>3.812</vdop><extensions><gom:speed>0.944</gom:speed></extensions></trkpt>
   <trkpt lat="59.0561003259" lon="29.963089053"><ele>100.156</ele><time>2026-04-25T10:15:29.000Z</time><hdop>3.937</hdop><vdop>3.937</vdop><extensions><gom:speed>0.827</gom:speed></extensions></trkpt>
   <trkpt lat="59.0561108451" lon="29.9630816769"><ele>100.118</ele><time>2026-04-25T10:15:30.000Z</time><hdop>4.062</hdop><vdop>4.062</vdop><extensions><gom:speed>0.785</gom:speed></extensions></trkpt>
   <trkpt lat="59.0561214483" lon="29.9630788271"><ele>100.108</ele><time>2026-04-25T10:15:31.000Z</time><hdop>3.812</hdop><vdop>3.812</vdop><extensions><gom:speed>0.917</gom:speed></extensions></trkpt>
   <trkpt lat="59.0561342726" lon="29.9630836886"><ele>100.042</ele><time>2026-04-25T10:15:32.000Z</time><hdop>3.937</hdop><vdop>3.937</vdop><extensions><gom:speed>0.955</gom:speed></extensions></trkpt>
   <trkpt lat="59.0561342726" lon="29.9630836886"><ele>100.002</ele><time>2026-04-25T10:15:32.000Z</time><hdop>3.937</hdop><vdop>3.937</vdop><extensions><gom:speed>0.955</gom:speed></extensions></trkpt>
   <trkpt lat="59.056146133" lon="29.963085365"><ele>97.64</ele><time>2026-04-25T10:15:33.000Z</time><hdop>3.187</hdop><vdop>3.187</vdop><extensions><gom:speed>1.094</gom:speed></extensions></trkpt>
   <trkpt lat="59.0561563589" lon="29.9630996142"><ele>98.458</ele><time>2026-04-25T10:15:34.000Z</time><hdop>4.0</hdop><vdop>4.0</vdop><extensions><gom:speed>0.998</gom:speed></extensions></trkpt>
   <trkpt lat="59.0561660819" lon="29.9631067388"><ele>98.864</ele><time>2026-04-25T10:15:35.000Z</time><hdop>3.625</hdop><vdop>3.625</vdop><extensions><gom:speed>0.915</gom:speed></extensions></trkpt>
   <trkpt lat="59.0561720749" lon="29.9631039728"><ele>99.086</ele><time>2026-04-25T10:15:36.000Z</time><hdop>3.25</hdop><vdop>3.25</vdop><extensions><gom:speed>0.539</gom:speed></extensions></trkpt>
   <trkpt lat="59.0561744638" lon="29.9631017935"><ele>97.166</ele><time>2026-04-25T10:15:37.000Z</time><hdop>3.187</hdop><vdop>3.187</vdop><extensions><gom:speed>0.578</gom:speed></extensions></trkpt>
   <trkpt lat="59.0561752182" lon="29.9630965967"><ele>97.941</ele><time>2026-04-25T10:15:38.000Z</time><hdop>3.0</hdop><vdop>3.0</vdop><extensions><gom:speed>0.252</gom:speed></extensions></trkpt>
   <trkpt lat="59.056176685" lon="29.9630919028"><ele>98.411</ele><time>2026-04-25T10:15:39.000Z</time><hdop>3.0</hdop><vdop>3.0</vdop><extensions><gom:speed>0.546</gom:speed></extensions></trkpt>
   <trkpt lat="59.056182217" lon="29.9630888854"><ele>98.713</ele><time>2026-04-25T10:15:40.000Z</time><hdop>3.0</hdop><vdop>3.0</vdop><extensions><gom:speed>0.647</gom:speed></extensions></trkpt>
   <trkpt lat="59.0561867433" lon="29.9630974349"><ele>98.911</ele><time>2026-04-25T10:15:41.000Z</time><hdop>3.0</hdop><vdop>3.0</vdop><extensions><gom:speed>0.706</gom:speed></extensions></trkpt>
   <trkpt lat="59.056191982" lon="29.9631064035"><ele>99.02</ele><time>2026-04-25T10:15:42.000Z</time><hdop>3.0</hdop><vdop>3.0</vdop><extensions><gom:speed>0.7</gom:speed></extensions></trkpt>
   <trkpt lat="59.0561978493" lon="29.9631168809"><ele>99.07</ele><time>2026-04-25T10:15:43.000Z</time><hdop>3.0</hdop><vdop>3.0</vdop><extensions><gom:speed>0.86</gom:speed></extensions></trkpt>
   <trkpt lat="59.0562091649" lon="29.963123335"><ele>99.07</ele><time>2026-04-25T10:15:44.000Z</time><hdop>3.0</hdop><vdop>3.0</vdop><extensions><gom:speed>1.086</gom:speed></extensions></trkpt>
   <trkpt lat="59.0562230369" lon="29.9631271068"><ele>99.035</ele><time>2026-04-25T10:15:45.000Z</time><hdop>3.125</hdop><vdop>3.125</vdop><extensions><gom:speed>1.316</gom:speed></extensions></trkpt>
   <trkpt lat="59.0562362384" lon="29.9631285318"><ele>98.885</ele><time>2026-04-25T10:15:46.000Z</time><hdop>3.0</hdop><vdop>3.0</vdop><extensions><gom:speed>1.262</gom:speed></extensions></trkpt>
   <trkpt lat="59.0562493142" lon="29.9631300405"><ele>98.743</ele><time>2026-04-25T10:15:47.000Z</time><hdop>3.0</hdop><vdop>3.0</vdop><extensions><gom:speed>1.059</gom:speed></extensions></trkpt>
   <trkpt lat="59.056260965" lon="29.9631392606"><ele>98.56</ele><time>2026-04-25T10:15:48.000Z</time><hdop>3.0</hdop><vdop>3.0</vdop><extensions><gom:speed>0.966</gom:speed></extensions></trkpt>
   <trkpt lat="59.0562721549" lon="29.9631433677"><ele>98.381</ele><time>2026-04-25T10:15:49.000Z</time><hdop>3.0</hdop><vdop>3.0</vdop><extensions><gom:speed>0.909</gom:speed></extensions></trkpt>
   <trkpt lat="59.0562822551" lon="29.9631499894"><ele>98.226</ele><time>2026-04-25T10:15:50.000Z</time><hdop>3.0</hdop><vdop>3.0</vdop><extensions><gom:speed>1.041</gom:speed></extensions></trkpt>
   <trkpt lat="59.0562936125" lon="29.9631546833"><ele>98.098</ele><time>2026-04-25T10:15:51.000Z</time><hdop>3.0</hdop><vdop>3.0</vdop><extensions><gom:speed>1.011</gom:speed></extensions></trkpt>
   <trkpt lat="59.056302665" lon="29.9631596286"><ele>97.978</ele><time>2026-04-25T10:15:52.000Z</time><hdop>3.0</hdop><vdop>3.0</vdop><extensions><gom:speed>0.784</gom:speed></extensions></trkpt>
   <trkpt lat="59.056302665" lon="29.9631596286"><ele>97.907</ele><time>2026-04-25T10:15:52.000Z</time><hdop>3.0</hdop><vdop>3.0</vdop><extensions><gom:speed>0.784</gom:speed></extensions></trkpt>
   <trkpt lat="59.0563101249" lon="29.9631597124"><ele>97.82</ele><time>2026-04-25T10:15:53.000Z</time><hdop>3.0</hdop><vdop>3.0</vdop><extensions><gom:speed>0.725</gom:speed></extensions></trkpt>
   <trkpt lat="59.056323033" lon="29.963160383"><ele>96.529</ele><time>2026-04-25T10:15:54.000Z</time><hdop>4.687</hdop><vdop>4.687</vdop><extensions><gom:speed>1.242</gom:speed></extensions></trkpt>
   <trkpt lat="59.0563377433" lon="29.9631359078"><ele>95.558</ele><time>2026-04-25T10:15:55.000Z</time><hdop>4.687</hdop><vdop>4.687</vdop><extensions><gom:speed>0.643</gom:speed></extensions></trkpt>
   <trkpt lat="59.0563453289" lon="29.9631237541"><ele>94.985</ele><time>2026-04-25T10:15:56.000Z</time><hdop>4.187</hdop><vdop>4.187</vdop><extensions><gom:speed>0.59</gom:speed></extensions></trkpt>
   <trkpt lat="59.0563565187" lon="29.9631157074"><ele>94.752</ele><time>2026-04-25T10:15:57.000Z</time><hdop>2.5</hdop><vdop>2.5</vdop><extensions><gom:speed>0.476</gom:speed></extensions></trkpt>
   <trkpt lat="59.056360542" lon="29.963102967"><ele>94.617</ele><time>2026-04-25T10:15:58.000Z</time><hdop>1.187</hdop><vdop>1.187</vdop><extensions><gom:speed>0.519</gom:speed></extensions></trkpt>
   <trkpt lat="59.0563663256" lon="29.9631090019"><ele>94.302</ele><time>2026-04-25T10:15:59.000Z</time><hdop>1.187</hdop><vdop>1.187</vdop><extensions><gom:speed>0.704</gom:speed></extensions></trkpt>
   <trkpt lat="59.0563755037" lon="29.9631099239"><ele>94.113</ele><time>2026-04-25T10:16:00.000Z</time><hdop>1.187</hdop><vdop>1.187</vdop><extensions><gom:speed>0.599</gom:speed></extensions></trkpt>
   <trkpt lat="59.0563833827" lon="29.9631053977"><ele>94.031</ele><time>2026-04-25T10:16:01.000Z</time><hdop>1.125</hdop><vdop>1.125</vdop><extensions><gom:speed>0.717</gom:speed></extensions></trkpt>
   <trkpt lat="59.056392058" lon="29.9631012906"><ele>94.032</ele><time>2026-04-25T10:16:02.000Z</time><hdop>1.125</hdop><vdop>1.125</vdop><extensions><gom:speed>0.854</gom:speed></extensions></trkpt>
   <trkpt lat="59.0563992664" lon="29.9631034699"><ele>94.032</ele><time>2026-04-25T10:16:03.000Z</time><hdop>1.187</hdop><vdop>1.187</vdop><extensions><gom:speed>0.977</gom:speed></extensions></trkpt>
   <trkpt lat="59.0564114202" lon="29.9631073255"><ele>94.046</ele><time>2026-04-25T10:16:04.000Z</time><hdop>1.375</hdop><vdop>1.375</vdop><extensions><gom:speed>0.94</gom:speed></extensions></trkpt>
   <trkpt lat="59.0564172037" lon="29.9631159589"><ele>94.061</ele><time>2026-04-25T10:16:05.000Z</time><hdop>1.375</hdop><vdop>1.375</vdop><extensions><gom:speed>0.706</gom:speed></extensions></trkpt>
   <trkpt lat="59.0564229453" lon="29.9631178029"><ele>94.072</ele><time>2026-04-25T10:16:06.000Z</time><hdop>1.875</hdop><vdop>1.875</vdop><extensions><gom:speed>0.669</gom:speed></extensions></trkpt>
   <trkpt lat="59.0564329198" lon="29.9631102592"><ele>94.191</ele><time>2026-04-25T10:16:07.000Z</time><hdop>2.5</hdop><vdop>2.5</vdop><extensions><gom:speed>0.82</gom:speed></extensions></trkpt>
   <trkpt lat="59.0564445706" lon="29.9631120194"><ele>94.245</ele><time>2026-04-25T10:16:08.000Z</time><hdop>2.437</hdop><vdop>2.437</vdop><extensions><gom:speed>0.951</gom:speed></extensions></trkpt>
   <trkpt lat="59.0564553414" lon="29.9631100078"><ele>94.26</ele><time>2026-04-25T10:16:09.000Z</time><hdop>2.375</hdop><vdop>2.375</vdop><extensions><gom:speed>1.003</gom:speed></extensions></trkpt>
   <trkpt lat="59.0564679561" lon="29.9631140311"><ele>94.328</ele><time>2026-04-25T10:16:10.000Z</time><hdop>2.812</hdop><vdop>2.812</vdop><extensions><gom:speed>0.752</gom:speed></extensions></trkpt>
   <trkpt lat="59.056474494" lon="29.9631141149"><ele>94.37</ele><time>2026-04-25T10:16:11.000Z</time><hdop>3.062</hdop><vdop>3.062</vdop><extensions><gom:speed>0.82</gom:speed></extensions></trkpt>
   <trkpt lat="59.0564804452" lon="29.9631042242"><ele>94.391</ele><time>2026-04-25T10:16:12.000Z</time><hdop>2.937</hdop><vdop>2.937</vdop><extensions><gom:speed>0.588</gom:speed></extensions></trkpt>
   <trkpt lat="59.0564804452" lon="29.9631042242"><ele>94.404</ele><time>2026-04-25T10:16:12.000Z</time><hdop>2.937</hdop><vdop>2.937</vdop><extensions><gom:speed>0.588</gom:speed></extensions></trkpt>
   <trkpt lat="59.0564899586" lon="29.9631090857"><ele>94.376</ele><time>2026-04-25T10:16:13.000Z</time><hdop>3.0</hdop><vdop>3.0</vdop><extensions><gom:speed>0.882</gom:speed></extensions></trkpt>
   <trkpt lat="59.0564973347" lon="29.9631053139"><ele>94.358</ele><time>2026-04-25T10:16:14.000Z</time><hdop>3.5</hdop><vdop>3.5</vdop><extensions><gom:speed>0.102</gom:speed></extensions></trkpt>
   <trkpt lat="59.0564963708" lon="29.9631037213"><ele>94.348</ele><time>2026-04-25T10:16:15.000Z</time><hdop>3.75</hdop><vdop>3.75</vdop><extensions><gom:speed>0.396</gom:speed></extensions></trkpt>
   <trkpt lat="59.0565044174" lon="29.9631299567"><ele>94.399</ele><time>2026-04-25T10:16:16.000Z</time><hdop>3.562</hdop><vdop>3.562</vdop><extensions><gom:speed>0.545</gom:speed></extensions></trkpt>
   <trkpt lat="59.0565162778" lon="29.9631327227"><ele>94.303</ele><time>2026-04-25T10:16:17.000Z</time><hdop>3.187</hdop><vdop>3.187</vdop><extensions><gom:speed>0.572</gom:speed></extensions></trkpt>
   <trkpt lat="59.0565247435" lon="29.9631287832"><ele>94.225</ele><time>2026-04-25T10:16:18.000Z</time><hdop>3.5</hdop><vdop>3.5</vdop><extensions><gom:speed>0.748</gom:speed></extensions></trkpt>
   <trkpt lat="59.0565399148" lon="29.9631355726"><ele>94.063</ele><time>2026-04-25T10:16:19.000Z</time><hdop>2.875</hdop><vdop>2.875</vdop><extensions><gom:speed>0.553</gom:speed></extensions></trkpt>
   <trkpt lat="59.0565484643" lon="29.96313859"><ele>93.901</ele><time>2026-04-25T10:16:20.000Z</time><hdop>2.562</hdop><vdop>2.562</vdop><extensions><gom:speed>0.607</gom:speed></extensions></trkpt>
   <trkpt lat="59.0565534934" lon="29.9631346505"><ele>93.804</ele><time>2026-04-25T10:16:21.000Z</time><hdop>2.75</hdop><vdop>2.75</vdop><extensions><gom:speed>0.67</gom:speed></extensions></trkpt>
   <trkpt lat="59.056562965" lon="29.9631371651"><ele>93.742</ele><time>2026-04-25T10:16:22.000Z</time><hdop>2.875</hdop><vdop>2.875</vdop><extensions><gom:speed>0.716</gom:speed></extensions></trkpt>
   <trkpt lat="59.0565693352" lon="29.9631422781"><ele>93.708</ele><time>2026-04-25T10:16:23.000Z</time><hdop>2.437</hdop><vdop>2.437</vdop><extensions><gom:speed>0.626</gom:speed></extensions></trkpt>
   <trkpt lat="59.0565743225" lon="29.9631386739"><ele>93.687</ele><time>2026-04-25T10:16:24.000Z</time><hdop>3.0</hdop><vdop>3.0</vdop><extensions><gom:speed>0.498</gom:speed></extensions></trkpt>
   <trkpt lat="59.0565832911" lon="29.963142781"><ele>93.629</ele><time>2026-04-25T10:16:25.000Z</time><hdop>3.375</hdop><vdop>3.375</vdop><extensions><gom:speed>0.451</gom:speed></extensions></trkpt>
   <trkpt lat="59.0565852609" lon="29.9631474749"><ele>93.594</ele><time>2026-04-25T10:16:26.000Z</time><hdop>2.937</hdop><vdop>2.937</vdop><extensions><gom:speed>0.676</gom:speed></extensions></trkpt>
   <trkpt lat="59.0565955706" lon="29.9631618079"><ele>93.462</ele><time>2026-04-25T10:16:27.000Z</time><hdop>2.937</hdop><vdop>2.937</vdop><extensions><gom:speed>0.622</gom:speed></extensions></trkpt>
   <trkpt lat="59.0565995939" lon="29.9631751351"><ele>93.472</ele><time>2026-04-25T10:16:28.000Z</time><hdop>3.75</hdop><vdop>3.75</vdop><extensions><gom:speed>0.784</gom:speed></extensions></trkpt>
   <trkpt lat="59.056607892" lon="29.9631939944"><ele>93.516</ele><time>2026-04-25T10:16:29.000Z</time><hdop>3.375</hdop><vdop>3.375</vdop><extensions><gom:speed>0.673</gom:speed></extensions></trkpt>
   <trkpt lat="59.0566153938" lon="29.9632046394"><ele>93.462</ele><time>2026-04-25T10:16:30.000Z</time><hdop>2.812</hdop><vdop>2.812</vdop><extensions><gom:speed>0.47</gom:speed></extensions></trkpt>
   <trkpt lat="59.0566186208" lon="29.9632095848"><ele>93.431</ele><time>2026-04-25T10:16:31.000Z</time><hdop>3.0</hdop><vdop>3.0</vdop><extensions><gom:speed>0.49</gom:speed></extensions></trkpt>
   <trkpt lat="59.0566230213" lon="29.9632057291"><ele>93.312</ele><time>2026-04-25T10:16:32.000Z</time><hdop>3.312</hdop><vdop>3.312</vdop><extensions><gom:speed>0.71</gom:speed></extensions></trkpt>
   <trkpt lat="59.0566230213" lon="29.9632057291"><ele>93.24</ele><time>2026-04-25T10:16:32.000Z</time><hdop>3.312</hdop><vdop>3.312</vdop><extensions><gom:speed>0.71</gom:speed></extensions></trkpt>
   <trkpt lat="59.0566335825" lon="29.963213189"><ele>93.275</ele><time>2026-04-25T10:16:33.000Z</time><hdop>3.125</hdop><vdop>3.125</vdop><extensions><gom:speed>0.871</gom:speed></extensions></trkpt>
   <trkpt lat="59.0566449819" lon="29.9632109259"><ele>93.299</ele><time>2026-04-25T10:16:34.000Z</time><hdop>4.125</hdop><vdop>4.125</vdop><extensions><gom:speed>0.656</gom:speed></extensions></trkpt>
   <trkpt lat="59.0566540763" lon="29.9632160388"><ele>93.157</ele><time>2026-04-25T10:16:35.000Z</time><hdop>4.875</hdop><vdop>4.875</vdop><extensions><gom:speed>0.363</gom:speed></extensions></trkpt>
   <trkpt lat="59.0566638412" lon="29.9632228282"><ele>93.039</ele><time>2026-04-25T10:16:36.000Z</time><hdop>4.875</hdop><vdop>4.875</vdop><extensions><gom:speed>0.753</gom:speed></extensions></trkpt>
   <trkpt lat="59.0566727679" lon="29.9632261809"><ele>92.925</ele><time>2026-04-25T10:16:37.000Z</time><hdop>4.687</hdop><vdop>4.687</vdop><extensions><gom:speed>0.669</gom:speed></extensions></trkpt>
   <trkpt lat="59.0566791801" lon="29.9632361554"><ele>92.891</ele><time>2026-04-25T10:16:38.000Z</time><hdop>4.875</hdop><vdop>4.875</vdop><extensions><gom:speed>0.395</gom:speed></extensions></trkpt>
   <trkpt lat="59.0566867657" lon="29.9632486444"><ele>92.6</ele><time>2026-04-25T10:16:39.000Z</time><hdop>4.875</hdop><vdop>4.875</vdop><extensions><gom:speed>0.12</gom:speed></extensions></trkpt>
   <trkpt lat="59.0566904537" lon="29.9632541765"><ele>92.33</ele><time>2026-04-25T10:16:40.000Z</time><hdop>4.875</hdop><vdop>4.875</vdop><extensions><gom:speed>0.499</gom:speed></extensions></trkpt>
   <trkpt lat="59.0566896994" lon="29.9632554338"><ele>92.169</ele><time>2026-04-25T10:16:41.000Z</time><hdop>4.875</hdop><vdop>4.875</vdop><extensions><gom:speed>0.147</gom:speed></extensions></trkpt>
   <trkpt lat="59.0566920882" lon="29.9632676714"><ele>92.011</ele><time>2026-04-25T10:16:42.000Z</time><hdop>4.875</hdop><vdop>4.875</vdop><extensions><gom:speed>0.746</gom:speed></extensions></trkpt>
   <trkpt lat="59.0566920882" lon="29.9632676714"><ele>91.917</ele><time>2026-04-25T10:16:43.000Z</time><hdop>4.812</hdop><vdop>4.812</vdop><extensions><gom:speed>0.0</gom:speed></extensions></trkpt>
   <trkpt lat="59.0566920882" lon="29.9632676714"><ele>91.861</ele><time>2026-04-25T10:16:44.000Z</time><hdop>4.312</hdop><vdop>4.312</vdop><extensions><gom:speed>0.118</gom:speed></extensions></trkpt>
   <trkpt lat="59.0566920044" lon="29.9632762209"><ele>92.031</ele><time>2026-04-25T10:16:45.000Z</time><hdop>4.0</hdop><vdop>4.0</vdop><extensions><gom:speed>0.091</gom:speed></extensions></trkpt>
   <trkpt lat="59.0566916272" lon="29.9632753827"><ele>92.133</ele><time>2026-04-25T10:16:46.000Z</time><hdop>3.75</hdop><vdop>3.75</vdop><extensions><gom:speed>0.139</gom:speed></extensions></trkpt>
   <trkpt lat="59.0566905376" lon="29.9632748798"><ele>92.373</ele><time>2026-04-25T10:16:47.000Z</time><hdop>4.0</hdop><vdop>4.0</vdop><extensions><gom:speed>0.306</gom:speed></extensions></trkpt>
   <trkpt lat="59.0566987937" lon="29.9632740416"><ele>92.548</ele><time>2026-04-25T10:16:48.000Z</time><hdop>4.062</hdop><vdop>4.062</vdop><extensions><gom:speed>0.415</gom:speed></extensions></trkpt>
   <trkpt lat="59.0567001768" lon="29.9632732034"><ele>92.684</ele><time>2026-04-25T10:16:49.000Z</time><hdop>4.375</hdop><vdop>4.375</vdop><extensions><gom:speed>0.459</gom:speed></extensions></trkpt>
   <trkpt lat="59.0567024818" lon="29.963272449"><ele>92.876</ele><time>2026-04-25T10:16:50.000Z</time><hdop>4.25</hdop><vdop>4.25</vdop><extensions><gom:speed>0.512</gom:speed></extensions></trkpt>
   <trkpt lat="59.0567064213" lon="29.9632743769"><ele>93.057</ele><time>2026-04-25T10:16:51.000Z</time><hdop>3.812</hdop><vdop>3.812</vdop><extensions><gom:speed>0.548</gom:speed></extensions></trkpt>
   <trkpt lat="59.0567112828" lon="29.9632772267"><ele>93.165</ele><time>2026-04-25T10:16:52.000Z</time><hdop>3.562</hdop><vdop>3.562</vdop><extensions><gom:speed>0.657</gom:speed></extensions></trkpt>
   <trkpt lat="59.0567112828" lon="29.9632772267"><ele>93.23</ele><time>2026-04-25T10:16:52.000Z</time><hdop>3.562</hdop><vdop>3.562</vdop><extensions><gom:speed>0.657</gom:speed></extensions></trkpt>
   <trkpt lat="59.0567152223" lon="29.9632795737"><ele>94.144</ele><time>2026-04-25T10:16:53.000Z</time><hdop>3.0</hdop><vdop>3.0</vdop><extensions><gom:speed>0.164</gom:speed></extensions></trkpt>
   <trkpt lat="59.0567224307" lon="29.9632770591"><ele>94.772</ele><time>2026-04-25T10:16:54.000Z</time><hdop>3.0</hdop><vdop>3.0</vdop><extensions><gom:speed>0.22</gom:speed></extensions></trkpt>
   <trkpt lat="59.0567294715" lon="29.9632774782"><ele>95.104</ele><time>2026-04-25T10:16:55.000Z</time><hdop>3.0</hdop><vdop>3.0</vdop><extensions><gom:speed>0.389</gom:speed></extensions></trkpt>
   <trkpt lat="59.0567378953" lon="29.9632782325"><ele>95.234</ele><time>2026-04-25T10:16:56.000Z</time><hdop>3.0</hdop><vdop>3.0</vdop><extensions><gom:speed>0.495</gom:speed></extensions></trkpt>
   <trkpt lat="59.0567467382" lon="29.9632781487"><ele>95.282</ele><time>2026-04-25T10:16:57.000Z</time><hdop>3.0</hdop><vdop>3.0</vdop><extensions><gom:speed>0.62</gom:speed></extensions></trkpt>
   <trkpt lat="59.0567549944" lon="29.9632794898"><ele>95.313</ele><time>2026-04-25T10:16:58.000Z</time><hdop>3.0</hdop><vdop>3.0</vdop><extensions><gom:speed>0.723</gom:speed></extensions></trkpt>
   <trkpt lat="59.0567629153" lon="29.963279406"><ele>95.373</ele><time>2026-04-25T10:16:59.000Z</time><hdop>3.0</hdop><vdop>3.0</vdop><extensions><gom:speed>0.632</gom:speed></extensions></trkpt>
   <trkpt lat="59.0567718001" lon="29.9632823397"><ele>95.47</ele><time>2026-04-25T10:17:00.000Z</time><hdop>3.0</hdop><vdop>3.0</vdop><extensions><gom:speed>0.858</gom:speed></extensions></trkpt>
   <trkpt lat="59.0567832833" lon="29.9632864468"><ele>95.681</ele><time>2026-04-25T10:17:01.000Z</time><hdop>3.0</hdop><vdop>3.0</vdop><extensions><gom:speed>0.69</gom:speed></extensions></trkpt>
   <trkpt lat="59.0567900727" lon="29.9632911407"><ele>95.856</ele><time>2026-04-25T10:17:02.000Z</time><hdop>3.0</hdop><vdop>3.0</vdop><extensions><gom:speed>0.621</gom:speed></extensions></trkpt>
   <trkpt lat="59.0567984965" lon="29.9632956669"><ele>95.96</ele><time>2026-04-25T10:17:03.000Z</time><hdop>3.0</hdop><vdop>3.0</vdop><extensions><gom:speed>0.569</gom:speed></extensions></trkpt>
   <trkpt lat="59.0568067946" lon="29.9633005284"><ele>96.05</ele><time>2026-04-25T10:17:04.000Z</time><hdop>3.0</hdop><vdop>3.0</vdop><extensions><gom:speed>0.716</gom:speed></extensions></trkpt>
   <trkpt lat="59.0568139611" lon="29.963304887"><ele>96.118</ele><time>2026-04-25T10:17:05.000Z</time><hdop>3.0</hdop><vdop>3.0</vdop><extensions><gom:speed>0.641</gom:speed></extensions></trkpt>
   <trkpt lat="59.0568223849" lon="29.9633115087"><ele>96.25</ele><time>2026-04-25T10:17:06.000Z</time><hdop>3.0</hdop><vdop>3.0</vdop><extensions><gom:speed>0.649</gom:speed></extensions></trkpt>
   <trkpt lat="59.0568308087" lon="29.9633140233"><ele>96.289</ele><time>2026-04-25T10:17:07.000Z</time><hdop>3.0</hdop><vdop>3.0</vdop><extensions><gom:speed>0.765</gom:speed></extensions></trkpt>
   <trkpt lat="59.0568402384" lon="29.9633158673"><ele>96.31</ele><time>2026-04-25T10:17:08.000Z</time><hdop>3.0</hdop><vdop>3.0</vdop><extensions><gom:speed>0.617</gom:speed></extensions></trkpt>
   <trkpt lat="59.0568494585" lon="29.963315532"><ele>96.313</ele><time>2026-04-25T10:17:09.000Z</time><hdop>3.0</hdop><vdop>3.0</vdop><extensions><gom:speed>0.749</gom:speed></extensions></trkpt>
   <trkpt lat="59.0568616541" lon="29.9633194715"><ele>96.305</ele><time>2026-04-25T10:17:10.000Z</time><hdop>3.0</hdop><vdop>3.0</vdop><extensions><gom:speed>0.913</gom:speed></extensions></trkpt>
   <trkpt lat="59.0568782922" lon="29.963322489"><ele>95.283</ele><time>2026-04-25T10:17:11.000Z</time><hdop>2.937</hdop><vdop>2.937</vdop><extensions><gom:speed>1.139</gom:speed></extensions></trkpt>
   <trkpt lat="59.056889482" lon="29.9633191362"><ele>94.694</ele><time>2026-04-25T10:17:12.000Z</time><hdop>3.0</hdop><vdop>3.0</vdop><extensions><gom:speed>1.037</gom:speed></extensions></trkpt>
   <trkpt lat="59.056889482" lon="29.9633191362"><ele>94.343</ele><time>2026-04-25T10:17:12.000Z</time><hdop>3.0</hdop><vdop>3.0</vdop><extensions><gom:speed>1.037</gom:speed></extensions></trkpt>
   <trkpt lat="59.0569026835" lon="29.9633135204"><ele>94.158</ele><time>2026-04-25T10:17:13.000Z</time><hdop>2.812</hdop><vdop>2.812</vdop><extensions><gom:speed>0.842</gom:speed></extensions></trkpt>
   <trkpt lat="59.0569104787" lon="29.9632794898"><ele>93.971</ele><time>2026-04-25T10:17:14.000Z</time><hdop>2.437</hdop><vdop>2.437</vdop><extensions><gom:speed>0.65</gom:speed></extensions></trkpt>
   <trkpt lat="59.0569181481" lon="29.9632613011"><ele>93.863</ele><time>2026-04-25T10:17:15.000Z</time><hdop>2.375</hdop><vdop>2.375</vdop><extensions><gom:speed>0.645</gom:speed></extensions></trkpt>
   <trkpt lat="59.0569339061" lon="29.9632657435"><ele>93.817</ele><time>2026-04-25T10:17:16.000Z</time><hdop>2.187</hdop><vdop>2.187</vdop><extensions><gom:speed>0.314</gom:speed></extensions></trkpt>
   <trkpt lat="59.0569410727" lon="29.9632701021"><ele>93.786</ele><time>2026-04-25T10:17:17.000Z</time><hdop>1.437</hdop><vdop>1.437</vdop><extensions><gom:speed>0.178</gom:speed></extensions></trkpt>
   <trkpt lat="59.0569508376" lon="29.9632682581"><ele>93.641</ele><time>2026-04-25T10:17:18.000Z</time><hdop>1.562</hdop><vdop>1.562</vdop><extensions><gom:speed>0.42</gom:speed></extensions></trkpt>
   <trkpt lat="59.0569670985" lon="29.9632418551"><ele>93.411</ele><time>2026-04-25T10:17:19.000Z</time><hdop>1.625</hdop><vdop>1.625</vdop><extensions><gom:speed>0.496</gom:speed></extensions></trkpt>
   <trkpt lat="59.0569761928" lon="29.9632400111"><ele>93.146</ele><time>2026-04-25T10:17:20.000Z</time><hdop>2.062</hdop><vdop>2.062</vdop><extensions><gom:speed>0.476</gom:speed></extensions></trkpt>
   <trkpt lat="59.0569846166" lon="29.9632452917"><ele>93.017</ele><time>2026-04-25T10:17:21.000Z</time><hdop>1.875</hdop><vdop>1.875</vdop><extensions><gom:speed>0.312</gom:speed></extensions></trkpt>
   <trkpt lat="59.0569925794" lon="29.9632454593"><ele>93.106</ele><time>2026-04-25T10:17:22.000Z</time><hdop>2.25</hdop><vdop>2.25</vdop><extensions><gom:speed>0.014</gom:speed></extensions></trkpt>
   <trkpt lat="59.0569932081" lon="29.9632441182"><ele>93.16</ele><time>2026-04-25T10:17:23.000Z</time><hdop>2.562</hdop><vdop>2.562</vdop><extensions><gom:speed>0.103</gom:speed></extensions></trkpt>
   <trkpt lat="59.0569989916" lon="29.9632456269"><ele>93.248</ele><time>2026-04-25T10:17:24.000Z</time><hdop>3.0</hdop><vdop>3.0</vdop><extensions><gom:speed>0.652</gom:speed></extensions></trkpt>
   <trkpt lat="59.0570005842" lon="29.9632471357"><ele>93.247</ele><time>2026-04-25T10:17:25.000Z</time><hdop>3.25</hdop><vdop>3.25</vdop><extensions><gom:speed>0.248</gom:speed></extensions></trkpt>
   <trkpt lat="59.0570069963" lon="29.9632470519"><ele>93.243</ele><time>2026-04-25T10:17:26.000Z</time><hdop>3.187</hdop><vdop>3.187</vdop><extensions><gom:speed>0.352</gom:speed></extensions></trkpt>
   <trkpt lat="59.0570151268" lon="29.963246046"><ele>93.308</ele><time>2026-04-25T10:17:27.000Z</time><hdop>3.25</hdop><vdop>3.25</vdop><extensions><gom:speed>0.333</gom:speed></extensions></trkpt>
   <trkpt lat="59.057018731" lon="29.9632472195"><ele>93.405</ele><time>2026-04-25T10:17:28.000Z</time><hdop>3.5</hdop><vdop>3.5</vdop><extensions><gom:speed>0.294</gom:speed></extensions></trkpt>
   <trkpt lat="59.0570226705" lon="29.9632510752"><ele>93.599</ele><time>2026-04-25T10:17:29.000Z</time><hdop>3.5</hdop><vdop>3.5</vdop><extensions><gom:speed>0.237</gom:speed></extensions></trkpt>
   <trkpt lat="59.0570287474" lon="29.9632486444"><ele>93.779</ele><time>2026-04-25T10:17:30.000Z</time><hdop>3.562</hdop><vdop>3.562</vdop><extensions><gom:speed>0.605</gom:speed></extensions></trkpt>
   <trkpt lat="59.0570397277" lon="29.963253003"><ele>93.908</ele><time>2026-04-25T10:17:31.000Z</time><hdop>4.312</hdop><vdop>4.312</vdop><extensions><gom:speed>0.736</gom:speed></extensions></trkpt>
   <trkpt lat="59.0570487801" lon="29.9632503208"><ele>94.078</ele><time>2026-04-25T10:17:32.000Z</time><hdop>4.375</hdop><vdop>4.375</vdop><extensions><gom:speed>0.713</gom:speed></extensions></trkpt>
   <trkpt lat="59.0570487801" lon="29.9632503208"><ele>94.181</ele><time>2026-04-25T10:17:32.000Z</time><hdop>4.375</hdop><vdop>4.375</vdop><extensions><gom:speed>0.713</gom:speed></extensions></trkpt>
   <trkpt lat="59.0570554856" lon="29.9632444535"><ele>94.237</ele><time>2026-04-25T10:17:33.000Z</time><hdop>3.812</hdop><vdop>3.812</vdop><extensions><gom:speed>0.541</gom:speed></extensions></trkpt>
   <trkpt lat="59.0570626102" lon="29.9632491473"><ele>94.378</ele><time>2026-04-25T10:17:34.000Z</time><hdop>3.625</hdop><vdop>3.625</vdop><extensions><gom:speed>0.245</gom:speed></extensions></trkpt>
   <trkpt lat="59.057069651" lon="29.963255769"><ele>94.589</ele><time>2026-04-25T10:17:35.000Z</time><hdop>3.187</hdop><vdop>3.187</vdop><extensions><gom:speed>0.205</gom:speed></extensions></trkpt>
   <trkpt lat="59.0570753927" lon="29.9632516619"><ele>94.741</ele><time>2026-04-25T10:17:36.000Z</time><hdop>2.812</hdop><vdop>2.812</vdop><extensions><gom:speed>0.257</gom:speed></extensions></trkpt>
   <trkpt lat="59.0570758117" lon="29.9632424418"><ele>94.823</ele><time>2026-04-25T10:17:37.000Z</time><hdop>3.125</hdop><vdop>3.125</vdop><extensions><gom:speed>0.512</gom:speed></extensions></trkpt>
   <trkpt lat="59.0570787454" lon="29.9632348981"><ele>94.875</ele><time>2026-04-25T10:17:38.000Z</time><hdop>3.812</hdop><vdop>3.812</vdop><extensions><gom:speed>0.417</gom:speed></extensions></trkpt>
   <trkpt lat="59.0570849061" lon="29.9632285279"><ele>94.82</ele><time>2026-04-25T10:17:39.000Z</time><hdop>4.25</hdop><vdop>4.25</vdop><extensions><gom:speed>0.625</gom:speed></extensions></trkpt>
   <trkpt lat="59.0570865825" lon="29.9632305395"><ele>94.754</ele><time>2026-04-25T10:17:40.000Z</time><hdop>4.125</hdop><vdop>4.125</vdop><extensions><gom:speed>0.404</gom:speed></extensions></trkpt>
   <trkpt lat="59.0570916955" lon="29.9632297851"><ele>94.736</ele><time>2026-04-25T10:17:41.000Z</time><hdop>4.0</hdop><vdop>4.0</vdop><extensions><gom:speed>0.07</gom:speed></extensions></trkpt>
   <trkpt lat="59.0570931204" lon="29.9632338923"><ele>94.673</ele><time>2026-04-25T10:17:42.000Z</time><hdop>3.75</hdop><vdop>3.75</vdop><extensions><gom:speed>0.363</gom:speed></extensions></trkpt>
   <trkpt lat="59.0570943358" lon="29.9632392567"><ele>94.619</ele><time>2026-04-25T10:17:43.000Z</time><hdop>3.75</hdop><vdop>3.75</vdop><extensions><gom:speed>0.17</gom:speed></extensions></trkpt>
   <trkpt lat="59.0570942938" lon="29.9632367421"><ele>94.532</ele><time>2026-04-25T10:17:44.000Z</time><hdop>3.375</hdop><vdop>3.375</vdop><extensions><gom:speed>0.35</gom:speed></extensions></trkpt>
   <trkpt lat="59.0570999935" lon="29.9632294499"><ele>94.335</ele><time>2026-04-25T10:17:45.000Z</time><hdop>3.5</hdop><vdop>3.5</vdop><extensions><gom:speed>0.42</gom:speed></extensions></trkpt>
   <trkpt lat="59.0571051903" lon="29.9632229958"><ele>94.188</ele><time>2026-04-25T10:17:46.000Z</time><hdop>3.562</hdop><vdop>3.562</vdop><extensions><gom:speed>0.441</gom:speed></extensions></trkpt>
   <trkpt lat="59.0571070343" lon="29.9632166256"><ele>94.099</ele><time>2026-04-25T10:17:47.000Z</time><hdop>3.562</hdop><vdop>3.562</vdop><extensions><gom:speed>0.423</gom:speed></extensions></trkpt>
   <trkpt lat="59.0571139913" lon="29.9632142786"><ele>94.046</ele><time>2026-04-25T10:17:48.000Z</time><hdop>3.187</hdop><vdop>3.187</vdop><extensions><gom:speed>0.5</gom:speed></extensions></trkpt>
   <trkpt lat="59.0571203616" lon="29.9632117641"><ele>94.039</ele><time>2026-04-25T10:17:49.000Z</time><hdop>3.187</hdop><vdop>3.187</vdop><extensions><gom:speed>0.447</gom:speed></extensions></trkpt>
   <trkpt lat="59.0571241753" lon="29.9632100877"><ele>94.035</ele><time>2026-04-25T10:17:50.000Z</time><hdop>3.5</hdop><vdop>3.5</vdop><extensions><gom:speed>0.499</gom:speed></extensions></trkpt>
   <trkpt lat="59.0571305875" lon="29.9632079084"><ele>94.088</ele><time>2026-04-25T10:17:51.000Z</time><hdop>3.437</hdop><vdop>3.437</vdop><extensions><gom:speed>0.505</gom:speed></extensions></trkpt>
   <trkpt lat="59.0571347784" lon="29.963204388"><ele>94.181</ele><time>2026-04-25T10:17:52.000Z</time><hdop>3.437</hdop><vdop>3.437</vdop><extensions><gom:speed>0.452</gom:speed></extensions></trkpt>
   <trkpt lat="59.0571347784" lon="29.963204388"><ele>94.236</ele><time>2026-04-25T10:17:52.000Z</time><hdop>3.437</hdop><vdop>3.437</vdop><extensions><gom:speed>0.452</gom:speed></extensions></trkpt>
   <trkpt lat="59.0571383407" lon="29.9631922342"><ele>94.184</ele><time>2026-04-25T10:17:53.000Z</time><hdop>3.625</hdop><vdop>3.625</vdop><extensions><gom:speed>0.596</gom:speed></extensions></trkpt>
   <trkpt lat="59.0571448786" lon="29.9631836009"><ele>94.158</ele><time>2026-04-25T10:17:54.000Z</time><hdop>3.812</hdop><vdop>3.812</vdop><extensions><gom:speed>0.664</gom:speed></extensions></trkpt>
   <trkpt lat="59.0571534282" lon="29.9631766439"><ele>94.104</ele><time>2026-04-25T10:17:55.000Z</time><hdop>3.937</hdop><vdop>3.937</vdop><extensions><gom:speed>0.441</gom:speed></extensions></trkpt>
   <trkpt lat="59.0571574515" lon="29.9631655798"><ele>94.117</ele><time>2026-04-25T10:17:56.000Z</time><hdop>4.0</hdop><vdop>4.0</vdop><extensions><gom:speed>0.605</gom:speed></extensions></trkpt>
   <trkpt lat="59.0571666716" lon="29.9631597124"><ele>94.168</ele><time>2026-04-25T10:17:57.000Z</time><hdop>4.062</hdop><vdop>4.062</vdop><extensions><gom:speed>0.471</gom:speed></extensions></trkpt>
   <trkpt lat="59.057174341" lon="29.9631490674"><ele>94.135</ele><time>2026-04-25T10:17:58.000Z</time><hdop>4.062</hdop><vdop>4.062</vdop><extensions><gom:speed>0.522</gom:speed></extensions></trkpt>
   <trkpt lat="59.0571834354" lon="29.963142781"><ele>94.011</ele><time>2026-04-25T10:17:59.000Z</time><hdop>3.875</hdop><vdop>3.875</vdop><extensions><gom:speed>0.668</gom:speed></extensions></trkpt>
   <trkpt lat="59.0571903924" lon="29.9631407693"><ele>93.756</ele><time>2026-04-25T10:18:00.000Z</time><hdop>3.875</hdop><vdop>3.875</vdop><extensions><gom:speed>0.728</gom:speed></extensions></trkpt>
   <trkpt lat="59.0571986904" lon="29.9631375842"><ele>93.4</ele><time>2026-04-25T10:18:01.000Z</time><hdop>4.0</hdop><vdop>4.0</vdop><extensions><gom:speed>0.751</gom:speed></extensions></trkpt>
   <trkpt lat="59.0572037196" lon="29.9631350696"><ele>93.186</ele><time>2026-04-25T10:18:02.000Z</time><hdop>4.125</hdop><vdop>4.125</vdop><extensions><gom:speed>0.646</gom:speed></extensions></trkpt>
   <trkpt lat="59.0572161248" lon="29.9631385062"><ele>93.064</ele><time>2026-04-25T10:18:03.000Z</time><hdop>4.5</hdop><vdop>4.5</vdop><extensions><gom:speed>0.806</gom:speed></extensions></trkpt>
   <trkpt lat="59.0572347326" lon="29.9631441221"><ele>92.884</ele><time>2026-04-25T10:18:04.000Z</time><hdop>4.75</hdop><vdop>4.75</vdop><extensions><gom:speed>0.882</gom:speed></extensions></trkpt>
   <trkpt lat="59.0572516222" lon="29.9631565273"><ele>92.762</ele><time>2026-04-25T10:18:05.000Z</time><hdop>4.812</hdop><vdop>4.812</vdop><extensions><gom:speed>0.89</gom:speed></extensions></trkpt>
   <trkpt lat="59.057263734" lon="29.9631675914"><ele>92.716</ele><time>2026-04-25T10:18:06.000Z</time><hdop>4.687</hdop><vdop>4.687</vdop><extensions><gom:speed>1.021</gom:speed></extensions></trkpt>
   <trkpt lat="59.0572746305" lon="29.963180751"><ele>92.659</ele><time>2026-04-25T10:18:07.000Z</time><hdop>4.75</hdop><vdop>4.75</vdop><extensions><gom:speed>0.958</gom:speed></extensions></trkpt>
   <trkpt lat="59.0572830543" lon="29.9631947488"><ele>92.725</ele><time>2026-04-25T10:18:08.000Z</time><hdop>4.187</hdop><vdop>4.187</vdop><extensions><gom:speed>0.767</gom:speed></extensions></trkpt>
   <trkpt lat="59.0572919391" lon="29.9632096686"><ele>92.701</ele><time>2026-04-25T10:18:09.000Z</time><hdop>3.75</hdop><vdop>3.75</vdop><extensions><gom:speed>1.291</gom:speed></extensions></trkpt>
   <trkpt lat="59.0572969683" lon="29.9632181343"><ele>92.72</ele><time>2026-04-25T10:18:10.000Z</time><hdop>3.687</hdop><vdop>3.687</vdop><extensions><gom:speed>0.477</gom:speed></extensions></trkpt>
   <trkpt lat="59.0572990218" lon="29.9632258457"><ele>92.848</ele><time>2026-04-25T10:18:11.000Z</time><hdop>3.562</hdop><vdop>3.562</vdop><extensions><gom:speed>0.604</gom:speed></extensions></trkpt>
   <trkpt lat="59.0572999019" lon="29.9632367421"><ele>92.951</ele><time>2026-04-25T10:18:12.000Z</time><hdop>3.437</hdop><vdop>3.437</vdop><extensions><gom:speed>0.518</gom:speed></extensions></trkpt>
   <trkpt lat="59.0572999019" lon="29.9632367421"><ele>93.012</ele><time>2026-04-25T10:18:12.000Z</time><hdop>3.437</hdop><vdop>3.437</vdop><extensions><gom:speed>0.518</gom:speed></extensions></trkpt>
   <trkpt lat="59.057302626" lon="29.9632426095"><ele>92.984</ele><time>2026-04-25T10:18:13.000Z</time><hdop>3.812</hdop><vdop>3.812</vdop><extensions><gom:speed>0.484</gom:speed></extensions></trkpt>
   <trkpt lat="59.0573081162" lon="29.9632475548"><ele>92.858</ele><time>2026-04-25T10:18:14.000Z</time><hdop>4.062</hdop><vdop>4.062</vdop><extensions><gom:speed>0.648</gom:speed></extensions></trkpt>
   <trkpt lat="59.0573133549" lon="29.9632576969"><ele>92.703</ele><time>2026-04-25T10:18:15.000Z</time><hdop>4.062</hdop><vdop>4.062</vdop><extensions><gom:speed>0.808</gom:speed></extensions></trkpt>
   <trkpt lat="59.0573218206" lon="29.9632695992"><ele>92.635</ele><time>2026-04-25T10:18:16.000Z</time><hdop>4.312</hdop><vdop>4.312</vdop><extensions><gom:speed>0.895</gom:speed></extensions></trkpt>
   <trkpt lat="59.0573353574" lon="29.9632746283"><ele>92.493</ele><time>2026-04-25T10:18:17.000Z</time><hdop>4.312</hdop><vdop>4.312</vdop><extensions><gom:speed>0.866</gom:speed></extensions></trkpt>
   <trkpt lat="59.057348056" lon="29.963282675"><ele>92.287</ele><time>2026-04-25T10:18:18.000Z</time><hdop>4.0</hdop><vdop>4.0</vdop><extensions><gom:speed>0.762</gom:speed></extensions></trkpt>
   <trkpt lat="59.0573575694" lon="29.9632789031"><ele>92.109</ele><time>2026-04-25T10:18:19.000Z</time><hdop>4.187</hdop><vdop>4.187</vdop><extensions><gom:speed>0.646</gom:speed></extensions></trkpt>
   <trkpt lat="59.0573649455" lon="29.9632784002"><ele>91.944</ele><time>2026-04-25T10:18:20.000Z</time><hdop>4.25</hdop><vdop>4.25</vdop><extensions><gom:speed>0.758</gom:speed></extensions></trkpt>
   <trkpt lat="59.0573699746" lon="29.9632825073"><ele>91.836</ele><time>2026-04-25T10:18:21.000Z</time><hdop>4.187</hdop><vdop>4.187</vdop><extensions><gom:speed>0.584</gom:speed></extensions></trkpt>
   <trkpt lat="59.0573762611" lon="29.9632893805"><ele>91.686</ele><time>2026-04-25T10:18:22.000Z</time><hdop>4.312</hdop><vdop>4.312</vdop><extensions><gom:speed>0.77</gom:speed></extensions></trkpt>
   <trkpt lat="59.0573814998" lon="29.9632975947"><ele>91.596</ele><time>2026-04-25T10:18:23.000Z</time><hdop>4.562</hdop><vdop>4.562</vdop><extensions><gom:speed>0.89</gom:speed></extensions></trkpt>
   <trkpt lat="59.0573890016" lon="29.9633080721"><ele>91.547</ele><time>2026-04-25T10:18:24.000Z</time><hdop>4.812</hdop><vdop>4.812</vdop><extensions><gom:speed>0.933</gom:speed></extensions></trkpt>
   <trkpt lat="59.0573975092" lon="29.963318298"><ele>91.484</ele><time>2026-04-25T10:18:25.000Z</time><hdop>4.687</hdop><vdop>4.687</vdop><extensions><gom:speed>0.827</gom:speed></extensions></trkpt>
   <trkpt lat="59.0574063102" lon="29.9633199744"><ele>91.393</ele><time>2026-04-25T10:18:26.000Z</time><hdop>4.812</hdop><vdop>4.812</vdop><extensions><gom:speed>0.806</gom:speed></extensions></trkpt>
   <trkpt lat="59.0574094534" lon="29.9633283563"><ele>91.339</ele><time>2026-04-25T10:18:27.000Z</time><hdop>4.437</hdop><vdop>4.437</vdop><extensions><gom:speed>0.672</gom:speed></extensions></trkpt>
   <trkpt lat="59.0574125547" lon="29.9633413483"><ele>91.258</ele><time>2026-04-25T10:18:28.000Z</time><hdop>4.187</hdop><vdop>4.187</vdop><extensions><gom:speed>0.581</gom:speed></extensions></trkpt>
   <trkpt lat="59.0574168714" lon="29.9633505684"><ele>91.25</ele><time>2026-04-25T10:18:29.000Z</time><hdop>4.0</hdop><vdop>4.0</vdop><extensions><gom:speed>0.493</gom:speed></extensions></trkpt>
   <trkpt lat="59.057422152" lon="29.9633581121"><ele>91.264</ele><time>2026-04-25T10:18:30.000Z</time><hdop>4.187</hdop><vdop>4.187</vdop><extensions><gom:speed>0.621</gom:speed></extensions></trkpt>
   <trkpt lat="59.0574255886" lon="29.9633675836"><ele>91.261</ele><time>2026-04-25T10:18:31.000Z</time><hdop>4.375</hdop><vdop>4.375</vdop><extensions><gom:speed>0.59</gom:speed></extensions></trkpt>
   <trkpt lat="59.0574307853" lon="29.9633690924"><ele>91.259</ele><time>2026-04-25T10:18:32.000Z</time><hdop>4.5</hdop><vdop>4.5</vdop><extensions><gom:speed>0.754</gom:speed></extensions></trkpt>
   <trkpt lat="59.0574307853" lon="29.9633690924"><ele>91.258</ele><time>2026-04-25T10:18:32.000Z</time><hdop>4.5</hdop><vdop>4.5</vdop><extensions><gom:speed>0.754</gom:speed></extensions></trkpt>
   <trkpt lat="59.0574420171" lon="29.9633739539"><ele>91.225</ele><time>2026-04-25T10:18:33.000Z</time><hdop>4.5</hdop><vdop>4.5</vdop><extensions><gom:speed>0.762</gom:speed></extensions></trkpt>
   <trkpt lat="59.0574522849" lon="29.9633717746"><ele>91.262</ele><time>2026-04-25T10:18:34.000Z</time><hdop>4.187</hdop><vdop>4.187</vdop><extensions><gom:speed>0.809</gom:speed></extensions></trkpt>
   <trkpt lat="59.0574614212" lon="29.9633811623"><ele>91.188</ele><time>2026-04-25T10:18:35.000Z</time><hdop>3.75</hdop><vdop>3.75</vdop><extensions><gom:speed>0.808</gom:speed></extensions></trkpt>
   <trkpt lat="59.057469384" lon="29.9633866944"><ele>91.168</ele><time>2026-04-25T10:18:36.000Z</time><hdop>3.187</hdop><vdop>3.187</vdop><extensions><gom:speed>0.345</gom:speed></extensions></trkpt>
   <trkpt lat="59.0574715633" lon="29.9633946572"><ele>91.139</ele><time>2026-04-25T10:18:37.000Z</time><hdop>3.312</hdop><vdop>3.312</vdop><extensions><gom:speed>0.315</gom:speed></extensions></trkpt>
   <trkpt lat="59.0574714376" lon="29.9633973394"><ele>91.124</ele><time>2026-04-25T10:18:38.000Z</time><hdop>3.5</hdop><vdop>3.5</vdop><extensions><gom:speed>0.18</gom:speed></extensions></trkpt>
   <trkpt lat="59.0574718148" lon="29.9634003569"><ele>91.072</ele><time>2026-04-25T10:18:39.000Z</time><hdop>3.5</hdop><vdop>3.5</vdop><extensions><gom:speed>0.256</gom:speed></extensions></trkpt>
   <trkpt lat="59.057478185" lon="29.9634113372"><ele>91.002</ele><time>2026-04-25T10:18:40.000Z</time><hdop>3.687</hdop><vdop>3.687</vdop><extensions><gom:speed>0.217</gom:speed></extensions></trkpt>
   <trkpt lat="59.0574782688" lon="29.963414187"><ele>90.96</ele><time>2026-04-25T10:18:41.000Z</time><hdop>4.187</hdop><vdop>4.187</vdop><extensions><gom:speed>0.009</gom:speed></extensions></trkpt>
   <trkpt lat="59.0574780174" lon="29.9634143547"><ele>90.935</ele><time>2026-04-25T10:18:42.000Z</time><hdop>4.562</hdop><vdop>4.562</vdop><extensions><gom:speed>0.059</gom:speed></extensions></trkpt>
   <trkpt lat="59.0574852677" lon="29.9634343874"><ele>93.34</ele><time>2026-04-25T10:18:43.000Z</time><hdop>3.0</hdop><vdop>3.0</vdop><extensions><gom:speed>0.0</gom:speed></extensions></trkpt>
   <trkpt lat="59.0574961223" lon="29.9634659872"><ele>94.777</ele><time>2026-04-25T10:18:44.000Z</time><hdop>3.0</hdop><vdop>3.0</vdop><extensions><gom:speed>0.0</gom:speed></extensions></trkpt>
   <trkpt lat="59.0575055519" lon="29.963494318"><ele>95.635</ele><time>2026-04-25T10:18:45.000Z</time><hdop>3.0</hdop><vdop>3.0</vdop><extensions><gom:speed>0.0</gom:speed></extensions></trkpt>
   <trkpt lat="59.0575103715" lon="29.9635093216"><ele>96.148</ele><time>2026-04-25T10:18:46.000Z</time><hdop>3.0</hdop><vdop>3.0</vdop><extensions><gom:speed>0.0</gom:speed></extensions></trkpt>
   <trkpt lat="59.0575086532" lon="29.9635171168"><ele>96.535</ele><time>2026-04-25T10:18:47.000Z</time><hdop>3.0</hdop><vdop>3.0</vdop><extensions><gom:speed>0.324</gom:speed></extensions></trkpt>
   <trkpt lat="59.057505049" lon="29.9635227327"><ele>96.796</ele><time>2026-04-25T10:18:48.000Z</time><hdop>3.0</hdop><vdop>3.0</vdop><extensions><gom:speed>0.428</gom:speed></extensions></trkpt>
   <trkpt lat="59.0575002294" lon="29.963526756"><ele>96.969</ele><time>2026-04-25T10:18:49.000Z</time><hdop>3.0</hdop><vdop>3.0</vdop><extensions><gom:speed>0.434</gom:speed></extensions></trkpt>
   <trkpt lat="59.057498092" lon="29.9635286"><ele>97.087</ele><time>2026-04-25T10:18:50.000Z</time><hdop>3.0</hdop><vdop>3.0</vdop><extensions><gom:speed>0.36</gom:speed></extensions></trkpt>
   <trkpt lat="59.0574933563" lon="29.9635311146"><ele>97.256</ele><time>2026-04-25T10:18:51.000Z</time><hdop>3.0</hdop><vdop>3.0</vdop><extensions><gom:speed>0.521</gom:speed></extensions></trkpt>
   <trkpt lat="59.0574882433" lon="29.9635362275"><ele>97.378</ele><time>2026-04-25T10:18:52.000Z</time><hdop>3.0</hdop><vdop>3.0</vdop><extensions><gom:speed>0.753</gom:speed></extensions></trkpt>
   <trkpt lat="59.0574882433" lon="29.9635362275"><ele>97.45</ele><time>2026-04-25T10:18:52.000Z</time><hdop>3.0</hdop><vdop>3.0</vdop><extensions><gom:speed>0.753</gom:speed></extensions></trkpt>
   <trkpt lat="59.0574825436" lon="29.9635435198"><ele>97.56</ele><time>2026-04-25T10:18:53.000Z</time><hdop>3.0</hdop><vdop>3.0</vdop><extensions><gom:speed>0.502</gom:speed></extensions></trkpt>
   <trkpt lat="59.0574799871" lon="29.9635473755"><ele>97.641</ele><time>2026-04-25T10:18:54.000Z</time><hdop>3.0</hdop><vdop>3.0</vdop><extensions><gom:speed>0.275</gom:speed></extensions></trkpt>
   <trkpt lat="59.0574799871" lon="29.9635473755"><ele>97.689</ele><time>2026-04-25T10:18:55.000Z</time><hdop>3.0</hdop><vdop>3.0</vdop><extensions><gom:speed>0.0</gom:speed></extensions></trkpt>
   <trkpt lat="59.0574799871" lon="29.9635473755"><ele>97.718</ele><time>2026-04-25T10:18:56.000Z</time><hdop>3.0</hdop><vdop>3.0</vdop><extensions><gom:speed>0.0</gom:speed></extensions></trkpt>
   <trkpt lat="59.0574799871" lon="29.9635473755"><ele>97.736</ele><time>2026-04-25T10:18:57.000Z</time><hdop>3.0</hdop><vdop>3.0</vdop><extensions><gom:speed>0.0</gom:speed></extensions></trkpt>
   <trkpt lat="59.0574825436" lon="29.9635465373"><ele>97.784</ele><time>2026-04-25T10:18:58.000Z</time><hdop>3.0</hdop><vdop>3.0</vdop><extensions><gom:speed>0.222</gom:speed></extensions></trkpt>
   <trkpt lat="59.0574879499" lon="29.9635381554"><ele>97.827</ele><time>2026-04-25T10:18:59.000Z</time><hdop>3.0</hdop><vdop>3.0</vdop><extensions><gom:speed>0.356</gom:speed></extensions></trkpt>
   <trkpt lat="59.0574936077" lon="29.9635316175"><ele>97.784</ele><time>2026-04-25T10:19:00.000Z</time><hdop>3.0</hdop><vdop>3.0</vdop><extensions><gom:speed>0.469</gom:speed></extensions></trkpt>
   <trkpt lat="59.0575000618" lon="29.9635296058"><ele>97.685</ele><time>2026-04-25T10:19:01.000Z</time><hdop>3.0</hdop><vdop>3.0</vdop><extensions><gom:speed>0.513</gom:speed></extensions></trkpt>
   <trkpt lat="59.0575071445" lon="29.9635322042"><ele>97.59</ele><time>2026-04-25T10:19:02.000Z</time><hdop>3.0</hdop><vdop>3.0</vdop><extensions><gom:speed>0.501</gom:speed></extensions></trkpt>
   <trkpt lat="59.0575137662" lon="29.9635366466"><ele>97.525</ele><time>2026-04-25T10:19:03.000Z</time><hdop>3.0</hdop><vdop>3.0</vdop><extensions><gom:speed>0.495</gom:speed></extensions></trkpt>
   <trkpt lat="59.0575209327" lon="29.963537401"><ele>97.499</ele><time>2026-04-25T10:19:04.000Z</time><hdop>3.0</hdop><vdop>3.0</vdop><extensions><gom:speed>0.584</gom:speed></extensions></trkpt>
   <trkpt lat="59.0575268" lon="29.9635368981"><ele>97.446</ele><time>2026-04-25T10:19:05.000Z</time><hdop>3.0</hdop><vdop>3.0</vdop><extensions><gom:speed>0.407</gom:speed></extensions></trkpt>
   <trkpt lat="59.0575334217" lon="29.9635357246"><ele>97.416</ele><time>2026-04-25T10:19:06.000Z</time><hdop>3.0</hdop><vdop>3.0</vdop><extensions><gom:speed>0.467</gom:speed></extensions></trkpt>
   <trkpt lat="59.0575429771" lon="29.9635350541"><ele>97.4</ele><time>2026-04-25T10:19:07.000Z</time><hdop>3.0</hdop><vdop>3.0</vdop><extensions><gom:speed>0.597</gom:speed></extensions></trkpt>
   <trkpt lat="59.0575541251" lon="29.9635352217"><ele>97.387</ele><time>2026-04-25T10:19:08.000Z</time><hdop>3.0</hdop><vdop>3.0</vdop><extensions><gom:speed>0.75</gom:speed></extensions></trkpt>
   <trkpt lat="59.0575652311" lon="29.9635400832"><ele>97.401</ele><time>2026-04-25T10:19:09.000Z</time><hdop>3.125</hdop><vdop>3.125</vdop><extensions><gom:speed>0.677</gom:speed></extensions></trkpt>
   <trkpt lat="59.057573613" lon="29.9635506444"><ele>97.467</ele><time>2026-04-25T10:19:10.000Z</time><hdop>3.312</hdop><vdop>3.312</vdop><extensions><gom:speed>0.524</gom:speed></extensions></trkpt>
   <trkpt lat="59.0575822463" lon="29.9635606189"><ele>97.561</ele><time>2026-04-25T10:19:11.000Z</time><hdop>3.562</hdop><vdop>3.562</vdop><extensions><gom:speed>0.494</gom:speed></extensions></trkpt>
   <trkpt lat="59.057589329" lon="29.9635706772"><ele>97.614</ele><time>2026-04-25T10:19:12.000Z</time><hdop>3.625</hdop><vdop>3.625</vdop><extensions><gom:speed>0.568</gom:speed></extensions></trkpt>
   <trkpt lat="59.057589329" lon="29.9635706772"><ele>97.645</ele><time>2026-04-25T10:19:12.000Z</time><hdop>3.625</hdop><vdop>3.625</vdop><extensions><gom:speed>0.568</gom:speed></extensions></trkpt>
   <trkpt lat="59.0575977529" lon="29.9635828309"><ele>97.679</ele><time>2026-04-25T10:19:13.000Z</time><hdop>3.562</hdop><vdop>3.562</vdop><extensions><gom:speed>0.821</gom:speed></extensions></trkpt>
   <trkpt lat="59.0576052966" lon="29.9635950685"><ele>97.728</ele><time>2026-04-25T10:19:14.000Z</time><hdop>3.437</hdop><vdop>3.437</vdop><extensions><gom:speed>0.715</gom:speed></extensions></trkpt>
   <trkpt lat="59.0576123374" lon="29.9636049591"><ele>97.75</ele><time>2026-04-25T10:19:15.000Z</time><hdop>3.375</hdop><vdop>3.375</vdop><extensions><gom:speed>0.667</gom:speed></extensions></trkpt>
   <trkpt lat="59.0576194201" lon="29.9636151012"><ele>97.751</ele><time>2026-04-25T10:19:16.000Z</time><hdop>3.187</hdop><vdop>3.187</vdop><extensions><gom:speed>0.639</gom:speed></extensions></trkpt>
   <trkpt lat="59.0576272572" lon="29.9636182025"><ele>97.723</ele><time>2026-04-25T10:19:17.000Z</time><hdop>3.125</hdop><vdop>3.125</vdop><extensions><gom:speed>0.361</gom:speed></extensions></trkpt>
   <trkpt lat="59.0576315319" lon="29.963620298"><ele>97.698</ele><time>2026-04-25T10:19:18.000Z</time><hdop>3.0</hdop><vdop>3.0</vdop><extensions><gom:speed>0.45</gom:speed></extensions></trkpt>
   <trkpt lat="59.0576374831" lon="29.9636197113"><ele>97.753</ele><time>2026-04-25T10:19:19.000Z</time><hdop>3.0</hdop><vdop>3.0</vdop><extensions><gom:speed>0.486</gom:speed></extensions></trkpt>
   <trkpt lat="59.0576452782" lon="29.9636178673"><ele>97.798</ele><time>2026-04-25T10:19:20.000Z</time><hdop>3.0</hdop><vdop>3.0</vdop><extensions><gom:speed>0.574</gom:speed></extensions></trkpt>
   <trkpt lat="59.0576520676" lon="29.963618454"><ele>97.839</ele><time>2026-04-25T10:19:21.000Z</time><hdop>3.0</hdop><vdop>3.0</vdop><extensions><gom:speed>0.571</gom:speed></extensions></trkpt>
   <trkpt lat="59.0576549593" lon="29.9636259977"><ele>97.872</ele><time>2026-04-25T10:19:22.000Z</time><hdop>3.0</hdop><vdop>3.0</vdop><extensions><gom:speed>0.507</gom:speed></extensions></trkpt>
   <trkpt lat="59.0576624192" lon="29.963622645"><ele>97.821</ele><time>2026-04-25T10:19:23.000Z</time><hdop>3.0</hdop><vdop>3.0</vdop><extensions><gom:speed>0.695</gom:speed></extensions></trkpt>
   <trkpt lat="59.0576715974" lon="29.9636236508"><ele>97.749</ele><time>2026-04-25T10:19:24.000Z</time><hdop>3.0</hdop><vdop>3.0</vdop><extensions><gom:speed>0.587</gom:speed></extensions></trkpt>
   <trkpt lat="59.0576790573" lon="29.9636273388"><ele>97.706</ele><time>2026-04-25T10:19:25.000Z</time><hdop>3.0</hdop><vdop>3.0</vdop><extensions><gom:speed>0.373</gom:speed></extensions></trkpt>
   <trkpt lat="59.0576790573" lon="29.9636273388"><ele>97.68</ele><time>2026-04-25T10:19:26.000Z</time><hdop>3.0</hdop><vdop>3.0</vdop><extensions><gom:speed>0.0</gom:speed></extensions></trkpt>
   <trkpt lat="59.0576853437" lon="29.9636333738"><ele>97.69</ele><time>2026-04-25T10:19:27.000Z</time><hdop>3.0</hdop><vdop>3.0</vdop><extensions><gom:speed>0.245</gom:speed></extensions></trkpt>
   <trkpt lat="59.0576938933" lon="29.9636395764"><ele>97.727</ele><time>2026-04-25T10:19:28.000Z</time><hdop>3.0</hdop><vdop>3.0</vdop><extensions><gom:speed>0.36</gom:speed></extensions></trkpt>
   <trkpt lat="59.0577019818" lon="29.9636450246"><ele>97.782</ele><time>2026-04-25T10:19:29.000Z</time><hdop>3.0</hdop><vdop>3.0</vdop><extensions><gom:speed>0.543</gom:speed></extensions></trkpt>
   <trkpt lat="59.0577091064" lon="29.9636507243"><ele>97.857</ele><time>2026-04-25T10:19:30.000Z</time><hdop>3.0</hdop><vdop>3.0</vdop><extensions><gom:speed>0.651</gom:speed></extensions></trkpt>
   <trkpt lat="59.0577176979" lon="29.9636549153"><ele>97.915</ele><time>2026-04-25T10:19:31.000Z</time><hdop>3.0</hdop><vdop>3.0</vdop><extensions><gom:speed>0.697</gom:speed></extensions></trkpt>
   <trkpt lat="59.0577255769" lon="29.9636591062"><ele>97.948</ele><time>2026-04-25T10:19:32.000Z</time><hdop>3.0</hdop><vdop>3.0</vdop><extensions><gom:speed>0.613</gom:speed></extensions></trkpt>
   <trkpt lat="59.0577255769" lon="29.9636591062"><ele>97.968</ele><time>2026-04-25T10:19:32.000Z</time><hdop>3.0</hdop><vdop>3.0</vdop><extensions><gom:speed>0.613</gom:speed></extensions></trkpt>
   <trkpt lat="59.0577342521" lon="29.9636628781"><ele>98.007</ele><time>2026-04-25T10:19:33.000Z</time><hdop>3.0</hdop><vdop>3.0</vdop><extensions><gom:speed>0.639</gom:speed></extensions></trkpt>
   <trkpt lat="59.0577420892" lon="29.963667572"><ele>98.045</ele><time>2026-04-25T10:19:34.000Z</time><hdop>3.0</hdop><vdop>3.0</vdop><extensions><gom:speed>0.515</gom:speed></extensions></trkpt>
   <trkpt lat="59.0577478308" lon="29.9636751995"><ele>98.057</ele><time>2026-04-25T10:19:35.000Z</time><hdop>3.0</hdop><vdop>3.0</vdop><extensions><gom:speed>0.458</gom:speed></extensions></trkpt>
   <trkpt lat="59.0577574281" lon="29.9636786361"><ele>98.113</ele><time>2026-04-25T10:19:36.000Z</time><hdop>3.0</hdop><vdop>3.0</vdop><extensions><gom:speed>0.482</gom:speed></extensions></trkpt>
   <trkpt lat="59.0577654328" lon="29.9636824079"><ele>98.157</ele><time>2026-04-25T10:19:37.000Z</time><hdop>3.0</hdop><vdop>3.0</vdop><extensions><gom:speed>0.735</gom:speed></extensions></trkpt>
   <trkpt lat="59.0577742338" lon="29.9636814021"><ele>98.152</ele><time>2026-04-25T10:19:38.000Z</time><hdop>3.0</hdop><vdop>3.0</vdop><extensions><gom:speed>0.803</gom:speed></extensions></trkpt>
   <trkpt lat="59.0577831606" lon="29.9636796419"><ele>98.13</ele><time>2026-04-25T10:19:39.000Z</time><hdop>3.0</hdop><vdop>3.0</vdop><extensions><gom:speed>0.651</gom:speed></extensions></trkpt>
   <trkpt lat="59.057792674" lon="29.9636805639"><ele>98.066</ele><time>2026-04-25T10:19:40.000Z</time><hdop>3.0</hdop><vdop>3.0</vdop><extensions><gom:speed>0.543</gom:speed></extensions></trkpt>
   <trkpt lat="59.05780378" lon="29.9636797257"><ele>97.986</ele><time>2026-04-25T10:19:41.000Z</time><hdop>3.0</hdop><vdop>3.0</vdop><extensions><gom:speed>0.765</gom:speed></extensions></trkpt>
   <trkpt lat="59.0578168139" lon="29.9636808992"><ele>97.902</ele><time>2026-04-25T10:19:42.000Z</time><hdop>3.0</hdop><vdop>3.0</vdop><extensions><gom:speed>0.935</gom:speed></extensions></trkpt>
   <trkpt lat="59.0578287581" lon="29.9636834976"><ele>97.821</ele><time>2026-04-25T10:19:43.000Z</time><hdop>3.0</hdop><vdop>3.0</vdop><extensions><gom:speed>0.893</gom:speed></extensions></trkpt>
   <trkpt lat="59.0578387326" lon="29.9636875209"><ele>97.763</ele><time>2026-04-25T10:19:44.000Z</time><hdop>3.0</hdop><vdop>3.0</vdop><extensions><gom:speed>0.747</gom:speed></extensions></trkpt>
   <trkpt lat="59.057847324" lon="29.9636918795"><ele>97.848</ele><time>2026-04-25T10:19:45.000Z</time><hdop>3.0</hdop><vdop>3.0</vdop><extensions><gom:speed>0.57</gom:speed></extensions></trkpt>
   <trkpt lat="59.0578562508" lon="29.9636912927"><ele>97.906</ele><time>2026-04-25T10:19:46.000Z</time><hdop>3.0</hdop><vdop>3.0</vdop><extensions><gom:speed>0.606</gom:speed></extensions></trkpt>
   <trkpt lat="59.0578651356" lon="29.9636939749"><ele>97.919</ele><time>2026-04-25T10:19:47.000Z</time><hdop>3.0</hdop><vdop>3.0</vdop><extensions><gom:speed>0.564</gom:speed></extensions></trkpt>
   <trkpt lat="59.0578787981" lon="29.9636973277"><ele>97.993</ele><time>2026-04-25T10:19:48.000Z</time><hdop>3.0</hdop><vdop>3.0</vdop><extensions><gom:speed>0.508</gom:speed></extensions></trkpt>
   <trkpt lat="59.0578860903" lon="29.9637016863"><ele>98.014</ele><time>2026-04-25T10:19:49.000Z</time><hdop>3.0</hdop><vdop>3.0</vdop><extensions><gom:speed>0.45</gom:speed></extensions></trkpt>
   <trkpt lat="59.0578949332" lon="29.9637027759"><ele>98.018</ele><time>2026-04-25T10:19:50.000Z</time><hdop>3.0</hdop><vdop>3.0</vdop><extensions><gom:speed>0.532</gom:speed></extensions></trkpt>
   <trkpt lat="59.0579022255" lon="29.9637038656"><ele>98.034</ele><time>2026-04-25T10:19:51.000Z</time><hdop>3.0</hdop><vdop>3.0</vdop><extensions><gom:speed>0.382</gom:speed></extensions></trkpt>
   <trkpt lat="59.0579104398" lon="29.96370923"><ele>98.073</ele><time>2026-04-25T10:19:52.000Z</time><hdop>3.0</hdop><vdop>3.0</vdop><extensions><gom:speed>0.434</gom:speed></extensions></trkpt>
   <trkpt lat="59.0579196179" lon="29.9637190368"><ele>98.074</ele><time>2026-04-25T10:19:53.000Z</time><hdop>3.0</hdop><vdop>3.0</vdop><extensions><gom:speed>0.53</gom:speed></extensions></trkpt>
   <trkpt lat="59.0579308078" lon="29.9637285922"><ele>98.102</ele><time>2026-04-25T10:19:54.000Z</time><hdop>3.0</hdop><vdop>3.0</vdop><extensions><gom:speed>0.735</gom:speed></extensions></trkpt>
   <trkpt lat="59.0579420395" lon="29.963734711"><ele>98.139</ele><time>2026-04-25T10:19:55.000Z</time><hdop>3.0</hdop><vdop>3.0</vdop><extensions><gom:speed>0.678</gom:speed></extensions></trkpt>
   <trkpt lat="59.0579420395" lon="29.963734711"><ele>98.16</ele><time>2026-04-25T10:19:55.000Z</time><hdop>3.0</hdop><vdop>3.0</vdop><extensions><gom:speed>0.678</gom:speed></extensions></trkpt>
   <trkpt lat="59.0579518464" lon="29.9637326155"><ele>98.156</ele><time>2026-04-25T10:19:56.000Z</time><hdop>3.0</hdop><vdop>3.0</vdop><extensions><gom:speed>0.656</gom:speed></extensions></trkpt>
   <trkpt lat="59.0579518464" lon="29.9637326155"><ele>98.153</ele><time>2026-04-25T10:19:56.000Z</time><hdop>3.0</hdop><vdop>3.0</vdop><extensions><gom:speed>0.656</gom:speed></extensions></trkpt>
   <trkpt lat="59.0579600187" lon="29.9637290113"><ele>98.175</ele><time>2026-04-25T10:19:57.000Z</time><hdop>3.0</hdop><vdop>3.0</vdop><extensions><gom:speed>0.583</gom:speed></extensions></trkpt>
   <trkpt lat="59.0579657184" lon="29.9637254909"><ele>98.164</ele><time>2026-04-25T10:19:58.000Z</time><hdop>3.0</hdop><vdop>3.0</vdop><extensions><gom:speed>0.465</gom:speed></extensions></trkpt>
   <trkpt lat="59.0579716696" lon="29.9637265806"><ele>98.193</ele><time>2026-04-25T10:19:59.000Z</time><hdop>3.0</hdop><vdop>3.0</vdop><extensions><gom:speed>0.362</gom:speed></extensions></trkpt>
   <trkpt lat="59.0579764892" lon="29.963724066"><ele>98.21</ele><time>2026-04-25T10:20:00.000Z</time><hdop>3.0</hdop><vdop>3.0</vdop><extensions><gom:speed>0.411</gom:speed></extensions></trkpt>
   <trkpt lat="59.0579810573" lon="29.9637252394"><ele>98.264</ele><time>2026-04-25T10:20:01.000Z</time><hdop>3.0</hdop><vdop>3.0</vdop><extensions><gom:speed>0.334</gom:speed></extensions></trkpt>
   <trkpt lat="59.0579868827" lon="29.9637288437"><ele>98.312</ele><time>2026-04-25T10:20:02.000Z</time><hdop>3.0</hdop><vdop>3.0</vdop><extensions><gom:speed>0.359</gom:speed></extensions></trkpt>
   <trkpt lat="59.0579910737" lon="29.9637346272"><ele>98.346</ele><time>2026-04-25T10:20:03.000Z</time><hdop>3.0</hdop><vdop>3.0</vdop><extensions><gom:speed>0.376</gom:speed></extensions></trkpt>
   <trkpt lat="59.0580001261" lon="29.9637428414"><ele>98.446</ele><time>2026-04-25T10:20:04.000Z</time><hdop>3.0</hdop><vdop>3.0</vdop><extensions><gom:speed>0.5</gom:speed></extensions></trkpt>
   <trkpt lat="59.0580060773" lon="29.9637488764"><ele>98.535</ele><time>2026-04-25T10:20:05.000Z</time><hdop>3.0</hdop><vdop>3.0</vdop><extensions><gom:speed>0.518</gom:speed></extensions></trkpt>
   <trkpt lat="59.0580133695" lon="29.9637531512"><ele>98.633</ele><time>2026-04-25T10:20:06.000Z</time><hdop>3.0</hdop><vdop>3.0</vdop><extensions><gom:speed>0.629</gom:speed></extensions></trkpt>
   <trkpt lat="59.0580204522" lon="29.9637544085"><ele>98.665</ele><time>2026-04-25T10:20:07.000Z</time><hdop>3.0</hdop><vdop>3.0</vdop><extensions><gom:speed>0.692</gom:speed></extensions></trkpt>
   <trkpt lat="59.0580303848" lon="29.9637586832"><ele>98.762</ele><time>2026-04-25T10:20:08.000Z</time><hdop>3.0</hdop><vdop>3.0</vdop><extensions><gom:speed>0.69</gom:speed></extensions></trkpt>
   <trkpt lat="59.0580371322" lon="29.9637639638"><ele>98.922</ele><time>2026-04-25T10:20:09.000Z</time><hdop>3.0</hdop><vdop>3.0</vdop><extensions><gom:speed>0.498</gom:speed></extensions></trkpt>
   <trkpt lat="59.0580427481" lon="29.9637642991"><ele>99.027</ele><time>2026-04-25T10:20:10.000Z</time><hdop>3.0</hdop><vdop>3.0</vdop><extensions><gom:speed>0.277</gom:speed></extensions></trkpt>
   <trkpt lat="59.0580495374" lon="29.9637703341"><ele>99.137</ele><time>2026-04-25T10:20:11.000Z</time><hdop>3.0</hdop><vdop>3.0</vdop><extensions><gom:speed>0.369</gom:speed></extensions></trkpt>
   <trkpt lat="59.0580580032" lon="29.9637751956"><ele>99.246</ele><time>2026-04-25T10:20:12.000Z</time><hdop>3.0</hdop><vdop>3.0</vdop><extensions><gom:speed>0.434</gom:speed></extensions></trkpt>
   <trkpt lat="59.0580635771" lon="29.9637766205"><ele>99.305</ele><time>2026-04-25T10:20:13.000Z</time><hdop>3.0</hdop><vdop>3.0</vdop><extensions><gom:speed>0.466</gom:speed></extensions></trkpt>
   <trkpt lat="59.058074767" lon="29.9637788836"><ele>99.325</ele><time>2026-04-25T10:20:14.000Z</time><hdop>3.0</hdop><vdop>3.0</vdop><extensions><gom:speed>0.741</gom:speed></extensions></trkpt>
   <trkpt lat="59.058074767" lon="29.9637788836"><ele>99.338</ele><time>2026-04-25T10:20:14.000Z</time><hdop>3.0</hdop><vdop>3.0</vdop><extensions><gom:speed>0.741</gom:speed></extensions></trkpt>
   <trkpt lat="59.0580841128" lon="29.9637838289"><ele>99.316</ele><time>2026-04-25T10:20:15.000Z</time><hdop>3.0</hdop><vdop>3.0</vdop><extensions><gom:speed>0.819</gom:speed></extensions></trkpt>
   <trkpt lat="59.0580924109" lon="29.9637896963"><ele>99.25</ele><time>2026-04-25T10:20:16.000Z</time><hdop>3.0</hdop><vdop>3.0</vdop><extensions><gom:speed>0.744</gom:speed></extensions></trkpt>
   <trkpt lat="59.0581017567" lon="29.963790283"><ele>99.174</ele><time>2026-04-25T10:20:17.000Z</time><hdop>3.0</hdop><vdop>3.0</vdop><extensions><gom:speed>0.708</gom:speed></extensions></trkpt>
   <trkpt lat="59.0581102643" lon="29.9637917918"><ele>99.11</ele><time>2026-04-25T10:20:18.000Z</time><hdop>3.0</hdop><vdop>3.0</vdop><extensions><gom:speed>0.768</gom:speed></extensions></trkpt>
   <trkpt lat="59.0581186462" lon="29.9637951445"><ele>99.063</ele><time>2026-04-25T10:20:19.000Z</time><hdop>3.0</hdop><vdop>3.0</vdop><extensions><gom:speed>0.728</gom:speed></extensions></trkpt>
   <trkpt lat="59.0581264414" lon="29.9637965694"><ele>99.011</ele><time>2026-04-25T10:20:20.000Z</time><hdop>3.0</hdop><vdop>3.0</vdop><extensions><gom:speed>0.601</gom:speed></extensions></trkpt>
   <trkpt lat="59.0581346138" lon="29.9637986649"><ele>98.978</ele><time>2026-04-25T10:20:21.000Z</time><hdop>3.0</hdop><vdop>3.0</vdop><extensions><gom:speed>0.721</gom:speed></extensions></trkpt>
   <trkpt lat="59.0581460131" lon="29.9638041132"><ele>98.982</ele><time>2026-04-25T10:20:22.000Z</time><hdop>3.0</hdop><vdop>3.0</vdop><extensions><gom:speed>0.794</gom:speed></extensions></trkpt>
   <trkpt lat="59.0581574544" lon="29.9638072983"><ele>99.046</ele><time>2026-04-25T10:20:23.000Z</time><hdop>3.0</hdop><vdop>3.0</vdop><extensions><gom:speed>0.828</gom:speed></extensions></trkpt>
   <trkpt lat="59.0581574544" lon="29.9638072983"><ele>99.084</ele><time>2026-04-25T10:20:24.000Z</time><hdop>3.0</hdop><vdop>3.0</vdop><extensions><gom:speed>0.0</gom:speed></extensions></trkpt>
   <trkpt lat="59.0581574544" lon="29.9638072983"><ele>99.107</ele><time>2026-04-25T10:20:25.000Z</time><hdop>3.0</hdop><vdop>3.0</vdop><extensions><gom:speed>0.0</gom:speed></extensions></trkpt>
   <trkpt lat="59.058162274" lon="29.9638075497"><ele>99.126</ele><time>2026-04-25T10:20:26.000Z</time><hdop>3.0</hdop><vdop>3.0</vdop><extensions><gom:speed>0.204</gom:speed></extensions></trkpt>
   <trkpt lat="59.0581688119" lon="29.9638108187"><ele>99.102</ele><time>2026-04-25T10:20:27.000Z</time><hdop>3.0</hdop><vdop>3.0</vdop><extensions><gom:speed>0.376</gom:speed></extensions></trkpt>
   <trkpt lat="59.0581768585" lon="29.963811573"><ele>99.058</ele><time>2026-04-25T10:20:28.000Z</time><hdop>3.0</hdop><vdop>3.0</vdop><extensions><gom:speed>0.465</gom:speed></extensions></trkpt>
   <trkpt lat="59.058182684" lon="29.9638135009"><ele>98.995</ele><time>2026-04-25T10:20:29.000Z</time><hdop>3.0</hdop><vdop>3.0</vdop><extensions><gom:speed>0.433</gom:speed></extensions></trkpt>
   <trkpt lat="59.0581903115" lon="29.9638171051"><ele>98.905</ele><time>2026-04-25T10:20:30.000Z</time><hdop>3.0</hdop><vdop>3.0</vdop><extensions><gom:speed>0.507</gom:speed></extensions></trkpt>
   <trkpt lat="59.0581984419" lon="29.9638246488"><ele>98.811</ele><time>2026-04-25T10:20:31.000Z</time><hdop>3.0</hdop><vdop>3.0</vdop><extensions><gom:speed>0.703</gom:speed></extensions></trkpt>
   <trkpt lat="59.0582078297" lon="29.9638310191"><ele>98.72</ele><time>2026-04-25T10:20:32.000Z</time><hdop>3.0</hdop><vdop>3.0</vdop><extensions><gom:speed>0.717</gom:speed></extensions></trkpt>
   <trkpt lat="59.0582078297" lon="29.9638310191"><ele>98.666</ele><time>2026-04-25T10:20:32.000Z</time><hdop>3.0</hdop><vdop>3.0</vdop><extensions><gom:speed>0.717</gom:speed></extensions></trkpt>
   <trkpt lat="59.0582175527" lon="29.9638360482"><ele>98.593</ele><time>2026-04-25T10:20:33.000Z</time><hdop>3.0</hdop><vdop>3.0</vdop><extensions><gom:speed>0.596</gom:speed></extensions></trkpt>
   <trkpt lat="59.0582267728" lon="29.9638439272"><ele>98.539</ele><time>2026-04-25T10:20:34.000Z</time><hdop>3.0</hdop><vdop>3.0</vdop><extensions><gom:speed>0.626</gom:speed></extensions></trkpt>
   <trkpt lat="59.0582344422" lon="29.963850046"><ele>98.456</ele><time>2026-04-25T10:20:35.000Z</time><hdop>3.0</hdop><vdop>3.0</vdop><extensions><gom:speed>0.66</gom:speed></extensions></trkpt>
   <trkpt lat="59.0582433689" lon="29.9638565839"><ele>98.379</ele><time>2026-04-25T10:20:36.000Z</time><hdop>3.0</hdop><vdop>3.0</vdop><extensions><gom:speed>0.592</gom:speed></extensions></trkpt>
   <trkpt lat="59.058252589" lon="29.9638646305"><ele>98.311</ele><time>2026-04-25T10:20:37.000Z</time><hdop>3.0</hdop><vdop>3.0</vdop><extensions><gom:speed>0.538</gom:speed></extensions></trkpt>
   <trkpt lat="59.0582601328" lon="29.9638689891"><ele>98.206</ele><time>2026-04-25T10:20:38.000Z</time><hdop>3.0</hdop><vdop>3.0</vdop><extensions><gom:speed>0.536</gom:speed></extensions></trkpt>
   <trkpt lat="59.0582748011" lon="29.963867648"><ele>98.115</ele><time>2026-04-25T10:20:39.000Z</time><hdop>3.0</hdop><vdop>3.0</vdop><extensions><gom:speed>0.572</gom:speed></extensions></trkpt>
   <trkpt lat="59.0582881283" lon="29.9638674803"><ele>97.36</ele><time>2026-04-25T10:20:40.000Z</time><hdop>20.0</hdop><vdop>20.0</vdop><extensions><gom:speed>0.877</gom:speed></extensions></trkpt>
   <trkpt lat="59.058297055" lon="29.9638544046"><ele>96.927</ele><time>2026-04-25T10:20:41.000Z</time><hdop>18.375</hdop><vdop>18.375</vdop><extensions><gom:speed>0.68</gom:speed></extensions></trkpt>
   <trkpt lat="59.0583053531" lon="29.9638390657"><ele>96.653</ele><time>2026-04-25T10:20:42.000Z</time><hdop>13.0</hdop><vdop>13.0</vdop><extensions><gom:speed>0.689</gom:speed></extensions></trkpt>
   <trkpt lat="59.0583232485" lon="29.9638347909"><ele>96.452</ele><time>2026-04-25T10:20:43.000Z</time><hdop>7.062</hdop><vdop>7.062</vdop><extensions><gom:speed>0.604</gom:speed></extensions></trkpt>
   <trkpt lat="59.0583323009" lon="29.9638276663"><ele>96.333</ele><time>2026-04-25T10:20:44.000Z</time><hdop>4.687</hdop><vdop>4.687</vdop><extensions><gom:speed>0.842</gom:speed></extensions></trkpt>
   <trkpt lat="59.0583500706" lon="29.9638233077"><ele>96.069</ele><time>2026-04-25T10:20:45.000Z</time><hdop>4.812</hdop><vdop>4.812</vdop><extensions><gom:speed>0.573</gom:speed></extensions></trkpt>
   <trkpt lat="59.0583633978" lon="29.9638176918"><ele>95.777</ele><time>2026-04-25T10:20:46.000Z</time><hdop>3.312</hdop><vdop>3.312</vdop><extensions><gom:speed>0.678</gom:speed></extensions></trkpt>
   <trkpt lat="59.0583760964" lon="29.963821799"><ele>95.579</ele><time>2026-04-25T10:20:47.000Z</time><hdop>2.437</hdop><vdop>2.437</vdop><extensions><gom:speed>0.736</gom:speed></extensions></trkpt>
   <trkpt lat="59.0583817123" lon="29.9638142553"><ele>95.461</ele><time>2026-04-25T10:20:48.000Z</time><hdop>3.062</hdop><vdop>3.062</vdop><extensions><gom:speed>0.506</gom:speed></extensions></trkpt>
   <trkpt lat="59.0583844783" lon="29.9638067954"><ele>95.39</ele><time>2026-04-25T10:20:49.000Z</time><hdop>2.312</hdop><vdop>2.312</vdop><extensions><gom:speed>0.569</gom:speed></extensions></trkpt>
   <trkpt lat="59.0583872862" lon="29.9637992517"><ele>95.349</ele><time>2026-04-25T10:20:50.000Z</time><hdop>1.812</hdop><vdop>1.812</vdop><extensions><gom:speed>0.335</gom:speed></extensions></trkpt>
   <trkpt lat="59.0583955843" lon="29.9637907021"><ele>95.168</ele><time>2026-04-25T10:20:51.000Z</time><hdop>2.125</hdop><vdop>2.125</vdop><extensions><gom:speed>0.09</gom:speed></extensions></trkpt>
   <trkpt lat="59.0583973026" lon="29.9637916241"><ele>95.061</ele><time>2026-04-25T10:20:52.000Z</time><hdop>2.812</hdop><vdop>2.812</vdop><extensions><gom:speed>0.623</gom:speed></extensions></trkpt>
   <trkpt lat="59.0583973026" lon="29.9637916241"><ele>94.996</ele><time>2026-04-25T10:20:52.000Z</time><hdop>2.812</hdop><vdop>2.812</vdop><extensions><gom:speed>0.623</gom:speed></extensions></trkpt>
   <trkpt lat="59.0584035052" lon="29.9637886905"><ele>94.958</ele><time>2026-04-25T10:20:53.000Z</time><hdop>2.625</hdop><vdop>2.625</vdop><extensions><gom:speed>0.802</gom:speed></extensions></trkpt>
   <trkpt lat="59.058411929" lon="29.9637872655"><ele>94.936</ele><time>2026-04-25T10:20:54.000Z</time><hdop>3.062</hdop><vdop>3.062</vdop><extensions><gom:speed>0.809</gom:speed></extensions></trkpt>
   <trkpt lat="59.058425382" lon="29.9637781293"><ele>94.89</ele><time>2026-04-25T10:20:55.000Z</time><hdop>2.875</hdop><vdop>2.875</vdop><extensions><gom:speed>0.697</gom:speed></extensions></trkpt>
   <trkpt lat="59.0584306207" lon="29.9637709208"><ele>94.862</ele><time>2026-04-25T10:20:56.000Z</time><hdop>2.875</hdop><vdop>2.875</vdop><extensions><gom:speed>0.744</gom:speed></extensions></trkpt>
   <trkpt lat="59.0584379548" lon="29.9637719266"><ele>94.845</ele><time>2026-04-25T10:20:57.000Z</time><hdop>2.187</hdop><vdop>2.187</vdop><extensions><gom:speed>0.675</gom:speed></extensions></trkpt>
   <trkpt lat="59.0584430678" lon="29.9637678195"><ele>94.836</ele><time>2026-04-25T10:20:58.000Z</time><hdop>1.75</hdop><vdop>1.75</vdop><extensions><gom:speed>0.432</gom:speed></extensions></trkpt>
   <trkpt lat="59.0584602088" lon="29.9637653888"><ele>94.899</ele><time>2026-04-25T10:20:59.000Z</time><hdop>1.687</hdop><vdop>1.687</vdop><extensions><gom:speed>0.114</gom:speed></extensions></trkpt>
   <trkpt lat="59.0584609212" lon="29.9637637124"><ele>94.936</ele><time>2026-04-25T10:21:00.000Z</time><hdop>1.75</hdop><vdop>1.75</vdop><extensions><gom:speed>0.251</gom:speed></extensions></trkpt>
   <trkpt lat="59.0584630167" lon="29.9637632933"><ele>94.959</ele><time>2026-04-25T10:21:01.000Z</time><hdop>1.5</hdop><vdop>1.5</vdop><extensions><gom:speed>0.279</gom:speed></extensions></trkpt>
   <trkpt lat="59.0584665371" lon="29.9637764529"><ele>94.918</ele><time>2026-04-25T10:21:02.000Z</time><hdop>1.5</hdop><vdop>1.5</vdop><extensions><gom:speed>0.279</gom:speed></extensions></trkpt>
   <trkpt lat="59.0584690098" lon="29.9637753632"><ele>94.894</ele><time>2026-04-25T10:21:03.000Z</time><hdop>1.375</hdop><vdop>1.375</vdop><extensions><gom:speed>0.525</gom:speed></extensions></trkpt>
   <trkpt lat="59.0584770145" lon="29.9637772072"><ele>95.064</ele><time>2026-04-25T10:21:04.000Z</time><hdop>1.375</hdop><vdop>1.375</vdop><extensions><gom:speed>0.608</gom:speed></extensions></trkpt>
   <trkpt lat="59.0584803673" lon="29.9637693283"><ele>95.166</ele><time>2026-04-25T10:21:05.000Z</time><hdop>1.437</hdop><vdop>1.437</vdop><extensions><gom:speed>0.696</gom:speed></extensions></trkpt>
   <trkpt lat="59.0584861089" lon="29.9637679872"><ele>95.228</ele><time>2026-04-25T10:21:06.000Z</time><hdop>1.5</hdop><vdop>1.5</vdop><extensions><gom:speed>0.799</gom:speed></extensions></trkpt>
   <trkpt lat="59.0584927306" lon="29.9637650535"><ele>95.265</ele><time>2026-04-25T10:21:07.000Z</time><hdop>1.5</hdop><vdop>1.5</vdop><extensions><gom:speed>0.523</gom:speed></extensions></trkpt>
   <trkpt lat="59.0585112127" lon="29.963753235"><ele>95.187</ele><time>2026-04-25T10:21:08.000Z</time><hdop>1.875</hdop><vdop>1.875</vdop><extensions><gom:speed>0.631</gom:speed></extensions></trkpt>
   <trkpt lat="59.0585287308" lon="29.9637736868"><ele>94.629</ele><time>2026-04-25T10:21:09.000Z</time><hdop>1.75</hdop><vdop>1.75</vdop><extensions><gom:speed>0.232</gom:speed></extensions></trkpt>
   <trkpt lat="59.0585297367" lon="29.9637705855"><ele>94.295</ele><time>2026-04-25T10:21:10.000Z</time><hdop>2.25</hdop><vdop>2.25</vdop><extensions><gom:speed>0.465</gom:speed></extensions></trkpt>
   <trkpt lat="59.0585333828" lon="29.9637720943"><ele>94.098</ele><time>2026-04-25T10:21:11.000Z</time><hdop>2.937</hdop><vdop>2.937</vdop><extensions><gom:speed>0.463</gom:speed></extensions></trkpt>
   <trkpt lat="59.0585706404" lon="29.9638158478"><ele>94.137</ele><time>2026-04-25T10:21:12.000Z</time><hdop>3.062</hdop><vdop>3.062</vdop><extensions><gom:speed>0.361</gom:speed></extensions></trkpt>
   <trkpt lat="59.0585706404" lon="29.9638158478"><ele>94.161</ele><time>2026-04-25T10:21:12.000Z</time><hdop>3.062</hdop><vdop>3.062</vdop><extensions><gom:speed>0.361</gom:speed></extensions></trkpt>
   <trkpt lat="59.0585884938" lon="29.9638443463"><ele>94.509</ele><time>2026-04-25T10:21:13.000Z</time><hdop>2.687</hdop><vdop>2.687</vdop><extensions><gom:speed>0.558</gom:speed></extensions></trkpt>
   <trkpt lat="59.0585884938" lon="29.9638505489"><ele>94.72</ele><time>2026-04-25T10:21:14.000Z</time><hdop>2.5</hdop><vdop>2.5</vdop><extensions><gom:speed>0.758</gom:speed></extensions></trkpt>
   <trkpt lat="59.0585915113" lon="29.9638605234"><ele>95.372</ele><time>2026-04-25T10:21:15.000Z</time><hdop>1.875</hdop><vdop>1.875</vdop><extensions><gom:speed>0.758</gom:speed></extensions></trkpt>
   <trkpt lat="59.0586169923" lon="29.9638559133"><ele>96.211</ele><time>2026-04-25T10:21:16.000Z</time><hdop>1.125</hdop><vdop>1.125</vdop><extensions><gom:speed>0.728</gom:speed></extensions></trkpt>
   <trkpt lat="59.0586363964" lon="29.9638386466"><ele>97.143</ele><time>2026-04-25T10:21:17.000Z</time><hdop>1.0</hdop><vdop>1.0</vdop><extensions><gom:speed>0.525</gom:speed></extensions></trkpt>
   <trkpt lat="59.0586463709" lon="29.9638321925"><ele>97.702</ele><time>2026-04-25T10:21:18.000Z</time><hdop>1.0</hdop><vdop>1.0</vdop><extensions><gom:speed>0.526</gom:speed></extensions></trkpt>
   <trkpt lat="59.0586595724" lon="29.9638264928"><ele>98.228</ele><time>2026-04-25T10:21:19.000Z</time><hdop>1.625</hdop><vdop>1.625</vdop><extensions><gom:speed>0.561</gom:speed></extensions></trkpt>
   <trkpt lat="59.0586687924" lon="29.9638250679"><ele>98.608</ele><time>2026-04-25T10:21:20.000Z</time><hdop>2.062</hdop><vdop>2.062</vdop><extensions><gom:speed>0.421</gom:speed></extensions></trkpt>
   <trkpt lat="59.0586746179" lon="29.9638258223"><ele>98.876</ele><time>2026-04-25T10:21:21.000Z</time><hdop>2.625</hdop><vdop>2.625</vdop><extensions><gom:speed>0.321</gom:speed></extensions></trkpt>
   <trkpt lat="59.0586800242" lon="29.9638269958"><ele>99.022</ele><time>2026-04-25T10:21:22.000Z</time><hdop>3.25</hdop><vdop>3.25</vdop><extensions><gom:speed>0.256</gom:speed></extensions></trkpt>
   <trkpt lat="59.0586836284" lon="29.963823643"><ele>99.063</ele><time>2026-04-25T10:21:23.000Z</time><hdop>4.0</hdop><vdop>4.0</vdop><extensions><gom:speed>0.306</gom:speed></extensions></trkpt>
   <trkpt lat="59.058688909" lon="29.9638261576"><ele>98.974</ele><time>2026-04-25T10:21:24.000Z</time><hdop>4.187</hdop><vdop>4.187</vdop><extensions><gom:speed>0.402</gom:speed></extensions></trkpt>
   <trkpt lat="59.0586955726" lon="29.9638290912"><ele>98.984</ele><time>2026-04-25T10:21:25.000Z</time><hdop>4.312</hdop><vdop>4.312</vdop><extensions><gom:speed>0.307</gom:speed></extensions></trkpt>
   <trkpt lat="59.0586924294" lon="29.9638309352"><ele>98.026</ele><time>2026-04-25T10:21:26.000Z</time><hdop>4.75</hdop><vdop>4.75</vdop><extensions><gom:speed>0.338</gom:speed></extensions></trkpt>
   <trkpt lat="59.0586886156" lon="29.9638359644"><ele>97.404</ele><time>2026-04-25T10:21:27.000Z</time><hdop>4.812</hdop><vdop>4.812</vdop><extensions><gom:speed>0.357</gom:speed></extensions></trkpt>
   <trkpt lat="59.0586886576" lon="29.963842167"><ele>96.944</ele><time>2026-04-25T10:21:28.000Z</time><hdop>4.875</hdop><vdop>4.875</vdop><extensions><gom:speed>0.349</gom:speed></extensions></trkpt>
   <trkpt lat="59.0586945668" lon="29.9638501298"><ele>96.554</ele><time>2026-04-25T10:21:29.000Z</time><hdop>4.937</hdop><vdop>4.937</vdop><extensions><gom:speed>0.467</gom:speed></extensions></trkpt>
   <trkpt lat="59.0587021524" lon="29.9638622836"><ele>96.252</ele><time>2026-04-25T10:21:30.000Z</time><hdop>4.687</hdop><vdop>4.687</vdop><extensions><gom:speed>0.48</gom:speed></extensions></trkpt>
   <trkpt lat="59.058708816" lon="29.9638700787"><ele>95.949</ele><time>2026-04-25T10:21:31.000Z</time><hdop>4.687</hdop><vdop>4.687</vdop><extensions><gom:speed>0.611</gom:speed></extensions></trkpt>
   <trkpt lat="59.0587140966" lon="29.9638813105"><ele>95.829</ele><time>2026-04-25T10:21:32.000Z</time><hdop>4.875</hdop><vdop>4.875</vdop><extensions><gom:speed>0.255</gom:speed></extensions></trkpt>
   <trkpt lat="59.0587140966" lon="29.9638813105"><ele>95.758</ele><time>2026-04-25T10:21:32.000Z</time><hdop>4.875</hdop><vdop>4.875</vdop><extensions><gom:speed>0.255</gom:speed></extensions></trkpt>
   <trkpt lat="59.058718078" lon="29.9638885189"><ele>95.678</ele><time>2026-04-25T10:21:33.000Z</time><hdop>4.937</hdop><vdop>4.937</vdop><extensions><gom:speed>0.343</gom:speed></extensions></trkpt>
   <trkpt lat="59.058723652" lon="29.9638988287"><ele>95.606</ele><time>2026-04-25T10:21:34.000Z</time><hdop>4.812</hdop><vdop>4.812</vdop><extensions><gom:speed>0.55</gom:speed></extensions></trkpt>
   <trkpt lat="59.058723652" lon="29.9638988287"><ele>95.562</ele><time>2026-04-25T10:21:34.000Z</time><hdop>4.812</hdop><vdop>4.812</vdop><extensions><gom:speed>0.55</gom:speed></extensions></trkpt>
   <trkpt lat="59.0587309443" lon="29.9639088031"><ele>95.517</ele><time>2026-04-25T10:21:35.000Z</time><hdop>4.625</hdop><vdop>4.625</vdop><extensions><gom:speed>0.7</gom:speed></extensions></trkpt>
   <trkpt lat="59.0587404577" lon="29.9639140837"><ele>95.418</ele><time>2026-04-25T10:21:36.000Z</time><hdop>4.812</hdop><vdop>4.812</vdop><extensions><gom:speed>0.818</gom:speed></extensions></trkpt>
   <trkpt lat="59.0587510189" lon="29.9639197834"><ele>95.319</ele><time>2026-04-25T10:21:37.000Z</time><hdop>4.625</hdop><vdop>4.625</vdop><extensions><gom:speed>0.964</gom:speed></extensions></trkpt>
   <trkpt lat="59.0587624602" lon="29.9639265728"><ele>95.238</ele><time>2026-04-25T10:21:38.000Z</time><hdop>4.375</hdop><vdop>4.375</vdop><extensions><gom:speed>0.953</gom:speed></extensions></trkpt>
   <trkpt lat="59.0587752845" lon="29.9639321048"><ele>95.159</ele><time>2026-04-25T10:21:39.000Z</time><hdop>4.187</hdop><vdop>4.187</vdop><extensions><gom:speed>1.0</gom:speed></extensions></trkpt>
   <trkpt lat="59.0587864325" lon="29.9639427498"><ele>95.063</ele><time>2026-04-25T10:21:40.000Z</time><hdop>4.312</hdop><vdop>4.312</vdop><extensions><gom:speed>0.88</gom:speed></extensions></trkpt>
   <trkpt lat="59.0587993825" lon="29.9639453482"><ele>94.99</ele><time>2026-04-25T10:21:41.000Z</time><hdop>4.25</hdop><vdop>4.25</vdop><extensions><gom:speed>0.945</gom:speed></extensions></trkpt>
   <trkpt lat="59.0588113686" lon="29.9639515508"><ele>94.948</ele><time>2026-04-25T10:21:42.000Z</time><hdop>4.062</hdop><vdop>4.062</vdop><extensions><gom:speed>0.897</gom:speed></extensions></trkpt>
   <trkpt lat="59.0588248635" lon="29.963959346"><ele>94.916</ele><time>2026-04-25T10:21:43.000Z</time><hdop>3.812</hdop><vdop>3.812</vdop><extensions><gom:speed>1.019</gom:speed></extensions></trkpt>
   <trkpt lat="59.0588341255" lon="29.9639633693"><ele>94.877</ele><time>2026-04-25T10:21:44.000Z</time><hdop>3.5</hdop><vdop>3.5</vdop><extensions><gom:speed>0.563</gom:speed></extensions></trkpt>
   <trkpt lat="59.0588441838" lon="29.963968147"><ele>94.878</ele><time>2026-04-25T10:21:45.000Z</time><hdop>3.375</hdop><vdop>3.375</vdop><extensions><gom:speed>0.747</gom:speed></extensions></trkpt>
   <trkpt lat="59.0588543678" lon="29.9639714159"><ele>94.877</ele><time>2026-04-25T10:21:46.000Z</time><hdop>3.062</hdop><vdop>3.062</vdop><extensions><gom:speed>1.002</gom:speed></extensions></trkpt>
   <trkpt lat="59.0588650547" lon="29.9639759422"><ele>94.889</ele><time>2026-04-25T10:21:47.000Z</time><hdop>3.062</hdop><vdop>3.062</vdop><extensions><gom:speed>0.911</gom:speed></extensions></trkpt>
   <trkpt lat="59.0588762865" lon="29.9639834021"><ele>94.915</ele><time>2026-04-25T10:21:48.000Z</time><hdop>3.0</hdop><vdop>3.0</vdop><extensions><gom:speed>0.83</gom:speed></extensions></trkpt>
   <trkpt lat="59.0588890689" lon="29.9639896047"><ele>94.927</ele><time>2026-04-25T10:21:49.000Z</time><hdop>3.0</hdop><vdop>3.0</vdop><extensions><gom:speed>0.873</gom:speed></extensions></trkpt>
   <trkpt lat="59.0589021446" lon="29.9639929574"><ele>94.966</ele><time>2026-04-25T10:21:50.000Z</time><hdop>3.0</hdop><vdop>3.0</vdop><extensions><gom:speed>0.941</gom:speed></extensions></trkpt>
   <trkpt lat="59.0589155557" lon="29.9640003335"><ele>95.016</ele><time>2026-04-25T10:21:51.000Z</time><hdop>3.0</hdop><vdop>3.0</vdop><extensions><gom:speed>0.986</gom:speed></extensions></trkpt>
   <trkpt lat="59.0589283381" lon="29.9640094698"><ele>95.058</ele><time>2026-04-25T10:21:52.000Z</time><hdop>3.0</hdop><vdop>3.0</vdop><extensions><gom:speed>0.821</gom:speed></extensions></trkpt>
   <trkpt lat="59.0589283381" lon="29.9640094698"><ele>95.083</ele><time>2026-04-25T10:21:52.000Z</time><hdop>3.0</hdop><vdop>3.0</vdop><extensions><gom:speed>0.821</gom:speed></extensions></trkpt>
   <trkpt lat="59.0589378515" lon="29.9640222103"><ele>95.113</ele><time>2026-04-25T10:21:53.000Z</time><hdop>3.0</hdop><vdop>3.0</vdop><extensions><gom:speed>0.535</gom:speed></extensions></trkpt>
   <trkpt lat="59.0589475745" lon="29.9640327715"><ele>95.16</ele><time>2026-04-25T10:21:54.000Z</time><hdop>3.0</hdop><vdop>3.0</vdop><extensions><gom:speed>0.689</gom:speed></extensions></trkpt>
   <trkpt lat="59.0589586806" lon="29.9640401475"><ele>95.232</ele><time>2026-04-25T10:21:55.000Z</time><hdop>3.0</hdop><vdop>3.0</vdop><extensions><gom:speed>0.753</gom:speed></extensions></trkpt>
   <trkpt lat="59.0589716725" lon="29.9640488647"><ele>95.277</ele><time>2026-04-25T10:21:56.000Z</time><hdop>3.125</hdop><vdop>3.125</vdop><extensions><gom:speed>0.764</gom:speed></extensions></trkpt>
   <trkpt lat="59.0589824014" lon="29.9640586716"><ele>95.264</ele><time>2026-04-25T10:21:57.000Z</time><hdop>3.437</hdop><vdop>3.437</vdop><extensions><gom:speed>0.535</gom:speed></extensions></trkpt>
   <trkpt lat="59.058992292" lon="29.964064958"><ele>95.249</ele><time>2026-04-25T10:21:58.000Z</time><hdop>3.312</hdop><vdop>3.312</vdop><extensions><gom:speed>0.565</gom:speed></extensions></trkpt>
   <trkpt lat="59.0590020569" lon="29.9640687298"><ele>95.199</ele><time>2026-04-25T10:21:59.000Z</time><hdop>3.25</hdop><vdop>3.25</vdop><extensions><gom:speed>0.567</gom:speed></extensions></trkpt>
   <trkpt lat="59.0590118637" lon="29.9640748486"><ele>95.158</ele><time>2026-04-25T10:22:00.000Z</time><hdop>3.0</hdop><vdop>3.0</vdop><extensions><gom:speed>0.567</gom:speed></extensions></trkpt>
   <trkpt lat="59.0590191979" lon="29.9640857451"><ele>95.196</ele><time>2026-04-25T10:22:01.000Z</time><hdop>3.0</hdop><vdop>3.0</vdop><extensions><gom:speed>0.545</gom:speed></extensions></trkpt>
   <trkpt lat="59.0590272026" lon="29.9640897684"><ele>95.278</ele><time>2026-04-25T10:22:02.000Z</time><hdop>3.0</hdop><vdop>3.0</vdop><extensions><gom:speed>0.673</gom:speed></extensions></trkpt>
   <trkpt lat="59.0590362551" lon="29.9640932888"><ele>95.389</ele><time>2026-04-25T10:22:03.000Z</time><hdop>3.0</hdop><vdop>3.0</vdop><extensions><gom:speed>0.815</gom:speed></extensions></trkpt>
   <trkpt lat="59.0590441341" lon="29.9640951328"><ele>95.469</ele><time>2026-04-25T10:22:04.000Z</time><hdop>3.0</hdop><vdop>3.0</vdop><extensions><gom:speed>0.748</gom:speed></extensions></trkpt>
   <trkpt lat="59.0590565393" lon="29.9641018384"><ele>95.576</ele><time>2026-04-25T10:22:05.000Z</time><hdop>3.0</hdop><vdop>3.0</vdop><extensions><gom:speed>0.682</gom:speed></extensions></trkpt>
   <trkpt lat="59.059071501" lon="29.9641061131"><ele>95.612</ele><time>2026-04-25T10:22:06.000Z</time><hdop>3.0</hdop><vdop>3.0</vdop><extensions><gom:speed>0.772</gom:speed></extensions></trkpt>
   <trkpt lat="59.0590857921" lon="29.9641119805"><ele>95.658</ele><time>2026-04-25T10:22:07.000Z</time><hdop>3.0</hdop><vdop>3.0</vdop><extensions><gom:speed>0.841</gom:speed></extensions></trkpt>
   <trkpt lat="59.059097904" lon="29.9641181831"><ele>95.681</ele><time>2026-04-25T10:22:08.000Z</time><hdop>3.0</hdop><vdop>3.0</vdop><extensions><gom:speed>0.717</gom:speed></extensions></trkpt>
   <trkpt lat="59.0591084652" lon="29.9641222064"><ele>95.685</ele><time>2026-04-25T10:22:09.000Z</time><hdop>3.0</hdop><vdop>3.0</vdop><extensions><gom:speed>0.609</gom:speed></extensions></trkpt>
   <trkpt lat="59.0591185235" lon="29.9641270679"><ele>95.745</ele><time>2026-04-25T10:22:10.000Z</time><hdop>3.0</hdop><vdop>3.0</vdop><extensions><gom:speed>0.711</gom:speed></extensions></trkpt>
   <trkpt lat="59.0591288751" lon="29.9641335219"><ele>95.843</ele><time>2026-04-25T10:22:11.000Z</time><hdop>3.0</hdop><vdop>3.0</vdop><extensions><gom:speed>0.705</gom:speed></extensions></trkpt>
   <trkpt lat="59.0591390172" lon="29.9641382996"><ele>95.925</ele><time>2026-04-25T10:22:12.000Z</time><hdop>3.0</hdop><vdop>3.0</vdop><extensions><gom:speed>0.796</gom:speed></extensions></trkpt>
   <trkpt lat="59.0591390172" lon="29.9641382996"><ele>95.973</ele><time>2026-04-25T10:22:12.000Z</time><hdop>3.0</hdop><vdop>3.0</vdop><extensions><gom:speed>0.796</gom:speed></extensions></trkpt>
   <trkpt lat="59.0591502071" lon="29.9641424068"><ele>96.044</ele><time>2026-04-25T10:22:13.000Z</time><hdop>3.0</hdop><vdop>3.0</vdop><extensions><gom:speed>0.72</gom:speed></extensions></trkpt>
   <trkpt lat="59.0591600558" lon="29.9641513754"><ele>96.018</ele><time>2026-04-25T10:22:14.000Z</time><hdop>20.0</hdop><vdop>20.0</vdop><extensions><gom:speed>0.938</gom:speed></extensions></trkpt>
   <trkpt lat="59.0591712456" lon="29.9641622719"><ele>96.368</ele><time>2026-04-25T10:22:15.000Z</time><hdop>19.812</hdop><vdop>19.812</vdop><extensions><gom:speed>1.079</gom:speed></extensions></trkpt>
   <trkpt lat="59.0591781607" lon="29.9641370423"><ele>96.486</ele><time>2026-04-25T10:22:16.000Z</time><hdop>14.687</hdop><vdop>14.687</vdop><extensions><gom:speed>0.599</gom:speed></extensions></trkpt>
   <trkpt lat="59.0591832318" lon="29.9641485256"><ele>97.023</ele><time>2026-04-25T10:22:17.000Z</time><hdop>9.75</hdop><vdop>9.75</vdop><extensions><gom:speed>0.525</gom:speed></extensions></trkpt>
   <trkpt lat="59.0591854949" lon="29.9641489447"><ele>97.214</ele><time>2026-04-25T10:22:18.000Z</time><hdop>6.062</hdop><vdop>6.062</vdop><extensions><gom:speed>0.552</gom:speed></extensions></trkpt>
   <trkpt lat="59.0591907336" lon="29.9641454243"><ele>97.311</ele><time>2026-04-25T10:22:19.000Z</time><hdop>4.687</hdop><vdop>4.687</vdop><extensions><gom:speed>0.474</gom:speed></extensions></trkpt>
   <trkpt lat="59.059194715" lon="29.9641446699"><ele>97.36</ele><time>2026-04-25T10:22:20.000Z</time><hdop>4.875</hdop><vdop>4.875</vdop><extensions><gom:speed>0.276</gom:speed></extensions></trkpt>
   <trkpt lat="59.0591961818" lon="29.9641472683"><ele>97.389</ele><time>2026-04-25T10:22:21.000Z</time><hdop>4.875</hdop><vdop>4.875</vdop><extensions><gom:speed>0.169</gom:speed></extensions></trkpt>
   <trkpt lat="59.0591969781" lon="29.9641454243"><ele>97.413</ele><time>2026-04-25T10:22:22.000Z</time><hdop>4.687</hdop><vdop>4.687</vdop><extensions><gom:speed>0.145</gom:speed></extensions></trkpt>
   <trkpt lat="59.0591987383" lon="29.9641434126"><ele>97.45</ele><time>2026-04-25T10:22:23.000Z</time><hdop>4.687</hdop><vdop>4.687</vdop><extensions><gom:speed>0.361</gom:speed></extensions></trkpt>
   <trkpt lat="59.0592025101" lon="29.9641380482"><ele>97.466</ele><time>2026-04-25T10:22:24.000Z</time><hdop>4.687</hdop><vdop>4.687</vdop><extensions><gom:speed>0.522</gom:speed></extensions></trkpt>
   <trkpt lat="59.0592091318" lon="29.9641393893"><ele>97.561</ele><time>2026-04-25T10:22:25.000Z</time><hdop>4.687</hdop><vdop>4.687</vdop><extensions><gom:speed>0.793</gom:speed></extensions></trkpt>
   <trkpt lat="59.0592142448" lon="29.9641326838"><ele>97.626</ele><time>2026-04-25T10:22:26.000Z</time><hdop>4.687</hdop><vdop>4.687</vdop><extensions><gom:speed>0.668</gom:speed></extensions></trkpt>
   <trkpt lat="59.0592212437" lon="29.9641269002"><ele>97.678</ele><time>2026-04-25T10:22:27.000Z</time><hdop>4.937</hdop><vdop>4.937</vdop><extensions><gom:speed>0.59</gom:speed></extensions></trkpt>
   <trkpt lat="59.0592287036" lon="29.964128409"><ele>97.47</ele><time>2026-04-25T10:22:28.000Z</time><hdop>3.687</hdop><vdop>3.687</vdop><extensions><gom:speed>0.6</gom:speed></extensions></trkpt>
   <trkpt lat="59.059248443" lon="29.9641255591"><ele>96.905</ele><time>2026-04-25T10:22:29.000Z</time><hdop>2.312</hdop><vdop>2.312</vdop><extensions><gom:speed>0.512</gom:speed></extensions></trkpt>
   <trkpt lat="59.0592528435" lon="29.9641253077"><ele>96.568</ele><time>2026-04-25T10:22:30.000Z</time><hdop>2.062</hdop><vdop>2.062</vdop><extensions><gom:speed>0.631</gom:speed></extensions></trkpt>
   <trkpt lat="59.0592577469" lon="29.9641301692"><ele>96.367</ele><time>2026-04-25T10:22:31.000Z</time><hdop>1.75</hdop><vdop>1.75</vdop><extensions><gom:speed>0.725</gom:speed></extensions></trkpt>
   <trkpt lat="59.0592674699" lon="29.9641367909"><ele>96.336</ele><time>2026-04-25T10:22:32.000Z</time><hdop>1.437</hdop><vdop>1.437</vdop><extensions><gom:speed>0.613</gom:speed></extensions></trkpt>
   <trkpt lat="59.0592674699" lon="29.9641367909"><ele>96.318</ele><time>2026-04-25T10:22:32.000Z</time><hdop>1.437</hdop><vdop>1.437</vdop><extensions><gom:speed>0.613</gom:speed></extensions></trkpt>
   <trkpt lat="59.0592699844" lon="29.964146011"><ele>96.307</ele><time>2026-04-25T10:22:33.000Z</time><hdop>1.187</hdop><vdop>1.187</vdop><extensions><gom:speed>0.164</gom:speed></extensions></trkpt>
   <trkpt lat="59.0592713256" lon="29.9641450052"><ele>96.3</ele><time>2026-04-25T10:22:34.000Z</time><hdop>1.562</hdop><vdop>1.562</vdop><extensions><gom:speed>0.558</gom:speed></extensions></trkpt>
   <trkpt lat="59.0592758099" lon="29.9641477712"><ele>96.296</ele><time>2026-04-25T10:22:35.000Z</time><hdop>2.062</hdop><vdop>2.062</vdop><extensions><gom:speed>0.655</gom:speed></extensions></trkpt>
   <trkpt lat="59.0592962617" lon="29.9641465977"><ele>95.706</ele><time>2026-04-25T10:22:36.000Z</time><hdop>2.187</hdop><vdop>2.187</vdop><extensions><gom:speed>0.786</gom:speed></extensions></trkpt>
   <trkpt lat="59.0593024224" lon="29.9641511239"><ele>95.355</ele><time>2026-04-25T10:22:37.000Z</time><hdop>2.375</hdop><vdop>2.375</vdop><extensions><gom:speed>0.744</gom:speed></extensions></trkpt>
   <trkpt lat="59.0593074516" lon="29.9641574942"><ele>95.144</ele><time>2026-04-25T10:22:38.000Z</time><hdop>2.375</hdop><vdop>2.375</vdop><extensions><gom:speed>0.624</gom:speed></extensions></trkpt>
   <trkpt lat="59.0593282806" lon="29.9641595058"><ele>94.675</ele><time>2026-04-25T10:22:39.000Z</time><hdop>2.25</hdop><vdop>2.25</vdop><extensions><gom:speed>0.74</gom:speed></extensions></trkpt>
   <trkpt lat="59.0593381712" lon="29.9641677201"><ele>94.332</ele><time>2026-04-25T10:22:40.000Z</time><hdop>1.75</hdop><vdop>1.75</vdop><extensions><gom:speed>0.405</gom:speed></extensions></trkpt>
   <trkpt lat="59.0593403086" lon="29.9641722463"><ele>94.127</ele><time>2026-04-25T10:22:41.000Z</time><hdop>1.375</hdop><vdop>1.375</vdop><extensions><gom:speed>0.439</gom:speed></extensions></trkpt>
   <trkpt lat="59.0593433261" lon="29.9641773593"><ele>94.004</ele><time>2026-04-25T10:22:42.000Z</time><hdop>1.375</hdop><vdop>1.375</vdop><extensions><gom:speed>0.681</gom:speed></extensions></trkpt>
   <trkpt lat="59.0593493192" lon="29.9641787004"><ele>93.931</ele><time>2026-04-25T10:22:43.000Z</time><hdop>1.937</hdop><vdop>1.937</vdop><extensions><gom:speed>0.841</gom:speed></extensions></trkpt>
   <trkpt lat="59.0593635265" lon="29.9641750124"><ele>93.639</ele><time>2026-04-25T10:22:44.000Z</time><hdop>1.75</hdop><vdop>1.75</vdop><extensions><gom:speed>0.626</gom:speed></extensions></trkpt>
   <trkpt lat="59.0593682623" lon="29.9641807121"><ele>93.464</ele><time>2026-04-25T10:22:45.000Z</time><hdop>1.75</hdop><vdop>1.75</vdop><extensions><gom:speed>0.74</gom:speed></extensions></trkpt>
   <trkpt lat="59.0593732914" lon="29.964184903"><ele>93.361</ele><time>2026-04-25T10:22:46.000Z</time><hdop>1.875</hdop><vdop>1.875</vdop><extensions><gom:speed>0.641</gom:speed></extensions></trkpt>
   <trkpt lat="59.0593788654" lon="29.9641857412"><ele>93.299</ele><time>2026-04-25T10:22:47.000Z</time><hdop>1.75</hdop><vdop>1.75</vdop><extensions><gom:speed>0.718</gom:speed></extensions></trkpt>
   <trkpt lat="59.0593885884" lon="29.9641802091"><ele>93.347</ele><time>2026-04-25T10:22:48.000Z</time><hdop>1.625</hdop><vdop>1.625</vdop><extensions><gom:speed>0.833</gom:speed></extensions></trkpt>
   <trkpt lat="59.0593982695" lon="29.9641679716"><ele>93.31</ele><time>2026-04-25T10:22:49.000Z</time><hdop>1.625</hdop><vdop>1.625</vdop><extensions><gom:speed>0.859</gom:speed></extensions></trkpt>
   <trkpt lat="59.0594118063" lon="29.9642087076"><ele>93.754</ele><time>2026-04-25T10:22:50.000Z</time><hdop>1.812</hdop><vdop>1.812</vdop><extensions><gom:speed>0.876</gom:speed></extensions></trkpt>
   <trkpt lat="59.0594258459" lon="29.9642134015"><ele>93.869</ele><time>2026-04-25T10:22:51.000Z</time><hdop>2.125</hdop><vdop>2.125</vdop><extensions><gom:speed>0.604</gom:speed></extensions></trkpt>
   <trkpt lat="59.0594272709" lon="29.9642044329"><ele>93.935</ele><time>2026-04-25T10:22:52.000Z</time><hdop>2.687</hdop><vdop>2.687</vdop><extensions><gom:speed>0.67</gom:speed></extensions></trkpt>
   <trkpt lat="59.0594317552" lon="29.9641968891"><ele>93.975</ele><time>2026-04-25T10:22:53.000Z</time><hdop>2.812</hdop><vdop>2.812</vdop><extensions><gom:speed>0.701</gom:speed></extensions></trkpt>
   <trkpt lat="59.0594317552" lon="29.9641968891"><ele>93.999</ele><time>2026-04-25T10:22:53.000Z</time><hdop>2.812</hdop><vdop>2.812</vdop><extensions><gom:speed>0.701</gom:speed></extensions></trkpt>
   <trkpt lat="59.0594373711" lon="29.9641956319"><ele>94.014</ele><time>2026-04-25T10:22:54.000Z</time><hdop>3.437</hdop><vdop>3.437</vdop><extensions><gom:speed>0.727</gom:speed></extensions></trkpt>
   <trkpt lat="59.0594541349" lon="29.9641983141"><ele>93.439</ele><time>2026-04-25T10:22:55.000Z</time><hdop>3.75</hdop><vdop>3.75</vdop><extensions><gom:speed>0.737</gom:speed></extensions></trkpt>
   <trkpt lat="59.0594601698" lon="29.9641978111"><ele>93.094</ele><time>2026-04-25T10:22:56.000Z</time><hdop>3.25</hdop><vdop>3.25</vdop><extensions><gom:speed>0.777</gom:speed></extensions></trkpt>
   <trkpt lat="59.0594667496" lon="29.9641983141"><ele>92.888</ele><time>2026-04-25T10:22:57.000Z</time><hdop>2.687</hdop><vdop>2.687</vdop><extensions><gom:speed>0.754</gom:speed></extensions></trkpt>
   <trkpt lat="59.0594728684" lon="29.9642016668"><ele>92.765</ele><time>2026-04-25T10:22:58.000Z</time><hdop>2.25</hdop><vdop>2.25</vdop><extensions><gom:speed>0.751</gom:speed></extensions></trkpt>
   <trkpt lat="59.0594853155" lon="29.9642009963"><ele>92.438</ele><time>2026-04-25T10:22:59.000Z</time><hdop>1.562</hdop><vdop>1.562</vdop><extensions><gom:speed>0.692</gom:speed></extensions></trkpt>
   <trkpt lat="59.0594954157" lon="29.9642019183"><ele>92.547</ele><time>2026-04-25T10:23:00.000Z</time><hdop>1.75</hdop><vdop>1.75</vdop><extensions><gom:speed>0.503</gom:speed></extensions></trkpt>
   <trkpt lat="59.0594986847" lon="29.9642056901"><ele>92.615</ele><time>2026-04-25T10:23:01.000Z</time><hdop>2.125</hdop><vdop>2.125</vdop><extensions><gom:speed>0.554</gom:speed></extensions></trkpt>
   <trkpt lat="59.0595026242" lon="29.9642073665"><ele>92.654</ele><time>2026-04-25T10:23:02.000Z</time><hdop>2.625</hdop><vdop>2.625</vdop><extensions><gom:speed>0.165</gom:speed></extensions></trkpt>
   <trkpt lat="59.0595019117" lon="29.9642074503"><ele>92.675</ele><time>2026-04-25T10:23:03.000Z</time><hdop>3.0</hdop><vdop>3.0</vdop><extensions><gom:speed>0.238</gom:speed></extensions></trkpt>
   <trkpt lat="59.0595053902" lon="29.9642036785"><ele>92.683</ele><time>2026-04-25T10:23:04.000Z</time><hdop>3.062</hdop><vdop>3.062</vdop><extensions><gom:speed>0.406</gom:speed></extensions></trkpt>
   <trkpt lat="59.0595095392" lon="29.9642097134"><ele>92.798</ele><time>2026-04-25T10:23:05.000Z</time><hdop>2.5</hdop><vdop>2.5</vdop><extensions><gom:speed>0.58</gom:speed></extensions></trkpt>
   <trkpt lat="59.059511509" lon="29.9642123118"><ele>92.868</ele><time>2026-04-25T10:23:06.000Z</time><hdop>2.125</hdop><vdop>2.125</vdop><extensions><gom:speed>0.297</gom:speed></extensions></trkpt>
   <trkpt lat="59.0595111737" lon="29.9642259743"><ele>92.895</ele><time>2026-04-25T10:23:07.000Z</time><hdop>1.625</hdop><vdop>1.625</vdop><extensions><gom:speed>0.478</gom:speed></extensions></trkpt>
   <trkpt lat="59.059525842" lon="29.9642201908"><ele>92.821</ele><time>2026-04-25T10:23:08.000Z</time><hdop>1.375</hdop><vdop>1.375</vdop><extensions><gom:speed>0.411</gom:speed></extensions></trkpt>
   <trkpt lat="59.0595288595" lon="29.9642246332"><ele>92.777</ele><time>2026-04-25T10:23:09.000Z</time><hdop>1.875</hdop><vdop>1.875</vdop><extensions><gom:speed>0.623</gom:speed></extensions></trkpt>
   <trkpt lat="59.0595332181" lon="29.964218263"><ele>92.751</ele><time>2026-04-25T10:23:10.000Z</time><hdop>2.0</hdop><vdop>2.0</vdop><extensions><gom:speed>0.59</gom:speed></extensions></trkpt>
   <trkpt lat="59.059537912" lon="29.9642168381"><ele>92.735</ele><time>2026-04-25T10:23:11.000Z</time><hdop>2.125</hdop><vdop>2.125</vdop><extensions><gom:speed>0.615</gom:speed></extensions></trkpt>
   <trkpt lat="59.0595457072" lon="29.9642079532"><ele>92.839</ele><time>2026-04-25T10:23:12.000Z</time><hdop>2.437</hdop><vdop>2.437</vdop><extensions><gom:speed>0.595</gom:speed></extensions></trkpt>
   <trkpt lat="59.0595491856" lon="29.9642128986"><ele>92.901</ele><time>2026-04-25T10:23:13.000Z</time><hdop>2.312</hdop><vdop>2.312</vdop><extensions><gom:speed>0.667</gom:speed></extensions></trkpt>
   <trkpt lat="59.0595491856" lon="29.9642128986"><ele>92.938</ele><time>2026-04-25T10:23:13.000Z</time><hdop>2.312</hdop><vdop>2.312</vdop><extensions><gom:speed>0.667</gom:speed></extensions></trkpt>
   <trkpt lat="59.0595529575" lon="29.964221029"><ele>92.961</ele><time>2026-04-25T10:23:14.000Z</time><hdop>1.75</hdop><vdop>1.75</vdop><extensions><gom:speed>0.754</gom:speed></extensions></trkpt>
   <trkpt lat="59.0595588667" lon="29.9642265611"><ele>92.974</ele><time>2026-04-25T10:23:15.000Z</time><hdop>1.562</hdop><vdop>1.562</vdop><extensions><gom:speed>0.711</gom:speed></extensions></trkpt>
   <trkpt lat="59.0595696375" lon="29.9642260582"><ele>92.968</ele><time>2026-04-25T10:23:16.000Z</time><hdop>1.562</hdop><vdop>1.562</vdop><extensions><gom:speed>0.717</gom:speed></extensions></trkpt>
   <trkpt lat="59.0595743314" lon="29.9642322608"><ele>92.964</ele><time>2026-04-25T10:23:17.000Z</time><hdop>1.312</hdop><vdop>1.312</vdop><extensions><gom:speed>0.595</gom:speed></extensions></trkpt>
   <trkpt lat="59.0595787319" lon="29.9642273993"><ele>92.961</ele><time>2026-04-25T10:23:18.000Z</time><hdop>1.25</hdop><vdop>1.25</vdop><extensions><gom:speed>0.68</gom:speed></extensions></trkpt>
   <trkpt lat="59.0595909694" lon="29.9642351944"><ele>93.154</ele><time>2026-04-25T10:23:19.000Z</time><hdop>1.875</hdop><vdop>1.875</vdop><extensions><gom:speed>0.778</gom:speed></extensions></trkpt>
   <trkpt lat="59.0595965434" lon="29.9642396368"><ele>93.27</ele><time>2026-04-25T10:23:20.000Z</time><hdop>2.187</hdop><vdop>2.187</vdop><extensions><gom:speed>0.749</gom:speed></extensions></trkpt>
   <trkpt lat="59.0596018659" lon="29.9642415647"><ele>93.339</ele><time>2026-04-25T10:23:21.000Z</time><hdop>2.312</hdop><vdop>2.312</vdop><extensions><gom:speed>0.166</gom:speed></extensions></trkpt>
   <trkpt lat="59.0596011954" lon="29.9642388825"><ele>93.38</ele><time>2026-04-25T10:23:22.000Z</time><hdop>2.562</hdop><vdop>2.562</vdop><extensions><gom:speed>0.437</gom:speed></extensions></trkpt>
   <trkpt lat="59.0596205156" lon="29.9642582447"><ele>93.417</ele><time>2026-04-25T10:23:23.000Z</time><hdop>3.062</hdop><vdop>3.062</vdop><extensions><gom:speed>0.624</gom:speed></extensions></trkpt>
   <trkpt lat="59.0596544204" lon="29.9642927781"><ele>93.503</ele><time>2026-04-25T10:23:24.000Z</time><hdop>2.437</hdop><vdop>2.437</vdop><extensions><gom:speed>0.768</gom:speed></extensions></trkpt>
   <trkpt lat="59.0596892892" lon="29.9643273954"><ele>93.555</ele><time>2026-04-25T10:23:25.000Z</time><hdop>2.187</hdop><vdop>2.187</vdop><extensions><gom:speed>0.805</gom:speed></extensions></trkpt>
   <trkpt lat="59.0597183744" lon="29.9643490207"><ele>93.282</ele><time>2026-04-25T10:23:26.000Z</time><hdop>2.375</hdop><vdop>2.375</vdop><extensions><gom:speed>0.942</gom:speed></extensions></trkpt>
   <trkpt lat="59.0597332103" lon="29.9643559777"><ele>95.023</ele><time>2026-04-25T10:23:27.000Z</time><hdop>3.0</hdop><vdop>3.0</vdop><extensions><gom:speed>0.743</gom:speed></extensions></trkpt>
   <trkpt lat="59.059740754" lon="29.9643565644"><ele>96.076</ele><time>2026-04-25T10:23:28.000Z</time><hdop>3.0</hdop><vdop>3.0</vdop><extensions><gom:speed>0.77</gom:speed></extensions></trkpt>
   <trkpt lat="59.0597484654" lon="29.9643546366"><ele>96.696</ele><time>2026-04-25T10:23:29.000Z</time><hdop>3.0</hdop><vdop>3.0</vdop><extensions><gom:speed>0.721</gom:speed></extensions></trkpt>
   <trkpt lat="59.0597547099" lon="29.9643484339"><ele>97.039</ele><time>2026-04-25T10:23:30.000Z</time><hdop>3.0</hdop><vdop>3.0</vdop><extensions><gom:speed>0.568</gom:speed></extensions></trkpt>
   <trkpt lat="59.0597645586" lon="29.9643420637"><ele>97.265</ele><time>2026-04-25T10:23:31.000Z</time><hdop>3.0</hdop><vdop>3.0</vdop><extensions><gom:speed>0.75</gom:speed></extensions></trkpt>
   <trkpt lat="59.0597737787" lon="29.9643388786"><ele>97.406</ele><time>2026-04-25T10:23:32.000Z</time><hdop>3.0</hdop><vdop>3.0</vdop><extensions><gom:speed>0.824</gom:speed></extensions></trkpt>
   <trkpt lat="59.0597737787" lon="29.9643388786"><ele>97.49</ele><time>2026-04-25T10:23:32.000Z</time><hdop>3.0</hdop><vdop>3.0</vdop><extensions><gom:speed>0.824</gom:speed></extensions></trkpt>
   <trkpt lat="59.0597845495" lon="29.964338208"><ele>97.552</ele><time>2026-04-25T10:23:33.000Z</time><hdop>3.0</hdop><vdop>3.0</vdop><extensions><gom:speed>0.634</gom:speed></extensions></trkpt>
   <trkpt lat="59.0597937696" lon="29.9643410579"><ele>97.587</ele><time>2026-04-25T10:23:34.000Z</time><hdop>3.0</hdop><vdop>3.0</vdop><extensions><gom:speed>0.49</gom:speed></extensions></trkpt>
   <trkpt lat="59.0598004751" lon="29.9643413931"><ele>97.613</ele><time>2026-04-25T10:23:35.000Z</time><hdop>3.0</hdop><vdop>3.0</vdop><extensions><gom:speed>0.443</gom:speed></extensions></trkpt>
   <trkpt lat="59.059807013" lon="29.9643446621"><ele>97.595</ele><time>2026-04-25T10:23:36.000Z</time><hdop>3.0</hdop><vdop>3.0</vdop><extensions><gom:speed>0.416</gom:speed></extensions></trkpt>
   <trkpt lat="59.0598149758" lon="29.9643487692"><ele>97.569</ele><time>2026-04-25T10:23:37.000Z</time><hdop>3.0</hdop><vdop>3.0</vdop><extensions><gom:speed>0.557</gom:speed></extensions></trkpt>
   <trkpt lat="59.0598236092" lon="29.9643592466"><ele>97.595</ele><time>2026-04-25T10:23:38.000Z</time><hdop>3.0</hdop><vdop>3.0</vdop><extensions><gom:speed>0.75</gom:speed></extensions></trkpt>
   <trkpt lat="59.0598318234" lon="29.9643646948"><ele>97.622</ele><time>2026-04-25T10:23:39.000Z</time><hdop>3.0</hdop><vdop>3.0</vdop><extensions><gom:speed>0.81</gom:speed></extensions></trkpt>
   <trkpt lat="59.0598453183" lon="29.9643698916"><ele>97.687</ele><time>2026-04-25T10:23:40.000Z</time><hdop>3.0</hdop><vdop>3.0</vdop><extensions><gom:speed>0.714</gom:speed></extensions></trkpt>
   <trkpt lat="59.0598530296" lon="29.9643723224"><ele>97.718</ele><time>2026-04-25T10:23:41.000Z</time><hdop>3.0</hdop><vdop>3.0</vdop><extensions><gom:speed>0.622</gom:speed></extensions></trkpt>
   <trkpt lat="59.0598617468" lon="29.9643721547"><ele>97.737</ele><time>2026-04-25T10:23:42.000Z</time><hdop>3.0</hdop><vdop>3.0</vdop><extensions><gom:speed>0.835</gom:speed></extensions></trkpt>
   <trkpt lat="59.0598689133" lon="29.9643727415"><ele>97.724</ele><time>2026-04-25T10:23:43.000Z</time><hdop>3.0</hdop><vdop>3.0</vdop><extensions><gom:speed>0.674</gom:speed></extensions></trkpt>
   <trkpt lat="59.0598754093" lon="29.964373412"><ele>97.711</ele><time>2026-04-25T10:23:44.000Z</time><hdop>3.0</hdop><vdop>3.0</vdop><extensions><gom:speed>0.681</gom:speed></extensions></trkpt>
   <trkpt lat="59.0598819891" lon="29.9643767648"><ele>97.703</ele><time>2026-04-25T10:23:45.000Z</time><hdop>3.0</hdop><vdop>3.0</vdop><extensions><gom:speed>0.62</gom:speed></extensions></trkpt>
   <trkpt lat="59.059889449" lon="29.9643807043"><ele>97.67</ele><time>2026-04-25T10:23:46.000Z</time><hdop>3.0</hdop><vdop>3.0</vdop><extensions><gom:speed>0.741</gom:speed></extensions></trkpt>
   <trkpt lat="59.059897789" lon="29.9643839732"><ele>97.642</ele><time>2026-04-25T10:23:47.000Z</time><hdop>3.0</hdop><vdop>3.0</vdop><extensions><gom:speed>0.658</gom:speed></extensions></trkpt>
   <trkpt lat="59.0599064224" lon="29.9643864878"><ele>97.588</ele><time>2026-04-25T10:23:48.000Z</time><hdop>3.0</hdop><vdop>3.0</vdop><extensions><gom:speed>0.697</gom:speed></extensions></trkpt>
   <trkpt lat="59.0599162711" lon="29.9643898405"><ele>97.526</ele><time>2026-04-25T10:23:49.000Z</time><hdop>3.0</hdop><vdop>3.0</vdop><extensions><gom:speed>0.715</gom:speed></extensions></trkpt>
   <trkpt lat="59.0599254493" lon="29.9643924389"><ele>97.469</ele><time>2026-04-25T10:23:50.000Z</time><hdop>3.0</hdop><vdop>3.0</vdop><extensions><gom:speed>0.595</gom:speed></extensions></trkpt>
   <trkpt lat="59.0599333702" lon="29.964397049"><ele>97.434</ele><time>2026-04-25T10:23:51.000Z</time><hdop>3.0</hdop><vdop>3.0</vdop><extensions><gom:speed>0.626</gom:speed></extensions></trkpt>
   <trkpt lat="59.0599400757" lon="29.9644052633"><ele>97.421</ele><time>2026-04-25T10:23:52.000Z</time><hdop>3.0</hdop><vdop>3.0</vdop><extensions><gom:speed>0.519</gom:speed></extensions></trkpt>
   <trkpt lat="59.0599400757" lon="29.9644052633"><ele>97.413</ele><time>2026-04-25T10:23:52.000Z</time><hdop>3.0</hdop><vdop>3.0</vdop><extensions><gom:speed>0.519</gom:speed></extensions></trkpt>
   <trkpt lat="59.0599477032" lon="29.9644143157"><ele>97.389</ele><time>2026-04-25T10:23:53.000Z</time><hdop>3.0</hdop><vdop>3.0</vdop><extensions><gom:speed>0.65</gom:speed></extensions></trkpt>
   <trkpt lat="59.0599552469" lon="29.9644242902"><ele>97.355</ele><time>2026-04-25T10:23:54.000Z</time><hdop>3.0</hdop><vdop>3.0</vdop><extensions><gom:speed>0.66</gom:speed></extensions></trkpt>
   <trkpt lat="59.0599634612" lon="29.9644305766"><ele>97.322</ele><time>2026-04-25T10:23:55.000Z</time><hdop>3.0</hdop><vdop>3.0</vdop><extensions><gom:speed>0.754</gom:speed></extensions></trkpt>
   <trkpt lat="59.0599725137" lon="29.9644342646"><ele>97.294</ele><time>2026-04-25T10:23:56.000Z</time><hdop>3.0</hdop><vdop>3.0</vdop><extensions><gom:speed>0.833</gom:speed></extensions></trkpt>
   <trkpt lat="59.0599790515" lon="29.9644363601"><ele>97.295</ele><time>2026-04-25T10:23:57.000Z</time><hdop>3.0</hdop><vdop>3.0</vdop><extensions><gom:speed>0.742</gom:speed></extensions></trkpt>
   <trkpt lat="59.0599863019" lon="29.9644408025"><ele>97.301</ele><time>2026-04-25T10:23:58.000Z</time><hdop>3.0</hdop><vdop>3.0</vdop><extensions><gom:speed>0.737</gom:speed></extensions></trkpt>
   <trkpt lat="59.0599977432" lon="29.9644528725"><ele>97.411</ele><time>2026-04-25T10:23:59.000Z</time><hdop>3.0</hdop><vdop>3.0</vdop><extensions><gom:speed>0.695</gom:speed></extensions></trkpt>
   <trkpt lat="59.0600049935" lon="29.9644633498"><ele>97.563</ele><time>2026-04-25T10:24:00.000Z</time><hdop>3.0</hdop><vdop>3.0</vdop><extensions><gom:speed>0.701</gom:speed></extensions></trkpt>
   <trkpt lat="59.0600127887" lon="29.9644713126"><ele>97.66</ele><time>2026-04-25T10:24:01.000Z</time><hdop>3.0</hdop><vdop>3.0</vdop><extensions><gom:speed>0.552</gom:speed></extensions></trkpt>
   <trkpt lat="59.0600199133" lon="29.9644766771"><ele>97.759</ele><time>2026-04-25T10:24:02.000Z</time><hdop>3.0</hdop><vdop>3.0</vdop><extensions><gom:speed>0.605</gom:speed></extensions></trkpt>
   <trkpt lat="59.0600277085" lon="29.964479024"><ele>97.843</ele><time>2026-04-25T10:24:03.000Z</time><hdop>3.0</hdop><vdop>3.0</vdop><extensions><gom:speed>0.608</gom:speed></extensions></trkpt>
   <trkpt lat="59.0600340787" lon="29.9644807004"><ele>97.908</ele><time>2026-04-25T10:24:04.000Z</time><hdop>3.0</hdop><vdop>3.0</vdop><extensions><gom:speed>0.556</gom:speed></extensions></trkpt>
   <trkpt lat="59.0600410776" lon="29.9644856457"><ele>97.974</ele><time>2026-04-25T10:24:05.000Z</time><hdop>3.0</hdop><vdop>3.0</vdop><extensions><gom:speed>0.668</gom:speed></extensions></trkpt>
   <trkpt lat="59.0600489147" lon="29.964486903"><ele>98.016</ele><time>2026-04-25T10:24:06.000Z</time><hdop>3.0</hdop><vdop>3.0</vdop><extensions><gom:speed>0.553</gom:speed></extensions></trkpt>
   <trkpt lat="59.0600489147" lon="29.964486903"><ele>98.041</ele><time>2026-04-25T10:24:07.000Z</time><hdop>3.0</hdop><vdop>3.0</vdop><extensions><gom:speed>0.0</gom:speed></extensions></trkpt>
   <trkpt lat="59.0600489147" lon="29.964486903"><ele>98.056</ele><time>2026-04-25T10:24:08.000Z</time><hdop>3.0</hdop><vdop>3.0</vdop><extensions><gom:speed>0.0</gom:speed></extensions></trkpt>
   <trkpt lat="59.0600489147" lon="29.964486903"><ele>98.065</ele><time>2026-04-25T10:24:09.000Z</time><hdop>3.0</hdop><vdop>3.0</vdop><extensions><gom:speed>0.0</gom:speed></extensions></trkpt>
   <trkpt lat="59.0600489147" lon="29.964486903"><ele>98.07</ele><time>2026-04-25T10:24:10.000Z</time><hdop>3.0</hdop><vdop>3.0</vdop><extensions><gom:speed>0.0</gom:speed></extensions></trkpt>
   <trkpt lat="59.060056668" lon="29.9644890823"><ele>98.041</ele><time>2026-04-25T10:24:11.000Z</time><hdop>3.0</hdop><vdop>3.0</vdop><extensions><gom:speed>0.155</gom:speed></extensions></trkpt>
   <trkpt lat="59.060056668" lon="29.9644890823"><ele>98.024</ele><time>2026-04-25T10:24:12.000Z</time><hdop>3.0</hdop><vdop>3.0</vdop><extensions><gom:speed>0.0</gom:speed></extensions></trkpt>
   <trkpt lat="59.0600614457" lon="29.9644951173"><ele>97.967</ele><time>2026-04-25T10:24:13.000Z</time><hdop>3.0</hdop><vdop>3.0</vdop><extensions><gom:speed>0.289</gom:speed></extensions></trkpt>
   <trkpt lat="59.0600614457" lon="29.9644951173"><ele>97.934</ele><time>2026-04-25T10:24:13.000Z</time><hdop>3.0</hdop><vdop>3.0</vdop><extensions><gom:speed>0.289</gom:speed></extensions></trkpt>
   <trkpt lat="59.0600614457" lon="29.9644951173"><ele>97.914</ele><time>2026-04-25T10:24:14.000Z</time><hdop>3.0</hdop><vdop>3.0</vdop><extensions><gom:speed>0.0</gom:speed></extensions></trkpt>
   <trkpt lat="59.060067313" lon="29.9645043373"><ele>97.864</ele><time>2026-04-25T10:24:15.000Z</time><hdop>3.0</hdop><vdop>3.0</vdop><extensions><gom:speed>0.199</gom:speed></extensions></trkpt>
   <trkpt lat="59.0600753177" lon="29.9645108752"><ele>97.806</ele><time>2026-04-25T10:24:16.000Z</time><hdop>3.0</hdop><vdop>3.0</vdop><extensions><gom:speed>0.341</gom:speed></extensions></trkpt>
   <trkpt lat="59.0600851664" lon="29.96451515"><ele>97.749</ele><time>2026-04-25T10:24:17.000Z</time><hdop>3.0</hdop><vdop>3.0</vdop><extensions><gom:speed>0.5</gom:speed></extensions></trkpt>
   <trkpt lat="59.0600933388" lon="29.9645195086"><ele>97.687</ele><time>2026-04-25T10:24:18.000Z</time><hdop>3.0</hdop><vdop>3.0</vdop><extensions><gom:speed>0.562</gom:speed></extensions></trkpt>
   <trkpt lat="59.0601010501" lon="29.9645207659"><ele>97.647</ele><time>2026-04-25T10:24:19.000Z</time><hdop>3.0</hdop><vdop>3.0</vdop><extensions><gom:speed>0.36</gom:speed></extensions></trkpt>
   <trkpt lat="59.0601010501" lon="29.9645207659"><ele>97.623</ele><time>2026-04-25T10:24:20.000Z</time><hdop>3.0</hdop><vdop>3.0</vdop><extensions><gom:speed>0.0</gom:speed></extensions></trkpt>
   <trkpt lat="59.0601010501" lon="29.9645207659"><ele>97.608</ele><time>2026-04-25T10:24:21.000Z</time><hdop>3.0</hdop><vdop>3.0</vdop><extensions><gom:speed>0.0</gom:speed></extensions></trkpt>
   <trkpt lat="59.0601010501" lon="29.9645207659"><ele>97.6</ele><time>2026-04-25T10:24:22.000Z</time><hdop>3.0</hdop><vdop>3.0</vdop><extensions><gom:speed>0.0</gom:speed></extensions></trkpt>
   <trkpt lat="59.0601010501" lon="29.9645207659"><ele>97.594</ele><time>2026-04-25T10:24:23.000Z</time><hdop>3.0</hdop><vdop>3.0</vdop><extensions><gom:speed>0.0</gom:speed></extensions></trkpt>
   <trkpt lat="59.0601010501" lon="29.9645207659"><ele>97.591</ele><time>2026-04-25T10:24:24.000Z</time><hdop>3.0</hdop><vdop>3.0</vdop><extensions><gom:speed>0.0</gom:speed></extensions></trkpt>
   <trkpt lat="59.0601064565" lon="29.9645205982"><ele>97.597</ele><time>2026-04-25T10:24:25.000Z</time><hdop>3.0</hdop><vdop>3.0</vdop><extensions><gom:speed>0.347</gom:speed></extensions></trkpt>
   <trkpt lat="59.0601160957" lon="29.9645201791"><ele>97.602</ele><time>2026-04-25T10:24:26.000Z</time><hdop>3.125</hdop><vdop>3.125</vdop><extensions><gom:speed>0.552</gom:speed></extensions></trkpt>
   <trkpt lat="59.0601248967" lon="29.9645182513"><ele>97.559</ele><time>2026-04-25T10:24:27.000Z</time><hdop>3.125</hdop><vdop>3.125</vdop><extensions><gom:speed>0.562</gom:speed></extensions></trkpt>
   <trkpt lat="59.0601345359" lon="29.9645185866"><ele>97.497</ele><time>2026-04-25T10:24:28.000Z</time><hdop>3.0</hdop><vdop>3.0</vdop><extensions><gom:speed>0.597</gom:speed></extensions></trkpt>
   <trkpt lat="59.0601514673" lon="29.9645270523"><ele>97.477</ele><time>2026-04-25T10:24:29.000Z</time><hdop>3.0</hdop><vdop>3.0</vdop><extensions><gom:speed>0.791</gom:speed></extensions></trkpt>
   <trkpt lat="59.0601758167" lon="29.964510037"><ele>96.414</ele><time>2026-04-25T10:24:30.000Z</time><hdop>20.0</hdop><vdop>20.0</vdop><extensions><gom:speed>0.605</gom:speed></extensions></trkpt>
   <trkpt lat="59.0601961848" lon="29.9644864839"><ele>96.264</ele><time>2026-04-25T10:24:31.000Z</time><hdop>20.0</hdop><vdop>20.0</vdop><extensions><gom:speed>0.156</gom:speed></extensions></trkpt>
   <trkpt lat="59.0602103502" lon="29.9644786887"><ele>96.274</ele><time>2026-04-25T10:24:32.000Z</time><hdop>17.125</hdop><vdop>17.125</vdop><extensions><gom:speed>1.546</gom:speed></extensions></trkpt>
   <trkpt lat="59.0602103502" lon="29.9644786887"><ele>96.281</ele><time>2026-04-25T10:24:32.000Z</time><hdop>17.125</hdop><vdop>17.125</vdop><extensions><gom:speed>1.546</gom:speed></extensions></trkpt>
   <trkpt lat="59.0602168461" lon="29.9644822929"><ele>96.484</ele><time>2026-04-25T10:24:33.000Z</time><hdop>3.0</hdop><vdop>3.0</vdop><extensions><gom:speed>0.71</gom:speed></extensions></trkpt>
   <trkpt lat="59.0602269044" lon="29.9644780182"><ele>96.613</ele><time>2026-04-25T10:24:34.000Z</time><hdop>3.0</hdop><vdop>3.0</vdop><extensions><gom:speed>0.842</gom:speed></extensions></trkpt>
   <trkpt lat="59.0602370046" lon="29.9644684628"><ele>96.679</ele><time>2026-04-25T10:24:35.000Z</time><hdop>3.0</hdop><vdop>3.0</vdop><extensions><gom:speed>0.787</gom:speed></extensions></trkpt>
   <trkpt lat="59.0602435844" lon="29.9644615058"><ele>96.725</ele><time>2026-04-25T10:24:36.000Z</time><hdop>3.0</hdop><vdop>3.0</vdop><extensions><gom:speed>0.576</gom:speed></extensions></trkpt>
   <trkpt lat="59.0602495775" lon="29.9644568958"><ele>96.753</ele><time>2026-04-25T10:24:37.000Z</time><hdop>3.0</hdop><vdop>3.0</vdop><extensions><gom:speed>0.416</gom:speed></extensions></trkpt>
   <trkpt lat="59.060257666" lon="29.9644587398"><ele>96.797</ele><time>2026-04-25T10:24:38.000Z</time><hdop>3.0</hdop><vdop>3.0</vdop><extensions><gom:speed>0.316</gom:speed></extensions></trkpt>
   <trkpt lat="59.0602649583" lon="29.9644556385"><ele>96.788</ele><time>2026-04-25T10:24:39.000Z</time><hdop>3.0</hdop><vdop>3.0</vdop><extensions><gom:speed>0.359</gom:speed></extensions></trkpt>
   <trkpt lat="59.0602702389" lon="29.9644538783"><ele>96.757</ele><time>2026-04-25T10:24:40.000Z</time><hdop>3.0</hdop><vdop>3.0</vdop><extensions><gom:speed>0.367</gom:speed></extensions></trkpt>
   <trkpt lat="59.0602784112" lon="29.9644537107"><ele>96.694</ele><time>2026-04-25T10:24:41.000Z</time><hdop>3.0</hdop><vdop>3.0</vdop><extensions><gom:speed>0.402</gom:speed></extensions></trkpt>
   <trkpt lat="59.0602886791" lon="29.9644528725"><ele>96.609</ele><time>2026-04-25T10:24:42.000Z</time><hdop>3.0</hdop><vdop>3.0</vdop><extensions><gom:speed>0.455</gom:speed></extensions></trkpt>
   <trkpt lat="59.0602973124" lon="29.9644522019"><ele>96.502</ele><time>2026-04-25T10:24:43.000Z</time><hdop>3.0</hdop><vdop>3.0</vdop><extensions><gom:speed>0.48</gom:speed></extensions></trkpt>
   <trkpt lat="59.06030582" lon="29.9644490168"><ele>96.415</ele><time>2026-04-25T10:24:44.000Z</time><hdop>3.0</hdop><vdop>3.0</vdop><extensions><gom:speed>0.47</gom:speed></extensions></trkpt>
   <trkpt lat="59.060315585" lon="29.9644431495"><ele>96.355</ele><time>2026-04-25T10:24:45.000Z</time><hdop>3.0</hdop><vdop>3.0</vdop><extensions><gom:speed>0.604</gom:speed></extensions></trkpt>
   <trkpt lat="59.0603244698" lon="29.9644404672"><ele>96.268</ele><time>2026-04-25T10:24:46.000Z</time><hdop>3.0</hdop><vdop>3.0</vdop><extensions><gom:speed>0.526</gom:speed></extensions></trkpt>
   <trkpt lat="59.0603367074" lon="29.9644433171"><ele>96.195</ele><time>2026-04-25T10:24:47.000Z</time><hdop>3.0</hdop><vdop>3.0</vdop><extensions><gom:speed>0.574</gom:speed></extensions></trkpt>
   <trkpt lat="59.0603489868" lon="29.9644465022"><ele>96.178</ele><time>2026-04-25T10:24:48.000Z</time><hdop>3.187</hdop><vdop>3.187</vdop><extensions><gom:speed>0.474</gom:speed></extensions></trkpt>
   <trkpt lat="59.0603579136" lon="29.9644501903"><ele>96.187</ele><time>2026-04-25T10:24:49.000Z</time><hdop>3.125</hdop><vdop>3.125</vdop><extensions><gom:speed>0.535</gom:speed></extensions></trkpt>
   <trkpt lat="59.0603649544" lon="29.9644511961"><ele>96.238</ele><time>2026-04-25T10:24:50.000Z</time><hdop>3.125</hdop><vdop>3.125</vdop><extensions><gom:speed>0.514</gom:speed></extensions></trkpt>
   <trkpt lat="59.0603712827" lon="29.9644506093"><ele>96.334</ele><time>2026-04-25T10:24:51.000Z</time><hdop>3.0</hdop><vdop>3.0</vdop><extensions><gom:speed>0.464</gom:speed></extensions></trkpt>
   <trkpt lat="59.0603712827" lon="29.9644506093"><ele>96.391</ele><time>2026-04-25T10:24:52.000Z</time><hdop>3.0</hdop><vdop>3.0</vdop><extensions><gom:speed>0.0</gom:speed></extensions></trkpt>
   <trkpt lat="59.0603712827" lon="29.9644506093"><ele>96.425</ele><time>2026-04-25T10:24:52.000Z</time><hdop>3.0</hdop><vdop>3.0</vdop><extensions><gom:speed>0.0</gom:speed></extensions></trkpt>
   <trkpt lat="59.0603751384" lon="29.9644532916"><ele>96.45</ele><time>2026-04-25T10:24:53.000Z</time><hdop>3.0</hdop><vdop>3.0</vdop><extensions><gom:speed>0.245</gom:speed></extensions></trkpt>
   <trkpt lat="59.0603799161" lon="29.9644599971"><ele>96.466</ele><time>2026-04-25T10:24:54.000Z</time><hdop>3.0</hdop><vdop>3.0</vdop><extensions><gom:speed>0.324</gom:speed></extensions></trkpt>
   <trkpt lat="59.0603856996" lon="29.9644622602"><ele>96.458</ele><time>2026-04-25T10:24:55.000Z</time><hdop>3.0</hdop><vdop>3.0</vdop><extensions><gom:speed>0.364</gom:speed></extensions></trkpt>
   <trkpt lat="59.0603903515" lon="29.9644661997"><ele>96.447</ele><time>2026-04-25T10:24:56.000Z</time><hdop>3.0</hdop><vdop>3.0</vdop><extensions><gom:speed>0.321</gom:speed></extensions></trkpt>
   <trkpt lat="59.0603960512" lon="29.9644705583"><ele>96.433</ele><time>2026-04-25T10:24:57.000Z</time><hdop>3.0</hdop><vdop>3.0</vdop><extensions><gom:speed>0.52</gom:speed></extensions></trkpt>
   <trkpt lat="59.0604026729" lon="29.9644732405"><ele>96.427</ele><time>2026-04-25T10:24:58.000Z</time><hdop>3.0</hdop><vdop>3.0</vdop><extensions><gom:speed>0.334</gom:speed></extensions></trkpt>
   <trkpt lat="59.0604091689" lon="29.9644756712"><ele>96.433</ele><time>2026-04-25T10:24:59.000Z</time><hdop>3.0</hdop><vdop>3.0</vdop><extensions><gom:speed>0.394</gom:speed></extensions></trkpt>
   <trkpt lat="59.0604157906" lon="29.9644817062"><ele>96.442</ele><time>2026-04-25T10:25:00.000Z</time><hdop>3.0</hdop><vdop>3.0</vdop><extensions><gom:speed>0.396</gom:speed></extensions></trkpt>
   <trkpt lat="59.0604219932" lon="29.9644846399"><ele>96.428</ele><time>2026-04-25T10:25:01.000Z</time><hdop>3.0</hdop><vdop>3.0</vdop><extensions><gom:speed>0.316</gom:speed></extensions></trkpt>
   <trkpt lat="59.0604307523" lon="29.9644870706"><ele>96.467</ele><time>2026-04-25T10:25:02.000Z</time><hdop>3.0</hdop><vdop>3.0</vdop><extensions><gom:speed>0.491</gom:speed></extensions></trkpt>
   <trkpt lat="59.0604413973" lon="29.9644865677"><ele>96.544</ele><time>2026-04-25T10:25:03.000Z</time><hdop>3.0</hdop><vdop>3.0</vdop><extensions><gom:speed>0.523</gom:speed></extensions></trkpt>
   <trkpt lat="59.0604522938" lon="29.9644820415"><ele>96.636</ele><time>2026-04-25T10:25:04.000Z</time><hdop>3.125</hdop><vdop>3.125</vdop><extensions><gom:speed>0.755</gom:speed></extensions></trkpt>
   <trkpt lat="59.060463777" lon="29.9644811195"><ele>96.757</ele><time>2026-04-25T10:25:05.000Z</time><hdop>3.062</hdop><vdop>3.062</vdop><extensions><gom:speed>0.924</gom:speed></extensions></trkpt>
   <trkpt lat="59.0604759727" lon="29.9644787725"><ele>96.861</ele><time>2026-04-25T10:25:06.000Z</time><hdop>3.0</hdop><vdop>3.0</vdop><extensions><gom:speed>0.854</gom:speed></extensions></trkpt>
   <trkpt lat="59.0604868692" lon="29.9644786049"><ele>96.938</ele><time>2026-04-25T10:25:07.000Z</time><hdop>3.0</hdop><vdop>3.0</vdop><extensions><gom:speed>0.678</gom:speed></extensions></trkpt>
   <trkpt lat="59.0604956282" lon="29.964478102"><ele>97.013</ele><time>2026-04-25T10:25:08.000Z</time><hdop>3.0</hdop><vdop>3.0</vdop><extensions><gom:speed>0.607</gom:speed></extensions></trkpt>
   <trkpt lat="59.0605062313" lon="29.9644810357"><ele>97.094</ele><time>2026-04-25T10:25:09.000Z</time><hdop>3.0</hdop><vdop>3.0</vdop><extensions><gom:speed>0.761</gom:speed></extensions></trkpt>
   <trkpt lat="59.0605169602" lon="29.9644840531"><ele>97.111</ele><time>2026-04-25T10:25:10.000Z</time><hdop>3.0</hdop><vdop>3.0</vdop><extensions><gom:speed>0.756</gom:speed></extensions></trkpt>
   <trkpt lat="59.0605292397" lon="29.9644833826"><ele>97.234</ele><time>2026-04-25T10:25:11.000Z</time><hdop>3.0</hdop><vdop>3.0</vdop><extensions><gom:speed>0.746</gom:speed></extensions></trkpt>
   <trkpt lat="59.0605406391" lon="29.9644821253"><ele>97.43</ele><time>2026-04-25T10:25:12.000Z</time><hdop>3.0</hdop><vdop>3.0</vdop><extensions><gom:speed>0.754</gom:speed></extensions></trkpt>
   <trkpt lat="59.0605406391" lon="29.9644821253"><ele>97.547</ele><time>2026-04-25T10:25:12.000Z</time><hdop>3.0</hdop><vdop>3.0</vdop><extensions><gom:speed>0.754</gom:speed></extensions></trkpt>
   <trkpt lat="59.0605537148" lon="29.9644838855"><ele>97.808</ele><time>2026-04-25T10:25:13.000Z</time><hdop>3.0</hdop><vdop>3.0</vdop><extensions><gom:speed>0.704</gom:speed></extensions></trkpt>
   <trkpt lat="59.0605657848" lon="29.9644879926"><ele>98.132</ele><time>2026-04-25T10:25:14.000Z</time><hdop>3.0</hdop><vdop>3.0</vdop><extensions><gom:speed>0.666</gom:speed></extensions></trkpt>
   <trkpt lat="59.0605736638" lon="29.9644928541"><ele>98.372</ele><time>2026-04-25T10:25:15.000Z</time><hdop>3.0</hdop><vdop>3.0</vdop><extensions><gom:speed>0.413</gom:speed></extensions></trkpt>
   <trkpt lat="59.0605804531" lon="29.9644995597"><ele>98.549</ele><time>2026-04-25T10:25:16.000Z</time><hdop>3.0</hdop><vdop>3.0</vdop><extensions><gom:speed>0.447</gom:speed></extensions></trkpt>
   <trkpt lat="59.0605853146" lon="29.9645040859"><ele>98.717</ele><time>2026-04-25T10:25:17.000Z</time><hdop>3.0</hdop><vdop>3.0</vdop><extensions><gom:speed>0.371</gom:speed></extensions></trkpt>
   <trkpt lat="59.0605864881" lon="29.9645079416"><ele>98.839</ele><time>2026-04-25T10:25:18.000Z</time><hdop>3.0</hdop><vdop>3.0</vdop><extensions><gom:speed>0.344</gom:speed></extensions></trkpt>
   <trkpt lat="59.0605877873" lon="29.9645107076"><ele>98.937</ele><time>2026-04-25T10:25:19.000Z</time><hdop>3.0</hdop><vdop>3.0</vdop><extensions><gom:speed>0.208</gom:speed></extensions></trkpt>
   <trkpt lat="59.060590679" lon="29.9645108752"><ele>99.025</ele><time>2026-04-25T10:25:20.000Z</time><hdop>3.0</hdop><vdop>3.0</vdop><extensions><gom:speed>0.164</gom:speed></extensions></trkpt>
   <trkpt lat="59.0605969235" lon="29.9645089474"><ele>99.104</ele><time>2026-04-25T10:25:21.000Z</time><hdop>3.0</hdop><vdop>3.0</vdop><extensions><gom:speed>0.194</gom:speed></extensions></trkpt>
   <trkpt lat="59.0606006116" lon="29.9645084445"><ele>99.168</ele><time>2026-04-25T10:25:22.000Z</time><hdop>3.0</hdop><vdop>3.0</vdop><extensions><gom:speed>0.23</gom:speed></extensions></trkpt>
   <trkpt lat="59.0606063951" lon="29.9645088636"><ele>99.132</ele><time>2026-04-25T10:25:23.000Z</time><hdop>3.0</hdop><vdop>3.0</vdop><extensions><gom:speed>0.311</gom:speed></extensions></trkpt>
   <trkpt lat="59.0606125977" lon="29.9645096179"><ele>99.05</ele><time>2026-04-25T10:25:24.000Z</time><hdop>3.0</hdop><vdop>3.0</vdop><extensions><gom:speed>0.387</gom:speed></extensions></trkpt>
   <trkpt lat="59.0606190518" lon="29.9645130545"><ele>98.984</ele><time>2026-04-25T10:25:25.000Z</time><hdop>3.0</hdop><vdop>3.0</vdop><extensions><gom:speed>0.482</gom:speed></extensions></trkpt>
   <trkpt lat="59.0606265117" lon="29.9645196762"><ele>98.953</ele><time>2026-04-25T10:25:26.000Z</time><hdop>3.0</hdop><vdop>3.0</vdop><extensions><gom:speed>0.596</gom:speed></extensions></trkpt>
   <trkpt lat="59.0606338039" lon="29.9645260465"><ele>98.93</ele><time>2026-04-25T10:25:27.000Z</time><hdop>3.0</hdop><vdop>3.0</vdop><extensions><gom:speed>0.681</gom:speed></extensions></trkpt>
   <trkpt lat="59.0606456643" lon="29.9645287287"><ele>98.951</ele><time>2026-04-25T10:25:28.000Z</time><hdop>3.0</hdop><vdop>3.0</vdop><extensions><gom:speed>0.556</gom:speed></extensions></trkpt>
   <trkpt lat="59.060656016" lon="29.9645247892"><ele>99.031</ele><time>2026-04-25T10:25:29.000Z</time><hdop>3.0</hdop><vdop>3.0</vdop><extensions><gom:speed>0.645</gom:speed></extensions></trkpt>
   <trkpt lat="59.0606662419" lon="29.9645175808"><ele>99.115</ele><time>2026-04-25T10:25:30.000Z</time><hdop>3.0</hdop><vdop>3.0</vdop><extensions><gom:speed>0.571</gom:speed></extensions></trkpt>
   <trkpt lat="59.0606721092" lon="29.9645125516"><ele>99.208</ele><time>2026-04-25T10:25:31.000Z</time><hdop>3.0</hdop><vdop>3.0</vdop><extensions><gom:speed>0.638</gom:speed></extensions></trkpt>
   <trkpt lat="59.0606781023" lon="29.964506349"><ele>99.305</ele><time>2026-04-25T10:25:32.000Z</time><hdop>3.0</hdop><vdop>3.0</vdop><extensions><gom:speed>0.669</gom:speed></extensions></trkpt>
   <trkpt lat="59.0606781023" lon="29.964506349"><ele>99.363</ele><time>2026-04-25T10:25:32.000Z</time><hdop>3.0</hdop><vdop>3.0</vdop><extensions><gom:speed>0.669</gom:speed></extensions></trkpt>
   <trkpt lat="59.0606887892" lon="29.9645007331"><ele>99.392</ele><time>2026-04-25T10:25:33.000Z</time><hdop>3.0</hdop><vdop>3.0</vdop><extensions><gom:speed>0.556</gom:speed></extensions></trkpt>
   <trkpt lat="59.0606942793" lon="29.9645009846"><ele>99.409</ele><time>2026-04-25T10:25:34.000Z</time><hdop>3.0</hdop><vdop>3.0</vdop><extensions><gom:speed>0.473</gom:speed></extensions></trkpt>
   <trkpt lat="59.06070044" lon="29.9645022419"><ele>99.424</ele><time>2026-04-25T10:25:35.000Z</time><hdop>3.0</hdop><vdop>3.0</vdop><extensions><gom:speed>0.508</gom:speed></extensions></trkpt>
   <trkpt lat="59.0607098697" lon="29.9645044212"><ele>99.441</ele><time>2026-04-25T10:25:36.000Z</time><hdop>3.0</hdop><vdop>3.0</vdop><extensions><gom:speed>0.434</gom:speed></extensions></trkpt>
   <trkpt lat="59.0607192574" lon="29.9645070196"><ele>99.476</ele><time>2026-04-25T10:25:37.000Z</time><hdop>3.0</hdop><vdop>3.0</vdop><extensions><gom:speed>0.583</gom:speed></extensions></trkpt>
   <trkpt lat="59.0607279746" lon="29.9645101209"><ele>99.496</ele><time>2026-04-25T10:25:38.000Z</time><hdop>3.0</hdop><vdop>3.0</vdop><extensions><gom:speed>0.537</gom:speed></extensions></trkpt>
   <trkpt lat="59.0607350992" lon="29.9645147309"><ele>99.556</ele><time>2026-04-25T10:25:39.000Z</time><hdop>3.0</hdop><vdop>3.0</vdop><extensions><gom:speed>0.454</gom:speed></extensions></trkpt>
   <trkpt lat="59.060741218" lon="29.9645138927"><ele>99.634</ele><time>2026-04-25T10:25:40.000Z</time><hdop>3.0</hdop><vdop>3.0</vdop><extensions><gom:speed>0.491</gom:speed></extensions></trkpt>
   <trkpt lat="59.0607489713" lon="29.9645121325"><ele>99.682</ele><time>2026-04-25T10:25:41.000Z</time><hdop>3.0</hdop><vdop>3.0</vdop><extensions><gom:speed>0.544</gom:speed></extensions></trkpt>
   <trkpt lat="59.0607545033" lon="29.9645115458"><ele>99.76</ele><time>2026-04-25T10:25:42.000Z</time><hdop>3.0</hdop><vdop>3.0</vdop><extensions><gom:speed>0.518</gom:speed></extensions></trkpt>
   <trkpt lat="59.0607602868" lon="29.9645107076"><ele>99.839</ele><time>2026-04-25T10:25:43.000Z</time><hdop>3.0</hdop><vdop>3.0</vdop><extensions><gom:speed>0.527</gom:speed></extensions></trkpt>
   <trkpt lat="59.0607677467" lon="29.9645095341"><ele>99.868</ele><time>2026-04-25T10:25:44.000Z</time><hdop>3.0</hdop><vdop>3.0</vdop><extensions><gom:speed>0.747</gom:speed></extensions></trkpt>
   <trkpt lat="59.0607762124" lon="29.9645061814"><ele>99.86</ele><time>2026-04-25T10:25:45.000Z</time><hdop>3.0</hdop><vdop>3.0</vdop><extensions><gom:speed>0.8</gom:speed></extensions></trkpt>
   <trkpt lat="59.0607878214" lon="29.9645030801"><ele>99.903</ele><time>2026-04-25T10:25:46.000Z</time><hdop>3.0</hdop><vdop>3.0</vdop><extensions><gom:speed>0.8</gom:speed></extensions></trkpt>
   <trkpt lat="59.0607955327" lon="29.9644974642"><ele>99.917</ele><time>2026-04-25T10:25:47.000Z</time><hdop>3.0</hdop><vdop>3.0</vdop><extensions><gom:speed>0.677</gom:speed></extensions></trkpt>
   <trkpt lat="59.0608037051" lon="29.9644931056"><ele>99.899</ele><time>2026-04-25T10:25:48.000Z</time><hdop>3.0</hdop><vdop>3.0</vdop><extensions><gom:speed>0.587</gom:speed></extensions></trkpt>
   <trkpt lat="59.0608114584" lon="29.9644863163"><ele>99.88</ele><time>2026-04-25T10:25:49.000Z</time><hdop>3.0</hdop><vdop>3.0</vdop><extensions><gom:speed>0.619</gom:speed></extensions></trkpt>
   <trkpt lat="59.0608192116" lon="29.9644781858"><ele>99.869</ele><time>2026-04-25T10:25:50.000Z</time><hdop>3.0</hdop><vdop>3.0</vdop><extensions><gom:speed>0.725</gom:speed></extensions></trkpt>
   <trkpt lat="59.0608251628" lon="29.9644662835"><ele>99.833</ele><time>2026-04-25T10:25:51.000Z</time><hdop>3.0</hdop><vdop>3.0</vdop><extensions><gom:speed>0.732</gom:speed></extensions></trkpt>
   <trkpt lat="59.0608326646" lon="29.9644537945"><ele>99.781</ele><time>2026-04-25T10:25:52.000Z</time><hdop>3.0</hdop><vdop>3.0</vdop><extensions><gom:speed>0.725</gom:speed></extensions></trkpt>
   <trkpt lat="59.0608326646" lon="29.9644537945"><ele>99.75</ele><time>2026-04-25T10:25:52.000Z</time><hdop>3.0</hdop><vdop>3.0</vdop><extensions><gom:speed>0.725</gom:speed></extensions></trkpt>
   <trkpt lat="59.0608414237" lon="29.9644411378"><ele>99.693</ele><time>2026-04-25T10:25:53.000Z</time><hdop>3.0</hdop><vdop>3.0</vdop><extensions><gom:speed>0.835</gom:speed></extensions></trkpt>
   <trkpt lat="59.0608504342" lon="29.9644283973"><ele>97.752</ele><time>2026-04-25T10:25:54.000Z</time><hdop>2.0</hdop><vdop>2.0</vdop><extensions><gom:speed>0.878</gom:speed></extensions></trkpt>
   <trkpt lat="59.0608598219" lon="29.9644149024"><ele>96.712</ele><time>2026-04-25T10:25:55.000Z</time><hdop>1.625</hdop><vdop>1.625</vdop><extensions><gom:speed>0.766</gom:speed></extensions></trkpt>
   <trkpt lat="59.0608782202" lon="29.964404006"><ele>96.576</ele><time>2026-04-25T10:25:56.000Z</time><hdop>1.875</hdop><vdop>1.875</vdop><extensions><gom:speed>0.603</gom:speed></extensions></trkpt>
   <trkpt lat="59.0608958222" lon="29.9643753399"><ele>97.337</ele><time>2026-04-25T10:25:57.000Z</time><hdop>1.875</hdop><vdop>1.875</vdop><extensions><gom:speed>0.62</gom:speed></extensions></trkpt>
   <trkpt lat="59.0609078502" lon="29.9643492721"><ele>98.111</ele><time>2026-04-25T10:25:58.000Z</time><hdop>1.937</hdop><vdop>1.937</vdop><extensions><gom:speed>0.568</gom:speed></extensions></trkpt>
   <trkpt lat="59.060907976" lon="29.9643517029"><ele>98.822</ele><time>2026-04-25T10:25:59.000Z</time><hdop>1.625</hdop><vdop>1.625</vdop><extensions><gom:speed>0.724</gom:speed></extensions></trkpt>
   <trkpt lat="59.0609214289" lon="29.9643385433"><ele>99.51</ele><time>2026-04-25T10:26:00.000Z</time><hdop>1.312</hdop><vdop>1.312</vdop><extensions><gom:speed>0.768</gom:speed></extensions></trkpt>
   <trkpt lat="59.0609318225" lon="29.9643424828"><ele>100.033</ele><time>2026-04-25T10:26:01.000Z</time><hdop>1.062</hdop><vdop>1.062</vdop><extensions><gom:speed>0.638</gom:speed></extensions></trkpt>
   <trkpt lat="59.0609417969" lon="29.9643522896"><ele>100.597</ele><time>2026-04-25T10:26:02.000Z</time><hdop>1.625</hdop><vdop>1.625</vdop><extensions><gom:speed>0.639</gom:speed></extensions></trkpt>
   <trkpt lat="59.0609461555" lon="29.9643620964"><ele>101.065</ele><time>2026-04-25T10:26:03.000Z</time><hdop>2.062</hdop><vdop>2.062</vdop><extensions><gom:speed>0.489</gom:speed></extensions></trkpt>
   <trkpt lat="59.0609481253" lon="29.9643692211"><ele>101.214</ele><time>2026-04-25T10:26:04.000Z</time><hdop>2.5</hdop><vdop>2.5</vdop><extensions><gom:speed>0.478</gom:speed></extensions></trkpt>
   <trkpt lat="59.060948712" lon="29.9643807043"><ele>101.233</ele><time>2026-04-25T10:26:05.000Z</time><hdop>2.937</hdop><vdop>2.937</vdop><extensions><gom:speed>0.426</gom:speed></extensions></trkpt>
   <trkpt lat="59.0609501789" lon="29.9643926904"><ele>101.152</ele><time>2026-04-25T10:26:06.000Z</time><hdop>3.562</hdop><vdop>3.562</vdop><extensions><gom:speed>0.479</gom:speed></extensions></trkpt>
   <trkpt lat="59.0609560881" lon="29.9644043412"><ele>101.014</ele><time>2026-04-25T10:26:07.000Z</time><hdop>3.625</hdop><vdop>3.625</vdop><extensions><gom:speed>0.519</gom:speed></extensions></trkpt>
   <trkpt lat="59.060961704" lon="29.964417417"><ele>100.925</ele><time>2026-04-25T10:26:08.000Z</time><hdop>3.812</hdop><vdop>3.812</vdop><extensions><gom:speed>0.173</gom:speed></extensions></trkpt>
   <trkpt lat="59.0609626679" lon="29.9644208536"><ele>100.864</ele><time>2026-04-25T10:26:09.000Z</time><hdop>4.125</hdop><vdop>4.125</vdop><extensions><gom:speed>0.37</gom:speed></extensions></trkpt>
   <trkpt lat="59.0609629613" lon="29.964423452"><ele>100.215</ele><time>2026-04-25T10:26:10.000Z</time><hdop>4.875</hdop><vdop>4.875</vdop><extensions><gom:speed>0.349</gom:speed></extensions></trkpt>
   <trkpt lat="59.0609648053" lon="29.9644298222"><ele>99.73</ele><time>2026-04-25T10:26:11.000Z</time><hdop>4.687</hdop><vdop>4.687</vdop><extensions><gom:speed>0.527</gom:speed></extensions></trkpt>
   <trkpt lat="59.0609684095" lon="29.96443921"><ele>99.342</ele><time>2026-04-25T10:26:12.000Z</time><hdop>4.812</hdop><vdop>4.812</vdop><extensions><gom:speed>0.348</gom:speed></extensions></trkpt>
   <trkpt lat="59.0609684095" lon="29.96443921"><ele>99.11</ele><time>2026-04-25T10:26:12.000Z</time><hdop>4.812</hdop><vdop>4.812</vdop><extensions><gom:speed>0.348</gom:speed></extensions></trkpt>
   <trkpt lat="59.0609734805" lon="29.9644476757"><ele>98.858</ele><time>2026-04-25T10:26:13.000Z</time><hdop>4.562</hdop><vdop>4.562</vdop><extensions><gom:speed>0.424</gom:speed></extensions></trkpt>
   <trkpt lat="59.0609789707" lon="29.9644573149"><ele>98.577</ele><time>2026-04-25T10:26:14.000Z</time><hdop>4.187</hdop><vdop>4.187</vdop><extensions><gom:speed>0.613</gom:speed></extensions></trkpt>
   <trkpt lat="59.0609858019" lon="29.9644651939"><ele>98.396</ele><time>2026-04-25T10:26:15.000Z</time><hdop>3.75</hdop><vdop>3.75</vdop><extensions><gom:speed>0.79</gom:speed></extensions></trkpt>
   <trkpt lat="59.0609935552" lon="29.9644724861"><ele>98.3</ele><time>2026-04-25T10:26:16.000Z</time><hdop>3.812</hdop><vdop>3.812</vdop><extensions><gom:speed>0.758</gom:speed></extensions></trkpt>
   <trkpt lat="59.0610001769" lon="29.9644768447"><ele>98.193</ele><time>2026-04-25T10:26:17.000Z</time><hdop>4.062</hdop><vdop>4.062</vdop><extensions><gom:speed>0.606</gom:speed></extensions></trkpt>
   <trkpt lat="59.0610060442" lon="29.9644815386"><ele>98.088</ele><time>2026-04-25T10:26:18.000Z</time><hdop>4.062</hdop><vdop>4.062</vdop><extensions><gom:speed>0.555</gom:speed></extensions></trkpt>
   <trkpt lat="59.0610103609" lon="29.964485059"><ele>97.998</ele><time>2026-04-25T10:26:19.000Z</time><hdop>3.562</hdop><vdop>3.562</vdop><extensions><gom:speed>0.468</gom:speed></extensions></trkpt>
   <trkpt lat="59.0610135879" lon="29.9644959554"><ele>97.914</ele><time>2026-04-25T10:26:20.000Z</time><hdop>3.5</hdop><vdop>3.5</vdop><extensions><gom:speed>0.336</gom:speed></extensions></trkpt>
   <trkpt lat="59.0610143842" lon="29.964510037"><ele>97.848</ele><time>2026-04-25T10:26:21.000Z</time><hdop>3.375</hdop><vdop>3.375</vdop><extensions><gom:speed>0.342</gom:speed></extensions></trkpt>
   <trkpt lat="59.0610167731" lon="29.9645186704"><ele>97.765</ele><time>2026-04-25T10:26:22.000Z</time><hdop>3.0</hdop><vdop>3.0</vdop><extensions><gom:speed>0.401</gom:speed></extensions></trkpt>
   <trkpt lat="59.0610211736" lon="29.9645288963"><ele>97.652</ele><time>2026-04-25T10:26:23.000Z</time><hdop>3.187</hdop><vdop>3.187</vdop><extensions><gom:speed>0.538</gom:speed></extensions></trkpt>
   <trkpt lat="59.0610251131" lon="29.9645427265"><ele>97.529</ele><time>2026-04-25T10:26:24.000Z</time><hdop>3.187</hdop><vdop>3.187</vdop><extensions><gom:speed>0.714</gom:speed></extensions></trkpt>
   <trkpt lat="59.0610307289" lon="29.9645518627"><ele>97.422</ele><time>2026-04-25T10:26:25.000Z</time><hdop>3.0</hdop><vdop>3.0</vdop><extensions><gom:speed>0.715</gom:speed></extensions></trkpt>
   <trkpt lat="59.0610349199" lon="29.9645678722"><ele>97.33</ele><time>2026-04-25T10:26:26.000Z</time><hdop>3.0</hdop><vdop>3.0</vdop><extensions><gom:speed>0.648</gom:speed></extensions></trkpt>
   <trkpt lat="59.0610404519" lon="29.9645763379"><ele>97.26</ele><time>2026-04-25T10:26:27.000Z</time><hdop>3.0</hdop><vdop>3.0</vdop><extensions><gom:speed>0.662</gom:speed></extensions></trkpt>
   <trkpt lat="59.0610470317" lon="29.9645854742"><ele>97.211</ele><time>2026-04-25T10:26:28.000Z</time><hdop>3.0</hdop><vdop>3.0</vdop><extensions><gom:speed>0.686</gom:speed></extensions></trkpt>
   <trkpt lat="59.0610549107" lon="29.9645972927"><ele>97.189</ele><time>2026-04-25T10:26:29.000Z</time><hdop>3.0</hdop><vdop>3.0</vdop><extensions><gom:speed>0.75</gom:speed></extensions></trkpt>
   <trkpt lat="59.0610627897" lon="29.9646065127"><ele>97.148</ele><time>2026-04-25T10:26:30.000Z</time><hdop>3.5</hdop><vdop>3.5</vdop><extensions><gom:speed>0.706</gom:speed></extensions></trkpt>
   <trkpt lat="59.0610701239" lon="29.9646054231"><ele>97.081</ele><time>2026-04-25T10:26:31.000Z</time><hdop>3.937</hdop><vdop>3.937</vdop><extensions><gom:speed>0.645</gom:speed></extensions></trkpt>
   <trkpt lat="59.0610777514" lon="29.9646014836"><ele>96.987</ele><time>2026-04-25T10:26:32.000Z</time><hdop>3.562</hdop><vdop>3.562</vdop><extensions><gom:speed>0.628</gom:speed></extensions></trkpt>
   <trkpt lat="59.0610777514" lon="29.9646014836"><ele>96.931</ele><time>2026-04-25T10:26:32.000Z</time><hdop>3.562</hdop><vdop>3.562</vdop><extensions><gom:speed>0.628</gom:speed></extensions></trkpt>
   <trkpt lat="59.061084876" lon="29.9645993881"><ele>96.867</ele><time>2026-04-25T10:26:33.000Z</time><hdop>3.375</hdop><vdop>3.375</vdop><extensions><gom:speed>0.597</gom:speed></extensions></trkpt>
   <trkpt lat="59.0610913301" lon="29.9645987176"><ele>96.777</ele><time>2026-04-25T10:26:34.000Z</time><hdop>3.25</hdop><vdop>3.25</vdop><extensions><gom:speed>0.385</gom:speed></extensions></trkpt>
   <trkpt lat="59.0611000892" lon="29.9645997234"><ele>96.646</ele><time>2026-04-25T10:26:35.000Z</time><hdop>3.0</hdop><vdop>3.0</vdop><extensions><gom:speed>0.5</gom:speed></extensions></trkpt>
   <trkpt lat="59.0611070043" lon="29.9645984661"><ele>96.494</ele><time>2026-04-25T10:26:36.000Z</time><hdop>3.0</hdop><vdop>3.0</vdop><extensions><gom:speed>0.596</gom:speed></extensions></trkpt>
   <trkpt lat="59.0611158053" lon="29.9646011483"><ele>96.379</ele><time>2026-04-25T10:26:37.000Z</time><hdop>3.0</hdop><vdop>3.0</vdop><extensions><gom:speed>0.607</gom:speed></extensions></trkpt>
   <trkpt lat="59.0611234328" lon="29.964600394"><ele>96.307</ele><time>2026-04-25T10:26:38.000Z</time><hdop>3.0</hdop><vdop>3.0</vdop><extensions><gom:speed>0.519</gom:speed></extensions></trkpt>
   <trkpt lat="59.0611313118" lon="29.9645926826"><ele>96.222</ele><time>2026-04-25T10:26:39.000Z</time><hdop>3.0</hdop><vdop>3.0</vdop><extensions><gom:speed>0.576</gom:speed></extensions></trkpt>
   <trkpt lat="59.061138604" lon="29.9645889107"><ele>96.122</ele><time>2026-04-25T10:26:40.000Z</time><hdop>3.0</hdop><vdop>3.0</vdop><extensions><gom:speed>0.552</gom:speed></extensions></trkpt>
   <trkpt lat="59.061138604" lon="29.9645889107"><ele>96.063</ele><time>2026-04-25T10:26:41.000Z</time><hdop>3.0</hdop><vdop>3.0</vdop><extensions><gom:speed>0.0</gom:speed></extensions></trkpt>
   <trkpt lat="59.061138604" lon="29.9645889107"><ele>96.027</ele><time>2026-04-25T10:26:42.000Z</time><hdop>3.0</hdop><vdop>3.0</vdop><extensions><gom:speed>0.0</gom:speed></extensions></trkpt>
   <trkpt lat="59.061138604" lon="29.9645889107"><ele>96.006</ele><time>2026-04-25T10:26:43.000Z</time><hdop>3.0</hdop><vdop>3.0</vdop><extensions><gom:speed>0.0</gom:speed></extensions></trkpt>
   <trkpt lat="59.061138604" lon="29.9645889107"><ele>95.993</ele><time>2026-04-25T10:26:44.000Z</time><hdop>3.0</hdop><vdop>3.0</vdop><extensions><gom:speed>0.0</gom:speed></extensions></trkpt>
   <trkpt lat="59.061138604" lon="29.9645889107"><ele>95.986</ele><time>2026-04-25T10:26:45.000Z</time><hdop>3.0</hdop><vdop>3.0</vdop><extensions><gom:speed>0.0</gom:speed></extensions></trkpt>
   <trkpt lat="59.061144639" lon="29.9645900842"><ele>95.977</ele><time>2026-04-25T10:26:46.000Z</time><hdop>3.0</hdop><vdop>3.0</vdop><extensions><gom:speed>0.36</gom:speed></extensions></trkpt>
   <trkpt lat="59.061144639" lon="29.9645900842"><ele>95.972</ele><time>2026-04-25T10:26:47.000Z</time><hdop>3.0</hdop><vdop>3.0</vdop><extensions><gom:speed>0.0</gom:speed></extensions></trkpt>
   <trkpt lat="59.0611495005" lon="29.9645915091"><ele>95.955</ele><time>2026-04-25T10:26:48.000Z</time><hdop>3.0</hdop><vdop>3.0</vdop><extensions><gom:speed>0.289</gom:speed></extensions></trkpt>
   <trkpt lat="59.0611495005" lon="29.9645915091"><ele>95.944</ele><time>2026-04-25T10:26:49.000Z</time><hdop>3.0</hdop><vdop>3.0</vdop><extensions><gom:speed>0.0</gom:speed></extensions></trkpt>
   <trkpt lat="59.0611530209" lon="29.9645903357"><ele>95.928</ele><time>2026-04-25T10:26:50.000Z</time><hdop>3.0</hdop><vdop>3.0</vdop><extensions><gom:speed>0.196</gom:speed></extensions></trkpt>
   <trkpt lat="59.0611619057" lon="29.9645868153"><ele>95.852</ele><time>2026-04-25T10:26:51.000Z</time><hdop>3.0</hdop><vdop>3.0</vdop><extensions><gom:speed>0.414</gom:speed></extensions></trkpt>
   <trkpt lat="59.0611714192" lon="29.9645832111"><ele>95.716</ele><time>2026-04-25T10:26:52.000Z</time><hdop>3.0</hdop><vdop>3.0</vdop><extensions><gom:speed>0.492</gom:speed></extensions></trkpt>
   <trkpt lat="59.0611714192" lon="29.9645832111"><ele>95.635</ele><time>2026-04-25T10:26:52.000Z</time><hdop>3.0</hdop><vdop>3.0</vdop><extensions><gom:speed>0.492</gom:speed></extensions></trkpt>
   <trkpt lat="59.0611816451" lon="29.9645787686"><ele>95.53</ele><time>2026-04-25T10:26:53.000Z</time><hdop>3.0</hdop><vdop>3.0</vdop><extensions><gom:speed>0.586</gom:speed></extensions></trkpt>
   <trkpt lat="59.0611902785" lon="29.9645770923"><ele>95.42</ele><time>2026-04-25T10:26:54.000Z</time><hdop>3.0</hdop><vdop>3.0</vdop><extensions><gom:speed>0.561</gom:speed></extensions></trkpt>
   <trkpt lat="59.0612010073" lon="29.9645769246"><ele>95.26</ele><time>2026-04-25T10:26:55.000Z</time><hdop>3.0</hdop><vdop>3.0</vdop><extensions><gom:speed>0.616</gom:speed></extensions></trkpt>
   <trkpt lat="59.0612105627" lon="29.9645791039"><ele>95.134</ele><time>2026-04-25T10:26:56.000Z</time><hdop>3.0</hdop><vdop>3.0</vdop><extensions><gom:speed>0.646</gom:speed></extensions></trkpt>
   <trkpt lat="59.0612200761" lon="29.9645849713"><ele>95.051</ele><time>2026-04-25T10:26:57.000Z</time><hdop>3.0</hdop><vdop>3.0</vdop><extensions><gom:speed>0.775</gom:speed></extensions></trkpt>
   <trkpt lat="59.061229422" lon="29.9645948619"><ele>94.971</ele><time>2026-04-25T10:26:58.000Z</time><hdop>3.0</hdop><vdop>3.0</vdop><extensions><gom:speed>0.557</gom:speed></extensions></trkpt>
   <trkpt lat="59.0612373429" lon="29.9646072671"><ele>94.947</ele><time>2026-04-25T10:26:59.000Z</time><hdop>3.0</hdop><vdop>3.0</vdop><extensions><gom:speed>0.703</gom:speed></extensions></trkpt>
   <trkpt lat="59.0612466887" lon="29.9646226898"><ele>95.0</ele><time>2026-04-25T10:27:00.000Z</time><hdop>3.0</hdop><vdop>3.0</vdop><extensions><gom:speed>0.461</gom:speed></extensions></trkpt>
   <trkpt lat="59.0612536037" lon="29.9646347598"><ele>95.074</ele><time>2026-04-25T10:27:01.000Z</time><hdop>3.0</hdop><vdop>3.0</vdop><extensions><gom:speed>0.456</gom:speed></extensions></trkpt>
   <trkpt lat="59.0612597644" lon="29.9646431417"><ele>95.139</ele><time>2026-04-25T10:27:02.000Z</time><hdop>3.0</hdop><vdop>3.0</vdop><extensions><gom:speed>0.608</gom:speed></extensions></trkpt>
   <trkpt lat="59.0612684816" lon="29.9646506016"><ele>95.177</ele><time>2026-04-25T10:27:03.000Z</time><hdop>3.0</hdop><vdop>3.0</vdop><extensions><gom:speed>0.696</gom:speed></extensions></trkpt>
   <trkpt lat="59.0612777436" lon="29.9646576424"><ele>95.211</ele><time>2026-04-25T10:27:04.000Z</time><hdop>3.0</hdop><vdop>3.0</vdop><extensions><gom:speed>0.741</gom:speed></extensions></trkpt>
   <trkpt lat="59.0612871314" lon="29.9646628391"><ele>95.25</ele><time>2026-04-25T10:27:05.000Z</time><hdop>3.0</hdop><vdop>3.0</vdop><extensions><gom:speed>0.721</gom:speed></extensions></trkpt>
   <trkpt lat="59.061295639" lon="29.9646685388"><ele>95.313</ele><time>2026-04-25T10:27:06.000Z</time><hdop>3.0</hdop><vdop>3.0</vdop><extensions><gom:speed>0.622</gom:speed></extensions></trkpt>
   <trkpt lat="59.0613026798" lon="29.9646792677"><ele>95.393</ele><time>2026-04-25T10:27:07.000Z</time><hdop>3.0</hdop><vdop>3.0</vdop><extensions><gom:speed>0.557</gom:speed></extensions></trkpt>
   <trkpt lat="59.0613100978" lon="29.9646885716"><ele>95.486</ele><time>2026-04-25T10:27:08.000Z</time><hdop>3.0</hdop><vdop>3.0</vdop><extensions><gom:speed>0.609</gom:speed></extensions></trkpt>
   <trkpt lat="59.0613178929" lon="29.9646956124"><ele>95.505</ele><time>2026-04-25T10:27:09.000Z</time><hdop>3.0</hdop><vdop>3.0</vdop><extensions><gom:speed>0.588</gom:speed></extensions></trkpt>
   <trkpt lat="59.0613245985" lon="29.9646991328"><ele>95.538</ele><time>2026-04-25T10:27:10.000Z</time><hdop>3.0</hdop><vdop>3.0</vdop><extensions><gom:speed>0.638</gom:speed></extensions></trkpt>
   <trkpt lat="59.0613330223" lon="29.9647041619"><ele>95.585</ele><time>2026-04-25T10:27:11.000Z</time><hdop>3.0</hdop><vdop>3.0</vdop><extensions><gom:speed>0.438</gom:speed></extensions></trkpt>
   <trkpt lat="59.0613398954" lon="29.9647102807"><ele>95.672</ele><time>2026-04-25T10:27:12.000Z</time><hdop>3.0</hdop><vdop>3.0</vdop><extensions><gom:speed>0.44</gom:speed></extensions></trkpt>
   <trkpt lat="59.0613398954" lon="29.9647102807"><ele>95.723</ele><time>2026-04-25T10:27:12.000Z</time><hdop>3.0</hdop><vdop>3.0</vdop><extensions><gom:speed>0.44</gom:speed></extensions></trkpt>
   <trkpt lat="59.0613469362" lon="29.9647139687"><ele>95.751</ele><time>2026-04-25T10:27:13.000Z</time><hdop>3.0</hdop><vdop>3.0</vdop><extensions><gom:speed>0.651</gom:speed></extensions></trkpt>
   <trkpt lat="59.0613528455" lon="29.9647192493"><ele>95.835</ele><time>2026-04-25T10:27:14.000Z</time><hdop>3.0</hdop><vdop>3.0</vdop><extensions><gom:speed>0.677</gom:speed></extensions></trkpt>
   <trkpt lat="59.0613575813" lon="29.964726374"><ele>95.863</ele><time>2026-04-25T10:27:15.000Z</time><hdop>3.0</hdop><vdop>3.0</vdop><extensions><gom:speed>0.542</gom:speed></extensions></trkpt>
   <trkpt lat="59.0613621075" lon="29.9647311516"><ele>95.872</ele><time>2026-04-25T10:27:16.000Z</time><hdop>3.0</hdop><vdop>3.0</vdop><extensions><gom:speed>0.47</gom:speed></extensions></trkpt>
   <trkpt lat="59.0613687292" lon="29.9647333309"><ele>95.876</ele><time>2026-04-25T10:27:17.000Z</time><hdop>3.0</hdop><vdop>3.0</vdop><extensions><gom:speed>0.545</gom:speed></extensions></trkpt>
   <trkpt lat="59.0613756443" lon="29.9647345044"><ele>95.838</ele><time>2026-04-25T10:27:18.000Z</time><hdop>3.0</hdop><vdop>3.0</vdop><extensions><gom:speed>0.521</gom:speed></extensions></trkpt>
   <trkpt lat="59.0613831041" lon="29.9647355941"><ele>95.778</ele><time>2026-04-25T10:27:19.000Z</time><hdop>3.0</hdop><vdop>3.0</vdop><extensions><gom:speed>0.585</gom:speed></extensions></trkpt>
   <trkpt lat="59.0613907317" lon="29.9647324928"><ele>95.701</ele><time>2026-04-25T10:27:20.000Z</time><hdop>3.0</hdop><vdop>3.0</vdop><extensions><gom:speed>0.558</gom:speed></extensions></trkpt>
   <trkpt lat="59.0613969762" lon="29.9647309002"><ele>95.613</ele><time>2026-04-25T10:27:21.000Z</time><hdop>3.0</hdop><vdop>3.0</vdop><extensions><gom:speed>0.559</gom:speed></extensions></trkpt>
   <trkpt lat="59.0614031788" lon="29.9647283856"><ele>95.495</ele><time>2026-04-25T10:27:22.000Z</time><hdop>3.0</hdop><vdop>3.0</vdop><extensions><gom:speed>0.543</gom:speed></extensions></trkpt>
   <trkpt lat="59.0614078727" lon="29.9647227697"><ele>95.337</ele><time>2026-04-25T10:27:23.000Z</time><hdop>3.0</hdop><vdop>3.0</vdop><extensions><gom:speed>0.504</gom:speed></extensions></trkpt>
   <trkpt lat="59.0614145782" lon="29.9647147231"><ele>95.169</ele><time>2026-04-25T10:27:24.000Z</time><hdop>3.0</hdop><vdop>3.0</vdop><extensions><gom:speed>0.536</gom:speed></extensions></trkpt>
   <trkpt lat="59.0614223734" lon="29.964709694"><ele>95.025</ele><time>2026-04-25T10:27:25.000Z</time><hdop>3.0</hdop><vdop>3.0</vdop><extensions><gom:speed>0.577</gom:speed></extensions></trkpt>
   <trkpt lat="59.06143042" lon="29.9647022341"><ele>94.881</ele><time>2026-04-25T10:27:26.000Z</time><hdop>3.0</hdop><vdop>3.0</vdop><extensions><gom:speed>0.647</gom:speed></extensions></trkpt>
   <trkpt lat="59.0614408136" lon="29.9646970373"><ele>94.793</ele><time>2026-04-25T10:27:27.000Z</time><hdop>3.0</hdop><vdop>3.0</vdop><extensions><gom:speed>0.638</gom:speed></extensions></trkpt>
   <trkpt lat="59.0614510395" lon="29.9646881525"><ele>94.721</ele><time>2026-04-25T10:27:28.000Z</time><hdop>3.0</hdop><vdop>3.0</vdop><extensions><gom:speed>0.621</gom:speed></extensions></trkpt>
   <trkpt lat="59.0614615588" lon="29.9646808602"><ele>94.651</ele><time>2026-04-25T10:27:29.000Z</time><hdop>3.0</hdop><vdop>3.0</vdop><extensions><gom:speed>0.653</gom:speed></extensions></trkpt>
   <trkpt lat="59.0614715332" lon="29.9646711372"><ele>94.558</ele><time>2026-04-25T10:27:30.000Z</time><hdop>3.0</hdop><vdop>3.0</vdop><extensions><gom:speed>0.759</gom:speed></extensions></trkpt>
   <trkpt lat="59.0614792865" lon="29.9646630068"><ele>94.431</ele><time>2026-04-25T10:27:31.000Z</time><hdop>3.0</hdop><vdop>3.0</vdop><extensions><gom:speed>0.584</gom:speed></extensions></trkpt>
   <trkpt lat="59.0614868721" lon="29.9646519427"><ele>94.283</ele><time>2026-04-25T10:27:32.000Z</time><hdop>3.0</hdop><vdop>3.0</vdop><extensions><gom:speed>0.569</gom:speed></extensions></trkpt>
   <trkpt lat="59.0614868721" lon="29.9646519427"><ele>94.194</ele><time>2026-04-25T10:27:32.000Z</time><hdop>3.0</hdop><vdop>3.0</vdop><extensions><gom:speed>0.569</gom:speed></extensions></trkpt>
   <trkpt lat="59.0614955474" lon="29.9646444828"><ele>94.065</ele><time>2026-04-25T10:27:33.000Z</time><hdop>3.0</hdop><vdop>3.0</vdop><extensions><gom:speed>0.451</gom:speed></extensions></trkpt>
   <trkpt lat="59.0615027558" lon="29.9646381963"><ele>93.965</ele><time>2026-04-25T10:27:34.000Z</time><hdop>3.0</hdop><vdop>3.0</vdop><extensions><gom:speed>0.439</gom:speed></extensions></trkpt>
   <trkpt lat="59.0615109282" lon="29.9646350112"><ele>93.858</ele><time>2026-04-25T10:27:35.000Z</time><hdop>3.0</hdop><vdop>3.0</vdop><extensions><gom:speed>0.521</gom:speed></extensions></trkpt>
   <trkpt lat="59.06151843" lon="29.9646308203"><ele>93.775</ele><time>2026-04-25T10:27:36.000Z</time><hdop>3.0</hdop><vdop>3.0</vdop><extensions><gom:speed>0.588</gom:speed></extensions></trkpt>
   <trkpt lat="59.0615268538" lon="29.964627216"><ele>93.699</ele><time>2026-04-25T10:27:37.000Z</time><hdop>3.0</hdop><vdop>3.0</vdop><extensions><gom:speed>0.715</gom:speed></extensions></trkpt>
   <trkpt lat="59.0615363672" lon="29.9646261264"><ele>93.637</ele><time>2026-04-25T10:27:38.000Z</time><hdop>3.0</hdop><vdop>3.0</vdop><extensions><gom:speed>0.518</gom:speed></extensions></trkpt>
   <trkpt lat="59.0615494011" lon="29.9646223545"><ele>93.809</ele><time>2026-04-25T10:27:39.000Z</time><hdop>3.0</hdop><vdop>3.0</vdop><extensions><gom:speed>0.773</gom:speed></extensions></trkpt>
   <trkpt lat="59.0615576992" lon="29.9646211811"><ele>94.022</ele><time>2026-04-25T10:27:40.000Z</time><hdop>3.0</hdop><vdop>3.0</vdop><extensions><gom:speed>0.722</gom:speed></extensions></trkpt>
   <trkpt lat="59.0615687633" lon="29.9646243662"><ele>94.298</ele><time>2026-04-25T10:27:41.000Z</time><hdop>3.0</hdop><vdop>3.0</vdop><extensions><gom:speed>0.699</gom:speed></extensions></trkpt>
   <trkpt lat="59.0615768938" lon="29.964632329"><ele>94.562</ele><time>2026-04-25T10:27:42.000Z</time><hdop>3.0</hdop><vdop>3.0</vdop><extensions><gom:speed>0.793</gom:speed></extensions></trkpt>
   <trkpt lat="59.0615861558" lon="29.9646385316"><ele>94.788</ele><time>2026-04-25T10:27:43.000Z</time><hdop>3.0</hdop><vdop>3.0</vdop><extensions><gom:speed>0.804</gom:speed></extensions></trkpt>
   <trkpt lat="59.0615926517" lon="29.9646417167"><ele>95.041</ele><time>2026-04-25T10:27:44.000Z</time><hdop>3.0</hdop><vdop>3.0</vdop><extensions><gom:speed>0.716</gom:speed></extensions></trkpt>
   <trkpt lat="59.0615983933" lon="29.9646432255"><ele>95.257</ele><time>2026-04-25T10:27:45.000Z</time><hdop>3.0</hdop><vdop>3.0</vdop><extensions><gom:speed>0.591</gom:speed></extensions></trkpt>
   <trkpt lat="59.0616041768" lon="29.9646444828"><ele>95.478</ele><time>2026-04-25T10:27:46.000Z</time><hdop>3.0</hdop><vdop>3.0</vdop><extensions><gom:speed>0.443</gom:speed></extensions></trkpt>
   <trkpt lat="59.0616077811" lon="29.9646464106"><ele>95.687</ele><time>2026-04-25T10:27:47.000Z</time><hdop>3.0</hdop><vdop>3.0</vdop><extensions><gom:speed>0.159</gom:speed></extensions></trkpt>
   <trkpt lat="59.0616110919" lon="29.9646454886"><ele>95.877</ele><time>2026-04-25T10:27:48.000Z</time><hdop>3.0</hdop><vdop>3.0</vdop><extensions><gom:speed>0.194</gom:speed></extensions></trkpt>
   <trkpt lat="59.0616143609" lon="29.9646472488"><ele>96.026</ele><time>2026-04-25T10:27:49.000Z</time><hdop>3.0</hdop><vdop>3.0</vdop><extensions><gom:speed>0.249</gom:speed></extensions></trkpt>
   <trkpt lat="59.0616172526" lon="29.9646497634"><ele>96.154</ele><time>2026-04-25T10:27:50.000Z</time><hdop>3.0</hdop><vdop>3.0</vdop><extensions><gom:speed>0.259</gom:speed></extensions></trkpt>
   <trkpt lat="59.0616196415" lon="29.9646544572"><ele>96.3</ele><time>2026-04-25T10:27:51.000Z</time><hdop>3.0</hdop><vdop>3.0</vdop><extensions><gom:speed>0.41</gom:speed></extensions></trkpt>
   <trkpt lat="59.0616256764" lon="29.9646598216"><ele>96.426</ele><time>2026-04-25T10:27:52.000Z</time><hdop>3.0</hdop><vdop>3.0</vdop><extensions><gom:speed>0.56</gom:speed></extensions></trkpt>
   <trkpt lat="59.0616256764" lon="29.9646598216"><ele>96.502</ele><time>2026-04-25T10:27:52.000Z</time><hdop>3.0</hdop><vdop>3.0</vdop><extensions><gom:speed>0.56</gom:speed></extensions></trkpt>
   <trkpt lat="59.0616309989" lon="29.9646652699"><ele>96.577</ele><time>2026-04-25T10:27:53.000Z</time><hdop>3.0</hdop><vdop>3.0</vdop><extensions><gom:speed>0.67</gom:speed></extensions></trkpt>
   <trkpt lat="59.061639758" lon="29.9646680359"><ele>96.637</ele><time>2026-04-25T10:27:54.000Z</time><hdop>3.0</hdop><vdop>3.0</vdop><extensions><gom:speed>0.708</gom:speed></extensions></trkpt>
   <trkpt lat="59.0616491458" lon="29.9646681197"><ele>96.679</ele><time>2026-04-25T10:27:55.000Z</time><hdop>3.0</hdop><vdop>3.0</vdop><extensions><gom:speed>0.832</gom:speed></extensions></trkpt>
   <trkpt lat="59.0616591202" lon="29.9646660243"><ele>96.695</ele><time>2026-04-25T10:27:56.000Z</time><hdop>3.0</hdop><vdop>3.0</vdop><extensions><gom:speed>0.924</gom:speed></extensions></trkpt>
   <trkpt lat="59.061668005" lon="29.9646640964"><ele>96.65</ele><time>2026-04-25T10:27:57.000Z</time><hdop>3.0</hdop><vdop>3.0</vdop><extensions><gom:speed>0.863</gom:speed></extensions></trkpt>
   <trkpt lat="59.0616766384" lon="29.964664767"><ele>96.641</ele><time>2026-04-25T10:27:58.000Z</time><hdop>3.0</hdop><vdop>3.0</vdop><extensions><gom:speed>0.712</gom:speed></extensions></trkpt>
   <trkpt lat="59.0616832601" lon="29.9646691256"><ele>96.698</ele><time>2026-04-25T10:27:59.000Z</time><hdop>3.0</hdop><vdop>3.0</vdop><extensions><gom:speed>0.62</gom:speed></extensions></trkpt>
   <trkpt lat="59.0616878701" lon="29.9646694608"><ele>96.727</ele><time>2026-04-25T10:28:00.000Z</time><hdop>3.0</hdop><vdop>3.0</vdop><extensions><gom:speed>0.377</gom:speed></extensions></trkpt>
   <trkpt lat="59.0616878701" lon="29.9646694608"><ele>96.744</ele><time>2026-04-25T10:28:01.000Z</time><hdop>3.0</hdop><vdop>3.0</vdop><extensions><gom:speed>0.0</gom:speed></extensions></trkpt>
   <trkpt lat="59.0616908457" lon="29.9646674492"><ele>97.086</ele><time>2026-04-25T10:28:02.000Z</time><hdop>11.125</hdop><vdop>11.125</vdop><extensions><gom:speed>0.784</gom:speed></extensions></trkpt>
   <trkpt lat="59.0616983475" lon="29.9646532838"><ele>97.177</ele><time>2026-04-25T10:28:03.000Z</time><hdop>8.25</hdop><vdop>8.25</vdop><extensions><gom:speed>0.327</gom:speed></extensions></trkpt>
   <trkpt lat="59.0617123453" lon="29.9646628391"><ele>97.144</ele><time>2026-04-25T10:28:04.000Z</time><hdop>5.312</hdop><vdop>5.312</vdop><extensions><gom:speed>1.656</gom:speed></extensions></trkpt>
   <trkpt lat="59.0617090345" lon="29.9646549601"><ele>97.187</ele><time>2026-04-25T10:28:05.000Z</time><hdop>4.687</hdop><vdop>4.687</vdop><extensions><gom:speed>0.344</gom:speed></extensions></trkpt>
   <trkpt lat="59.0617145246" lon="29.9646511045"><ele>97.142</ele><time>2026-04-25T10:28:06.000Z</time><hdop>2.062</hdop><vdop>2.062</vdop><extensions><gom:speed>0.486</gom:speed></extensions></trkpt>
   <trkpt lat="59.0617190508" lon="29.9646422197"><ele>96.741</ele><time>2026-04-25T10:28:07.000Z</time><hdop>3.0</hdop><vdop>3.0</vdop><extensions><gom:speed>0.456</gom:speed></extensions></trkpt>
   <trkpt lat="59.0617236609" lon="29.9646371905"><ele>96.45</ele><time>2026-04-25T10:28:08.000Z</time><hdop>3.0</hdop><vdop>3.0</vdop><extensions><gom:speed>0.315</gom:speed></extensions></trkpt>
   <trkpt lat="59.0617284805" lon="29.9646340892"><ele>96.213</ele><time>2026-04-25T10:28:09.000Z</time><hdop>3.0</hdop><vdop>3.0</vdop><extensions><gom:speed>0.197</gom:speed></extensions></trkpt>
   <trkpt lat="59.0617316656" lon="29.9646309879"><ele>96.027</ele><time>2026-04-25T10:28:10.000Z</time><hdop>3.0</hdop><vdop>3.0</vdop><extensions><gom:speed>0.18</gom:speed></extensions></trkpt>
   <trkpt lat="59.0617316656" lon="29.9646309879"><ele>95.917</ele><time>2026-04-25T10:28:11.000Z</time><hdop>3.0</hdop><vdop>3.0</vdop><extensions><gom:speed>0.0</gom:speed></extensions></trkpt>
   <trkpt lat="59.06173703" lon="29.9646302335"><ele>95.821</ele><time>2026-04-25T10:28:12.000Z</time><hdop>3.0</hdop><vdop>3.0</vdop><extensions><gom:speed>0.37</gom:speed></extensions></trkpt>
   <trkpt lat="59.06173703" lon="29.9646302335"><ele>95.763</ele><time>2026-04-25T10:28:12.000Z</time><hdop>3.0</hdop><vdop>3.0</vdop><extensions><gom:speed>0.37</gom:speed></extensions></trkpt>
   <trkpt lat="59.06173703" lon="29.9646302335"><ele>95.729</ele><time>2026-04-25T10:28:13.000Z</time><hdop>3.0</hdop><vdop>3.0</vdop><extensions><gom:speed>0.0</gom:speed></extensions></trkpt>
   <trkpt lat="59.0617434422" lon="29.9646278028"><ele>95.641</ele><time>2026-04-25T10:28:14.000Z</time><hdop>3.0</hdop><vdop>3.0</vdop><extensions><gom:speed>0.338</gom:speed></extensions></trkpt>
   <trkpt lat="59.0617480522" lon="29.9646259588"><ele>95.49</ele><time>2026-04-25T10:28:15.000Z</time><hdop>3.0</hdop><vdop>3.0</vdop><extensions><gom:speed>0.307</gom:speed></extensions></trkpt>
   <trkpt lat="59.0617526204" lon="29.9646242824"><ele>95.349</ele><time>2026-04-25T10:28:16.000Z</time><hdop>3.0</hdop><vdop>3.0</vdop><extensions><gom:speed>0.311</gom:speed></extensions></trkpt>
   <trkpt lat="59.0617590744" lon="29.9646183312"><ele>95.23</ele><time>2026-04-25T10:28:17.000Z</time><hdop>3.0</hdop><vdop>3.0</vdop><extensions><gom:speed>0.241</gom:speed></extensions></trkpt>
   <trkpt lat="59.0617590744" lon="29.9646183312"><ele>95.158</ele><time>2026-04-25T10:28:18.000Z</time><hdop>3.0</hdop><vdop>3.0</vdop><extensions><gom:speed>0.0</gom:speed></extensions></trkpt>
   <trkpt lat="59.0617590744" lon="29.9646183312"><ele>95.116</ele><time>2026-04-25T10:28:19.000Z</time><hdop>3.0</hdop><vdop>3.0</vdop><extensions><gom:speed>0.0</gom:speed></extensions></trkpt>
   <trkpt lat="59.0617590744" lon="29.9646183312"><ele>95.09</ele><time>2026-04-25T10:28:20.000Z</time><hdop>3.0</hdop><vdop>3.0</vdop><extensions><gom:speed>0.0</gom:speed></extensions></trkpt>
   <trkpt lat="59.0617590744" lon="29.9646183312"><ele>95.075</ele><time>2026-04-25T10:28:21.000Z</time><hdop>3.0</hdop><vdop>3.0</vdop><extensions><gom:speed>0.0</gom:speed></extensions></trkpt>
   <trkpt lat="59.0617590744" lon="29.9646183312"><ele>95.066</ele><time>2026-04-25T10:28:22.000Z</time><hdop>3.0</hdop><vdop>3.0</vdop><extensions><gom:speed>0.0</gom:speed></extensions></trkpt>
   <trkpt lat="59.0617590744" lon="29.9646183312"><ele>95.061</ele><time>2026-04-25T10:28:23.000Z</time><hdop>3.0</hdop><vdop>3.0</vdop><extensions><gom:speed>0.0</gom:speed></extensions></trkpt>
   <trkpt lat="59.0617590744" lon="29.9646183312"><ele>95.057</ele><time>2026-04-25T10:28:24.000Z</time><hdop>3.0</hdop><vdop>3.0</vdop><extensions><gom:speed>0.0</gom:speed></extensions></trkpt>
   <trkpt lat="59.0617667019" lon="29.9646261264"><ele>95.069</ele><time>2026-04-25T10:28:25.000Z</time><hdop>3.0</hdop><vdop>3.0</vdop><extensions><gom:speed>0.288</gom:speed></extensions></trkpt>
   <trkpt lat="59.0617719825" lon="29.9646336701"><ele>95.058</ele><time>2026-04-25T10:28:26.000Z</time><hdop>3.0</hdop><vdop>3.0</vdop><extensions><gom:speed>0.338</gom:speed></extensions></trkpt>
   <trkpt lat="59.0617818313" lon="29.9646427226"><ele>95.036</ele><time>2026-04-25T10:28:27.000Z</time><hdop>3.062</hdop><vdop>3.062</vdop><extensions><gom:speed>0.473</gom:speed></extensions></trkpt>
   <trkpt lat="59.061788914" lon="29.9646516912"><ele>95.013</ele><time>2026-04-25T10:28:28.000Z</time><hdop>3.125</hdop><vdop>3.125</vdop><extensions><gom:speed>0.513</gom:speed></extensions></trkpt>
   <trkpt lat="59.061795871" lon="29.9646553792"><ele>94.996</ele><time>2026-04-25T10:28:29.000Z</time><hdop>3.0</hdop><vdop>3.0</vdop><extensions><gom:speed>0.418</gom:speed></extensions></trkpt>
   <trkpt lat="59.0618044624" lon="29.9646594864"><ele>94.943</ele><time>2026-04-25T10:28:30.000Z</time><hdop>3.0</hdop><vdop>3.0</vdop><extensions><gom:speed>0.131</gom:speed></extensions></trkpt>
   <trkpt lat="59.0618086953" lon="29.964665689"><ele>94.911</ele><time>2026-04-25T10:28:31.000Z</time><hdop>3.0</hdop><vdop>3.0</vdop><extensions><gom:speed>0.121</gom:speed></extensions></trkpt>
   <trkpt lat="59.0618129281" lon="29.9646685388"><ele>94.829</ele><time>2026-04-25T10:28:32.000Z</time><hdop>3.0</hdop><vdop>3.0</vdop><extensions><gom:speed>0.324</gom:speed></extensions></trkpt>
   <trkpt lat="59.0618129281" lon="29.9646685388"><ele>94.78</ele><time>2026-04-25T10:28:32.000Z</time><hdop>3.0</hdop><vdop>3.0</vdop><extensions><gom:speed>0.324</gom:speed></extensions></trkpt>
   <trkpt lat="59.0618174544" lon="29.9646707181"><ele>94.731</ele><time>2026-04-25T10:28:33.000Z</time><hdop>3.0</hdop><vdop>3.0</vdop><extensions><gom:speed>0.342</gom:speed></extensions></trkpt>
   <trkpt lat="59.0618238665" lon="29.9646722269"><ele>94.677</ele><time>2026-04-25T10:28:34.000Z</time><hdop>3.0</hdop><vdop>3.0</vdop><extensions><gom:speed>0.406</gom:speed></extensions></trkpt>
   <trkpt lat="59.0618321227" lon="29.9646694608"><ele>94.618</ele><time>2026-04-25T10:28:35.000Z</time><hdop>3.062</hdop><vdop>3.062</vdop><extensions><gom:speed>0.555</gom:speed></extensions></trkpt>
   <trkpt lat="59.0618399179" lon="29.9646676168"><ele>94.537</ele><time>2026-04-25T10:28:36.000Z</time><hdop>3.0</hdop><vdop>3.0</vdop><extensions><gom:speed>0.457</gom:speed></extensions></trkpt>
   <trkpt lat="59.0618487189" lon="29.9646683712"><ele>94.417</ele><time>2026-04-25T10:28:37.000Z</time><hdop>3.0</hdop><vdop>3.0</vdop><extensions><gom:speed>0.465</gom:speed></extensions></trkpt>
   <trkpt lat="59.0618547119" lon="29.9646676168"><ele>94.317</ele><time>2026-04-25T10:28:38.000Z</time><hdop>3.0</hdop><vdop>3.0</vdop><extensions><gom:speed>0.484</gom:speed></extensions></trkpt>
   <trkpt lat="59.061863471" lon="29.9646691256"><ele>94.287</ele><time>2026-04-25T10:28:39.000Z</time><hdop>3.0</hdop><vdop>3.0</vdop><extensions><gom:speed>0.549</gom:speed></extensions></trkpt>
   <trkpt lat="59.0618747447" lon="29.9646736518"><ele>94.305</ele><time>2026-04-25T10:28:40.000Z</time><hdop>3.0</hdop><vdop>3.0</vdop><extensions><gom:speed>0.486</gom:speed></extensions></trkpt>
   <trkpt lat="59.0618848449" lon="29.9646797706"><ele>94.258</ele><time>2026-04-25T10:28:41.000Z</time><hdop>3.0</hdop><vdop>3.0</vdop><extensions><gom:speed>0.511</gom:speed></extensions></trkpt>
   <trkpt lat="59.0618974596" lon="29.964687901"><ele>94.267</ele><time>2026-04-25T10:28:42.000Z</time><hdop>3.0</hdop><vdop>3.0</vdop><extensions><gom:speed>0.636</gom:speed></extensions></trkpt>
   <trkpt lat="59.0619072246" lon="29.9646958638"><ele>94.319</ele><time>2026-04-25T10:28:43.000Z</time><hdop>3.0</hdop><vdop>3.0</vdop><extensions><gom:speed>0.393</gom:speed></extensions></trkpt>
   <trkpt lat="59.0619134272" lon="29.9647009768"><ele>94.31</ele><time>2026-04-25T10:28:44.000Z</time><hdop>3.0</hdop><vdop>3.0</vdop><extensions><gom:speed>0.294</gom:speed></extensions></trkpt>
   <trkpt lat="59.0619219767" lon="29.9647126276"><ele>94.412</ele><time>2026-04-25T10:28:45.000Z</time><hdop>3.0</hdop><vdop>3.0</vdop><extensions><gom:speed>0.443</gom:speed></extensions></trkpt>
   <trkpt lat="59.0619291851" lon="29.9647225183"><ele>94.539</ele><time>2026-04-25T10:28:46.000Z</time><hdop>3.0</hdop><vdop>3.0</vdop><extensions><gom:speed>0.435</gom:speed></extensions></trkpt>
   <trkpt lat="59.0619353877" lon="29.96472914"><ele>94.702</ele><time>2026-04-25T10:28:47.000Z</time><hdop>3.0</hdop><vdop>3.0</vdop><extensions><gom:speed>0.41</gom:speed></extensions></trkpt>
   <trkpt lat="59.0619353877" lon="29.96472914"><ele>94.799</ele><time>2026-04-25T10:28:48.000Z</time><hdop>3.0</hdop><vdop>3.0</vdop><extensions><gom:speed>0.0</gom:speed></extensions></trkpt>
   <trkpt lat="59.0619353877" lon="29.96472914"><ele>94.857</ele><time>2026-04-25T10:28:49.000Z</time><hdop>3.0</hdop><vdop>3.0</vdop><extensions><gom:speed>0.0</gom:speed></extensions></trkpt>
   <trkpt lat="59.0619402912" lon="29.9647377733"><ele>95.003</ele><time>2026-04-25T10:28:50.000Z</time><hdop>3.0</hdop><vdop>3.0</vdop><extensions><gom:speed>0.325</gom:speed></extensions></trkpt>
   <trkpt lat="59.0619443145" lon="29.9647430539"><ele>95.139</ele><time>2026-04-25T10:28:51.000Z</time><hdop>3.0</hdop><vdop>3.0</vdop><extensions><gom:speed>0.309</gom:speed></extensions></trkpt>
   <trkpt lat="59.0619498046" lon="29.9647499271"><ele>95.352</ele><time>2026-04-25T10:28:52.000Z</time><hdop>3.0</hdop><vdop>3.0</vdop><extensions><gom:speed>0.375</gom:speed></extensions></trkpt>
   <trkpt lat="59.0619498046" lon="29.9647499271"><ele>95.479</ele><time>2026-04-25T10:28:52.000Z</time><hdop>3.0</hdop><vdop>3.0</vdop><extensions><gom:speed>0.375</gom:speed></extensions></trkpt>
   <trkpt lat="59.0619576417" lon="29.9647585605"><ele>96.239</ele><time>2026-04-25T10:28:53.000Z</time><hdop>4.687</hdop><vdop>4.687</vdop><extensions><gom:speed>0.598</gom:speed></extensions></trkpt>
   <trkpt lat="59.0619630061" lon="29.9647577223"><ele>96.079</ele><time>2026-04-25T10:28:54.000Z</time><hdop>3.687</hdop><vdop>3.687</vdop><extensions><gom:speed>0.414</gom:speed></extensions></trkpt>
   <trkpt lat="59.0619702565" lon="29.9647568841"><ele>96.132</ele><time>2026-04-25T10:28:55.000Z</time><hdop>4.312</hdop><vdop>4.312</vdop><extensions><gom:speed>0.47</gom:speed></extensions></trkpt>
   <trkpt lat="59.0619782193" lon="29.9647550401"><ele>97.05</ele><time>2026-04-25T10:28:56.000Z</time><hdop>1.5</hdop><vdop>1.5</vdop><extensions><gom:speed>0.65</gom:speed></extensions></trkpt>
   <trkpt lat="59.0619891996" lon="29.9647552915"><ele>97.877</ele><time>2026-04-25T10:28:57.000Z</time><hdop>1.312</hdop><vdop>1.312</vdop><extensions><gom:speed>0.01</gom:speed></extensions></trkpt>
   <trkpt lat="59.0619937258" lon="29.9647583928"><ele>98.515</ele><time>2026-04-25T10:28:58.000Z</time><hdop>1.5</hdop><vdop>1.5</vdop><extensions><gom:speed>0.564</gom:speed></extensions></trkpt>
   <trkpt lat="59.061989912" lon="29.9647563812"><ele>97.816</ele><time>2026-04-25T10:28:59.000Z</time><hdop>3.937</hdop><vdop>3.937</vdop><extensions><gom:speed>0.212</gom:speed></extensions></trkpt>
   <trkpt lat="59.0619907083" lon="29.9647541181"><ele>97.412</ele><time>2026-04-25T10:29:00.000Z</time><hdop>3.375</hdop><vdop>3.375</vdop><extensions><gom:speed>0.328</gom:speed></extensions></trkpt>
   <trkpt lat="59.0619976234" lon="29.9647495918"><ele>97.184</ele><time>2026-04-25T10:29:01.000Z</time><hdop>3.562</hdop><vdop>3.562</vdop><extensions><gom:speed>0.411</gom:speed></extensions></trkpt>
   <trkpt lat="59.0620039517" lon="29.9647499271"><ele>97.025</ele><time>2026-04-25T10:29:02.000Z</time><hdop>3.375</hdop><vdop>3.375</vdop><extensions><gom:speed>0.354</gom:speed></extensions></trkpt>
   <trkpt lat="59.0620094419" lon="29.9647543695"><ele>96.946</ele><time>2026-04-25T10:29:03.000Z</time><hdop>3.125</hdop><vdop>3.125</vdop><extensions><gom:speed>0.395</gom:speed></extensions></trkpt>
   <trkpt lat="59.0620128784" lon="29.964756465"><ele>96.923</ele><time>2026-04-25T10:29:04.000Z</time><hdop>3.0</hdop><vdop>3.0</vdop><extensions><gom:speed>0.315</gom:speed></extensions></trkpt>
   <trkpt lat="59.0620193744" lon="29.9647639249"><ele>96.894</ele><time>2026-04-25T10:29:05.000Z</time><hdop>3.0</hdop><vdop>3.0</vdop><extensions><gom:speed>0.439</gom:speed></extensions></trkpt>
   <trkpt lat="59.0620275049" lon="29.9647692893"><ele>96.864</ele><time>2026-04-25T10:29:06.000Z</time><hdop>3.062</hdop><vdop>3.062</vdop><extensions><gom:speed>0.549</gom:speed></extensions></trkpt>
   <trkpt lat="59.0620349648" lon="29.9647723068"><ele>96.813</ele><time>2026-04-25T10:29:07.000Z</time><hdop>3.375</hdop><vdop>3.375</vdop><extensions><gom:speed>0.419</gom:speed></extensions></trkpt>
   <trkpt lat="59.0620393653" lon="29.9647723906"><ele>96.779</ele><time>2026-04-25T10:29:08.000Z</time><hdop>3.375</hdop><vdop>3.375</vdop><extensions><gom:speed>0.364</gom:speed></extensions></trkpt>
   <trkpt lat="59.0620439753" lon="29.9647741508"><ele>96.711</ele><time>2026-04-25T10:29:09.000Z</time><hdop>3.125</hdop><vdop>3.125</vdop><extensions><gom:speed>0.38</gom:speed></extensions></trkpt>
   <trkpt lat="59.0620475795" lon="29.9647757434"><ele>96.595</ele><time>2026-04-25T10:29:10.000Z</time><hdop>3.0</hdop><vdop>3.0</vdop><extensions><gom:speed>0.339</gom:speed></extensions></trkpt>
   <trkpt lat="59.0620519381" lon="29.9647762463"><ele>96.47</ele><time>2026-04-25T10:29:11.000Z</time><hdop>3.0</hdop><vdop>3.0</vdop><extensions><gom:speed>0.343</gom:speed></extensions></trkpt>
   <trkpt lat="59.0620578893" lon="29.9647778388"><ele>96.352</ele><time>2026-04-25T10:29:12.000Z</time><hdop>3.0</hdop><vdop>3.0</vdop><extensions><gom:speed>0.455</gom:speed></extensions></trkpt>
   <trkpt lat="59.0620578893" lon="29.9647778388"><ele>96.281</ele><time>2026-04-25T10:29:12.000Z</time><hdop>3.0</hdop><vdop>3.0</vdop><extensions><gom:speed>0.455</gom:speed></extensions></trkpt>
   <trkpt lat="59.062064972" lon="29.9647815269"><ele>96.151</ele><time>2026-04-25T10:29:13.000Z</time><hdop>3.0</hdop><vdop>3.0</vdop><extensions><gom:speed>0.504</gom:speed></extensions></trkpt>
   <trkpt lat="59.0620712584" lon="29.9647852987"><ele>96.062</ele><time>2026-04-25T10:29:14.000Z</time><hdop>3.0</hdop><vdop>3.0</vdop><extensions><gom:speed>0.536</gom:speed></extensions></trkpt>
   <trkpt lat="59.0620797241" lon="29.9647879809"><ele>95.973</ele><time>2026-04-25T10:29:15.000Z</time><hdop>3.0</hdop><vdop>3.0</vdop><extensions><gom:speed>0.628</gom:speed></extensions></trkpt>
   <trkpt lat="59.0620874355" lon="29.9647894059"><ele>95.906</ele><time>2026-04-25T10:29:16.000Z</time><hdop>3.0</hdop><vdop>3.0</vdop><extensions><gom:speed>0.479</gom:speed></extensions></trkpt>
   <trkpt lat="59.0620946858" lon="29.9647904955"><ele>95.849</ele><time>2026-04-25T10:29:17.000Z</time><hdop>3.0</hdop><vdop>3.0</vdop><extensions><gom:speed>0.603</gom:speed></extensions></trkpt>
   <trkpt lat="59.0621039897" lon="29.964795357"><ele>95.799</ele><time>2026-04-25T10:29:18.000Z</time><hdop>3.0</hdop><vdop>3.0</vdop><extensions><gom:speed>0.627</gom:speed></extensions></trkpt>
   <trkpt lat="59.0621124974" lon="29.9647997994"><ele>95.772</ele><time>2026-04-25T10:29:19.000Z</time><hdop>3.0</hdop><vdop>3.0</vdop><extensions><gom:speed>0.501</gom:speed></extensions></trkpt>
   <trkpt lat="59.0621207116" lon="29.9648051639"><ele>95.764</ele><time>2026-04-25T10:29:20.000Z</time><hdop>3.0</hdop><vdop>3.0</vdop><extensions><gom:speed>0.572</gom:speed></extensions></trkpt>
   <trkpt lat="59.0621301832" lon="29.9648097739"><ele>95.726</ele><time>2026-04-25T10:29:21.000Z</time><hdop>3.0</hdop><vdop>3.0</vdop><extensions><gom:speed>0.544</gom:speed></extensions></trkpt>
   <trkpt lat="59.062137685" lon="29.9648097739"><ele>95.711</ele><time>2026-04-25T10:29:22.000Z</time><hdop>3.0</hdop><vdop>3.0</vdop><extensions><gom:speed>0.445</gom:speed></extensions></trkpt>
   <trkpt lat="59.062137685" lon="29.9648097739"><ele>95.703</ele><time>2026-04-25T10:29:23.000Z</time><hdop>3.0</hdop><vdop>3.0</vdop><extensions><gom:speed>0.0</gom:speed></extensions></trkpt>
   <trkpt lat="59.0621419598" lon="29.9648117856"><ele>95.683</ele><time>2026-04-25T10:29:24.000Z</time><hdop>3.0</hdop><vdop>3.0</vdop><extensions><gom:speed>0.286</gom:speed></extensions></trkpt>
   <trkpt lat="59.0621419598" lon="29.9648117856"><ele>95.671</ele><time>2026-04-25T10:29:25.000Z</time><hdop>3.0</hdop><vdop>3.0</vdop><extensions><gom:speed>0.0</gom:speed></extensions></trkpt>
   <trkpt lat="59.0621419598" lon="29.9648117856"><ele>95.664</ele><time>2026-04-25T10:29:26.000Z</time><hdop>3.0</hdop><vdop>3.0</vdop><extensions><gom:speed>0.0</gom:speed></extensions></trkpt>
   <trkpt lat="59.0621488748" lon="29.9648170662"><ele>95.654</ele><time>2026-04-25T10:29:27.000Z</time><hdop>3.0</hdop><vdop>3.0</vdop><extensions><gom:speed>0.378</gom:speed></extensions></trkpt>
   <trkpt lat="59.0621583464" lon="29.9648275435"><ele>95.655</ele><time>2026-04-25T10:29:28.000Z</time><hdop>3.0</hdop><vdop>3.0</vdop><extensions><gom:speed>0.514</gom:speed></extensions></trkpt>
   <trkpt lat="59.0621675246" lon="29.9648359254"><ele>95.691</ele><time>2026-04-25T10:29:29.000Z</time><hdop>3.0</hdop><vdop>3.0</vdop><extensions><gom:speed>0.549</gom:speed></extensions></trkpt>
   <trkpt lat="59.0621773733" lon="29.9648470734"><ele>95.75</ele><time>2026-04-25T10:29:30.000Z</time><hdop>3.0</hdop><vdop>3.0</vdop><extensions><gom:speed>0.713</gom:speed></extensions></trkpt>
   <trkpt lat="59.0621874316" lon="29.9648590595"><ele>95.843</ele><time>2026-04-25T10:29:31.000Z</time><hdop>3.0</hdop><vdop>3.0</vdop><extensions><gom:speed>0.621</gom:speed></extensions></trkpt>
   <trkpt lat="59.0621951429" lon="29.9648713809"><ele>96.046</ele><time>2026-04-25T10:29:32.000Z</time><hdop>3.0</hdop><vdop>3.0</vdop><extensions><gom:speed>0.478</gom:speed></extensions></trkpt>
   <trkpt lat="59.0621951429" lon="29.9648713809"><ele>96.167</ele><time>2026-04-25T10:29:32.000Z</time><hdop>3.0</hdop><vdop>3.0</vdop><extensions><gom:speed>0.478</gom:speed></extensions></trkpt>
   <trkpt lat="59.0622017227" lon="29.9648791761"><ele>96.289</ele><time>2026-04-25T10:29:33.000Z</time><hdop>3.0</hdop><vdop>3.0</vdop><extensions><gom:speed>0.561</gom:speed></extensions></trkpt>
   <trkpt lat="59.0622102723" lon="29.9648832832"><ele>96.371</ele><time>2026-04-25T10:29:34.000Z</time><hdop>3.0</hdop><vdop>3.0</vdop><extensions><gom:speed>0.613</gom:speed></extensions></trkpt>
   <trkpt lat="59.0622184027" lon="29.9648857139"><ele>96.431</ele><time>2026-04-25T10:29:35.000Z</time><hdop>3.0</hdop><vdop>3.0</vdop><extensions><gom:speed>0.434</gom:speed></extensions></trkpt>
   <trkpt lat="59.0622230128" lon="29.9648938444"><ele>96.485</ele><time>2026-04-25T10:29:36.000Z</time><hdop>3.0</hdop><vdop>3.0</vdop><extensions><gom:speed>0.338</gom:speed></extensions></trkpt>
   <trkpt lat="59.0622292992" lon="29.9649033159"><ele>96.563</ele><time>2026-04-25T10:29:37.000Z</time><hdop>3.0</hdop><vdop>3.0</vdop><extensions><gom:speed>0.419</gom:speed></extensions></trkpt>
   <trkpt lat="59.0622355018" lon="29.9649147991"><ele>96.657</ele><time>2026-04-25T10:29:38.000Z</time><hdop>3.0</hdop><vdop>3.0</vdop><extensions><gom:speed>0.536</gom:speed></extensions></trkpt>
   <trkpt lat="59.0622406148" lon="29.9649276235"><ele>96.703</ele><time>2026-04-25T10:29:39.000Z</time><hdop>3.0</hdop><vdop>3.0</vdop><extensions><gom:speed>0.725</gom:speed></extensions></trkpt>
   <trkpt lat="59.062246063" lon="29.9649381847"><ele>96.765</ele><time>2026-04-25T10:29:40.000Z</time><hdop>3.0</hdop><vdop>3.0</vdop><extensions><gom:speed>0.668</gom:speed></extensions></trkpt>
   <trkpt lat="59.0622527685" lon="29.9649520986"><ele>96.804</ele><time>2026-04-25T10:29:41.000Z</time><hdop>3.0</hdop><vdop>3.0</vdop><extensions><gom:speed>0.697</gom:speed></extensions></trkpt>
   <trkpt lat="59.0622595579" lon="29.9649645876"><ele>96.921</ele><time>2026-04-25T10:29:42.000Z</time><hdop>3.0</hdop><vdop>3.0</vdop><extensions><gom:speed>0.623</gom:speed></extensions></trkpt>
   <trkpt lat="59.0622661376" lon="29.9649778311"><ele>97.032</ele><time>2026-04-25T10:29:43.000Z</time><hdop>3.0</hdop><vdop>3.0</vdop><extensions><gom:speed>0.803</gom:speed></extensions></trkpt>
   <trkpt lat="59.0622714182" lon="29.9649936729"><ele>97.112</ele><time>2026-04-25T10:29:44.000Z</time><hdop>3.062</hdop><vdop>3.062</vdop><extensions><gom:speed>0.656</gom:speed></extensions></trkpt>
   <trkpt lat="59.062275693" lon="29.9650064972"><ele>97.122</ele><time>2026-04-25T10:29:45.000Z</time><hdop>3.062</hdop><vdop>3.062</vdop><extensions><gom:speed>0.614</gom:speed></extensions></trkpt>
   <trkpt lat="59.0622795906" lon="29.9650167231"><ele>97.119</ele><time>2026-04-25T10:29:46.000Z</time><hdop>3.0</hdop><vdop>3.0</vdop><extensions><gom:speed>0.373</gom:speed></extensions></trkpt>
   <trkpt lat="59.0622832367" lon="29.9650205788"><ele>97.125</ele><time>2026-04-25T10:29:47.000Z</time><hdop>3.0</hdop><vdop>3.0</vdop><extensions><gom:speed>0.354</gom:speed></extensions></trkpt>
   <trkpt lat="59.0622862542" lon="29.9650275357"><ele>97.161</ele><time>2026-04-25T10:29:48.000Z</time><hdop>3.0</hdop><vdop>3.0</vdop><extensions><gom:speed>0.47</gom:speed></extensions></trkpt>
   <trkpt lat="59.062288685" lon="29.9650336545"><ele>97.276</ele><time>2026-04-25T10:29:49.000Z</time><hdop>3.0</hdop><vdop>3.0</vdop><extensions><gom:speed>0.417</gom:speed></extensions></trkpt>
   <trkpt lat="59.0622917863" lon="29.9650412821"><ele>97.418</ele><time>2026-04-25T10:29:50.000Z</time><hdop>3.0</hdop><vdop>3.0</vdop><extensions><gom:speed>0.486</gom:speed></extensions></trkpt>
   <trkpt lat="59.0622926664" lon="29.9650502507"><ele>97.591</ele><time>2026-04-25T10:29:51.000Z</time><hdop>3.0</hdop><vdop>3.0</vdop><extensions><gom:speed>0.481</gom:speed></extensions></trkpt>
   <trkpt lat="59.0622945104" lon="29.9650624045"><ele>97.744</ele><time>2026-04-25T10:29:52.000Z</time><hdop>3.562</hdop><vdop>3.562</vdop><extensions><gom:speed>0.566</gom:speed></extensions></trkpt>
   <trkpt lat="59.0622945104" lon="29.9650624045"><ele>97.836</ele><time>2026-04-25T10:29:52.000Z</time><hdop>3.562</hdop><vdop>3.562</vdop><extensions><gom:speed>0.566</gom:speed></extensions></trkpt>
   <trkpt lat="59.0622959353" lon="29.9650777433"><ele>97.95</ele><time>2026-04-25T10:29:53.000Z</time><hdop>4.125</hdop><vdop>4.125</vdop><extensions><gom:speed>0.609</gom:speed></extensions></trkpt>
   <trkpt lat="59.0622953905" lon="29.9650909867"><ele>98.027</ele><time>2026-04-25T10:29:54.000Z</time><hdop>4.187</hdop><vdop>4.187</vdop><extensions><gom:speed>0.583</gom:speed></extensions></trkpt>
   <trkpt lat="59.0622948876" lon="29.9651042302"><ele>98.131</ele><time>2026-04-25T10:29:55.000Z</time><hdop>3.937</hdop><vdop>3.937</vdop><extensions><gom:speed>0.527</gom:speed></extensions></trkpt>
   <trkpt lat="59.0622966478" lon="29.9651184794"><ele>98.221</ele><time>2026-04-25T10:29:56.000Z</time><hdop>4.062</hdop><vdop>4.062</vdop><extensions><gom:speed>0.709</gom:speed></extensions></trkpt>
   <trkpt lat="59.0623018446" lon="29.965135327"><ele>98.285</ele><time>2026-04-25T10:29:57.000Z</time><hdop>4.187</hdop><vdop>4.187</vdop><extensions><gom:speed>0.884</gom:speed></extensions></trkpt>
   <trkpt lat="59.0623067061" lon="29.9651472293"><ele>98.346</ele><time>2026-04-25T10:29:58.000Z</time><hdop>3.875</hdop><vdop>3.875</vdop><extensions><gom:speed>0.583</gom:speed></extensions></trkpt>
   <trkpt lat="59.0623129506" lon="29.9651567847"><ele>98.383</ele><time>2026-04-25T10:29:59.000Z</time><hdop>3.812</hdop><vdop>3.812</vdop><extensions><gom:speed>0.397</gom:speed></extensions></trkpt>
   <trkpt lat="59.0623182731" lon="29.9651614786"><ele>98.369</ele><time>2026-04-25T10:30:00.000Z</time><hdop>3.75</hdop><vdop>3.75</vdop><extensions><gom:speed>0.329</gom:speed></extensions></trkpt>
   <trkpt lat="59.062323889" lon="29.9651645799"><ele>98.312</ele><time>2026-04-25T10:30:01.000Z</time><hdop>3.75</hdop><vdop>3.75</vdop><extensions><gom:speed>0.629</gom:speed></extensions></trkpt>
   <trkpt lat="59.0623305107" lon="29.9651672621"><ele>98.311</ele><time>2026-04-25T10:30:02.000Z</time><hdop>3.562</hdop><vdop>3.562</vdop><extensions><gom:speed>0.615</gom:speed></extensions></trkpt>
   <trkpt lat="59.0623383058" lon="29.9651696928"><ele>98.324</ele><time>2026-04-25T10:30:03.000Z</time><hdop>3.312</hdop><vdop>3.312</vdop><extensions><gom:speed>0.66</gom:speed></extensions></trkpt>
   <trkpt lat="59.0623485318" lon="29.9651822657"><ele>98.343</ele><time>2026-04-25T10:30:04.000Z</time><hdop>3.687</hdop><vdop>3.687</vdop><extensions><gom:speed>0.736</gom:speed></extensions></trkpt>
   <trkpt lat="59.0623541057" lon="29.9651887197"><ele>98.367</ele><time>2026-04-25T10:30:05.000Z</time><hdop>3.687</hdop><vdop>3.687</vdop><extensions><gom:speed>0.475</gom:speed></extensions></trkpt>
   <trkpt lat="59.0623622362" lon="29.9651928269"><ele>98.416</ele><time>2026-04-25T10:30:06.000Z</time><hdop>4.187</hdop><vdop>4.187</vdop><extensions><gom:speed>0.489</gom:speed></extensions></trkpt>
   <trkpt lat="59.0623684388" lon="29.96519509"><ele>98.464</ele><time>2026-04-25T10:30:07.000Z</time><hdop>4.25</hdop><vdop>4.25</vdop><extensions><gom:speed>0.461</gom:speed></extensions></trkpt>
   <trkpt lat="59.0623752281" lon="29.9651979398"><ele>98.477</ele><time>2026-04-25T10:30:08.000Z</time><hdop>3.875</hdop><vdop>3.875</vdop><extensions><gom:speed>0.606</gom:speed></extensions></trkpt>
   <trkpt lat="59.0623816822" lon="29.9651983589"><ele>98.474</ele><time>2026-04-25T10:30:09.000Z</time><hdop>3.562</hdop><vdop>3.562</vdop><extensions><gom:speed>0.447</gom:speed></extensions></trkpt>
   <trkpt lat="59.062389645" lon="29.965198778"><ele>98.442</ele><time>2026-04-25T10:30:10.000Z</time><hdop>3.375</hdop><vdop>3.375</vdop><extensions><gom:speed>0.526</gom:speed></extensions></trkpt>
   <trkpt lat="59.062397524" lon="29.9651983589"><ele>98.398</ele><time>2026-04-25T10:30:11.000Z</time><hdop>3.25</hdop><vdop>3.25</vdop><extensions><gom:speed>0.606</gom:speed></extensions></trkpt>
   <trkpt lat="59.062397524" lon="29.9651983589"><ele>98.372</ele><time>2026-04-25T10:30:12.000Z</time><hdop>3.25</hdop><vdop>3.25</vdop><extensions><gom:speed>0.0</gom:speed></extensions></trkpt>
   <trkpt lat="59.062397524" lon="29.9651983589"><ele>98.356</ele><time>2026-04-25T10:30:12.000Z</time><hdop>3.25</hdop><vdop>3.25</vdop><extensions><gom:speed>0.0</gom:speed></extensions></trkpt>
   <trkpt lat="59.0624038523" lon="29.9651963473"><ele>98.291</ele><time>2026-04-25T10:30:13.000Z</time><hdop>3.437</hdop><vdop>3.437</vdop><extensions><gom:speed>0.279</gom:speed></extensions></trkpt>
   <trkpt lat="59.062411857" lon="29.9651996162"><ele>98.17</ele><time>2026-04-25T10:30:14.000Z</time><hdop>3.687</hdop><vdop>3.687</vdop><extensions><gom:speed>0.27</gom:speed></extensions></trkpt>
   <trkpt lat="59.0624204904" lon="29.9651994486"><ele>98.015</ele><time>2026-04-25T10:30:15.000Z</time><hdop>3.75</hdop><vdop>3.75</vdop><extensions><gom:speed>0.356</gom:speed></extensions></trkpt>
   <trkpt lat="59.0624288723" lon="29.9651970178"><ele>97.888</ele><time>2026-04-25T10:30:16.000Z</time><hdop>3.75</hdop><vdop>3.75</vdop><extensions><gom:speed>0.405</gom:speed></extensions></trkpt>
   <trkpt lat="59.0624364579" lon="29.9651968502"><ele>97.74</ele><time>2026-04-25T10:30:17.000Z</time><hdop>3.625</hdop><vdop>3.625</vdop><extensions><gom:speed>0.433</gom:speed></extensions></trkpt>
   <trkpt lat="59.0624428701" lon="29.9651981075"><ele>97.601</ele><time>2026-04-25T10:30:18.000Z</time><hdop>3.25</hdop><vdop>3.25</vdop><extensions><gom:speed>0.25</gom:speed></extensions></trkpt>
   <trkpt lat="59.0624487374" lon="29.9651999515"><ele>97.505</ele><time>2026-04-25T10:30:19.000Z</time><hdop>3.125</hdop><vdop>3.125</vdop><extensions><gom:speed>0.215</gom:speed></extensions></trkpt>
   <trkpt lat="59.0624541018" lon="29.9652015441"><ele>97.422</ele><time>2026-04-25T10:30:20.000Z</time><hdop>3.0</hdop><vdop>3.0</vdop><extensions><gom:speed>0.26</gom:speed></extensions></trkpt>
   <trkpt lat="59.062459131" lon="29.9652025499"><ele>97.326</ele><time>2026-04-25T10:30:21.000Z</time><hdop>3.0</hdop><vdop>3.0</vdop><extensions><gom:speed>0.308</gom:speed></extensions></trkpt>
   <trkpt lat="59.0624647049" lon="29.9652047292"><ele>97.21</ele><time>2026-04-25T10:30:22.000Z</time><hdop>3.0</hdop><vdop>3.0</vdop><extensions><gom:speed>0.465</gom:speed></extensions></trkpt>
   <trkpt lat="59.062472542" lon="29.9652079981"><ele>97.01</ele><time>2026-04-25T10:30:23.000Z</time><hdop>3.0</hdop><vdop>3.0</vdop><extensions><gom:speed>0.543</gom:speed></extensions></trkpt>
   <trkpt lat="59.0624795828" lon="29.965212692"><ele>96.786</ele><time>2026-04-25T10:30:24.000Z</time><hdop>3.0</hdop><vdop>3.0</vdop><extensions><gom:speed>0.5</gom:speed></extensions></trkpt>
   <trkpt lat="59.0624852825" lon="29.9652199004"><ele>96.575</ele><time>2026-04-25T10:30:25.000Z</time><hdop>3.0</hdop><vdop>3.0</vdop><extensions><gom:speed>0.527</gom:speed></extensions></trkpt>
   <trkpt lat="59.0624903955" lon="29.9652287852"><ele>96.542</ele><time>2026-04-25T10:30:26.000Z</time><hdop>3.0</hdop><vdop>3.0</vdop><extensions><gom:speed>0.327</gom:speed></extensions></trkpt>
   <trkpt lat="59.0624942092" lon="29.9652392626"><ele>96.572</ele><time>2026-04-25T10:30:27.000Z</time><hdop>3.0</hdop><vdop>3.0</vdop><extensions><gom:speed>0.425</gom:speed></extensions></trkpt>
   <trkpt lat="59.0624958018" lon="29.9652533442"><ele>96.623</ele><time>2026-04-25T10:30:28.000Z</time><hdop>3.125</hdop><vdop>3.125</vdop><extensions><gom:speed>0.567</gom:speed></extensions></trkpt>
   <trkpt lat="59.0624983583" lon="29.9652663362"><ele>96.649</ele><time>2026-04-25T10:30:29.000Z</time><hdop>3.312</hdop><vdop>3.312</vdop><extensions><gom:speed>0.624</gom:speed></extensions></trkpt>
   <trkpt lat="59.0625007052" lon="29.9652759754"><ele>96.587</ele><time>2026-04-25T10:30:30.000Z</time><hdop>3.5</hdop><vdop>3.5</vdop><extensions><gom:speed>0.472</gom:speed></extensions></trkpt>
   <trkpt lat="59.0625023397" lon="29.9652820103"><ele>96.538</ele><time>2026-04-25T10:30:31.000Z</time><hdop>3.75</hdop><vdop>3.75</vdop><extensions><gom:speed>0.306</gom:speed></extensions></trkpt>
   <trkpt lat="59.06250498" lon="29.9652844411"><ele>96.469</ele><time>2026-04-25T10:30:32.000Z</time><hdop>3.812</hdop><vdop>3.812</vdop><extensions><gom:speed>0.339</gom:speed></extensions></trkpt>
   <trkpt lat="59.06250498" lon="29.9652844411"><ele>96.428</ele><time>2026-04-25T10:30:32.000Z</time><hdop>3.812</hdop><vdop>3.812</vdop><extensions><gom:speed>0.339</gom:speed></extensions></trkpt>
   <trkpt lat="59.0625108054" lon="29.9652815074"><ele>96.363</ele><time>2026-04-25T10:30:33.000Z</time><hdop>3.125</hdop><vdop>3.125</vdop><extensions><gom:speed>0.411</gom:speed></extensions></trkpt>
   <trkpt lat="59.062515164" lon="29.9652784899"><ele>96.271</ele><time>2026-04-25T10:30:34.000Z</time><hdop>3.0</hdop><vdop>3.0</vdop><extensions><gom:speed>0.334</gom:speed></extensions></trkpt>
   <trkpt lat="59.0625188101" lon="29.9652760592"><ele>96.141</ele><time>2026-04-25T10:30:35.000Z</time><hdop>3.0</hdop><vdop>3.0</vdop><extensions><gom:speed>0.327</gom:speed></extensions></trkpt>
   <trkpt lat="59.0625225401" lon="29.9652740475"><ele>95.983</ele><time>2026-04-25T10:30:36.000Z</time><hdop>3.0</hdop><vdop>3.0</vdop><extensions><gom:speed>0.373</gom:speed></extensions></trkpt>
   <trkpt lat="59.062525809" lon="29.9652658332"><ele>95.814</ele><time>2026-04-25T10:30:37.000Z</time><hdop>3.0</hdop><vdop>3.0</vdop><extensions><gom:speed>0.472</gom:speed></extensions></trkpt>
   <trkpt lat="59.0625293713" lon="29.9652596306"><ele>95.664</ele><time>2026-04-25T10:30:38.000Z</time><hdop>3.0</hdop><vdop>3.0</vdop><extensions><gom:speed>0.37</gom:speed></extensions></trkpt>
   <trkpt lat="59.0625293713" lon="29.9652596306"><ele>95.575</ele><time>2026-04-25T10:30:39.000Z</time><hdop>3.0</hdop><vdop>3.0</vdop><extensions><gom:speed>0.0</gom:speed></extensions></trkpt>
   <trkpt lat="59.0625321793" lon="29.9652596306"><ele>95.47</ele><time>2026-04-25T10:30:40.000Z</time><hdop>3.0</hdop><vdop>3.0</vdop><extensions><gom:speed>0.281</gom:speed></extensions></trkpt>
   <trkpt lat="59.0625394715" lon="29.9652596306"><ele>95.368</ele><time>2026-04-25T10:30:41.000Z</time><hdop>3.0</hdop><vdop>3.0</vdop><extensions><gom:speed>0.532</gom:speed></extensions></trkpt>
   <trkpt lat="59.0625474762" lon="29.9652628996"><ele>95.296</ele><time>2026-04-25T10:30:42.000Z</time><hdop>3.0</hdop><vdop>3.0</vdop><extensions><gom:speed>0.751</gom:speed></extensions></trkpt>
   <trkpt lat="59.0625577022" lon="29.9652678449"><ele>95.267</ele><time>2026-04-25T10:30:43.000Z</time><hdop>3.0</hdop><vdop>3.0</vdop><extensions><gom:speed>0.724</gom:speed></extensions></trkpt>
   <trkpt lat="59.0625701912" lon="29.9652678449"><ele>95.225</ele><time>2026-04-25T10:30:44.000Z</time><hdop>3.0</hdop><vdop>3.0</vdop><extensions><gom:speed>0.912</gom:speed></extensions></trkpt>
   <trkpt lat="59.0625811715" lon="29.9652660009"><ele>95.191</ele><time>2026-04-25T10:30:45.000Z</time><hdop>3.0</hdop><vdop>3.0</vdop><extensions><gom:speed>0.742</gom:speed></extensions></trkpt>
   <trkpt lat="59.062591104" lon="29.965264576"><ele>95.139</ele><time>2026-04-25T10:30:46.000Z</time><hdop>3.0</hdop><vdop>3.0</vdop><extensions><gom:speed>0.731</gom:speed></extensions></trkpt>
   <trkpt lat="59.0626005337" lon="29.9652629834"><ele>95.102</ele><time>2026-04-25T10:30:47.000Z</time><hdop>3.0</hdop><vdop>3.0</vdop><extensions><gom:speed>0.761</gom:speed></extensions></trkpt>
   <trkpt lat="59.0626131065" lon="29.9652660009"><ele>95.21</ele><time>2026-04-25T10:30:48.000Z</time><hdop>3.0</hdop><vdop>3.0</vdop><extensions><gom:speed>0.755</gom:speed></extensions></trkpt>
   <trkpt lat="59.0626219075" lon="29.9652675934"><ele>95.315</ele><time>2026-04-25T10:30:49.000Z</time><hdop>3.0</hdop><vdop>3.0</vdop><extensions><gom:speed>0.621</gom:speed></extensions></trkpt>
   <trkpt lat="59.0626308762" lon="29.9652749695"><ele>95.495</ele><time>2026-04-25T10:30:50.000Z</time><hdop>3.0</hdop><vdop>3.0</vdop><extensions><gom:speed>0.605</gom:speed></extensions></trkpt>
   <trkpt lat="59.0626382103" lon="29.9652839382"><ele>95.759</ele><time>2026-04-25T10:30:51.000Z</time><hdop>3.0</hdop><vdop>3.0</vdop><extensions><gom:speed>0.62</gom:speed></extensions></trkpt>
   <trkpt lat="59.0626437843" lon="29.9652948346"><ele>96.063</ele><time>2026-04-25T10:30:52.000Z</time><hdop>3.0</hdop><vdop>3.0</vdop><extensions><gom:speed>0.56</gom:speed></extensions></trkpt>
   <trkpt lat="59.0626437843" lon="29.9652948346"><ele>96.245</ele><time>2026-04-25T10:30:52.000Z</time><hdop>3.0</hdop><vdop>3.0</vdop><extensions><gom:speed>0.56</gom:speed></extensions></trkpt>
   <trkpt lat="59.0626488553" lon="29.9653038871"><ele>96.43</ele><time>2026-04-25T10:30:53.000Z</time><hdop>3.0</hdop><vdop>3.0</vdop><extensions><gom:speed>0.527</gom:speed></extensions></trkpt>
   <trkpt lat="59.0626531301" lon="29.9653147836"><ele>96.59</ele><time>2026-04-25T10:30:54.000Z</time><hdop>3.0</hdop><vdop>3.0</vdop><extensions><gom:speed>0.577</gom:speed></extensions></trkpt>
   <trkpt lat="59.0626558961" lon="29.9653214891"><ele>96.75</ele><time>2026-04-25T10:30:55.000Z</time><hdop>3.0</hdop><vdop>3.0</vdop><extensions><gom:speed>0.279</gom:speed></extensions></trkpt>
   <trkpt lat="59.0626558961" lon="29.9653214891"><ele>96.846</ele><time>2026-04-25T10:30:56.000Z</time><hdop>3.0</hdop><vdop>3.0</vdop><extensions><gom:speed>0.0</gom:speed></extensions></trkpt>
   <trkpt lat="59.0626558961" lon="29.9653214891"><ele>96.903</ele><time>2026-04-25T10:30:57.000Z</time><hdop>3.0</hdop><vdop>3.0</vdop><extensions><gom:speed>0.0</gom:speed></extensions></trkpt>
   <trkpt lat="59.0626558961" lon="29.9653214891"><ele>96.937</ele><time>2026-04-25T10:30:58.000Z</time><hdop>3.0</hdop><vdop>3.0</vdop><extensions><gom:speed>0.0</gom:speed></extensions></trkpt>
   <trkpt lat="59.0626558961" lon="29.9653214891"><ele>96.957</ele><time>2026-04-25T10:30:59.000Z</time><hdop>3.0</hdop><vdop>3.0</vdop><extensions><gom:speed>0.0</gom:speed></extensions></trkpt>
   <trkpt lat="59.0626558961" lon="29.9653214891"><ele>96.97</ele><time>2026-04-25T10:31:00.000Z</time><hdop>3.0</hdop><vdop>3.0</vdop><extensions><gom:speed>0.0</gom:speed></extensions></trkpt>
   <trkpt lat="59.0626558961" lon="29.9653214891"><ele>96.977</ele><time>2026-04-25T10:31:01.000Z</time><hdop>3.0</hdop><vdop>3.0</vdop><extensions><gom:speed>0.0</gom:speed></extensions></trkpt>
   <trkpt lat="59.0626558961" lon="29.9653214891"><ele>96.981</ele><time>2026-04-25T10:31:02.000Z</time><hdop>3.0</hdop><vdop>3.0</vdop><extensions><gom:speed>0.0</gom:speed></extensions></trkpt>
   <trkpt lat="59.0626558961" lon="29.9653214891"><ele>96.984</ele><time>2026-04-25T10:31:03.000Z</time><hdop>3.0</hdop><vdop>3.0</vdop><extensions><gom:speed>0.0</gom:speed></extensions></trkpt>
   <trkpt lat="59.0626558961" lon="29.9653214891"><ele>96.985</ele><time>2026-04-25T10:31:04.000Z</time><hdop>3.0</hdop><vdop>3.0</vdop><extensions><gom:speed>0.0</gom:speed></extensions></trkpt>
   <trkpt lat="59.0626558961" lon="29.9653214891"><ele>96.986</ele><time>2026-04-25T10:31:05.000Z</time><hdop>3.0</hdop><vdop>3.0</vdop><extensions><gom:speed>0.0</gom:speed></extensions></trkpt>
   <trkpt lat="59.0626558961" lon="29.9653214891"><ele>96.987</ele><time>2026-04-25T10:31:06.000Z</time><hdop>3.0</hdop><vdop>3.0</vdop><extensions><gom:speed>0.0</gom:speed></extensions></trkpt>
   <trkpt lat="59.062657824" lon="29.9653242551"><ele>97.037</ele><time>2026-04-25T10:31:07.000Z</time><hdop>3.0</hdop><vdop>3.0</vdop><extensions><gom:speed>0.145</gom:speed></extensions></trkpt>
   <trkpt lat="59.0626595842" lon="29.9653271888"><ele>97.109</ele><time>2026-04-25T10:31:08.000Z</time><hdop>3.0</hdop><vdop>3.0</vdop><extensions><gom:speed>0.189</gom:speed></extensions></trkpt>
   <trkpt lat="59.0626630627" lon="29.9653307092"><ele>97.149</ele><time>2026-04-25T10:31:09.000Z</time><hdop>3.0</hdop><vdop>3.0</vdop><extensions><gom:speed>0.268</gom:speed></extensions></trkpt>
   <trkpt lat="59.0626662478" lon="29.9653378338"><ele>97.242</ele><time>2026-04-25T10:31:10.000Z</time><hdop>3.0</hdop><vdop>3.0</vdop><extensions><gom:speed>0.386</gom:speed></extensions></trkpt>
   <trkpt lat="59.0626724085" lon="29.9653480597"><ele>97.297</ele><time>2026-04-25T10:31:11.000Z</time><hdop>3.0</hdop><vdop>3.0</vdop><extensions><gom:speed>0.552</gom:speed></extensions></trkpt>
   <trkpt lat="59.0626794493" lon="29.9653561063"><ele>97.314</ele><time>2026-04-25T10:31:12.000Z</time><hdop>3.0</hdop><vdop>3.0</vdop><extensions><gom:speed>0.665</gom:speed></extensions></trkpt>
   <trkpt lat="59.0626794493" lon="29.9653561063"><ele>97.324</ele><time>2026-04-25T10:31:12.000Z</time><hdop>3.0</hdop><vdop>3.0</vdop><extensions><gom:speed>0.665</gom:speed></extensions></trkpt>
   <trkpt lat="59.0626877055" lon="29.9653611355"><ele>97.316</ele><time>2026-04-25T10:31:13.000Z</time><hdop>3.0</hdop><vdop>3.0</vdop><extensions><gom:speed>0.55</gom:speed></extensions></trkpt>
   <trkpt lat="59.0626942014" lon="29.9653628119"><ele>97.288</ele><time>2026-04-25T10:31:14.000Z</time><hdop>3.0</hdop><vdop>3.0</vdop><extensions><gom:speed>0.561</gom:speed></extensions></trkpt>
   <trkpt lat="59.0626992725" lon="29.9653639015"><ele>97.266</ele><time>2026-04-25T10:31:15.000Z</time><hdop>3.0</hdop><vdop>3.0</vdop><extensions><gom:speed>0.323</gom:speed></extensions></trkpt>
   <trkpt lat="59.0627058523" lon="29.9653647397"><ele>97.197</ele><time>2026-04-25T10:31:16.000Z</time><hdop>3.0</hdop><vdop>3.0</vdop><extensions><gom:speed>0.234</gom:speed></extensions></trkpt>
   <trkpt lat="59.0627058523" lon="29.9653647397"><ele>97.156</ele><time>2026-04-25T10:31:17.000Z</time><hdop>3.0</hdop><vdop>3.0</vdop><extensions><gom:speed>0.0</gom:speed></extensions></trkpt>
   <trkpt lat="59.0627119292" lon="29.9653624766"><ele>97.041</ele><time>2026-04-25T10:31:18.000Z</time><hdop>3.0</hdop><vdop>3.0</vdop><extensions><gom:speed>0.416</gom:speed></extensions></trkpt>
   <trkpt lat="59.0627205625" lon="29.9653588724"><ele>96.887</ele><time>2026-04-25T10:31:19.000Z</time><hdop>3.0</hdop><vdop>3.0</vdop><extensions><gom:speed>0.608</gom:speed></extensions></trkpt>
   <trkpt lat="59.0627280224" lon="29.9653584533"><ele>96.722</ele><time>2026-04-25T10:31:20.000Z</time><hdop>3.0</hdop><vdop>3.0</vdop><extensions><gom:speed>0.434</gom:speed></extensions></trkpt>
   <trkpt lat="59.0627371587" lon="29.9653613869"><ele>96.555</ele><time>2026-04-25T10:31:21.000Z</time><hdop>3.0</hdop><vdop>3.0</vdop><extensions><gom:speed>0.486</gom:speed></extensions></trkpt>
   <trkpt lat="59.0627454987" lon="29.9653654941"><ele>96.406</ele><time>2026-04-25T10:31:22.000Z</time><hdop>3.0</hdop><vdop>3.0</vdop><extensions><gom:speed>0.581</gom:speed></extensions></trkpt>
   <trkpt lat="59.0627542997" lon="29.965365997"><ele>96.257</ele><time>2026-04-25T10:31:23.000Z</time><hdop>3.0</hdop><vdop>3.0</vdop><extensions><gom:speed>0.574</gom:speed></extensions></trkpt>
   <trkpt lat="59.0627616758" lon="29.9653692659"><ele>96.119</ele><time>2026-04-25T10:31:24.000Z</time><hdop>3.0</hdop><vdop>3.0</vdop><extensions><gom:speed>0.527</gom:speed></extensions></trkpt>
   <trkpt lat="59.0627730752" lon="29.9653725349"><ele>96.061</ele><time>2026-04-25T10:31:25.000Z</time><hdop>3.0</hdop><vdop>3.0</vdop><extensions><gom:speed>0.68</gom:speed></extensions></trkpt>
   <trkpt lat="59.0627813313" lon="29.9653744627"><ele>96.002</ele><time>2026-04-25T10:31:26.000Z</time><hdop>3.0</hdop><vdop>3.0</vdop><extensions><gom:speed>0.526</gom:speed></extensions></trkpt>
   <trkpt lat="59.0627871987" lon="29.9653799948"><ele>95.942</ele><time>2026-04-25T10:31:27.000Z</time><hdop>3.0</hdop><vdop>3.0</vdop><extensions><gom:speed>0.437</gom:speed></extensions></trkpt>
   <trkpt lat="59.0627959158" lon="29.9653840181"><ele>95.909</ele><time>2026-04-25T10:31:28.000Z</time><hdop>3.0</hdop><vdop>3.0</vdop><extensions><gom:speed>0.594</gom:speed></extensions></trkpt>
   <trkpt lat="59.0628075248" lon="29.9653864488"><ele>95.858</ele><time>2026-04-25T10:31:29.000Z</time><hdop>3.0</hdop><vdop>3.0</vdop><extensions><gom:speed>0.701</gom:speed></extensions></trkpt>
   <trkpt lat="59.0628178345" lon="29.9653882929"><ele>95.844</ele><time>2026-04-25T10:31:30.000Z</time><hdop>3.0</hdop><vdop>3.0</vdop><extensions><gom:speed>0.773</gom:speed></extensions></trkpt>
   <trkpt lat="59.0628271803" lon="29.9653932382"><ele>95.823</ele><time>2026-04-25T10:31:31.000Z</time><hdop>3.0</hdop><vdop>3.0</vdop><extensions><gom:speed>0.861</gom:speed></extensions></trkpt>
   <trkpt lat="59.0628390407" lon="29.9653906398"><ele>95.76</ele><time>2026-04-25T10:31:32.000Z</time><hdop>3.0</hdop><vdop>3.0</vdop><extensions><gom:speed>0.882</gom:speed></extensions></trkpt>
   <trkpt lat="59.0628390407" lon="29.9653906398"><ele>95.723</ele><time>2026-04-25T10:31:32.000Z</time><hdop>3.0</hdop><vdop>3.0</vdop><extensions><gom:speed>0.882</gom:speed></extensions></trkpt>
   <trkpt lat="59.0628515717" lon="29.965384521"><ele>95.757</ele><time>2026-04-25T10:31:33.000Z</time><hdop>3.0</hdop><vdop>3.0</vdop><extensions><gom:speed>0.979</gom:speed></extensions></trkpt>
   <trkpt lat="59.0628598698" lon="29.9653785698"><ele>95.727</ele><time>2026-04-25T10:31:34.000Z</time><hdop>3.0</hdop><vdop>3.0</vdop><extensions><gom:speed>0.776</gom:speed></extensions></trkpt>
   <trkpt lat="59.0628668686" lon="29.9653705232"><ele>95.683</ele><time>2026-04-25T10:31:35.000Z</time><hdop>3.0</hdop><vdop>3.0</vdop><extensions><gom:speed>0.577</gom:speed></extensions></trkpt>
   <trkpt lat="59.0628751248" lon="29.9653658294"><ele>95.726</ele><time>2026-04-25T10:31:36.000Z</time><hdop>3.0</hdop><vdop>3.0</vdop><extensions><gom:speed>0.491</gom:speed></extensions></trkpt>
   <trkpt lat="59.0628817046" lon="29.9653588724"><ele>95.765</ele><time>2026-04-25T10:31:37.000Z</time><hdop>3.0</hdop><vdop>3.0</vdop><extensions><gom:speed>0.501</gom:speed></extensions></trkpt>
   <trkpt lat="59.0628871529" lon="29.9653526698"><ele>95.765</ele><time>2026-04-25T10:31:38.000Z</time><hdop>3.0</hdop><vdop>3.0</vdop><extensions><gom:speed>0.524</gom:speed></extensions></trkpt>
   <trkpt lat="59.062892182" lon="29.9653449584"><ele>95.75</ele><time>2026-04-25T10:31:39.000Z</time><hdop>3.0</hdop><vdop>3.0</vdop><extensions><gom:speed>0.363</gom:speed></extensions></trkpt>
   <trkpt lat="59.0628949899" lon="29.9653364927"><ele>95.704</ele><time>2026-04-25T10:31:40.000Z</time><hdop>3.0</hdop><vdop>3.0</vdop><extensions><gom:speed>0.212</gom:speed></extensions></trkpt>
   <trkpt lat="59.0628975883" lon="29.9653304577"><ele>95.634</ele><time>2026-04-25T10:31:41.000Z</time><hdop>3.0</hdop><vdop>3.0</vdop><extensions><gom:speed>0.099</gom:speed></extensions></trkpt>
   <trkpt lat="59.0628975883" lon="29.9653304577"><ele>95.592</ele><time>2026-04-25T10:31:42.000Z</time><hdop>3.0</hdop><vdop>3.0</vdop><extensions><gom:speed>0.0</gom:speed></extensions></trkpt>
   <trkpt lat="59.0628975883" lon="29.9653304577"><ele>95.567</ele><time>2026-04-25T10:31:43.000Z</time><hdop>3.0</hdop><vdop>3.0</vdop><extensions><gom:speed>0.0</gom:speed></extensions></trkpt>
   <trkpt lat="59.0628975883" lon="29.9653304577"><ele>95.552</ele><time>2026-04-25T10:31:44.000Z</time><hdop>3.0</hdop><vdop>3.0</vdop><extensions><gom:speed>0.0</gom:speed></extensions></trkpt>
   <trkpt lat="59.0628975883" lon="29.9653304577"><ele>95.544</ele><time>2026-04-25T10:31:45.000Z</time><hdop>3.0</hdop><vdop>3.0</vdop><extensions><gom:speed>0.0</gom:speed></extensions></trkpt>
   <trkpt lat="59.0628975883" lon="29.9653304577"><ele>95.538</ele><time>2026-04-25T10:31:46.000Z</time><hdop>3.0</hdop><vdop>3.0</vdop><extensions><gom:speed>0.0</gom:speed></extensions></trkpt>
   <trkpt lat="59.0629049225" lon="29.9653275241"><ele>95.555</ele><time>2026-04-25T10:31:47.000Z</time><hdop>3.0</hdop><vdop>3.0</vdop><extensions><gom:speed>0.358</gom:speed></extensions></trkpt>
   <trkpt lat="59.062914394" lon="29.9653250095"><ele>95.585</ele><time>2026-04-25T10:31:48.000Z</time><hdop>3.0</hdop><vdop>3.0</vdop><extensions><gom:speed>0.508</gom:speed></extensions></trkpt>
   <trkpt lat="59.0629202614" lon="29.9653248418"><ele>95.544</ele><time>2026-04-25T10:31:49.000Z</time><hdop>3.0</hdop><vdop>3.0</vdop><extensions><gom:speed>0.482</gom:speed></extensions></trkpt>
   <trkpt lat="59.0629283499" lon="29.9653235007"><ele>95.44</ele><time>2026-04-25T10:31:50.000Z</time><hdop>3.0</hdop><vdop>3.0</vdop><extensions><gom:speed>0.54</gom:speed></extensions></trkpt>
   <trkpt lat="59.0629398331" lon="29.9653224949"><ele>95.403</ele><time>2026-04-25T10:31:51.000Z</time><hdop>3.0</hdop><vdop>3.0</vdop><extensions><gom:speed>0.465</gom:speed></extensions></trkpt>
   <trkpt lat="59.0629451975" lon="29.9653199803"><ele>95.332</ele><time>2026-04-25T10:31:52.000Z</time><hdop>3.0</hdop><vdop>3.0</vdop><extensions><gom:speed>0.433</gom:speed></extensions></trkpt>
   <trkpt lat="59.0629451975" lon="29.9653199803"><ele>95.29</ele><time>2026-04-25T10:31:52.000Z</time><hdop>3.0</hdop><vdop>3.0</vdop><extensions><gom:speed>0.433</gom:speed></extensions></trkpt>
   <trkpt lat="59.0629527832" lon="29.9653152027"><ele>95.199</ele><time>2026-04-25T10:31:53.000Z</time><hdop>3.0</hdop><vdop>3.0</vdop><extensions><gom:speed>0.596</gom:speed></extensions></trkpt>
   <trkpt lat="59.0629621709" lon="29.9653105088"><ele>95.041</ele><time>2026-04-25T10:31:54.000Z</time><hdop>3.0</hdop><vdop>3.0</vdop><extensions><gom:speed>0.541</gom:speed></extensions></trkpt>
   <trkpt lat="59.062973235" lon="29.9653026298"><ele>94.998</ele><time>2026-04-25T10:31:55.000Z</time><hdop>3.0</hdop><vdop>3.0</vdop><extensions><gom:speed>0.57</gom:speed></extensions></trkpt>
   <trkpt lat="59.0629802758" lon="29.9652985227"><ele>94.912</ele><time>2026-04-25T10:31:56.000Z</time><hdop>3.0</hdop><vdop>3.0</vdop><extensions><gom:speed>0.586</gom:speed></extensions></trkpt>
   <trkpt lat="59.0629874842" lon="29.9652959243"><ele>94.779</ele><time>2026-04-25T10:31:57.000Z</time><hdop>3.0</hdop><vdop>3.0</vdop><extensions><gom:speed>0.515</gom:speed></extensions></trkpt>
   <trkpt lat="59.0629971234" lon="29.9652926553"><ele>94.787</ele><time>2026-04-25T10:31:58.000Z</time><hdop>3.0</hdop><vdop>3.0</vdop><extensions><gom:speed>0.438</gom:speed></extensions></trkpt>
   <trkpt lat="59.0629971234" lon="29.9652926553"><ele>94.791</ele><time>2026-04-25T10:31:59.000Z</time><hdop>3.0</hdop><vdop>3.0</vdop><extensions><gom:speed>0.0</gom:speed></extensions></trkpt>
   <trkpt lat="59.0629971234" lon="29.9652926553"><ele>94.794</ele><time>2026-04-25T10:32:00.000Z</time><hdop>3.0</hdop><vdop>3.0</vdop><extensions><gom:speed>0.0</gom:speed></extensions></trkpt>
   <trkpt lat="59.0629971234" lon="29.9652926553"><ele>94.796</ele><time>2026-04-25T10:32:01.000Z</time><hdop>3.0</hdop><vdop>3.0</vdop><extensions><gom:speed>0.0</gom:speed></extensions></trkpt>
   <trkpt lat="59.0629971234" lon="29.9652926553"><ele>94.796</ele><time>2026-04-25T10:32:02.000Z</time><hdop>3.0</hdop><vdop>3.0</vdop><extensions><gom:speed>0.0</gom:speed></extensions></trkpt>
   <trkpt lat="59.0630030327" lon="29.9652951699"><ele>94.811</ele><time>2026-04-25T10:32:03.000Z</time><hdop>3.0</hdop><vdop>3.0</vdop><extensions><gom:speed>0.293</gom:speed></extensions></trkpt>
   <trkpt lat="59.0630085647" lon="29.9652972654"><ele>94.775</ele><time>2026-04-25T10:32:04.000Z</time><hdop>3.0</hdop><vdop>3.0</vdop><extensions><gom:speed>0.314</gom:speed></extensions></trkpt>
   <trkpt lat="59.0630156055" lon="29.9652964272"><ele>94.692</ele><time>2026-04-25T10:32:05.000Z</time><hdop>3.0</hdop><vdop>3.0</vdop><extensions><gom:speed>0.39</gom:speed></extensions></trkpt>
   <trkpt lat="59.0630248256" lon="29.9652920686"><ele>94.605</ele><time>2026-04-25T10:32:06.000Z</time><hdop>3.0</hdop><vdop>3.0</vdop><extensions><gom:speed>0.446</gom:speed></extensions></trkpt>
   <trkpt lat="59.0630322855" lon="29.9652922362"><ele>94.508</ele><time>2026-04-25T10:32:07.000Z</time><hdop>3.0</hdop><vdop>3.0</vdop><extensions><gom:speed>0.433</gom:speed></extensions></trkpt>
   <trkpt lat="59.0630412961" lon="29.9652939126"><ele>94.417</ele><time>2026-04-25T10:32:08.000Z</time><hdop>3.0</hdop><vdop>3.0</vdop><extensions><gom:speed>0.448</gom:speed></extensions></trkpt>
   <trkpt lat="59.0630493846" lon="29.9652990256"><ele>94.411</ele><time>2026-04-25T10:32:09.000Z</time><hdop>3.0</hdop><vdop>3.0</vdop><extensions><gom:speed>0.407</gom:speed></extensions></trkpt>
   <trkpt lat="59.0630578922" lon="29.9653050606"><ele>94.547</ele><time>2026-04-25T10:32:10.000Z</time><hdop>3.0</hdop><vdop>3.0</vdop><extensions><gom:speed>0.454</gom:speed></extensions></trkpt>
   <trkpt lat="59.0630668189" lon="29.965313191"><ele>94.73</ele><time>2026-04-25T10:32:11.000Z</time><hdop>3.125</hdop><vdop>3.125</vdop><extensions><gom:speed>0.613</gom:speed></extensions></trkpt>
   <trkpt lat="59.0630758714" lon="29.9653203994"><ele>94.893</ele><time>2026-04-25T10:32:12.000Z</time><hdop>3.25</hdop><vdop>3.25</vdop><extensions><gom:speed>0.575</gom:speed></extensions></trkpt>
   <trkpt lat="59.0630758714" lon="29.9653203994"><ele>94.99</ele><time>2026-04-25T10:32:12.000Z</time><hdop>3.25</hdop><vdop>3.25</vdop><extensions><gom:speed>0.575</gom:speed></extensions></trkpt>
   <trkpt lat="59.0630874803" lon="29.9653260153"><ele>94.972</ele><time>2026-04-25T10:32:13.000Z</time><hdop>3.187</hdop><vdop>3.187</vdop><extensions><gom:speed>0.603</gom:speed></extensions></trkpt>
   <trkpt lat="59.0630979996" lon="29.9653259315"><ele>94.952</ele><time>2026-04-25T10:32:14.000Z</time><hdop>3.0</hdop><vdop>3.0</vdop><extensions><gom:speed>0.78</gom:speed></extensions></trkpt>
   <trkpt lat="59.0631088961" lon="29.9653250095"><ele>94.968</ele><time>2026-04-25T10:32:15.000Z</time><hdop>3.0</hdop><vdop>3.0</vdop><extensions><gom:speed>0.653</gom:speed></extensions></trkpt>
   <trkpt lat="59.0631196668" lon="29.9653199803"><ele>94.958</ele><time>2026-04-25T10:32:16.000Z</time><hdop>3.0</hdop><vdop>3.0</vdop><extensions><gom:speed>0.822</gom:speed></extensions></trkpt>
   <trkpt lat="59.0631340837" lon="29.965317801"><ele>94.965</ele><time>2026-04-25T10:32:17.000Z</time><hdop>3.0</hdop><vdop>3.0</vdop><extensions><gom:speed>1.04</gom:speed></extensions></trkpt>
   <trkpt lat="59.0631451059" lon="29.9653096706"><ele>94.996</ele><time>2026-04-25T10:32:18.000Z</time><hdop>3.0</hdop><vdop>3.0</vdop><extensions><gom:speed>0.88</gom:speed></extensions></trkpt>
   <trkpt lat="59.0631543679" lon="29.9653041385"><ele>94.991</ele><time>2026-04-25T10:32:19.000Z</time><hdop>3.0</hdop><vdop>3.0</vdop><extensions><gom:speed>0.692</gom:speed></extensions></trkpt>
   <trkpt lat="59.0631634623" lon="29.9653038033"><ele>95.011</ele><time>2026-04-25T10:32:20.000Z</time><hdop>3.0</hdop><vdop>3.0</vdop><extensions><gom:speed>0.706</gom:speed></extensions></trkpt>
   <trkpt lat="59.0631717185" lon="29.9653074075"><ele>95.062</ele><time>2026-04-25T10:32:21.000Z</time><hdop>3.0</hdop><vdop>3.0</vdop><extensions><gom:speed>0.55</gom:speed></extensions></trkpt>
   <trkpt lat="59.0631813996" lon="29.965305312"><ele>95.097</ele><time>2026-04-25T10:32:22.000Z</time><hdop>3.0</hdop><vdop>3.0</vdop><extensions><gom:speed>0.641</gom:speed></extensions></trkpt>
   <trkpt lat="59.0631915417" lon="29.965307156"><ele>95.193</ele><time>2026-04-25T10:32:23.000Z</time><hdop>3.062</hdop><vdop>3.062</vdop><extensions><gom:speed>0.547</gom:speed></extensions></trkpt>
   <trkpt lat="59.063199253" lon="29.965309503"><ele>95.291</ele><time>2026-04-25T10:32:24.000Z</time><hdop>3.0</hdop><vdop>3.0</vdop><extensions><gom:speed>0.542</gom:speed></extensions></trkpt>
   <trkpt lat="59.0632067548" lon="29.9653112632"><ele>95.326</ele><time>2026-04-25T10:32:25.000Z</time><hdop>3.0</hdop><vdop>3.0</vdop><extensions><gom:speed>0.635</gom:speed></extensions></trkpt>
   <trkpt lat="59.0632144243" lon="29.9653151188"><ele>95.364</ele><time>2026-04-25T10:32:26.000Z</time><hdop>3.0</hdop><vdop>3.0</vdop><extensions><gom:speed>0.582</gom:speed></extensions></trkpt>
   <trkpt lat="59.0632144243" lon="29.9653151188"><ele>95.387</ele><time>2026-04-25T10:32:27.000Z</time><hdop>3.0</hdop><vdop>3.0</vdop><extensions><gom:speed>0.0</gom:speed></extensions></trkpt>
   <trkpt lat="59.0632189924" lon="29.9653151188"><ele>95.371</ele><time>2026-04-25T10:32:28.000Z</time><hdop>3.0</hdop><vdop>3.0</vdop><extensions><gom:speed>0.231</gom:speed></extensions></trkpt>
   <trkpt lat="59.0632252788" lon="29.9653149512"><ele>95.33</ele><time>2026-04-25T10:32:29.000Z</time><hdop>3.0</hdop><vdop>3.0</vdop><extensions><gom:speed>0.419</gom:speed></extensions></trkpt>
   <trkpt lat="59.0632336188" lon="29.9653105926"><ele>95.25</ele><time>2026-04-25T10:32:30.000Z</time><hdop>3.0</hdop><vdop>3.0</vdop><extensions><gom:speed>0.535</gom:speed></extensions></trkpt>
   <trkpt lat="59.0632411206" lon="29.9653059826"><ele>95.15</ele><time>2026-04-25T10:32:31.000Z</time><hdop>3.0</hdop><vdop>3.0</vdop><extensions><gom:speed>0.53</gom:speed></extensions></trkpt>
   <trkpt lat="59.0632491673" lon="29.9653030489"><ele>95.054</ele><time>2026-04-25T10:32:32.000Z</time><hdop>3.0</hdop><vdop>3.0</vdop><extensions><gom:speed>0.452</gom:speed></extensions></trkpt>
   <trkpt lat="59.0632491673" lon="29.9653030489"><ele>94.997</ele><time>2026-04-25T10:32:32.000Z</time><hdop>3.0</hdop><vdop>3.0</vdop><extensions><gom:speed>0.452</gom:speed></extensions></trkpt>
   <trkpt lat="59.0632571301" lon="29.9653031327"><ele>94.881</ele><time>2026-04-25T10:32:33.000Z</time><hdop>3.0</hdop><vdop>3.0</vdop><extensions><gom:speed>0.225</gom:speed></extensions></trkpt>
   <trkpt lat="59.0632571301" lon="29.9653031327"><ele>94.811</ele><time>2026-04-25T10:32:34.000Z</time><hdop>3.0</hdop><vdop>3.0</vdop><extensions><gom:speed>0.0</gom:speed></extensions></trkpt>
   <trkpt lat="59.0632571301" lon="29.9653031327"><ele>94.77</ele><time>2026-04-25T10:32:35.000Z</time><hdop>3.0</hdop><vdop>3.0</vdop><extensions><gom:speed>0.0</gom:speed></extensions></trkpt>
   <trkpt lat="59.0632591836" lon="29.9653049767"><ele>94.786</ele><time>2026-04-25T10:32:36.000Z</time><hdop>3.0</hdop><vdop>3.0</vdop><extensions><gom:speed>0.104</gom:speed></extensions></trkpt>
   <trkpt lat="59.0632591836" lon="29.9653049767"><ele>94.796</ele><time>2026-04-25T10:32:37.000Z</time><hdop>3.0</hdop><vdop>3.0</vdop><extensions><gom:speed>0.0</gom:speed></extensions></trkpt>
   <trkpt lat="59.0632642547" lon="29.9653136101"><ele>94.81</ele><time>2026-04-25T10:32:38.000Z</time><hdop>3.0</hdop><vdop>3.0</vdop><extensions><gom:speed>0.365</gom:speed></extensions></trkpt>
   <trkpt lat="59.0632695353" lon="29.9653157894"><ele>94.816</ele><time>2026-04-25T10:32:39.000Z</time><hdop>3.0</hdop><vdop>3.0</vdop><extensions><gom:speed>0.419</gom:speed></extensions></trkpt>
   <trkpt lat="59.0632785877" lon="29.9653209024"><ele>94.893</ele><time>2026-04-25T10:32:40.000Z</time><hdop>3.0</hdop><vdop>3.0</vdop><extensions><gom:speed>0.528</gom:speed></extensions></trkpt>
   <trkpt lat="59.0632865505" lon="29.965324758"><ele>95.011</ele><time>2026-04-25T10:32:41.000Z</time><hdop>3.0</hdop><vdop>3.0</vdop><extensions><gom:speed>0.51</gom:speed></extensions></trkpt>
   <trkpt lat="59.0632963155" lon="29.9653255962"><ele>95.136</ele><time>2026-04-25T10:32:42.000Z</time><hdop>3.0</hdop><vdop>3.0</vdop><extensions><gom:speed>0.541</gom:speed></extensions></trkpt>
   <trkpt lat="59.0633049907" lon="29.9653285299"><ele>95.26</ele><time>2026-04-25T10:32:43.000Z</time><hdop>3.0</hdop><vdop>3.0</vdop><extensions><gom:speed>0.54</gom:speed></extensions></trkpt>
   <trkpt lat="59.0633131631" lon="29.9653342296"><ele>95.372</ele><time>2026-04-25T10:32:44.000Z</time><hdop>3.062</hdop><vdop>3.062</vdop><extensions><gom:speed>0.487</gom:speed></extensions></trkpt>
   <trkpt lat="59.0633199524" lon="29.9653419409"><ele>95.464</ele><time>2026-04-25T10:32:45.000Z</time><hdop>3.25</hdop><vdop>3.25</vdop><extensions><gom:speed>0.421</gom:speed></extensions></trkpt>
   <trkpt lat="59.0633287115" lon="29.9653498199"><ele>95.542</ele><time>2026-04-25T10:32:46.000Z</time><hdop>3.562</hdop><vdop>3.562</vdop><extensions><gom:speed>0.39</gom:speed></extensions></trkpt>
   <trkpt lat="59.0633397337" lon="29.9653478083"><ele>95.559</ele><time>2026-04-25T10:32:47.000Z</time><hdop>3.687</hdop><vdop>3.687</vdop><extensions><gom:speed>0.615</gom:speed></extensions></trkpt>
   <trkpt lat="59.0633509655" lon="29.965348395"><ele>95.545</ele><time>2026-04-25T10:32:48.000Z</time><hdop>3.5</hdop><vdop>3.5</vdop><extensions><gom:speed>0.693</gom:speed></extensions></trkpt>
   <trkpt lat="59.0633614428" lon="29.9653421924"><ele>95.501</ele><time>2026-04-25T10:32:49.000Z</time><hdop>3.187</hdop><vdop>3.187</vdop><extensions><gom:speed>0.723</gom:speed></extensions></trkpt>
   <trkpt lat="59.0633742672" lon="29.9653355707"><ele>95.403</ele><time>2026-04-25T10:32:50.000Z</time><hdop>3.0</hdop><vdop>3.0</vdop><extensions><gom:speed>0.899</gom:speed></extensions></trkpt>
   <trkpt lat="59.0633852055" lon="29.9653297872"><ele>95.314</ele><time>2026-04-25T10:32:51.000Z</time><hdop>3.0</hdop><vdop>3.0</vdop><extensions><gom:speed>0.77</gom:speed></extensions></trkpt>
   <trkpt lat="59.0633949285" lon="29.9653206509"><ele>95.216</ele><time>2026-04-25T10:32:52.000Z</time><hdop>3.0</hdop><vdop>3.0</vdop><extensions><gom:speed>0.644</gom:speed></extensions></trkpt>
   <trkpt lat="59.0633949285" lon="29.9653206509"><ele>95.158</ele><time>2026-04-25T10:32:52.000Z</time><hdop>3.0</hdop><vdop>3.0</vdop><extensions><gom:speed>0.644</gom:speed></extensions></trkpt>
   <trkpt lat="59.0634038972" lon="29.9653154541"><ele>95.142</ele><time>2026-04-25T10:32:53.000Z</time><hdop>3.0</hdop><vdop>3.0</vdop><extensions><gom:speed>0.576</gom:speed></extensions></trkpt>
   <trkpt lat="59.063412321" lon="29.9653123528"><ele>95.068</ele><time>2026-04-25T10:32:54.000Z</time><hdop>3.0</hdop><vdop>3.0</vdop><extensions><gom:speed>0.573</gom:speed></extensions></trkpt>
   <trkpt lat="59.0634233851" lon="29.965310425"><ele>94.999</ele><time>2026-04-25T10:32:55.000Z</time><hdop>3.0</hdop><vdop>3.0</vdop><extensions><gom:speed>0.389</gom:speed></extensions></trkpt>
   <trkpt lat="59.0634305097" lon="29.9653110117"><ele>94.944</ele><time>2026-04-25T10:32:56.000Z</time><hdop>3.0</hdop><vdop>3.0</vdop><extensions><gom:speed>0.59</gom:speed></extensions></trkpt>
   <trkpt lat="59.0634385144" lon="29.9653120175"><ele>94.904</ele><time>2026-04-25T10:32:57.000Z</time><hdop>3.0</hdop><vdop>3.0</vdop><extensions><gom:speed>0.627</gom:speed></extensions></trkpt>
   <trkpt lat="59.0634473154" lon="29.9653144483"><ele>94.903</ele><time>2026-04-25T10:32:58.000Z</time><hdop>3.0</hdop><vdop>3.0</vdop><extensions><gom:speed>0.511</gom:speed></extensions></trkpt>
   <trkpt lat="59.0634573737" lon="29.9653157056"><ele>94.952</ele><time>2026-04-25T10:32:59.000Z</time><hdop>3.0</hdop><vdop>3.0</vdop><extensions><gom:speed>0.563</gom:speed></extensions></trkpt>
   <trkpt lat="59.0634671386" lon="29.9653162923"><ele>94.989</ele><time>2026-04-25T10:33:00.000Z</time><hdop>3.0</hdop><vdop>3.0</vdop><extensions><gom:speed>0.255</gom:speed></extensions></trkpt>
   <trkpt lat="59.0634671386" lon="29.9653162923"><ele>95.01</ele><time>2026-04-25T10:33:01.000Z</time><hdop>3.0</hdop><vdop>3.0</vdop><extensions><gom:speed>0.0</gom:speed></extensions></trkpt>
   <trkpt lat="59.0634671386" lon="29.9653162923"><ele>95.023</ele><time>2026-04-25T10:33:02.000Z</time><hdop>3.0</hdop><vdop>3.0</vdop><extensions><gom:speed>0.0</gom:speed></extensions></trkpt>
   <trkpt lat="59.0634671386" lon="29.9653162923"><ele>95.031</ele><time>2026-04-25T10:33:03.000Z</time><hdop>3.0</hdop><vdop>3.0</vdop><extensions><gom:speed>0.0</gom:speed></extensions></trkpt>
   <trkpt lat="59.0634671386" lon="29.9653162923"><ele>95.036</ele><time>2026-04-25T10:33:04.000Z</time><hdop>3.0</hdop><vdop>3.0</vdop><extensions><gom:speed>0.0</gom:speed></extensions></trkpt>
   <trkpt lat="59.0634671386" lon="29.9653162923"><ele>95.038</ele><time>2026-04-25T10:33:05.000Z</time><hdop>3.0</hdop><vdop>3.0</vdop><extensions><gom:speed>0.0</gom:speed></extensions></trkpt>
   <trkpt lat="59.0634671386" lon="29.9653162923"><ele>95.04</ele><time>2026-04-25T10:33:06.000Z</time><hdop>3.0</hdop><vdop>3.0</vdop><extensions><gom:speed>0.0</gom:speed></extensions></trkpt>
   <trkpt lat="59.0634671386" lon="29.9653162923"><ele>95.041</ele><time>2026-04-25T10:33:07.000Z</time><hdop>3.0</hdop><vdop>3.0</vdop><extensions><gom:speed>0.0</gom:speed></extensions></trkpt>
   <trkpt lat="59.0634671386" lon="29.9653162923"><ele>95.042</ele><time>2026-04-25T10:33:08.000Z</time><hdop>3.0</hdop><vdop>3.0</vdop><extensions><gom:speed>0.0</gom:speed></extensions></trkpt>
   <trkpt lat="59.0634727545" lon="29.9653107602"><ele>95.043</ele><time>2026-04-25T10:33:09.000Z</time><hdop>3.0</hdop><vdop>3.0</vdop><extensions><gom:speed>0.163</gom:speed></extensions></trkpt>
   <trkpt lat="59.0634781608" lon="29.9653082457"><ele>94.819</ele><time>2026-04-25T10:33:10.000Z</time><hdop>1.187</hdop><vdop>1.187</vdop><extensions><gom:speed>0.373</gom:speed></extensions></trkpt>
   <trkpt lat="59.0634727545" lon="29.9653107602"><ele>94.91</ele><time>2026-04-25T10:33:11.000Z</time><hdop>3.0</hdop><vdop>3.0</vdop><extensions><gom:speed>0.0</gom:speed></extensions></trkpt>
   <trkpt lat="59.0634727545" lon="29.9653107602"><ele>94.964</ele><time>2026-04-25T10:33:12.000Z</time><hdop>3.0</hdop><vdop>3.0</vdop><extensions><gom:speed>0.0</gom:speed></extensions></trkpt>
   <trkpt lat="59.0634727545" lon="29.9653107602"><ele>94.997</ele><time>2026-04-25T10:33:12.000Z</time><hdop>3.0</hdop><vdop>3.0</vdop><extensions><gom:speed>0.0</gom:speed></extensions></trkpt>
   <trkpt lat="59.0634727545" lon="29.9653107602"><ele>95.016</ele><time>2026-04-25T10:33:13.000Z</time><hdop>3.0</hdop><vdop>3.0</vdop><extensions><gom:speed>0.0</gom:speed></extensions></trkpt>
   <trkpt lat="59.0634727545" lon="29.9653107602"><ele>95.028</ele><time>2026-04-25T10:33:14.000Z</time><hdop>3.0</hdop><vdop>3.0</vdop><extensions><gom:speed>0.0</gom:speed></extensions></trkpt>
   <trkpt lat="59.0634727545" lon="29.9653107602"><ele>95.035</ele><time>2026-04-25T10:33:15.000Z</time><hdop>3.0</hdop><vdop>3.0</vdop><extensions><gom:speed>0.0</gom:speed></extensions></trkpt>
   <trkpt lat="59.0634727545" lon="29.9653107602"><ele>95.039</ele><time>2026-04-25T10:33:16.000Z</time><hdop>3.0</hdop><vdop>3.0</vdop><extensions><gom:speed>0.0</gom:speed></extensions></trkpt>
   <trkpt lat="59.0634727545" lon="29.9653107602"><ele>95.041</ele><time>2026-04-25T10:33:17.000Z</time><hdop>3.0</hdop><vdop>3.0</vdop><extensions><gom:speed>0.0</gom:speed></extensions></trkpt>
   <trkpt lat="59.0634727545" lon="29.9653107602"><ele>95.043</ele><time>2026-04-25T10:33:18.000Z</time><hdop>3.0</hdop><vdop>3.0</vdop><extensions><gom:speed>0.0</gom:speed></extensions></trkpt>
   <trkpt lat="59.0634727545" lon="29.9653107602"><ele>95.043</ele><time>2026-04-25T10:33:19.000Z</time><hdop>3.0</hdop><vdop>3.0</vdop><extensions><gom:speed>0.0</gom:speed></extensions></trkpt>
   <trkpt lat="59.0634727545" lon="29.9653107602"><ele>95.044</ele><time>2026-04-25T10:33:20.000Z</time><hdop>3.0</hdop><vdop>3.0</vdop><extensions><gom:speed>0.0</gom:speed></extensions></trkpt>
   <trkpt lat="59.0634727545" lon="29.9653107602"><ele>95.044</ele><time>2026-04-25T10:33:21.000Z</time><hdop>3.0</hdop><vdop>3.0</vdop><extensions><gom:speed>0.0</gom:speed></extensions></trkpt>
   <trkpt lat="59.0634775322" lon="29.9653089162"><ele>95.169</ele><time>2026-04-25T10:33:22.000Z</time><hdop>3.0</hdop><vdop>3.0</vdop><extensions><gom:speed>0.153</gom:speed></extensions></trkpt>
   <trkpt lat="59.0634807173" lon="29.9653096706"><ele>95.277</ele><time>2026-04-25T10:33:23.000Z</time><hdop>3.0</hdop><vdop>3.0</vdop><extensions><gom:speed>0.217</gom:speed></extensions></trkpt>
   <trkpt lat="59.063487339" lon="29.9653090839"><ele>95.401</ele><time>2026-04-25T10:33:24.000Z</time><hdop>3.0</hdop><vdop>3.0</vdop><extensions><gom:speed>0.31</gom:speed></extensions></trkpt>
   <trkpt lat="59.063494296" lon="29.9653103412"><ele>95.549</ele><time>2026-04-25T10:33:25.000Z</time><hdop>3.0</hdop><vdop>3.0</vdop><extensions><gom:speed>0.38</gom:speed></extensions></trkpt>
   <trkpt lat="59.0635001214" lon="29.965311347"><ele>95.657</ele><time>2026-04-25T10:33:26.000Z</time><hdop>3.0</hdop><vdop>3.0</vdop><extensions><gom:speed>0.363</gom:speed></extensions></trkpt>
   <trkpt lat="59.0635087967" lon="29.965312269"><ele>95.786</ele><time>2026-04-25T10:33:27.000Z</time><hdop>3.0</hdop><vdop>3.0</vdop><extensions><gom:speed>0.341</gom:speed></extensions></trkpt>
   <trkpt lat="59.0635144126" lon="29.9653154541"><ele>95.944</ele><time>2026-04-25T10:33:28.000Z</time><hdop>3.0</hdop><vdop>3.0</vdop><extensions><gom:speed>0.374</gom:speed></extensions></trkpt>
   <trkpt lat="59.0635201123" lon="29.9653276917"><ele>96.085</ele><time>2026-04-25T10:33:29.000Z</time><hdop>3.0</hdop><vdop>3.0</vdop><extensions><gom:speed>0.503</gom:speed></extensions></trkpt>
   <trkpt lat="59.0635249738" lon="29.965331715"><ele>96.302</ele><time>2026-04-25T10:33:30.000Z</time><hdop>3.0</hdop><vdop>3.0</vdop><extensions><gom:speed>0.4</gom:speed></extensions></trkpt>
   <trkpt lat="59.0635305477" lon="29.9653390073"><ele>96.515</ele><time>2026-04-25T10:33:31.000Z</time><hdop>3.0</hdop><vdop>3.0</vdop><extensions><gom:speed>0.367</gom:speed></extensions></trkpt>
   <trkpt lat="59.0635367923" lon="29.9653468863"><ele>96.675</ele><time>2026-04-25T10:33:32.000Z</time><hdop>3.0</hdop><vdop>3.0</vdop><extensions><gom:speed>0.512</gom:speed></extensions></trkpt>
   <trkpt lat="59.0635367923" lon="29.9653468863"><ele>96.771</ele><time>2026-04-25T10:33:32.000Z</time><hdop>3.0</hdop><vdop>3.0</vdop><extensions><gom:speed>0.512</gom:speed></extensions></trkpt>
   <trkpt lat="59.0635423243" lon="29.9653556873"><ele>96.856</ele><time>2026-04-25T10:33:33.000Z</time><hdop>3.0</hdop><vdop>3.0</vdop><extensions><gom:speed>0.672</gom:speed></extensions></trkpt>
   <trkpt lat="59.0635483174" lon="29.9653671705"><ele>96.927</ele><time>2026-04-25T10:33:34.000Z</time><hdop>3.0</hdop><vdop>3.0</vdop><extensions><gom:speed>0.711</gom:speed></extensions></trkpt>
   <trkpt lat="59.0635538913" lon="29.9653802462"><ele>96.944</ele><time>2026-04-25T10:33:35.000Z</time><hdop>3.0</hdop><vdop>3.0</vdop><extensions><gom:speed>0.71</gom:speed></extensions></trkpt>
   <trkpt lat="59.0635585433" lon="29.9653967586"><ele>96.988</ele><time>2026-04-25T10:33:36.000Z</time><hdop>3.0</hdop><vdop>3.0</vdop><extensions><gom:speed>0.566</gom:speed></extensions></trkpt>
   <trkpt lat="59.0635629019" lon="29.9654099182"><ele>97.028</ele><time>2026-04-25T10:33:37.000Z</time><hdop>3.0</hdop><vdop>3.0</vdop><extensions><gom:speed>0.568</gom:speed></extensions></trkpt>
   <trkpt lat="59.0635690626" lon="29.9654147797"><ele>97.109</ele><time>2026-04-25T10:33:38.000Z</time><hdop>3.0</hdop><vdop>3.0</vdop><extensions><gom:speed>0.536</gom:speed></extensions></trkpt>
   <trkpt lat="59.0635755167" lon="29.9654198088"><ele>97.177</ele><time>2026-04-25T10:33:39.000Z</time><hdop>3.0</hdop><vdop>3.0</vdop><extensions><gom:speed>0.598</gom:speed></extensions></trkpt>
   <trkpt lat="59.0635838566" lon="29.9654226587"><ele>97.289</ele><time>2026-04-25T10:33:40.000Z</time><hdop>3.0</hdop><vdop>3.0</vdop><extensions><gom:speed>0.626</gom:speed></extensions></trkpt>
   <trkpt lat="59.0635909813" lon="29.9654236645"><ele>97.377</ele><time>2026-04-25T10:33:41.000Z</time><hdop>3.0</hdop><vdop>3.0</vdop><extensions><gom:speed>0.686</gom:speed></extensions></trkpt>
   <trkpt lat="59.0636000337" lon="29.9654205632"><ele>97.415</ele><time>2026-04-25T10:33:42.000Z</time><hdop>3.0</hdop><vdop>3.0</vdop><extensions><gom:speed>0.698</gom:speed></extensions></trkpt>
   <trkpt lat="59.0636093795" lon="29.9654135224"><ele>97.471</ele><time>2026-04-25T10:33:43.000Z</time><hdop>3.0</hdop><vdop>3.0</vdop><extensions><gom:speed>0.688</gom:speed></extensions></trkpt>
   <trkpt lat="59.0636178453" lon="29.9654073198"><ele>97.502</ele><time>2026-04-25T10:33:44.000Z</time><hdop>3.0</hdop><vdop>3.0</vdop><extensions><gom:speed>0.66</gom:speed></extensions></trkpt>
   <trkpt lat="59.0636286998" lon="29.9653981835"><ele>97.545</ele><time>2026-04-25T10:33:45.000Z</time><hdop>3.0</hdop><vdop>3.0</vdop><extensions><gom:speed>0.69</gom:speed></extensions></trkpt>
   <trkpt lat="59.0636357825" lon="29.9653960042"><ele>97.566</ele><time>2026-04-25T10:33:46.000Z</time><hdop>3.0</hdop><vdop>3.0</vdop><extensions><gom:speed>0.589</gom:speed></extensions></trkpt>
   <trkpt lat="59.0636447931" lon="29.9653937411"><ele>97.661</ele><time>2026-04-25T10:33:47.000Z</time><hdop>3.0</hdop><vdop>3.0</vdop><extensions><gom:speed>0.575</gom:speed></extensions></trkpt>
   <trkpt lat="59.0636530493" lon="29.9653906398"><ele>97.715</ele><time>2026-04-25T10:33:48.000Z</time><hdop>3.0</hdop><vdop>3.0</vdop><extensions><gom:speed>0.709</gom:speed></extensions></trkpt>
   <trkpt lat="59.0636609282" lon="29.9653897178"><ele>97.742</ele><time>2026-04-25T10:33:49.000Z</time><hdop>3.0</hdop><vdop>3.0</vdop><extensions><gom:speed>0.526</gom:speed></extensions></trkpt>
   <trkpt lat="59.0636722438" lon="29.9653861974"><ele>97.832</ele><time>2026-04-25T10:33:50.000Z</time><hdop>3.0</hdop><vdop>3.0</vdop><extensions><gom:speed>0.493</gom:speed></extensions></trkpt>
   <trkpt lat="59.0636804162" lon="29.9653849401"><ele>97.883</ele><time>2026-04-25T10:33:51.000Z</time><hdop>3.0</hdop><vdop>3.0</vdop><extensions><gom:speed>0.597</gom:speed></extensions></trkpt>
   <trkpt lat="59.0636892591" lon="29.9653819226"><ele>97.922</ele><time>2026-04-25T10:33:52.000Z</time><hdop>3.0</hdop><vdop>3.0</vdop><extensions><gom:speed>0.643</gom:speed></extensions></trkpt>
   <trkpt lat="59.0636892591" lon="29.9653819226"><ele>97.945</ele><time>2026-04-25T10:33:52.000Z</time><hdop>3.0</hdop><vdop>3.0</vdop><extensions><gom:speed>0.643</gom:speed></extensions></trkpt>
   <trkpt lat="59.0636978924" lon="29.9653754685"><ele>97.958</ele><time>2026-04-25T10:33:53.000Z</time><hdop>3.0</hdop><vdop>3.0</vdop><extensions><gom:speed>0.679</gom:speed></extensions></trkpt>
   <trkpt lat="59.0637059391" lon="29.9653656617"><ele>97.935</ele><time>2026-04-25T10:33:54.000Z</time><hdop>3.0</hdop><vdop>3.0</vdop><extensions><gom:speed>0.634</gom:speed></extensions></trkpt>
   <trkpt lat="59.0637140695" lon="29.9653524183"><ele>97.875</ele><time>2026-04-25T10:33:55.000Z</time><hdop>3.0</hdop><vdop>3.0</vdop><extensions><gom:speed>0.677</gom:speed></extensions></trkpt>
   <trkpt lat="59.0637253013" lon="29.9653394264"><ele>96.674</ele><time>2026-04-25T10:33:56.000Z</time><hdop>4.687</hdop><vdop>4.687</vdop><extensions><gom:speed>0.769</gom:speed></extensions></trkpt>
   <trkpt lat="59.0637318391" lon="29.9653236684"><ele>95.155</ele><time>2026-04-25T10:33:57.000Z</time><hdop>4.687</hdop><vdop>4.687</vdop><extensions><gom:speed>0.401</gom:speed></extensions></trkpt>
   <trkpt lat="59.0637411011" lon="29.9653074913"><ele>93.852</ele><time>2026-04-25T10:33:58.000Z</time><hdop>4.375</hdop><vdop>4.375</vdop><extensions><gom:speed>0.41</gom:speed></extensions></trkpt>
   <trkpt lat="59.0637463817" lon="29.9653006181"><ele>93.078</ele><time>2026-04-25T10:33:59.000Z</time><hdop>2.812</hdop><vdop>2.812</vdop><extensions><gom:speed>0.366</gom:speed></extensions></trkpt>
   <trkpt lat="59.0637512433" lon="29.9652835191"><ele>92.212</ele><time>2026-04-25T10:34:00.000Z</time><hdop>2.437</hdop><vdop>2.437</vdop><extensions><gom:speed>0.191</gom:speed></extensions></trkpt>
   <trkpt lat="59.0637516623" lon="29.9652882967"><ele>94.227</ele><time>2026-04-25T10:34:01.000Z</time><hdop>3.0</hdop><vdop>3.0</vdop><extensions><gom:speed>0.0</gom:speed></extensions></trkpt>
   <trkpt lat="59.0637515785" lon="29.9652956728"><ele>95.43</ele><time>2026-04-25T10:34:02.000Z</time><hdop>3.0</hdop><vdop>3.0</vdop><extensions><gom:speed>0.0</gom:speed></extensions></trkpt>
   <trkpt lat="59.0637512013" lon="29.9653021269"><ele>96.15</ele><time>2026-04-25T10:34:03.000Z</time><hdop>3.0</hdop><vdop>3.0</vdop><extensions><gom:speed>0.0</gom:speed></extensions></trkpt>
   <trkpt lat="59.0637507403" lon="29.9653053958"><ele>96.579</ele><time>2026-04-25T10:34:04.000Z</time><hdop>3.0</hdop><vdop>3.0</vdop><extensions><gom:speed>0.0</gom:speed></extensions></trkpt>
   <trkpt lat="59.0637497764" lon="29.9653058149"><ele>96.836</ele><time>2026-04-25T10:34:05.000Z</time><hdop>3.0</hdop><vdop>3.0</vdop><extensions><gom:speed>0.0</gom:speed></extensions></trkpt>
   <trkpt lat="59.0637497764" lon="29.9653058149"><ele>96.989</ele><time>2026-04-25T10:34:06.000Z</time><hdop>3.0</hdop><vdop>3.0</vdop><extensions><gom:speed>0.0</gom:speed></extensions></trkpt>
   <trkpt lat="59.0637497764" lon="29.9653058149"><ele>97.081</ele><time>2026-04-25T10:34:07.000Z</time><hdop>3.0</hdop><vdop>3.0</vdop><extensions><gom:speed>0.0</gom:speed></extensions></trkpt>
   <trkpt lat="59.0637535483" lon="29.9653058149"><ele>97.145</ele><time>2026-04-25T10:34:08.000Z</time><hdop>3.0</hdop><vdop>3.0</vdop><extensions><gom:speed>0.316</gom:speed></extensions></trkpt>
   <trkpt lat="59.0637569849" lon="29.9653130234"><ele>97.173</ele><time>2026-04-25T10:34:09.000Z</time><hdop>3.0</hdop><vdop>3.0</vdop><extensions><gom:speed>0.409</gom:speed></extensions></trkpt>
   <trkpt lat="59.0637608405" lon="29.9653200642"><ele>97.258</ele><time>2026-04-25T10:34:10.000Z</time><hdop>3.0</hdop><vdop>3.0</vdop><extensions><gom:speed>0.488</gom:speed></extensions></trkpt>
   <trkpt lat="59.0637662469" lon="29.9653273564"><ele>97.35</ele><time>2026-04-25T10:34:11.000Z</time><hdop>3.0</hdop><vdop>3.0</vdop><extensions><gom:speed>0.5</gom:speed></extensions></trkpt>
   <trkpt lat="59.0637726171" lon="29.9653329723"><ele>97.443</ele><time>2026-04-25T10:34:12.000Z</time><hdop>3.0</hdop><vdop>3.0</vdop><extensions><gom:speed>0.523</gom:speed></extensions></trkpt>
   <trkpt lat="59.0637726171" lon="29.9653329723"><ele>97.498</ele><time>2026-04-25T10:34:12.000Z</time><hdop>3.0</hdop><vdop>3.0</vdop><extensions><gom:speed>0.523</gom:speed></extensions></trkpt>
   <trkpt lat="59.0637795741" lon="29.9653422762"><ele>97.566</ele><time>2026-04-25T10:34:13.000Z</time><hdop>3.0</hdop><vdop>3.0</vdop><extensions><gom:speed>0.686</gom:speed></extensions></trkpt>
   <trkpt lat="59.0637874531" lon="29.9653468024"><ele>97.644</ele><time>2026-04-25T10:34:14.000Z</time><hdop>3.0</hdop><vdop>3.0</vdop><extensions><gom:speed>0.692</gom:speed></extensions></trkpt>
   <trkpt lat="59.0637955416" lon="29.9653460481"><ele>97.705</ele><time>2026-04-25T10:34:15.000Z</time><hdop>3.0</hdop><vdop>3.0</vdop><extensions><gom:speed>0.614</gom:speed></extensions></trkpt>
   <trkpt lat="59.063804175" lon="29.9653411027"><ele>97.72</ele><time>2026-04-25T10:34:16.000Z</time><hdop>3.0</hdop><vdop>3.0</vdop><extensions><gom:speed>0.517</gom:speed></extensions></trkpt>
   <trkpt lat="59.0638105033" lon="29.9653403484"><ele>97.702</ele><time>2026-04-25T10:34:17.000Z</time><hdop>3.0</hdop><vdop>3.0</vdop><extensions><gom:speed>0.393</gom:speed></extensions></trkpt>
   <trkpt lat="59.0638105033" lon="29.9653403484"><ele>97.691</ele><time>2026-04-25T10:34:18.000Z</time><hdop>3.0</hdop><vdop>3.0</vdop><extensions><gom:speed>0.0</gom:speed></extensions></trkpt>
   <trkpt lat="59.0638105033" lon="29.9653403484"><ele>97.685</ele><time>2026-04-25T10:34:19.000Z</time><hdop>3.0</hdop><vdop>3.0</vdop><extensions><gom:speed>0.0</gom:speed></extensions></trkpt>
   <trkpt lat="59.0638105033" lon="29.9653403484"><ele>97.681</ele><time>2026-04-25T10:34:20.000Z</time><hdop>3.0</hdop><vdop>3.0</vdop><extensions><gom:speed>0.0</gom:speed></extensions></trkpt>
   <trkpt lat="59.0638105033" lon="29.9653403484"><ele>97.678</ele><time>2026-04-25T10:34:21.000Z</time><hdop>3.0</hdop><vdop>3.0</vdop><extensions><gom:speed>0.0</gom:speed></extensions></trkpt>
   <trkpt lat="59.0638190528" lon="29.9653433659"><ele>97.636</ele><time>2026-04-25T10:34:22.000Z</time><hdop>3.187</hdop><vdop>3.187</vdop><extensions><gom:speed>0.322</gom:speed></extensions></trkpt>
   <trkpt lat="59.0638274348" lon="29.9653529212"><ele>97.574</ele><time>2026-04-25T10:34:23.000Z</time><hdop>3.187</hdop><vdop>3.187</vdop><extensions><gom:speed>0.499</gom:speed></extensions></trkpt>
   <trkpt lat="59.0638359005" lon="29.9653633148"><ele>97.551</ele><time>2026-04-25T10:34:24.000Z</time><hdop>3.125</hdop><vdop>3.125</vdop><extensions><gom:speed>0.52</gom:speed></extensions></trkpt>
   <trkpt lat="59.0638447015" lon="29.965372032"><ele>97.524</ele><time>2026-04-25T10:34:25.000Z</time><hdop>3.062</hdop><vdop>3.062</vdop><extensions><gom:speed>0.528</gom:speed></extensions></trkpt>
   <trkpt lat="59.0638540892" lon="29.9653777317"><ele>97.483</ele><time>2026-04-25T10:34:26.000Z</time><hdop>3.187</hdop><vdop>3.187</vdop><extensions><gom:speed>0.336</gom:speed></extensions></trkpt>
   <trkpt lat="59.063861591" lon="29.9653782346"><ele>97.436</ele><time>2026-04-25T10:34:27.000Z</time><hdop>3.5</hdop><vdop>3.5</vdop><extensions><gom:speed>0.14</gom:speed></extensions></trkpt>
   <trkpt lat="59.063861591" lon="29.9653782346"><ele>97.408</ele><time>2026-04-25T10:34:28.000Z</time><hdop>3.5</hdop><vdop>3.5</vdop><extensions><gom:speed>0.0</gom:speed></extensions></trkpt>
   <trkpt lat="59.063861591" lon="29.9653782346"><ele>97.392</ele><time>2026-04-25T10:34:29.000Z</time><hdop>3.5</hdop><vdop>3.5</vdop><extensions><gom:speed>0.0</gom:speed></extensions></trkpt>
   <trkpt lat="59.063861591" lon="29.9653782346"><ele>97.382</ele><time>2026-04-25T10:34:30.000Z</time><hdop>3.5</hdop><vdop>3.5</vdop><extensions><gom:speed>0.0</gom:speed></extensions></trkpt>
   <trkpt lat="59.063861591" lon="29.9653782346"><ele>97.376</ele><time>2026-04-25T10:34:31.000Z</time><hdop>3.5</hdop><vdop>3.5</vdop><extensions><gom:speed>0.0</gom:speed></extensions></trkpt>
   <trkpt lat="59.063861591" lon="29.9653782346"><ele>97.372</ele><time>2026-04-25T10:34:32.000Z</time><hdop>3.5</hdop><vdop>3.5</vdop><extensions><gom:speed>0.0</gom:speed></extensions></trkpt>
   <trkpt lat="59.063861591" lon="29.9653782346"><ele>97.37</ele><time>2026-04-25T10:34:32.000Z</time><hdop>3.5</hdop><vdop>3.5</vdop><extensions><gom:speed>0.0</gom:speed></extensions></trkpt>
   <trkpt lat="59.063861591" lon="29.9653782346"><ele>97.369</ele><time>2026-04-25T10:34:33.000Z</time><hdop>3.5</hdop><vdop>3.5</vdop><extensions><gom:speed>0.0</gom:speed></extensions></trkpt>
   <trkpt lat="59.063861591" lon="29.9653782346"><ele>97.368</ele><time>2026-04-25T10:34:34.000Z</time><hdop>3.5</hdop><vdop>3.5</vdop><extensions><gom:speed>0.0</gom:speed></extensions></trkpt>
   <trkpt lat="59.063861591" lon="29.9653782346"><ele>97.368</ele><time>2026-04-25T10:34:35.000Z</time><hdop>3.5</hdop><vdop>3.5</vdop><extensions><gom:speed>0.0</gom:speed></extensions></trkpt>
   <trkpt lat="59.063861591" lon="29.9653782346"><ele>97.367</ele><time>2026-04-25T10:34:36.000Z</time><hdop>3.5</hdop><vdop>3.5</vdop><extensions><gom:speed>0.0</gom:speed></extensions></trkpt>
   <trkpt lat="59.063861591" lon="29.9653782346"><ele>97.367</ele><time>2026-04-25T10:34:37.000Z</time><hdop>3.5</hdop><vdop>3.5</vdop><extensions><gom:speed>0.0</gom:speed></extensions></trkpt>
   <trkpt lat="59.063861591" lon="29.9653782346"><ele>97.367</ele><time>2026-04-25T10:34:38.000Z</time><hdop>3.5</hdop><vdop>3.5</vdop><extensions><gom:speed>0.0</gom:speed></extensions></trkpt>
   <trkpt lat="59.063861591" lon="29.9653782346"><ele>97.367</ele><time>2026-04-25T10:34:39.000Z</time><hdop>3.5</hdop><vdop>3.5</vdop><extensions><gom:speed>0.0</gom:speed></extensions></trkpt>
   <trkpt lat="59.063861591" lon="29.9653782346"><ele>97.367</ele><time>2026-04-25T10:34:40.000Z</time><hdop>3.5</hdop><vdop>3.5</vdop><extensions><gom:speed>0.0</gom:speed></extensions></trkpt>
   <trkpt lat="59.063861591" lon="29.9653782346"><ele>97.367</ele><time>2026-04-25T10:34:41.000Z</time><hdop>3.5</hdop><vdop>3.5</vdop><extensions><gom:speed>0.0</gom:speed></extensions></trkpt>
   <trkpt lat="59.063861591" lon="29.9653782346"><ele>97.367</ele><time>2026-04-25T10:34:42.000Z</time><hdop>3.5</hdop><vdop>3.5</vdop><extensions><gom:speed>0.0</gom:speed></extensions></trkpt>
   <trkpt lat="59.0638662849" lon="29.9653811682"><ele>97.425</ele><time>2026-04-25T10:34:43.000Z</time><hdop>3.437</hdop><vdop>3.437</vdop><extensions><gom:speed>0.305</gom:speed></extensions></trkpt>
   <trkpt lat="59.0638662849" lon="29.9653811682"><ele>97.46</ele><time>2026-04-25T10:34:44.000Z</time><hdop>3.437</hdop><vdop>3.437</vdop><extensions><gom:speed>0.0</gom:speed></extensions></trkpt>
   <trkpt lat="59.0638662849" lon="29.9653811682"><ele>97.48</ele><time>2026-04-25T10:34:45.000Z</time><hdop>3.437</hdop><vdop>3.437</vdop><extensions><gom:speed>0.0</gom:speed></extensions></trkpt>
   <trkpt lat="59.0638662849" lon="29.9653811682"><ele>97.493</ele><time>2026-04-25T10:34:46.000Z</time><hdop>3.437</hdop><vdop>3.437</vdop><extensions><gom:speed>0.0</gom:speed></extensions></trkpt>
   <trkpt lat="59.0638662849" lon="29.9653811682"><ele>97.5</ele><time>2026-04-25T10:34:47.000Z</time><hdop>3.437</hdop><vdop>3.437</vdop><extensions><gom:speed>0.0</gom:speed></extensions></trkpt>
   <trkpt lat="59.0638662849" lon="29.9653811682"><ele>97.504</ele><time>2026-04-25T10:34:48.000Z</time><hdop>3.437</hdop><vdop>3.437</vdop><extensions><gom:speed>0.0</gom:speed></extensions></trkpt>
   <trkpt lat="59.0638706435" lon="29.9653759715"><ele>97.466</ele><time>2026-04-25T10:34:49.000Z</time><hdop>3.375</hdop><vdop>3.375</vdop><extensions><gom:speed>0.118</gom:speed></extensions></trkpt>
   <trkpt lat="59.0638706435" lon="29.9653759715"><ele>97.443</ele><time>2026-04-25T10:34:50.000Z</time><hdop>3.375</hdop><vdop>3.375</vdop><extensions><gom:speed>0.0</gom:speed></extensions></trkpt>
   <trkpt lat="59.0638706435" lon="29.9653759715"><ele>97.429</ele><time>2026-04-25T10:34:51.000Z</time><hdop>3.375</hdop><vdop>3.375</vdop><extensions><gom:speed>0.0</gom:speed></extensions></trkpt>
   <trkpt lat="59.0638724456" lon="29.9653727025"><ele>97.454</ele><time>2026-04-25T10:34:52.000Z</time><hdop>3.625</hdop><vdop>3.625</vdop><extensions><gom:speed>0.316</gom:speed></extensions></trkpt>
   <trkpt lat="59.0638724456" lon="29.9653727025"><ele>97.469</ele><time>2026-04-25T10:34:52.000Z</time><hdop>3.625</hdop><vdop>3.625</vdop><extensions><gom:speed>0.316</gom:speed></extensions></trkpt>
   <trkpt lat="59.06387408" lon="29.9653693498"><ele>97.474</ele><time>2026-04-25T10:34:53.000Z</time><hdop>4.187</hdop><vdop>4.187</vdop><extensions><gom:speed>0.333</gom:speed></extensions></trkpt>
   <trkpt lat="59.063876427" lon="29.9653657455"><ele>97.385</ele><time>2026-04-25T10:34:54.000Z</time><hdop>4.812</hdop><vdop>4.812</vdop><extensions><gom:speed>0.281</gom:speed></extensions></trkpt>
   <trkpt lat="59.063876427" lon="29.9653657455"><ele>97.331</ele><time>2026-04-25T10:34:55.000Z</time><hdop>4.812</hdop><vdop>4.812</vdop><extensions><gom:speed>0.0</gom:speed></extensions></trkpt>
   <trkpt lat="59.063876427" lon="29.9653657455"><ele>97.3</ele><time>2026-04-25T10:34:56.000Z</time><hdop>4.812</hdop><vdop>4.812</vdop><extensions><gom:speed>0.0</gom:speed></extensions></trkpt>
   <trkpt lat="59.063876427" lon="29.9653657455"><ele>97.28</ele><time>2026-04-25T10:34:57.000Z</time><hdop>4.812</hdop><vdop>4.812</vdop><extensions><gom:speed>0.0</gom:speed></extensions></trkpt>
   <trkpt lat="59.063876427" lon="29.9653657455"><ele>97.269</ele><time>2026-04-25T10:34:58.000Z</time><hdop>4.812</hdop><vdop>4.812</vdop><extensions><gom:speed>0.0</gom:speed></extensions></trkpt>
   <trkpt lat="59.0638817495" lon="29.9653719481"><ele>97.302</ele><time>2026-04-25T10:34:59.000Z</time><hdop>4.75</hdop><vdop>4.75</vdop><extensions><gom:speed>0.249</gom:speed></extensions></trkpt>
   <trkpt lat="59.0638892513" lon="29.965380833"><ele>97.339</ele><time>2026-04-25T10:35:00.000Z</time><hdop>4.437</hdop><vdop>4.437</vdop><extensions><gom:speed>0.441</gom:speed></extensions></trkpt>
   <trkpt lat="59.0638965016" lon="29.9653929867"><ele>97.375</ele><time>2026-04-25T10:35:01.000Z</time><hdop>4.25</hdop><vdop>4.25</vdop><extensions><gom:speed>0.557</gom:speed></extensions></trkpt>
   <trkpt lat="59.0639035005" lon="29.9654052243"><ele>97.396</ele><time>2026-04-25T10:35:02.000Z</time><hdop>4.0</hdop><vdop>4.0</vdop><extensions><gom:speed>0.689</gom:speed></extensions></trkpt>
   <trkpt lat="59.0639099546" lon="29.9654188868"><ele>97.42</ele><time>2026-04-25T10:35:03.000Z</time><hdop>3.75</hdop><vdop>3.75</vdop><extensions><gom:speed>0.657</gom:speed></extensions></trkpt>
   <trkpt lat="59.0639176659" lon="29.9654312082"><ele>97.385</ele><time>2026-04-25T10:35:04.000Z</time><hdop>3.625</hdop><vdop>3.625</vdop><extensions><gom:speed>0.604</gom:speed></extensions></trkpt>
   <trkpt lat="59.0639239943" lon="29.9654457089"><ele>97.331</ele><time>2026-04-25T10:35:05.000Z</time><hdop>3.437</hdop><vdop>3.437</vdop><extensions><gom:speed>0.489</gom:speed></extensions></trkpt>
   <trkpt lat="59.0639317475" lon="29.9654569406"><ele>97.326</ele><time>2026-04-25T10:35:06.000Z</time><hdop>3.375</hdop><vdop>3.375</vdop><extensions><gom:speed>0.584</gom:speed></extensions></trkpt>
   <trkpt lat="59.0639368605" lon="29.965470184"><ele>97.348</ele><time>2026-04-25T10:35:07.000Z</time><hdop>3.312</hdop><vdop>3.312</vdop><extensions><gom:speed>0.48</gom:speed></extensions></trkpt>
   <trkpt lat="59.0639434822" lon="29.9654767219"><ele>97.388</ele><time>2026-04-25T10:35:08.000Z</time><hdop>3.187</hdop><vdop>3.187</vdop><extensions><gom:speed>0.427</gom:speed></extensions></trkpt>
   <trkpt lat="59.0639518222" lon="29.9654846847"><ele>97.447</ele><time>2026-04-25T10:35:09.000Z</time><hdop>3.312</hdop><vdop>3.312</vdop><extensions><gom:speed>0.34</gom:speed></extensions></trkpt>
   <trkpt lat="59.0639518222" lon="29.9654846847"><ele>97.483</ele><time>2026-04-25T10:35:10.000Z</time><hdop>3.312</hdop><vdop>3.312</vdop><extensions><gom:speed>0.0</gom:speed></extensions></trkpt>
   <trkpt lat="59.0639518222" lon="29.9654846847"><ele>97.504</ele><time>2026-04-25T10:35:11.000Z</time><hdop>3.312</hdop><vdop>3.312</vdop><extensions><gom:speed>0.0</gom:speed></extensions></trkpt>
   <trkpt lat="59.0639518222" lon="29.9654846847"><ele>97.516</ele><time>2026-04-25T10:35:12.000Z</time><hdop>3.312</hdop><vdop>3.312</vdop><extensions><gom:speed>0.0</gom:speed></extensions></trkpt>
   <trkpt lat="59.0639518222" lon="29.9654846847"><ele>97.524</ele><time>2026-04-25T10:35:12.000Z</time><hdop>3.312</hdop><vdop>3.312</vdop><extensions><gom:speed>0.0</gom:speed></extensions></trkpt>
   <trkpt lat="59.0639518222" lon="29.9654846847"><ele>97.528</ele><time>2026-04-25T10:35:13.000Z</time><hdop>3.312</hdop><vdop>3.312</vdop><extensions><gom:speed>0.0</gom:speed></extensions></trkpt>
   <trkpt lat="59.0639518222" lon="29.9654846847"><ele>97.531</ele><time>2026-04-25T10:35:14.000Z</time><hdop>3.312</hdop><vdop>3.312</vdop><extensions><gom:speed>0.0</gom:speed></extensions></trkpt>
   <trkpt lat="59.0639518222" lon="29.9654846847"><ele>97.533</ele><time>2026-04-25T10:35:15.000Z</time><hdop>3.312</hdop><vdop>3.312</vdop><extensions><gom:speed>0.0</gom:speed></extensions></trkpt>
   <trkpt lat="59.0639577314" lon="29.9654896301"><ele>97.573</ele><time>2026-04-25T10:35:16.000Z</time><hdop>3.5</hdop><vdop>3.5</vdop><extensions><gom:speed>0.204</gom:speed></extensions></trkpt>
   <trkpt lat="59.0639647722" lon="29.9654950783"><ele>97.627</ele><time>2026-04-25T10:35:17.000Z</time><hdop>3.937</hdop><vdop>3.937</vdop><extensions><gom:speed>0.253</gom:speed></extensions></trkpt>
   <trkpt lat="59.0639712682" lon="29.9654996045"><ele>97.692</ele><time>2026-04-25T10:35:18.000Z</time><hdop>3.937</hdop><vdop>3.937</vdop><extensions><gom:speed>0.305</gom:speed></extensions></trkpt>
   <trkpt lat="59.0639817037" lon="29.9655097466"><ele>97.769</ele><time>2026-04-25T10:35:19.000Z</time><hdop>3.812</hdop><vdop>3.812</vdop><extensions><gom:speed>0.355</gom:speed></extensions></trkpt>
   <trkpt lat="59.0639893312" lon="29.9655129318"><ele>97.814</ele><time>2026-04-25T10:35:20.000Z</time><hdop>3.75</hdop><vdop>3.75</vdop><extensions><gom:speed>0.531</gom:speed></extensions></trkpt>
   <trkpt lat="59.0639971683" lon="29.9655187153"><ele>97.777</ele><time>2026-04-25T10:35:21.000Z</time><hdop>3.812</hdop><vdop>3.812</vdop><extensions><gom:speed>0.61</gom:speed></extensions></trkpt>
   <trkpt lat="59.0640049635" lon="29.9655279354"><ele>97.747</ele><time>2026-04-25T10:35:22.000Z</time><hdop>3.562</hdop><vdop>3.562</vdop><extensions><gom:speed>0.477</gom:speed></extensions></trkpt>
   <trkpt lat="59.064010286" lon="29.9655410111"><ele>97.764</ele><time>2026-04-25T10:35:23.000Z</time><hdop>3.687</hdop><vdop>3.687</vdop><extensions><gom:speed>0.473</gom:speed></extensions></trkpt>
   <trkpt lat="59.0640160695" lon="29.9655522429"><ele>97.715</ele><time>2026-04-25T10:35:24.000Z</time><hdop>4.125</hdop><vdop>4.125</vdop><extensions><gom:speed>0.442</gom:speed></extensions></trkpt>
   <trkpt lat="59.064022314" lon="29.9655615468"><ele>97.67</ele><time>2026-04-25T10:35:25.000Z</time><hdop>4.25</hdop><vdop>4.25</vdop><extensions><gom:speed>0.371</gom:speed></extensions></trkpt>
   <trkpt lat="59.0640284747" lon="29.9655705992"><ele>97.67</ele><time>2026-04-25T10:35:26.000Z</time><hdop>4.062</hdop><vdop>4.062</vdop><extensions><gom:speed>0.44</gom:speed></extensions></trkpt>
   <trkpt lat="59.064031576" lon="29.9655845132"><ele>97.721</ele><time>2026-04-25T10:35:27.000Z</time><hdop>3.687</hdop><vdop>3.687</vdop><extensions><gom:speed>0.466</gom:speed></extensions></trkpt>
   <trkpt lat="59.0640363118" lon="29.9655951582"><ele>97.749</ele><time>2026-04-25T10:35:28.000Z</time><hdop>3.187</hdop><vdop>3.187</vdop><extensions><gom:speed>0.533</gom:speed></extensions></trkpt>
   <trkpt lat="59.0640406704" lon="29.9656076473"><ele>97.745</ele><time>2026-04-25T10:35:29.000Z</time><hdop>3.0</hdop><vdop>3.0</vdop><extensions><gom:speed>0.548</gom:speed></extensions></trkpt>
   <trkpt lat="59.0640451966" lon="29.9656208068"><ele>97.737</ele><time>2026-04-25T10:35:30.000Z</time><hdop>3.0</hdop><vdop>3.0</vdop><extensions><gom:speed>0.534</gom:speed></extensions></trkpt>
   <trkpt lat="59.0640509382" lon="29.965631368"><ele>97.697</ele><time>2026-04-25T10:35:31.000Z</time><hdop>3.0</hdop><vdop>3.0</vdop><extensions><gom:speed>0.445</gom:speed></extensions></trkpt>
   <trkpt lat="59.0640567636" lon="29.96564436"><ele>97.655</ele><time>2026-04-25T10:35:32.000Z</time><hdop>3.0</hdop><vdop>3.0</vdop><extensions><gom:speed>0.46</gom:speed></extensions></trkpt>
   <trkpt lat="59.0640567636" lon="29.96564436"><ele>97.63</ele><time>2026-04-25T10:35:32.000Z</time><hdop>3.0</hdop><vdop>3.0</vdop><extensions><gom:speed>0.46</gom:speed></extensions></trkpt>
   <trkpt lat="59.0640641816" lon="29.9656519037"><ele>97.581</ele><time>2026-04-25T10:35:33.000Z</time><hdop>3.0</hdop><vdop>3.0</vdop><extensions><gom:speed>0.625</gom:speed></extensions></trkpt>
   <trkpt lat="59.0640703004" lon="29.9656588607"><ele>97.539</ele><time>2026-04-25T10:35:34.000Z</time><hdop>3.0</hdop><vdop>3.0</vdop><extensions><gom:speed>0.516</gom:speed></extensions></trkpt>
   <trkpt lat="59.0640759163" lon="29.9656683322"><ele>97.547</ele><time>2026-04-25T10:35:35.000Z</time><hdop>3.0</hdop><vdop>3.0</vdop><extensions><gom:speed>0.695</gom:speed></extensions></trkpt>
   <trkpt lat="59.0640807778" lon="29.9656825815"><ele>97.593</ele><time>2026-04-25T10:35:36.000Z</time><hdop>3.0</hdop><vdop>3.0</vdop><extensions><gom:speed>0.938</gom:speed></extensions></trkpt>
   <trkpt lat="59.0640851783" lon="29.9656981718"><ele>97.645</ele><time>2026-04-25T10:35:37.000Z</time><hdop>3.0</hdop><vdop>3.0</vdop><extensions><gom:speed>0.766</gom:speed></extensions></trkpt>
   <trkpt lat="59.0640873995" lon="29.9657145165"><ele>97.689</ele><time>2026-04-25T10:35:38.000Z</time><hdop>3.0</hdop><vdop>3.0</vdop><extensions><gom:speed>0.487</gom:speed></extensions></trkpt>
   <trkpt lat="59.0640920933" lon="29.9657233175"><ele>97.684</ele><time>2026-04-25T10:35:39.000Z</time><hdop>3.0</hdop><vdop>3.0</vdop><extensions><gom:speed>0.438</gom:speed></extensions></trkpt>
   <trkpt lat="59.064096871" lon="29.9657322023"><ele>97.635</ele><time>2026-04-25T10:35:40.000Z</time><hdop>3.0</hdop><vdop>3.0</vdop><extensions><gom:speed>0.476</gom:speed></extensions></trkpt>
   <trkpt lat="59.0640998047" lon="29.9657450267"><ele>97.53</ele><time>2026-04-25T10:35:41.000Z</time><hdop>3.0</hdop><vdop>3.0</vdop><extensions><gom:speed>0.473</gom:speed></extensions></trkpt>
   <trkpt lat="59.0641013134" lon="29.965756929"><ele>97.428</ele><time>2026-04-25T10:35:42.000Z</time><hdop>3.0</hdop><vdop>3.0</vdop><extensions><gom:speed>0.373</gom:speed></extensions></trkpt>
   <trkpt lat="59.0641030317" lon="29.9657715973"><ele>97.403</ele><time>2026-04-25T10:35:43.000Z</time><hdop>3.0</hdop><vdop>3.0</vdop><extensions><gom:speed>0.117</gom:speed></extensions></trkpt>
   <trkpt lat="59.0641044147" lon="29.9657818232"><ele>97.365</ele><time>2026-04-25T10:35:44.000Z</time><hdop>3.0</hdop><vdop>3.0</vdop><extensions><gom:speed>0.228</gom:speed></extensions></trkpt>
   <trkpt lat="59.0641085219" lon="29.9657880258"><ele>97.329</ele><time>2026-04-25T10:35:45.000Z</time><hdop>3.0</hdop><vdop>3.0</vdop><extensions><gom:speed>0.389</gom:speed></extensions></trkpt>
   <trkpt lat="59.0641120004" lon="29.9657929711"><ele>97.296</ele><time>2026-04-25T10:35:46.000Z</time><hdop>3.0</hdop><vdop>3.0</vdop><extensions><gom:speed>0.341</gom:speed></extensions></trkpt>
   <trkpt lat="59.0641181192" lon="29.9657923006"><ele>97.273</ele><time>2026-04-25T10:35:47.000Z</time><hdop>3.0</hdop><vdop>3.0</vdop><extensions><gom:speed>0.522</gom:speed></extensions></trkpt>
   <trkpt lat="59.0641245313" lon="29.9657910433"><ele>97.209</ele><time>2026-04-25T10:35:48.000Z</time><hdop>3.0</hdop><vdop>3.0</vdop><extensions><gom:speed>0.666</gom:speed></extensions></trkpt>
   <trkpt lat="59.0641298957" lon="29.9657937255"><ele>97.168</ele><time>2026-04-25T10:35:49.000Z</time><hdop>3.0</hdop><vdop>3.0</vdop><extensions><gom:speed>0.477</gom:speed></extensions></trkpt>
   <trkpt lat="59.0641379004" lon="29.9657957372"><ele>97.134</ele><time>2026-04-25T10:35:50.000Z</time><hdop>3.0</hdop><vdop>3.0</vdop><extensions><gom:speed>0.524</gom:speed></extensions></trkpt>
   <trkpt lat="59.0641442707" lon="29.9658015207"><ele>97.128</ele><time>2026-04-25T10:35:51.000Z</time><hdop>3.0</hdop><vdop>3.0</vdop><extensions><gom:speed>0.525</gom:speed></extensions></trkpt>
   <trkpt lat="59.0641527364" lon="29.9658044543"><ele>97.105</ele><time>2026-04-25T10:35:52.000Z</time><hdop>3.0</hdop><vdop>3.0</vdop><extensions><gom:speed>0.408</gom:speed></extensions></trkpt>
   <trkpt lat="59.0641527364" lon="29.9658044543"><ele>97.092</ele><time>2026-04-25T10:35:52.000Z</time><hdop>3.0</hdop><vdop>3.0</vdop><extensions><gom:speed>0.408</gom:speed></extensions></trkpt>
   <trkpt lat="59.0641589809" lon="29.9658059631"><ele>97.017</ele><time>2026-04-25T10:35:53.000Z</time><hdop>3.0</hdop><vdop>3.0</vdop><extensions><gom:speed>0.336</gom:speed></extensions></trkpt>
   <trkpt lat="59.0641659379" lon="29.9658081424"><ele>96.913</ele><time>2026-04-25T10:35:54.000Z</time><hdop>3.0</hdop><vdop>3.0</vdop><extensions><gom:speed>0.512</gom:speed></extensions></trkpt>
   <trkpt lat="59.0641736493" lon="29.9658121657"><ele>96.805</ele><time>2026-04-25T10:35:55.000Z</time><hdop>3.0</hdop><vdop>3.0</vdop><extensions><gom:speed>0.66</gom:speed></extensions></trkpt>
   <trkpt lat="59.0641805643" lon="29.9658177816"><ele>96.732</ele><time>2026-04-25T10:35:56.000Z</time><hdop>3.0</hdop><vdop>3.0</vdop><extensions><gom:speed>0.422</gom:speed></extensions></trkpt>
   <trkpt lat="59.0641858449" lon="29.9658190389"><ele>96.689</ele><time>2026-04-25T10:35:57.000Z</time><hdop>3.0</hdop><vdop>3.0</vdop><extensions><gom:speed>0.365</gom:speed></extensions></trkpt>
   <trkpt lat="59.0641858449" lon="29.9658190389"><ele>96.663</ele><time>2026-04-25T10:35:58.000Z</time><hdop>3.0</hdop><vdop>3.0</vdop><extensions><gom:speed>0.0</gom:speed></extensions></trkpt>
   <trkpt lat="59.0641858449" lon="29.9658190389"><ele>96.648</ele><time>2026-04-25T10:35:59.000Z</time><hdop>3.0</hdop><vdop>3.0</vdop><extensions><gom:speed>0.0</gom:speed></extensions></trkpt>
   <trkpt lat="59.0641902035" lon="29.9658181168"><ele>96.609</ele><time>2026-04-25T10:36:00.000Z</time><hdop>3.0</hdop><vdop>3.0</vdop><extensions><gom:speed>0.227</gom:speed></extensions></trkpt>
   <trkpt lat="59.0641902035" lon="29.9658181168"><ele>96.586</ele><time>2026-04-25T10:36:01.000Z</time><hdop>3.0</hdop><vdop>3.0</vdop><extensions><gom:speed>0.0</gom:speed></extensions></trkpt>
   <trkpt lat="59.0641958613" lon="29.9658135068"><ele>96.528</ele><time>2026-04-25T10:36:02.000Z</time><hdop>3.0</hdop><vdop>3.0</vdop><extensions><gom:speed>0.211</gom:speed></extensions></trkpt>
   <trkpt lat="59.0642021896" lon="29.9658085615"><ele>96.45</ele><time>2026-04-25T10:36:03.000Z</time><hdop>3.0</hdop><vdop>3.0</vdop><extensions><gom:speed>0.27</gom:speed></extensions></trkpt>
   <trkpt lat="59.0642095657" lon="29.9658073042"><ele>96.382</ele><time>2026-04-25T10:36:04.000Z</time><hdop>3.0</hdop><vdop>3.0</vdop><extensions><gom:speed>0.316</gom:speed></extensions></trkpt>
   <trkpt lat="59.0642164389" lon="29.9658080586"><ele>96.312</ele><time>2026-04-25T10:36:05.000Z</time><hdop>3.0</hdop><vdop>3.0</vdop><extensions><gom:speed>0.285</gom:speed></extensions></trkpt>
   <trkpt lat="59.0642205041" lon="29.9658119142"><ele>96.249</ele><time>2026-04-25T10:36:06.000Z</time><hdop>3.0</hdop><vdop>3.0</vdop><extensions><gom:speed>0.174</gom:speed></extensions></trkpt>
   <trkpt lat="59.0642264553" lon="29.9658169434"><ele>96.217</ele><time>2026-04-25T10:36:07.000Z</time><hdop>3.0</hdop><vdop>3.0</vdop><extensions><gom:speed>0.25</gom:speed></extensions></trkpt>
   <trkpt lat="59.0642306462" lon="29.9658247386"><ele>96.135</ele><time>2026-04-25T10:36:08.000Z</time><hdop>3.0</hdop><vdop>3.0</vdop><extensions><gom:speed>0.224</gom:speed></extensions></trkpt>
   <trkpt lat="59.0642306462" lon="29.9658247386"><ele>96.087</ele><time>2026-04-25T10:36:09.000Z</time><hdop>3.0</hdop><vdop>3.0</vdop><extensions><gom:speed>0.0</gom:speed></extensions></trkpt>
   <trkpt lat="59.0642306462" lon="29.9658247386"><ele>96.058</ele><time>2026-04-25T10:36:10.000Z</time><hdop>3.0</hdop><vdop>3.0</vdop><extensions><gom:speed>0.0</gom:speed></extensions></trkpt>
   <trkpt lat="59.0642306462" lon="29.9658247386"><ele>96.04</ele><time>2026-04-25T10:36:11.000Z</time><hdop>3.0</hdop><vdop>3.0</vdop><extensions><gom:speed>0.0</gom:speed></extensions></trkpt>
   <trkpt lat="59.0642348791" lon="29.9658221402"><ele>96.06</ele><time>2026-04-25T10:36:12.000Z</time><hdop>3.0</hdop><vdop>3.0</vdop><extensions><gom:speed>0.106</gom:speed></extensions></trkpt>
   <trkpt lat="59.0642348791" lon="29.9658221402"><ele>96.072</ele><time>2026-04-25T10:36:12.000Z</time><hdop>3.0</hdop><vdop>3.0</vdop><extensions><gom:speed>0.106</gom:speed></extensions></trkpt>
   <trkpt lat="59.0642414589" lon="29.9658250738"><ele>96.086</ele><time>2026-04-25T10:36:13.000Z</time><hdop>3.0</hdop><vdop>3.0</vdop><extensions><gom:speed>0.268</gom:speed></extensions></trkpt>
   <trkpt lat="59.0642505532" lon="29.9658235651"><ele>96.168</ele><time>2026-04-25T10:36:14.000Z</time><hdop>3.0</hdop><vdop>3.0</vdop><extensions><gom:speed>0.406</gom:speed></extensions></trkpt>
   <trkpt lat="59.0642597733" lon="29.9658289295"><ele>96.222</ele><time>2026-04-25T10:36:15.000Z</time><hdop>3.0</hdop><vdop>3.0</vdop><extensions><gom:speed>0.525</gom:speed></extensions></trkpt>
   <trkpt lat="59.0642671913" lon="29.9658332043"><ele>96.194</ele><time>2026-04-25T10:36:16.000Z</time><hdop>3.0</hdop><vdop>3.0</vdop><extensions><gom:speed>0.253</gom:speed></extensions></trkpt>
   <trkpt lat="59.0642762857" lon="29.9658342101"><ele>96.094</ele><time>2026-04-25T10:36:17.000Z</time><hdop>3.0</hdop><vdop>3.0</vdop><extensions><gom:speed>0.526</gom:speed></extensions></trkpt>
   <trkpt lat="59.0642837875" lon="29.965838904"><ele>95.994</ele><time>2026-04-25T10:36:18.000Z</time><hdop>3.0</hdop><vdop>3.0</vdop><extensions><gom:speed>0.414</gom:speed></extensions></trkpt>
   <trkpt lat="59.0642916246" lon="29.9658367247"><ele>95.887</ele><time>2026-04-25T10:36:19.000Z</time><hdop>3.0</hdop><vdop>3.0</vdop><extensions><gom:speed>0.483</gom:speed></extensions></trkpt>
   <trkpt lat="59.0642997131" lon="29.9658349645"><ele>95.776</ele><time>2026-04-25T10:36:20.000Z</time><hdop>3.0</hdop><vdop>3.0</vdop><extensions><gom:speed>0.556</gom:speed></extensions></trkpt>
   <trkpt lat="59.0643079274" lon="29.9658346292"><ele>95.63</ele><time>2026-04-25T10:36:21.000Z</time><hdop>3.0</hdop><vdop>3.0</vdop><extensions><gom:speed>0.622</gom:speed></extensions></trkpt>
   <trkpt lat="59.064317818" lon="29.9658320308"><ele>95.456</ele><time>2026-04-25T10:36:22.000Z</time><hdop>3.062</hdop><vdop>3.062</vdop><extensions><gom:speed>0.518</gom:speed></extensions></trkpt>
   <trkpt lat="59.0643241882" lon="29.9658290133"><ele>95.272</ele><time>2026-04-25T10:36:23.000Z</time><hdop>3.0</hdop><vdop>3.0</vdop><extensions><gom:speed>0.246</gom:speed></extensions></trkpt>
   <trkpt lat="59.0643241882" lon="29.9658290133"><ele>95.162</ele><time>2026-04-25T10:36:24.000Z</time><hdop>3.0</hdop><vdop>3.0</vdop><extensions><gom:speed>0.0</gom:speed></extensions></trkpt>
   <trkpt lat="59.0643241882" lon="29.9658290133"><ele>95.096</ele><time>2026-04-25T10:36:25.000Z</time><hdop>3.0</hdop><vdop>3.0</vdop><extensions><gom:speed>0.0</gom:speed></extensions></trkpt>
   <trkpt lat="59.0643241882" lon="29.9658290133"><ele>95.057</ele><time>2026-04-25T10:36:26.000Z</time><hdop>3.0</hdop><vdop>3.0</vdop><extensions><gom:speed>0.0</gom:speed></extensions></trkpt>
   <trkpt lat="59.0643241882" lon="29.9658290133"><ele>95.033</ele><time>2026-04-25T10:36:27.000Z</time><hdop>3.0</hdop><vdop>3.0</vdop><extensions><gom:speed>0.0</gom:speed></extensions></trkpt>
   <trkpt lat="59.0643277925" lon="29.9658327014"><ele>95.07</ele><time>2026-04-25T10:36:28.000Z</time><hdop>3.0</hdop><vdop>3.0</vdop><extensions><gom:speed>0.247</gom:speed></extensions></trkpt>
   <trkpt lat="59.0643277925" lon="29.9658327014"><ele>95.092</ele><time>2026-04-25T10:36:29.000Z</time><hdop>3.0</hdop><vdop>3.0</vdop><extensions><gom:speed>0.0</gom:speed></extensions></trkpt>
   <trkpt lat="59.0643277925" lon="29.9658327014"><ele>95.105</ele><time>2026-04-25T10:36:30.000Z</time><hdop>3.0</hdop><vdop>3.0</vdop><extensions><gom:speed>0.0</gom:speed></extensions></trkpt>
   <trkpt lat="59.0643310614" lon="29.9658322823"><ele>95.117</ele><time>2026-04-25T10:36:31.000Z</time><hdop>3.0</hdop><vdop>3.0</vdop><extensions><gom:speed>0.2</gom:speed></extensions></trkpt>
   <trkpt lat="59.064335881" lon="29.9658272531"><ele>95.129</ele><time>2026-04-25T10:36:32.000Z</time><hdop>3.0</hdop><vdop>3.0</vdop><extensions><gom:speed>0.314</gom:speed></extensions></trkpt>
   <trkpt lat="59.064335881" lon="29.9658272531"><ele>95.137</ele><time>2026-04-25T10:36:32.000Z</time><hdop>3.0</hdop><vdop>3.0</vdop><extensions><gom:speed>0.314</gom:speed></extensions></trkpt>
   <trkpt lat="59.0643410778" lon="29.9658168596"><ele>95.123</ele><time>2026-04-25T10:36:33.000Z</time><hdop>3.0</hdop><vdop>3.0</vdop><extensions><gom:speed>0.39</gom:speed></extensions></trkpt>
   <trkpt lat="59.0643458555" lon="29.965805544"><ele>95.092</ele><time>2026-04-25T10:36:34.000Z</time><hdop>3.0</hdop><vdop>3.0</vdop><extensions><gom:speed>0.384</gom:speed></extensions></trkpt>
   <trkpt lat="59.0643487891" lon="29.9657921329"><ele>95.003</ele><time>2026-04-25T10:36:35.000Z</time><hdop>3.0</hdop><vdop>3.0</vdop><extensions><gom:speed>0.434</gom:speed></extensions></trkpt>
   <trkpt lat="59.064354866" lon="29.9657776323"><ele>94.923</ele><time>2026-04-25T10:36:36.000Z</time><hdop>3.0</hdop><vdop>3.0</vdop><extensions><gom:speed>0.478</gom:speed></extensions></trkpt>
   <trkpt lat="59.0643583026" lon="29.9657670711"><ele>94.82</ele><time>2026-04-25T10:36:37.000Z</time><hdop>3.0</hdop><vdop>3.0</vdop><extensions><gom:speed>0.376</gom:speed></extensions></trkpt>
   <trkpt lat="59.0643621583" lon="29.9657596112"><ele>94.712</ele><time>2026-04-25T10:36:38.000Z</time><hdop>3.0</hdop><vdop>3.0</vdop><extensions><gom:speed>0.251</gom:speed></extensions></trkpt>
   <trkpt lat="59.0643656787" lon="29.9657565099"><ele>94.58</ele><time>2026-04-25T10:36:39.000Z</time><hdop>3.0</hdop><vdop>3.0</vdop><extensions><gom:speed>0.173</gom:speed></extensions></trkpt>
   <trkpt lat="59.064370163" lon="29.9657524027"><ele>94.49</ele><time>2026-04-25T10:36:40.000Z</time><hdop>3.0</hdop><vdop>3.0</vdop><extensions><gom:speed>0.152</gom:speed></extensions></trkpt>
   <trkpt lat="59.0643765332" lon="29.9657489661"><ele>94.402</ele><time>2026-04-25T10:36:41.000Z</time><hdop>3.187</hdop><vdop>3.187</vdop><extensions><gom:speed>0.293</gom:speed></extensions></trkpt>
   <trkpt lat="59.0643834483" lon="29.9657477927"><ele>94.334</ele><time>2026-04-25T10:36:42.000Z</time><hdop>3.5</hdop><vdop>3.5</vdop><extensions><gom:speed>0.268</gom:speed></extensions></trkpt>
   <trkpt lat="59.0643915368" lon="29.9657512293"><ele>94.177</ele><time>2026-04-25T10:36:43.000Z</time><hdop>3.625</hdop><vdop>3.625</vdop><extensions><gom:speed>0.35</gom:speed></extensions></trkpt>
   <trkpt lat="59.0643981585" lon="29.9657550849"><ele>94.086</ele><time>2026-04-25T10:36:44.000Z</time><hdop>4.062</hdop><vdop>4.062</vdop><extensions><gom:speed>0.353</gom:speed></extensions></trkpt>
   <trkpt lat="59.0643981585" lon="29.9657550849"><ele>94.032</ele><time>2026-04-25T10:36:45.000Z</time><hdop>4.062</hdop><vdop>4.062</vdop><extensions><gom:speed>0.0</gom:speed></extensions></trkpt>
   <trkpt lat="59.0643981585" lon="29.9657550849"><ele>93.999</ele><time>2026-04-25T10:36:46.000Z</time><hdop>4.062</hdop><vdop>4.062</vdop><extensions><gom:speed>0.0</gom:speed></extensions></trkpt>
   <trkpt lat="59.0643981585" lon="29.9657550849"><ele>93.98</ele><time>2026-04-25T10:36:47.000Z</time><hdop>4.062</hdop><vdop>4.062</vdop><extensions><gom:speed>0.0</gom:speed></extensions></trkpt>
   <trkpt lat="59.064403523" lon="29.9657581024"><ele>94.012</ele><time>2026-04-25T10:36:48.000Z</time><hdop>4.125</hdop><vdop>4.125</vdop><extensions><gom:speed>0.239</gom:speed></extensions></trkpt>
   <trkpt lat="59.0644124916" lon="29.9657639698"><ele>94.07</ele><time>2026-04-25T10:36:49.000Z</time><hdop>3.812</hdop><vdop>3.812</vdop><extensions><gom:speed>0.383</gom:speed></extensions></trkpt>
   <trkpt lat="59.0644213764" lon="29.9657700885"><ele>94.208</ele><time>2026-04-25T10:36:50.000Z</time><hdop>3.625</hdop><vdop>3.625</vdop><extensions><gom:speed>0.433</gom:speed></extensions></trkpt>
   <trkpt lat="59.0644281238" lon="29.9657803145"><ele>94.334</ele><time>2026-04-25T10:36:51.000Z</time><hdop>3.375</hdop><vdop>3.375</vdop><extensions><gom:speed>0.463</gom:speed></extensions></trkpt>
   <trkpt lat="59.0644362962" lon="29.9657862656"><ele>94.534</ele><time>2026-04-25T10:36:52.000Z</time><hdop>3.0</hdop><vdop>3.0</vdop><extensions><gom:speed>0.372</gom:speed></extensions></trkpt>
   <trkpt lat="59.0644362962" lon="29.9657862656"><ele>94.654</ele><time>2026-04-25T10:36:52.000Z</time><hdop>3.0</hdop><vdop>3.0</vdop><extensions><gom:speed>0.372</gom:speed></extensions></trkpt>
   <trkpt lat="59.06444472" lon="29.9657978326"><ele>94.781</ele><time>2026-04-25T10:36:53.000Z</time><hdop>3.0</hdop><vdop>3.0</vdop><extensions><gom:speed>0.568</gom:speed></extensions></trkpt>
   <trkpt lat="59.0644497911" lon="29.9658087291"><ele>94.9</ele><time>2026-04-25T10:36:54.000Z</time><hdop>3.0</hdop><vdop>3.0</vdop><extensions><gom:speed>0.483</gom:speed></extensions></trkpt>
   <trkpt lat="59.0644560775" lon="29.9658191227"><ele>94.982</ele><time>2026-04-25T10:36:55.000Z</time><hdop>3.0</hdop><vdop>3.0</vdop><extensions><gom:speed>0.501</gom:speed></extensions></trkpt>
   <trkpt lat="59.0644619448" lon="29.9658281751"><ele>95.04</ele><time>2026-04-25T10:36:56.000Z</time><hdop>3.062</hdop><vdop>3.062</vdop><extensions><gom:speed>0.412</gom:speed></extensions></trkpt>
   <trkpt lat="59.0644697819" lon="29.9658333719"><ele>95.097</ele><time>2026-04-25T10:36:57.000Z</time><hdop>3.187</hdop><vdop>3.187</vdop><extensions><gom:speed>0.447</gom:speed></extensions></trkpt>
   <trkpt lat="59.0644795887" lon="29.965835635"><ele>95.179</ele><time>2026-04-25T10:36:58.000Z</time><hdop>3.25</hdop><vdop>3.25</vdop><extensions><gom:speed>0.702</gom:speed></extensions></trkpt>
   <trkpt lat="59.0644870486" lon="29.9658377305"><ele>95.304</ele><time>2026-04-25T10:36:59.000Z</time><hdop>3.125</hdop><vdop>3.125</vdop><extensions><gom:speed>0.552</gom:speed></extensions></trkpt>
   <trkpt lat="59.0644948857" lon="29.9658435978"><ele>95.409</ele><time>2026-04-25T10:37:00.000Z</time><hdop>3.0</hdop><vdop>3.0</vdop><extensions><gom:speed>0.591</gom:speed></extensions></trkpt>
   <trkpt lat="59.0645027647" lon="29.9658484593"><ele>95.496</ele><time>2026-04-25T10:37:01.000Z</time><hdop>3.5</hdop><vdop>3.5</vdop><extensions><gom:speed>0.673</gom:speed></extensions></trkpt>
   <trkpt lat="59.0645094702" lon="29.9658527341"><ele>95.63</ele><time>2026-04-25T10:37:02.000Z</time><hdop>3.5</hdop><vdop>3.5</vdop><extensions><gom:speed>0.554</gom:speed></extensions></trkpt>
   <trkpt lat="59.0645177683" lon="29.9658587691"><ele>95.715</ele><time>2026-04-25T10:37:03.000Z</time><hdop>3.625</hdop><vdop>3.625</vdop><extensions><gom:speed>0.581</gom:speed></extensions></trkpt>
   <trkpt lat="59.064524851" lon="29.9658632115"><ele>95.735</ele><time>2026-04-25T10:37:04.000Z</time><hdop>4.062</hdop><vdop>4.062</vdop><extensions><gom:speed>0.443</gom:speed></extensions></trkpt>
   <trkpt lat="59.0645311793" lon="29.965865307"><ele>95.75</ele><time>2026-04-25T10:37:05.000Z</time><hdop>4.187</hdop><vdop>4.187</vdop><extensions><gom:speed>0.476</gom:speed></extensions></trkpt>
   <trkpt lat="59.0645388907" lon="29.9658626248"><ele>95.765</ele><time>2026-04-25T10:37:06.000Z</time><hdop>4.125</hdop><vdop>4.125</vdop><extensions><gom:speed>0.514</gom:speed></extensions></trkpt>
   <trkpt lat="59.0645492843" lon="29.9658613675"><ele>95.694</ele><time>2026-04-25T10:37:07.000Z</time><hdop>4.375</hdop><vdop>4.375</vdop><extensions><gom:speed>0.616</gom:speed></extensions></trkpt>
   <trkpt lat="59.0645582529" lon="29.9658599425"><ele>95.635</ele><time>2026-04-25T10:37:08.000Z</time><hdop>4.25</hdop><vdop>4.25</vdop><extensions><gom:speed>0.539</gom:speed></extensions></trkpt>
   <trkpt lat="59.0645696942" lon="29.9658546619"><ele>95.607</ele><time>2026-04-25T10:37:09.000Z</time><hdop>4.062</hdop><vdop>4.062</vdop><extensions><gom:speed>0.629</gom:speed></extensions></trkpt>
   <trkpt lat="59.0645805068" lon="29.9658399936"><ele>95.586</ele><time>2026-04-25T10:37:10.000Z</time><hdop>3.75</hdop><vdop>3.75</vdop><extensions><gom:speed>0.778</gom:speed></extensions></trkpt>
   <trkpt lat="59.0645916548" lon="29.9658312764"><ele>95.512</ele><time>2026-04-25T10:37:11.000Z</time><hdop>3.375</hdop><vdop>3.375</vdop><extensions><gom:speed>0.796</gom:speed></extensions></trkpt>
   <trkpt lat="59.0645991147" lon="29.965826834"><ele>95.425</ele><time>2026-04-25T10:37:12.000Z</time><hdop>3.187</hdop><vdop>3.187</vdop><extensions><gom:speed>0.474</gom:speed></extensions></trkpt>
   <trkpt lat="59.0645991147" lon="29.965826834"><ele>95.373</ele><time>2026-04-25T10:37:12.000Z</time><hdop>3.187</hdop><vdop>3.187</vdop><extensions><gom:speed>0.474</gom:speed></extensions></trkpt>
   <trkpt lat="59.0646074128" lon="29.9658278399"><ele>95.308</ele><time>2026-04-25T10:37:13.000Z</time><hdop>3.062</hdop><vdop>3.062</vdop><extensions><gom:speed>0.49</gom:speed></extensions></trkpt>
   <trkpt lat="59.0646168843" lon="29.965833791"><ele>95.582</ele><time>2026-04-25T10:37:14.000Z</time><hdop>3.0</hdop><vdop>3.0</vdop><extensions><gom:speed>0.522</gom:speed></extensions></trkpt>
   <trkpt lat="59.0646236317" lon="29.9658360541"><ele>95.676</ele><time>2026-04-25T10:37:15.000Z</time><hdop>3.0</hdop><vdop>3.0</vdop><extensions><gom:speed>0.55</gom:speed></extensions></trkpt>
   <trkpt lat="59.0646287866" lon="29.9658417538"><ele>95.735</ele><time>2026-04-25T10:37:16.000Z</time><hdop>3.0</hdop><vdop>3.0</vdop><extensions><gom:speed>0.443</gom:speed></extensions></trkpt>
   <trkpt lat="59.0646335224" lon="29.9658456933"><ele>95.756</ele><time>2026-04-25T10:37:17.000Z</time><hdop>3.0</hdop><vdop>3.0</vdop><extensions><gom:speed>0.463</gom:speed></extensions></trkpt>
   <trkpt lat="59.0646373781" lon="29.9658485432"><ele>95.764</ele><time>2026-04-25T10:37:18.000Z</time><hdop>3.0</hdop><vdop>3.0</vdop><extensions><gom:speed>0.396</gom:speed></extensions></trkpt>
   <trkpt lat="59.0646421977" lon="29.9658503872"><ele>95.76</ele><time>2026-04-25T10:37:19.000Z</time><hdop>3.0</hdop><vdop>3.0</vdop><extensions><gom:speed>0.35</gom:speed></extensions></trkpt>
   <trkpt lat="59.0646478973" lon="29.9658482917"><ele>95.689</ele><time>2026-04-25T10:37:20.000Z</time><hdop>3.0</hdop><vdop>3.0</vdop><extensions><gom:speed>0.33</gom:speed></extensions></trkpt>
   <trkpt lat="59.0646559021" lon="29.9658461962"><ele>95.554</ele><time>2026-04-25T10:37:21.000Z</time><hdop>3.0</hdop><vdop>3.0</vdop><extensions><gom:speed>0.366</gom:speed></extensions></trkpt>
   <trkpt lat="59.064662398" lon="29.9658415024"><ele>95.447</ele><time>2026-04-25T10:37:22.000Z</time><hdop>3.0</hdop><vdop>3.0</vdop><extensions><gom:speed>0.352</gom:speed></extensions></trkpt>
   <trkpt lat="59.0646674272" lon="29.9658368923"><ele>95.365</ele><time>2026-04-25T10:37:23.000Z</time><hdop>3.0</hdop><vdop>3.0</vdop><extensions><gom:speed>0.376</gom:speed></extensions></trkpt>
   <trkpt lat="59.0646781979" lon="29.9658228945"><ele>95.292</ele><time>2026-04-25T10:37:24.000Z</time><hdop>3.312</hdop><vdop>3.312</vdop><extensions><gom:speed>0.593</gom:speed></extensions></trkpt>
   <trkpt lat="59.0646847358" lon="29.9658135068"><ele>95.227</ele><time>2026-04-25T10:37:25.000Z</time><hdop>3.125</hdop><vdop>3.125</vdop><extensions><gom:speed>0.571</gom:speed></extensions></trkpt>
   <trkpt lat="59.0646914413" lon="29.9658030294"><ele>95.211</ele><time>2026-04-25T10:37:26.000Z</time><hdop>3.0</hdop><vdop>3.0</vdop><extensions><gom:speed>0.493</gom:speed></extensions></trkpt>
   <trkpt lat="59.0647006195" lon="29.9657965754"><ele>95.167</ele><time>2026-04-25T10:37:27.000Z</time><hdop>3.0</hdop><vdop>3.0</vdop><extensions><gom:speed>0.497</gom:speed></extensions></trkpt>
   <trkpt lat="59.0647105102" lon="29.9657893669"><ele>95.164</ele><time>2026-04-25T10:37:28.000Z</time><hdop>3.062</hdop><vdop>3.062</vdop><extensions><gom:speed>0.564</gom:speed></extensions></trkpt>
   <trkpt lat="59.064720778" lon="29.965780985"><ele>95.127</ele><time>2026-04-25T10:37:29.000Z</time><hdop>3.0</hdop><vdop>3.0</vdop><extensions><gom:speed>0.569</gom:speed></extensions></trkpt>
   <trkpt lat="59.0647297885" lon="29.9657736928"><ele>95.097</ele><time>2026-04-25T10:37:30.000Z</time><hdop>3.25</hdop><vdop>3.25</vdop><extensions><gom:speed>0.515</gom:speed></extensions></trkpt>
   <trkpt lat="59.0647376256" lon="29.965768496"><ele>95.034</ele><time>2026-04-25T10:37:31.000Z</time><hdop>3.0</hdop><vdop>3.0</vdop><extensions><gom:speed>0.466</gom:speed></extensions></trkpt>
   <trkpt lat="59.0647460494" lon="29.9657632992"><ele>95.011</ele><time>2026-04-25T10:37:32.000Z</time><hdop>3.0</hdop><vdop>3.0</vdop><extensions><gom:speed>0.567</gom:speed></extensions></trkpt>
   <trkpt lat="59.0647460494" lon="29.9657632992"><ele>94.997</ele><time>2026-04-25T10:37:32.000Z</time><hdop>3.0</hdop><vdop>3.0</vdop><extensions><gom:speed>0.567</gom:speed></extensions></trkpt>
   <trkpt lat="59.0647543894" lon="29.9657547497"><ele>95.018</ele><time>2026-04-25T10:37:33.000Z</time><hdop>3.0</hdop><vdop>3.0</vdop><extensions><gom:speed>0.689</gom:speed></extensions></trkpt>
   <trkpt lat="59.064761975" lon="29.9657442723"><ele>95.086</ele><time>2026-04-25T10:37:34.000Z</time><hdop>3.0</hdop><vdop>3.0</vdop><extensions><gom:speed>0.598</gom:speed></extensions></trkpt>
   <trkpt lat="59.064768471" lon="29.9657318671"><ele>95.153</ele><time>2026-04-25T10:37:35.000Z</time><hdop>3.0</hdop><vdop>3.0</vdop><extensions><gom:speed>0.476</gom:speed></extensions></trkpt>
   <trkpt lat="59.0647731649" lon="29.9657232337"><ele>95.216</ele><time>2026-04-25T10:37:36.000Z</time><hdop>3.0</hdop><vdop>3.0</vdop><extensions><gom:speed>0.504</gom:speed></extensions></trkpt>
   <trkpt lat="59.0647780683" lon="29.9657119181"><ele>95.37</ele><time>2026-04-25T10:37:37.000Z</time><hdop>3.0</hdop><vdop>3.0</vdop><extensions><gom:speed>0.445</gom:speed></extensions></trkpt>
   <trkpt lat="59.0647825107" lon="29.96569901"><ele>95.437</ele><time>2026-04-25T10:37:38.000Z</time><hdop>3.0</hdop><vdop>3.0</vdop><extensions><gom:speed>0.526</gom:speed></extensions></trkpt>
   <trkpt lat="59.0647856958" lon="29.9656881973"><ele>95.434</ele><time>2026-04-25T10:37:39.000Z</time><hdop>3.0</hdop><vdop>3.0</vdop><extensions><gom:speed>0.357</gom:speed></extensions></trkpt>
   <trkpt lat="59.0647912279" lon="29.9656717688"><ele>95.386</ele><time>2026-04-25T10:37:40.000Z</time><hdop>3.0</hdop><vdop>3.0</vdop><extensions><gom:speed>0.419</gom:speed></extensions></trkpt>
   <trkpt lat="59.0647950417" lon="29.9656622135"><ele>95.332</ele><time>2026-04-25T10:37:41.000Z</time><hdop>3.0</hdop><vdop>3.0</vdop><extensions><gom:speed>0.332</gom:speed></extensions></trkpt>
   <trkpt lat="59.0647996098" lon="29.9656509817"><ele>95.246</ele><time>2026-04-25T10:37:42.000Z</time><hdop>3.0</hdop><vdop>3.0</vdop><extensions><gom:speed>0.364</gom:speed></extensions></trkpt>
   <trkpt lat="59.0648058124" lon="29.9656425998"><ele>95.13</ele><time>2026-04-25T10:37:43.000Z</time><hdop>3.0</hdop><vdop>3.0</vdop><extensions><gom:speed>0.321</gom:speed></extensions></trkpt>
   <trkpt lat="59.0648122246" lon="29.9656350561"><ele>95.043</ele><time>2026-04-25T10:37:44.000Z</time><hdop>3.0</hdop><vdop>3.0</vdop><extensions><gom:speed>0.158</gom:speed></extensions></trkpt>
   <trkpt lat="59.0648122246" lon="29.9656350561"><ele>94.991</ele><time>2026-04-25T10:37:45.000Z</time><hdop>3.0</hdop><vdop>3.0</vdop><extensions><gom:speed>0.0</gom:speed></extensions></trkpt>
   <trkpt lat="59.0648122246" lon="29.9656350561"><ele>94.96</ele><time>2026-04-25T10:37:46.000Z</time><hdop>3.0</hdop><vdop>3.0</vdop><extensions><gom:speed>0.0</gom:speed></extensions></trkpt>
   <trkpt lat="59.0648122246" lon="29.9656350561"><ele>94.942</ele><time>2026-04-25T10:37:47.000Z</time><hdop>3.0</hdop><vdop>3.0</vdop><extensions><gom:speed>0.0</gom:speed></extensions></trkpt>
   <trkpt lat="59.0648122246" lon="29.9656350561"><ele>94.93</ele><time>2026-04-25T10:37:48.000Z</time><hdop>3.0</hdop><vdop>3.0</vdop><extensions><gom:speed>0.0</gom:speed></extensions></trkpt>
   <trkpt lat="59.0648122246" lon="29.9656350561"><ele>94.924</ele><time>2026-04-25T10:37:49.000Z</time><hdop>3.0</hdop><vdop>3.0</vdop><extensions><gom:speed>0.0</gom:speed></extensions></trkpt>
   <trkpt lat="59.0648122246" lon="29.9656350561"><ele>94.92</ele><time>2026-04-25T10:37:50.000Z</time><hdop>3.0</hdop><vdop>3.0</vdop><extensions><gom:speed>0.0</gom:speed></extensions></trkpt>
   <trkpt lat="59.0648122246" lon="29.9656350561"><ele>94.918</ele><time>2026-04-25T10:37:51.000Z</time><hdop>3.0</hdop><vdop>3.0</vdop><extensions><gom:speed>0.0</gom:speed></extensions></trkpt>
   <trkpt lat="59.0648122246" lon="29.9656350561"><ele>94.916</ele><time>2026-04-25T10:37:52.000Z</time><hdop>3.0</hdop><vdop>3.0</vdop><extensions><gom:speed>0.0</gom:speed></extensions></trkpt>
   <trkpt lat="59.0648122246" lon="29.9656350561"><ele>94.915</ele><time>2026-04-25T10:37:52.000Z</time><hdop>3.0</hdop><vdop>3.0</vdop><extensions><gom:speed>0.0</gom:speed></extensions></trkpt>
   <trkpt lat="59.0648122246" lon="29.9656350561"><ele>94.915</ele><time>2026-04-25T10:37:53.000Z</time><hdop>3.0</hdop><vdop>3.0</vdop><extensions><gom:speed>0.0</gom:speed></extensions></trkpt>
   <trkpt lat="59.0648122246" lon="29.9656350561"><ele>94.915</ele><time>2026-04-25T10:37:54.000Z</time><hdop>3.0</hdop><vdop>3.0</vdop><extensions><gom:speed>0.0</gom:speed></extensions></trkpt>
   <trkpt lat="59.0648122246" lon="29.9656350561"><ele>94.914</ele><time>2026-04-25T10:37:55.000Z</time><hdop>3.0</hdop><vdop>3.0</vdop><extensions><gom:speed>0.0</gom:speed></extensions></trkpt>
   <trkpt lat="59.0648122246" lon="29.9656350561"><ele>94.914</ele><time>2026-04-25T10:37:56.000Z</time><hdop>3.0</hdop><vdop>3.0</vdop><extensions><gom:speed>0.0</gom:speed></extensions></trkpt>
   <trkpt lat="59.0648122246" lon="29.9656350561"><ele>94.914</ele><time>2026-04-25T10:37:57.000Z</time><hdop>3.0</hdop><vdop>3.0</vdop><extensions><gom:speed>0.0</gom:speed></extensions></trkpt>
   <trkpt lat="59.0648122246" lon="29.9656350561"><ele>94.914</ele><time>2026-04-25T10:37:58.000Z</time><hdop>3.0</hdop><vdop>3.0</vdop><extensions><gom:speed>0.0</gom:speed></extensions></trkpt>
   <trkpt lat="59.0648122246" lon="29.9656350561"><ele>94.914</ele><time>2026-04-25T10:37:59.000Z</time><hdop>3.0</hdop><vdop>3.0</vdop><extensions><gom:speed>0.0</gom:speed></extensions></trkpt>
   <trkpt lat="59.0648122246" lon="29.9656350561"><ele>94.914</ele><time>2026-04-25T10:38:00.000Z</time><hdop>3.0</hdop><vdop>3.0</vdop><extensions><gom:speed>0.0</gom:speed></extensions></trkpt>
   <trkpt lat="59.0648160383" lon="29.9656380736"><ele>95.051</ele><time>2026-04-25T10:38:01.000Z</time><hdop>3.0</hdop><vdop>3.0</vdop><extensions><gom:speed>0.329</gom:speed></extensions></trkpt>
   <trkpt lat="59.0648208998" lon="29.9656472098"><ele>95.285</ele><time>2026-04-25T10:38:02.000Z</time><hdop>3.0</hdop><vdop>3.0</vdop><extensions><gom:speed>0.474</gom:speed></extensions></trkpt>
   <trkpt lat="59.0648236659" lon="29.9656543345"><ele>95.485</ele><time>2026-04-25T10:38:03.000Z</time><hdop>3.0</hdop><vdop>3.0</vdop><extensions><gom:speed>0.499</gom:speed></extensions></trkpt>
   <trkpt lat="59.0648311677" lon="29.9656631355"><ele>95.597</ele><time>2026-04-25T10:38:04.000Z</time><hdop>3.0</hdop><vdop>3.0</vdop><extensions><gom:speed>0.641</gom:speed></extensions></trkpt>
   <trkpt lat="59.0648342271" lon="29.9656713497"><ele>95.666</ele><time>2026-04-25T10:38:05.000Z</time><hdop>3.0</hdop><vdop>3.0</vdop><extensions><gom:speed>0.494</gom:speed></extensions></trkpt>
   <trkpt lat="59.0648395496" lon="29.9656738643"><ele>95.675</ele><time>2026-04-25T10:38:06.000Z</time><hdop>3.0</hdop><vdop>3.0</vdop><extensions><gom:speed>0.451</gom:speed></extensions></trkpt>
   <trkpt lat="59.0648441596" lon="29.9656762112"><ele>95.628</ele><time>2026-04-25T10:38:07.000Z</time><hdop>3.0</hdop><vdop>3.0</vdop><extensions><gom:speed>0.409</gom:speed></extensions></trkpt>
   <trkpt lat="59.0648508232" lon="29.9656803184"><ele>95.569</ele><time>2026-04-25T10:38:08.000Z</time><hdop>3.0</hdop><vdop>3.0</vdop><extensions><gom:speed>0.526</gom:speed></extensions></trkpt>
   <trkpt lat="59.0648578221" lon="29.9656812404"><ele>95.514</ele><time>2026-04-25T10:38:09.000Z</time><hdop>3.0</hdop><vdop>3.0</vdop><extensions><gom:speed>0.646</gom:speed></extensions></trkpt>
   <trkpt lat="59.06486436" lon="29.9656821624"><ele>95.484</ele><time>2026-04-25T10:38:10.000Z</time><hdop>3.0</hdop><vdop>3.0</vdop><extensions><gom:speed>0.702</gom:speed></extensions></trkpt>
   <trkpt lat="59.0648713589" lon="29.9656863533"><ele>95.414</ele><time>2026-04-25T10:38:11.000Z</time><hdop>3.0</hdop><vdop>3.0</vdop><extensions><gom:speed>0.63</gom:speed></extensions></trkpt>
   <trkpt lat="59.0648787769" lon="29.9656922207"><ele>95.284</ele><time>2026-04-25T10:38:12.000Z</time><hdop>3.0</hdop><vdop>3.0</vdop><extensions><gom:speed>0.627</gom:speed></extensions></trkpt>
   <trkpt lat="59.0648787769" lon="29.9656922207"><ele>95.206</ele><time>2026-04-25T10:38:12.000Z</time><hdop>3.0</hdop><vdop>3.0</vdop><extensions><gom:speed>0.627</gom:speed></extensions></trkpt>
   <trkpt lat="59.0648897572" lon="29.9656966631"><ele>95.2</ele><time>2026-04-25T10:38:13.000Z</time><hdop>3.0</hdop><vdop>3.0</vdop><extensions><gom:speed>0.686</gom:speed></extensions></trkpt>
   <trkpt lat="59.0649001507" lon="29.9657022789"><ele>95.149</ele><time>2026-04-25T10:38:14.000Z</time><hdop>3.0</hdop><vdop>3.0</vdop><extensions><gom:speed>0.762</gom:speed></extensions></trkpt>
   <trkpt lat="59.0649103766" lon="29.9657102418"><ele>95.077</ele><time>2026-04-25T10:38:15.000Z</time><hdop>3.0</hdop><vdop>3.0</vdop><extensions><gom:speed>0.686</gom:speed></extensions></trkpt>
   <trkpt lat="59.0649212312" lon="29.965716612"><ele>95.018</ele><time>2026-04-25T10:38:16.000Z</time><hdop>3.0</hdop><vdop>3.0</vdop><extensions><gom:speed>0.88</gom:speed></extensions></trkpt>
   <trkpt lat="59.0649310799" lon="29.9657173664"><ele>95.015</ele><time>2026-04-25T10:38:17.000Z</time><hdop>3.0</hdop><vdop>3.0</vdop><extensions><gom:speed>0.716</gom:speed></extensions></trkpt>
   <trkpt lat="59.0649435271" lon="29.9657151871"><ele>95.094</ele><time>2026-04-25T10:38:18.000Z</time><hdop>3.0</hdop><vdop>3.0</vdop><extensions><gom:speed>0.581</gom:speed></extensions></trkpt>
   <trkpt lat="59.064953292" lon="29.9657130078"><ele>95.151</ele><time>2026-04-25T10:38:19.000Z</time><hdop>3.0</hdop><vdop>3.0</vdop><extensions><gom:speed>0.832</gom:speed></extensions></trkpt>
   <trkpt lat="59.0649630988" lon="29.9657078948"><ele>95.17</ele><time>2026-04-25T10:38:20.000Z</time><hdop>3.0</hdop><vdop>3.0</vdop><extensions><gom:speed>0.723</gom:speed></extensions></trkpt>
   <trkpt lat="59.0649727799" lon="29.9657001835"><ele>95.176</ele><time>2026-04-25T10:38:21.000Z</time><hdop>3.0</hdop><vdop>3.0</vdop><extensions><gom:speed>0.509</gom:speed></extensions></trkpt>
   <trkpt lat="59.0649785215" lon="29.9656944838"><ele>95.219</ele><time>2026-04-25T10:38:22.000Z</time><hdop>3.0</hdop><vdop>3.0</vdop><extensions><gom:speed>0.357</gom:speed></extensions></trkpt>
   <trkpt lat="59.0649839278" lon="29.9656904605"><ele>95.293</ele><time>2026-04-25T10:38:23.000Z</time><hdop>3.0</hdop><vdop>3.0</vdop><extensions><gom:speed>0.507</gom:speed></extensions></trkpt>
   <trkpt lat="59.0649910944" lon="29.9656881135"><ele>95.392</ele><time>2026-04-25T10:38:24.000Z</time><hdop>3.0</hdop><vdop>3.0</vdop><extensions><gom:speed>0.533</gom:speed></extensions></trkpt>
   <trkpt lat="59.0649983447" lon="29.9656894546"><ele>95.443</ele><time>2026-04-25T10:38:25.000Z</time><hdop>3.0</hdop><vdop>3.0</vdop><extensions><gom:speed>0.581</gom:speed></extensions></trkpt>
   <trkpt lat="59.0650073134" lon="29.9656901252"><ele>95.571</ele><time>2026-04-25T10:38:26.000Z</time><hdop>3.0</hdop><vdop>3.0</vdop><extensions><gom:speed>0.504</gom:speed></extensions></trkpt>
   <trkpt lat="59.0650073134" lon="29.9656901252"><ele>95.647</ele><time>2026-04-25T10:38:27.000Z</time><hdop>3.0</hdop><vdop>3.0</vdop><extensions><gom:speed>0.0</gom:speed></extensions></trkpt>
   <trkpt lat="59.0650073134" lon="29.9656901252"><ele>95.693</ele><time>2026-04-25T10:38:28.000Z</time><hdop>3.0</hdop><vdop>3.0</vdop><extensions><gom:speed>0.0</gom:speed></extensions></trkpt>
   <trkpt lat="59.0650109595" lon="29.9656917177"><ele>95.754</ele><time>2026-04-25T10:38:29.000Z</time><hdop>3.0</hdop><vdop>3.0</vdop><extensions><gom:speed>0.342</gom:speed></extensions></trkpt>
   <trkpt lat="59.0650109595" lon="29.9656917177"><ele>95.791</ele><time>2026-04-25T10:38:30.000Z</time><hdop>3.0</hdop><vdop>3.0</vdop><extensions><gom:speed>0.0</gom:speed></extensions></trkpt>
   <trkpt lat="59.0650109595" lon="29.9656917177"><ele>95.812</ele><time>2026-04-25T10:38:31.000Z</time><hdop>3.0</hdop><vdop>3.0</vdop><extensions><gom:speed>0.0</gom:speed></extensions></trkpt>
   <trkpt lat="59.0650109595" lon="29.9656917177"><ele>95.825</ele><time>2026-04-25T10:38:32.000Z</time><hdop>3.0</hdop><vdop>3.0</vdop><extensions><gom:speed>0.0</gom:speed></extensions></trkpt>
   <trkpt lat="59.0650109595" lon="29.9656917177"><ele>95.833</ele><time>2026-04-25T10:38:32.000Z</time><hdop>3.0</hdop><vdop>3.0</vdop><extensions><gom:speed>0.0</gom:speed></extensions></trkpt>
   <trkpt lat="59.0650109595" lon="29.9656917177"><ele>95.838</ele><time>2026-04-25T10:38:33.000Z</time><hdop>3.0</hdop><vdop>3.0</vdop><extensions><gom:speed>0.0</gom:speed></extensions></trkpt>
   <trkpt lat="59.0650109595" lon="29.9656917177"><ele>95.841</ele><time>2026-04-25T10:38:34.000Z</time><hdop>3.0</hdop><vdop>3.0</vdop><extensions><gom:speed>0.0</gom:speed></extensions></trkpt>
   <trkpt lat="59.0650109595" lon="29.9656917177"><ele>95.842</ele><time>2026-04-25T10:38:35.000Z</time><hdop>3.0</hdop><vdop>3.0</vdop><extensions><gom:speed>0.0</gom:speed></extensions></trkpt>
   <trkpt lat="59.0650109595" lon="29.9656917177"><ele>95.843</ele><time>2026-04-25T10:38:36.000Z</time><hdop>3.0</hdop><vdop>3.0</vdop><extensions><gom:speed>0.0</gom:speed></extensions></trkpt>
   <trkpt lat="59.0650109595" lon="29.9656917177"><ele>95.844</ele><time>2026-04-25T10:38:37.000Z</time><hdop>3.0</hdop><vdop>3.0</vdop><extensions><gom:speed>0.0</gom:speed></extensions></trkpt>
   <trkpt lat="59.0650109595" lon="29.9656917177"><ele>95.844</ele><time>2026-04-25T10:38:38.000Z</time><hdop>3.0</hdop><vdop>3.0</vdop><extensions><gom:speed>0.0</gom:speed></extensions></trkpt>
   <trkpt lat="59.0650109595" lon="29.9656917177"><ele>95.845</ele><time>2026-04-25T10:38:39.000Z</time><hdop>3.0</hdop><vdop>3.0</vdop><extensions><gom:speed>0.0</gom:speed></extensions></trkpt>
   <trkpt lat="59.0650163658" lon="29.9657021113"><ele>95.781</ele><time>2026-04-25T10:38:40.000Z</time><hdop>3.0</hdop><vdop>3.0</vdop><extensions><gom:speed>0.258</gom:speed></extensions></trkpt>
   <trkpt lat="59.0650217721" lon="29.965713846"><ele>95.628</ele><time>2026-04-25T10:38:41.000Z</time><hdop>3.0</hdop><vdop>3.0</vdop><extensions><gom:speed>0.415</gom:speed></extensions></trkpt>
   <trkpt lat="59.0650275137" lon="29.9657260836"><ele>95.485</ele><time>2026-04-25T10:38:42.000Z</time><hdop>3.0</hdop><vdop>3.0</vdop><extensions><gom:speed>0.454</gom:speed></extensions></trkpt>
   <trkpt lat="59.0650338421" lon="29.9657372315"><ele>95.327</ele><time>2026-04-25T10:38:43.000Z</time><hdop>3.25</hdop><vdop>3.25</vdop><extensions><gom:speed>0.502</gom:speed></extensions></trkpt>
   <trkpt lat="59.0650473788" lon="29.965751816"><ele>95.211</ele><time>2026-04-25T10:38:44.000Z</time><hdop>3.437</hdop><vdop>3.437</vdop><extensions><gom:speed>0.94</gom:speed></extensions></trkpt>
   <trkpt lat="59.0650473788" lon="29.965751816"><ele>95.142</ele><time>2026-04-25T10:38:44.000Z</time><hdop>3.437</hdop><vdop>3.437</vdop><extensions><gom:speed>0.94</gom:speed></extensions></trkpt>
   <trkpt lat="59.0650607899" lon="29.9657583539"><ele>95.206</ele><time>2026-04-25T10:38:45.000Z</time><hdop>4.062</hdop><vdop>4.062</vdop><extensions><gom:speed>0.811</gom:speed></extensions></trkpt>
   <trkpt lat="59.0650607899" lon="29.9657583539"><ele>95.244</ele><time>2026-04-25T10:38:45.000Z</time><hdop>4.062</hdop><vdop>4.062</vdop><extensions><gom:speed>0.811</gom:speed></extensions></trkpt>
   <trkpt lat="59.0650743267" lon="29.9657584377"><ele>95.4</ele><time>2026-04-25T10:38:46.000Z</time><hdop>4.187</hdop><vdop>4.187</vdop><extensions><gom:speed>0.823</gom:speed></extensions></trkpt>
   <trkpt lat="59.065084385" lon="29.9657567613"><ele>95.599</ele><time>2026-04-25T10:38:47.000Z</time><hdop>4.375</hdop><vdop>4.375</vdop><extensions><gom:speed>0.622</gom:speed></extensions></trkpt>
   <trkpt lat="59.0650953233" lon="29.9657524027"><ele>95.832</ele><time>2026-04-25T10:38:48.000Z</time><hdop>4.5</hdop><vdop>4.5</vdop><extensions><gom:speed>0.47</gom:speed></extensions></trkpt>
   <trkpt lat="59.0651045434" lon="29.9657442723"><ele>96.051</ele><time>2026-04-25T10:38:49.000Z</time><hdop>4.75</hdop><vdop>4.75</vdop><extensions><gom:speed>0.438</gom:speed></extensions></trkpt>
   <trkpt lat="59.0651179126" lon="29.9657324538"><ele>96.441</ele><time>2026-04-25T10:38:50.000Z</time><hdop>4.562</hdop><vdop>4.562</vdop><extensions><gom:speed>0.385</gom:speed></extensions></trkpt>
   <trkpt lat="59.065129731" lon="29.9657248263"><ele>96.882</ele><time>2026-04-25T10:38:51.000Z</time><hdop>4.25</hdop><vdop>4.25</vdop><extensions><gom:speed>0.32</gom:speed></extensions></trkpt>
   <trkpt lat="59.0651360594" lon="29.9657191266"><ele>97.175</ele><time>2026-04-25T10:38:52.000Z</time><hdop>4.0</hdop><vdop>4.0</vdop><extensions><gom:speed>0.256</gom:speed></extensions></trkpt>
   <trkpt lat="59.0651360594" lon="29.9657191266"><ele>97.35</ele><time>2026-04-25T10:38:52.000Z</time><hdop>4.0</hdop><vdop>4.0</vdop><extensions><gom:speed>0.256</gom:speed></extensions></trkpt>
   <trkpt lat="59.0651397893" lon="29.9657146003"><ele>97.475</ele><time>2026-04-25T10:38:53.000Z</time><hdop>4.375</hdop><vdop>4.375</vdop><extensions><gom:speed>0.186</gom:speed></extensions></trkpt>
   <trkpt lat="59.0651449023" lon="29.9657135107"><ele>97.585</ele><time>2026-04-25T10:38:54.000Z</time><hdop>4.187</hdop><vdop>4.187</vdop><extensions><gom:speed>0.154</gom:speed></extensions></trkpt>
   <trkpt lat="59.0651493447" lon="29.9657122534"><ele>97.679</ele><time>2026-04-25T10:38:55.000Z</time><hdop>3.687</hdop><vdop>3.687</vdop><extensions><gom:speed>0.54</gom:speed></extensions></trkpt>
   <trkpt lat="59.065155212" lon="29.9657120858"><ele>97.766</ele><time>2026-04-25T10:38:56.000Z</time><hdop>3.312</hdop><vdop>3.312</vdop><extensions><gom:speed>0.324</gom:speed></extensions></trkpt>
   <trkpt lat="59.0651586905" lon="29.9657124211"><ele>97.857</ele><time>2026-04-25T10:38:57.000Z</time><hdop>3.125</hdop><vdop>3.125</vdop><extensions><gom:speed>0.101</gom:speed></extensions></trkpt>
   <trkpt lat="59.0651615823" lon="29.9657103256"><ele>97.969</ele><time>2026-04-25T10:38:58.000Z</time><hdop>3.0</hdop><vdop>3.0</vdop><extensions><gom:speed>0.173</gom:speed></extensions></trkpt>
   <trkpt lat="59.0651611632" lon="29.9657069728"><ele>98.024</ele><time>2026-04-25T10:38:59.000Z</time><hdop>3.0</hdop><vdop>3.0</vdop><extensions><gom:speed>0.216</gom:speed></extensions></trkpt>
   <trkpt lat="59.0651650189" lon="29.965701776"><ele>98.046</ele><time>2026-04-25T10:39:00.000Z</time><hdop>3.0</hdop><vdop>3.0</vdop><extensions><gom:speed>0.258</gom:speed></extensions></trkpt>
   <trkpt lat="59.0651650189" lon="29.965701776"><ele>98.058</ele><time>2026-04-25T10:39:01.000Z</time><hdop>3.0</hdop><vdop>3.0</vdop><extensions><gom:speed>0.0</gom:speed></extensions></trkpt>
   <trkpt lat="59.0651701737" lon="29.9656986747"><ele>98.082</ele><time>2026-04-25T10:39:02.000Z</time><hdop>3.0</hdop><vdop>3.0</vdop><extensions><gom:speed>0.333</gom:speed></extensions></trkpt>
   <trkpt lat="59.0651735684" lon="29.9656951543"><ele>98.044</ele><time>2026-04-25T10:39:03.000Z</time><hdop>3.0</hdop><vdop>3.0</vdop><extensions><gom:speed>0.316</gom:speed></extensions></trkpt>
   <trkpt lat="59.0651789328" lon="29.9656931427"><ele>97.974</ele><time>2026-04-25T10:39:04.000Z</time><hdop>3.0</hdop><vdop>3.0</vdop><extensions><gom:speed>0.267</gom:speed></extensions></trkpt>
   <trkpt lat="59.0651789328" lon="29.9656931427"><ele>97.932</ele><time>2026-04-25T10:39:05.000Z</time><hdop>3.0</hdop><vdop>3.0</vdop><extensions><gom:speed>0.0</gom:speed></extensions></trkpt>
   <trkpt lat="59.0651789328" lon="29.9656931427"><ele>97.908</ele><time>2026-04-25T10:39:06.000Z</time><hdop>3.0</hdop><vdop>3.0</vdop><extensions><gom:speed>0.0</gom:speed></extensions></trkpt>
   <trkpt lat="59.0651838781" lon="29.9656980042"><ele>97.838</ele><time>2026-04-25T10:39:07.000Z</time><hdop>3.0</hdop><vdop>3.0</vdop><extensions><gom:speed>0.475</gom:speed></extensions></trkpt>
   <trkpt lat="59.0651838781" lon="29.9656980042"><ele>97.796</ele><time>2026-04-25T10:39:08.000Z</time><hdop>3.0</hdop><vdop>3.0</vdop><extensions><gom:speed>0.0</gom:speed></extensions></trkpt>
   <trkpt lat="59.0651918829" lon="29.9657004349"><ele>97.712</ele><time>2026-04-25T10:39:09.000Z</time><hdop>3.0</hdop><vdop>3.0</vdop><extensions><gom:speed>0.407</gom:speed></extensions></trkpt>
   <trkpt lat="59.0652025698" lon="29.9657054641"><ele>97.607</ele><time>2026-04-25T10:39:10.000Z</time><hdop>3.0</hdop><vdop>3.0</vdop><extensions><gom:speed>0.633</gom:speed></extensions></trkpt>
   <trkpt lat="59.0652127538" lon="29.9657083139"><ele>97.523</ele><time>2026-04-25T10:39:11.000Z</time><hdop>3.0</hdop><vdop>3.0</vdop><extensions><gom:speed>0.808</gom:speed></extensions></trkpt>
   <trkpt lat="59.0652244885" lon="29.9657122534"><ele>97.389</ele><time>2026-04-25T10:39:12.000Z</time><hdop>3.0</hdop><vdop>3.0</vdop><extensions><gom:speed>0.585</gom:speed></extensions></trkpt>
   <trkpt lat="59.0652244885" lon="29.9657122534"><ele>97.309</ele><time>2026-04-25T10:39:12.000Z</time><hdop>3.0</hdop><vdop>3.0</vdop><extensions><gom:speed>0.585</gom:speed></extensions></trkpt>
   <trkpt lat="59.0652244885" lon="29.9657122534"><ele>97.261</ele><time>2026-04-25T10:39:13.000Z</time><hdop>3.0</hdop><vdop>3.0</vdop><extensions><gom:speed>0.0</gom:speed></extensions></trkpt>
   <trkpt lat="59.0652244885" lon="29.9657122534"><ele>97.232</ele><time>2026-04-25T10:39:14.000Z</time><hdop>3.0</hdop><vdop>3.0</vdop><extensions><gom:speed>0.0</gom:speed></extensions></trkpt>
   <trkpt lat="59.0652244885" lon="29.9657122534"><ele>97.215</ele><time>2026-04-25T10:39:15.000Z</time><hdop>3.0</hdop><vdop>3.0</vdop><extensions><gom:speed>0.0</gom:speed></extensions></trkpt>
   <trkpt lat="59.0652244885" lon="29.9657122534"><ele>97.205</ele><time>2026-04-25T10:39:16.000Z</time><hdop>3.0</hdop><vdop>3.0</vdop><extensions><gom:speed>0.0</gom:speed></extensions></trkpt>
   <trkpt lat="59.0652244885" lon="29.9657122534"><ele>97.199</ele><time>2026-04-25T10:39:17.000Z</time><hdop>3.0</hdop><vdop>3.0</vdop><extensions><gom:speed>0.0</gom:speed></extensions></trkpt>
   <trkpt lat="59.0652296014" lon="29.9657152709"><ele>97.209</ele><time>2026-04-25T10:39:18.000Z</time><hdop>3.25</hdop><vdop>3.25</vdop><extensions><gom:speed>0.103</gom:speed></extensions></trkpt>
   <trkpt lat="59.0652349239" lon="29.9657198809"><ele>97.195</ele><time>2026-04-25T10:39:19.000Z</time><hdop>3.312</hdop><vdop>3.312</vdop><extensions><gom:speed>0.181</gom:speed></extensions></trkpt>
   <trkpt lat="59.0652349239" lon="29.9657198809"><ele>97.187</ele><time>2026-04-25T10:39:20.000Z</time><hdop>3.312</hdop><vdop>3.312</vdop><extensions><gom:speed>0.0</gom:speed></extensions></trkpt>
   <trkpt lat="59.0652349239" lon="29.9657198809"><ele>97.182</ele><time>2026-04-25T10:39:21.000Z</time><hdop>3.312</hdop><vdop>3.312</vdop><extensions><gom:speed>0.0</gom:speed></extensions></trkpt>
   <trkpt lat="59.0652349239" lon="29.9657198809"><ele>97.179</ele><time>2026-04-25T10:39:22.000Z</time><hdop>3.312</hdop><vdop>3.312</vdop><extensions><gom:speed>0.0</gom:speed></extensions></trkpt>
   <trkpt lat="59.0652389472" lon="29.9657298554"><ele>97.227</ele><time>2026-04-25T10:39:23.000Z</time><hdop>3.375</hdop><vdop>3.375</vdop><extensions><gom:speed>0.536</gom:speed></extensions></trkpt>
   <trkpt lat="59.0652472034" lon="29.9657417577"><ele>97.28</ele><time>2026-04-25T10:39:24.000Z</time><hdop>3.437</hdop><vdop>3.437</vdop><extensions><gom:speed>0.517</gom:speed></extensions></trkpt>
   <trkpt lat="59.0652563816" lon="29.9657537438"><ele>97.341</ele><time>2026-04-25T10:39:25.000Z</time><hdop>3.25</hdop><vdop>3.25</vdop><extensions><gom:speed>0.614</gom:speed></extensions></trkpt>
   <trkpt lat="59.0652650569" lon="29.9657651432"><ele>97.39</ele><time>2026-04-25T10:39:26.000Z</time><hdop>3.0</hdop><vdop>3.0</vdop><extensions><gom:speed>0.646</gom:speed></extensions></trkpt>
   <trkpt lat="59.0652773364" lon="29.9657767102"><ele>97.41</ele><time>2026-04-25T10:39:27.000Z</time><hdop>3.125</hdop><vdop>3.125</vdop><extensions><gom:speed>0.63</gom:speed></extensions></trkpt>
   <trkpt lat="59.0652867241" lon="29.9657856789"><ele>97.432</ele><time>2026-04-25T10:39:28.000Z</time><hdop>3.437</hdop><vdop>3.437</vdop><extensions><gom:speed>0.579</gom:speed></extensions></trkpt>
   <trkpt lat="59.0652965728" lon="29.9657959886"><ele>97.413</ele><time>2026-04-25T10:39:29.000Z</time><hdop>3.812</hdop><vdop>3.812</vdop><extensions><gom:speed>0.733</gom:speed></extensions></trkpt>
   <trkpt lat="59.0653070921" lon="29.9658029456"><ele>97.366</ele><time>2026-04-25T10:39:30.000Z</time><hdop>3.937</hdop><vdop>3.937</vdop><extensions><gom:speed>0.599</gom:speed></extensions></trkpt>
   <trkpt lat="59.0653176533" lon="29.9658067175"><ele>97.267</ele><time>2026-04-25T10:39:31.000Z</time><hdop>3.875</hdop><vdop>3.875</vdop><extensions><gom:speed>0.51</gom:speed></extensions></trkpt>
   <trkpt lat="59.0653274601" lon="29.9658032809"><ele>97.133</ele><time>2026-04-25T10:39:32.000Z</time><hdop>3.937</hdop><vdop>3.937</vdop><extensions><gom:speed>0.656</gom:speed></extensions></trkpt>
   <trkpt lat="59.0653274601" lon="29.9658032809"><ele>97.053</ele><time>2026-04-25T10:39:32.000Z</time><hdop>3.937</hdop><vdop>3.937</vdop><extensions><gom:speed>0.656</gom:speed></extensions></trkpt>
   <trkpt lat="59.0653364288" lon="29.9657971621"><ele>96.994</ele><time>2026-04-25T10:39:33.000Z</time><hdop>3.562</hdop><vdop>3.562</vdop><extensions><gom:speed>0.541</gom:speed></extensions></trkpt>
   <trkpt lat="59.0653472833" lon="29.965794899"><ele>96.851</ele><time>2026-04-25T10:39:35.000Z</time><hdop>3.312</hdop><vdop>3.312</vdop><extensions><gom:speed>0.352</gom:speed></extensions></trkpt>
   <trkpt lat="59.0653560843" lon="29.9657994252"><ele>96.716</ele><time>2026-04-25T10:39:36.000Z</time><hdop>3.187</hdop><vdop>3.187</vdop><extensions><gom:speed>0.5</gom:speed></extensions></trkpt>
   <trkpt lat="59.0653634185" lon="29.9658040353"><ele>96.61</ele><time>2026-04-25T10:39:37.000Z</time><hdop>3.0</hdop><vdop>3.0</vdop><extensions><gom:speed>0.508</gom:speed></extensions></trkpt>
   <trkpt lat="59.065371549" lon="29.9658109922"><ele>96.443</ele><time>2026-04-25T10:39:38.000Z</time><hdop>3.0</hdop><vdop>3.0</vdop><extensions><gom:speed>0.583</gom:speed></extensions></trkpt>
   <trkpt lat="59.065380308" lon="29.9658156023"><ele>96.27</ele><time>2026-04-25T10:39:39.000Z</time><hdop>3.0</hdop><vdop>3.0</vdop><extensions><gom:speed>0.664</gom:speed></extensions></trkpt>
   <trkpt lat="59.0653902825" lon="29.9658223078"><ele>96.121</ele><time>2026-04-25T10:39:40.000Z</time><hdop>3.0</hdop><vdop>3.0</vdop><extensions><gom:speed>0.665</gom:speed></extensions></trkpt>
   <trkpt lat="59.0653982872" lon="29.9658344616"><ele>96.003</ele><time>2026-04-25T10:39:41.000Z</time><hdop>3.0</hdop><vdop>3.0</vdop><extensions><gom:speed>0.531</gom:speed></extensions></trkpt>
   <trkpt lat="59.0654044479" lon="29.9658500519"><ele>95.934</ele><time>2026-04-25T10:39:42.000Z</time><hdop>3.0</hdop><vdop>3.0</vdop><extensions><gom:speed>0.5</gom:speed></extensions></trkpt>
   <trkpt lat="59.0654108601" lon="29.9658668995"><ele>95.936</ele><time>2026-04-25T10:39:43.000Z</time><hdop>3.0</hdop><vdop>3.0</vdop><extensions><gom:speed>0.607</gom:speed></extensions></trkpt>
   <trkpt lat="59.065415512" lon="29.9658798915"><ele>95.91</ele><time>2026-04-25T10:39:44.000Z</time><hdop>3.0</hdop><vdop>3.0</vdop><extensions><gom:speed>0.586</gom:speed></extensions></trkpt>
   <trkpt lat="59.0654204155" lon="29.9658895307"><ele>95.923</ele><time>2026-04-25T10:39:45.000Z</time><hdop>3.0</hdop><vdop>3.0</vdop><extensions><gom:speed>0.387</gom:speed></extensions></trkpt>
   <trkpt lat="59.0654225109" lon="29.9658993375"><ele>95.931</ele><time>2026-04-25T10:39:46.000Z</time><hdop>3.0</hdop><vdop>3.0</vdop><extensions><gom:speed>0.25</gom:speed></extensions></trkpt>
   <trkpt lat="59.0654246483" lon="29.965905121"><ele>95.991</ele><time>2026-04-25T10:39:47.000Z</time><hdop>3.0</hdop><vdop>3.0</vdop><extensions><gom:speed>0.183</gom:speed></extensions></trkpt>
   <trkpt lat="59.0654275401" lon="29.9659079709"><ele>96.03</ele><time>2026-04-25T10:39:48.000Z</time><hdop>3.0</hdop><vdop>3.0</vdop><extensions><gom:speed>0.149</gom:speed></extensions></trkpt>
   <trkpt lat="59.0654337427" lon="29.9659110722"><ele>96.194</ele><time>2026-04-25T10:39:49.000Z</time><hdop>3.0</hdop><vdop>3.0</vdop><extensions><gom:speed>0.197</gom:speed></extensions></trkpt>
   <trkpt lat="59.0654383527" lon="29.9659134191"><ele>96.242</ele><time>2026-04-25T10:39:50.000Z</time><hdop>3.0</hdop><vdop>3.0</vdop><extensions><gom:speed>0.294</gom:speed></extensions></trkpt>
   <trkpt lat="59.0654452678" lon="29.9659135029"><ele>96.192</ele><time>2026-04-25T10:39:51.000Z</time><hdop>3.0</hdop><vdop>3.0</vdop><extensions><gom:speed>0.419</gom:speed></extensions></trkpt>
   <trkpt lat="59.0654563738" lon="29.9659124971"><ele>96.055</ele><time>2026-04-25T10:39:52.000Z</time><hdop>3.0</hdop><vdop>3.0</vdop><extensions><gom:speed>0.652</gom:speed></extensions></trkpt>
   <trkpt lat="59.0654563738" lon="29.9659124971"><ele>95.973</ele><time>2026-04-25T10:39:52.000Z</time><hdop>3.0</hdop><vdop>3.0</vdop><extensions><gom:speed>0.652</gom:speed></extensions></trkpt>
   <trkpt lat="59.0654654263" lon="29.9659103178"><ele>95.821</ele><time>2026-04-25T10:39:53.000Z</time><hdop>3.0</hdop><vdop>3.0</vdop><extensions><gom:speed>0.683</gom:speed></extensions></trkpt>
   <trkpt lat="59.0654735986" lon="29.9659036961"><ele>95.676</ele><time>2026-04-25T10:39:54.000Z</time><hdop>3.0</hdop><vdop>3.0</vdop><extensions><gom:speed>0.527</gom:speed></extensions></trkpt>
   <trkpt lat="59.0654827768" lon="29.965902355"><ele>95.653</ele><time>2026-04-25T10:39:55.000Z</time><hdop>3.0</hdop><vdop>3.0</vdop><extensions><gom:speed>0.328</gom:speed></extensions></trkpt>
   <trkpt lat="59.0654827768" lon="29.965902355"><ele>95.64</ele><time>2026-04-25T10:39:56.000Z</time><hdop>3.0</hdop><vdop>3.0</vdop><extensions><gom:speed>0.0</gom:speed></extensions></trkpt>
   <trkpt lat="59.0654827768" lon="29.965902355"><ele>95.632</ele><time>2026-04-25T10:39:57.000Z</time><hdop>3.0</hdop><vdop>3.0</vdop><extensions><gom:speed>0.0</gom:speed></extensions></trkpt>
   <trkpt lat="59.0654827768" lon="29.965902355"><ele>95.627</ele><time>2026-04-25T10:39:58.000Z</time><hdop>3.0</hdop><vdop>3.0</vdop><extensions><gom:speed>0.0</gom:speed></extensions></trkpt>
   <trkpt lat="59.0654943019" lon="29.9659113236"><ele>95.782</ele><time>2026-04-25T10:39:59.000Z</time><hdop>3.0</hdop><vdop>3.0</vdop><extensions><gom:speed>0.184</gom:speed></extensions></trkpt>
   <trkpt lat="59.0655020552" lon="29.9659084738"><ele>95.896</ele><time>2026-04-25T10:40:00.000Z</time><hdop>3.562</hdop><vdop>3.562</vdop><extensions><gom:speed>0.313</gom:speed></extensions></trkpt>
   <trkpt lat="59.0655117363" lon="29.9659065459"><ele>96.035</ele><time>2026-04-25T10:40:01.000Z</time><hdop>4.312</hdop><vdop>4.312</vdop><extensions><gom:speed>0.493</gom:speed></extensions></trkpt>
   <trkpt lat="59.065520202" lon="29.9659056239"><ele>96.162</ele><time>2026-04-25T10:40:02.000Z</time><hdop>4.5</hdop><vdop>4.5</vdop><extensions><gom:speed>0.659</gom:speed></extensions></trkpt>
   <trkpt lat="59.0655297155" lon="29.9659065459"><ele>96.323</ele><time>2026-04-25T10:40:03.000Z</time><hdop>4.5</hdop><vdop>4.5</vdop><extensions><gom:speed>0.893</gom:speed></extensions></trkpt>
   <trkpt lat="59.0655395223" lon="29.9659068812"><ele>96.514</ele><time>2026-04-25T10:40:04.000Z</time><hdop>4.812</hdop><vdop>4.812</vdop><extensions><gom:speed>0.563</gom:speed></extensions></trkpt>
   <trkpt lat="59.0655476527" lon="29.9659104016"><ele>96.666</ele><time>2026-04-25T10:40:05.000Z</time><hdop>4.875</hdop><vdop>4.875</vdop><extensions><gom:speed>0.619</gom:speed></extensions></trkpt>
   <trkpt lat="59.0655601418" lon="29.9659115751"><ele>96.93</ele><time>2026-04-25T10:40:06.000Z</time><hdop>4.5</hdop><vdop>4.5</vdop><extensions><gom:speed>0.406</gom:speed></extensions></trkpt>
   <trkpt lat="59.0655670568" lon="29.9659127485"><ele>97.227</ele><time>2026-04-25T10:40:07.000Z</time><hdop>3.75</hdop><vdop>3.75</vdop><extensions><gom:speed>0.52</gom:speed></extensions></trkpt>
   <trkpt lat="59.0655735528" lon="29.9659121618"><ele>97.453</ele><time>2026-04-25T10:40:08.000Z</time><hdop>3.562</hdop><vdop>3.562</vdop><extensions><gom:speed>0.651</gom:speed></extensions></trkpt>
   <trkpt lat="59.0655812223" lon="29.9659121618"><ele>97.593</ele><time>2026-04-25T10:40:09.000Z</time><hdop>3.375</hdop><vdop>3.375</vdop><extensions><gom:speed>0.601</gom:speed></extensions></trkpt>
   <trkpt lat="59.0655880954" lon="29.9659129162"><ele>97.756</ele><time>2026-04-25T10:40:10.000Z</time><hdop>3.25</hdop><vdop>3.25</vdop><extensions><gom:speed>0.534</gom:speed></extensions></trkpt>
   <trkpt lat="59.0655960582" lon="29.9659132515"><ele>97.971</ele><time>2026-04-25T10:40:11.000Z</time><hdop>3.187</hdop><vdop>3.187</vdop><extensions><gom:speed>0.599</gom:speed></extensions></trkpt>
   <trkpt lat="59.0656032248" lon="29.9659169395"><ele>98.184</ele><time>2026-04-25T10:40:12.000Z</time><hdop>3.125</hdop><vdop>3.125</vdop><extensions><gom:speed>0.668</gom:speed></extensions></trkpt>
   <trkpt lat="59.0656032248" lon="29.9659169395"><ele>98.312</ele><time>2026-04-25T10:40:13.000Z</time><hdop>3.125</hdop><vdop>3.125</vdop><extensions><gom:speed>0.0</gom:speed></extensions></trkpt>
   <trkpt lat="59.0656032248" lon="29.9659169395"><ele>98.388</ele><time>2026-04-25T10:40:13.000Z</time><hdop>3.125</hdop><vdop>3.125</vdop><extensions><gom:speed>0.0</gom:speed></extensions></trkpt>
   <trkpt lat="59.0656071223" lon="29.9659215495"><ele>98.402</ele><time>2026-04-25T10:40:14.000Z</time><hdop>3.0</hdop><vdop>3.0</vdop><extensions><gom:speed>0.462</gom:speed></extensions></trkpt>
   <trkpt lat="59.0656113552" lon="29.9659284227"><ele>98.35</ele><time>2026-04-25T10:40:15.000Z</time><hdop>3.0</hdop><vdop>3.0</vdop><extensions><gom:speed>0.306</gom:speed></extensions></trkpt>
   <trkpt lat="59.0656175159" lon="29.9659377266"><ele>98.253</ele><time>2026-04-25T10:40:16.000Z</time><hdop>3.0</hdop><vdop>3.0</vdop><extensions><gom:speed>0.493</gom:speed></extensions></trkpt>
   <trkpt lat="59.0656175159" lon="29.9659377266"><ele>98.195</ele><time>2026-04-25T10:40:17.000Z</time><hdop>3.0</hdop><vdop>3.0</vdop><extensions><gom:speed>0.0</gom:speed></extensions></trkpt>
   <trkpt lat="59.065619779" lon="29.9659480363"><ele>98.211</ele><time>2026-04-25T10:40:18.000Z</time><hdop>3.0</hdop><vdop>3.0</vdop><extensions><gom:speed>0.237</gom:speed></extensions></trkpt>
   <trkpt lat="59.0656231318" lon="29.965952814"><ele>98.183</ele><time>2026-04-25T10:40:19.000Z</time><hdop>3.0</hdop><vdop>3.0</vdop><extensions><gom:speed>0.226</gom:speed></extensions></trkpt>
   <trkpt lat="59.0656231318" lon="29.965952814"><ele>98.166</ele><time>2026-04-25T10:40:20.000Z</time><hdop>3.0</hdop><vdop>3.0</vdop><extensions><gom:speed>0.0</gom:speed></extensions></trkpt>
   <trkpt lat="59.0656231318" lon="29.965952814"><ele>98.156</ele><time>2026-04-25T10:40:21.000Z</time><hdop>3.0</hdop><vdop>3.0</vdop><extensions><gom:speed>0.0</gom:speed></extensions></trkpt>
   <trkpt lat="59.0656231318" lon="29.965952814"><ele>98.15</ele><time>2026-04-25T10:40:22.000Z</time><hdop>3.0</hdop><vdop>3.0</vdop><extensions><gom:speed>0.0</gom:speed></extensions></trkpt>
   <trkpt lat="59.0656273227" lon="29.9659594357"><ele>98.112</ele><time>2026-04-25T10:40:23.000Z</time><hdop>3.0</hdop><vdop>3.0</vdop><extensions><gom:speed>0.164</gom:speed></extensions></trkpt>
   <trkpt lat="59.0656273227" lon="29.9659594357"><ele>98.09</ele><time>2026-04-25T10:40:24.000Z</time><hdop>3.0</hdop><vdop>3.0</vdop><extensions><gom:speed>0.0</gom:speed></extensions></trkpt>
   <trkpt lat="59.0656325195" lon="29.9659645487"><ele>98.057</ele><time>2026-04-25T10:40:25.000Z</time><hdop>3.0</hdop><vdop>3.0</vdop><extensions><gom:speed>0.217</gom:speed></extensions></trkpt>
   <trkpt lat="59.0656362914" lon="29.9659680691"><ele>98.017</ele><time>2026-04-25T10:40:26.000Z</time><hdop>3.0</hdop><vdop>3.0</vdop><extensions><gom:speed>0.213</gom:speed></extensions></trkpt>
   <trkpt lat="59.0656395603" lon="29.9659689073"><ele>97.987</ele><time>2026-04-25T10:40:27.000Z</time><hdop>3.0</hdop><vdop>3.0</vdop><extensions><gom:speed>0.151</gom:speed></extensions></trkpt>
   <trkpt lat="59.0656449247" lon="29.9659679853"><ele>97.959</ele><time>2026-04-25T10:40:28.000Z</time><hdop>3.0</hdop><vdop>3.0</vdop><extensions><gom:speed>0.278</gom:speed></extensions></trkpt>
   <trkpt lat="59.0656519236" lon="29.9659670633"><ele>97.952</ele><time>2026-04-25T10:40:29.000Z</time><hdop>3.0</hdop><vdop>3.0</vdop><extensions><gom:speed>0.434</gom:speed></extensions></trkpt>
   <trkpt lat="59.0656603474" lon="29.965965806"><ele>97.947</ele><time>2026-04-25T10:40:30.000Z</time><hdop>3.0</hdop><vdop>3.0</vdop><extensions><gom:speed>0.405</gom:speed></extensions></trkpt>
   <trkpt lat="59.0656682683" lon="29.9659617827"><ele>97.914</ele><time>2026-04-25T10:40:31.000Z</time><hdop>3.0</hdop><vdop>3.0</vdop><extensions><gom:speed>0.436</gom:speed></extensions></trkpt>
   <trkpt lat="59.0656763988" lon="29.9659568373"><ele>97.88</ele><time>2026-04-25T10:40:32.000Z</time><hdop>3.0</hdop><vdop>3.0</vdop><extensions><gom:speed>0.499</gom:speed></extensions></trkpt>
   <trkpt lat="59.0656763988" lon="29.9659568373"><ele>97.86</ele><time>2026-04-25T10:40:32.000Z</time><hdop>3.0</hdop><vdop>3.0</vdop><extensions><gom:speed>0.499</gom:speed></extensions></trkpt>
   <trkpt lat="59.0656839844" lon="29.9659541551"><ele>97.812</ele><time>2026-04-25T10:40:33.000Z</time><hdop>3.0</hdop><vdop>3.0</vdop><extensions><gom:speed>0.423</gom:speed></extensions></trkpt>
   <trkpt lat="59.0656915281" lon="29.9659545742"><ele>97.763</ele><time>2026-04-25T10:40:34.000Z</time><hdop>3.0</hdop><vdop>3.0</vdop><extensions><gom:speed>0.417</gom:speed></extensions></trkpt>
   <trkpt lat="59.0657010835" lon="29.965963962"><ele>97.752</ele><time>2026-04-25T10:40:35.000Z</time><hdop>3.0</hdop><vdop>3.0</vdop><extensions><gom:speed>0.472</gom:speed></extensions></trkpt>
   <trkpt lat="59.0657067832" lon="29.9659710028"><ele>97.737</ele><time>2026-04-25T10:40:36.000Z</time><hdop>3.0</hdop><vdop>3.0</vdop><extensions><gom:speed>0.413</gom:speed></extensions></trkpt>
   <trkpt lat="59.0657103036" lon="29.9659775406"><ele>97.722</ele><time>2026-04-25T10:40:37.000Z</time><hdop>3.0</hdop><vdop>3.0</vdop><extensions><gom:speed>0.288</gom:speed></extensions></trkpt>
   <trkpt lat="59.0657103036" lon="29.9659775406"><ele>97.712</ele><time>2026-04-25T10:40:38.000Z</time><hdop>3.0</hdop><vdop>3.0</vdop><extensions><gom:speed>0.0</gom:speed></extensions></trkpt>
   <trkpt lat="59.0657103036" lon="29.9659775406"><ele>97.707</ele><time>2026-04-25T10:40:39.000Z</time><hdop>3.0</hdop><vdop>3.0</vdop><extensions><gom:speed>0.0</gom:speed></extensions></trkpt>
   <trkpt lat="59.0657103036" lon="29.9659775406"><ele>97.703</ele><time>2026-04-25T10:40:40.000Z</time><hdop>3.0</hdop><vdop>3.0</vdop><extensions><gom:speed>0.0</gom:speed></extensions></trkpt>
   <trkpt lat="59.0657103036" lon="29.9659775406"><ele>97.701</ele><time>2026-04-25T10:40:41.000Z</time><hdop>3.0</hdop><vdop>3.0</vdop><extensions><gom:speed>0.0</gom:speed></extensions></trkpt>
   <trkpt lat="59.0657103036" lon="29.9659775406"><ele>97.7</ele><time>2026-04-25T10:40:42.000Z</time><hdop>3.0</hdop><vdop>3.0</vdop><extensions><gom:speed>0.0</gom:speed></extensions></trkpt>
   <trkpt lat="59.0657103036" lon="29.9659775406"><ele>97.699</ele><time>2026-04-25T10:40:43.000Z</time><hdop>3.0</hdop><vdop>3.0</vdop><extensions><gom:speed>0.0</gom:speed></extensions></trkpt>
   <trkpt lat="59.0657103036" lon="29.9659775406"><ele>97.699</ele><time>2026-04-25T10:40:44.000Z</time><hdop>3.0</hdop><vdop>3.0</vdop><extensions><gom:speed>0.0</gom:speed></extensions></trkpt>
   <trkpt lat="59.0657103036" lon="29.9659775406"><ele>97.699</ele><time>2026-04-25T10:40:45.000Z</time><hdop>3.0</hdop><vdop>3.0</vdop><extensions><gom:speed>0.0</gom:speed></extensions></trkpt>
   <trkpt lat="59.0657126086" lon="29.9659835756"><ele>97.666</ele><time>2026-04-25T10:40:46.000Z</time><hdop>3.0</hdop><vdop>3.0</vdop><extensions><gom:speed>0.168</gom:speed></extensions></trkpt>
   <trkpt lat="59.0657154165" lon="29.9659865093"><ele>97.653</ele><time>2026-04-25T10:40:47.000Z</time><hdop>3.0</hdop><vdop>3.0</vdop><extensions><gom:speed>0.162</gom:speed></extensions></trkpt>
   <trkpt lat="59.0657154165" lon="29.9659865093"><ele>97.645</ele><time>2026-04-25T10:40:48.000Z</time><hdop>3.0</hdop><vdop>3.0</vdop><extensions><gom:speed>0.0</gom:speed></extensions></trkpt>
   <trkpt lat="59.0657154165" lon="29.9659865093"><ele>97.641</ele><time>2026-04-25T10:40:49.000Z</time><hdop>3.0</hdop><vdop>3.0</vdop><extensions><gom:speed>0.0</gom:speed></extensions></trkpt>
   <trkpt lat="59.0657154165" lon="29.9659865093"><ele>97.638</ele><time>2026-04-25T10:40:50.000Z</time><hdop>3.0</hdop><vdop>3.0</vdop><extensions><gom:speed>0.0</gom:speed></extensions></trkpt>
   <trkpt lat="59.0657154165" lon="29.9659865093"><ele>97.636</ele><time>2026-04-25T10:40:51.000Z</time><hdop>3.0</hdop><vdop>3.0</vdop><extensions><gom:speed>0.0</gom:speed></extensions></trkpt>
   <trkpt lat="59.0657154165" lon="29.9659865093"><ele>97.635</ele><time>2026-04-25T10:40:52.000Z</time><hdop>3.0</hdop><vdop>3.0</vdop><extensions><gom:speed>0.0</gom:speed></extensions></trkpt>
   <trkpt lat="59.0657154165" lon="29.9659865093"><ele>97.635</ele><time>2026-04-25T10:40:52.000Z</time><hdop>3.0</hdop><vdop>3.0</vdop><extensions><gom:speed>0.0</gom:speed></extensions></trkpt>
   <trkpt lat="59.0657154165" lon="29.9659865093"><ele>97.634</ele><time>2026-04-25T10:40:53.000Z</time><hdop>3.0</hdop><vdop>3.0</vdop><extensions><gom:speed>0.0</gom:speed></extensions></trkpt>
   <trkpt lat="59.0657154165" lon="29.9659865093"><ele>97.634</ele><time>2026-04-25T10:40:54.000Z</time><hdop>3.0</hdop><vdop>3.0</vdop><extensions><gom:speed>0.0</gom:speed></extensions></trkpt>
   <trkpt lat="59.0657154165" lon="29.9659865093"><ele>97.634</ele><time>2026-04-25T10:40:55.000Z</time><hdop>3.0</hdop><vdop>3.0</vdop><extensions><gom:speed>0.0</gom:speed></extensions></trkpt>
   <trkpt lat="59.0657154165" lon="29.9659865093"><ele>97.634</ele><time>2026-04-25T10:40:56.000Z</time><hdop>3.0</hdop><vdop>3.0</vdop><extensions><gom:speed>0.0</gom:speed></extensions></trkpt>
   <trkpt lat="59.0657154165" lon="29.9659865093"><ele>97.634</ele><time>2026-04-25T10:40:57.000Z</time><hdop>3.0</hdop><vdop>3.0</vdop><extensions><gom:speed>0.0</gom:speed></extensions></trkpt>
   <trkpt lat="59.0657154165" lon="29.9659865093"><ele>97.634</ele><time>2026-04-25T10:40:58.000Z</time><hdop>3.0</hdop><vdop>3.0</vdop><extensions><gom:speed>0.0</gom:speed></extensions></trkpt>
   <trkpt lat="59.0657154165" lon="29.9659865093"><ele>97.634</ele><time>2026-04-25T10:40:59.000Z</time><hdop>3.0</hdop><vdop>3.0</vdop><extensions><gom:speed>0.0</gom:speed></extensions></trkpt>
   <trkpt lat="59.0657154165" lon="29.9659865093"><ele>97.634</ele><time>2026-04-25T10:41:00.000Z</time><hdop>3.0</hdop><vdop>3.0</vdop><extensions><gom:speed>0.0</gom:speed></extensions></trkpt>
   <trkpt lat="59.0657154165" lon="29.9659865093"><ele>97.634</ele><time>2026-04-25T10:41:01.000Z</time><hdop>3.0</hdop><vdop>3.0</vdop><extensions><gom:speed>0.0</gom:speed></extensions></trkpt>
   <trkpt lat="59.0657154165" lon="29.9659865093"><ele>97.634</ele><time>2026-04-25T10:41:02.000Z</time><hdop>3.0</hdop><vdop>3.0</vdop><extensions><gom:speed>0.0</gom:speed></extensions></trkpt>
   <trkpt lat="59.0657154165" lon="29.9659865093"><ele>97.634</ele><time>2026-04-25T10:41:03.000Z</time><hdop>3.0</hdop><vdop>3.0</vdop><extensions><gom:speed>0.0</gom:speed></extensions></trkpt>
   <trkpt lat="59.0657219963" lon="29.9659929633"><ele>97.568</ele><time>2026-04-25T10:41:04.000Z</time><hdop>3.0</hdop><vdop>3.0</vdop><extensions><gom:speed>0.443</gom:speed></extensions></trkpt>
   <trkpt lat="59.0657326413" lon="29.9660007585"><ele>97.539</ele><time>2026-04-25T10:41:05.000Z</time><hdop>3.25</hdop><vdop>3.25</vdop><extensions><gom:speed>0.376</gom:speed></extensions></trkpt>
   <trkpt lat="59.0657326413" lon="29.9660007585"><ele>97.522</ele><time>2026-04-25T10:41:06.000Z</time><hdop>3.25</hdop><vdop>3.25</vdop><extensions><gom:speed>0.0</gom:speed></extensions></trkpt>
   <trkpt lat="59.0657413585" lon="29.9660096433"><ele>97.47</ele><time>2026-04-25T10:41:07.000Z</time><hdop>3.625</hdop><vdop>3.625</vdop><extensions><gom:speed>0.384</gom:speed></extensions></trkpt>
   <trkpt lat="59.0657481898" lon="29.9660121579"><ele>97.34</ele><time>2026-04-25T10:41:08.000Z</time><hdop>3.5</hdop><vdop>3.5</vdop><extensions><gom:speed>0.383</gom:speed></extensions></trkpt>
   <trkpt lat="59.0657606369" lon="29.9660191149"><ele>97.263</ele><time>2026-04-25T10:41:09.000Z</time><hdop>3.5</hdop><vdop>3.5</vdop><extensions><gom:speed>0.783</gom:speed></extensions></trkpt>
   <trkpt lat="59.0657705275" lon="29.9660247308"><ele>97.135</ele><time>2026-04-25T10:41:10.000Z</time><hdop>3.25</hdop><vdop>3.25</vdop><extensions><gom:speed>0.594</gom:speed></extensions></trkpt>
   <trkpt lat="59.0657705275" lon="29.9660247308"><ele>97.058</ele><time>2026-04-25T10:41:11.000Z</time><hdop>3.25</hdop><vdop>3.25</vdop><extensions><gom:speed>0.0</gom:speed></extensions></trkpt>
   <trkpt lat="59.0657759339" lon="29.9660269939"><ele>97.052</ele><time>2026-04-25T10:41:12.000Z</time><hdop>3.25</hdop><vdop>3.25</vdop><extensions><gom:speed>0.246</gom:speed></extensions></trkpt>
   <trkpt lat="59.0657759339" lon="29.9660269939"><ele>97.049</ele><time>2026-04-25T10:41:12.000Z</time><hdop>3.25</hdop><vdop>3.25</vdop><extensions><gom:speed>0.246</gom:speed></extensions></trkpt>
   <trkpt lat="59.0657824718" lon="29.9660293408"><ele>97.045</ele><time>2026-04-25T10:41:13.000Z</time><hdop>3.375</hdop><vdop>3.375</vdop><extensions><gom:speed>0.324</gom:speed></extensions></trkpt>
   <trkpt lat="59.065790686" lon="29.9660327774"><ele>97.047</ele><time>2026-04-25T10:41:14.000Z</time><hdop>3.5</hdop><vdop>3.5</vdop><extensions><gom:speed>0.359</gom:speed></extensions></trkpt>
   <trkpt lat="59.0657996966" lon="29.966036214"><ele>97.021</ele><time>2026-04-25T10:41:15.000Z</time><hdop>3.562</hdop><vdop>3.562</vdop><extensions><gom:speed>0.601</gom:speed></extensions></trkpt>
   <trkpt lat="59.065810635" lon="29.9660430033"><ele>97.049</ele><time>2026-04-25T10:41:16.000Z</time><hdop>3.937</hdop><vdop>3.937</vdop><extensions><gom:speed>0.452</gom:speed></extensions></trkpt>
   <trkpt lat="59.0658195198" lon="29.9660480325"><ele>97.055</ele><time>2026-04-25T10:41:17.000Z</time><hdop>3.937</hdop><vdop>3.937</vdop><extensions><gom:speed>0.503</gom:speed></extensions></trkpt>
   <trkpt lat="59.0658305839" lon="29.9660544865"><ele>97.089</ele><time>2026-04-25T10:41:18.000Z</time><hdop>4.062</hdop><vdop>4.062</vdop><extensions><gom:speed>0.736</gom:speed></extensions></trkpt>
   <trkpt lat="59.0658537179" lon="29.9660712503"><ele>97.169</ele><time>2026-04-25T10:41:19.000Z</time><hdop>4.062</hdop><vdop>4.062</vdop><extensions><gom:speed>0.793</gom:speed></extensions></trkpt>
   <trkpt lat="59.0658732059" lon="29.9660785426"><ele>97.314</ele><time>2026-04-25T10:41:20.000Z</time><hdop>4.187</hdop><vdop>4.187</vdop><extensions><gom:speed>0.699</gom:speed></extensions></trkpt>
   <trkpt lat="59.0658841862" lon="29.966069993"><ele>97.498</ele><time>2026-04-25T10:41:21.000Z</time><hdop>4.312</hdop><vdop>4.312</vdop><extensions><gom:speed>0.667</gom:speed></extensions></trkpt>
   <trkpt lat="59.0659052666" lon="29.9660542351"><ele>97.814</ele><time>2026-04-25T10:41:22.000Z</time><hdop>4.062</hdop><vdop>4.062</vdop><extensions><gom:speed>0.588</gom:speed></extensions></trkpt>
   <trkpt lat="59.0659151573" lon="29.9660469428"><ele>98.042</ele><time>2026-04-25T10:41:23.000Z</time><hdop>4.0</hdop><vdop>4.0</vdop><extensions><gom:speed>0.442</gom:speed></extensions></trkpt>
   <trkpt lat="59.0659291132" lon="29.9660422489"><ele>98.113</ele><time>2026-04-25T10:41:24.000Z</time><hdop>3.875</hdop><vdop>3.875</vdop><extensions><gom:speed>0.225</gom:speed></extensions></trkpt>
   <trkpt lat="59.065945877" lon="29.9660404887"><ele>98.219</ele><time>2026-04-25T10:41:25.000Z</time><hdop>3.625</hdop><vdop>3.625</vdop><extensions><gom:speed>0.31</gom:speed></extensions></trkpt>
   <trkpt lat="59.065959749" lon="29.9660386447"><ele>98.381</ele><time>2026-04-25T10:41:26.000Z</time><hdop>3.625</hdop><vdop>3.625</vdop><extensions><gom:speed>0.369</gom:speed></extensions></trkpt>
   <trkpt lat="59.0659678375" lon="29.9660368007"><ele>98.481</ele><time>2026-04-25T10:41:27.000Z</time><hdop>4.25</hdop><vdop>4.25</vdop><extensions><gom:speed>0.326</gom:speed></extensions></trkpt>
   <trkpt lat="59.0659767643" lon="29.9660382256"><ele>98.344</ele><time>2026-04-25T10:41:28.000Z</time><hdop>4.0</hdop><vdop>4.0</vdop><extensions><gom:speed>0.461</gom:speed></extensions></trkpt>
   <trkpt lat="59.0659866549" lon="29.9660370522"><ele>98.337</ele><time>2026-04-25T10:41:29.000Z</time><hdop>3.687</hdop><vdop>3.687</vdop><extensions><gom:speed>0.563</gom:speed></extensions></trkpt>
   <trkpt lat="59.0659939472" lon="29.9660375551"><ele>98.377</ele><time>2026-04-25T10:41:30.000Z</time><hdop>4.062</hdop><vdop>4.062</vdop><extensions><gom:speed>0.228</gom:speed></extensions></trkpt>
   <trkpt lat="59.0659984734" lon="29.9660414946"><ele>98.445</ele><time>2026-04-25T10:41:31.000Z</time><hdop>4.25</hdop><vdop>4.25</vdop><extensions><gom:speed>0.233</gom:speed></extensions></trkpt>
   <trkpt lat="59.0660047598" lon="29.966045937"><ele>98.552</ele><time>2026-04-25T10:41:32.000Z</time><hdop>4.312</hdop><vdop>4.312</vdop><extensions><gom:speed>0.377</gom:speed></extensions></trkpt>
   <trkpt lat="59.0660129741" lon="29.9660536483"><ele>98.624</ele><time>2026-04-25T10:41:33.000Z</time><hdop>4.375</hdop><vdop>4.375</vdop><extensions><gom:speed>0.528</gom:speed></extensions></trkpt>
   <trkpt lat="59.0660129741" lon="29.9660536483"><ele>98.667</ele><time>2026-04-25T10:41:33.000Z</time><hdop>4.375</hdop><vdop>4.375</vdop><extensions><gom:speed>0.528</gom:speed></extensions></trkpt>
   <trkpt lat="59.0660226552" lon="29.9660597671"><ele>98.652</ele><time>2026-04-25T10:41:34.000Z</time><hdop>4.437</hdop><vdop>4.437</vdop><extensions><gom:speed>0.745</gom:speed></extensions></trkpt>
   <trkpt lat="59.0660311628" lon="29.9660628684"><ele>98.575</ele><time>2026-04-25T10:41:35.000Z</time><hdop>4.625</hdop><vdop>4.625</vdop><extensions><gom:speed>0.61</gom:speed></extensions></trkpt>
   <trkpt lat="59.0660391256" lon="29.9660662212"><ele>98.468</ele><time>2026-04-25T10:41:36.000Z</time><hdop>4.75</hdop><vdop>4.75</vdop><extensions><gom:speed>0.689</gom:speed></extensions></trkpt>
   <trkpt lat="59.0660462922" lon="29.9660642933"><ele>98.37</ele><time>2026-04-25T10:41:37.000Z</time><hdop>4.625</hdop><vdop>4.625</vdop><extensions><gom:speed>0.659</gom:speed></extensions></trkpt>
   <trkpt lat="59.0660530396" lon="29.9660622817"><ele>98.259</ele><time>2026-04-25T10:41:38.000Z</time><hdop>4.687</hdop><vdop>4.687</vdop><extensions><gom:speed>0.715</gom:speed></extensions></trkpt>
   <trkpt lat="59.0660583202" lon="29.9660678976"><ele>98.14</ele><time>2026-04-25T10:41:39.000Z</time><hdop>4.437</hdop><vdop>4.437</vdop><extensions><gom:speed>0.464</gom:speed></extensions></trkpt>
   <trkpt lat="59.0660619244" lon="29.9660761956"><ele>98.022</ele><time>2026-04-25T10:41:40.000Z</time><hdop>4.5</hdop><vdop>4.5</vdop><extensions><gom:speed>0.35</gom:speed></extensions></trkpt>
   <trkpt lat="59.0660676241" lon="29.9660829012"><ele>97.892</ele><time>2026-04-25T10:41:41.000Z</time><hdop>4.312</hdop><vdop>4.312</vdop><extensions><gom:speed>0.432</gom:speed></extensions></trkpt>
   <trkpt lat="59.0660738686" lon="29.96608902"><ele>97.764</ele><time>2026-04-25T10:41:42.000Z</time><hdop>4.187</hdop><vdop>4.187</vdop><extensions><gom:speed>0.437</gom:speed></extensions></trkpt>
   <trkpt lat="59.0660795683" lon="29.9660977371"><ele>97.654</ele><time>2026-04-25T10:41:43.000Z</time><hdop>4.125</hdop><vdop>4.125</vdop><extensions><gom:speed>0.481</gom:speed></extensions></trkpt>
   <trkpt lat="59.0660841784" lon="29.9661095556"><ele>97.52</ele><time>2026-04-25T10:41:44.000Z</time><hdop>3.75</hdop><vdop>3.75</vdop><extensions><gom:speed>0.414</gom:speed></extensions></trkpt>
   <trkpt lat="59.0660908839" lon="29.9661194463"><ele>97.376</ele><time>2026-04-25T10:41:45.000Z</time><hdop>3.75</hdop><vdop>3.75</vdop><extensions><gom:speed>0.456</gom:speed></extensions></trkpt>
   <trkpt lat="59.0660986371" lon="29.9661280796"><ele>97.246</ele><time>2026-04-25T10:41:46.000Z</time><hdop>3.75</hdop><vdop>3.75</vdop><extensions><gom:speed>0.54</gom:speed></extensions></trkpt>
   <trkpt lat="59.0661065161" lon="29.9661356233"><ele>97.116</ele><time>2026-04-25T10:41:47.000Z</time><hdop>3.5</hdop><vdop>3.5</vdop><extensions><gom:speed>0.576</gom:speed></extensions></trkpt>
   <trkpt lat="59.0661152333" lon="29.9661425803"><ele>96.931</ele><time>2026-04-25T10:41:48.000Z</time><hdop>3.375</hdop><vdop>3.375</vdop><extensions><gom:speed>0.442</gom:speed></extensions></trkpt>
   <trkpt lat="59.066123699" lon="29.9661518004"><ele>96.745</ele><time>2026-04-25T10:41:49.000Z</time><hdop>3.187</hdop><vdop>3.187</vdop><extensions><gom:speed>0.518</gom:speed></extensions></trkpt>
   <trkpt lat="59.066131578" lon="29.9661590927"><ele>96.584</ele><time>2026-04-25T10:41:50.000Z</time><hdop>3.062</hdop><vdop>3.062</vdop><extensions><gom:speed>0.382</gom:speed></extensions></trkpt>
   <trkpt lat="59.0661379483" lon="29.9661624454"><ele>96.443</ele><time>2026-04-25T10:41:51.000Z</time><hdop>3.0</hdop><vdop>3.0</vdop><extensions><gom:speed>0.314</gom:speed></extensions></trkpt>
   <trkpt lat="59.0661428936" lon="29.9661660496"><ele>96.383</ele><time>2026-04-25T10:41:52.000Z</time><hdop>3.0</hdop><vdop>3.0</vdop><extensions><gom:speed>0.302</gom:speed></extensions></trkpt>
   <trkpt lat="59.0661428936" lon="29.9661660496"><ele>96.346</ele><time>2026-04-25T10:41:52.000Z</time><hdop>3.0</hdop><vdop>3.0</vdop><extensions><gom:speed>0.302</gom:speed></extensions></trkpt>
   <trkpt lat="59.0661485095" lon="29.9661720008"><ele>96.388</ele><time>2026-04-25T10:41:53.000Z</time><hdop>3.0</hdop><vdop>3.0</vdop><extensions><gom:speed>0.352</gom:speed></extensions></trkpt>
   <trkpt lat="59.0661562627" lon="29.9661789578"><ele>96.49</ele><time>2026-04-25T10:41:54.000Z</time><hdop>3.0</hdop><vdop>3.0</vdop><extensions><gom:speed>0.496</gom:speed></extensions></trkpt>
   <trkpt lat="59.0661640998" lon="29.9661893513"><ele>96.576</ele><time>2026-04-25T10:41:55.000Z</time><hdop>3.0</hdop><vdop>3.0</vdop><extensions><gom:speed>0.592</gom:speed></extensions></trkpt>
   <trkpt lat="59.0661706796" lon="29.9661984038"><ele>96.649</ele><time>2026-04-25T10:41:56.000Z</time><hdop>3.0</hdop><vdop>3.0</vdop><extensions><gom:speed>0.519</gom:speed></extensions></trkpt>
   <trkpt lat="59.0661768822" lon="29.9662053608"><ele>96.706</ele><time>2026-04-25T10:41:57.000Z</time><hdop>3.0</hdop><vdop>3.0</vdop><extensions><gom:speed>0.485</gom:speed></extensions></trkpt>
   <trkpt lat="59.0661836296" lon="29.9662116472"><ele>96.794</ele><time>2026-04-25T10:41:58.000Z</time><hdop>3.0</hdop><vdop>3.0</vdop><extensions><gom:speed>0.592</gom:speed></extensions></trkpt>
   <trkpt lat="59.0661925145" lon="29.9662199453"><ele>96.877</ele><time>2026-04-25T10:41:59.000Z</time><hdop>3.0</hdop><vdop>3.0</vdop><extensions><gom:speed>0.635</gom:speed></extensions></trkpt>
   <trkpt lat="59.0662004773" lon="29.9662295007"><ele>96.952</ele><time>2026-04-25T10:42:00.000Z</time><hdop>3.0</hdop><vdop>3.0</vdop><extensions><gom:speed>0.497</gom:speed></extensions></trkpt>
   <trkpt lat="59.0662087334" lon="29.9662414868"><ele>97.028</ele><time>2026-04-25T10:42:01.000Z</time><hdop>3.0</hdop><vdop>3.0</vdop><extensions><gom:speed>0.612</gom:speed></extensions></trkpt>
   <trkpt lat="59.0662166963" lon="29.9662521318"><ele>97.079</ele><time>2026-04-25T10:42:02.000Z</time><hdop>3.0</hdop><vdop>3.0</vdop><extensions><gom:speed>0.602</gom:speed></extensions></trkpt>
   <trkpt lat="59.0662262097" lon="29.9662601784"><ele>97.086</ele><time>2026-04-25T10:42:03.000Z</time><hdop>3.0</hdop><vdop>3.0</vdop><extensions><gom:speed>0.661</gom:speed></extensions></trkpt>
   <trkpt lat="59.0662354717" lon="29.9662690632"><ele>97.036</ele><time>2026-04-25T10:42:04.000Z</time><hdop>3.0</hdop><vdop>3.0</vdop><extensions><gom:speed>0.603</gom:speed></extensions></trkpt>
   <trkpt lat="59.0662457395" lon="29.9662754335"><ele>96.952</ele><time>2026-04-25T10:42:05.000Z</time><hdop>3.0</hdop><vdop>3.0</vdop><extensions><gom:speed>0.646</gom:speed></extensions></trkpt>
   <trkpt lat="59.0662544567" lon="29.9662803788"><ele>96.909</ele><time>2026-04-25T10:42:06.000Z</time><hdop>3.0</hdop><vdop>3.0</vdop><extensions><gom:speed>0.33</gom:speed></extensions></trkpt>
   <trkpt lat="59.066259905" lon="29.9662859109"><ele>96.925</ele><time>2026-04-25T10:42:07.000Z</time><hdop>3.0</hdop><vdop>3.0</vdop><extensions><gom:speed>0.281</gom:speed></extensions></trkpt>
   <trkpt lat="59.0662658561" lon="29.9662990705"><ele>97.119</ele><time>2026-04-25T10:42:08.000Z</time><hdop>3.0</hdop><vdop>3.0</vdop><extensions><gom:speed>0.6</gom:speed></extensions></trkpt>
   <trkpt lat="59.0662730646" lon="29.9663132359"><ele>97.328</ele><time>2026-04-25T10:42:09.000Z</time><hdop>3.0</hdop><vdop>3.0</vdop><extensions><gom:speed>0.612</gom:speed></extensions></trkpt>
   <trkpt lat="59.0662730646" lon="29.9663132359"><ele>97.453</ele><time>2026-04-25T10:42:10.000Z</time><hdop>3.0</hdop><vdop>3.0</vdop><extensions><gom:speed>0.0</gom:speed></extensions></trkpt>
   <trkpt lat="59.0662730646" lon="29.9663132359"><ele>97.528</ele><time>2026-04-25T10:42:11.000Z</time><hdop>3.0</hdop><vdop>3.0</vdop><extensions><gom:speed>0.0</gom:speed></extensions></trkpt>
   <trkpt lat="59.0662730646" lon="29.9663132359"><ele>97.573</ele><time>2026-04-25T10:42:12.000Z</time><hdop>3.0</hdop><vdop>3.0</vdop><extensions><gom:speed>0.0</gom:speed></extensions></trkpt>
   <trkpt lat="59.0662730646" lon="29.9663132359"><ele>97.599</ele><time>2026-04-25T10:42:12.000Z</time><hdop>3.0</hdop><vdop>3.0</vdop><extensions><gom:speed>0.0</gom:speed></extensions></trkpt>
   <trkpt lat="59.0662730646" lon="29.9663132359"><ele>97.615</ele><time>2026-04-25T10:42:13.000Z</time><hdop>3.0</hdop><vdop>3.0</vdop><extensions><gom:speed>0.0</gom:speed></extensions></trkpt>
   <trkpt lat="59.0662730646" lon="29.9663132359"><ele>97.625</ele><time>2026-04-25T10:42:14.000Z</time><hdop>3.0</hdop><vdop>3.0</vdop><extensions><gom:speed>0.0</gom:speed></extensions></trkpt>
   <trkpt lat="59.0662730646" lon="29.9663132359"><ele>97.63</ele><time>2026-04-25T10:42:15.000Z</time><hdop>3.0</hdop><vdop>3.0</vdop><extensions><gom:speed>0.0</gom:speed></extensions></trkpt>
   <trkpt lat="59.0662730646" lon="29.9663132359"><ele>97.634</ele><time>2026-04-25T10:42:16.000Z</time><hdop>3.0</hdop><vdop>3.0</vdop><extensions><gom:speed>0.0</gom:speed></extensions></trkpt>
   <trkpt lat="59.0662730646" lon="29.9663132359"><ele>97.636</ele><time>2026-04-25T10:42:17.000Z</time><hdop>3.0</hdop><vdop>3.0</vdop><extensions><gom:speed>0.0</gom:speed></extensions></trkpt>
   <trkpt lat="59.0662730646" lon="29.9663132359"><ele>97.637</ele><time>2026-04-25T10:42:18.000Z</time><hdop>3.0</hdop><vdop>3.0</vdop><extensions><gom:speed>0.0</gom:speed></extensions></trkpt>
   <trkpt lat="59.0662730646" lon="29.9663132359"><ele>97.638</ele><time>2026-04-25T10:42:19.000Z</time><hdop>3.0</hdop><vdop>3.0</vdop><extensions><gom:speed>0.0</gom:speed></extensions></trkpt>
   <trkpt lat="59.0662730646" lon="29.9663132359"><ele>97.638</ele><time>2026-04-25T10:42:20.000Z</time><hdop>3.0</hdop><vdop>3.0</vdop><extensions><gom:speed>0.0</gom:speed></extensions></trkpt>
   <trkpt lat="59.0662730646" lon="29.9663132359"><ele>97.639</ele><time>2026-04-25T10:42:21.000Z</time><hdop>3.0</hdop><vdop>3.0</vdop><extensions><gom:speed>0.0</gom:speed></extensions></trkpt>
   <trkpt lat="59.0662730646" lon="29.9663132359"><ele>97.639</ele><time>2026-04-25T10:42:22.000Z</time><hdop>3.0</hdop><vdop>3.0</vdop><extensions><gom:speed>0.0</gom:speed></extensions></trkpt>
   <trkpt lat="59.0662730646" lon="29.9663132359"><ele>97.639</ele><time>2026-04-25T10:42:23.000Z</time><hdop>3.0</hdop><vdop>3.0</vdop><extensions><gom:speed>0.0</gom:speed></extensions></trkpt>
   <trkpt lat="59.0662733998" lon="29.9663139902"><ele>97.695</ele><time>2026-04-25T10:42:24.000Z</time><hdop>3.312</hdop><vdop>3.312</vdop><extensions><gom:speed>0.234</gom:speed></extensions></trkpt>
   <trkpt lat="59.0662757887" lon="29.9663120624"><ele>97.808</ele><time>2026-04-25T10:42:25.000Z</time><hdop>3.187</hdop><vdop>3.187</vdop><extensions><gom:speed>0.324</gom:speed></extensions></trkpt>
   <trkpt lat="59.0662757887" lon="29.9663120624"><ele>97.876</ele><time>2026-04-25T10:42:26.000Z</time><hdop>3.187</hdop><vdop>3.187</vdop><extensions><gom:speed>0.0</gom:speed></extensions></trkpt>
   <trkpt lat="59.0662757887" lon="29.9663120624"><ele>97.916</ele><time>2026-04-25T10:42:27.000Z</time><hdop>3.187</hdop><vdop>3.187</vdop><extensions><gom:speed>0.0</gom:speed></extensions></trkpt>
   <trkpt lat="59.0662757887" lon="29.9663120624"><ele>97.94</ele><time>2026-04-25T10:42:28.000Z</time><hdop>3.187</hdop><vdop>3.187</vdop><extensions><gom:speed>0.0</gom:speed></extensions></trkpt>
   <trkpt lat="59.0662757887" lon="29.9663120624"><ele>97.954</ele><time>2026-04-25T10:42:29.000Z</time><hdop>3.187</hdop><vdop>3.187</vdop><extensions><gom:speed>0.0</gom:speed></extensions></trkpt>
   <trkpt lat="59.0662757887" lon="29.9663120624"><ele>97.963</ele><time>2026-04-25T10:42:30.000Z</time><hdop>3.187</hdop><vdop>3.187</vdop><extensions><gom:speed>0.0</gom:speed></extensions></trkpt>
   <trkpt lat="59.0662757887" lon="29.9663120624"><ele>97.968</ele><time>2026-04-25T10:42:31.000Z</time><hdop>3.187</hdop><vdop>3.187</vdop><extensions><gom:speed>0.0</gom:speed></extensions></trkpt>
   <trkpt lat="59.0662757887" lon="29.9663120624"><ele>97.971</ele><time>2026-04-25T10:42:32.000Z</time><hdop>3.187</hdop><vdop>3.187</vdop><extensions><gom:speed>0.0</gom:speed></extensions></trkpt>
   <trkpt lat="59.0662757887" lon="29.9663120624"><ele>97.973</ele><time>2026-04-25T10:42:32.000Z</time><hdop>3.187</hdop><vdop>3.187</vdop><extensions><gom:speed>0.0</gom:speed></extensions></trkpt>
   <trkpt lat="59.0662757887" lon="29.9663120624"><ele>97.974</ele><time>2026-04-25T10:42:33.000Z</time><hdop>3.187</hdop><vdop>3.187</vdop><extensions><gom:speed>0.0</gom:speed></extensions></trkpt>
   <trkpt lat="59.0662757887" lon="29.9663120624"><ele>97.975</ele><time>2026-04-25T10:42:34.000Z</time><hdop>3.187</hdop><vdop>3.187</vdop><extensions><gom:speed>0.0</gom:speed></extensions></trkpt>
   <trkpt lat="59.0662757887" lon="29.9663120624"><ele>97.975</ele><time>2026-04-25T10:42:35.000Z</time><hdop>3.187</hdop><vdop>3.187</vdop><extensions><gom:speed>0.0</gom:speed></extensions></trkpt>
   <trkpt lat="59.0662757887" lon="29.9663120624"><ele>97.975</ele><time>2026-04-25T10:42:36.000Z</time><hdop>3.187</hdop><vdop>3.187</vdop><extensions><gom:speed>0.0</gom:speed></extensions></trkpt>
   <trkpt lat="59.0662757887" lon="29.9663120624"><ele>97.976</ele><time>2026-04-25T10:42:37.000Z</time><hdop>3.187</hdop><vdop>3.187</vdop><extensions><gom:speed>0.0</gom:speed></extensions></trkpt>
   <trkpt lat="59.0662757887" lon="29.9663120624"><ele>97.976</ele><time>2026-04-25T10:42:38.000Z</time><hdop>3.187</hdop><vdop>3.187</vdop><extensions><gom:speed>0.0</gom:speed></extensions></trkpt>
   <trkpt lat="59.0662757887" lon="29.9663120624"><ele>97.976</ele><time>2026-04-25T10:42:39.000Z</time><hdop>3.187</hdop><vdop>3.187</vdop><extensions><gom:speed>0.0</gom:speed></extensions></trkpt>
   <trkpt lat="59.0662757887" lon="29.9663120624"><ele>97.976</ele><time>2026-04-25T10:42:40.000Z</time><hdop>3.187</hdop><vdop>3.187</vdop><extensions><gom:speed>0.0</gom:speed></extensions></trkpt>
   <trkpt lat="59.0662757887" lon="29.9663120624"><ele>97.976</ele><time>2026-04-25T10:42:41.000Z</time><hdop>3.187</hdop><vdop>3.187</vdop><extensions><gom:speed>0.0</gom:speed></extensions></trkpt>
   <trkpt lat="59.0662757887" lon="29.9663120624"><ele>97.976</ele><time>2026-04-25T10:42:42.000Z</time><hdop>3.187</hdop><vdop>3.187</vdop><extensions><gom:speed>0.0</gom:speed></extensions></trkpt>
   <trkpt lat="59.0662757887" lon="29.9663120624"><ele>97.976</ele><time>2026-04-25T10:42:43.000Z</time><hdop>3.187</hdop><vdop>3.187</vdop><extensions><gom:speed>0.0</gom:speed></extensions></trkpt>
   <trkpt lat="59.0662757887" lon="29.9663120624"><ele>97.976</ele><time>2026-04-25T10:42:44.000Z</time><hdop>3.187</hdop><vdop>3.187</vdop><extensions><gom:speed>0.0</gom:speed></extensions></trkpt>
   <trkpt lat="59.0662757887" lon="29.9663120624"><ele>97.976</ele><time>2026-04-25T10:42:45.000Z</time><hdop>3.187</hdop><vdop>3.187</vdop><extensions><gom:speed>0.0</gom:speed></extensions></trkpt>
   <trkpt lat="59.0662819075" lon="29.9663131521"><ele>97.938</ele><time>2026-04-25T10:42:46.000Z</time><hdop>3.375</hdop><vdop>3.375</vdop><extensions><gom:speed>0.375</gom:speed></extensions></trkpt>
   <trkpt lat="59.0662819075" lon="29.9663131521"><ele>97.915</ele><time>2026-04-25T10:42:47.000Z</time><hdop>3.375</hdop><vdop>3.375</vdop><extensions><gom:speed>0.0</gom:speed></extensions></trkpt>
   <trkpt lat="59.0662852602" lon="29.9663156666"><ele>97.875</ele><time>2026-04-25T10:42:48.000Z</time><hdop>3.437</hdop><vdop>3.437</vdop><extensions><gom:speed>0.192</gom:speed></extensions></trkpt>
   <trkpt lat="59.0662933488" lon="29.9663198576"><ele>97.816</ele><time>2026-04-25T10:42:49.000Z</time><hdop>3.437</hdop><vdop>3.437</vdop><extensions><gom:speed>0.364</gom:speed></extensions></trkpt>
   <trkpt lat="59.0663008087" lon="29.9663238809"><ele>97.762</ele><time>2026-04-25T10:42:50.000Z</time><hdop>3.312</hdop><vdop>3.312</vdop><extensions><gom:speed>0.467</gom:speed></extensions></trkpt>
   <trkpt lat="59.0663059635" lon="29.9663317599"><ele>97.704</ele><time>2026-04-25T10:42:51.000Z</time><hdop>3.062</hdop><vdop>3.062</vdop><extensions><gom:speed>0.506</gom:speed></extensions></trkpt>
   <trkpt lat="59.0663099868" lon="29.9663417343"><ele>97.647</ele><time>2026-04-25T10:42:52.000Z</time><hdop>3.0</hdop><vdop>3.0</vdop><extensions><gom:speed>0.476</gom:speed></extensions></trkpt>
   <trkpt lat="59.0663099868" lon="29.9663417343"><ele>97.613</ele><time>2026-04-25T10:42:52.000Z</time><hdop>3.0</hdop><vdop>3.0</vdop><extensions><gom:speed>0.476</gom:speed></extensions></trkpt>
   <trkpt lat="59.0663135072" lon="29.9663509544"><ele>97.698</ele><time>2026-04-25T10:42:53.000Z</time><hdop>3.0</hdop><vdop>3.0</vdop><extensions><gom:speed>0.531</gom:speed></extensions></trkpt>
   <trkpt lat="59.0663151836" lon="29.9663612642"><ele>97.853</ele><time>2026-04-25T10:42:54.000Z</time><hdop>3.0</hdop><vdop>3.0</vdop><extensions><gom:speed>0.632</gom:speed></extensions></trkpt>
   <trkpt lat="59.0663164409" lon="29.9663704004"><ele>98.027</ele><time>2026-04-25T10:42:55.000Z</time><hdop>3.0</hdop><vdop>3.0</vdop><extensions><gom:speed>0.421</gom:speed></extensions></trkpt>
   <trkpt lat="59.0663193746" lon="29.9663765192"><ele>98.21</ele><time>2026-04-25T10:42:56.000Z</time><hdop>3.0</hdop><vdop>3.0</vdop><extensions><gom:speed>0.394</gom:speed></extensions></trkpt>
   <trkpt lat="59.0663287623" lon="29.9663801235"><ele>98.387</ele><time>2026-04-25T10:42:57.000Z</time><hdop>3.0</hdop><vdop>3.0</vdop><extensions><gom:speed>0.582</gom:speed></extensions></trkpt>
   <trkpt lat="59.0663359707" lon="29.9663869966"><ele>98.598</ele><time>2026-04-25T10:42:58.000Z</time><hdop>3.0</hdop><vdop>3.0</vdop><extensions><gom:speed>0.462</gom:speed></extensions></trkpt>
   <trkpt lat="59.0663427182" lon="29.9663949594"><ele>98.771</ele><time>2026-04-25T10:42:59.000Z</time><hdop>3.25</hdop><vdop>3.25</vdop><extensions><gom:speed>0.475</gom:speed></extensions></trkpt>
   <trkpt lat="59.0663481664" lon="29.966394708"><ele>98.932</ele><time>2026-04-25T10:43:00.000Z</time><hdop>3.75</hdop><vdop>3.75</vdop><extensions><gom:speed>0.267</gom:speed></extensions></trkpt>
   <trkpt lat="59.0663570931" lon="29.9663947918"><ele>98.982</ele><time>2026-04-25T10:43:01.000Z</time><hdop>3.437</hdop><vdop>3.437</vdop><extensions><gom:speed>0.139</gom:speed></extensions></trkpt>
   <trkpt lat="59.0663615355" lon="29.9663909361"><ele>98.895</ele><time>2026-04-25T10:43:02.000Z</time><hdop>3.437</hdop><vdop>3.437</vdop><extensions><gom:speed>0.136</gom:speed></extensions></trkpt>
   <trkpt lat="59.0663615355" lon="29.9663909361"><ele>98.844</ele><time>2026-04-25T10:43:03.000Z</time><hdop>3.437</hdop><vdop>3.437</vdop><extensions><gom:speed>0.0</gom:speed></extensions></trkpt>
   <trkpt lat="59.0663615355" lon="29.9663909361"><ele>98.813</ele><time>2026-04-25T10:43:04.000Z</time><hdop>3.437</hdop><vdop>3.437</vdop><extensions><gom:speed>0.0</gom:speed></extensions></trkpt>
   <trkpt lat="59.0663615355" lon="29.9663909361"><ele>98.794</ele><time>2026-04-25T10:43:05.000Z</time><hdop>3.437</hdop><vdop>3.437</vdop><extensions><gom:speed>0.0</gom:speed></extensions></trkpt>
   <trkpt lat="59.0663615355" lon="29.9663909361"><ele>98.783</ele><time>2026-04-25T10:43:06.000Z</time><hdop>3.437</hdop><vdop>3.437</vdop><extensions><gom:speed>0.0</gom:speed></extensions></trkpt>
   <trkpt lat="59.0663615355" lon="29.9663909361"><ele>98.777</ele><time>2026-04-25T10:43:07.000Z</time><hdop>3.437</hdop><vdop>3.437</vdop><extensions><gom:speed>0.0</gom:speed></extensions></trkpt>
   <trkpt lat="59.0663615355" lon="29.9663909361"><ele>98.773</ele><time>2026-04-25T10:43:08.000Z</time><hdop>3.437</hdop><vdop>3.437</vdop><extensions><gom:speed>0.0</gom:speed></extensions></trkpt>
   <trkpt lat="59.0663615355" lon="29.9663909361"><ele>98.77</ele><time>2026-04-25T10:43:09.000Z</time><hdop>3.437</hdop><vdop>3.437</vdop><extensions><gom:speed>0.0</gom:speed></extensions></trkpt>
   <trkpt lat="59.0663615355" lon="29.9663909361"><ele>98.769</ele><time>2026-04-25T10:43:10.000Z</time><hdop>3.437</hdop><vdop>3.437</vdop><extensions><gom:speed>0.0</gom:speed></extensions></trkpt>
   <trkpt lat="59.0663615355" lon="29.9663909361"><ele>98.768</ele><time>2026-04-25T10:43:11.000Z</time><hdop>3.437</hdop><vdop>3.437</vdop><extensions><gom:speed>0.0</gom:speed></extensions></trkpt>
   <trkpt lat="59.0663615355" lon="29.9663909361"><ele>98.768</ele><time>2026-04-25T10:43:12.000Z</time><hdop>3.437</hdop><vdop>3.437</vdop><extensions><gom:speed>0.0</gom:speed></extensions></trkpt>
   <trkpt lat="59.0663615355" lon="29.9663909361"><ele>98.767</ele><time>2026-04-25T10:43:12.000Z</time><hdop>3.437</hdop><vdop>3.437</vdop><extensions><gom:speed>0.0</gom:speed></extensions></trkpt>
   <trkpt lat="59.0663615355" lon="29.9663909361"><ele>98.767</ele><time>2026-04-25T10:43:13.000Z</time><hdop>3.437</hdop><vdop>3.437</vdop><extensions><gom:speed>0.0</gom:speed></extensions></trkpt>
   <trkpt lat="59.0663615355" lon="29.9663909361"><ele>98.767</ele><time>2026-04-25T10:43:14.000Z</time><hdop>3.437</hdop><vdop>3.437</vdop><extensions><gom:speed>0.0</gom:speed></extensions></trkpt>
   <trkpt lat="59.0663615355" lon="29.9663909361"><ele>98.767</ele><time>2026-04-25T10:43:15.000Z</time><hdop>3.437</hdop><vdop>3.437</vdop><extensions><gom:speed>0.0</gom:speed></extensions></trkpt>
   <trkpt lat="59.0663615355" lon="29.9663909361"><ele>98.767</ele><time>2026-04-25T10:43:16.000Z</time><hdop>3.437</hdop><vdop>3.437</vdop><extensions><gom:speed>0.0</gom:speed></extensions></trkpt>
   <trkpt lat="59.0663615355" lon="29.9663909361"><ele>98.767</ele><time>2026-04-25T10:43:17.000Z</time><hdop>3.437</hdop><vdop>3.437</vdop><extensions><gom:speed>0.0</gom:speed></extensions></trkpt>
   <trkpt lat="59.0663615355" lon="29.9663909361"><ele>98.767</ele><time>2026-04-25T10:43:18.000Z</time><hdop>3.437</hdop><vdop>3.437</vdop><extensions><gom:speed>0.0</gom:speed></extensions></trkpt>
   <trkpt lat="59.0663615355" lon="29.9663909361"><ele>98.767</ele><time>2026-04-25T10:43:19.000Z</time><hdop>3.437</hdop><vdop>3.437</vdop><extensions><gom:speed>0.0</gom:speed></extensions></trkpt>
   <trkpt lat="59.0663615355" lon="29.9663909361"><ele>98.767</ele><time>2026-04-25T10:43:20.000Z</time><hdop>3.437</hdop><vdop>3.437</vdop><extensions><gom:speed>0.0</gom:speed></extensions></trkpt>
   <trkpt lat="59.0663609069" lon="29.9663952109"><ele>98.837</ele><time>2026-04-25T10:43:21.000Z</time><hdop>3.312</hdop><vdop>3.312</vdop><extensions><gom:speed>0.472</gom:speed></extensions></trkpt>
   <trkpt lat="59.0663609069" lon="29.9663952109"><ele>98.879</ele><time>2026-04-25T10:43:22.000Z</time><hdop>3.312</hdop><vdop>3.312</vdop><extensions><gom:speed>0.0</gom:speed></extensions></trkpt>
   <trkpt lat="59.0663609069" lon="29.9663952109"><ele>98.904</ele><time>2026-04-25T10:43:23.000Z</time><hdop>3.312</hdop><vdop>3.312</vdop><extensions><gom:speed>0.0</gom:speed></extensions></trkpt>
   <trkpt lat="59.0663609069" lon="29.9663952109"><ele>98.919</ele><time>2026-04-25T10:43:24.000Z</time><hdop>3.312</hdop><vdop>3.312</vdop><extensions><gom:speed>0.0</gom:speed></extensions></trkpt>
   <trkpt lat="59.0663609069" lon="29.9663952109"><ele>98.927</ele><time>2026-04-25T10:43:25.000Z</time><hdop>3.312</hdop><vdop>3.312</vdop><extensions><gom:speed>0.0</gom:speed></extensions></trkpt>
   <trkpt lat="59.0663609069" lon="29.9663952109"><ele>98.933</ele><time>2026-04-25T10:43:26.000Z</time><hdop>3.312</hdop><vdop>3.312</vdop><extensions><gom:speed>0.0</gom:speed></extensions></trkpt>
   <trkpt lat="59.0663609069" lon="29.9663952109"><ele>98.936</ele><time>2026-04-25T10:43:27.000Z</time><hdop>3.312</hdop><vdop>3.312</vdop><extensions><gom:speed>0.0</gom:speed></extensions></trkpt>
   <trkpt lat="59.0663609069" lon="29.9663952109"><ele>98.938</ele><time>2026-04-25T10:43:28.000Z</time><hdop>3.312</hdop><vdop>3.312</vdop><extensions><gom:speed>0.0</gom:speed></extensions></trkpt>
   <trkpt lat="59.0663609069" lon="29.9663952109"><ele>98.939</ele><time>2026-04-25T10:43:29.000Z</time><hdop>3.312</hdop><vdop>3.312</vdop><extensions><gom:speed>0.0</gom:speed></extensions></trkpt>
   <trkpt lat="59.0663609069" lon="29.9663952109"><ele>98.94</ele><time>2026-04-25T10:43:30.000Z</time><hdop>3.312</hdop><vdop>3.312</vdop><extensions><gom:speed>0.0</gom:speed></extensions></trkpt>
   <trkpt lat="59.0663609069" lon="29.9663952109"><ele>98.94</ele><time>2026-04-25T10:43:31.000Z</time><hdop>3.312</hdop><vdop>3.312</vdop><extensions><gom:speed>0.0</gom:speed></extensions></trkpt>
   <trkpt lat="59.0663609069" lon="29.9663952109"><ele>98.94</ele><time>2026-04-25T10:43:32.000Z</time><hdop>3.312</hdop><vdop>3.312</vdop><extensions><gom:speed>0.0</gom:speed></extensions></trkpt>
   <trkpt lat="59.0663609069" lon="29.9663952109"><ele>98.941</ele><time>2026-04-25T10:43:33.000Z</time><hdop>3.312</hdop><vdop>3.312</vdop><extensions><gom:speed>0.0</gom:speed></extensions></trkpt>
   <trkpt lat="59.0663609069" lon="29.9663952109"><ele>98.941</ele><time>2026-04-25T10:43:33.000Z</time><hdop>3.312</hdop><vdop>3.312</vdop><extensions><gom:speed>0.0</gom:speed></extensions></trkpt>
   <trkpt lat="59.0663609069" lon="29.9663952109"><ele>98.941</ele><time>2026-04-25T10:43:34.000Z</time><hdop>3.312</hdop><vdop>3.312</vdop><extensions><gom:speed>0.0</gom:speed></extensions></trkpt>
   <trkpt lat="59.0663609069" lon="29.9663952109"><ele>98.941</ele><time>2026-04-25T10:43:35.000Z</time><hdop>3.312</hdop><vdop>3.312</vdop><extensions><gom:speed>0.0</gom:speed></extensions></trkpt>
   <trkpt lat="59.0663609069" lon="29.9663952109"><ele>98.941</ele><time>2026-04-25T10:43:36.000Z</time><hdop>3.312</hdop><vdop>3.312</vdop><extensions><gom:speed>0.0</gom:speed></extensions></trkpt>
   <trkpt lat="59.0663609069" lon="29.9663952109"><ele>98.941</ele><time>2026-04-25T10:43:37.000Z</time><hdop>3.312</hdop><vdop>3.312</vdop><extensions><gom:speed>0.0</gom:speed></extensions></trkpt>
   <trkpt lat="59.0663609069" lon="29.9663952109"><ele>98.941</ele><time>2026-04-25T10:43:38.000Z</time><hdop>3.312</hdop><vdop>3.312</vdop><extensions><gom:speed>0.0</gom:speed></extensions></trkpt>
   <trkpt lat="59.0663609069" lon="29.9663952109"><ele>98.941</ele><time>2026-04-25T10:43:39.000Z</time><hdop>3.312</hdop><vdop>3.312</vdop><extensions><gom:speed>0.0</gom:speed></extensions></trkpt>
   <trkpt lat="59.0663609069" lon="29.9663952109"><ele>98.941</ele><time>2026-04-25T10:43:40.000Z</time><hdop>3.312</hdop><vdop>3.312</vdop><extensions><gom:speed>0.0</gom:speed></extensions></trkpt>
   <trkpt lat="59.0663609069" lon="29.9663952109"><ele>98.941</ele><time>2026-04-25T10:43:41.000Z</time><hdop>3.312</hdop><vdop>3.312</vdop><extensions><gom:speed>0.0</gom:speed></extensions></trkpt>
   <trkpt lat="59.0663609069" lon="29.9663952109"><ele>98.941</ele><time>2026-04-25T10:43:42.000Z</time><hdop>3.312</hdop><vdop>3.312</vdop><extensions><gom:speed>0.0</gom:speed></extensions></trkpt>
   <trkpt lat="59.0663609069" lon="29.9663952109"><ele>98.941</ele><time>2026-04-25T10:43:43.000Z</time><hdop>3.312</hdop><vdop>3.312</vdop><extensions><gom:speed>0.0</gom:speed></extensions></trkpt>
   <trkpt lat="59.0663609069" lon="29.9663952109"><ele>98.941</ele><time>2026-04-25T10:43:44.000Z</time><hdop>3.312</hdop><vdop>3.312</vdop><extensions><gom:speed>0.0</gom:speed></extensions></trkpt>
   <trkpt lat="59.0663609069" lon="29.9663952109"><ele>98.941</ele><time>2026-04-25T10:43:45.000Z</time><hdop>3.312</hdop><vdop>3.312</vdop><extensions><gom:speed>0.0</gom:speed></extensions></trkpt>
   <trkpt lat="59.0663609069" lon="29.9663952109"><ele>98.941</ele><time>2026-04-25T10:43:46.000Z</time><hdop>3.312</hdop><vdop>3.312</vdop><extensions><gom:speed>0.0</gom:speed></extensions></trkpt>
   <trkpt lat="59.0663609069" lon="29.9663952109"><ele>98.941</ele><time>2026-04-25T10:43:47.000Z</time><hdop>3.312</hdop><vdop>3.312</vdop><extensions><gom:speed>0.0</gom:speed></extensions></trkpt>
   <trkpt lat="59.0663609069" lon="29.9663952109"><ele>98.941</ele><time>2026-04-25T10:43:48.000Z</time><hdop>3.312</hdop><vdop>3.312</vdop><extensions><gom:speed>0.0</gom:speed></extensions></trkpt>
   <trkpt lat="59.0663609069" lon="29.9663952109"><ele>98.941</ele><time>2026-04-25T10:43:49.000Z</time><hdop>3.312</hdop><vdop>3.312</vdop><extensions><gom:speed>0.0</gom:speed></extensions></trkpt>
   <trkpt lat="59.0663609069" lon="29.9663952109"><ele>98.941</ele><time>2026-04-25T10:43:50.000Z</time><hdop>3.312</hdop><vdop>3.312</vdop><extensions><gom:speed>0.0</gom:speed></extensions></trkpt>
   <trkpt lat="59.0663609069" lon="29.9663952109"><ele>98.941</ele><time>2026-04-25T10:43:51.000Z</time><hdop>3.312</hdop><vdop>3.312</vdop><extensions><gom:speed>0.0</gom:speed></extensions></trkpt>
   <trkpt lat="59.0663609069" lon="29.9663952109"><ele>98.941</ele><time>2026-04-25T10:43:52.000Z</time><hdop>3.312</hdop><vdop>3.312</vdop><extensions><gom:speed>0.0</gom:speed></extensions></trkpt>
   <trkpt lat="59.0663609069" lon="29.9663952109"><ele>98.941</ele><time>2026-04-25T10:43:52.000Z</time><hdop>3.312</hdop><vdop>3.312</vdop><extensions><gom:speed>0.0</gom:speed></extensions></trkpt>
   <trkpt lat="59.0663609069" lon="29.9663952109"><ele>98.941</ele><time>2026-04-25T10:43:53.000Z</time><hdop>3.312</hdop><vdop>3.312</vdop><extensions><gom:speed>0.0</gom:speed></extensions></trkpt>
   <trkpt lat="59.0663609069" lon="29.9663952109"><ele>98.941</ele><time>2026-04-25T10:43:54.000Z</time><hdop>3.312</hdop><vdop>3.312</vdop><extensions><gom:speed>0.0</gom:speed></extensions></trkpt>
   <trkpt lat="59.0663609069" lon="29.9663952109"><ele>98.941</ele><time>2026-04-25T10:43:55.000Z</time><hdop>3.312</hdop><vdop>3.312</vdop><extensions><gom:speed>0.0</gom:speed></extensions></trkpt>
   <trkpt lat="59.0663609069" lon="29.9663952109"><ele>98.941</ele><time>2026-04-25T10:43:56.000Z</time><hdop>3.312</hdop><vdop>3.312</vdop><extensions><gom:speed>0.0</gom:speed></extensions></trkpt>
   <trkpt lat="59.0663609069" lon="29.9663952109"><ele>98.941</ele><time>2026-04-25T10:43:57.000Z</time><hdop>3.312</hdop><vdop>3.312</vdop><extensions><gom:speed>0.0</gom:speed></extensions></trkpt>
   <trkpt lat="59.0663609069" lon="29.9663952109"><ele>98.941</ele><time>2026-04-25T10:43:58.000Z</time><hdop>3.312</hdop><vdop>3.312</vdop><extensions><gom:speed>0.0</gom:speed></extensions></trkpt>
   <trkpt lat="59.0663609069" lon="29.9663952109"><ele>98.941</ele><time>2026-04-25T10:43:59.000Z</time><hdop>3.312</hdop><vdop>3.312</vdop><extensions><gom:speed>0.0</gom:speed></extensions></trkpt>
   <trkpt lat="59.0663609069" lon="29.9663952109"><ele>98.941</ele><time>2026-04-25T10:44:00.000Z</time><hdop>3.312</hdop><vdop>3.312</vdop><extensions><gom:speed>0.0</gom:speed></extensions></trkpt>
   <trkpt lat="59.0663609069" lon="29.9663952109"><ele>98.941</ele><time>2026-04-25T10:44:01.000Z</time><hdop>3.312</hdop><vdop>3.312</vdop><extensions><gom:speed>0.0</gom:speed></extensions></trkpt>
   <trkpt lat="59.0663609069" lon="29.9663952109"><ele>98.941</ele><time>2026-04-25T10:44:02.000Z</time><hdop>3.312</hdop><vdop>3.312</vdop><extensions><gom:speed>0.0</gom:speed></extensions></trkpt>
   <trkpt lat="59.0663609069" lon="29.9663952109"><ele>98.941</ele><time>2026-04-25T10:44:03.000Z</time><hdop>3.312</hdop><vdop>3.312</vdop><extensions><gom:speed>0.0</gom:speed></extensions></trkpt>
   <trkpt lat="59.0663609069" lon="29.9663952109"><ele>98.941</ele><time>2026-04-25T10:44:04.000Z</time><hdop>3.312</hdop><vdop>3.312</vdop><extensions><gom:speed>0.0</gom:speed></extensions></trkpt>
   <trkpt lat="59.0663609069" lon="29.9663952109"><ele>98.941</ele><time>2026-04-25T10:44:05.000Z</time><hdop>3.312</hdop><vdop>3.312</vdop><extensions><gom:speed>0.0</gom:speed></extensions></trkpt>
   <trkpt lat="59.0663609069" lon="29.9663952109"><ele>98.941</ele><time>2026-04-25T10:44:06.000Z</time><hdop>3.312</hdop><vdop>3.312</vdop><extensions><gom:speed>0.0</gom:speed></extensions></trkpt>
   <trkpt lat="59.0663609069" lon="29.9663952109"><ele>98.941</ele><time>2026-04-25T10:44:07.000Z</time><hdop>3.312</hdop><vdop>3.312</vdop><extensions><gom:speed>0.0</gom:speed></extensions></trkpt>
   <trkpt lat="59.0663609069" lon="29.9663952109"><ele>98.941</ele><time>2026-04-25T10:44:08.000Z</time><hdop>3.312</hdop><vdop>3.312</vdop><extensions><gom:speed>0.0</gom:speed></extensions></trkpt>
   <trkpt lat="59.0663609069" lon="29.9663952109"><ele>98.941</ele><time>2026-04-25T10:44:09.000Z</time><hdop>3.312</hdop><vdop>3.312</vdop><extensions><gom:speed>0.0</gom:speed></extensions></trkpt>
   <trkpt lat="59.0663609069" lon="29.9663952109"><ele>98.941</ele><time>2026-04-25T10:44:10.000Z</time><hdop>3.312</hdop><vdop>3.312</vdop><extensions><gom:speed>0.0</gom:speed></extensions></trkpt>
   <trkpt lat="59.0663609069" lon="29.9663952109"><ele>98.941</ele><time>2026-04-25T10:44:11.000Z</time><hdop>3.312</hdop><vdop>3.312</vdop><extensions><gom:speed>0.0</gom:speed></extensions></trkpt>
   <trkpt lat="59.0663609069" lon="29.9663952109"><ele>98.941</ele><time>2026-04-25T10:44:12.000Z</time><hdop>3.312</hdop><vdop>3.312</vdop><extensions><gom:speed>0.0</gom:speed></extensions></trkpt>
   <trkpt lat="59.0663609069" lon="29.9663952109"><ele>98.941</ele><time>2026-04-25T10:44:12.000Z</time><hdop>3.312</hdop><vdop>3.312</vdop><extensions><gom:speed>0.0</gom:speed></extensions></trkpt>
   <trkpt lat="59.0663609069" lon="29.9663952109"><ele>98.941</ele><time>2026-04-25T10:44:13.000Z</time><hdop>3.312</hdop><vdop>3.312</vdop><extensions><gom:speed>0.0</gom:speed></extensions></trkpt>
   <trkpt lat="59.0663609069" lon="29.9663952109"><ele>98.941</ele><time>2026-04-25T10:44:14.000Z</time><hdop>3.312</hdop><vdop>3.312</vdop><extensions><gom:speed>0.0</gom:speed></extensions></trkpt>
   <trkpt lat="59.0663609069" lon="29.9663952109"><ele>98.941</ele><time>2026-04-25T10:44:15.000Z</time><hdop>3.312</hdop><vdop>3.312</vdop><extensions><gom:speed>0.0</gom:speed></extensions></trkpt>
   <trkpt lat="59.0663609069" lon="29.9663952109"><ele>98.941</ele><time>2026-04-25T10:44:16.000Z</time><hdop>3.312</hdop><vdop>3.312</vdop><extensions><gom:speed>0.0</gom:speed></extensions></trkpt>
   <trkpt lat="59.0663609069" lon="29.9663952109"><ele>98.941</ele><time>2026-04-25T10:44:17.000Z</time><hdop>3.312</hdop><vdop>3.312</vdop><extensions><gom:speed>0.0</gom:speed></extensions></trkpt>
   <trkpt lat="59.0663609069" lon="29.9663952109"><ele>98.941</ele><time>2026-04-25T10:44:18.000Z</time><hdop>3.312</hdop><vdop>3.312</vdop><extensions><gom:speed>0.0</gom:speed></extensions></trkpt>
   <trkpt lat="59.0663609069" lon="29.9663952109"><ele>98.941</ele><time>2026-04-25T10:44:19.000Z</time><hdop>3.312</hdop><vdop>3.312</vdop><extensions><gom:speed>0.0</gom:speed></extensions></trkpt>
   <trkpt lat="59.0663609069" lon="29.9663952109"><ele>98.941</ele><time>2026-04-25T10:44:20.000Z</time><hdop>3.312</hdop><vdop>3.312</vdop><extensions><gom:speed>0.0</gom:speed></extensions></trkpt>
   <trkpt lat="59.0663609069" lon="29.9663952109"><ele>98.941</ele><time>2026-04-25T10:44:21.000Z</time><hdop>3.312</hdop><vdop>3.312</vdop><extensions><gom:speed>0.0</gom:speed></extensions></trkpt>
   <trkpt lat="59.0663609069" lon="29.9663952109"><ele>98.941</ele><time>2026-04-25T10:44:22.000Z</time><hdop>3.312</hdop><vdop>3.312</vdop><extensions><gom:speed>0.0</gom:speed></extensions></trkpt>
   <trkpt lat="59.0663609069" lon="29.9663952109"><ele>98.941</ele><time>2026-04-25T10:44:23.000Z</time><hdop>3.312</hdop><vdop>3.312</vdop><extensions><gom:speed>0.0</gom:speed></extensions></trkpt>
   <trkpt lat="59.0663609069" lon="29.9663952109"><ele>98.941</ele><time>2026-04-25T10:44:24.000Z</time><hdop>3.312</hdop><vdop>3.312</vdop><extensions><gom:speed>0.0</gom:speed></extensions></trkpt>
   <trkpt lat="59.0663609069" lon="29.9663952109"><ele>98.941</ele><time>2026-04-25T10:44:25.000Z</time><hdop>3.312</hdop><vdop>3.312</vdop><extensions><gom:speed>0.0</gom:speed></extensions></trkpt>
   <trkpt lat="59.0663649721" lon="29.9663948756"><ele>98.929</ele><time>2026-04-25T10:44:26.000Z</time><hdop>3.25</hdop><vdop>3.25</vdop><extensions><gom:speed>0.161</gom:speed></extensions></trkpt>
   <trkpt lat="59.0663649721" lon="29.9663948756"><ele>98.922</ele><time>2026-04-25T10:44:27.000Z</time><hdop>3.25</hdop><vdop>3.25</vdop><extensions><gom:speed>0.0</gom:speed></extensions></trkpt>
   <trkpt lat="59.0663690373" lon="29.9663950432"><ele>98.879</ele><time>2026-04-25T10:44:28.000Z</time><hdop>3.125</hdop><vdop>3.125</vdop><extensions><gom:speed>0.254</gom:speed></extensions></trkpt>
   <trkpt lat="59.0663738569" lon="29.9663955462"><ele>98.821</ele><time>2026-04-25T10:44:29.000Z</time><hdop>3.125</hdop><vdop>3.125</vdop><extensions><gom:speed>0.249</gom:speed></extensions></trkpt>
   <trkpt lat="59.0663738569" lon="29.9663955462"><ele>98.786</ele><time>2026-04-25T10:44:30.000Z</time><hdop>3.125</hdop><vdop>3.125</vdop><extensions><gom:speed>0.0</gom:speed></extensions></trkpt>
   <trkpt lat="59.0663738569" lon="29.9663955462"><ele>98.765</ele><time>2026-04-25T10:44:31.000Z</time><hdop>3.125</hdop><vdop>3.125</vdop><extensions><gom:speed>0.0</gom:speed></extensions></trkpt>
   <trkpt lat="59.0663738569" lon="29.9663955462"><ele>98.752</ele><time>2026-04-25T10:44:32.000Z</time><hdop>3.125</hdop><vdop>3.125</vdop><extensions><gom:speed>0.0</gom:speed></extensions></trkpt>
   <trkpt lat="59.0663738569" lon="29.9663955462"><ele>98.745</ele><time>2026-04-25T10:44:32.000Z</time><hdop>3.125</hdop><vdop>3.125</vdop><extensions><gom:speed>0.0</gom:speed></extensions></trkpt>
   <trkpt lat="59.0663738569" lon="29.9663955462"><ele>98.74</ele><time>2026-04-25T10:44:33.000Z</time><hdop>3.125</hdop><vdop>3.125</vdop><extensions><gom:speed>0.0</gom:speed></extensions></trkpt>
   <trkpt lat="59.0663738569" lon="29.9663955462"><ele>98.738</ele><time>2026-04-25T10:44:34.000Z</time><hdop>3.125</hdop><vdop>3.125</vdop><extensions><gom:speed>0.0</gom:speed></extensions></trkpt>
   <trkpt lat="59.0663738569" lon="29.9663955462"><ele>98.736</ele><time>2026-04-25T10:44:35.000Z</time><hdop>3.125</hdop><vdop>3.125</vdop><extensions><gom:speed>0.0</gom:speed></extensions></trkpt>
   <trkpt lat="59.0663738569" lon="29.9663955462"><ele>98.735</ele><time>2026-04-25T10:44:36.000Z</time><hdop>3.125</hdop><vdop>3.125</vdop><extensions><gom:speed>0.0</gom:speed></extensions></trkpt>
   <trkpt lat="59.0663738569" lon="29.9663955462"><ele>98.735</ele><time>2026-04-25T10:44:37.000Z</time><hdop>3.125</hdop><vdop>3.125</vdop><extensions><gom:speed>0.0</gom:speed></extensions></trkpt>
   <trkpt lat="59.0663738569" lon="29.9663955462"><ele>98.734</ele><time>2026-04-25T10:44:38.000Z</time><hdop>3.125</hdop><vdop>3.125</vdop><extensions><gom:speed>0.0</gom:speed></extensions></trkpt>
   <trkpt lat="59.0663738569" lon="29.9663955462"><ele>98.734</ele><time>2026-04-25T10:44:39.000Z</time><hdop>3.125</hdop><vdop>3.125</vdop><extensions><gom:speed>0.0</gom:speed></extensions></trkpt>
   <trkpt lat="59.0663738569" lon="29.9663955462"><ele>98.734</ele><time>2026-04-25T10:44:40.000Z</time><hdop>3.125</hdop><vdop>3.125</vdop><extensions><gom:speed>0.0</gom:speed></extensions></trkpt>
   <trkpt lat="59.0663738569" lon="29.9663955462"><ele>98.734</ele><time>2026-04-25T10:44:41.000Z</time><hdop>3.125</hdop><vdop>3.125</vdop><extensions><gom:speed>0.0</gom:speed></extensions></trkpt>
   <trkpt lat="59.0663738569" lon="29.9663955462"><ele>98.734</ele><time>2026-04-25T10:44:42.000Z</time><hdop>3.125</hdop><vdop>3.125</vdop><extensions><gom:speed>0.0</gom:speed></extensions></trkpt>
   <trkpt lat="59.0663738569" lon="29.9663955462"><ele>98.734</ele><time>2026-04-25T10:44:43.000Z</time><hdop>3.125</hdop><vdop>3.125</vdop><extensions><gom:speed>0.0</gom:speed></extensions></trkpt>
   <trkpt lat="59.0663738569" lon="29.9663955462"><ele>98.734</ele><time>2026-04-25T10:44:44.000Z</time><hdop>3.125</hdop><vdop>3.125</vdop><extensions><gom:speed>0.0</gom:speed></extensions></trkpt>
   <trkpt lat="59.0663738569" lon="29.9663955462"><ele>98.734</ele><time>2026-04-25T10:44:45.000Z</time><hdop>3.125</hdop><vdop>3.125</vdop><extensions><gom:speed>0.0</gom:speed></extensions></trkpt>
   <trkpt lat="59.0663738569" lon="29.9663955462"><ele>98.734</ele><time>2026-04-25T10:44:46.000Z</time><hdop>3.125</hdop><vdop>3.125</vdop><extensions><gom:speed>0.0</gom:speed></extensions></trkpt>
   <trkpt lat="59.0663738569" lon="29.9663955462"><ele>98.734</ele><time>2026-04-25T10:44:47.000Z</time><hdop>3.125</hdop><vdop>3.125</vdop><extensions><gom:speed>0.0</gom:speed></extensions></trkpt>
   <trkpt lat="59.0663738569" lon="29.9663955462"><ele>98.734</ele><time>2026-04-25T10:44:48.000Z</time><hdop>3.125</hdop><vdop>3.125</vdop><extensions><gom:speed>0.0</gom:speed></extensions></trkpt>
   <trkpt lat="59.0663738569" lon="29.9663955462"><ele>98.734</ele><time>2026-04-25T10:44:49.000Z</time><hdop>3.125</hdop><vdop>3.125</vdop><extensions><gom:speed>0.0</gom:speed></extensions></trkpt>
   <trkpt lat="59.0663738569" lon="29.9663955462"><ele>98.734</ele><time>2026-04-25T10:44:50.000Z</time><hdop>3.125</hdop><vdop>3.125</vdop><extensions><gom:speed>0.0</gom:speed></extensions></trkpt>
   <trkpt lat="59.0663738569" lon="29.9663955462"><ele>98.734</ele><time>2026-04-25T10:44:51.000Z</time><hdop>3.125</hdop><vdop>3.125</vdop><extensions><gom:speed>0.0</gom:speed></extensions></trkpt>
   <trkpt lat="59.0512399955" lon="29.9639399838"><ele>58.995</ele><time>2026-04-25T10:44:51.721Z</time><hdop>4095.937</hdop><vdop>0.0</vdop><extensions><gom:speed>0.0</gom:speed></extensions></trkpt>
   <trkpt lat="59.0663738569" lon="29.9663955462"><ele>74.989</ele><time>2026-04-25T10:44:52.000Z</time><hdop>3.125</hdop><vdop>3.125</vdop><extensions><gom:speed>0.0</gom:speed></extensions></trkpt>
   <trkpt lat="59.0663738569" lon="29.9663955462"><ele>84.546</ele><time>2026-04-25T10:44:52.000Z</time><hdop>3.125</hdop><vdop>3.125</vdop><extensions><gom:speed>0.0</gom:speed></extensions></trkpt>
   <trkpt lat="59.0663738569" lon="29.9663955462"><ele>90.256</ele><time>2026-04-25T10:44:53.000Z</time><hdop>3.125</hdop><vdop>3.125</vdop><extensions><gom:speed>0.0</gom:speed></extensions></trkpt>
   <trkpt lat="59.0663738569" lon="29.9663955462"><ele>93.668</ele><time>2026-04-25T10:44:54.000Z</time><hdop>3.125</hdop><vdop>3.125</vdop><extensions><gom:speed>0.0</gom:speed></extensions></trkpt>
   <trkpt lat="59.0663738569" lon="29.9663955462"><ele>95.707</ele><time>2026-04-25T10:44:55.000Z</time><hdop>3.125</hdop><vdop>3.125</vdop><extensions><gom:speed>0.0</gom:speed></extensions></trkpt>
   <trkpt lat="59.0663738569" lon="29.9663955462"><ele>96.925</ele><time>2026-04-25T10:44:56.000Z</time><hdop>3.125</hdop><vdop>3.125</vdop><extensions><gom:speed>0.0</gom:speed></extensions></trkpt>
   <trkpt lat="59.0663738569" lon="29.9663955462"><ele>97.653</ele><time>2026-04-25T10:44:57.000Z</time><hdop>3.125</hdop><vdop>3.125</vdop><extensions><gom:speed>0.0</gom:speed></extensions></trkpt>
   <trkpt lat="59.0663738569" lon="29.9663955462"><ele>98.088</ele><time>2026-04-25T10:44:58.000Z</time><hdop>3.125</hdop><vdop>3.125</vdop><extensions><gom:speed>0.0</gom:speed></extensions></trkpt>
   <trkpt lat="59.0663738569" lon="29.9663955462"><ele>98.348</ele><time>2026-04-25T10:44:59.000Z</time><hdop>3.125</hdop><vdop>3.125</vdop><extensions><gom:speed>0.0</gom:speed></extensions></trkpt>
   <trkpt lat="59.0663738569" lon="29.9663955462"><ele>98.503</ele><time>2026-04-25T10:45:00.000Z</time><hdop>3.125</hdop><vdop>3.125</vdop><extensions><gom:speed>0.0</gom:speed></extensions></trkpt>
   <trkpt lat="59.0663738569" lon="29.9663955462"><ele>98.596</ele><time>2026-04-25T10:45:01.000Z</time><hdop>3.125</hdop><vdop>3.125</vdop><extensions><gom:speed>0.0</gom:speed></extensions></trkpt>
   <trkpt lat="59.0663738569" lon="29.9663955462"><ele>98.651</ele><time>2026-04-25T10:45:02.000Z</time><hdop>3.125</hdop><vdop>3.125</vdop><extensions><gom:speed>0.0</gom:speed></extensions></trkpt>
   <trkpt lat="59.0663738569" lon="29.9663955462"><ele>98.684</ele><time>2026-04-25T10:45:03.000Z</time><hdop>3.125</hdop><vdop>3.125</vdop><extensions><gom:speed>0.0</gom:speed></extensions></trkpt>
   <trkpt lat="59.0663738569" lon="29.9663955462"><ele>98.704</ele><time>2026-04-25T10:45:04.000Z</time><hdop>3.125</hdop><vdop>3.125</vdop><extensions><gom:speed>0.0</gom:speed></extensions></trkpt>
   <trkpt lat="59.0663738569" lon="29.9663955462"><ele>98.716</ele><time>2026-04-25T10:45:05.000Z</time><hdop>3.125</hdop><vdop>3.125</vdop><extensions><gom:speed>0.0</gom:speed></extensions></trkpt>
   <trkpt lat="59.0663738569" lon="29.9663955462"><ele>98.723</ele><time>2026-04-25T10:45:06.000Z</time><hdop>3.125</hdop><vdop>3.125</vdop><extensions><gom:speed>0.0</gom:speed></extensions></trkpt>
   <trkpt lat="59.0663738569" lon="29.9663955462"><ele>98.727</ele><time>2026-04-25T10:45:07.000Z</time><hdop>3.125</hdop><vdop>3.125</vdop><extensions><gom:speed>0.0</gom:speed></extensions></trkpt>
   <trkpt lat="59.0663738569" lon="29.9663955462"><ele>98.73</ele><time>2026-04-25T10:45:08.000Z</time><hdop>3.125</hdop><vdop>3.125</vdop><extensions><gom:speed>0.0</gom:speed></extensions></trkpt>
   <trkpt lat="59.0663738569" lon="29.9663955462"><ele>98.731</ele><time>2026-04-25T10:45:09.000Z</time><hdop>3.125</hdop><vdop>3.125</vdop><extensions><gom:speed>0.0</gom:speed></extensions></trkpt>
   <trkpt lat="59.0663738569" lon="29.9663955462"><ele>98.732</ele><time>2026-04-25T10:45:10.000Z</time><hdop>3.125</hdop><vdop>3.125</vdop><extensions><gom:speed>0.0</gom:speed></extensions></trkpt>
   <trkpt lat="59.0663738569" lon="29.9663955462"><ele>98.733</ele><time>2026-04-25T10:45:11.000Z</time><hdop>3.125</hdop><vdop>3.125</vdop><extensions><gom:speed>0.0</gom:speed></extensions></trkpt>
   <trkpt lat="59.0663738569" lon="29.9663955462"><ele>98.733</ele><time>2026-04-25T10:45:12.000Z</time><hdop>3.125</hdop><vdop>3.125</vdop><extensions><gom:speed>0.0</gom:speed></extensions></trkpt>
   <trkpt lat="59.0663738569" lon="29.9663955462"><ele>98.733</ele><time>2026-04-25T10:45:12.000Z</time><hdop>3.125</hdop><vdop>3.125</vdop><extensions><gom:speed>0.0</gom:speed></extensions></trkpt>
   <trkpt lat="59.0663738569" lon="29.9663955462"><ele>98.734</ele><time>2026-04-25T10:45:13.000Z</time><hdop>3.125</hdop><vdop>3.125</vdop><extensions><gom:speed>0.0</gom:speed></extensions></trkpt>
   <trkpt lat="59.0663738569" lon="29.9663955462"><ele>98.734</ele><time>2026-04-25T10:45:14.000Z</time><hdop>3.125</hdop><vdop>3.125</vdop><extensions><gom:speed>0.0</gom:speed></extensions></trkpt>
   <trkpt lat="59.0663738569" lon="29.9663955462"><ele>98.734</ele><time>2026-04-25T10:45:15.000Z</time><hdop>3.125</hdop><vdop>3.125</vdop><extensions><gom:speed>0.0</gom:speed></extensions></trkpt>
   <trkpt lat="59.0663738569" lon="29.9663955462"><ele>98.734</ele><time>2026-04-25T10:45:16.000Z</time><hdop>3.125</hdop><vdop>3.125</vdop><extensions><gom:speed>0.0</gom:speed></extensions></trkpt>
   <trkpt lat="59.0663738569" lon="29.9663955462"><ele>98.734</ele><time>2026-04-25T10:45:17.000Z</time><hdop>3.125</hdop><vdop>3.125</vdop><extensions><gom:speed>0.0</gom:speed></extensions></trkpt>
   <trkpt lat="59.0663738569" lon="29.9663955462"><ele>98.734</ele><time>2026-04-25T10:45:18.000Z</time><hdop>3.125</hdop><vdop>3.125</vdop><extensions><gom:speed>0.0</gom:speed></extensions></trkpt>
   <trkpt lat="59.0663738569" lon="29.9663955462"><ele>98.734</ele><time>2026-04-25T10:45:19.000Z</time><hdop>3.125</hdop><vdop>3.125</vdop><extensions><gom:speed>0.0</gom:speed></extensions></trkpt>
   <trkpt lat="59.0663738569" lon="29.9663955462"><ele>98.734</ele><time>2026-04-25T10:45:20.000Z</time><hdop>3.125</hdop><vdop>3.125</vdop><extensions><gom:speed>0.0</gom:speed></extensions></trkpt>
   <trkpt lat="59.0663738569" lon="29.9663955462"><ele>98.734</ele><time>2026-04-25T10:45:21.000Z</time><hdop>3.125</hdop><vdop>3.125</vdop><extensions><gom:speed>0.0</gom:speed></extensions></trkpt>
   <trkpt lat="59.0663738569" lon="29.9663955462"><ele>98.734</ele><time>2026-04-25T10:45:22.000Z</time><hdop>3.125</hdop><vdop>3.125</vdop><extensions><gom:speed>0.0</gom:speed></extensions></trkpt>
   <trkpt lat="59.0663738569" lon="29.9663955462"><ele>98.734</ele><time>2026-04-25T10:45:23.000Z</time><hdop>3.125</hdop><vdop>3.125</vdop><extensions><gom:speed>0.0</gom:speed></extensions></trkpt>
   <trkpt lat="59.0663738569" lon="29.9663955462"><ele>98.734</ele><time>2026-04-25T10:45:24.000Z</time><hdop>3.125</hdop><vdop>3.125</vdop><extensions><gom:speed>0.0</gom:speed></extensions></trkpt>
   <trkpt lat="59.0663738569" lon="29.9663955462"><ele>98.734</ele><time>2026-04-25T10:45:25.000Z</time><hdop>3.125</hdop><vdop>3.125</vdop><extensions><gom:speed>0.0</gom:speed></extensions></trkpt>
   <trkpt lat="59.0663738569" lon="29.9663955462"><ele>98.734</ele><time>2026-04-25T10:45:26.000Z</time><hdop>3.125</hdop><vdop>3.125</vdop><extensions><gom:speed>0.0</gom:speed></extensions></trkpt>
   <trkpt lat="59.0663738569" lon="29.9663955462"><ele>98.734</ele><time>2026-04-25T10:45:27.000Z</time><hdop>3.125</hdop><vdop>3.125</vdop><extensions><gom:speed>0.0</gom:speed></extensions></trkpt>
   <trkpt lat="59.0663738569" lon="29.9663955462"><ele>98.734</ele><time>2026-04-25T10:45:28.000Z</time><hdop>3.125</hdop><vdop>3.125</vdop><extensions><gom:speed>0.0</gom:speed></extensions></trkpt>
   <trkpt lat="59.0663738569" lon="29.9663955462"><ele>98.734</ele><time>2026-04-25T10:45:29.000Z</time><hdop>3.125</hdop><vdop>3.125</vdop><extensions><gom:speed>0.0</gom:speed></extensions></trkpt>
   <trkpt lat="59.0663738569" lon="29.9663955462"><ele>98.734</ele><time>2026-04-25T10:45:30.000Z</time><hdop>3.125</hdop><vdop>3.125</vdop><extensions><gom:speed>0.0</gom:speed></extensions></trkpt>
   <trkpt lat="59.0663738569" lon="29.9663955462"><ele>98.734</ele><time>2026-04-25T10:45:31.000Z</time><hdop>3.125</hdop><vdop>3.125</vdop><extensions><gom:speed>0.0</gom:speed></extensions></trkpt>
   <trkpt lat="59.0663738569" lon="29.9663955462"><ele>98.734</ele><time>2026-04-25T10:45:32.000Z</time><hdop>3.125</hdop><vdop>3.125</vdop><extensions><gom:speed>0.0</gom:speed></extensions></trkpt>
   <trkpt lat="59.0663738569" lon="29.9663955462"><ele>98.734</ele><time>2026-04-25T10:45:32.000Z</time><hdop>3.125</hdop><vdop>3.125</vdop><extensions><gom:speed>0.0</gom:speed></extensions></trkpt>
   <trkpt lat="59.0663738569" lon="29.9663955462"><ele>98.734</ele><time>2026-04-25T10:45:33.000Z</time><hdop>3.125</hdop><vdop>3.125</vdop><extensions><gom:speed>0.0</gom:speed></extensions></trkpt>
   <trkpt lat="59.0663738569" lon="29.9663955462"><ele>98.734</ele><time>2026-04-25T10:45:34.000Z</time><hdop>3.125</hdop><vdop>3.125</vdop><extensions><gom:speed>0.0</gom:speed></extensions></trkpt>
   <trkpt lat="59.0663738569" lon="29.9663955462"><ele>98.734</ele><time>2026-04-25T10:45:34.000Z</time><hdop>3.125</hdop><vdop>3.125</vdop><extensions><gom:speed>0.0</gom:speed></extensions></trkpt>
   <trkpt lat="59.0663738569" lon="29.9663955462"><ele>98.734</ele><time>2026-04-25T10:45:35.000Z</time><hdop>3.125</hdop><vdop>3.125</vdop><extensions><gom:speed>0.0</gom:speed></extensions></trkpt>
   <trkpt lat="59.0663780898" lon="29.9663912714"><ele>98.662</ele><time>2026-04-25T10:45:36.000Z</time><hdop>3.937</hdop><vdop>3.937</vdop><extensions><gom:speed>0.105</gom:speed></extensions></trkpt>
   <trkpt lat="59.0663780898" lon="29.9663912714"><ele>98.619</ele><time>2026-04-25T10:45:37.000Z</time><hdop>3.937</hdop><vdop>3.937</vdop><extensions><gom:speed>0.0</gom:speed></extensions></trkpt>
   <trkpt lat="59.0663780898" lon="29.9663912714"><ele>98.593</ele><time>2026-04-25T10:45:38.000Z</time><hdop>3.937</hdop><vdop>3.937</vdop><extensions><gom:speed>0.0</gom:speed></extensions></trkpt>
   <trkpt lat="59.0663780898" lon="29.9663912714"><ele>98.577</ele><time>2026-04-25T10:45:39.000Z</time><hdop>3.937</hdop><vdop>3.937</vdop><extensions><gom:speed>0.0</gom:speed></extensions></trkpt>
   <trkpt lat="59.0663780898" lon="29.9663912714"><ele>98.568</ele><time>2026-04-25T10:45:40.000Z</time><hdop>3.937</hdop><vdop>3.937</vdop><extensions><gom:speed>0.0</gom:speed></extensions></trkpt>
   <trkpt lat="59.0663780898" lon="29.9663912714"><ele>98.563</ele><time>2026-04-25T10:45:41.000Z</time><hdop>3.937</hdop><vdop>3.937</vdop><extensions><gom:speed>0.0</gom:speed></extensions></trkpt>
   <trkpt lat="59.0663780898" lon="29.9663912714"><ele>98.559</ele><time>2026-04-25T10:45:42.000Z</time><hdop>3.937</hdop><vdop>3.937</vdop><extensions><gom:speed>0.0</gom:speed></extensions></trkpt>
   <trkpt lat="59.0663780898" lon="29.9663912714"><ele>98.558</ele><time>2026-04-25T10:45:42.000Z</time><hdop>3.937</hdop><vdop>3.937</vdop><extensions><gom:speed>0.0</gom:speed></extensions></trkpt>
   <trkpt lat="59.0663780898" lon="29.9663912714"><ele>98.556</ele><time>2026-04-25T10:45:43.000Z</time><hdop>3.937</hdop><vdop>3.937</vdop><extensions><gom:speed>0.0</gom:speed></extensions></trkpt>
   <trkpt lat="59.0663780898" lon="29.9663912714"><ele>98.556</ele><time>2026-04-25T10:45:44.000Z</time><hdop>3.937</hdop><vdop>3.937</vdop><extensions><gom:speed>0.0</gom:speed></extensions></trkpt>
   <trkpt lat="59.0663780898" lon="29.9663912714"><ele>98.555</ele><time>2026-04-25T10:45:45.000Z</time><hdop>3.937</hdop><vdop>3.937</vdop><extensions><gom:speed>0.0</gom:speed></extensions></trkpt>
   <trkpt lat="59.0663780898" lon="29.9663912714"><ele>98.555</ele><time>2026-04-25T10:45:46.000Z</time><hdop>3.937</hdop><vdop>3.937</vdop><extensions><gom:speed>0.0</gom:speed></extensions></trkpt>
   <trkpt lat="59.0663780898" lon="29.9663912714"><ele>98.555</ele><time>2026-04-25T10:45:47.000Z</time><hdop>3.937</hdop><vdop>3.937</vdop><extensions><gom:speed>0.0</gom:speed></extensions></trkpt>
   <trkpt lat="59.0663780898" lon="29.9663912714"><ele>98.555</ele><time>2026-04-25T10:45:48.000Z</time><hdop>3.937</hdop><vdop>3.937</vdop><extensions><gom:speed>0.0</gom:speed></extensions></trkpt>
   <trkpt lat="59.0663780898" lon="29.9663912714"><ele>98.555</ele><time>2026-04-25T10:45:49.000Z</time><hdop>3.937</hdop><vdop>3.937</vdop><extensions><gom:speed>0.0</gom:speed></extensions></trkpt>
   <trkpt lat="59.0663780898" lon="29.9663912714"><ele>98.555</ele><time>2026-04-25T10:45:50.000Z</time><hdop>3.937</hdop><vdop>3.937</vdop><extensions><gom:speed>0.0</gom:speed></extensions></trkpt>
   <trkpt lat="59.0663780898" lon="29.9663912714"><ele>98.555</ele><time>2026-04-25T10:45:51.000Z</time><hdop>3.937</hdop><vdop>3.937</vdop><extensions><gom:speed>0.0</gom:speed></extensions></trkpt>
   <trkpt lat="59.0663780898" lon="29.9663912714"><ele>98.555</ele><time>2026-04-25T10:45:52.000Z</time><hdop>3.937</hdop><vdop>3.937</vdop><extensions><gom:speed>0.0</gom:speed></extensions></trkpt>
   <trkpt lat="59.0663780898" lon="29.9663912714"><ele>98.555</ele><time>2026-04-25T10:45:52.000Z</time><hdop>3.937</hdop><vdop>3.937</vdop><extensions><gom:speed>0.0</gom:speed></extensions></trkpt>
   <trkpt lat="59.0663780898" lon="29.9663912714"><ele>98.555</ele><time>2026-04-25T10:45:53.000Z</time><hdop>3.937</hdop><vdop>3.937</vdop><extensions><gom:speed>0.0</gom:speed></extensions></trkpt>
   <trkpt lat="59.0663780898" lon="29.9663912714"><ele>98.555</ele><time>2026-04-25T10:45:54.000Z</time><hdop>3.937</hdop><vdop>3.937</vdop><extensions><gom:speed>0.0</gom:speed></extensions></trkpt>
   <trkpt lat="59.0663780898" lon="29.9663912714"><ele>98.555</ele><time>2026-04-25T10:45:55.000Z</time><hdop>3.937</hdop><vdop>3.937</vdop><extensions><gom:speed>0.0</gom:speed></extensions></trkpt>
   <trkpt lat="59.0663780898" lon="29.9663912714"><ele>98.555</ele><time>2026-04-25T10:45:56.000Z</time><hdop>3.937</hdop><vdop>3.937</vdop><extensions><gom:speed>0.0</gom:speed></extensions></trkpt>
   <trkpt lat="59.0663780898" lon="29.9663912714"><ele>98.555</ele><time>2026-04-25T10:45:57.000Z</time><hdop>3.937</hdop><vdop>3.937</vdop><extensions><gom:speed>0.0</gom:speed></extensions></trkpt>
   <trkpt lat="59.0663780898" lon="29.9663912714"><ele>98.555</ele><time>2026-04-25T10:45:58.000Z</time><hdop>3.937</hdop><vdop>3.937</vdop><extensions><gom:speed>0.0</gom:speed></extensions></trkpt>
   <trkpt lat="59.0663780898" lon="29.9663912714"><ele>98.555</ele><time>2026-04-25T10:45:59.000Z</time><hdop>3.937</hdop><vdop>3.937</vdop><extensions><gom:speed>0.0</gom:speed></extensions></trkpt>
   <trkpt lat="59.0663780898" lon="29.9663912714"><ele>98.555</ele><time>2026-04-25T10:46:00.000Z</time><hdop>3.937</hdop><vdop>3.937</vdop><extensions><gom:speed>0.0</gom:speed></extensions></trkpt>
   <trkpt lat="59.0663780898" lon="29.9663912714"><ele>98.555</ele><time>2026-04-25T10:46:01.000Z</time><hdop>3.937</hdop><vdop>3.937</vdop><extensions><gom:speed>0.0</gom:speed></extensions></trkpt>
   <trkpt lat="59.0663780898" lon="29.9663912714"><ele>98.555</ele><time>2026-04-25T10:46:02.000Z</time><hdop>3.937</hdop><vdop>3.937</vdop><extensions><gom:speed>0.0</gom:speed></extensions></trkpt>
   <trkpt lat="59.0663780898" lon="29.9663912714"><ele>98.555</ele><time>2026-04-25T10:46:03.000Z</time><hdop>3.937</hdop><vdop>3.937</vdop><extensions><gom:speed>0.0</gom:speed></extensions></trkpt>
   <trkpt lat="59.0663780898" lon="29.9663912714"><ele>98.555</ele><time>2026-04-25T10:46:04.000Z</time><hdop>3.937</hdop><vdop>3.937</vdop><extensions><gom:speed>0.0</gom:speed></extensions></trkpt>
   <trkpt lat="59.0663780898" lon="29.9663912714"><ele>98.555</ele><time>2026-04-25T10:46:05.000Z</time><hdop>3.937</hdop><vdop>3.937</vdop><extensions><gom:speed>0.0</gom:speed></extensions></trkpt>
   <trkpt lat="59.0663780898" lon="29.9663912714"><ele>98.555</ele><time>2026-04-25T10:46:06.000Z</time><hdop>3.937</hdop><vdop>3.937</vdop><extensions><gom:speed>0.0</gom:speed></extensions></trkpt>
   <trkpt lat="59.0663780898" lon="29.9663912714"><ele>98.555</ele><time>2026-04-25T10:46:07.000Z</time><hdop>3.937</hdop><vdop>3.937</vdop><extensions><gom:speed>0.0</gom:speed></extensions></trkpt>
   <trkpt lat="59.0663780898" lon="29.9663912714"><ele>98.555</ele><time>2026-04-25T10:46:08.000Z</time><hdop>3.937</hdop><vdop>3.937</vdop><extensions><gom:speed>0.0</gom:speed></extensions></trkpt>
   <trkpt lat="59.0663780898" lon="29.9663912714"><ele>98.555</ele><time>2026-04-25T10:46:09.000Z</time><hdop>3.937</hdop><vdop>3.937</vdop><extensions><gom:speed>0.0</gom:speed></extensions></trkpt>
   <trkpt lat="59.0663780898" lon="29.9663912714"><ele>98.555</ele><time>2026-04-25T10:46:10.000Z</time><hdop>3.937</hdop><vdop>3.937</vdop><extensions><gom:speed>0.0</gom:speed></extensions></trkpt>
   <trkpt lat="59.0663780898" lon="29.9663912714"><ele>98.555</ele><time>2026-04-25T10:46:11.000Z</time><hdop>3.937</hdop><vdop>3.937</vdop><extensions><gom:speed>0.0</gom:speed></extensions></trkpt>
   <trkpt lat="59.0663780898" lon="29.9663912714"><ele>98.555</ele><time>2026-04-25T10:46:12.000Z</time><hdop>3.937</hdop><vdop>3.937</vdop><extensions><gom:speed>0.0</gom:speed></extensions></trkpt>
   <trkpt lat="59.0663780898" lon="29.9663912714"><ele>98.555</ele><time>2026-04-25T10:46:12.000Z</time><hdop>3.937</hdop><vdop>3.937</vdop><extensions><gom:speed>0.0</gom:speed></extensions></trkpt>
   <trkpt lat="59.0663780898" lon="29.9663912714"><ele>98.555</ele><time>2026-04-25T10:46:13.000Z</time><hdop>3.937</hdop><vdop>3.937</vdop><extensions><gom:speed>0.0</gom:speed></extensions></trkpt>
   <trkpt lat="59.0663780898" lon="29.9663912714"><ele>98.555</ele><time>2026-04-25T10:46:14.000Z</time><hdop>3.937</hdop><vdop>3.937</vdop><extensions><gom:speed>0.0</gom:speed></extensions></trkpt>
   <trkpt lat="59.0663780898" lon="29.9663912714"><ele>98.555</ele><time>2026-04-25T10:46:15.000Z</time><hdop>3.937</hdop><vdop>3.937</vdop><extensions><gom:speed>0.0</gom:speed></extensions></trkpt>
   <trkpt lat="59.0663780898" lon="29.9663912714"><ele>98.555</ele><time>2026-04-25T10:46:15.000Z</time><hdop>3.937</hdop><vdop>3.937</vdop><extensions><gom:speed>0.0</gom:speed></extensions></trkpt>
   <trkpt lat="59.0663780898" lon="29.9663912714"><ele>98.555</ele><time>2026-04-25T10:46:16.000Z</time><hdop>3.937</hdop><vdop>3.937</vdop><extensions><gom:speed>0.0</gom:speed></extensions></trkpt>
   <trkpt lat="59.0663780898" lon="29.9663912714"><ele>98.555</ele><time>2026-04-25T10:46:17.000Z</time><hdop>3.937</hdop><vdop>3.937</vdop><extensions><gom:speed>0.0</gom:speed></extensions></trkpt>
   <trkpt lat="59.0663780898" lon="29.9663912714"><ele>98.555</ele><time>2026-04-25T10:46:17.000Z</time><hdop>3.937</hdop><vdop>3.937</vdop><extensions><gom:speed>0.0</gom:speed></extensions></trkpt>
   <trkpt lat="59.0663780898" lon="29.9663912714"><ele>98.555</ele><time>2026-04-25T10:46:18.000Z</time><hdop>3.937</hdop><vdop>3.937</vdop><extensions><gom:speed>0.0</gom:speed></extensions></trkpt>
   <trkpt lat="59.0663780898" lon="29.9663912714"><ele>98.555</ele><time>2026-04-25T10:46:19.000Z</time><hdop>3.937</hdop><vdop>3.937</vdop><extensions><gom:speed>0.0</gom:speed></extensions></trkpt>
   <trkpt lat="59.0663780898" lon="29.9663912714"><ele>98.555</ele><time>2026-04-25T10:46:20.000Z</time><hdop>3.937</hdop><vdop>3.937</vdop><extensions><gom:speed>0.0</gom:speed></extensions></trkpt>
   <trkpt lat="59.0663780898" lon="29.9663912714"><ele>98.555</ele><time>2026-04-25T10:46:21.000Z</time><hdop>3.937</hdop><vdop>3.937</vdop><extensions><gom:speed>0.0</gom:speed></extensions></trkpt>
   <trkpt lat="59.0663780898" lon="29.9663912714"><ele>98.555</ele><time>2026-04-25T10:46:22.000Z</time><hdop>3.937</hdop><vdop>3.937</vdop><extensions><gom:speed>0.0</gom:speed></extensions></trkpt>
   <trkpt lat="59.0663780898" lon="29.9663912714"><ele>98.555</ele><time>2026-04-25T10:46:23.000Z</time><hdop>3.937</hdop><vdop>3.937</vdop><extensions><gom:speed>0.0</gom:speed></extensions></trkpt>
   <trkpt lat="59.0663780898" lon="29.9663912714"><ele>98.555</ele><time>2026-04-25T10:46:24.000Z</time><hdop>3.937</hdop><vdop>3.937</vdop><extensions><gom:speed>0.0</gom:speed></extensions></trkpt>
   <trkpt lat="59.0663780898" lon="29.9663912714"><ele>98.555</ele><time>2026-04-25T10:46:25.000Z</time><hdop>3.937</hdop><vdop>3.937</vdop><extensions><gom:speed>0.0</gom:speed></extensions></trkpt>
   <trkpt lat="59.0663780898" lon="29.9663912714"><ele>98.555</ele><time>2026-04-25T10:46:26.000Z</time><hdop>3.937</hdop><vdop>3.937</vdop><extensions><gom:speed>0.0</gom:speed></extensions></trkpt>
   <trkpt lat="59.0663780898" lon="29.9663912714"><ele>98.555</ele><time>2026-04-25T10:46:27.000Z</time><hdop>3.937</hdop><vdop>3.937</vdop><extensions><gom:speed>0.0</gom:speed></extensions></trkpt>
   <trkpt lat="59.0663780898" lon="29.9663912714"><ele>98.555</ele><time>2026-04-25T10:46:28.000Z</time><hdop>3.937</hdop><vdop>3.937</vdop><extensions><gom:speed>0.0</gom:speed></extensions></trkpt>
   <trkpt lat="59.0663780898" lon="29.9663912714"><ele>98.555</ele><time>2026-04-25T10:46:29.000Z</time><hdop>3.937</hdop><vdop>3.937</vdop><extensions><gom:speed>0.0</gom:speed></extensions></trkpt>
   <trkpt lat="59.0663780898" lon="29.9663912714"><ele>98.555</ele><time>2026-04-25T10:46:30.000Z</time><hdop>3.937</hdop><vdop>3.937</vdop><extensions><gom:speed>0.0</gom:speed></extensions></trkpt>
   <trkpt lat="59.0663780898" lon="29.9663912714"><ele>98.555</ele><time>2026-04-25T10:46:31.000Z</time><hdop>3.937</hdop><vdop>3.937</vdop><extensions><gom:speed>0.0</gom:speed></extensions></trkpt>
   <trkpt lat="59.0663780898" lon="29.9663912714"><ele>98.555</ele><time>2026-04-25T10:46:32.000Z</time><hdop>3.937</hdop><vdop>3.937</vdop><extensions><gom:speed>0.0</gom:speed></extensions></trkpt>
   <trkpt lat="59.0663780898" lon="29.9663912714"><ele>98.555</ele><time>2026-04-25T10:46:32.000Z</time><hdop>3.937</hdop><vdop>3.937</vdop><extensions><gom:speed>0.0</gom:speed></extensions></trkpt>
   <trkpt lat="59.0663780898" lon="29.9663912714"><ele>98.555</ele><time>2026-04-25T10:46:33.000Z</time><hdop>3.937</hdop><vdop>3.937</vdop><extensions><gom:speed>0.0</gom:speed></extensions></trkpt>
   <trkpt lat="59.0663780898" lon="29.9663912714"><ele>98.555</ele><time>2026-04-25T10:46:34.000Z</time><hdop>3.937</hdop><vdop>3.937</vdop><extensions><gom:speed>0.0</gom:speed></extensions></trkpt>
   <trkpt lat="59.0663780898" lon="29.9663912714"><ele>98.555</ele><time>2026-04-25T10:46:35.000Z</time><hdop>3.937</hdop><vdop>3.937</vdop><extensions><gom:speed>0.0</gom:speed></extensions></trkpt>
   <trkpt lat="59.0663780898" lon="29.9663912714"><ele>98.555</ele><time>2026-04-25T10:46:36.000Z</time><hdop>3.937</hdop><vdop>3.937</vdop><extensions><gom:speed>0.0</gom:speed></extensions></trkpt>
   <trkpt lat="59.0663780898" lon="29.9663912714"><ele>98.555</ele><time>2026-04-25T10:46:37.000Z</time><hdop>3.937</hdop><vdop>3.937</vdop><extensions><gom:speed>0.0</gom:speed></extensions></trkpt>
   <trkpt lat="59.0663780898" lon="29.9663912714"><ele>98.555</ele><time>2026-04-25T10:46:38.000Z</time><hdop>3.937</hdop><vdop>3.937</vdop><extensions><gom:speed>0.0</gom:speed></extensions></trkpt>
   <trkpt lat="59.0663780898" lon="29.9663912714"><ele>98.555</ele><time>2026-04-25T10:46:39.000Z</time><hdop>3.937</hdop><vdop>3.937</vdop><extensions><gom:speed>0.0</gom:speed></extensions></trkpt>
   <trkpt lat="59.0663780898" lon="29.9663912714"><ele>98.555</ele><time>2026-04-25T10:46:40.000Z</time><hdop>3.937</hdop><vdop>3.937</vdop><extensions><gom:speed>0.0</gom:speed></extensions></trkpt>
   <trkpt lat="59.0663780898" lon="29.9663912714"><ele>98.555</ele><time>2026-04-25T10:46:41.000Z</time><hdop>3.937</hdop><vdop>3.937</vdop><extensions><gom:speed>0.0</gom:speed></extensions></trkpt>
   <trkpt lat="59.0663780898" lon="29.9663912714"><ele>98.555</ele><time>2026-04-25T10:46:42.000Z</time><hdop>3.937</hdop><vdop>3.937</vdop><extensions><gom:speed>0.0</gom:speed></extensions></trkpt>
   <trkpt lat="59.0663780898" lon="29.9663912714"><ele>98.555</ele><time>2026-04-25T10:46:43.000Z</time><hdop>3.937</hdop><vdop>3.937</vdop><extensions><gom:speed>0.0</gom:speed></extensions></trkpt>
   <trkpt lat="59.0663780898" lon="29.9663912714"><ele>98.555</ele><time>2026-04-25T10:46:44.000Z</time><hdop>3.937</hdop><vdop>3.937</vdop><extensions><gom:speed>0.0</gom:speed></extensions></trkpt>
   <trkpt lat="59.0663780898" lon="29.9663912714"><ele>98.555</ele><time>2026-04-25T10:46:45.000Z</time><hdop>3.937</hdop><vdop>3.937</vdop><extensions><gom:speed>0.0</gom:speed></extensions></trkpt>
   <trkpt lat="59.0663780898" lon="29.9663912714"><ele>98.555</ele><time>2026-04-25T10:46:46.000Z</time><hdop>3.937</hdop><vdop>3.937</vdop><extensions><gom:speed>0.0</gom:speed></extensions></trkpt>
   <trkpt lat="59.0663780898" lon="29.9663912714"><ele>98.555</ele><time>2026-04-25T10:46:47.000Z</time><hdop>3.937</hdop><vdop>3.937</vdop><extensions><gom:speed>0.0</gom:speed></extensions></trkpt>
   <trkpt lat="59.0663780898" lon="29.9663912714"><ele>98.555</ele><time>2026-04-25T10:46:48.000Z</time><hdop>3.937</hdop><vdop>3.937</vdop><extensions><gom:speed>0.0</gom:speed></extensions></trkpt>
   <trkpt lat="59.0663780898" lon="29.9663912714"><ele>98.555</ele><time>2026-04-25T10:46:49.000Z</time><hdop>3.937</hdop><vdop>3.937</vdop><extensions><gom:speed>0.0</gom:speed></extensions></trkpt>
   <trkpt lat="59.0663780898" lon="29.9663912714"><ele>98.555</ele><time>2026-04-25T10:46:50.000Z</time><hdop>3.937</hdop><vdop>3.937</vdop><extensions><gom:speed>0.0</gom:speed></extensions></trkpt>
   <trkpt lat="59.0663780898" lon="29.9663912714"><ele>98.555</ele><time>2026-04-25T10:46:51.000Z</time><hdop>3.937</hdop><vdop>3.937</vdop><extensions><gom:speed>0.0</gom:speed></extensions></trkpt>
   <trkpt lat="59.0663780898" lon="29.9663912714"><ele>98.555</ele><time>2026-04-25T10:46:52.000Z</time><hdop>3.937</hdop><vdop>3.937</vdop><extensions><gom:speed>0.0</gom:speed></extensions></trkpt>
   <trkpt lat="59.0663780898" lon="29.9663912714"><ele>98.555</ele><time>2026-04-25T10:46:52.000Z</time><hdop>3.937</hdop><vdop>3.937</vdop><extensions><gom:speed>0.0</gom:speed></extensions></trkpt>
   <trkpt lat="59.0663780898" lon="29.9663912714"><ele>98.555</ele><time>2026-04-25T10:46:53.000Z</time><hdop>3.937</hdop><vdop>3.937</vdop><extensions><gom:speed>0.0</gom:speed></extensions></trkpt>
   <trkpt lat="59.0663780898" lon="29.9663912714"><ele>98.555</ele><time>2026-04-25T10:46:54.000Z</time><hdop>3.937</hdop><vdop>3.937</vdop><extensions><gom:speed>0.0</gom:speed></extensions></trkpt>
   <trkpt lat="59.0663780898" lon="29.9663912714"><ele>98.555</ele><time>2026-04-25T10:46:55.000Z</time><hdop>3.937</hdop><vdop>3.937</vdop><extensions><gom:speed>0.0</gom:speed></extensions></trkpt>
   <trkpt lat="59.0663780898" lon="29.9663912714"><ele>98.555</ele><time>2026-04-25T10:46:56.000Z</time><hdop>3.937</hdop><vdop>3.937</vdop><extensions><gom:speed>0.0</gom:speed></extensions></trkpt>
   <trkpt lat="59.0663780898" lon="29.9663912714"><ele>98.555</ele><time>2026-04-25T10:46:57.000Z</time><hdop>3.937</hdop><vdop>3.937</vdop><extensions><gom:speed>0.0</gom:speed></extensions></trkpt>
   <trkpt lat="59.0663780898" lon="29.9663912714"><ele>98.555</ele><time>2026-04-25T10:46:58.000Z</time><hdop>3.937</hdop><vdop>3.937</vdop><extensions><gom:speed>0.0</gom:speed></extensions></trkpt>
   <trkpt lat="59.0663780898" lon="29.9663912714"><ele>98.555</ele><time>2026-04-25T10:46:59.000Z</time><hdop>3.937</hdop><vdop>3.937</vdop><extensions><gom:speed>0.0</gom:speed></extensions></trkpt>
   <trkpt lat="59.0663780898" lon="29.9663912714"><ele>98.555</ele><time>2026-04-25T10:47:00.000Z</time><hdop>3.937</hdop><vdop>3.937</vdop><extensions><gom:speed>0.0</gom:speed></extensions></trkpt>
   <trkpt lat="59.0663780898" lon="29.9663912714"><ele>98.555</ele><time>2026-04-25T10:47:01.000Z</time><hdop>3.937</hdop><vdop>3.937</vdop><extensions><gom:speed>0.0</gom:speed></extensions></trkpt>
   <trkpt lat="59.0663780898" lon="29.9663912714"><ele>98.555</ele><time>2026-04-25T10:47:02.000Z</time><hdop>3.937</hdop><vdop>3.937</vdop><extensions><gom:speed>0.0</gom:speed></extensions></trkpt>
   <trkpt lat="59.0663780898" lon="29.9663912714"><ele>98.555</ele><time>2026-04-25T10:47:03.000Z</time><hdop>3.937</hdop><vdop>3.937</vdop><extensions><gom:speed>0.0</gom:speed></extensions></trkpt>
   <trkpt lat="59.0663780898" lon="29.9663912714"><ele>98.555</ele><time>2026-04-25T10:47:04.000Z</time><hdop>3.937</hdop><vdop>3.937</vdop><extensions><gom:speed>0.0</gom:speed></extensions></trkpt>
   <trkpt lat="59.0663780898" lon="29.9663912714"><ele>98.555</ele><time>2026-04-25T10:47:05.000Z</time><hdop>3.937</hdop><vdop>3.937</vdop><extensions><gom:speed>0.0</gom:speed></extensions></trkpt>
   <trkpt lat="59.0663780898" lon="29.9663912714"><ele>98.555</ele><time>2026-04-25T10:47:06.000Z</time><hdop>3.937</hdop><vdop>3.937</vdop><extensions><gom:speed>0.0</gom:speed></extensions></trkpt>
   <trkpt lat="59.0663780898" lon="29.9663912714"><ele>98.555</ele><time>2026-04-25T10:47:07.000Z</time><hdop>3.937</hdop><vdop>3.937</vdop><extensions><gom:speed>0.0</gom:speed></extensions></trkpt>
   <trkpt lat="59.0663780898" lon="29.9663912714"><ele>98.555</ele><time>2026-04-25T10:47:08.000Z</time><hdop>3.937</hdop><vdop>3.937</vdop><extensions><gom:speed>0.0</gom:speed></extensions></trkpt>
   <trkpt lat="59.0663780898" lon="29.9663912714"><ele>98.555</ele><time>2026-04-25T10:47:09.000Z</time><hdop>3.937</hdop><vdop>3.937</vdop><extensions><gom:speed>0.0</gom:speed></extensions></trkpt>
   <trkpt lat="59.0663780898" lon="29.9663912714"><ele>98.555</ele><time>2026-04-25T10:47:10.000Z</time><hdop>3.937</hdop><vdop>3.937</vdop><extensions><gom:speed>0.0</gom:speed></extensions></trkpt>
   <trkpt lat="59.0663780898" lon="29.9663912714"><ele>98.555</ele><time>2026-04-25T10:47:11.000Z</time><hdop>3.937</hdop><vdop>3.937</vdop><extensions><gom:speed>0.0</gom:speed></extensions></trkpt>
   <trkpt lat="59.0663780898" lon="29.9663912714"><ele>98.555</ele><time>2026-04-25T10:47:12.000Z</time><hdop>3.937</hdop><vdop>3.937</vdop><extensions><gom:speed>0.0</gom:speed></extensions></trkpt>
   <trkpt lat="59.0663780898" lon="29.9663912714"><ele>98.555</ele><time>2026-04-25T10:47:12.000Z</time><hdop>3.937</hdop><vdop>3.937</vdop><extensions><gom:speed>0.0</gom:speed></extensions></trkpt>
   <trkpt lat="59.0663780898" lon="29.9663912714"><ele>98.555</ele><time>2026-04-25T10:47:13.000Z</time><hdop>3.937</hdop><vdop>3.937</vdop><extensions><gom:speed>0.0</gom:speed></extensions></trkpt>
   <trkpt lat="59.0663780898" lon="29.9663912714"><ele>98.555</ele><time>2026-04-25T10:47:14.000Z</time><hdop>3.937</hdop><vdop>3.937</vdop><extensions><gom:speed>0.0</gom:speed></extensions></trkpt>
   <trkpt lat="59.0663780898" lon="29.9663912714"><ele>98.555</ele><time>2026-04-25T10:47:15.000Z</time><hdop>3.937</hdop><vdop>3.937</vdop><extensions><gom:speed>0.0</gom:speed></extensions></trkpt>
   <trkpt lat="59.0663780898" lon="29.9663912714"><ele>98.555</ele><time>2026-04-25T10:47:16.000Z</time><hdop>3.937</hdop><vdop>3.937</vdop><extensions><gom:speed>0.0</gom:speed></extensions></trkpt>
   <trkpt lat="59.0663780898" lon="29.9663912714"><ele>98.555</ele><time>2026-04-25T10:47:17.000Z</time><hdop>3.937</hdop><vdop>3.937</vdop><extensions><gom:speed>0.0</gom:speed></extensions></trkpt>
   <trkpt lat="59.0663780898" lon="29.9663912714"><ele>98.555</ele><time>2026-04-25T10:47:18.000Z</time><hdop>3.937</hdop><vdop>3.937</vdop><extensions><gom:speed>0.0</gom:speed></extensions></trkpt>
   <trkpt lat="59.0663780898" lon="29.9663912714"><ele>98.555</ele><time>2026-04-25T10:47:19.000Z</time><hdop>3.937</hdop><vdop>3.937</vdop><extensions><gom:speed>0.0</gom:speed></extensions></trkpt>
   <trkpt lat="59.0663780898" lon="29.9663912714"><ele>98.555</ele><time>2026-04-25T10:47:20.000Z</time><hdop>3.937</hdop><vdop>3.937</vdop><extensions><gom:speed>0.0</gom:speed></extensions></trkpt>
   <trkpt lat="59.0663780898" lon="29.9663912714"><ele>98.555</ele><time>2026-04-25T10:47:21.000Z</time><hdop>3.937</hdop><vdop>3.937</vdop><extensions><gom:speed>0.0</gom:speed></extensions></trkpt>
   <trkpt lat="59.0663780898" lon="29.9663912714"><ele>98.555</ele><time>2026-04-25T10:47:22.000Z</time><hdop>3.937</hdop><vdop>3.937</vdop><extensions><gom:speed>0.0</gom:speed></extensions></trkpt>
   <trkpt lat="59.0663780898" lon="29.9663912714"><ele>98.555</ele><time>2026-04-25T10:47:23.000Z</time><hdop>3.937</hdop><vdop>3.937</vdop><extensions><gom:speed>0.0</gom:speed></extensions></trkpt>
   <trkpt lat="59.0663780898" lon="29.9663912714"><ele>98.555</ele><time>2026-04-25T10:47:24.000Z</time><hdop>3.937</hdop><vdop>3.937</vdop><extensions><gom:speed>0.0</gom:speed></extensions></trkpt>
   <trkpt lat="59.0663780898" lon="29.9663912714"><ele>98.555</ele><time>2026-04-25T10:47:25.000Z</time><hdop>3.937</hdop><vdop>3.937</vdop><extensions><gom:speed>0.0</gom:speed></extensions></trkpt>
   <trkpt lat="59.0663780898" lon="29.9663912714"><ele>98.555</ele><time>2026-04-25T10:47:26.000Z</time><hdop>3.937</hdop><vdop>3.937</vdop><extensions><gom:speed>0.0</gom:speed></extensions></trkpt>
   <trkpt lat="59.0663780898" lon="29.9663912714"><ele>98.555</ele><time>2026-04-25T10:47:27.000Z</time><hdop>3.937</hdop><vdop>3.937</vdop><extensions><gom:speed>0.0</gom:speed></extensions></trkpt>
   <trkpt lat="59.0663780898" lon="29.9663912714"><ele>98.555</ele><time>2026-04-25T10:47:28.000Z</time><hdop>3.937</hdop><vdop>3.937</vdop><extensions><gom:speed>0.0</gom:speed></extensions></trkpt>
   <trkpt lat="59.0663953565" lon="29.9663870804"><ele>98.771</ele><time>2026-04-25T10:47:29.000Z</time><hdop>3.937</hdop><vdop>3.937</vdop><extensions><gom:speed>0.347</gom:speed></extensions></trkpt>
   <trkpt lat="59.0664036965" lon="29.9663863261"><ele>98.866</ele><time>2026-04-25T10:47:30.000Z</time><hdop>4.187</hdop><vdop>4.187</vdop><extensions><gom:speed>0.426</gom:speed></extensions></trkpt>
   <trkpt lat="59.0664036965" lon="29.9663863261"><ele>98.923</ele><time>2026-04-25T10:47:31.000Z</time><hdop>4.187</hdop><vdop>4.187</vdop><extensions><gom:speed>0.0</gom:speed></extensions></trkpt>
   <trkpt lat="59.0664036965" lon="29.9663863261"><ele>98.956</ele><time>2026-04-25T10:47:32.000Z</time><hdop>4.187</hdop><vdop>4.187</vdop><extensions><gom:speed>0.0</gom:speed></extensions></trkpt>
   <trkpt lat="59.0664036965" lon="29.9663863261"><ele>98.977</ele><time>2026-04-25T10:47:32.000Z</time><hdop>4.187</hdop><vdop>4.187</vdop><extensions><gom:speed>0.0</gom:speed></extensions></trkpt>
   <trkpt lat="59.0664036965" lon="29.9663863261"><ele>98.989</ele><time>2026-04-25T10:47:33.000Z</time><hdop>4.187</hdop><vdop>4.187</vdop><extensions><gom:speed>0.0</gom:speed></extensions></trkpt>
   <trkpt lat="59.066411827" lon="29.9663815484"><ele>98.98</ele><time>2026-04-25T10:47:34.000Z</time><hdop>4.375</hdop><vdop>4.375</vdop><extensions><gom:speed>0.24</gom:speed></extensions></trkpt>
   <trkpt lat="59.066411827" lon="29.9663815484"><ele>98.975</ele><time>2026-04-25T10:47:35.000Z</time><hdop>4.375</hdop><vdop>4.375</vdop><extensions><gom:speed>0.0</gom:speed></extensions></trkpt>
   <trkpt lat="59.0664227234" lon="29.9663765192"><ele>98.957</ele><time>2026-04-25T10:47:36.000Z</time><hdop>4.25</hdop><vdop>4.25</vdop><extensions><gom:speed>0.309</gom:speed></extensions></trkpt>
   <trkpt lat="59.0664325303" lon="29.9663748429"><ele>98.866</ele><time>2026-04-25T10:47:37.000Z</time><hdop>4.312</hdop><vdop>4.312</vdop><extensions><gom:speed>0.524</gom:speed></extensions></trkpt>
   <trkpt lat="59.0664427143" lon="29.9663724121"><ele>98.848</ele><time>2026-04-25T10:47:38.000Z</time><hdop>4.625</hdop><vdop>4.625</vdop><extensions><gom:speed>0.571</gom:speed></extensions></trkpt>
   <trkpt lat="59.066447031" lon="29.9663771898"><ele>98.758</ele><time>2026-04-25T10:47:39.000Z</time><hdop>4.562</hdop><vdop>4.562</vdop><extensions><gom:speed>0.306</gom:speed></extensions></trkpt>
   <trkpt lat="59.0664531917" lon="29.9663865775"><ele>98.707</ele><time>2026-04-25T10:47:40.000Z</time><hdop>4.437</hdop><vdop>4.437</vdop><extensions><gom:speed>0.576</gom:speed></extensions></trkpt>
   <trkpt lat="59.0664591847" lon="29.9664029222"><ele>98.486</ele><time>2026-04-25T10:47:41.000Z</time><hdop>4.75</hdop><vdop>4.75</vdop><extensions><gom:speed>0.622</gom:speed></extensions></trkpt>
   <trkpt lat="59.0664673571" lon="29.9664206919"><ele>98.182</ele><time>2026-04-25T10:47:42.000Z</time><hdop>4.875</hdop><vdop>4.875</vdop><extensions><gom:speed>0.693</gom:speed></extensions></trkpt>
   <trkpt lat="59.066474314" lon="29.9664356955"><ele>97.88</ele><time>2026-04-25T10:47:43.000Z</time><hdop>4.812</hdop><vdop>4.812</vdop><extensions><gom:speed>0.715</gom:speed></extensions></trkpt>
   <trkpt lat="59.0664813968" lon="29.9664517887"><ele>97.702</ele><time>2026-04-25T10:47:44.000Z</time><hdop>4.812</hdop><vdop>4.812</vdop><extensions><gom:speed>0.762</gom:speed></extensions></trkpt>
   <trkpt lat="59.0664904911" lon="29.966472492"><ele>97.484</ele><time>2026-04-25T10:47:45.000Z</time><hdop>4.375</hdop><vdop>4.375</vdop><extensions><gom:speed>0.977</gom:speed></extensions></trkpt>
   <trkpt lat="59.0664981187" lon="29.9664928601"><ele>97.219</ele><time>2026-04-25T10:47:46.000Z</time><hdop>4.25</hdop><vdop>4.25</vdop><extensions><gom:speed>0.793</gom:speed></extensions></trkpt>
   <trkpt lat="59.0665035669" lon="29.9665081151"><ele>96.924</ele><time>2026-04-25T10:47:47.000Z</time><hdop>4.125</hdop><vdop>4.125</vdop><extensions><gom:speed>0.51</gom:speed></extensions></trkpt>
   <trkpt lat="59.0665101048" lon="29.9665164132"><ele>96.763</ele><time>2026-04-25T10:47:48.000Z</time><hdop>4.25</hdop><vdop>4.25</vdop><extensions><gom:speed>0.562</gom:speed></extensions></trkpt>
   <trkpt lat="59.0665209174" lon="29.9665185087"><ele>96.787</ele><time>2026-04-25T10:47:49.000Z</time><hdop>4.562</hdop><vdop>4.562</vdop><extensions><gom:speed>0.905</gom:speed></extensions></trkpt>
   <trkpt lat="59.0665329455" lon="29.9665201851"><ele>96.989</ele><time>2026-04-25T10:47:50.000Z</time><hdop>4.437</hdop><vdop>4.437</vdop><extensions><gom:speed>0.876</gom:speed></extensions></trkpt>
   <trkpt lat="59.0665414531" lon="29.9665266391"><ele>97.18</ele><time>2026-04-25T10:47:51.000Z</time><hdop>4.375</hdop><vdop>4.375</vdop><extensions><gom:speed>0.459</gom:speed></extensions></trkpt>
   <trkpt lat="59.066546105" lon="29.9665380385"><ele>97.318</ele><time>2026-04-25T10:47:52.000Z</time><hdop>4.5</hdop><vdop>4.5</vdop><extensions><gom:speed>0.378</gom:speed></extensions></trkpt>
   <trkpt lat="59.066546105" lon="29.9665380385"><ele>97.4</ele><time>2026-04-25T10:47:52.000Z</time><hdop>4.5</hdop><vdop>4.5</vdop><extensions><gom:speed>0.378</gom:speed></extensions></trkpt>
   <trkpt lat="59.0665481586" lon="29.966552623"><ele>98.143</ele><time>2026-04-25T10:47:53.000Z</time><hdop>2.5</hdop><vdop>2.5</vdop><extensions><gom:speed>0.276</gom:speed></extensions></trkpt>
   <trkpt lat="59.0665511342" lon="29.9665663693"><ele>98.716</ele><time>2026-04-25T10:47:54.000Z</time><hdop>3.0</hdop><vdop>3.0</vdop><extensions><gom:speed>0.288</gom:speed></extensions></trkpt>
   <trkpt lat="59.0665558281" lon="29.9665684648"><ele>98.408</ele><time>2026-04-25T10:47:55.000Z</time><hdop>4.437</hdop><vdop>4.437</vdop><extensions><gom:speed>0.6</gom:speed></extensions></trkpt>
   <trkpt lat="59.0665630784" lon="29.9665796128"><ele>98.315</ele><time>2026-04-25T10:47:56.000Z</time><hdop>4.937</hdop><vdop>4.937</vdop><extensions><gom:speed>0.526</gom:speed></extensions></trkpt>
   <trkpt lat="59.0665704545" lon="29.9665899225"><ele>98.401</ele><time>2026-04-25T10:47:57.000Z</time><hdop>4.312</hdop><vdop>4.312</vdop><extensions><gom:speed>0.687</gom:speed></extensions></trkpt>
   <trkpt lat="59.0665704545" lon="29.9665899225"><ele>98.452</ele><time>2026-04-25T10:47:58.000Z</time><hdop>4.312</hdop><vdop>4.312</vdop><extensions><gom:speed>0.0</gom:speed></extensions></trkpt>
   <trkpt lat="59.0665746035" lon="29.9665945325"><ele>98.584</ele><time>2026-04-25T10:47:59.000Z</time><hdop>4.375</hdop><vdop>4.375</vdop><extensions><gom:speed>0.403</gom:speed></extensions></trkpt>
   <trkpt lat="59.0665818539" lon="29.9666038365"><ele>98.717</ele><time>2026-04-25T10:48:00.000Z</time><hdop>4.187</hdop><vdop>4.187</vdop><extensions><gom:speed>0.639</gom:speed></extensions></trkpt>
   <trkpt lat="59.0665899843" lon="29.96661423"><ele>98.814</ele><time>2026-04-25T10:48:01.000Z</time><hdop>4.0</hdop><vdop>4.0</vdop><extensions><gom:speed>0.819</gom:speed></extensions></trkpt>
   <trkpt lat="59.0665999169" lon="29.9666293174"><ele>98.828</ele><time>2026-04-25T10:48:02.000Z</time><hdop>3.625</hdop><vdop>3.625</vdop><extensions><gom:speed>0.906</gom:speed></extensions></trkpt>
   <trkpt lat="59.0666082569" lon="29.9666428123"><ele>98.805</ele><time>2026-04-25T10:48:03.000Z</time><hdop>3.437</hdop><vdop>3.437</vdop><extensions><gom:speed>0.716</gom:speed></extensions></trkpt>
   <trkpt lat="59.0666144176" lon="29.9666572292"><ele>98.894</ele><time>2026-04-25T10:48:04.000Z</time><hdop>3.312</hdop><vdop>3.312</vdop><extensions><gom:speed>0.673</gom:speed></extensions></trkpt>
   <trkpt lat="59.0666206621" lon="29.9666693829"><ele>99.066</ele><time>2026-04-25T10:48:05.000Z</time><hdop>3.437</hdop><vdop>3.437</vdop><extensions><gom:speed>0.538</gom:speed></extensions></trkpt>
   <trkpt lat="59.0666265713" lon="29.9666756694"><ele>99.187</ele><time>2026-04-25T10:48:06.000Z</time><hdop>3.375</hdop><vdop>3.375</vdop><extensions><gom:speed>0.461</gom:speed></extensions></trkpt>
   <trkpt lat="59.0666327739" lon="29.9666793574"><ele>99.217</ele><time>2026-04-25T10:48:07.000Z</time><hdop>3.0</hdop><vdop>3.0</vdop><extensions><gom:speed>0.509</gom:speed></extensions></trkpt>
   <trkpt lat="59.0666411558" lon="29.9666799441"><ele>99.187</ele><time>2026-04-25T10:48:08.000Z</time><hdop>3.0</hdop><vdop>3.0</vdop><extensions><gom:speed>0.765</gom:speed></extensions></trkpt>
   <trkpt lat="59.0666476937" lon="29.9666824587"><ele>99.198</ele><time>2026-04-25T10:48:09.000Z</time><hdop>3.0</hdop><vdop>3.0</vdop><extensions><gom:speed>0.491</gom:speed></extensions></trkpt>
   <trkpt lat="59.066651256" lon="29.9666874878"><ele>99.207</ele><time>2026-04-25T10:48:10.000Z</time><hdop>3.0</hdop><vdop>3.0</vdop><extensions><gom:speed>0.338</gom:speed></extensions></trkpt>
   <trkpt lat="59.0666575005" lon="29.9666886613"><ele>99.136</ele><time>2026-04-25T10:48:11.000Z</time><hdop>3.0</hdop><vdop>3.0</vdop><extensions><gom:speed>0.183</gom:speed></extensions></trkpt>
   <trkpt lat="59.0666610209" lon="29.9666899186"><ele>99.167</ele><time>2026-04-25T10:48:12.000Z</time><hdop>3.0</hdop><vdop>3.0</vdop><extensions><gom:speed>0.267</gom:speed></extensions></trkpt>
   <trkpt lat="59.0666610209" lon="29.9666899186"><ele>99.186</ele><time>2026-04-25T10:48:13.000Z</time><hdop>3.0</hdop><vdop>3.0</vdop><extensions><gom:speed>0.0</gom:speed></extensions></trkpt>
   <trkpt lat="59.0666659244" lon="29.9666905892"><ele>99.226</ele><time>2026-04-25T10:48:14.000Z</time><hdop>3.0</hdop><vdop>3.0</vdop><extensions><gom:speed>0.447</gom:speed></extensions></trkpt>
   <trkpt lat="59.0666732166" lon="29.9666972109"><ele>99.25</ele><time>2026-04-25T10:48:15.000Z</time><hdop>3.125</hdop><vdop>3.125</vdop><extensions><gom:speed>0.65</gom:speed></extensions></trkpt>
   <trkpt lat="59.0666732166" lon="29.9666972109"><ele>99.265</ele><time>2026-04-25T10:48:16.000Z</time><hdop>3.125</hdop><vdop>3.125</vdop><extensions><gom:speed>0.0</gom:speed></extensions></trkpt>
   <trkpt lat="59.0666732166" lon="29.9666972109"><ele>99.274</ele><time>2026-04-25T10:48:16.000Z</time><hdop>3.125</hdop><vdop>3.125</vdop><extensions><gom:speed>0.0</gom:speed></extensions></trkpt>
   <trkpt lat="59.0666732166" lon="29.9666972109"><ele>99.279</ele><time>2026-04-25T10:48:17.000Z</time><hdop>3.125</hdop><vdop>3.125</vdop><extensions><gom:speed>0.0</gom:speed></extensions></trkpt>
   <trkpt lat="59.0666740548" lon="29.9667043355"><ele>99.253</ele><time>2026-04-25T10:48:18.000Z</time><hdop>3.0</hdop><vdop>3.0</vdop><extensions><gom:speed>0.341</gom:speed></extensions></trkpt>
   <trkpt lat="59.0666723365" lon="29.9667230271"><ele>99.162</ele><time>2026-04-25T10:48:19.000Z</time><hdop>3.062</hdop><vdop>3.062</vdop><extensions><gom:speed>0.67</gom:speed></extensions></trkpt>
   <trkpt lat="59.066673971" lon="29.9667386175"><ele>99.059</ele><time>2026-04-25T10:48:20.000Z</time><hdop>3.062</hdop><vdop>3.062</vdop><extensions><gom:speed>0.499</gom:speed></extensions></trkpt>
   <trkpt lat="59.0666772399" lon="29.9667523638"><ele>99.051</ele><time>2026-04-25T10:48:21.000Z</time><hdop>3.312</hdop><vdop>3.312</vdop><extensions><gom:speed>0.38</gom:speed></extensions></trkpt>
   <trkpt lat="59.0666801317" lon="29.966760578"><ele>99.038</ele><time>2026-04-25T10:48:22.000Z</time><hdop>3.0</hdop><vdop>3.0</vdop><extensions><gom:speed>0.179</gom:speed></extensions></trkpt>
   <trkpt lat="59.0666807184" lon="29.9667661101"><ele>99.098</ele><time>2026-04-25T10:48:23.000Z</time><hdop>3.0</hdop><vdop>3.0</vdop><extensions><gom:speed>0.129</gom:speed></extensions></trkpt>
   <trkpt lat="59.0666807184" lon="29.9667661101"><ele>99.134</ele><time>2026-04-25T10:48:24.000Z</time><hdop>3.0</hdop><vdop>3.0</vdop><extensions><gom:speed>0.0</gom:speed></extensions></trkpt>
   <trkpt lat="59.0666807184" lon="29.9667661101"><ele>99.155</ele><time>2026-04-25T10:48:25.000Z</time><hdop>3.0</hdop><vdop>3.0</vdop><extensions><gom:speed>0.0</gom:speed></extensions></trkpt>
   <trkpt lat="59.0666807184" lon="29.9667661101"><ele>99.168</ele><time>2026-04-25T10:48:26.000Z</time><hdop>3.0</hdop><vdop>3.0</vdop><extensions><gom:speed>0.0</gom:speed></extensions></trkpt>
   <trkpt lat="59.0666807184" lon="29.9667661101"><ele>99.175</ele><time>2026-04-25T10:48:27.000Z</time><hdop>3.0</hdop><vdop>3.0</vdop><extensions><gom:speed>0.0</gom:speed></extensions></trkpt>
   <trkpt lat="59.0666807184" lon="29.9667661101"><ele>99.18</ele><time>2026-04-25T10:48:28.000Z</time><hdop>3.0</hdop><vdop>3.0</vdop><extensions><gom:speed>0.0</gom:speed></extensions></trkpt>
   <trkpt lat="59.0666807184" lon="29.9667661101"><ele>99.183</ele><time>2026-04-25T10:48:29.000Z</time><hdop>3.0</hdop><vdop>3.0</vdop><extensions><gom:speed>0.0</gom:speed></extensions></trkpt>
   <trkpt lat="59.0666807184" lon="29.9667661101"><ele>99.184</ele><time>2026-04-25T10:48:30.000Z</time><hdop>3.0</hdop><vdop>3.0</vdop><extensions><gom:speed>0.0</gom:speed></extensions></trkpt>
   <trkpt lat="59.0666807184" lon="29.9667661101"><ele>99.185</ele><time>2026-04-25T10:48:31.000Z</time><hdop>3.0</hdop><vdop>3.0</vdop><extensions><gom:speed>0.0</gom:speed></extensions></trkpt>
   <trkpt lat="59.0666807184" lon="29.9667661101"><ele>99.186</ele><time>2026-04-25T10:48:32.000Z</time><hdop>3.0</hdop><vdop>3.0</vdop><extensions><gom:speed>0.0</gom:speed></extensions></trkpt>
   <trkpt lat="59.0666807184" lon="29.9667661101"><ele>99.186</ele><time>2026-04-25T10:48:32.000Z</time><hdop>3.0</hdop><vdop>3.0</vdop><extensions><gom:speed>0.0</gom:speed></extensions></trkpt>
   <trkpt lat="59.0666807184" lon="29.9667661101"><ele>99.187</ele><time>2026-04-25T10:48:33.000Z</time><hdop>3.0</hdop><vdop>3.0</vdop><extensions><gom:speed>0.0</gom:speed></extensions></trkpt>
   <trkpt lat="59.0666807184" lon="29.9667661101"><ele>99.187</ele><time>2026-04-25T10:48:34.000Z</time><hdop>3.0</hdop><vdop>3.0</vdop><extensions><gom:speed>0.0</gom:speed></extensions></trkpt>
   <trkpt lat="59.0666807184" lon="29.9667661101"><ele>99.187</ele><time>2026-04-25T10:48:35.000Z</time><hdop>3.0</hdop><vdop>3.0</vdop><extensions><gom:speed>0.0</gom:speed></extensions></trkpt>
   <trkpt lat="59.0666807184" lon="29.9667661101"><ele>99.187</ele><time>2026-04-25T10:48:36.000Z</time><hdop>3.0</hdop><vdop>3.0</vdop><extensions><gom:speed>0.0</gom:speed></extensions></trkpt>
   <trkpt lat="59.0666807184" lon="29.9667661101"><ele>99.187</ele><time>2026-04-25T10:48:37.000Z</time><hdop>3.0</hdop><vdop>3.0</vdop><extensions><gom:speed>0.0</gom:speed></extensions></trkpt>
   <trkpt lat="59.0666807184" lon="29.9667661101"><ele>99.187</ele><time>2026-04-25T10:48:38.000Z</time><hdop>3.0</hdop><vdop>3.0</vdop><extensions><gom:speed>0.0</gom:speed></extensions></trkpt>
   <trkpt lat="59.0666807184" lon="29.9667661101"><ele>99.187</ele><time>2026-04-25T10:48:39.000Z</time><hdop>3.0</hdop><vdop>3.0</vdop><extensions><gom:speed>0.0</gom:speed></extensions></trkpt>
   <trkpt lat="59.0666807184" lon="29.9667661101"><ele>99.187</ele><time>2026-04-25T10:48:40.000Z</time><hdop>3.0</hdop><vdop>3.0</vdop><extensions><gom:speed>0.0</gom:speed></extensions></trkpt>
   <trkpt lat="59.0666807184" lon="29.9667661101"><ele>99.187</ele><time>2026-04-25T10:48:41.000Z</time><hdop>3.0</hdop><vdop>3.0</vdop><extensions><gom:speed>0.0</gom:speed></extensions></trkpt>
   <trkpt lat="59.0666807184" lon="29.9667661101"><ele>99.187</ele><time>2026-04-25T10:48:42.000Z</time><hdop>3.0</hdop><vdop>3.0</vdop><extensions><gom:speed>0.0</gom:speed></extensions></trkpt>
   <trkpt lat="59.0666807184" lon="29.9667661101"><ele>99.187</ele><time>2026-04-25T10:48:43.000Z</time><hdop>3.0</hdop><vdop>3.0</vdop><extensions><gom:speed>0.0</gom:speed></extensions></trkpt>
   <trkpt lat="59.0666807184" lon="29.9667661101"><ele>99.187</ele><time>2026-04-25T10:48:44.000Z</time><hdop>3.0</hdop><vdop>3.0</vdop><extensions><gom:speed>0.0</gom:speed></extensions></trkpt>
   <trkpt lat="59.0666807184" lon="29.9667661101"><ele>99.187</ele><time>2026-04-25T10:48:45.000Z</time><hdop>3.0</hdop><vdop>3.0</vdop><extensions><gom:speed>0.0</gom:speed></extensions></trkpt>
   <trkpt lat="59.0666835683" lon="29.9667758331"><ele>99.211</ele><time>2026-04-25T10:48:46.000Z</time><hdop>3.062</hdop><vdop>3.062</vdop><extensions><gom:speed>0.565</gom:speed></extensions></trkpt>
   <trkpt lat="59.0666870048" lon="29.9667927646"><ele>99.152</ele><time>2026-04-25T10:48:47.000Z</time><hdop>3.0</hdop><vdop>3.0</vdop><extensions><gom:speed>0.602</gom:speed></extensions></trkpt>
   <trkpt lat="59.0666903995" lon="29.9668076005"><ele>99.109</ele><time>2026-04-25T10:48:48.000Z</time><hdop>3.0</hdop><vdop>3.0</vdop><extensions><gom:speed>0.697</gom:speed></extensions></trkpt>
   <trkpt lat="59.0666911958" lon="29.9668248672"><ele>99.11</ele><time>2026-04-25T10:48:49.000Z</time><hdop>3.25</hdop><vdop>3.25</vdop><extensions><gom:speed>0.453</gom:speed></extensions></trkpt>
   <trkpt lat="59.0666921178" lon="29.966836099"><ele>99.143</ele><time>2026-04-25T10:48:50.000Z</time><hdop>3.5</hdop><vdop>3.5</vdop><extensions><gom:speed>0.111</gom:speed></extensions></trkpt>
   <trkpt lat="59.0666921178" lon="29.966836099"><ele>99.163</ele><time>2026-04-25T10:48:51.000Z</time><hdop>3.5</hdop><vdop>3.5</vdop><extensions><gom:speed>0.0</gom:speed></extensions></trkpt>
   <trkpt lat="59.0666921178" lon="29.966836099"><ele>99.175</ele><time>2026-04-25T10:48:52.000Z</time><hdop>3.5</hdop><vdop>3.5</vdop><extensions><gom:speed>0.0</gom:speed></extensions></trkpt>
   <trkpt lat="59.0666921178" lon="29.966836099"><ele>99.182</ele><time>2026-04-25T10:48:53.000Z</time><hdop>3.5</hdop><vdop>3.5</vdop><extensions><gom:speed>0.0</gom:speed></extensions></trkpt>
   <trkpt lat="59.0666921178" lon="29.966836099"><ele>99.187</ele><time>2026-04-25T10:48:53.000Z</time><hdop>3.5</hdop><vdop>3.5</vdop><extensions><gom:speed>0.0</gom:speed></extensions></trkpt>
   <trkpt lat="59.0666921178" lon="29.966836099"><ele>99.189</ele><time>2026-04-25T10:48:54.000Z</time><hdop>3.5</hdop><vdop>3.5</vdop><extensions><gom:speed>0.0</gom:speed></extensions></trkpt>
   <trkpt lat="59.0666921178" lon="29.966836099"><ele>99.191</ele><time>2026-04-25T10:48:55.000Z</time><hdop>3.5</hdop><vdop>3.5</vdop><extensions><gom:speed>0.0</gom:speed></extensions></trkpt>
   <trkpt lat="59.0666921178" lon="29.966836099"><ele>99.192</ele><time>2026-04-25T10:48:56.000Z</time><hdop>3.5</hdop><vdop>3.5</vdop><extensions><gom:speed>0.0</gom:speed></extensions></trkpt>
   <trkpt lat="59.0666921178" lon="29.966836099"><ele>99.192</ele><time>2026-04-25T10:48:57.000Z</time><hdop>3.5</hdop><vdop>3.5</vdop><extensions><gom:speed>0.0</gom:speed></extensions></trkpt>
   <trkpt lat="59.0666921178" lon="29.966836099"><ele>99.192</ele><time>2026-04-25T10:48:58.000Z</time><hdop>3.5</hdop><vdop>3.5</vdop><extensions><gom:speed>0.0</gom:speed></extensions></trkpt>
   <trkpt lat="59.0666921178" lon="29.966836099"><ele>99.193</ele><time>2026-04-25T10:48:59.000Z</time><hdop>3.5</hdop><vdop>3.5</vdop><extensions><gom:speed>0.0</gom:speed></extensions></trkpt>
   <trkpt lat="59.0666921178" lon="29.966836099"><ele>99.193</ele><time>2026-04-25T10:49:00.000Z</time><hdop>3.5</hdop><vdop>3.5</vdop><extensions><gom:speed>0.0</gom:speed></extensions></trkpt>
   <trkpt lat="59.0666921178" lon="29.966836099"><ele>99.193</ele><time>2026-04-25T10:49:01.000Z</time><hdop>3.5</hdop><vdop>3.5</vdop><extensions><gom:speed>0.0</gom:speed></extensions></trkpt>
   <trkpt lat="59.0666921178" lon="29.966836099"><ele>99.193</ele><time>2026-04-25T10:49:02.000Z</time><hdop>3.5</hdop><vdop>3.5</vdop><extensions><gom:speed>0.0</gom:speed></extensions></trkpt>
   <trkpt lat="59.0666918244" lon="29.9668438103"><ele>99.263</ele><time>2026-04-25T10:49:03.000Z</time><hdop>3.562</hdop><vdop>3.562</vdop><extensions><gom:speed>0.384</gom:speed></extensions></trkpt>
   <trkpt lat="59.0666898128" lon="29.9668574728"><ele>99.336</ele><time>2026-04-25T10:49:04.000Z</time><hdop>3.687</hdop><vdop>3.687</vdop><extensions><gom:speed>0.573</gom:speed></extensions></trkpt>
   <trkpt lat="59.0666875916" lon="29.9668735661"><ele>99.403</ele><time>2026-04-25T10:49:05.000Z</time><hdop>3.812</hdop><vdop>3.812</vdop><extensions><gom:speed>0.618</gom:speed></extensions></trkpt>
   <trkpt lat="59.0666881783" lon="29.9668920063"><ele>99.324</ele><time>2026-04-25T10:49:06.000Z</time><hdop>3.687</hdop><vdop>3.687</vdop><extensions><gom:speed>0.82</gom:speed></extensions></trkpt>
   <trkpt lat="59.0666917406" lon="29.9669096921"><ele>99.232</ele><time>2026-04-25T10:49:07.000Z</time><hdop>3.875</hdop><vdop>3.875</vdop><extensions><gom:speed>0.601</gom:speed></extensions></trkpt>
   <trkpt lat="59.066695722" lon="29.966925031"><ele>99.151</ele><time>2026-04-25T10:49:08.000Z</time><hdop>4.0</hdop><vdop>4.0</vdop><extensions><gom:speed>0.713</gom:speed></extensions></trkpt>
   <trkpt lat="59.0666964764" lon="29.9669412081"><ele>99.082</ele><time>2026-04-25T10:49:09.000Z</time><hdop>3.812</hdop><vdop>3.812</vdop><extensions><gom:speed>0.663</gom:speed></extensions></trkpt>
   <trkpt lat="59.0666939199" lon="29.9669585586"><ele>99.077</ele><time>2026-04-25T10:49:10.000Z</time><hdop>3.625</hdop><vdop>3.625</vdop><extensions><gom:speed>0.83</gom:speed></extensions></trkpt>
   <trkpt lat="59.0666903576" lon="29.9669771664"><ele>99.144</ele><time>2026-04-25T10:49:11.000Z</time><hdop>4.125</hdop><vdop>4.125</vdop><extensions><gom:speed>0.778</gom:speed></extensions></trkpt>
   <trkpt lat="59.0666884717" lon="29.966994014"><ele>99.234</ele><time>2026-04-25T10:49:12.000Z</time><hdop>4.187</hdop><vdop>4.187</vdop><extensions><gom:speed>0.541</gom:speed></extensions></trkpt>
   <trkpt lat="59.0666884717" lon="29.966994014"><ele>99.289</ele><time>2026-04-25T10:49:12.000Z</time><hdop>4.187</hdop><vdop>4.187</vdop><extensions><gom:speed>0.541</gom:speed></extensions></trkpt>
   <trkpt lat="59.0666903157" lon="29.9670075089"><ele>99.348</ele><time>2026-04-25T10:49:13.000Z</time><hdop>4.125</hdop><vdop>4.125</vdop><extensions><gom:speed>0.606</gom:speed></extensions></trkpt>
   <trkpt lat="59.0666953867" lon="29.9670212552"><ele>99.366</ele><time>2026-04-25T10:49:14.000Z</time><hdop>4.062</hdop><vdop>4.062</vdop><extensions><gom:speed>0.582</gom:speed></extensions></trkpt>
   <trkpt lat="59.0667017151" lon="29.967032487"><ele>99.438</ele><time>2026-04-25T10:49:15.000Z</time><hdop>4.25</hdop><vdop>4.25</vdop><extensions><gom:speed>0.666</gom:speed></extensions></trkpt>
   <trkpt lat="59.0667051517" lon="29.9670426291"><ele>99.521</ele><time>2026-04-25T10:49:16.000Z</time><hdop>4.75</hdop><vdop>4.75</vdop><extensions><gom:speed>0.225</gom:speed></extensions></trkpt>
   <trkpt lat="59.0667054869" lon="29.9670474906"><ele>99.53</ele><time>2026-04-25T10:49:17.000Z</time><hdop>4.875</hdop><vdop>4.875</vdop><extensions><gom:speed>0.209</gom:speed></extensions></trkpt>
   <trkpt lat="59.0667054869" lon="29.9670474906"><ele>99.535</ele><time>2026-04-25T10:49:18.000Z</time><hdop>4.875</hdop><vdop>4.875</vdop><extensions><gom:speed>0.0</gom:speed></extensions></trkpt>
   <trkpt lat="59.0667054869" lon="29.9670474906"><ele>99.538</ele><time>2026-04-25T10:49:19.000Z</time><hdop>4.875</hdop><vdop>4.875</vdop><extensions><gom:speed>0.0</gom:speed></extensions></trkpt>
   <trkpt lat="59.0667054869" lon="29.9670474906"><ele>99.54</ele><time>2026-04-25T10:49:20.000Z</time><hdop>4.875</hdop><vdop>4.875</vdop><extensions><gom:speed>0.0</gom:speed></extensions></trkpt>
   <trkpt lat="59.0667054869" lon="29.9670474906"><ele>99.541</ele><time>2026-04-25T10:49:21.000Z</time><hdop>4.875</hdop><vdop>4.875</vdop><extensions><gom:speed>0.0</gom:speed></extensions></trkpt>
   <trkpt lat="59.0667041039" lon="29.9670515139"><ele>99.558</ele><time>2026-04-25T10:49:22.000Z</time><hdop>4.312</hdop><vdop>4.312</vdop><extensions><gom:speed>0.233</gom:speed></extensions></trkpt>
   <trkpt lat="59.066701757" lon="29.9670492508"><ele>99.552</ele><time>2026-04-25T10:49:23.000Z</time><hdop>3.687</hdop><vdop>3.687</vdop><extensions><gom:speed>0.374</gom:speed></extensions></trkpt>
   <trkpt lat="59.066701757" lon="29.9670492508"><ele>99.549</ele><time>2026-04-25T10:49:24.000Z</time><hdop>3.687</hdop><vdop>3.687</vdop><extensions><gom:speed>0.0</gom:speed></extensions></trkpt>
   <trkpt lat="59.0666998711" lon="29.9670461495"><ele>99.583</ele><time>2026-04-25T10:49:25.000Z</time><hdop>3.25</hdop><vdop>3.25</vdop><extensions><gom:speed>0.344</gom:speed></extensions></trkpt>
   <trkpt lat="59.0666993262" lon="29.9670489155"><ele>99.609</ele><time>2026-04-25T10:49:26.000Z</time><hdop>3.0</hdop><vdop>3.0</vdop><extensions><gom:speed>0.27</gom:speed></extensions></trkpt>
   <trkpt lat="59.0667000806" lon="29.9670501728"><ele>99.48</ele><time>2026-04-25T10:49:27.000Z</time><hdop>3.0</hdop><vdop>3.0</vdop><extensions><gom:speed>0.134</gom:speed></extensions></trkpt>
   <trkpt lat="59.0666998711" lon="29.9670527712"><ele>99.398</ele><time>2026-04-25T10:49:28.000Z</time><hdop>3.0</hdop><vdop>3.0</vdop><extensions><gom:speed>0.185</gom:speed></extensions></trkpt>
   <trkpt lat="59.0666998711" lon="29.9670527712"><ele>99.349</ele><time>2026-04-25T10:49:29.000Z</time><hdop>3.0</hdop><vdop>3.0</vdop><extensions><gom:speed>0.0</gom:speed></extensions></trkpt>
   <trkpt lat="59.0666998711" lon="29.9670527712"><ele>99.319</ele><time>2026-04-25T10:49:30.000Z</time><hdop>3.0</hdop><vdop>3.0</vdop><extensions><gom:speed>0.0</gom:speed></extensions></trkpt>
   <trkpt lat="59.0666998711" lon="29.9670527712"><ele>99.302</ele><time>2026-04-25T10:49:31.000Z</time><hdop>3.0</hdop><vdop>3.0</vdop><extensions><gom:speed>0.0</gom:speed></extensions></trkpt>
   <trkpt lat="59.0666998711" lon="29.9670527712"><ele>99.291</ele><time>2026-04-25T10:49:32.000Z</time><hdop>3.0</hdop><vdop>3.0</vdop><extensions><gom:speed>0.0</gom:speed></extensions></trkpt>
   <trkpt lat="59.0666998711" lon="29.9670527712"><ele>99.285</ele><time>2026-04-25T10:49:33.000Z</time><hdop>3.0</hdop><vdop>3.0</vdop><extensions><gom:speed>0.0</gom:speed></extensions></trkpt>
   <trkpt lat="59.0667027628" lon="29.9670557049"><ele>99.273</ele><time>2026-04-25T10:49:34.000Z</time><hdop>3.0</hdop><vdop>3.0</vdop><extensions><gom:speed>0.53</gom:speed></extensions></trkpt>
   <trkpt lat="59.0667085044" lon="29.9670619913"><ele>99.266</ele><time>2026-04-25T10:49:35.000Z</time><hdop>3.0</hdop><vdop>3.0</vdop><extensions><gom:speed>0.585</gom:speed></extensions></trkpt>
   <trkpt lat="59.0667131564" lon="29.9670743127"><ele>99.245</ele><time>2026-04-25T10:49:36.000Z</time><hdop>3.0</hdop><vdop>3.0</vdop><extensions><gom:speed>0.806</gom:speed></extensions></trkpt>
   <trkpt lat="59.0667131564" lon="29.9670743127"><ele>99.232</ele><time>2026-04-25T10:49:36.000Z</time><hdop>3.0</hdop><vdop>3.0</vdop><extensions><gom:speed>0.806</gom:speed></extensions></trkpt>
   <trkpt lat="59.0667131564" lon="29.9670743127"><ele>99.224</ele><time>2026-04-25T10:49:36.000Z</time><hdop>3.0</hdop><vdop>3.0</vdop><extensions><gom:speed>0.806</gom:speed></extensions></trkpt>
   <trkpt lat="59.0667175988" lon="29.9670878914"><ele>99.209</ele><time>2026-04-25T10:49:37.000Z</time><hdop>3.0</hdop><vdop>3.0</vdop><extensions><gom:speed>0.786</gom:speed></extensions></trkpt>
   <trkpt lat="59.0667233404" lon="29.9670999613"><ele>99.221</ele><time>2026-04-25T10:49:38.000Z</time><hdop>3.0</hdop><vdop>3.0</vdop><extensions><gom:speed>0.755</gom:speed></extensions></trkpt>
   <trkpt lat="59.0667279085" lon="29.967112618"><ele>99.242</ele><time>2026-04-25T10:49:39.000Z</time><hdop>3.0</hdop><vdop>3.0</vdop><extensions><gom:speed>0.785</gom:speed></extensions></trkpt>
   <trkpt lat="59.066731848" lon="29.9671220057"><ele>99.221</ele><time>2026-04-25T10:49:40.000Z</time><hdop>3.0</hdop><vdop>3.0</vdop><extensions><gom:speed>0.48</gom:speed></extensions></trkpt>
   <trkpt lat="59.0667355361" lon="29.9671312258"><ele>99.199</ele><time>2026-04-25T10:49:41.000Z</time><hdop>3.0</hdop><vdop>3.0</vdop><extensions><gom:speed>0.462</gom:speed></extensions></trkpt>
   <trkpt lat="59.0667397689" lon="29.9671394401"><ele>99.18</ele><time>2026-04-25T10:49:42.000Z</time><hdop>3.0</hdop><vdop>3.0</vdop><extensions><gom:speed>0.443</gom:speed></extensions></trkpt>
   <trkpt lat="59.0667432055" lon="29.9671483249"><ele>99.17</ele><time>2026-04-25T10:49:43.000Z</time><hdop>3.0</hdop><vdop>3.0</vdop><extensions><gom:speed>0.324</gom:speed></extensions></trkpt>
   <trkpt lat="59.0667452172" lon="29.9671517615"><ele>99.198</ele><time>2026-04-25T10:49:44.000Z</time><hdop>3.0</hdop><vdop>3.0</vdop><extensions><gom:speed>0.159</gom:speed></extensions></trkpt>
   <trkpt lat="59.0667452172" lon="29.9671517615"><ele>99.215</ele><time>2026-04-25T10:49:45.000Z</time><hdop>3.0</hdop><vdop>3.0</vdop><extensions><gom:speed>0.0</gom:speed></extensions></trkpt>
   <trkpt lat="59.0667452172" lon="29.9671517615"><ele>99.225</ele><time>2026-04-25T10:49:46.000Z</time><hdop>3.0</hdop><vdop>3.0</vdop><extensions><gom:speed>0.0</gom:speed></extensions></trkpt>
   <trkpt lat="59.0667452172" lon="29.9671517615"><ele>99.231</ele><time>2026-04-25T10:49:47.000Z</time><hdop>3.0</hdop><vdop>3.0</vdop><extensions><gom:speed>0.0</gom:speed></extensions></trkpt>
   <trkpt lat="59.0667452172" lon="29.9671517615"><ele>99.234</ele><time>2026-04-25T10:49:48.000Z</time><hdop>3.0</hdop><vdop>3.0</vdop><extensions><gom:speed>0.0</gom:speed></extensions></trkpt>
   <trkpt lat="59.0667473965" lon="29.9671569582"><ele>99.198</ele><time>2026-04-25T10:49:49.000Z</time><hdop>3.0</hdop><vdop>3.0</vdop><extensions><gom:speed>0.137</gom:speed></extensions></trkpt>
   <trkpt lat="59.0667473965" lon="29.9671569582"><ele>99.176</ele><time>2026-04-25T10:49:50.000Z</time><hdop>3.0</hdop><vdop>3.0</vdop><extensions><gom:speed>0.0</gom:speed></extensions></trkpt>
   <trkpt lat="59.0667473965" lon="29.9671569582"><ele>99.163</ele><time>2026-04-25T10:49:51.000Z</time><hdop>3.0</hdop><vdop>3.0</vdop><extensions><gom:speed>0.0</gom:speed></extensions></trkpt>
   <trkpt lat="59.0667473965" lon="29.9671569582"><ele>99.155</ele><time>2026-04-25T10:49:52.000Z</time><hdop>3.0</hdop><vdop>3.0</vdop><extensions><gom:speed>0.0</gom:speed></extensions></trkpt>
   <trkpt lat="59.0667473965" lon="29.9671569582"><ele>99.151</ele><time>2026-04-25T10:49:53.000Z</time><hdop>3.0</hdop><vdop>3.0</vdop><extensions><gom:speed>0.0</gom:speed></extensions></trkpt>
   <trkpt lat="59.0667473965" lon="29.9671569582"><ele>99.148</ele><time>2026-04-25T10:49:54.000Z</time><hdop>3.0</hdop><vdop>3.0</vdop><extensions><gom:speed>0.0</gom:speed></extensions></trkpt>
   <trkpt lat="59.0667473965" lon="29.9671569582"><ele>99.146</ele><time>2026-04-25T10:49:55.000Z</time><hdop>3.0</hdop><vdop>3.0</vdop><extensions><gom:speed>0.0</gom:speed></extensions></trkpt>
   <trkpt lat="59.0667473965" lon="29.9671569582"><ele>99.145</ele><time>2026-04-25T10:49:56.000Z</time><hdop>3.0</hdop><vdop>3.0</vdop><extensions><gom:speed>0.0</gom:speed></extensions></trkpt>
   <trkpt lat="59.0667473965" lon="29.9671569582"><ele>99.145</ele><time>2026-04-25T10:49:56.000Z</time><hdop>3.0</hdop><vdop>3.0</vdop><extensions><gom:speed>0.0</gom:speed></extensions></trkpt>
   <trkpt lat="59.0667473965" lon="29.9671569582"><ele>99.145</ele><time>2026-04-25T10:49:57.000Z</time><hdop>3.0</hdop><vdop>3.0</vdop><extensions><gom:speed>0.0</gom:speed></extensions></trkpt>
   <trkpt lat="59.0667473965" lon="29.9671569582"><ele>99.144</ele><time>2026-04-25T10:49:58.000Z</time><hdop>3.0</hdop><vdop>3.0</vdop><extensions><gom:speed>0.0</gom:speed></extensions></trkpt>
   <trkpt lat="59.0667473965" lon="29.9671569582"><ele>99.144</ele><time>2026-04-25T10:49:59.000Z</time><hdop>3.0</hdop><vdop>3.0</vdop><extensions><gom:speed>0.0</gom:speed></extensions></trkpt>
   <trkpt lat="59.0667473965" lon="29.9671569582"><ele>99.144</ele><time>2026-04-25T10:50:00.000Z</time><hdop>3.0</hdop><vdop>3.0</vdop><extensions><gom:speed>0.0</gom:speed></extensions></trkpt>
   <trkpt lat="59.066748528" lon="29.9671655078"><ele>99.166</ele><time>2026-04-25T10:50:01.000Z</time><hdop>3.375</hdop><vdop>3.375</vdop><extensions><gom:speed>0.202</gom:speed></extensions></trkpt>
   <trkpt lat="59.066748528" lon="29.9671655078"><ele>99.179</ele><time>2026-04-25T10:50:02.000Z</time><hdop>3.375</hdop><vdop>3.375</vdop><extensions><gom:speed>0.0</gom:speed></extensions></trkpt>
   <trkpt lat="59.066748528" lon="29.9671655078"><ele>99.187</ele><time>2026-04-25T10:50:03.000Z</time><hdop>3.375</hdop><vdop>3.375</vdop><extensions><gom:speed>0.0</gom:speed></extensions></trkpt>
   <trkpt lat="59.066748528" lon="29.9671655078"><ele>99.192</ele><time>2026-04-25T10:50:04.000Z</time><hdop>3.375</hdop><vdop>3.375</vdop><extensions><gom:speed>0.0</gom:speed></extensions></trkpt>
   <trkpt lat="59.066748528" lon="29.9671655078"><ele>99.195</ele><time>2026-04-25T10:50:05.000Z</time><hdop>3.375</hdop><vdop>3.375</vdop><extensions><gom:speed>0.0</gom:speed></extensions></trkpt>
   <trkpt lat="59.066748528" lon="29.9671655078"><ele>99.196</ele><time>2026-04-25T10:50:06.000Z</time><hdop>3.375</hdop><vdop>3.375</vdop><extensions><gom:speed>0.0</gom:speed></extensions></trkpt>
   <trkpt lat="59.066748528" lon="29.9671655078"><ele>99.197</ele><time>2026-04-25T10:50:07.000Z</time><hdop>3.375</hdop><vdop>3.375</vdop><extensions><gom:speed>0.0</gom:speed></extensions></trkpt>
   <trkpt lat="59.066748528" lon="29.9671655078"><ele>99.198</ele><time>2026-04-25T10:50:08.000Z</time><hdop>3.375</hdop><vdop>3.375</vdop><extensions><gom:speed>0.0</gom:speed></extensions></trkpt>
   <trkpt lat="59.066748528" lon="29.9671655078"><ele>99.198</ele><time>2026-04-25T10:50:09.000Z</time><hdop>3.375</hdop><vdop>3.375</vdop><extensions><gom:speed>0.0</gom:speed></extensions></trkpt>
   <trkpt lat="59.066748528" lon="29.9671655078"><ele>99.199</ele><time>2026-04-25T10:50:10.000Z</time><hdop>3.375</hdop><vdop>3.375</vdop><extensions><gom:speed>0.0</gom:speed></extensions></trkpt>
   <trkpt lat="59.066748528" lon="29.9671655078"><ele>99.199</ele><time>2026-04-25T10:50:11.000Z</time><hdop>3.375</hdop><vdop>3.375</vdop><extensions><gom:speed>0.0</gom:speed></extensions></trkpt>
   <trkpt lat="59.066748528" lon="29.9671655078"><ele>99.199</ele><time>2026-04-25T10:50:12.000Z</time><hdop>3.375</hdop><vdop>3.375</vdop><extensions><gom:speed>0.0</gom:speed></extensions></trkpt>
   <trkpt lat="59.066748528" lon="29.9671655078"><ele>99.199</ele><time>2026-04-25T10:50:13.000Z</time><hdop>3.375</hdop><vdop>3.375</vdop><extensions><gom:speed>0.0</gom:speed></extensions></trkpt>
   <trkpt lat="59.066748528" lon="29.9671655078"><ele>99.199</ele><time>2026-04-25T10:50:13.000Z</time><hdop>3.375</hdop><vdop>3.375</vdop><extensions><gom:speed>0.0</gom:speed></extensions></trkpt>
   <trkpt lat="59.066748528" lon="29.9671655078"><ele>99.199</ele><time>2026-04-25T10:50:14.000Z</time><hdop>3.375</hdop><vdop>3.375</vdop><extensions><gom:speed>0.0</gom:speed></extensions></trkpt>
   <trkpt lat="59.066748528" lon="29.9671655078"><ele>99.199</ele><time>2026-04-25T10:50:15.000Z</time><hdop>3.375</hdop><vdop>3.375</vdop><extensions><gom:speed>0.0</gom:speed></extensions></trkpt>
   <trkpt lat="59.066748528" lon="29.9671655078"><ele>99.199</ele><time>2026-04-25T10:50:16.000Z</time><hdop>3.375</hdop><vdop>3.375</vdop><extensions><gom:speed>0.0</gom:speed></extensions></trkpt>
   <trkpt lat="59.066748528" lon="29.9671655078"><ele>99.199</ele><time>2026-04-25T10:50:17.000Z</time><hdop>3.375</hdop><vdop>3.375</vdop><extensions><gom:speed>0.0</gom:speed></extensions></trkpt>
   <trkpt lat="59.066748528" lon="29.9671655078"><ele>99.199</ele><time>2026-04-25T10:50:18.000Z</time><hdop>3.375</hdop><vdop>3.375</vdop><extensions><gom:speed>0.0</gom:speed></extensions></trkpt>
   <trkpt lat="59.066748528" lon="29.9671655078"><ele>99.199</ele><time>2026-04-25T10:50:19.000Z</time><hdop>3.375</hdop><vdop>3.375</vdop><extensions><gom:speed>0.0</gom:speed></extensions></trkpt>
   <trkpt lat="59.066748528" lon="29.9671655078"><ele>99.199</ele><time>2026-04-25T10:50:20.000Z</time><hdop>3.375</hdop><vdop>3.375</vdop><extensions><gom:speed>0.0</gom:speed></extensions></trkpt>
   <trkpt lat="59.066748528" lon="29.9671655078"><ele>99.199</ele><time>2026-04-25T10:50:21.000Z</time><hdop>3.375</hdop><vdop>3.375</vdop><extensions><gom:speed>0.0</gom:speed></extensions></trkpt>
   <trkpt lat="59.066748528" lon="29.9671655078"><ele>99.199</ele><time>2026-04-25T10:50:22.000Z</time><hdop>3.375</hdop><vdop>3.375</vdop><extensions><gom:speed>0.0</gom:speed></extensions></trkpt>
   <trkpt lat="59.066748528" lon="29.9671655078"><ele>99.199</ele><time>2026-04-25T10:50:23.000Z</time><hdop>3.375</hdop><vdop>3.375</vdop><extensions><gom:speed>0.0</gom:speed></extensions></trkpt>
   <trkpt lat="59.0667507492" lon="29.9671753146"><ele>99.219</ele><time>2026-04-25T10:50:24.000Z</time><hdop>3.875</hdop><vdop>3.875</vdop><extensions><gom:speed>0.412</gom:speed></extensions></trkpt>
   <trkpt lat="59.066755024" lon="29.9671910726"><ele>99.253</ele><time>2026-04-25T10:50:25.000Z</time><hdop>3.937</hdop><vdop>3.937</vdop><extensions><gom:speed>0.675</gom:speed></extensions></trkpt>
   <trkpt lat="59.0667588797" lon="29.9672049865"><ele>99.253</ele><time>2026-04-25T10:50:26.000Z</time><hdop>3.375</hdop><vdop>3.375</vdop><extensions><gom:speed>0.655</gom:speed></extensions></trkpt>
   <trkpt lat="59.0667625677" lon="29.967217727"><ele>99.248</ele><time>2026-04-25T10:50:27.000Z</time><hdop>3.0</hdop><vdop>3.0</vdop><extensions><gom:speed>0.554</gom:speed></extensions></trkpt>
   <trkpt lat="59.0667666329" lon="29.9672296293"><ele>99.255</ele><time>2026-04-25T10:50:28.000Z</time><hdop>3.0</hdop><vdop>3.0</vdop><extensions><gom:speed>0.573</gom:speed></extensions></trkpt>
   <trkpt lat="59.066769818" lon="29.9672449682"><ele>99.344</ele><time>2026-04-25T10:50:29.000Z</time><hdop>3.125</hdop><vdop>3.125</vdop><extensions><gom:speed>0.275</gom:speed></extensions></trkpt>
   <trkpt lat="59.066769818" lon="29.9672449682"><ele>99.396</ele><time>2026-04-25T10:50:30.000Z</time><hdop>3.125</hdop><vdop>3.125</vdop><extensions><gom:speed>0.0</gom:speed></extensions></trkpt>
   <trkpt lat="59.066769818" lon="29.9672449682"><ele>99.428</ele><time>2026-04-25T10:50:31.000Z</time><hdop>3.125</hdop><vdop>3.125</vdop><extensions><gom:speed>0.0</gom:speed></extensions></trkpt>
   <trkpt lat="59.066769818" lon="29.9672449682"><ele>99.447</ele><time>2026-04-25T10:50:32.000Z</time><hdop>3.125</hdop><vdop>3.125</vdop><extensions><gom:speed>0.0</gom:speed></extensions></trkpt>
   <trkpt lat="59.066769818" lon="29.9672449682"><ele>99.458</ele><time>2026-04-25T10:50:33.000Z</time><hdop>3.125</hdop><vdop>3.125</vdop><extensions><gom:speed>0.0</gom:speed></extensions></trkpt>
   <trkpt lat="59.066769818" lon="29.9672449682"><ele>99.465</ele><time>2026-04-25T10:50:33.000Z</time><hdop>3.125</hdop><vdop>3.125</vdop><extensions><gom:speed>0.0</gom:speed></extensions></trkpt>
   <trkpt lat="59.066769818" lon="29.9672449682"><ele>99.469</ele><time>2026-04-25T10:50:34.000Z</time><hdop>3.125</hdop><vdop>3.125</vdop><extensions><gom:speed>0.0</gom:speed></extensions></trkpt>
   <trkpt lat="59.066769818" lon="29.9672449682"><ele>99.471</ele><time>2026-04-25T10:50:35.000Z</time><hdop>3.125</hdop><vdop>3.125</vdop><extensions><gom:speed>0.0</gom:speed></extensions></trkpt>
   <trkpt lat="59.066769818" lon="29.9672449682"><ele>99.473</ele><time>2026-04-25T10:50:36.000Z</time><hdop>3.125</hdop><vdop>3.125</vdop><extensions><gom:speed>0.0</gom:speed></extensions></trkpt>
   <trkpt lat="59.066769818" lon="29.9672449682"><ele>99.473</ele><time>2026-04-25T10:50:37.000Z</time><hdop>3.125</hdop><vdop>3.125</vdop><extensions><gom:speed>0.0</gom:speed></extensions></trkpt>
   <trkpt lat="59.066769818" lon="29.9672449682"><ele>99.474</ele><time>2026-04-25T10:50:38.000Z</time><hdop>3.125</hdop><vdop>3.125</vdop><extensions><gom:speed>0.0</gom:speed></extensions></trkpt>
   <trkpt lat="59.066769818" lon="29.9672449682"><ele>99.474</ele><time>2026-04-25T10:50:39.000Z</time><hdop>3.125</hdop><vdop>3.125</vdop><extensions><gom:speed>0.0</gom:speed></extensions></trkpt>
   <trkpt lat="59.066769818" lon="29.9672449682"><ele>99.474</ele><time>2026-04-25T10:50:40.000Z</time><hdop>3.125</hdop><vdop>3.125</vdop><extensions><gom:speed>0.0</gom:speed></extensions></trkpt>
   <trkpt lat="59.0667718297" lon="29.967252931"><ele>99.383</ele><time>2026-04-25T10:50:41.000Z</time><hdop>3.0</hdop><vdop>3.0</vdop><extensions><gom:speed>0.183</gom:speed></extensions></trkpt>
   <trkpt lat="59.0667772779" lon="29.9672694434"><ele>99.213</ele><time>2026-04-25T10:50:42.000Z</time><hdop>3.0</hdop><vdop>3.0</vdop><extensions><gom:speed>0.431</gom:speed></extensions></trkpt>
   <trkpt lat="59.0667787867" lon="29.9672857043"><ele>99.092</ele><time>2026-04-25T10:50:43.000Z</time><hdop>3.0</hdop><vdop>3.0</vdop><extensions><gom:speed>0.645</gom:speed></extensions></trkpt>
   <trkpt lat="59.0667810079" lon="29.9673085031"><ele>98.885</ele><time>2026-04-25T10:50:44.000Z</time><hdop>3.0</hdop><vdop>3.0</vdop><extensions><gom:speed>0.497</gom:speed></extensions></trkpt>
   <trkpt lat="59.0667826843" lon="29.9673219979"><ele>98.746</ele><time>2026-04-25T10:50:45.000Z</time><hdop>3.0</hdop><vdop>3.0</vdop><extensions><gom:speed>0.562</gom:speed></extensions></trkpt>
   <trkpt lat="59.066786498" lon="29.9673314695"><ele>98.656</ele><time>2026-04-25T10:50:46.000Z</time><hdop>3.0</hdop><vdop>3.0</vdop><extensions><gom:speed>0.49</gom:speed></extensions></trkpt>
   <trkpt lat="59.0667922815" lon="29.9673391808"><ele>98.696</ele><time>2026-04-25T10:50:47.000Z</time><hdop>3.0</hdop><vdop>3.0</vdop><extensions><gom:speed>0.769</gom:speed></extensions></trkpt>
   <trkpt lat="59.0667976041" lon="29.9673489038"><ele>98.816</ele><time>2026-04-25T10:50:48.000Z</time><hdop>3.0</hdop><vdop>3.0</vdop><extensions><gom:speed>0.518</gom:speed></extensions></trkpt>
   <trkpt lat="59.0668006634" lon="29.9673587945"><ele>98.937</ele><time>2026-04-25T10:50:49.000Z</time><hdop>3.0</hdop><vdop>3.0</vdop><extensions><gom:speed>0.434</gom:speed></extensions></trkpt>
   <trkpt lat="59.0668024656" lon="29.9673679307"><ele>99.074</ele><time>2026-04-25T10:50:50.000Z</time><hdop>3.0</hdop><vdop>3.0</vdop><extensions><gom:speed>0.218</gom:speed></extensions></trkpt>
   <trkpt lat="59.0668024656" lon="29.9673679307"><ele>99.156</ele><time>2026-04-25T10:50:51.000Z</time><hdop>3.0</hdop><vdop>3.0</vdop><extensions><gom:speed>0.0</gom:speed></extensions></trkpt>
   <trkpt lat="59.0668034714" lon="29.9673696071"><ele>99.284</ele><time>2026-04-25T10:50:52.000Z</time><hdop>3.0</hdop><vdop>3.0</vdop><extensions><gom:speed>0.17</gom:speed></extensions></trkpt>
   <trkpt lat="59.0668034714" lon="29.9673696071"><ele>99.36</ele><time>2026-04-25T10:50:53.000Z</time><hdop>3.0</hdop><vdop>3.0</vdop><extensions><gom:speed>0.0</gom:speed></extensions></trkpt>
   <trkpt lat="59.0668034714" lon="29.9673696071"><ele>99.405</ele><time>2026-04-25T10:50:53.000Z</time><hdop>3.0</hdop><vdop>3.0</vdop><extensions><gom:speed>0.0</gom:speed></extensions></trkpt>
   <trkpt lat="59.0668034714" lon="29.9673696071"><ele>99.432</ele><time>2026-04-25T10:50:54.000Z</time><hdop>3.0</hdop><vdop>3.0</vdop><extensions><gom:speed>0.0</gom:speed></extensions></trkpt>
   <trkpt lat="59.066804561" lon="29.9673755583"><ele>99.394</ele><time>2026-04-25T10:50:55.000Z</time><hdop>3.0</hdop><vdop>3.0</vdop><extensions><gom:speed>0.481</gom:speed></extensions></trkpt>
   <trkpt lat="59.066804561" lon="29.9673755583"><ele>99.372</ele><time>2026-04-25T10:50:56.000Z</time><hdop>3.0</hdop><vdop>3.0</vdop><extensions><gom:speed>0.0</gom:speed></extensions></trkpt>
   <trkpt lat="59.066804561" lon="29.9673755583"><ele>99.358</ele><time>2026-04-25T10:50:57.000Z</time><hdop>3.0</hdop><vdop>3.0</vdop><extensions><gom:speed>0.0</gom:speed></extensions></trkpt>
   <trkpt lat="59.066804561" lon="29.9673755583"><ele>99.35</ele><time>2026-04-25T10:50:58.000Z</time><hdop>3.0</hdop><vdop>3.0</vdop><extensions><gom:speed>0.0</gom:speed></extensions></trkpt>
   <trkpt lat="59.0668091292" lon="29.9673735466"><ele>99.391</ele><time>2026-04-25T10:50:59.000Z</time><hdop>3.062</hdop><vdop>3.062</vdop><extensions><gom:speed>0.547</gom:speed></extensions></trkpt>
   <trkpt lat="59.0668162957" lon="29.9673708644"><ele>99.412</ele><time>2026-04-25T10:51:00.000Z</time><hdop>3.0</hdop><vdop>3.0</vdop><extensions><gom:speed>0.564</gom:speed></extensions></trkpt>
   <trkpt lat="59.0668250129" lon="29.9673720379"><ele>99.474</ele><time>2026-04-25T10:51:01.000Z</time><hdop>3.0</hdop><vdop>3.0</vdop><extensions><gom:speed>0.764</gom:speed></extensions></trkpt>
   <trkpt lat="59.0668334786" lon="29.9673736304"><ele>99.586</ele><time>2026-04-25T10:51:02.000Z</time><hdop>3.0</hdop><vdop>3.0</vdop><extensions><gom:speed>0.52</gom:speed></extensions></trkpt>
   <trkpt lat="59.0668399327" lon="29.9673735466"><ele>99.715</ele><time>2026-04-25T10:51:03.000Z</time><hdop>3.0</hdop><vdop>3.0</vdop><extensions><gom:speed>0.426</gom:speed></extensions></trkpt>
   <trkpt lat="59.0668458419" lon="29.9673687689"><ele>99.774</ele><time>2026-04-25T10:51:04.000Z</time><hdop>3.0</hdop><vdop>3.0</vdop><extensions><gom:speed>0.599</gom:speed></extensions></trkpt>
   <trkpt lat="59.066851374" lon="29.9673623149"><ele>99.839</ele><time>2026-04-25T10:51:05.000Z</time><hdop>3.0</hdop><vdop>3.0</vdop><extensions><gom:speed>0.651</gom:speed></extensions></trkpt>
   <trkpt lat="59.0668571994" lon="29.9673566152"><ele>99.889</ele><time>2026-04-25T10:51:06.000Z</time><hdop>3.0</hdop><vdop>3.0</vdop><extensions><gom:speed>0.657</gom:speed></extensions></trkpt>
   <trkpt lat="59.066863863" lon="29.9673530948"><ele>99.868</ele><time>2026-04-25T10:51:07.000Z</time><hdop>3.0</hdop><vdop>3.0</vdop><extensions><gom:speed>0.697</gom:speed></extensions></trkpt>
   <trkpt lat="59.0668705266" lon="29.9673509993"><ele>99.806</ele><time>2026-04-25T10:51:08.000Z</time><hdop>3.0</hdop><vdop>3.0</vdop><extensions><gom:speed>0.605</gom:speed></extensions></trkpt>
   <trkpt lat="59.0668766035" lon="29.9673524242"><ele>99.794</ele><time>2026-04-25T10:51:09.000Z</time><hdop>3.0</hdop><vdop>3.0</vdop><extensions><gom:speed>0.606</gom:speed></extensions></trkpt>
   <trkpt lat="59.0668820517" lon="29.9673604709"><ele>99.747</ele><time>2026-04-25T10:51:10.000Z</time><hdop>3.0</hdop><vdop>3.0</vdop><extensions><gom:speed>0.677</gom:speed></extensions></trkpt>
   <trkpt lat="59.066886536" lon="29.9673672602"><ele>99.682</ele><time>2026-04-25T10:51:11.000Z</time><hdop>3.312</hdop><vdop>3.312</vdop><extensions><gom:speed>0.333</gom:speed></extensions></trkpt>
   <trkpt lat="59.0668901403" lon="29.9673713673"><ele>99.617</ele><time>2026-04-25T10:51:12.000Z</time><hdop>3.625</hdop><vdop>3.625</vdop><extensions><gom:speed>0.272</gom:speed></extensions></trkpt>
   <trkpt lat="59.0668952951" lon="29.9673718702"><ele>99.591</ele><time>2026-04-25T10:51:13.000Z</time><hdop>3.375</hdop><vdop>3.375</vdop><extensions><gom:speed>0.558</gom:speed></extensions></trkpt>
   <trkpt lat="59.0668952951" lon="29.9673718702"><ele>99.575</ele><time>2026-04-25T10:51:13.000Z</time><hdop>3.375</hdop><vdop>3.375</vdop><extensions><gom:speed>0.558</gom:speed></extensions></trkpt>
   <trkpt lat="59.0669026293" lon="29.9673728761"><ele>99.547</ele><time>2026-04-25T10:51:14.000Z</time><hdop>3.125</hdop><vdop>3.125</vdop><extensions><gom:speed>0.817</gom:speed></extensions></trkpt>
   <trkpt lat="59.0669118075" lon="29.9673756421"><ele>99.547</ele><time>2026-04-25T10:51:15.000Z</time><hdop>3.0</hdop><vdop>3.0</vdop><extensions><gom:speed>0.875</gom:speed></extensions></trkpt>
   <trkpt lat="59.0669210276" lon="29.967377989"><ele>99.521</ele><time>2026-04-25T10:51:16.000Z</time><hdop>3.0</hdop><vdop>3.0</vdop><extensions><gom:speed>0.759</gom:speed></extensions></trkpt>
   <trkpt lat="59.066929619" lon="29.9673801683"><ele>99.436</ele><time>2026-04-25T10:51:17.000Z</time><hdop>3.0</hdop><vdop>3.0</vdop><extensions><gom:speed>0.683</gom:speed></extensions></trkpt>
   <trkpt lat="59.066937498" lon="29.9673817609"><ele>99.341</ele><time>2026-04-25T10:51:18.000Z</time><hdop>3.0</hdop><vdop>3.0</vdop><extensions><gom:speed>0.695</gom:speed></extensions></trkpt>
   <trkpt lat="59.0669456704" lon="29.9673820123"><ele>99.259</ele><time>2026-04-25T10:51:19.000Z</time><hdop>3.0</hdop><vdop>3.0</vdop><extensions><gom:speed>0.646</gom:speed></extensions></trkpt>
   <trkpt lat="59.066953717" lon="29.9673863709"><ele>99.066</ele><time>2026-04-25T10:51:20.000Z</time><hdop>3.0</hdop><vdop>3.0</vdop><extensions><gom:speed>0.382</gom:speed></extensions></trkpt>
   <trkpt lat="59.066957866" lon="29.9673863709"><ele>98.953</ele><time>2026-04-25T10:51:21.000Z</time><hdop>3.0</hdop><vdop>3.0</vdop><extensions><gom:speed>0.139</gom:speed></extensions></trkpt>
   <trkpt lat="59.066957866" lon="29.9673863709"><ele>98.885</ele><time>2026-04-25T10:51:22.000Z</time><hdop>3.0</hdop><vdop>3.0</vdop><extensions><gom:speed>0.0</gom:speed></extensions></trkpt>
   <trkpt lat="59.066957866" lon="29.9673863709"><ele>98.845</ele><time>2026-04-25T10:51:23.000Z</time><hdop>3.0</hdop><vdop>3.0</vdop><extensions><gom:speed>0.0</gom:speed></extensions></trkpt>
   <trkpt lat="59.066957866" lon="29.9673863709"><ele>98.821</ele><time>2026-04-25T10:51:24.000Z</time><hdop>3.0</hdop><vdop>3.0</vdop><extensions><gom:speed>0.0</gom:speed></extensions></trkpt>
   <trkpt lat="59.0669644877" lon="29.9673830182"><ele>98.794</ele><time>2026-04-25T10:51:25.000Z</time><hdop>3.312</hdop><vdop>3.312</vdop><extensions><gom:speed>0.863</gom:speed></extensions></trkpt>
   <trkpt lat="59.0669753423" lon="29.967383102"><ele>98.818</ele><time>2026-04-25T10:51:26.000Z</time><hdop>3.0</hdop><vdop>3.0</vdop><extensions><gom:speed>0.975</gom:speed></extensions></trkpt>
   <trkpt lat="59.0669872027" lon="29.9673825991"><ele>98.885</ele><time>2026-04-25T10:51:27.000Z</time><hdop>3.0</hdop><vdop>3.0</vdop><extensions><gom:speed>0.882</gom:speed></extensions></trkpt>
   <trkpt lat="59.0669965904" lon="29.9673814256"><ele>98.981</ele><time>2026-04-25T10:51:28.000Z</time><hdop>3.0</hdop><vdop>3.0</vdop><extensions><gom:speed>0.677</gom:speed></extensions></trkpt>
   <trkpt lat="59.0670038408" lon="29.967381258"><ele>99.02</ele><time>2026-04-25T10:51:29.000Z</time><hdop>3.0</hdop><vdop>3.0</vdop><extensions><gom:speed>0.599</gom:speed></extensions></trkpt>
   <trkpt lat="59.0670123065" lon="29.9673822638"><ele>99.059</ele><time>2026-04-25T10:51:30.000Z</time><hdop>3.0</hdop><vdop>3.0</vdop><extensions><gom:speed>0.676</gom:speed></extensions></trkpt>
   <trkpt lat="59.0670202274" lon="29.9673848622"><ele>99.073</ele><time>2026-04-25T10:51:31.000Z</time><hdop>3.0</hdop><vdop>3.0</vdop><extensions><gom:speed>0.703</gom:speed></extensions></trkpt>
   <trkpt lat="59.0670280645" lon="29.9673847784"><ele>99.059</ele><time>2026-04-25T10:51:32.000Z</time><hdop>3.0</hdop><vdop>3.0</vdop><extensions><gom:speed>0.726</gom:speed></extensions></trkpt>
   <trkpt lat="59.0670280645" lon="29.9673847784"><ele>99.051</ele><time>2026-04-25T10:51:32.000Z</time><hdop>3.0</hdop><vdop>3.0</vdop><extensions><gom:speed>0.726</gom:speed></extensions></trkpt>
   <trkpt lat="59.0670353986" lon="29.9673828505"><ele>99.021</ele><time>2026-04-25T10:51:33.000Z</time><hdop>3.0</hdop><vdop>3.0</vdop><extensions><gom:speed>0.623</gom:speed></extensions></trkpt>
   <trkpt lat="59.0670475943" lon="29.9673771508"><ele>98.904</ele><time>2026-04-25T10:51:35.000Z</time><hdop>3.0</hdop><vdop>3.0</vdop><extensions><gom:speed>0.463</gom:speed></extensions></trkpt>
   <trkpt lat="59.0670540484" lon="29.9673758097"><ele>98.787</ele><time>2026-04-25T10:51:36.000Z</time><hdop>3.0</hdop><vdop>3.0</vdop><extensions><gom:speed>0.535</gom:speed></extensions></trkpt>
   <trkpt lat="59.0670596223" lon="29.9673767317"><ele>98.632</ele><time>2026-04-25T10:51:37.000Z</time><hdop>3.0</hdop><vdop>3.0</vdop><extensions><gom:speed>0.317</gom:speed></extensions></trkpt>
   <trkpt lat="59.0670645258" lon="29.9673779052"><ele>98.537</ele><time>2026-04-25T10:51:38.000Z</time><hdop>3.0</hdop><vdop>3.0</vdop><extensions><gom:speed>0.164</gom:speed></extensions></trkpt>
   <trkpt lat="59.0670645258" lon="29.9673779052"><ele>98.48</ele><time>2026-04-25T10:51:39.000Z</time><hdop>3.0</hdop><vdop>3.0</vdop><extensions><gom:speed>0.0</gom:speed></extensions></trkpt>
   <trkpt lat="59.0670645258" lon="29.9673779052"><ele>98.446</ele><time>2026-04-25T10:51:40.000Z</time><hdop>3.0</hdop><vdop>3.0</vdop><extensions><gom:speed>0.0</gom:speed></extensions></trkpt>
   <trkpt lat="59.0670645258" lon="29.9673779052"><ele>98.425</ele><time>2026-04-25T10:51:41.000Z</time><hdop>3.0</hdop><vdop>3.0</vdop><extensions><gom:speed>0.0</gom:speed></extensions></trkpt>
   <trkpt lat="59.0670645258" lon="29.9673779052"><ele>98.413</ele><time>2026-04-25T10:51:42.000Z</time><hdop>3.0</hdop><vdop>3.0</vdop><extensions><gom:speed>0.0</gom:speed></extensions></trkpt>
   <trkpt lat="59.0670645258" lon="29.9673779052"><ele>98.406</ele><time>2026-04-25T10:51:43.000Z</time><hdop>3.0</hdop><vdop>3.0</vdop><extensions><gom:speed>0.0</gom:speed></extensions></trkpt>
   <trkpt lat="59.0670645258" lon="29.9673779052"><ele>98.401</ele><time>2026-04-25T10:51:44.000Z</time><hdop>3.0</hdop><vdop>3.0</vdop><extensions><gom:speed>0.0</gom:speed></extensions></trkpt>
   <trkpt lat="59.0670645258" lon="29.9673779052"><ele>98.399</ele><time>2026-04-25T10:51:45.000Z</time><hdop>3.0</hdop><vdop>3.0</vdop><extensions><gom:speed>0.0</gom:speed></extensions></trkpt>
   <trkpt lat="59.0670645258" lon="29.9673779052"><ele>98.397</ele><time>2026-04-25T10:51:46.000Z</time><hdop>3.0</hdop><vdop>3.0</vdop><extensions><gom:speed>0.0</gom:speed></extensions></trkpt>
   <trkpt lat="59.0670645258" lon="29.9673779052"><ele>98.396</ele><time>2026-04-25T10:51:47.000Z</time><hdop>3.0</hdop><vdop>3.0</vdop><extensions><gom:speed>0.0</gom:speed></extensions></trkpt>
   <trkpt lat="59.0670645258" lon="29.9673779052"><ele>98.396</ele><time>2026-04-25T10:51:48.000Z</time><hdop>3.0</hdop><vdop>3.0</vdop><extensions><gom:speed>0.0</gom:speed></extensions></trkpt>
   <trkpt lat="59.0670645258" lon="29.9673779052"><ele>98.395</ele><time>2026-04-25T10:51:49.000Z</time><hdop>3.0</hdop><vdop>3.0</vdop><extensions><gom:speed>0.0</gom:speed></extensions></trkpt>
   <trkpt lat="59.0670645258" lon="29.9673779052"><ele>98.395</ele><time>2026-04-25T10:51:50.000Z</time><hdop>3.0</hdop><vdop>3.0</vdop><extensions><gom:speed>0.0</gom:speed></extensions></trkpt>
   <trkpt lat="59.0670669984" lon="29.9673685175"><ele>98.404</ele><time>2026-04-25T10:51:51.000Z</time><hdop>3.0</hdop><vdop>3.0</vdop><extensions><gom:speed>0.441</gom:speed></extensions></trkpt>
   <trkpt lat="59.0670669984" lon="29.9673685175"><ele>98.409</ele><time>2026-04-25T10:51:52.000Z</time><hdop>3.0</hdop><vdop>3.0</vdop><extensions><gom:speed>0.0</gom:speed></extensions></trkpt>
   <trkpt lat="59.0670669984" lon="29.9673685175"><ele>98.412</ele><time>2026-04-25T10:51:52.000Z</time><hdop>3.0</hdop><vdop>3.0</vdop><extensions><gom:speed>0.0</gom:speed></extensions></trkpt>
   <trkpt lat="59.0670712732" lon="29.9673647456"><ele>98.263</ele><time>2026-04-25T10:51:53.000Z</time><hdop>3.0</hdop><vdop>3.0</vdop><extensions><gom:speed>0.467</gom:speed></extensions></trkpt>
   <trkpt lat="59.0670712732" lon="29.9673647456"><ele>98.173</ele><time>2026-04-25T10:51:54.000Z</time><hdop>3.0</hdop><vdop>3.0</vdop><extensions><gom:speed>0.0</gom:speed></extensions></trkpt>
   <trkpt lat="59.0670763862" lon="29.9673621472"><ele>98.024</ele><time>2026-04-25T10:51:55.000Z</time><hdop>3.0</hdop><vdop>3.0</vdop><extensions><gom:speed>0.408</gom:speed></extensions></trkpt>
   <trkpt lat="59.0670840556" lon="29.9673598003"><ele>97.874</ele><time>2026-04-25T10:51:56.000Z</time><hdop>3.0</hdop><vdop>3.0</vdop><extensions><gom:speed>0.757</gom:speed></extensions></trkpt>
   <trkpt lat="59.0670966284" lon="29.9673561123"><ele>97.744</ele><time>2026-04-25T10:51:57.000Z</time><hdop>3.25</hdop><vdop>3.25</vdop><extensions><gom:speed>0.815</gom:speed></extensions></trkpt>
   <trkpt lat="59.0671074411" lon="29.9673589621"><ele>97.603</ele><time>2026-04-25T10:51:58.000Z</time><hdop>3.0</hdop><vdop>3.0</vdop><extensions><gom:speed>0.77</gom:speed></extensions></trkpt>
   <trkpt lat="59.0671182957" lon="29.9673628178"><ele>97.482</ele><time>2026-04-25T10:51:59.000Z</time><hdop>3.0</hdop><vdop>3.0</vdop><extensions><gom:speed>0.741</gom:speed></extensions></trkpt>
   <trkpt lat="59.0671256298" lon="29.9673672602"><ele>97.371</ele><time>2026-04-25T10:52:00.000Z</time><hdop>3.0</hdop><vdop>3.0</vdop><extensions><gom:speed>0.583</gom:speed></extensions></trkpt>
   <trkpt lat="59.0671333831" lon="29.9673688528"><ele>97.38</ele><time>2026-04-25T10:52:01.000Z</time><hdop>3.0</hdop><vdop>3.0</vdop><extensions><gom:speed>0.626</gom:speed></extensions></trkpt>
   <trkpt lat="59.06713946" lon="29.9673696071"><ele>97.387</ele><time>2026-04-25T10:52:02.000Z</time><hdop>3.0</hdop><vdop>3.0</vdop><extensions><gom:speed>0.487</gom:speed></extensions></trkpt>
   <trkpt lat="59.0671449082" lon="29.9673696071"><ele>97.44</ele><time>2026-04-25T10:52:03.000Z</time><hdop>3.0</hdop><vdop>3.0</vdop><extensions><gom:speed>0.419</gom:speed></extensions></trkpt>
   <trkpt lat="59.0671499374" lon="29.967369188"><ele>97.519</ele><time>2026-04-25T10:52:04.000Z</time><hdop>3.0</hdop><vdop>3.0</vdop><extensions><gom:speed>0.157</gom:speed></extensions></trkpt>
   <trkpt lat="59.0671548408" lon="29.9673698586"><ele>97.645</ele><time>2026-04-25T10:52:05.000Z</time><hdop>3.0</hdop><vdop>3.0</vdop><extensions><gom:speed>0.536</gom:speed></extensions></trkpt>
   <trkpt lat="59.0671620492" lon="29.9673707806"><ele>97.783</ele><time>2026-04-25T10:52:06.000Z</time><hdop>3.0</hdop><vdop>3.0</vdop><extensions><gom:speed>0.527</gom:speed></extensions></trkpt>
   <trkpt lat="59.0671699701" lon="29.9673717864"><ele>97.931</ele><time>2026-04-25T10:52:07.000Z</time><hdop>3.0</hdop><vdop>3.0</vdop><extensions><gom:speed>0.567</gom:speed></extensions></trkpt>
   <trkpt lat="59.0671763403" lon="29.9673734628"><ele>98.056</ele><time>2026-04-25T10:52:08.000Z</time><hdop>3.0</hdop><vdop>3.0</vdop><extensions><gom:speed>0.439</gom:speed></extensions></trkpt>
   <trkpt lat="59.0671807828" lon="29.9673750554"><ele>98.152</ele><time>2026-04-25T10:52:09.000Z</time><hdop>3.0</hdop><vdop>3.0</vdop><extensions><gom:speed>0.306</gom:speed></extensions></trkpt>
   <trkpt lat="59.0671846803" lon="29.9673744686"><ele>98.181</ele><time>2026-04-25T10:52:10.000Z</time><hdop>3.0</hdop><vdop>3.0</vdop><extensions><gom:speed>0.55</gom:speed></extensions></trkpt>
   <trkpt lat="59.0671915535" lon="29.9673744686"><ele>98.26</ele><time>2026-04-25T10:52:11.000Z</time><hdop>3.0</hdop><vdop>3.0</vdop><extensions><gom:speed>0.828</gom:speed></extensions></trkpt>
   <trkpt lat="59.067200103" lon="29.9673763965"><ele>98.355</ele><time>2026-04-25T10:52:12.000Z</time><hdop>3.0</hdop><vdop>3.0</vdop><extensions><gom:speed>0.803</gom:speed></extensions></trkpt>
   <trkpt lat="59.0672073534" lon="29.9673787434"><ele>98.492</ele><time>2026-04-25T10:52:13.000Z</time><hdop>3.0</hdop><vdop>3.0</vdop><extensions><gom:speed>0.647</gom:speed></extensions></trkpt>
   <trkpt lat="59.0672073534" lon="29.9673787434"><ele>98.574</ele><time>2026-04-25T10:52:13.000Z</time><hdop>3.0</hdop><vdop>3.0</vdop><extensions><gom:speed>0.647</gom:speed></extensions></trkpt>
   <trkpt lat="59.0672156934" lon="29.9673796654"><ele>98.716</ele><time>2026-04-25T10:52:14.000Z</time><hdop>3.0</hdop><vdop>3.0</vdop><extensions><gom:speed>0.727</gom:speed></extensions></trkpt>
   <trkpt lat="59.0672244525" lon="29.9673805036"><ele>98.891</ele><time>2026-04-25T10:52:15.000Z</time><hdop>3.0</hdop><vdop>3.0</vdop><extensions><gom:speed>0.672</gom:speed></extensions></trkpt>
   <trkpt lat="59.0672310742" lon="29.9673825991"><ele>99.034</ele><time>2026-04-25T10:52:16.000Z</time><hdop>3.0</hdop><vdop>3.0</vdop><extensions><gom:speed>0.277</gom:speed></extensions></trkpt>
   <trkpt lat="59.0672335887" lon="29.9673838564"><ele>99.082</ele><time>2026-04-25T10:52:17.000Z</time><hdop>3.0</hdop><vdop>3.0</vdop><extensions><gom:speed>0.129</gom:speed></extensions></trkpt>
   <trkpt lat="59.0672342174" lon="29.9673853651"><ele>99.084</ele><time>2026-04-25T10:52:18.000Z</time><hdop>3.0</hdop><vdop>3.0</vdop><extensions><gom:speed>0.194</gom:speed></extensions></trkpt>
   <trkpt lat="59.0672342174" lon="29.9673853651"><ele>99.085</ele><time>2026-04-25T10:52:19.000Z</time><hdop>3.0</hdop><vdop>3.0</vdop><extensions><gom:speed>0.0</gom:speed></extensions></trkpt>
   <trkpt lat="59.0672342174" lon="29.9673853651"><ele>99.086</ele><time>2026-04-25T10:52:20.000Z</time><hdop>3.0</hdop><vdop>3.0</vdop><extensions><gom:speed>0.0</gom:speed></extensions></trkpt>
   <trkpt lat="59.0672342174" lon="29.9673853651"><ele>99.087</ele><time>2026-04-25T10:52:21.000Z</time><hdop>3.0</hdop><vdop>3.0</vdop><extensions><gom:speed>0.0</gom:speed></extensions></trkpt>
   <trkpt lat="59.0672342174" lon="29.9673853651"><ele>99.087</ele><time>2026-04-25T10:52:22.000Z</time><hdop>3.0</hdop><vdop>3.0</vdop><extensions><gom:speed>0.0</gom:speed></extensions></trkpt>
   <trkpt lat="59.0672342174" lon="29.9673853651"><ele>99.087</ele><time>2026-04-25T10:52:23.000Z</time><hdop>3.0</hdop><vdop>3.0</vdop><extensions><gom:speed>0.0</gom:speed></extensions></trkpt>
   <trkpt lat="59.0672393303" lon="29.9673878797"><ele>99.13</ele><time>2026-04-25T10:52:24.000Z</time><hdop>3.0</hdop><vdop>3.0</vdop><extensions><gom:speed>0.68</gom:speed></extensions></trkpt>
   <trkpt lat="59.0672469998" lon="29.9673923221"><ele>99.198</ele><time>2026-04-25T10:52:25.000Z</time><hdop>3.0</hdop><vdop>3.0</vdop><extensions><gom:speed>0.683</gom:speed></extensions></trkpt>
   <trkpt lat="59.0672546273" lon="29.9673958425"><ele>99.308</ele><time>2026-04-25T10:52:26.000Z</time><hdop>3.0</hdop><vdop>3.0</vdop><extensions><gom:speed>0.519</gom:speed></extensions></trkpt>
   <trkpt lat="59.0672594469" lon="29.9673984409"><ele>99.359</ele><time>2026-04-25T10:52:27.000Z</time><hdop>3.0</hdop><vdop>3.0</vdop><extensions><gom:speed>0.171</gom:speed></extensions></trkpt>
   <trkpt lat="59.0672646018" lon="29.9673993629"><ele>99.441</ele><time>2026-04-25T10:52:28.000Z</time><hdop>3.0</hdop><vdop>3.0</vdop><extensions><gom:speed>0.181</gom:speed></extensions></trkpt>
   <trkpt lat="59.0672646018" lon="29.9673993629"><ele>99.491</ele><time>2026-04-25T10:52:29.000Z</time><hdop>3.0</hdop><vdop>3.0</vdop><extensions><gom:speed>0.0</gom:speed></extensions></trkpt>
   <trkpt lat="59.0672646018" lon="29.9673993629"><ele>99.52</ele><time>2026-04-25T10:52:30.000Z</time><hdop>3.0</hdop><vdop>3.0</vdop><extensions><gom:speed>0.0</gom:speed></extensions></trkpt>
   <trkpt lat="59.0672646018" lon="29.9673993629"><ele>99.538</ele><time>2026-04-25T10:52:31.000Z</time><hdop>3.0</hdop><vdop>3.0</vdop><extensions><gom:speed>0.0</gom:speed></extensions></trkpt>
   <trkpt lat="59.0672646018" lon="29.9673993629"><ele>99.548</ele><time>2026-04-25T10:52:31.000Z</time><hdop>3.0</hdop><vdop>3.0</vdop><extensions><gom:speed>0.0</gom:speed></extensions></trkpt>
   <trkpt lat="59.0672646018" lon="29.9673993629"><ele>99.555</ele><time>2026-04-25T10:52:32.000Z</time><hdop>3.0</hdop><vdop>3.0</vdop><extensions><gom:speed>0.0</gom:speed></extensions></trkpt>
   <trkpt lat="59.0672646018" lon="29.9673993629"><ele>99.558</ele><time>2026-04-25T10:52:33.000Z</time><hdop>3.0</hdop><vdop>3.0</vdop><extensions><gom:speed>0.0</gom:speed></extensions></trkpt>
   <trkpt lat="59.0672646018" lon="29.9673993629"><ele>99.561</ele><time>2026-04-25T10:52:33.000Z</time><hdop>3.0</hdop><vdop>3.0</vdop><extensions><gom:speed>0.0</gom:speed></extensions></trkpt>
   <trkpt lat="59.0672646018" lon="29.9673993629"><ele>99.562</ele><time>2026-04-25T10:52:34.000Z</time><hdop>3.0</hdop><vdop>3.0</vdop><extensions><gom:speed>0.0</gom:speed></extensions></trkpt>
   <trkpt lat="59.0672646018" lon="29.9673993629"><ele>99.563</ele><time>2026-04-25T10:52:35.000Z</time><hdop>3.0</hdop><vdop>3.0</vdop><extensions><gom:speed>0.0</gom:speed></extensions></trkpt>
   <trkpt lat="59.0672646018" lon="29.9673993629"><ele>99.563</ele><time>2026-04-25T10:52:36.000Z</time><hdop>3.0</hdop><vdop>3.0</vdop><extensions><gom:speed>0.0</gom:speed></extensions></trkpt>
   <trkpt lat="59.0672646018" lon="29.9673993629"><ele>99.563</ele><time>2026-04-25T10:52:37.000Z</time><hdop>3.0</hdop><vdop>3.0</vdop><extensions><gom:speed>0.0</gom:speed></extensions></trkpt>
   <trkpt lat="59.0672646018" lon="29.9673993629"><ele>99.564</ele><time>2026-04-25T10:52:38.000Z</time><hdop>3.0</hdop><vdop>3.0</vdop><extensions><gom:speed>0.0</gom:speed></extensions></trkpt>
   <trkpt lat="59.0672665715" lon="29.9674004525"><ele>99.654</ele><time>2026-04-25T10:52:39.000Z</time><hdop>3.0</hdop><vdop>3.0</vdop><extensions><gom:speed>0.357</gom:speed></extensions></trkpt>
   <trkpt lat="59.0672717264" lon="29.9674000334"><ele>99.784</ele><time>2026-04-25T10:52:40.000Z</time><hdop>3.0</hdop><vdop>3.0</vdop><extensions><gom:speed>0.61</gom:speed></extensions></trkpt>
   <trkpt lat="59.0672779709" lon="29.9674008716"><ele>99.933</ele><time>2026-04-25T10:52:41.000Z</time><hdop>3.0</hdop><vdop>3.0</vdop><extensions><gom:speed>0.719</gom:speed></extensions></trkpt>
   <trkpt lat="59.0672855985" lon="29.9674033024"><ele>100.047</ele><time>2026-04-25T10:52:42.000Z</time><hdop>3.0</hdop><vdop>3.0</vdop><extensions><gom:speed>0.657</gom:speed></extensions></trkpt>
   <trkpt lat="59.0672920106" lon="29.9674033024"><ele>100.109</ele><time>2026-04-25T10:52:43.000Z</time><hdop>3.0</hdop><vdop>3.0</vdop><extensions><gom:speed>0.605</gom:speed></extensions></trkpt>
   <trkpt lat="59.0672988419" lon="29.9674040567"><ele>100.129</ele><time>2026-04-25T10:52:44.000Z</time><hdop>3.0</hdop><vdop>3.0</vdop><extensions><gom:speed>0.563</gom:speed></extensions></trkpt>
   <trkpt lat="59.067305715" lon="29.9674064037"><ele>100.124</ele><time>2026-04-25T10:52:45.000Z</time><hdop>3.0</hdop><vdop>3.0</vdop><extensions><gom:speed>0.645</gom:speed></extensions></trkpt>
   <trkpt lat="59.0673129654" lon="29.9674098403"><ele>100.139</ele><time>2026-04-25T10:52:46.000Z</time><hdop>3.0</hdop><vdop>3.0</vdop><extensions><gom:speed>0.691</gom:speed></extensions></trkpt>
   <trkpt lat="59.0673213054" lon="29.9674127739"><ele>100.218</ele><time>2026-04-25T10:52:47.000Z</time><hdop>3.0</hdop><vdop>3.0</vdop><extensions><gom:speed>0.84</gom:speed></extensions></trkpt>
   <trkpt lat="59.0673304835" lon="29.9674137798"><ele>100.231</ele><time>2026-04-25T10:52:48.000Z</time><hdop>3.0</hdop><vdop>3.0</vdop><extensions><gom:speed>0.859</gom:speed></extensions></trkpt>
   <trkpt lat="59.067339075" lon="29.9674166296"><ele>100.226</ele><time>2026-04-25T10:52:49.000Z</time><hdop>3.0</hdop><vdop>3.0</vdop><extensions><gom:speed>0.796</gom:speed></extensions></trkpt>
   <trkpt lat="59.0673467444" lon="29.9674222455"><ele>100.28</ele><time>2026-04-25T10:52:50.000Z</time><hdop>3.0</hdop><vdop>3.0</vdop><extensions><gom:speed>0.676</gom:speed></extensions></trkpt>
   <trkpt lat="59.0673531147" lon="29.9674241733"><ele>100.403</ele><time>2026-04-25T10:52:51.000Z</time><hdop>3.0</hdop><vdop>3.0</vdop><extensions><gom:speed>0.597</gom:speed></extensions></trkpt>
   <trkpt lat="59.0673591497" lon="29.9674234189"><ele>100.532</ele><time>2026-04-25T10:52:52.000Z</time><hdop>3.0</hdop><vdop>3.0</vdop><extensions><gom:speed>0.607</gom:speed></extensions></trkpt>
   <trkpt lat="59.0673591497" lon="29.9674234189"><ele>100.609</ele><time>2026-04-25T10:52:52.000Z</time><hdop>3.0</hdop><vdop>3.0</vdop><extensions><gom:speed>0.607</gom:speed></extensions></trkpt>
   <trkpt lat="59.0673638435" lon="29.9674193118"><ele>100.659</ele><time>2026-04-25T10:52:53.000Z</time><hdop>3.0</hdop><vdop>3.0</vdop><extensions><gom:speed>0.361</gom:speed></extensions></trkpt>
   <trkpt lat="59.0673667772" lon="29.9674144503"><ele>100.732</ele><time>2026-04-25T10:52:54.000Z</time><hdop>3.0</hdop><vdop>3.0</vdop><extensions><gom:speed>0.399</gom:speed></extensions></trkpt>
   <trkpt lat="59.0673707167" lon="29.9674081639"><ele>100.78</ele><time>2026-04-25T10:52:55.000Z</time><hdop>3.0</hdop><vdop>3.0</vdop><extensions><gom:speed>0.495</gom:speed></extensions></trkpt>
   <trkpt lat="59.0673757039" lon="29.967399782"><ele>100.802</ele><time>2026-04-25T10:52:56.000Z</time><hdop>3.0</hdop><vdop>3.0</vdop><extensions><gom:speed>0.789</gom:speed></extensions></trkpt>
   <trkpt lat="59.067380314" lon="29.9673918192"><ele>100.81</ele><time>2026-04-25T10:52:57.000Z</time><hdop>3.0</hdop><vdop>3.0</vdop><extensions><gom:speed>0.675</gom:speed></extensions></trkpt>
   <trkpt lat="59.0673843373" lon="29.9673808389"><ele>100.813</ele><time>2026-04-25T10:52:58.000Z</time><hdop>3.0</hdop><vdop>3.0</vdop><extensions><gom:speed>0.688</gom:speed></extensions></trkpt>
   <trkpt lat="59.0673870614" lon="29.9673700262"><ele>100.825</ele><time>2026-04-25T10:52:59.000Z</time><hdop>3.0</hdop><vdop>3.0</vdop><extensions><gom:speed>0.58</gom:speed></extensions></trkpt>
   <trkpt lat="59.0673872709" lon="29.9673617281"><ele>100.806</ele><time>2026-04-25T10:53:00.000Z</time><hdop>3.0</hdop><vdop>3.0</vdop><extensions><gom:speed>0.259</gom:speed></extensions></trkpt>
   <trkpt lat="59.0673872709" lon="29.9673617281"><ele>100.795</ele><time>2026-04-25T10:53:01.000Z</time><hdop>3.0</hdop><vdop>3.0</vdop><extensions><gom:speed>0.0</gom:speed></extensions></trkpt>
   <trkpt lat="59.0673856784" lon="29.9673538491"><ele>100.591</ele><time>2026-04-25T10:53:02.000Z</time><hdop>3.0</hdop><vdop>3.0</vdop><extensions><gom:speed>0.106</gom:speed></extensions></trkpt>
   <trkpt lat="59.0673826609" lon="29.9673489876"><ele>100.478</ele><time>2026-04-25T10:53:03.000Z</time><hdop>3.25</hdop><vdop>3.25</vdop><extensions><gom:speed>0.201</gom:speed></extensions></trkpt>
   <trkpt lat="59.0673826609" lon="29.9673489876"><ele>100.41</ele><time>2026-04-25T10:53:04.000Z</time><hdop>3.25</hdop><vdop>3.25</vdop><extensions><gom:speed>0.0</gom:speed></extensions></trkpt>
   <trkpt lat="59.0673826609" lon="29.9673489876"><ele>100.37</ele><time>2026-04-25T10:53:05.000Z</time><hdop>3.25</hdop><vdop>3.25</vdop><extensions><gom:speed>0.0</gom:speed></extensions></trkpt>
   <trkpt lat="59.0673826609" lon="29.9673489876"><ele>100.346</ele><time>2026-04-25T10:53:06.000Z</time><hdop>3.25</hdop><vdop>3.25</vdop><extensions><gom:speed>0.0</gom:speed></extensions></trkpt>
   <trkpt lat="59.0673826609" lon="29.9673489876"><ele>100.332</ele><time>2026-04-25T10:53:07.000Z</time><hdop>3.25</hdop><vdop>3.25</vdop><extensions><gom:speed>0.0</gom:speed></extensions></trkpt>
   <trkpt lat="59.0673826609" lon="29.9673489876"><ele>100.323</ele><time>2026-04-25T10:53:08.000Z</time><hdop>3.25</hdop><vdop>3.25</vdop><extensions><gom:speed>0.0</gom:speed></extensions></trkpt>
   <trkpt lat="59.0673826609" lon="29.9673489876"><ele>100.318</ele><time>2026-04-25T10:53:09.000Z</time><hdop>3.25</hdop><vdop>3.25</vdop><extensions><gom:speed>0.0</gom:speed></extensions></trkpt>
   <trkpt lat="59.0673826609" lon="29.9673489876"><ele>100.315</ele><time>2026-04-25T10:53:10.000Z</time><hdop>3.25</hdop><vdop>3.25</vdop><extensions><gom:speed>0.0</gom:speed></extensions></trkpt>
   <trkpt lat="59.0673826609" lon="29.9673489876"><ele>100.313</ele><time>2026-04-25T10:53:11.000Z</time><hdop>3.25</hdop><vdop>3.25</vdop><extensions><gom:speed>0.0</gom:speed></extensions></trkpt>
   <trkpt lat="59.0673826609" lon="29.9673489876"><ele>100.312</ele><time>2026-04-25T10:53:12.000Z</time><hdop>3.25</hdop><vdop>3.25</vdop><extensions><gom:speed>0.0</gom:speed></extensions></trkpt>
   <trkpt lat="59.0673826609" lon="29.9673489876"><ele>100.311</ele><time>2026-04-25T10:53:13.000Z</time><hdop>3.25</hdop><vdop>3.25</vdop><extensions><gom:speed>0.0</gom:speed></extensions></trkpt>
   <trkpt lat="59.0673826609" lon="29.9673489876"><ele>100.311</ele><time>2026-04-25T10:53:13.000Z</time><hdop>3.25</hdop><vdop>3.25</vdop><extensions><gom:speed>0.0</gom:speed></extensions></trkpt>
   <trkpt lat="59.0673826609" lon="29.9673489876"><ele>100.311</ele><time>2026-04-25T10:53:14.000Z</time><hdop>3.25</hdop><vdop>3.25</vdop><extensions><gom:speed>0.0</gom:speed></extensions></trkpt>
   <trkpt lat="59.0673826609" lon="29.9673489876"><ele>100.31</ele><time>2026-04-25T10:53:15.000Z</time><hdop>3.25</hdop><vdop>3.25</vdop><extensions><gom:speed>0.0</gom:speed></extensions></trkpt>
   <trkpt lat="59.0673826609" lon="29.9673489876"><ele>100.31</ele><time>2026-04-25T10:53:16.000Z</time><hdop>3.25</hdop><vdop>3.25</vdop><extensions><gom:speed>0.0</gom:speed></extensions></trkpt>
   <trkpt lat="59.0673826609" lon="29.9673489876"><ele>100.31</ele><time>2026-04-25T10:53:17.000Z</time><hdop>3.25</hdop><vdop>3.25</vdop><extensions><gom:speed>0.0</gom:speed></extensions></trkpt>
   <trkpt lat="59.0673826609" lon="29.9673489876"><ele>100.31</ele><time>2026-04-25T10:53:18.000Z</time><hdop>3.25</hdop><vdop>3.25</vdop><extensions><gom:speed>0.0</gom:speed></extensions></trkpt>
   <trkpt lat="59.0673826609" lon="29.9673489876"><ele>100.31</ele><time>2026-04-25T10:53:19.000Z</time><hdop>3.25</hdop><vdop>3.25</vdop><extensions><gom:speed>0.0</gom:speed></extensions></trkpt>
   <trkpt lat="59.0673826609" lon="29.9673489876"><ele>100.31</ele><time>2026-04-25T10:53:20.000Z</time><hdop>3.25</hdop><vdop>3.25</vdop><extensions><gom:speed>0.0</gom:speed></extensions></trkpt>
   <trkpt lat="59.0673826609" lon="29.9673489876"><ele>100.31</ele><time>2026-04-25T10:53:21.000Z</time><hdop>3.25</hdop><vdop>3.25</vdop><extensions><gom:speed>0.0</gom:speed></extensions></trkpt>
   <trkpt lat="59.0673826609" lon="29.9673489876"><ele>100.31</ele><time>2026-04-25T10:53:22.000Z</time><hdop>3.25</hdop><vdop>3.25</vdop><extensions><gom:speed>0.0</gom:speed></extensions></trkpt>
   <trkpt lat="59.0673826609" lon="29.9673489876"><ele>100.31</ele><time>2026-04-25T10:53:23.000Z</time><hdop>3.25</hdop><vdop>3.25</vdop><extensions><gom:speed>0.0</gom:speed></extensions></trkpt>
   <trkpt lat="59.0673826609" lon="29.9673489876"><ele>100.31</ele><time>2026-04-25T10:53:24.000Z</time><hdop>3.25</hdop><vdop>3.25</vdop><extensions><gom:speed>0.0</gom:speed></extensions></trkpt>
   <trkpt lat="59.0673826609" lon="29.9673489876"><ele>100.31</ele><time>2026-04-25T10:53:25.000Z</time><hdop>3.25</hdop><vdop>3.25</vdop><extensions><gom:speed>0.0</gom:speed></extensions></trkpt>
   <trkpt lat="59.0673826609" lon="29.9673489876"><ele>100.31</ele><time>2026-04-25T10:53:26.000Z</time><hdop>3.25</hdop><vdop>3.25</vdop><extensions><gom:speed>0.0</gom:speed></extensions></trkpt>
   <trkpt lat="59.0673826609" lon="29.9673489876"><ele>100.31</ele><time>2026-04-25T10:53:27.000Z</time><hdop>3.25</hdop><vdop>3.25</vdop><extensions><gom:speed>0.0</gom:speed></extensions></trkpt>
   <trkpt lat="59.0673826609" lon="29.9673489876"><ele>100.31</ele><time>2026-04-25T10:53:28.000Z</time><hdop>3.25</hdop><vdop>3.25</vdop><extensions><gom:speed>0.0</gom:speed></extensions></trkpt>
   <trkpt lat="59.0673826609" lon="29.9673489876"><ele>100.31</ele><time>2026-04-25T10:53:29.000Z</time><hdop>3.25</hdop><vdop>3.25</vdop><extensions><gom:speed>0.0</gom:speed></extensions></trkpt>
   <trkpt lat="59.0673826609" lon="29.9673489876"><ele>100.31</ele><time>2026-04-25T10:53:30.000Z</time><hdop>3.25</hdop><vdop>3.25</vdop><extensions><gom:speed>0.0</gom:speed></extensions></trkpt>
   <trkpt lat="59.0673826609" lon="29.9673489876"><ele>100.31</ele><time>2026-04-25T10:53:31.000Z</time><hdop>3.25</hdop><vdop>3.25</vdop><extensions><gom:speed>0.0</gom:speed></extensions></trkpt>
   <trkpt lat="59.0673826609" lon="29.9673489876"><ele>100.31</ele><time>2026-04-25T10:53:32.000Z</time><hdop>3.25</hdop><vdop>3.25</vdop><extensions><gom:speed>0.0</gom:speed></extensions></trkpt>
   <trkpt lat="59.0673826609" lon="29.9673489876"><ele>100.31</ele><time>2026-04-25T10:53:32.000Z</time><hdop>3.25</hdop><vdop>3.25</vdop><extensions><gom:speed>0.0</gom:speed></extensions></trkpt>
   <trkpt lat="59.0673826609" lon="29.9673489876"><ele>100.31</ele><time>2026-04-25T10:53:33.000Z</time><hdop>3.25</hdop><vdop>3.25</vdop><extensions><gom:speed>0.0</gom:speed></extensions></trkpt>
   <trkpt lat="59.0673826609" lon="29.9673489876"><ele>100.31</ele><time>2026-04-25T10:53:34.000Z</time><hdop>3.25</hdop><vdop>3.25</vdop><extensions><gom:speed>0.0</gom:speed></extensions></trkpt>
   <trkpt lat="59.0673826609" lon="29.9673489876"><ele>100.31</ele><time>2026-04-25T10:53:35.000Z</time><hdop>3.25</hdop><vdop>3.25</vdop><extensions><gom:speed>0.0</gom:speed></extensions></trkpt>
   <trkpt lat="59.0673826609" lon="29.9673489876"><ele>100.31</ele><time>2026-04-25T10:53:36.000Z</time><hdop>3.25</hdop><vdop>3.25</vdop><extensions><gom:speed>0.0</gom:speed></extensions></trkpt>
   <trkpt lat="59.0673826609" lon="29.9673489876"><ele>100.31</ele><time>2026-04-25T10:53:37.000Z</time><hdop>3.25</hdop><vdop>3.25</vdop><extensions><gom:speed>0.0</gom:speed></extensions></trkpt>
   <trkpt lat="59.0673826609" lon="29.9673489876"><ele>100.31</ele><time>2026-04-25T10:53:38.000Z</time><hdop>3.25</hdop><vdop>3.25</vdop><extensions><gom:speed>0.0</gom:speed></extensions></trkpt>
   <trkpt lat="59.0673826609" lon="29.9673489876"><ele>100.31</ele><time>2026-04-25T10:53:39.000Z</time><hdop>3.25</hdop><vdop>3.25</vdop><extensions><gom:speed>0.0</gom:speed></extensions></trkpt>
   <trkpt lat="59.0673826609" lon="29.9673489876"><ele>100.31</ele><time>2026-04-25T10:53:40.000Z</time><hdop>3.25</hdop><vdop>3.25</vdop><extensions><gom:speed>0.0</gom:speed></extensions></trkpt>
   <trkpt lat="59.0673826609" lon="29.9673489876"><ele>100.31</ele><time>2026-04-25T10:53:41.000Z</time><hdop>3.25</hdop><vdop>3.25</vdop><extensions><gom:speed>0.0</gom:speed></extensions></trkpt>
   <trkpt lat="59.0673826609" lon="29.9673489876"><ele>100.31</ele><time>2026-04-25T10:53:42.000Z</time><hdop>3.25</hdop><vdop>3.25</vdop><extensions><gom:speed>0.0</gom:speed></extensions></trkpt>
   <trkpt lat="59.0673826609" lon="29.9673489876"><ele>100.31</ele><time>2026-04-25T10:53:43.000Z</time><hdop>3.25</hdop><vdop>3.25</vdop><extensions><gom:speed>0.0</gom:speed></extensions></trkpt>
   <trkpt lat="59.0673826609" lon="29.9673489876"><ele>100.31</ele><time>2026-04-25T10:53:44.000Z</time><hdop>3.25</hdop><vdop>3.25</vdop><extensions><gom:speed>0.0</gom:speed></extensions></trkpt>
   <trkpt lat="59.0673826609" lon="29.9673489876"><ele>100.31</ele><time>2026-04-25T10:53:45.000Z</time><hdop>3.25</hdop><vdop>3.25</vdop><extensions><gom:speed>0.0</gom:speed></extensions></trkpt>
   <trkpt lat="59.0673826609" lon="29.9673489876"><ele>100.31</ele><time>2026-04-25T10:53:46.000Z</time><hdop>3.25</hdop><vdop>3.25</vdop><extensions><gom:speed>0.0</gom:speed></extensions></trkpt>
   <trkpt lat="59.0673826609" lon="29.9673489876"><ele>100.31</ele><time>2026-04-25T10:53:47.000Z</time><hdop>3.25</hdop><vdop>3.25</vdop><extensions><gom:speed>0.0</gom:speed></extensions></trkpt>
   <trkpt lat="59.0673826609" lon="29.9673489876"><ele>100.31</ele><time>2026-04-25T10:53:48.000Z</time><hdop>3.25</hdop><vdop>3.25</vdop><extensions><gom:speed>0.0</gom:speed></extensions></trkpt>
   <trkpt lat="59.0673826609" lon="29.9673489876"><ele>100.31</ele><time>2026-04-25T10:53:49.000Z</time><hdop>3.25</hdop><vdop>3.25</vdop><extensions><gom:speed>0.0</gom:speed></extensions></trkpt>
   <trkpt lat="59.0673826609" lon="29.9673489876"><ele>100.31</ele><time>2026-04-25T10:53:50.000Z</time><hdop>3.25</hdop><vdop>3.25</vdop><extensions><gom:speed>0.0</gom:speed></extensions></trkpt>
   <trkpt lat="59.0673826609" lon="29.9673489876"><ele>100.31</ele><time>2026-04-25T10:53:51.000Z</time><hdop>3.25</hdop><vdop>3.25</vdop><extensions><gom:speed>0.0</gom:speed></extensions></trkpt>
   <trkpt lat="59.0673826609" lon="29.9673489876"><ele>100.31</ele><time>2026-04-25T10:53:52.000Z</time><hdop>3.25</hdop><vdop>3.25</vdop><extensions><gom:speed>0.0</gom:speed></extensions></trkpt>
   <trkpt lat="59.0673826609" lon="29.9673489876"><ele>100.31</ele><time>2026-04-25T10:53:53.000Z</time><hdop>3.25</hdop><vdop>3.25</vdop><extensions><gom:speed>0.0</gom:speed></extensions></trkpt>
   <trkpt lat="59.0673826609" lon="29.9673489876"><ele>100.31</ele><time>2026-04-25T10:53:53.000Z</time><hdop>3.25</hdop><vdop>3.25</vdop><extensions><gom:speed>0.0</gom:speed></extensions></trkpt>
   <trkpt lat="59.0673826609" lon="29.9673489876"><ele>100.31</ele><time>2026-04-25T10:53:54.000Z</time><hdop>3.25</hdop><vdop>3.25</vdop><extensions><gom:speed>0.0</gom:speed></extensions></trkpt>
   <trkpt lat="59.0673826609" lon="29.9673489876"><ele>100.31</ele><time>2026-04-25T10:53:55.000Z</time><hdop>3.25</hdop><vdop>3.25</vdop><extensions><gom:speed>0.0</gom:speed></extensions></trkpt>
   <trkpt lat="59.0673826609" lon="29.9673489876"><ele>100.31</ele><time>2026-04-25T10:53:56.000Z</time><hdop>3.25</hdop><vdop>3.25</vdop><extensions><gom:speed>0.0</gom:speed></extensions></trkpt>
   <trkpt lat="59.0673826609" lon="29.9673489876"><ele>100.31</ele><time>2026-04-25T10:53:57.000Z</time><hdop>3.25</hdop><vdop>3.25</vdop><extensions><gom:speed>0.0</gom:speed></extensions></trkpt>
   <trkpt lat="59.0673826609" lon="29.9673489876"><ele>100.31</ele><time>2026-04-25T10:53:58.000Z</time><hdop>3.25</hdop><vdop>3.25</vdop><extensions><gom:speed>0.0</gom:speed></extensions></trkpt>
   <trkpt lat="59.0673826609" lon="29.9673489876"><ele>100.31</ele><time>2026-04-25T10:53:59.000Z</time><hdop>3.25</hdop><vdop>3.25</vdop><extensions><gom:speed>0.0</gom:speed></extensions></trkpt>
   <trkpt lat="59.0673826609" lon="29.9673489876"><ele>100.31</ele><time>2026-04-25T10:54:00.000Z</time><hdop>3.25</hdop><vdop>3.25</vdop><extensions><gom:speed>0.0</gom:speed></extensions></trkpt>
   <trkpt lat="59.0673826609" lon="29.9673489876"><ele>100.31</ele><time>2026-04-25T10:54:01.000Z</time><hdop>3.25</hdop><vdop>3.25</vdop><extensions><gom:speed>0.0</gom:speed></extensions></trkpt>
   <trkpt lat="59.0673826609" lon="29.9673489876"><ele>100.31</ele><time>2026-04-25T10:54:02.000Z</time><hdop>3.25</hdop><vdop>3.25</vdop><extensions><gom:speed>0.0</gom:speed></extensions></trkpt>
   <trkpt lat="59.0673826609" lon="29.9673489876"><ele>100.31</ele><time>2026-04-25T10:54:03.000Z</time><hdop>3.25</hdop><vdop>3.25</vdop><extensions><gom:speed>0.0</gom:speed></extensions></trkpt>
   <trkpt lat="59.0673826609" lon="29.9673489876"><ele>100.31</ele><time>2026-04-25T10:54:04.000Z</time><hdop>3.25</hdop><vdop>3.25</vdop><extensions><gom:speed>0.0</gom:speed></extensions></trkpt>
   <trkpt lat="59.0673826609" lon="29.9673489876"><ele>100.31</ele><time>2026-04-25T10:54:05.000Z</time><hdop>3.25</hdop><vdop>3.25</vdop><extensions><gom:speed>0.0</gom:speed></extensions></trkpt>
   <trkpt lat="59.0673826609" lon="29.9673489876"><ele>100.31</ele><time>2026-04-25T10:54:06.000Z</time><hdop>3.25</hdop><vdop>3.25</vdop><extensions><gom:speed>0.0</gom:speed></extensions></trkpt>
   <trkpt lat="59.0673826609" lon="29.9673489876"><ele>100.31</ele><time>2026-04-25T10:54:07.000Z</time><hdop>3.25</hdop><vdop>3.25</vdop><extensions><gom:speed>0.0</gom:speed></extensions></trkpt>
   <trkpt lat="59.0673826609" lon="29.9673489876"><ele>100.31</ele><time>2026-04-25T10:54:08.000Z</time><hdop>3.25</hdop><vdop>3.25</vdop><extensions><gom:speed>0.0</gom:speed></extensions></trkpt>
   <trkpt lat="59.0673826609" lon="29.9673489876"><ele>100.31</ele><time>2026-04-25T10:54:09.000Z</time><hdop>3.25</hdop><vdop>3.25</vdop><extensions><gom:speed>0.0</gom:speed></extensions></trkpt>
   <trkpt lat="59.0673826609" lon="29.9673489876"><ele>100.31</ele><time>2026-04-25T10:54:10.000Z</time><hdop>3.25</hdop><vdop>3.25</vdop><extensions><gom:speed>0.0</gom:speed></extensions></trkpt>
   <trkpt lat="59.0673826609" lon="29.9673489876"><ele>100.31</ele><time>2026-04-25T10:54:11.000Z</time><hdop>3.25</hdop><vdop>3.25</vdop><extensions><gom:speed>0.0</gom:speed></extensions></trkpt>
   <trkpt lat="59.0673826609" lon="29.9673489876"><ele>100.31</ele><time>2026-04-25T10:54:12.000Z</time><hdop>3.25</hdop><vdop>3.25</vdop><extensions><gom:speed>0.0</gom:speed></extensions></trkpt>
   <trkpt lat="59.0673826609" lon="29.9673489876"><ele>100.31</ele><time>2026-04-25T10:54:13.000Z</time><hdop>3.25</hdop><vdop>3.25</vdop><extensions><gom:speed>0.0</gom:speed></extensions></trkpt>
   <trkpt lat="59.0673826609" lon="29.9673489876"><ele>100.31</ele><time>2026-04-25T10:54:13.000Z</time><hdop>3.25</hdop><vdop>3.25</vdop><extensions><gom:speed>0.0</gom:speed></extensions></trkpt>
   <trkpt lat="59.0673826609" lon="29.9673489876"><ele>100.31</ele><time>2026-04-25T10:54:14.000Z</time><hdop>3.25</hdop><vdop>3.25</vdop><extensions><gom:speed>0.0</gom:speed></extensions></trkpt>
   <trkpt lat="59.0673826609" lon="29.9673489876"><ele>100.31</ele><time>2026-04-25T10:54:15.000Z</time><hdop>3.25</hdop><vdop>3.25</vdop><extensions><gom:speed>0.0</gom:speed></extensions></trkpt>
   <trkpt lat="59.0673826609" lon="29.9673489876"><ele>100.31</ele><time>2026-04-25T10:54:16.000Z</time><hdop>3.25</hdop><vdop>3.25</vdop><extensions><gom:speed>0.0</gom:speed></extensions></trkpt>
   <trkpt lat="59.0673826609" lon="29.9673489876"><ele>100.31</ele><time>2026-04-25T10:54:17.000Z</time><hdop>3.25</hdop><vdop>3.25</vdop><extensions><gom:speed>0.0</gom:speed></extensions></trkpt>
   <trkpt lat="59.0673826609" lon="29.9673489876"><ele>100.31</ele><time>2026-04-25T10:54:18.000Z</time><hdop>3.25</hdop><vdop>3.25</vdop><extensions><gom:speed>0.0</gom:speed></extensions></trkpt>
   <trkpt lat="59.0673826609" lon="29.9673489876"><ele>100.31</ele><time>2026-04-25T10:54:19.000Z</time><hdop>3.25</hdop><vdop>3.25</vdop><extensions><gom:speed>0.0</gom:speed></extensions></trkpt>
   <trkpt lat="59.0673826609" lon="29.9673489876"><ele>100.31</ele><time>2026-04-25T10:54:20.000Z</time><hdop>3.25</hdop><vdop>3.25</vdop><extensions><gom:speed>0.0</gom:speed></extensions></trkpt>
   <trkpt lat="59.0673826609" lon="29.9673489876"><ele>100.31</ele><time>2026-04-25T10:54:21.000Z</time><hdop>3.25</hdop><vdop>3.25</vdop><extensions><gom:speed>0.0</gom:speed></extensions></trkpt>
   <trkpt lat="59.0673826609" lon="29.9673489876"><ele>100.31</ele><time>2026-04-25T10:54:22.000Z</time><hdop>3.25</hdop><vdop>3.25</vdop><extensions><gom:speed>0.0</gom:speed></extensions></trkpt>
   <trkpt lat="59.0673826609" lon="29.9673489876"><ele>100.31</ele><time>2026-04-25T10:54:23.000Z</time><hdop>3.25</hdop><vdop>3.25</vdop><extensions><gom:speed>0.0</gom:speed></extensions></trkpt>
   <trkpt lat="59.0673826609" lon="29.9673489876"><ele>100.31</ele><time>2026-04-25T10:54:24.000Z</time><hdop>3.25</hdop><vdop>3.25</vdop><extensions><gom:speed>0.0</gom:speed></extensions></trkpt>
   <trkpt lat="59.0673826609" lon="29.9673489876"><ele>100.31</ele><time>2026-04-25T10:54:25.000Z</time><hdop>3.25</hdop><vdop>3.25</vdop><extensions><gom:speed>0.0</gom:speed></extensions></trkpt>
   <trkpt lat="59.0673826609" lon="29.9673489876"><ele>100.31</ele><time>2026-04-25T10:54:26.000Z</time><hdop>3.25</hdop><vdop>3.25</vdop><extensions><gom:speed>0.0</gom:speed></extensions></trkpt>
   <trkpt lat="59.0673826609" lon="29.9673489876"><ele>100.31</ele><time>2026-04-25T10:54:27.000Z</time><hdop>3.25</hdop><vdop>3.25</vdop><extensions><gom:speed>0.0</gom:speed></extensions></trkpt>
   <trkpt lat="59.0673826609" lon="29.9673489876"><ele>100.31</ele><time>2026-04-25T10:54:28.000Z</time><hdop>3.25</hdop><vdop>3.25</vdop><extensions><gom:speed>0.0</gom:speed></extensions></trkpt>
   <trkpt lat="59.0673826609" lon="29.9673489876"><ele>100.31</ele><time>2026-04-25T10:54:29.000Z</time><hdop>3.25</hdop><vdop>3.25</vdop><extensions><gom:speed>0.0</gom:speed></extensions></trkpt>
   <trkpt lat="59.0673826609" lon="29.9673489876"><ele>100.31</ele><time>2026-04-25T10:54:30.000Z</time><hdop>3.25</hdop><vdop>3.25</vdop><extensions><gom:speed>0.0</gom:speed></extensions></trkpt>
   <trkpt lat="59.0673826609" lon="29.9673489876"><ele>100.31</ele><time>2026-04-25T10:54:31.000Z</time><hdop>3.25</hdop><vdop>3.25</vdop><extensions><gom:speed>0.0</gom:speed></extensions></trkpt>
   <trkpt lat="59.0673826609" lon="29.9673489876"><ele>100.31</ele><time>2026-04-25T10:54:32.000Z</time><hdop>3.25</hdop><vdop>3.25</vdop><extensions><gom:speed>0.0</gom:speed></extensions></trkpt>
   <trkpt lat="59.0673826609" lon="29.9673489876"><ele>100.31</ele><time>2026-04-25T10:54:33.000Z</time><hdop>3.25</hdop><vdop>3.25</vdop><extensions><gom:speed>0.0</gom:speed></extensions></trkpt>
   <trkpt lat="59.0673826609" lon="29.9673489876"><ele>100.31</ele><time>2026-04-25T10:54:34.000Z</time><hdop>3.25</hdop><vdop>3.25</vdop><extensions><gom:speed>0.0</gom:speed></extensions></trkpt>
   <trkpt lat="59.0673826609" lon="29.9673489876"><ele>100.31</ele><time>2026-04-25T10:54:35.000Z</time><hdop>3.25</hdop><vdop>3.25</vdop><extensions><gom:speed>0.0</gom:speed></extensions></trkpt>
   <trkpt lat="59.0673826609" lon="29.9673489876"><ele>100.31</ele><time>2026-04-25T10:54:35.000Z</time><hdop>3.25</hdop><vdop>3.25</vdop><extensions><gom:speed>0.0</gom:speed></extensions></trkpt>
   <trkpt lat="59.0673826609" lon="29.9673489876"><ele>100.31</ele><time>2026-04-25T10:54:36.000Z</time><hdop>3.25</hdop><vdop>3.25</vdop><extensions><gom:speed>0.0</gom:speed></extensions></trkpt>
   <trkpt lat="59.0673826609" lon="29.9673489876"><ele>100.31</ele><time>2026-04-25T10:54:37.000Z</time><hdop>3.25</hdop><vdop>3.25</vdop><extensions><gom:speed>0.0</gom:speed></extensions></trkpt>
   <trkpt lat="59.0673826609" lon="29.9673489876"><ele>100.31</ele><time>2026-04-25T10:54:38.000Z</time><hdop>3.25</hdop><vdop>3.25</vdop><extensions><gom:speed>0.0</gom:speed></extensions></trkpt>
   <trkpt lat="59.0673826609" lon="29.9673489876"><ele>100.31</ele><time>2026-04-25T10:54:39.000Z</time><hdop>3.25</hdop><vdop>3.25</vdop><extensions><gom:speed>0.0</gom:speed></extensions></trkpt>
   <trkpt lat="59.0673826609" lon="29.9673489876"><ele>100.31</ele><time>2026-04-25T10:54:40.000Z</time><hdop>3.25</hdop><vdop>3.25</vdop><extensions><gom:speed>0.0</gom:speed></extensions></trkpt>
   <trkpt lat="59.0673826609" lon="29.9673489876"><ele>100.31</ele><time>2026-04-25T10:54:41.000Z</time><hdop>3.25</hdop><vdop>3.25</vdop><extensions><gom:speed>0.0</gom:speed></extensions></trkpt>
   <trkpt lat="59.0673826609" lon="29.9673489876"><ele>100.31</ele><time>2026-04-25T10:54:42.000Z</time><hdop>3.25</hdop><vdop>3.25</vdop><extensions><gom:speed>0.0</gom:speed></extensions></trkpt>
   <trkpt lat="59.0673826609" lon="29.9673489876"><ele>100.31</ele><time>2026-04-25T10:54:43.000Z</time><hdop>3.25</hdop><vdop>3.25</vdop><extensions><gom:speed>0.0</gom:speed></extensions></trkpt>
   <trkpt lat="59.0673826609" lon="29.9673489876"><ele>100.31</ele><time>2026-04-25T10:54:44.000Z</time><hdop>3.25</hdop><vdop>3.25</vdop><extensions><gom:speed>0.0</gom:speed></extensions></trkpt>
   <trkpt lat="59.0673826609" lon="29.9673489876"><ele>100.31</ele><time>2026-04-25T10:54:45.000Z</time><hdop>3.25</hdop><vdop>3.25</vdop><extensions><gom:speed>0.0</gom:speed></extensions></trkpt>
   <trkpt lat="59.0673826609" lon="29.9673489876"><ele>100.31</ele><time>2026-04-25T10:54:46.000Z</time><hdop>3.25</hdop><vdop>3.25</vdop><extensions><gom:speed>0.0</gom:speed></extensions></trkpt>
   <trkpt lat="59.0673826609" lon="29.9673489876"><ele>100.31</ele><time>2026-04-25T10:54:47.000Z</time><hdop>3.25</hdop><vdop>3.25</vdop><extensions><gom:speed>0.0</gom:speed></extensions></trkpt>
   <trkpt lat="59.0673826609" lon="29.9673489876"><ele>100.31</ele><time>2026-04-25T10:54:48.000Z</time><hdop>3.25</hdop><vdop>3.25</vdop><extensions><gom:speed>0.0</gom:speed></extensions></trkpt>
   <trkpt lat="59.0673826609" lon="29.9673489876"><ele>100.31</ele><time>2026-04-25T10:54:49.000Z</time><hdop>3.25</hdop><vdop>3.25</vdop><extensions><gom:speed>0.0</gom:speed></extensions></trkpt>
   <trkpt lat="59.0673826609" lon="29.9673489876"><ele>100.31</ele><time>2026-04-25T10:54:50.000Z</time><hdop>3.25</hdop><vdop>3.25</vdop><extensions><gom:speed>0.0</gom:speed></extensions></trkpt>
   <trkpt lat="59.0673826609" lon="29.9673489876"><ele>100.31</ele><time>2026-04-25T10:54:51.000Z</time><hdop>3.25</hdop><vdop>3.25</vdop><extensions><gom:speed>0.0</gom:speed></extensions></trkpt>
   <trkpt lat="59.0673826609" lon="29.9673489876"><ele>100.31</ele><time>2026-04-25T10:54:52.000Z</time><hdop>3.25</hdop><vdop>3.25</vdop><extensions><gom:speed>0.0</gom:speed></extensions></trkpt>
   <trkpt lat="59.0673826609" lon="29.9673489876"><ele>100.31</ele><time>2026-04-25T10:54:53.000Z</time><hdop>3.25</hdop><vdop>3.25</vdop><extensions><gom:speed>0.0</gom:speed></extensions></trkpt>
   <trkpt lat="59.0673826609" lon="29.9673489876"><ele>100.31</ele><time>2026-04-25T10:54:54.000Z</time><hdop>3.25</hdop><vdop>3.25</vdop><extensions><gom:speed>0.0</gom:speed></extensions></trkpt>
   <trkpt lat="59.0673826609" lon="29.9673489876"><ele>100.31</ele><time>2026-04-25T10:54:54.000Z</time><hdop>3.25</hdop><vdop>3.25</vdop><extensions><gom:speed>0.0</gom:speed></extensions></trkpt>
   <trkpt lat="59.0673826609" lon="29.9673489876"><ele>100.31</ele><time>2026-04-25T10:54:55.000Z</time><hdop>3.25</hdop><vdop>3.25</vdop><extensions><gom:speed>0.0</gom:speed></extensions></trkpt>
   <trkpt lat="59.0673826609" lon="29.9673489876"><ele>100.31</ele><time>2026-04-25T10:54:56.000Z</time><hdop>3.25</hdop><vdop>3.25</vdop><extensions><gom:speed>0.0</gom:speed></extensions></trkpt>
   <trkpt lat="59.0673826609" lon="29.9673489876"><ele>100.31</ele><time>2026-04-25T10:54:57.000Z</time><hdop>3.25</hdop><vdop>3.25</vdop><extensions><gom:speed>0.0</gom:speed></extensions></trkpt>
   <trkpt lat="59.0673826609" lon="29.9673489876"><ele>100.31</ele><time>2026-04-25T10:54:58.000Z</time><hdop>3.25</hdop><vdop>3.25</vdop><extensions><gom:speed>0.0</gom:speed></extensions></trkpt>
   <trkpt lat="59.0673826609" lon="29.9673489876"><ele>100.31</ele><time>2026-04-25T10:54:59.000Z</time><hdop>3.25</hdop><vdop>3.25</vdop><extensions><gom:speed>0.0</gom:speed></extensions></trkpt>
   <trkpt lat="59.0673826609" lon="29.9673489876"><ele>100.31</ele><time>2026-04-25T10:55:00.000Z</time><hdop>3.25</hdop><vdop>3.25</vdop><extensions><gom:speed>0.0</gom:speed></extensions></trkpt>
   <trkpt lat="59.0673826609" lon="29.9673489876"><ele>100.31</ele><time>2026-04-25T10:55:01.000Z</time><hdop>3.25</hdop><vdop>3.25</vdop><extensions><gom:speed>0.0</gom:speed></extensions></trkpt>
   <trkpt lat="59.0673826609" lon="29.9673489876"><ele>100.31</ele><time>2026-04-25T10:55:02.000Z</time><hdop>3.25</hdop><vdop>3.25</vdop><extensions><gom:speed>0.0</gom:speed></extensions></trkpt>
   <trkpt lat="59.0673826609" lon="29.9673489876"><ele>100.31</ele><time>2026-04-25T10:55:03.000Z</time><hdop>3.25</hdop><vdop>3.25</vdop><extensions><gom:speed>0.0</gom:speed></extensions></trkpt>
   <trkpt lat="59.0673826609" lon="29.9673489876"><ele>100.31</ele><time>2026-04-25T10:55:04.000Z</time><hdop>3.25</hdop><vdop>3.25</vdop><extensions><gom:speed>0.0</gom:speed></extensions></trkpt>
   <trkpt lat="59.0673826609" lon="29.9673489876"><ele>100.31</ele><time>2026-04-25T10:55:05.000Z</time><hdop>3.25</hdop><vdop>3.25</vdop><extensions><gom:speed>0.0</gom:speed></extensions></trkpt>
   <trkpt lat="59.0673826609" lon="29.9673489876"><ele>100.31</ele><time>2026-04-25T10:55:06.000Z</time><hdop>3.25</hdop><vdop>3.25</vdop><extensions><gom:speed>0.0</gom:speed></extensions></trkpt>
   <trkpt lat="59.0673826609" lon="29.9673489876"><ele>100.31</ele><time>2026-04-25T10:55:07.000Z</time><hdop>3.25</hdop><vdop>3.25</vdop><extensions><gom:speed>0.0</gom:speed></extensions></trkpt>
   <trkpt lat="59.0673826609" lon="29.9673489876"><ele>100.31</ele><time>2026-04-25T10:55:08.000Z</time><hdop>3.25</hdop><vdop>3.25</vdop><extensions><gom:speed>0.0</gom:speed></extensions></trkpt>
   <trkpt lat="59.0673826609" lon="29.9673489876"><ele>100.31</ele><time>2026-04-25T10:55:09.000Z</time><hdop>3.25</hdop><vdop>3.25</vdop><extensions><gom:speed>0.0</gom:speed></extensions></trkpt>
   <trkpt lat="59.0673826609" lon="29.9673489876"><ele>100.31</ele><time>2026-04-25T10:55:10.000Z</time><hdop>3.25</hdop><vdop>3.25</vdop><extensions><gom:speed>0.0</gom:speed></extensions></trkpt>
   <trkpt lat="59.0673826609" lon="29.9673489876"><ele>100.31</ele><time>2026-04-25T10:55:11.000Z</time><hdop>3.25</hdop><vdop>3.25</vdop><extensions><gom:speed>0.0</gom:speed></extensions></trkpt>
   <trkpt lat="59.0673826609" lon="29.9673489876"><ele>100.31</ele><time>2026-04-25T10:55:12.000Z</time><hdop>3.25</hdop><vdop>3.25</vdop><extensions><gom:speed>0.0</gom:speed></extensions></trkpt>
   <trkpt lat="59.0673826609" lon="29.9673489876"><ele>100.31</ele><time>2026-04-25T10:55:13.000Z</time><hdop>3.25</hdop><vdop>3.25</vdop><extensions><gom:speed>0.0</gom:speed></extensions></trkpt>
   <trkpt lat="59.0673826609" lon="29.9673489876"><ele>100.31</ele><time>2026-04-25T10:55:13.000Z</time><hdop>3.25</hdop><vdop>3.25</vdop><extensions><gom:speed>0.0</gom:speed></extensions></trkpt>
   <trkpt lat="59.0673826609" lon="29.9673489876"><ele>100.31</ele><time>2026-04-25T10:55:14.000Z</time><hdop>3.25</hdop><vdop>3.25</vdop><extensions><gom:speed>0.0</gom:speed></extensions></trkpt>
   <trkpt lat="59.0673826609" lon="29.9673489876"><ele>100.31</ele><time>2026-04-25T10:55:15.000Z</time><hdop>3.25</hdop><vdop>3.25</vdop><extensions><gom:speed>0.0</gom:speed></extensions></trkpt>
   <trkpt lat="59.0673826609" lon="29.9673489876"><ele>100.31</ele><time>2026-04-25T10:55:16.000Z</time><hdop>3.25</hdop><vdop>3.25</vdop><extensions><gom:speed>0.0</gom:speed></extensions></trkpt>
   <trkpt lat="59.0673826609" lon="29.9673489876"><ele>100.31</ele><time>2026-04-25T10:55:17.000Z</time><hdop>3.25</hdop><vdop>3.25</vdop><extensions><gom:speed>0.0</gom:speed></extensions></trkpt>
   <trkpt lat="59.0673826609" lon="29.9673489876"><ele>100.31</ele><time>2026-04-25T10:55:18.000Z</time><hdop>3.25</hdop><vdop>3.25</vdop><extensions><gom:speed>0.0</gom:speed></extensions></trkpt>
   <trkpt lat="59.0673826609" lon="29.9673489876"><ele>100.31</ele><time>2026-04-25T10:55:19.000Z</time><hdop>3.25</hdop><vdop>3.25</vdop><extensions><gom:speed>0.0</gom:speed></extensions></trkpt>
   <trkpt lat="59.0673826609" lon="29.9673489876"><ele>100.31</ele><time>2026-04-25T10:55:20.000Z</time><hdop>3.25</hdop><vdop>3.25</vdop><extensions><gom:speed>0.0</gom:speed></extensions></trkpt>
   <trkpt lat="59.0673826609" lon="29.9673489876"><ele>100.31</ele><time>2026-04-25T10:55:21.000Z</time><hdop>3.25</hdop><vdop>3.25</vdop><extensions><gom:speed>0.0</gom:speed></extensions></trkpt>
   <trkpt lat="59.0673826609" lon="29.9673489876"><ele>100.31</ele><time>2026-04-25T10:55:22.000Z</time><hdop>3.25</hdop><vdop>3.25</vdop><extensions><gom:speed>0.0</gom:speed></extensions></trkpt>
   <trkpt lat="59.0673826609" lon="29.9673489876"><ele>100.31</ele><time>2026-04-25T10:55:23.000Z</time><hdop>3.25</hdop><vdop>3.25</vdop><extensions><gom:speed>0.0</gom:speed></extensions></trkpt>
   <trkpt lat="59.0673826609" lon="29.9673489876"><ele>100.31</ele><time>2026-04-25T10:55:24.000Z</time><hdop>3.25</hdop><vdop>3.25</vdop><extensions><gom:speed>0.0</gom:speed></extensions></trkpt>
   <trkpt lat="59.0673826609" lon="29.9673489876"><ele>100.31</ele><time>2026-04-25T10:55:25.000Z</time><hdop>3.25</hdop><vdop>3.25</vdop><extensions><gom:speed>0.0</gom:speed></extensions></trkpt>
   <trkpt lat="59.0673826609" lon="29.9673489876"><ele>100.31</ele><time>2026-04-25T10:55:26.000Z</time><hdop>3.25</hdop><vdop>3.25</vdop><extensions><gom:speed>0.0</gom:speed></extensions></trkpt>
   <trkpt lat="59.0673826609" lon="29.9673489876"><ele>100.31</ele><time>2026-04-25T10:55:27.000Z</time><hdop>3.25</hdop><vdop>3.25</vdop><extensions><gom:speed>0.0</gom:speed></extensions></trkpt>
   <trkpt lat="59.0673826609" lon="29.9673489876"><ele>100.31</ele><time>2026-04-25T10:55:28.000Z</time><hdop>3.25</hdop><vdop>3.25</vdop><extensions><gom:speed>0.0</gom:speed></extensions></trkpt>
   <trkpt lat="59.0673826609" lon="29.9673489876"><ele>100.31</ele><time>2026-04-25T10:55:29.000Z</time><hdop>3.25</hdop><vdop>3.25</vdop><extensions><gom:speed>0.0</gom:speed></extensions></trkpt>
   <trkpt lat="59.0673826609" lon="29.9673489876"><ele>100.31</ele><time>2026-04-25T10:55:30.000Z</time><hdop>3.25</hdop><vdop>3.25</vdop><extensions><gom:speed>0.0</gom:speed></extensions></trkpt>
   <trkpt lat="59.0673826609" lon="29.9673489876"><ele>100.31</ele><time>2026-04-25T10:55:31.000Z</time><hdop>3.25</hdop><vdop>3.25</vdop><extensions><gom:speed>0.0</gom:speed></extensions></trkpt>
   <trkpt lat="59.0673826609" lon="29.9673489876"><ele>100.31</ele><time>2026-04-25T10:55:32.000Z</time><hdop>3.25</hdop><vdop>3.25</vdop><extensions><gom:speed>0.0</gom:speed></extensions></trkpt>
   <trkpt lat="59.0673826609" lon="29.9673489876"><ele>100.31</ele><time>2026-04-25T10:55:33.000Z</time><hdop>3.25</hdop><vdop>3.25</vdop><extensions><gom:speed>0.0</gom:speed></extensions></trkpt>
   <trkpt lat="59.0673826609" lon="29.9673489876"><ele>100.31</ele><time>2026-04-25T10:55:33.000Z</time><hdop>3.25</hdop><vdop>3.25</vdop><extensions><gom:speed>0.0</gom:speed></extensions></trkpt>
   <trkpt lat="59.0673826609" lon="29.9673489876"><ele>100.31</ele><time>2026-04-25T10:55:34.000Z</time><hdop>3.25</hdop><vdop>3.25</vdop><extensions><gom:speed>0.0</gom:speed></extensions></trkpt>
   <trkpt lat="59.0673826609" lon="29.9673489876"><ele>100.31</ele><time>2026-04-25T10:55:35.000Z</time><hdop>3.25</hdop><vdop>3.25</vdop><extensions><gom:speed>0.0</gom:speed></extensions></trkpt>
   <trkpt lat="59.0673826609" lon="29.9673489876"><ele>100.31</ele><time>2026-04-25T10:55:36.000Z</time><hdop>3.25</hdop><vdop>3.25</vdop><extensions><gom:speed>0.0</gom:speed></extensions></trkpt>
   <trkpt lat="59.0673826609" lon="29.9673489876"><ele>100.31</ele><time>2026-04-25T10:55:37.000Z</time><hdop>3.25</hdop><vdop>3.25</vdop><extensions><gom:speed>0.0</gom:speed></extensions></trkpt>
   <trkpt lat="59.0673826609" lon="29.9673489876"><ele>100.31</ele><time>2026-04-25T10:55:38.000Z</time><hdop>3.25</hdop><vdop>3.25</vdop><extensions><gom:speed>0.0</gom:speed></extensions></trkpt>
   <trkpt lat="59.0673826609" lon="29.9673489876"><ele>100.31</ele><time>2026-04-25T10:55:39.000Z</time><hdop>3.25</hdop><vdop>3.25</vdop><extensions><gom:speed>0.0</gom:speed></extensions></trkpt>
   <trkpt lat="59.0673826609" lon="29.9673489876"><ele>100.31</ele><time>2026-04-25T10:55:40.000Z</time><hdop>3.25</hdop><vdop>3.25</vdop><extensions><gom:speed>0.0</gom:speed></extensions></trkpt>
   <trkpt lat="59.0673826609" lon="29.9673489876"><ele>100.31</ele><time>2026-04-25T10:55:41.000Z</time><hdop>3.25</hdop><vdop>3.25</vdop><extensions><gom:speed>0.0</gom:speed></extensions></trkpt>
   <trkpt lat="59.0673826609" lon="29.9673489876"><ele>100.31</ele><time>2026-04-25T10:55:42.000Z</time><hdop>3.25</hdop><vdop>3.25</vdop><extensions><gom:speed>0.0</gom:speed></extensions></trkpt>
   <trkpt lat="59.0673826609" lon="29.9673489876"><ele>100.31</ele><time>2026-04-25T10:55:43.000Z</time><hdop>3.25</hdop><vdop>3.25</vdop><extensions><gom:speed>0.0</gom:speed></extensions></trkpt>
   <trkpt lat="59.0673826609" lon="29.9673489876"><ele>100.31</ele><time>2026-04-25T10:55:44.000Z</time><hdop>3.25</hdop><vdop>3.25</vdop><extensions><gom:speed>0.0</gom:speed></extensions></trkpt>
   <trkpt lat="59.0673826609" lon="29.9673489876"><ele>100.31</ele><time>2026-04-25T10:55:45.000Z</time><hdop>3.25</hdop><vdop>3.25</vdop><extensions><gom:speed>0.0</gom:speed></extensions></trkpt>
   <trkpt lat="59.0673826609" lon="29.9673489876"><ele>100.31</ele><time>2026-04-25T10:55:46.000Z</time><hdop>3.25</hdop><vdop>3.25</vdop><extensions><gom:speed>0.0</gom:speed></extensions></trkpt>
   <trkpt lat="59.0673826609" lon="29.9673489876"><ele>100.31</ele><time>2026-04-25T10:55:47.000Z</time><hdop>3.25</hdop><vdop>3.25</vdop><extensions><gom:speed>0.0</gom:speed></extensions></trkpt>
   <trkpt lat="59.0673826609" lon="29.9673489876"><ele>100.31</ele><time>2026-04-25T10:55:48.000Z</time><hdop>3.25</hdop><vdop>3.25</vdop><extensions><gom:speed>0.0</gom:speed></extensions></trkpt>
   <trkpt lat="59.0673826609" lon="29.9673489876"><ele>100.31</ele><time>2026-04-25T10:55:49.000Z</time><hdop>3.25</hdop><vdop>3.25</vdop><extensions><gom:speed>0.0</gom:speed></extensions></trkpt>
   <trkpt lat="59.0673826609" lon="29.9673489876"><ele>100.31</ele><time>2026-04-25T10:55:50.000Z</time><hdop>3.25</hdop><vdop>3.25</vdop><extensions><gom:speed>0.0</gom:speed></extensions></trkpt>
   <trkpt lat="59.0673826609" lon="29.9673489876"><ele>100.31</ele><time>2026-04-25T10:55:51.000Z</time><hdop>3.25</hdop><vdop>3.25</vdop><extensions><gom:speed>0.0</gom:speed></extensions></trkpt>
   <trkpt lat="59.0673826609" lon="29.9673489876"><ele>100.31</ele><time>2026-04-25T10:55:52.000Z</time><hdop>3.25</hdop><vdop>3.25</vdop><extensions><gom:speed>0.0</gom:speed></extensions></trkpt>
   <trkpt lat="59.0673826609" lon="29.9673489876"><ele>100.31</ele><time>2026-04-25T10:55:53.000Z</time><hdop>3.25</hdop><vdop>3.25</vdop><extensions><gom:speed>0.0</gom:speed></extensions></trkpt>
   <trkpt lat="59.0673826609" lon="29.9673489876"><ele>100.31</ele><time>2026-04-25T10:55:53.000Z</time><hdop>3.25</hdop><vdop>3.25</vdop><extensions><gom:speed>0.0</gom:speed></extensions></trkpt>
   <trkpt lat="59.0673826609" lon="29.9673489876"><ele>100.31</ele><time>2026-04-25T10:55:54.000Z</time><hdop>3.25</hdop><vdop>3.25</vdop><extensions><gom:speed>0.0</gom:speed></extensions></trkpt>
   <trkpt lat="59.0673826609" lon="29.9673489876"><ele>100.31</ele><time>2026-04-25T10:55:55.000Z</time><hdop>3.25</hdop><vdop>3.25</vdop><extensions><gom:speed>0.0</gom:speed></extensions></trkpt>
   <trkpt lat="59.0673826609" lon="29.9673489876"><ele>100.31</ele><time>2026-04-25T10:55:56.000Z</time><hdop>3.25</hdop><vdop>3.25</vdop><extensions><gom:speed>0.0</gom:speed></extensions></trkpt>
   <trkpt lat="59.0673826609" lon="29.9673489876"><ele>100.31</ele><time>2026-04-25T10:55:57.000Z</time><hdop>3.25</hdop><vdop>3.25</vdop><extensions><gom:speed>0.0</gom:speed></extensions></trkpt>
   <trkpt lat="59.0673826609" lon="29.9673489876"><ele>100.31</ele><time>2026-04-25T10:55:58.000Z</time><hdop>3.25</hdop><vdop>3.25</vdop><extensions><gom:speed>0.0</gom:speed></extensions></trkpt>
   <trkpt lat="59.0673826609" lon="29.9673489876"><ele>100.31</ele><time>2026-04-25T10:55:59.000Z</time><hdop>3.25</hdop><vdop>3.25</vdop><extensions><gom:speed>0.0</gom:speed></extensions></trkpt>
   <trkpt lat="59.0673826609" lon="29.9673489876"><ele>100.31</ele><time>2026-04-25T10:56:00.000Z</time><hdop>3.25</hdop><vdop>3.25</vdop><extensions><gom:speed>0.0</gom:speed></extensions></trkpt>
   <trkpt lat="59.0673826609" lon="29.9673489876"><ele>100.31</ele><time>2026-04-25T10:56:01.000Z</time><hdop>3.25</hdop><vdop>3.25</vdop><extensions><gom:speed>0.0</gom:speed></extensions></trkpt>
   <trkpt lat="59.0673826609" lon="29.9673489876"><ele>100.31</ele><time>2026-04-25T10:56:02.000Z</time><hdop>3.25</hdop><vdop>3.25</vdop><extensions><gom:speed>0.0</gom:speed></extensions></trkpt>
   <trkpt lat="59.0673826609" lon="29.9673489876"><ele>100.31</ele><time>2026-04-25T10:56:03.000Z</time><hdop>3.25</hdop><vdop>3.25</vdop><extensions><gom:speed>0.0</gom:speed></extensions></trkpt>
   <trkpt lat="59.0673826609" lon="29.9673489876"><ele>100.31</ele><time>2026-04-25T10:56:04.000Z</time><hdop>3.25</hdop><vdop>3.25</vdop><extensions><gom:speed>0.0</gom:speed></extensions></trkpt>
   <trkpt lat="59.0673826609" lon="29.9673489876"><ele>100.31</ele><time>2026-04-25T10:56:05.000Z</time><hdop>3.25</hdop><vdop>3.25</vdop><extensions><gom:speed>0.0</gom:speed></extensions></trkpt>
   <trkpt lat="59.0673826609" lon="29.9673489876"><ele>100.31</ele><time>2026-04-25T10:56:06.000Z</time><hdop>3.25</hdop><vdop>3.25</vdop><extensions><gom:speed>0.0</gom:speed></extensions></trkpt>
   <trkpt lat="59.0673826609" lon="29.9673489876"><ele>100.31</ele><time>2026-04-25T10:56:07.000Z</time><hdop>3.25</hdop><vdop>3.25</vdop><extensions><gom:speed>0.0</gom:speed></extensions></trkpt>
   <trkpt lat="59.0673826609" lon="29.9673489876"><ele>100.31</ele><time>2026-04-25T10:56:08.000Z</time><hdop>3.25</hdop><vdop>3.25</vdop><extensions><gom:speed>0.0</gom:speed></extensions></trkpt>
   <trkpt lat="59.0673826609" lon="29.9673489876"><ele>100.31</ele><time>2026-04-25T10:56:09.000Z</time><hdop>3.25</hdop><vdop>3.25</vdop><extensions><gom:speed>0.0</gom:speed></extensions></trkpt>
   <trkpt lat="59.0673826609" lon="29.9673489876"><ele>100.31</ele><time>2026-04-25T10:56:10.000Z</time><hdop>3.25</hdop><vdop>3.25</vdop><extensions><gom:speed>0.0</gom:speed></extensions></trkpt>
   <trkpt lat="59.0673826609" lon="29.9673489876"><ele>100.31</ele><time>2026-04-25T10:56:11.000Z</time><hdop>3.25</hdop><vdop>3.25</vdop><extensions><gom:speed>0.0</gom:speed></extensions></trkpt>
   <trkpt lat="59.0673826609" lon="29.9673489876"><ele>100.31</ele><time>2026-04-25T10:56:12.000Z</time><hdop>3.25</hdop><vdop>3.25</vdop><extensions><gom:speed>0.0</gom:speed></extensions></trkpt>
   <trkpt lat="59.0673826609" lon="29.9673489876"><ele>100.31</ele><time>2026-04-25T10:56:13.000Z</time><hdop>3.25</hdop><vdop>3.25</vdop><extensions><gom:speed>0.0</gom:speed></extensions></trkpt>
   <trkpt lat="59.0673826609" lon="29.9673489876"><ele>100.31</ele><time>2026-04-25T10:56:13.000Z</time><hdop>3.25</hdop><vdop>3.25</vdop><extensions><gom:speed>0.0</gom:speed></extensions></trkpt>
   <trkpt lat="59.0673826609" lon="29.9673489876"><ele>100.31</ele><time>2026-04-25T10:56:14.000Z</time><hdop>3.25</hdop><vdop>3.25</vdop><extensions><gom:speed>0.0</gom:speed></extensions></trkpt>
   <trkpt lat="59.0673826609" lon="29.9673489876"><ele>100.31</ele><time>2026-04-25T10:56:15.000Z</time><hdop>3.25</hdop><vdop>3.25</vdop><extensions><gom:speed>0.0</gom:speed></extensions></trkpt>
   <trkpt lat="59.0673826609" lon="29.9673489876"><ele>100.31</ele><time>2026-04-25T10:56:16.000Z</time><hdop>3.25</hdop><vdop>3.25</vdop><extensions><gom:speed>0.0</gom:speed></extensions></trkpt>
   <trkpt lat="59.0673826609" lon="29.9673489876"><ele>100.31</ele><time>2026-04-25T10:56:17.000Z</time><hdop>3.25</hdop><vdop>3.25</vdop><extensions><gom:speed>0.0</gom:speed></extensions></trkpt>
   <trkpt lat="59.0673826609" lon="29.9673489876"><ele>100.31</ele><time>2026-04-25T10:56:18.000Z</time><hdop>3.25</hdop><vdop>3.25</vdop><extensions><gom:speed>0.0</gom:speed></extensions></trkpt>
   <trkpt lat="59.0673826609" lon="29.9673489876"><ele>100.31</ele><time>2026-04-25T10:56:19.000Z</time><hdop>3.25</hdop><vdop>3.25</vdop><extensions><gom:speed>0.0</gom:speed></extensions></trkpt>
   <trkpt lat="59.0673826609" lon="29.9673489876"><ele>100.31</ele><time>2026-04-25T10:56:20.000Z</time><hdop>3.25</hdop><vdop>3.25</vdop><extensions><gom:speed>0.0</gom:speed></extensions></trkpt>
   <trkpt lat="59.0673826609" lon="29.9673489876"><ele>100.31</ele><time>2026-04-25T10:56:21.000Z</time><hdop>3.25</hdop><vdop>3.25</vdop><extensions><gom:speed>0.0</gom:speed></extensions></trkpt>
   <trkpt lat="59.0673826609" lon="29.9673489876"><ele>100.31</ele><time>2026-04-25T10:56:22.000Z</time><hdop>3.25</hdop><vdop>3.25</vdop><extensions><gom:speed>0.0</gom:speed></extensions></trkpt>
   <trkpt lat="59.0673826609" lon="29.9673489876"><ele>100.31</ele><time>2026-04-25T10:56:23.000Z</time><hdop>3.25</hdop><vdop>3.25</vdop><extensions><gom:speed>0.0</gom:speed></extensions></trkpt>
   <trkpt lat="59.0673826609" lon="29.9673489876"><ele>100.31</ele><time>2026-04-25T10:56:24.000Z</time><hdop>3.25</hdop><vdop>3.25</vdop><extensions><gom:speed>0.0</gom:speed></extensions></trkpt>
   <trkpt lat="59.0673826609" lon="29.9673489876"><ele>100.31</ele><time>2026-04-25T10:56:25.000Z</time><hdop>3.25</hdop><vdop>3.25</vdop><extensions><gom:speed>0.0</gom:speed></extensions></trkpt>
   <trkpt lat="59.0673826609" lon="29.9673489876"><ele>100.31</ele><time>2026-04-25T10:56:26.000Z</time><hdop>3.25</hdop><vdop>3.25</vdop><extensions><gom:speed>0.0</gom:speed></extensions></trkpt>
   <trkpt lat="59.0673826609" lon="29.9673489876"><ele>100.31</ele><time>2026-04-25T10:56:27.000Z</time><hdop>3.25</hdop><vdop>3.25</vdop><extensions><gom:speed>0.0</gom:speed></extensions></trkpt>
   <trkpt lat="59.0673826609" lon="29.9673489876"><ele>100.31</ele><time>2026-04-25T10:56:28.000Z</time><hdop>3.25</hdop><vdop>3.25</vdop><extensions><gom:speed>0.0</gom:speed></extensions></trkpt>
   <trkpt lat="59.0673826609" lon="29.9673489876"><ele>100.31</ele><time>2026-04-25T10:56:29.000Z</time><hdop>3.25</hdop><vdop>3.25</vdop><extensions><gom:speed>0.0</gom:speed></extensions></trkpt>
   <trkpt lat="59.0673826609" lon="29.9673489876"><ele>100.31</ele><time>2026-04-25T10:56:30.000Z</time><hdop>3.25</hdop><vdop>3.25</vdop><extensions><gom:speed>0.0</gom:speed></extensions></trkpt>
   <trkpt lat="59.0673826609" lon="29.9673489876"><ele>100.31</ele><time>2026-04-25T10:56:31.000Z</time><hdop>3.25</hdop><vdop>3.25</vdop><extensions><gom:speed>0.0</gom:speed></extensions></trkpt>
   <trkpt lat="59.0673826609" lon="29.9673489876"><ele>100.31</ele><time>2026-04-25T10:56:32.000Z</time><hdop>3.25</hdop><vdop>3.25</vdop><extensions><gom:speed>0.0</gom:speed></extensions></trkpt>
   <trkpt lat="59.0673826609" lon="29.9673489876"><ele>100.31</ele><time>2026-04-25T10:56:33.000Z</time><hdop>3.25</hdop><vdop>3.25</vdop><extensions><gom:speed>0.0</gom:speed></extensions></trkpt>
   <trkpt lat="59.0673826609" lon="29.9673489876"><ele>100.31</ele><time>2026-04-25T10:56:33.000Z</time><hdop>3.25</hdop><vdop>3.25</vdop><extensions><gom:speed>0.0</gom:speed></extensions></trkpt>
   <trkpt lat="59.0673826609" lon="29.9673489876"><ele>100.31</ele><time>2026-04-25T10:56:34.000Z</time><hdop>3.25</hdop><vdop>3.25</vdop><extensions><gom:speed>0.0</gom:speed></extensions></trkpt>
   <trkpt lat="59.0673826609" lon="29.9673489876"><ele>100.31</ele><time>2026-04-25T10:56:35.000Z</time><hdop>3.25</hdop><vdop>3.25</vdop><extensions><gom:speed>0.0</gom:speed></extensions></trkpt>
   <trkpt lat="59.0673826609" lon="29.9673489876"><ele>100.31</ele><time>2026-04-25T10:56:36.000Z</time><hdop>3.25</hdop><vdop>3.25</vdop><extensions><gom:speed>0.0</gom:speed></extensions></trkpt>
   <trkpt lat="59.0673826609" lon="29.9673489876"><ele>100.31</ele><time>2026-04-25T10:56:37.000Z</time><hdop>3.25</hdop><vdop>3.25</vdop><extensions><gom:speed>0.0</gom:speed></extensions></trkpt>
   <trkpt lat="59.0673826609" lon="29.9673489876"><ele>100.31</ele><time>2026-04-25T10:56:38.000Z</time><hdop>3.25</hdop><vdop>3.25</vdop><extensions><gom:speed>0.0</gom:speed></extensions></trkpt>
   <trkpt lat="59.0673826609" lon="29.9673489876"><ele>100.31</ele><time>2026-04-25T10:56:39.000Z</time><hdop>3.25</hdop><vdop>3.25</vdop><extensions><gom:speed>0.0</gom:speed></extensions></trkpt>
   <trkpt lat="59.0673826609" lon="29.9673489876"><ele>100.31</ele><time>2026-04-25T10:56:40.000Z</time><hdop>3.25</hdop><vdop>3.25</vdop><extensions><gom:speed>0.0</gom:speed></extensions></trkpt>
   <trkpt lat="59.0673826609" lon="29.9673489876"><ele>100.31</ele><time>2026-04-25T10:56:41.000Z</time><hdop>3.25</hdop><vdop>3.25</vdop><extensions><gom:speed>0.0</gom:speed></extensions></trkpt>
   <trkpt lat="59.0673826609" lon="29.9673489876"><ele>100.31</ele><time>2026-04-25T10:56:42.000Z</time><hdop>3.25</hdop><vdop>3.25</vdop><extensions><gom:speed>0.0</gom:speed></extensions></trkpt>
   <trkpt lat="59.0673826609" lon="29.9673489876"><ele>100.31</ele><time>2026-04-25T10:56:43.000Z</time><hdop>3.25</hdop><vdop>3.25</vdop><extensions><gom:speed>0.0</gom:speed></extensions></trkpt>
   <trkpt lat="59.0673826609" lon="29.9673489876"><ele>100.31</ele><time>2026-04-25T10:56:43.000Z</time><hdop>3.25</hdop><vdop>3.25</vdop><extensions><gom:speed>0.0</gom:speed></extensions></trkpt>
   <trkpt lat="59.0673826609" lon="29.9673489876"><ele>100.31</ele><time>2026-04-25T10:56:44.000Z</time><hdop>3.25</hdop><vdop>3.25</vdop><extensions><gom:speed>0.0</gom:speed></extensions></trkpt>
   <trkpt lat="59.0673826609" lon="29.9673489876"><ele>100.31</ele><time>2026-04-25T10:56:45.000Z</time><hdop>3.25</hdop><vdop>3.25</vdop><extensions><gom:speed>0.0</gom:speed></extensions></trkpt>
   <trkpt lat="59.0673826609" lon="29.9673489876"><ele>100.31</ele><time>2026-04-25T10:56:46.000Z</time><hdop>3.25</hdop><vdop>3.25</vdop><extensions><gom:speed>0.0</gom:speed></extensions></trkpt>
   <trkpt lat="59.0673826609" lon="29.9673489876"><ele>100.31</ele><time>2026-04-25T10:56:47.000Z</time><hdop>3.25</hdop><vdop>3.25</vdop><extensions><gom:speed>0.0</gom:speed></extensions></trkpt>
   <trkpt lat="59.0673826609" lon="29.9673489876"><ele>100.31</ele><time>2026-04-25T10:56:48.000Z</time><hdop>3.25</hdop><vdop>3.25</vdop><extensions><gom:speed>0.0</gom:speed></extensions></trkpt>
   <trkpt lat="59.0673826609" lon="29.9673489876"><ele>100.31</ele><time>2026-04-25T10:56:49.000Z</time><hdop>3.25</hdop><vdop>3.25</vdop><extensions><gom:speed>0.0</gom:speed></extensions></trkpt>
   <trkpt lat="59.0673826609" lon="29.9673489876"><ele>100.31</ele><time>2026-04-25T10:56:50.000Z</time><hdop>3.25</hdop><vdop>3.25</vdop><extensions><gom:speed>0.0</gom:speed></extensions></trkpt>
   <trkpt lat="59.0673826609" lon="29.9673489876"><ele>100.31</ele><time>2026-04-25T10:56:51.000Z</time><hdop>3.25</hdop><vdop>3.25</vdop><extensions><gom:speed>0.0</gom:speed></extensions></trkpt>
   <trkpt lat="59.0673826609" lon="29.9673489876"><ele>100.31</ele><time>2026-04-25T10:56:52.000Z</time><hdop>3.25</hdop><vdop>3.25</vdop><extensions><gom:speed>0.0</gom:speed></extensions></trkpt>
   <trkpt lat="59.0673826609" lon="29.9673489876"><ele>100.31</ele><time>2026-04-25T10:56:53.000Z</time><hdop>3.25</hdop><vdop>3.25</vdop><extensions><gom:speed>0.0</gom:speed></extensions></trkpt>
   <trkpt lat="59.0673826609" lon="29.9673489876"><ele>100.31</ele><time>2026-04-25T10:56:53.000Z</time><hdop>3.25</hdop><vdop>3.25</vdop><extensions><gom:speed>0.0</gom:speed></extensions></trkpt>
   <trkpt lat="59.0673826609" lon="29.9673489876"><ele>100.31</ele><time>2026-04-25T10:56:54.000Z</time><hdop>3.25</hdop><vdop>3.25</vdop><extensions><gom:speed>0.0</gom:speed></extensions></trkpt>
   <trkpt lat="59.0673826609" lon="29.9673489876"><ele>100.31</ele><time>2026-04-25T10:56:55.000Z</time><hdop>3.25</hdop><vdop>3.25</vdop><extensions><gom:speed>0.0</gom:speed></extensions></trkpt>
   <trkpt lat="59.0673826609" lon="29.9673489876"><ele>100.31</ele><time>2026-04-25T10:56:56.000Z</time><hdop>3.25</hdop><vdop>3.25</vdop><extensions><gom:speed>0.0</gom:speed></extensions></trkpt>
   <trkpt lat="59.0673826609" lon="29.9673489876"><ele>100.31</ele><time>2026-04-25T10:56:57.000Z</time><hdop>3.25</hdop><vdop>3.25</vdop><extensions><gom:speed>0.0</gom:speed></extensions></trkpt>
   <trkpt lat="59.0673826609" lon="29.9673489876"><ele>100.31</ele><time>2026-04-25T10:56:58.000Z</time><hdop>3.25</hdop><vdop>3.25</vdop><extensions><gom:speed>0.0</gom:speed></extensions></trkpt>
   <trkpt lat="59.0673826609" lon="29.9673489876"><ele>100.31</ele><time>2026-04-25T10:56:59.000Z</time><hdop>3.25</hdop><vdop>3.25</vdop><extensions><gom:speed>0.0</gom:speed></extensions></trkpt>
   <trkpt lat="59.0673826609" lon="29.9673489876"><ele>100.31</ele><time>2026-04-25T10:57:00.000Z</time><hdop>3.25</hdop><vdop>3.25</vdop><extensions><gom:speed>0.0</gom:speed></extensions></trkpt>
   <trkpt lat="59.0673826609" lon="29.9673489876"><ele>100.31</ele><time>2026-04-25T10:57:01.000Z</time><hdop>3.25</hdop><vdop>3.25</vdop><extensions><gom:speed>0.0</gom:speed></extensions></trkpt>
   <trkpt lat="59.0673826609" lon="29.9673489876"><ele>100.31</ele><time>2026-04-25T10:57:02.000Z</time><hdop>3.25</hdop><vdop>3.25</vdop><extensions><gom:speed>0.0</gom:speed></extensions></trkpt>
   <trkpt lat="59.0673826609" lon="29.9673489876"><ele>100.31</ele><time>2026-04-25T10:57:03.000Z</time><hdop>3.25</hdop><vdop>3.25</vdop><extensions><gom:speed>0.0</gom:speed></extensions></trkpt>
   <trkpt lat="59.0673826609" lon="29.9673489876"><ele>100.31</ele><time>2026-04-25T10:57:04.000Z</time><hdop>3.25</hdop><vdop>3.25</vdop><extensions><gom:speed>0.0</gom:speed></extensions></trkpt>
   <trkpt lat="59.0673826609" lon="29.9673489876"><ele>100.31</ele><time>2026-04-25T10:57:05.000Z</time><hdop>3.25</hdop><vdop>3.25</vdop><extensions><gom:speed>0.0</gom:speed></extensions></trkpt>
   <trkpt lat="59.0673826609" lon="29.9673489876"><ele>100.31</ele><time>2026-04-25T10:57:06.000Z</time><hdop>3.25</hdop><vdop>3.25</vdop><extensions><gom:speed>0.0</gom:speed></extensions></trkpt>
   <trkpt lat="59.0673826609" lon="29.9673489876"><ele>100.31</ele><time>2026-04-25T10:57:07.000Z</time><hdop>3.25</hdop><vdop>3.25</vdop><extensions><gom:speed>0.0</gom:speed></extensions></trkpt>
   <trkpt lat="59.0673826609" lon="29.9673489876"><ele>100.31</ele><time>2026-04-25T10:57:08.000Z</time><hdop>3.25</hdop><vdop>3.25</vdop><extensions><gom:speed>0.0</gom:speed></extensions></trkpt>
   <trkpt lat="59.0673826609" lon="29.9673489876"><ele>100.31</ele><time>2026-04-25T10:57:09.000Z</time><hdop>3.25</hdop><vdop>3.25</vdop><extensions><gom:speed>0.0</gom:speed></extensions></trkpt>
   <trkpt lat="59.0673826609" lon="29.9673489876"><ele>100.31</ele><time>2026-04-25T10:57:10.000Z</time><hdop>3.25</hdop><vdop>3.25</vdop><extensions><gom:speed>0.0</gom:speed></extensions></trkpt>
   <trkpt lat="59.0673826609" lon="29.9673489876"><ele>100.31</ele><time>2026-04-25T10:57:11.000Z</time><hdop>3.25</hdop><vdop>3.25</vdop><extensions><gom:speed>0.0</gom:speed></extensions></trkpt>
   <trkpt lat="59.0673826609" lon="29.9673489876"><ele>100.31</ele><time>2026-04-25T10:57:12.000Z</time><hdop>3.25</hdop><vdop>3.25</vdop><extensions><gom:speed>0.0</gom:speed></extensions></trkpt>
   <trkpt lat="59.0673826609" lon="29.9673489876"><ele>100.31</ele><time>2026-04-25T10:57:13.000Z</time><hdop>3.25</hdop><vdop>3.25</vdop><extensions><gom:speed>0.0</gom:speed></extensions></trkpt>
   <trkpt lat="59.0673826609" lon="29.9673489876"><ele>100.31</ele><time>2026-04-25T10:57:13.000Z</time><hdop>3.25</hdop><vdop>3.25</vdop><extensions><gom:speed>0.0</gom:speed></extensions></trkpt>
   <trkpt lat="59.0673826609" lon="29.9673489876"><ele>100.31</ele><time>2026-04-25T10:57:14.000Z</time><hdop>3.25</hdop><vdop>3.25</vdop><extensions><gom:speed>0.0</gom:speed></extensions></trkpt>
   <trkpt lat="59.0673826609" lon="29.9673489876"><ele>100.31</ele><time>2026-04-25T10:57:15.000Z</time><hdop>3.25</hdop><vdop>3.25</vdop><extensions><gom:speed>0.0</gom:speed></extensions></trkpt>
   <trkpt lat="59.0673826609" lon="29.9673489876"><ele>100.31</ele><time>2026-04-25T10:57:16.000Z</time><hdop>3.25</hdop><vdop>3.25</vdop><extensions><gom:speed>0.0</gom:speed></extensions></trkpt>
   <trkpt lat="59.0673826609" lon="29.9673489876"><ele>100.31</ele><time>2026-04-25T10:57:17.000Z</time><hdop>3.25</hdop><vdop>3.25</vdop><extensions><gom:speed>0.0</gom:speed></extensions></trkpt>
   <trkpt lat="59.0673826609" lon="29.9673489876"><ele>100.31</ele><time>2026-04-25T10:57:18.000Z</time><hdop>3.25</hdop><vdop>3.25</vdop><extensions><gom:speed>0.0</gom:speed></extensions></trkpt>
   <trkpt lat="59.0673826609" lon="29.9673489876"><ele>100.31</ele><time>2026-04-25T10:57:19.000Z</time><hdop>3.25</hdop><vdop>3.25</vdop><extensions><gom:speed>0.0</gom:speed></extensions></trkpt>
   <trkpt lat="59.0673826609" lon="29.9673489876"><ele>100.31</ele><time>2026-04-25T10:57:20.000Z</time><hdop>3.25</hdop><vdop>3.25</vdop><extensions><gom:speed>0.0</gom:speed></extensions></trkpt>
   <trkpt lat="59.0673826609" lon="29.9673489876"><ele>100.31</ele><time>2026-04-25T10:57:21.000Z</time><hdop>3.25</hdop><vdop>3.25</vdop><extensions><gom:speed>0.0</gom:speed></extensions></trkpt>
   <trkpt lat="59.0673826609" lon="29.9673489876"><ele>100.31</ele><time>2026-04-25T10:57:22.000Z</time><hdop>3.25</hdop><vdop>3.25</vdop><extensions><gom:speed>0.0</gom:speed></extensions></trkpt>
   <trkpt lat="59.0673826609" lon="29.9673489876"><ele>100.31</ele><time>2026-04-25T10:57:23.000Z</time><hdop>3.25</hdop><vdop>3.25</vdop><extensions><gom:speed>0.0</gom:speed></extensions></trkpt>
   <trkpt lat="59.0673826609" lon="29.9673489876"><ele>100.31</ele><time>2026-04-25T10:57:24.000Z</time><hdop>3.25</hdop><vdop>3.25</vdop><extensions><gom:speed>0.0</gom:speed></extensions></trkpt>
   <trkpt lat="59.0673826609" lon="29.9673489876"><ele>100.31</ele><time>2026-04-25T10:57:25.000Z</time><hdop>3.25</hdop><vdop>3.25</vdop><extensions><gom:speed>0.0</gom:speed></extensions></trkpt>
   <trkpt lat="59.0673826609" lon="29.9673489876"><ele>100.31</ele><time>2026-04-25T10:57:26.000Z</time><hdop>3.25</hdop><vdop>3.25</vdop><extensions><gom:speed>0.0</gom:speed></extensions></trkpt>
   <trkpt lat="59.0673826609" lon="29.9673489876"><ele>100.31</ele><time>2026-04-25T10:57:27.000Z</time><hdop>3.25</hdop><vdop>3.25</vdop><extensions><gom:speed>0.0</gom:speed></extensions></trkpt>
   <trkpt lat="59.0673826609" lon="29.9673489876"><ele>100.31</ele><time>2026-04-25T10:57:28.000Z</time><hdop>3.25</hdop><vdop>3.25</vdop><extensions><gom:speed>0.0</gom:speed></extensions></trkpt>
   <trkpt lat="59.0673826609" lon="29.9673489876"><ele>100.31</ele><time>2026-04-25T10:57:29.000Z</time><hdop>3.25</hdop><vdop>3.25</vdop><extensions><gom:speed>0.0</gom:speed></extensions></trkpt>
   <trkpt lat="59.0673826609" lon="29.9673489876"><ele>100.31</ele><time>2026-04-25T10:57:30.000Z</time><hdop>3.25</hdop><vdop>3.25</vdop><extensions><gom:speed>0.0</gom:speed></extensions></trkpt>
   <trkpt lat="59.0673826609" lon="29.9673489876"><ele>100.31</ele><time>2026-04-25T10:57:31.000Z</time><hdop>3.25</hdop><vdop>3.25</vdop><extensions><gom:speed>0.0</gom:speed></extensions></trkpt>
   <trkpt lat="59.0673826609" lon="29.9673489876"><ele>100.31</ele><time>2026-04-25T10:57:32.000Z</time><hdop>3.25</hdop><vdop>3.25</vdop><extensions><gom:speed>0.0</gom:speed></extensions></trkpt>
   <trkpt lat="59.0673826609" lon="29.9673489876"><ele>100.31</ele><time>2026-04-25T10:57:33.000Z</time><hdop>3.25</hdop><vdop>3.25</vdop><extensions><gom:speed>0.0</gom:speed></extensions></trkpt>
   <trkpt lat="59.0673826609" lon="29.9673489876"><ele>100.31</ele><time>2026-04-25T10:57:33.000Z</time><hdop>3.25</hdop><vdop>3.25</vdop><extensions><gom:speed>0.0</gom:speed></extensions></trkpt>
   <trkpt lat="59.0673826609" lon="29.9673489876"><ele>100.31</ele><time>2026-04-25T10:57:34.000Z</time><hdop>3.25</hdop><vdop>3.25</vdop><extensions><gom:speed>0.0</gom:speed></extensions></trkpt>
   <trkpt lat="59.0673826609" lon="29.9673489876"><ele>100.31</ele><time>2026-04-25T10:57:35.000Z</time><hdop>3.25</hdop><vdop>3.25</vdop><extensions><gom:speed>0.0</gom:speed></extensions></trkpt>
   <trkpt lat="59.0673826609" lon="29.9673489876"><ele>100.31</ele><time>2026-04-25T10:57:36.000Z</time><hdop>3.25</hdop><vdop>3.25</vdop><extensions><gom:speed>0.0</gom:speed></extensions></trkpt>
   <trkpt lat="59.0673826609" lon="29.9673489876"><ele>100.31</ele><time>2026-04-25T10:57:37.000Z</time><hdop>3.25</hdop><vdop>3.25</vdop><extensions><gom:speed>0.0</gom:speed></extensions></trkpt>
   <trkpt lat="59.0673826609" lon="29.9673489876"><ele>100.31</ele><time>2026-04-25T10:57:38.000Z</time><hdop>3.25</hdop><vdop>3.25</vdop><extensions><gom:speed>0.0</gom:speed></extensions></trkpt>
   <trkpt lat="59.0673826609" lon="29.9673489876"><ele>100.31</ele><time>2026-04-25T10:57:39.000Z</time><hdop>3.25</hdop><vdop>3.25</vdop><extensions><gom:speed>0.0</gom:speed></extensions></trkpt>
   <trkpt lat="59.0673826609" lon="29.9673489876"><ele>100.31</ele><time>2026-04-25T10:57:40.000Z</time><hdop>3.25</hdop><vdop>3.25</vdop><extensions><gom:speed>0.0</gom:speed></extensions></trkpt>
   <trkpt lat="59.0673826609" lon="29.9673489876"><ele>100.31</ele><time>2026-04-25T10:57:41.000Z</time><hdop>3.25</hdop><vdop>3.25</vdop><extensions><gom:speed>0.0</gom:speed></extensions></trkpt>
   <trkpt lat="59.0673826609" lon="29.9673489876"><ele>100.31</ele><time>2026-04-25T10:57:42.000Z</time><hdop>3.25</hdop><vdop>3.25</vdop><extensions><gom:speed>0.0</gom:speed></extensions></trkpt>
   <trkpt lat="59.0673826609" lon="29.9673489876"><ele>100.31</ele><time>2026-04-25T10:57:43.000Z</time><hdop>3.25</hdop><vdop>3.25</vdop><extensions><gom:speed>0.0</gom:speed></extensions></trkpt>
   <trkpt lat="59.0673826609" lon="29.9673489876"><ele>100.31</ele><time>2026-04-25T10:57:44.000Z</time><hdop>3.25</hdop><vdop>3.25</vdop><extensions><gom:speed>0.0</gom:speed></extensions></trkpt>
   <trkpt lat="59.0673826609" lon="29.9673489876"><ele>100.31</ele><time>2026-04-25T10:57:45.000Z</time><hdop>3.25</hdop><vdop>3.25</vdop><extensions><gom:speed>0.0</gom:speed></extensions></trkpt>
   <trkpt lat="59.0673826609" lon="29.9673489876"><ele>100.31</ele><time>2026-04-25T10:57:46.000Z</time><hdop>3.25</hdop><vdop>3.25</vdop><extensions><gom:speed>0.0</gom:speed></extensions></trkpt>
   <trkpt lat="59.0673826609" lon="29.9673489876"><ele>100.31</ele><time>2026-04-25T10:57:47.000Z</time><hdop>3.25</hdop><vdop>3.25</vdop><extensions><gom:speed>0.0</gom:speed></extensions></trkpt>
   <trkpt lat="59.0673826609" lon="29.9673489876"><ele>100.31</ele><time>2026-04-25T10:57:48.000Z</time><hdop>3.25</hdop><vdop>3.25</vdop><extensions><gom:speed>0.0</gom:speed></extensions></trkpt>
   <trkpt lat="59.0673826609" lon="29.9673489876"><ele>100.31</ele><time>2026-04-25T10:57:49.000Z</time><hdop>3.25</hdop><vdop>3.25</vdop><extensions><gom:speed>0.0</gom:speed></extensions></trkpt>
   <trkpt lat="59.0673826609" lon="29.9673489876"><ele>100.31</ele><time>2026-04-25T10:57:50.000Z</time><hdop>3.25</hdop><vdop>3.25</vdop><extensions><gom:speed>0.0</gom:speed></extensions></trkpt>
   <trkpt lat="59.0673826609" lon="29.9673489876"><ele>100.31</ele><time>2026-04-25T10:57:51.000Z</time><hdop>3.25</hdop><vdop>3.25</vdop><extensions><gom:speed>0.0</gom:speed></extensions></trkpt>
   <trkpt lat="59.0673826609" lon="29.9673489876"><ele>100.31</ele><time>2026-04-25T10:57:52.000Z</time><hdop>3.25</hdop><vdop>3.25</vdop><extensions><gom:speed>0.0</gom:speed></extensions></trkpt>
   <trkpt lat="59.0673826609" lon="29.9673489876"><ele>100.31</ele><time>2026-04-25T10:57:53.000Z</time><hdop>3.25</hdop><vdop>3.25</vdop><extensions><gom:speed>0.0</gom:speed></extensions></trkpt>
   <trkpt lat="59.0673826609" lon="29.9673489876"><ele>100.31</ele><time>2026-04-25T10:57:53.000Z</time><hdop>3.25</hdop><vdop>3.25</vdop><extensions><gom:speed>0.0</gom:speed></extensions></trkpt>
   <trkpt lat="59.0673826609" lon="29.9673489876"><ele>100.31</ele><time>2026-04-25T10:57:54.000Z</time><hdop>3.25</hdop><vdop>3.25</vdop><extensions><gom:speed>0.0</gom:speed></extensions></trkpt>
   <trkpt lat="59.0673826609" lon="29.9673489876"><ele>100.31</ele><time>2026-04-25T10:57:55.000Z</time><hdop>3.25</hdop><vdop>3.25</vdop><extensions><gom:speed>0.0</gom:speed></extensions></trkpt>
   <trkpt lat="59.0673826609" lon="29.9673489876"><ele>100.31</ele><time>2026-04-25T10:57:56.000Z</time><hdop>3.25</hdop><vdop>3.25</vdop><extensions><gom:speed>0.0</gom:speed></extensions></trkpt>
   <trkpt lat="59.0673826609" lon="29.9673489876"><ele>100.31</ele><time>2026-04-25T10:57:57.000Z</time><hdop>3.25</hdop><vdop>3.25</vdop><extensions><gom:speed>0.0</gom:speed></extensions></trkpt>
   <trkpt lat="59.0673826609" lon="29.9673489876"><ele>100.31</ele><time>2026-04-25T10:57:58.000Z</time><hdop>3.25</hdop><vdop>3.25</vdop><extensions><gom:speed>0.0</gom:speed></extensions></trkpt>
   <trkpt lat="59.0673826609" lon="29.9673489876"><ele>100.31</ele><time>2026-04-25T10:57:59.000Z</time><hdop>3.25</hdop><vdop>3.25</vdop><extensions><gom:speed>0.0</gom:speed></extensions></trkpt>
   <trkpt lat="59.0673826609" lon="29.9673489876"><ele>100.31</ele><time>2026-04-25T10:58:00.000Z</time><hdop>3.25</hdop><vdop>3.25</vdop><extensions><gom:speed>0.0</gom:speed></extensions></trkpt>
   <trkpt lat="59.0673826609" lon="29.9673489876"><ele>100.31</ele><time>2026-04-25T10:58:01.000Z</time><hdop>3.25</hdop><vdop>3.25</vdop><extensions><gom:speed>0.0</gom:speed></extensions></trkpt>
   <trkpt lat="59.0673826609" lon="29.9673489876"><ele>100.31</ele><time>2026-04-25T10:58:02.000Z</time><hdop>3.25</hdop><vdop>3.25</vdop><extensions><gom:speed>0.0</gom:speed></extensions></trkpt>
   <trkpt lat="59.0673826609" lon="29.9673489876"><ele>100.31</ele><time>2026-04-25T10:58:03.000Z</time><hdop>3.25</hdop><vdop>3.25</vdop><extensions><gom:speed>0.0</gom:speed></extensions></trkpt>
   <trkpt lat="59.0673826609" lon="29.9673489876"><ele>100.31</ele><time>2026-04-25T10:58:04.000Z</time><hdop>3.25</hdop><vdop>3.25</vdop><extensions><gom:speed>0.0</gom:speed></extensions></trkpt>
   <trkpt lat="59.0673826609" lon="29.9673489876"><ele>100.31</ele><time>2026-04-25T10:58:05.000Z</time><hdop>3.25</hdop><vdop>3.25</vdop><extensions><gom:speed>0.0</gom:speed></extensions></trkpt>
   <trkpt lat="59.0673826609" lon="29.9673489876"><ele>100.31</ele><time>2026-04-25T10:58:06.000Z</time><hdop>3.25</hdop><vdop>3.25</vdop><extensions><gom:speed>0.0</gom:speed></extensions></trkpt>
   <trkpt lat="59.0673826609" lon="29.9673489876"><ele>100.31</ele><time>2026-04-25T10:58:07.000Z</time><hdop>3.25</hdop><vdop>3.25</vdop><extensions><gom:speed>0.0</gom:speed></extensions></trkpt>
   <trkpt lat="59.0673826609" lon="29.9673489876"><ele>100.31</ele><time>2026-04-25T10:58:08.000Z</time><hdop>3.25</hdop><vdop>3.25</vdop><extensions><gom:speed>0.0</gom:speed></extensions></trkpt>
   <trkpt lat="59.0673826609" lon="29.9673489876"><ele>100.31</ele><time>2026-04-25T10:58:09.000Z</time><hdop>3.25</hdop><vdop>3.25</vdop><extensions><gom:speed>0.0</gom:speed></extensions></trkpt>
   <trkpt lat="59.0673826609" lon="29.9673489876"><ele>100.31</ele><time>2026-04-25T10:58:10.000Z</time><hdop>3.25</hdop><vdop>3.25</vdop><extensions><gom:speed>0.0</gom:speed></extensions></trkpt>
   <trkpt lat="59.0673826609" lon="29.9673489876"><ele>100.31</ele><time>2026-04-25T10:58:11.000Z</time><hdop>3.25</hdop><vdop>3.25</vdop><extensions><gom:speed>0.0</gom:speed></extensions></trkpt>
   <trkpt lat="59.0673826609" lon="29.9673489876"><ele>100.31</ele><time>2026-04-25T10:58:12.000Z</time><hdop>3.25</hdop><vdop>3.25</vdop><extensions><gom:speed>0.0</gom:speed></extensions></trkpt>
   <trkpt lat="59.0673826609" lon="29.9673489876"><ele>100.31</ele><time>2026-04-25T10:58:13.000Z</time><hdop>3.25</hdop><vdop>3.25</vdop><extensions><gom:speed>0.0</gom:speed></extensions></trkpt>
   <trkpt lat="59.0673826609" lon="29.9673489876"><ele>100.31</ele><time>2026-04-25T10:58:13.000Z</time><hdop>3.25</hdop><vdop>3.25</vdop><extensions><gom:speed>0.0</gom:speed></extensions></trkpt>
   <trkpt lat="59.0673826609" lon="29.9673489876"><ele>100.31</ele><time>2026-04-25T10:58:14.000Z</time><hdop>3.25</hdop><vdop>3.25</vdop><extensions><gom:speed>0.0</gom:speed></extensions></trkpt>
   <trkpt lat="59.0673826609" lon="29.9673489876"><ele>100.31</ele><time>2026-04-25T10:58:15.000Z</time><hdop>3.25</hdop><vdop>3.25</vdop><extensions><gom:speed>0.0</gom:speed></extensions></trkpt>
   <trkpt lat="59.0673826609" lon="29.9673489876"><ele>100.31</ele><time>2026-04-25T10:58:16.000Z</time><hdop>3.25</hdop><vdop>3.25</vdop><extensions><gom:speed>0.0</gom:speed></extensions></trkpt>
   <trkpt lat="59.0673826609" lon="29.9673489876"><ele>100.31</ele><time>2026-04-25T10:58:17.000Z</time><hdop>3.25</hdop><vdop>3.25</vdop><extensions><gom:speed>0.0</gom:speed></extensions></trkpt>
   <trkpt lat="59.0673826609" lon="29.9673489876"><ele>100.31</ele><time>2026-04-25T10:58:18.000Z</time><hdop>3.25</hdop><vdop>3.25</vdop><extensions><gom:speed>0.0</gom:speed></extensions></trkpt>
   <trkpt lat="59.0673826609" lon="29.9673489876"><ele>100.31</ele><time>2026-04-25T10:58:19.000Z</time><hdop>3.25</hdop><vdop>3.25</vdop><extensions><gom:speed>0.0</gom:speed></extensions></trkpt>
   <trkpt lat="59.0673826609" lon="29.9673489876"><ele>100.31</ele><time>2026-04-25T10:58:20.000Z</time><hdop>3.25</hdop><vdop>3.25</vdop><extensions><gom:speed>0.0</gom:speed></extensions></trkpt>
   <trkpt lat="59.0673826609" lon="29.9673489876"><ele>100.31</ele><time>2026-04-25T10:58:21.000Z</time><hdop>3.25</hdop><vdop>3.25</vdop><extensions><gom:speed>0.0</gom:speed></extensions></trkpt>
   <trkpt lat="59.0673826609" lon="29.9673489876"><ele>100.31</ele><time>2026-04-25T10:58:22.000Z</time><hdop>3.25</hdop><vdop>3.25</vdop><extensions><gom:speed>0.0</gom:speed></extensions></trkpt>
   <trkpt lat="59.0673826609" lon="29.9673489876"><ele>100.31</ele><time>2026-04-25T10:58:23.000Z</time><hdop>3.25</hdop><vdop>3.25</vdop><extensions><gom:speed>0.0</gom:speed></extensions></trkpt>
   <trkpt lat="59.0673826609" lon="29.9673489876"><ele>100.31</ele><time>2026-04-25T10:58:24.000Z</time><hdop>3.25</hdop><vdop>3.25</vdop><extensions><gom:speed>0.0</gom:speed></extensions></trkpt>
   <trkpt lat="59.0673826609" lon="29.9673489876"><ele>100.31</ele><time>2026-04-25T10:58:25.000Z</time><hdop>3.25</hdop><vdop>3.25</vdop><extensions><gom:speed>0.0</gom:speed></extensions></trkpt>
   <trkpt lat="59.0673826609" lon="29.9673489876"><ele>100.31</ele><time>2026-04-25T10:58:26.000Z</time><hdop>3.25</hdop><vdop>3.25</vdop><extensions><gom:speed>0.0</gom:speed></extensions></trkpt>
   <trkpt lat="59.0673826609" lon="29.9673489876"><ele>100.31</ele><time>2026-04-25T10:58:27.000Z</time><hdop>3.25</hdop><vdop>3.25</vdop><extensions><gom:speed>0.0</gom:speed></extensions></trkpt>
   <trkpt lat="59.0673826609" lon="29.9673489876"><ele>100.31</ele><time>2026-04-25T10:58:28.000Z</time><hdop>3.25</hdop><vdop>3.25</vdop><extensions><gom:speed>0.0</gom:speed></extensions></trkpt>
   <trkpt lat="59.0673826609" lon="29.9673489876"><ele>100.31</ele><time>2026-04-25T10:58:29.000Z</time><hdop>3.25</hdop><vdop>3.25</vdop><extensions><gom:speed>0.0</gom:speed></extensions></trkpt>
   <trkpt lat="59.0673826609" lon="29.9673489876"><ele>100.31</ele><time>2026-04-25T10:58:30.000Z</time><hdop>3.25</hdop><vdop>3.25</vdop><extensions><gom:speed>0.0</gom:speed></extensions></trkpt>
   <trkpt lat="59.0673826609" lon="29.9673489876"><ele>100.31</ele><time>2026-04-25T10:58:31.000Z</time><hdop>3.25</hdop><vdop>3.25</vdop><extensions><gom:speed>0.0</gom:speed></extensions></trkpt>
   <trkpt lat="59.0673826609" lon="29.9673489876"><ele>100.31</ele><time>2026-04-25T10:58:32.000Z</time><hdop>3.25</hdop><vdop>3.25</vdop><extensions><gom:speed>0.0</gom:speed></extensions></trkpt>
   <trkpt lat="59.0673826609" lon="29.9673489876"><ele>100.31</ele><time>2026-04-25T10:58:33.000Z</time><hdop>3.25</hdop><vdop>3.25</vdop><extensions><gom:speed>0.0</gom:speed></extensions></trkpt>
   <trkpt lat="59.0673826609" lon="29.9673489876"><ele>100.31</ele><time>2026-04-25T10:58:34.000Z</time><hdop>3.25</hdop><vdop>3.25</vdop><extensions><gom:speed>0.0</gom:speed></extensions></trkpt>
   <trkpt lat="59.0673826609" lon="29.9673489876"><ele>100.31</ele><time>2026-04-25T10:58:35.000Z</time><hdop>3.25</hdop><vdop>3.25</vdop><extensions><gom:speed>0.0</gom:speed></extensions></trkpt>
   <trkpt lat="59.0673826609" lon="29.9673489876"><ele>100.31</ele><time>2026-04-25T10:58:36.000Z</time><hdop>3.25</hdop><vdop>3.25</vdop><extensions><gom:speed>0.0</gom:speed></extensions></trkpt>
   <trkpt lat="59.0673826609" lon="29.9673489876"><ele>100.31</ele><time>2026-04-25T10:58:36.000Z</time><hdop>3.25</hdop><vdop>3.25</vdop><extensions><gom:speed>0.0</gom:speed></extensions></trkpt>
   <trkpt lat="59.0673826609" lon="29.9673489876"><ele>100.31</ele><time>2026-04-25T10:58:37.000Z</time><hdop>3.25</hdop><vdop>3.25</vdop><extensions><gom:speed>0.0</gom:speed></extensions></trkpt>
   <trkpt lat="59.0673826609" lon="29.9673489876"><ele>100.31</ele><time>2026-04-25T10:58:37.000Z</time><hdop>3.25</hdop><vdop>3.25</vdop><extensions><gom:speed>0.0</gom:speed></extensions></trkpt>
   <trkpt lat="59.0673826609" lon="29.9673489876"><ele>100.31</ele><time>2026-04-25T10:58:38.000Z</time><hdop>3.25</hdop><vdop>3.25</vdop><extensions><gom:speed>0.0</gom:speed></extensions></trkpt>
   <trkpt lat="59.0673826609" lon="29.9673489876"><ele>100.31</ele><time>2026-04-25T10:58:39.000Z</time><hdop>3.25</hdop><vdop>3.25</vdop><extensions><gom:speed>0.0</gom:speed></extensions></trkpt>
   <trkpt lat="59.0673826609" lon="29.9673489876"><ele>100.31</ele><time>2026-04-25T10:58:40.000Z</time><hdop>3.25</hdop><vdop>3.25</vdop><extensions><gom:speed>0.0</gom:speed></extensions></trkpt>
   <trkpt lat="59.0673826609" lon="29.9673489876"><ele>100.31</ele><time>2026-04-25T10:58:41.000Z</time><hdop>3.25</hdop><vdop>3.25</vdop><extensions><gom:speed>0.0</gom:speed></extensions></trkpt>
   <trkpt lat="59.0673826609" lon="29.9673489876"><ele>100.31</ele><time>2026-04-25T10:58:42.000Z</time><hdop>3.25</hdop><vdop>3.25</vdop><extensions><gom:speed>0.0</gom:speed></extensions></trkpt>
   <trkpt lat="59.0673826609" lon="29.9673489876"><ele>100.31</ele><time>2026-04-25T10:58:43.000Z</time><hdop>3.25</hdop><vdop>3.25</vdop><extensions><gom:speed>0.0</gom:speed></extensions></trkpt>
   <trkpt lat="59.0673826609" lon="29.9673489876"><ele>100.31</ele><time>2026-04-25T10:58:44.000Z</time><hdop>3.25</hdop><vdop>3.25</vdop><extensions><gom:speed>0.0</gom:speed></extensions></trkpt>
   <trkpt lat="59.0673826609" lon="29.9673489876"><ele>100.31</ele><time>2026-04-25T10:58:45.000Z</time><hdop>3.25</hdop><vdop>3.25</vdop><extensions><gom:speed>0.0</gom:speed></extensions></trkpt>
   <trkpt lat="59.0673826609" lon="29.9673489876"><ele>100.31</ele><time>2026-04-25T10:58:46.000Z</time><hdop>3.25</hdop><vdop>3.25</vdop><extensions><gom:speed>0.0</gom:speed></extensions></trkpt>
   <trkpt lat="59.0673826609" lon="29.9673489876"><ele>100.31</ele><time>2026-04-25T10:58:47.000Z</time><hdop>3.25</hdop><vdop>3.25</vdop><extensions><gom:speed>0.0</gom:speed></extensions></trkpt>
   <trkpt lat="59.0673826609" lon="29.9673489876"><ele>100.31</ele><time>2026-04-25T10:58:48.000Z</time><hdop>3.25</hdop><vdop>3.25</vdop><extensions><gom:speed>0.0</gom:speed></extensions></trkpt>
   <trkpt lat="59.0673827866" lon="29.9673448805"><ele>100.262</ele><time>2026-04-25T10:58:49.000Z</time><hdop>3.062</hdop><vdop>3.062</vdop><extensions><gom:speed>0.197</gom:speed></extensions></trkpt>
   <trkpt lat="59.0673827866" lon="29.9673448805"><ele>100.233</ele><time>2026-04-25T10:58:50.000Z</time><hdop>3.062</hdop><vdop>3.062</vdop><extensions><gom:speed>0.0</gom:speed></extensions></trkpt>
   <trkpt lat="59.0673827866" lon="29.9673448805"><ele>100.215</ele><time>2026-04-25T10:58:51.000Z</time><hdop>3.062</hdop><vdop>3.062</vdop><extensions><gom:speed>0.0</gom:speed></extensions></trkpt>
   <trkpt lat="59.0673827866" lon="29.9673448805"><ele>100.205</ele><time>2026-04-25T10:58:52.000Z</time><hdop>3.062</hdop><vdop>3.062</vdop><extensions><gom:speed>0.0</gom:speed></extensions></trkpt>
   <trkpt lat="59.0673827866" lon="29.9673448805"><ele>100.199</ele><time>2026-04-25T10:58:53.000Z</time><hdop>3.062</hdop><vdop>3.062</vdop><extensions><gom:speed>0.0</gom:speed></extensions></trkpt>
   <trkpt lat="59.0673827866" lon="29.9673448805"><ele>100.195</ele><time>2026-04-25T10:58:53.000Z</time><hdop>3.062</hdop><vdop>3.062</vdop><extensions><gom:speed>0.0</gom:speed></extensions></trkpt>
   <trkpt lat="59.0673827866" lon="29.9673448805"><ele>100.193</ele><time>2026-04-25T10:58:54.000Z</time><hdop>3.062</hdop><vdop>3.062</vdop><extensions><gom:speed>0.0</gom:speed></extensions></trkpt>
   <trkpt lat="59.0673827866" lon="29.9673448805"><ele>100.192</ele><time>2026-04-25T10:58:55.000Z</time><hdop>3.062</hdop><vdop>3.062</vdop><extensions><gom:speed>0.0</gom:speed></extensions></trkpt>
   <trkpt lat="59.0673827866" lon="29.9673448805"><ele>100.191</ele><time>2026-04-25T10:58:56.000Z</time><hdop>3.062</hdop><vdop>3.062</vdop><extensions><gom:speed>0.0</gom:speed></extensions></trkpt>
   <trkpt lat="59.0673827866" lon="29.9673448805"><ele>100.19</ele><time>2026-04-25T10:58:57.000Z</time><hdop>3.062</hdop><vdop>3.062</vdop><extensions><gom:speed>0.0</gom:speed></extensions></trkpt>
   <trkpt lat="59.0673827866" lon="29.9673448805"><ele>100.19</ele><time>2026-04-25T10:58:58.000Z</time><hdop>3.062</hdop><vdop>3.062</vdop><extensions><gom:speed>0.0</gom:speed></extensions></trkpt>
   <trkpt lat="59.0673827866" lon="29.9673448805"><ele>100.19</ele><time>2026-04-25T10:58:59.000Z</time><hdop>3.062</hdop><vdop>3.062</vdop><extensions><gom:speed>0.0</gom:speed></extensions></trkpt>
   <trkpt lat="59.0673827866" lon="29.9673448805"><ele>100.19</ele><time>2026-04-25T10:59:00.000Z</time><hdop>3.062</hdop><vdop>3.062</vdop><extensions><gom:speed>0.0</gom:speed></extensions></trkpt>
   <trkpt lat="59.0673827866" lon="29.9673448805"><ele>100.19</ele><time>2026-04-25T10:59:01.000Z</time><hdop>3.062</hdop><vdop>3.062</vdop><extensions><gom:speed>0.0</gom:speed></extensions></trkpt>
   <trkpt lat="59.0673827866" lon="29.9673448805"><ele>100.19</ele><time>2026-04-25T10:59:02.000Z</time><hdop>3.062</hdop><vdop>3.062</vdop><extensions><gom:speed>0.0</gom:speed></extensions></trkpt>
   <trkpt lat="59.0673827866" lon="29.9673448805"><ele>100.19</ele><time>2026-04-25T10:59:03.000Z</time><hdop>3.062</hdop><vdop>3.062</vdop><extensions><gom:speed>0.0</gom:speed></extensions></trkpt>
   <trkpt lat="59.0673827866" lon="29.9673448805"><ele>100.19</ele><time>2026-04-25T10:59:04.000Z</time><hdop>3.062</hdop><vdop>3.062</vdop><extensions><gom:speed>0.0</gom:speed></extensions></trkpt>
   <trkpt lat="59.0673827866" lon="29.9673448805"><ele>100.19</ele><time>2026-04-25T10:59:05.000Z</time><hdop>3.062</hdop><vdop>3.062</vdop><extensions><gom:speed>0.0</gom:speed></extensions></trkpt>
   <trkpt lat="59.0673827866" lon="29.9673448805"><ele>100.19</ele><time>2026-04-25T10:59:06.000Z</time><hdop>3.062</hdop><vdop>3.062</vdop><extensions><gom:speed>0.0</gom:speed></extensions></trkpt>
   <trkpt lat="59.0673827866" lon="29.9673448805"><ele>100.19</ele><time>2026-04-25T10:59:07.000Z</time><hdop>3.062</hdop><vdop>3.062</vdop><extensions><gom:speed>0.0</gom:speed></extensions></trkpt>
   <trkpt lat="59.0673827866" lon="29.9673448805"><ele>100.19</ele><time>2026-04-25T10:59:08.000Z</time><hdop>3.062</hdop><vdop>3.062</vdop><extensions><gom:speed>0.0</gom:speed></extensions></trkpt>
   <trkpt lat="59.0673827866" lon="29.9673448805"><ele>100.19</ele><time>2026-04-25T10:59:09.000Z</time><hdop>3.062</hdop><vdop>3.062</vdop><extensions><gom:speed>0.0</gom:speed></extensions></trkpt>
   <trkpt lat="59.0673827866" lon="29.9673448805"><ele>100.19</ele><time>2026-04-25T10:59:10.000Z</time><hdop>3.062</hdop><vdop>3.062</vdop><extensions><gom:speed>0.0</gom:speed></extensions></trkpt>
   <trkpt lat="59.0673827866" lon="29.9673448805"><ele>100.19</ele><time>2026-04-25T10:59:11.000Z</time><hdop>3.062</hdop><vdop>3.062</vdop><extensions><gom:speed>0.0</gom:speed></extensions></trkpt>
   <trkpt lat="59.0673827866" lon="29.9673448805"><ele>100.19</ele><time>2026-04-25T10:59:12.000Z</time><hdop>3.062</hdop><vdop>3.062</vdop><extensions><gom:speed>0.0</gom:speed></extensions></trkpt>
   <trkpt lat="59.0673827866" lon="29.9673448805"><ele>100.19</ele><time>2026-04-25T10:59:13.000Z</time><hdop>3.062</hdop><vdop>3.062</vdop><extensions><gom:speed>0.0</gom:speed></extensions></trkpt>
   <trkpt lat="59.0673827866" lon="29.9673448805"><ele>100.19</ele><time>2026-04-25T10:59:13.000Z</time><hdop>3.062</hdop><vdop>3.062</vdop><extensions><gom:speed>0.0</gom:speed></extensions></trkpt>
   <trkpt lat="59.0673827866" lon="29.9673448805"><ele>100.19</ele><time>2026-04-25T10:59:14.000Z</time><hdop>3.062</hdop><vdop>3.062</vdop><extensions><gom:speed>0.0</gom:speed></extensions></trkpt>
   <trkpt lat="59.0673827866" lon="29.9673448805"><ele>100.19</ele><time>2026-04-25T10:59:15.000Z</time><hdop>3.062</hdop><vdop>3.062</vdop><extensions><gom:speed>0.0</gom:speed></extensions></trkpt>
   <trkpt lat="59.0673827866" lon="29.9673448805"><ele>100.19</ele><time>2026-04-25T10:59:16.000Z</time><hdop>3.062</hdop><vdop>3.062</vdop><extensions><gom:speed>0.0</gom:speed></extensions></trkpt>
   <trkpt lat="59.0673827866" lon="29.9673448805"><ele>100.19</ele><time>2026-04-25T10:59:17.000Z</time><hdop>3.062</hdop><vdop>3.062</vdop><extensions><gom:speed>0.0</gom:speed></extensions></trkpt>
   <trkpt lat="59.0673827866" lon="29.9673448805"><ele>100.19</ele><time>2026-04-25T10:59:18.000Z</time><hdop>3.062</hdop><vdop>3.062</vdop><extensions><gom:speed>0.0</gom:speed></extensions></trkpt>
   <trkpt lat="59.0673827866" lon="29.9673448805"><ele>100.19</ele><time>2026-04-25T10:59:19.000Z</time><hdop>3.062</hdop><vdop>3.062</vdop><extensions><gom:speed>0.0</gom:speed></extensions></trkpt>
   <trkpt lat="59.0673827866" lon="29.9673448805"><ele>100.19</ele><time>2026-04-25T10:59:20.000Z</time><hdop>3.062</hdop><vdop>3.062</vdop><extensions><gom:speed>0.0</gom:speed></extensions></trkpt>
   <trkpt lat="59.0673827866" lon="29.9673448805"><ele>100.19</ele><time>2026-04-25T10:59:21.000Z</time><hdop>3.062</hdop><vdop>3.062</vdop><extensions><gom:speed>0.0</gom:speed></extensions></trkpt>
   <trkpt lat="59.0673827866" lon="29.9673448805"><ele>100.19</ele><time>2026-04-25T10:59:22.000Z</time><hdop>3.062</hdop><vdop>3.062</vdop><extensions><gom:speed>0.0</gom:speed></extensions></trkpt>
   <trkpt lat="59.0673827866" lon="29.9673448805"><ele>100.19</ele><time>2026-04-25T10:59:23.000Z</time><hdop>3.062</hdop><vdop>3.062</vdop><extensions><gom:speed>0.0</gom:speed></extensions></trkpt>
   <trkpt lat="59.0673827866" lon="29.9673448805"><ele>100.19</ele><time>2026-04-25T10:59:24.000Z</time><hdop>3.062</hdop><vdop>3.062</vdop><extensions><gom:speed>0.0</gom:speed></extensions></trkpt>
   <trkpt lat="59.0673827866" lon="29.9673448805"><ele>100.19</ele><time>2026-04-25T10:59:25.000Z</time><hdop>3.062</hdop><vdop>3.062</vdop><extensions><gom:speed>0.0</gom:speed></extensions></trkpt>
   <trkpt lat="59.0673827866" lon="29.9673448805"><ele>100.19</ele><time>2026-04-25T10:59:26.000Z</time><hdop>3.062</hdop><vdop>3.062</vdop><extensions><gom:speed>0.0</gom:speed></extensions></trkpt>
   <trkpt lat="59.0673827866" lon="29.9673448805"><ele>100.19</ele><time>2026-04-25T10:59:27.000Z</time><hdop>3.062</hdop><vdop>3.062</vdop><extensions><gom:speed>0.0</gom:speed></extensions></trkpt>
   <trkpt lat="59.0673827866" lon="29.9673448805"><ele>100.19</ele><time>2026-04-25T10:59:28.000Z</time><hdop>3.062</hdop><vdop>3.062</vdop><extensions><gom:speed>0.0</gom:speed></extensions></trkpt>
   <trkpt lat="59.0673827866" lon="29.9673448805"><ele>100.19</ele><time>2026-04-25T10:59:29.000Z</time><hdop>3.062</hdop><vdop>3.062</vdop><extensions><gom:speed>0.0</gom:speed></extensions></trkpt>
   <trkpt lat="59.0673827866" lon="29.9673448805"><ele>100.19</ele><time>2026-04-25T10:59:30.000Z</time><hdop>3.062</hdop><vdop>3.062</vdop><extensions><gom:speed>0.0</gom:speed></extensions></trkpt>
   <trkpt lat="59.0673827866" lon="29.9673448805"><ele>100.19</ele><time>2026-04-25T10:59:31.000Z</time><hdop>3.062</hdop><vdop>3.062</vdop><extensions><gom:speed>0.0</gom:speed></extensions></trkpt>
   <trkpt lat="59.0673827866" lon="29.9673448805"><ele>100.19</ele><time>2026-04-25T10:59:32.000Z</time><hdop>3.062</hdop><vdop>3.062</vdop><extensions><gom:speed>0.0</gom:speed></extensions></trkpt>
   <trkpt lat="59.0673827866" lon="29.9673448805"><ele>100.19</ele><time>2026-04-25T10:59:33.000Z</time><hdop>3.062</hdop><vdop>3.062</vdop><extensions><gom:speed>0.0</gom:speed></extensions></trkpt>
   <trkpt lat="59.0673827866" lon="29.9673448805"><ele>100.19</ele><time>2026-04-25T10:59:33.000Z</time><hdop>3.062</hdop><vdop>3.062</vdop><extensions><gom:speed>0.0</gom:speed></extensions></trkpt>
   <trkpt lat="59.0673827866" lon="29.9673448805"><ele>100.19</ele><time>2026-04-25T10:59:34.000Z</time><hdop>3.062</hdop><vdop>3.062</vdop><extensions><gom:speed>0.0</gom:speed></extensions></trkpt>
   <trkpt lat="59.0673827866" lon="29.9673448805"><ele>100.19</ele><time>2026-04-25T10:59:35.000Z</time><hdop>3.062</hdop><vdop>3.062</vdop><extensions><gom:speed>0.0</gom:speed></extensions></trkpt>
   <trkpt lat="59.0673827866" lon="29.9673448805"><ele>100.19</ele><time>2026-04-25T10:59:36.000Z</time><hdop>3.062</hdop><vdop>3.062</vdop><extensions><gom:speed>0.0</gom:speed></extensions></trkpt>
   <trkpt lat="59.0673827866" lon="29.9673448805"><ele>100.19</ele><time>2026-04-25T10:59:37.000Z</time><hdop>3.062</hdop><vdop>3.062</vdop><extensions><gom:speed>0.0</gom:speed></extensions></trkpt>
   <trkpt lat="59.0673827866" lon="29.9673448805"><ele>100.19</ele><time>2026-04-25T10:59:38.000Z</time><hdop>3.062</hdop><vdop>3.062</vdop><extensions><gom:speed>0.0</gom:speed></extensions></trkpt>
   <trkpt lat="59.0673827866" lon="29.9673448805"><ele>100.19</ele><time>2026-04-25T10:59:39.000Z</time><hdop>3.062</hdop><vdop>3.062</vdop><extensions><gom:speed>0.0</gom:speed></extensions></trkpt>
   <trkpt lat="59.0673827866" lon="29.9673448805"><ele>100.19</ele><time>2026-04-25T10:59:40.000Z</time><hdop>3.062</hdop><vdop>3.062</vdop><extensions><gom:speed>0.0</gom:speed></extensions></trkpt>
   <trkpt lat="59.0673827866" lon="29.9673448805"><ele>100.19</ele><time>2026-04-25T10:59:41.000Z</time><hdop>3.062</hdop><vdop>3.062</vdop><extensions><gom:speed>0.0</gom:speed></extensions></trkpt>
   <trkpt lat="59.0673827866" lon="29.9673448805"><ele>100.19</ele><time>2026-04-25T10:59:42.000Z</time><hdop>3.062</hdop><vdop>3.062</vdop><extensions><gom:speed>0.0</gom:speed></extensions></trkpt>
   <trkpt lat="59.0673827866" lon="29.9673448805"><ele>100.19</ele><time>2026-04-25T10:59:43.000Z</time><hdop>3.062</hdop><vdop>3.062</vdop><extensions><gom:speed>0.0</gom:speed></extensions></trkpt>
   <trkpt lat="59.0673827866" lon="29.9673448805"><ele>100.19</ele><time>2026-04-25T10:59:44.000Z</time><hdop>3.062</hdop><vdop>3.062</vdop><extensions><gom:speed>0.0</gom:speed></extensions></trkpt>
   <trkpt lat="59.0673827866" lon="29.9673448805"><ele>100.19</ele><time>2026-04-25T10:59:45.000Z</time><hdop>3.062</hdop><vdop>3.062</vdop><extensions><gom:speed>0.0</gom:speed></extensions></trkpt>
   <trkpt lat="59.0673827866" lon="29.9673448805"><ele>100.19</ele><time>2026-04-25T10:59:46.000Z</time><hdop>3.062</hdop><vdop>3.062</vdop><extensions><gom:speed>0.0</gom:speed></extensions></trkpt>
   <trkpt lat="59.0673827866" lon="29.9673448805"><ele>100.19</ele><time>2026-04-25T10:59:47.000Z</time><hdop>3.062</hdop><vdop>3.062</vdop><extensions><gom:speed>0.0</gom:speed></extensions></trkpt>
   <trkpt lat="59.0673827866" lon="29.9673448805"><ele>100.19</ele><time>2026-04-25T10:59:48.000Z</time><hdop>3.062</hdop><vdop>3.062</vdop><extensions><gom:speed>0.0</gom:speed></extensions></trkpt>
   <trkpt lat="59.0673827866" lon="29.9673448805"><ele>100.19</ele><time>2026-04-25T10:59:49.000Z</time><hdop>3.062</hdop><vdop>3.062</vdop><extensions><gom:speed>0.0</gom:speed></extensions></trkpt>
   <trkpt lat="59.0673827866" lon="29.9673448805"><ele>100.19</ele><time>2026-04-25T10:59:50.000Z</time><hdop>3.062</hdop><vdop>3.062</vdop><extensions><gom:speed>0.0</gom:speed></extensions></trkpt>
   <trkpt lat="59.0673827866" lon="29.9673448805"><ele>100.19</ele><time>2026-04-25T10:59:51.000Z</time><hdop>3.062</hdop><vdop>3.062</vdop><extensions><gom:speed>0.0</gom:speed></extensions></trkpt>
   <trkpt lat="59.0673827866" lon="29.9673448805"><ele>100.19</ele><time>2026-04-25T10:59:52.000Z</time><hdop>3.062</hdop><vdop>3.062</vdop><extensions><gom:speed>0.0</gom:speed></extensions></trkpt>
   <trkpt lat="59.0673827866" lon="29.9673448805"><ele>100.19</ele><time>2026-04-25T10:59:53.000Z</time><hdop>3.062</hdop><vdop>3.062</vdop><extensions><gom:speed>0.0</gom:speed></extensions></trkpt>
   <trkpt lat="59.0673827866" lon="29.9673448805"><ele>100.19</ele><time>2026-04-25T10:59:53.000Z</time><hdop>3.062</hdop><vdop>3.062</vdop><extensions><gom:speed>0.0</gom:speed></extensions></trkpt>
   <trkpt lat="59.0673827866" lon="29.9673448805"><ele>100.19</ele><time>2026-04-25T10:59:54.000Z</time><hdop>3.062</hdop><vdop>3.062</vdop><extensions><gom:speed>0.0</gom:speed></extensions></trkpt>
   <trkpt lat="59.0673827866" lon="29.9673448805"><ele>100.19</ele><time>2026-04-25T10:59:55.000Z</time><hdop>3.062</hdop><vdop>3.062</vdop><extensions><gom:speed>0.0</gom:speed></extensions></trkpt>
   <trkpt lat="59.0673827866" lon="29.9673448805"><ele>100.19</ele><time>2026-04-25T10:59:56.000Z</time><hdop>3.062</hdop><vdop>3.062</vdop><extensions><gom:speed>0.0</gom:speed></extensions></trkpt>
   <trkpt lat="59.0673827866" lon="29.9673448805"><ele>100.19</ele><time>2026-04-25T10:59:57.000Z</time><hdop>3.062</hdop><vdop>3.062</vdop><extensions><gom:speed>0.0</gom:speed></extensions></trkpt>
   <trkpt lat="59.0673827866" lon="29.9673448805"><ele>100.19</ele><time>2026-04-25T10:59:58.000Z</time><hdop>3.062</hdop><vdop>3.062</vdop><extensions><gom:speed>0.0</gom:speed></extensions></trkpt>
   <trkpt lat="59.0673827866" lon="29.9673448805"><ele>100.19</ele><time>2026-04-25T10:59:59.000Z</time><hdop>3.062</hdop><vdop>3.062</vdop><extensions><gom:speed>0.0</gom:speed></extensions></trkpt>
   <trkpt lat="59.0673827866" lon="29.9673448805"><ele>100.19</ele><time>2026-04-25T11:00:00.000Z</time><hdop>3.062</hdop><vdop>3.062</vdop><extensions><gom:speed>0.0</gom:speed></extensions></trkpt>
   <trkpt lat="59.0673827866" lon="29.9673448805"><ele>100.19</ele><time>2026-04-25T11:00:01.000Z</time><hdop>3.062</hdop><vdop>3.062</vdop><extensions><gom:speed>0.0</gom:speed></extensions></trkpt>
   <trkpt lat="59.0673827866" lon="29.9673448805"><ele>100.19</ele><time>2026-04-25T11:00:02.000Z</time><hdop>3.062</hdop><vdop>3.062</vdop><extensions><gom:speed>0.0</gom:speed></extensions></trkpt>
   <trkpt lat="59.0673827866" lon="29.9673448805"><ele>100.19</ele><time>2026-04-25T11:00:03.000Z</time><hdop>3.062</hdop><vdop>3.062</vdop><extensions><gom:speed>0.0</gom:speed></extensions></trkpt>
   <trkpt lat="59.0673827866" lon="29.9673448805"><ele>100.19</ele><time>2026-04-25T11:00:04.000Z</time><hdop>3.062</hdop><vdop>3.062</vdop><extensions><gom:speed>0.0</gom:speed></extensions></trkpt>
   <trkpt lat="59.0673827866" lon="29.9673448805"><ele>100.19</ele><time>2026-04-25T11:00:05.000Z</time><hdop>3.062</hdop><vdop>3.062</vdop><extensions><gom:speed>0.0</gom:speed></extensions></trkpt>
   <trkpt lat="59.0673827866" lon="29.9673448805"><ele>100.19</ele><time>2026-04-25T11:00:06.000Z</time><hdop>3.062</hdop><vdop>3.062</vdop><extensions><gom:speed>0.0</gom:speed></extensions></trkpt>
   <trkpt lat="59.0673827866" lon="29.9673448805"><ele>100.19</ele><time>2026-04-25T11:00:07.000Z</time><hdop>3.062</hdop><vdop>3.062</vdop><extensions><gom:speed>0.0</gom:speed></extensions></trkpt>
   <trkpt lat="59.0673827866" lon="29.9673448805"><ele>100.19</ele><time>2026-04-25T11:00:08.000Z</time><hdop>3.062</hdop><vdop>3.062</vdop><extensions><gom:speed>0.0</gom:speed></extensions></trkpt>
   <trkpt lat="59.0673827866" lon="29.9673448805"><ele>100.19</ele><time>2026-04-25T11:00:09.000Z</time><hdop>3.062</hdop><vdop>3.062</vdop><extensions><gom:speed>0.0</gom:speed></extensions></trkpt>
   <trkpt lat="59.0673827866" lon="29.9673448805"><ele>100.19</ele><time>2026-04-25T11:00:10.000Z</time><hdop>3.062</hdop><vdop>3.062</vdop><extensions><gom:speed>0.0</gom:speed></extensions></trkpt>
   <trkpt lat="59.0673827866" lon="29.9673448805"><ele>100.19</ele><time>2026-04-25T11:00:11.000Z</time><hdop>3.062</hdop><vdop>3.062</vdop><extensions><gom:speed>0.0</gom:speed></extensions></trkpt>
   <trkpt lat="59.0673827866" lon="29.9673448805"><ele>100.19</ele><time>2026-04-25T11:00:12.000Z</time><hdop>3.062</hdop><vdop>3.062</vdop><extensions><gom:speed>0.0</gom:speed></extensions></trkpt>
   <trkpt lat="59.0673827866" lon="29.9673448805"><ele>100.19</ele><time>2026-04-25T11:00:13.000Z</time><hdop>3.062</hdop><vdop>3.062</vdop><extensions><gom:speed>0.0</gom:speed></extensions></trkpt>
   <trkpt lat="59.0673827866" lon="29.9673448805"><ele>100.19</ele><time>2026-04-25T11:00:14.000Z</time><hdop>3.062</hdop><vdop>3.062</vdop><extensions><gom:speed>0.0</gom:speed></extensions></trkpt>
   <trkpt lat="59.0673827866" lon="29.9673448805"><ele>100.19</ele><time>2026-04-25T11:00:14.000Z</time><hdop>3.062</hdop><vdop>3.062</vdop><extensions><gom:speed>0.0</gom:speed></extensions></trkpt>
   <trkpt lat="59.0673827866" lon="29.9673448805"><ele>100.19</ele><time>2026-04-25T11:00:15.000Z</time><hdop>3.062</hdop><vdop>3.062</vdop><extensions><gom:speed>0.0</gom:speed></extensions></trkpt>
   <trkpt lat="59.0673827866" lon="29.9673448805"><ele>100.19</ele><time>2026-04-25T11:00:16.000Z</time><hdop>3.062</hdop><vdop>3.062</vdop><extensions><gom:speed>0.0</gom:speed></extensions></trkpt>
   <trkpt lat="59.0673831638" lon="29.9673485685"><ele>100.142</ele><time>2026-04-25T11:00:17.000Z</time><hdop>3.062</hdop><vdop>3.062</vdop><extensions><gom:speed>0.311</gom:speed></extensions></trkpt>
   <trkpt lat="59.0673882768" lon="29.9673551903"><ele>100.034</ele><time>2026-04-25T11:00:18.000Z</time><hdop>3.187</hdop><vdop>3.187</vdop><extensions><gom:speed>0.463</gom:speed></extensions></trkpt>
   <trkpt lat="59.0673956109" lon="29.9673603032"><ele>99.914</ele><time>2026-04-25T11:00:19.000Z</time><hdop>3.0</hdop><vdop>3.0</vdop><extensions><gom:speed>0.587</gom:speed></extensions></trkpt>
   <trkpt lat="59.0674036995" lon="29.9673646618"><ele>99.789</ele><time>2026-04-25T11:00:20.000Z</time><hdop>3.0</hdop><vdop>3.0</vdop><extensions><gom:speed>0.755</gom:speed></extensions></trkpt>
   <trkpt lat="59.0674148893" lon="29.967367344"><ele>99.655</ele><time>2026-04-25T11:00:21.000Z</time><hdop>3.0</hdop><vdop>3.0</vdop><extensions><gom:speed>0.991</gom:speed></extensions></trkpt>
   <trkpt lat="59.0674255762" lon="29.9673674278"><ele>99.544</ele><time>2026-04-25T11:00:22.000Z</time><hdop>3.0</hdop><vdop>3.0</vdop><extensions><gom:speed>0.82</gom:speed></extensions></trkpt>
   <trkpt lat="59.067435425" lon="29.9673661705"><ele>99.489</ele><time>2026-04-25T11:00:23.000Z</time><hdop>3.0</hdop><vdop>3.0</vdop><extensions><gom:speed>0.593</gom:speed></extensions></trkpt>
   <trkpt lat="59.0674462795" lon="29.967368266"><ele>99.419</ele><time>2026-04-25T11:00:24.000Z</time><hdop>3.0</hdop><vdop>3.0</vdop><extensions><gom:speed>0.749</gom:speed></extensions></trkpt>
   <trkpt lat="59.0674555835" lon="29.9673751392"><ele>99.364</ele><time>2026-04-25T11:00:25.000Z</time><hdop>3.0</hdop><vdop>3.0</vdop><extensions><gom:speed>0.747</gom:speed></extensions></trkpt>
   <trkpt lat="59.0674640492" lon="29.9673806712"><ele>99.323</ele><time>2026-04-25T11:00:26.000Z</time><hdop>3.0</hdop><vdop>3.0</vdop><extensions><gom:speed>0.494</gom:speed></extensions></trkpt>
   <trkpt lat="59.0674708804" lon="29.96738679"><ele>99.186</ele><time>2026-04-25T11:00:27.000Z</time><hdop>3.0</hdop><vdop>3.0</vdop><extensions><gom:speed>0.602</gom:speed></extensions></trkpt>
   <trkpt lat="59.0674773345" lon="29.9673899752"><ele>99.084</ele><time>2026-04-25T11:00:28.000Z</time><hdop>3.0</hdop><vdop>3.0</vdop><extensions><gom:speed>0.49</gom:speed></extensions></trkpt>
   <trkpt lat="59.0674881891" lon="29.9673945852"><ele>99.087</ele><time>2026-04-25T11:00:29.000Z</time><hdop>3.0</hdop><vdop>3.0</vdop><extensions><gom:speed>0.59</gom:speed></extensions></trkpt>
   <trkpt lat="59.0674964452" lon="29.9674003687"><ele>99.121</ele><time>2026-04-25T11:00:30.000Z</time><hdop>3.0</hdop><vdop>3.0</vdop><extensions><gom:speed>0.449</gom:speed></extensions></trkpt>
   <trkpt lat="59.067506755" lon="29.9674071581"><ele>99.169</ele><time>2026-04-25T11:00:31.000Z</time><hdop>3.0</hdop><vdop>3.0</vdop><extensions><gom:speed>0.76</gom:speed></extensions></trkpt>
   <trkpt lat="59.0675126223" lon="29.9674139474"><ele>99.186</ele><time>2026-04-25T11:00:32.000Z</time><hdop>3.0</hdop><vdop>3.0</vdop><extensions><gom:speed>0.582</gom:speed></extensions></trkpt>
   <trkpt lat="59.0675126223" lon="29.9674139474"><ele>99.196</ele><time>2026-04-25T11:00:32.000Z</time><hdop>3.0</hdop><vdop>3.0</vdop><extensions><gom:speed>0.582</gom:speed></extensions></trkpt>
   <trkpt lat="59.0675222196" lon="29.9674225808"><ele>99.229</ele><time>2026-04-25T11:00:33.000Z</time><hdop>3.0</hdop><vdop>3.0</vdop><extensions><gom:speed>0.467</gom:speed></extensions></trkpt>
   <trkpt lat="59.0675276259" lon="29.967424341"><ele>99.182</ele><time>2026-04-25T11:00:34.000Z</time><hdop>3.062</hdop><vdop>3.062</vdop><extensions><gom:speed>0.454</gom:speed></extensions></trkpt>
   <trkpt lat="59.0675339542" lon="29.9674239219"><ele>99.104</ele><time>2026-04-25T11:00:35.000Z</time><hdop>3.0</hdop><vdop>3.0</vdop><extensions><gom:speed>0.567</gom:speed></extensions></trkpt>
   <trkpt lat="59.0675426714" lon="29.9674199824"><ele>99.079</ele><time>2026-04-25T11:00:36.000Z</time><hdop>3.0</hdop><vdop>3.0</vdop><extensions><gom:speed>0.809</gom:speed></extensions></trkpt>
   <trkpt lat="59.0675508438" lon="29.9674165458"><ele>99.073</ele><time>2026-04-25T11:00:37.000Z</time><hdop>3.0</hdop><vdop>3.0</vdop><extensions><gom:speed>0.714</gom:speed></extensions></trkpt>
   <trkpt lat="59.0675580103" lon="29.9674121034"><ele>99.064</ele><time>2026-04-25T11:00:38.000Z</time><hdop>3.0</hdop><vdop>3.0</vdop><extensions><gom:speed>0.601</gom:speed></extensions></trkpt>
   <trkpt lat="59.0675623689" lon="29.9674117681"><ele>99.081</ele><time>2026-04-25T11:00:39.000Z</time><hdop>3.0</hdop><vdop>3.0</vdop><extensions><gom:speed>0.264</gom:speed></extensions></trkpt>
   <trkpt lat="59.0675623689" lon="29.9674117681"><ele>99.09</ele><time>2026-04-25T11:00:40.000Z</time><hdop>3.0</hdop><vdop>3.0</vdop><extensions><gom:speed>0.0</gom:speed></extensions></trkpt>
   <trkpt lat="59.0675623689" lon="29.9674117681"><ele>99.096</ele><time>2026-04-25T11:00:41.000Z</time><hdop>3.0</hdop><vdop>3.0</vdop><extensions><gom:speed>0.0</gom:speed></extensions></trkpt>
   <trkpt lat="59.0675623689" lon="29.9674117681"><ele>99.1</ele><time>2026-04-25T11:00:42.000Z</time><hdop>3.0</hdop><vdop>3.0</vdop><extensions><gom:speed>0.0</gom:speed></extensions></trkpt>
   <trkpt lat="59.0675623689" lon="29.9674117681"><ele>99.102</ele><time>2026-04-25T11:00:43.000Z</time><hdop>3.0</hdop><vdop>3.0</vdop><extensions><gom:speed>0.0</gom:speed></extensions></trkpt>
   <trkpt lat="59.0675659731" lon="29.9674037215"><ele>99.127</ele><time>2026-04-25T11:00:44.000Z</time><hdop>3.0</hdop><vdop>3.0</vdop><extensions><gom:speed>0.656</gom:speed></extensions></trkpt>
   <trkpt lat="59.0675659731" lon="29.9674037215"><ele>99.142</ele><time>2026-04-25T11:00:45.000Z</time><hdop>3.0</hdop><vdop>3.0</vdop><extensions><gom:speed>0.0</gom:speed></extensions></trkpt>
   <trkpt lat="59.0675694935" lon="29.9674002011"><ele>99.111</ele><time>2026-04-25T11:00:46.000Z</time><hdop>3.0</hdop><vdop>3.0</vdop><extensions><gom:speed>0.527</gom:speed></extensions></trkpt>
   <trkpt lat="59.0675694935" lon="29.9674002011"><ele>99.092</ele><time>2026-04-25T11:00:47.000Z</time><hdop>3.0</hdop><vdop>3.0</vdop><extensions><gom:speed>0.0</gom:speed></extensions></trkpt>
   <trkpt lat="59.0675694935" lon="29.9674002011"><ele>99.081</ele><time>2026-04-25T11:00:48.000Z</time><hdop>3.0</hdop><vdop>3.0</vdop><extensions><gom:speed>0.0</gom:speed></extensions></trkpt>
   <trkpt lat="59.0675727205" lon="29.9673929926"><ele>98.99</ele><time>2026-04-25T11:00:49.000Z</time><hdop>3.0</hdop><vdop>3.0</vdop><extensions><gom:speed>0.475</gom:speed></extensions></trkpt>
   <trkpt lat="59.0675767858" lon="29.9673879635"><ele>98.897</ele><time>2026-04-25T11:00:50.000Z</time><hdop>3.0</hdop><vdop>3.0</vdop><extensions><gom:speed>0.585</gom:speed></extensions></trkpt>
   <trkpt lat="59.0675846648" lon="29.9673846107"><ele>98.74</ele><time>2026-04-25T11:00:51.000Z</time><hdop>3.0</hdop><vdop>3.0</vdop><extensions><gom:speed>0.739</gom:speed></extensions></trkpt>
   <trkpt lat="59.0675966509" lon="29.9673781567"><ele>98.62</ele><time>2026-04-25T11:00:52.000Z</time><hdop>3.125</hdop><vdop>3.125</vdop><extensions><gom:speed>0.708</gom:speed></extensions></trkpt>
   <trkpt lat="59.0676079665" lon="29.9673721217"><ele>98.523</ele><time>2026-04-25T11:00:53.000Z</time><hdop>3.25</hdop><vdop>3.25</vdop><extensions><gom:speed>0.658</gom:speed></extensions></trkpt>
   <trkpt lat="59.0676151749" lon="29.9673779052"><ele>98.362</ele><time>2026-04-25T11:00:54.000Z</time><hdop>3.062</hdop><vdop>3.062</vdop><extensions><gom:speed>0.592</gom:speed></extensions></trkpt>
   <trkpt lat="59.0676151749" lon="29.9673779052"><ele>98.266</ele><time>2026-04-25T11:00:54.000Z</time><hdop>3.062</hdop><vdop>3.062</vdop><extensions><gom:speed>0.592</gom:speed></extensions></trkpt>
   <trkpt lat="59.0676207489" lon="29.9673841916"><ele>98.238</ele><time>2026-04-25T11:00:55.000Z</time><hdop>3.0</hdop><vdop>3.0</vdop><extensions><gom:speed>0.638</gom:speed></extensions></trkpt>
   <trkpt lat="59.0676267838" lon="29.9673925735"><ele>98.189</ele><time>2026-04-25T11:00:56.000Z</time><hdop>3.0</hdop><vdop>3.0</vdop><extensions><gom:speed>0.726</gom:speed></extensions></trkpt>
   <trkpt lat="59.0676324835" lon="29.9673996143"><ele>98.141</ele><time>2026-04-25T11:00:57.000Z</time><hdop>3.437</hdop><vdop>3.437</vdop><extensions><gom:speed>0.63</gom:speed></extensions></trkpt>
   <trkpt lat="59.0676384347" lon="29.9674043082"><ele>98.133</ele><time>2026-04-25T11:00:58.000Z</time><hdop>3.25</hdop><vdop>3.25</vdop><extensions><gom:speed>0.654</gom:speed></extensions></trkpt>
   <trkpt lat="59.0676442601" lon="29.9674047273"><ele>98.144</ele><time>2026-04-25T11:00:59.000Z</time><hdop>3.25</hdop><vdop>3.25</vdop><extensions><gom:speed>0.395</gom:speed></extensions></trkpt>
   <trkpt lat="59.0676524744" lon="29.9673992791"><ele>98.146</ele><time>2026-04-25T11:01:00.000Z</time><hdop>3.0</hdop><vdop>3.0</vdop><extensions><gom:speed>0.648</gom:speed></extensions></trkpt>
   <trkpt lat="59.0676619878" lon="29.9673940823"><ele>98.149</ele><time>2026-04-25T11:01:01.000Z</time><hdop>3.125</hdop><vdop>3.125</vdop><extensions><gom:speed>0.826</gom:speed></extensions></trkpt>
   <trkpt lat="59.0676718785" lon="29.9673911486"><ele>98.155</ele><time>2026-04-25T11:01:02.000Z</time><hdop>3.187</hdop><vdop>3.187</vdop><extensions><gom:speed>0.655</gom:speed></extensions></trkpt>
   <trkpt lat="59.0676807214" lon="29.9673890531"><ele>98.187</ele><time>2026-04-25T11:01:03.000Z</time><hdop>3.062</hdop><vdop>3.062</vdop><extensions><gom:speed>0.673</gom:speed></extensions></trkpt>
   <trkpt lat="59.0676888518" lon="29.9673904781"><ele>98.187</ele><time>2026-04-25T11:01:04.000Z</time><hdop>3.187</hdop><vdop>3.187</vdop><extensions><gom:speed>0.583</gom:speed></extensions></trkpt>
   <trkpt lat="59.0676964374" lon="29.967397435"><ele>98.103</ele><time>2026-04-25T11:01:05.000Z</time><hdop>3.375</hdop><vdop>3.375</vdop><extensions><gom:speed>0.585</gom:speed></extensions></trkpt>
   <trkpt lat="59.0677038554" lon="29.9674030509"><ele>98.01</ele><time>2026-04-25T11:01:06.000Z</time><hdop>3.437</hdop><vdop>3.437</vdop><extensions><gom:speed>0.589</gom:speed></extensions></trkpt>
   <trkpt lat="59.067711441" lon="29.9674078286"><ele>97.954</ele><time>2026-04-25T11:01:07.000Z</time><hdop>3.437</hdop><vdop>3.437</vdop><extensions><gom:speed>0.586</gom:speed></extensions></trkpt>
   <trkpt lat="59.067720242" lon="29.9674153723"><ele>97.904</ele><time>2026-04-25T11:01:08.000Z</time><hdop>3.437</hdop><vdop>3.437</vdop><extensions><gom:speed>0.684</gom:speed></extensions></trkpt>
   <trkpt lat="59.0677283306" lon="29.9674209044"><ele>97.894</ele><time>2026-04-25T11:01:09.000Z</time><hdop>3.687</hdop><vdop>3.687</vdop><extensions><gom:speed>0.533</gom:speed></extensions></trkpt>
   <trkpt lat="59.0677357067" lon="29.9674197309"><ele>97.935</ele><time>2026-04-25T11:01:10.000Z</time><hdop>3.0</hdop><vdop>3.0</vdop><extensions><gom:speed>0.647</gom:speed></extensions></trkpt>
   <trkpt lat="59.0677436695" lon="29.9674198147"><ele>97.971</ele><time>2026-04-25T11:01:11.000Z</time><hdop>3.0</hdop><vdop>3.0</vdop><extensions><gom:speed>0.585</gom:speed></extensions></trkpt>
   <trkpt lat="59.0677510874" lon="29.9674226646"><ele>97.928</ele><time>2026-04-25T11:01:12.000Z</time><hdop>3.0</hdop><vdop>3.0</vdop><extensions><gom:speed>0.613</gom:speed></extensions></trkpt>
   <trkpt lat="59.0677510874" lon="29.9674226646"><ele>97.902</ele><time>2026-04-25T11:01:12.000Z</time><hdop>3.0</hdop><vdop>3.0</vdop><extensions><gom:speed>0.613</gom:speed></extensions></trkpt>
   <trkpt lat="59.0677596789" lon="29.9674284481"><ele>97.924</ele><time>2026-04-25T11:01:13.000Z</time><hdop>3.0</hdop><vdop>3.0</vdop><extensions><gom:speed>0.678</gom:speed></extensions></trkpt>
   <trkpt lat="59.0677681027" lon="29.9674348183"><ele>97.928</ele><time>2026-04-25T11:01:14.000Z</time><hdop>3.0</hdop><vdop>3.0</vdop><extensions><gom:speed>0.803</gom:speed></extensions></trkpt>
   <trkpt lat="59.0677775743" lon="29.9674461339"><ele>97.177</ele><time>2026-04-25T11:01:15.000Z</time><hdop>12.375</hdop><vdop>12.375</vdop><extensions><gom:speed>0.752</gom:speed></extensions></trkpt>
   <trkpt lat="59.0677852437" lon="29.9674636521"><ele>97.324</ele><time>2026-04-25T11:01:16.000Z</time><hdop>12.687</hdop><vdop>12.687</vdop><extensions><gom:speed>0.7</gom:speed></extensions></trkpt>
   <trkpt lat="59.0677923264" lon="29.9674865347"><ele>97.14</ele><time>2026-04-25T11:01:17.000Z</time><hdop>9.562</hdop><vdop>9.562</vdop><extensions><gom:speed>0.663</gom:speed></extensions></trkpt>
   <trkpt lat="59.0677905662" lon="29.9674779851"><ele>96.298</ele><time>2026-04-25T11:01:18.000Z</time><hdop>4.875</hdop><vdop>4.875</vdop><extensions><gom:speed>0.642</gom:speed></extensions></trkpt>
   <trkpt lat="59.0677887641" lon="29.9674807512"><ele>95.795</ele><time>2026-04-25T11:01:19.000Z</time><hdop>3.25</hdop><vdop>3.25</vdop><extensions><gom:speed>0.626</gom:speed></extensions></trkpt>
   <trkpt lat="59.0677840702" lon="29.9674930726"><ele>96.531</ele><time>2026-04-25T11:01:20.000Z</time><hdop>3.0</hdop><vdop>3.0</vdop><extensions><gom:speed>0.492</gom:speed></extensions></trkpt>
   <trkpt lat="59.0677857047" lon="29.96750816"><ele>96.984</ele><time>2026-04-25T11:01:21.000Z</time><hdop>3.0</hdop><vdop>3.0</vdop><extensions><gom:speed>0.451</gom:speed></extensions></trkpt>
   <trkpt lat="59.0677887641" lon="29.9675268516"><ele>97.172</ele><time>2026-04-25T11:01:22.000Z</time><hdop>3.0</hdop><vdop>3.0</vdop><extensions><gom:speed>0.595</gom:speed></extensions></trkpt>
   <trkpt lat="59.0677914463" lon="29.967544286"><ele>97.267</ele><time>2026-04-25T11:01:23.000Z</time><hdop>3.0</hdop><vdop>3.0</vdop><extensions><gom:speed>0.541</gom:speed></extensions></trkpt>
   <trkpt lat="59.0677973556" lon="29.9675547634"><ele>97.368</ele><time>2026-04-25T11:01:24.000Z</time><hdop>3.0</hdop><vdop>3.0</vdop><extensions><gom:speed>0.668</gom:speed></extensions></trkpt>
   <trkpt lat="59.067804103" lon="29.9675622233"><ele>97.419</ele><time>2026-04-25T11:01:25.000Z</time><hdop>3.0</hdop><vdop>3.0</vdop><extensions><gom:speed>0.659</gom:speed></extensions></trkpt>
   <trkpt lat="59.0678120658" lon="29.9675648217"><ele>97.527</ele><time>2026-04-25T11:01:26.000Z</time><hdop>3.0</hdop><vdop>3.0</vdop><extensions><gom:speed>0.655</gom:speed></extensions></trkpt>
   <trkpt lat="59.067819358" lon="29.967567923"><ele>97.591</ele><time>2026-04-25T11:01:27.000Z</time><hdop>3.0</hdop><vdop>3.0</vdop><extensions><gom:speed>0.622</gom:speed></extensions></trkpt>
   <trkpt lat="59.0678249739" lon="29.967573455"><ele>97.651</ele><time>2026-04-25T11:01:28.000Z</time><hdop>3.0</hdop><vdop>3.0</vdop><extensions><gom:speed>0.582</gom:speed></extensions></trkpt>
   <trkpt lat="59.0678314699" lon="29.9675779812"><ele>97.689</ele><time>2026-04-25T11:01:29.000Z</time><hdop>3.0</hdop><vdop>3.0</vdop><extensions><gom:speed>0.573</gom:speed></extensions></trkpt>
   <trkpt lat="59.0678373791" lon="29.9675839324"><ele>97.734</ele><time>2026-04-25T11:01:30.000Z</time><hdop>3.0</hdop><vdop>3.0</vdop><extensions><gom:speed>0.63</gom:speed></extensions></trkpt>
   <trkpt lat="59.0678424083" lon="29.9675880395"><ele>97.744</ele><time>2026-04-25T11:01:31.000Z</time><hdop>3.0</hdop><vdop>3.0</vdop><extensions><gom:speed>0.537</gom:speed></extensions></trkpt>
   <trkpt lat="59.0678478146" lon="29.9675911408"><ele>97.737</ele><time>2026-04-25T11:01:32.000Z</time><hdop>3.0</hdop><vdop>3.0</vdop><extensions><gom:speed>0.648</gom:speed></extensions></trkpt>
   <trkpt lat="59.0678478146" lon="29.9675911408"><ele>97.733</ele><time>2026-04-25T11:01:32.000Z</time><hdop>3.0</hdop><vdop>3.0</vdop><extensions><gom:speed>0.648</gom:speed></extensions></trkpt>
   <trkpt lat="59.0678537239" lon="29.9675955832"><ele>97.633</ele><time>2026-04-25T11:01:33.000Z</time><hdop>3.0</hdop><vdop>3.0</vdop><extensions><gom:speed>0.665</gom:speed></extensions></trkpt>
   <trkpt lat="59.0678588787" lon="29.9676000256"><ele>97.537</ele><time>2026-04-25T11:01:34.000Z</time><hdop>3.0</hdop><vdop>3.0</vdop><extensions><gom:speed>0.345</gom:speed></extensions></trkpt>
   <trkpt lat="59.0678619381" lon="29.9676010315"><ele>97.235</ele><time>2026-04-25T11:01:35.000Z</time><hdop>3.0</hdop><vdop>3.0</vdop><extensions><gom:speed>0.124</gom:speed></extensions></trkpt>
   <trkpt lat="59.0678619381" lon="29.9676010315"><ele>97.054</ele><time>2026-04-25T11:01:36.000Z</time><hdop>3.0</hdop><vdop>3.0</vdop><extensions><gom:speed>0.0</gom:speed></extensions></trkpt>
   <trkpt lat="59.0678619381" lon="29.9676010315"><ele>96.946</ele><time>2026-04-25T11:01:37.000Z</time><hdop>3.0</hdop><vdop>3.0</vdop><extensions><gom:speed>0.0</gom:speed></extensions></trkpt>
   <trkpt lat="59.0678619381" lon="29.9676010315"><ele>96.882</ele><time>2026-04-25T11:01:38.000Z</time><hdop>3.0</hdop><vdop>3.0</vdop><extensions><gom:speed>0.0</gom:speed></extensions></trkpt>
   <trkpt lat="59.0678619381" lon="29.9676010315"><ele>96.843</ele><time>2026-04-25T11:01:39.000Z</time><hdop>3.0</hdop><vdop>3.0</vdop><extensions><gom:speed>0.0</gom:speed></extensions></trkpt>
   <trkpt lat="59.0678619381" lon="29.9676010315"><ele>96.82</ele><time>2026-04-25T11:01:40.000Z</time><hdop>3.0</hdop><vdop>3.0</vdop><extensions><gom:speed>0.0</gom:speed></extensions></trkpt>
   <trkpt lat="59.0678619381" lon="29.9676010315"><ele>96.807</ele><time>2026-04-25T11:01:41.000Z</time><hdop>3.0</hdop><vdop>3.0</vdop><extensions><gom:speed>0.0</gom:speed></extensions></trkpt>
   <trkpt lat="59.0678619381" lon="29.9676010315"><ele>96.798</ele><time>2026-04-25T11:01:42.000Z</time><hdop>3.0</hdop><vdop>3.0</vdop><extensions><gom:speed>0.0</gom:speed></extensions></trkpt>
   <trkpt lat="59.0678619381" lon="29.9676010315"><ele>96.793</ele><time>2026-04-25T11:01:43.000Z</time><hdop>3.0</hdop><vdop>3.0</vdop><extensions><gom:speed>0.0</gom:speed></extensions></trkpt>
   <trkpt lat="59.0678619381" lon="29.9676010315"><ele>96.79</ele><time>2026-04-25T11:01:44.000Z</time><hdop>3.0</hdop><vdop>3.0</vdop><extensions><gom:speed>0.0</gom:speed></extensions></trkpt>
   <trkpt lat="59.0678619381" lon="29.9676010315"><ele>96.789</ele><time>2026-04-25T11:01:45.000Z</time><hdop>3.0</hdop><vdop>3.0</vdop><extensions><gom:speed>0.0</gom:speed></extensions></trkpt>
   <trkpt lat="59.0678619381" lon="29.9676010315"><ele>96.788</ele><time>2026-04-25T11:01:46.000Z</time><hdop>3.0</hdop><vdop>3.0</vdop><extensions><gom:speed>0.0</gom:speed></extensions></trkpt>
   <trkpt lat="59.0678619381" lon="29.9676010315"><ele>96.787</ele><time>2026-04-25T11:01:47.000Z</time><hdop>3.0</hdop><vdop>3.0</vdop><extensions><gom:speed>0.0</gom:speed></extensions></trkpt>
   <trkpt lat="59.0678626925" lon="29.967601702"><ele>96.904</ele><time>2026-04-25T11:01:48.000Z</time><hdop>3.0</hdop><vdop>3.0</vdop><extensions><gom:speed>0.341</gom:speed></extensions></trkpt>
   <trkpt lat="59.0678626925" lon="29.967601702"><ele>96.974</ele><time>2026-04-25T11:01:49.000Z</time><hdop>3.0</hdop><vdop>3.0</vdop><extensions><gom:speed>0.0</gom:speed></extensions></trkpt>
   <trkpt lat="59.0678636983" lon="29.967604049"><ele>97.052</ele><time>2026-04-25T11:01:50.000Z</time><hdop>3.0</hdop><vdop>3.0</vdop><extensions><gom:speed>0.391</gom:speed></extensions></trkpt>
   <trkpt lat="59.0678636983" lon="29.967604049"><ele>97.1</ele><time>2026-04-25T11:01:51.000Z</time><hdop>3.0</hdop><vdop>3.0</vdop><extensions><gom:speed>0.0</gom:speed></extensions></trkpt>
   <trkpt lat="59.0678684341" lon="29.9676082399"><ele>97.139</ele><time>2026-04-25T11:01:52.000Z</time><hdop>3.0</hdop><vdop>3.0</vdop><extensions><gom:speed>0.431</gom:speed></extensions></trkpt>
   <trkpt lat="59.0678753492" lon="29.9676150293"><ele>97.171</ele><time>2026-04-25T11:01:53.000Z</time><hdop>3.0</hdop><vdop>3.0</vdop><extensions><gom:speed>0.604</gom:speed></extensions></trkpt>
   <trkpt lat="59.0678753492" lon="29.9676150293"><ele>97.19</ele><time>2026-04-25T11:01:53.000Z</time><hdop>3.0</hdop><vdop>3.0</vdop><extensions><gom:speed>0.604</gom:speed></extensions></trkpt>
   <trkpt lat="59.0678840244" lon="29.967619304"><ele>97.2</ele><time>2026-04-25T11:01:54.000Z</time><hdop>3.187</hdop><vdop>3.187</vdop><extensions><gom:speed>0.668</gom:speed></extensions></trkpt>
   <trkpt lat="59.0678928673" lon="29.967623495"><ele>97.291</ele><time>2026-04-25T11:01:55.000Z</time><hdop>3.687</hdop><vdop>3.687</vdop><extensions><gom:speed>0.861</gom:speed></extensions></trkpt>
   <trkpt lat="59.067902297" lon="29.9676255066"><ele>97.391</ele><time>2026-04-25T11:01:56.000Z</time><hdop>3.687</hdop><vdop>3.687</vdop><extensions><gom:speed>0.814</gom:speed></extensions></trkpt>
   <trkpt lat="59.067911559" lon="29.9676286079"><ele>97.492</ele><time>2026-04-25T11:01:57.000Z</time><hdop>3.75</hdop><vdop>3.75</vdop><extensions><gom:speed>0.89</gom:speed></extensions></trkpt>
   <trkpt lat="59.0679201504" lon="29.9676366546"><ele>97.543</ele><time>2026-04-25T11:01:58.000Z</time><hdop>3.812</hdop><vdop>3.812</vdop><extensions><gom:speed>0.679</gom:speed></extensions></trkpt>
   <trkpt lat="59.0679261435" lon="29.9676482216"><ele>97.601</ele><time>2026-04-25T11:01:59.000Z</time><hdop>3.562</hdop><vdop>3.562</vdop><extensions><gom:speed>0.827</gom:speed></extensions></trkpt>
   <trkpt lat="59.0679315079" lon="29.9676597048"><ele>97.637</ele><time>2026-04-25T11:02:00.000Z</time><hdop>3.562</hdop><vdop>3.562</vdop><extensions><gom:speed>0.567</gom:speed></extensions></trkpt>
   <trkpt lat="59.0679348188" lon="29.9676675"><ele>97.689</ele><time>2026-04-25T11:02:01.000Z</time><hdop>3.437</hdop><vdop>3.437</vdop><extensions><gom:speed>0.324</gom:speed></extensions></trkpt>
   <trkpt lat="59.0679381296" lon="29.967670266"><ele>97.754</ele><time>2026-04-25T11:02:02.000Z</time><hdop>3.25</hdop><vdop>3.25</vdop><extensions><gom:speed>0.166</gom:speed></extensions></trkpt>
   <trkpt lat="59.0679380039" lon="29.9676690087"><ele>97.756</ele><time>2026-04-25T11:02:03.000Z</time><hdop>3.062</hdop><vdop>3.062</vdop><extensions><gom:speed>0.195</gom:speed></extensions></trkpt>
   <trkpt lat="59.0679380039" lon="29.9676690087"><ele>97.756</ele><time>2026-04-25T11:02:04.000Z</time><hdop>3.062</hdop><vdop>3.062</vdop><extensions><gom:speed>0.0</gom:speed></extensions></trkpt>
   <trkpt lat="59.0679380039" lon="29.9676690087"><ele>97.757</ele><time>2026-04-25T11:02:05.000Z</time><hdop>3.062</hdop><vdop>3.062</vdop><extensions><gom:speed>0.0</gom:speed></extensions></trkpt>
   <trkpt lat="59.0679380039" lon="29.9676690087"><ele>97.757</ele><time>2026-04-25T11:02:06.000Z</time><hdop>3.062</hdop><vdop>3.062</vdop><extensions><gom:speed>0.0</gom:speed></extensions></trkpt>
   <trkpt lat="59.0679380039" lon="29.9676690087"><ele>97.757</ele><time>2026-04-25T11:02:07.000Z</time><hdop>3.062</hdop><vdop>3.062</vdop><extensions><gom:speed>0.0</gom:speed></extensions></trkpt>
   <trkpt lat="59.0679380039" lon="29.9676690087"><ele>97.757</ele><time>2026-04-25T11:02:08.000Z</time><hdop>3.062</hdop><vdop>3.062</vdop><extensions><gom:speed>0.0</gom:speed></extensions></trkpt>
   <trkpt lat="59.0679380039" lon="29.9676690087"><ele>97.757</ele><time>2026-04-25T11:02:09.000Z</time><hdop>3.062</hdop><vdop>3.062</vdop><extensions><gom:speed>0.0</gom:speed></extensions></trkpt>
   <trkpt lat="59.0679380039" lon="29.9676690087"><ele>97.757</ele><time>2026-04-25T11:02:10.000Z</time><hdop>3.062</hdop><vdop>3.062</vdop><extensions><gom:speed>0.0</gom:speed></extensions></trkpt>
   <trkpt lat="59.0679380039" lon="29.9676690087"><ele>97.757</ele><time>2026-04-25T11:02:11.000Z</time><hdop>3.062</hdop><vdop>3.062</vdop><extensions><gom:speed>0.0</gom:speed></extensions></trkpt>
   <trkpt lat="59.0679380039" lon="29.9676690087"><ele>97.757</ele><time>2026-04-25T11:02:12.000Z</time><hdop>3.062</hdop><vdop>3.062</vdop><extensions><gom:speed>0.0</gom:speed></extensions></trkpt>
   <trkpt lat="59.0679380039" lon="29.9676690087"><ele>97.757</ele><time>2026-04-25T11:02:13.000Z</time><hdop>3.062</hdop><vdop>3.062</vdop><extensions><gom:speed>0.0</gom:speed></extensions></trkpt>
   <trkpt lat="59.0679380039" lon="29.9676690087"><ele>97.757</ele><time>2026-04-25T11:02:13.000Z</time><hdop>3.062</hdop><vdop>3.062</vdop><extensions><gom:speed>0.0</gom:speed></extensions></trkpt>
   <trkpt lat="59.0679380039" lon="29.9676690087"><ele>97.757</ele><time>2026-04-25T11:02:14.000Z</time><hdop>3.062</hdop><vdop>3.062</vdop><extensions><gom:speed>0.0</gom:speed></extensions></trkpt>
   <trkpt lat="59.0679380039" lon="29.9676690087"><ele>97.757</ele><time>2026-04-25T11:02:15.000Z</time><hdop>3.062</hdop><vdop>3.062</vdop><extensions><gom:speed>0.0</gom:speed></extensions></trkpt>
   <trkpt lat="59.0679380039" lon="29.9676690087"><ele>97.757</ele><time>2026-04-25T11:02:16.000Z</time><hdop>3.062</hdop><vdop>3.062</vdop><extensions><gom:speed>0.0</gom:speed></extensions></trkpt>
   <trkpt lat="59.0679380039" lon="29.9676690087"><ele>97.757</ele><time>2026-04-25T11:02:17.000Z</time><hdop>3.062</hdop><vdop>3.062</vdop><extensions><gom:speed>0.0</gom:speed></extensions></trkpt>
   <trkpt lat="59.0679380039" lon="29.9676690087"><ele>97.757</ele><time>2026-04-25T11:02:18.000Z</time><hdop>3.062</hdop><vdop>3.062</vdop><extensions><gom:speed>0.0</gom:speed></extensions></trkpt>
   <trkpt lat="59.0679380039" lon="29.9676690087"><ele>97.757</ele><time>2026-04-25T11:02:19.000Z</time><hdop>3.062</hdop><vdop>3.062</vdop><extensions><gom:speed>0.0</gom:speed></extensions></trkpt>
   <trkpt lat="59.0679380039" lon="29.9676690087"><ele>97.757</ele><time>2026-04-25T11:02:20.000Z</time><hdop>3.062</hdop><vdop>3.062</vdop><extensions><gom:speed>0.0</gom:speed></extensions></trkpt>
   <trkpt lat="59.0679380039" lon="29.9676690087"><ele>97.757</ele><time>2026-04-25T11:02:21.000Z</time><hdop>3.062</hdop><vdop>3.062</vdop><extensions><gom:speed>0.0</gom:speed></extensions></trkpt>
   <trkpt lat="59.0679380039" lon="29.9676690087"><ele>97.757</ele><time>2026-04-25T11:02:22.000Z</time><hdop>3.062</hdop><vdop>3.062</vdop><extensions><gom:speed>0.0</gom:speed></extensions></trkpt>
   <trkpt lat="59.0679380039" lon="29.9676690087"><ele>97.757</ele><time>2026-04-25T11:02:23.000Z</time><hdop>3.062</hdop><vdop>3.062</vdop><extensions><gom:speed>0.0</gom:speed></extensions></trkpt>
   <trkpt lat="59.0679380039" lon="29.9676690087"><ele>97.757</ele><time>2026-04-25T11:02:24.000Z</time><hdop>3.062</hdop><vdop>3.062</vdop><extensions><gom:speed>0.0</gom:speed></extensions></trkpt>
   <trkpt lat="59.0679380039" lon="29.9676690087"><ele>97.757</ele><time>2026-04-25T11:02:25.000Z</time><hdop>3.062</hdop><vdop>3.062</vdop><extensions><gom:speed>0.0</gom:speed></extensions></trkpt>
   <trkpt lat="59.0679380039" lon="29.9676690087"><ele>97.757</ele><time>2026-04-25T11:02:26.000Z</time><hdop>3.062</hdop><vdop>3.062</vdop><extensions><gom:speed>0.0</gom:speed></extensions></trkpt>
   <trkpt lat="59.0679380039" lon="29.9676690087"><ele>97.757</ele><time>2026-04-25T11:02:27.000Z</time><hdop>3.062</hdop><vdop>3.062</vdop><extensions><gom:speed>0.0</gom:speed></extensions></trkpt>
   <trkpt lat="59.0679380039" lon="29.9676690087"><ele>97.757</ele><time>2026-04-25T11:02:28.000Z</time><hdop>3.062</hdop><vdop>3.062</vdop><extensions><gom:speed>0.0</gom:speed></extensions></trkpt>
   <trkpt lat="59.0679380039" lon="29.9676690087"><ele>97.757</ele><time>2026-04-25T11:02:29.000Z</time><hdop>3.062</hdop><vdop>3.062</vdop><extensions><gom:speed>0.0</gom:speed></extensions></trkpt>
   <trkpt lat="59.0679380039" lon="29.9676690087"><ele>97.757</ele><time>2026-04-25T11:02:30.000Z</time><hdop>3.062</hdop><vdop>3.062</vdop><extensions><gom:speed>0.0</gom:speed></extensions></trkpt>
   <trkpt lat="59.0679380039" lon="29.9676690087"><ele>97.757</ele><time>2026-04-25T11:02:31.000Z</time><hdop>3.062</hdop><vdop>3.062</vdop><extensions><gom:speed>0.0</gom:speed></extensions></trkpt>
   <trkpt lat="59.0679380039" lon="29.9676690087"><ele>97.757</ele><time>2026-04-25T11:02:32.000Z</time><hdop>3.062</hdop><vdop>3.062</vdop><extensions><gom:speed>0.0</gom:speed></extensions></trkpt>
   <trkpt lat="59.0679380039" lon="29.9676690087"><ele>97.757</ele><time>2026-04-25T11:02:33.000Z</time><hdop>3.062</hdop><vdop>3.062</vdop><extensions><gom:speed>0.0</gom:speed></extensions></trkpt>
   <trkpt lat="59.0679380039" lon="29.9676690087"><ele>97.757</ele><time>2026-04-25T11:02:33.000Z</time><hdop>3.062</hdop><vdop>3.062</vdop><extensions><gom:speed>0.0</gom:speed></extensions></trkpt>
   <trkpt lat="59.0679380039" lon="29.9676690087"><ele>97.757</ele><time>2026-04-25T11:02:34.000Z</time><hdop>3.062</hdop><vdop>3.062</vdop><extensions><gom:speed>0.0</gom:speed></extensions></trkpt>
   <trkpt lat="59.0679380039" lon="29.9676690087"><ele>97.757</ele><time>2026-04-25T11:02:35.000Z</time><hdop>3.062</hdop><vdop>3.062</vdop><extensions><gom:speed>0.0</gom:speed></extensions></trkpt>
   <trkpt lat="59.0679380039" lon="29.9676690087"><ele>97.757</ele><time>2026-04-25T11:02:36.000Z</time><hdop>3.062</hdop><vdop>3.062</vdop><extensions><gom:speed>0.0</gom:speed></extensions></trkpt>
   <trkpt lat="59.0679380039" lon="29.9676690087"><ele>97.757</ele><time>2026-04-25T11:02:37.000Z</time><hdop>3.062</hdop><vdop>3.062</vdop><extensions><gom:speed>0.0</gom:speed></extensions></trkpt>
   <trkpt lat="59.0679380039" lon="29.9676690087"><ele>97.757</ele><time>2026-04-25T11:02:38.000Z</time><hdop>3.062</hdop><vdop>3.062</vdop><extensions><gom:speed>0.0</gom:speed></extensions></trkpt>
   <trkpt lat="59.0679380039" lon="29.9676690087"><ele>97.757</ele><time>2026-04-25T11:02:39.000Z</time><hdop>3.062</hdop><vdop>3.062</vdop><extensions><gom:speed>0.0</gom:speed></extensions></trkpt>
   <trkpt lat="59.0679380039" lon="29.9676690087"><ele>97.757</ele><time>2026-04-25T11:02:40.000Z</time><hdop>3.062</hdop><vdop>3.062</vdop><extensions><gom:speed>0.0</gom:speed></extensions></trkpt>
   <trkpt lat="59.0679380039" lon="29.9676690087"><ele>97.757</ele><time>2026-04-25T11:02:41.000Z</time><hdop>3.062</hdop><vdop>3.062</vdop><extensions><gom:speed>0.0</gom:speed></extensions></trkpt>
   <trkpt lat="59.0679380039" lon="29.9676690087"><ele>97.757</ele><time>2026-04-25T11:02:42.000Z</time><hdop>3.062</hdop><vdop>3.062</vdop><extensions><gom:speed>0.0</gom:speed></extensions></trkpt>
   <trkpt lat="59.0679380039" lon="29.9676690087"><ele>97.757</ele><time>2026-04-25T11:02:43.000Z</time><hdop>3.062</hdop><vdop>3.062</vdop><extensions><gom:speed>0.0</gom:speed></extensions></trkpt>
   <trkpt lat="59.0679380039" lon="29.9676690087"><ele>97.757</ele><time>2026-04-25T11:02:44.000Z</time><hdop>3.062</hdop><vdop>3.062</vdop><extensions><gom:speed>0.0</gom:speed></extensions></trkpt>
   <trkpt lat="59.0679408118" lon="29.9676669971"><ele>97.602</ele><time>2026-04-25T11:02:45.000Z</time><hdop>3.0</hdop><vdop>3.0</vdop><extensions><gom:speed>0.33</gom:speed></extensions></trkpt>
   <trkpt lat="59.0679450866" lon="29.9676706013"><ele>97.56</ele><time>2026-04-25T11:02:46.000Z</time><hdop>3.75</hdop><vdop>3.75</vdop><extensions><gom:speed>0.485</gom:speed></extensions></trkpt>
   <trkpt lat="59.067952295" lon="29.9676737864"><ele>97.507</ele><time>2026-04-25T11:02:47.000Z</time><hdop>3.562</hdop><vdop>3.562</vdop><extensions><gom:speed>0.616</gom:speed></extensions></trkpt>
   <trkpt lat="59.0679599645" lon="29.9676776421"><ele>97.421</ele><time>2026-04-25T11:02:48.000Z</time><hdop>3.5</hdop><vdop>3.5</vdop><extensions><gom:speed>0.644</gom:speed></extensions></trkpt>
   <trkpt lat="59.0679711962" lon="29.9676859402"><ele>97.252</ele><time>2026-04-25T11:02:49.000Z</time><hdop>3.75</hdop><vdop>3.75</vdop><extensions><gom:speed>0.798</gom:speed></extensions></trkpt>
   <trkpt lat="59.0679795781" lon="29.9676921428"><ele>97.145</ele><time>2026-04-25T11:02:50.000Z</time><hdop>3.437</hdop><vdop>3.437</vdop><extensions><gom:speed>0.591</gom:speed></extensions></trkpt>
   <trkpt lat="59.0679885468" lon="29.9676988483"><ele>97.016</ele><time>2026-04-25T11:02:51.000Z</time><hdop>3.375</hdop><vdop>3.375</vdop><extensions><gom:speed>0.845</gom:speed></extensions></trkpt>
   <trkpt lat="59.0680005329" lon="29.9677087389"><ele>96.89</ele><time>2026-04-25T11:02:52.000Z</time><hdop>3.625</hdop><vdop>3.625</vdop><extensions><gom:speed>0.739</gom:speed></extensions></trkpt>
   <trkpt lat="59.0680094596" lon="29.9677181267"><ele>96.771</ele><time>2026-04-25T11:02:53.000Z</time><hdop>3.875</hdop><vdop>3.875</vdop><extensions><gom:speed>0.643</gom:speed></extensions></trkpt>
   <trkpt lat="59.0680094596" lon="29.9677181267"><ele>96.7</ele><time>2026-04-25T11:02:53.000Z</time><hdop>3.875</hdop><vdop>3.875</vdop><extensions><gom:speed>0.643</gom:speed></extensions></trkpt>
   <trkpt lat="59.0680185121" lon="29.9677252513"><ele>96.695</ele><time>2026-04-25T11:02:54.000Z</time><hdop>4.062</hdop><vdop>4.062</vdop><extensions><gom:speed>0.745</gom:speed></extensions></trkpt>
   <trkpt lat="59.0680287799" lon="29.9677277658"><ele>96.679</ele><time>2026-04-25T11:02:55.000Z</time><hdop>4.125</hdop><vdop>4.125</vdop><extensions><gom:speed>1.033</gom:speed></extensions></trkpt>
   <trkpt lat="59.0680408498" lon="29.9677244131"><ele>96.721</ele><time>2026-04-25T11:02:56.000Z</time><hdop>3.812</hdop><vdop>3.812</vdop><extensions><gom:speed>0.978</gom:speed></extensions></trkpt>
   <trkpt lat="59.0680507405" lon="29.9677218985"><ele>96.736</ele><time>2026-04-25T11:02:57.000Z</time><hdop>3.562</hdop><vdop>3.562</vdop><extensions><gom:speed>0.954</gom:speed></extensions></trkpt>
   <trkpt lat="59.068061637" lon="29.9677165341"><ele>96.858</ele><time>2026-04-25T11:02:58.000Z</time><hdop>3.812</hdop><vdop>3.812</vdop><extensions><gom:speed>0.875</gom:speed></extensions></trkpt>
   <trkpt lat="59.0680712761" lon="29.9677134328"><ele>96.957</ele><time>2026-04-25T11:02:59.000Z</time><hdop>3.75</hdop><vdop>3.75</vdop><extensions><gom:speed>0.833</gom:speed></extensions></trkpt>
   <trkpt lat="59.0680812087" lon="29.9677146901"><ele>97.042</ele><time>2026-04-25T11:03:00.000Z</time><hdop>4.187</hdop><vdop>4.187</vdop><extensions><gom:speed>0.784</gom:speed></extensions></trkpt>
   <trkpt lat="59.068090345" lon="29.9677158635"><ele>97.157</ele><time>2026-04-25T11:03:01.000Z</time><hdop>4.125</hdop><vdop>4.125</vdop><extensions><gom:speed>0.607</gom:speed></extensions></trkpt>
   <trkpt lat="59.0680990622" lon="29.9677173723"><ele>97.266</ele><time>2026-04-25T11:03:02.000Z</time><hdop>3.812</hdop><vdop>3.812</vdop><extensions><gom:speed>0.78</gom:speed></extensions></trkpt>
   <trkpt lat="59.0681091204" lon="29.9677136004"><ele>97.399</ele><time>2026-04-25T11:03:03.000Z</time><hdop>3.5</hdop><vdop>3.5</vdop><extensions><gom:speed>0.931</gom:speed></extensions></trkpt>
   <trkpt lat="59.0681191787" lon="29.9677094933"><ele>97.565</ele><time>2026-04-25T11:03:04.000Z</time><hdop>3.312</hdop><vdop>3.312</vdop><extensions><gom:speed>0.875</gom:speed></extensions></trkpt>
   <trkpt lat="59.0681277283" lon="29.9677071464"><ele>97.715</ele><time>2026-04-25T11:03:05.000Z</time><hdop>3.375</hdop><vdop>3.375</vdop><extensions><gom:speed>0.741</gom:speed></extensions></trkpt>
   <trkpt lat="59.0681350205" lon="29.9677042965"><ele>96.332</ele><time>2026-04-25T11:03:06.000Z</time><hdop>2.375</hdop><vdop>2.375</vdop><extensions><gom:speed>0.652</gom:speed></extensions></trkpt>
   <trkpt lat="59.0681388343" lon="29.9676995188"><ele>95.996</ele><time>2026-04-25T11:03:07.000Z</time><hdop>1.25</hdop><vdop>1.25</vdop><extensions><gom:speed>0.594</gom:speed></extensions></trkpt>
   <trkpt lat="59.0681447854" lon="29.9676968366"><ele>95.727</ele><time>2026-04-25T11:03:08.000Z</time><hdop>1.437</hdop><vdop>1.437</vdop><extensions><gom:speed>0.624</gom:speed></extensions></trkpt>
   <trkpt lat="59.0681492698" lon="29.9676946573"><ele>95.059</ele><time>2026-04-25T11:03:09.000Z</time><hdop>1.562</hdop><vdop>1.562</vdop><extensions><gom:speed>0.486</gom:speed></extensions></trkpt>
   <trkpt lat="59.068151491" lon="29.9676885385"><ele>94.793</ele><time>2026-04-25T11:03:10.000Z</time><hdop>1.687</hdop><vdop>1.687</vdop><extensions><gom:speed>0.49</gom:speed></extensions></trkpt>
   <trkpt lat="59.0681601662" lon="29.9676902987"><ele>94.762</ele><time>2026-04-25T11:03:11.000Z</time><hdop>1.812</hdop><vdop>1.812</vdop><extensions><gom:speed>0.633</gom:speed></extensions></trkpt>
   <trkpt lat="59.0681627227" lon="29.9676956632"><ele>94.596</ele><time>2026-04-25T11:03:12.000Z</time><hdop>2.125</hdop><vdop>2.125</vdop><extensions><gom:speed>0.469</gom:speed></extensions></trkpt>
   <trkpt lat="59.0681627227" lon="29.9676956632"><ele>94.497</ele><time>2026-04-25T11:03:12.000Z</time><hdop>2.125</hdop><vdop>2.125</vdop><extensions><gom:speed>0.469</gom:speed></extensions></trkpt>
   <trkpt lat="59.0681699731" lon="29.9676804081"><ele>94.323</ele><time>2026-04-25T11:03:13.000Z</time><hdop>2.125</hdop><vdop>2.125</vdop><extensions><gom:speed>0.56</gom:speed></extensions></trkpt>
   <trkpt lat="59.068177391" lon="29.9676829227"><ele>94.242</ele><time>2026-04-25T11:03:14.000Z</time><hdop>2.375</hdop><vdop>2.375</vdop><extensions><gom:speed>0.418</gom:speed></extensions></trkpt>
   <trkpt lat="59.0681807019" lon="29.9676935677"><ele>94.242</ele><time>2026-04-25T11:03:15.000Z</time><hdop>2.5</hdop><vdop>2.5</vdop><extensions><gom:speed>0.748</gom:speed></extensions></trkpt>
   <trkpt lat="59.0681907602" lon="29.9676988483"><ele>94.285</ele><time>2026-04-25T11:03:16.000Z</time><hdop>2.625</hdop><vdop>2.625</vdop><extensions><gom:speed>0.684</gom:speed></extensions></trkpt>
   <trkpt lat="59.0681979686" lon="29.9677104153"><ele>94.319</ele><time>2026-04-25T11:03:17.000Z</time><hdop>2.875</hdop><vdop>2.875</vdop><extensions><gom:speed>0.466</gom:speed></extensions></trkpt>
   <trkpt lat="59.0682012376" lon="29.9677163665"><ele>94.319</ele><time>2026-04-25T11:03:18.000Z</time><hdop>3.062</hdop><vdop>3.062</vdop><extensions><gom:speed>0.14</gom:speed></extensions></trkpt>
   <trkpt lat="59.0682094099" lon="29.9677191325"><ele>94.224</ele><time>2026-04-25T11:03:19.000Z</time><hdop>2.687</hdop><vdop>2.687</vdop><extensions><gom:speed>0.461</gom:speed></extensions></trkpt>
   <trkpt lat="59.0682151934" lon="29.9677251675"><ele>94.231</ele><time>2026-04-25T11:03:20.000Z</time><hdop>2.937</hdop><vdop>2.937</vdop><extensions><gom:speed>0.507</gom:speed></extensions></trkpt>
   <trkpt lat="59.0682237849" lon="29.9677219823"><ele>94.281</ele><time>2026-04-25T11:03:21.000Z</time><hdop>3.062</hdop><vdop>3.062</vdop><extensions><gom:speed>0.499</gom:speed></extensions></trkpt>
   <trkpt lat="59.0682322925" lon="29.9677249998"><ele>94.526</ele><time>2026-04-25T11:03:22.000Z</time><hdop>2.5</hdop><vdop>2.5</vdop><extensions><gom:speed>0.596</gom:speed></extensions></trkpt>
   <trkpt lat="59.0682409678" lon="29.967727682"><ele>94.798</ele><time>2026-04-25T11:03:23.000Z</time><hdop>2.5</hdop><vdop>2.5</vdop><extensions><gom:speed>0.299</gom:speed></extensions></trkpt>
   <trkpt lat="59.068243189" lon="29.967731873"><ele>94.985</ele><time>2026-04-25T11:03:24.000Z</time><hdop>2.562</hdop><vdop>2.562</vdop><extensions><gom:speed>0.013</gom:speed></extensions></trkpt>
   <trkpt lat="59.068249224" lon="29.9677306995"><ele>96.096</ele><time>2026-04-25T11:03:25.000Z</time><hdop>3.375</hdop><vdop>3.375</vdop><extensions><gom:speed>0.108</gom:speed></extensions></trkpt>
   <trkpt lat="59.0682581507" lon="29.9677285202"><ele>96.761</ele><time>2026-04-25T11:03:26.000Z</time><hdop>3.375</hdop><vdop>3.375</vdop><extensions><gom:speed>0.0</gom:speed></extensions></trkpt>
   <trkpt lat="59.0682658201" lon="29.9677264247"><ele>97.157</ele><time>2026-04-25T11:03:27.000Z</time><hdop>3.375</hdop><vdop>3.375</vdop><extensions><gom:speed>0.0</gom:speed></extensions></trkpt>
   <trkpt lat="59.0682734057" lon="29.9677302804"><ele>97.397</ele><time>2026-04-25T11:03:28.000Z</time><hdop>3.375</hdop><vdop>3.375</vdop><extensions><gom:speed>0.579</gom:speed></extensions></trkpt>
   <trkpt lat="59.0682831707" lon="29.9677370698"><ele>97.576</ele><time>2026-04-25T11:03:29.000Z</time><hdop>3.375</hdop><vdop>3.375</vdop><extensions><gom:speed>0.664</gom:speed></extensions></trkpt>
   <trkpt lat="59.0682900857" lon="29.9677424342"><ele>97.7</ele><time>2026-04-25T11:03:30.000Z</time><hdop>3.0</hdop><vdop>3.0</vdop><extensions><gom:speed>0.739</gom:speed></extensions></trkpt>
   <trkpt lat="59.0682986772" lon="29.9677474633"><ele>97.823</ele><time>2026-04-25T11:03:31.000Z</time><hdop>3.0</hdop><vdop>3.0</vdop><extensions><gom:speed>0.701</gom:speed></extensions></trkpt>
   <trkpt lat="59.0683055503" lon="29.9677537497"><ele>97.911</ele><time>2026-04-25T11:03:32.000Z</time><hdop>3.0</hdop><vdop>3.0</vdop><extensions><gom:speed>0.6</gom:speed></extensions></trkpt>
   <trkpt lat="59.0683055503" lon="29.9677537497"><ele>97.964</ele><time>2026-04-25T11:03:32.000Z</time><hdop>3.0</hdop><vdop>3.0</vdop><extensions><gom:speed>0.6</gom:speed></extensions></trkpt>
   <trkpt lat="59.0683119625" lon="29.9677612935"><ele>98.031</ele><time>2026-04-25T11:03:33.000Z</time><hdop>3.0</hdop><vdop>3.0</vdop><extensions><gom:speed>0.752</gom:speed></extensions></trkpt>
   <trkpt lat="59.0683196319" lon="29.9677671608"><ele>98.091</ele><time>2026-04-25T11:03:34.000Z</time><hdop>3.0</hdop><vdop>3.0</vdop><extensions><gom:speed>0.829</gom:speed></extensions></trkpt>
   <trkpt lat="59.0683278043" lon="29.9677713517"><ele>98.163</ele><time>2026-04-25T11:03:35.000Z</time><hdop>3.0</hdop><vdop>3.0</vdop><extensions><gom:speed>0.752</gom:speed></extensions></trkpt>
   <trkpt lat="59.0683363957" lon="29.9677727767"><ele>98.198</ele><time>2026-04-25T11:03:36.000Z</time><hdop>3.0</hdop><vdop>3.0</vdop><extensions><gom:speed>0.814</gom:speed></extensions></trkpt>
   <trkpt lat="59.0683447776" lon="29.9677784764"><ele>98.234</ele><time>2026-04-25T11:03:37.000Z</time><hdop>3.0</hdop><vdop>3.0</vdop><extensions><gom:speed>0.836</gom:speed></extensions></trkpt>
   <trkpt lat="59.068352028" lon="29.9677862715"><ele>98.252</ele><time>2026-04-25T11:03:38.000Z</time><hdop>3.0</hdop><vdop>3.0</vdop><extensions><gom:speed>0.621</gom:speed></extensions></trkpt>
   <trkpt lat="59.068352028" lon="29.9677862715"><ele>98.263</ele><time>2026-04-25T11:03:39.000Z</time><hdop>3.0</hdop><vdop>3.0</vdop><extensions><gom:speed>0.0</gom:speed></extensions></trkpt>
   <trkpt lat="59.0683573086" lon="29.9677923065"><ele>98.261</ele><time>2026-04-25T11:03:40.000Z</time><hdop>3.0</hdop><vdop>3.0</vdop><extensions><gom:speed>0.164</gom:speed></extensions></trkpt>
   <trkpt lat="59.0683545426" lon="29.9677989282"><ele>98.261</ele><time>2026-04-25T11:03:41.000Z</time><hdop>3.0</hdop><vdop>3.0</vdop><extensions><gom:speed>0.11</gom:speed></extensions></trkpt>
   <trkpt lat="59.0683545426" lon="29.9677989282"><ele>98.261</ele><time>2026-04-25T11:03:42.000Z</time><hdop>3.0</hdop><vdop>3.0</vdop><extensions><gom:speed>0.0</gom:speed></extensions></trkpt>
   <trkpt lat="59.0683545426" lon="29.9677989282"><ele>98.261</ele><time>2026-04-25T11:03:43.000Z</time><hdop>3.0</hdop><vdop>3.0</vdop><extensions><gom:speed>0.0</gom:speed></extensions></trkpt>
   <trkpt lat="59.0683545426" lon="29.9677989282"><ele>98.261</ele><time>2026-04-25T11:03:44.000Z</time><hdop>3.0</hdop><vdop>3.0</vdop><extensions><gom:speed>0.0</gom:speed></extensions></trkpt>
   <trkpt lat="59.0683545426" lon="29.9677989282"><ele>98.261</ele><time>2026-04-25T11:03:45.000Z</time><hdop>3.0</hdop><vdop>3.0</vdop><extensions><gom:speed>0.0</gom:speed></extensions></trkpt>
   <trkpt lat="59.0683545426" lon="29.9677989282"><ele>98.261</ele><time>2026-04-25T11:03:46.000Z</time><hdop>3.0</hdop><vdop>3.0</vdop><extensions><gom:speed>0.0</gom:speed></extensions></trkpt>
   <trkpt lat="59.0683545426" lon="29.9677989282"><ele>98.261</ele><time>2026-04-25T11:03:47.000Z</time><hdop>3.0</hdop><vdop>3.0</vdop><extensions><gom:speed>0.0</gom:speed></extensions></trkpt>
   <trkpt lat="59.0683545426" lon="29.9677989282"><ele>98.261</ele><time>2026-04-25T11:03:48.000Z</time><hdop>3.0</hdop><vdop>3.0</vdop><extensions><gom:speed>0.0</gom:speed></extensions></trkpt>
   <trkpt lat="59.0683545426" lon="29.9677989282"><ele>98.261</ele><time>2026-04-25T11:03:49.000Z</time><hdop>3.0</hdop><vdop>3.0</vdop><extensions><gom:speed>0.0</gom:speed></extensions></trkpt>
   <trkpt lat="59.0683545426" lon="29.9677989282"><ele>98.261</ele><time>2026-04-25T11:03:50.000Z</time><hdop>3.0</hdop><vdop>3.0</vdop><extensions><gom:speed>0.0</gom:speed></extensions></trkpt>
   <trkpt lat="59.0683545426" lon="29.9677989282"><ele>98.261</ele><time>2026-04-25T11:03:51.000Z</time><hdop>3.0</hdop><vdop>3.0</vdop><extensions><gom:speed>0.0</gom:speed></extensions></trkpt>
   <trkpt lat="59.0683545426" lon="29.9677989282"><ele>98.26</ele><time>2026-04-25T11:03:52.000Z</time><hdop>3.0</hdop><vdop>3.0</vdop><extensions><gom:speed>0.0</gom:speed></extensions></trkpt>
   <trkpt lat="59.0683545426" lon="29.9677989282"><ele>98.26</ele><time>2026-04-25T11:03:53.000Z</time><hdop>3.0</hdop><vdop>3.0</vdop><extensions><gom:speed>0.0</gom:speed></extensions></trkpt>
   <trkpt lat="59.0683545426" lon="29.9677989282"><ele>98.26</ele><time>2026-04-25T11:03:54.000Z</time><hdop>3.0</hdop><vdop>3.0</vdop><extensions><gom:speed>0.0</gom:speed></extensions></trkpt>
   <trkpt lat="59.0683545426" lon="29.9677989282"><ele>98.26</ele><time>2026-04-25T11:03:55.000Z</time><hdop>3.0</hdop><vdop>3.0</vdop><extensions><gom:speed>0.0</gom:speed></extensions></trkpt>
   <trkpt lat="59.0683594041" lon="29.9678021971"><ele>98.284</ele><time>2026-04-25T11:03:56.000Z</time><hdop>3.312</hdop><vdop>3.312</vdop><extensions><gom:speed>0.486</gom:speed></extensions></trkpt>
   <trkpt lat="59.0683594041" lon="29.9678021971"><ele>98.299</ele><time>2026-04-25T11:03:56.000Z</time><hdop>3.312</hdop><vdop>3.312</vdop><extensions><gom:speed>0.486</gom:speed></extensions></trkpt>
   <trkpt lat="59.0683662772" lon="29.967808735"><ele>98.329</ele><time>2026-04-25T11:03:57.000Z</time><hdop>3.0</hdop><vdop>3.0</vdop><extensions><gom:speed>0.7</gom:speed></extensions></trkpt>
   <trkpt lat="59.0683744077" lon="29.9678156082"><ele>98.355</ele><time>2026-04-25T11:03:58.000Z</time><hdop>3.0</hdop><vdop>3.0</vdop><extensions><gom:speed>0.601</gom:speed></extensions></trkpt>
   <trkpt lat="59.0683827477" lon="29.9678200506"><ele>98.4</ele><time>2026-04-25T11:03:59.000Z</time><hdop>3.0</hdop><vdop>3.0</vdop><extensions><gom:speed>0.697</gom:speed></extensions></trkpt>
   <trkpt lat="59.0683916325" lon="29.9678229005"><ele>98.45</ele><time>2026-04-25T11:04:00.000Z</time><hdop>3.0</hdop><vdop>3.0</vdop><extensions><gom:speed>0.583</gom:speed></extensions></trkpt>
   <trkpt lat="59.0683995953" lon="29.9678270914"><ele>98.488</ele><time>2026-04-25T11:04:01.000Z</time><hdop>3.0</hdop><vdop>3.0</vdop><extensions><gom:speed>0.682</gom:speed></extensions></trkpt>
   <trkpt lat="59.0684092764" lon="29.9678340484"><ele>98.52</ele><time>2026-04-25T11:04:02.000Z</time><hdop>3.0</hdop><vdop>3.0</vdop><extensions><gom:speed>0.937</gom:speed></extensions></trkpt>
   <trkpt lat="59.0684193347" lon="29.9678412568"><ele>98.389</ele><time>2026-04-25T11:04:03.000Z</time><hdop>3.0</hdop><vdop>3.0</vdop><extensions><gom:speed>0.669</gom:speed></extensions></trkpt>
   <trkpt lat="59.0684295606" lon="29.9678471242"><ele>98.154</ele><time>2026-04-25T11:04:04.000Z</time><hdop>3.0</hdop><vdop>3.0</vdop><extensions><gom:speed>0.744</gom:speed></extensions></trkpt>
   <trkpt lat="59.0684393255" lon="29.967853662"><ele>97.898</ele><time>2026-04-25T11:04:05.000Z</time><hdop>3.0</hdop><vdop>3.0</vdop><extensions><gom:speed>0.763</gom:speed></extensions></trkpt>
   <trkpt lat="59.0684490066" lon="29.9678576015"><ele>97.636</ele><time>2026-04-25T11:04:06.000Z</time><hdop>3.0</hdop><vdop>3.0</vdop><extensions><gom:speed>0.56</gom:speed></extensions></trkpt>
   <trkpt lat="59.068455754" lon="29.9678594455"><ele>97.541</ele><time>2026-04-25T11:04:07.000Z</time><hdop>3.0</hdop><vdop>3.0</vdop><extensions><gom:speed>0.74</gom:speed></extensions></trkpt>
   <trkpt lat="59.0684624177" lon="29.9678585235"><ele>97.521</ele><time>2026-04-25T11:04:08.000Z</time><hdop>3.0</hdop><vdop>3.0</vdop><extensions><gom:speed>0.489</gom:speed></extensions></trkpt>
   <trkpt lat="59.0684676983" lon="29.9678538297"><ele>97.522</ele><time>2026-04-25T11:04:09.000Z</time><hdop>3.0</hdop><vdop>3.0</vdop><extensions><gom:speed>0.522</gom:speed></extensions></trkpt>
   <trkpt lat="59.0684729789" lon="29.9678466212"><ele>97.529</ele><time>2026-04-25T11:04:10.000Z</time><hdop>3.0</hdop><vdop>3.0</vdop><extensions><gom:speed>0.6</gom:speed></extensions></trkpt>
   <trkpt lat="59.0684788043" lon="29.9678394128"><ele>97.53</ele><time>2026-04-25T11:04:11.000Z</time><hdop>3.0</hdop><vdop>3.0</vdop><extensions><gom:speed>0.561</gom:speed></extensions></trkpt>
   <trkpt lat="59.0684836239" lon="29.9678317853"><ele>97.577</ele><time>2026-04-25T11:04:12.000Z</time><hdop>3.0</hdop><vdop>3.0</vdop><extensions><gom:speed>0.592</gom:speed></extensions></trkpt>
   <trkpt lat="59.0684836239" lon="29.9678317853"><ele>97.606</ele><time>2026-04-25T11:04:12.000Z</time><hdop>3.0</hdop><vdop>3.0</vdop><extensions><gom:speed>0.592</gom:speed></extensions></trkpt>
   <trkpt lat="59.0684902875" lon="29.9678246606"><ele>97.569</ele><time>2026-04-25T11:04:13.000Z</time><hdop>3.0</hdop><vdop>3.0</vdop><extensions><gom:speed>0.635</gom:speed></extensions></trkpt>
   <trkpt lat="59.0684956519" lon="29.9678172008"><ele>97.255</ele><time>2026-04-25T11:04:14.000Z</time><hdop>1.187</hdop><vdop>1.187</vdop><extensions><gom:speed>0.507</gom:speed></extensions></trkpt>
   <trkpt lat="59.0685009325" lon="29.9678097409"><ele>96.825</ele><time>2026-04-25T11:04:15.000Z</time><hdop>1.687</hdop><vdop>1.687</vdop><extensions><gom:speed>0.534</gom:speed></extensions></trkpt>
   <trkpt lat="59.0685010582" lon="29.9678055499"><ele>96.2</ele><time>2026-04-25T11:04:16.000Z</time><hdop>2.0</hdop><vdop>2.0</vdop><extensions><gom:speed>0.449</gom:speed></extensions></trkpt>
   <trkpt lat="59.0685055845" lon="29.9677936476"><ele>95.901</ele><time>2026-04-25T11:04:17.000Z</time><hdop>2.625</hdop><vdop>2.625</vdop><extensions><gom:speed>0.239</gom:speed></extensions></trkpt>
   <trkpt lat="59.0685066322" lon="29.9677875288"><ele>95.776</ele><time>2026-04-25T11:04:18.000Z</time><hdop>3.5</hdop><vdop>3.5</vdop><extensions><gom:speed>0.138</gom:speed></extensions></trkpt>
   <trkpt lat="59.0685091468" lon="29.9677854333"><ele>95.852</ele><time>2026-04-25T11:04:19.000Z</time><hdop>3.937</hdop><vdop>3.937</vdop><extensions><gom:speed>0.409</gom:speed></extensions></trkpt>
   <trkpt lat="59.0685134635" lon="29.9677716032"><ele>96.172</ele><time>2026-04-25T11:04:20.000Z</time><hdop>4.062</hdop><vdop>4.062</vdop><extensions><gom:speed>0.587</gom:speed></extensions></trkpt>
   <trkpt lat="59.0685148465" lon="29.9677664064"><ele>96.207</ele><time>2026-04-25T11:04:21.000Z</time><hdop>3.937</hdop><vdop>3.937</vdop><extensions><gom:speed>0.612</gom:speed></extensions></trkpt>
   <trkpt lat="59.0685219292" lon="29.9677565158"><ele>96.339</ele><time>2026-04-25T11:04:22.000Z</time><hdop>3.812</hdop><vdop>3.812</vdop><extensions><gom:speed>0.982</gom:speed></extensions></trkpt>
   <trkpt lat="59.0685267907" lon="29.9677550909"><ele>96.463</ele><time>2026-04-25T11:04:23.000Z</time><hdop>3.375</hdop><vdop>3.375</vdop><extensions><gom:speed>0.526</gom:speed></extensions></trkpt>
   <trkpt lat="59.0685302692" lon="29.9677659035"><ele>96.505</ele><time>2026-04-25T11:04:24.000Z</time><hdop>3.187</hdop><vdop>3.187</vdop><extensions><gom:speed>0.901</gom:speed></extensions></trkpt>
   <trkpt lat="59.0685335381" lon="29.9677659035"><ele>97.13</ele><time>2026-04-25T11:04:25.000Z</time><hdop>3.0</hdop><vdop>3.0</vdop><extensions><gom:speed>0.0</gom:speed></extensions></trkpt>
   <trkpt lat="59.0685380224" lon="29.9677655682"><ele>97.504</ele><time>2026-04-25T11:04:26.000Z</time><hdop>3.0</hdop><vdop>3.0</vdop><extensions><gom:speed>0.0</gom:speed></extensions></trkpt>
   <trkpt lat="59.0685417524" lon="29.9677650653"><ele>97.727</ele><time>2026-04-25T11:04:27.000Z</time><hdop>3.0</hdop><vdop>3.0</vdop><extensions><gom:speed>0.0</gom:speed></extensions></trkpt>
   <trkpt lat="59.0685435126" lon="29.9677646462"><ele>97.86</ele><time>2026-04-25T11:04:28.000Z</time><hdop>3.0</hdop><vdop>3.0</vdop><extensions><gom:speed>0.0</gom:speed></extensions></trkpt>
   <trkpt lat="59.0685430935" lon="29.9677641433"><ele>97.94</ele><time>2026-04-25T11:04:29.000Z</time><hdop>3.0</hdop><vdop>3.0</vdop><extensions><gom:speed>0.0</gom:speed></extensions></trkpt>
   <trkpt lat="59.0685430935" lon="29.9677641433"><ele>97.988</ele><time>2026-04-25T11:04:30.000Z</time><hdop>3.0</hdop><vdop>3.0</vdop><extensions><gom:speed>0.0</gom:speed></extensions></trkpt>
   <trkpt lat="59.0685430935" lon="29.9677641433"><ele>98.016</ele><time>2026-04-25T11:04:31.000Z</time><hdop>3.0</hdop><vdop>3.0</vdop><extensions><gom:speed>0.0</gom:speed></extensions></trkpt>
   <trkpt lat="59.0685430935" lon="29.9677641433"><ele>98.033</ele><time>2026-04-25T11:04:32.000Z</time><hdop>3.0</hdop><vdop>3.0</vdop><extensions><gom:speed>0.0</gom:speed></extensions></trkpt>
   <trkpt lat="59.0685430935" lon="29.9677641433"><ele>98.043</ele><time>2026-04-25T11:04:33.000Z</time><hdop>3.0</hdop><vdop>3.0</vdop><extensions><gom:speed>0.0</gom:speed></extensions></trkpt>
   <trkpt lat="59.0685430935" lon="29.9677641433"><ele>98.049</ele><time>2026-04-25T11:04:33.000Z</time><hdop>3.0</hdop><vdop>3.0</vdop><extensions><gom:speed>0.0</gom:speed></extensions></trkpt>
   <trkpt lat="59.0685430935" lon="29.9677641433"><ele>98.053</ele><time>2026-04-25T11:04:34.000Z</time><hdop>3.0</hdop><vdop>3.0</vdop><extensions><gom:speed>0.0</gom:speed></extensions></trkpt>
   <trkpt lat="59.0685430935" lon="29.9677641433"><ele>98.055</ele><time>2026-04-25T11:04:35.000Z</time><hdop>3.0</hdop><vdop>3.0</vdop><extensions><gom:speed>0.0</gom:speed></extensions></trkpt>
   <trkpt lat="59.0685430935" lon="29.9677641433"><ele>98.056</ele><time>2026-04-25T11:04:36.000Z</time><hdop>3.0</hdop><vdop>3.0</vdop><extensions><gom:speed>0.0</gom:speed></extensions></trkpt>
   <trkpt lat="59.0685439317" lon="29.9677611258"><ele>98.095</ele><time>2026-04-25T11:04:37.000Z</time><hdop>3.0</hdop><vdop>3.0</vdop><extensions><gom:speed>0.367</gom:speed></extensions></trkpt>
   <trkpt lat="59.0685430516" lon="29.9677541688"><ele>98.093</ele><time>2026-04-25T11:04:38.000Z</time><hdop>3.0</hdop><vdop>3.0</vdop><extensions><gom:speed>0.406</gom:speed></extensions></trkpt>
   <trkpt lat="59.0685437221" lon="29.9677455355"><ele>98.099</ele><time>2026-04-25T11:04:39.000Z</time><hdop>3.062</hdop><vdop>3.062</vdop><extensions><gom:speed>0.439</gom:speed></extensions></trkpt>
   <trkpt lat="59.068545147" lon="29.9677378241"><ele>98.109</ele><time>2026-04-25T11:04:40.000Z</time><hdop>3.375</hdop><vdop>3.375</vdop><extensions><gom:speed>0.418</gom:speed></extensions></trkpt>
   <trkpt lat="59.0685505953" lon="29.9677345552"><ele>98.107</ele><time>2026-04-25T11:04:41.000Z</time><hdop>3.875</hdop><vdop>3.875</vdop><extensions><gom:speed>0.404</gom:speed></extensions></trkpt>
   <trkpt lat="59.0685565883" lon="29.967735561"><ele>98.037</ele><time>2026-04-25T11:04:42.000Z</time><hdop>3.562</hdop><vdop>3.562</vdop><extensions><gom:speed>0.447</gom:speed></extensions></trkpt>
   <trkpt lat="59.0685657246" lon="29.9677387461"><ele>97.983</ele><time>2026-04-25T11:04:43.000Z</time><hdop>3.5</hdop><vdop>3.5</vdop><extensions><gom:speed>0.587</gom:speed></extensions></trkpt>
   <trkpt lat="59.0685751123" lon="29.967738327"><ele>97.946</ele><time>2026-04-25T11:04:44.000Z</time><hdop>3.062</hdop><vdop>3.062</vdop><extensions><gom:speed>0.761</gom:speed></extensions></trkpt>
   <trkpt lat="59.0685845001" lon="29.967733717"><ele>97.914</ele><time>2026-04-25T11:04:45.000Z</time><hdop>3.0</hdop><vdop>3.0</vdop><extensions><gom:speed>0.637</gom:speed></extensions></trkpt>
   <trkpt lat="59.0685920019" lon="29.9677316215"><ele>97.819</ele><time>2026-04-25T11:04:46.000Z</time><hdop>3.0</hdop><vdop>3.0</vdop><extensions><gom:speed>0.693</gom:speed></extensions></trkpt>
   <trkpt lat="59.0686018087" lon="29.9677247484"><ele>97.783</ele><time>2026-04-25T11:04:47.000Z</time><hdop>3.375</hdop><vdop>3.375</vdop><extensions><gom:speed>0.675</gom:speed></extensions></trkpt>
   <trkpt lat="59.0686018087" lon="29.9677247484"><ele>97.762</ele><time>2026-04-25T11:04:48.000Z</time><hdop>3.375</hdop><vdop>3.375</vdop><extensions><gom:speed>0.0</gom:speed></extensions></trkpt>
   <trkpt lat="59.0686057482" lon="29.9677210603"><ele>97.695</ele><time>2026-04-25T11:04:49.000Z</time><hdop>3.437</hdop><vdop>3.437</vdop><extensions><gom:speed>0.454</gom:speed></extensions></trkpt>
   <trkpt lat="59.0686057482" lon="29.9677210603"><ele>97.656</ele><time>2026-04-25T11:04:50.000Z</time><hdop>3.437</hdop><vdop>3.437</vdop><extensions><gom:speed>0.0</gom:speed></extensions></trkpt>
   <trkpt lat="59.0686057482" lon="29.9677210603"><ele>97.632</ele><time>2026-04-25T11:04:51.000Z</time><hdop>3.437</hdop><vdop>3.437</vdop><extensions><gom:speed>0.0</gom:speed></extensions></trkpt>
   <trkpt lat="59.0686057482" lon="29.9677210603"><ele>97.618</ele><time>2026-04-25T11:04:52.000Z</time><hdop>3.437</hdop><vdop>3.437</vdop><extensions><gom:speed>0.0</gom:speed></extensions></trkpt>
   <trkpt lat="59.0686057482" lon="29.9677210603"><ele>97.609</ele><time>2026-04-25T11:04:53.000Z</time><hdop>3.437</hdop><vdop>3.437</vdop><extensions><gom:speed>0.0</gom:speed></extensions></trkpt>
   <trkpt lat="59.0686057482" lon="29.9677210603"><ele>97.604</ele><time>2026-04-25T11:04:53.000Z</time><hdop>3.437</hdop><vdop>3.437</vdop><extensions><gom:speed>0.0</gom:speed></extensions></trkpt>
   <trkpt lat="59.0686057482" lon="29.9677210603"><ele>97.601</ele><time>2026-04-25T11:04:54.000Z</time><hdop>3.437</hdop><vdop>3.437</vdop><extensions><gom:speed>0.0</gom:speed></extensions></trkpt>
   <trkpt lat="59.0686057482" lon="29.9677210603"><ele>97.599</ele><time>2026-04-25T11:04:55.000Z</time><hdop>3.437</hdop><vdop>3.437</vdop><extensions><gom:speed>0.0</gom:speed></extensions></trkpt>
   <trkpt lat="59.0686105259" lon="29.9677266762"><ele>97.561</ele><time>2026-04-25T11:04:56.000Z</time><hdop>3.437</hdop><vdop>3.437</vdop><extensions><gom:speed>0.272</gom:speed></extensions></trkpt>
   <trkpt lat="59.0686166866" lon="29.9677343037"><ele>97.508</ele><time>2026-04-25T11:04:57.000Z</time><hdop>3.25</hdop><vdop>3.25</vdop><extensions><gom:speed>0.348</gom:speed></extensions></trkpt>
   <trkpt lat="59.0686247751" lon="29.9677410093"><ele>97.416</ele><time>2026-04-25T11:04:58.000Z</time><hdop>3.312</hdop><vdop>3.312</vdop><extensions><gom:speed>0.415</gom:speed></extensions></trkpt>
   <trkpt lat="59.0686346239" lon="29.9677507323"><ele>97.387</ele><time>2026-04-25T11:04:59.000Z</time><hdop>3.5</hdop><vdop>3.5</vdop><extensions><gom:speed>0.665</gom:speed></extensions></trkpt>
   <trkpt lat="59.0686428381" lon="29.9677599524"><ele>97.41</ele><time>2026-04-25T11:05:00.000Z</time><hdop>3.312</hdop><vdop>3.312</vdop><extensions><gom:speed>0.601</gom:speed></extensions></trkpt>
   <trkpt lat="59.0686497113" lon="29.9677648977"><ele>97.439</ele><time>2026-04-25T11:05:01.000Z</time><hdop>3.25</hdop><vdop>3.25</vdop><extensions><gom:speed>0.487</gom:speed></extensions></trkpt>
   <trkpt lat="59.0686593924" lon="29.9677656521"><ele>97.483</ele><time>2026-04-25T11:05:02.000Z</time><hdop>3.0</hdop><vdop>3.0</vdop><extensions><gom:speed>0.591</gom:speed></extensions></trkpt>
   <trkpt lat="59.0686704146" lon="29.9677675799"><ele>97.547</ele><time>2026-04-25T11:05:03.000Z</time><hdop>3.0</hdop><vdop>3.0</vdop><extensions><gom:speed>0.741</gom:speed></extensions></trkpt>
   <trkpt lat="59.0686815625" lon="29.9677685019"><ele>97.642</ele><time>2026-04-25T11:05:04.000Z</time><hdop>3.0</hdop><vdop>3.0</vdop><extensions><gom:speed>0.769</gom:speed></extensions></trkpt>
   <trkpt lat="59.0686935067" lon="29.9677655682"><ele>97.764</ele><time>2026-04-25T11:05:05.000Z</time><hdop>3.0</hdop><vdop>3.0</vdop><extensions><gom:speed>0.929</gom:speed></extensions></trkpt>
   <trkpt lat="59.0687067082" lon="29.9677624669"><ele>97.924</ele><time>2026-04-25T11:05:06.000Z</time><hdop>3.0</hdop><vdop>3.0</vdop><extensions><gom:speed>0.894</gom:speed></extensions></trkpt>
   <trkpt lat="59.0687173113" lon="29.967759198"><ele>98.068</ele><time>2026-04-25T11:05:07.000Z</time><hdop>3.062</hdop><vdop>3.062</vdop><extensions><gom:speed>0.699</gom:speed></extensions></trkpt>
   <trkpt lat="59.0687274115" lon="29.9677552585"><ele>98.18</ele><time>2026-04-25T11:05:08.000Z</time><hdop>3.0</hdop><vdop>3.0</vdop><extensions><gom:speed>0.773</gom:speed></extensions></trkpt>
   <trkpt lat="59.0687362125" lon="29.9677538336"><ele>98.282</ele><time>2026-04-25T11:05:09.000Z</time><hdop>3.25</hdop><vdop>3.25</vdop><extensions><gom:speed>0.561</gom:speed></extensions></trkpt>
   <trkpt lat="59.06874296" lon="29.9677562643"><ele>98.412</ele><time>2026-04-25T11:05:10.000Z</time><hdop>3.187</hdop><vdop>3.187</vdop><extensions><gom:speed>0.468</gom:speed></extensions></trkpt>
   <trkpt lat="59.0687485339" lon="29.9677622993"><ele>98.561</ele><time>2026-04-25T11:05:11.000Z</time><hdop>3.0</hdop><vdop>3.0</vdop><extensions><gom:speed>0.522</gom:speed></extensions></trkpt>
   <trkpt lat="59.0687546108" lon="29.967770765"><ele>98.703</ele><time>2026-04-25T11:05:12.000Z</time><hdop>3.062</hdop><vdop>3.062</vdop><extensions><gom:speed>0.472</gom:speed></extensions></trkpt>
   <trkpt lat="59.068761484" lon="29.9677784764"><ele>98.796</ele><time>2026-04-25T11:05:13.000Z</time><hdop>3.312</hdop><vdop>3.312</vdop><extensions><gom:speed>0.493</gom:speed></extensions></trkpt>
   <trkpt lat="59.068761484" lon="29.9677784764"><ele>98.852</ele><time>2026-04-25T11:05:13.000Z</time><hdop>3.312</hdop><vdop>3.312</vdop><extensions><gom:speed>0.493</gom:speed></extensions></trkpt>
   <trkpt lat="59.068764711" lon="29.9677855172"><ele>98.944</ele><time>2026-04-25T11:05:14.000Z</time><hdop>3.0</hdop><vdop>3.0</vdop><extensions><gom:speed>0.371</gom:speed></extensions></trkpt>
   <trkpt lat="59.0687695306" lon="29.9677907139"><ele>99.025</ele><time>2026-04-25T11:05:15.000Z</time><hdop>3.062</hdop><vdop>3.062</vdop><extensions><gom:speed>0.17</gom:speed></extensions></trkpt>
   <trkpt lat="59.0687695306" lon="29.9677907139"><ele>99.074</ele><time>2026-04-25T11:05:16.000Z</time><hdop>3.062</hdop><vdop>3.062</vdop><extensions><gom:speed>0.0</gom:speed></extensions></trkpt>
   <trkpt lat="59.0687695306" lon="29.9677907139"><ele>99.103</ele><time>2026-04-25T11:05:17.000Z</time><hdop>3.062</hdop><vdop>3.062</vdop><extensions><gom:speed>0.0</gom:speed></extensions></trkpt>
   <trkpt lat="59.0687695306" lon="29.9677907139"><ele>99.12</ele><time>2026-04-25T11:05:18.000Z</time><hdop>3.062</hdop><vdop>3.062</vdop><extensions><gom:speed>0.0</gom:speed></extensions></trkpt>
   <trkpt lat="59.0687695306" lon="29.9677907139"><ele>99.131</ele><time>2026-04-25T11:05:19.000Z</time><hdop>3.062</hdop><vdop>3.062</vdop><extensions><gom:speed>0.0</gom:speed></extensions></trkpt>
   <trkpt lat="59.0687695306" lon="29.9677907139"><ele>99.137</ele><time>2026-04-25T11:05:20.000Z</time><hdop>3.062</hdop><vdop>3.062</vdop><extensions><gom:speed>0.0</gom:speed></extensions></trkpt>
   <trkpt lat="59.0687757332" lon="29.9677907139"><ele>99.108</ele><time>2026-04-25T11:05:21.000Z</time><hdop>3.375</hdop><vdop>3.375</vdop><extensions><gom:speed>0.484</gom:speed></extensions></trkpt>
   <trkpt lat="59.0687847437" lon="29.9677884508"><ele>99.121</ele><time>2026-04-25T11:05:22.000Z</time><hdop>3.125</hdop><vdop>3.125</vdop><extensions><gom:speed>0.595</gom:speed></extensions></trkpt>
   <trkpt lat="59.0687896053" lon="29.9677878641"><ele>99.124</ele><time>2026-04-25T11:05:23.000Z</time><hdop>3.0</hdop><vdop>3.0</vdop><extensions><gom:speed>0.393</gom:speed></extensions></trkpt>
   <trkpt lat="59.0687988673" lon="29.967783757"><ele>99.127</ele><time>2026-04-25T11:05:24.000Z</time><hdop>3.0</hdop><vdop>3.0</vdop><extensions><gom:speed>0.558</gom:speed></extensions></trkpt>
   <trkpt lat="59.0688051118" lon="29.9677792307"><ele>99.133</ele><time>2026-04-25T11:05:25.000Z</time><hdop>3.0</hdop><vdop>3.0</vdop><extensions><gom:speed>0.682</gom:speed></extensions></trkpt>
   <trkpt lat="59.0688122783" lon="29.9677747883"><ele>99.125</ele><time>2026-04-25T11:05:26.000Z</time><hdop>3.0</hdop><vdop>3.0</vdop><extensions><gom:speed>0.634</gom:speed></extensions></trkpt>
   <trkpt lat="59.0688191515" lon="29.9677734472"><ele>99.074</ele><time>2026-04-25T11:05:27.000Z</time><hdop>3.0</hdop><vdop>3.0</vdop><extensions><gom:speed>0.707</gom:speed></extensions></trkpt>
   <trkpt lat="59.0688252283" lon="29.9677723576"><ele>98.977</ele><time>2026-04-25T11:05:28.000Z</time><hdop>3.0</hdop><vdop>3.0</vdop><extensions><gom:speed>0.512</gom:speed></extensions></trkpt>
   <trkpt lat="59.0688299222" lon="29.9677769676"><ele>98.88</ele><time>2026-04-25T11:05:29.000Z</time><hdop>3.0</hdop><vdop>3.0</vdop><extensions><gom:speed>0.405</gom:speed></extensions></trkpt>
   <trkpt lat="59.0688340712" lon="29.9677759618"><ele>98.765</ele><time>2026-04-25T11:05:30.000Z</time><hdop>3.0</hdop><vdop>3.0</vdop><extensions><gom:speed>0.281</gom:speed></extensions></trkpt>
   <trkpt lat="59.0688388489" lon="29.9677767162"><ele>98.673</ele><time>2026-04-25T11:05:31.000Z</time><hdop>3.0</hdop><vdop>3.0</vdop><extensions><gom:speed>0.38</gom:speed></extensions></trkpt>
   <trkpt lat="59.0688388489" lon="29.9677767162"><ele>98.618</ele><time>2026-04-25T11:05:32.000Z</time><hdop>3.0</hdop><vdop>3.0</vdop><extensions><gom:speed>0.0</gom:speed></extensions></trkpt>
   <trkpt lat="59.0688388489" lon="29.9677767162"><ele>98.586</ele><time>2026-04-25T11:05:33.000Z</time><hdop>3.0</hdop><vdop>3.0</vdop><extensions><gom:speed>0.0</gom:speed></extensions></trkpt>
   <trkpt lat="59.0688388489" lon="29.9677767162"><ele>98.566</ele><time>2026-04-25T11:05:33.000Z</time><hdop>3.0</hdop><vdop>3.0</vdop><extensions><gom:speed>0.0</gom:speed></extensions></trkpt>
   <trkpt lat="59.0688536011" lon="29.9677729443"><ele>98.721</ele><time>2026-04-25T11:05:34.000Z</time><hdop>3.0</hdop><vdop>3.0</vdop><extensions><gom:speed>0.775</gom:speed></extensions></trkpt>
   <trkpt lat="59.0688668864" lon="29.9677739501"><ele>98.942</ele><time>2026-04-25T11:05:35.000Z</time><hdop>3.187</hdop><vdop>3.187</vdop><extensions><gom:speed>0.682</gom:speed></extensions></trkpt>
   <trkpt lat="59.0688808423" lon="29.9677706812"><ele>99.148</ele><time>2026-04-25T11:05:36.000Z</time><hdop>3.062</hdop><vdop>3.062</vdop><extensions><gom:speed>0.858</gom:speed></extensions></trkpt>
   <trkpt lat="59.0688946305" lon="29.9677718547"><ele>99.421</ele><time>2026-04-25T11:05:37.000Z</time><hdop>3.187</hdop><vdop>3.187</vdop><extensions><gom:speed>0.88</gom:speed></extensions></trkpt>
   <trkpt lat="59.0689069938" lon="29.9677750398"><ele>99.641</ele><time>2026-04-25T11:05:38.000Z</time><hdop>3.25</hdop><vdop>3.25</vdop><extensions><gom:speed>0.665</gom:speed></extensions></trkpt>
   <trkpt lat="59.068917555" lon="29.967778644"><ele>99.802</ele><time>2026-04-25T11:05:39.000Z</time><hdop>3.187</hdop><vdop>3.187</vdop><extensions><gom:speed>0.554</gom:speed></extensions></trkpt>
   <trkpt lat="59.068925895" lon="29.9677821644"><ele>99.896</ele><time>2026-04-25T11:05:40.000Z</time><hdop>3.0</hdop><vdop>3.0</vdop><extensions><gom:speed>0.366</gom:speed></extensions></trkpt>
   <trkpt lat="59.0689331453" lon="29.9677876126"><ele>100.014</ele><time>2026-04-25T11:05:41.000Z</time><hdop>3.0</hdop><vdop>3.0</vdop><extensions><gom:speed>0.412</gom:speed></extensions></trkpt>
   <trkpt lat="59.0689390546" lon="29.9677945696"><ele>100.113</ele><time>2026-04-25T11:05:42.000Z</time><hdop>3.0</hdop><vdop>3.0</vdop><extensions><gom:speed>0.211</gom:speed></extensions></trkpt>
   <trkpt lat="59.0689390546" lon="29.9677945696"><ele>100.173</ele><time>2026-04-25T11:05:43.000Z</time><hdop>3.0</hdop><vdop>3.0</vdop><extensions><gom:speed>0.0</gom:speed></extensions></trkpt>
   <trkpt lat="59.0689390546" lon="29.9677945696"><ele>100.208</ele><time>2026-04-25T11:05:44.000Z</time><hdop>3.0</hdop><vdop>3.0</vdop><extensions><gom:speed>0.0</gom:speed></extensions></trkpt>
   <trkpt lat="59.0689390546" lon="29.9677945696"><ele>100.23</ele><time>2026-04-25T11:05:45.000Z</time><hdop>3.0</hdop><vdop>3.0</vdop><extensions><gom:speed>0.0</gom:speed></extensions></trkpt>
   <trkpt lat="59.0689390546" lon="29.9677945696"><ele>100.242</ele><time>2026-04-25T11:05:46.000Z</time><hdop>3.0</hdop><vdop>3.0</vdop><extensions><gom:speed>0.0</gom:speed></extensions></trkpt>
   <trkpt lat="59.0689390546" lon="29.9677945696"><ele>100.25</ele><time>2026-04-25T11:05:47.000Z</time><hdop>3.0</hdop><vdop>3.0</vdop><extensions><gom:speed>0.0</gom:speed></extensions></trkpt>
   <trkpt lat="59.0689390546" lon="29.9677945696"><ele>100.254</ele><time>2026-04-25T11:05:48.000Z</time><hdop>3.0</hdop><vdop>3.0</vdop><extensions><gom:speed>0.0</gom:speed></extensions></trkpt>
   <trkpt lat="59.0689459277" lon="29.967795324"><ele>100.242</ele><time>2026-04-25T11:05:49.000Z</time><hdop>3.0</hdop><vdop>3.0</vdop><extensions><gom:speed>0.764</gom:speed></extensions></trkpt>
   <trkpt lat="59.0689561118" lon="29.96779348"><ele>100.278</ele><time>2026-04-25T11:05:50.000Z</time><hdop>3.0</hdop><vdop>3.0</vdop><extensions><gom:speed>0.811</gom:speed></extensions></trkpt>
   <trkpt lat="59.068965248" lon="29.967799012"><ele>100.304</ele><time>2026-04-25T11:05:51.000Z</time><hdop>3.062</hdop><vdop>3.062</vdop><extensions><gom:speed>0.809</gom:speed></extensions></trkpt>
   <trkpt lat="59.0689734204" lon="29.9678097409"><ele>100.262</ele><time>2026-04-25T11:05:52.000Z</time><hdop>3.125</hdop><vdop>3.125</vdop><extensions><gom:speed>0.81</gom:speed></extensions></trkpt>
   <trkpt lat="59.0689816347" lon="29.9678213917"><ele>100.3</ele><time>2026-04-25T11:05:53.000Z</time><hdop>3.0</hdop><vdop>3.0</vdop><extensions><gom:speed>0.539</gom:speed></extensions></trkpt>
   <trkpt lat="59.0689816347" lon="29.9678213917"><ele>100.323</ele><time>2026-04-25T11:05:53.000Z</time><hdop>3.0</hdop><vdop>3.0</vdop><extensions><gom:speed>0.539</gom:speed></extensions></trkpt>
   <trkpt lat="59.0689869991" lon="29.9678318691"><ele>100.311</ele><time>2026-04-25T11:05:54.000Z</time><hdop>3.0</hdop><vdop>3.0</vdop><extensions><gom:speed>0.758</gom:speed></extensions></trkpt>
   <trkpt lat="59.068993034" lon="29.9678387422"><ele>100.352</ele><time>2026-04-25T11:05:55.000Z</time><hdop>3.0</hdop><vdop>3.0</vdop><extensions><gom:speed>0.577</gom:speed></extensions></trkpt>
   <trkpt lat="59.069000452" lon="29.9678417597"><ele>100.454</ele><time>2026-04-25T11:05:56.000Z</time><hdop>3.0</hdop><vdop>3.0</vdop><extensions><gom:speed>0.649</gom:speed></extensions></trkpt>
   <trkpt lat="59.0690079119" lon="29.9678458669"><ele>100.565</ele><time>2026-04-25T11:05:57.000Z</time><hdop>3.125</hdop><vdop>3.125</vdop><extensions><gom:speed>0.671</gom:speed></extensions></trkpt>
   <trkpt lat="59.0690141983" lon="29.9678523209"><ele>100.719</ele><time>2026-04-25T11:05:58.000Z</time><hdop>3.062</hdop><vdop>3.062</vdop><extensions><gom:speed>0.591</gom:speed></extensions></trkpt>
   <trkpt lat="59.0690204848" lon="29.9678607867"><ele>100.89</ele><time>2026-04-25T11:05:59.000Z</time><hdop>3.0</hdop><vdop>3.0</vdop><extensions><gom:speed>0.73</gom:speed></extensions></trkpt>
   <trkpt lat="59.0690266036" lon="29.9678700906"><ele>100.986</ele><time>2026-04-25T11:06:00.000Z</time><hdop>3.0</hdop><vdop>3.0</vdop><extensions><gom:speed>0.758</gom:speed></extensions></trkpt>
   <trkpt lat="59.0690351531" lon="29.9678741977"><ele>101.041</ele><time>2026-04-25T11:06:01.000Z</time><hdop>3.0</hdop><vdop>3.0</vdop><extensions><gom:speed>0.693</gom:speed></extensions></trkpt>
   <trkpt lat="59.0690441217" lon="29.9678753712"><ele>101.134</ele><time>2026-04-25T11:06:02.000Z</time><hdop>3.0</hdop><vdop>3.0</vdop><extensions><gom:speed>0.875</gom:speed></extensions></trkpt>
   <trkpt lat="59.0690525456" lon="29.9678749521"><ele>101.258</ele><time>2026-04-25T11:06:03.000Z</time><hdop>3.0</hdop><vdop>3.0</vdop><extensions><gom:speed>0.594</gom:speed></extensions></trkpt>
   <trkpt lat="59.0690593768" lon="29.9678755388"><ele>101.388</ele><time>2026-04-25T11:06:04.000Z</time><hdop>3.0</hdop><vdop>3.0</vdop><extensions><gom:speed>0.569</gom:speed></extensions></trkpt>
   <trkpt lat="59.0690651184" lon="29.9678781372"><ele>101.457</ele><time>2026-04-25T11:06:05.000Z</time><hdop>3.0</hdop><vdop>3.0</vdop><extensions><gom:speed>0.419</gom:speed></extensions></trkpt>
   <trkpt lat="59.0690717401" lon="29.9678829987"><ele>101.484</ele><time>2026-04-25T11:06:06.000Z</time><hdop>3.0</hdop><vdop>3.0</vdop><extensions><gom:speed>0.616</gom:speed></extensions></trkpt>
   <trkpt lat="59.0690818822" lon="29.9678916321"><ele>98.259</ele><time>2026-04-25T11:06:07.000Z</time><hdop>3.812</hdop><vdop>3.812</vdop><extensions><gom:speed>0.944</gom:speed></extensions></trkpt>
   <trkpt lat="59.0690924015" lon="29.9679020256"><ele>96.324</ele><time>2026-04-25T11:06:08.000Z</time><hdop>3.125</hdop><vdop>3.125</vdop><extensions><gom:speed>1.019</gom:speed></extensions></trkpt>
   <trkpt lat="59.0691058125" lon="29.9679118324"><ele>94.991</ele><time>2026-04-25T11:06:09.000Z</time><hdop>1.75</hdop><vdop>1.75</vdop><extensions><gom:speed>1.132</gom:speed></extensions></trkpt>
   <trkpt lat="59.0691213191" lon="29.9679254111"><ele>94.165</ele><time>2026-04-25T11:06:10.000Z</time><hdop>1.5</hdop><vdop>1.5</vdop><extensions><gom:speed>1.21</gom:speed></extensions></trkpt>
   <trkpt lat="59.0691379152" lon="29.9678942304"><ele>93.751</ele><time>2026-04-25T11:06:11.000Z</time><hdop>1.687</hdop><vdop>1.687</vdop><extensions><gom:speed>0.826</gom:speed></extensions></trkpt>
   <trkpt lat="59.0691470096" lon="29.9678893689"><ele>93.502</ele><time>2026-04-25T11:06:12.000Z</time><hdop>1.687</hdop><vdop>1.687</vdop><extensions><gom:speed>0.9</gom:speed></extensions></trkpt>
   <trkpt lat="59.0691491051" lon="29.9678923026"><ele>93.366</ele><time>2026-04-25T11:06:13.000Z</time><hdop>1.687</hdop><vdop>1.687</vdop><extensions><gom:speed>0.889</gom:speed></extensions></trkpt>
   <trkpt lat="59.0691562297" lon="29.9678990081"><ele>93.307</ele><time>2026-04-25T11:06:14.000Z</time><hdop>1.687</hdop><vdop>1.687</vdop><extensions><gom:speed>0.956</gom:speed></extensions></trkpt>
   <trkpt lat="59.0691522064" lon="29.9678974994"><ele>96.228</ele><time>2026-04-25T11:06:15.000Z</time><hdop>3.0</hdop><vdop>3.0</vdop><extensions><gom:speed>0.73</gom:speed></extensions></trkpt>
   <trkpt lat="59.0691478478" lon="29.9678961583"><ele>97.877</ele><time>2026-04-25T11:06:16.000Z</time><hdop>3.0</hdop><vdop>3.0</vdop><extensions><gom:speed>0.541</gom:speed></extensions></trkpt>
   <trkpt lat="59.0691478478" lon="29.9678961583"><ele>98.862</ele><time>2026-04-25T11:06:16.000Z</time><hdop>3.0</hdop><vdop>3.0</vdop><extensions><gom:speed>0.541</gom:speed></extensions></trkpt>
   <trkpt lat="59.0691474706" lon="29.9678987567"><ele>99.392</ele><time>2026-04-25T11:06:17.000Z</time><hdop>3.0</hdop><vdop>3.0</vdop><extensions><gom:speed>0.64</gom:speed></extensions></trkpt>
   <trkpt lat="59.0691474706" lon="29.9678987567"><ele>99.708</ele><time>2026-04-25T11:06:17.000Z</time><hdop>3.0</hdop><vdop>3.0</vdop><extensions><gom:speed>0.64</gom:speed></extensions></trkpt>
   <trkpt lat="59.0691514101" lon="29.9679054622"><ele>99.842</ele><time>2026-04-25T11:06:18.000Z</time><hdop>4.5</hdop><vdop>4.5</vdop><extensions><gom:speed>0.665</gom:speed></extensions></trkpt>
   <trkpt lat="59.0691620551" lon="29.9679140956"><ele>99.909</ele><time>2026-04-25T11:06:19.000Z</time><hdop>3.0</hdop><vdop>3.0</vdop><extensions><gom:speed>0.661</gom:speed></extensions></trkpt>
   <trkpt lat="59.0691729516" lon="29.9679225613"><ele>99.953</ele><time>2026-04-25T11:06:20.000Z</time><hdop>3.0</hdop><vdop>3.0</vdop><extensions><gom:speed>0.851</gom:speed></extensions></trkpt>
   <trkpt lat="59.0691804534" lon="29.9679313623"><ele>100.012</ele><time>2026-04-25T11:06:21.000Z</time><hdop>3.0</hdop><vdop>3.0</vdop><extensions><gom:speed>0.571</gom:speed></extensions></trkpt>
   <trkpt lat="59.0691864884" lon="29.9679446895"><ele>94.234</ele><time>2026-04-25T11:06:22.000Z</time><hdop>20.0</hdop><vdop>20.0</vdop><extensions><gom:speed>0.719</gom:speed></extensions></trkpt>
   <trkpt lat="59.0691948703" lon="29.9679570109"><ele>91.371</ele><time>2026-04-25T11:06:23.000Z</time><hdop>20.0</hdop><vdop>20.0</vdop><extensions><gom:speed>0.625</gom:speed></extensions></trkpt>
   <trkpt lat="59.0692071078" lon="29.9679660634"><ele>90.341</ele><time>2026-04-25T11:06:24.000Z</time><hdop>20.0</hdop><vdop>20.0</vdop><extensions><gom:speed>0.567</gom:speed></extensions></trkpt>
   <trkpt lat="59.0692248775" lon="29.9679771275"><ele>90.594</ele><time>2026-04-25T11:06:25.000Z</time><hdop>20.0</hdop><vdop>20.0</vdop><extensions><gom:speed>0.542</gom:speed></extensions></trkpt>
   <trkpt lat="59.0692179624" lon="29.967983833"><ele>90.248</ele><time>2026-04-25T11:06:26.000Z</time><hdop>16.062</hdop><vdop>16.062</vdop><extensions><gom:speed>0.572</gom:speed></extensions></trkpt>
   <trkpt lat="59.0692203513" lon="29.9679854256"><ele>90.041</ele><time>2026-04-25T11:06:27.000Z</time><hdop>4.687</hdop><vdop>4.687</vdop><extensions><gom:speed>0.668</gom:speed></extensions></trkpt>
   <trkpt lat="59.0692198902" lon="29.9680000101"><ele>89.865</ele><time>2026-04-25T11:06:28.000Z</time><hdop>4.687</hdop><vdop>4.687</vdop><extensions><gom:speed>0.587</gom:speed></extensions></trkpt>
   <trkpt lat="59.0692180881" lon="29.9680179473"><ele>89.587</ele><time>2026-04-25T11:06:29.000Z</time><hdop>4.625</hdop><vdop>4.625</vdop><extensions><gom:speed>0.699</gom:speed></extensions></trkpt>
   <trkpt lat="59.06920891" lon="29.9680325318"><ele>88.931</ele><time>2026-04-25T11:06:30.000Z</time><hdop>4.375</hdop><vdop>4.375</vdop><extensions><gom:speed>0.732</gom:speed></extensions></trkpt>
   <trkpt lat="59.0692057667" lon="29.9680420872"><ele>88.388</ele><time>2026-04-25T11:06:31.000Z</time><hdop>4.75</hdop><vdop>4.75</vdop><extensions><gom:speed>0.614</gom:speed></extensions></trkpt>
   <trkpt lat="59.0692138553" lon="29.9680456076"><ele>88.066</ele><time>2026-04-25T11:06:32.000Z</time><hdop>4.625</hdop><vdop>4.625</vdop><extensions><gom:speed>0.666</gom:speed></extensions></trkpt>
   <trkpt lat="59.0692138553" lon="29.9680456076"><ele>87.874</ele><time>2026-04-25T11:06:32.000Z</time><hdop>4.625</hdop><vdop>4.625</vdop><extensions><gom:speed>0.666</gom:speed></extensions></trkpt>
   <trkpt lat="59.0692274759" lon="29.9680569232"><ele>87.65</ele><time>2026-04-25T11:06:33.000Z</time><hdop>3.75</hdop><vdop>3.75</vdop><extensions><gom:speed>0.655</gom:speed></extensions></trkpt>
   <trkpt lat="59.0692400487" lon="29.9680754472"><ele>87.535</ele><time>2026-04-25T11:06:34.000Z</time><hdop>2.812</hdop><vdop>2.812</vdop><extensions><gom:speed>0.669</gom:speed></extensions></trkpt>
   <trkpt lat="59.0692472991" lon="29.9680939712"><ele>87.79</ele><time>2026-04-25T11:06:35.000Z</time><hdop>1.812</hdop><vdop>1.812</vdop><extensions><gom:speed>0.62</gom:speed></extensions></trkpt>
   <trkpt lat="59.0692505261" lon="29.9681071308"><ele>92.599</ele><time>2026-04-25T11:06:36.000Z</time><hdop>3.0</hdop><vdop>3.0</vdop><extensions><gom:speed>0.381</gom:speed></extensions></trkpt>
   <trkpt lat="59.0692537531" lon="29.9681135849"><ele>95.395</ele><time>2026-04-25T11:06:37.000Z</time><hdop>3.0</hdop><vdop>3.0</vdop><extensions><gom:speed>0.403</gom:speed></extensions></trkpt>
   <trkpt lat="59.0692579022" lon="29.9681193684"><ele>96.943</ele><time>2026-04-25T11:06:38.000Z</time><hdop>3.0</hdop><vdop>3.0</vdop><extensions><gom:speed>0.533</gom:speed></extensions></trkpt>
   <trkpt lat="59.069261213" lon="29.9681233079"><ele>97.723</ele><time>2026-04-25T11:06:39.000Z</time><hdop>3.062</hdop><vdop>3.062</vdop><extensions><gom:speed>0.257</gom:speed></extensions></trkpt>
   <trkpt lat="59.0692628475" lon="29.968124649"><ele>98.148</ele><time>2026-04-25T11:06:40.000Z</time><hdop>3.0</hdop><vdop>3.0</vdop><extensions><gom:speed>0.176</gom:speed></extensions></trkpt>
   <trkpt lat="59.0692628475" lon="29.968124649"><ele>98.402</ele><time>2026-04-25T11:06:41.000Z</time><hdop>3.0</hdop><vdop>3.0</vdop><extensions><gom:speed>0.0</gom:speed></extensions></trkpt>
   <trkpt lat="59.0692628475" lon="29.968124649"><ele>98.554</ele><time>2026-04-25T11:06:42.000Z</time><hdop>3.0</hdop><vdop>3.0</vdop><extensions><gom:speed>0.0</gom:speed></extensions></trkpt>
   <trkpt lat="59.0692628475" lon="29.968124649"><ele>98.645</ele><time>2026-04-25T11:06:43.000Z</time><hdop>3.0</hdop><vdop>3.0</vdop><extensions><gom:speed>0.0</gom:speed></extensions></trkpt>
   <trkpt lat="59.0692628475" lon="29.968124649"><ele>98.699</ele><time>2026-04-25T11:06:44.000Z</time><hdop>3.0</hdop><vdop>3.0</vdop><extensions><gom:speed>0.0</gom:speed></extensions></trkpt>
   <trkpt lat="59.0692628475" lon="29.968124649"><ele>98.732</ele><time>2026-04-25T11:06:45.000Z</time><hdop>3.0</hdop><vdop>3.0</vdop><extensions><gom:speed>0.0</gom:speed></extensions></trkpt>
   <trkpt lat="59.0692628475" lon="29.968124649"><ele>98.751</ele><time>2026-04-25T11:06:46.000Z</time><hdop>3.0</hdop><vdop>3.0</vdop><extensions><gom:speed>0.0</gom:speed></extensions></trkpt>
   <trkpt lat="59.0692628475" lon="29.968124649"><ele>98.763</ele><time>2026-04-25T11:06:47.000Z</time><hdop>3.0</hdop><vdop>3.0</vdop><extensions><gom:speed>0.0</gom:speed></extensions></trkpt>
   <trkpt lat="59.0692628475" lon="29.968124649"><ele>98.77</ele><time>2026-04-25T11:06:48.000Z</time><hdop>3.0</hdop><vdop>3.0</vdop><extensions><gom:speed>0.0</gom:speed></extensions></trkpt>
   <trkpt lat="59.0692628475" lon="29.968124649"><ele>98.774</ele><time>2026-04-25T11:06:49.000Z</time><hdop>3.0</hdop><vdop>3.0</vdop><extensions><gom:speed>0.0</gom:speed></extensions></trkpt>
   <trkpt lat="59.0692628475" lon="29.968124649"><ele>98.776</ele><time>2026-04-25T11:06:50.000Z</time><hdop>3.0</hdop><vdop>3.0</vdop><extensions><gom:speed>0.0</gom:speed></extensions></trkpt>
   <trkpt lat="59.0692628475" lon="29.968124649"><ele>98.778</ele><time>2026-04-25T11:06:51.000Z</time><hdop>3.0</hdop><vdop>3.0</vdop><extensions><gom:speed>0.0</gom:speed></extensions></trkpt>
   <trkpt lat="59.0692628475" lon="29.968124649"><ele>98.779</ele><time>2026-04-25T11:06:52.000Z</time><hdop>3.0</hdop><vdop>3.0</vdop><extensions><gom:speed>0.0</gom:speed></extensions></trkpt>
   <trkpt lat="59.0692628475" lon="29.968124649"><ele>98.779</ele><time>2026-04-25T11:06:53.000Z</time><hdop>3.0</hdop><vdop>3.0</vdop><extensions><gom:speed>0.0</gom:speed></extensions></trkpt>
   <trkpt lat="59.0692632666" lon="29.9681238108"><ele>98.876</ele><time>2026-04-25T11:06:54.000Z</time><hdop>3.0</hdop><vdop>3.0</vdop><extensions><gom:speed>0.187</gom:speed></extensions></trkpt>
   <trkpt lat="59.0692632666" lon="29.9681238108"><ele>98.934</ele><time>2026-04-25T11:06:54.000Z</time><hdop>3.0</hdop><vdop>3.0</vdop><extensions><gom:speed>0.187</gom:speed></extensions></trkpt>
   <trkpt lat="59.0692656135" lon="29.9681240622"><ele>98.978</ele><time>2026-04-25T11:06:55.000Z</time><hdop>3.0</hdop><vdop>3.0</vdop><extensions><gom:speed>0.227</gom:speed></extensions></trkpt>
   <trkpt lat="59.0692656135" lon="29.9681240622"><ele>99.005</ele><time>2026-04-25T11:06:56.000Z</time><hdop>3.0</hdop><vdop>3.0</vdop><extensions><gom:speed>0.0</gom:speed></extensions></trkpt>
   <trkpt lat="59.0692656135" lon="29.9681240622"><ele>99.021</ele><time>2026-04-25T11:06:57.000Z</time><hdop>3.0</hdop><vdop>3.0</vdop><extensions><gom:speed>0.0</gom:speed></extensions></trkpt>
   <trkpt lat="59.0692680443" lon="29.9681228888"><ele>98.972</ele><time>2026-04-25T11:06:58.000Z</time><hdop>3.0</hdop><vdop>3.0</vdop><extensions><gom:speed>0.363</gom:speed></extensions></trkpt>
   <trkpt lat="59.069273283" lon="29.9681189493"><ele>98.897</ele><time>2026-04-25T11:06:59.000Z</time><hdop>3.0</hdop><vdop>3.0</vdop><extensions><gom:speed>0.377</gom:speed></extensions></trkpt>
   <trkpt lat="59.0692786893" lon="29.9681145069"><ele>98.823</ele><time>2026-04-25T11:07:00.000Z</time><hdop>3.0</hdop><vdop>3.0</vdop><extensions><gom:speed>0.524</gom:speed></extensions></trkpt>
   <trkpt lat="59.0692786893" lon="29.9681145069"><ele>98.779</ele><time>2026-04-25T11:07:01.000Z</time><hdop>3.0</hdop><vdop>3.0</vdop><extensions><gom:speed>0.0</gom:speed></extensions></trkpt>
   <trkpt lat="59.0692822097" lon="29.968107969"><ele>98.678</ele><time>2026-04-25T11:07:02.000Z</time><hdop>3.0</hdop><vdop>3.0</vdop><extensions><gom:speed>0.382</gom:speed></extensions></trkpt>
   <trkpt lat="59.0692891248" lon="29.9681032751"><ele>98.572</ele><time>2026-04-25T11:07:03.000Z</time><hdop>3.0</hdop><vdop>3.0</vdop><extensions><gom:speed>0.52</gom:speed></extensions></trkpt>
   <trkpt lat="59.0692953274" lon="29.9680987489"><ele>98.453</ele><time>2026-04-25T11:07:04.000Z</time><hdop>3.0</hdop><vdop>3.0</vdop><extensions><gom:speed>0.615</gom:speed></extensions></trkpt>
   <trkpt lat="59.0693050085" lon="29.9680957314"><ele>98.421</ele><time>2026-04-25T11:07:05.000Z</time><hdop>3.0</hdop><vdop>3.0</vdop><extensions><gom:speed>0.761</gom:speed></extensions></trkpt>
   <trkpt lat="59.0693145219" lon="29.9680927977"><ele>98.433</ele><time>2026-04-25T11:07:06.000Z</time><hdop>3.0</hdop><vdop>3.0</vdop><extensions><gom:speed>0.577</gom:speed></extensions></trkpt>
   <trkpt lat="59.0693243288" lon="29.9680895288"><ele>98.447</ele><time>2026-04-25T11:07:07.000Z</time><hdop>3.0</hdop><vdop>3.0</vdop><extensions><gom:speed>0.796</gom:speed></extensions></trkpt>
   <trkpt lat="59.0693362311" lon="29.9680877686"><ele>98.457</ele><time>2026-04-25T11:07:08.000Z</time><hdop>3.0</hdop><vdop>3.0</vdop><extensions><gom:speed>0.831</gom:speed></extensions></trkpt>
   <trkpt lat="59.0693468761" lon="29.9680871819"><ele>98.468</ele><time>2026-04-25T11:07:09.000Z</time><hdop>3.0</hdop><vdop>3.0</vdop><extensions><gom:speed>0.647</gom:speed></extensions></trkpt>
   <trkpt lat="59.0693576049" lon="29.9680883553"><ele>98.494</ele><time>2026-04-25T11:07:10.000Z</time><hdop>3.0</hdop><vdop>3.0</vdop><extensions><gom:speed>0.946</gom:speed></extensions></trkpt>
   <trkpt lat="59.0693677889" lon="29.9680906184"><ele>98.571</ele><time>2026-04-25T11:07:11.000Z</time><hdop>3.0</hdop><vdop>3.0</vdop><extensions><gom:speed>0.647</gom:speed></extensions></trkpt>
   <trkpt lat="59.0693726504" lon="29.9680896126"><ele>98.562</ele><time>2026-04-25T11:07:12.000Z</time><hdop>3.0</hdop><vdop>3.0</vdop><extensions><gom:speed>0.392</gom:speed></extensions></trkpt>
   <trkpt lat="59.0693726504" lon="29.9680896126"><ele>98.556</ele><time>2026-04-25T11:07:13.000Z</time><hdop>3.0</hdop><vdop>3.0</vdop><extensions><gom:speed>0.0</gom:speed></extensions></trkpt>
   <trkpt lat="59.0693726504" lon="29.9680896126"><ele>98.553</ele><time>2026-04-25T11:07:14.000Z</time><hdop>3.0</hdop><vdop>3.0</vdop><extensions><gom:speed>0.0</gom:speed></extensions></trkpt>
   <trkpt lat="59.0693726504" lon="29.9680896126"><ele>98.551</ele><time>2026-04-25T11:07:15.000Z</time><hdop>3.0</hdop><vdop>3.0</vdop><extensions><gom:speed>0.0</gom:speed></extensions></trkpt>
   <trkpt lat="59.0693726504" lon="29.9680896126"><ele>98.55</ele><time>2026-04-25T11:07:16.000Z</time><hdop>3.0</hdop><vdop>3.0</vdop><extensions><gom:speed>0.0</gom:speed></extensions></trkpt>
   <trkpt lat="59.0693726504" lon="29.9680896126"><ele>98.549</ele><time>2026-04-25T11:07:16.000Z</time><hdop>3.0</hdop><vdop>3.0</vdop><extensions><gom:speed>0.0</gom:speed></extensions></trkpt>
   <trkpt lat="59.0693726504" lon="29.9680896126"><ele>98.549</ele><time>2026-04-25T11:07:17.000Z</time><hdop>3.0</hdop><vdop>3.0</vdop><extensions><gom:speed>0.0</gom:speed></extensions></trkpt>
   <trkpt lat="59.0693726504" lon="29.9680896126"><ele>98.548</ele><time>2026-04-25T11:07:18.000Z</time><hdop>3.0</hdop><vdop>3.0</vdop><extensions><gom:speed>0.0</gom:speed></extensions></trkpt>
   <trkpt lat="59.0693726504" lon="29.9680896126"><ele>98.548</ele><time>2026-04-25T11:07:19.000Z</time><hdop>3.0</hdop><vdop>3.0</vdop><extensions><gom:speed>0.0</gom:speed></extensions></trkpt>
   <trkpt lat="59.0693726504" lon="29.9680896126"><ele>98.548</ele><time>2026-04-25T11:07:20.000Z</time><hdop>3.0</hdop><vdop>3.0</vdop><extensions><gom:speed>0.0</gom:speed></extensions></trkpt>
   <trkpt lat="59.0693806971" lon="29.968092211"><ele>98.553</ele><time>2026-04-25T11:07:21.000Z</time><hdop>3.0</hdop><vdop>3.0</vdop><extensions><gom:speed>0.829</gom:speed></extensions></trkpt>
   <trkpt lat="59.0693902524" lon="29.9680971563"><ele>98.538</ele><time>2026-04-25T11:07:22.000Z</time><hdop>3.062</hdop><vdop>3.062</vdop><extensions><gom:speed>1.009</gom:speed></extensions></trkpt>
   <trkpt lat="59.0694003526" lon="29.9681011796"><ele>98.498</ele><time>2026-04-25T11:07:23.000Z</time><hdop>3.0</hdop><vdop>3.0</vdop><extensions><gom:speed>0.891</gom:speed></extensions></trkpt>
   <trkpt lat="59.0694092794" lon="29.9681063764"><ele>98.496</ele><time>2026-04-25T11:07:24.000Z</time><hdop>3.0</hdop><vdop>3.0</vdop><extensions><gom:speed>0.709</gom:speed></extensions></trkpt>
   <trkpt lat="59.0694167392" lon="29.9681106512"><ele>98.526</ele><time>2026-04-25T11:07:25.000Z</time><hdop>3.0</hdop><vdop>3.0</vdop><extensions><gom:speed>0.623</gom:speed></extensions></trkpt>
   <trkpt lat="59.069426127" lon="29.9681113217"><ele>98.679</ele><time>2026-04-25T11:07:26.000Z</time><hdop>3.0</hdop><vdop>3.0</vdop><extensions><gom:speed>0.902</gom:speed></extensions></trkpt>
   <trkpt lat="59.0694351375" lon="29.9681141716"><ele>98.797</ele><time>2026-04-25T11:07:27.000Z</time><hdop>3.0</hdop><vdop>3.0</vdop><extensions><gom:speed>0.804</gom:speed></extensions></trkpt>
   <trkpt lat="59.0694415916" lon="29.9681199551"><ele>98.895</ele><time>2026-04-25T11:07:28.000Z</time><hdop>3.0</hdop><vdop>3.0</vdop><extensions><gom:speed>0.554</gom:speed></extensions></trkpt>
   <trkpt lat="59.0694463693" lon="29.9681236431"><ele>98.965</ele><time>2026-04-25T11:07:29.000Z</time><hdop>3.187</hdop><vdop>3.187</vdop><extensions><gom:speed>0.294</gom:speed></extensions></trkpt>
   <trkpt lat="59.0694486324" lon="29.9681243137"><ele>99.01</ele><time>2026-04-25T11:07:30.000Z</time><hdop>3.375</hdop><vdop>3.375</vdop><extensions><gom:speed>0.157</gom:speed></extensions></trkpt>
   <trkpt lat="59.0694517756" lon="29.9681222182"><ele>99.13</ele><time>2026-04-25T11:07:31.000Z</time><hdop>3.687</hdop><vdop>3.687</vdop><extensions><gom:speed>0.245</gom:speed></extensions></trkpt>
   <trkpt lat="59.0694517756" lon="29.9681222182"><ele>99.202</ele><time>2026-04-25T11:07:32.000Z</time><hdop>3.687</hdop><vdop>3.687</vdop><extensions><gom:speed>0.0</gom:speed></extensions></trkpt>
   <trkpt lat="59.0694517756" lon="29.9681222182"><ele>99.244</ele><time>2026-04-25T11:07:33.000Z</time><hdop>3.687</hdop><vdop>3.687</vdop><extensions><gom:speed>0.0</gom:speed></extensions></trkpt>
   <trkpt lat="59.0694517756" lon="29.9681222182"><ele>99.27</ele><time>2026-04-25T11:07:33.000Z</time><hdop>3.687</hdop><vdop>3.687</vdop><extensions><gom:speed>0.0</gom:speed></extensions></trkpt>
   <trkpt lat="59.0694517756" lon="29.9681222182"><ele>99.285</ele><time>2026-04-25T11:07:34.000Z</time><hdop>3.687</hdop><vdop>3.687</vdop><extensions><gom:speed>0.0</gom:speed></extensions></trkpt>
   <trkpt lat="59.0694517756" lon="29.9681222182"><ele>99.294</ele><time>2026-04-25T11:07:35.000Z</time><hdop>3.687</hdop><vdop>3.687</vdop><extensions><gom:speed>0.0</gom:speed></extensions></trkpt>
   <trkpt lat="59.0694517756" lon="29.9681222182"><ele>99.3</ele><time>2026-04-25T11:07:36.000Z</time><hdop>3.687</hdop><vdop>3.687</vdop><extensions><gom:speed>0.0</gom:speed></extensions></trkpt>
   <trkpt lat="59.0694517756" lon="29.9681222182"><ele>99.303</ele><time>2026-04-25T11:07:37.000Z</time><hdop>3.687</hdop><vdop>3.687</vdop><extensions><gom:speed>0.0</gom:speed></extensions></trkpt>
   <trkpt lat="59.0694517756" lon="29.9681222182"><ele>99.305</ele><time>2026-04-25T11:07:38.000Z</time><hdop>3.687</hdop><vdop>3.687</vdop><extensions><gom:speed>0.0</gom:speed></extensions></trkpt>
   <trkpt lat="59.0694517756" lon="29.9681222182"><ele>99.306</ele><time>2026-04-25T11:07:39.000Z</time><hdop>3.687</hdop><vdop>3.687</vdop><extensions><gom:speed>0.0</gom:speed></extensions></trkpt>
   <trkpt lat="59.0694517756" lon="29.9681222182"><ele>99.307</ele><time>2026-04-25T11:07:40.000Z</time><hdop>3.687</hdop><vdop>3.687</vdop><extensions><gom:speed>0.0</gom:speed></extensions></trkpt>
   <trkpt lat="59.0694517756" lon="29.9681222182"><ele>99.307</ele><time>2026-04-25T11:07:41.000Z</time><hdop>3.687</hdop><vdop>3.687</vdop><extensions><gom:speed>0.0</gom:speed></extensions></trkpt>
   <trkpt lat="59.0694517756" lon="29.9681222182"><ele>99.308</ele><time>2026-04-25T11:07:42.000Z</time><hdop>3.687</hdop><vdop>3.687</vdop><extensions><gom:speed>0.0</gom:speed></extensions></trkpt>
   <trkpt lat="59.0694517756" lon="29.9681222182"><ele>99.308</ele><time>2026-04-25T11:07:43.000Z</time><hdop>3.687</hdop><vdop>3.687</vdop><extensions><gom:speed>0.0</gom:speed></extensions></trkpt>
   <trkpt lat="59.0694517756" lon="29.9681222182"><ele>99.308</ele><time>2026-04-25T11:07:44.000Z</time><hdop>3.687</hdop><vdop>3.687</vdop><extensions><gom:speed>0.0</gom:speed></extensions></trkpt>
   <trkpt lat="59.0694517756" lon="29.9681222182"><ele>99.308</ele><time>2026-04-25T11:07:45.000Z</time><hdop>3.687</hdop><vdop>3.687</vdop><extensions><gom:speed>0.0</gom:speed></extensions></trkpt>
   <trkpt lat="59.0694517756" lon="29.9681222182"><ele>99.308</ele><time>2026-04-25T11:07:46.000Z</time><hdop>3.687</hdop><vdop>3.687</vdop><extensions><gom:speed>0.0</gom:speed></extensions></trkpt>
   <trkpt lat="59.0694517756" lon="29.9681222182"><ele>99.308</ele><time>2026-04-25T11:07:47.000Z</time><hdop>3.687</hdop><vdop>3.687</vdop><extensions><gom:speed>0.0</gom:speed></extensions></trkpt>
   <trkpt lat="59.0694517756" lon="29.9681222182"><ele>99.308</ele><time>2026-04-25T11:07:48.000Z</time><hdop>3.687</hdop><vdop>3.687</vdop><extensions><gom:speed>0.0</gom:speed></extensions></trkpt>
   <trkpt lat="59.0694517756" lon="29.9681222182"><ele>99.308</ele><time>2026-04-25T11:07:49.000Z</time><hdop>3.687</hdop><vdop>3.687</vdop><extensions><gom:speed>0.0</gom:speed></extensions></trkpt>
   <trkpt lat="59.0694550865" lon="29.9681298457"><ele>99.31</ele><time>2026-04-25T11:07:50.000Z</time><hdop>3.5</hdop><vdop>3.5</vdop><extensions><gom:speed>0.489</gom:speed></extensions></trkpt>
   <trkpt lat="59.0694607023" lon="29.9681365513"><ele>99.279</ele><time>2026-04-25T11:07:51.000Z</time><hdop>3.25</hdop><vdop>3.25</vdop><extensions><gom:speed>0.478</gom:speed></extensions></trkpt>
   <trkpt lat="59.0694670726" lon="29.9681357969"><ele>99.319</ele><time>2026-04-25T11:07:52.000Z</time><hdop>4.375</hdop><vdop>4.375</vdop><extensions><gom:speed>0.525</gom:speed></extensions></trkpt>
   <trkpt lat="59.06947382" lon="29.9681338691"><ele>99.339</ele><time>2026-04-25T11:07:53.000Z</time><hdop>4.937</hdop><vdop>4.937</vdop><extensions><gom:speed>0.617</gom:speed></extensions></trkpt>
   <trkpt lat="59.06947382" lon="29.9681338691"><ele>99.35</ele><time>2026-04-25T11:07:53.000Z</time><hdop>4.937</hdop><vdop>4.937</vdop><extensions><gom:speed>0.617</gom:speed></extensions></trkpt>
   <trkpt lat="59.0694814894" lon="29.968134372"><ele>99.359</ele><time>2026-04-25T11:07:54.000Z</time><hdop>4.687</hdop><vdop>4.687</vdop><extensions><gom:speed>0.731</gom:speed></extensions></trkpt>
   <trkpt lat="59.0694895361" lon="29.9681356293"><ele>99.36</ele><time>2026-04-25T11:07:55.000Z</time><hdop>4.687</hdop><vdop>4.687</vdop><extensions><gom:speed>0.734</gom:speed></extensions></trkpt>
   <trkpt lat="59.069497457" lon="29.9681381438"><ele>99.386</ele><time>2026-04-25T11:07:56.000Z</time><hdop>4.687</hdop><vdop>4.687</vdop><extensions><gom:speed>0.868</gom:speed></extensions></trkpt>
   <trkpt lat="59.0695061742" lon="29.9681414966"><ele>99.411</ele><time>2026-04-25T11:07:57.000Z</time><hdop>4.687</hdop><vdop>4.687</vdop><extensions><gom:speed>0.813</gom:speed></extensions></trkpt>
   <trkpt lat="59.0695122091" lon="29.9681402393"><ele>99.435</ele><time>2026-04-25T11:07:58.000Z</time><hdop>4.687</hdop><vdop>4.687</vdop><extensions><gom:speed>0.453</gom:speed></extensions></trkpt>
   <trkpt lat="59.0695151009" lon="29.9681418319"><ele>99.39</ele><time>2026-04-25T11:07:59.000Z</time><hdop>4.875</hdop><vdop>4.875</vdop><extensions><gom:speed>0.22</gom:speed></extensions></trkpt>
   <trkpt lat="59.0695151009" lon="29.9681418319"><ele>99.364</ele><time>2026-04-25T11:08:00.000Z</time><hdop>4.875</hdop><vdop>4.875</vdop><extensions><gom:speed>0.0</gom:speed></extensions></trkpt>
   <trkpt lat="59.0695147656" lon="29.968146861"><ele>99.27</ele><time>2026-04-25T11:08:01.000Z</time><hdop>4.75</hdop><vdop>4.75</vdop><extensions><gom:speed>0.15</gom:speed></extensions></trkpt>
   <trkpt lat="59.0695147656" lon="29.968146861"><ele>99.214</ele><time>2026-04-25T11:08:02.000Z</time><hdop>4.75</hdop><vdop>4.75</vdop><extensions><gom:speed>0.0</gom:speed></extensions></trkpt>
   <trkpt lat="59.0695147656" lon="29.968146861"><ele>99.181</ele><time>2026-04-25T11:08:03.000Z</time><hdop>4.75</hdop><vdop>4.75</vdop><extensions><gom:speed>0.0</gom:speed></extensions></trkpt>
   <trkpt lat="59.0695147656" lon="29.968146861"><ele>99.161</ele><time>2026-04-25T11:08:04.000Z</time><hdop>4.75</hdop><vdop>4.75</vdop><extensions><gom:speed>0.0</gom:speed></extensions></trkpt>
   <trkpt lat="59.0695147656" lon="29.968146861"><ele>99.149</ele><time>2026-04-25T11:08:05.000Z</time><hdop>4.75</hdop><vdop>4.75</vdop><extensions><gom:speed>0.0</gom:speed></extensions></trkpt>
   <trkpt lat="59.0695147656" lon="29.968146861"><ele>99.142</ele><time>2026-04-25T11:08:06.000Z</time><hdop>4.75</hdop><vdop>4.75</vdop><extensions><gom:speed>0.0</gom:speed></extensions></trkpt>
   <trkpt lat="59.0695147656" lon="29.968146861"><ele>99.138</ele><time>2026-04-25T11:08:07.000Z</time><hdop>4.75</hdop><vdop>4.75</vdop><extensions><gom:speed>0.0</gom:speed></extensions></trkpt>
   <trkpt lat="59.0695147656" lon="29.968146861"><ele>99.135</ele><time>2026-04-25T11:08:08.000Z</time><hdop>4.75</hdop><vdop>4.75</vdop><extensions><gom:speed>0.0</gom:speed></extensions></trkpt>
   <trkpt lat="59.0695147656" lon="29.968146861"><ele>99.133</ele><time>2026-04-25T11:08:09.000Z</time><hdop>4.75</hdop><vdop>4.75</vdop><extensions><gom:speed>0.0</gom:speed></extensions></trkpt>
   <trkpt lat="59.0695147656" lon="29.968146861"><ele>99.133</ele><time>2026-04-25T11:08:10.000Z</time><hdop>4.75</hdop><vdop>4.75</vdop><extensions><gom:speed>0.0</gom:speed></extensions></trkpt>
   <trkpt lat="59.0695147656" lon="29.968146861"><ele>99.132</ele><time>2026-04-25T11:08:11.000Z</time><hdop>4.75</hdop><vdop>4.75</vdop><extensions><gom:speed>0.0</gom:speed></extensions></trkpt>
   <trkpt lat="59.0695147656" lon="29.968146861"><ele>99.132</ele><time>2026-04-25T11:08:12.000Z</time><hdop>4.75</hdop><vdop>4.75</vdop><extensions><gom:speed>0.0</gom:speed></extensions></trkpt>
   <trkpt lat="59.0695147656" lon="29.968146861"><ele>99.131</ele><time>2026-04-25T11:08:12.000Z</time><hdop>4.75</hdop><vdop>4.75</vdop><extensions><gom:speed>0.0</gom:speed></extensions></trkpt>
   <trkpt lat="59.0695147656" lon="29.968146861"><ele>99.131</ele><time>2026-04-25T11:08:13.000Z</time><hdop>4.75</hdop><vdop>4.75</vdop><extensions><gom:speed>0.0</gom:speed></extensions></trkpt>
   <trkpt lat="59.0695147656" lon="29.968146861"><ele>99.131</ele><time>2026-04-25T11:08:13.000Z</time><hdop>4.75</hdop><vdop>4.75</vdop><extensions><gom:speed>0.0</gom:speed></extensions></trkpt>
   <trkpt lat="59.0695147656" lon="29.968146861"><ele>99.131</ele><time>2026-04-25T11:08:14.000Z</time><hdop>4.75</hdop><vdop>4.75</vdop><extensions><gom:speed>0.0</gom:speed></extensions></trkpt>
   <trkpt lat="59.0695147656" lon="29.968146861"><ele>99.131</ele><time>2026-04-25T11:08:15.000Z</time><hdop>4.75</hdop><vdop>4.75</vdop><extensions><gom:speed>0.0</gom:speed></extensions></trkpt>
   <trkpt lat="59.0695147656" lon="29.968146861"><ele>99.131</ele><time>2026-04-25T11:08:16.000Z</time><hdop>4.75</hdop><vdop>4.75</vdop><extensions><gom:speed>0.0</gom:speed></extensions></trkpt>
   <trkpt lat="59.0695147656" lon="29.968146861"><ele>99.131</ele><time>2026-04-25T11:08:17.000Z</time><hdop>4.75</hdop><vdop>4.75</vdop><extensions><gom:speed>0.0</gom:speed></extensions></trkpt>
   <trkpt lat="59.0695147656" lon="29.968146861"><ele>99.131</ele><time>2026-04-25T11:08:18.000Z</time><hdop>4.75</hdop><vdop>4.75</vdop><extensions><gom:speed>0.0</gom:speed></extensions></trkpt>
   <trkpt lat="59.0695147656" lon="29.968146861"><ele>99.131</ele><time>2026-04-25T11:08:19.000Z</time><hdop>4.75</hdop><vdop>4.75</vdop><extensions><gom:speed>0.0</gom:speed></extensions></trkpt>
   <trkpt lat="59.0695147656" lon="29.968146861"><ele>99.131</ele><time>2026-04-25T11:08:20.000Z</time><hdop>4.75</hdop><vdop>4.75</vdop><extensions><gom:speed>0.0</gom:speed></extensions></trkpt>
   <trkpt lat="59.0695147656" lon="29.968146861"><ele>99.131</ele><time>2026-04-25T11:08:21.000Z</time><hdop>4.75</hdop><vdop>4.75</vdop><extensions><gom:speed>0.0</gom:speed></extensions></trkpt>
   <trkpt lat="59.0695147656" lon="29.968146861"><ele>99.131</ele><time>2026-04-25T11:08:22.000Z</time><hdop>4.75</hdop><vdop>4.75</vdop><extensions><gom:speed>0.0</gom:speed></extensions></trkpt>
   <trkpt lat="59.0695147656" lon="29.968146861"><ele>99.131</ele><time>2026-04-25T11:08:23.000Z</time><hdop>4.75</hdop><vdop>4.75</vdop><extensions><gom:speed>0.0</gom:speed></extensions></trkpt>
   <trkpt lat="59.0695147656" lon="29.968146861"><ele>99.131</ele><time>2026-04-25T11:08:24.000Z</time><hdop>4.75</hdop><vdop>4.75</vdop><extensions><gom:speed>0.0</gom:speed></extensions></trkpt>
   <trkpt lat="59.0695147656" lon="29.968146861"><ele>99.131</ele><time>2026-04-25T11:08:25.000Z</time><hdop>4.75</hdop><vdop>4.75</vdop><extensions><gom:speed>0.0</gom:speed></extensions></trkpt>
   <trkpt lat="59.0695147656" lon="29.968146861"><ele>99.131</ele><time>2026-04-25T11:08:26.000Z</time><hdop>4.75</hdop><vdop>4.75</vdop><extensions><gom:speed>0.0</gom:speed></extensions></trkpt>
   <trkpt lat="59.0695147656" lon="29.968146861"><ele>99.131</ele><time>2026-04-25T11:08:27.000Z</time><hdop>4.75</hdop><vdop>4.75</vdop><extensions><gom:speed>0.0</gom:speed></extensions></trkpt>
   <trkpt lat="59.0695147656" lon="29.968146861"><ele>99.131</ele><time>2026-04-25T11:08:28.000Z</time><hdop>4.75</hdop><vdop>4.75</vdop><extensions><gom:speed>0.0</gom:speed></extensions></trkpt>
   <trkpt lat="59.0695147656" lon="29.968146861"><ele>99.131</ele><time>2026-04-25T11:08:29.000Z</time><hdop>4.75</hdop><vdop>4.75</vdop><extensions><gom:speed>0.0</gom:speed></extensions></trkpt>
   <trkpt lat="59.0695147656" lon="29.968146861"><ele>99.131</ele><time>2026-04-25T11:08:30.000Z</time><hdop>4.75</hdop><vdop>4.75</vdop><extensions><gom:speed>0.0</gom:speed></extensions></trkpt>
   <trkpt lat="59.0695147656" lon="29.968146861"><ele>99.131</ele><time>2026-04-25T11:08:31.000Z</time><hdop>4.75</hdop><vdop>4.75</vdop><extensions><gom:speed>0.0</gom:speed></extensions></trkpt>
   <trkpt lat="59.0695147656" lon="29.968146861"><ele>99.131</ele><time>2026-04-25T11:08:32.000Z</time><hdop>4.75</hdop><vdop>4.75</vdop><extensions><gom:speed>0.0</gom:speed></extensions></trkpt>
   <trkpt lat="59.0695147656" lon="29.968146861"><ele>99.131</ele><time>2026-04-25T11:08:33.000Z</time><hdop>4.75</hdop><vdop>4.75</vdop><extensions><gom:speed>0.0</gom:speed></extensions></trkpt>
   <trkpt lat="59.0695147656" lon="29.968146861"><ele>99.131</ele><time>2026-04-25T11:08:33.000Z</time><hdop>4.75</hdop><vdop>4.75</vdop><extensions><gom:speed>0.0</gom:speed></extensions></trkpt>
   <trkpt lat="59.0695147656" lon="29.968146861"><ele>99.131</ele><time>2026-04-25T11:08:34.000Z</time><hdop>4.75</hdop><vdop>4.75</vdop><extensions><gom:speed>0.0</gom:speed></extensions></trkpt>
   <trkpt lat="59.0695147656" lon="29.968146861"><ele>99.131</ele><time>2026-04-25T11:08:35.000Z</time><hdop>4.75</hdop><vdop>4.75</vdop><extensions><gom:speed>0.0</gom:speed></extensions></trkpt>
   <trkpt lat="59.0695147656" lon="29.968146861"><ele>99.131</ele><time>2026-04-25T11:08:36.000Z</time><hdop>4.75</hdop><vdop>4.75</vdop><extensions><gom:speed>0.0</gom:speed></extensions></trkpt>
   <trkpt lat="59.0695147656" lon="29.968146861"><ele>99.131</ele><time>2026-04-25T11:08:37.000Z</time><hdop>4.75</hdop><vdop>4.75</vdop><extensions><gom:speed>0.0</gom:speed></extensions></trkpt>
   <trkpt lat="59.0695147656" lon="29.968146861"><ele>99.131</ele><time>2026-04-25T11:08:38.000Z</time><hdop>4.75</hdop><vdop>4.75</vdop><extensions><gom:speed>0.0</gom:speed></extensions></trkpt>
   <trkpt lat="59.0695147656" lon="29.968146861"><ele>99.131</ele><time>2026-04-25T11:08:39.000Z</time><hdop>4.75</hdop><vdop>4.75</vdop><extensions><gom:speed>0.0</gom:speed></extensions></trkpt>
   <trkpt lat="59.0695147656" lon="29.968146861"><ele>99.131</ele><time>2026-04-25T11:08:40.000Z</time><hdop>4.75</hdop><vdop>4.75</vdop><extensions><gom:speed>0.0</gom:speed></extensions></trkpt>
   <trkpt lat="59.0695147656" lon="29.968146861"><ele>99.131</ele><time>2026-04-25T11:08:41.000Z</time><hdop>4.75</hdop><vdop>4.75</vdop><extensions><gom:speed>0.0</gom:speed></extensions></trkpt>
   <trkpt lat="59.0695147656" lon="29.968146861"><ele>99.131</ele><time>2026-04-25T11:08:42.000Z</time><hdop>4.75</hdop><vdop>4.75</vdop><extensions><gom:speed>0.0</gom:speed></extensions></trkpt>
   <trkpt lat="59.0695147656" lon="29.968146861"><ele>99.131</ele><time>2026-04-25T11:08:43.000Z</time><hdop>4.75</hdop><vdop>4.75</vdop><extensions><gom:speed>0.0</gom:speed></extensions></trkpt>
   <trkpt lat="59.0695147656" lon="29.968146861"><ele>99.131</ele><time>2026-04-25T11:08:44.000Z</time><hdop>4.75</hdop><vdop>4.75</vdop><extensions><gom:speed>0.0</gom:speed></extensions></trkpt>
   <trkpt lat="59.0695147656" lon="29.968146861"><ele>99.131</ele><time>2026-04-25T11:08:45.000Z</time><hdop>4.75</hdop><vdop>4.75</vdop><extensions><gom:speed>0.0</gom:speed></extensions></trkpt>
   <trkpt lat="59.0695147656" lon="29.968146861"><ele>99.131</ele><time>2026-04-25T11:08:46.000Z</time><hdop>4.75</hdop><vdop>4.75</vdop><extensions><gom:speed>0.0</gom:speed></extensions></trkpt>
   <trkpt lat="59.0695147656" lon="29.968146861"><ele>99.131</ele><time>2026-04-25T11:08:47.000Z</time><hdop>4.75</hdop><vdop>4.75</vdop><extensions><gom:speed>0.0</gom:speed></extensions></trkpt>
   <trkpt lat="59.0695147656" lon="29.968146861"><ele>99.131</ele><time>2026-04-25T11:08:48.000Z</time><hdop>4.75</hdop><vdop>4.75</vdop><extensions><gom:speed>0.0</gom:speed></extensions></trkpt>
   <trkpt lat="59.0695147656" lon="29.968146861"><ele>99.131</ele><time>2026-04-25T11:08:49.000Z</time><hdop>4.75</hdop><vdop>4.75</vdop><extensions><gom:speed>0.0</gom:speed></extensions></trkpt>
   <trkpt lat="59.0695147656" lon="29.968146861"><ele>99.131</ele><time>2026-04-25T11:08:50.000Z</time><hdop>4.75</hdop><vdop>4.75</vdop><extensions><gom:speed>0.0</gom:speed></extensions></trkpt>
   <trkpt lat="59.0695147656" lon="29.968146861"><ele>99.131</ele><time>2026-04-25T11:08:51.000Z</time><hdop>4.75</hdop><vdop>4.75</vdop><extensions><gom:speed>0.0</gom:speed></extensions></trkpt>
   <trkpt lat="59.0695147656" lon="29.968146861"><ele>99.131</ele><time>2026-04-25T11:08:52.000Z</time><hdop>4.75</hdop><vdop>4.75</vdop><extensions><gom:speed>0.0</gom:speed></extensions></trkpt>
   <trkpt lat="59.0695147656" lon="29.968146861"><ele>99.131</ele><time>2026-04-25T11:08:53.000Z</time><hdop>4.75</hdop><vdop>4.75</vdop><extensions><gom:speed>0.0</gom:speed></extensions></trkpt>
   <trkpt lat="59.0695147656" lon="29.968146861"><ele>99.131</ele><time>2026-04-25T11:08:53.000Z</time><hdop>4.75</hdop><vdop>4.75</vdop><extensions><gom:speed>0.0</gom:speed></extensions></trkpt>
   <trkpt lat="59.0695147656" lon="29.968146861"><ele>99.131</ele><time>2026-04-25T11:08:54.000Z</time><hdop>4.75</hdop><vdop>4.75</vdop><extensions><gom:speed>0.0</gom:speed></extensions></trkpt>
   <trkpt lat="59.0695147656" lon="29.968146861"><ele>99.131</ele><time>2026-04-25T11:08:55.000Z</time><hdop>4.75</hdop><vdop>4.75</vdop><extensions><gom:speed>0.0</gom:speed></extensions></trkpt>
   <trkpt lat="59.0695147656" lon="29.968146861"><ele>99.131</ele><time>2026-04-25T11:08:55.000Z</time><hdop>4.75</hdop><vdop>4.75</vdop><extensions><gom:speed>0.0</gom:speed></extensions></trkpt>
   <trkpt lat="59.0695147656" lon="29.968146861"><ele>99.131</ele><time>2026-04-25T11:08:56.000Z</time><hdop>4.75</hdop><vdop>4.75</vdop><extensions><gom:speed>0.0</gom:speed></extensions></trkpt>
   <trkpt lat="59.0695147656" lon="29.968146861"><ele>99.131</ele><time>2026-04-25T11:08:57.000Z</time><hdop>4.75</hdop><vdop>4.75</vdop><extensions><gom:speed>0.0</gom:speed></extensions></trkpt>
   <trkpt lat="59.0695147656" lon="29.968146861"><ele>99.131</ele><time>2026-04-25T11:08:58.000Z</time><hdop>4.75</hdop><vdop>4.75</vdop><extensions><gom:speed>0.0</gom:speed></extensions></trkpt>
   <trkpt lat="59.0695147656" lon="29.968146861"><ele>99.131</ele><time>2026-04-25T11:08:59.000Z</time><hdop>4.75</hdop><vdop>4.75</vdop><extensions><gom:speed>0.0</gom:speed></extensions></trkpt>
   <trkpt lat="59.0695147656" lon="29.968146861"><ele>99.131</ele><time>2026-04-25T11:09:00.000Z</time><hdop>4.75</hdop><vdop>4.75</vdop><extensions><gom:speed>0.0</gom:speed></extensions></trkpt>
   <trkpt lat="59.0695147656" lon="29.968146861"><ele>99.131</ele><time>2026-04-25T11:09:01.000Z</time><hdop>4.75</hdop><vdop>4.75</vdop><extensions><gom:speed>0.0</gom:speed></extensions></trkpt>
   <trkpt lat="59.0695147656" lon="29.968146861"><ele>99.131</ele><time>2026-04-25T11:09:02.000Z</time><hdop>4.75</hdop><vdop>4.75</vdop><extensions><gom:speed>0.0</gom:speed></extensions></trkpt>
   <trkpt lat="59.0695147656" lon="29.968146861"><ele>99.131</ele><time>2026-04-25T11:09:03.000Z</time><hdop>4.75</hdop><vdop>4.75</vdop><extensions><gom:speed>0.0</gom:speed></extensions></trkpt>
   <trkpt lat="59.0695147656" lon="29.968146861"><ele>99.131</ele><time>2026-04-25T11:09:04.000Z</time><hdop>4.75</hdop><vdop>4.75</vdop><extensions><gom:speed>0.0</gom:speed></extensions></trkpt>
   <trkpt lat="59.0695147656" lon="29.968146861"><ele>99.131</ele><time>2026-04-25T11:09:05.000Z</time><hdop>4.75</hdop><vdop>4.75</vdop><extensions><gom:speed>0.0</gom:speed></extensions></trkpt>
   <trkpt lat="59.0695147656" lon="29.968146861"><ele>99.131</ele><time>2026-04-25T11:09:06.000Z</time><hdop>4.75</hdop><vdop>4.75</vdop><extensions><gom:speed>0.0</gom:speed></extensions></trkpt>
   <trkpt lat="59.0695147656" lon="29.968146861"><ele>99.131</ele><time>2026-04-25T11:09:07.000Z</time><hdop>4.75</hdop><vdop>4.75</vdop><extensions><gom:speed>0.0</gom:speed></extensions></trkpt>
   <trkpt lat="59.0695147656" lon="29.968146861"><ele>99.131</ele><time>2026-04-25T11:09:08.000Z</time><hdop>4.75</hdop><vdop>4.75</vdop><extensions><gom:speed>0.0</gom:speed></extensions></trkpt>
   <trkpt lat="59.0695147656" lon="29.968146861"><ele>99.131</ele><time>2026-04-25T11:09:09.000Z</time><hdop>4.75</hdop><vdop>4.75</vdop><extensions><gom:speed>0.0</gom:speed></extensions></trkpt>
   <trkpt lat="59.0695147656" lon="29.968146861"><ele>99.131</ele><time>2026-04-25T11:09:10.000Z</time><hdop>4.75</hdop><vdop>4.75</vdop><extensions><gom:speed>0.0</gom:speed></extensions></trkpt>
   <trkpt lat="59.0695147656" lon="29.968146861"><ele>99.131</ele><time>2026-04-25T11:09:11.000Z</time><hdop>4.75</hdop><vdop>4.75</vdop><extensions><gom:speed>0.0</gom:speed></extensions></trkpt>
   <trkpt lat="59.0695147656" lon="29.968146861"><ele>99.131</ele><time>2026-04-25T11:09:12.000Z</time><hdop>4.75</hdop><vdop>4.75</vdop><extensions><gom:speed>0.0</gom:speed></extensions></trkpt>
   <trkpt lat="59.0695147656" lon="29.968146861"><ele>99.131</ele><time>2026-04-25T11:09:13.000Z</time><hdop>4.75</hdop><vdop>4.75</vdop><extensions><gom:speed>0.0</gom:speed></extensions></trkpt>
   <trkpt lat="59.0695147656" lon="29.968146861"><ele>99.131</ele><time>2026-04-25T11:09:13.000Z</time><hdop>4.75</hdop><vdop>4.75</vdop><extensions><gom:speed>0.0</gom:speed></extensions></trkpt>
   <trkpt lat="59.0695147656" lon="29.968146861"><ele>99.131</ele><time>2026-04-25T11:09:14.000Z</time><hdop>4.75</hdop><vdop>4.75</vdop><extensions><gom:speed>0.0</gom:speed></extensions></trkpt>
   <trkpt lat="59.0695147656" lon="29.968146861"><ele>99.131</ele><time>2026-04-25T11:09:15.000Z</time><hdop>4.75</hdop><vdop>4.75</vdop><extensions><gom:speed>0.0</gom:speed></extensions></trkpt>
   <trkpt lat="59.0695147656" lon="29.968146861"><ele>99.131</ele><time>2026-04-25T11:09:16.000Z</time><hdop>4.75</hdop><vdop>4.75</vdop><extensions><gom:speed>0.0</gom:speed></extensions></trkpt>
   <trkpt lat="59.0695147656" lon="29.968146861"><ele>99.131</ele><time>2026-04-25T11:09:17.000Z</time><hdop>4.75</hdop><vdop>4.75</vdop><extensions><gom:speed>0.0</gom:speed></extensions></trkpt>
   <trkpt lat="59.0695164001" lon="29.9681551591"><ele>99.092</ele><time>2026-04-25T11:09:18.000Z</time><hdop>4.562</hdop><vdop>4.562</vdop><extensions><gom:speed>0.153</gom:speed></extensions></trkpt>
   <trkpt lat="59.0695188727" lon="29.9681570031"><ele>99.06</ele><time>2026-04-25T11:09:19.000Z</time><hdop>4.812</hdop><vdop>4.812</vdop><extensions><gom:speed>0.216</gom:speed></extensions></trkpt>
   <trkpt lat="59.0695188727" lon="29.9681570031"><ele>99.041</ele><time>2026-04-25T11:09:20.000Z</time><hdop>4.812</hdop><vdop>4.812</vdop><extensions><gom:speed>0.0</gom:speed></extensions></trkpt>
   <trkpt lat="59.0695188727" lon="29.9681570031"><ele>99.029</ele><time>2026-04-25T11:09:21.000Z</time><hdop>4.812</hdop><vdop>4.812</vdop><extensions><gom:speed>0.0</gom:speed></extensions></trkpt>
   <trkpt lat="59.0695188727" lon="29.9681570031"><ele>99.023</ele><time>2026-04-25T11:09:22.000Z</time><hdop>4.812</hdop><vdop>4.812</vdop><extensions><gom:speed>0.0</gom:speed></extensions></trkpt>
   <trkpt lat="59.0695188727" lon="29.9681570031"><ele>99.019</ele><time>2026-04-25T11:09:23.000Z</time><hdop>4.812</hdop><vdop>4.812</vdop><extensions><gom:speed>0.0</gom:speed></extensions></trkpt>
   <trkpt lat="59.0695188727" lon="29.9681570031"><ele>99.016</ele><time>2026-04-25T11:09:24.000Z</time><hdop>4.812</hdop><vdop>4.812</vdop><extensions><gom:speed>0.0</gom:speed></extensions></trkpt>
   <trkpt lat="59.0695188727" lon="29.9681570031"><ele>99.015</ele><time>2026-04-25T11:09:25.000Z</time><hdop>4.812</hdop><vdop>4.812</vdop><extensions><gom:speed>0.0</gom:speed></extensions></trkpt>
   <trkpt lat="59.0695188727" lon="29.9681570031"><ele>99.014</ele><time>2026-04-25T11:09:26.000Z</time><hdop>4.812</hdop><vdop>4.812</vdop><extensions><gom:speed>0.0</gom:speed></extensions></trkpt>
   <trkpt lat="59.0695188727" lon="29.9681570031"><ele>99.013</ele><time>2026-04-25T11:09:27.000Z</time><hdop>4.812</hdop><vdop>4.812</vdop><extensions><gom:speed>0.0</gom:speed></extensions></trkpt>
   <trkpt lat="59.0695188727" lon="29.9681570031"><ele>99.013</ele><time>2026-04-25T11:09:28.000Z</time><hdop>4.812</hdop><vdop>4.812</vdop><extensions><gom:speed>0.0</gom:speed></extensions></trkpt>
   <trkpt lat="59.0695188727" lon="29.9681570031"><ele>99.013</ele><time>2026-04-25T11:09:29.000Z</time><hdop>4.812</hdop><vdop>4.812</vdop><extensions><gom:speed>0.0</gom:speed></extensions></trkpt>
   <trkpt lat="59.0695188727" lon="29.9681570031"><ele>99.013</ele><time>2026-04-25T11:09:30.000Z</time><hdop>4.812</hdop><vdop>4.812</vdop><extensions><gom:speed>0.0</gom:speed></extensions></trkpt>
   <trkpt lat="59.0695188727" lon="29.9681570031"><ele>99.013</ele><time>2026-04-25T11:09:31.000Z</time><hdop>4.812</hdop><vdop>4.812</vdop><extensions><gom:speed>0.0</gom:speed></extensions></trkpt>
   <trkpt lat="59.0695188727" lon="29.9681570031"><ele>99.013</ele><time>2026-04-25T11:09:32.000Z</time><hdop>4.812</hdop><vdop>4.812</vdop><extensions><gom:speed>0.0</gom:speed></extensions></trkpt>
   <trkpt lat="59.0695188727" lon="29.9681570031"><ele>99.013</ele><time>2026-04-25T11:09:33.000Z</time><hdop>4.812</hdop><vdop>4.812</vdop><extensions><gom:speed>0.0</gom:speed></extensions></trkpt>
   <trkpt lat="59.0695188727" lon="29.9681570031"><ele>99.013</ele><time>2026-04-25T11:09:33.000Z</time><hdop>4.812</hdop><vdop>4.812</vdop><extensions><gom:speed>0.0</gom:speed></extensions></trkpt>
   <trkpt lat="59.0695188727" lon="29.9681570031"><ele>99.012</ele><time>2026-04-25T11:09:34.000Z</time><hdop>4.812</hdop><vdop>4.812</vdop><extensions><gom:speed>0.0</gom:speed></extensions></trkpt>
   <trkpt lat="59.0695188727" lon="29.9681570031"><ele>99.012</ele><time>2026-04-25T11:09:35.000Z</time><hdop>4.812</hdop><vdop>4.812</vdop><extensions><gom:speed>0.0</gom:speed></extensions></trkpt>
   <trkpt lat="59.0695188727" lon="29.9681570031"><ele>99.012</ele><time>2026-04-25T11:09:36.000Z</time><hdop>4.812</hdop><vdop>4.812</vdop><extensions><gom:speed>0.0</gom:speed></extensions></trkpt>
   <trkpt lat="59.0695188727" lon="29.9681570031"><ele>99.012</ele><time>2026-04-25T11:09:37.000Z</time><hdop>4.812</hdop><vdop>4.812</vdop><extensions><gom:speed>0.0</gom:speed></extensions></trkpt>
   <trkpt lat="59.0695188727" lon="29.9681570031"><ele>99.012</ele><time>2026-04-25T11:09:38.000Z</time><hdop>4.812</hdop><vdop>4.812</vdop><extensions><gom:speed>0.0</gom:speed></extensions></trkpt>
   <trkpt lat="59.0695188727" lon="29.9681570031"><ele>99.012</ele><time>2026-04-25T11:09:39.000Z</time><hdop>4.812</hdop><vdop>4.812</vdop><extensions><gom:speed>0.0</gom:speed></extensions></trkpt>
   <trkpt lat="59.0695188727" lon="29.9681570031"><ele>99.012</ele><time>2026-04-25T11:09:40.000Z</time><hdop>4.812</hdop><vdop>4.812</vdop><extensions><gom:speed>0.0</gom:speed></extensions></trkpt>
   <trkpt lat="59.0695194595" lon="29.9681628704"><ele>98.962</ele><time>2026-04-25T11:09:41.000Z</time><hdop>4.75</hdop><vdop>4.75</vdop><extensions><gom:speed>0.27</gom:speed></extensions></trkpt>
   <trkpt lat="59.0695271289" lon="29.9681642954"><ele>98.914</ele><time>2026-04-25T11:09:42.000Z</time><hdop>4.5</hdop><vdop>4.5</vdop><extensions><gom:speed>0.603</gom:speed></extensions></trkpt>
   <trkpt lat="59.0695324933" lon="29.9681646306"><ele>98.867</ele><time>2026-04-25T11:09:43.000Z</time><hdop>4.0</hdop><vdop>4.0</vdop><extensions><gom:speed>0.408</gom:speed></extensions></trkpt>
   <trkpt lat="59.0695372291" lon="29.9681659717"><ele>98.86</ele><time>2026-04-25T11:09:44.000Z</time><hdop>3.812</hdop><vdop>3.812</vdop><extensions><gom:speed>0.368</gom:speed></extensions></trkpt>
   <trkpt lat="59.0695404561" lon="29.9681646306"><ele>98.874</ele><time>2026-04-25T11:09:45.000Z</time><hdop>3.625</hdop><vdop>3.625</vdop><extensions><gom:speed>0.492</gom:speed></extensions></trkpt>
   <trkpt lat="59.0695447309" lon="29.9681648821"><ele>98.927</ele><time>2026-04-25T11:09:46.000Z</time><hdop>3.25</hdop><vdop>3.25</vdop><extensions><gom:speed>0.535</gom:speed></extensions></trkpt>
   <trkpt lat="59.069549299" lon="29.9681668099"><ele>99.006</ele><time>2026-04-25T11:09:47.000Z</time><hdop>3.437</hdop><vdop>3.437</vdop><extensions><gom:speed>0.556</gom:speed></extensions></trkpt>
   <trkpt lat="59.069549299" lon="29.9681668099"><ele>99.053</ele><time>2026-04-25T11:09:48.000Z</time><hdop>3.437</hdop><vdop>3.437</vdop><extensions><gom:speed>0.0</gom:speed></extensions></trkpt>
   <trkpt lat="59.0695555436" lon="29.9681680672"><ele>99.101</ele><time>2026-04-25T11:09:49.000Z</time><hdop>3.875</hdop><vdop>3.875</vdop><extensions><gom:speed>0.436</gom:speed></extensions></trkpt>
   <trkpt lat="59.0695555436" lon="29.9681680672"><ele>99.13</ele><time>2026-04-25T11:09:50.000Z</time><hdop>3.875</hdop><vdop>3.875</vdop><extensions><gom:speed>0.0</gom:speed></extensions></trkpt>
   <trkpt lat="59.0695607823" lon="29.9681699112"><ele>99.167</ele><time>2026-04-25T11:09:51.000Z</time><hdop>4.062</hdop><vdop>4.062</vdop><extensions><gom:speed>0.203</gom:speed></extensions></trkpt>
   <trkpt lat="59.0695607823" lon="29.9681699112"><ele>99.189</ele><time>2026-04-25T11:09:52.000Z</time><hdop>4.062</hdop><vdop>4.062</vdop><extensions><gom:speed>0.0</gom:speed></extensions></trkpt>
   <trkpt lat="59.0695607823" lon="29.9681699112"><ele>99.202</ele><time>2026-04-25T11:09:53.000Z</time><hdop>4.062</hdop><vdop>4.062</vdop><extensions><gom:speed>0.0</gom:speed></extensions></trkpt>
   <trkpt lat="59.0695607823" lon="29.9681699112"><ele>99.21</ele><time>2026-04-25T11:09:53.000Z</time><hdop>4.062</hdop><vdop>4.062</vdop><extensions><gom:speed>0.0</gom:speed></extensions></trkpt>
   <trkpt lat="59.0695607823" lon="29.9681699112"><ele>99.214</ele><time>2026-04-25T11:09:54.000Z</time><hdop>4.062</hdop><vdop>4.062</vdop><extensions><gom:speed>0.0</gom:speed></extensions></trkpt>
   <trkpt lat="59.0695607823" lon="29.9681699112"><ele>99.217</ele><time>2026-04-25T11:09:55.000Z</time><hdop>4.062</hdop><vdop>4.062</vdop><extensions><gom:speed>0.0</gom:speed></extensions></trkpt>
   <trkpt lat="59.0695607823" lon="29.9681699112"><ele>99.219</ele><time>2026-04-25T11:09:56.000Z</time><hdop>4.062</hdop><vdop>4.062</vdop><extensions><gom:speed>0.0</gom:speed></extensions></trkpt>
   <trkpt lat="59.0695607823" lon="29.9681699112"><ele>99.22</ele><time>2026-04-25T11:09:57.000Z</time><hdop>4.062</hdop><vdop>4.062</vdop><extensions><gom:speed>0.0</gom:speed></extensions></trkpt>
   <trkpt lat="59.0695607823" lon="29.9681699112"><ele>99.22</ele><time>2026-04-25T11:09:58.000Z</time><hdop>4.062</hdop><vdop>4.062</vdop><extensions><gom:speed>0.0</gom:speed></extensions></trkpt>
   <trkpt lat="59.0695607823" lon="29.9681699112"><ele>99.221</ele><time>2026-04-25T11:09:59.000Z</time><hdop>4.062</hdop><vdop>4.062</vdop><extensions><gom:speed>0.0</gom:speed></extensions></trkpt>
   <trkpt lat="59.0695607823" lon="29.9681699112"><ele>99.221</ele><time>2026-04-25T11:10:00.000Z</time><hdop>4.062</hdop><vdop>4.062</vdop><extensions><gom:speed>0.0</gom:speed></extensions></trkpt>
   <trkpt lat="59.0695607823" lon="29.9681699112"><ele>99.221</ele><time>2026-04-25T11:10:01.000Z</time><hdop>4.062</hdop><vdop>4.062</vdop><extensions><gom:speed>0.0</gom:speed></extensions></trkpt>
   <trkpt lat="59.0695607823" lon="29.9681699112"><ele>99.221</ele><time>2026-04-25T11:10:01.000Z</time><hdop>4.062</hdop><vdop>4.062</vdop><extensions><gom:speed>0.0</gom:speed></extensions></trkpt>
   <trkpt lat="59.0695607823" lon="29.9681699112"><ele>99.221</ele><time>2026-04-25T11:10:02.000Z</time><hdop>4.062</hdop><vdop>4.062</vdop><extensions><gom:speed>0.0</gom:speed></extensions></trkpt>
   <trkpt lat="59.0695607823" lon="29.9681699112"><ele>99.221</ele><time>2026-04-25T11:10:03.000Z</time><hdop>4.062</hdop><vdop>4.062</vdop><extensions><gom:speed>0.0</gom:speed></extensions></trkpt>
   <trkpt lat="59.0695607823" lon="29.9681699112"><ele>99.221</ele><time>2026-04-25T11:10:03.000Z</time><hdop>4.062</hdop><vdop>4.062</vdop><extensions><gom:speed>0.0</gom:speed></extensions></trkpt>
   <trkpt lat="59.0695607823" lon="29.9681699112"><ele>99.221</ele><time>2026-04-25T11:10:04.000Z</time><hdop>4.062</hdop><vdop>4.062</vdop><extensions><gom:speed>0.0</gom:speed></extensions></trkpt>
   <trkpt lat="59.0695607823" lon="29.9681699112"><ele>99.221</ele><time>2026-04-25T11:10:05.000Z</time><hdop>4.062</hdop><vdop>4.062</vdop><extensions><gom:speed>0.0</gom:speed></extensions></trkpt>
   <trkpt lat="59.0695607823" lon="29.9681699112"><ele>99.221</ele><time>2026-04-25T11:10:06.000Z</time><hdop>4.062</hdop><vdop>4.062</vdop><extensions><gom:speed>0.0</gom:speed></extensions></trkpt>
   <trkpt lat="59.0695607823" lon="29.9681699112"><ele>99.221</ele><time>2026-04-25T11:10:07.000Z</time><hdop>4.062</hdop><vdop>4.062</vdop><extensions><gom:speed>0.0</gom:speed></extensions></trkpt>
   <trkpt lat="59.0695607823" lon="29.9681699112"><ele>99.221</ele><time>2026-04-25T11:10:08.000Z</time><hdop>4.062</hdop><vdop>4.062</vdop><extensions><gom:speed>0.0</gom:speed></extensions></trkpt>
   <trkpt lat="59.0695607823" lon="29.9681699112"><ele>99.221</ele><time>2026-04-25T11:10:09.000Z</time><hdop>4.062</hdop><vdop>4.062</vdop><extensions><gom:speed>0.0</gom:speed></extensions></trkpt>
   <trkpt lat="59.0695607823" lon="29.9681699112"><ele>99.221</ele><time>2026-04-25T11:10:10.000Z</time><hdop>4.062</hdop><vdop>4.062</vdop><extensions><gom:speed>0.0</gom:speed></extensions></trkpt>
   <trkpt lat="59.0695661467" lon="29.9681642115"><ele>99.245</ele><time>2026-04-25T11:10:11.000Z</time><hdop>4.312</hdop><vdop>4.312</vdop><extensions><gom:speed>0.367</gom:speed></extensions></trkpt>
   <trkpt lat="59.0695661467" lon="29.9681642115"><ele>99.259</ele><time>2026-04-25T11:10:12.000Z</time><hdop>4.312</hdop><vdop>4.312</vdop><extensions><gom:speed>0.0</gom:speed></extensions></trkpt>
   <trkpt lat="59.0695661467" lon="29.9681642115"><ele>99.267</ele><time>2026-04-25T11:10:13.000Z</time><hdop>4.312</hdop><vdop>4.312</vdop><extensions><gom:speed>0.0</gom:speed></extensions></trkpt>
   <trkpt lat="59.0695661467" lon="29.9681642115"><ele>99.272</ele><time>2026-04-25T11:10:13.000Z</time><hdop>4.312</hdop><vdop>4.312</vdop><extensions><gom:speed>0.0</gom:speed></extensions></trkpt>
   <trkpt lat="59.0695661467" lon="29.9681642115"><ele>99.275</ele><time>2026-04-25T11:10:14.000Z</time><hdop>4.312</hdop><vdop>4.312</vdop><extensions><gom:speed>0.0</gom:speed></extensions></trkpt>
   <trkpt lat="59.0695661467" lon="29.9681642115"><ele>99.277</ele><time>2026-04-25T11:10:15.000Z</time><hdop>4.312</hdop><vdop>4.312</vdop><extensions><gom:speed>0.0</gom:speed></extensions></trkpt>
   <trkpt lat="59.0695661467" lon="29.9681642115"><ele>99.278</ele><time>2026-04-25T11:10:16.000Z</time><hdop>4.312</hdop><vdop>4.312</vdop><extensions><gom:speed>0.0</gom:speed></extensions></trkpt>
   <trkpt lat="59.0695661467" lon="29.9681642115"><ele>99.279</ele><time>2026-04-25T11:10:17.000Z</time><hdop>4.312</hdop><vdop>4.312</vdop><extensions><gom:speed>0.0</gom:speed></extensions></trkpt>
   <trkpt lat="59.0695661467" lon="29.9681642115"><ele>99.279</ele><time>2026-04-25T11:10:18.000Z</time><hdop>4.312</hdop><vdop>4.312</vdop><extensions><gom:speed>0.0</gom:speed></extensions></trkpt>
   <trkpt lat="59.0695661467" lon="29.9681642115"><ele>99.279</ele><time>2026-04-25T11:10:19.000Z</time><hdop>4.312</hdop><vdop>4.312</vdop><extensions><gom:speed>0.0</gom:speed></extensions></trkpt>
   <trkpt lat="59.0695661467" lon="29.9681642115"><ele>99.279</ele><time>2026-04-25T11:10:20.000Z</time><hdop>4.312</hdop><vdop>4.312</vdop><extensions><gom:speed>0.0</gom:speed></extensions></trkpt>
   <trkpt lat="59.0695661467" lon="29.9681642115"><ele>99.279</ele><time>2026-04-25T11:10:21.000Z</time><hdop>4.312</hdop><vdop>4.312</vdop><extensions><gom:speed>0.0</gom:speed></extensions></trkpt>
   <trkpt lat="59.0695661467" lon="29.9681642115"><ele>99.279</ele><time>2026-04-25T11:10:22.000Z</time><hdop>4.312</hdop><vdop>4.312</vdop><extensions><gom:speed>0.0</gom:speed></extensions></trkpt>
   <trkpt lat="59.0695661467" lon="29.9681642115"><ele>99.279</ele><time>2026-04-25T11:10:23.000Z</time><hdop>4.312</hdop><vdop>4.312</vdop><extensions><gom:speed>0.0</gom:speed></extensions></trkpt>
   <trkpt lat="59.0695661467" lon="29.9681642115"><ele>99.279</ele><time>2026-04-25T11:10:24.000Z</time><hdop>4.312</hdop><vdop>4.312</vdop><extensions><gom:speed>0.0</gom:speed></extensions></trkpt>
   <trkpt lat="59.0695661467" lon="29.9681642115"><ele>99.279</ele><time>2026-04-25T11:10:25.000Z</time><hdop>4.312</hdop><vdop>4.312</vdop><extensions><gom:speed>0.0</gom:speed></extensions></trkpt>
   <trkpt lat="59.0695661467" lon="29.9681642115"><ele>99.279</ele><time>2026-04-25T11:10:26.000Z</time><hdop>4.312</hdop><vdop>4.312</vdop><extensions><gom:speed>0.0</gom:speed></extensions></trkpt>
   <trkpt lat="59.0695712596" lon="29.968163541"><ele>99.255</ele><time>2026-04-25T11:10:27.000Z</time><hdop>3.875</hdop><vdop>3.875</vdop><extensions><gom:speed>0.285</gom:speed></extensions></trkpt>
   <trkpt lat="59.0695785938" lon="29.9681675643"><ele>99.145</ele><time>2026-04-25T11:10:28.000Z</time><hdop>4.0</hdop><vdop>4.0</vdop><extensions><gom:speed>0.44</gom:speed></extensions></trkpt>
   <trkpt lat="59.0695850479" lon="29.968174186"><ele>99.103</ele><time>2026-04-25T11:10:29.000Z</time><hdop>4.125</hdop><vdop>4.125</vdop><extensions><gom:speed>0.446</gom:speed></extensions></trkpt>
   <trkpt lat="59.0695933879" lon="29.9681759462"><ele>98.963</ele><time>2026-04-25T11:10:30.000Z</time><hdop>4.062</hdop><vdop>4.062</vdop><extensions><gom:speed>0.569</gom:speed></extensions></trkpt>
   <trkpt lat="59.0696011411" lon="29.9681806401"><ele>98.845</ele><time>2026-04-25T11:10:31.000Z</time><hdop>3.937</hdop><vdop>3.937</vdop><extensions><gom:speed>0.537</gom:speed></extensions></trkpt>
   <trkpt lat="59.0696099421" lon="29.9681870103"><ele>98.71</ele><time>2026-04-25T11:10:32.000Z</time><hdop>4.062</hdop><vdop>4.062</vdop><extensions><gom:speed>0.549</gom:speed></extensions></trkpt>
   <trkpt lat="59.0696194137" lon="29.9681943026"><ele>98.628</ele><time>2026-04-25T11:10:33.000Z</time><hdop>4.062</hdop><vdop>4.062</vdop><extensions><gom:speed>0.722</gom:speed></extensions></trkpt>
   <trkpt lat="59.0696194137" lon="29.9681943026"><ele>98.579</ele><time>2026-04-25T11:10:33.000Z</time><hdop>4.062</hdop><vdop>4.062</vdop><extensions><gom:speed>0.722</gom:speed></extensions></trkpt>
   <trkpt lat="59.0696246104" lon="29.968201511"><ele>98.569</ele><time>2026-04-25T11:10:34.000Z</time><hdop>3.875</hdop><vdop>3.875</vdop><extensions><gom:speed>0.502</gom:speed></extensions></trkpt>
   <trkpt lat="59.069628047" lon="29.9682100606"><ele>98.567</ele><time>2026-04-25T11:10:35.000Z</time><hdop>3.5</hdop><vdop>3.5</vdop><extensions><gom:speed>0.418</gom:speed></extensions></trkpt>
   <trkpt lat="59.0696314417" lon="29.9682155088"><ele>98.599</ele><time>2026-04-25T11:10:36.000Z</time><hdop>3.25</hdop><vdop>3.25</vdop><extensions><gom:speed>0.588</gom:speed></extensions></trkpt>
   <trkpt lat="59.0696373509" lon="29.9682235554"><ele>98.656</ele><time>2026-04-25T11:10:37.000Z</time><hdop>3.0</hdop><vdop>3.0</vdop><extensions><gom:speed>0.586</gom:speed></extensions></trkpt>
   <trkpt lat="59.0696430925" lon="29.968234871"><ele>98.75</ele><time>2026-04-25T11:10:38.000Z</time><hdop>3.0</hdop><vdop>3.0</vdop><extensions><gom:speed>0.642</gom:speed></extensions></trkpt>
   <trkpt lat="59.0696476607" lon="29.9682425823"><ele>98.894</ele><time>2026-04-25T11:10:39.000Z</time><hdop>3.0</hdop><vdop>3.0</vdop><extensions><gom:speed>0.339</gom:speed></extensions></trkpt>
   <trkpt lat="59.0696519354" lon="29.9682534788"><ele>98.962</ele><time>2026-04-25T11:10:40.000Z</time><hdop>3.0</hdop><vdop>3.0</vdop><extensions><gom:speed>0.631</gom:speed></extensions></trkpt>
   <trkpt lat="59.0696569227" lon="29.9682622798"><ele>99.029</ele><time>2026-04-25T11:10:41.000Z</time><hdop>3.0</hdop><vdop>3.0</vdop><extensions><gom:speed>0.581</gom:speed></extensions></trkpt>
   <trkpt lat="59.0696624966" lon="29.9682683148"><ele>99.062</ele><time>2026-04-25T11:10:42.000Z</time><hdop>3.0</hdop><vdop>3.0</vdop><extensions><gom:speed>0.598</gom:speed></extensions></trkpt>
   <trkpt lat="59.0696685735" lon="29.9682694883"><ele>99.07</ele><time>2026-04-25T11:10:43.000Z</time><hdop>3.0</hdop><vdop>3.0</vdop><extensions><gom:speed>0.477</gom:speed></extensions></trkpt>
   <trkpt lat="59.0696768716" lon="29.9682749365"><ele>99.105</ele><time>2026-04-25T11:10:44.000Z</time><hdop>3.125</hdop><vdop>3.125</vdop><extensions><gom:speed>0.748</gom:speed></extensions></trkpt>
   <trkpt lat="59.0696871394" lon="29.9682787922"><ele>99.149</ele><time>2026-04-25T11:10:45.000Z</time><hdop>3.437</hdop><vdop>3.437</vdop><extensions><gom:speed>0.714</gom:speed></extensions></trkpt>
   <trkpt lat="59.0696971977" lon="29.9682823126"><ele>99.205</ele><time>2026-04-25T11:10:46.000Z</time><hdop>3.937</hdop><vdop>3.937</vdop><extensions><gom:speed>0.704</gom:speed></extensions></trkpt>
   <trkpt lat="59.069705412" lon="29.9682844919"><ele>99.238</ele><time>2026-04-25T11:10:47.000Z</time><hdop>3.562</hdop><vdop>3.562</vdop><extensions><gom:speed>0.699</gom:speed></extensions></trkpt>
   <trkpt lat="59.0697126623" lon="29.9682810553"><ele>99.245</ele><time>2026-04-25T11:10:48.000Z</time><hdop>3.312</hdop><vdop>3.312</vdop><extensions><gom:speed>0.589</gom:speed></extensions></trkpt>
   <trkpt lat="59.0697202899" lon="29.9682841566"><ele>99.21</ele><time>2026-04-25T11:10:49.000Z</time><hdop>3.25</hdop><vdop>3.25</vdop><extensions><gom:speed>0.578</gom:speed></extensions></trkpt>
   <trkpt lat="59.0697273726" lon="29.9682856653"><ele>99.159</ele><time>2026-04-25T11:10:50.000Z</time><hdop>3.437</hdop><vdop>3.437</vdop><extensions><gom:speed>0.325</gom:speed></extensions></trkpt>
   <trkpt lat="59.069732276" lon="29.9682824802"><ele>99.139</ele><time>2026-04-25T11:10:51.000Z</time><hdop>3.375</hdop><vdop>3.375</vdop><extensions><gom:speed>0.306</gom:speed></extensions></trkpt>
   <trkpt lat="59.069737808" lon="29.968281642"><ele>99.101</ele><time>2026-04-25T11:10:52.000Z</time><hdop>3.75</hdop><vdop>3.75</vdop><extensions><gom:speed>0.286</gom:speed></extensions></trkpt>
   <trkpt lat="59.069737808" lon="29.968281642"><ele>99.079</ele><time>2026-04-25T11:10:53.000Z</time><hdop>3.75</hdop><vdop>3.75</vdop><extensions><gom:speed>0.0</gom:speed></extensions></trkpt>
   <trkpt lat="59.069737808" lon="29.968281642"><ele>99.066</ele><time>2026-04-25T11:10:53.000Z</time><hdop>3.75</hdop><vdop>3.75</vdop><extensions><gom:speed>0.0</gom:speed></extensions></trkpt>
   <trkpt lat="59.0697439687" lon="29.9682831508"><ele>98.987</ele><time>2026-04-25T11:10:54.000Z</time><hdop>3.562</hdop><vdop>3.562</vdop><extensions><gom:speed>0.518</gom:speed></extensions></trkpt>
   <trkpt lat="59.0697538175" lon="29.968278876"><ele>98.918</ele><time>2026-04-25T11:10:55.000Z</time><hdop>3.375</hdop><vdop>3.375</vdop><extensions><gom:speed>0.777</gom:speed></extensions></trkpt>
   <trkpt lat="59.0697606906" lon="29.9682668899"><ele>98.873</ele><time>2026-04-25T11:10:56.000Z</time><hdop>3.062</hdop><vdop>3.062</vdop><extensions><gom:speed>0.602</gom:speed></extensions></trkpt>
   <trkpt lat="59.0697645882" lon="29.9682554905"><ele>98.799</ele><time>2026-04-25T11:10:57.000Z</time><hdop>3.0</hdop><vdop>3.0</vdop><extensions><gom:speed>0.336</gom:speed></extensions></trkpt>
   <trkpt lat="59.0697653845" lon="29.9682487011"><ele>98.713</ele><time>2026-04-25T11:10:58.000Z</time><hdop>3.0</hdop><vdop>3.0</vdop><extensions><gom:speed>0.153</gom:speed></extensions></trkpt>
   <trkpt lat="59.0697680248" lon="29.9682445102"><ele>98.672</ele><time>2026-04-25T11:10:59.000Z</time><hdop>3.187</hdop><vdop>3.187</vdop><extensions><gom:speed>0.434</gom:speed></extensions></trkpt>
   <trkpt lat="59.0697729701" lon="29.9682421632"><ele>98.632</ele><time>2026-04-25T11:11:00.000Z</time><hdop>3.0</hdop><vdop>3.0</vdop><extensions><gom:speed>0.431</gom:speed></extensions></trkpt>
   <trkpt lat="59.0697796337" lon="29.968238559"><ele>98.609</ele><time>2026-04-25T11:11:01.000Z</time><hdop>3.062</hdop><vdop>3.062</vdop><extensions><gom:speed>0.573</gom:speed></extensions></trkpt>
   <trkpt lat="59.0697871775" lon="29.9682371341"><ele>98.632</ele><time>2026-04-25T11:11:02.000Z</time><hdop>3.125</hdop><vdop>3.125</vdop><extensions><gom:speed>0.65</gom:speed></extensions></trkpt>
   <trkpt lat="59.0697979482" lon="29.9682331946"><ele>98.663</ele><time>2026-04-25T11:11:03.000Z</time><hdop>3.187</hdop><vdop>3.187</vdop><extensions><gom:speed>0.781</gom:speed></extensions></trkpt>
   <trkpt lat="59.0698069587" lon="29.968228836"><ele>98.707</ele><time>2026-04-25T11:11:04.000Z</time><hdop>3.125</hdop><vdop>3.125</vdop><extensions><gom:speed>0.588</gom:speed></extensions></trkpt>
   <trkpt lat="59.0698117783" lon="29.9682314344"><ele>98.717</ele><time>2026-04-25T11:11:05.000Z</time><hdop>3.0</hdop><vdop>3.0</vdop><extensions><gom:speed>0.385</gom:speed></extensions></trkpt>
   <trkpt lat="59.0698152987" lon="29.9682351224"><ele>98.657</ele><time>2026-04-25T11:11:06.000Z</time><hdop>3.0</hdop><vdop>3.0</vdop><extensions><gom:speed>0.444</gom:speed></extensions></trkpt>
   <trkpt lat="59.069819825" lon="29.9682365474"><ele>98.558</ele><time>2026-04-25T11:11:07.000Z</time><hdop>3.0</hdop><vdop>3.0</vdop><extensions><gom:speed>0.415</gom:speed></extensions></trkpt>
   <trkpt lat="59.0698247284" lon="29.9682373017"><ele>98.401</ele><time>2026-04-25T11:11:08.000Z</time><hdop>3.0</hdop><vdop>3.0</vdop><extensions><gom:speed>0.473</gom:speed></extensions></trkpt>
   <trkpt lat="59.0698297994" lon="29.9682391458"><ele>98.278</ele><time>2026-04-25T11:11:09.000Z</time><hdop>3.0</hdop><vdop>3.0</vdop><extensions><gom:speed>0.531</gom:speed></extensions></trkpt>
   <trkpt lat="59.0698352058" lon="29.9682415765"><ele>98.208</ele><time>2026-04-25T11:11:10.000Z</time><hdop>3.0</hdop><vdop>3.0</vdop><extensions><gom:speed>0.494</gom:speed></extensions></trkpt>
   <trkpt lat="59.0698405702" lon="29.9682448455"><ele>98.193</ele><time>2026-04-25T11:11:11.000Z</time><hdop>3.0</hdop><vdop>3.0</vdop><extensions><gom:speed>0.514</gom:speed></extensions></trkpt>
   <trkpt lat="59.0698463537" lon="29.968246438"><ele>98.197</ele><time>2026-04-25T11:11:12.000Z</time><hdop>3.0</hdop><vdop>3.0</vdop><extensions><gom:speed>0.516</gom:speed></extensions></trkpt>
   <trkpt lat="59.0698549871" lon="29.9682491202"><ele>98.25</ele><time>2026-04-25T11:11:13.000Z</time><hdop>3.0</hdop><vdop>3.0</vdop><extensions><gom:speed>0.613</gom:speed></extensions></trkpt>
   <trkpt lat="59.0698549871" lon="29.9682491202"><ele>98.283</ele><time>2026-04-25T11:11:13.000Z</time><hdop>3.0</hdop><vdop>3.0</vdop><extensions><gom:speed>0.613</gom:speed></extensions></trkpt>
   <trkpt lat="59.0698628241" lon="29.9682497908"><ele>98.332</ele><time>2026-04-25T11:11:14.000Z</time><hdop>3.0</hdop><vdop>3.0</vdop><extensions><gom:speed>0.577</gom:speed></extensions></trkpt>
   <trkpt lat="59.0698700326" lon="29.9682501261"><ele>98.371</ele><time>2026-04-25T11:11:15.000Z</time><hdop>3.0</hdop><vdop>3.0</vdop><extensions><gom:speed>0.714</gom:speed></extensions></trkpt>
   <trkpt lat="59.0698800909" lon="29.9682454322"><ele>98.413</ele><time>2026-04-25T11:11:16.000Z</time><hdop>3.0</hdop><vdop>3.0</vdop><extensions><gom:speed>0.717</gom:speed></extensions></trkpt>
   <trkpt lat="59.0698865449" lon="29.9682405707"><ele>98.386</ele><time>2026-04-25T11:11:17.000Z</time><hdop>3.0</hdop><vdop>3.0</vdop><extensions><gom:speed>0.464</gom:speed></extensions></trkpt>
   <trkpt lat="59.0698921189" lon="29.9682371341"><ele>98.329</ele><time>2026-04-25T11:11:18.000Z</time><hdop>3.0</hdop><vdop>3.0</vdop><extensions><gom:speed>0.424</gom:speed></extensions></trkpt>
   <trkpt lat="59.0698964356" lon="29.968235793"><ele>98.287</ele><time>2026-04-25T11:11:19.000Z</time><hdop>3.0</hdop><vdop>3.0</vdop><extensions><gom:speed>0.274</gom:speed></extensions></trkpt>
   <trkpt lat="59.0698964356" lon="29.968235793"><ele>98.262</ele><time>2026-04-25T11:11:20.000Z</time><hdop>3.0</hdop><vdop>3.0</vdop><extensions><gom:speed>0.0</gom:speed></extensions></trkpt>
   <trkpt lat="59.0698964356" lon="29.968235793"><ele>98.247</ele><time>2026-04-25T11:11:21.000Z</time><hdop>3.0</hdop><vdop>3.0</vdop><extensions><gom:speed>0.0</gom:speed></extensions></trkpt>
   <trkpt lat="59.0698964356" lon="29.968235793"><ele>98.238</ele><time>2026-04-25T11:11:22.000Z</time><hdop>3.0</hdop><vdop>3.0</vdop><extensions><gom:speed>0.0</gom:speed></extensions></trkpt>
   <trkpt lat="59.0698964356" lon="29.968235793"><ele>98.232</ele><time>2026-04-25T11:11:23.000Z</time><hdop>3.0</hdop><vdop>3.0</vdop><extensions><gom:speed>0.0</gom:speed></extensions></trkpt>
   <trkpt lat="59.0698964356" lon="29.968235793"><ele>98.229</ele><time>2026-04-25T11:11:24.000Z</time><hdop>3.0</hdop><vdop>3.0</vdop><extensions><gom:speed>0.0</gom:speed></extensions></trkpt>
   <trkpt lat="59.0698964356" lon="29.968235793"><ele>98.227</ele><time>2026-04-25T11:11:25.000Z</time><hdop>3.0</hdop><vdop>3.0</vdop><extensions><gom:speed>0.0</gom:speed></extensions></trkpt>
   <trkpt lat="59.0698964356" lon="29.968235793"><ele>98.226</ele><time>2026-04-25T11:11:26.000Z</time><hdop>3.0</hdop><vdop>3.0</vdop><extensions><gom:speed>0.0</gom:speed></extensions></trkpt>
   <trkpt lat="59.0698964356" lon="29.968235793"><ele>98.225</ele><time>2026-04-25T11:11:27.000Z</time><hdop>3.0</hdop><vdop>3.0</vdop><extensions><gom:speed>0.0</gom:speed></extensions></trkpt>
   <trkpt lat="59.0698964356" lon="29.968235793"><ele>98.225</ele><time>2026-04-25T11:11:28.000Z</time><hdop>3.0</hdop><vdop>3.0</vdop><extensions><gom:speed>0.0</gom:speed></extensions></trkpt>
   <trkpt lat="59.0698964356" lon="29.968235793"><ele>98.225</ele><time>2026-04-25T11:11:29.000Z</time><hdop>3.0</hdop><vdop>3.0</vdop><extensions><gom:speed>0.0</gom:speed></extensions></trkpt>
   <trkpt lat="59.0698964356" lon="29.968235793"><ele>98.225</ele><time>2026-04-25T11:11:30.000Z</time><hdop>3.0</hdop><vdop>3.0</vdop><extensions><gom:speed>0.0</gom:speed></extensions></trkpt>
   <trkpt lat="59.0698995788" lon="29.9682349548"><ele>98.208</ele><time>2026-04-25T11:11:31.000Z</time><hdop>3.0</hdop><vdop>3.0</vdop><extensions><gom:speed>0.133</gom:speed></extensions></trkpt>
   <trkpt lat="59.0698995788" lon="29.9682349548"><ele>98.198</ele><time>2026-04-25T11:11:32.000Z</time><hdop>3.0</hdop><vdop>3.0</vdop><extensions><gom:speed>0.0</gom:speed></extensions></trkpt>
   <trkpt lat="59.0698995788" lon="29.9682349548"><ele>98.192</ele><time>2026-04-25T11:11:33.000Z</time><hdop>3.0</hdop><vdop>3.0</vdop><extensions><gom:speed>0.0</gom:speed></extensions></trkpt>
   <trkpt lat="59.0698995788" lon="29.9682349548"><ele>98.188</ele><time>2026-04-25T11:11:33.000Z</time><hdop>3.0</hdop><vdop>3.0</vdop><extensions><gom:speed>0.0</gom:speed></extensions></trkpt>
   <trkpt lat="59.0698995788" lon="29.9682349548"><ele>98.186</ele><time>2026-04-25T11:11:34.000Z</time><hdop>3.0</hdop><vdop>3.0</vdop><extensions><gom:speed>0.0</gom:speed></extensions></trkpt>
   <trkpt lat="59.0699042726" lon="29.9682382238"><ele>98.255</ele><time>2026-04-25T11:11:35.000Z</time><hdop>3.0</hdop><vdop>3.0</vdop><extensions><gom:speed>0.305</gom:speed></extensions></trkpt>
   <trkpt lat="59.069911984" lon="29.9682363797"><ele>98.309</ele><time>2026-04-25T11:11:36.000Z</time><hdop>3.0</hdop><vdop>3.0</vdop><extensions><gom:speed>0.438</gom:speed></extensions></trkpt>
   <trkpt lat="59.0699191924" lon="29.9682342004"><ele>98.347</ele><time>2026-04-25T11:11:37.000Z</time><hdop>3.0</hdop><vdop>3.0</vdop><extensions><gom:speed>0.549</gom:speed></extensions></trkpt>
   <trkpt lat="59.069927281" lon="29.9682304286"><ele>98.414</ele><time>2026-04-25T11:11:38.000Z</time><hdop>3.0</hdop><vdop>3.0</vdop><extensions><gom:speed>0.526</gom:speed></extensions></trkpt>
   <trkpt lat="59.069934196" lon="29.9682252318"><ele>98.472</ele><time>2026-04-25T11:11:39.000Z</time><hdop>3.0</hdop><vdop>3.0</vdop><extensions><gom:speed>0.593</gom:speed></extensions></trkpt>
   <trkpt lat="59.0699417398" lon="29.9682202027"><ele>98.538</ele><time>2026-04-25T11:11:40.000Z</time><hdop>3.0</hdop><vdop>3.0</vdop><extensions><gom:speed>0.537</gom:speed></extensions></trkpt>
   <trkpt lat="59.0699489482" lon="29.9682184425"><ele>98.597</ele><time>2026-04-25T11:11:41.000Z</time><hdop>3.0</hdop><vdop>3.0</vdop><extensions><gom:speed>0.538</gom:speed></extensions></trkpt>
   <trkpt lat="59.0699570367" lon="29.9682176043"><ele>98.649</ele><time>2026-04-25T11:11:42.000Z</time><hdop>3.0</hdop><vdop>3.0</vdop><extensions><gom:speed>0.669</gom:speed></extensions></trkpt>
   <trkpt lat="59.0699639099" lon="29.9682235554"><ele>98.713</ele><time>2026-04-25T11:11:43.000Z</time><hdop>3.0</hdop><vdop>3.0</vdop><extensions><gom:speed>0.694</gom:speed></extensions></trkpt>
   <trkpt lat="59.0699716212" lon="29.9682278302"><ele>98.785</ele><time>2026-04-25T11:11:44.000Z</time><hdop>3.0</hdop><vdop>3.0</vdop><extensions><gom:speed>0.787</gom:speed></extensions></trkpt>
   <trkpt lat="59.0699806318" lon="29.9682309315"><ele>98.862</ele><time>2026-04-25T11:11:45.000Z</time><hdop>3.0</hdop><vdop>3.0</vdop><extensions><gom:speed>0.626</gom:speed></extensions></trkpt>
   <trkpt lat="59.0699894328" lon="29.9682329432"><ele>98.955</ele><time>2026-04-25T11:11:46.000Z</time><hdop>3.0</hdop><vdop>3.0</vdop><extensions><gom:speed>0.715</gom:speed></extensions></trkpt>
   <trkpt lat="59.0699971441" lon="29.9682337813"><ele>99.061</ele><time>2026-04-25T11:11:47.000Z</time><hdop>3.0</hdop><vdop>3.0</vdop><extensions><gom:speed>0.572</gom:speed></extensions></trkpt>
   <trkpt lat="59.0700028438" lon="29.9682301771"><ele>99.124</ele><time>2026-04-25T11:11:48.000Z</time><hdop>3.0</hdop><vdop>3.0</vdop><extensions><gom:speed>0.376</gom:speed></extensions></trkpt>
   <trkpt lat="59.0700089626" lon="29.9682303448"><ele>99.215</ele><time>2026-04-25T11:11:49.000Z</time><hdop>3.0</hdop><vdop>3.0</vdop><extensions><gom:speed>0.238</gom:speed></extensions></trkpt>
   <trkpt lat="59.070012483" lon="29.968228836"><ele>99.247</ele><time>2026-04-25T11:11:50.000Z</time><hdop>3.0</hdop><vdop>3.0</vdop><extensions><gom:speed>0.189</gom:speed></extensions></trkpt>
   <trkpt lat="59.0700141175" lon="29.9682294228"><ele>99.219</ele><time>2026-04-25T11:11:51.000Z</time><hdop>3.0</hdop><vdop>3.0</vdop><extensions><gom:speed>0.139</gom:speed></extensions></trkpt>
   <trkpt lat="59.0700167578" lon="29.9682305124"><ele>99.16</ele><time>2026-04-25T11:11:52.000Z</time><hdop>3.0</hdop><vdop>3.0</vdop><extensions><gom:speed>0.182</gom:speed></extensions></trkpt>
   <trkpt lat="59.0700167578" lon="29.9682305124"><ele>99.126</ele><time>2026-04-25T11:11:53.000Z</time><hdop>3.0</hdop><vdop>3.0</vdop><extensions><gom:speed>0.0</gom:speed></extensions></trkpt>
   <trkpt lat="59.0700167578" lon="29.9682305124"><ele>99.105</ele><time>2026-04-25T11:11:53.000Z</time><hdop>3.0</hdop><vdop>3.0</vdop><extensions><gom:speed>0.0</gom:speed></extensions></trkpt>
   <trkpt lat="59.0700167578" lon="29.9682305124"><ele>99.092</ele><time>2026-04-25T11:11:54.000Z</time><hdop>3.0</hdop><vdop>3.0</vdop><extensions><gom:speed>0.0</gom:speed></extensions></trkpt>
   <trkpt lat="59.0700167578" lon="29.9682305124"><ele>99.085</ele><time>2026-04-25T11:11:55.000Z</time><hdop>3.0</hdop><vdop>3.0</vdop><extensions><gom:speed>0.0</gom:speed></extensions></trkpt>
   <trkpt lat="59.0700167578" lon="29.9682305124"><ele>99.08</ele><time>2026-04-25T11:11:56.000Z</time><hdop>3.0</hdop><vdop>3.0</vdop><extensions><gom:speed>0.0</gom:speed></extensions></trkpt>
   <trkpt lat="59.0700167578" lon="29.9682305124"><ele>99.078</ele><time>2026-04-25T11:11:57.000Z</time><hdop>3.0</hdop><vdop>3.0</vdop><extensions><gom:speed>0.0</gom:speed></extensions></trkpt>
   <trkpt lat="59.0700167578" lon="29.9682305124"><ele>99.076</ele><time>2026-04-25T11:11:58.000Z</time><hdop>3.0</hdop><vdop>3.0</vdop><extensions><gom:speed>0.0</gom:speed></extensions></trkpt>
   <trkpt lat="59.0700167578" lon="29.9682305124"><ele>99.075</ele><time>2026-04-25T11:11:59.000Z</time><hdop>3.0</hdop><vdop>3.0</vdop><extensions><gom:speed>0.0</gom:speed></extensions></trkpt>
   <trkpt lat="59.0700167578" lon="29.9682305124"><ele>99.075</ele><time>2026-04-25T11:12:00.000Z</time><hdop>3.0</hdop><vdop>3.0</vdop><extensions><gom:speed>0.0</gom:speed></extensions></trkpt>
   <trkpt lat="59.0700167578" lon="29.9682305124"><ele>99.074</ele><time>2026-04-25T11:12:01.000Z</time><hdop>3.0</hdop><vdop>3.0</vdop><extensions><gom:speed>0.0</gom:speed></extensions></trkpt>
   <trkpt lat="59.0700167578" lon="29.9682305124"><ele>99.074</ele><time>2026-04-25T11:12:02.000Z</time><hdop>3.0</hdop><vdop>3.0</vdop><extensions><gom:speed>0.0</gom:speed></extensions></trkpt>
   <trkpt lat="59.0700167578" lon="29.9682305124"><ele>99.074</ele><time>2026-04-25T11:12:03.000Z</time><hdop>3.0</hdop><vdop>3.0</vdop><extensions><gom:speed>0.0</gom:speed></extensions></trkpt>
   <trkpt lat="59.0700167578" lon="29.9682305124"><ele>99.074</ele><time>2026-04-25T11:12:04.000Z</time><hdop>3.0</hdop><vdop>3.0</vdop><extensions><gom:speed>0.0</gom:speed></extensions></trkpt>
   <trkpt lat="59.070022667" lon="29.9682331946"><ele>99.096</ele><time>2026-04-25T11:12:05.000Z</time><hdop>3.0</hdop><vdop>3.0</vdop><extensions><gom:speed>0.207</gom:speed></extensions></trkpt>
   <trkpt lat="59.0700301269" lon="29.9682346195"><ele>99.121</ele><time>2026-04-25T11:12:06.000Z</time><hdop>3.0</hdop><vdop>3.0</vdop><extensions><gom:speed>0.315</gom:speed></extensions></trkpt>
   <trkpt lat="59.0700366229" lon="29.9682332784"><ele>99.163</ele><time>2026-04-25T11:12:07.000Z</time><hdop>3.0</hdop><vdop>3.0</vdop><extensions><gom:speed>0.375</gom:speed></extensions></trkpt>
   <trkpt lat="59.0700417359" lon="29.9682300095"><ele>99.149</ele><time>2026-04-25T11:12:08.000Z</time><hdop>3.0</hdop><vdop>3.0</vdop><extensions><gom:speed>0.393</gom:speed></extensions></trkpt>
   <trkpt lat="59.0700485252" lon="29.9682286684"><ele>99.121</ele><time>2026-04-25T11:12:09.000Z</time><hdop>3.0</hdop><vdop>3.0</vdop><extensions><gom:speed>0.396</gom:speed></extensions></trkpt>
   <trkpt lat="59.0700577034" lon="29.9682299257"><ele>99.107</ele><time>2026-04-25T11:12:10.000Z</time><hdop>3.0</hdop><vdop>3.0</vdop><extensions><gom:speed>0.497</gom:speed></extensions></trkpt>
   <trkpt lat="59.0700683903" lon="29.9682325241"><ele>99.055</ele><time>2026-04-25T11:12:11.000Z</time><hdop>3.125</hdop><vdop>3.125</vdop><extensions><gom:speed>0.583</gom:speed></extensions></trkpt>
   <trkpt lat="59.070077778" lon="29.9682382238"><ele>98.962</ele><time>2026-04-25T11:12:12.000Z</time><hdop>3.0</hdop><vdop>3.0</vdop><extensions><gom:speed>0.478</gom:speed></extensions></trkpt>
   <trkpt lat="59.070084735" lon="29.9682450969"><ele>98.952</ele><time>2026-04-25T11:12:13.000Z</time><hdop>3.0</hdop><vdop>3.0</vdop><extensions><gom:speed>0.492</gom:speed></extensions></trkpt>
   <trkpt lat="59.070084735" lon="29.9682450969"><ele>98.946</ele><time>2026-04-25T11:12:13.000Z</time><hdop>3.0</hdop><vdop>3.0</vdop><extensions><gom:speed>0.492</gom:speed></extensions></trkpt>
   <trkpt lat="59.0700929074" lon="29.9682529759"><ele>98.964</ele><time>2026-04-25T11:12:14.000Z</time><hdop>3.187</hdop><vdop>3.187</vdop><extensions><gom:speed>0.483</gom:speed></extensions></trkpt>
   <trkpt lat="59.0701027142" lon="29.9682569154"><ele>98.989</ele><time>2026-04-25T11:12:15.000Z</time><hdop>3.0</hdop><vdop>3.0</vdop><extensions><gom:speed>0.63</gom:speed></extensions></trkpt>
   <trkpt lat="59.0701141136" lon="29.9682607711"><ele>98.939</ele><time>2026-04-25T11:12:16.000Z</time><hdop>3.125</hdop><vdop>3.125</vdop><extensions><gom:speed>0.585</gom:speed></extensions></trkpt>
   <trkpt lat="59.0701244233" lon="29.9682634533"><ele>98.893</ele><time>2026-04-25T11:12:17.000Z</time><hdop>3.0</hdop><vdop>3.0</vdop><extensions><gom:speed>0.641</gom:speed></extensions></trkpt>
   <trkpt lat="59.0701369124" lon="29.96826404"><ele>98.849</ele><time>2026-04-25T11:12:18.000Z</time><hdop>3.437</hdop><vdop>3.437</vdop><extensions><gom:speed>0.623</gom:speed></extensions></trkpt>
   <trkpt lat="59.0701466773" lon="29.9682646267"><ele>98.834</ele><time>2026-04-25T11:12:19.000Z</time><hdop>3.562</hdop><vdop>3.562</vdop><extensions><gom:speed>0.435</gom:speed></extensions></trkpt>
   <trkpt lat="59.0701557716" lon="29.9682644591"><ele>98.858</ele><time>2026-04-25T11:12:20.000Z</time><hdop>3.937</hdop><vdop>3.937</vdop><extensions><gom:speed>0.428</gom:speed></extensions></trkpt>
   <trkpt lat="59.0701635249" lon="29.9682632856"><ele>98.857</ele><time>2026-04-25T11:12:21.000Z</time><hdop>4.312</hdop><vdop>4.312</vdop><extensions><gom:speed>0.44</gom:speed></extensions></trkpt>
   <trkpt lat="59.0701697694" lon="29.9682592623"><ele>98.84</ele><time>2026-04-25T11:12:22.000Z</time><hdop>4.875</hdop><vdop>4.875</vdop><extensions><gom:speed>0.428</gom:speed></extensions></trkpt>
   <trkpt lat="59.0701781513" lon="29.9682467733"><ele>98.93</ele><time>2026-04-25T11:12:23.000Z</time><hdop>4.437</hdop><vdop>4.437</vdop><extensions><gom:speed>0.479</gom:speed></extensions></trkpt>
   <trkpt lat="59.0701840606" lon="29.9682421632"><ele>98.967</ele><time>2026-04-25T11:12:24.000Z</time><hdop>4.75</hdop><vdop>4.75</vdop><extensions><gom:speed>0.327</gom:speed></extensions></trkpt>
   <trkpt lat="59.0701840606" lon="29.9682421632"><ele>98.99</ele><time>2026-04-25T11:12:25.000Z</time><hdop>4.75</hdop><vdop>4.75</vdop><extensions><gom:speed>0.0</gom:speed></extensions></trkpt>
   <trkpt lat="59.0701840606" lon="29.9682421632"><ele>99.003</ele><time>2026-04-25T11:12:26.000Z</time><hdop>4.75</hdop><vdop>4.75</vdop><extensions><gom:speed>0.0</gom:speed></extensions></trkpt>
   <trkpt lat="59.070189425" lon="29.9682378885"><ele>98.953</ele><time>2026-04-25T11:12:27.000Z</time><hdop>4.687</hdop><vdop>4.687</vdop><extensions><gom:speed>0.25</gom:speed></extensions></trkpt>
   <trkpt lat="59.0701949151" lon="29.9682328593"><ele>98.866</ele><time>2026-04-25T11:12:28.000Z</time><hdop>4.687</hdop><vdop>4.687</vdop><extensions><gom:speed>0.214</gom:speed></extensions></trkpt>
   <trkpt lat="59.0701949151" lon="29.9682328593"><ele>98.814</ele><time>2026-04-25T11:12:29.000Z</time><hdop>4.875</hdop><vdop>4.875</vdop><extensions><gom:speed>0.0</gom:speed></extensions></trkpt>
   <trkpt lat="59.0701949151" lon="29.9682328593"><ele>98.782</ele><time>2026-04-25T11:12:30.000Z</time><hdop>4.875</hdop><vdop>4.875</vdop><extensions><gom:speed>0.0</gom:speed></extensions></trkpt>
   <trkpt lat="59.0701949151" lon="29.9682328593"><ele>98.764</ele><time>2026-04-25T11:12:31.000Z</time><hdop>4.875</hdop><vdop>4.875</vdop><extensions><gom:speed>0.0</gom:speed></extensions></trkpt>
   <trkpt lat="59.0701949151" lon="29.9682328593"><ele>98.753</ele><time>2026-04-25T11:12:32.000Z</time><hdop>4.875</hdop><vdop>4.875</vdop><extensions><gom:speed>0.0</gom:speed></extensions></trkpt>
   <trkpt lat="59.0701949151" lon="29.9682328593"><ele>98.746</ele><time>2026-04-25T11:12:33.000Z</time><hdop>4.875</hdop><vdop>4.875</vdop><extensions><gom:speed>0.0</gom:speed></extensions></trkpt>
   <trkpt lat="59.0701949151" lon="29.9682328593"><ele>98.742</ele><time>2026-04-25T11:12:33.000Z</time><hdop>4.875</hdop><vdop>4.875</vdop><extensions><gom:speed>0.0</gom:speed></extensions></trkpt>
   <trkpt lat="59.0701949151" lon="29.9682328593"><ele>98.74</ele><time>2026-04-25T11:12:34.000Z</time><hdop>4.875</hdop><vdop>4.875</vdop><extensions><gom:speed>0.0</gom:speed></extensions></trkpt>
   <trkpt lat="59.0701949151" lon="29.9682328593"><ele>98.738</ele><time>2026-04-25T11:12:35.000Z</time><hdop>4.875</hdop><vdop>4.875</vdop><extensions><gom:speed>0.0</gom:speed></extensions></trkpt>
   <trkpt lat="59.0701949151" lon="29.9682328593"><ele>98.737</ele><time>2026-04-25T11:12:36.000Z</time><hdop>4.875</hdop><vdop>4.875</vdop><extensions><gom:speed>0.0</gom:speed></extensions></trkpt>
   <trkpt lat="59.0701949151" lon="29.9682328593"><ele>98.737</ele><time>2026-04-25T11:12:37.000Z</time><hdop>4.875</hdop><vdop>4.875</vdop><extensions><gom:speed>0.0</gom:speed></extensions></trkpt>
   <trkpt lat="59.0702002376" lon="29.9682354577"><ele>98.791</ele><time>2026-04-25T11:12:38.000Z</time><hdop>4.687</hdop><vdop>4.687</vdop><extensions><gom:speed>0.243</gom:speed></extensions></trkpt>
   <trkpt lat="59.0702002376" lon="29.9682354577"><ele>98.824</ele><time>2026-04-25T11:12:39.000Z</time><hdop>4.875</hdop><vdop>4.875</vdop><extensions><gom:speed>0.0</gom:speed></extensions></trkpt>
   <trkpt lat="59.0702002376" lon="29.9682354577"><ele>98.843</ele><time>2026-04-25T11:12:40.000Z</time><hdop>4.875</hdop><vdop>4.875</vdop><extensions><gom:speed>0.0</gom:speed></extensions></trkpt>
   <trkpt lat="59.0702002376" lon="29.9682354577"><ele>98.855</ele><time>2026-04-25T11:12:41.000Z</time><hdop>4.875</hdop><vdop>4.875</vdop><extensions><gom:speed>0.0</gom:speed></extensions></trkpt>
   <trkpt lat="59.0702002376" lon="29.9682354577"><ele>98.862</ele><time>2026-04-25T11:12:42.000Z</time><hdop>4.875</hdop><vdop>4.875</vdop><extensions><gom:speed>0.0</gom:speed></extensions></trkpt>
   <trkpt lat="59.0702002376" lon="29.9682354577"><ele>98.866</ele><time>2026-04-25T11:12:43.000Z</time><hdop>4.875</hdop><vdop>4.875</vdop><extensions><gom:speed>0.0</gom:speed></extensions></trkpt>
   <trkpt lat="59.0702002376" lon="29.9682354577"><ele>98.869</ele><time>2026-04-25T11:12:44.000Z</time><hdop>4.875</hdop><vdop>4.875</vdop><extensions><gom:speed>0.0</gom:speed></extensions></trkpt>
   <trkpt lat="59.0702002376" lon="29.9682354577"><ele>98.87</ele><time>2026-04-25T11:12:45.000Z</time><hdop>4.875</hdop><vdop>4.875</vdop><extensions><gom:speed>0.0</gom:speed></extensions></trkpt>
   <trkpt lat="59.0702002376" lon="29.9682354577"><ele>98.871</ele><time>2026-04-25T11:12:46.000Z</time><hdop>4.875</hdop><vdop>4.875</vdop><extensions><gom:speed>0.0</gom:speed></extensions></trkpt>
   <trkpt lat="59.0702002376" lon="29.9682354577"><ele>98.872</ele><time>2026-04-25T11:12:47.000Z</time><hdop>4.875</hdop><vdop>4.875</vdop><extensions><gom:speed>0.0</gom:speed></extensions></trkpt>
   <trkpt lat="59.0702002376" lon="29.9682354577"><ele>98.872</ele><time>2026-04-25T11:12:48.000Z</time><hdop>4.875</hdop><vdop>4.875</vdop><extensions><gom:speed>0.0</gom:speed></extensions></trkpt>
   <trkpt lat="59.0702097511" lon="29.9682331946"><ele>98.975</ele><time>2026-04-25T11:12:49.000Z</time><hdop>4.75</hdop><vdop>4.75</vdop><extensions><gom:speed>0.376</gom:speed></extensions></trkpt>
   <trkpt lat="59.0702195998" lon="29.9682248965"><ele>99.018</ele><time>2026-04-25T11:12:50.000Z</time><hdop>4.312</hdop><vdop>4.312</vdop><extensions><gom:speed>0.644</gom:speed></extensions></trkpt>
   <trkpt lat="59.0702307897" lon="29.9682171852"><ele>99.029</ele><time>2026-04-25T11:12:51.000Z</time><hdop>4.0</hdop><vdop>4.0</vdop><extensions><gom:speed>0.888</gom:speed></extensions></trkpt>
   <trkpt lat="59.070242231" lon="29.9682150897"><ele>98.991</ele><time>2026-04-25T11:12:52.000Z</time><hdop>3.812</hdop><vdop>3.812</vdop><extensions><gom:speed>0.898</gom:speed></extensions></trkpt>
   <trkpt lat="59.0702511158" lon="29.9682126589"><ele>98.937</ele><time>2026-04-25T11:12:53.000Z</time><hdop>3.312</hdop><vdop>3.312</vdop><extensions><gom:speed>0.594</gom:speed></extensions></trkpt>
   <trkpt lat="59.0702511158" lon="29.9682126589"><ele>98.904</ele><time>2026-04-25T11:12:53.000Z</time><hdop>3.312</hdop><vdop>3.312</vdop><extensions><gom:speed>0.594</gom:speed></extensions></trkpt>
   <trkpt lat="59.0702596234" lon="29.9682173528"><ele>98.951</ele><time>2026-04-25T11:12:54.000Z</time><hdop>3.125</hdop><vdop>3.125</vdop><extensions><gom:speed>0.412</gom:speed></extensions></trkpt>
   <trkpt lat="59.0702664966" lon="29.9682165984"><ele>99.013</ele><time>2026-04-25T11:12:55.000Z</time><hdop>3.125</hdop><vdop>3.125</vdop><extensions><gom:speed>0.386</gom:speed></extensions></trkpt>
   <trkpt lat="59.0702664966" lon="29.9682165984"><ele>99.05</ele><time>2026-04-25T11:12:56.000Z</time><hdop>3.125</hdop><vdop>3.125</vdop><extensions><gom:speed>0.0</gom:speed></extensions></trkpt>
   <trkpt lat="59.0702664966" lon="29.9682165984"><ele>99.072</ele><time>2026-04-25T11:12:57.000Z</time><hdop>3.125</hdop><vdop>3.125</vdop><extensions><gom:speed>0.0</gom:speed></extensions></trkpt>
   <trkpt lat="59.0702664966" lon="29.9682165984"><ele>99.085</ele><time>2026-04-25T11:12:58.000Z</time><hdop>3.125</hdop><vdop>3.125</vdop><extensions><gom:speed>0.0</gom:speed></extensions></trkpt>
   <trkpt lat="59.0702664966" lon="29.9682165984"><ele>99.093</ele><time>2026-04-25T11:12:59.000Z</time><hdop>3.125</hdop><vdop>3.125</vdop><extensions><gom:speed>0.0</gom:speed></extensions></trkpt>
   <trkpt lat="59.0702664966" lon="29.9682165984"><ele>99.098</ele><time>2026-04-25T11:13:00.000Z</time><hdop>3.125</hdop><vdop>3.125</vdop><extensions><gom:speed>0.0</gom:speed></extensions></trkpt>
   <trkpt lat="59.0702664966" lon="29.9682165984"><ele>99.1</ele><time>2026-04-25T11:13:01.000Z</time><hdop>3.125</hdop><vdop>3.125</vdop><extensions><gom:speed>0.0</gom:speed></extensions></trkpt>
   <trkpt lat="59.0702704361" lon="29.9682287522"><ele>98.991</ele><time>2026-04-25T11:13:02.000Z</time><hdop>3.562</hdop><vdop>3.562</vdop><extensions><gom:speed>0.438</gom:speed></extensions></trkpt>
   <trkpt lat="59.0702704361" lon="29.9682287522"><ele>98.926</ele><time>2026-04-25T11:13:03.000Z</time><hdop>3.562</hdop><vdop>3.562</vdop><extensions><gom:speed>0.0</gom:speed></extensions></trkpt>
   <trkpt lat="59.0702704361" lon="29.9682287522"><ele>98.887</ele><time>2026-04-25T11:13:04.000Z</time><hdop>3.562</hdop><vdop>3.562</vdop><extensions><gom:speed>0.0</gom:speed></extensions></trkpt>
   <trkpt lat="59.0702869484" lon="29.9682423309"><ele>98.965</ele><time>2026-04-25T11:13:05.000Z</time><hdop>4.187</hdop><vdop>4.187</vdop><extensions><gom:speed>0.5</gom:speed></extensions></trkpt>
   <trkpt lat="59.0702869484" lon="29.9682423309"><ele>99.012</ele><time>2026-04-25T11:13:06.000Z</time><hdop>4.187</hdop><vdop>4.187</vdop><extensions><gom:speed>0.0</gom:speed></extensions></trkpt>
   <trkpt lat="59.0702869484" lon="29.9682423309"><ele>99.04</ele><time>2026-04-25T11:13:07.000Z</time><hdop>4.187</hdop><vdop>4.187</vdop><extensions><gom:speed>0.0</gom:speed></extensions></trkpt>
   <trkpt lat="59.0702967972" lon="29.9682531435"><ele>99.141</ele><time>2026-04-25T11:13:08.000Z</time><hdop>4.687</hdop><vdop>4.687</vdop><extensions><gom:speed>0.223</gom:speed></extensions></trkpt>
   <trkpt lat="59.0702967972" lon="29.9682531435"><ele>99.202</ele><time>2026-04-25T11:13:09.000Z</time><hdop>4.687</hdop><vdop>4.687</vdop><extensions><gom:speed>0.0</gom:speed></extensions></trkpt>
   <trkpt lat="59.0702967972" lon="29.9682531435"><ele>99.238</ele><time>2026-04-25T11:13:10.000Z</time><hdop>4.687</hdop><vdop>4.687</vdop><extensions><gom:speed>0.0</gom:speed></extensions></trkpt>
   <trkpt lat="59.0702967972" lon="29.9682531435"><ele>99.26</ele><time>2026-04-25T11:13:11.000Z</time><hdop>4.687</hdop><vdop>4.687</vdop><extensions><gom:speed>0.0</gom:speed></extensions></trkpt>
   <trkpt lat="59.0702967972" lon="29.9682531435"><ele>99.273</ele><time>2026-04-25T11:13:12.000Z</time><hdop>4.687</hdop><vdop>4.687</vdop><extensions><gom:speed>0.0</gom:speed></extensions></trkpt>
   <trkpt lat="59.0702967972" lon="29.9682531435"><ele>99.28</ele><time>2026-04-25T11:13:13.000Z</time><hdop>4.687</hdop><vdop>4.687</vdop><extensions><gom:speed>0.0</gom:speed></extensions></trkpt>
   <trkpt lat="59.0702967972" lon="29.9682531435"><ele>99.285</ele><time>2026-04-25T11:13:13.000Z</time><hdop>4.687</hdop><vdop>4.687</vdop><extensions><gom:speed>0.0</gom:speed></extensions></trkpt>
   <trkpt lat="59.0702967972" lon="29.9682531435"><ele>99.288</ele><time>2026-04-25T11:13:14.000Z</time><hdop>4.687</hdop><vdop>4.687</vdop><extensions><gom:speed>0.0</gom:speed></extensions></trkpt>
   <trkpt lat="59.0702967972" lon="29.9682531435"><ele>99.289</ele><time>2026-04-25T11:13:15.000Z</time><hdop>4.687</hdop><vdop>4.687</vdop><extensions><gom:speed>0.0</gom:speed></extensions></trkpt>
   <trkpt lat="59.0702967972" lon="29.9682531435"><ele>99.29</ele><time>2026-04-25T11:13:16.000Z</time><hdop>4.687</hdop><vdop>4.687</vdop><extensions><gom:speed>0.0</gom:speed></extensions></trkpt>
   <trkpt lat="59.0702967972" lon="29.9682531435"><ele>99.291</ele><time>2026-04-25T11:13:17.000Z</time><hdop>4.687</hdop><vdop>4.687</vdop><extensions><gom:speed>0.0</gom:speed></extensions></trkpt>
   <trkpt lat="59.0702967972" lon="29.9682531435"><ele>99.291</ele><time>2026-04-25T11:13:18.000Z</time><hdop>4.687</hdop><vdop>4.687</vdop><extensions><gom:speed>0.0</gom:speed></extensions></trkpt>
   <trkpt lat="59.0702967972" lon="29.9682531435"><ele>99.292</ele><time>2026-04-25T11:13:19.000Z</time><hdop>4.687</hdop><vdop>4.687</vdop><extensions><gom:speed>0.0</gom:speed></extensions></trkpt>
   <trkpt lat="59.0702967972" lon="29.9682531435"><ele>99.292</ele><time>2026-04-25T11:13:20.000Z</time><hdop>4.687</hdop><vdop>4.687</vdop><extensions><gom:speed>0.0</gom:speed></extensions></trkpt>
   <trkpt lat="59.0702967972" lon="29.9682531435"><ele>99.292</ele><time>2026-04-25T11:13:21.000Z</time><hdop>4.687</hdop><vdop>4.687</vdop><extensions><gom:speed>0.0</gom:speed></extensions></trkpt>
   <trkpt lat="59.0702967972" lon="29.9682531435"><ele>99.292</ele><time>2026-04-25T11:13:22.000Z</time><hdop>4.687</hdop><vdop>4.687</vdop><extensions><gom:speed>0.0</gom:speed></extensions></trkpt>
   <trkpt lat="59.0702967972" lon="29.9682531435"><ele>99.292</ele><time>2026-04-25T11:13:23.000Z</time><hdop>4.687</hdop><vdop>4.687</vdop><extensions><gom:speed>0.0</gom:speed></extensions></trkpt>
   <trkpt lat="59.0702967972" lon="29.9682531435"><ele>99.292</ele><time>2026-04-25T11:13:24.000Z</time><hdop>4.687</hdop><vdop>4.687</vdop><extensions><gom:speed>0.0</gom:speed></extensions></trkpt>
   <trkpt lat="59.0702967972" lon="29.9682531435"><ele>99.292</ele><time>2026-04-25T11:13:25.000Z</time><hdop>4.687</hdop><vdop>4.687</vdop><extensions><gom:speed>0.0</gom:speed></extensions></trkpt>
   <trkpt lat="59.0702967972" lon="29.9682531435"><ele>99.292</ele><time>2026-04-25T11:13:26.000Z</time><hdop>4.687</hdop><vdop>4.687</vdop><extensions><gom:speed>0.0</gom:speed></extensions></trkpt>
   <trkpt lat="59.0702967972" lon="29.9682531435"><ele>99.292</ele><time>2026-04-25T11:13:27.000Z</time><hdop>4.687</hdop><vdop>4.687</vdop><extensions><gom:speed>0.0</gom:speed></extensions></trkpt>
   <trkpt lat="59.0702967972" lon="29.9682531435"><ele>99.292</ele><time>2026-04-25T11:13:28.000Z</time><hdop>4.687</hdop><vdop>4.687</vdop><extensions><gom:speed>0.0</gom:speed></extensions></trkpt>
   <trkpt lat="59.0702967972" lon="29.9682531435"><ele>99.292</ele><time>2026-04-25T11:13:29.000Z</time><hdop>4.687</hdop><vdop>4.687</vdop><extensions><gom:speed>0.0</gom:speed></extensions></trkpt>
   <trkpt lat="59.0702967972" lon="29.9682531435"><ele>99.292</ele><time>2026-04-25T11:13:30.000Z</time><hdop>4.687</hdop><vdop>4.687</vdop><extensions><gom:speed>0.0</gom:speed></extensions></trkpt>
   <trkpt lat="59.0702967972" lon="29.9682531435"><ele>99.292</ele><time>2026-04-25T11:13:31.000Z</time><hdop>4.687</hdop><vdop>4.687</vdop><extensions><gom:speed>0.0</gom:speed></extensions></trkpt>
   <trkpt lat="59.0702967972" lon="29.9682531435"><ele>99.292</ele><time>2026-04-25T11:13:32.000Z</time><hdop>4.687</hdop><vdop>4.687</vdop><extensions><gom:speed>0.0</gom:speed></extensions></trkpt>
   <trkpt lat="59.0702967972" lon="29.9682531435"><ele>99.292</ele><time>2026-04-25T11:13:33.000Z</time><hdop>4.687</hdop><vdop>4.687</vdop><extensions><gom:speed>0.0</gom:speed></extensions></trkpt>
   <trkpt lat="59.0702967972" lon="29.9682531435"><ele>99.292</ele><time>2026-04-25T11:13:33.000Z</time><hdop>4.687</hdop><vdop>4.687</vdop><extensions><gom:speed>0.0</gom:speed></extensions></trkpt>
   <trkpt lat="59.0702967972" lon="29.9682531435"><ele>99.292</ele><time>2026-04-25T11:13:34.000Z</time><hdop>4.687</hdop><vdop>4.687</vdop><extensions><gom:speed>0.0</gom:speed></extensions></trkpt>
   <trkpt lat="59.0702967972" lon="29.9682531435"><ele>99.292</ele><time>2026-04-25T11:13:35.000Z</time><hdop>4.687</hdop><vdop>4.687</vdop><extensions><gom:speed>0.0</gom:speed></extensions></trkpt>
   <trkpt lat="59.0702967972" lon="29.9682531435"><ele>99.292</ele><time>2026-04-25T11:13:36.000Z</time><hdop>4.687</hdop><vdop>4.687</vdop><extensions><gom:speed>0.0</gom:speed></extensions></trkpt>
   <trkpt lat="59.0702967972" lon="29.9682531435"><ele>99.292</ele><time>2026-04-25T11:13:37.000Z</time><hdop>4.687</hdop><vdop>4.687</vdop><extensions><gom:speed>0.0</gom:speed></extensions></trkpt>
   <trkpt lat="59.0702967972" lon="29.9682531435"><ele>99.292</ele><time>2026-04-25T11:13:38.000Z</time><hdop>4.687</hdop><vdop>4.687</vdop><extensions><gom:speed>0.0</gom:speed></extensions></trkpt>
   <trkpt lat="59.0702967972" lon="29.9682531435"><ele>99.292</ele><time>2026-04-25T11:13:39.000Z</time><hdop>4.687</hdop><vdop>4.687</vdop><extensions><gom:speed>0.0</gom:speed></extensions></trkpt>
   <trkpt lat="59.0702967972" lon="29.9682531435"><ele>99.292</ele><time>2026-04-25T11:13:40.000Z</time><hdop>4.687</hdop><vdop>4.687</vdop><extensions><gom:speed>0.0</gom:speed></extensions></trkpt>
   <trkpt lat="59.0703087414" lon="29.9682642077"><ele>99.441</ele><time>2026-04-25T11:13:41.000Z</time><hdop>4.875</hdop><vdop>4.875</vdop><extensions><gom:speed>0.325</gom:speed></extensions></trkpt>
   <trkpt lat="59.0703087414" lon="29.9682642077"><ele>99.529</ele><time>2026-04-25T11:13:42.000Z</time><hdop>4.875</hdop><vdop>4.875</vdop><extensions><gom:speed>0.0</gom:speed></extensions></trkpt>
   <trkpt lat="59.0703087414" lon="29.9682642077"><ele>99.582</ele><time>2026-04-25T11:13:43.000Z</time><hdop>4.875</hdop><vdop>4.875</vdop><extensions><gom:speed>0.0</gom:speed></extensions></trkpt>
   <trkpt lat="59.0703087414" lon="29.9682642077"><ele>99.614</ele><time>2026-04-25T11:13:44.000Z</time><hdop>4.875</hdop><vdop>4.875</vdop><extensions><gom:speed>0.0</gom:speed></extensions></trkpt>
   <trkpt lat="59.0703211885" lon="29.9682793789"><ele>99.547</ele><time>2026-04-25T11:13:45.000Z</time><hdop>4.687</hdop><vdop>4.687</vdop><extensions><gom:speed>0.399</gom:speed></extensions></trkpt>
   <trkpt lat="59.0703363598" lon="29.968292287"><ele>99.712</ele><time>2026-04-25T11:13:46.000Z</time><hdop>4.687</hdop><vdop>4.687</vdop><extensions><gom:speed>0.457</gom:speed></extensions></trkpt>
   <trkpt lat="59.0703514891" lon="29.9683103919"><ele>99.795</ele><time>2026-04-25T11:13:47.000Z</time><hdop>4.687</hdop><vdop>4.687</vdop><extensions><gom:speed>0.558</gom:speed></extensions></trkpt>
   <trkpt lat="59.0703616312" lon="29.9683269881"><ele>99.843</ele><time>2026-04-25T11:13:48.000Z</time><hdop>4.687</hdop><vdop>4.687</vdop><extensions><gom:speed>0.608</gom:speed></extensions></trkpt>
   <trkpt lat="59.0703734078" lon="29.9683415726"><ele>99.857</ele><time>2026-04-25T11:13:49.000Z</time><hdop>4.875</hdop><vdop>4.875</vdop><extensions><gom:speed>0.692</gom:speed></extensions></trkpt>
   <trkpt lat="59.070385352" lon="29.968351128"><ele>99.91</ele><time>2026-04-25T11:13:50.000Z</time><hdop>4.5</hdop><vdop>4.5</vdop><extensions><gom:speed>0.642</gom:speed></extensions></trkpt>
   <trkpt lat="59.0703985535" lon="29.9683568277"><ele>100.006</ele><time>2026-04-25T11:13:51.000Z</time><hdop>4.062</hdop><vdop>4.062</vdop><extensions><gom:speed>0.612</gom:speed></extensions></trkpt>
   <trkpt lat="59.0704107491" lon="29.96835666"><ele>100.065</ele><time>2026-04-25T11:13:52.000Z</time><hdop>3.812</hdop><vdop>3.812</vdop><extensions><gom:speed>0.601</gom:speed></extensions></trkpt>
   <trkpt lat="59.0704234058" lon="29.9683560733"><ele>100.139</ele><time>2026-04-25T11:13:53.000Z</time><hdop>3.437</hdop><vdop>3.437</vdop><extensions><gom:speed>0.677</gom:speed></extensions></trkpt>
   <trkpt lat="59.0704234058" lon="29.9683560733"><ele>100.183</ele><time>2026-04-25T11:13:53.000Z</time><hdop>3.437</hdop><vdop>3.437</vdop><extensions><gom:speed>0.677</gom:speed></extensions></trkpt>
   <trkpt lat="59.0704354758" lon="29.9683569115"><ele>100.203</ele><time>2026-04-25T11:13:54.000Z</time><hdop>3.125</hdop><vdop>3.125</vdop><extensions><gom:speed>0.52</gom:speed></extensions></trkpt>
   <trkpt lat="59.0704449473" lon="29.9683587555"><ele>100.26</ele><time>2026-04-25T11:13:55.000Z</time><hdop>3.125</hdop><vdop>3.125</vdop><extensions><gom:speed>0.462</gom:speed></extensions></trkpt>
   <trkpt lat="59.0704533292" lon="29.9683592584"><ele>100.236</ele><time>2026-04-25T11:13:56.000Z</time><hdop>3.0</hdop><vdop>3.0</vdop><extensions><gom:speed>0.314</gom:speed></extensions></trkpt>
   <trkpt lat="59.0704533292" lon="29.9683592584"><ele>100.221</ele><time>2026-04-25T11:13:57.000Z</time><hdop>3.0</hdop><vdop>3.0</vdop><extensions><gom:speed>0.0</gom:speed></extensions></trkpt>
   <trkpt lat="59.0704533292" lon="29.9683592584"><ele>100.213</ele><time>2026-04-25T11:13:58.000Z</time><hdop>3.0</hdop><vdop>3.0</vdop><extensions><gom:speed>0.0</gom:speed></extensions></trkpt>
   <trkpt lat="59.070459909" lon="29.9683629465"><ele>100.136</ele><time>2026-04-25T11:13:59.000Z</time><hdop>3.0</hdop><vdop>3.0</vdop><extensions><gom:speed>0.235</gom:speed></extensions></trkpt>
   <trkpt lat="59.0704676204" lon="29.9683674727"><ele>100.084</ele><time>2026-04-25T11:14:00.000Z</time><hdop>3.0</hdop><vdop>3.0</vdop><extensions><gom:speed>0.3</gom:speed></extensions></trkpt>
   <trkpt lat="59.0704676204" lon="29.9683674727"><ele>100.052</ele><time>2026-04-25T11:14:01.000Z</time><hdop>3.0</hdop><vdop>3.0</vdop><extensions><gom:speed>0.0</gom:speed></extensions></trkpt>
   <trkpt lat="59.0704794388" lon="29.9683694844"><ele>100.071</ele><time>2026-04-25T11:14:02.000Z</time><hdop>3.0</hdop><vdop>3.0</vdop><extensions><gom:speed>0.351</gom:speed></extensions></trkpt>
   <trkpt lat="59.0704903772" lon="29.9683754355"><ele>100.075</ele><time>2026-04-25T11:14:03.000Z</time><hdop>3.0</hdop><vdop>3.0</vdop><extensions><gom:speed>0.447</gom:speed></extensions></trkpt>
   <trkpt lat="59.0704987172" lon="29.9683816381"><ele>99.987</ele><time>2026-04-25T11:14:04.000Z</time><hdop>3.0</hdop><vdop>3.0</vdop><extensions><gom:speed>0.423</gom:speed></extensions></trkpt>
   <trkpt lat="59.0705076439" lon="29.9683867511"><ele>100.104</ele><time>2026-04-25T11:14:05.000Z</time><hdop>3.0</hdop><vdop>3.0</vdop><extensions><gom:speed>0.371</gom:speed></extensions></trkpt>
   <trkpt lat="59.0705143495" lon="29.9683946301"><ele>100.183</ele><time>2026-04-25T11:14:06.000Z</time><hdop>3.0</hdop><vdop>3.0</vdop><extensions><gom:speed>0.278</gom:speed></extensions></trkpt>
   <trkpt lat="59.0705209712" lon="29.9684029281"><ele>100.286</ele><time>2026-04-25T11:14:07.000Z</time><hdop>3.0</hdop><vdop>3.0</vdop><extensions><gom:speed>0.269</gom:speed></extensions></trkpt>
   <trkpt lat="59.0705209712" lon="29.9684029281"><ele>100.347</ele><time>2026-04-25T11:14:08.000Z</time><hdop>3.0</hdop><vdop>3.0</vdop><extensions><gom:speed>0.0</gom:speed></extensions></trkpt>
   <trkpt lat="59.0705209712" lon="29.9684029281"><ele>100.384</ele><time>2026-04-25T11:14:09.000Z</time><hdop>3.0</hdop><vdop>3.0</vdop><extensions><gom:speed>0.0</gom:speed></extensions></trkpt>
   <trkpt lat="59.0705209712" lon="29.9684029281"><ele>100.406</ele><time>2026-04-25T11:14:10.000Z</time><hdop>3.0</hdop><vdop>3.0</vdop><extensions><gom:speed>0.0</gom:speed></extensions></trkpt>
   <trkpt lat="59.0705221446" lon="29.9684058618"><ele>100.369</ele><time>2026-04-25T11:14:11.000Z</time><hdop>3.125</hdop><vdop>3.125</vdop><extensions><gom:speed>0.256</gom:speed></extensions></trkpt>
   <trkpt lat="59.0705282215" lon="29.9684153334"><ele>100.301</ele><time>2026-04-25T11:14:12.000Z</time><hdop>3.187</hdop><vdop>3.187</vdop><extensions><gom:speed>0.453</gom:speed></extensions></trkpt>
   <trkpt lat="59.0705282215" lon="29.9684153334"><ele>100.26</ele><time>2026-04-25T11:14:13.000Z</time><hdop>3.187</hdop><vdop>3.187</vdop><extensions><gom:speed>0.0</gom:speed></extensions></trkpt>
   <trkpt lat="59.0705282215" lon="29.9684153334"><ele>100.236</ele><time>2026-04-25T11:14:13.000Z</time><hdop>3.187</hdop><vdop>3.187</vdop><extensions><gom:speed>0.0</gom:speed></extensions></trkpt>
   <trkpt lat="59.0705331249" lon="29.968428912"><ele>100.149</ele><time>2026-04-25T11:14:14.000Z</time><hdop>3.562</hdop><vdop>3.562</vdop><extensions><gom:speed>0.502</gom:speed></extensions></trkpt>
   <trkpt lat="59.0705355976" lon="29.968442826"><ele>99.968</ele><time>2026-04-25T11:14:15.000Z</time><hdop>3.312</hdop><vdop>3.312</vdop><extensions><gom:speed>0.413</gom:speed></extensions></trkpt>
   <trkpt lat="59.0705412973" lon="29.9684570752"><ele>99.837</ele><time>2026-04-25T11:14:16.000Z</time><hdop>3.062</hdop><vdop>3.062</vdop><extensions><gom:speed>0.308</gom:speed></extensions></trkpt>
   <trkpt lat="59.0705496792" lon="29.9684716598"><ele>99.741</ele><time>2026-04-25T11:14:17.000Z</time><hdop>3.0</hdop><vdop>3.0</vdop><extensions><gom:speed>0.411</gom:speed></extensions></trkpt>
   <trkpt lat="59.0705563428" lon="29.9684847355"><ele>99.664</ele><time>2026-04-25T11:14:18.000Z</time><hdop>3.0</hdop><vdop>3.0</vdop><extensions><gom:speed>0.313</gom:speed></extensions></trkpt>
   <trkpt lat="59.0705607433" lon="29.9684931174"><ele>99.566</ele><time>2026-04-25T11:14:19.000Z</time><hdop>3.125</hdop><vdop>3.125</vdop><extensions><gom:speed>0.374</gom:speed></extensions></trkpt>
   <trkpt lat="59.0705644732" lon="29.9685032595"><ele>99.43</ele><time>2026-04-25T11:14:20.000Z</time><hdop>3.25</hdop><vdop>3.25</vdop><extensions><gom:speed>0.409</gom:speed></extensions></trkpt>
   <trkpt lat="59.0705664849" lon="29.9685128149"><ele>99.249</ele><time>2026-04-25T11:14:21.000Z</time><hdop>3.5</hdop><vdop>3.5</vdop><extensions><gom:speed>0.27</gom:speed></extensions></trkpt>
   <trkpt lat="59.0705703406" lon="29.9685188499"><ele>99.032</ele><time>2026-04-25T11:14:22.000Z</time><hdop>3.437</hdop><vdop>3.437</vdop><extensions><gom:speed>0.418</gom:speed></extensions></trkpt>
   <trkpt lat="59.0705776747" lon="29.9685242981"><ele>98.861</ele><time>2026-04-25T11:14:23.000Z</time><hdop>3.375</hdop><vdop>3.375</vdop><extensions><gom:speed>0.632</gom:speed></extensions></trkpt>
   <trkpt lat="59.0705873978" lon="29.9685279861"><ele>98.758</ele><time>2026-04-25T11:14:24.000Z</time><hdop>3.187</hdop><vdop>3.187</vdop><extensions><gom:speed>0.795</gom:speed></extensions></trkpt>
   <trkpt lat="59.0705971627" lon="29.9685296625"><ele>98.687</ele><time>2026-04-25T11:14:25.000Z</time><hdop>3.187</hdop><vdop>3.187</vdop><extensions><gom:speed>0.713</gom:speed></extensions></trkpt>
   <trkpt lat="59.0706119148" lon="29.9685361166"><ele>98.661</ele><time>2026-04-25T11:14:26.000Z</time><hdop>3.0</hdop><vdop>3.0</vdop><extensions><gom:speed>0.66</gom:speed></extensions></trkpt>
   <trkpt lat="59.0706189137" lon="29.9685413134"><ele>98.656</ele><time>2026-04-25T11:14:27.000Z</time><hdop>3.0</hdop><vdop>3.0</vdop><extensions><gom:speed>0.528</gom:speed></extensions></trkpt>
   <trkpt lat="59.0706263317" lon="29.9685449176"><ele>98.684</ele><time>2026-04-25T11:14:28.000Z</time><hdop>3.312</hdop><vdop>3.312</vdop><extensions><gom:speed>0.447</gom:speed></extensions></trkpt>
   <trkpt lat="59.0706336659" lon="29.9685476836"><ele>98.719</ele><time>2026-04-25T11:14:29.000Z</time><hdop>3.062</hdop><vdop>3.062</vdop><extensions><gom:speed>0.748</gom:speed></extensions></trkpt>
   <trkpt lat="59.0706404552" lon="29.9685474322"><ele>98.759</ele><time>2026-04-25T11:14:30.000Z</time><hdop>3.0</hdop><vdop>3.0</vdop><extensions><gom:speed>0.516</gom:speed></extensions></trkpt>
   <trkpt lat="59.0706459453" lon="29.9685470131"><ele>98.815</ele><time>2026-04-25T11:14:31.000Z</time><hdop>3.0</hdop><vdop>3.0</vdop><extensions><gom:speed>0.437</gom:speed></extensions></trkpt>
   <trkpt lat="59.07065307" lon="29.9685494438"><ele>98.938</ele><time>2026-04-25T11:14:32.000Z</time><hdop>3.0</hdop><vdop>3.0</vdop><extensions><gom:speed>0.589</gom:speed></extensions></trkpt>
   <trkpt lat="59.0706603622" lon="29.9685531319"><ele>99.069</ele><time>2026-04-25T11:14:33.000Z</time><hdop>3.0</hdop><vdop>3.0</vdop><extensions><gom:speed>0.572</gom:speed></extensions></trkpt>
   <trkpt lat="59.0706603622" lon="29.9685531319"><ele>99.148</ele><time>2026-04-25T11:14:33.000Z</time><hdop>3.0</hdop><vdop>3.0</vdop><extensions><gom:speed>0.572</gom:speed></extensions></trkpt>
   <trkpt lat="59.0706668582" lon="29.9685547244"><ele>99.252</ele><time>2026-04-25T11:14:34.000Z</time><hdop>3.0</hdop><vdop>3.0</vdop><extensions><gom:speed>0.49</gom:speed></extensions></trkpt>
   <trkpt lat="59.0706719712" lon="29.9685527128"><ele>99.306</ele><time>2026-04-25T11:14:35.000Z</time><hdop>3.0</hdop><vdop>3.0</vdop><extensions><gom:speed>0.497</gom:speed></extensions></trkpt>
   <trkpt lat="59.0706762459" lon="29.9685494438"><ele>99.336</ele><time>2026-04-25T11:14:36.000Z</time><hdop>3.0</hdop><vdop>3.0</vdop><extensions><gom:speed>0.393</gom:speed></extensions></trkpt>
   <trkpt lat="59.0706762459" lon="29.9685494438"><ele>99.354</ele><time>2026-04-25T11:14:37.000Z</time><hdop>3.0</hdop><vdop>3.0</vdop><extensions><gom:speed>0.0</gom:speed></extensions></trkpt>
   <trkpt lat="59.0706762459" lon="29.9685494438"><ele>99.365</ele><time>2026-04-25T11:14:38.000Z</time><hdop>3.0</hdop><vdop>3.0</vdop><extensions><gom:speed>0.0</gom:speed></extensions></trkpt>
   <trkpt lat="59.0706762459" lon="29.9685494438"><ele>99.371</ele><time>2026-04-25T11:14:39.000Z</time><hdop>3.0</hdop><vdop>3.0</vdop><extensions><gom:speed>0.0</gom:speed></extensions></trkpt>
   <trkpt lat="59.0706762459" lon="29.9685494438"><ele>99.375</ele><time>2026-04-25T11:14:40.000Z</time><hdop>3.0</hdop><vdop>3.0</vdop><extensions><gom:speed>0.0</gom:speed></extensions></trkpt>
   <trkpt lat="59.0706762459" lon="29.9685494438"><ele>99.377</ele><time>2026-04-25T11:14:41.000Z</time><hdop>3.0</hdop><vdop>3.0</vdop><extensions><gom:speed>0.0</gom:speed></extensions></trkpt>
   <trkpt lat="59.0706762459" lon="29.9685494438"><ele>99.379</ele><time>2026-04-25T11:14:42.000Z</time><hdop>3.0</hdop><vdop>3.0</vdop><extensions><gom:speed>0.0</gom:speed></extensions></trkpt>
   <trkpt lat="59.0706762459" lon="29.9685494438"><ele>99.38</ele><time>2026-04-25T11:14:43.000Z</time><hdop>3.0</hdop><vdop>3.0</vdop><extensions><gom:speed>0.0</gom:speed></extensions></trkpt>
   <trkpt lat="59.0706762459" lon="29.9685494438"><ele>99.38</ele><time>2026-04-25T11:14:44.000Z</time><hdop>3.0</hdop><vdop>3.0</vdop><extensions><gom:speed>0.0</gom:speed></extensions></trkpt>
   <trkpt lat="59.0706762459" lon="29.9685494438"><ele>99.38</ele><time>2026-04-25T11:14:45.000Z</time><hdop>3.0</hdop><vdop>3.0</vdop><extensions><gom:speed>0.0</gom:speed></extensions></trkpt>
   <trkpt lat="59.0706762459" lon="29.9685494438"><ele>99.38</ele><time>2026-04-25T11:14:46.000Z</time><hdop>3.0</hdop><vdop>3.0</vdop><extensions><gom:speed>0.0</gom:speed></extensions></trkpt>
   <trkpt lat="59.0706762459" lon="29.9685494438"><ele>99.381</ele><time>2026-04-25T11:14:47.000Z</time><hdop>3.0</hdop><vdop>3.0</vdop><extensions><gom:speed>0.0</gom:speed></extensions></trkpt>
   <trkpt lat="59.0706805207" lon="29.9685477674"><ele>99.277</ele><time>2026-04-25T11:14:48.000Z</time><hdop>3.0</hdop><vdop>3.0</vdop><extensions><gom:speed>0.823</gom:speed></extensions></trkpt>
   <trkpt lat="59.0706883578" lon="29.9685522937"><ele>99.253</ele><time>2026-04-25T11:14:49.000Z</time><hdop>3.0</hdop><vdop>3.0</vdop><extensions><gom:speed>0.89</gom:speed></extensions></trkpt>
   <trkpt lat="59.0706965301" lon="29.9685626034"><ele>99.241</ele><time>2026-04-25T11:14:50.000Z</time><hdop>3.062</hdop><vdop>3.062</vdop><extensions><gom:speed>1.045</gom:speed></extensions></trkpt>
   <trkpt lat="59.070705373" lon="29.9685784452"><ele>99.229</ele><time>2026-04-25T11:14:51.000Z</time><hdop>3.25</hdop><vdop>3.25</vdop><extensions><gom:speed>1.017</gom:speed></extensions></trkpt>
   <trkpt lat="59.070705373" lon="29.9685784452"><ele>99.223</ele><time>2026-04-25T11:14:51.000Z</time><hdop>3.25</hdop><vdop>3.25</vdop><extensions><gom:speed>1.017</gom:speed></extensions></trkpt>
   <trkpt lat="59.0512399955" lon="29.9639399838"><ele>59.287</ele><time>2026-04-25T11:14:52.129Z</time><hdop>4095.937</hdop><vdop>0.0</vdop><extensions><gom:speed>0.0</gom:speed></extensions></trkpt>
   <trkpt lat="59.0707141321" lon="29.9685913533"><ele>75.338</ele><time>2026-04-25T11:14:52.000Z</time><hdop>3.687</hdop><vdop>3.687</vdop><extensions><gom:speed>0.838</gom:speed></extensions></trkpt>
   <trkpt lat="59.0707203766" lon="29.9686017469"><ele>84.921</ele><time>2026-04-25T11:14:53.000Z</time><hdop>3.5</hdop><vdop>3.5</vdop><extensions><gom:speed>0.789</gom:speed></extensions></trkpt>
   <trkpt lat="59.0707203766" lon="29.9686017469"><ele>90.647</ele><time>2026-04-25T11:14:53.000Z</time><hdop>3.5</hdop><vdop>3.5</vdop><extensions><gom:speed>0.789</gom:speed></extensions></trkpt>
   <trkpt lat="59.070727166" lon="29.9686092068"><ele>94.054</ele><time>2026-04-25T11:14:54.000Z</time><hdop>3.687</hdop><vdop>3.687</vdop><extensions><gom:speed>0.437</gom:speed></extensions></trkpt>
   <trkpt lat="59.0707335781" lon="29.9686123081"><ele>96.032</ele><time>2026-04-25T11:14:55.000Z</time><hdop>3.625</hdop><vdop>3.625</vdop><extensions><gom:speed>0.588</gom:speed></extensions></trkpt>
   <trkpt lat="59.0707404932" lon="29.9686143197"><ele>97.174</ele><time>2026-04-25T11:14:56.000Z</time><hdop>3.312</hdop><vdop>3.312</vdop><extensions><gom:speed>0.447</gom:speed></extensions></trkpt>
   <trkpt lat="59.0707461091" lon="29.9686159961"><ele>97.855</ele><time>2026-04-25T11:14:57.000Z</time><hdop>3.375</hdop><vdop>3.375</vdop><extensions><gom:speed>0.416</gom:speed></extensions></trkpt>
   <trkpt lat="59.0707533594" lon="29.9686154932"><ele>98.223</ele><time>2026-04-25T11:14:58.000Z</time><hdop>3.0</hdop><vdop>3.0</vdop><extensions><gom:speed>0.572</gom:speed></extensions></trkpt>
   <trkpt lat="59.0707606098" lon="29.9686132301"><ele>98.415</ele><time>2026-04-25T11:14:59.000Z</time><hdop>3.0</hdop><vdop>3.0</vdop><extensions><gom:speed>0.638</gom:speed></extensions></trkpt>
   <trkpt lat="59.0707666448" lon="29.9686095421"><ele>98.479</ele><time>2026-04-25T11:15:00.000Z</time><hdop>3.0</hdop><vdop>3.0</vdop><extensions><gom:speed>0.546</gom:speed></extensions></trkpt>
   <trkpt lat="59.0707737694" lon="29.9686071113"><ele>98.504</ele><time>2026-04-25T11:15:01.000Z</time><hdop>3.0</hdop><vdop>3.0</vdop><extensions><gom:speed>0.758</gom:speed></extensions></trkpt>
   <trkpt lat="59.0707824027" lon="29.9686023336"><ele>98.476</ele><time>2026-04-25T11:15:02.000Z</time><hdop>3.0</hdop><vdop>3.0</vdop><extensions><gom:speed>0.464</gom:speed></extensions></trkpt>
   <trkpt lat="59.0707863003" lon="29.9686001543"><ele>98.446</ele><time>2026-04-25T11:15:03.000Z</time><hdop>3.0</hdop><vdop>3.0</vdop><extensions><gom:speed>0.249</gom:speed></extensions></trkpt>
   <trkpt lat="59.0707884796" lon="29.9685995676"><ele>98.471</ele><time>2026-04-25T11:15:04.000Z</time><hdop>3.0</hdop><vdop>3.0</vdop><extensions><gom:speed>0.17</gom:speed></extensions></trkpt>
   <trkpt lat="59.0707884796" lon="29.9685995676"><ele>98.486</ele><time>2026-04-25T11:15:05.000Z</time><hdop>3.0</hdop><vdop>3.0</vdop><extensions><gom:speed>0.0</gom:speed></extensions></trkpt>
   <trkpt lat="59.0707884796" lon="29.9685995676"><ele>98.495</ele><time>2026-04-25T11:15:06.000Z</time><hdop>3.0</hdop><vdop>3.0</vdop><extensions><gom:speed>0.0</gom:speed></extensions></trkpt>
   <trkpt lat="59.0707884796" lon="29.9685995676"><ele>98.501</ele><time>2026-04-25T11:15:07.000Z</time><hdop>3.0</hdop><vdop>3.0</vdop><extensions><gom:speed>0.0</gom:speed></extensions></trkpt>
   <trkpt lat="59.0707884796" lon="29.9685995676"><ele>98.504</ele><time>2026-04-25T11:15:08.000Z</time><hdop>3.0</hdop><vdop>3.0</vdop><extensions><gom:speed>0.0</gom:speed></extensions></trkpt>
   <trkpt lat="59.0707884796" lon="29.9685995676"><ele>98.506</ele><time>2026-04-25T11:15:09.000Z</time><hdop>3.0</hdop><vdop>3.0</vdop><extensions><gom:speed>0.0</gom:speed></extensions></trkpt>
   <trkpt lat="59.0707884796" lon="29.9685995676"><ele>98.507</ele><time>2026-04-25T11:15:10.000Z</time><hdop>3.0</hdop><vdop>3.0</vdop><extensions><gom:speed>0.0</gom:speed></extensions></trkpt>
   <trkpt lat="59.0707884796" lon="29.9685995676"><ele>98.508</ele><time>2026-04-25T11:15:11.000Z</time><hdop>3.0</hdop><vdop>3.0</vdop><extensions><gom:speed>0.0</gom:speed></extensions></trkpt>
   <trkpt lat="59.0707884796" lon="29.9685995676"><ele>98.508</ele><time>2026-04-25T11:15:12.000Z</time><hdop>3.0</hdop><vdop>3.0</vdop><extensions><gom:speed>0.0</gom:speed></extensions></trkpt>
   <trkpt lat="59.0707884796" lon="29.9685995676"><ele>98.508</ele><time>2026-04-25T11:15:13.000Z</time><hdop>3.0</hdop><vdop>3.0</vdop><extensions><gom:speed>0.0</gom:speed></extensions></trkpt>
   <trkpt lat="59.0707884796" lon="29.9685995676"><ele>98.508</ele><time>2026-04-25T11:15:13.000Z</time><hdop>3.0</hdop><vdop>3.0</vdop><extensions><gom:speed>0.0</gom:speed></extensions></trkpt>
   <trkpt lat="59.0707884796" lon="29.9685995676"><ele>98.509</ele><time>2026-04-25T11:15:14.000Z</time><hdop>3.0</hdop><vdop>3.0</vdop><extensions><gom:speed>0.0</gom:speed></extensions></trkpt>
   <trkpt lat="59.0707884796" lon="29.9685995676"><ele>98.509</ele><time>2026-04-25T11:15:15.000Z</time><hdop>3.0</hdop><vdop>3.0</vdop><extensions><gom:speed>0.0</gom:speed></extensions></trkpt>
   <trkpt lat="59.0707909104" lon="29.9685990647"><ele>98.464</ele><time>2026-04-25T11:15:16.000Z</time><hdop>3.0</hdop><vdop>3.0</vdop><extensions><gom:speed>0.253</gom:speed></extensions></trkpt>
   <trkpt lat="59.0707909104" lon="29.9685990647"><ele>98.438</ele><time>2026-04-25T11:15:17.000Z</time><hdop>3.0</hdop><vdop>3.0</vdop><extensions><gom:speed>0.0</gom:speed></extensions></trkpt>
   <trkpt lat="59.0707953109" lon="29.968602166"><ele>98.388</ele><time>2026-04-25T11:15:18.000Z</time><hdop>3.0</hdop><vdop>3.0</vdop><extensions><gom:speed>0.426</gom:speed></extensions></trkpt>
   <trkpt lat="59.0708039442" lon="29.9686166667"><ele>98.259</ele><time>2026-04-25T11:15:19.000Z</time><hdop>3.0</hdop><vdop>3.0</vdop><extensions><gom:speed>0.689</gom:speed></extensions></trkpt>
   <trkpt lat="59.0708120747" lon="29.968632257"><ele>98.14</ele><time>2026-04-25T11:15:20.000Z</time><hdop>3.125</hdop><vdop>3.125</vdop><extensions><gom:speed>0.636</gom:speed></extensions></trkpt>
   <trkpt lat="59.0708203728" lon="29.9686482665"><ele>98.02</ele><time>2026-04-25T11:15:21.000Z</time><hdop>3.375</hdop><vdop>3.375</vdop><extensions><gom:speed>0.549</gom:speed></extensions></trkpt>
   <trkpt lat="59.0708276231" lon="29.9686678801"><ele>97.912</ele><time>2026-04-25T11:15:22.000Z</time><hdop>3.375</hdop><vdop>3.375</vdop><extensions><gom:speed>0.69</gom:speed></extensions></trkpt>
   <trkpt lat="59.0708362565" lon="29.9686819617"><ele>97.852</ele><time>2026-04-25T11:15:23.000Z</time><hdop>3.187</hdop><vdop>3.187</vdop><extensions><gom:speed>0.384</gom:speed></extensions></trkpt>
   <trkpt lat="59.070844345" lon="29.9686880805"><ele>97.885</ele><time>2026-04-25T11:15:24.000Z</time><hdop>3.062</hdop><vdop>3.062</vdop><extensions><gom:speed>0.293</gom:speed></extensions></trkpt>
   <trkpt lat="59.0708504638" lon="29.968689254"><ele>97.931</ele><time>2026-04-25T11:15:25.000Z</time><hdop>3.0</hdop><vdop>3.0</vdop><extensions><gom:speed>0.421</gom:speed></extensions></trkpt>
   <trkpt lat="59.0708566664" lon="29.9686865718"><ele>97.975</ele><time>2026-04-25T11:15:26.000Z</time><hdop>3.0</hdop><vdop>3.0</vdop><extensions><gom:speed>0.526</gom:speed></extensions></trkpt>
   <trkpt lat="59.0708636234" lon="29.9686853145"><ele>98.014</ele><time>2026-04-25T11:15:27.000Z</time><hdop>3.0</hdop><vdop>3.0</vdop><extensions><gom:speed>0.573</gom:speed></extensions></trkpt>
   <trkpt lat="59.0708711252" lon="29.968685063"><ele>98.078</ele><time>2026-04-25T11:15:28.000Z</time><hdop>3.0</hdop><vdop>3.0</vdop><extensions><gom:speed>0.595</gom:speed></extensions></trkpt>
   <trkpt lat="59.0708781241" lon="29.9686787766"><ele>98.086</ele><time>2026-04-25T11:15:29.000Z</time><hdop>3.0</hdop><vdop>3.0</vdop><extensions><gom:speed>0.549</gom:speed></extensions></trkpt>
   <trkpt lat="59.0708844524" lon="29.9686711491"><ele>98.103</ele><time>2026-04-25T11:15:30.000Z</time><hdop>3.0</hdop><vdop>3.0</vdop><extensions><gom:speed>0.548</gom:speed></extensions></trkpt>
   <trkpt lat="59.0708900264" lon="29.9686620128"><ele>98.093</ele><time>2026-04-25T11:15:31.000Z</time><hdop>3.0</hdop><vdop>3.0</vdop><extensions><gom:speed>0.565</gom:speed></extensions></trkpt>
   <trkpt lat="59.070897151" lon="29.9686491885"><ele>98.111</ele><time>2026-04-25T11:15:32.000Z</time><hdop>3.0</hdop><vdop>3.0</vdop><extensions><gom:speed>0.898</gom:speed></extensions></trkpt>
   <trkpt lat="59.070897151" lon="29.9686491885"><ele>98.122</ele><time>2026-04-25T11:15:32.000Z</time><hdop>3.0</hdop><vdop>3.0</vdop><extensions><gom:speed>0.898</gom:speed></extensions></trkpt>
   <trkpt lat="59.070904569" lon="29.9686379567"><ele>98.123</ele><time>2026-04-25T11:15:33.000Z</time><hdop>3.0</hdop><vdop>3.0</vdop><extensions><gom:speed>0.662</gom:speed></extensions></trkpt>
   <trkpt lat="59.0709099753" lon="29.9686310836"><ele>98.185</ele><time>2026-04-25T11:15:34.000Z</time><hdop>3.0</hdop><vdop>3.0</vdop><extensions><gom:speed>0.542</gom:speed></extensions></trkpt>
   <trkpt lat="59.070915675" lon="29.9686196842"><ele>98.307</ele><time>2026-04-25T11:15:35.000Z</time><hdop>3.0</hdop><vdop>3.0</vdop><extensions><gom:speed>0.631</gom:speed></extensions></trkpt>
   <trkpt lat="59.0709224643" lon="29.968609123"><ele>98.449</ele><time>2026-04-25T11:15:36.000Z</time><hdop>3.0</hdop><vdop>3.0</vdop><extensions><gom:speed>0.635</gom:speed></extensions></trkpt>
   <trkpt lat="59.0709307205" lon="29.9686045129"><ele>98.58</ele><time>2026-04-25T11:15:37.000Z</time><hdop>3.0</hdop><vdop>3.0</vdop><extensions><gom:speed>0.639</gom:speed></extensions></trkpt>
   <trkpt lat="59.0709391862" lon="29.9686030042"><ele>98.692</ele><time>2026-04-25T11:15:38.000Z</time><hdop>3.0</hdop><vdop>3.0</vdop><extensions><gom:speed>0.539</gom:speed></extensions></trkpt>
   <trkpt lat="59.0709447183" lon="29.968607698"><ele>98.758</ele><time>2026-04-25T11:15:39.000Z</time><hdop>3.0</hdop><vdop>3.0</vdop><extensions><gom:speed>0.323</gom:speed></extensions></trkpt>
   <trkpt lat="59.0709529745" lon="29.9686149903"><ele>98.721</ele><time>2026-04-25T11:15:40.000Z</time><hdop>3.0</hdop><vdop>3.0</vdop><extensions><gom:speed>0.445</gom:speed></extensions></trkpt>
   <trkpt lat="59.0709639128" lon="29.9686218635"><ele>98.758</ele><time>2026-04-25T11:15:41.000Z</time><hdop>3.0</hdop><vdop>3.0</vdop><extensions><gom:speed>0.534</gom:speed></extensions></trkpt>
   <trkpt lat="59.0709722109" lon="29.9686283175"><ele>98.732</ele><time>2026-04-25T11:15:42.000Z</time><hdop>3.0</hdop><vdop>3.0</vdop><extensions><gom:speed>0.468</gom:speed></extensions></trkpt>
   <trkpt lat="59.0709799642" lon="29.9686357774"><ele>98.721</ele><time>2026-04-25T11:15:43.000Z</time><hdop>3.0</hdop><vdop>3.0</vdop><extensions><gom:speed>0.561</gom:speed></extensions></trkpt>
   <trkpt lat="59.0709845323" lon="29.9686450813"><ele>98.716</ele><time>2026-04-25T11:15:44.000Z</time><hdop>3.0</hdop><vdop>3.0</vdop><extensions><gom:speed>0.51</gom:speed></extensions></trkpt>
   <trkpt lat="59.0709867535" lon="29.9686580733"><ele>98.726</ele><time>2026-04-25T11:15:45.000Z</time><hdop>3.0</hdop><vdop>3.0</vdop><extensions><gom:speed>0.537</gom:speed></extensions></trkpt>
   <trkpt lat="59.0709892262" lon="29.9686698079"><ele>98.753</ele><time>2026-04-25T11:15:46.000Z</time><hdop>3.0</hdop><vdop>3.0</vdop><extensions><gom:speed>0.551</gom:speed></extensions></trkpt>
   <trkpt lat="59.0709893519" lon="29.9686824646"><ele>98.816</ele><time>2026-04-25T11:15:47.000Z</time><hdop>3.0</hdop><vdop>3.0</vdop><extensions><gom:speed>0.485</gom:speed></extensions></trkpt>
   <trkpt lat="59.0709898548" lon="29.9686983902"><ele>98.863</ele><time>2026-04-25T11:15:48.000Z</time><hdop>3.0</hdop><vdop>3.0</vdop><extensions><gom:speed>0.574</gom:speed></extensions></trkpt>
   <trkpt lat="59.0709909864" lon="29.9687121366"><ele>98.881</ele><time>2026-04-25T11:15:49.000Z</time><hdop>3.0</hdop><vdop>3.0</vdop><extensions><gom:speed>0.551</gom:speed></extensions></trkpt>
   <trkpt lat="59.0709917827" lon="29.9687275593"><ele>98.84</ele><time>2026-04-25T11:15:50.000Z</time><hdop>3.0</hdop><vdop>3.0</vdop><extensions><gom:speed>0.292</gom:speed></extensions></trkpt>
   <trkpt lat="59.0709946325" lon="29.9687403836"><ele>98.748</ele><time>2026-04-25T11:15:51.000Z</time><hdop>3.0</hdop><vdop>3.0</vdop><extensions><gom:speed>0.458</gom:speed></extensions></trkpt>
   <trkpt lat="59.0709986558" lon="29.9687510286"><ele>98.651</ele><time>2026-04-25T11:15:52.000Z</time><hdop>3.0</hdop><vdop>3.0</vdop><extensions><gom:speed>0.457</gom:speed></extensions></trkpt>
   <trkpt lat="59.0709986558" lon="29.9687510286"><ele>98.592</ele><time>2026-04-25T11:15:52.000Z</time><hdop>3.0</hdop><vdop>3.0</vdop><extensions><gom:speed>0.457</gom:speed></extensions></trkpt>
   <trkpt lat="59.0710028049" lon="29.9687612545"><ele>98.552</ele><time>2026-04-25T11:15:53.000Z</time><hdop>3.0</hdop><vdop>3.0</vdop><extensions><gom:speed>0.56</gom:speed></extensions></trkpt>
   <trkpt lat="59.0710085884" lon="29.9687707261"><ele>98.564</ele><time>2026-04-25T11:15:54.000Z</time><hdop>3.0</hdop><vdop>3.0</vdop><extensions><gom:speed>0.659</gom:speed></extensions></trkpt>
   <trkpt lat="59.0710146653" lon="29.9687782698"><ele>98.537</ele><time>2026-04-25T11:15:55.000Z</time><hdop>3.0</hdop><vdop>3.0</vdop><extensions><gom:speed>0.701</gom:speed></extensions></trkpt>
   <trkpt lat="59.0710226281" lon="29.9687845562"><ele>98.537</ele><time>2026-04-25T11:15:56.000Z</time><hdop>3.0</hdop><vdop>3.0</vdop><extensions><gom:speed>0.62</gom:speed></extensions></trkpt>
   <trkpt lat="59.0710312614" lon="29.9687883281"><ele>98.553</ele><time>2026-04-25T11:15:57.000Z</time><hdop>3.0</hdop><vdop>3.0</vdop><extensions><gom:speed>0.635</gom:speed></extensions></trkpt>
   <trkpt lat="59.0710384699" lon="29.9687920999"><ele>96.6</ele><time>2026-04-25T11:15:58.000Z</time><hdop>1.0</hdop><vdop>1.0</vdop><extensions><gom:speed>0.807</gom:speed></extensions></trkpt>
   <trkpt lat="59.0710445468" lon="29.9687917646"><ele>95.43</ele><time>2026-04-25T11:15:59.000Z</time><hdop>1.0</hdop><vdop>1.0</vdop><extensions><gom:speed>0.582</gom:speed></extensions></trkpt>
   <trkpt lat="59.0710482767" lon="29.9687978834"><ele>94.681</ele><time>2026-04-25T11:16:00.000Z</time><hdop>1.187</hdop><vdop>1.187</vdop><extensions><gom:speed>0.473</gom:speed></extensions></trkpt>
   <trkpt lat="59.0710535992" lon="29.9688063491"><ele>94.252</ele><time>2026-04-25T11:16:01.000Z</time><hdop>1.437</hdop><vdop>1.437</vdop><extensions><gom:speed>0.658</gom:speed></extensions></trkpt>
   <trkpt lat="59.0710579578" lon="29.9688208498"><ele>94.082</ele><time>2026-04-25T11:16:02.000Z</time><hdop>1.875</hdop><vdop>1.875</vdop><extensions><gom:speed>0.555</gom:speed></extensions></trkpt>
   <trkpt lat="59.0710584607" lon="29.9688378651"><ele>93.917</ele><time>2026-04-25T11:16:03.000Z</time><hdop>2.437</hdop><vdop>2.437</vdop><extensions><gom:speed>0.719</gom:speed></extensions></trkpt>
   <trkpt lat="59.0710557366" lon="29.9688619212"><ele>93.794</ele><time>2026-04-25T11:16:04.000Z</time><hdop>3.125</hdop><vdop>3.125</vdop><extensions><gom:speed>0.723</gom:speed></extensions></trkpt>
   <trkpt lat="59.0710574968" lon="29.968875416"><ele>93.736</ele><time>2026-04-25T11:16:05.000Z</time><hdop>3.5</hdop><vdop>3.5</vdop><extensions><gom:speed>0.688</gom:speed></extensions></trkpt>
   <trkpt lat="59.0710616877" lon="29.968897209"><ele>93.481</ele><time>2026-04-25T11:16:06.000Z</time><hdop>3.75</hdop><vdop>3.75</vdop><extensions><gom:speed>0.639</gom:speed></extensions></trkpt>
   <trkpt lat="59.0710677646" lon="29.9689158168"><ele>93.43</ele><time>2026-04-25T11:16:07.000Z</time><hdop>3.687</hdop><vdop>3.687</vdop><extensions><gom:speed>0.569</gom:speed></extensions></trkpt>
   <trkpt lat="59.0710724585" lon="29.968923612"><ele>93.455</ele><time>2026-04-25T11:16:08.000Z</time><hdop>3.437</hdop><vdop>3.437</vdop><extensions><gom:speed>0.196</gom:speed></extensions></trkpt>
   <trkpt lat="59.0710738415" lon="29.9689293117"><ele>93.499</ele><time>2026-04-25T11:16:09.000Z</time><hdop>3.062</hdop><vdop>3.062</vdop><extensions><gom:speed>0.132</gom:speed></extensions></trkpt>
   <trkpt lat="59.0710779067" lon="29.968932413"><ele>93.565</ele><time>2026-04-25T11:16:10.000Z</time><hdop>2.687</hdop><vdop>2.687</vdop><extensions><gom:speed>0.149</gom:speed></extensions></trkpt>
   <trkpt lat="59.0710814271" lon="29.9689350114"><ele>93.416</ele><time>2026-04-25T11:16:11.000Z</time><hdop>2.687</hdop><vdop>2.687</vdop><extensions><gom:speed>0.344</gom:speed></extensions></trkpt>
   <trkpt lat="59.0710869592" lon="29.9689312395"><ele>93.299</ele><time>2026-04-25T11:16:12.000Z</time><hdop>2.687</hdop><vdop>2.687</vdop><extensions><gom:speed>0.502</gom:speed></extensions></trkpt>
   <trkpt lat="59.0710869592" lon="29.9689312395"><ele>93.229</ele><time>2026-04-25T11:16:12.000Z</time><hdop>2.687</hdop><vdop>2.687</vdop><extensions><gom:speed>0.502</gom:speed></extensions></trkpt>
   <trkpt lat="59.0710886775" lon="29.9689232767"><ele>93.185</ele><time>2026-04-25T11:16:13.000Z</time><hdop>3.187</hdop><vdop>3.187</vdop><extensions><gom:speed>0.66</gom:speed></extensions></trkpt>
   <trkpt lat="59.0710925331" lon="29.9689084407"><ele>93.159</ele><time>2026-04-25T11:16:14.000Z</time><hdop>3.437</hdop><vdop>3.437</vdop><extensions><gom:speed>0.718</gom:speed></extensions></trkpt>
   <trkpt lat="59.0710991968" lon="29.9688908387"><ele>93.231</ele><time>2026-04-25T11:16:15.000Z</time><hdop>3.437</hdop><vdop>3.437</vdop><extensions><gom:speed>0.764</gom:speed></extensions></trkpt>
   <trkpt lat="59.0711061118" lon="29.9688748293"><ele>93.52</ele><time>2026-04-25T11:16:16.000Z</time><hdop>3.062</hdop><vdop>3.062</vdop><extensions><gom:speed>0.798</gom:speed></extensions></trkpt>
   <trkpt lat="59.0711112667" lon="29.9688627594"><ele>95.561</ele><time>2026-04-25T11:16:17.000Z</time><hdop>3.0</hdop><vdop>3.0</vdop><extensions><gom:speed>0.408</gom:speed></extensions></trkpt>
   <trkpt lat="59.0711131945" lon="29.9688571435"><ele>96.725</ele><time>2026-04-25T11:16:18.000Z</time><hdop>3.0</hdop><vdop>3.0</vdop><extensions><gom:speed>0.354</gom:speed></extensions></trkpt>
   <trkpt lat="59.0711168407" lon="29.9688506894"><ele>97.337</ele><time>2026-04-25T11:16:19.000Z</time><hdop>3.0</hdop><vdop>3.0</vdop><extensions><gom:speed>0.281</gom:speed></extensions></trkpt>
   <trkpt lat="59.0711202772" lon="29.9688482587"><ele>97.685</ele><time>2026-04-25T11:16:20.000Z</time><hdop>3.0</hdop><vdop>3.0</vdop><extensions><gom:speed>0.216</gom:speed></extensions></trkpt>
   <trkpt lat="59.0711202772" lon="29.9688482587"><ele>97.893</ele><time>2026-04-25T11:16:21.000Z</time><hdop>3.0</hdop><vdop>3.0</vdop><extensions><gom:speed>0.0</gom:speed></extensions></trkpt>
   <trkpt lat="59.0711202772" lon="29.9688482587"><ele>98.017</ele><time>2026-04-25T11:16:22.000Z</time><hdop>3.0</hdop><vdop>3.0</vdop><extensions><gom:speed>0.0</gom:speed></extensions></trkpt>
   <trkpt lat="59.0711220794" lon="29.9688398768"><ele>98.122</ele><time>2026-04-25T11:16:23.000Z</time><hdop>3.0</hdop><vdop>3.0</vdop><extensions><gom:speed>0.402</gom:speed></extensions></trkpt>
   <trkpt lat="59.0711250549" lon="29.9688275554"><ele>98.2</ele><time>2026-04-25T11:16:24.000Z</time><hdop>3.0</hdop><vdop>3.0</vdop><extensions><gom:speed>0.682</gom:speed></extensions></trkpt>
   <trkpt lat="59.0711291621" lon="29.9688099534"><ele>98.235</ele><time>2026-04-25T11:16:25.000Z</time><hdop>3.0</hdop><vdop>3.0</vdop><extensions><gom:speed>0.656</gom:speed></extensions></trkpt>
   <trkpt lat="59.0711376278" lon="29.9687972129"><ele>96.197</ele><time>2026-04-25T11:16:26.000Z</time><hdop>1.625</hdop><vdop>1.625</vdop><extensions><gom:speed>0.732</gom:speed></extensions></trkpt>
   <trkpt lat="59.07114492" lon="29.9687757552"><ele>94.933</ele><time>2026-04-25T11:16:27.000Z</time><hdop>1.75</hdop><vdop>1.75</vdop><extensions><gom:speed>0.718</gom:speed></extensions></trkpt>
   <trkpt lat="59.0711485662" lon="29.9687580694"><ele>94.183</ele><time>2026-04-25T11:16:28.000Z</time><hdop>1.75</hdop><vdop>1.75</vdop><extensions><gom:speed>0.573</gom:speed></extensions></trkpt>
   <trkpt lat="59.0711516675" lon="29.9687476758"><ele>93.742</ele><time>2026-04-25T11:16:29.000Z</time><hdop>2.062</hdop><vdop>2.062</vdop><extensions><gom:speed>0.624</gom:speed></extensions></trkpt>
   <trkpt lat="59.0711548945" lon="29.9687297386"><ele>93.443</ele><time>2026-04-25T11:16:30.000Z</time><hdop>2.375</hdop><vdop>2.375</vdop><extensions><gom:speed>0.469</gom:speed></extensions></trkpt>
   <trkpt lat="59.0711548107" lon="29.9687247932"><ele>94.903</ele><time>2026-04-25T11:16:31.000Z</time><hdop>3.0</hdop><vdop>3.0</vdop><extensions><gom:speed>0.0</gom:speed></extensions></trkpt>
   <trkpt lat="59.0711552298" lon="29.9687187583"><ele>95.683</ele><time>2026-04-25T11:16:32.000Z</time><hdop>3.0</hdop><vdop>3.0</vdop><extensions><gom:speed>0.172</gom:speed></extensions></trkpt>
   <trkpt lat="59.0711540982" lon="29.9687171657"><ele>96.231</ele><time>2026-04-25T11:16:33.000Z</time><hdop>3.0</hdop><vdop>3.0</vdop><extensions><gom:speed>0.119</gom:speed></extensions></trkpt>
   <trkpt lat="59.0711540982" lon="29.9687171657"><ele>96.558</ele><time>2026-04-25T11:16:33.000Z</time><hdop>3.0</hdop><vdop>3.0</vdop><extensions><gom:speed>0.119</gom:speed></extensions></trkpt>
   <trkpt lat="59.0711540982" lon="29.9687171657"><ele>96.754</ele><time>2026-04-25T11:16:34.000Z</time><hdop>3.0</hdop><vdop>3.0</vdop><extensions><gom:speed>0.0</gom:speed></extensions></trkpt>
   <trkpt lat="59.0711540982" lon="29.9687171657"><ele>96.871</ele><time>2026-04-25T11:16:35.000Z</time><hdop>3.0</hdop><vdop>3.0</vdop><extensions><gom:speed>0.0</gom:speed></extensions></trkpt>
   <trkpt lat="59.0711540982" lon="29.9687171657"><ele>96.94</ele><time>2026-04-25T11:16:36.000Z</time><hdop>3.0</hdop><vdop>3.0</vdop><extensions><gom:speed>0.0</gom:speed></extensions></trkpt>
   <trkpt lat="59.0711540982" lon="29.9687171657"><ele>96.982</ele><time>2026-04-25T11:16:37.000Z</time><hdop>3.0</hdop><vdop>3.0</vdop><extensions><gom:speed>0.0</gom:speed></extensions></trkpt>
   <trkpt lat="59.0711540982" lon="29.9687171657"><ele>97.007</ele><time>2026-04-25T11:16:38.000Z</time><hdop>3.0</hdop><vdop>3.0</vdop><extensions><gom:speed>0.0</gom:speed></extensions></trkpt>
   <trkpt lat="59.0711540982" lon="29.9687171657"><ele>97.022</ele><time>2026-04-25T11:16:39.000Z</time><hdop>3.0</hdop><vdop>3.0</vdop><extensions><gom:speed>0.0</gom:speed></extensions></trkpt>
   <trkpt lat="59.0711540982" lon="29.9687171657"><ele>97.031</ele><time>2026-04-25T11:16:40.000Z</time><hdop>3.0</hdop><vdop>3.0</vdop><extensions><gom:speed>0.0</gom:speed></extensions></trkpt>
   <trkpt lat="59.0711540982" lon="29.9687171657"><ele>97.036</ele><time>2026-04-25T11:16:41.000Z</time><hdop>3.0</hdop><vdop>3.0</vdop><extensions><gom:speed>0.0</gom:speed></extensions></trkpt>
   <trkpt lat="59.0711540982" lon="29.9687171657"><ele>97.039</ele><time>2026-04-25T11:16:42.000Z</time><hdop>3.0</hdop><vdop>3.0</vdop><extensions><gom:speed>0.0</gom:speed></extensions></trkpt>
   <trkpt lat="59.0711540982" lon="29.9687171657"><ele>97.041</ele><time>2026-04-25T11:16:43.000Z</time><hdop>3.0</hdop><vdop>3.0</vdop><extensions><gom:speed>0.0</gom:speed></extensions></trkpt>
   <trkpt lat="59.0711540982" lon="29.9687171657"><ele>97.042</ele><time>2026-04-25T11:16:44.000Z</time><hdop>3.0</hdop><vdop>3.0</vdop><extensions><gom:speed>0.0</gom:speed></extensions></trkpt>
   <trkpt lat="59.0711540982" lon="29.9687171657"><ele>97.043</ele><time>2026-04-25T11:16:45.000Z</time><hdop>3.0</hdop><vdop>3.0</vdop><extensions><gom:speed>0.0</gom:speed></extensions></trkpt>
   <trkpt lat="59.0711540982" lon="29.9687171657"><ele>97.043</ele><time>2026-04-25T11:16:46.000Z</time><hdop>3.0</hdop><vdop>3.0</vdop><extensions><gom:speed>0.0</gom:speed></extensions></trkpt>
   <trkpt lat="59.0711540982" lon="29.9687171657"><ele>97.044</ele><time>2026-04-25T11:16:47.000Z</time><hdop>3.0</hdop><vdop>3.0</vdop><extensions><gom:speed>0.0</gom:speed></extensions></trkpt>
   <trkpt lat="59.0711540982" lon="29.9687171657"><ele>97.044</ele><time>2026-04-25T11:16:48.000Z</time><hdop>3.0</hdop><vdop>3.0</vdop><extensions><gom:speed>0.0</gom:speed></extensions></trkpt>
   <trkpt lat="59.0711540982" lon="29.9687171657"><ele>97.044</ele><time>2026-04-25T11:16:49.000Z</time><hdop>3.0</hdop><vdop>3.0</vdop><extensions><gom:speed>0.0</gom:speed></extensions></trkpt>
   <trkpt lat="59.0711540982" lon="29.9687171657"><ele>97.044</ele><time>2026-04-25T11:16:50.000Z</time><hdop>3.0</hdop><vdop>3.0</vdop><extensions><gom:speed>0.0</gom:speed></extensions></trkpt>
   <trkpt lat="59.0711540982" lon="29.9687171657"><ele>97.044</ele><time>2026-04-25T11:16:51.000Z</time><hdop>3.0</hdop><vdop>3.0</vdop><extensions><gom:speed>0.0</gom:speed></extensions></trkpt>
   <trkpt lat="59.0711540982" lon="29.9687171657"><ele>97.044</ele><time>2026-04-25T11:16:52.000Z</time><hdop>3.0</hdop><vdop>3.0</vdop><extensions><gom:speed>0.0</gom:speed></extensions></trkpt>
   <trkpt lat="59.0711540982" lon="29.9687171657"><ele>97.044</ele><time>2026-04-25T11:16:53.000Z</time><hdop>3.0</hdop><vdop>3.0</vdop><extensions><gom:speed>0.0</gom:speed></extensions></trkpt>
   <trkpt lat="59.0711540982" lon="29.9687171657"><ele>97.044</ele><time>2026-04-25T11:16:53.000Z</time><hdop>3.0</hdop><vdop>3.0</vdop><extensions><gom:speed>0.0</gom:speed></extensions></trkpt>
   <trkpt lat="59.0711540982" lon="29.9687171657"><ele>97.044</ele><time>2026-04-25T11:16:54.000Z</time><hdop>3.0</hdop><vdop>3.0</vdop><extensions><gom:speed>0.0</gom:speed></extensions></trkpt>
   <trkpt lat="59.0711540982" lon="29.9687171657"><ele>97.044</ele><time>2026-04-25T11:16:55.000Z</time><hdop>3.0</hdop><vdop>3.0</vdop><extensions><gom:speed>0.0</gom:speed></extensions></trkpt>
   <trkpt lat="59.0711540982" lon="29.9687171657"><ele>97.044</ele><time>2026-04-25T11:16:56.000Z</time><hdop>3.0</hdop><vdop>3.0</vdop><extensions><gom:speed>0.0</gom:speed></extensions></trkpt>
   <trkpt lat="59.0711540982" lon="29.9687171657"><ele>97.044</ele><time>2026-04-25T11:16:57.000Z</time><hdop>3.0</hdop><vdop>3.0</vdop><extensions><gom:speed>0.0</gom:speed></extensions></trkpt>
   <trkpt lat="59.0711605523" lon="29.9687206861"><ele>97.107</ele><time>2026-04-25T11:16:58.000Z</time><hdop>3.0</hdop><vdop>3.0</vdop><extensions><gom:speed>0.347</gom:speed></extensions></trkpt>
   <trkpt lat="59.0711641146" lon="29.968728146"><ele>97.213</ele><time>2026-04-25T11:16:59.000Z</time><hdop>3.0</hdop><vdop>3.0</vdop><extensions><gom:speed>0.48</gom:speed></extensions></trkpt>
   <trkpt lat="59.071168557" lon="29.9687361926"><ele>97.505</ele><time>2026-04-25T11:17:00.000Z</time><hdop>3.0</hdop><vdop>3.0</vdop><extensions><gom:speed>0.547</gom:speed></extensions></trkpt>
   <trkpt lat="59.0711683056" lon="29.9687467538"><ele>97.702</ele><time>2026-04-25T11:17:01.000Z</time><hdop>3.0</hdop><vdop>3.0</vdop><extensions><gom:speed>0.337</gom:speed></extensions></trkpt>
   <trkpt lat="59.071170401" lon="29.9687561415"><ele>97.932</ele><time>2026-04-25T11:17:02.000Z</time><hdop>3.5</hdop><vdop>3.5</vdop><extensions><gom:speed>0.429</gom:speed></extensions></trkpt>
   <trkpt lat="59.0711726641" lon="29.9687629309"><ele>98.159</ele><time>2026-04-25T11:17:03.000Z</time><hdop>4.25</hdop><vdop>4.25</vdop><extensions><gom:speed>0.269</gom:speed></extensions></trkpt>
   <trkpt lat="59.0711751787" lon="29.9687668704"><ele>98.344</ele><time>2026-04-25T11:17:04.000Z</time><hdop>4.625</hdop><vdop>4.625</vdop><extensions><gom:speed>0.142</gom:speed></extensions></trkpt>
   <trkpt lat="59.0711751787" lon="29.9687668704"><ele>98.455</ele><time>2026-04-25T11:17:05.000Z</time><hdop>4.625</hdop><vdop>4.625</vdop><extensions><gom:speed>0.0</gom:speed></extensions></trkpt>
   <trkpt lat="59.0711751787" lon="29.9687668704"><ele>98.521</ele><time>2026-04-25T11:17:06.000Z</time><hdop>4.625</hdop><vdop>4.625</vdop><extensions><gom:speed>0.0</gom:speed></extensions></trkpt>
   <trkpt lat="59.0711751787" lon="29.9687668704"><ele>98.56</ele><time>2026-04-25T11:17:07.000Z</time><hdop>4.625</hdop><vdop>4.625</vdop><extensions><gom:speed>0.0</gom:speed></extensions></trkpt>
   <trkpt lat="59.0711751787" lon="29.9687668704"><ele>98.584</ele><time>2026-04-25T11:17:08.000Z</time><hdop>4.625</hdop><vdop>4.625</vdop><extensions><gom:speed>0.0</gom:speed></extensions></trkpt>
   <trkpt lat="59.0711751787" lon="29.9687668704"><ele>98.598</ele><time>2026-04-25T11:17:09.000Z</time><hdop>4.625</hdop><vdop>4.625</vdop><extensions><gom:speed>0.0</gom:speed></extensions></trkpt>
   <trkpt lat="59.0711751787" lon="29.9687668704"><ele>98.606</ele><time>2026-04-25T11:17:10.000Z</time><hdop>4.625</hdop><vdop>4.625</vdop><extensions><gom:speed>0.0</gom:speed></extensions></trkpt>
   <trkpt lat="59.0711751787" lon="29.9687668704"><ele>98.611</ele><time>2026-04-25T11:17:11.000Z</time><hdop>4.625</hdop><vdop>4.625</vdop><extensions><gom:speed>0.0</gom:speed></extensions></trkpt>
   <trkpt lat="59.0711751787" lon="29.9687668704"><ele>98.614</ele><time>2026-04-25T11:17:12.000Z</time><hdop>4.625</hdop><vdop>4.625</vdop><extensions><gom:speed>0.0</gom:speed></extensions></trkpt>
   <trkpt lat="59.0711751787" lon="29.9687668704"><ele>98.616</ele><time>2026-04-25T11:17:13.000Z</time><hdop>4.625</hdop><vdop>4.625</vdop><extensions><gom:speed>0.0</gom:speed></extensions></trkpt>
   <trkpt lat="59.0711751787" lon="29.9687668704"><ele>98.617</ele><time>2026-04-25T11:17:13.000Z</time><hdop>4.625</hdop><vdop>4.625</vdop><extensions><gom:speed>0.0</gom:speed></extensions></trkpt>
   <trkpt lat="59.0711751787" lon="29.9687668704"><ele>98.618</ele><time>2026-04-25T11:17:14.000Z</time><hdop>4.625</hdop><vdop>4.625</vdop><extensions><gom:speed>0.0</gom:speed></extensions></trkpt>
   <trkpt lat="59.0711751787" lon="29.9687668704"><ele>98.618</ele><time>2026-04-25T11:17:15.000Z</time><hdop>4.625</hdop><vdop>4.625</vdop><extensions><gom:speed>0.0</gom:speed></extensions></trkpt>
   <trkpt lat="59.0711751787" lon="29.9687668704"><ele>98.619</ele><time>2026-04-25T11:17:16.000Z</time><hdop>4.625</hdop><vdop>4.625</vdop><extensions><gom:speed>0.0</gom:speed></extensions></trkpt>
   <trkpt lat="59.0711751787" lon="29.9687668704"><ele>98.619</ele><time>2026-04-25T11:17:17.000Z</time><hdop>4.625</hdop><vdop>4.625</vdop><extensions><gom:speed>0.0</gom:speed></extensions></trkpt>
   <trkpt lat="59.0711751787" lon="29.9687668704"><ele>98.619</ele><time>2026-04-25T11:17:18.000Z</time><hdop>4.625</hdop><vdop>4.625</vdop><extensions><gom:speed>0.0</gom:speed></extensions></trkpt>
   <trkpt lat="59.0711751787" lon="29.9687668704"><ele>98.619</ele><time>2026-04-25T11:17:19.000Z</time><hdop>4.625</hdop><vdop>4.625</vdop><extensions><gom:speed>0.0</gom:speed></extensions></trkpt>
   <trkpt lat="59.0711751787" lon="29.9687668704"><ele>98.619</ele><time>2026-04-25T11:17:20.000Z</time><hdop>4.625</hdop><vdop>4.625</vdop><extensions><gom:speed>0.0</gom:speed></extensions></trkpt>
   <trkpt lat="59.0711751787" lon="29.9687668704"><ele>98.619</ele><time>2026-04-25T11:17:21.000Z</time><hdop>4.625</hdop><vdop>4.625</vdop><extensions><gom:speed>0.0</gom:speed></extensions></trkpt>
   <trkpt lat="59.0711751787" lon="29.9687668704"><ele>98.619</ele><time>2026-04-25T11:17:22.000Z</time><hdop>4.625</hdop><vdop>4.625</vdop><extensions><gom:speed>0.0</gom:speed></extensions></trkpt>
   <trkpt lat="59.0711751787" lon="29.9687668704"><ele>98.619</ele><time>2026-04-25T11:17:23.000Z</time><hdop>4.625</hdop><vdop>4.625</vdop><extensions><gom:speed>0.0</gom:speed></extensions></trkpt>
   <trkpt lat="59.0711751787" lon="29.9687668704"><ele>98.619</ele><time>2026-04-25T11:17:24.000Z</time><hdop>4.625</hdop><vdop>4.625</vdop><extensions><gom:speed>0.0</gom:speed></extensions></trkpt>
   <trkpt lat="59.0711751787" lon="29.9687668704"><ele>98.619</ele><time>2026-04-25T11:17:25.000Z</time><hdop>4.625</hdop><vdop>4.625</vdop><extensions><gom:speed>0.0</gom:speed></extensions></trkpt>
   <trkpt lat="59.0711751787" lon="29.9687668704"><ele>98.619</ele><time>2026-04-25T11:17:26.000Z</time><hdop>4.625</hdop><vdop>4.625</vdop><extensions><gom:speed>0.0</gom:speed></extensions></trkpt>
   <trkpt lat="59.0711751787" lon="29.9687668704"><ele>98.619</ele><time>2026-04-25T11:17:27.000Z</time><hdop>4.625</hdop><vdop>4.625</vdop><extensions><gom:speed>0.0</gom:speed></extensions></trkpt>
   <trkpt lat="59.0711751787" lon="29.9687668704"><ele>98.619</ele><time>2026-04-25T11:17:28.000Z</time><hdop>4.625</hdop><vdop>4.625</vdop><extensions><gom:speed>0.0</gom:speed></extensions></trkpt>
   <trkpt lat="59.0711751787" lon="29.9687668704"><ele>98.619</ele><time>2026-04-25T11:17:29.000Z</time><hdop>4.625</hdop><vdop>4.625</vdop><extensions><gom:speed>0.0</gom:speed></extensions></trkpt>
   <trkpt lat="59.0711751787" lon="29.9687668704"><ele>98.619</ele><time>2026-04-25T11:17:30.000Z</time><hdop>4.625</hdop><vdop>4.625</vdop><extensions><gom:speed>0.0</gom:speed></extensions></trkpt>
   <trkpt lat="59.0711751787" lon="29.9687668704"><ele>98.619</ele><time>2026-04-25T11:17:31.000Z</time><hdop>4.625</hdop><vdop>4.625</vdop><extensions><gom:speed>0.0</gom:speed></extensions></trkpt>
   <trkpt lat="59.0711751787" lon="29.9687668704"><ele>98.619</ele><time>2026-04-25T11:17:32.000Z</time><hdop>4.625</hdop><vdop>4.625</vdop><extensions><gom:speed>0.0</gom:speed></extensions></trkpt>
   <trkpt lat="59.0711751787" lon="29.9687668704"><ele>98.619</ele><time>2026-04-25T11:17:33.000Z</time><hdop>4.625</hdop><vdop>4.625</vdop><extensions><gom:speed>0.0</gom:speed></extensions></trkpt>
   <trkpt lat="59.0711751787" lon="29.9687668704"><ele>98.619</ele><time>2026-04-25T11:17:34.000Z</time><hdop>4.625</hdop><vdop>4.625</vdop><extensions><gom:speed>0.0</gom:speed></extensions></trkpt>
   <trkpt lat="59.0711751787" lon="29.9687668704"><ele>98.619</ele><time>2026-04-25T11:17:35.000Z</time><hdop>4.625</hdop><vdop>4.625</vdop><extensions><gom:speed>0.0</gom:speed></extensions></trkpt>
   <trkpt lat="59.0711751787" lon="29.9687668704"><ele>98.619</ele><time>2026-04-25T11:17:35.000Z</time><hdop>4.625</hdop><vdop>4.625</vdop><extensions><gom:speed>0.0</gom:speed></extensions></trkpt>
   <trkpt lat="59.0711751787" lon="29.9687668704"><ele>98.619</ele><time>2026-04-25T11:17:36.000Z</time><hdop>4.625</hdop><vdop>4.625</vdop><extensions><gom:speed>0.0</gom:speed></extensions></trkpt>
   <trkpt lat="59.0711751787" lon="29.9687668704"><ele>98.619</ele><time>2026-04-25T11:17:37.000Z</time><hdop>4.625</hdop><vdop>4.625</vdop><extensions><gom:speed>0.0</gom:speed></extensions></trkpt>
   <trkpt lat="59.0711751787" lon="29.9687668704"><ele>98.619</ele><time>2026-04-25T11:17:38.000Z</time><hdop>4.625</hdop><vdop>4.625</vdop><extensions><gom:speed>0.0</gom:speed></extensions></trkpt>
   <trkpt lat="59.0711751787" lon="29.9687668704"><ele>98.619</ele><time>2026-04-25T11:17:39.000Z</time><hdop>4.625</hdop><vdop>4.625</vdop><extensions><gom:speed>0.0</gom:speed></extensions></trkpt>
   <trkpt lat="59.0711751787" lon="29.9687668704"><ele>98.619</ele><time>2026-04-25T11:17:40.000Z</time><hdop>4.625</hdop><vdop>4.625</vdop><extensions><gom:speed>0.0</gom:speed></extensions></trkpt>
   <trkpt lat="59.0711751787" lon="29.9687668704"><ele>98.619</ele><time>2026-04-25T11:17:41.000Z</time><hdop>4.625</hdop><vdop>4.625</vdop><extensions><gom:speed>0.0</gom:speed></extensions></trkpt>
   <trkpt lat="59.0711751787" lon="29.9687668704"><ele>98.619</ele><time>2026-04-25T11:17:42.000Z</time><hdop>4.625</hdop><vdop>4.625</vdop><extensions><gom:speed>0.0</gom:speed></extensions></trkpt>
   <trkpt lat="59.0711751787" lon="29.9687668704"><ele>98.619</ele><time>2026-04-25T11:17:43.000Z</time><hdop>4.625</hdop><vdop>4.625</vdop><extensions><gom:speed>0.0</gom:speed></extensions></trkpt>
   <trkpt lat="59.0711751787" lon="29.9687668704"><ele>98.619</ele><time>2026-04-25T11:17:44.000Z</time><hdop>4.625</hdop><vdop>4.625</vdop><extensions><gom:speed>0.0</gom:speed></extensions></trkpt>
   <trkpt lat="59.0711751787" lon="29.9687668704"><ele>98.619</ele><time>2026-04-25T11:17:45.000Z</time><hdop>4.625</hdop><vdop>4.625</vdop><extensions><gom:speed>0.0</gom:speed></extensions></trkpt>
   <trkpt lat="59.0711751787" lon="29.9687668704"><ele>98.619</ele><time>2026-04-25T11:17:46.000Z</time><hdop>4.625</hdop><vdop>4.625</vdop><extensions><gom:speed>0.0</gom:speed></extensions></trkpt>
   <trkpt lat="59.0711751787" lon="29.9687668704"><ele>98.619</ele><time>2026-04-25T11:17:47.000Z</time><hdop>4.625</hdop><vdop>4.625</vdop><extensions><gom:speed>0.0</gom:speed></extensions></trkpt>
   <trkpt lat="59.0711751787" lon="29.9687668704"><ele>98.619</ele><time>2026-04-25T11:17:48.000Z</time><hdop>4.625</hdop><vdop>4.625</vdop><extensions><gom:speed>0.0</gom:speed></extensions></trkpt>
   <trkpt lat="59.0711751787" lon="29.9687668704"><ele>98.619</ele><time>2026-04-25T11:17:49.000Z</time><hdop>4.625</hdop><vdop>4.625</vdop><extensions><gom:speed>0.0</gom:speed></extensions></trkpt>
   <trkpt lat="59.0711751787" lon="29.9687668704"><ele>98.619</ele><time>2026-04-25T11:17:50.000Z</time><hdop>4.625</hdop><vdop>4.625</vdop><extensions><gom:speed>0.0</gom:speed></extensions></trkpt>
   <trkpt lat="59.0711751787" lon="29.9687668704"><ele>98.619</ele><time>2026-04-25T11:17:51.000Z</time><hdop>4.625</hdop><vdop>4.625</vdop><extensions><gom:speed>0.0</gom:speed></extensions></trkpt>
   <trkpt lat="59.0711751787" lon="29.9687668704"><ele>98.619</ele><time>2026-04-25T11:17:52.000Z</time><hdop>4.625</hdop><vdop>4.625</vdop><extensions><gom:speed>0.0</gom:speed></extensions></trkpt>
   <trkpt lat="59.0711751787" lon="29.9687668704"><ele>98.619</ele><time>2026-04-25T11:17:53.000Z</time><hdop>4.625</hdop><vdop>4.625</vdop><extensions><gom:speed>0.0</gom:speed></extensions></trkpt>
   <trkpt lat="59.0711751787" lon="29.9687668704"><ele>98.619</ele><time>2026-04-25T11:17:53.000Z</time><hdop>4.625</hdop><vdop>4.625</vdop><extensions><gom:speed>0.0</gom:speed></extensions></trkpt>
   <trkpt lat="59.0711751787" lon="29.9687668704"><ele>98.619</ele><time>2026-04-25T11:17:54.000Z</time><hdop>4.625</hdop><vdop>4.625</vdop><extensions><gom:speed>0.0</gom:speed></extensions></trkpt>
   <trkpt lat="59.0711751787" lon="29.9687668704"><ele>98.619</ele><time>2026-04-25T11:17:55.000Z</time><hdop>4.625</hdop><vdop>4.625</vdop><extensions><gom:speed>0.0</gom:speed></extensions></trkpt>
   <trkpt lat="59.0711751787" lon="29.9687668704"><ele>98.619</ele><time>2026-04-25T11:17:56.000Z</time><hdop>4.625</hdop><vdop>4.625</vdop><extensions><gom:speed>0.0</gom:speed></extensions></trkpt>
   <trkpt lat="59.0711751787" lon="29.9687668704"><ele>98.619</ele><time>2026-04-25T11:17:57.000Z</time><hdop>4.625</hdop><vdop>4.625</vdop><extensions><gom:speed>0.0</gom:speed></extensions></trkpt>
   <trkpt lat="59.0711751787" lon="29.9687668704"><ele>98.619</ele><time>2026-04-25T11:17:58.000Z</time><hdop>4.625</hdop><vdop>4.625</vdop><extensions><gom:speed>0.0</gom:speed></extensions></trkpt>
   <trkpt lat="59.0711751787" lon="29.9687668704"><ele>98.619</ele><time>2026-04-25T11:17:59.000Z</time><hdop>4.625</hdop><vdop>4.625</vdop><extensions><gom:speed>0.0</gom:speed></extensions></trkpt>
   <trkpt lat="59.0711751787" lon="29.9687668704"><ele>98.619</ele><time>2026-04-25T11:18:00.000Z</time><hdop>4.625</hdop><vdop>4.625</vdop><extensions><gom:speed>0.0</gom:speed></extensions></trkpt>
   <trkpt lat="59.0711751787" lon="29.9687668704"><ele>98.619</ele><time>2026-04-25T11:18:01.000Z</time><hdop>4.625</hdop><vdop>4.625</vdop><extensions><gom:speed>0.0</gom:speed></extensions></trkpt>
   <trkpt lat="59.0711751787" lon="29.9687668704"><ele>98.619</ele><time>2026-04-25T11:18:02.000Z</time><hdop>4.625</hdop><vdop>4.625</vdop><extensions><gom:speed>0.0</gom:speed></extensions></trkpt>
   <trkpt lat="59.0711773161" lon="29.9687729054"><ele>98.517</ele><time>2026-04-25T11:18:03.000Z</time><hdop>4.375</hdop><vdop>4.375</vdop><extensions><gom:speed>0.482</gom:speed></extensions></trkpt>
   <trkpt lat="59.0711773161" lon="29.9687729054"><ele>98.456</ele><time>2026-04-25T11:18:04.000Z</time><hdop>4.375</hdop><vdop>4.375</vdop><extensions><gom:speed>0.0</gom:speed></extensions></trkpt>
   <trkpt lat="59.0711835187" lon="29.9687836342"><ele>98.484</ele><time>2026-04-25T11:18:05.000Z</time><hdop>4.062</hdop><vdop>4.062</vdop><extensions><gom:speed>0.342</gom:speed></extensions></trkpt>
   <trkpt lat="59.0711835187" lon="29.9687836342"><ele>98.501</ele><time>2026-04-25T11:18:06.000Z</time><hdop>4.062</hdop><vdop>4.062</vdop><extensions><gom:speed>0.0</gom:speed></extensions></trkpt>
   <trkpt lat="59.0711835187" lon="29.9687836342"><ele>98.512</ele><time>2026-04-25T11:18:07.000Z</time><hdop>4.062</hdop><vdop>4.062</vdop><extensions><gom:speed>0.0</gom:speed></extensions></trkpt>
   <trkpt lat="59.0711853208" lon="29.96879671"><ele>98.35</ele><time>2026-04-25T11:18:08.000Z</time><hdop>4.187</hdop><vdop>4.187</vdop><extensions><gom:speed>0.552</gom:speed></extensions></trkpt>
   <trkpt lat="59.0711853208" lon="29.96879671"><ele>98.253</ele><time>2026-04-25T11:18:09.000Z</time><hdop>4.187</hdop><vdop>4.187</vdop><extensions><gom:speed>0.0</gom:speed></extensions></trkpt>
   <trkpt lat="59.0711880449" lon="29.9688076064"><ele>98.113</ele><time>2026-04-25T11:18:10.000Z</time><hdop>3.812</hdop><vdop>3.812</vdop><extensions><gom:speed>0.57</gom:speed></extensions></trkpt>
   <trkpt lat="59.0711880449" lon="29.9688076064"><ele>98.029</ele><time>2026-04-25T11:18:11.000Z</time><hdop>3.812</hdop><vdop>3.812</vdop><extensions><gom:speed>0.0</gom:speed></extensions></trkpt>
   <trkpt lat="59.0711915653" lon="29.9688129709"><ele>97.961</ele><time>2026-04-25T11:18:12.000Z</time><hdop>4.687</hdop><vdop>4.687</vdop><extensions><gom:speed>0.394</gom:speed></extensions></trkpt>
   <trkpt lat="59.0712043058" lon="29.9688203469"><ele>98.145</ele><time>2026-04-25T11:18:13.000Z</time><hdop>4.062</hdop><vdop>4.062</vdop><extensions><gom:speed>0.477</gom:speed></extensions></trkpt>
   <trkpt lat="59.0712043058" lon="29.9688203469"><ele>98.254</ele><time>2026-04-25T11:18:13.000Z</time><hdop>4.062</hdop><vdop>4.062</vdop><extensions><gom:speed>0.477</gom:speed></extensions></trkpt>
   <trkpt lat="59.0712087901" lon="29.968824957"><ele>98.405</ele><time>2026-04-25T11:18:14.000Z</time><hdop>4.312</hdop><vdop>4.312</vdop><extensions><gom:speed>0.386</gom:speed></extensions></trkpt>
   <trkpt lat="59.071213023" lon="29.9688283097"><ele>98.518</ele><time>2026-04-25T11:18:15.000Z</time><hdop>4.187</hdop><vdop>4.187</vdop><extensions><gom:speed>0.393</gom:speed></extensions></trkpt>
   <trkpt lat="59.0712196866" lon="29.9688325845"><ele>98.602</ele><time>2026-04-25T11:18:16.000Z</time><hdop>4.312</hdop><vdop>4.312</vdop><extensions><gom:speed>0.539</gom:speed></extensions></trkpt>
   <trkpt lat="59.0712261407" lon="29.9688373622"><ele>98.642</ele><time>2026-04-25T11:18:17.000Z</time><hdop>4.125</hdop><vdop>4.125</vdop><extensions><gom:speed>0.521</gom:speed></extensions></trkpt>
   <trkpt lat="59.0712322595" lon="29.96883929"><ele>98.688</ele><time>2026-04-25T11:18:18.000Z</time><hdop>4.25</hdop><vdop>4.25</vdop><extensions><gom:speed>0.307</gom:speed></extensions></trkpt>
   <trkpt lat="59.0712372048" lon="29.9688404635"><ele>98.763</ele><time>2026-04-25T11:18:19.000Z</time><hdop>4.375</hdop><vdop>4.375</vdop><extensions><gom:speed>0.311</gom:speed></extensions></trkpt>
   <trkpt lat="59.07124127" lon="29.968841134"><ele>98.874</ele><time>2026-04-25T11:18:20.000Z</time><hdop>4.625</hdop><vdop>4.625</vdop><extensions><gom:speed>0.224</gom:speed></extensions></trkpt>
   <trkpt lat="59.0712451257" lon="29.9688402959"><ele>99.006</ele><time>2026-04-25T11:18:21.000Z</time><hdop>4.875</hdop><vdop>4.875</vdop><extensions><gom:speed>0.217</gom:speed></extensions></trkpt>
   <trkpt lat="59.0712451257" lon="29.9688402959"><ele>99.085</ele><time>2026-04-25T11:18:22.000Z</time><hdop>4.875</hdop><vdop>4.875</vdop><extensions><gom:speed>0.0</gom:speed></extensions></trkpt>
   <trkpt lat="59.0712451257" lon="29.9688402959"><ele>99.132</ele><time>2026-04-25T11:18:23.000Z</time><hdop>4.875</hdop><vdop>4.875</vdop><extensions><gom:speed>0.0</gom:speed></extensions></trkpt>
   <trkpt lat="59.0712451257" lon="29.9688402959"><ele>99.16</ele><time>2026-04-25T11:18:24.000Z</time><hdop>4.875</hdop><vdop>4.875</vdop><extensions><gom:speed>0.0</gom:speed></extensions></trkpt>
   <trkpt lat="59.0712451257" lon="29.9688402959"><ele>99.177</ele><time>2026-04-25T11:18:25.000Z</time><hdop>4.875</hdop><vdop>4.875</vdop><extensions><gom:speed>0.0</gom:speed></extensions></trkpt>
   <trkpt lat="59.0712451257" lon="29.9688402959"><ele>99.187</ele><time>2026-04-25T11:18:26.000Z</time><hdop>4.875</hdop><vdop>4.875</vdop><extensions><gom:speed>0.0</gom:speed></extensions></trkpt>
   <trkpt lat="59.0712451257" lon="29.9688402959"><ele>99.193</ele><time>2026-04-25T11:18:27.000Z</time><hdop>4.875</hdop><vdop>4.875</vdop><extensions><gom:speed>0.0</gom:speed></extensions></trkpt>
   <trkpt lat="59.0712489814" lon="29.9688354344"><ele>99.279</ele><time>2026-04-25T11:18:28.000Z</time><hdop>4.687</hdop><vdop>4.687</vdop><extensions><gom:speed>0.461</gom:speed></extensions></trkpt>
   <trkpt lat="59.0712489814" lon="29.9688354344"><ele>99.33</ele><time>2026-04-25T11:18:29.000Z</time><hdop>4.875</hdop><vdop>4.875</vdop><extensions><gom:speed>0.0</gom:speed></extensions></trkpt>
   <trkpt lat="59.0712489814" lon="29.9688354344"><ele>99.361</ele><time>2026-04-25T11:18:30.000Z</time><hdop>4.875</hdop><vdop>4.875</vdop><extensions><gom:speed>0.0</gom:speed></extensions></trkpt>
   <trkpt lat="59.0712489814" lon="29.9688354344"><ele>99.379</ele><time>2026-04-25T11:18:31.000Z</time><hdop>4.875</hdop><vdop>4.875</vdop><extensions><gom:speed>0.0</gom:speed></extensions></trkpt>
   <trkpt lat="59.0712489814" lon="29.9688354344"><ele>99.39</ele><time>2026-04-25T11:18:32.000Z</time><hdop>4.875</hdop><vdop>4.875</vdop><extensions><gom:speed>0.0</gom:speed></extensions></trkpt>
   <trkpt lat="59.0712489814" lon="29.9688354344"><ele>99.397</ele><time>2026-04-25T11:18:33.000Z</time><hdop>4.875</hdop><vdop>4.875</vdop><extensions><gom:speed>0.0</gom:speed></extensions></trkpt>
   <trkpt lat="59.0712489814" lon="29.9688354344"><ele>99.401</ele><time>2026-04-25T11:18:33.000Z</time><hdop>4.875</hdop><vdop>4.875</vdop><extensions><gom:speed>0.0</gom:speed></extensions></trkpt>
   <trkpt lat="59.0712489814" lon="29.9688354344"><ele>99.403</ele><time>2026-04-25T11:18:34.000Z</time><hdop>4.875</hdop><vdop>4.875</vdop><extensions><gom:speed>0.0</gom:speed></extensions></trkpt>
   <trkpt lat="59.0712548487" lon="29.9688372784"><ele>99.465</ele><time>2026-04-25T11:18:35.000Z</time><hdop>4.937</hdop><vdop>4.937</vdop><extensions><gom:speed>0.241</gom:speed></extensions></trkpt>
   <trkpt lat="59.0712632306" lon="29.9688422237"><ele>99.482</ele><time>2026-04-25T11:18:36.000Z</time><hdop>4.687</hdop><vdop>4.687</vdop><extensions><gom:speed>0.388</gom:speed></extensions></trkpt>
   <trkpt lat="59.0712702295" lon="29.9688502703"><ele>99.435</ele><time>2026-04-25T11:18:37.000Z</time><hdop>4.625</hdop><vdop>4.625</vdop><extensions><gom:speed>0.456</gom:speed></extensions></trkpt>
   <trkpt lat="59.071278779" lon="29.9688555509"><ele>99.244</ele><time>2026-04-25T11:18:38.000Z</time><hdop>4.437</hdop><vdop>4.437</vdop><extensions><gom:speed>0.524</gom:speed></extensions></trkpt>
   <trkpt lat="59.071290388" lon="29.9688604962"><ele>99.115</ele><time>2026-04-25T11:18:39.000Z</time><hdop>4.187</hdop><vdop>4.187</vdop><extensions><gom:speed>0.572</gom:speed></extensions></trkpt>
   <trkpt lat="59.0713019969" lon="29.9688636814"><ele>98.979</ele><time>2026-04-25T11:18:40.000Z</time><hdop>4.0</hdop><vdop>4.0</vdop><extensions><gom:speed>0.643</gom:speed></extensions></trkpt>
   <trkpt lat="59.0713119714" lon="29.9688624241"><ele>98.935</ele><time>2026-04-25T11:18:41.000Z</time><hdop>3.875</hdop><vdop>3.875</vdop><extensions><gom:speed>0.432</gom:speed></extensions></trkpt>
   <trkpt lat="59.0713216106" lon="29.9688616697"><ele>98.902</ele><time>2026-04-25T11:18:42.000Z</time><hdop>3.75</hdop><vdop>3.75</vdop><extensions><gom:speed>0.567</gom:speed></extensions></trkpt>
   <trkpt lat="59.0713315012" lon="29.9688630108"><ele>98.875</ele><time>2026-04-25T11:18:43.000Z</time><hdop>4.687</hdop><vdop>4.687</vdop><extensions><gom:speed>0.499</gom:speed></extensions></trkpt>
   <trkpt lat="59.0713402603" lon="29.9688683752"><ele>98.737</ele><time>2026-04-25T11:18:44.000Z</time><hdop>4.75</hdop><vdop>4.75</vdop><extensions><gom:speed>0.537</gom:speed></extensions></trkpt>
   <trkpt lat="59.0713517854" lon="29.9688790202"><ele>98.556</ele><time>2026-04-25T11:18:45.000Z</time><hdop>4.25</hdop><vdop>4.25</vdop><extensions><gom:speed>0.394</gom:speed></extensions></trkpt>
   <trkpt lat="59.0713580718" lon="29.9688872345"><ele>98.454</ele><time>2026-04-25T11:18:46.000Z</time><hdop>4.937</hdop><vdop>4.937</vdop><extensions><gom:speed>0.461</gom:speed></extensions></trkpt>
   <trkpt lat="59.0713719439" lon="29.9688994721"><ele>98.512</ele><time>2026-04-25T11:18:47.000Z</time><hdop>4.625</hdop><vdop>4.625</vdop><extensions><gom:speed>0.596</gom:speed></extensions></trkpt>
   <trkpt lat="59.0713795714" lon="29.9689097818"><ele>98.544</ele><time>2026-04-25T11:18:48.000Z</time><hdop>4.687</hdop><vdop>4.687</vdop><extensions><gom:speed>0.702</gom:speed></extensions></trkpt>
   <trkpt lat="59.0713870313" lon="29.9689200078"><ele>98.6</ele><time>2026-04-25T11:18:49.000Z</time><hdop>4.687</hdop><vdop>4.687</vdop><extensions><gom:speed>0.62</gom:speed></extensions></trkpt>
   <trkpt lat="59.0713933177" lon="29.9689288926"><ele>98.668</ele><time>2026-04-25T11:18:50.000Z</time><hdop>4.687</hdop><vdop>4.687</vdop><extensions><gom:speed>0.454</gom:speed></extensions></trkpt>
   <trkpt lat="59.0713991013" lon="29.9689390347"><ele>98.724</ele><time>2026-04-25T11:18:51.000Z</time><hdop>4.687</hdop><vdop>4.687</vdop><extensions><gom:speed>0.568</gom:speed></extensions></trkpt>
   <trkpt lat="59.0714044657" lon="29.9689522781"><ele>98.784</ele><time>2026-04-25T11:18:52.000Z</time><hdop>4.687</hdop><vdop>4.687</vdop><extensions><gom:speed>0.664</gom:speed></extensions></trkpt>
   <trkpt lat="59.0714027893" lon="29.968966192"><ele>98.723</ele><time>2026-04-25T11:18:53.000Z</time><hdop>4.687</hdop><vdop>4.687</vdop><extensions><gom:speed>0.684</gom:speed></extensions></trkpt>
   <trkpt lat="59.0714027893" lon="29.968966192"><ele>98.686</ele><time>2026-04-25T11:18:53.000Z</time><hdop>4.687</hdop><vdop>4.687</vdop><extensions><gom:speed>0.684</gom:speed></extensions></trkpt>
   <trkpt lat="59.0714024959" lon="29.9689808604"><ele>98.621</ele><time>2026-04-25T11:18:54.000Z</time><hdop>4.687</hdop><vdop>4.687</vdop><extensions><gom:speed>0.491</gom:speed></extensions></trkpt>
   <trkpt lat="59.0714047171" lon="29.9689951934"><ele>98.487</ele><time>2026-04-25T11:18:55.000Z</time><hdop>4.687</hdop><vdop>4.687</vdop><extensions><gom:speed>0.412</gom:speed></extensions></trkpt>
   <trkpt lat="59.0714094948" lon="29.9690066766"><ele>98.382</ele><time>2026-04-25T11:18:56.000Z</time><hdop>4.687</hdop><vdop>4.687</vdop><extensions><gom:speed>0.326</gom:speed></extensions></trkpt>
   <trkpt lat="59.0714176253" lon="29.969016232"><ele>98.402</ele><time>2026-04-25T11:18:57.000Z</time><hdop>4.687</hdop><vdop>4.687</vdop><extensions><gom:speed>0.302</gom:speed></extensions></trkpt>
   <trkpt lat="59.0714230316" lon="29.9690220155"><ele>98.36</ele><time>2026-04-25T11:18:58.000Z</time><hdop>4.687</hdop><vdop>4.687</vdop><extensions><gom:speed>0.345</gom:speed></extensions></trkpt>
   <trkpt lat="59.0714279769" lon="29.9690288887"><ele>98.38</ele><time>2026-04-25T11:18:59.000Z</time><hdop>4.687</hdop><vdop>4.687</vdop><extensions><gom:speed>0.318</gom:speed></extensions></trkpt>
   <trkpt lat="59.0714326708" lon="29.9690363486"><ele>98.384</ele><time>2026-04-25T11:19:00.000Z</time><hdop>4.687</hdop><vdop>4.687</vdop><extensions><gom:speed>0.296</gom:speed></extensions></trkpt>
   <trkpt lat="59.0714398373" lon="29.9690421321"><ele>98.502</ele><time>2026-04-25T11:19:01.000Z</time><hdop>4.875</hdop><vdop>4.875</vdop><extensions><gom:speed>0.225</gom:speed></extensions></trkpt>
   <trkpt lat="59.0714476744" lon="29.9690447305"><ele>98.8</ele><time>2026-04-25T11:19:02.000Z</time><hdop>4.875</hdop><vdop>4.875</vdop><extensions><gom:speed>0.168</gom:speed></extensions></trkpt>
   <trkpt lat="59.0714533741" lon="29.9690513522"><ele>99.086</ele><time>2026-04-25T11:19:03.000Z</time><hdop>4.937</hdop><vdop>4.937</vdop><extensions><gom:speed>0.347</gom:speed></extensions></trkpt>
   <trkpt lat="59.0714564754" lon="29.9690615781"><ele>99.206</ele><time>2026-04-25T11:19:04.000Z</time><hdop>4.687</hdop><vdop>4.687</vdop><extensions><gom:speed>0.548</gom:speed></extensions></trkpt>
   <trkpt lat="59.0714600796" lon="29.9690752406"><ele>99.342</ele><time>2026-04-25T11:19:05.000Z</time><hdop>4.687</hdop><vdop>4.687</vdop><extensions><gom:speed>0.687</gom:speed></extensions></trkpt>
   <trkpt lat="59.0714643544" lon="29.9690894898"><ele>99.489</ele><time>2026-04-25T11:19:06.000Z</time><hdop>4.687</hdop><vdop>4.687</vdop><extensions><gom:speed>0.693</gom:speed></extensions></trkpt>
   <trkpt lat="59.0714693835" lon="29.9691055831"><ele>99.673</ele><time>2026-04-25T11:19:07.000Z</time><hdop>4.687</hdop><vdop>4.687</vdop><extensions><gom:speed>0.766</gom:speed></extensions></trkpt>
   <trkpt lat="59.0714761309" lon="29.9691211734"><ele>99.843</ele><time>2026-04-25T11:19:08.000Z</time><hdop>4.687</hdop><vdop>4.687</vdop><extensions><gom:speed>0.684</gom:speed></extensions></trkpt>
   <trkpt lat="59.0714822078" lon="29.96913668"><ele>100.0</ele><time>2026-04-25T11:19:09.000Z</time><hdop>4.687</hdop><vdop>4.687</vdop><extensions><gom:speed>0.669</gom:speed></extensions></trkpt>
   <trkpt lat="59.0714839261" lon="29.9691512645"><ele>100.051</ele><time>2026-04-25T11:19:10.000Z</time><hdop>4.687</hdop><vdop>4.687</vdop><extensions><gom:speed>0.477</gom:speed></extensions></trkpt>
   <trkpt lat="59.0714871112" lon="29.969164005"><ele>100.13</ele><time>2026-04-25T11:19:11.000Z</time><hdop>4.687</hdop><vdop>4.687</vdop><extensions><gom:speed>0.488</gom:speed></extensions></trkpt>
   <trkpt lat="59.0714938587" lon="29.9691785057"><ele>100.203</ele><time>2026-04-25T11:19:12.000Z</time><hdop>4.687</hdop><vdop>4.687</vdop><extensions><gom:speed>0.439</gom:speed></extensions></trkpt>
   <trkpt lat="59.0715001032" lon="29.9691878934"><ele>100.302</ele><time>2026-04-25T11:19:13.000Z</time><hdop>4.687</hdop><vdop>4.687</vdop><extensions><gom:speed>0.443</gom:speed></extensions></trkpt>
   <trkpt lat="59.0715001032" lon="29.9691878934"><ele>100.361</ele><time>2026-04-25T11:19:13.000Z</time><hdop>4.687</hdop><vdop>4.687</vdop><extensions><gom:speed>0.443</gom:speed></extensions></trkpt>
   <trkpt lat="59.0715106225" lon="29.9692002148"><ele>100.668</ele><time>2026-04-25T11:19:14.000Z</time><hdop>4.687</hdop><vdop>4.687</vdop><extensions><gom:speed>0.523</gom:speed></extensions></trkpt>
   <trkpt lat="59.0715142686" lon="29.9692128715"><ele>100.888</ele><time>2026-04-25T11:19:15.000Z</time><hdop>4.687</hdop><vdop>4.687</vdop><extensions><gom:speed>0.552</gom:speed></extensions></trkpt>
   <trkpt lat="59.0715190882" lon="29.9692288809"><ele>101.098</ele><time>2026-04-25T11:19:16.000Z</time><hdop>4.5</hdop><vdop>4.5</vdop><extensions><gom:speed>0.385</gom:speed></extensions></trkpt>
   <trkpt lat="59.0715234468" lon="29.9692381848"><ele>101.257</ele><time>2026-04-25T11:19:17.000Z</time><hdop>4.687</hdop><vdop>4.687</vdop><extensions><gom:speed>0.523</gom:speed></extensions></trkpt>
   <trkpt lat="59.0715293141" lon="29.9692462314"><ele>101.381</ele><time>2026-04-25T11:19:18.000Z</time><hdop>4.687</hdop><vdop>4.687</vdop><extensions><gom:speed>0.632</gom:speed></extensions></trkpt>
   <trkpt lat="59.0715374027" lon="29.9692516797"><ele>101.516</ele><time>2026-04-25T11:19:19.000Z</time><hdop>4.687</hdop><vdop>4.687</vdop><extensions><gom:speed>0.657</gom:speed></extensions></trkpt>
   <trkpt lat="59.0715448626" lon="29.9692562897"><ele>101.637</ele><time>2026-04-25T11:19:20.000Z</time><hdop>4.687</hdop><vdop>4.687</vdop><extensions><gom:speed>0.613</gom:speed></extensions></trkpt>
   <trkpt lat="59.0715519453" lon="29.969260313"><ele>101.795</ele><time>2026-04-25T11:19:21.000Z</time><hdop>4.875</hdop><vdop>4.875</vdop><extensions><gom:speed>0.398</gom:speed></extensions></trkpt>
   <trkpt lat="59.0715519453" lon="29.969260313"><ele>101.89</ele><time>2026-04-25T11:19:22.000Z</time><hdop>4.875</hdop><vdop>4.875</vdop><extensions><gom:speed>0.0</gom:speed></extensions></trkpt>
   <trkpt lat="59.0715519453" lon="29.969260313"><ele>101.946</ele><time>2026-04-25T11:19:23.000Z</time><hdop>4.875</hdop><vdop>4.875</vdop><extensions><gom:speed>0.0</gom:speed></extensions></trkpt>
   <trkpt lat="59.0715519453" lon="29.969260313"><ele>101.98</ele><time>2026-04-25T11:19:24.000Z</time><hdop>4.875</hdop><vdop>4.875</vdop><extensions><gom:speed>0.0</gom:speed></extensions></trkpt>
   <trkpt lat="59.0715529092" lon="29.9692633305"><ele>102.031</ele><time>2026-04-25T11:19:25.000Z</time><hdop>4.687</hdop><vdop>4.687</vdop><extensions><gom:speed>0.135</gom:speed></extensions></trkpt>
   <trkpt lat="59.0715565134" lon="29.9692685273"><ele>102.1</ele><time>2026-04-25T11:19:26.000Z</time><hdop>4.687</hdop><vdop>4.687</vdop><extensions><gom:speed>0.236</gom:speed></extensions></trkpt>
   <trkpt lat="59.0715617102" lon="29.9692768254"><ele>102.172</ele><time>2026-04-25T11:19:27.000Z</time><hdop>4.687</hdop><vdop>4.687</vdop><extensions><gom:speed>0.413</gom:speed></extensions></trkpt>
   <trkpt lat="59.0715663621" lon="29.9692884762"><ele>102.246</ele><time>2026-04-25T11:19:28.000Z</time><hdop>4.687</hdop><vdop>4.687</vdop><extensions><gom:speed>0.539</gom:speed></extensions></trkpt>
   <trkpt lat="59.0715699244" lon="29.9693002109"><ele>102.289</ele><time>2026-04-25T11:19:29.000Z</time><hdop>4.687</hdop><vdop>4.687</vdop><extensions><gom:speed>0.587</gom:speed></extensions></trkpt>
   <trkpt lat="59.071574283" lon="29.9693139572"><ele>102.351</ele><time>2026-04-25T11:19:30.000Z</time><hdop>4.687</hdop><vdop>4.687</vdop><extensions><gom:speed>0.613</gom:speed></extensions></trkpt>
   <trkpt lat="59.071579857" lon="29.9693280388"><ele>102.436</ele><time>2026-04-25T11:19:31.000Z</time><hdop>4.687</hdop><vdop>4.687</vdop><extensions><gom:speed>0.747</gom:speed></extensions></trkpt>
   <trkpt lat="59.071584467" lon="29.9693386838"><ele>102.442</ele><time>2026-04-25T11:19:32.000Z</time><hdop>4.687</hdop><vdop>4.687</vdop><extensions><gom:speed>0.642</gom:speed></extensions></trkpt>
   <trkpt lat="59.0715897057" lon="29.9693536874"><ele>102.356</ele><time>2026-04-25T11:19:33.000Z</time><hdop>4.687</hdop><vdop>4.687</vdop><extensions><gom:speed>0.747</gom:speed></extensions></trkpt>
   <trkpt lat="59.0715897057" lon="29.9693536874"><ele>102.306</ele><time>2026-04-25T11:19:33.000Z</time><hdop>4.687</hdop><vdop>4.687</vdop><extensions><gom:speed>0.747</gom:speed></extensions></trkpt>
   <trkpt lat="59.0715936871" lon="29.9693664279"><ele>102.276</ele><time>2026-04-25T11:19:34.000Z</time><hdop>4.687</hdop><vdop>4.687</vdop><extensions><gom:speed>0.65</gom:speed></extensions></trkpt>
   <trkpt lat="59.0715991354" lon="29.9693775759"><ele>102.215</ele><time>2026-04-25T11:19:35.000Z</time><hdop>4.687</hdop><vdop>4.687</vdop><extensions><gom:speed>0.672</gom:speed></extensions></trkpt>
   <trkpt lat="59.071603494" lon="29.969387718"><ele>102.175</ele><time>2026-04-25T11:19:36.000Z</time><hdop>4.687</hdop><vdop>4.687</vdop><extensions><gom:speed>0.507</gom:speed></extensions></trkpt>
   <trkpt lat="59.0716086488" lon="29.9693924956"><ele>102.18</ele><time>2026-04-25T11:19:37.000Z</time><hdop>4.687</hdop><vdop>4.687</vdop><extensions><gom:speed>0.5</gom:speed></extensions></trkpt>
   <trkpt lat="59.0716147676" lon="29.9693954293"><ele>102.236</ele><time>2026-04-25T11:19:38.000Z</time><hdop>4.687</hdop><vdop>4.687</vdop><extensions><gom:speed>0.514</gom:speed></extensions></trkpt>
   <trkpt lat="59.0716180366" lon="29.9694022186"><ele>102.269</ele><time>2026-04-25T11:19:39.000Z</time><hdop>4.687</hdop><vdop>4.687</vdop><extensions><gom:speed>0.305</gom:speed></extensions></trkpt>
   <trkpt lat="59.0716213893" lon="29.9694096785"><ele>102.303</ele><time>2026-04-25T11:19:40.000Z</time><hdop>4.687</hdop><vdop>4.687</vdop><extensions><gom:speed>0.346</gom:speed></extensions></trkpt>
   <trkpt lat="59.0716248259" lon="29.9694173061"><ele>102.339</ele><time>2026-04-25T11:19:41.000Z</time><hdop>4.687</hdop><vdop>4.687</vdop><extensions><gom:speed>0.448</gom:speed></extensions></trkpt>
   <trkpt lat="59.0716279691" lon="29.9694259394"><ele>102.366</ele><time>2026-04-25T11:19:42.000Z</time><hdop>4.687</hdop><vdop>4.687</vdop><extensions><gom:speed>0.498</gom:speed></extensions></trkpt>
   <trkpt lat="59.0716279691" lon="29.9694259394"><ele>102.383</ele><time>2026-04-25T11:19:42.000Z</time><hdop>4.687</hdop><vdop>4.687</vdop><extensions><gom:speed>0.498</gom:speed></extensions></trkpt>
   <trkpt lat="59.0716312381" lon="29.9694322259"><ele>102.378</ele><time>2026-04-25T11:19:43.000Z</time><hdop>4.687</hdop><vdop>4.687</vdop><extensions><gom:speed>0.39</gom:speed></extensions></trkpt>
   <trkpt lat="59.0716353452" lon="29.969439099"><ele>102.37</ele><time>2026-04-25T11:19:44.000Z</time><hdop>4.687</hdop><vdop>4.687</vdop><extensions><gom:speed>0.398</gom:speed></extensions></trkpt>
   <trkpt lat="59.0716353452" lon="29.969439099"><ele>102.365</ele><time>2026-04-25T11:19:44.000Z</time><hdop>4.687</hdop><vdop>4.687</vdop><extensions><gom:speed>0.398</gom:speed></extensions></trkpt>
   <trkpt lat="59.0716388237" lon="29.9694474809"><ele>102.366</ele><time>2026-04-25T11:19:45.000Z</time><hdop>4.687</hdop><vdop>4.687</vdop><extensions><gom:speed>0.511</gom:speed></extensions></trkpt>
   <trkpt lat="59.0716410449" lon="29.9694583774"><ele>102.382</ele><time>2026-04-25T11:19:46.000Z</time><hdop>4.687</hdop><vdop>4.687</vdop><extensions><gom:speed>0.566</gom:speed></extensions></trkpt>
   <trkpt lat="59.0716418412" lon="29.969467346"><ele>102.391</ele><time>2026-04-25T11:19:47.000Z</time><hdop>4.687</hdop><vdop>4.687</vdop><extensions><gom:speed>0.347</gom:speed></extensions></trkpt>
   <trkpt lat="59.0716433918" lon="29.9694734648"><ele>102.416</ele><time>2026-04-25T11:19:48.000Z</time><hdop>4.875</hdop><vdop>4.875</vdop><extensions><gom:speed>0.28</gom:speed></extensions></trkpt>
   <trkpt lat="59.0716433918" lon="29.9694734648"><ele>102.431</ele><time>2026-04-25T11:19:49.000Z</time><hdop>4.875</hdop><vdop>4.875</vdop><extensions><gom:speed>0.0</gom:speed></extensions></trkpt>
   <trkpt lat="59.0716447748" lon="29.9694758956"><ele>102.455</ele><time>2026-04-25T11:19:50.000Z</time><hdop>4.625</hdop><vdop>4.625</vdop><extensions><gom:speed>0.117</gom:speed></extensions></trkpt>
   <trkpt lat="59.0716447748" lon="29.9694758956"><ele>102.469</ele><time>2026-04-25T11:19:51.000Z</time><hdop>4.625</hdop><vdop>4.625</vdop><extensions><gom:speed>0.0</gom:speed></extensions></trkpt>
   <trkpt lat="59.0716447748" lon="29.9694758956"><ele>102.478</ele><time>2026-04-25T11:19:52.000Z</time><hdop>4.625</hdop><vdop>4.625</vdop><extensions><gom:speed>0.0</gom:speed></extensions></trkpt>
   <trkpt lat="59.0716447748" lon="29.9694758956"><ele>102.483</ele><time>2026-04-25T11:19:52.000Z</time><hdop>4.625</hdop><vdop>4.625</vdop><extensions><gom:speed>0.0</gom:speed></extensions></trkpt>
   <trkpt lat="59.0716447748" lon="29.9694758956"><ele>102.486</ele><time>2026-04-25T11:19:53.000Z</time><hdop>4.625</hdop><vdop>4.625</vdop><extensions><gom:speed>0.0</gom:speed></extensions></trkpt>
   <trkpt lat="59.0716447748" lon="29.9694758956"><ele>102.488</ele><time>2026-04-25T11:19:53.000Z</time><hdop>4.625</hdop><vdop>4.625</vdop><extensions><gom:speed>0.0</gom:speed></extensions></trkpt>
   <trkpt lat="59.0716447748" lon="29.9694758956"><ele>102.489</ele><time>2026-04-25T11:19:54.000Z</time><hdop>4.625</hdop><vdop>4.625</vdop><extensions><gom:speed>0.0</gom:speed></extensions></trkpt>
   <trkpt lat="59.0716447748" lon="29.9694758956"><ele>102.49</ele><time>2026-04-25T11:19:55.000Z</time><hdop>4.625</hdop><vdop>4.625</vdop><extensions><gom:speed>0.0</gom:speed></extensions></trkpt>
   <trkpt lat="59.0716447748" lon="29.9694758956"><ele>102.49</ele><time>2026-04-25T11:19:56.000Z</time><hdop>4.625</hdop><vdop>4.625</vdop><extensions><gom:speed>0.0</gom:speed></extensions></trkpt>
   <trkpt lat="59.071643769" lon="29.969476147"><ele>102.451</ele><time>2026-04-25T11:19:57.000Z</time><hdop>4.375</hdop><vdop>4.375</vdop><extensions><gom:speed>0.154</gom:speed></extensions></trkpt>
   <trkpt lat="59.071643769" lon="29.969476147"><ele>102.427</ele><time>2026-04-25T11:19:58.000Z</time><hdop>4.375</hdop><vdop>4.375</vdop><extensions><gom:speed>0.0</gom:speed></extensions></trkpt>
   <trkpt lat="59.071643769" lon="29.969476147"><ele>102.413</ele><time>2026-04-25T11:19:59.000Z</time><hdop>4.375</hdop><vdop>4.375</vdop><extensions><gom:speed>0.0</gom:speed></extensions></trkpt>
   <trkpt lat="59.071643769" lon="29.969476147"><ele>102.405</ele><time>2026-04-25T11:20:00.000Z</time><hdop>4.375</hdop><vdop>4.375</vdop><extensions><gom:speed>0.0</gom:speed></extensions></trkpt>
   <trkpt lat="59.071644691" lon="29.9694760632"><ele>102.359</ele><time>2026-04-25T11:20:01.000Z</time><hdop>4.0</hdop><vdop>4.0</vdop><extensions><gom:speed>0.13</gom:speed></extensions></trkpt>
   <trkpt lat="59.0716456968" lon="29.9694767338"><ele>102.319</ele><time>2026-04-25T11:20:02.000Z</time><hdop>3.375</hdop><vdop>3.375</vdop><extensions><gom:speed>0.127</gom:speed></extensions></trkpt>
   <trkpt lat="59.0716456968" lon="29.9694767338"><ele>102.295</ele><time>2026-04-25T11:20:03.000Z</time><hdop>3.375</hdop><vdop>3.375</vdop><extensions><gom:speed>0.0</gom:speed></extensions></trkpt>
   <trkpt lat="59.0716456968" lon="29.9694767338"><ele>102.28</ele><time>2026-04-25T11:20:04.000Z</time><hdop>3.375</hdop><vdop>3.375</vdop><extensions><gom:speed>0.0</gom:speed></extensions></trkpt>
   <trkpt lat="59.0716456968" lon="29.9694767338"><ele>102.272</ele><time>2026-04-25T11:20:05.000Z</time><hdop>3.375</hdop><vdop>3.375</vdop><extensions><gom:speed>0.0</gom:speed></extensions></trkpt>
   <trkpt lat="59.0716456968" lon="29.9694767338"><ele>102.266</ele><time>2026-04-25T11:20:06.000Z</time><hdop>3.375</hdop><vdop>3.375</vdop><extensions><gom:speed>0.0</gom:speed></extensions></trkpt>
   <trkpt lat="59.0716456968" lon="29.9694767338"><ele>102.263</ele><time>2026-04-25T11:20:07.000Z</time><hdop>3.375</hdop><vdop>3.375</vdop><extensions><gom:speed>0.0</gom:speed></extensions></trkpt>
   <trkpt lat="59.0716456968" lon="29.9694767338"><ele>102.262</ele><time>2026-04-25T11:20:08.000Z</time><hdop>3.375</hdop><vdop>3.375</vdop><extensions><gom:speed>0.0</gom:speed></extensions></trkpt>
   <trkpt lat="59.0716456968" lon="29.9694767338"><ele>102.26</ele><time>2026-04-25T11:20:09.000Z</time><hdop>3.375</hdop><vdop>3.375</vdop><extensions><gom:speed>0.0</gom:speed></extensions></trkpt>
   <trkpt lat="59.0716456968" lon="29.9694767338"><ele>102.26</ele><time>2026-04-25T11:20:10.000Z</time><hdop>3.375</hdop><vdop>3.375</vdop><extensions><gom:speed>0.0</gom:speed></extensions></trkpt>
   <trkpt lat="59.0716456968" lon="29.9694767338"><ele>102.259</ele><time>2026-04-25T11:20:11.000Z</time><hdop>3.375</hdop><vdop>3.375</vdop><extensions><gom:speed>0.0</gom:speed></extensions></trkpt>
   <trkpt lat="59.0716456968" lon="29.9694767338"><ele>102.259</ele><time>2026-04-25T11:20:12.000Z</time><hdop>3.375</hdop><vdop>3.375</vdop><extensions><gom:speed>0.0</gom:speed></extensions></trkpt>
   <trkpt lat="59.0716456968" lon="29.9694767338"><ele>102.259</ele><time>2026-04-25T11:20:13.000Z</time><hdop>3.375</hdop><vdop>3.375</vdop><extensions><gom:speed>0.0</gom:speed></extensions></trkpt>
   <trkpt lat="59.0716456968" lon="29.9694767338"><ele>102.259</ele><time>2026-04-25T11:20:14.000Z</time><hdop>3.375</hdop><vdop>3.375</vdop><extensions><gom:speed>0.0</gom:speed></extensions></trkpt>
   <trkpt lat="59.0716456968" lon="29.9694767338"><ele>102.259</ele><time>2026-04-25T11:20:15.000Z</time><hdop>3.375</hdop><vdop>3.375</vdop><extensions><gom:speed>0.0</gom:speed></extensions></trkpt>
   <trkpt lat="59.0716456968" lon="29.9694767338"><ele>102.259</ele><time>2026-04-25T11:20:16.000Z</time><hdop>3.375</hdop><vdop>3.375</vdop><extensions><gom:speed>0.0</gom:speed></extensions></trkpt>
   <trkpt lat="59.0716456968" lon="29.9694767338"><ele>102.259</ele><time>2026-04-25T11:20:16.000Z</time><hdop>3.375</hdop><vdop>3.375</vdop><extensions><gom:speed>0.0</gom:speed></extensions></trkpt>
   <trkpt lat="59.0716456968" lon="29.9694767338"><ele>102.259</ele><time>2026-04-25T11:20:17.000Z</time><hdop>3.375</hdop><vdop>3.375</vdop><extensions><gom:speed>0.0</gom:speed></extensions></trkpt>
   <trkpt lat="59.0716456968" lon="29.9694767338"><ele>102.259</ele><time>2026-04-25T11:20:18.000Z</time><hdop>3.375</hdop><vdop>3.375</vdop><extensions><gom:speed>0.0</gom:speed></extensions></trkpt>
   <trkpt lat="59.0716456968" lon="29.9694767338"><ele>102.259</ele><time>2026-04-25T11:20:19.000Z</time><hdop>3.375</hdop><vdop>3.375</vdop><extensions><gom:speed>0.0</gom:speed></extensions></trkpt>
   <trkpt lat="59.0716456968" lon="29.9694767338"><ele>102.259</ele><time>2026-04-25T11:20:20.000Z</time><hdop>3.375</hdop><vdop>3.375</vdop><extensions><gom:speed>0.0</gom:speed></extensions></trkpt>
   <trkpt lat="59.0716456968" lon="29.9694767338"><ele>102.259</ele><time>2026-04-25T11:20:21.000Z</time><hdop>3.375</hdop><vdop>3.375</vdop><extensions><gom:speed>0.0</gom:speed></extensions></trkpt>
   <trkpt lat="59.0716456968" lon="29.9694767338"><ele>102.259</ele><time>2026-04-25T11:20:22.000Z</time><hdop>3.375</hdop><vdop>3.375</vdop><extensions><gom:speed>0.0</gom:speed></extensions></trkpt>
   <trkpt lat="59.0716456968" lon="29.9694767338"><ele>102.259</ele><time>2026-04-25T11:20:23.000Z</time><hdop>3.375</hdop><vdop>3.375</vdop><extensions><gom:speed>0.0</gom:speed></extensions></trkpt>
   <trkpt lat="59.0716456968" lon="29.9694767338"><ele>102.259</ele><time>2026-04-25T11:20:24.000Z</time><hdop>3.375</hdop><vdop>3.375</vdop><extensions><gom:speed>0.0</gom:speed></extensions></trkpt>
   <trkpt lat="59.0716456968" lon="29.9694767338"><ele>102.259</ele><time>2026-04-25T11:20:25.000Z</time><hdop>3.375</hdop><vdop>3.375</vdop><extensions><gom:speed>0.0</gom:speed></extensions></trkpt>
   <trkpt lat="59.0716456968" lon="29.9694767338"><ele>102.259</ele><time>2026-04-25T11:20:26.000Z</time><hdop>3.375</hdop><vdop>3.375</vdop><extensions><gom:speed>0.0</gom:speed></extensions></trkpt>
   <trkpt lat="59.0716456968" lon="29.9694767338"><ele>102.259</ele><time>2026-04-25T11:20:27.000Z</time><hdop>3.375</hdop><vdop>3.375</vdop><extensions><gom:speed>0.0</gom:speed></extensions></trkpt>
   <trkpt lat="59.0716456968" lon="29.9694767338"><ele>102.259</ele><time>2026-04-25T11:20:28.000Z</time><hdop>3.375</hdop><vdop>3.375</vdop><extensions><gom:speed>0.0</gom:speed></extensions></trkpt>
   <trkpt lat="59.0716456968" lon="29.9694767338"><ele>102.259</ele><time>2026-04-25T11:20:29.000Z</time><hdop>3.375</hdop><vdop>3.375</vdop><extensions><gom:speed>0.0</gom:speed></extensions></trkpt>
   <trkpt lat="59.0716473732" lon="29.9694832716"><ele>102.238</ele><time>2026-04-25T11:20:30.000Z</time><hdop>3.937</hdop><vdop>3.937</vdop><extensions><gom:speed>0.227</gom:speed></extensions></trkpt>
   <trkpt lat="59.0716504745" lon="29.9694925756"><ele>102.218</ele><time>2026-04-25T11:20:31.000Z</time><hdop>4.0</hdop><vdop>4.0</vdop><extensions><gom:speed>0.272</gom:speed></extensions></trkpt>
   <trkpt lat="59.0716524443" lon="29.9695045617"><ele>102.151</ele><time>2026-04-25T11:20:32.000Z</time><hdop>4.25</hdop><vdop>4.25</vdop><extensions><gom:speed>0.423</gom:speed></extensions></trkpt>
   <trkpt lat="59.0716558809" lon="29.9695152067"><ele>102.159</ele><time>2026-04-25T11:20:33.000Z</time><hdop>4.062</hdop><vdop>4.062</vdop><extensions><gom:speed>0.446</gom:speed></extensions></trkpt>
   <trkpt lat="59.0716586888" lon="29.9695267737"><ele>102.155</ele><time>2026-04-25T11:20:34.000Z</time><hdop>4.187</hdop><vdop>4.187</vdop><extensions><gom:speed>0.447</gom:speed></extensions></trkpt>
   <trkpt lat="59.0716619996" lon="29.9695380055"><ele>102.198</ele><time>2026-04-25T11:20:35.000Z</time><hdop>4.375</hdop><vdop>4.375</vdop><extensions><gom:speed>0.426</gom:speed></extensions></trkpt>
   <trkpt lat="59.0716634665" lon="29.9695468065"><ele>102.27</ele><time>2026-04-25T11:20:36.000Z</time><hdop>3.812</hdop><vdop>3.812</vdop><extensions><gom:speed>0.4</gom:speed></extensions></trkpt>
   <trkpt lat="59.0716647238" lon="29.9695560266"><ele>102.27</ele><time>2026-04-25T11:20:37.000Z</time><hdop>3.125</hdop><vdop>3.125</vdop><extensions><gom:speed>0.177</gom:speed></extensions></trkpt>
   <trkpt lat="59.071666023" lon="29.969558122"><ele>102.339</ele><time>2026-04-25T11:20:38.000Z</time><hdop>3.0</hdop><vdop>3.0</vdop><extensions><gom:speed>0.17</gom:speed></extensions></trkpt>
   <trkpt lat="59.0716699625" lon="29.9695629835"><ele>102.399</ele><time>2026-04-25T11:20:39.000Z</time><hdop>3.0</hdop><vdop>3.0</vdop><extensions><gom:speed>0.209</gom:speed></extensions></trkpt>
   <trkpt lat="59.0716717646" lon="29.9695642408"><ele>102.4</ele><time>2026-04-25T11:20:40.000Z</time><hdop>3.0</hdop><vdop>3.0</vdop><extensions><gom:speed>0.213</gom:speed></extensions></trkpt>
   <trkpt lat="59.0716739439" lon="29.9695643247"><ele>102.401</ele><time>2026-04-25T11:20:41.000Z</time><hdop>3.0</hdop><vdop>3.0</vdop><extensions><gom:speed>0.222</gom:speed></extensions></trkpt>
   <trkpt lat="59.0716773385" lon="29.9695656658"><ele>102.38</ele><time>2026-04-25T11:20:42.000Z</time><hdop>3.125</hdop><vdop>3.125</vdop><extensions><gom:speed>0.299</gom:speed></extensions></trkpt>
   <trkpt lat="59.0716809427" lon="29.9695670907"><ele>102.362</ele><time>2026-04-25T11:20:43.000Z</time><hdop>3.25</hdop><vdop>3.25</vdop><extensions><gom:speed>0.315</gom:speed></extensions></trkpt>
   <trkpt lat="59.0716833735" lon="29.9695736286"><ele>102.344</ele><time>2026-04-25T11:20:44.000Z</time><hdop>3.312</hdop><vdop>3.312</vdop><extensions><gom:speed>0.301</gom:speed></extensions></trkpt>
   <trkpt lat="59.0716846727" lon="29.9695679289"><ele>102.284</ele><time>2026-04-25T11:20:45.000Z</time><hdop>3.687</hdop><vdop>3.687</vdop><extensions><gom:speed>0.183</gom:speed></extensions></trkpt>
   <trkpt lat="59.0716862233" lon="29.9695727066"><ele>102.327</ele><time>2026-04-25T11:20:46.000Z</time><hdop>4.687</hdop><vdop>4.687</vdop><extensions><gom:speed>0.161</gom:speed></extensions></trkpt>
   <trkpt lat="59.0716862233" lon="29.9695727066"><ele>102.353</ele><time>2026-04-25T11:20:47.000Z</time><hdop>4.687</hdop><vdop>4.687</vdop><extensions><gom:speed>0.0</gom:speed></extensions></trkpt>
   <trkpt lat="59.0716862233" lon="29.9695727066"><ele>102.369</ele><time>2026-04-25T11:20:48.000Z</time><hdop>4.687</hdop><vdop>4.687</vdop><extensions><gom:speed>0.0</gom:speed></extensions></trkpt>
   <trkpt lat="59.0716862233" lon="29.9695727066"><ele>102.378</ele><time>2026-04-25T11:20:49.000Z</time><hdop>4.687</hdop><vdop>4.687</vdop><extensions><gom:speed>0.0</gom:speed></extensions></trkpt>
   <trkpt lat="59.0716862233" lon="29.9695727066"><ele>102.384</ele><time>2026-04-25T11:20:50.000Z</time><hdop>4.687</hdop><vdop>4.687</vdop><extensions><gom:speed>0.0</gom:speed></extensions></trkpt>
   <trkpt lat="59.0716862233" lon="29.9695727066"><ele>102.387</ele><time>2026-04-25T11:20:51.000Z</time><hdop>4.687</hdop><vdop>4.687</vdop><extensions><gom:speed>0.0</gom:speed></extensions></trkpt>
   <trkpt lat="59.0716862233" lon="29.9695727066"><ele>102.389</ele><time>2026-04-25T11:20:52.000Z</time><hdop>4.687</hdop><vdop>4.687</vdop><extensions><gom:speed>0.0</gom:speed></extensions></trkpt>
   <trkpt lat="59.0716862233" lon="29.9695727066"><ele>102.391</ele><time>2026-04-25T11:20:53.000Z</time><hdop>4.687</hdop><vdop>4.687</vdop><extensions><gom:speed>0.0</gom:speed></extensions></trkpt>
   <trkpt lat="59.0716862233" lon="29.9695727066"><ele>102.391</ele><time>2026-04-25T11:20:54.000Z</time><hdop>4.687</hdop><vdop>4.687</vdop><extensions><gom:speed>0.0</gom:speed></extensions></trkpt>
   <trkpt lat="59.0716862233" lon="29.9695727066"><ele>102.392</ele><time>2026-04-25T11:20:55.000Z</time><hdop>4.687</hdop><vdop>4.687</vdop><extensions><gom:speed>0.0</gom:speed></extensions></trkpt>
   <trkpt lat="59.0716862233" lon="29.9695727066"><ele>102.392</ele><time>2026-04-25T11:20:56.000Z</time><hdop>4.687</hdop><vdop>4.687</vdop><extensions><gom:speed>0.0</gom:speed></extensions></trkpt>
   <trkpt lat="59.0716862233" lon="29.9695727066"><ele>102.392</ele><time>2026-04-25T11:20:57.000Z</time><hdop>4.687</hdop><vdop>4.687</vdop><extensions><gom:speed>0.0</gom:speed></extensions></trkpt>
   <trkpt lat="59.0716862233" lon="29.9695727066"><ele>102.392</ele><time>2026-04-25T11:20:58.000Z</time><hdop>4.687</hdop><vdop>4.687</vdop><extensions><gom:speed>0.0</gom:speed></extensions></trkpt>
   <trkpt lat="59.0716862233" lon="29.9695727066"><ele>102.392</ele><time>2026-04-25T11:20:59.000Z</time><hdop>4.687</hdop><vdop>4.687</vdop><extensions><gom:speed>0.0</gom:speed></extensions></trkpt>
   <trkpt lat="59.0716862233" lon="29.9695727066"><ele>102.392</ele><time>2026-04-25T11:21:00.000Z</time><hdop>4.687</hdop><vdop>4.687</vdop><extensions><gom:speed>0.0</gom:speed></extensions></trkpt>
   <trkpt lat="59.0716862233" lon="29.9695727066"><ele>102.392</ele><time>2026-04-25T11:21:01.000Z</time><hdop>4.687</hdop><vdop>4.687</vdop><extensions><gom:speed>0.0</gom:speed></extensions></trkpt>
   <trkpt lat="59.0716862233" lon="29.9695727066"><ele>102.392</ele><time>2026-04-25T11:21:02.000Z</time><hdop>4.687</hdop><vdop>4.687</vdop><extensions><gom:speed>0.0</gom:speed></extensions></trkpt>
   <trkpt lat="59.0716862233" lon="29.9695727066"><ele>102.392</ele><time>2026-04-25T11:21:03.000Z</time><hdop>4.687</hdop><vdop>4.687</vdop><extensions><gom:speed>0.0</gom:speed></extensions></trkpt>
   <trkpt lat="59.0716879416" lon="29.9695810046"><ele>102.325</ele><time>2026-04-25T11:21:04.000Z</time><hdop>4.875</hdop><vdop>4.875</vdop><extensions><gom:speed>0.401</gom:speed></extensions></trkpt>
   <trkpt lat="59.0716908753" lon="29.9695939128"><ele>102.262</ele><time>2026-04-25T11:21:05.000Z</time><hdop>4.687</hdop><vdop>4.687</vdop><extensions><gom:speed>0.49</gom:speed></extensions></trkpt>
   <trkpt lat="59.0716951501" lon="29.9696059827"><ele>102.22</ele><time>2026-04-25T11:21:06.000Z</time><hdop>4.687</hdop><vdop>4.687</vdop><extensions><gom:speed>0.447</gom:speed></extensions></trkpt>
   <trkpt lat="59.0717017299" lon="29.9696134426"><ele>102.096</ele><time>2026-04-25T11:21:07.000Z</time><hdop>4.5</hdop><vdop>4.5</vdop><extensions><gom:speed>0.301</gom:speed></extensions></trkpt>
   <trkpt lat="59.0717017299" lon="29.9696134426"><ele>102.022</ele><time>2026-04-25T11:21:07.000Z</time><hdop>4.5</hdop><vdop>4.5</vdop><extensions><gom:speed>0.301</gom:speed></extensions></trkpt>
   <trkpt lat="59.0717056275" lon="29.9696208187"><ele>101.839</ele><time>2026-04-25T11:21:08.000Z</time><hdop>4.187</hdop><vdop>4.187</vdop><extensions><gom:speed>0.43</gom:speed></extensions></trkpt>
   <trkpt lat="59.0717092736" lon="29.9696328048"><ele>101.692</ele><time>2026-04-25T11:21:09.000Z</time><hdop>4.937</hdop><vdop>4.937</vdop><extensions><gom:speed>0.441</gom:speed></extensions></trkpt>
   <trkpt lat="59.0717152247" lon="29.9696480599"><ele>101.537</ele><time>2026-04-25T11:21:10.000Z</time><hdop>4.812</hdop><vdop>4.812</vdop><extensions><gom:speed>0.362</gom:speed></extensions></trkpt>
   <trkpt lat="59.0717152247" lon="29.9696480599"><ele>101.444</ele><time>2026-04-25T11:21:11.000Z</time><hdop>4.812</hdop><vdop>4.812</vdop><extensions><gom:speed>0.0</gom:speed></extensions></trkpt>
   <trkpt lat="59.0717199186" lon="29.9696566932"><ele>101.382</ele><time>2026-04-25T11:21:12.000Z</time><hdop>4.75</hdop><vdop>4.75</vdop><extensions><gom:speed>0.13</gom:speed></extensions></trkpt>
   <trkpt lat="59.0717199186" lon="29.9696566932"><ele>101.346</ele><time>2026-04-25T11:21:13.000Z</time><hdop>4.75</hdop><vdop>4.75</vdop><extensions><gom:speed>0.0</gom:speed></extensions></trkpt>
   <trkpt lat="59.0717199186" lon="29.9696566932"><ele>101.324</ele><time>2026-04-25T11:21:14.000Z</time><hdop>4.75</hdop><vdop>4.75</vdop><extensions><gom:speed>0.0</gom:speed></extensions></trkpt>
   <trkpt lat="59.0717285939" lon="29.9696631473"><ele>101.484</ele><time>2026-04-25T11:21:15.000Z</time><hdop>4.562</hdop><vdop>4.562</vdop><extensions><gom:speed>0.443</gom:speed></extensions></trkpt>
   <trkpt lat="59.0717350898" lon="29.9696774803"><ele>101.588</ele><time>2026-04-25T11:21:16.000Z</time><hdop>4.687</hdop><vdop>4.687</vdop><extensions><gom:speed>0.846</gom:speed></extensions></trkpt>
   <trkpt lat="59.0717458187" lon="29.9697002791"><ele>101.767</ele><time>2026-04-25T11:21:17.000Z</time><hdop>4.687</hdop><vdop>4.687</vdop><extensions><gom:speed>0.275</gom:speed></extensions></trkpt>
   <trkpt lat="59.0717474951" lon="29.9697115947"><ele>101.889</ele><time>2026-04-25T11:21:18.000Z</time><hdop>4.687</hdop><vdop>4.687</vdop><extensions><gom:speed>0.159</gom:speed></extensions></trkpt>
   <trkpt lat="59.0717525242" lon="29.9697219883"><ele>102.054</ele><time>2026-04-25T11:21:19.000Z</time><hdop>4.687</hdop><vdop>4.687</vdop><extensions><gom:speed>0.415</gom:speed></extensions></trkpt>
   <trkpt lat="59.0717566313" lon="29.9697306216"><ele>102.186</ele><time>2026-04-25T11:21:20.000Z</time><hdop>4.687</hdop><vdop>4.687</vdop><extensions><gom:speed>0.556</gom:speed></extensions></trkpt>
   <trkpt lat="59.0717626244" lon="29.96973783"><ele>102.322</ele><time>2026-04-25T11:21:21.000Z</time><hdop>4.875</hdop><vdop>4.875</vdop><extensions><gom:speed>0.497</gom:speed></extensions></trkpt>
   <trkpt lat="59.0717676535" lon="29.969745709"><ele>102.391</ele><time>2026-04-25T11:21:22.000Z</time><hdop>4.625</hdop><vdop>4.625</vdop><extensions><gom:speed>0.482</gom:speed></extensions></trkpt>
   <trkpt lat="59.0717701681" lon="29.9697519116"><ele>102.456</ele><time>2026-04-25T11:21:23.000Z</time><hdop>4.375</hdop><vdop>4.375</vdop><extensions><gom:speed>0.307</gom:speed></extensions></trkpt>
   <trkpt lat="59.0717694556" lon="29.9697590363"><ele>102.506</ele><time>2026-04-25T11:21:24.000Z</time><hdop>3.75</hdop><vdop>3.75</vdop><extensions><gom:speed>0.233</gom:speed></extensions></trkpt>
   <trkpt lat="59.0717699586" lon="29.9697709386"><ele>102.527</ele><time>2026-04-25T11:21:25.000Z</time><hdop>3.437</hdop><vdop>3.437</vdop><extensions><gom:speed>0.4</gom:speed></extensions></trkpt>
   <trkpt lat="59.071772515" lon="29.9697846849"><ele>102.544</ele><time>2026-04-25T11:21:26.000Z</time><hdop>3.125</hdop><vdop>3.125</vdop><extensions><gom:speed>0.562</gom:speed></extensions></trkpt>
   <trkpt lat="59.0717760354" lon="29.9697984312"><ele>102.522</ele><time>2026-04-25T11:21:27.000Z</time><hdop>3.125</hdop><vdop>3.125</vdop><extensions><gom:speed>0.573</gom:speed></extensions></trkpt>
   <trkpt lat="59.0717801426" lon="29.9698109202"><ele>102.51</ele><time>2026-04-25T11:21:28.000Z</time><hdop>3.187</hdop><vdop>3.187</vdop><extensions><gom:speed>0.692</gom:speed></extensions></trkpt>
   <trkpt lat="59.0717847526" lon="29.9698280193"><ele>102.505</ele><time>2026-04-25T11:21:29.000Z</time><hdop>3.437</hdop><vdop>3.437</vdop><extensions><gom:speed>0.688</gom:speed></extensions></trkpt>
   <trkpt lat="59.0717897818" lon="29.9698440288"><ele>102.505</ele><time>2026-04-25T11:21:30.000Z</time><hdop>3.937</hdop><vdop>3.937</vdop><extensions><gom:speed>0.671</gom:speed></extensions></trkpt>
   <trkpt lat="59.0717964873" lon="29.9698498961"><ele>102.479</ele><time>2026-04-25T11:21:31.000Z</time><hdop>3.375</hdop><vdop>3.375</vdop><extensions><gom:speed>0.577</gom:speed></extensions></trkpt>
   <trkpt lat="59.0717996305" lon="29.9698634748"><ele>102.455</ele><time>2026-04-25T11:21:32.000Z</time><hdop>3.375</hdop><vdop>3.375</vdop><extensions><gom:speed>0.564</gom:speed></extensions></trkpt>
   <trkpt lat="59.0718052883" lon="29.9698697612"><ele>102.407</ele><time>2026-04-25T11:21:33.000Z</time><hdop>3.0</hdop><vdop>3.0</vdop><extensions><gom:speed>0.534</gom:speed></extensions></trkpt>
   <trkpt lat="59.0718094373" lon="29.9698755447"><ele>102.352</ele><time>2026-04-25T11:21:34.000Z</time><hdop>3.0</hdop><vdop>3.0</vdop><extensions><gom:speed>0.3</gom:speed></extensions></trkpt>
   <trkpt lat="59.0718128739" lon="29.9698818311"><ele>102.268</ele><time>2026-04-25T11:21:35.000Z</time><hdop>3.0</hdop><vdop>3.0</vdop><extensions><gom:speed>0.351</gom:speed></extensions></trkpt>
   <trkpt lat="59.0718128739" lon="29.9698818311"><ele>102.218</ele><time>2026-04-25T11:21:36.000Z</time><hdop>3.0</hdop><vdop>3.0</vdop><extensions><gom:speed>0.0</gom:speed></extensions></trkpt>
   <trkpt lat="59.0718128739" lon="29.9698818311"><ele>102.188</ele><time>2026-04-25T11:21:37.000Z</time><hdop>3.0</hdop><vdop>3.0</vdop><extensions><gom:speed>0.0</gom:speed></extensions></trkpt>
   <trkpt lat="59.0718128739" lon="29.9698818311"><ele>102.17</ele><time>2026-04-25T11:21:38.000Z</time><hdop>3.0</hdop><vdop>3.0</vdop><extensions><gom:speed>0.0</gom:speed></extensions></trkpt>
   <trkpt lat="59.0718128739" lon="29.9698818311"><ele>102.16</ele><time>2026-04-25T11:21:39.000Z</time><hdop>3.0</hdop><vdop>3.0</vdop><extensions><gom:speed>0.0</gom:speed></extensions></trkpt>
   <trkpt lat="59.0718128739" lon="29.9698818311"><ele>102.153</ele><time>2026-04-25T11:21:39.000Z</time><hdop>3.0</hdop><vdop>3.0</vdop><extensions><gom:speed>0.0</gom:speed></extensions></trkpt>
   <trkpt lat="59.0718153466" lon="29.9698854354"><ele>102.136</ele><time>2026-04-25T11:21:40.000Z</time><hdop>3.0</hdop><vdop>3.0</vdop><extensions><gom:speed>0.152</gom:speed></extensions></trkpt>
   <trkpt lat="59.0718153466" lon="29.9698854354"><ele>102.126</ele><time>2026-04-25T11:21:41.000Z</time><hdop>3.0</hdop><vdop>3.0</vdop><extensions><gom:speed>0.0</gom:speed></extensions></trkpt>
   <trkpt lat="59.0718153466" lon="29.9698854354"><ele>102.12</ele><time>2026-04-25T11:21:42.000Z</time><hdop>3.0</hdop><vdop>3.0</vdop><extensions><gom:speed>0.0</gom:speed></extensions></trkpt>
   <trkpt lat="59.0718153466" lon="29.9698854354"><ele>102.116</ele><time>2026-04-25T11:21:43.000Z</time><hdop>3.0</hdop><vdop>3.0</vdop><extensions><gom:speed>0.0</gom:speed></extensions></trkpt>
   <trkpt lat="59.0718153466" lon="29.9698854354"><ele>102.114</ele><time>2026-04-25T11:21:44.000Z</time><hdop>3.0</hdop><vdop>3.0</vdop><extensions><gom:speed>0.0</gom:speed></extensions></trkpt>
   <trkpt lat="59.0718196213" lon="29.9698845972"><ele>102.092</ele><time>2026-04-25T11:21:45.000Z</time><hdop>3.0</hdop><vdop>3.0</vdop><extensions><gom:speed>0.128</gom:speed></extensions></trkpt>
   <trkpt lat="59.0718242314" lon="29.9698887043"><ele>102.035</ele><time>2026-04-25T11:21:46.000Z</time><hdop>3.0</hdop><vdop>3.0</vdop><extensions><gom:speed>0.198</gom:speed></extensions></trkpt>
   <trkpt lat="59.0718300568" lon="29.9698926438"><ele>101.961</ele><time>2026-04-25T11:21:47.000Z</time><hdop>3.0</hdop><vdop>3.0</vdop><extensions><gom:speed>0.261</gom:speed></extensions></trkpt>
   <trkpt lat="59.0718364271" lon="29.9698975053"><ele>101.917</ele><time>2026-04-25T11:21:48.000Z</time><hdop>3.0</hdop><vdop>3.0</vdop><extensions><gom:speed>0.387</gom:speed></extensions></trkpt>
   <trkpt lat="59.0718424201" lon="29.9699062225"><ele>101.88</ele><time>2026-04-25T11:21:49.000Z</time><hdop>3.0</hdop><vdop>3.0</vdop><extensions><gom:speed>0.446</gom:speed></extensions></trkpt>
   <trkpt lat="59.0718513468" lon="29.9699144367"><ele>101.827</ele><time>2026-04-25T11:21:50.000Z</time><hdop>3.562</hdop><vdop>3.562</vdop><extensions><gom:speed>0.508</gom:speed></extensions></trkpt>
   <trkpt lat="59.0718592677" lon="29.9699265067"><ele>101.752</ele><time>2026-04-25T11:21:51.000Z</time><hdop>3.625</hdop><vdop>3.625</vdop><extensions><gom:speed>0.563</gom:speed></extensions></trkpt>
   <trkpt lat="59.0718653865" lon="29.969934218"><ele>101.656</ele><time>2026-04-25T11:21:52.000Z</time><hdop>3.25</hdop><vdop>3.25</vdop><extensions><gom:speed>0.574</gom:speed></extensions></trkpt>
   <trkpt lat="59.0718718406" lon="29.9699451145"><ele>101.627</ele><time>2026-04-25T11:21:53.000Z</time><hdop>3.375</hdop><vdop>3.375</vdop><extensions><gom:speed>0.682</gom:speed></extensions></trkpt>
   <trkpt lat="59.0718718406" lon="29.9699451145"><ele>101.61</ele><time>2026-04-25T11:21:53.000Z</time><hdop>3.375</hdop><vdop>3.375</vdop><extensions><gom:speed>0.682</gom:speed></extensions></trkpt>
   <trkpt lat="59.0718808931" lon="29.9699543346"><ele>101.61</ele><time>2026-04-25T11:21:54.000Z</time><hdop>3.0</hdop><vdop>3.0</vdop><extensions><gom:speed>0.821</gom:speed></extensions></trkpt>
   <trkpt lat="59.0718890654" lon="29.9699602019"><ele>101.629</ele><time>2026-04-25T11:21:55.000Z</time><hdop>3.0</hdop><vdop>3.0</vdop><extensions><gom:speed>0.345</gom:speed></extensions></trkpt>
   <trkpt lat="59.0718945975" lon="29.9699619621"><ele>101.613</ele><time>2026-04-25T11:21:56.000Z</time><hdop>3.0</hdop><vdop>3.0</vdop><extensions><gom:speed>0.395</gom:speed></extensions></trkpt>
   <trkpt lat="59.07189992" lon="29.9699619621"><ele>101.563</ele><time>2026-04-25T11:21:57.000Z</time><hdop>3.0</hdop><vdop>3.0</vdop><extensions><gom:speed>0.372</gom:speed></extensions></trkpt>
   <trkpt lat="59.0719065417" lon="29.9699681647"><ele>101.506</ele><time>2026-04-25T11:21:58.000Z</time><hdop>3.0</hdop><vdop>3.0</vdop><extensions><gom:speed>0.332</gom:speed></extensions></trkpt>
   <trkpt lat="59.0719140854" lon="29.9699732777"><ele>101.44</ele><time>2026-04-25T11:21:59.000Z</time><hdop>3.0</hdop><vdop>3.0</vdop><extensions><gom:speed>0.411</gom:speed></extensions></trkpt>
   <trkpt lat="59.0719205395" lon="29.969973613"><ele>101.381</ele><time>2026-04-25T11:22:00.000Z</time><hdop>3.0</hdop><vdop>3.0</vdop><extensions><gom:speed>0.287</gom:speed></extensions></trkpt>
   <trkpt lat="59.0719205395" lon="29.969973613"><ele>101.346</ele><time>2026-04-25T11:22:01.000Z</time><hdop>3.0</hdop><vdop>3.0</vdop><extensions><gom:speed>0.0</gom:speed></extensions></trkpt>
   <trkpt lat="59.0719205395" lon="29.969973613"><ele>101.325</ele><time>2026-04-25T11:22:02.000Z</time><hdop>3.0</hdop><vdop>3.0</vdop><extensions><gom:speed>0.0</gom:speed></extensions></trkpt>
   <trkpt lat="59.0719285861" lon="29.9699798156"><ele>101.359</ele><time>2026-04-25T11:22:03.000Z</time><hdop>3.0</hdop><vdop>3.0</vdop><extensions><gom:speed>0.426</gom:speed></extensions></trkpt>
   <trkpt lat="59.0719285861" lon="29.9699798156"><ele>101.38</ele><time>2026-04-25T11:22:04.000Z</time><hdop>3.0</hdop><vdop>3.0</vdop><extensions><gom:speed>0.0</gom:speed></extensions></trkpt>
   <trkpt lat="59.0719341181" lon="29.9699819111"><ele>101.389</ele><time>2026-04-25T11:22:05.000Z</time><hdop>3.0</hdop><vdop>3.0</vdop><extensions><gom:speed>0.424</gom:speed></extensions></trkpt>
   <trkpt lat="59.0719386025" lon="29.9699944839"><ele>101.41</ele><time>2026-04-25T11:22:06.000Z</time><hdop>3.125</hdop><vdop>3.125</vdop><extensions><gom:speed>0.566</gom:speed></extensions></trkpt>
   <trkpt lat="59.0719436735" lon="29.9700047098"><ele>101.418</ele><time>2026-04-25T11:22:07.000Z</time><hdop>3.0</hdop><vdop>3.0</vdop><extensions><gom:speed>0.424</gom:speed></extensions></trkpt>
   <trkpt lat="59.0719476968" lon="29.9700166121"><ele>101.42</ele><time>2026-04-25T11:22:08.000Z</time><hdop>3.0</hdop><vdop>3.0</vdop><extensions><gom:speed>0.329</gom:speed></extensions></trkpt>
   <trkpt lat="59.0719539413" lon="29.9700229824"><ele>101.433</ele><time>2026-04-25T11:22:09.000Z</time><hdop>3.0</hdop><vdop>3.0</vdop><extensions><gom:speed>0.476</gom:speed></extensions></trkpt>
   <trkpt lat="59.0719606888" lon="29.9700285983"><ele>101.467</ele><time>2026-04-25T11:22:10.000Z</time><hdop>3.0</hdop><vdop>3.0</vdop><extensions><gom:speed>0.427</gom:speed></extensions></trkpt>
   <trkpt lat="59.0719662627" lon="29.9700335436"><ele>101.497</ele><time>2026-04-25T11:22:11.000Z</time><hdop>3.0</hdop><vdop>3.0</vdop><extensions><gom:speed>0.327</gom:speed></extensions></trkpt>
   <trkpt lat="59.0719662627" lon="29.9700335436"><ele>101.515</ele><time>2026-04-25T11:22:12.000Z</time><hdop>3.0</hdop><vdop>3.0</vdop><extensions><gom:speed>0.0</gom:speed></extensions></trkpt>
   <trkpt lat="59.0719662627" lon="29.9700335436"><ele>101.525</ele><time>2026-04-25T11:22:13.000Z</time><hdop>3.0</hdop><vdop>3.0</vdop><extensions><gom:speed>0.0</gom:speed></extensions></trkpt>
   <trkpt lat="59.0719662627" lon="29.9700335436"><ele>101.532</ele><time>2026-04-25T11:22:13.000Z</time><hdop>3.0</hdop><vdop>3.0</vdop><extensions><gom:speed>0.0</gom:speed></extensions></trkpt>
   <trkpt lat="59.071970328" lon="29.9700358905"><ele>101.513</ele><time>2026-04-25T11:22:14.000Z</time><hdop>3.0</hdop><vdop>3.0</vdop><extensions><gom:speed>0.231</gom:speed></extensions></trkpt>
   <trkpt lat="59.0719748123" lon="29.9700389918"><ele>101.44</ele><time>2026-04-25T11:22:15.000Z</time><hdop>3.0</hdop><vdop>3.0</vdop><extensions><gom:speed>0.232</gom:speed></extensions></trkpt>
   <trkpt lat="59.0719748123" lon="29.9700389918"><ele>101.397</ele><time>2026-04-25T11:22:16.000Z</time><hdop>3.0</hdop><vdop>3.0</vdop><extensions><gom:speed>0.0</gom:speed></extensions></trkpt>
   <trkpt lat="59.0719806796" lon="29.9700437695"><ele>101.319</ele><time>2026-04-25T11:22:17.000Z</time><hdop>3.0</hdop><vdop>3.0</vdop><extensions><gom:speed>0.373</gom:speed></extensions></trkpt>
   <trkpt lat="59.0719893968" lon="29.9700505589"><ele>101.25</ele><time>2026-04-25T11:22:18.000Z</time><hdop>3.0</hdop><vdop>3.0</vdop><extensions><gom:speed>0.604</gom:speed></extensions></trkpt>
   <trkpt lat="59.0720005028" lon="29.9700608686"><ele>101.13</ele><time>2026-04-25T11:22:19.000Z</time><hdop>3.0</hdop><vdop>3.0</vdop><extensions><gom:speed>0.864</gom:speed></extensions></trkpt>
   <trkpt lat="59.072009681" lon="29.9700712622"><ele>101.034</ele><time>2026-04-25T11:22:20.000Z</time><hdop>3.0</hdop><vdop>3.0</vdop><extensions><gom:speed>0.882</gom:speed></extensions></trkpt>
   <trkpt lat="59.0720183144" lon="29.9700808175"><ele>100.931</ele><time>2026-04-25T11:22:21.000Z</time><hdop>3.0</hdop><vdop>3.0</vdop><extensions><gom:speed>0.867</gom:speed></extensions></trkpt>
   <trkpt lat="59.0720276602" lon="29.9700887803"><ele>100.839</ele><time>2026-04-25T11:22:22.000Z</time><hdop>3.0</hdop><vdop>3.0</vdop><extensions><gom:speed>0.674</gom:speed></extensions></trkpt>
   <trkpt lat="59.0720352458" lon="29.970102359"><ele>100.783</ele><time>2026-04-25T11:22:23.000Z</time><hdop>3.125</hdop><vdop>3.125</vdop><extensions><gom:speed>0.557</gom:speed></extensions></trkpt>
   <trkpt lat="59.072040694" lon="29.9701098189"><ele>100.775</ele><time>2026-04-25T11:22:24.000Z</time><hdop>3.062</hdop><vdop>3.062</vdop><extensions><gom:speed>0.437</gom:speed></extensions></trkpt>
   <trkpt lat="59.0720442144" lon="29.970119039"><ele>100.773</ele><time>2026-04-25T11:22:25.000Z</time><hdop>3.312</hdop><vdop>3.312</vdop><extensions><gom:speed>0.618</gom:speed></extensions></trkpt>
   <trkpt lat="59.0720439211" lon="29.9701392394"><ele>100.756</ele><time>2026-04-25T11:22:26.000Z</time><hdop>3.687</hdop><vdop>3.687</vdop><extensions><gom:speed>0.557</gom:speed></extensions></trkpt>
   <trkpt lat="59.0720439211" lon="29.9701392394"><ele>100.747</ele><time>2026-04-25T11:22:27.000Z</time><hdop>3.687</hdop><vdop>3.687</vdop><extensions><gom:speed>0.0</gom:speed></extensions></trkpt>
   <trkpt lat="59.0720439211" lon="29.9701392394"><ele>100.741</ele><time>2026-04-25T11:22:28.000Z</time><hdop>3.687</hdop><vdop>3.687</vdop><extensions><gom:speed>0.0</gom:speed></extensions></trkpt>
   <trkpt lat="59.0720439211" lon="29.9701392394"><ele>100.737</ele><time>2026-04-25T11:22:29.000Z</time><hdop>3.687</hdop><vdop>3.687</vdop><extensions><gom:speed>0.0</gom:speed></extensions></trkpt>
   <trkpt lat="59.0720439211" lon="29.9701392394"><ele>100.735</ele><time>2026-04-25T11:22:30.000Z</time><hdop>3.687</hdop><vdop>3.687</vdop><extensions><gom:speed>0.0</gom:speed></extensions></trkpt>
   <trkpt lat="59.0720439211" lon="29.9701392394"><ele>100.734</ele><time>2026-04-25T11:22:31.000Z</time><hdop>3.687</hdop><vdop>3.687</vdop><extensions><gom:speed>0.0</gom:speed></extensions></trkpt>
   <trkpt lat="59.0720439211" lon="29.9701392394"><ele>100.733</ele><time>2026-04-25T11:22:32.000Z</time><hdop>3.687</hdop><vdop>3.687</vdop><extensions><gom:speed>0.0</gom:speed></extensions></trkpt>
   <trkpt lat="59.0720439211" lon="29.9701392394"><ele>100.732</ele><time>2026-04-25T11:22:33.000Z</time><hdop>3.687</hdop><vdop>3.687</vdop><extensions><gom:speed>0.0</gom:speed></extensions></trkpt>
   <trkpt lat="59.0720439211" lon="29.9701392394"><ele>100.732</ele><time>2026-04-25T11:22:33.000Z</time><hdop>3.687</hdop><vdop>3.687</vdop><extensions><gom:speed>0.0</gom:speed></extensions></trkpt>
   <trkpt lat="59.0720439211" lon="29.9701392394"><ele>100.732</ele><time>2026-04-25T11:22:34.000Z</time><hdop>3.687</hdop><vdop>3.687</vdop><extensions><gom:speed>0.0</gom:speed></extensions></trkpt>
   <trkpt lat="59.0720439211" lon="29.9701392394"><ele>100.732</ele><time>2026-04-25T11:22:35.000Z</time><hdop>3.687</hdop><vdop>3.687</vdop><extensions><gom:speed>0.0</gom:speed></extensions></trkpt>
   <trkpt lat="59.0720439211" lon="29.9701392394"><ele>100.732</ele><time>2026-04-25T11:22:36.000Z</time><hdop>3.687</hdop><vdop>3.687</vdop><extensions><gom:speed>0.0</gom:speed></extensions></trkpt>
   <trkpt lat="59.0720439211" lon="29.9701392394"><ele>100.732</ele><time>2026-04-25T11:22:37.000Z</time><hdop>3.687</hdop><vdop>3.687</vdop><extensions><gom:speed>0.0</gom:speed></extensions></trkpt>
   <trkpt lat="59.0720439211" lon="29.9701392394"><ele>100.732</ele><time>2026-04-25T11:22:38.000Z</time><hdop>3.687</hdop><vdop>3.687</vdop><extensions><gom:speed>0.0</gom:speed></extensions></trkpt>
   <trkpt lat="59.0720439211" lon="29.9701392394"><ele>100.732</ele><time>2026-04-25T11:22:39.000Z</time><hdop>3.687</hdop><vdop>3.687</vdop><extensions><gom:speed>0.0</gom:speed></extensions></trkpt>
   <trkpt lat="59.0720439211" lon="29.9701392394"><ele>100.732</ele><time>2026-04-25T11:22:40.000Z</time><hdop>3.687</hdop><vdop>3.687</vdop><extensions><gom:speed>0.0</gom:speed></extensions></trkpt>
   <trkpt lat="59.0720439211" lon="29.9701392394"><ele>100.732</ele><time>2026-04-25T11:22:41.000Z</time><hdop>3.687</hdop><vdop>3.687</vdop><extensions><gom:speed>0.0</gom:speed></extensions></trkpt>
   <trkpt lat="59.0720439211" lon="29.9701392394"><ele>100.732</ele><time>2026-04-25T11:22:42.000Z</time><hdop>3.687</hdop><vdop>3.687</vdop><extensions><gom:speed>0.0</gom:speed></extensions></trkpt>
   <trkpt lat="59.0720439211" lon="29.9701392394"><ele>100.732</ele><time>2026-04-25T11:22:43.000Z</time><hdop>3.687</hdop><vdop>3.687</vdop><extensions><gom:speed>0.0</gom:speed></extensions></trkpt>
   <trkpt lat="59.0720439211" lon="29.9701392394"><ele>100.732</ele><time>2026-04-25T11:22:44.000Z</time><hdop>3.687</hdop><vdop>3.687</vdop><extensions><gom:speed>0.0</gom:speed></extensions></trkpt>
   <trkpt lat="59.0720439211" lon="29.9701392394"><ele>100.732</ele><time>2026-04-25T11:22:45.000Z</time><hdop>3.687</hdop><vdop>3.687</vdop><extensions><gom:speed>0.0</gom:speed></extensions></trkpt>
   <trkpt lat="59.0720439211" lon="29.9701392394"><ele>100.732</ele><time>2026-04-25T11:22:46.000Z</time><hdop>3.687</hdop><vdop>3.687</vdop><extensions><gom:speed>0.0</gom:speed></extensions></trkpt>
   <trkpt lat="59.0720439211" lon="29.9701392394"><ele>100.732</ele><time>2026-04-25T11:22:47.000Z</time><hdop>3.687</hdop><vdop>3.687</vdop><extensions><gom:speed>0.0</gom:speed></extensions></trkpt>
   <trkpt lat="59.0720439211" lon="29.9701392394"><ele>100.732</ele><time>2026-04-25T11:22:48.000Z</time><hdop>3.687</hdop><vdop>3.687</vdop><extensions><gom:speed>0.0</gom:speed></extensions></trkpt>
   <trkpt lat="59.0720439211" lon="29.9701392394"><ele>100.732</ele><time>2026-04-25T11:22:49.000Z</time><hdop>3.687</hdop><vdop>3.687</vdop><extensions><gom:speed>0.0</gom:speed></extensions></trkpt>
   <trkpt lat="59.072046268" lon="29.9701451905"><ele>100.819</ele><time>2026-04-25T11:22:50.000Z</time><hdop>3.75</hdop><vdop>3.75</vdop><extensions><gom:speed>0.766</gom:speed></extensions></trkpt>
   <trkpt lat="59.072046268" lon="29.9701451905"><ele>100.872</ele><time>2026-04-25T11:22:51.000Z</time><hdop>3.75</hdop><vdop>3.75</vdop><extensions><gom:speed>0.0</gom:speed></extensions></trkpt>
   <trkpt lat="59.072046268" lon="29.9701451905"><ele>100.903</ele><time>2026-04-25T11:22:52.000Z</time><hdop>3.75</hdop><vdop>3.75</vdop><extensions><gom:speed>0.0</gom:speed></extensions></trkpt>
   <trkpt lat="59.072046268" lon="29.9701451905"><ele>100.922</ele><time>2026-04-25T11:22:53.000Z</time><hdop>3.75</hdop><vdop>3.75</vdop><extensions><gom:speed>0.0</gom:speed></extensions></trkpt>
   <trkpt lat="59.072046268" lon="29.9701451905"><ele>100.933</ele><time>2026-04-25T11:22:53.000Z</time><hdop>3.75</hdop><vdop>3.75</vdop><extensions><gom:speed>0.0</gom:speed></extensions></trkpt>
   <trkpt lat="59.072046268" lon="29.9701451905"><ele>100.94</ele><time>2026-04-25T11:22:54.000Z</time><hdop>3.75</hdop><vdop>3.75</vdop><extensions><gom:speed>0.0</gom:speed></extensions></trkpt>
   <trkpt lat="59.072046268" lon="29.9701451905"><ele>100.944</ele><time>2026-04-25T11:22:55.000Z</time><hdop>3.75</hdop><vdop>3.75</vdop><extensions><gom:speed>0.0</gom:speed></extensions></trkpt>
   <trkpt lat="59.072046268" lon="29.9701451905"><ele>100.946</ele><time>2026-04-25T11:22:56.000Z</time><hdop>3.75</hdop><vdop>3.75</vdop><extensions><gom:speed>0.0</gom:speed></extensions></trkpt>
   <trkpt lat="59.072046268" lon="29.9701451905"><ele>100.947</ele><time>2026-04-25T11:22:57.000Z</time><hdop>3.75</hdop><vdop>3.75</vdop><extensions><gom:speed>0.0</gom:speed></extensions></trkpt>
   <trkpt lat="59.072046268" lon="29.9701451905"><ele>100.948</ele><time>2026-04-25T11:22:58.000Z</time><hdop>3.75</hdop><vdop>3.75</vdop><extensions><gom:speed>0.0</gom:speed></extensions></trkpt>
   <trkpt lat="59.072046268" lon="29.9701451905"><ele>100.949</ele><time>2026-04-25T11:22:59.000Z</time><hdop>3.75</hdop><vdop>3.75</vdop><extensions><gom:speed>0.0</gom:speed></extensions></trkpt>
   <trkpt lat="59.072046268" lon="29.9701451905"><ele>100.949</ele><time>2026-04-25T11:23:00.000Z</time><hdop>3.75</hdop><vdop>3.75</vdop><extensions><gom:speed>0.0</gom:speed></extensions></trkpt>
   <trkpt lat="59.072046268" lon="29.9701451905"><ele>100.949</ele><time>2026-04-25T11:23:01.000Z</time><hdop>3.75</hdop><vdop>3.75</vdop><extensions><gom:speed>0.0</gom:speed></extensions></trkpt>
   <trkpt lat="59.072046268" lon="29.9701451905"><ele>100.949</ele><time>2026-04-25T11:23:02.000Z</time><hdop>3.75</hdop><vdop>3.75</vdop><extensions><gom:speed>0.0</gom:speed></extensions></trkpt>
   <trkpt lat="59.072046268" lon="29.9701451905"><ele>100.95</ele><time>2026-04-25T11:23:03.000Z</time><hdop>3.75</hdop><vdop>3.75</vdop><extensions><gom:speed>0.0</gom:speed></extensions></trkpt>
   <trkpt lat="59.072046268" lon="29.9701451905"><ele>100.95</ele><time>2026-04-25T11:23:04.000Z</time><hdop>3.75</hdop><vdop>3.75</vdop><extensions><gom:speed>0.0</gom:speed></extensions></trkpt>
   <trkpt lat="59.072046268" lon="29.9701451905"><ele>100.95</ele><time>2026-04-25T11:23:05.000Z</time><hdop>3.75</hdop><vdop>3.75</vdop><extensions><gom:speed>0.0</gom:speed></extensions></trkpt>
   <trkpt lat="59.072046268" lon="29.9701451905"><ele>100.95</ele><time>2026-04-25T11:23:06.000Z</time><hdop>3.75</hdop><vdop>3.75</vdop><extensions><gom:speed>0.0</gom:speed></extensions></trkpt>
   <trkpt lat="59.072046268" lon="29.9701451905"><ele>100.95</ele><time>2026-04-25T11:23:07.000Z</time><hdop>3.75</hdop><vdop>3.75</vdop><extensions><gom:speed>0.0</gom:speed></extensions></trkpt>
   <trkpt lat="59.072046268" lon="29.9701451905"><ele>100.95</ele><time>2026-04-25T11:23:08.000Z</time><hdop>3.75</hdop><vdop>3.75</vdop><extensions><gom:speed>0.0</gom:speed></extensions></trkpt>
   <trkpt lat="59.072046268" lon="29.9701451905"><ele>100.95</ele><time>2026-04-25T11:23:09.000Z</time><hdop>3.75</hdop><vdop>3.75</vdop><extensions><gom:speed>0.0</gom:speed></extensions></trkpt>
   <trkpt lat="59.072046268" lon="29.9701451905"><ele>100.95</ele><time>2026-04-25T11:23:10.000Z</time><hdop>3.75</hdop><vdop>3.75</vdop><extensions><gom:speed>0.0</gom:speed></extensions></trkpt>
   <trkpt lat="59.072046268" lon="29.9701451905"><ele>100.95</ele><time>2026-04-25T11:23:11.000Z</time><hdop>3.75</hdop><vdop>3.75</vdop><extensions><gom:speed>0.0</gom:speed></extensions></trkpt>
   <trkpt lat="59.072046268" lon="29.9701451905"><ele>100.95</ele><time>2026-04-25T11:23:12.000Z</time><hdop>3.75</hdop><vdop>3.75</vdop><extensions><gom:speed>0.0</gom:speed></extensions></trkpt>
   <trkpt lat="59.072046268" lon="29.9701451905"><ele>100.95</ele><time>2026-04-25T11:23:13.000Z</time><hdop>3.75</hdop><vdop>3.75</vdop><extensions><gom:speed>0.0</gom:speed></extensions></trkpt>
   <trkpt lat="59.072046268" lon="29.9701451905"><ele>100.95</ele><time>2026-04-25T11:23:13.000Z</time><hdop>3.75</hdop><vdop>3.75</vdop><extensions><gom:speed>0.0</gom:speed></extensions></trkpt>
   <trkpt lat="59.072046268" lon="29.9701451905"><ele>100.95</ele><time>2026-04-25T11:23:14.000Z</time><hdop>3.75</hdop><vdop>3.75</vdop><extensions><gom:speed>0.0</gom:speed></extensions></trkpt>
   <trkpt lat="59.072046268" lon="29.9701451905"><ele>100.95</ele><time>2026-04-25T11:23:15.000Z</time><hdop>3.75</hdop><vdop>3.75</vdop><extensions><gom:speed>0.0</gom:speed></extensions></trkpt>
   <trkpt lat="59.072046268" lon="29.9701451905"><ele>100.95</ele><time>2026-04-25T11:23:16.000Z</time><hdop>3.75</hdop><vdop>3.75</vdop><extensions><gom:speed>0.0</gom:speed></extensions></trkpt>
   <trkpt lat="59.072046268" lon="29.9701451905"><ele>100.95</ele><time>2026-04-25T11:23:17.000Z</time><hdop>3.75</hdop><vdop>3.75</vdop><extensions><gom:speed>0.0</gom:speed></extensions></trkpt>
   <trkpt lat="59.072046268" lon="29.9701451905"><ele>100.95</ele><time>2026-04-25T11:23:18.000Z</time><hdop>3.75</hdop><vdop>3.75</vdop><extensions><gom:speed>0.0</gom:speed></extensions></trkpt>
   <trkpt lat="59.072046268" lon="29.9701451905"><ele>100.95</ele><time>2026-04-25T11:23:19.000Z</time><hdop>3.75</hdop><vdop>3.75</vdop><extensions><gom:speed>0.0</gom:speed></extensions></trkpt>
   <trkpt lat="59.072046268" lon="29.9701451905"><ele>100.95</ele><time>2026-04-25T11:23:20.000Z</time><hdop>3.75</hdop><vdop>3.75</vdop><extensions><gom:speed>0.0</gom:speed></extensions></trkpt>
   <trkpt lat="59.072046268" lon="29.9701451905"><ele>100.95</ele><time>2026-04-25T11:23:21.000Z</time><hdop>3.75</hdop><vdop>3.75</vdop><extensions><gom:speed>0.0</gom:speed></extensions></trkpt>
   <trkpt lat="59.072046268" lon="29.9701451905"><ele>100.95</ele><time>2026-04-25T11:23:22.000Z</time><hdop>3.75</hdop><vdop>3.75</vdop><extensions><gom:speed>0.0</gom:speed></extensions></trkpt>
   <trkpt lat="59.072046268" lon="29.9701451905"><ele>100.95</ele><time>2026-04-25T11:23:23.000Z</time><hdop>3.75</hdop><vdop>3.75</vdop><extensions><gom:speed>0.0</gom:speed></extensions></trkpt>
   <trkpt lat="59.072046268" lon="29.9701451905"><ele>100.95</ele><time>2026-04-25T11:23:24.000Z</time><hdop>3.75</hdop><vdop>3.75</vdop><extensions><gom:speed>0.0</gom:speed></extensions></trkpt>
   <trkpt lat="59.072046268" lon="29.9701451905"><ele>100.95</ele><time>2026-04-25T11:23:25.000Z</time><hdop>3.75</hdop><vdop>3.75</vdop><extensions><gom:speed>0.0</gom:speed></extensions></trkpt>
   <trkpt lat="59.072046268" lon="29.9701451905"><ele>100.95</ele><time>2026-04-25T11:23:26.000Z</time><hdop>3.75</hdop><vdop>3.75</vdop><extensions><gom:speed>0.0</gom:speed></extensions></trkpt>
   <trkpt lat="59.072046268" lon="29.9701451905"><ele>100.95</ele><time>2026-04-25T11:23:27.000Z</time><hdop>3.75</hdop><vdop>3.75</vdop><extensions><gom:speed>0.0</gom:speed></extensions></trkpt>
   <trkpt lat="59.072046268" lon="29.9701451905"><ele>100.95</ele><time>2026-04-25T11:23:28.000Z</time><hdop>3.75</hdop><vdop>3.75</vdop><extensions><gom:speed>0.0</gom:speed></extensions></trkpt>
   <trkpt lat="59.072046268" lon="29.9701451905"><ele>100.95</ele><time>2026-04-25T11:23:29.000Z</time><hdop>3.75</hdop><vdop>3.75</vdop><extensions><gom:speed>0.0</gom:speed></extensions></trkpt>
   <trkpt lat="59.072046268" lon="29.9701451905"><ele>100.95</ele><time>2026-04-25T11:23:30.000Z</time><hdop>3.75</hdop><vdop>3.75</vdop><extensions><gom:speed>0.0</gom:speed></extensions></trkpt>
   <trkpt lat="59.0720476091" lon="29.9701513093"><ele>100.924</ele><time>2026-04-25T11:23:31.000Z</time><hdop>3.812</hdop><vdop>3.812</vdop><extensions><gom:speed>0.189</gom:speed></extensions></trkpt>
   <trkpt lat="59.0720476091" lon="29.9701513093"><ele>100.909</ele><time>2026-04-25T11:23:32.000Z</time><hdop>3.812</hdop><vdop>3.812</vdop><extensions><gom:speed>0.0</gom:speed></extensions></trkpt>
   <trkpt lat="59.0720476091" lon="29.9701513093"><ele>100.9</ele><time>2026-04-25T11:23:33.000Z</time><hdop>3.812</hdop><vdop>3.812</vdop><extensions><gom:speed>0.0</gom:speed></extensions></trkpt>
   <trkpt lat="59.0720476091" lon="29.9701513093"><ele>100.894</ele><time>2026-04-25T11:23:33.000Z</time><hdop>3.812</hdop><vdop>3.812</vdop><extensions><gom:speed>0.0</gom:speed></extensions></trkpt>
   <trkpt lat="59.0720476091" lon="29.9701513093"><ele>100.891</ele><time>2026-04-25T11:23:34.000Z</time><hdop>3.812</hdop><vdop>3.812</vdop><extensions><gom:speed>0.0</gom:speed></extensions></trkpt>
   <trkpt lat="59.0720476091" lon="29.9701513093"><ele>100.889</ele><time>2026-04-25T11:23:35.000Z</time><hdop>3.812</hdop><vdop>3.812</vdop><extensions><gom:speed>0.0</gom:speed></extensions></trkpt>
   <trkpt lat="59.0720476091" lon="29.9701513093"><ele>100.888</ele><time>2026-04-25T11:23:36.000Z</time><hdop>3.812</hdop><vdop>3.812</vdop><extensions><gom:speed>0.0</gom:speed></extensions></trkpt>
   <trkpt lat="59.0720476091" lon="29.9701513093"><ele>100.887</ele><time>2026-04-25T11:23:37.000Z</time><hdop>3.812</hdop><vdop>3.812</vdop><extensions><gom:speed>0.0</gom:speed></extensions></trkpt>
   <trkpt lat="59.0720476091" lon="29.9701513093"><ele>100.887</ele><time>2026-04-25T11:23:38.000Z</time><hdop>3.812</hdop><vdop>3.812</vdop><extensions><gom:speed>0.0</gom:speed></extensions></trkpt>
   <trkpt lat="59.0720476091" lon="29.9701513093"><ele>100.886</ele><time>2026-04-25T11:23:39.000Z</time><hdop>3.812</hdop><vdop>3.812</vdop><extensions><gom:speed>0.0</gom:speed></extensions></trkpt>
   <trkpt lat="59.0720476091" lon="29.9701513093"><ele>100.886</ele><time>2026-04-25T11:23:40.000Z</time><hdop>3.812</hdop><vdop>3.812</vdop><extensions><gom:speed>0.0</gom:speed></extensions></trkpt>
   <trkpt lat="59.0720476091" lon="29.9701513093"><ele>100.886</ele><time>2026-04-25T11:23:41.000Z</time><hdop>3.812</hdop><vdop>3.812</vdop><extensions><gom:speed>0.0</gom:speed></extensions></trkpt>
   <trkpt lat="59.0720476091" lon="29.9701513093"><ele>100.886</ele><time>2026-04-25T11:23:42.000Z</time><hdop>3.812</hdop><vdop>3.812</vdop><extensions><gom:speed>0.0</gom:speed></extensions></trkpt>
   <trkpt lat="59.0720476091" lon="29.9701513093"><ele>100.886</ele><time>2026-04-25T11:23:43.000Z</time><hdop>3.812</hdop><vdop>3.812</vdop><extensions><gom:speed>0.0</gom:speed></extensions></trkpt>
   <trkpt lat="59.0720476091" lon="29.9701513093"><ele>100.886</ele><time>2026-04-25T11:23:44.000Z</time><hdop>3.812</hdop><vdop>3.812</vdop><extensions><gom:speed>0.0</gom:speed></extensions></trkpt>
   <trkpt lat="59.0720476091" lon="29.9701513093"><ele>100.886</ele><time>2026-04-25T11:23:45.000Z</time><hdop>3.812</hdop><vdop>3.812</vdop><extensions><gom:speed>0.0</gom:speed></extensions></trkpt>
   <trkpt lat="59.0720476091" lon="29.9701513093"><ele>100.886</ele><time>2026-04-25T11:23:46.000Z</time><hdop>3.812</hdop><vdop>3.812</vdop><extensions><gom:speed>0.0</gom:speed></extensions></trkpt>
   <trkpt lat="59.0720476091" lon="29.9701513093"><ele>100.886</ele><time>2026-04-25T11:23:47.000Z</time><hdop>3.812</hdop><vdop>3.812</vdop><extensions><gom:speed>0.0</gom:speed></extensions></trkpt>
   <trkpt lat="59.0720476091" lon="29.9701513093"><ele>100.886</ele><time>2026-04-25T11:23:48.000Z</time><hdop>3.812</hdop><vdop>3.812</vdop><extensions><gom:speed>0.0</gom:speed></extensions></trkpt>
   <trkpt lat="59.0720476091" lon="29.9701513093"><ele>100.886</ele><time>2026-04-25T11:23:49.000Z</time><hdop>3.812</hdop><vdop>3.812</vdop><extensions><gom:speed>0.0</gom:speed></extensions></trkpt>
   <trkpt lat="59.0720476091" lon="29.9701513093"><ele>100.886</ele><time>2026-04-25T11:23:50.000Z</time><hdop>3.812</hdop><vdop>3.812</vdop><extensions><gom:speed>0.0</gom:speed></extensions></trkpt>
   <trkpt lat="59.0720476091" lon="29.9701513093"><ele>100.886</ele><time>2026-04-25T11:23:51.000Z</time><hdop>3.812</hdop><vdop>3.812</vdop><extensions><gom:speed>0.0</gom:speed></extensions></trkpt>
   <trkpt lat="59.0720476091" lon="29.9701513093"><ele>100.886</ele><time>2026-04-25T11:23:52.000Z</time><hdop>3.812</hdop><vdop>3.812</vdop><extensions><gom:speed>0.0</gom:speed></extensions></trkpt>
   <trkpt lat="59.0720476091" lon="29.9701513093"><ele>100.886</ele><time>2026-04-25T11:23:53.000Z</time><hdop>3.812</hdop><vdop>3.812</vdop><extensions><gom:speed>0.0</gom:speed></extensions></trkpt>
   <trkpt lat="59.0720476091" lon="29.9701513093"><ele>100.886</ele><time>2026-04-25T11:23:53.000Z</time><hdop>3.812</hdop><vdop>3.812</vdop><extensions><gom:speed>0.0</gom:speed></extensions></trkpt>
   <trkpt lat="59.0720476091" lon="29.9701513093"><ele>100.886</ele><time>2026-04-25T11:23:54.000Z</time><hdop>3.812</hdop><vdop>3.812</vdop><extensions><gom:speed>0.0</gom:speed></extensions></trkpt>
   <trkpt lat="59.0720476091" lon="29.9701513093"><ele>100.886</ele><time>2026-04-25T11:23:55.000Z</time><hdop>3.812</hdop><vdop>3.812</vdop><extensions><gom:speed>0.0</gom:speed></extensions></trkpt>
   <trkpt lat="59.0720476091" lon="29.9701513093"><ele>100.886</ele><time>2026-04-25T11:23:56.000Z</time><hdop>3.812</hdop><vdop>3.812</vdop><extensions><gom:speed>0.0</gom:speed></extensions></trkpt>
   <trkpt lat="59.0720476091" lon="29.9701513093"><ele>100.886</ele><time>2026-04-25T11:23:57.000Z</time><hdop>3.812</hdop><vdop>3.812</vdop><extensions><gom:speed>0.0</gom:speed></extensions></trkpt>
   <trkpt lat="59.0720476091" lon="29.9701513093"><ele>100.886</ele><time>2026-04-25T11:23:58.000Z</time><hdop>3.812</hdop><vdop>3.812</vdop><extensions><gom:speed>0.0</gom:speed></extensions></trkpt>
   <trkpt lat="59.0720476091" lon="29.9701513093"><ele>100.886</ele><time>2026-04-25T11:23:59.000Z</time><hdop>3.812</hdop><vdop>3.812</vdop><extensions><gom:speed>0.0</gom:speed></extensions></trkpt>
   <trkpt lat="59.0720476091" lon="29.9701513093"><ele>100.886</ele><time>2026-04-25T11:24:00.000Z</time><hdop>3.812</hdop><vdop>3.812</vdop><extensions><gom:speed>0.0</gom:speed></extensions></trkpt>
   <trkpt lat="59.0720526802" lon="29.970149633"><ele>100.846</ele><time>2026-04-25T11:24:01.000Z</time><hdop>3.75</hdop><vdop>3.75</vdop><extensions><gom:speed>0.296</gom:speed></extensions></trkpt>
   <trkpt lat="59.0720526802" lon="29.970149633"><ele>100.822</ele><time>2026-04-25T11:24:02.000Z</time><hdop>3.75</hdop><vdop>3.75</vdop><extensions><gom:speed>0.0</gom:speed></extensions></trkpt>
   <trkpt lat="59.0720526802" lon="29.970149633"><ele>100.808</ele><time>2026-04-25T11:24:03.000Z</time><hdop>3.75</hdop><vdop>3.75</vdop><extensions><gom:speed>0.0</gom:speed></extensions></trkpt>
   <trkpt lat="59.0720526802" lon="29.970149633"><ele>100.8</ele><time>2026-04-25T11:24:04.000Z</time><hdop>3.75</hdop><vdop>3.75</vdop><extensions><gom:speed>0.0</gom:speed></extensions></trkpt>
   <trkpt lat="59.0720526802" lon="29.970149633"><ele>100.795</ele><time>2026-04-25T11:24:05.000Z</time><hdop>3.75</hdop><vdop>3.75</vdop><extensions><gom:speed>0.0</gom:speed></extensions></trkpt>
   <trkpt lat="59.0720572902" lon="29.9701502197"><ele>100.815</ele><time>2026-04-25T11:24:06.000Z</time><hdop>4.062</hdop><vdop>4.062</vdop><extensions><gom:speed>0.211</gom:speed></extensions></trkpt>
   <trkpt lat="59.0720639119" lon="29.9701546621"><ele>100.789</ele><time>2026-04-25T11:24:07.000Z</time><hdop>3.562</hdop><vdop>3.562</vdop><extensions><gom:speed>0.344</gom:speed></extensions></trkpt>
   <trkpt lat="59.0720745569" lon="29.9701577634"><ele>100.921</ele><time>2026-04-25T11:24:08.000Z</time><hdop>3.312</hdop><vdop>3.312</vdop><extensions><gom:speed>0.417</gom:speed></extensions></trkpt>
   <trkpt lat="59.072084238" lon="29.9701633793"><ele>100.963</ele><time>2026-04-25T11:24:09.000Z</time><hdop>3.312</hdop><vdop>3.312</vdop><extensions><gom:speed>0.325</gom:speed></extensions></trkpt>
   <trkpt lat="59.0720885966" lon="29.9701672349"><ele>100.688</ele><time>2026-04-25T11:24:10.000Z</time><hdop>3.187</hdop><vdop>3.187</vdop><extensions><gom:speed>0.216</gom:speed></extensions></trkpt>
   <trkpt lat="59.0720899377" lon="29.9701695819"><ele>100.462</ele><time>2026-04-25T11:24:11.000Z</time><hdop>3.0</hdop><vdop>3.0</vdop><extensions><gom:speed>0.192</gom:speed></extensions></trkpt>
   <trkpt lat="59.0720899377" lon="29.9701695819"><ele>100.326</ele><time>2026-04-25T11:24:12.000Z</time><hdop>3.0</hdop><vdop>3.0</vdop><extensions><gom:speed>0.0</gom:speed></extensions></trkpt>
   <trkpt lat="59.0720899377" lon="29.9701695819"><ele>100.245</ele><time>2026-04-25T11:24:13.000Z</time><hdop>3.0</hdop><vdop>3.0</vdop><extensions><gom:speed>0.0</gom:speed></extensions></trkpt>
   <trkpt lat="59.0720899377" lon="29.9701695819"><ele>100.197</ele><time>2026-04-25T11:24:13.000Z</time><hdop>3.0</hdop><vdop>3.0</vdop><extensions><gom:speed>0.0</gom:speed></extensions></trkpt>
   <trkpt lat="59.0720899377" lon="29.9701695819"><ele>100.168</ele><time>2026-04-25T11:24:14.000Z</time><hdop>3.0</hdop><vdop>3.0</vdop><extensions><gom:speed>0.0</gom:speed></extensions></trkpt>
   <trkpt lat="59.0720899377" lon="29.9701695819"><ele>100.15</ele><time>2026-04-25T11:24:15.000Z</time><hdop>3.0</hdop><vdop>3.0</vdop><extensions><gom:speed>0.0</gom:speed></extensions></trkpt>
   <trkpt lat="59.0720899377" lon="29.9701695819"><ele>100.14</ele><time>2026-04-25T11:24:16.000Z</time><hdop>3.0</hdop><vdop>3.0</vdop><extensions><gom:speed>0.0</gom:speed></extensions></trkpt>
   <trkpt lat="59.0720899377" lon="29.9701695819"><ele>100.134</ele><time>2026-04-25T11:24:17.000Z</time><hdop>3.0</hdop><vdop>3.0</vdop><extensions><gom:speed>0.0</gom:speed></extensions></trkpt>
   <trkpt lat="59.0720899377" lon="29.9701695819"><ele>100.13</ele><time>2026-04-25T11:24:18.000Z</time><hdop>3.0</hdop><vdop>3.0</vdop><extensions><gom:speed>0.0</gom:speed></extensions></trkpt>
   <trkpt lat="59.0720899377" lon="29.9701695819"><ele>100.128</ele><time>2026-04-25T11:24:19.000Z</time><hdop>3.0</hdop><vdop>3.0</vdop><extensions><gom:speed>0.0</gom:speed></extensions></trkpt>
   <trkpt lat="59.0720899377" lon="29.9701695819"><ele>100.127</ele><time>2026-04-25T11:24:20.000Z</time><hdop>3.0</hdop><vdop>3.0</vdop><extensions><gom:speed>0.0</gom:speed></extensions></trkpt>
   <trkpt lat="59.0720899377" lon="29.9701695819"><ele>100.126</ele><time>2026-04-25T11:24:21.000Z</time><hdop>3.0</hdop><vdop>3.0</vdop><extensions><gom:speed>0.0</gom:speed></extensions></trkpt>
   <trkpt lat="59.0720899377" lon="29.9701695819"><ele>100.125</ele><time>2026-04-25T11:24:22.000Z</time><hdop>3.0</hdop><vdop>3.0</vdop><extensions><gom:speed>0.0</gom:speed></extensions></trkpt>
   <trkpt lat="59.0720899377" lon="29.9701695819"><ele>100.125</ele><time>2026-04-25T11:24:23.000Z</time><hdop>3.0</hdop><vdop>3.0</vdop><extensions><gom:speed>0.0</gom:speed></extensions></trkpt>
   <trkpt lat="59.0720899377" lon="29.9701695819"><ele>100.125</ele><time>2026-04-25T11:24:24.000Z</time><hdop>3.0</hdop><vdop>3.0</vdop><extensions><gom:speed>0.0</gom:speed></extensions></trkpt>
   <trkpt lat="59.0720899377" lon="29.9701695819"><ele>100.125</ele><time>2026-04-25T11:24:25.000Z</time><hdop>3.0</hdop><vdop>3.0</vdop><extensions><gom:speed>0.0</gom:speed></extensions></trkpt>
   <trkpt lat="59.0720899377" lon="29.9701695819"><ele>100.125</ele><time>2026-04-25T11:24:26.000Z</time><hdop>3.0</hdop><vdop>3.0</vdop><extensions><gom:speed>0.0</gom:speed></extensions></trkpt>
   <trkpt lat="59.0720899377" lon="29.9701695819"><ele>100.125</ele><time>2026-04-25T11:24:27.000Z</time><hdop>3.0</hdop><vdop>3.0</vdop><extensions><gom:speed>0.0</gom:speed></extensions></trkpt>
   <trkpt lat="59.0720899377" lon="29.9701695819"><ele>100.125</ele><time>2026-04-25T11:24:28.000Z</time><hdop>3.0</hdop><vdop>3.0</vdop><extensions><gom:speed>0.0</gom:speed></extensions></trkpt>
   <trkpt lat="59.0720899377" lon="29.9701695819"><ele>100.125</ele><time>2026-04-25T11:24:29.000Z</time><hdop>3.0</hdop><vdop>3.0</vdop><extensions><gom:speed>0.0</gom:speed></extensions></trkpt>
   <trkpt lat="59.0720899377" lon="29.9701695819"><ele>100.125</ele><time>2026-04-25T11:24:30.000Z</time><hdop>3.0</hdop><vdop>3.0</vdop><extensions><gom:speed>0.0</gom:speed></extensions></trkpt>
   <trkpt lat="59.0720899377" lon="29.9701695819"><ele>100.125</ele><time>2026-04-25T11:24:31.000Z</time><hdop>3.0</hdop><vdop>3.0</vdop><extensions><gom:speed>0.0</gom:speed></extensions></trkpt>
   <trkpt lat="59.0720899377" lon="29.9701695819"><ele>100.125</ele><time>2026-04-25T11:24:32.000Z</time><hdop>3.0</hdop><vdop>3.0</vdop><extensions><gom:speed>0.0</gom:speed></extensions></trkpt>
   <trkpt lat="59.0720899377" lon="29.9701695819"><ele>100.125</ele><time>2026-04-25T11:24:33.000Z</time><hdop>3.0</hdop><vdop>3.0</vdop><extensions><gom:speed>0.0</gom:speed></extensions></trkpt>
   <trkpt lat="59.0720899377" lon="29.9701695819"><ele>100.125</ele><time>2026-04-25T11:24:33.000Z</time><hdop>3.0</hdop><vdop>3.0</vdop><extensions><gom:speed>0.0</gom:speed></extensions></trkpt>
   <trkpt lat="59.0720899377" lon="29.9701695819"><ele>100.125</ele><time>2026-04-25T11:24:34.000Z</time><hdop>3.0</hdop><vdop>3.0</vdop><extensions><gom:speed>0.0</gom:speed></extensions></trkpt>
   <trkpt lat="59.0720899377" lon="29.9701695819"><ele>100.125</ele><time>2026-04-25T11:24:35.000Z</time><hdop>3.0</hdop><vdop>3.0</vdop><extensions><gom:speed>0.0</gom:speed></extensions></trkpt>
   <trkpt lat="59.0720899377" lon="29.9701695819"><ele>100.125</ele><time>2026-04-25T11:24:36.000Z</time><hdop>3.0</hdop><vdop>3.0</vdop><extensions><gom:speed>0.0</gom:speed></extensions></trkpt>
   <trkpt lat="59.0720899377" lon="29.9701695819"><ele>100.125</ele><time>2026-04-25T11:24:37.000Z</time><hdop>3.0</hdop><vdop>3.0</vdop><extensions><gom:speed>0.0</gom:speed></extensions></trkpt>
   <trkpt lat="59.0720899377" lon="29.9701695819"><ele>100.125</ele><time>2026-04-25T11:24:38.000Z</time><hdop>3.0</hdop><vdop>3.0</vdop><extensions><gom:speed>0.0</gom:speed></extensions></trkpt>
   <trkpt lat="59.0720899377" lon="29.9701695819"><ele>100.125</ele><time>2026-04-25T11:24:39.000Z</time><hdop>3.0</hdop><vdop>3.0</vdop><extensions><gom:speed>0.0</gom:speed></extensions></trkpt>
   <trkpt lat="59.0720899377" lon="29.9701695819"><ele>100.125</ele><time>2026-04-25T11:24:40.000Z</time><hdop>3.0</hdop><vdop>3.0</vdop><extensions><gom:speed>0.0</gom:speed></extensions></trkpt>
   <trkpt lat="59.0720914465" lon="29.970167654"><ele>100.203</ele><time>2026-04-25T11:24:41.000Z</time><hdop>4.062</hdop><vdop>4.062</vdop><extensions><gom:speed>0.161</gom:speed></extensions></trkpt>
   <trkpt lat="59.0720914465" lon="29.970167654"><ele>100.25</ele><time>2026-04-25T11:24:42.000Z</time><hdop>4.062</hdop><vdop>4.062</vdop><extensions><gom:speed>0.0</gom:speed></extensions></trkpt>
   <trkpt lat="59.0720914465" lon="29.970167654"><ele>100.278</ele><time>2026-04-25T11:24:43.000Z</time><hdop>4.062</hdop><vdop>4.062</vdop><extensions><gom:speed>0.0</gom:speed></extensions></trkpt>
   <trkpt lat="59.0720914465" lon="29.970167654"><ele>100.294</ele><time>2026-04-25T11:24:44.000Z</time><hdop>4.062</hdop><vdop>4.062</vdop><extensions><gom:speed>0.0</gom:speed></extensions></trkpt>
   <trkpt lat="59.0720914465" lon="29.970167654"><ele>100.304</ele><time>2026-04-25T11:24:45.000Z</time><hdop>4.062</hdop><vdop>4.062</vdop><extensions><gom:speed>0.0</gom:speed></extensions></trkpt>
   <trkpt lat="59.0720914465" lon="29.970167654"><ele>100.31</ele><time>2026-04-25T11:24:46.000Z</time><hdop>4.062</hdop><vdop>4.062</vdop><extensions><gom:speed>0.0</gom:speed></extensions></trkpt>
   <trkpt lat="59.0720914465" lon="29.970167654"><ele>100.314</ele><time>2026-04-25T11:24:47.000Z</time><hdop>4.062</hdop><vdop>4.062</vdop><extensions><gom:speed>0.0</gom:speed></extensions></trkpt>
   <trkpt lat="59.0720914465" lon="29.970167654"><ele>100.316</ele><time>2026-04-25T11:24:48.000Z</time><hdop>4.062</hdop><vdop>4.062</vdop><extensions><gom:speed>0.0</gom:speed></extensions></trkpt>
   <trkpt lat="59.0720914465" lon="29.970167654"><ele>100.317</ele><time>2026-04-25T11:24:49.000Z</time><hdop>4.062</hdop><vdop>4.062</vdop><extensions><gom:speed>0.0</gom:speed></extensions></trkpt>
   <trkpt lat="59.0720914465" lon="29.970167654"><ele>100.318</ele><time>2026-04-25T11:24:50.000Z</time><hdop>4.062</hdop><vdop>4.062</vdop><extensions><gom:speed>0.0</gom:speed></extensions></trkpt>
   <trkpt lat="59.0720914465" lon="29.970167654"><ele>100.319</ele><time>2026-04-25T11:24:51.000Z</time><hdop>4.062</hdop><vdop>4.062</vdop><extensions><gom:speed>0.0</gom:speed></extensions></trkpt>
   <trkpt lat="59.0720914465" lon="29.970167654"><ele>100.319</ele><time>2026-04-25T11:24:52.000Z</time><hdop>4.062</hdop><vdop>4.062</vdop><extensions><gom:speed>0.0</gom:speed></extensions></trkpt>
   <trkpt lat="59.0720914465" lon="29.970167654"><ele>100.319</ele><time>2026-04-25T11:24:53.000Z</time><hdop>4.062</hdop><vdop>4.062</vdop><extensions><gom:speed>0.0</gom:speed></extensions></trkpt>
   <trkpt lat="59.0720914465" lon="29.970167654"><ele>100.319</ele><time>2026-04-25T11:24:53.000Z</time><hdop>4.062</hdop><vdop>4.062</vdop><extensions><gom:speed>0.0</gom:speed></extensions></trkpt>
   <trkpt lat="59.0720914465" lon="29.970167654"><ele>100.319</ele><time>2026-04-25T11:24:54.000Z</time><hdop>4.062</hdop><vdop>4.062</vdop><extensions><gom:speed>0.0</gom:speed></extensions></trkpt>
   <trkpt lat="59.0720914465" lon="29.970167654"><ele>100.319</ele><time>2026-04-25T11:24:55.000Z</time><hdop>4.062</hdop><vdop>4.062</vdop><extensions><gom:speed>0.0</gom:speed></extensions></trkpt>
   <trkpt lat="59.0720914465" lon="29.970167654"><ele>100.319</ele><time>2026-04-25T11:24:56.000Z</time><hdop>4.062</hdop><vdop>4.062</vdop><extensions><gom:speed>0.0</gom:speed></extensions></trkpt>
   <trkpt lat="59.0720945059" lon="29.9701612"><ele>100.26</ele><time>2026-04-25T11:24:57.000Z</time><hdop>4.062</hdop><vdop>4.062</vdop><extensions><gom:speed>0.161</gom:speed></extensions></trkpt>
   <trkpt lat="59.0721005408" lon="29.9701568414"><ele>100.222</ele><time>2026-04-25T11:24:58.000Z</time><hdop>4.312</hdop><vdop>4.312</vdop><extensions><gom:speed>0.358</gom:speed></extensions></trkpt>
   <trkpt lat="59.0721094256" lon="29.9701520637"><ele>100.166</ele><time>2026-04-25T11:24:59.000Z</time><hdop>4.437</hdop><vdop>4.437</vdop><extensions><gom:speed>0.714</gom:speed></extensions></trkpt>
   <trkpt lat="59.0721185619" lon="29.9701458611"><ele>100.097</ele><time>2026-04-25T11:25:00.000Z</time><hdop>4.25</hdop><vdop>4.25</vdop><extensions><gom:speed>0.915</gom:speed></extensions></trkpt>
   <trkpt lat="59.0721240521" lon="29.9701377306"><ele>100.0</ele><time>2026-04-25T11:25:01.000Z</time><hdop>4.0</hdop><vdop>4.0</vdop><extensions><gom:speed>0.244</gom:speed></extensions></trkpt>
   <trkpt lat="59.0721245131" lon="29.9701314442"><ele>99.839</ele><time>2026-04-25T11:25:02.000Z</time><hdop>3.562</hdop><vdop>3.562</vdop><extensions><gom:speed>0.22</gom:speed></extensions></trkpt>
   <trkpt lat="59.072122711" lon="29.9701330368"><ele>99.699</ele><time>2026-04-25T11:25:03.000Z</time><hdop>3.5</hdop><vdop>3.5</vdop><extensions><gom:speed>0.1</gom:speed></extensions></trkpt>
   <trkpt lat="59.072122711" lon="29.9701330368"><ele>99.615</ele><time>2026-04-25T11:25:04.000Z</time><hdop>3.5</hdop><vdop>3.5</vdop><extensions><gom:speed>0.0</gom:speed></extensions></trkpt>
   <trkpt lat="59.072122711" lon="29.9701330368"><ele>99.565</ele><time>2026-04-25T11:25:05.000Z</time><hdop>3.5</hdop><vdop>3.5</vdop><extensions><gom:speed>0.0</gom:speed></extensions></trkpt>
   <trkpt lat="59.072122711" lon="29.9701330368"><ele>99.535</ele><time>2026-04-25T11:25:06.000Z</time><hdop>3.5</hdop><vdop>3.5</vdop><extensions><gom:speed>0.0</gom:speed></extensions></trkpt>
   <trkpt lat="59.072122711" lon="29.9701330368"><ele>99.517</ele><time>2026-04-25T11:25:07.000Z</time><hdop>3.5</hdop><vdop>3.5</vdop><extensions><gom:speed>0.0</gom:speed></extensions></trkpt>
   <trkpt lat="59.072122711" lon="29.9701330368"><ele>99.506</ele><time>2026-04-25T11:25:08.000Z</time><hdop>3.5</hdop><vdop>3.5</vdop><extensions><gom:speed>0.0</gom:speed></extensions></trkpt>
   <trkpt lat="59.072122711" lon="29.9701330368"><ele>99.5</ele><time>2026-04-25T11:25:09.000Z</time><hdop>3.5</hdop><vdop>3.5</vdop><extensions><gom:speed>0.0</gom:speed></extensions></trkpt>
   <trkpt lat="59.072122711" lon="29.9701330368"><ele>99.496</ele><time>2026-04-25T11:25:10.000Z</time><hdop>3.5</hdop><vdop>3.5</vdop><extensions><gom:speed>0.0</gom:speed></extensions></trkpt>
   <trkpt lat="59.072122711" lon="29.9701330368"><ele>99.494</ele><time>2026-04-25T11:25:11.000Z</time><hdop>3.5</hdop><vdop>3.5</vdop><extensions><gom:speed>0.0</gom:speed></extensions></trkpt>
   <trkpt lat="59.0721257284" lon="29.9701331206"><ele>99.488</ele><time>2026-04-25T11:25:12.000Z</time><hdop>3.312</hdop><vdop>3.312</vdop><extensions><gom:speed>0.414</gom:speed></extensions></trkpt>
   <trkpt lat="59.0721322663" lon="29.9701304384"><ele>99.434</ele><time>2026-04-25T11:25:13.000Z</time><hdop>3.312</hdop><vdop>3.312</vdop><extensions><gom:speed>0.603</gom:speed></extensions></trkpt>
   <trkpt lat="59.0721322663" lon="29.9701304384"><ele>99.402</ele><time>2026-04-25T11:25:13.000Z</time><hdop>3.312</hdop><vdop>3.312</vdop><extensions><gom:speed>0.603</gom:speed></extensions></trkpt>
   <trkpt lat="59.072141696" lon="29.9701277562"><ele>99.335</ele><time>2026-04-25T11:25:14.000Z</time><hdop>3.125</hdop><vdop>3.125</vdop><extensions><gom:speed>0.617</gom:speed></extensions></trkpt>
   <trkpt lat="59.0721488625" lon="29.9701253254"><ele>99.266</ele><time>2026-04-25T11:25:15.000Z</time><hdop>3.062</hdop><vdop>3.062</vdop><extensions><gom:speed>0.582</gom:speed></extensions></trkpt>
   <trkpt lat="59.0721563224" lon="29.970120883"><ele>99.287</ele><time>2026-04-25T11:25:16.000Z</time><hdop>3.0</hdop><vdop>3.0</vdop><extensions><gom:speed>0.605</gom:speed></extensions></trkpt>
   <trkpt lat="59.0721658778" lon="29.9701180332"><ele>99.375</ele><time>2026-04-25T11:25:17.000Z</time><hdop>3.0</hdop><vdop>3.0</vdop><extensions><gom:speed>0.284</gom:speed></extensions></trkpt>
   <trkpt lat="59.0721730862" lon="29.9701203801"><ele>99.406</ele><time>2026-04-25T11:25:18.000Z</time><hdop>3.0</hdop><vdop>3.0</vdop><extensions><gom:speed>0.328</gom:speed></extensions></trkpt>
   <trkpt lat="59.0721730862" lon="29.9701203801"><ele>99.425</ele><time>2026-04-25T11:25:19.000Z</time><hdop>3.0</hdop><vdop>3.0</vdop><extensions><gom:speed>0.0</gom:speed></extensions></trkpt>
   <trkpt lat="59.0721730862" lon="29.9701203801"><ele>99.436</ele><time>2026-04-25T11:25:20.000Z</time><hdop>3.0</hdop><vdop>3.0</vdop><extensions><gom:speed>0.0</gom:speed></extensions></trkpt>
   <trkpt lat="59.072178283" lon="29.9701133393"><ele>99.368</ele><time>2026-04-25T11:25:21.000Z</time><hdop>3.0</hdop><vdop>3.0</vdop><extensions><gom:speed>0.483</gom:speed></extensions></trkpt>
   <trkpt lat="59.0721846113" lon="29.9701030296"><ele>99.24</ele><time>2026-04-25T11:25:22.000Z</time><hdop>3.0</hdop><vdop>3.0</vdop><extensions><gom:speed>0.495</gom:speed></extensions></trkpt>
   <trkpt lat="59.0721937057" lon="29.9700954859"><ele>99.154</ele><time>2026-04-25T11:25:23.000Z</time><hdop>3.0</hdop><vdop>3.0</vdop><extensions><gom:speed>0.656</gom:speed></extensions></trkpt>
   <trkpt lat="59.0722022971" lon="29.9700896185"><ele>99.061</ele><time>2026-04-25T11:25:24.000Z</time><hdop>3.25</hdop><vdop>3.25</vdop><extensions><gom:speed>0.455</gom:speed></extensions></trkpt>
   <trkpt lat="59.0722102599" lon="29.970086601"><ele>99.076</ele><time>2026-04-25T11:25:25.000Z</time><hdop>3.562</hdop><vdop>3.562</vdop><extensions><gom:speed>0.425</gom:speed></extensions></trkpt>
   <trkpt lat="59.0722188514" lon="29.970083835"><ele>99.058</ele><time>2026-04-25T11:25:26.000Z</time><hdop>4.0</hdop><vdop>4.0</vdop><extensions><gom:speed>0.714</gom:speed></extensions></trkpt>
   <trkpt lat="59.0722308375" lon="29.9700773809"><ele>99.042</ele><time>2026-04-25T11:25:27.000Z</time><hdop>3.75</hdop><vdop>3.75</vdop><extensions><gom:speed>0.509</gom:speed></extensions></trkpt>
   <trkpt lat="59.0722414406" lon="29.9700805661"><ele>99.202</ele><time>2026-04-25T11:25:28.000Z</time><hdop>3.687</hdop><vdop>3.687</vdop><extensions><gom:speed>0.752</gom:speed></extensions></trkpt>
   <trkpt lat="59.0722551031" lon="29.9700798955"><ele>99.303</ele><time>2026-04-25T11:25:29.000Z</time><hdop>3.562</hdop><vdop>3.562</vdop><extensions><gom:speed>0.671</gom:speed></extensions></trkpt>
   <trkpt lat="59.0722643232" lon="29.9700762075"><ele>99.289</ele><time>2026-04-25T11:25:30.000Z</time><hdop>4.0</hdop><vdop>4.0</vdop><extensions><gom:speed>0.604</gom:speed></extensions></trkpt>
   <trkpt lat="59.07227413" lon="29.9700707592"><ele>99.341</ele><time>2026-04-25T11:25:31.000Z</time><hdop>3.687</hdop><vdop>3.687</vdop><extensions><gom:speed>0.88</gom:speed></extensions></trkpt>
   <trkpt lat="59.0722824281" lon="29.9700650595"><ele>99.426</ele><time>2026-04-25T11:25:32.000Z</time><hdop>3.812</hdop><vdop>3.812</vdop><extensions><gom:speed>0.323</gom:speed></extensions></trkpt>
   <trkpt lat="59.0722887984" lon="29.9700559233"><ele>99.515</ele><time>2026-04-25T11:25:33.000Z</time><hdop>3.75</hdop><vdop>3.75</vdop><extensions><gom:speed>0.571</gom:speed></extensions></trkpt>
   <trkpt lat="59.0722887984" lon="29.9700559233"><ele>99.569</ele><time>2026-04-25T11:25:33.000Z</time><hdop>3.75</hdop><vdop>3.75</vdop><extensions><gom:speed>0.571</gom:speed></extensions></trkpt>
   <trkpt lat="59.0722962583" lon="29.9700453621"><ele>99.6</ele><time>2026-04-25T11:25:34.000Z</time><hdop>3.937</hdop><vdop>3.937</vdop><extensions><gom:speed>0.743</gom:speed></extensions></trkpt>
   <trkpt lat="59.0723030057" lon="29.9700377345"><ele>99.621</ele><time>2026-04-25T11:25:35.000Z</time><hdop>4.0</hdop><vdop>4.0</vdop><extensions><gom:speed>0.441</gom:speed></extensions></trkpt>
   <trkpt lat="59.0723030057" lon="29.9700377345"><ele>99.633</ele><time>2026-04-25T11:25:36.000Z</time><hdop>4.0</hdop><vdop>4.0</vdop><extensions><gom:speed>0.0</gom:speed></extensions></trkpt>
   <trkpt lat="59.0723030057" lon="29.9700377345"><ele>99.64</ele><time>2026-04-25T11:25:37.000Z</time><hdop>4.0</hdop><vdop>4.0</vdop><extensions><gom:speed>0.0</gom:speed></extensions></trkpt>
   <trkpt lat="59.0723030057" lon="29.9700377345"><ele>99.645</ele><time>2026-04-25T11:25:38.000Z</time><hdop>4.0</hdop><vdop>4.0</vdop><extensions><gom:speed>0.0</gom:speed></extensions></trkpt>
   <trkpt lat="59.0723030057" lon="29.9700377345"><ele>99.647</ele><time>2026-04-25T11:25:39.000Z</time><hdop>4.0</hdop><vdop>4.0</vdop><extensions><gom:speed>0.0</gom:speed></extensions></trkpt>
   <trkpt lat="59.0723030057" lon="29.9700377345"><ele>99.649</ele><time>2026-04-25T11:25:40.000Z</time><hdop>4.0</hdop><vdop>4.0</vdop><extensions><gom:speed>0.0</gom:speed></extensions></trkpt>
   <trkpt lat="59.0723030057" lon="29.9700377345"><ele>99.65</ele><time>2026-04-25T11:25:41.000Z</time><hdop>4.0</hdop><vdop>4.0</vdop><extensions><gom:speed>0.0</gom:speed></extensions></trkpt>
   <trkpt lat="59.0723030057" lon="29.9700377345"><ele>99.65</ele><time>2026-04-25T11:25:42.000Z</time><hdop>4.0</hdop><vdop>4.0</vdop><extensions><gom:speed>0.0</gom:speed></extensions></trkpt>
   <trkpt lat="59.0723030057" lon="29.9700377345"><ele>99.651</ele><time>2026-04-25T11:25:43.000Z</time><hdop>4.0</hdop><vdop>4.0</vdop><extensions><gom:speed>0.0</gom:speed></extensions></trkpt>
   <trkpt lat="59.0723030057" lon="29.9700377345"><ele>99.651</ele><time>2026-04-25T11:25:44.000Z</time><hdop>4.0</hdop><vdop>4.0</vdop><extensions><gom:speed>0.0</gom:speed></extensions></trkpt>
   <trkpt lat="59.0723030057" lon="29.9700377345"><ele>99.651</ele><time>2026-04-25T11:25:45.000Z</time><hdop>4.0</hdop><vdop>4.0</vdop><extensions><gom:speed>0.0</gom:speed></extensions></trkpt>
   <trkpt lat="59.0723030057" lon="29.9700377345"><ele>99.651</ele><time>2026-04-25T11:25:46.000Z</time><hdop>4.0</hdop><vdop>4.0</vdop><extensions><gom:speed>0.0</gom:speed></extensions></trkpt>
   <trkpt lat="59.0723030057" lon="29.9700377345"><ele>99.651</ele><time>2026-04-25T11:25:47.000Z</time><hdop>4.0</hdop><vdop>4.0</vdop><extensions><gom:speed>0.0</gom:speed></extensions></trkpt>
   <trkpt lat="59.0723030057" lon="29.9700377345"><ele>99.651</ele><time>2026-04-25T11:25:48.000Z</time><hdop>4.0</hdop><vdop>4.0</vdop><extensions><gom:speed>0.0</gom:speed></extensions></trkpt>
   <trkpt lat="59.0723030057" lon="29.9700377345"><ele>99.651</ele><time>2026-04-25T11:25:49.000Z</time><hdop>4.0</hdop><vdop>4.0</vdop><extensions><gom:speed>0.0</gom:speed></extensions></trkpt>
   <trkpt lat="59.0723030057" lon="29.9700377345"><ele>99.651</ele><time>2026-04-25T11:25:50.000Z</time><hdop>4.0</hdop><vdop>4.0</vdop><extensions><gom:speed>0.0</gom:speed></extensions></trkpt>
   <trkpt lat="59.0723030057" lon="29.9700377345"><ele>99.651</ele><time>2026-04-25T11:25:51.000Z</time><hdop>4.0</hdop><vdop>4.0</vdop><extensions><gom:speed>0.0</gom:speed></extensions></trkpt>
   <trkpt lat="59.0723030057" lon="29.9700377345"><ele>99.651</ele><time>2026-04-25T11:25:52.000Z</time><hdop>4.0</hdop><vdop>4.0</vdop><extensions><gom:speed>0.0</gom:speed></extensions></trkpt>
   <trkpt lat="59.0723030057" lon="29.9700377345"><ele>99.651</ele><time>2026-04-25T11:25:53.000Z</time><hdop>4.0</hdop><vdop>4.0</vdop><extensions><gom:speed>0.0</gom:speed></extensions></trkpt>
   <trkpt lat="59.0723030057" lon="29.9700377345"><ele>99.651</ele><time>2026-04-25T11:25:53.000Z</time><hdop>4.0</hdop><vdop>4.0</vdop><extensions><gom:speed>0.0</gom:speed></extensions></trkpt>
   <trkpt lat="59.0723030057" lon="29.9700377345"><ele>99.651</ele><time>2026-04-25T11:25:54.000Z</time><hdop>4.0</hdop><vdop>4.0</vdop><extensions><gom:speed>0.0</gom:speed></extensions></trkpt>
   <trkpt lat="59.0723030057" lon="29.9700377345"><ele>99.651</ele><time>2026-04-25T11:25:55.000Z</time><hdop>4.0</hdop><vdop>4.0</vdop><extensions><gom:speed>0.0</gom:speed></extensions></trkpt>
   <trkpt lat="59.0723030057" lon="29.9700377345"><ele>99.651</ele><time>2026-04-25T11:25:56.000Z</time><hdop>4.0</hdop><vdop>4.0</vdop><extensions><gom:speed>0.0</gom:speed></extensions></trkpt>
   <trkpt lat="59.0723030057" lon="29.9700377345"><ele>99.651</ele><time>2026-04-25T11:25:57.000Z</time><hdop>4.0</hdop><vdop>4.0</vdop><extensions><gom:speed>0.0</gom:speed></extensions></trkpt>
   <trkpt lat="59.0723030057" lon="29.9700377345"><ele>99.651</ele><time>2026-04-25T11:25:58.000Z</time><hdop>4.0</hdop><vdop>4.0</vdop><extensions><gom:speed>0.0</gom:speed></extensions></trkpt>
   <trkpt lat="59.0723030057" lon="29.9700377345"><ele>99.651</ele><time>2026-04-25T11:25:59.000Z</time><hdop>4.0</hdop><vdop>4.0</vdop><extensions><gom:speed>0.0</gom:speed></extensions></trkpt>
   <trkpt lat="59.0723030057" lon="29.9700377345"><ele>99.651</ele><time>2026-04-25T11:26:00.000Z</time><hdop>4.0</hdop><vdop>4.0</vdop><extensions><gom:speed>0.0</gom:speed></extensions></trkpt>
   <trkpt lat="59.0723030057" lon="29.9700377345"><ele>99.651</ele><time>2026-04-25T11:26:01.000Z</time><hdop>4.0</hdop><vdop>4.0</vdop><extensions><gom:speed>0.0</gom:speed></extensions></trkpt>
   <trkpt lat="59.0723030057" lon="29.9700377345"><ele>99.651</ele><time>2026-04-25T11:26:02.000Z</time><hdop>4.0</hdop><vdop>4.0</vdop><extensions><gom:speed>0.0</gom:speed></extensions></trkpt>
   <trkpt lat="59.0723030057" lon="29.9700377345"><ele>99.651</ele><time>2026-04-25T11:26:03.000Z</time><hdop>4.0</hdop><vdop>4.0</vdop><extensions><gom:speed>0.0</gom:speed></extensions></trkpt>
   <trkpt lat="59.0723030057" lon="29.9700377345"><ele>99.651</ele><time>2026-04-25T11:26:04.000Z</time><hdop>4.0</hdop><vdop>4.0</vdop><extensions><gom:speed>0.0</gom:speed></extensions></trkpt>
   <trkpt lat="59.0723030057" lon="29.9700377345"><ele>99.651</ele><time>2026-04-25T11:26:05.000Z</time><hdop>4.0</hdop><vdop>4.0</vdop><extensions><gom:speed>0.0</gom:speed></extensions></trkpt>
   <trkpt lat="59.0723030057" lon="29.9700377345"><ele>99.651</ele><time>2026-04-25T11:26:06.000Z</time><hdop>4.0</hdop><vdop>4.0</vdop><extensions><gom:speed>0.0</gom:speed></extensions></trkpt>
   <trkpt lat="59.0723030057" lon="29.9700377345"><ele>99.651</ele><time>2026-04-25T11:26:07.000Z</time><hdop>4.0</hdop><vdop>4.0</vdop><extensions><gom:speed>0.0</gom:speed></extensions></trkpt>
   <trkpt lat="59.0723030057" lon="29.9700377345"><ele>99.651</ele><time>2026-04-25T11:26:08.000Z</time><hdop>4.0</hdop><vdop>4.0</vdop><extensions><gom:speed>0.0</gom:speed></extensions></trkpt>
   <trkpt lat="59.0723030057" lon="29.9700377345"><ele>99.651</ele><time>2026-04-25T11:26:09.000Z</time><hdop>4.0</hdop><vdop>4.0</vdop><extensions><gom:speed>0.0</gom:speed></extensions></trkpt>
   <trkpt lat="59.0723030057" lon="29.9700377345"><ele>99.651</ele><time>2026-04-25T11:26:10.000Z</time><hdop>4.0</hdop><vdop>4.0</vdop><extensions><gom:speed>0.0</gom:speed></extensions></trkpt>
   <trkpt lat="59.0723030057" lon="29.9700377345"><ele>99.651</ele><time>2026-04-25T11:26:11.000Z</time><hdop>4.0</hdop><vdop>4.0</vdop><extensions><gom:speed>0.0</gom:speed></extensions></trkpt>
   <trkpt lat="59.0723030057" lon="29.9700377345"><ele>99.651</ele><time>2026-04-25T11:26:12.000Z</time><hdop>4.0</hdop><vdop>4.0</vdop><extensions><gom:speed>0.0</gom:speed></extensions></trkpt>
   <trkpt lat="59.0723030057" lon="29.9700377345"><ele>99.651</ele><time>2026-04-25T11:26:13.000Z</time><hdop>4.0</hdop><vdop>4.0</vdop><extensions><gom:speed>0.0</gom:speed></extensions></trkpt>
   <trkpt lat="59.0723030057" lon="29.9700377345"><ele>99.651</ele><time>2026-04-25T11:26:13.000Z</time><hdop>4.0</hdop><vdop>4.0</vdop><extensions><gom:speed>0.0</gom:speed></extensions></trkpt>
   <trkpt lat="59.0723030057" lon="29.9700377345"><ele>99.651</ele><time>2026-04-25T11:26:14.000Z</time><hdop>4.0</hdop><vdop>4.0</vdop><extensions><gom:speed>0.0</gom:speed></extensions></trkpt>
   <trkpt lat="59.0723030057" lon="29.9700377345"><ele>99.651</ele><time>2026-04-25T11:26:15.000Z</time><hdop>4.0</hdop><vdop>4.0</vdop><extensions><gom:speed>0.0</gom:speed></extensions></trkpt>
   <trkpt lat="59.0723030057" lon="29.9700377345"><ele>99.651</ele><time>2026-04-25T11:26:16.000Z</time><hdop>4.0</hdop><vdop>4.0</vdop><extensions><gom:speed>0.0</gom:speed></extensions></trkpt>
   <trkpt lat="59.0723030057" lon="29.9700377345"><ele>99.651</ele><time>2026-04-25T11:26:17.000Z</time><hdop>4.0</hdop><vdop>4.0</vdop><extensions><gom:speed>0.0</gom:speed></extensions></trkpt>
   <trkpt lat="59.0723030057" lon="29.9700377345"><ele>99.651</ele><time>2026-04-25T11:26:18.000Z</time><hdop>4.0</hdop><vdop>4.0</vdop><extensions><gom:speed>0.0</gom:speed></extensions></trkpt>
   <trkpt lat="59.0723030057" lon="29.9700377345"><ele>99.651</ele><time>2026-04-25T11:26:19.000Z</time><hdop>4.0</hdop><vdop>4.0</vdop><extensions><gom:speed>0.0</gom:speed></extensions></trkpt>
   <trkpt lat="59.0723030057" lon="29.9700377345"><ele>99.651</ele><time>2026-04-25T11:26:20.000Z</time><hdop>4.0</hdop><vdop>4.0</vdop><extensions><gom:speed>0.0</gom:speed></extensions></trkpt>
   <trkpt lat="59.0723030057" lon="29.9700377345"><ele>99.651</ele><time>2026-04-25T11:26:21.000Z</time><hdop>4.0</hdop><vdop>4.0</vdop><extensions><gom:speed>0.0</gom:speed></extensions></trkpt>
   <trkpt lat="59.0723030057" lon="29.9700377345"><ele>99.651</ele><time>2026-04-25T11:26:22.000Z</time><hdop>4.0</hdop><vdop>4.0</vdop><extensions><gom:speed>0.0</gom:speed></extensions></trkpt>
   <trkpt lat="59.0723030057" lon="29.9700377345"><ele>99.651</ele><time>2026-04-25T11:26:23.000Z</time><hdop>4.0</hdop><vdop>4.0</vdop><extensions><gom:speed>0.0</gom:speed></extensions></trkpt>
   <trkpt lat="59.0723030057" lon="29.9700377345"><ele>99.651</ele><time>2026-04-25T11:26:24.000Z</time><hdop>4.0</hdop><vdop>4.0</vdop><extensions><gom:speed>0.0</gom:speed></extensions></trkpt>
   <trkpt lat="59.0723030057" lon="29.9700377345"><ele>99.651</ele><time>2026-04-25T11:26:25.000Z</time><hdop>4.0</hdop><vdop>4.0</vdop><extensions><gom:speed>0.0</gom:speed></extensions></trkpt>
   <trkpt lat="59.0723030057" lon="29.9700377345"><ele>99.651</ele><time>2026-04-25T11:26:26.000Z</time><hdop>4.0</hdop><vdop>4.0</vdop><extensions><gom:speed>0.0</gom:speed></extensions></trkpt>
   <trkpt lat="59.0723030057" lon="29.9700377345"><ele>99.651</ele><time>2026-04-25T11:26:27.000Z</time><hdop>4.0</hdop><vdop>4.0</vdop><extensions><gom:speed>0.0</gom:speed></extensions></trkpt>
   <trkpt lat="59.0723030057" lon="29.9700377345"><ele>99.651</ele><time>2026-04-25T11:26:28.000Z</time><hdop>4.0</hdop><vdop>4.0</vdop><extensions><gom:speed>0.0</gom:speed></extensions></trkpt>
   <trkpt lat="59.0723030057" lon="29.9700377345"><ele>99.651</ele><time>2026-04-25T11:26:29.000Z</time><hdop>4.0</hdop><vdop>4.0</vdop><extensions><gom:speed>0.0</gom:speed></extensions></trkpt>
   <trkpt lat="59.0723030057" lon="29.9700377345"><ele>99.651</ele><time>2026-04-25T11:26:30.000Z</time><hdop>4.0</hdop><vdop>4.0</vdop><extensions><gom:speed>0.0</gom:speed></extensions></trkpt>
   <trkpt lat="59.0723030057" lon="29.9700377345"><ele>99.651</ele><time>2026-04-25T11:26:31.000Z</time><hdop>4.0</hdop><vdop>4.0</vdop><extensions><gom:speed>0.0</gom:speed></extensions></trkpt>
   <trkpt lat="59.0723030057" lon="29.9700377345"><ele>99.651</ele><time>2026-04-25T11:26:32.000Z</time><hdop>4.0</hdop><vdop>4.0</vdop><extensions><gom:speed>0.0</gom:speed></extensions></trkpt>
   <trkpt lat="59.0723030057" lon="29.9700377345"><ele>99.651</ele><time>2026-04-25T11:26:33.000Z</time><hdop>4.0</hdop><vdop>4.0</vdop><extensions><gom:speed>0.0</gom:speed></extensions></trkpt>
   <trkpt lat="59.0723030057" lon="29.9700377345"><ele>99.651</ele><time>2026-04-25T11:26:34.000Z</time><hdop>4.0</hdop><vdop>4.0</vdop><extensions><gom:speed>0.0</gom:speed></extensions></trkpt>
   <trkpt lat="59.0723030057" lon="29.9700377345"><ele>99.651</ele><time>2026-04-25T11:26:34.000Z</time><hdop>4.0</hdop><vdop>4.0</vdop><extensions><gom:speed>0.0</gom:speed></extensions></trkpt>
   <trkpt lat="59.0723030057" lon="29.9700377345"><ele>99.651</ele><time>2026-04-25T11:26:35.000Z</time><hdop>4.0</hdop><vdop>4.0</vdop><extensions><gom:speed>0.0</gom:speed></extensions></trkpt>
   <trkpt lat="59.0723030057" lon="29.9700377345"><ele>99.651</ele><time>2026-04-25T11:26:36.000Z</time><hdop>4.0</hdop><vdop>4.0</vdop><extensions><gom:speed>0.0</gom:speed></extensions></trkpt>
   <trkpt lat="59.0723030057" lon="29.9700377345"><ele>99.651</ele><time>2026-04-25T11:26:37.000Z</time><hdop>4.0</hdop><vdop>4.0</vdop><extensions><gom:speed>0.0</gom:speed></extensions></trkpt>
   <trkpt lat="59.0723030057" lon="29.9700377345"><ele>99.651</ele><time>2026-04-25T11:26:38.000Z</time><hdop>4.0</hdop><vdop>4.0</vdop><extensions><gom:speed>0.0</gom:speed></extensions></trkpt>
   <trkpt lat="59.0723030057" lon="29.9700377345"><ele>99.651</ele><time>2026-04-25T11:26:39.000Z</time><hdop>4.0</hdop><vdop>4.0</vdop><extensions><gom:speed>0.0</gom:speed></extensions></trkpt>
   <trkpt lat="59.0723030057" lon="29.9700377345"><ele>99.651</ele><time>2026-04-25T11:26:40.000Z</time><hdop>4.0</hdop><vdop>4.0</vdop><extensions><gom:speed>0.0</gom:speed></extensions></trkpt>
   <trkpt lat="59.0723030057" lon="29.9700377345"><ele>99.651</ele><time>2026-04-25T11:26:41.000Z</time><hdop>4.0</hdop><vdop>4.0</vdop><extensions><gom:speed>0.0</gom:speed></extensions></trkpt>
   <trkpt lat="59.0723030057" lon="29.9700377345"><ele>99.651</ele><time>2026-04-25T11:26:42.000Z</time><hdop>4.0</hdop><vdop>4.0</vdop><extensions><gom:speed>0.0</gom:speed></extensions></trkpt>
   <trkpt lat="59.0723030057" lon="29.9700377345"><ele>99.651</ele><time>2026-04-25T11:26:43.000Z</time><hdop>4.0</hdop><vdop>4.0</vdop><extensions><gom:speed>0.0</gom:speed></extensions></trkpt>
   <trkpt lat="59.0723030057" lon="29.9700377345"><ele>99.651</ele><time>2026-04-25T11:26:44.000Z</time><hdop>4.0</hdop><vdop>4.0</vdop><extensions><gom:speed>0.0</gom:speed></extensions></trkpt>
   <trkpt lat="59.0723030057" lon="29.9700377345"><ele>99.651</ele><time>2026-04-25T11:26:45.000Z</time><hdop>4.0</hdop><vdop>4.0</vdop><extensions><gom:speed>0.0</gom:speed></extensions></trkpt>
   <trkpt lat="59.0723030057" lon="29.9700377345"><ele>99.651</ele><time>2026-04-25T11:26:46.000Z</time><hdop>4.0</hdop><vdop>4.0</vdop><extensions><gom:speed>0.0</gom:speed></extensions></trkpt>
   <trkpt lat="59.0723030057" lon="29.9700377345"><ele>99.651</ele><time>2026-04-25T11:26:47.000Z</time><hdop>4.0</hdop><vdop>4.0</vdop><extensions><gom:speed>0.0</gom:speed></extensions></trkpt>
   <trkpt lat="59.0723030057" lon="29.9700377345"><ele>99.651</ele><time>2026-04-25T11:26:48.000Z</time><hdop>4.0</hdop><vdop>4.0</vdop><extensions><gom:speed>0.0</gom:speed></extensions></trkpt>
   <trkpt lat="59.0723030057" lon="29.9700377345"><ele>99.651</ele><time>2026-04-25T11:26:49.000Z</time><hdop>4.0</hdop><vdop>4.0</vdop><extensions><gom:speed>0.0</gom:speed></extensions></trkpt>
   <trkpt lat="59.0723030057" lon="29.9700377345"><ele>99.651</ele><time>2026-04-25T11:26:50.000Z</time><hdop>4.0</hdop><vdop>4.0</vdop><extensions><gom:speed>0.0</gom:speed></extensions></trkpt>
   <trkpt lat="59.0723030057" lon="29.9700377345"><ele>99.651</ele><time>2026-04-25T11:26:51.000Z</time><hdop>4.0</hdop><vdop>4.0</vdop><extensions><gom:speed>0.0</gom:speed></extensions></trkpt>
   <trkpt lat="59.0723030057" lon="29.9700377345"><ele>99.651</ele><time>2026-04-25T11:26:52.000Z</time><hdop>4.0</hdop><vdop>4.0</vdop><extensions><gom:speed>0.0</gom:speed></extensions></trkpt>
   <trkpt lat="59.0723030057" lon="29.9700377345"><ele>99.651</ele><time>2026-04-25T11:26:53.000Z</time><hdop>4.0</hdop><vdop>4.0</vdop><extensions><gom:speed>0.0</gom:speed></extensions></trkpt>
   <trkpt lat="59.0723030057" lon="29.9700377345"><ele>99.651</ele><time>2026-04-25T11:26:53.000Z</time><hdop>4.0</hdop><vdop>4.0</vdop><extensions><gom:speed>0.0</gom:speed></extensions></trkpt>
   <trkpt lat="59.0723030057" lon="29.9700377345"><ele>99.651</ele><time>2026-04-25T11:26:54.000Z</time><hdop>4.0</hdop><vdop>4.0</vdop><extensions><gom:speed>0.0</gom:speed></extensions></trkpt>
   <trkpt lat="59.0723030057" lon="29.9700377345"><ele>99.651</ele><time>2026-04-25T11:26:55.000Z</time><hdop>4.0</hdop><vdop>4.0</vdop><extensions><gom:speed>0.0</gom:speed></extensions></trkpt>
   <trkpt lat="59.0723030057" lon="29.9700377345"><ele>99.651</ele><time>2026-04-25T11:26:56.000Z</time><hdop>4.0</hdop><vdop>4.0</vdop><extensions><gom:speed>0.0</gom:speed></extensions></trkpt>
   <trkpt lat="59.0723030057" lon="29.9700377345"><ele>99.651</ele><time>2026-04-25T11:26:57.000Z</time><hdop>4.0</hdop><vdop>4.0</vdop><extensions><gom:speed>0.0</gom:speed></extensions></trkpt>
   <trkpt lat="59.0723030057" lon="29.9700377345"><ele>99.651</ele><time>2026-04-25T11:26:58.000Z</time><hdop>4.0</hdop><vdop>4.0</vdop><extensions><gom:speed>0.0</gom:speed></extensions></trkpt>
   <trkpt lat="59.0723030057" lon="29.9700377345"><ele>99.651</ele><time>2026-04-25T11:26:59.000Z</time><hdop>4.0</hdop><vdop>4.0</vdop><extensions><gom:speed>0.0</gom:speed></extensions></trkpt>
   <trkpt lat="59.0723030057" lon="29.9700377345"><ele>99.651</ele><time>2026-04-25T11:27:00.000Z</time><hdop>4.0</hdop><vdop>4.0</vdop><extensions><gom:speed>0.0</gom:speed></extensions></trkpt>
   <trkpt lat="59.0723030057" lon="29.9700377345"><ele>99.651</ele><time>2026-04-25T11:27:01.000Z</time><hdop>4.0</hdop><vdop>4.0</vdop><extensions><gom:speed>0.0</gom:speed></extensions></trkpt>
   <trkpt lat="59.0723057717" lon="29.9700356391"><ele>99.666</ele><time>2026-04-25T11:27:02.000Z</time><hdop>3.625</hdop><vdop>3.625</vdop><extensions><gom:speed>0.154</gom:speed></extensions></trkpt>
   <trkpt lat="59.0723115971" lon="29.9700306099"><ele>99.699</ele><time>2026-04-25T11:27:03.000Z</time><hdop>3.312</hdop><vdop>3.312</vdop><extensions><gom:speed>0.272</gom:speed></extensions></trkpt>
   <trkpt lat="59.0723236252" lon="29.9700218089"><ele>99.619</ele><time>2026-04-25T11:27:04.000Z</time><hdop>3.125</hdop><vdop>3.125</vdop><extensions><gom:speed>0.722</gom:speed></extensions></trkpt>
   <trkpt lat="59.0723320071" lon="29.9700171151"><ele>99.381</ele><time>2026-04-25T11:27:05.000Z</time><hdop>3.187</hdop><vdop>3.187</vdop><extensions><gom:speed>0.457</gom:speed></extensions></trkpt>
   <trkpt lat="59.0723369524" lon="29.9700180371"><ele>99.059</ele><time>2026-04-25T11:27:06.000Z</time><hdop>3.125</hdop><vdop>3.125</vdop><extensions><gom:speed>0.265</gom:speed></extensions></trkpt>
   <trkpt lat="59.0723369524" lon="29.9700180371"><ele>98.867</ele><time>2026-04-25T11:27:07.000Z</time><hdop>3.125</hdop><vdop>3.125</vdop><extensions><gom:speed>0.0</gom:speed></extensions></trkpt>
   <trkpt lat="59.0723369524" lon="29.9700180371"><ele>98.752</ele><time>2026-04-25T11:27:08.000Z</time><hdop>3.125</hdop><vdop>3.125</vdop><extensions><gom:speed>0.0</gom:speed></extensions></trkpt>
   <trkpt lat="59.0723369524" lon="29.9700180371"><ele>98.683</ele><time>2026-04-25T11:27:09.000Z</time><hdop>3.125</hdop><vdop>3.125</vdop><extensions><gom:speed>0.0</gom:speed></extensions></trkpt>
   <trkpt lat="59.0723369524" lon="29.9700180371"><ele>98.642</ele><time>2026-04-25T11:27:10.000Z</time><hdop>3.125</hdop><vdop>3.125</vdop><extensions><gom:speed>0.0</gom:speed></extensions></trkpt>
   <trkpt lat="59.0723369524" lon="29.9700180371"><ele>98.618</ele><time>2026-04-25T11:27:11.000Z</time><hdop>3.125</hdop><vdop>3.125</vdop><extensions><gom:speed>0.0</gom:speed></extensions></trkpt>
   <trkpt lat="59.0723369524" lon="29.9700180371"><ele>98.603</ele><time>2026-04-25T11:27:12.000Z</time><hdop>3.125</hdop><vdop>3.125</vdop><extensions><gom:speed>0.0</gom:speed></extensions></trkpt>
   <trkpt lat="59.0723447895" lon="29.9700171989"><ele>98.401</ele><time>2026-04-25T11:27:13.000Z</time><hdop>3.062</hdop><vdop>3.062</vdop><extensions><gom:speed>0.418</gom:speed></extensions></trkpt>
   <trkpt lat="59.0723447895" lon="29.9700171989"><ele>98.28</ele><time>2026-04-25T11:27:14.000Z</time><hdop>3.062</hdop><vdop>3.062</vdop><extensions><gom:speed>0.0</gom:speed></extensions></trkpt>
   <trkpt lat="59.0723447895" lon="29.9700171989"><ele>98.207</ele><time>2026-04-25T11:27:14.000Z</time><hdop>3.062</hdop><vdop>3.062</vdop><extensions><gom:speed>0.0</gom:speed></extensions></trkpt>
   <trkpt lat="59.0723447895" lon="29.9700171989"><ele>98.164</ele><time>2026-04-25T11:27:15.000Z</time><hdop>3.062</hdop><vdop>3.062</vdop><extensions><gom:speed>0.0</gom:speed></extensions></trkpt>
   <trkpt lat="59.0723447895" lon="29.9700171989"><ele>98.138</ele><time>2026-04-25T11:27:16.000Z</time><hdop>3.062</hdop><vdop>3.062</vdop><extensions><gom:speed>0.0</gom:speed></extensions></trkpt>
   <trkpt lat="59.0723447895" lon="29.9700171989"><ele>98.123</ele><time>2026-04-25T11:27:17.000Z</time><hdop>3.062</hdop><vdop>3.062</vdop><extensions><gom:speed>0.0</gom:speed></extensions></trkpt>
   <trkpt lat="59.0723447895" lon="29.9700171989"><ele>98.114</ele><time>2026-04-25T11:27:18.000Z</time><hdop>3.062</hdop><vdop>3.062</vdop><extensions><gom:speed>0.0</gom:speed></extensions></trkpt>
   <trkpt lat="59.0723447895" lon="29.9700171989"><ele>98.108</ele><time>2026-04-25T11:27:19.000Z</time><hdop>3.062</hdop><vdop>3.062</vdop><extensions><gom:speed>0.0</gom:speed></extensions></trkpt>
   <trkpt lat="59.0723491062" lon="29.9700126727"><ele>98.119</ele><time>2026-04-25T11:27:20.000Z</time><hdop>3.75</hdop><vdop>3.75</vdop><extensions><gom:speed>0.373</gom:speed></extensions></trkpt>
   <trkpt lat="59.0723596674" lon="29.9700081464"><ele>98.288</ele><time>2026-04-25T11:27:21.000Z</time><hdop>3.687</hdop><vdop>3.687</vdop><extensions><gom:speed>0.302</gom:speed></extensions></trkpt>
   <trkpt lat="59.0723596674" lon="29.9700081464"><ele>98.389</ele><time>2026-04-25T11:27:22.000Z</time><hdop>3.687</hdop><vdop>3.687</vdop><extensions><gom:speed>0.0</gom:speed></extensions></trkpt>
   <trkpt lat="59.0723596674" lon="29.9700081464"><ele>98.449</ele><time>2026-04-25T11:27:23.000Z</time><hdop>3.687</hdop><vdop>3.687</vdop><extensions><gom:speed>0.0</gom:speed></extensions></trkpt>
   <trkpt lat="59.0723596674" lon="29.9700081464"><ele>98.485</ele><time>2026-04-25T11:27:24.000Z</time><hdop>3.687</hdop><vdop>3.687</vdop><extensions><gom:speed>0.0</gom:speed></extensions></trkpt>
   <trkpt lat="59.072368636" lon="29.9700078112"><ele>98.529</ele><time>2026-04-25T11:27:25.000Z</time><hdop>4.0</hdop><vdop>4.0</vdop><extensions><gom:speed>0.251</gom:speed></extensions></trkpt>
   <trkpt lat="59.0723773532" lon="29.9700068891"><ele>98.565</ele><time>2026-04-25T11:27:26.000Z</time><hdop>3.812</hdop><vdop>3.812</vdop><extensions><gom:speed>0.387</gom:speed></extensions></trkpt>
   <trkpt lat="59.0723773532" lon="29.9700068891"><ele>98.586</ele><time>2026-04-25T11:27:27.000Z</time><hdop>3.812</hdop><vdop>3.812</vdop><extensions><gom:speed>0.0</gom:speed></extensions></trkpt>
   <trkpt lat="59.0723773532" lon="29.9700068891"><ele>98.598</ele><time>2026-04-25T11:27:28.000Z</time><hdop>3.812</hdop><vdop>3.812</vdop><extensions><gom:speed>0.0</gom:speed></extensions></trkpt>
   <trkpt lat="59.0723773532" lon="29.9700068891"><ele>98.606</ele><time>2026-04-25T11:27:29.000Z</time><hdop>3.812</hdop><vdop>3.812</vdop><extensions><gom:speed>0.0</gom:speed></extensions></trkpt>
   <trkpt lat="59.0723773532" lon="29.9700068891"><ele>98.61</ele><time>2026-04-25T11:27:30.000Z</time><hdop>3.812</hdop><vdop>3.812</vdop><extensions><gom:speed>0.0</gom:speed></extensions></trkpt>
   <trkpt lat="59.0723773532" lon="29.9700068891"><ele>98.613</ele><time>2026-04-25T11:27:31.000Z</time><hdop>3.812</hdop><vdop>3.812</vdop><extensions><gom:speed>0.0</gom:speed></extensions></trkpt>
   <trkpt lat="59.0723773532" lon="29.9700068891"><ele>98.615</ele><time>2026-04-25T11:27:32.000Z</time><hdop>3.812</hdop><vdop>3.812</vdop><extensions><gom:speed>0.0</gom:speed></extensions></trkpt>
   <trkpt lat="59.072382047" lon="29.9700101581"><ele>98.387</ele><time>2026-04-25T11:27:33.000Z</time><hdop>4.125</hdop><vdop>4.125</vdop><extensions><gom:speed>0.229</gom:speed></extensions></trkpt>
   <trkpt lat="59.072382047" lon="29.9700101581"><ele>98.251</ele><time>2026-04-25T11:27:33.000Z</time><hdop>4.125</hdop><vdop>4.125</vdop><extensions><gom:speed>0.229</gom:speed></extensions></trkpt>
   <trkpt lat="59.072382047" lon="29.9700101581"><ele>98.17</ele><time>2026-04-25T11:27:34.000Z</time><hdop>4.125</hdop><vdop>4.125</vdop><extensions><gom:speed>0.0</gom:speed></extensions></trkpt>
   <trkpt lat="59.072382047" lon="29.9700101581"><ele>98.122</ele><time>2026-04-25T11:27:35.000Z</time><hdop>4.125</hdop><vdop>4.125</vdop><extensions><gom:speed>0.0</gom:speed></extensions></trkpt>
   <trkpt lat="59.072382047" lon="29.9700101581"><ele>98.093</ele><time>2026-04-25T11:27:36.000Z</time><hdop>4.125</hdop><vdop>4.125</vdop><extensions><gom:speed>0.0</gom:speed></extensions></trkpt>
   <trkpt lat="59.072382047" lon="29.9700101581"><ele>98.075</ele><time>2026-04-25T11:27:37.000Z</time><hdop>4.125</hdop><vdop>4.125</vdop><extensions><gom:speed>0.0</gom:speed></extensions></trkpt>
   <trkpt lat="59.072382047" lon="29.9700101581"><ele>98.065</ele><time>2026-04-25T11:27:38.000Z</time><hdop>4.125</hdop><vdop>4.125</vdop><extensions><gom:speed>0.0</gom:speed></extensions></trkpt>
   <trkpt lat="59.072382047" lon="29.9700101581"><ele>98.059</ele><time>2026-04-25T11:27:39.000Z</time><hdop>4.125</hdop><vdop>4.125</vdop><extensions><gom:speed>0.0</gom:speed></extensions></trkpt>
   <trkpt lat="59.072382047" lon="29.9700101581"><ele>98.055</ele><time>2026-04-25T11:27:40.000Z</time><hdop>4.125</hdop><vdop>4.125</vdop><extensions><gom:speed>0.0</gom:speed></extensions></trkpt>
   <trkpt lat="59.072382047" lon="29.9700101581"><ele>98.053</ele><time>2026-04-25T11:27:41.000Z</time><hdop>4.125</hdop><vdop>4.125</vdop><extensions><gom:speed>0.0</gom:speed></extensions></trkpt>
   <trkpt lat="59.072382047" lon="29.9700101581"><ele>98.052</ele><time>2026-04-25T11:27:42.000Z</time><hdop>4.125</hdop><vdop>4.125</vdop><extensions><gom:speed>0.0</gom:speed></extensions></trkpt>
   <trkpt lat="59.0723827176" lon="29.9700124212"><ele>98.002</ele><time>2026-04-25T11:27:43.000Z</time><hdop>3.875</hdop><vdop>3.875</vdop><extensions><gom:speed>0.345</gom:speed></extensions></trkpt>
   <trkpt lat="59.0723817956" lon="29.9700161931"><ele>98.016</ele><time>2026-04-25T11:27:44.000Z</time><hdop>3.562</hdop><vdop>3.562</vdop><extensions><gom:speed>0.527</gom:speed></extensions></trkpt>
   <trkpt lat="59.0723800773" lon="29.9700206355"><ele>97.973</ele><time>2026-04-25T11:27:45.000Z</time><hdop>3.5</hdop><vdop>3.5</vdop><extensions><gom:speed>0.86</gom:speed></extensions></trkpt>
   <trkpt lat="59.0723782333" lon="29.9700285145"><ele>97.898</ele><time>2026-04-25T11:27:46.000Z</time><hdop>3.312</hdop><vdop>3.312</vdop><extensions><gom:speed>0.629</gom:speed></extensions></trkpt>
   <trkpt lat="59.0723801192" lon="29.9700327892"><ele>97.837</ele><time>2026-04-25T11:27:47.000Z</time><hdop>3.562</hdop><vdop>3.562</vdop><extensions><gom:speed>0.388</gom:speed></extensions></trkpt>
   <trkpt lat="59.0723830529" lon="29.9700381536"><ele>97.734</ele><time>2026-04-25T11:27:48.000Z</time><hdop>3.5</hdop><vdop>3.5</vdop><extensions><gom:speed>0.482</gom:speed></extensions></trkpt>
   <trkpt lat="59.0723843102" lon="29.9700402491"><ele>97.683</ele><time>2026-04-25T11:27:49.000Z</time><hdop>3.25</hdop><vdop>3.25</vdop><extensions><gom:speed>0.505</gom:speed></extensions></trkpt>
   <trkpt lat="59.0723859027" lon="29.9700415064"><ele>97.673</ele><time>2026-04-25T11:27:50.000Z</time><hdop>3.187</hdop><vdop>3.187</vdop><extensions><gom:speed>0.395</gom:speed></extensions></trkpt>
   <trkpt lat="59.0723869085" lon="29.9700456135"><ele>97.716</ele><time>2026-04-25T11:27:51.000Z</time><hdop>3.0</hdop><vdop>3.0</vdop><extensions><gom:speed>0.644</gom:speed></extensions></trkpt>
   <trkpt lat="59.0723869085" lon="29.9700456135"><ele>97.743</ele><time>2026-04-25T11:27:52.000Z</time><hdop>3.0</hdop><vdop>3.0</vdop><extensions><gom:speed>0.0</gom:speed></extensions></trkpt>
   <trkpt lat="59.0723869085" lon="29.9700456135"><ele>97.758</ele><time>2026-04-25T11:27:53.000Z</time><hdop>3.0</hdop><vdop>3.0</vdop><extensions><gom:speed>0.0</gom:speed></extensions></trkpt>
   <trkpt lat="59.0723869085" lon="29.9700456135"><ele>97.768</ele><time>2026-04-25T11:27:54.000Z</time><hdop>3.0</hdop><vdop>3.0</vdop><extensions><gom:speed>0.0</gom:speed></extensions></trkpt>
   <trkpt lat="59.0723839749" lon="29.970052822"><ele>97.845</ele><time>2026-04-25T11:27:55.000Z</time><hdop>3.0</hdop><vdop>3.0</vdop><extensions><gom:speed>0.713</gom:speed></extensions></trkpt>
   <trkpt lat="59.0723839749" lon="29.970052822"><ele>97.891</ele><time>2026-04-25T11:27:55.000Z</time><hdop>3.0</hdop><vdop>3.0</vdop><extensions><gom:speed>0.713</gom:speed></extensions></trkpt>
   <trkpt lat="59.0723839749" lon="29.970052822"><ele>97.919</ele><time>2026-04-25T11:27:56.000Z</time><hdop>3.0</hdop><vdop>3.0</vdop><extensions><gom:speed>0.0</gom:speed></extensions></trkpt>
   <trkpt lat="59.0723839749" lon="29.970052822"><ele>97.936</ele><time>2026-04-25T11:27:57.000Z</time><hdop>3.0</hdop><vdop>3.0</vdop><extensions><gom:speed>0.0</gom:speed></extensions></trkpt>
   <trkpt lat="59.0723839749" lon="29.970052822"><ele>97.945</ele><time>2026-04-25T11:27:58.000Z</time><hdop>3.0</hdop><vdop>3.0</vdop><extensions><gom:speed>0.0</gom:speed></extensions></trkpt>
   <trkpt lat="59.0723839749" lon="29.970052822"><ele>97.951</ele><time>2026-04-25T11:27:59.000Z</time><hdop>3.0</hdop><vdop>3.0</vdop><extensions><gom:speed>0.0</gom:speed></extensions></trkpt>
   <trkpt lat="59.0723839749" lon="29.970052822"><ele>97.955</ele><time>2026-04-25T11:28:00.000Z</time><hdop>3.0</hdop><vdop>3.0</vdop><extensions><gom:speed>0.0</gom:speed></extensions></trkpt>
   <trkpt lat="59.0723839749" lon="29.970052822"><ele>97.957</ele><time>2026-04-25T11:28:01.000Z</time><hdop>3.0</hdop><vdop>3.0</vdop><extensions><gom:speed>0.0</gom:speed></extensions></trkpt>
   <trkpt lat="59.0723839749" lon="29.970052822"><ele>97.958</ele><time>2026-04-25T11:28:02.000Z</time><hdop>3.0</hdop><vdop>3.0</vdop><extensions><gom:speed>0.0</gom:speed></extensions></trkpt>
   <trkpt lat="59.0723839749" lon="29.970052822"><ele>97.959</ele><time>2026-04-25T11:28:03.000Z</time><hdop>3.0</hdop><vdop>3.0</vdop><extensions><gom:speed>0.0</gom:speed></extensions></trkpt>
   <trkpt lat="59.0723839749" lon="29.970052822"><ele>97.959</ele><time>2026-04-25T11:28:04.000Z</time><hdop>3.0</hdop><vdop>3.0</vdop><extensions><gom:speed>0.0</gom:speed></extensions></trkpt>
   <trkpt lat="59.0723839749" lon="29.970052822"><ele>97.96</ele><time>2026-04-25T11:28:05.000Z</time><hdop>3.0</hdop><vdop>3.0</vdop><extensions><gom:speed>0.0</gom:speed></extensions></trkpt>
   <trkpt lat="59.0723839749" lon="29.970052822"><ele>97.96</ele><time>2026-04-25T11:28:06.000Z</time><hdop>3.0</hdop><vdop>3.0</vdop><extensions><gom:speed>0.0</gom:speed></extensions></trkpt>
   <trkpt lat="59.0723785266" lon="29.9700558395"><ele>97.962</ele><time>2026-04-25T11:28:07.000Z</time><hdop>3.25</hdop><vdop>3.25</vdop><extensions><gom:speed>0.421</gom:speed></extensions></trkpt>
   <trkpt lat="59.0723785266" lon="29.9700558395"><ele>97.964</ele><time>2026-04-25T11:28:08.000Z</time><hdop>3.25</hdop><vdop>3.25</vdop><extensions><gom:speed>0.0</gom:speed></extensions></trkpt>
   <trkpt lat="59.0723736651" lon="29.9700575997"><ele>98.013</ele><time>2026-04-25T11:28:09.000Z</time><hdop>3.562</hdop><vdop>3.562</vdop><extensions><gom:speed>0.268</gom:speed></extensions></trkpt>
   <trkpt lat="59.072366792" lon="29.9700581026"><ele>98.128</ele><time>2026-04-25T11:28:10.000Z</time><hdop>3.437</hdop><vdop>3.437</vdop><extensions><gom:speed>0.514</gom:speed></extensions></trkpt>
   <trkpt lat="59.0723588292" lon="29.9700575997"><ele>98.235</ele><time>2026-04-25T11:28:11.000Z</time><hdop>3.375</hdop><vdop>3.375</vdop><extensions><gom:speed>0.497</gom:speed></extensions></trkpt>
   <trkpt lat="59.0723504473" lon="29.9700586055"><ele>98.332</ele><time>2026-04-25T11:28:12.000Z</time><hdop>3.062</hdop><vdop>3.062</vdop><extensions><gom:speed>0.621</gom:speed></extensions></trkpt>
   <trkpt lat="59.0723504473" lon="29.9700586055"><ele>98.39</ele><time>2026-04-25T11:28:13.000Z</time><hdop>3.062</hdop><vdop>3.062</vdop><extensions><gom:speed>0.0</gom:speed></extensions></trkpt>
   <trkpt lat="59.0723504473" lon="29.9700586055"><ele>98.425</ele><time>2026-04-25T11:28:13.000Z</time><hdop>3.062</hdop><vdop>3.062</vdop><extensions><gom:speed>0.0</gom:speed></extensions></trkpt>
   <trkpt lat="59.0723447895" lon="29.9700684123"><ele>98.479</ele><time>2026-04-25T11:28:14.000Z</time><hdop>3.437</hdop><vdop>3.437</vdop><extensions><gom:speed>0.821</gom:speed></extensions></trkpt>
   <trkpt lat="59.0723447895" lon="29.9700684123"><ele>98.512</ele><time>2026-04-25T11:28:15.000Z</time><hdop>3.437</hdop><vdop>3.437</vdop><extensions><gom:speed>0.0</gom:speed></extensions></trkpt>
   <trkpt lat="59.0723447895" lon="29.9700684123"><ele>98.531</ele><time>2026-04-25T11:28:16.000Z</time><hdop>3.437</hdop><vdop>3.437</vdop><extensions><gom:speed>0.0</gom:speed></extensions></trkpt>
   <trkpt lat="59.0723373715" lon="29.9700698372"><ele>98.556</ele><time>2026-04-25T11:28:17.000Z</time><hdop>3.562</hdop><vdop>3.562</vdop><extensions><gom:speed>0.743</gom:speed></extensions></trkpt>
   <trkpt lat="59.0723267684" lon="29.9700695858"><ele>98.567</ele><time>2026-04-25T11:28:18.000Z</time><hdop>3.312</hdop><vdop>3.312</vdop><extensions><gom:speed>0.699</gom:speed></extensions></trkpt>
   <trkpt lat="59.072316752" lon="29.9700690829"><ele>98.603</ele><time>2026-04-25T11:28:19.000Z</time><hdop>3.375</hdop><vdop>3.375</vdop><extensions><gom:speed>0.6</gom:speed></extensions></trkpt>
   <trkpt lat="59.0723071128" lon="29.970067155"><ele>98.516</ele><time>2026-04-25T11:28:20.000Z</time><hdop>3.312</hdop><vdop>3.312</vdop><extensions><gom:speed>0.733</gom:speed></extensions></trkpt>
   <trkpt lat="59.0722989824" lon="29.9700688314"><ele>98.379</ele><time>2026-04-25T11:28:21.000Z</time><hdop>3.312</hdop><vdop>3.312</vdop><extensions><gom:speed>0.598</gom:speed></extensions></trkpt>
   <trkpt lat="59.0722931989" lon="29.9700765428"><ele>98.201</ele><time>2026-04-25T11:28:22.000Z</time><hdop>3.125</hdop><vdop>3.125</vdop><extensions><gom:speed>0.443</gom:speed></extensions></trkpt>
   <trkpt lat="59.0722877087" lon="29.9700873554"><ele>98.138</ele><time>2026-04-25T11:28:23.000Z</time><hdop>3.312</hdop><vdop>3.312</vdop><extensions><gom:speed>0.404</gom:speed></extensions></trkpt>
   <trkpt lat="59.0722823862" lon="29.9701004312"><ele>98.173</ele><time>2026-04-25T11:28:24.000Z</time><hdop>3.312</hdop><vdop>3.312</vdop><extensions><gom:speed>0.512</gom:speed></extensions></trkpt>
   <trkpt lat="59.072280165" lon="29.9701095675"><ele>98.34</ele><time>2026-04-25T11:28:25.000Z</time><hdop>3.187</hdop><vdop>3.187</vdop><extensions><gom:speed>0.396</gom:speed></extensions></trkpt>
   <trkpt lat="59.0722735014" lon="29.9701175303"><ele>98.542</ele><time>2026-04-25T11:28:26.000Z</time><hdop>3.25</hdop><vdop>3.25</vdop><extensions><gom:speed>0.643</gom:speed></extensions></trkpt>
   <trkpt lat="59.0722656643" lon="29.9701248225"><ele>98.769</ele><time>2026-04-25T11:28:27.000Z</time><hdop>3.375</hdop><vdop>3.375</vdop><extensions><gom:speed>0.677</gom:speed></extensions></trkpt>
   <trkpt lat="59.0722656643" lon="29.9701248225"><ele>98.904</ele><time>2026-04-25T11:28:28.000Z</time><hdop>3.375</hdop><vdop>3.375</vdop><extensions><gom:speed>0.0</gom:speed></extensions></trkpt>
   <trkpt lat="59.0722656643" lon="29.9701248225"><ele>98.985</ele><time>2026-04-25T11:28:29.000Z</time><hdop>3.375</hdop><vdop>3.375</vdop><extensions><gom:speed>0.0</gom:speed></extensions></trkpt>
   <trkpt lat="59.0722656643" lon="29.9701248225"><ele>99.033</ele><time>2026-04-25T11:28:30.000Z</time><hdop>3.375</hdop><vdop>3.375</vdop><extensions><gom:speed>0.0</gom:speed></extensions></trkpt>
   <trkpt lat="59.0722656643" lon="29.9701248225"><ele>99.062</ele><time>2026-04-25T11:28:31.000Z</time><hdop>3.375</hdop><vdop>3.375</vdop><extensions><gom:speed>0.0</gom:speed></extensions></trkpt>
   <trkpt lat="59.0722656643" lon="29.9701248225"><ele>99.079</ele><time>2026-04-25T11:28:32.000Z</time><hdop>3.375</hdop><vdop>3.375</vdop><extensions><gom:speed>0.0</gom:speed></extensions></trkpt>
   <trkpt lat="59.0722656643" lon="29.9701248225"><ele>99.09</ele><time>2026-04-25T11:28:33.000Z</time><hdop>3.375</hdop><vdop>3.375</vdop><extensions><gom:speed>0.0</gom:speed></extensions></trkpt>
   <trkpt lat="59.0722656643" lon="29.9701248225"><ele>99.096</ele><time>2026-04-25T11:28:33.000Z</time><hdop>3.375</hdop><vdop>3.375</vdop><extensions><gom:speed>0.0</gom:speed></extensions></trkpt>
   <trkpt lat="59.0722656643" lon="29.9701248225"><ele>99.1</ele><time>2026-04-25T11:28:34.000Z</time><hdop>3.375</hdop><vdop>3.375</vdop><extensions><gom:speed>0.0</gom:speed></extensions></trkpt>
   <trkpt lat="59.0722656643" lon="29.9701248225"><ele>99.102</ele><time>2026-04-25T11:28:35.000Z</time><hdop>3.375</hdop><vdop>3.375</vdop><extensions><gom:speed>0.0</gom:speed></extensions></trkpt>
   <trkpt lat="59.0722656643" lon="29.9701248225"><ele>99.103</ele><time>2026-04-25T11:28:36.000Z</time><hdop>3.375</hdop><vdop>3.375</vdop><extensions><gom:speed>0.0</gom:speed></extensions></trkpt>
   <trkpt lat="59.0722656643" lon="29.9701248225"><ele>99.104</ele><time>2026-04-25T11:28:37.000Z</time><hdop>3.375</hdop><vdop>3.375</vdop><extensions><gom:speed>0.0</gom:speed></extensions></trkpt>
   <trkpt lat="59.0722656643" lon="29.9701248225"><ele>99.104</ele><time>2026-04-25T11:28:38.000Z</time><hdop>3.375</hdop><vdop>3.375</vdop><extensions><gom:speed>0.0</gom:speed></extensions></trkpt>
   <trkpt lat="59.0722656643" lon="29.9701248225"><ele>99.105</ele><time>2026-04-25T11:28:39.000Z</time><hdop>3.375</hdop><vdop>3.375</vdop><extensions><gom:speed>0.0</gom:speed></extensions></trkpt>
   <trkpt lat="59.0722656643" lon="29.9701248225"><ele>99.105</ele><time>2026-04-25T11:28:40.000Z</time><hdop>3.375</hdop><vdop>3.375</vdop><extensions><gom:speed>0.0</gom:speed></extensions></trkpt>
   <trkpt lat="59.0722656643" lon="29.9701248225"><ele>99.105</ele><time>2026-04-25T11:28:41.000Z</time><hdop>3.375</hdop><vdop>3.375</vdop><extensions><gom:speed>0.0</gom:speed></extensions></trkpt>
   <trkpt lat="59.0722577434" lon="29.9701192905"><ele>99.049</ele><time>2026-04-25T11:28:42.000Z</time><hdop>3.375</hdop><vdop>3.375</vdop><extensions><gom:speed>0.46</gom:speed></extensions></trkpt>
   <trkpt lat="59.0722483557" lon="29.9701167759"><ele>98.849</ele><time>2026-04-25T11:28:43.000Z</time><hdop>3.75</hdop><vdop>3.75</vdop><extensions><gom:speed>0.495</gom:speed></extensions></trkpt>
   <trkpt lat="59.0722366629" lon="29.9701157701"><ele>98.693</ele><time>2026-04-25T11:28:44.000Z</time><hdop>3.812</hdop><vdop>3.812</vdop><extensions><gom:speed>0.799</gom:speed></extensions></trkpt>
   <trkpt lat="59.072223671" lon="29.9701191228"><ele>98.541</ele><time>2026-04-25T11:28:45.000Z</time><hdop>4.125</hdop><vdop>4.125</vdop><extensions><gom:speed>0.775</gom:speed></extensions></trkpt>
   <trkpt lat="59.0722118944" lon="29.9701176141"><ele>98.426</ele><time>2026-04-25T11:28:46.000Z</time><hdop>4.25</hdop><vdop>4.25</vdop><extensions><gom:speed>0.857</gom:speed></extensions></trkpt>
   <trkpt lat="59.0722026324" lon="29.9701203801"><ele>98.418</ele><time>2026-04-25T11:28:47.000Z</time><hdop>4.0</hdop><vdop>4.0</vdop><extensions><gom:speed>0.73</gom:speed></extensions></trkpt>
   <trkpt lat="59.072193538" lon="29.9701243196"><ele>98.432</ele><time>2026-04-25T11:28:48.000Z</time><hdop>3.812</hdop><vdop>3.812</vdop><extensions><gom:speed>0.858</gom:speed></extensions></trkpt>
   <trkpt lat="59.072183815" lon="29.9701327015"><ele>98.482</ele><time>2026-04-25T11:28:49.000Z</time><hdop>3.687</hdop><vdop>3.687</vdop><extensions><gom:speed>0.803</gom:speed></extensions></trkpt>
   <trkpt lat="59.0721724576" lon="29.9701361381"><ele>98.325</ele><time>2026-04-25T11:28:50.000Z</time><hdop>3.375</hdop><vdop>3.375</vdop><extensions><gom:speed>0.791</gom:speed></extensions></trkpt>
   <trkpt lat="59.0721622316" lon="29.9701387365"><ele>98.279</ele><time>2026-04-25T11:28:51.000Z</time><hdop>3.5</hdop><vdop>3.5</vdop><extensions><gom:speed>0.961</gom:speed></extensions></trkpt>
   <trkpt lat="59.0721522572" lon="29.9701396585"><ele>98.23</ele><time>2026-04-25T11:28:52.000Z</time><hdop>3.5</hdop><vdop>3.5</vdop><extensions><gom:speed>0.782</gom:speed></extensions></trkpt>
   <trkpt lat="59.072142618" lon="29.970142676"><ele>98.131</ele><time>2026-04-25T11:28:53.000Z</time><hdop>3.25</hdop><vdop>3.25</vdop><extensions><gom:speed>0.806</gom:speed></extensions></trkpt>
   <trkpt lat="59.072142618" lon="29.970142676"><ele>98.072</ele><time>2026-04-25T11:28:53.000Z</time><hdop>3.25</hdop><vdop>3.25</vdop><extensions><gom:speed>0.806</gom:speed></extensions></trkpt>
   <trkpt lat="59.0721330207" lon="29.9701438494"><ele>97.945</ele><time>2026-04-25T11:28:54.000Z</time><hdop>3.0</hdop><vdop>3.0</vdop><extensions><gom:speed>0.736</gom:speed></extensions></trkpt>
   <trkpt lat="59.0721242616" lon="29.9701479566"><ele>97.784</ele><time>2026-04-25T11:28:55.000Z</time><hdop>3.0</hdop><vdop>3.0</vdop><extensions><gom:speed>0.691</gom:speed></extensions></trkpt>
   <trkpt lat="59.0721143291" lon="29.9701544106"><ele>97.654</ele><time>2026-04-25T11:28:56.000Z</time><hdop>3.0</hdop><vdop>3.0</vdop><extensions><gom:speed>0.573</gom:speed></extensions></trkpt>
   <trkpt lat="59.0721066177" lon="29.9701613676"><ele>97.48</ele><time>2026-04-25T11:28:57.000Z</time><hdop>3.0</hdop><vdop>3.0</vdop><extensions><gom:speed>0.648</gom:speed></extensions></trkpt>
   <trkpt lat="59.0720957631" lon="29.9701721803"><ele>97.392</ele><time>2026-04-25T11:28:58.000Z</time><hdop>3.0</hdop><vdop>3.0</vdop><extensions><gom:speed>0.715</gom:speed></extensions></trkpt>
   <trkpt lat="59.0720844057" lon="29.9701732699"><ele>97.192</ele><time>2026-04-25T11:28:59.000Z</time><hdop>3.0</hdop><vdop>3.0</vdop><extensions><gom:speed>0.694</gom:speed></extensions></trkpt>
   <trkpt lat="59.0720741797" lon="29.9701757845"><ele>97.061</ele><time>2026-04-25T11:29:00.000Z</time><hdop>3.0</hdop><vdop>3.0</vdop><extensions><gom:speed>0.729</gom:speed></extensions></trkpt>
   <trkpt lat="59.0720741797" lon="29.9701757845"><ele>96.984</ele><time>2026-04-25T11:29:01.000Z</time><hdop>3.0</hdop><vdop>3.0</vdop><extensions><gom:speed>0.0</gom:speed></extensions></trkpt>
   <trkpt lat="59.0720741797" lon="29.9701757845"><ele>96.937</ele><time>2026-04-25T11:29:02.000Z</time><hdop>3.0</hdop><vdop>3.0</vdop><extensions><gom:speed>0.0</gom:speed></extensions></trkpt>
   <trkpt lat="59.0720741797" lon="29.9701757845"><ele>96.909</ele><time>2026-04-25T11:29:03.000Z</time><hdop>3.0</hdop><vdop>3.0</vdop><extensions><gom:speed>0.0</gom:speed></extensions></trkpt>
   <trkpt lat="59.0720741797" lon="29.9701757845"><ele>96.893</ele><time>2026-04-25T11:29:04.000Z</time><hdop>3.0</hdop><vdop>3.0</vdop><extensions><gom:speed>0.0</gom:speed></extensions></trkpt>
   <trkpt lat="59.0720741797" lon="29.9701757845"><ele>96.883</ele><time>2026-04-25T11:29:05.000Z</time><hdop>3.0</hdop><vdop>3.0</vdop><extensions><gom:speed>0.0</gom:speed></extensions></trkpt>
   <trkpt lat="59.0720741797" lon="29.9701757845"><ele>96.877</ele><time>2026-04-25T11:29:06.000Z</time><hdop>3.0</hdop><vdop>3.0</vdop><extensions><gom:speed>0.0</gom:speed></extensions></trkpt>
   <trkpt lat="59.0720741797" lon="29.9701757845"><ele>96.873</ele><time>2026-04-25T11:29:07.000Z</time><hdop>3.0</hdop><vdop>3.0</vdop><extensions><gom:speed>0.0</gom:speed></extensions></trkpt>
   <trkpt lat="59.0720741797" lon="29.9701757845"><ele>96.871</ele><time>2026-04-25T11:29:08.000Z</time><hdop>3.0</hdop><vdop>3.0</vdop><extensions><gom:speed>0.0</gom:speed></extensions></trkpt>
   <trkpt lat="59.0720741797" lon="29.9701757845"><ele>96.87</ele><time>2026-04-25T11:29:09.000Z</time><hdop>3.0</hdop><vdop>3.0</vdop><extensions><gom:speed>0.0</gom:speed></extensions></trkpt>
   <trkpt lat="59.0720741797" lon="29.9701757845"><ele>96.869</ele><time>2026-04-25T11:29:10.000Z</time><hdop>3.0</hdop><vdop>3.0</vdop><extensions><gom:speed>0.0</gom:speed></extensions></trkpt>
   <trkpt lat="59.0720741797" lon="29.9701757845"><ele>96.869</ele><time>2026-04-25T11:29:11.000Z</time><hdop>3.0</hdop><vdop>3.0</vdop><extensions><gom:speed>0.0</gom:speed></extensions></trkpt>
   <trkpt lat="59.0720722519" lon="29.9701786343"><ele>96.918</ele><time>2026-04-25T11:29:12.000Z</time><hdop>3.0</hdop><vdop>3.0</vdop><extensions><gom:speed>0.26</gom:speed></extensions></trkpt>
   <trkpt lat="59.0720722519" lon="29.9701786343"><ele>96.948</ele><time>2026-04-25T11:29:13.000Z</time><hdop>3.0</hdop><vdop>3.0</vdop><extensions><gom:speed>0.0</gom:speed></extensions></trkpt>
   <trkpt lat="59.0720722519" lon="29.9701786343"><ele>96.966</ele><time>2026-04-25T11:29:13.000Z</time><hdop>3.0</hdop><vdop>3.0</vdop><extensions><gom:speed>0.0</gom:speed></extensions></trkpt>
   <trkpt lat="59.0720722519" lon="29.9701786343"><ele>96.976</ele><time>2026-04-25T11:29:14.000Z</time><hdop>3.0</hdop><vdop>3.0</vdop><extensions><gom:speed>0.0</gom:speed></extensions></trkpt>
   <trkpt lat="59.0720722519" lon="29.9701786343"><ele>96.982</ele><time>2026-04-25T11:29:15.000Z</time><hdop>3.0</hdop><vdop>3.0</vdop><extensions><gom:speed>0.0</gom:speed></extensions></trkpt>
   <trkpt lat="59.0720722519" lon="29.9701786343"><ele>96.986</ele><time>2026-04-25T11:29:16.000Z</time><hdop>3.0</hdop><vdop>3.0</vdop><extensions><gom:speed>0.0</gom:speed></extensions></trkpt>
   <trkpt lat="59.0720722519" lon="29.9701786343"><ele>96.988</ele><time>2026-04-25T11:29:17.000Z</time><hdop>3.0</hdop><vdop>3.0</vdop><extensions><gom:speed>0.0</gom:speed></extensions></trkpt>
   <trkpt lat="59.0720722519" lon="29.9701786343"><ele>96.99</ele><time>2026-04-25T11:29:18.000Z</time><hdop>3.0</hdop><vdop>3.0</vdop><extensions><gom:speed>0.0</gom:speed></extensions></trkpt>
   <trkpt lat="59.0720722519" lon="29.9701786343"><ele>96.991</ele><time>2026-04-25T11:29:19.000Z</time><hdop>3.0</hdop><vdop>3.0</vdop><extensions><gom:speed>0.0</gom:speed></extensions></trkpt>
   <trkpt lat="59.0720722519" lon="29.9701786343"><ele>96.991</ele><time>2026-04-25T11:29:20.000Z</time><hdop>3.0</hdop><vdop>3.0</vdop><extensions><gom:speed>0.0</gom:speed></extensions></trkpt>
   <trkpt lat="59.0720722519" lon="29.9701786343"><ele>96.991</ele><time>2026-04-25T11:29:21.000Z</time><hdop>3.0</hdop><vdop>3.0</vdop><extensions><gom:speed>0.0</gom:speed></extensions></trkpt>
   <trkpt lat="59.0720685639" lon="29.9701907043"><ele>97.017</ele><time>2026-04-25T11:29:22.000Z</time><hdop>3.0</hdop><vdop>3.0</vdop><extensions><gom:speed>0.19</gom:speed></extensions></trkpt>
   <trkpt lat="59.0720685639" lon="29.9701907043"><ele>97.032</ele><time>2026-04-25T11:29:23.000Z</time><hdop>3.0</hdop><vdop>3.0</vdop><extensions><gom:speed>0.0</gom:speed></extensions></trkpt>
   <trkpt lat="59.0720685639" lon="29.9701907043"><ele>97.041</ele><time>2026-04-25T11:29:24.000Z</time><hdop>3.0</hdop><vdop>3.0</vdop><extensions><gom:speed>0.0</gom:speed></extensions></trkpt>
   <trkpt lat="59.0720685639" lon="29.9701907043"><ele>97.046</ele><time>2026-04-25T11:29:25.000Z</time><hdop>3.0</hdop><vdop>3.0</vdop><extensions><gom:speed>0.0</gom:speed></extensions></trkpt>
   <trkpt lat="59.0720685639" lon="29.9701907043"><ele>97.049</ele><time>2026-04-25T11:29:26.000Z</time><hdop>3.0</hdop><vdop>3.0</vdop><extensions><gom:speed>0.0</gom:speed></extensions></trkpt>
   <trkpt lat="59.0720685639" lon="29.9701907043"><ele>97.051</ele><time>2026-04-25T11:29:27.000Z</time><hdop>3.0</hdop><vdop>3.0</vdop><extensions><gom:speed>0.0</gom:speed></extensions></trkpt>
   <trkpt lat="59.0720685639" lon="29.9701907043"><ele>97.053</ele><time>2026-04-25T11:29:28.000Z</time><hdop>3.0</hdop><vdop>3.0</vdop><extensions><gom:speed>0.0</gom:speed></extensions></trkpt>
   <trkpt lat="59.0720685639" lon="29.9701907043"><ele>97.053</ele><time>2026-04-25T11:29:29.000Z</time><hdop>3.0</hdop><vdop>3.0</vdop><extensions><gom:speed>0.0</gom:speed></extensions></trkpt>
   <trkpt lat="59.0720685639" lon="29.9701907043"><ele>97.054</ele><time>2026-04-25T11:29:30.000Z</time><hdop>3.0</hdop><vdop>3.0</vdop><extensions><gom:speed>0.0</gom:speed></extensions></trkpt>
   <trkpt lat="59.0720685639" lon="29.9701907043"><ele>97.054</ele><time>2026-04-25T11:29:31.000Z</time><hdop>3.0</hdop><vdop>3.0</vdop><extensions><gom:speed>0.0</gom:speed></extensions></trkpt>
   <trkpt lat="59.0720685639" lon="29.9701907043"><ele>97.054</ele><time>2026-04-25T11:29:32.000Z</time><hdop>3.0</hdop><vdop>3.0</vdop><extensions><gom:speed>0.0</gom:speed></extensions></trkpt>
   <trkpt lat="59.0720685639" lon="29.9701907043"><ele>97.054</ele><time>2026-04-25T11:29:33.000Z</time><hdop>3.0</hdop><vdop>3.0</vdop><extensions><gom:speed>0.0</gom:speed></extensions></trkpt>
   <trkpt lat="59.0720685639" lon="29.9701907043"><ele>97.054</ele><time>2026-04-25T11:29:34.000Z</time><hdop>3.0</hdop><vdop>3.0</vdop><extensions><gom:speed>0.0</gom:speed></extensions></trkpt>
   <trkpt lat="59.0720685639" lon="29.9701907043"><ele>97.054</ele><time>2026-04-25T11:29:35.000Z</time><hdop>3.0</hdop><vdop>3.0</vdop><extensions><gom:speed>0.0</gom:speed></extensions></trkpt>
   <trkpt lat="59.0720685639" lon="29.9701907043"><ele>97.054</ele><time>2026-04-25T11:29:36.000Z</time><hdop>3.0</hdop><vdop>3.0</vdop><extensions><gom:speed>0.0</gom:speed></extensions></trkpt>
   <trkpt lat="59.0720685639" lon="29.9701907043"><ele>97.054</ele><time>2026-04-25T11:29:37.000Z</time><hdop>3.0</hdop><vdop>3.0</vdop><extensions><gom:speed>0.0</gom:speed></extensions></trkpt>
   <trkpt lat="59.0720685639" lon="29.9701907043"><ele>97.054</ele><time>2026-04-25T11:29:38.000Z</time><hdop>3.0</hdop><vdop>3.0</vdop><extensions><gom:speed>0.0</gom:speed></extensions></trkpt>
   <trkpt lat="59.0720653368" lon="29.970194979"><ele>97.04</ele><time>2026-04-25T11:29:39.000Z</time><hdop>3.25</hdop><vdop>3.25</vdop><extensions><gom:speed>0.332</gom:speed></extensions></trkpt>
   <trkpt lat="59.0720625708" lon="29.9702081386"><ele>96.901</ele><time>2026-04-25T11:29:40.000Z</time><hdop>3.75</hdop><vdop>3.75</vdop><extensions><gom:speed>0.295</gom:speed></extensions></trkpt>
   <trkpt lat="59.0720625708" lon="29.9702081386"><ele>96.818</ele><time>2026-04-25T11:29:41.000Z</time><hdop>3.75</hdop><vdop>3.75</vdop><extensions><gom:speed>0.0</gom:speed></extensions></trkpt>
   <trkpt lat="59.0720625708" lon="29.9702081386"><ele>96.769</ele><time>2026-04-25T11:29:42.000Z</time><hdop>3.75</hdop><vdop>3.75</vdop><extensions><gom:speed>0.0</gom:speed></extensions></trkpt>
   <trkpt lat="59.0720625708" lon="29.9702081386"><ele>96.739</ele><time>2026-04-25T11:29:43.000Z</time><hdop>3.75</hdop><vdop>3.75</vdop><extensions><gom:speed>0.0</gom:speed></extensions></trkpt>
   <trkpt lat="59.0720625708" lon="29.9702081386"><ele>96.721</ele><time>2026-04-25T11:29:44.000Z</time><hdop>3.75</hdop><vdop>3.75</vdop><extensions><gom:speed>0.0</gom:speed></extensions></trkpt>
   <trkpt lat="59.0720625708" lon="29.9702081386"><ele>96.711</ele><time>2026-04-25T11:29:45.000Z</time><hdop>3.75</hdop><vdop>3.75</vdop><extensions><gom:speed>0.0</gom:speed></extensions></trkpt>
   <trkpt lat="59.0720625708" lon="29.9702081386"><ele>96.704</ele><time>2026-04-25T11:29:46.000Z</time><hdop>3.75</hdop><vdop>3.75</vdop><extensions><gom:speed>0.0</gom:speed></extensions></trkpt>
   <trkpt lat="59.0720625708" lon="29.9702081386"><ele>96.701</ele><time>2026-04-25T11:29:47.000Z</time><hdop>3.75</hdop><vdop>3.75</vdop><extensions><gom:speed>0.0</gom:speed></extensions></trkpt>
   <trkpt lat="59.0720625708" lon="29.9702081386"><ele>96.698</ele><time>2026-04-25T11:29:48.000Z</time><hdop>3.75</hdop><vdop>3.75</vdop><extensions><gom:speed>0.0</gom:speed></extensions></trkpt>
   <trkpt lat="59.0720625708" lon="29.9702081386"><ele>96.697</ele><time>2026-04-25T11:29:49.000Z</time><hdop>3.75</hdop><vdop>3.75</vdop><extensions><gom:speed>0.0</gom:speed></extensions></trkpt>
   <trkpt lat="59.0720625708" lon="29.9702081386"><ele>96.696</ele><time>2026-04-25T11:29:50.000Z</time><hdop>3.75</hdop><vdop>3.75</vdop><extensions><gom:speed>0.0</gom:speed></extensions></trkpt>
   <trkpt lat="59.0720625708" lon="29.9702081386"><ele>96.696</ele><time>2026-04-25T11:29:51.000Z</time><hdop>3.75</hdop><vdop>3.75</vdop><extensions><gom:speed>0.0</gom:speed></extensions></trkpt>
   <trkpt lat="59.0720625708" lon="29.9702081386"><ele>96.695</ele><time>2026-04-25T11:29:52.000Z</time><hdop>3.75</hdop><vdop>3.75</vdop><extensions><gom:speed>0.0</gom:speed></extensions></trkpt>
   <trkpt lat="59.0720625708" lon="29.9702081386"><ele>96.695</ele><time>2026-04-25T11:29:53.000Z</time><hdop>3.75</hdop><vdop>3.75</vdop><extensions><gom:speed>0.0</gom:speed></extensions></trkpt>
   <trkpt lat="59.0720625708" lon="29.9702081386"><ele>96.695</ele><time>2026-04-25T11:29:53.000Z</time><hdop>3.75</hdop><vdop>3.75</vdop><extensions><gom:speed>0.0</gom:speed></extensions></trkpt>
   <trkpt lat="59.0720625708" lon="29.9702081386"><ele>96.695</ele><time>2026-04-25T11:29:54.000Z</time><hdop>3.75</hdop><vdop>3.75</vdop><extensions><gom:speed>0.0</gom:speed></extensions></trkpt>
   <trkpt lat="59.0720625708" lon="29.9702081386"><ele>96.695</ele><time>2026-04-25T11:29:55.000Z</time><hdop>3.75</hdop><vdop>3.75</vdop><extensions><gom:speed>0.0</gom:speed></extensions></trkpt>
   <trkpt lat="59.0720625708" lon="29.9702081386"><ele>96.695</ele><time>2026-04-25T11:29:56.000Z</time><hdop>3.75</hdop><vdop>3.75</vdop><extensions><gom:speed>0.0</gom:speed></extensions></trkpt>
   <trkpt lat="59.0720625708" lon="29.9702081386"><ele>96.695</ele><time>2026-04-25T11:29:57.000Z</time><hdop>3.75</hdop><vdop>3.75</vdop><extensions><gom:speed>0.0</gom:speed></extensions></trkpt>
   <trkpt lat="59.0720625708" lon="29.9702081386"><ele>96.695</ele><time>2026-04-25T11:29:58.000Z</time><hdop>3.75</hdop><vdop>3.75</vdop><extensions><gom:speed>0.0</gom:speed></extensions></trkpt>
   <trkpt lat="59.0720625708" lon="29.9702081386"><ele>96.695</ele><time>2026-04-25T11:29:59.000Z</time><hdop>3.75</hdop><vdop>3.75</vdop><extensions><gom:speed>0.0</gom:speed></extensions></trkpt>
   <trkpt lat="59.0720625708" lon="29.9702081386"><ele>96.695</ele><time>2026-04-25T11:30:00.000Z</time><hdop>3.75</hdop><vdop>3.75</vdop><extensions><gom:speed>0.0</gom:speed></extensions></trkpt>
   <trkpt lat="59.0720625708" lon="29.9702081386"><ele>96.695</ele><time>2026-04-25T11:30:01.000Z</time><hdop>3.75</hdop><vdop>3.75</vdop><extensions><gom:speed>0.0</gom:speed></extensions></trkpt>
   <trkpt lat="59.0720625708" lon="29.9702081386"><ele>96.695</ele><time>2026-04-25T11:30:02.000Z</time><hdop>3.75</hdop><vdop>3.75</vdop><extensions><gom:speed>0.0</gom:speed></extensions></trkpt>
   <trkpt lat="59.0720625708" lon="29.9702081386"><ele>96.695</ele><time>2026-04-25T11:30:03.000Z</time><hdop>3.75</hdop><vdop>3.75</vdop><extensions><gom:speed>0.0</gom:speed></extensions></trkpt>
   <trkpt lat="59.0720625708" lon="29.9702081386"><ele>96.695</ele><time>2026-04-25T11:30:04.000Z</time><hdop>3.75</hdop><vdop>3.75</vdop><extensions><gom:speed>0.0</gom:speed></extensions></trkpt>
   <trkpt lat="59.0720625708" lon="29.9702081386"><ele>96.695</ele><time>2026-04-25T11:30:05.000Z</time><hdop>3.75</hdop><vdop>3.75</vdop><extensions><gom:speed>0.0</gom:speed></extensions></trkpt>
   <trkpt lat="59.0720625708" lon="29.9702081386"><ele>96.695</ele><time>2026-04-25T11:30:06.000Z</time><hdop>3.75</hdop><vdop>3.75</vdop><extensions><gom:speed>0.0</gom:speed></extensions></trkpt>
   <trkpt lat="59.0720625708" lon="29.9702081386"><ele>96.695</ele><time>2026-04-25T11:30:07.000Z</time><hdop>3.75</hdop><vdop>3.75</vdop><extensions><gom:speed>0.0</gom:speed></extensions></trkpt>
   <trkpt lat="59.0720625708" lon="29.9702081386"><ele>96.695</ele><time>2026-04-25T11:30:08.000Z</time><hdop>3.75</hdop><vdop>3.75</vdop><extensions><gom:speed>0.0</gom:speed></extensions></trkpt>
   <trkpt lat="59.0720625708" lon="29.9702081386"><ele>96.695</ele><time>2026-04-25T11:30:09.000Z</time><hdop>3.75</hdop><vdop>3.75</vdop><extensions><gom:speed>0.0</gom:speed></extensions></trkpt>
   <trkpt lat="59.0720625708" lon="29.9702081386"><ele>96.695</ele><time>2026-04-25T11:30:10.000Z</time><hdop>3.75</hdop><vdop>3.75</vdop><extensions><gom:speed>0.0</gom:speed></extensions></trkpt>
   <trkpt lat="59.0720625708" lon="29.9702081386"><ele>96.695</ele><time>2026-04-25T11:30:11.000Z</time><hdop>3.75</hdop><vdop>3.75</vdop><extensions><gom:speed>0.0</gom:speed></extensions></trkpt>
   <trkpt lat="59.0720625708" lon="29.9702081386"><ele>96.695</ele><time>2026-04-25T11:30:12.000Z</time><hdop>3.75</hdop><vdop>3.75</vdop><extensions><gom:speed>0.0</gom:speed></extensions></trkpt>
   <trkpt lat="59.0720625708" lon="29.9702081386"><ele>96.695</ele><time>2026-04-25T11:30:13.000Z</time><hdop>3.75</hdop><vdop>3.75</vdop><extensions><gom:speed>0.0</gom:speed></extensions></trkpt>
   <trkpt lat="59.0720625708" lon="29.9702081386"><ele>96.695</ele><time>2026-04-25T11:30:14.000Z</time><hdop>3.75</hdop><vdop>3.75</vdop><extensions><gom:speed>0.0</gom:speed></extensions></trkpt>
   <trkpt lat="59.0720625708" lon="29.9702081386"><ele>96.695</ele><time>2026-04-25T11:30:15.000Z</time><hdop>3.75</hdop><vdop>3.75</vdop><extensions><gom:speed>0.0</gom:speed></extensions></trkpt>
   <trkpt lat="59.0720625708" lon="29.9702081386"><ele>96.695</ele><time>2026-04-25T11:30:16.000Z</time><hdop>3.75</hdop><vdop>3.75</vdop><extensions><gom:speed>0.0</gom:speed></extensions></trkpt>
   <trkpt lat="59.0720625708" lon="29.9702081386"><ele>96.695</ele><time>2026-04-25T11:30:17.000Z</time><hdop>3.75</hdop><vdop>3.75</vdop><extensions><gom:speed>0.0</gom:speed></extensions></trkpt>
   <trkpt lat="59.0720625708" lon="29.9702081386"><ele>96.695</ele><time>2026-04-25T11:30:18.000Z</time><hdop>3.75</hdop><vdop>3.75</vdop><extensions><gom:speed>0.0</gom:speed></extensions></trkpt>
   <trkpt lat="59.0720625708" lon="29.9702081386"><ele>96.695</ele><time>2026-04-25T11:30:19.000Z</time><hdop>3.75</hdop><vdop>3.75</vdop><extensions><gom:speed>0.0</gom:speed></extensions></trkpt>
   <trkpt lat="59.0720625708" lon="29.9702081386"><ele>96.695</ele><time>2026-04-25T11:30:20.000Z</time><hdop>3.75</hdop><vdop>3.75</vdop><extensions><gom:speed>0.0</gom:speed></extensions></trkpt>
   <trkpt lat="59.0720625708" lon="29.9702081386"><ele>96.695</ele><time>2026-04-25T11:30:21.000Z</time><hdop>3.75</hdop><vdop>3.75</vdop><extensions><gom:speed>0.0</gom:speed></extensions></trkpt>
   <trkpt lat="59.0720625708" lon="29.9702081386"><ele>96.695</ele><time>2026-04-25T11:30:22.000Z</time><hdop>3.75</hdop><vdop>3.75</vdop><extensions><gom:speed>0.0</gom:speed></extensions></trkpt>
   <trkpt lat="59.0720625708" lon="29.9702081386"><ele>96.695</ele><time>2026-04-25T11:30:23.000Z</time><hdop>3.75</hdop><vdop>3.75</vdop><extensions><gom:speed>0.0</gom:speed></extensions></trkpt>
   <trkpt lat="59.0720625708" lon="29.9702081386"><ele>96.695</ele><time>2026-04-25T11:30:24.000Z</time><hdop>3.75</hdop><vdop>3.75</vdop><extensions><gom:speed>0.0</gom:speed></extensions></trkpt>
   <trkpt lat="59.0720625708" lon="29.9702081386"><ele>96.695</ele><time>2026-04-25T11:30:25.000Z</time><hdop>3.75</hdop><vdop>3.75</vdop><extensions><gom:speed>0.0</gom:speed></extensions></trkpt>
   <trkpt lat="59.0720625708" lon="29.9702081386"><ele>96.695</ele><time>2026-04-25T11:30:26.000Z</time><hdop>3.75</hdop><vdop>3.75</vdop><extensions><gom:speed>0.0</gom:speed></extensions></trkpt>
   <trkpt lat="59.0720625708" lon="29.9702081386"><ele>96.695</ele><time>2026-04-25T11:30:27.000Z</time><hdop>3.75</hdop><vdop>3.75</vdop><extensions><gom:speed>0.0</gom:speed></extensions></trkpt>
   <trkpt lat="59.0720625708" lon="29.9702081386"><ele>96.695</ele><time>2026-04-25T11:30:28.000Z</time><hdop>3.75</hdop><vdop>3.75</vdop><extensions><gom:speed>0.0</gom:speed></extensions></trkpt>
   <trkpt lat="59.0720625708" lon="29.9702081386"><ele>96.695</ele><time>2026-04-25T11:30:29.000Z</time><hdop>3.75</hdop><vdop>3.75</vdop><extensions><gom:speed>0.0</gom:speed></extensions></trkpt>
   <trkpt lat="59.0720625708" lon="29.9702081386"><ele>96.695</ele><time>2026-04-25T11:30:30.000Z</time><hdop>3.75</hdop><vdop>3.75</vdop><extensions><gom:speed>0.0</gom:speed></extensions></trkpt>
   <trkpt lat="59.0720625708" lon="29.9702081386"><ele>96.695</ele><time>2026-04-25T11:30:31.000Z</time><hdop>3.75</hdop><vdop>3.75</vdop><extensions><gom:speed>0.0</gom:speed></extensions></trkpt>
   <trkpt lat="59.0720625708" lon="29.9702081386"><ele>96.695</ele><time>2026-04-25T11:30:32.000Z</time><hdop>3.75</hdop><vdop>3.75</vdop><extensions><gom:speed>0.0</gom:speed></extensions></trkpt>
   <trkpt lat="59.0720625708" lon="29.9702081386"><ele>96.695</ele><time>2026-04-25T11:30:33.000Z</time><hdop>3.75</hdop><vdop>3.75</vdop><extensions><gom:speed>0.0</gom:speed></extensions></trkpt>
   <trkpt lat="59.0720625708" lon="29.9702081386"><ele>96.695</ele><time>2026-04-25T11:30:34.000Z</time><hdop>3.75</hdop><vdop>3.75</vdop><extensions><gom:speed>0.0</gom:speed></extensions></trkpt>
   <trkpt lat="59.0720625708" lon="29.9702081386"><ele>96.695</ele><time>2026-04-25T11:30:34.000Z</time><hdop>3.75</hdop><vdop>3.75</vdop><extensions><gom:speed>0.0</gom:speed></extensions></trkpt>
   <trkpt lat="59.0720625708" lon="29.9702081386"><ele>96.695</ele><time>2026-04-25T11:30:35.000Z</time><hdop>3.75</hdop><vdop>3.75</vdop><extensions><gom:speed>0.0</gom:speed></extensions></trkpt>
   <trkpt lat="59.0720625708" lon="29.9702081386"><ele>96.695</ele><time>2026-04-25T11:30:36.000Z</time><hdop>3.75</hdop><vdop>3.75</vdop><extensions><gom:speed>0.0</gom:speed></extensions></trkpt>
   <trkpt lat="59.0720625708" lon="29.9702081386"><ele>96.695</ele><time>2026-04-25T11:30:37.000Z</time><hdop>3.75</hdop><vdop>3.75</vdop><extensions><gom:speed>0.0</gom:speed></extensions></trkpt>
   <trkpt lat="59.0720625708" lon="29.9702081386"><ele>96.695</ele><time>2026-04-25T11:30:38.000Z</time><hdop>3.75</hdop><vdop>3.75</vdop><extensions><gom:speed>0.0</gom:speed></extensions></trkpt>
   <trkpt lat="59.0720625708" lon="29.9702081386"><ele>96.695</ele><time>2026-04-25T11:30:39.000Z</time><hdop>3.75</hdop><vdop>3.75</vdop><extensions><gom:speed>0.0</gom:speed></extensions></trkpt>
   <trkpt lat="59.0720625708" lon="29.9702081386"><ele>96.695</ele><time>2026-04-25T11:30:40.000Z</time><hdop>3.75</hdop><vdop>3.75</vdop><extensions><gom:speed>0.0</gom:speed></extensions></trkpt>
   <trkpt lat="59.0720606849" lon="29.9702150956"><ele>96.635</ele><time>2026-04-25T11:30:41.000Z</time><hdop>4.0</hdop><vdop>4.0</vdop><extensions><gom:speed>0.247</gom:speed></extensions></trkpt>
   <trkpt lat="59.0720606849" lon="29.9702150956"><ele>96.6</ele><time>2026-04-25T11:30:42.000Z</time><hdop>4.0</hdop><vdop>4.0</vdop><extensions><gom:speed>0.0</gom:speed></extensions></trkpt>
   <trkpt lat="59.0720596371" lon="29.9702226393"><ele>96.524</ele><time>2026-04-25T11:30:43.000Z</time><hdop>4.25</hdop><vdop>4.25</vdop><extensions><gom:speed>0.145</gom:speed></extensions></trkpt>
   <trkpt lat="59.072059218" lon="29.9702319432"><ele>96.456</ele><time>2026-04-25T11:30:44.000Z</time><hdop>4.0</hdop><vdop>4.0</vdop><extensions><gom:speed>0.267</gom:speed></extensions></trkpt>
   <trkpt lat="59.0720598048" lon="29.970239906"><ele>96.44</ele><time>2026-04-25T11:30:45.000Z</time><hdop>4.25</hdop><vdop>4.25</vdop><extensions><gom:speed>0.333</gom:speed></extensions></trkpt>
   <trkpt lat="59.0720616069" lon="29.970247785"><ele>96.44</ele><time>2026-04-25T11:30:46.000Z</time><hdop>4.375</hdop><vdop>4.375</vdop><extensions><gom:speed>0.473</gom:speed></extensions></trkpt>
   <trkpt lat="59.0720635347" lon="29.9702571728"><ele>96.462</ele><time>2026-04-25T11:30:47.000Z</time><hdop>4.437</hdop><vdop>4.437</vdop><extensions><gom:speed>0.449</gom:speed></extensions></trkpt>
   <trkpt lat="59.0720672228" lon="29.970266812"><ele>96.49</ele><time>2026-04-25T11:30:48.000Z</time><hdop>4.25</hdop><vdop>4.25</vdop><extensions><gom:speed>0.555</gom:speed></extensions></trkpt>
   <trkpt lat="59.0720672228" lon="29.970266812"><ele>96.507</ele><time>2026-04-25T11:30:48.000Z</time><hdop>4.25</hdop><vdop>4.25</vdop><extensions><gom:speed>0.555</gom:speed></extensions></trkpt>
   <trkpt lat="59.0720701564" lon="29.9702787981"><ele>96.523</ele><time>2026-04-25T11:30:49.000Z</time><hdop>4.0</hdop><vdop>4.0</vdop><extensions><gom:speed>0.57</gom:speed></extensions></trkpt>
   <trkpt lat="59.0720720004" lon="29.9702869285"><ele>96.476</ele><time>2026-04-25T11:30:50.000Z</time><hdop>3.812</hdop><vdop>3.812</vdop><extensions><gom:speed>0.538</gom:speed></extensions></trkpt>
   <trkpt lat="59.0720730482" lon="29.9702938017"><ele>96.372</ele><time>2026-04-25T11:30:51.000Z</time><hdop>3.937</hdop><vdop>3.937</vdop><extensions><gom:speed>0.486</gom:speed></extensions></trkpt>
   <trkpt lat="59.0720721681" lon="29.970302938"><ele>96.269</ele><time>2026-04-25T11:30:52.000Z</time><hdop>4.125</hdop><vdop>4.125</vdop><extensions><gom:speed>0.344</gom:speed></extensions></trkpt>
   <trkpt lat="59.0720717071" lon="29.9703094758"><ele>96.216</ele><time>2026-04-25T11:30:53.000Z</time><hdop>4.687</hdop><vdop>4.687</vdop><extensions><gom:speed>0.33</gom:speed></extensions></trkpt>
   <trkpt lat="59.0720717071" lon="29.9703094758"><ele>96.184</ele><time>2026-04-25T11:30:53.000Z</time><hdop>4.687</hdop><vdop>4.687</vdop><extensions><gom:speed>0.33</gom:speed></extensions></trkpt>
   <trkpt lat="59.0720725034" lon="29.9703178577"><ele>96.166</ele><time>2026-04-25T11:30:54.000Z</time><hdop>4.687</hdop><vdop>4.687</vdop><extensions><gom:speed>0.406</gom:speed></extensions></trkpt>
   <trkpt lat="59.0720730063" lon="29.9703248985"><ele>96.137</ele><time>2026-04-25T11:30:55.000Z</time><hdop>4.937</hdop><vdop>4.937</vdop><extensions><gom:speed>0.329</gom:speed></extensions></trkpt>
   <trkpt lat="59.0720739702" lon="29.9703344539"><ele>96.116</ele><time>2026-04-25T11:30:56.000Z</time><hdop>4.687</hdop><vdop>4.687</vdop><extensions><gom:speed>0.437</gom:speed></extensions></trkpt>
   <trkpt lat="59.0720716652" lon="29.9703447637"><ele>96.026</ele><time>2026-04-25T11:30:57.000Z</time><hdop>4.875</hdop><vdop>4.875</vdop><extensions><gom:speed>0.347</gom:speed></extensions></trkpt>
   <trkpt lat="59.0720707432" lon="29.9703502119"><ele>95.977</ele><time>2026-04-25T11:30:58.000Z</time><hdop>4.875</hdop><vdop>4.875</vdop><extensions><gom:speed>0.112</gom:speed></extensions></trkpt>
   <trkpt lat="59.0720707432" lon="29.9703502119"><ele>95.948</ele><time>2026-04-25T11:30:58.000Z</time><hdop>4.875</hdop><vdop>4.875</vdop><extensions><gom:speed>0.112</gom:speed></extensions></trkpt>
   <trkpt lat="59.0720688153" lon="29.9703555763"><ele>95.959</ele><time>2026-04-25T11:30:59.000Z</time><hdop>4.875</hdop><vdop>4.875</vdop><extensions><gom:speed>0.126</gom:speed></extensions></trkpt>
   <trkpt lat="59.0720688153" lon="29.9703555763"><ele>95.966</ele><time>2026-04-25T11:31:00.000Z</time><hdop>4.875</hdop><vdop>4.875</vdop><extensions><gom:speed>0.0</gom:speed></extensions></trkpt>
   <trkpt lat="59.0720688153" lon="29.9703555763"><ele>95.97</ele><time>2026-04-25T11:31:01.000Z</time><hdop>4.875</hdop><vdop>4.875</vdop><extensions><gom:speed>0.0</gom:speed></extensions></trkpt>
   <trkpt lat="59.0720688153" lon="29.9703555763"><ele>95.973</ele><time>2026-04-25T11:31:02.000Z</time><hdop>4.875</hdop><vdop>4.875</vdop><extensions><gom:speed>0.0</gom:speed></extensions></trkpt>
   <trkpt lat="59.0720664265" lon="29.9703632877"><ele>95.998</ele><time>2026-04-25T11:31:03.000Z</time><hdop>4.75</hdop><vdop>4.75</vdop><extensions><gom:speed>0.102</gom:speed></extensions></trkpt>
   <trkpt lat="59.0720662169" lon="29.970371921"><ele>96.034</ele><time>2026-04-25T11:31:04.000Z</time><hdop>4.437</hdop><vdop>4.437</vdop><extensions><gom:speed>0.166</gom:speed></extensions></trkpt>
   <trkpt lat="59.0720645825" lon="29.9703846615"><ele>96.086</ele><time>2026-04-25T11:31:05.000Z</time><hdop>4.25</hdop><vdop>4.25</vdop><extensions><gom:speed>0.264</gom:speed></extensions></trkpt>
   <trkpt lat="59.0720626965" lon="29.9703972344"><ele>96.166</ele><time>2026-04-25T11:31:06.000Z</time><hdop>4.312</hdop><vdop>4.312</vdop><extensions><gom:speed>0.211</gom:speed></extensions></trkpt>
   <trkpt lat="59.0720610201" lon="29.9704084661"><ele>96.226</ele><time>2026-04-25T11:31:07.000Z</time><hdop>4.0</hdop><vdop>4.0</vdop><extensions><gom:speed>0.259</gom:speed></extensions></trkpt>
   <trkpt lat="59.0720598886" lon="29.9704180215"><ele>96.267</ele><time>2026-04-25T11:31:08.000Z</time><hdop>3.562</hdop><vdop>3.562</vdop><extensions><gom:speed>0.264</gom:speed></extensions></trkpt>
   <trkpt lat="59.0720590085" lon="29.9704274092"><ele>96.293</ele><time>2026-04-25T11:31:09.000Z</time><hdop>3.375</hdop><vdop>3.375</vdop><extensions><gom:speed>0.252</gom:speed></extensions></trkpt>
   <trkpt lat="59.0720590085" lon="29.9704380542"><ele>96.305</ele><time>2026-04-25T11:31:10.000Z</time><hdop>3.375</hdop><vdop>3.375</vdop><extensions><gom:speed>0.357</gom:speed></extensions></trkpt>
   <trkpt lat="59.0720568711" lon="29.9704435863"><ele>96.281</ele><time>2026-04-25T11:31:11.000Z</time><hdop>3.5</hdop><vdop>3.5</vdop><extensions><gom:speed>0.137</gom:speed></extensions></trkpt>
   <trkpt lat="59.0720568711" lon="29.9704435863"><ele>96.267</ele><time>2026-04-25T11:31:11.000Z</time><hdop>3.5</hdop><vdop>3.5</vdop><extensions><gom:speed>0.137</gom:speed></extensions></trkpt>
   <trkpt lat="59.0720543984" lon="29.9704515491"><ele>96.283</ele><time>2026-04-25T11:31:12.000Z</time><hdop>3.437</hdop><vdop>3.437</vdop><extensions><gom:speed>0.154</gom:speed></extensions></trkpt>
   <trkpt lat="59.072051381" lon="29.9704569973"><ele>96.286</ele><time>2026-04-25T11:31:13.000Z</time><hdop>3.187</hdop><vdop>3.187</vdop><extensions><gom:speed>0.157</gom:speed></extensions></trkpt>
   <trkpt lat="59.0720478187" lon="29.9704662174"><ele>96.272</ele><time>2026-04-25T11:31:14.000Z</time><hdop>3.5</hdop><vdop>3.5</vdop><extensions><gom:speed>0.242</gom:speed></extensions></trkpt>
   <trkpt lat="59.0720456813" lon="29.9704739288"><ele>96.194</ele><time>2026-04-25T11:31:15.000Z</time><hdop>3.625</hdop><vdop>3.625</vdop><extensions><gom:speed>0.194</gom:speed></extensions></trkpt>
   <trkpt lat="59.0720422866" lon="29.9704827298"><ele>96.141</ele><time>2026-04-25T11:31:16.000Z</time><hdop>3.562</hdop><vdop>3.562</vdop><extensions><gom:speed>0.199</gom:speed></extensions></trkpt>
   <trkpt lat="59.072041616" lon="29.970493291"><ele>96.087</ele><time>2026-04-25T11:31:17.000Z</time><hdop>3.75</hdop><vdop>3.75</vdop><extensions><gom:speed>0.239</gom:speed></extensions></trkpt>
   <trkpt lat="59.072043041" lon="29.9704991583"><ele>96.058</ele><time>2026-04-25T11:31:18.000Z</time><hdop>3.687</hdop><vdop>3.687</vdop><extensions><gom:speed>0.18</gom:speed></extensions></trkpt>
   <trkpt lat="59.0720443821" lon="29.9705052771"><ele>96.015</ele><time>2026-04-25T11:31:19.000Z</time><hdop>3.625</hdop><vdop>3.625</vdop><extensions><gom:speed>0.276</gom:speed></extensions></trkpt>
   <trkpt lat="59.072046729" lon="29.9705118988"><ele>95.964</ele><time>2026-04-25T11:31:20.000Z</time><hdop>3.312</hdop><vdop>3.312</vdop><extensions><gom:speed>0.32</gom:speed></extensions></trkpt>
   <trkpt lat="59.0720494531" lon="29.9705203645"><ele>95.858</ele><time>2026-04-25T11:31:21.000Z</time><hdop>3.187</hdop><vdop>3.187</vdop><extensions><gom:speed>0.325</gom:speed></extensions></trkpt>
   <trkpt lat="59.0720507104" lon="29.9705322668"><ele>95.791</ele><time>2026-04-25T11:31:22.000Z</time><hdop>3.437</hdop><vdop>3.437</vdop><extensions><gom:speed>0.374</gom:speed></extensions></trkpt>
   <trkpt lat="59.0720500818" lon="29.9705431633"><ele>95.69</ele><time>2026-04-25T11:31:23.000Z</time><hdop>3.625</hdop><vdop>3.625</vdop><extensions><gom:speed>0.311</gom:speed></extensions></trkpt>
   <trkpt lat="59.0720485311" lon="29.9705569934"><ele>95.607</ele><time>2026-04-25T11:31:24.000Z</time><hdop>3.812</hdop><vdop>3.812</vdop><extensions><gom:speed>0.415</gom:speed></extensions></trkpt>
   <trkpt lat="59.0720485311" lon="29.9705569934"><ele>95.557</ele><time>2026-04-25T11:31:24.000Z</time><hdop>3.812</hdop><vdop>3.812</vdop><extensions><gom:speed>0.415</gom:speed></extensions></trkpt>
   <trkpt lat="59.0720487407" lon="29.9705709074"><ele>95.516</ele><time>2026-04-25T11:31:25.000Z</time><hdop>4.062</hdop><vdop>4.062</vdop><extensions><gom:speed>0.458</gom:speed></extensions></trkpt>
   <trkpt lat="59.0720487407" lon="29.9705709074"><ele>95.491</ele><time>2026-04-25T11:31:25.000Z</time><hdop>4.062</hdop><vdop>4.062</vdop><extensions><gom:speed>0.458</gom:speed></extensions></trkpt>
   <trkpt lat="59.0720513391" lon="29.9705818039"><ele>95.454</ele><time>2026-04-25T11:31:26.000Z</time><hdop>4.062</hdop><vdop>4.062</vdop><extensions><gom:speed>0.509</gom:speed></extensions></trkpt>
   <trkpt lat="59.0720553624" lon="29.9705939576"><ele>95.406</ele><time>2026-04-25T11:31:27.000Z</time><hdop>4.062</hdop><vdop>4.062</vdop><extensions><gom:speed>0.512</gom:speed></extensions></trkpt>
   <trkpt lat="59.0720608106" lon="29.9706097156"><ele>95.303</ele><time>2026-04-25T11:31:28.000Z</time><hdop>4.187</hdop><vdop>4.187</vdop><extensions><gom:speed>0.631</gom:speed></extensions></trkpt>
   <trkpt lat="59.0720681029" lon="29.9706232943"><ele>95.173</ele><time>2026-04-25T11:31:29.000Z</time><hdop>3.937</hdop><vdop>3.937</vdop><extensions><gom:speed>0.704</gom:speed></extensions></trkpt>
   <trkpt lat="59.0720739283" lon="29.9706354481"><ele>95.023</ele><time>2026-04-25T11:31:30.000Z</time><hdop>3.75</hdop><vdop>3.75</vdop><extensions><gom:speed>0.598</gom:speed></extensions></trkpt>
   <trkpt lat="59.072077281" lon="29.9706428241"><ele>94.913</ele><time>2026-04-25T11:31:31.000Z</time><hdop>3.812</hdop><vdop>3.812</vdop><extensions><gom:speed>0.337</gom:speed></extensions></trkpt>
   <trkpt lat="59.0720791251" lon="29.9706514575"><ele>94.844</ele><time>2026-04-25T11:31:32.000Z</time><hdop>3.812</hdop><vdop>3.812</vdop><extensions><gom:speed>0.19</gom:speed></extensions></trkpt>
   <trkpt lat="59.0720832322" lon="29.9706562352"><ele>94.772</ele><time>2026-04-25T11:31:33.000Z</time><hdop>3.812</hdop><vdop>3.812</vdop><extensions><gom:speed>0.343</gom:speed></extensions></trkpt>
   <trkpt lat="59.0720832322" lon="29.9706562352"><ele>94.728</ele><time>2026-04-25T11:31:33.000Z</time><hdop>3.812</hdop><vdop>3.812</vdop><extensions><gom:speed>0.343</gom:speed></extensions></trkpt>
   <trkpt lat="59.0720871717" lon="29.9706693109"><ele>94.655</ele><time>2026-04-25T11:31:34.000Z</time><hdop>3.562</hdop><vdop>3.562</vdop><extensions><gom:speed>0.431</gom:speed></extensions></trkpt>
   <trkpt lat="59.0720947992" lon="29.9706812133"><ele>94.534</ele><time>2026-04-25T11:31:35.000Z</time><hdop>3.75</hdop><vdop>3.75</vdop><extensions><gom:speed>0.476</gom:speed></extensions></trkpt>
   <trkpt lat="59.0720947992" lon="29.9706812133"><ele>94.461</ele><time>2026-04-25T11:31:36.000Z</time><hdop>3.75</hdop><vdop>3.75</vdop><extensions><gom:speed>0.0</gom:speed></extensions></trkpt>
   <trkpt lat="59.0720947992" lon="29.9706812133"><ele>94.418</ele><time>2026-04-25T11:31:36.000Z</time><hdop>3.75</hdop><vdop>3.75</vdop><extensions><gom:speed>0.0</gom:speed></extensions></trkpt>
   <trkpt lat="59.0720947992" lon="29.9706812133"><ele>94.392</ele><time>2026-04-25T11:31:37.000Z</time><hdop>3.75</hdop><vdop>3.75</vdop><extensions><gom:speed>0.0</gom:speed></extensions></trkpt>
   <trkpt lat="59.0720947992" lon="29.9706812133"><ele>94.377</ele><time>2026-04-25T11:31:38.000Z</time><hdop>3.75</hdop><vdop>3.75</vdop><extensions><gom:speed>0.0</gom:speed></extensions></trkpt>
   <trkpt lat="59.0720947992" lon="29.9706812133"><ele>94.368</ele><time>2026-04-25T11:31:39.000Z</time><hdop>3.75</hdop><vdop>3.75</vdop><extensions><gom:speed>0.0</gom:speed></extensions></trkpt>
   <trkpt lat="59.0720947992" lon="29.9706812133"><ele>94.362</ele><time>2026-04-25T11:31:39.000Z</time><hdop>3.75</hdop><vdop>3.75</vdop><extensions><gom:speed>0.0</gom:speed></extensions></trkpt>
   <trkpt lat="59.0720947992" lon="29.9706812133"><ele>94.359</ele><time>2026-04-25T11:31:40.000Z</time><hdop>3.75</hdop><vdop>3.75</vdop><extensions><gom:speed>0.0</gom:speed></extensions></trkpt>
   <trkpt lat="59.0720947992" lon="29.9706812133"><ele>94.357</ele><time>2026-04-25T11:31:41.000Z</time><hdop>3.75</hdop><vdop>3.75</vdop><extensions><gom:speed>0.0</gom:speed></extensions></trkpt>
   <trkpt lat="59.0720947992" lon="29.9706812133"><ele>94.356</ele><time>2026-04-25T11:31:42.000Z</time><hdop>3.75</hdop><vdop>3.75</vdop><extensions><gom:speed>0.0</gom:speed></extensions></trkpt>
   <trkpt lat="59.0720947992" lon="29.9706812133"><ele>94.355</ele><time>2026-04-25T11:31:43.000Z</time><hdop>3.75</hdop><vdop>3.75</vdop><extensions><gom:speed>0.0</gom:speed></extensions></trkpt>
   <trkpt lat="59.0720947992" lon="29.9706812133"><ele>94.355</ele><time>2026-04-25T11:31:44.000Z</time><hdop>3.75</hdop><vdop>3.75</vdop><extensions><gom:speed>0.0</gom:speed></extensions></trkpt>
   <trkpt lat="59.0720947992" lon="29.9706812133"><ele>94.354</ele><time>2026-04-25T11:31:45.000Z</time><hdop>3.75</hdop><vdop>3.75</vdop><extensions><gom:speed>0.0</gom:speed></extensions></trkpt>
   <trkpt lat="59.0720947992" lon="29.9706812133"><ele>94.354</ele><time>2026-04-25T11:31:46.000Z</time><hdop>3.75</hdop><vdop>3.75</vdop><extensions><gom:speed>0.0</gom:speed></extensions></trkpt>
   <trkpt lat="59.0720947992" lon="29.9706812133"><ele>94.354</ele><time>2026-04-25T11:31:47.000Z</time><hdop>3.75</hdop><vdop>3.75</vdop><extensions><gom:speed>0.0</gom:speed></extensions></trkpt>
   <trkpt lat="59.0720947992" lon="29.9706812133"><ele>94.354</ele><time>2026-04-25T11:31:48.000Z</time><hdop>3.75</hdop><vdop>3.75</vdop><extensions><gom:speed>0.0</gom:speed></extensions></trkpt>
   <trkpt lat="59.0720947992" lon="29.9706812133"><ele>94.354</ele><time>2026-04-25T11:31:49.000Z</time><hdop>3.75</hdop><vdop>3.75</vdop><extensions><gom:speed>0.0</gom:speed></extensions></trkpt>
   <trkpt lat="59.0720947992" lon="29.9706812133"><ele>94.354</ele><time>2026-04-25T11:31:50.000Z</time><hdop>3.75</hdop><vdop>3.75</vdop><extensions><gom:speed>0.0</gom:speed></extensions></trkpt>
   <trkpt lat="59.0720947992" lon="29.9706812133"><ele>94.354</ele><time>2026-04-25T11:31:51.000Z</time><hdop>3.75</hdop><vdop>3.75</vdop><extensions><gom:speed>0.0</gom:speed></extensions></trkpt>
   <trkpt lat="59.0720947992" lon="29.9706812133"><ele>94.354</ele><time>2026-04-25T11:31:52.000Z</time><hdop>3.75</hdop><vdop>3.75</vdop><extensions><gom:speed>0.0</gom:speed></extensions></trkpt>
   <trkpt lat="59.0720947992" lon="29.9706812133"><ele>94.354</ele><time>2026-04-25T11:31:53.000Z</time><hdop>3.75</hdop><vdop>3.75</vdop><extensions><gom:speed>0.0</gom:speed></extensions></trkpt>
   <trkpt lat="59.0720947992" lon="29.9706812133"><ele>94.354</ele><time>2026-04-25T11:31:54.000Z</time><hdop>3.75</hdop><vdop>3.75</vdop><extensions><gom:speed>0.0</gom:speed></extensions></trkpt>
   <trkpt lat="59.0720947992" lon="29.9706812133"><ele>94.354</ele><time>2026-04-25T11:31:55.000Z</time><hdop>3.75</hdop><vdop>3.75</vdop><extensions><gom:speed>0.0</gom:speed></extensions></trkpt>
   <trkpt lat="59.0720947992" lon="29.9706812133"><ele>94.354</ele><time>2026-04-25T11:31:56.000Z</time><hdop>3.75</hdop><vdop>3.75</vdop><extensions><gom:speed>0.0</gom:speed></extensions></trkpt>
   <trkpt lat="59.0720947992" lon="29.9706812133"><ele>94.354</ele><time>2026-04-25T11:31:56.000Z</time><hdop>3.75</hdop><vdop>3.75</vdop><extensions><gom:speed>0.0</gom:speed></extensions></trkpt>
   <trkpt lat="59.0720947992" lon="29.9706812133"><ele>94.354</ele><time>2026-04-25T11:31:57.000Z</time><hdop>3.75</hdop><vdop>3.75</vdop><extensions><gom:speed>0.0</gom:speed></extensions></trkpt>
   <trkpt lat="59.0720947992" lon="29.9706812133"><ele>94.354</ele><time>2026-04-25T11:31:58.000Z</time><hdop>3.75</hdop><vdop>3.75</vdop><extensions><gom:speed>0.0</gom:speed></extensions></trkpt>
   <trkpt lat="59.0720947992" lon="29.9706812133"><ele>94.354</ele><time>2026-04-25T11:31:59.000Z</time><hdop>3.75</hdop><vdop>3.75</vdop><extensions><gom:speed>0.0</gom:speed></extensions></trkpt>
   <trkpt lat="59.072096308" lon="29.9706937861"><ele>94.245</ele><time>2026-04-25T11:32:00.000Z</time><hdop>4.0</hdop><vdop>4.0</vdop><extensions><gom:speed>0.21</gom:speed></extensions></trkpt>
   <trkpt lat="59.072096308" lon="29.9706937861"><ele>94.18</ele><time>2026-04-25T11:32:01.000Z</time><hdop>4.0</hdop><vdop>4.0</vdop><extensions><gom:speed>0.0</gom:speed></extensions></trkpt>
   <trkpt lat="59.072096308" lon="29.9706937861"><ele>94.141</ele><time>2026-04-25T11:32:02.000Z</time><hdop>4.0</hdop><vdop>4.0</vdop><extensions><gom:speed>0.0</gom:speed></extensions></trkpt>
   <trkpt lat="59.072096308" lon="29.9706937861"><ele>94.118</ele><time>2026-04-25T11:32:03.000Z</time><hdop>4.0</hdop><vdop>4.0</vdop><extensions><gom:speed>0.0</gom:speed></extensions></trkpt>
   <trkpt lat="59.0720968109" lon="29.9706983962"><ele>94.127</ele><time>2026-04-25T11:32:04.000Z</time><hdop>3.812</hdop><vdop>3.812</vdop><extensions><gom:speed>0.227</gom:speed></extensions></trkpt>
   <trkpt lat="59.0720968109" lon="29.9706983962"><ele>94.132</ele><time>2026-04-25T11:32:05.000Z</time><hdop>3.812</hdop><vdop>3.812</vdop><extensions><gom:speed>0.0</gom:speed></extensions></trkpt>
   <trkpt lat="59.0720968109" lon="29.9706983962"><ele>94.136</ele><time>2026-04-25T11:32:06.000Z</time><hdop>3.812</hdop><vdop>3.812</vdop><extensions><gom:speed>0.0</gom:speed></extensions></trkpt>
   <trkpt lat="59.0720968109" lon="29.9706983962"><ele>94.138</ele><time>2026-04-25T11:32:07.000Z</time><hdop>3.812</hdop><vdop>3.812</vdop><extensions><gom:speed>0.0</gom:speed></extensions></trkpt>
   <trkpt lat="59.0720968109" lon="29.9706983962"><ele>94.139</ele><time>2026-04-25T11:32:08.000Z</time><hdop>3.812</hdop><vdop>3.812</vdop><extensions><gom:speed>0.0</gom:speed></extensions></trkpt>
   <trkpt lat="59.0720968109" lon="29.9706983962"><ele>94.14</ele><time>2026-04-25T11:32:09.000Z</time><hdop>3.812</hdop><vdop>3.812</vdop><extensions><gom:speed>0.0</gom:speed></extensions></trkpt>
   <trkpt lat="59.0720968109" lon="29.9706983962"><ele>94.14</ele><time>2026-04-25T11:32:10.000Z</time><hdop>3.812</hdop><vdop>3.812</vdop><extensions><gom:speed>0.0</gom:speed></extensions></trkpt>
   <trkpt lat="59.0720968109" lon="29.9706983962"><ele>94.14</ele><time>2026-04-25T11:32:11.000Z</time><hdop>3.812</hdop><vdop>3.812</vdop><extensions><gom:speed>0.0</gom:speed></extensions></trkpt>
   <trkpt lat="59.0720968109" lon="29.9706983962"><ele>94.14</ele><time>2026-04-25T11:32:12.000Z</time><hdop>3.812</hdop><vdop>3.812</vdop><extensions><gom:speed>0.0</gom:speed></extensions></trkpt>
   <trkpt lat="59.0720968109" lon="29.9706983962"><ele>94.14</ele><time>2026-04-25T11:32:13.000Z</time><hdop>3.812</hdop><vdop>3.812</vdop><extensions><gom:speed>0.0</gom:speed></extensions></trkpt>
   <trkpt lat="59.0720968109" lon="29.9706983962"><ele>94.14</ele><time>2026-04-25T11:32:14.000Z</time><hdop>3.812</hdop><vdop>3.812</vdop><extensions><gom:speed>0.0</gom:speed></extensions></trkpt>
   <trkpt lat="59.0720968109" lon="29.9706983962"><ele>94.14</ele><time>2026-04-25T11:32:15.000Z</time><hdop>3.812</hdop><vdop>3.812</vdop><extensions><gom:speed>0.0</gom:speed></extensions></trkpt>
   <trkpt lat="59.0720968109" lon="29.9706983962"><ele>94.141</ele><time>2026-04-25T11:32:16.000Z</time><hdop>3.812</hdop><vdop>3.812</vdop><extensions><gom:speed>0.0</gom:speed></extensions></trkpt>
   <trkpt lat="59.0720968109" lon="29.9706983962"><ele>94.141</ele><time>2026-04-25T11:32:16.000Z</time><hdop>3.812</hdop><vdop>3.812</vdop><extensions><gom:speed>0.0</gom:speed></extensions></trkpt>
   <trkpt lat="59.0720968109" lon="29.9706983962"><ele>94.141</ele><time>2026-04-25T11:32:17.000Z</time><hdop>3.812</hdop><vdop>3.812</vdop><extensions><gom:speed>0.0</gom:speed></extensions></trkpt>
   <trkpt lat="59.0720968109" lon="29.9706983962"><ele>94.141</ele><time>2026-04-25T11:32:18.000Z</time><hdop>3.812</hdop><vdop>3.812</vdop><extensions><gom:speed>0.0</gom:speed></extensions></trkpt>
   <trkpt lat="59.0720968109" lon="29.9706983962"><ele>94.141</ele><time>2026-04-25T11:32:19.000Z</time><hdop>3.812</hdop><vdop>3.812</vdop><extensions><gom:speed>0.0</gom:speed></extensions></trkpt>
   <trkpt lat="59.0720968109" lon="29.9706983962"><ele>94.141</ele><time>2026-04-25T11:32:20.000Z</time><hdop>3.812</hdop><vdop>3.812</vdop><extensions><gom:speed>0.0</gom:speed></extensions></trkpt>
   <trkpt lat="59.0720968109" lon="29.9706983962"><ele>94.141</ele><time>2026-04-25T11:32:20.000Z</time><hdop>3.812</hdop><vdop>3.812</vdop><extensions><gom:speed>0.0</gom:speed></extensions></trkpt>
   <trkpt lat="59.0720968109" lon="29.9706983962"><ele>94.141</ele><time>2026-04-25T11:32:21.000Z</time><hdop>3.812</hdop><vdop>3.812</vdop><extensions><gom:speed>0.0</gom:speed></extensions></trkpt>
   <trkpt lat="59.0720968109" lon="29.9706983962"><ele>94.141</ele><time>2026-04-25T11:32:22.000Z</time><hdop>3.812</hdop><vdop>3.812</vdop><extensions><gom:speed>0.0</gom:speed></extensions></trkpt>
   <trkpt lat="59.0720968109" lon="29.9706983962"><ele>94.141</ele><time>2026-04-25T11:32:23.000Z</time><hdop>3.812</hdop><vdop>3.812</vdop><extensions><gom:speed>0.0</gom:speed></extensions></trkpt>
   <trkpt lat="59.0720968109" lon="29.9706983962"><ele>94.141</ele><time>2026-04-25T11:32:24.000Z</time><hdop>3.812</hdop><vdop>3.812</vdop><extensions><gom:speed>0.0</gom:speed></extensions></trkpt>
   <trkpt lat="59.0720968109" lon="29.9706983962"><ele>94.141</ele><time>2026-04-25T11:32:25.000Z</time><hdop>3.812</hdop><vdop>3.812</vdop><extensions><gom:speed>0.0</gom:speed></extensions></trkpt>
   <trkpt lat="59.0720968109" lon="29.9706983962"><ele>94.141</ele><time>2026-04-25T11:32:26.000Z</time><hdop>3.812</hdop><vdop>3.812</vdop><extensions><gom:speed>0.0</gom:speed></extensions></trkpt>
   <trkpt lat="59.0720968109" lon="29.9706983962"><ele>94.141</ele><time>2026-04-25T11:32:27.000Z</time><hdop>3.812</hdop><vdop>3.812</vdop><extensions><gom:speed>0.0</gom:speed></extensions></trkpt>
   <trkpt lat="59.0720968109" lon="29.9706983962"><ele>94.141</ele><time>2026-04-25T11:32:28.000Z</time><hdop>3.812</hdop><vdop>3.812</vdop><extensions><gom:speed>0.0</gom:speed></extensions></trkpt>
   <trkpt lat="59.0720968109" lon="29.9706983962"><ele>94.141</ele><time>2026-04-25T11:32:29.000Z</time><hdop>3.812</hdop><vdop>3.812</vdop><extensions><gom:speed>0.0</gom:speed></extensions></trkpt>
   <trkpt lat="59.0720968109" lon="29.9706983962"><ele>94.141</ele><time>2026-04-25T11:32:30.000Z</time><hdop>3.812</hdop><vdop>3.812</vdop><extensions><gom:speed>0.0</gom:speed></extensions></trkpt>
   <trkpt lat="59.0720968109" lon="29.9706983962"><ele>94.141</ele><time>2026-04-25T11:32:31.000Z</time><hdop>3.812</hdop><vdop>3.812</vdop><extensions><gom:speed>0.0</gom:speed></extensions></trkpt>
   <trkpt lat="59.0720968109" lon="29.9706983962"><ele>94.141</ele><time>2026-04-25T11:32:32.000Z</time><hdop>3.812</hdop><vdop>3.812</vdop><extensions><gom:speed>0.0</gom:speed></extensions></trkpt>
   <trkpt lat="59.0720968109" lon="29.9706983962"><ele>94.141</ele><time>2026-04-25T11:32:33.000Z</time><hdop>3.812</hdop><vdop>3.812</vdop><extensions><gom:speed>0.0</gom:speed></extensions></trkpt>
   <trkpt lat="59.0720968109" lon="29.9706983962"><ele>94.141</ele><time>2026-04-25T11:32:34.000Z</time><hdop>3.812</hdop><vdop>3.812</vdop><extensions><gom:speed>0.0</gom:speed></extensions></trkpt>
   <trkpt lat="59.0720968109" lon="29.9706983962"><ele>94.141</ele><time>2026-04-25T11:32:35.000Z</time><hdop>3.812</hdop><vdop>3.812</vdop><extensions><gom:speed>0.0</gom:speed></extensions></trkpt>
   <trkpt lat="59.0720968109" lon="29.9706983962"><ele>94.141</ele><time>2026-04-25T11:32:36.000Z</time><hdop>3.812</hdop><vdop>3.812</vdop><extensions><gom:speed>0.0</gom:speed></extensions></trkpt>
   <trkpt lat="59.0720968109" lon="29.9706983962"><ele>94.141</ele><time>2026-04-25T11:32:37.000Z</time><hdop>3.812</hdop><vdop>3.812</vdop><extensions><gom:speed>0.0</gom:speed></extensions></trkpt>
   <trkpt lat="59.0720968109" lon="29.9706983962"><ele>94.141</ele><time>2026-04-25T11:32:38.000Z</time><hdop>3.812</hdop><vdop>3.812</vdop><extensions><gom:speed>0.0</gom:speed></extensions></trkpt>
   <trkpt lat="59.0720968109" lon="29.9706983962"><ele>94.141</ele><time>2026-04-25T11:32:39.000Z</time><hdop>3.812</hdop><vdop>3.812</vdop><extensions><gom:speed>0.0</gom:speed></extensions></trkpt>
   <trkpt lat="59.0720968109" lon="29.9706983962"><ele>94.141</ele><time>2026-04-25T11:32:40.000Z</time><hdop>3.812</hdop><vdop>3.812</vdop><extensions><gom:speed>0.0</gom:speed></extensions></trkpt>
   <trkpt lat="59.0720968109" lon="29.9706983962"><ele>94.141</ele><time>2026-04-25T11:32:41.000Z</time><hdop>3.812</hdop><vdop>3.812</vdop><extensions><gom:speed>0.0</gom:speed></extensions></trkpt>
   <trkpt lat="59.0720968109" lon="29.9706983962"><ele>94.141</ele><time>2026-04-25T11:32:42.000Z</time><hdop>3.812</hdop><vdop>3.812</vdop><extensions><gom:speed>0.0</gom:speed></extensions></trkpt>
   <trkpt lat="59.0720968109" lon="29.9706983962"><ele>94.141</ele><time>2026-04-25T11:32:43.000Z</time><hdop>3.812</hdop><vdop>3.812</vdop><extensions><gom:speed>0.0</gom:speed></extensions></trkpt>
   <trkpt lat="59.0720968109" lon="29.9706983962"><ele>94.141</ele><time>2026-04-25T11:32:44.000Z</time><hdop>3.812</hdop><vdop>3.812</vdop><extensions><gom:speed>0.0</gom:speed></extensions></trkpt>
   <trkpt lat="59.0720968109" lon="29.9706983962"><ele>94.141</ele><time>2026-04-25T11:32:45.000Z</time><hdop>3.812</hdop><vdop>3.812</vdop><extensions><gom:speed>0.0</gom:speed></extensions></trkpt>
   <trkpt lat="59.0720968109" lon="29.9706983962"><ele>94.141</ele><time>2026-04-25T11:32:46.000Z</time><hdop>3.812</hdop><vdop>3.812</vdop><extensions><gom:speed>0.0</gom:speed></extensions></trkpt>
   <trkpt lat="59.0720968109" lon="29.9706983962"><ele>94.141</ele><time>2026-04-25T11:32:47.000Z</time><hdop>3.812</hdop><vdop>3.812</vdop><extensions><gom:speed>0.0</gom:speed></extensions></trkpt>
   <trkpt lat="59.0720968109" lon="29.9706983962"><ele>94.141</ele><time>2026-04-25T11:32:48.000Z</time><hdop>3.812</hdop><vdop>3.812</vdop><extensions><gom:speed>0.0</gom:speed></extensions></trkpt>
   <trkpt lat="59.0720968109" lon="29.9706983962"><ele>94.141</ele><time>2026-04-25T11:32:49.000Z</time><hdop>3.812</hdop><vdop>3.812</vdop><extensions><gom:speed>0.0</gom:speed></extensions></trkpt>
   <trkpt lat="59.0720968109" lon="29.9706983962"><ele>94.141</ele><time>2026-04-25T11:32:50.000Z</time><hdop>3.812</hdop><vdop>3.812</vdop><extensions><gom:speed>0.0</gom:speed></extensions></trkpt>
   <trkpt lat="59.0720988644" lon="29.9707165011"><ele>94.197</ele><time>2026-04-25T11:32:51.000Z</time><hdop>4.375</hdop><vdop>4.375</vdop><extensions><gom:speed>0.385</gom:speed></extensions></trkpt>
   <trkpt lat="59.0720988644" lon="29.9707165011"><ele>94.231</ele><time>2026-04-25T11:32:52.000Z</time><hdop>4.375</hdop><vdop>4.375</vdop><extensions><gom:speed>0.0</gom:speed></extensions></trkpt>
   <trkpt lat="59.0720988644" lon="29.9707165011"><ele>94.251</ele><time>2026-04-25T11:32:53.000Z</time><hdop>4.375</hdop><vdop>4.375</vdop><extensions><gom:speed>0.0</gom:speed></extensions></trkpt>
   <trkpt lat="59.0721019657" lon="29.9707249668"><ele>94.251</ele><time>2026-04-25T11:32:54.000Z</time><hdop>4.75</hdop><vdop>4.75</vdop><extensions><gom:speed>0.226</gom:speed></extensions></trkpt>
   <trkpt lat="59.0721019657" lon="29.9707249668"><ele>94.25</ele><time>2026-04-25T11:32:55.000Z</time><hdop>4.75</hdop><vdop>4.75</vdop><extensions><gom:speed>0.0</gom:speed></extensions></trkpt>
   <trkpt lat="59.0721019657" lon="29.9707249668"><ele>94.25</ele><time>2026-04-25T11:32:56.000Z</time><hdop>4.75</hdop><vdop>4.75</vdop><extensions><gom:speed>0.0</gom:speed></extensions></trkpt>
   <trkpt lat="59.0721019657" lon="29.9707249668"><ele>94.25</ele><time>2026-04-25T11:32:57.000Z</time><hdop>4.75</hdop><vdop>4.75</vdop><extensions><gom:speed>0.0</gom:speed></extensions></trkpt>
   <trkpt lat="59.0721019657" lon="29.9707249668"><ele>94.25</ele><time>2026-04-25T11:32:58.000Z</time><hdop>4.75</hdop><vdop>4.75</vdop><extensions><gom:speed>0.0</gom:speed></extensions></trkpt>
   <trkpt lat="59.0721019657" lon="29.9707249668"><ele>94.25</ele><time>2026-04-25T11:32:59.000Z</time><hdop>4.75</hdop><vdop>4.75</vdop><extensions><gom:speed>0.0</gom:speed></extensions></trkpt>
   <trkpt lat="59.0721019657" lon="29.9707249668"><ele>94.25</ele><time>2026-04-25T11:33:00.000Z</time><hdop>4.75</hdop><vdop>4.75</vdop><extensions><gom:speed>0.0</gom:speed></extensions></trkpt>
   <trkpt lat="59.0721019657" lon="29.9707249668"><ele>94.25</ele><time>2026-04-25T11:33:00.000Z</time><hdop>4.75</hdop><vdop>4.75</vdop><extensions><gom:speed>0.0</gom:speed></extensions></trkpt>
   <trkpt lat="59.0721019657" lon="29.9707249668"><ele>94.25</ele><time>2026-04-25T11:33:01.000Z</time><hdop>4.75</hdop><vdop>4.75</vdop><extensions><gom:speed>0.0</gom:speed></extensions></trkpt>
   <trkpt lat="59.0721019657" lon="29.9707249668"><ele>94.25</ele><time>2026-04-25T11:33:02.000Z</time><hdop>4.75</hdop><vdop>4.75</vdop><extensions><gom:speed>0.0</gom:speed></extensions></trkpt>
   <trkpt lat="59.0721019657" lon="29.9707249668"><ele>94.25</ele><time>2026-04-25T11:33:03.000Z</time><hdop>4.75</hdop><vdop>4.75</vdop><extensions><gom:speed>0.0</gom:speed></extensions></trkpt>
   <trkpt lat="59.0721019657" lon="29.9707249668"><ele>94.25</ele><time>2026-04-25T11:33:04.000Z</time><hdop>4.75</hdop><vdop>4.75</vdop><extensions><gom:speed>0.0</gom:speed></extensions></trkpt>
   <trkpt lat="59.0721019657" lon="29.9707249668"><ele>94.25</ele><time>2026-04-25T11:33:05.000Z</time><hdop>4.75</hdop><vdop>4.75</vdop><extensions><gom:speed>0.0</gom:speed></extensions></trkpt>
   <trkpt lat="59.0721019657" lon="29.9707249668"><ele>94.25</ele><time>2026-04-25T11:33:06.000Z</time><hdop>4.75</hdop><vdop>4.75</vdop><extensions><gom:speed>0.0</gom:speed></extensions></trkpt>
   <trkpt lat="59.0721019657" lon="29.9707249668"><ele>94.25</ele><time>2026-04-25T11:33:07.000Z</time><hdop>4.75</hdop><vdop>4.75</vdop><extensions><gom:speed>0.0</gom:speed></extensions></trkpt>
   <trkpt lat="59.0721019657" lon="29.9707249668"><ele>94.25</ele><time>2026-04-25T11:33:08.000Z</time><hdop>4.75</hdop><vdop>4.75</vdop><extensions><gom:speed>0.0</gom:speed></extensions></trkpt>
   <trkpt lat="59.0721019657" lon="29.9707249668"><ele>94.25</ele><time>2026-04-25T11:33:09.000Z</time><hdop>4.75</hdop><vdop>4.75</vdop><extensions><gom:speed>0.0</gom:speed></extensions></trkpt>
   <trkpt lat="59.0721019657" lon="29.9707249668"><ele>94.25</ele><time>2026-04-25T11:33:10.000Z</time><hdop>4.75</hdop><vdop>4.75</vdop><extensions><gom:speed>0.0</gom:speed></extensions></trkpt>
   <trkpt lat="59.0721019657" lon="29.9707249668"><ele>94.25</ele><time>2026-04-25T11:33:11.000Z</time><hdop>4.75</hdop><vdop>4.75</vdop><extensions><gom:speed>0.0</gom:speed></extensions></trkpt>
   <trkpt lat="59.0721019657" lon="29.9707249668"><ele>94.25</ele><time>2026-04-25T11:33:12.000Z</time><hdop>4.75</hdop><vdop>4.75</vdop><extensions><gom:speed>0.0</gom:speed></extensions></trkpt>
   <trkpt lat="59.0721019657" lon="29.9707249668"><ele>94.25</ele><time>2026-04-25T11:33:13.000Z</time><hdop>4.75</hdop><vdop>4.75</vdop><extensions><gom:speed>0.0</gom:speed></extensions></trkpt>
   <trkpt lat="59.0721019657" lon="29.9707249668"><ele>94.25</ele><time>2026-04-25T11:33:13.000Z</time><hdop>4.75</hdop><vdop>4.75</vdop><extensions><gom:speed>0.0</gom:speed></extensions></trkpt>
   <trkpt lat="59.0721019657" lon="29.9707249668"><ele>94.25</ele><time>2026-04-25T11:33:14.000Z</time><hdop>4.75</hdop><vdop>4.75</vdop><extensions><gom:speed>0.0</gom:speed></extensions></trkpt>
   <trkpt lat="59.0721019657" lon="29.9707249668"><ele>94.25</ele><time>2026-04-25T11:33:15.000Z</time><hdop>4.75</hdop><vdop>4.75</vdop><extensions><gom:speed>0.0</gom:speed></extensions></trkpt>
   <trkpt lat="59.0721019657" lon="29.9707249668"><ele>94.25</ele><time>2026-04-25T11:33:16.000Z</time><hdop>4.75</hdop><vdop>4.75</vdop><extensions><gom:speed>0.0</gom:speed></extensions></trkpt>
   <trkpt lat="59.0721019657" lon="29.9707249668"><ele>94.25</ele><time>2026-04-25T11:33:17.000Z</time><hdop>4.75</hdop><vdop>4.75</vdop><extensions><gom:speed>0.0</gom:speed></extensions></trkpt>
   <trkpt lat="59.0721019657" lon="29.9707249668"><ele>94.25</ele><time>2026-04-25T11:33:18.000Z</time><hdop>4.75</hdop><vdop>4.75</vdop><extensions><gom:speed>0.0</gom:speed></extensions></trkpt>
   <trkpt lat="59.0721019657" lon="29.9707249668"><ele>94.25</ele><time>2026-04-25T11:33:19.000Z</time><hdop>4.75</hdop><vdop>4.75</vdop><extensions><gom:speed>0.0</gom:speed></extensions></trkpt>
   <trkpt lat="59.0721019657" lon="29.9707249668"><ele>94.25</ele><time>2026-04-25T11:33:20.000Z</time><hdop>4.75</hdop><vdop>4.75</vdop><extensions><gom:speed>0.0</gom:speed></extensions></trkpt>
   <trkpt lat="59.0721019657" lon="29.9707249668"><ele>94.25</ele><time>2026-04-25T11:33:21.000Z</time><hdop>4.75</hdop><vdop>4.75</vdop><extensions><gom:speed>0.0</gom:speed></extensions></trkpt>
   <trkpt lat="59.0721019657" lon="29.9707249668"><ele>94.25</ele><time>2026-04-25T11:33:22.000Z</time><hdop>4.75</hdop><vdop>4.75</vdop><extensions><gom:speed>0.0</gom:speed></extensions></trkpt>
   <trkpt lat="59.0721019657" lon="29.9707249668"><ele>94.25</ele><time>2026-04-25T11:33:23.000Z</time><hdop>4.75</hdop><vdop>4.75</vdop><extensions><gom:speed>0.0</gom:speed></extensions></trkpt>
   <trkpt lat="59.0721019657" lon="29.9707249668"><ele>94.25</ele><time>2026-04-25T11:33:24.000Z</time><hdop>4.75</hdop><vdop>4.75</vdop><extensions><gom:speed>0.0</gom:speed></extensions></trkpt>
   <trkpt lat="59.0721019657" lon="29.9707249668"><ele>94.25</ele><time>2026-04-25T11:33:25.000Z</time><hdop>4.75</hdop><vdop>4.75</vdop><extensions><gom:speed>0.0</gom:speed></extensions></trkpt>
   <trkpt lat="59.0721042708" lon="29.9707392998"><ele>94.344</ele><time>2026-04-25T11:33:26.000Z</time><hdop>4.687</hdop><vdop>4.687</vdop><extensions><gom:speed>0.304</gom:speed></extensions></trkpt>
   <trkpt lat="59.0721112697" lon="29.9707517051"><ele>94.684</ele><time>2026-04-25T11:33:27.000Z</time><hdop>4.687</hdop><vdop>4.687</vdop><extensions><gom:speed>0.403</gom:speed></extensions></trkpt>
   <trkpt lat="59.0721176399" lon="29.9707644455"><ele>95.141</ele><time>2026-04-25T11:33:28.000Z</time><hdop>4.687</hdop><vdop>4.687</vdop><extensions><gom:speed>0.458</gom:speed></extensions></trkpt>
   <trkpt lat="59.0721240102" lon="29.9707789462"><ele>95.563</ele><time>2026-04-25T11:33:29.000Z</time><hdop>4.875</hdop><vdop>4.875</vdop><extensions><gom:speed>0.566</gom:speed></extensions></trkpt>
   <trkpt lat="59.0721299613" lon="29.970798057"><ele>95.842</ele><time>2026-04-25T11:33:30.000Z</time><hdop>4.687</hdop><vdop>4.687</vdop><extensions><gom:speed>0.551</gom:speed></extensions></trkpt>
   <trkpt lat="59.0721356191" lon="29.9708118033"><ele>96.102</ele><time>2026-04-25T11:33:31.000Z</time><hdop>4.812</hdop><vdop>4.812</vdop><extensions><gom:speed>0.382</gom:speed></extensions></trkpt>
   <trkpt lat="59.072140271" lon="29.9708229512"><ele>96.393</ele><time>2026-04-25T11:33:32.000Z</time><hdop>4.687</hdop><vdop>4.687</vdop><extensions><gom:speed>0.429</gom:speed></extensions></trkpt>
   <trkpt lat="59.0721446715" lon="29.9708331772"><ele>96.649</ele><time>2026-04-25T11:33:33.000Z</time><hdop>4.375</hdop><vdop>4.375</vdop><extensions><gom:speed>0.401</gom:speed></extensions></trkpt>
   <trkpt lat="59.0721446715" lon="29.9708331772"><ele>96.801</ele><time>2026-04-25T11:33:33.000Z</time><hdop>4.375</hdop><vdop>4.375</vdop><extensions><gom:speed>0.401</gom:speed></extensions></trkpt>
   <trkpt lat="59.0721492397" lon="29.970843906"><ele>96.893</ele><time>2026-04-25T11:33:34.000Z</time><hdop>4.187</hdop><vdop>4.187</vdop><extensions><gom:speed>0.485</gom:speed></extensions></trkpt>
   <trkpt lat="59.0721562386" lon="29.970855473"><ele>97.104</ele><time>2026-04-25T11:33:35.000Z</time><hdop>4.125</hdop><vdop>4.125</vdop><extensions><gom:speed>0.514</gom:speed></extensions></trkpt>
   <trkpt lat="59.0721637404" lon="29.9708676268"><ele>97.398</ele><time>2026-04-25T11:33:36.000Z</time><hdop>3.812</hdop><vdop>3.812</vdop><extensions><gom:speed>0.369</gom:speed></extensions></trkpt>
   <trkpt lat="59.0721702363" lon="29.9708755058"><ele>97.725</ele><time>2026-04-25T11:33:37.000Z</time><hdop>3.437</hdop><vdop>3.437</vdop><extensions><gom:speed>0.41</gom:speed></extensions></trkpt>
   <trkpt lat="59.0721771933" lon="29.9708793614"><ele>98.08</ele><time>2026-04-25T11:33:38.000Z</time><hdop>3.25</hdop><vdop>3.25</vdop><extensions><gom:speed>0.46</gom:speed></extensions></trkpt>
   <trkpt lat="59.0721838569" lon="29.9708786071"><ele>98.379</ele><time>2026-04-25T11:33:39.000Z</time><hdop>3.187</hdop><vdop>3.187</vdop><extensions><gom:speed>0.509</gom:speed></extensions></trkpt>
   <trkpt lat="59.0721876707" lon="29.9708794453"><ele>98.586</ele><time>2026-04-25T11:33:40.000Z</time><hdop>4.187</hdop><vdop>4.187</vdop><extensions><gom:speed>0.487</gom:speed></extensions></trkpt>
   <trkpt lat="59.0721945439" lon="29.9708827142"><ele>98.772</ele><time>2026-04-25T11:33:41.000Z</time><hdop>4.812</hdop><vdop>4.812</vdop><extensions><gom:speed>0.726</gom:speed></extensions></trkpt>
   <trkpt lat="59.0722007046" lon="29.9708864022"><ele>98.915</ele><time>2026-04-25T11:33:42.000Z</time><hdop>4.687</hdop><vdop>4.687</vdop><extensions><gom:speed>0.501</gom:speed></extensions></trkpt>
   <trkpt lat="59.0722056918" lon="29.9708915152"><ele>99.072</ele><time>2026-04-25T11:33:43.000Z</time><hdop>4.687</hdop><vdop>4.687</vdop><extensions><gom:speed>0.49</gom:speed></extensions></trkpt>
   <trkpt lat="59.0722114334" lon="29.9708956223"><ele>99.229</ele><time>2026-04-25T11:33:44.000Z</time><hdop>4.687</hdop><vdop>4.687</vdop><extensions><gom:speed>0.503</gom:speed></extensions></trkpt>
   <trkpt lat="59.0722165464" lon="29.9708990589"><ele>99.376</ele><time>2026-04-25T11:33:45.000Z</time><hdop>4.687</hdop><vdop>4.687</vdop><extensions><gom:speed>0.479</gom:speed></extensions></trkpt>
   <trkpt lat="59.0722196477" lon="29.9709024955"><ele>99.457</ele><time>2026-04-25T11:33:46.000Z</time><hdop>4.687</hdop><vdop>4.687</vdop><extensions><gom:speed>0.269</gom:speed></extensions></trkpt>
   <trkpt lat="59.0722237967" lon="29.9709090334"><ele>99.531</ele><time>2026-04-25T11:33:47.000Z</time><hdop>4.687</hdop><vdop>4.687</vdop><extensions><gom:speed>0.324</gom:speed></extensions></trkpt>
   <trkpt lat="59.0722275267" lon="29.97091247"><ele>99.561</ele><time>2026-04-25T11:33:48.000Z</time><hdop>4.687</hdop><vdop>4.687</vdop><extensions><gom:speed>0.254</gom:speed></extensions></trkpt>
   <trkpt lat="59.0722320948" lon="29.9709151522"><ele>99.63</ele><time>2026-04-25T11:33:49.000Z</time><hdop>4.687</hdop><vdop>4.687</vdop><extensions><gom:speed>0.313</gom:speed></extensions></trkpt>
   <trkpt lat="59.0722377107" lon="29.9709163256"><ele>99.718</ele><time>2026-04-25T11:33:50.000Z</time><hdop>4.687</hdop><vdop>4.687</vdop><extensions><gom:speed>0.393</gom:speed></extensions></trkpt>
   <trkpt lat="59.0722439133" lon="29.9709125538"><ele>99.722</ele><time>2026-04-25T11:33:51.000Z</time><hdop>4.687</hdop><vdop>4.687</vdop><extensions><gom:speed>0.576</gom:speed></extensions></trkpt>
   <trkpt lat="59.0722503254" lon="29.9709103745"><ele>99.757</ele><time>2026-04-25T11:33:52.000Z</time><hdop>4.687</hdop><vdop>4.687</vdop><extensions><gom:speed>0.583</gom:speed></extensions></trkpt>
   <trkpt lat="59.0722576596" lon="29.9709097039"><ele>99.773</ele><time>2026-04-25T11:33:53.000Z</time><hdop>4.687</hdop><vdop>4.687</vdop><extensions><gom:speed>0.664</gom:speed></extensions></trkpt>
   <trkpt lat="59.0722576596" lon="29.9709097039"><ele>99.782</ele><time>2026-04-25T11:33:53.000Z</time><hdop>4.687</hdop><vdop>4.687</vdop><extensions><gom:speed>0.664</gom:speed></extensions></trkpt>
   <trkpt lat="59.072265329" lon="29.9709091172"><ele>99.867</ele><time>2026-04-25T11:33:54.000Z</time><hdop>4.687</hdop><vdop>4.687</vdop><extensions><gom:speed>0.59</gom:speed></extensions></trkpt>
   <trkpt lat="59.0722723279" lon="29.9709114641"><ele>99.961</ele><time>2026-04-25T11:33:55.000Z</time><hdop>4.687</hdop><vdop>4.687</vdop><extensions><gom:speed>0.591</gom:speed></extensions></trkpt>
   <trkpt lat="59.0722784886" lon="29.9709140625"><ele>100.092</ele><time>2026-04-25T11:33:56.000Z</time><hdop>4.875</hdop><vdop>4.875</vdop><extensions><gom:speed>0.375</gom:speed></extensions></trkpt>
   <trkpt lat="59.0722818833" lon="29.9709165771"><ele>100.263</ele><time>2026-04-25T11:33:57.000Z</time><hdop>4.875</hdop><vdop>4.875</vdop><extensions><gom:speed>0.13</gom:speed></extensions></trkpt>
   <trkpt lat="59.0722818833" lon="29.9709165771"><ele>100.365</ele><time>2026-04-25T11:33:58.000Z</time><hdop>4.875</hdop><vdop>4.875</vdop><extensions><gom:speed>0.0</gom:speed></extensions></trkpt>
   <trkpt lat="59.0722818833" lon="29.9709165771"><ele>100.426</ele><time>2026-04-25T11:33:59.000Z</time><hdop>4.875</hdop><vdop>4.875</vdop><extensions><gom:speed>0.0</gom:speed></extensions></trkpt>
   <trkpt lat="59.0722818833" lon="29.9709165771"><ele>100.463</ele><time>2026-04-25T11:34:00.000Z</time><hdop>4.875</hdop><vdop>4.875</vdop><extensions><gom:speed>0.0</gom:speed></extensions></trkpt>
   <trkpt lat="59.0722818833" lon="29.9709165771"><ele>100.484</ele><time>2026-04-25T11:34:01.000Z</time><hdop>4.875</hdop><vdop>4.875</vdop><extensions><gom:speed>0.0</gom:speed></extensions></trkpt>
   <trkpt lat="59.0722818833" lon="29.9709165771"><ele>100.497</ele><time>2026-04-25T11:34:02.000Z</time><hdop>4.875</hdop><vdop>4.875</vdop><extensions><gom:speed>0.0</gom:speed></extensions></trkpt>
   <trkpt lat="59.0722818833" lon="29.9709165771"><ele>100.505</ele><time>2026-04-25T11:34:03.000Z</time><hdop>4.875</hdop><vdop>4.875</vdop><extensions><gom:speed>0.0</gom:speed></extensions></trkpt>
   <trkpt lat="59.0722818833" lon="29.9709165771"><ele>100.51</ele><time>2026-04-25T11:34:04.000Z</time><hdop>4.875</hdop><vdop>4.875</vdop><extensions><gom:speed>0.0</gom:speed></extensions></trkpt>
   <trkpt lat="59.0722818833" lon="29.9709165771"><ele>100.512</ele><time>2026-04-25T11:34:05.000Z</time><hdop>4.875</hdop><vdop>4.875</vdop><extensions><gom:speed>0.0</gom:speed></extensions></trkpt>
   <trkpt lat="59.0722818833" lon="29.9709165771"><ele>100.514</ele><time>2026-04-25T11:34:06.000Z</time><hdop>4.875</hdop><vdop>4.875</vdop><extensions><gom:speed>0.0</gom:speed></extensions></trkpt>
   <trkpt lat="59.0722818833" lon="29.9709165771"><ele>100.515</ele><time>2026-04-25T11:34:07.000Z</time><hdop>4.875</hdop><vdop>4.875</vdop><extensions><gom:speed>0.0</gom:speed></extensions></trkpt>
   <trkpt lat="59.0722818833" lon="29.9709165771"><ele>100.516</ele><time>2026-04-25T11:34:08.000Z</time><hdop>4.875</hdop><vdop>4.875</vdop><extensions><gom:speed>0.0</gom:speed></extensions></trkpt>
   <trkpt lat="59.0722830149" lon="29.9709217739"><ele>100.495</ele><time>2026-04-25T11:34:09.000Z</time><hdop>4.687</hdop><vdop>4.687</vdop><extensions><gom:speed>0.421</gom:speed></extensions></trkpt>
   <trkpt lat="59.0722830149" lon="29.9709217739"><ele>100.482</ele><time>2026-04-25T11:34:10.000Z</time><hdop>4.875</hdop><vdop>4.875</vdop><extensions><gom:speed>0.0</gom:speed></extensions></trkpt>
   <trkpt lat="59.0722842721" lon="29.9709345982"><ele>100.498</ele><time>2026-04-25T11:34:11.000Z</time><hdop>4.687</hdop><vdop>4.687</vdop><extensions><gom:speed>0.511</gom:speed></extensions></trkpt>
   <trkpt lat="59.0722872477" lon="29.9709522002"><ele>100.54</ele><time>2026-04-25T11:34:12.000Z</time><hdop>4.687</hdop><vdop>4.687</vdop><extensions><gom:speed>0.497</gom:speed></extensions></trkpt>
   <trkpt lat="59.0722918159" lon="29.9709659465"><ele>100.641</ele><time>2026-04-25T11:34:13.000Z</time><hdop>4.687</hdop><vdop>4.687</vdop><extensions><gom:speed>0.471</gom:speed></extensions></trkpt>
   <trkpt lat="59.0722918159" lon="29.9709659465"><ele>100.702</ele><time>2026-04-25T11:34:13.000Z</time><hdop>4.687</hdop><vdop>4.687</vdop><extensions><gom:speed>0.471</gom:speed></extensions></trkpt>
   <trkpt lat="59.0723004492" lon="29.9709788546"><ele>100.677</ele><time>2026-04-25T11:34:14.000Z</time><hdop>4.687</hdop><vdop>4.687</vdop><extensions><gom:speed>0.505</gom:speed></extensions></trkpt>
   <trkpt lat="59.0723097531" lon="29.9709909246"><ele>100.753</ele><time>2026-04-25T11:34:15.000Z</time><hdop>4.875</hdop><vdop>4.875</vdop><extensions><gom:speed>0.362</gom:speed></extensions></trkpt>
   <trkpt lat="59.0723155366" lon="29.970996289"><ele>100.755</ele><time>2026-04-25T11:34:16.000Z</time><hdop>4.687</hdop><vdop>4.687</vdop><extensions><gom:speed>0.323</gom:speed></extensions></trkpt>
   <trkpt lat="59.0723206496" lon="29.9709988036"><ele>100.842</ele><time>2026-04-25T11:34:17.000Z</time><hdop>4.875</hdop><vdop>4.875</vdop><extensions><gom:speed>0.336</gom:speed></extensions></trkpt>
   <trkpt lat="59.0723268522" lon="29.971000899"><ele>100.891</ele><time>2026-04-25T11:34:18.000Z</time><hdop>4.812</hdop><vdop>4.812</vdop><extensions><gom:speed>0.406</gom:speed></extensions></trkpt>
   <trkpt lat="59.0723268522" lon="29.971000899"><ele>100.92</ele><time>2026-04-25T11:34:19.000Z</time><hdop>4.812</hdop><vdop>4.812</vdop><extensions><gom:speed>0.0</gom:speed></extensions></trkpt>
   <trkpt lat="59.0723268522" lon="29.971000899"><ele>100.937</ele><time>2026-04-25T11:34:20.000Z</time><hdop>4.812</hdop><vdop>4.812</vdop><extensions><gom:speed>0.0</gom:speed></extensions></trkpt>
   <trkpt lat="59.0723268522" lon="29.971000899"><ele>100.948</ele><time>2026-04-25T11:34:21.000Z</time><hdop>4.812</hdop><vdop>4.812</vdop><extensions><gom:speed>0.0</gom:speed></extensions></trkpt>
   <trkpt lat="59.0723323004" lon="29.9710019049"><ele>100.902</ele><time>2026-04-25T11:34:22.000Z</time><hdop>4.187</hdop><vdop>4.187</vdop><extensions><gom:speed>0.349</gom:speed></extensions></trkpt>
   <trkpt lat="59.0723323004" lon="29.9710019049"><ele>100.874</ele><time>2026-04-25T11:34:23.000Z</time><hdop>4.187</hdop><vdop>4.187</vdop><extensions><gom:speed>0.0</gom:speed></extensions></trkpt>
   <trkpt lat="59.0723323004" lon="29.9710019049"><ele>100.857</ele><time>2026-04-25T11:34:24.000Z</time><hdop>4.187</hdop><vdop>4.187</vdop><extensions><gom:speed>0.0</gom:speed></extensions></trkpt>
   <trkpt lat="59.0723395508" lon="29.9709997256"><ele>100.798</ele><time>2026-04-25T11:34:25.000Z</time><hdop>4.062</hdop><vdop>4.062</vdop><extensions><gom:speed>0.257</gom:speed></extensions></trkpt>
   <trkpt lat="59.0723470107" lon="29.970994445"><ele>100.698</ele><time>2026-04-25T11:34:26.000Z</time><hdop>3.562</hdop><vdop>3.562</vdop><extensions><gom:speed>0.436</gom:speed></extensions></trkpt>
   <trkpt lat="59.0723540934" lon="29.9709891644"><ele>100.578</ele><time>2026-04-25T11:34:27.000Z</time><hdop>3.062</hdop><vdop>3.062</vdop><extensions><gom:speed>0.44</gom:speed></extensions></trkpt>
   <trkpt lat="59.0723622238" lon="29.9709871527"><ele>100.42</ele><time>2026-04-25T11:34:28.000Z</time><hdop>3.0</hdop><vdop>3.0</vdop><extensions><gom:speed>0.481</gom:speed></extensions></trkpt>
   <trkpt lat="59.0723711506" lon="29.9709858116"><ele>100.222</ele><time>2026-04-25T11:34:29.000Z</time><hdop>3.0</hdop><vdop>3.0</vdop><extensions><gom:speed>0.622</gom:speed></extensions></trkpt>
   <trkpt lat="59.0723828014" lon="29.9709834647"><ele>100.087</ele><time>2026-04-25T11:34:30.000Z</time><hdop>3.0</hdop><vdop>3.0</vdop><extensions><gom:speed>0.834</gom:speed></extensions></trkpt>
   <trkpt lat="59.0723970926" lon="29.9709822912"><ele>100.065</ele><time>2026-04-25T11:34:31.000Z</time><hdop>3.0</hdop><vdop>3.0</vdop><extensions><gom:speed>0.477</gom:speed></extensions></trkpt>
   <trkpt lat="59.0724071508" lon="29.9709833809"><ele>100.045</ele><time>2026-04-25T11:34:32.000Z</time><hdop>3.0</hdop><vdop>3.0</vdop><extensions><gom:speed>0.252</gom:speed></extensions></trkpt>
   <trkpt lat="59.0724168738" lon="29.9709800281"><ele>100.031</ele><time>2026-04-25T11:34:33.000Z</time><hdop>3.0</hdop><vdop>3.0</vdop><extensions><gom:speed>0.155</gom:speed></extensions></trkpt>
   <trkpt lat="59.0724237051" lon="29.9709763401"><ele>100.03</ele><time>2026-04-25T11:34:34.000Z</time><hdop>3.0</hdop><vdop>3.0</vdop><extensions><gom:speed>0.219</gom:speed></extensions></trkpt>
   <trkpt lat="59.0724296982" lon="29.97097173"><ele>99.966</ele><time>2026-04-25T11:34:35.000Z</time><hdop>3.0</hdop><vdop>3.0</vdop><extensions><gom:speed>0.262</gom:speed></extensions></trkpt>
   <trkpt lat="59.0724296982" lon="29.97097173"><ele>99.929</ele><time>2026-04-25T11:34:36.000Z</time><hdop>3.0</hdop><vdop>3.0</vdop><extensions><gom:speed>0.0</gom:speed></extensions></trkpt>
   <trkpt lat="59.0724296982" lon="29.97097173"><ele>99.906</ele><time>2026-04-25T11:34:37.000Z</time><hdop>3.0</hdop><vdop>3.0</vdop><extensions><gom:speed>0.0</gom:speed></extensions></trkpt>
   <trkpt lat="59.0724296982" lon="29.97097173"><ele>99.893</ele><time>2026-04-25T11:34:38.000Z</time><hdop>3.0</hdop><vdop>3.0</vdop><extensions><gom:speed>0.0</gom:speed></extensions></trkpt>
   <trkpt lat="59.0724296982" lon="29.97097173"><ele>99.884</ele><time>2026-04-25T11:34:39.000Z</time><hdop>3.0</hdop><vdop>3.0</vdop><extensions><gom:speed>0.0</gom:speed></extensions></trkpt>
   <trkpt lat="59.0724296982" lon="29.97097173"><ele>99.88</ele><time>2026-04-25T11:34:40.000Z</time><hdop>3.0</hdop><vdop>3.0</vdop><extensions><gom:speed>0.0</gom:speed></extensions></trkpt>
   <trkpt lat="59.0724296982" lon="29.97097173"><ele>99.877</ele><time>2026-04-25T11:34:41.000Z</time><hdop>3.0</hdop><vdop>3.0</vdop><extensions><gom:speed>0.0</gom:speed></extensions></trkpt>
   <trkpt lat="59.0724368228" lon="29.9709690478"><ele>99.987</ele><time>2026-04-25T11:34:42.000Z</time><hdop>3.0</hdop><vdop>3.0</vdop><extensions><gom:speed>0.491</gom:speed></extensions></trkpt>
   <trkpt lat="59.0724368228" lon="29.9709690478"><ele>100.053</ele><time>2026-04-25T11:34:43.000Z</time><hdop>3.0</hdop><vdop>3.0</vdop><extensions><gom:speed>0.0</gom:speed></extensions></trkpt>
   <trkpt lat="59.0724368228" lon="29.9709690478"><ele>100.092</ele><time>2026-04-25T11:34:44.000Z</time><hdop>3.0</hdop><vdop>3.0</vdop><extensions><gom:speed>0.0</gom:speed></extensions></trkpt>
   <trkpt lat="59.0724384572" lon="29.9709664494"><ele>100.163</ele><time>2026-04-25T11:34:45.000Z</time><hdop>3.0</hdop><vdop>3.0</vdop><extensions><gom:speed>0.28</gom:speed></extensions></trkpt>
   <trkpt lat="59.0724426063" lon="29.970962007"><ele>100.231</ele><time>2026-04-25T11:34:46.000Z</time><hdop>3.0</hdop><vdop>3.0</vdop><extensions><gom:speed>0.421</gom:speed></extensions></trkpt>
   <trkpt lat="59.0724461686" lon="29.9709574808"><ele>100.318</ele><time>2026-04-25T11:34:47.000Z</time><hdop>3.0</hdop><vdop>3.0</vdop><extensions><gom:speed>0.209</gom:speed></extensions></trkpt>
   <trkpt lat="59.0724497728" lon="29.9709580675"><ele>100.369</ele><time>2026-04-25T11:34:48.000Z</time><hdop>3.0</hdop><vdop>3.0</vdop><extensions><gom:speed>0.271</gom:speed></extensions></trkpt>
   <trkpt lat="59.0724497728" lon="29.9709580675"><ele>100.399</ele><time>2026-04-25T11:34:49.000Z</time><hdop>3.0</hdop><vdop>3.0</vdop><extensions><gom:speed>0.0</gom:speed></extensions></trkpt>
   <trkpt lat="59.0724550534" lon="29.9709547986"><ele>100.473</ele><time>2026-04-25T11:34:50.000Z</time><hdop>3.0</hdop><vdop>3.0</vdop><extensions><gom:speed>0.204</gom:speed></extensions></trkpt>
   <trkpt lat="59.0724550534" lon="29.9709547986"><ele>100.518</ele><time>2026-04-25T11:34:51.000Z</time><hdop>3.0</hdop><vdop>3.0</vdop><extensions><gom:speed>0.0</gom:speed></extensions></trkpt>
   <trkpt lat="59.0724550534" lon="29.9709547986"><ele>100.544</ele><time>2026-04-25T11:34:52.000Z</time><hdop>3.0</hdop><vdop>3.0</vdop><extensions><gom:speed>0.0</gom:speed></extensions></trkpt>
   <trkpt lat="59.0724550534" lon="29.9709547986"><ele>100.56</ele><time>2026-04-25T11:34:53.000Z</time><hdop>3.0</hdop><vdop>3.0</vdop><extensions><gom:speed>0.0</gom:speed></extensions></trkpt>
   <trkpt lat="59.0724550534" lon="29.9709547986"><ele>100.569</ele><time>2026-04-25T11:34:53.000Z</time><hdop>3.0</hdop><vdop>3.0</vdop><extensions><gom:speed>0.0</gom:speed></extensions></trkpt>
   <trkpt lat="59.0724550534" lon="29.9709547986"><ele>100.575</ele><time>2026-04-25T11:34:54.000Z</time><hdop>3.0</hdop><vdop>3.0</vdop><extensions><gom:speed>0.0</gom:speed></extensions></trkpt>
   <trkpt lat="59.0724604597" lon="29.9709451594"><ele>100.5</ele><time>2026-04-25T11:34:55.000Z</time><hdop>3.0</hdop><vdop>3.0</vdop><extensions><gom:speed>0.448</gom:speed></extensions></trkpt>
   <trkpt lat="59.0724604597" lon="29.9709451594"><ele>100.455</ele><time>2026-04-25T11:34:56.000Z</time><hdop>3.0</hdop><vdop>3.0</vdop><extensions><gom:speed>0.0</gom:speed></extensions></trkpt>
   <trkpt lat="59.0724604597" lon="29.9709451594"><ele>100.428</ele><time>2026-04-25T11:34:57.000Z</time><hdop>3.0</hdop><vdop>3.0</vdop><extensions><gom:speed>0.0</gom:speed></extensions></trkpt>
   <trkpt lat="59.0724604597" lon="29.9709451594"><ele>100.412</ele><time>2026-04-25T11:34:58.000Z</time><hdop>3.0</hdop><vdop>3.0</vdop><extensions><gom:speed>0.0</gom:speed></extensions></trkpt>
   <trkpt lat="59.0724604597" lon="29.9709451594"><ele>100.402</ele><time>2026-04-25T11:34:59.000Z</time><hdop>3.0</hdop><vdop>3.0</vdop><extensions><gom:speed>0.0</gom:speed></extensions></trkpt>
   <trkpt lat="59.0724604597" lon="29.9709451594"><ele>100.397</ele><time>2026-04-25T11:35:00.000Z</time><hdop>3.0</hdop><vdop>3.0</vdop><extensions><gom:speed>0.0</gom:speed></extensions></trkpt>
   <trkpt lat="59.0724604597" lon="29.9709451594"><ele>100.393</ele><time>2026-04-25T11:35:01.000Z</time><hdop>3.0</hdop><vdop>3.0</vdop><extensions><gom:speed>0.0</gom:speed></extensions></trkpt>
   <trkpt lat="59.0724604597" lon="29.9709451594"><ele>100.391</ele><time>2026-04-25T11:35:02.000Z</time><hdop>3.0</hdop><vdop>3.0</vdop><extensions><gom:speed>0.0</gom:speed></extensions></trkpt>
   <trkpt lat="59.0724604597" lon="29.9709451594"><ele>100.39</ele><time>2026-04-25T11:35:03.000Z</time><hdop>3.0</hdop><vdop>3.0</vdop><extensions><gom:speed>0.0</gom:speed></extensions></trkpt>
   <trkpt lat="59.0724604597" lon="29.9709451594"><ele>100.389</ele><time>2026-04-25T11:35:04.000Z</time><hdop>3.0</hdop><vdop>3.0</vdop><extensions><gom:speed>0.0</gom:speed></extensions></trkpt>
   <trkpt lat="59.0724604597" lon="29.9709451594"><ele>100.389</ele><time>2026-04-25T11:35:05.000Z</time><hdop>3.0</hdop><vdop>3.0</vdop><extensions><gom:speed>0.0</gom:speed></extensions></trkpt>
   <trkpt lat="59.0724659918" lon="29.9709345982"><ele>100.379</ele><time>2026-04-25T11:35:06.000Z</time><hdop>3.062</hdop><vdop>3.062</vdop><extensions><gom:speed>0.13</gom:speed></extensions></trkpt>
   <trkpt lat="59.0724659918" lon="29.9709345982"><ele>100.373</ele><time>2026-04-25T11:35:07.000Z</time><hdop>3.062</hdop><vdop>3.062</vdop><extensions><gom:speed>0.0</gom:speed></extensions></trkpt>
   <trkpt lat="59.0724659918" lon="29.9709345982"><ele>100.37</ele><time>2026-04-25T11:35:08.000Z</time><hdop>3.062</hdop><vdop>3.062</vdop><extensions><gom:speed>0.0</gom:speed></extensions></trkpt>
   <trkpt lat="59.0724659918" lon="29.9709345982"><ele>100.368</ele><time>2026-04-25T11:35:09.000Z</time><hdop>3.062</hdop><vdop>3.062</vdop><extensions><gom:speed>0.0</gom:speed></extensions></trkpt>
   <trkpt lat="59.0724659918" lon="29.9709345982"><ele>100.367</ele><time>2026-04-25T11:35:10.000Z</time><hdop>3.062</hdop><vdop>3.062</vdop><extensions><gom:speed>0.0</gom:speed></extensions></trkpt>
   <trkpt lat="59.0724659918" lon="29.9709345982"><ele>100.366</ele><time>2026-04-25T11:35:11.000Z</time><hdop>3.062</hdop><vdop>3.062</vdop><extensions><gom:speed>0.0</gom:speed></extensions></trkpt>
   <trkpt lat="59.0724659918" lon="29.9709345982"><ele>100.366</ele><time>2026-04-25T11:35:12.000Z</time><hdop>3.062</hdop><vdop>3.062</vdop><extensions><gom:speed>0.0</gom:speed></extensions></trkpt>
   <trkpt lat="59.0724659918" lon="29.9709345982"><ele>100.365</ele><time>2026-04-25T11:35:13.000Z</time><hdop>3.062</hdop><vdop>3.062</vdop><extensions><gom:speed>0.0</gom:speed></extensions></trkpt>
   <trkpt lat="59.0724659918" lon="29.9709345982"><ele>100.365</ele><time>2026-04-25T11:35:14.000Z</time><hdop>3.062</hdop><vdop>3.062</vdop><extensions><gom:speed>0.0</gom:speed></extensions></trkpt>
   <trkpt lat="59.0724659918" lon="29.9709345982"><ele>100.365</ele><time>2026-04-25T11:35:15.000Z</time><hdop>3.062</hdop><vdop>3.062</vdop><extensions><gom:speed>0.0</gom:speed></extensions></trkpt>
   <trkpt lat="59.0724659918" lon="29.9709345982"><ele>100.365</ele><time>2026-04-25T11:35:16.000Z</time><hdop>3.062</hdop><vdop>3.062</vdop><extensions><gom:speed>0.0</gom:speed></extensions></trkpt>
   <trkpt lat="59.0724659918" lon="29.9709345982"><ele>100.365</ele><time>2026-04-25T11:35:16.000Z</time><hdop>3.062</hdop><vdop>3.062</vdop><extensions><gom:speed>0.0</gom:speed></extensions></trkpt>
   <trkpt lat="59.0724659918" lon="29.9709345982"><ele>100.365</ele><time>2026-04-25T11:35:17.000Z</time><hdop>3.062</hdop><vdop>3.062</vdop><extensions><gom:speed>0.0</gom:speed></extensions></trkpt>
   <trkpt lat="59.0724659918" lon="29.9709345982"><ele>100.365</ele><time>2026-04-25T11:35:18.000Z</time><hdop>3.062</hdop><vdop>3.062</vdop><extensions><gom:speed>0.0</gom:speed></extensions></trkpt>
   <trkpt lat="59.0724659918" lon="29.9709345982"><ele>100.365</ele><time>2026-04-25T11:35:19.000Z</time><hdop>3.062</hdop><vdop>3.062</vdop><extensions><gom:speed>0.0</gom:speed></extensions></trkpt>
   <trkpt lat="59.0724659918" lon="29.9709345982"><ele>100.365</ele><time>2026-04-25T11:35:20.000Z</time><hdop>3.062</hdop><vdop>3.062</vdop><extensions><gom:speed>0.0</gom:speed></extensions></trkpt>
   <trkpt lat="59.0724659918" lon="29.9709345982"><ele>100.365</ele><time>2026-04-25T11:35:21.000Z</time><hdop>3.062</hdop><vdop>3.062</vdop><extensions><gom:speed>0.0</gom:speed></extensions></trkpt>
   <trkpt lat="59.0724659918" lon="29.9709345982"><ele>100.365</ele><time>2026-04-25T11:35:22.000Z</time><hdop>3.062</hdop><vdop>3.062</vdop><extensions><gom:speed>0.0</gom:speed></extensions></trkpt>
   <trkpt lat="59.0724659918" lon="29.9709345982"><ele>100.365</ele><time>2026-04-25T11:35:23.000Z</time><hdop>3.062</hdop><vdop>3.062</vdop><extensions><gom:speed>0.0</gom:speed></extensions></trkpt>
   <trkpt lat="59.0724659918" lon="29.9709345982"><ele>100.365</ele><time>2026-04-25T11:35:24.000Z</time><hdop>3.062</hdop><vdop>3.062</vdop><extensions><gom:speed>0.0</gom:speed></extensions></trkpt>
   <trkpt lat="59.0724659918" lon="29.9709345982"><ele>100.365</ele><time>2026-04-25T11:35:25.000Z</time><hdop>3.062</hdop><vdop>3.062</vdop><extensions><gom:speed>0.0</gom:speed></extensions></trkpt>
   <trkpt lat="59.0724659918" lon="29.9709345982"><ele>100.365</ele><time>2026-04-25T11:35:26.000Z</time><hdop>3.062</hdop><vdop>3.062</vdop><extensions><gom:speed>0.0</gom:speed></extensions></trkpt>
   <trkpt lat="59.0724659918" lon="29.9709345982"><ele>100.365</ele><time>2026-04-25T11:35:27.000Z</time><hdop>3.062</hdop><vdop>3.062</vdop><extensions><gom:speed>0.0</gom:speed></extensions></trkpt>
   <trkpt lat="59.0724659918" lon="29.9709345982"><ele>100.365</ele><time>2026-04-25T11:35:28.000Z</time><hdop>3.062</hdop><vdop>3.062</vdop><extensions><gom:speed>0.0</gom:speed></extensions></trkpt>
   <trkpt lat="59.0724659918" lon="29.9709345982"><ele>100.365</ele><time>2026-04-25T11:35:29.000Z</time><hdop>3.062</hdop><vdop>3.062</vdop><extensions><gom:speed>0.0</gom:speed></extensions></trkpt>
   <trkpt lat="59.0724659918" lon="29.9709345982"><ele>100.365</ele><time>2026-04-25T11:35:30.000Z</time><hdop>3.062</hdop><vdop>3.062</vdop><extensions><gom:speed>0.0</gom:speed></extensions></trkpt>
   <trkpt lat="59.0724659918" lon="29.9709345982"><ele>100.365</ele><time>2026-04-25T11:35:31.000Z</time><hdop>3.062</hdop><vdop>3.062</vdop><extensions><gom:speed>0.0</gom:speed></extensions></trkpt>
   <trkpt lat="59.0724659918" lon="29.9709345982"><ele>100.365</ele><time>2026-04-25T11:35:32.000Z</time><hdop>3.062</hdop><vdop>3.062</vdop><extensions><gom:speed>0.0</gom:speed></extensions></trkpt>
   <trkpt lat="59.0724659918" lon="29.9709345982"><ele>100.365</ele><time>2026-04-25T11:35:33.000Z</time><hdop>3.062</hdop><vdop>3.062</vdop><extensions><gom:speed>0.0</gom:speed></extensions></trkpt>
   <trkpt lat="59.0724659918" lon="29.9709345982"><ele>100.365</ele><time>2026-04-25T11:35:34.000Z</time><hdop>3.062</hdop><vdop>3.062</vdop><extensions><gom:speed>0.0</gom:speed></extensions></trkpt>
   <trkpt lat="59.0724659918" lon="29.9709345982"><ele>100.365</ele><time>2026-04-25T11:35:35.000Z</time><hdop>3.062</hdop><vdop>3.062</vdop><extensions><gom:speed>0.0</gom:speed></extensions></trkpt>
   <trkpt lat="59.0724659918" lon="29.9709345982"><ele>100.365</ele><time>2026-04-25T11:35:36.000Z</time><hdop>3.062</hdop><vdop>3.062</vdop><extensions><gom:speed>0.0</gom:speed></extensions></trkpt>
   <trkpt lat="59.0724659918" lon="29.9709345982"><ele>100.365</ele><time>2026-04-25T11:35:37.000Z</time><hdop>3.062</hdop><vdop>3.062</vdop><extensions><gom:speed>0.0</gom:speed></extensions></trkpt>
   <trkpt lat="59.0724659918" lon="29.9709345982"><ele>100.365</ele><time>2026-04-25T11:35:37.000Z</time><hdop>3.062</hdop><vdop>3.062</vdop><extensions><gom:speed>0.0</gom:speed></extensions></trkpt>
   <trkpt lat="59.0724659918" lon="29.9709345982"><ele>100.365</ele><time>2026-04-25T11:35:38.000Z</time><hdop>3.062</hdop><vdop>3.062</vdop><extensions><gom:speed>0.0</gom:speed></extensions></trkpt>
   <trkpt lat="59.0724659918" lon="29.9709345982"><ele>100.365</ele><time>2026-04-25T11:35:39.000Z</time><hdop>3.062</hdop><vdop>3.062</vdop><extensions><gom:speed>0.0</gom:speed></extensions></trkpt>
   <trkpt lat="59.0724659918" lon="29.9709345982"><ele>100.365</ele><time>2026-04-25T11:35:40.000Z</time><hdop>3.062</hdop><vdop>3.062</vdop><extensions><gom:speed>0.0</gom:speed></extensions></trkpt>
   <trkpt lat="59.0724659918" lon="29.9709345982"><ele>100.365</ele><time>2026-04-25T11:35:41.000Z</time><hdop>3.062</hdop><vdop>3.062</vdop><extensions><gom:speed>0.0</gom:speed></extensions></trkpt>
   <trkpt lat="59.0724659918" lon="29.9709345982"><ele>100.365</ele><time>2026-04-25T11:35:42.000Z</time><hdop>3.062</hdop><vdop>3.062</vdop><extensions><gom:speed>0.0</gom:speed></extensions></trkpt>
   <trkpt lat="59.0724659918" lon="29.9709345982"><ele>100.365</ele><time>2026-04-25T11:35:43.000Z</time><hdop>3.062</hdop><vdop>3.062</vdop><extensions><gom:speed>0.0</gom:speed></extensions></trkpt>
   <trkpt lat="59.0724659918" lon="29.9709345982"><ele>100.365</ele><time>2026-04-25T11:35:44.000Z</time><hdop>3.062</hdop><vdop>3.062</vdop><extensions><gom:speed>0.0</gom:speed></extensions></trkpt>
   <trkpt lat="59.0724659918" lon="29.9709345982"><ele>100.365</ele><time>2026-04-25T11:35:45.000Z</time><hdop>3.062</hdop><vdop>3.062</vdop><extensions><gom:speed>0.0</gom:speed></extensions></trkpt>
   <trkpt lat="59.0724659918" lon="29.9709345982"><ele>100.365</ele><time>2026-04-25T11:35:46.000Z</time><hdop>3.062</hdop><vdop>3.062</vdop><extensions><gom:speed>0.0</gom:speed></extensions></trkpt>
   <trkpt lat="59.0724665785" lon="29.9709279765"><ele>100.32</ele><time>2026-04-25T11:35:47.000Z</time><hdop>3.562</hdop><vdop>3.562</vdop><extensions><gom:speed>0.373</gom:speed></extensions></trkpt>
   <trkpt lat="59.0724684645" lon="29.9709174991"><ele>100.288</ele><time>2026-04-25T11:35:48.000Z</time><hdop>3.312</hdop><vdop>3.312</vdop><extensions><gom:speed>0.443</gom:speed></extensions></trkpt>
   <trkpt lat="59.0724700989" lon="29.9709071055"><ele>100.272</ele><time>2026-04-25T11:35:49.000Z</time><hdop>3.562</hdop><vdop>3.562</vdop><extensions><gom:speed>0.433</gom:speed></extensions></trkpt>
   <trkpt lat="59.0724717753" lon="29.9708992266"><ele>100.375</ele><time>2026-04-25T11:35:50.000Z</time><hdop>3.25</hdop><vdop>3.25</vdop><extensions><gom:speed>0.471</gom:speed></extensions></trkpt>
   <trkpt lat="59.0724720268" lon="29.9708903417"><ele>100.469</ele><time>2026-04-25T11:35:51.000Z</time><hdop>3.0</hdop><vdop>3.0</vdop><extensions><gom:speed>0.476</gom:speed></extensions></trkpt>
   <trkpt lat="59.0724720268" lon="29.9708903417"><ele>100.525</ele><time>2026-04-25T11:35:51.000Z</time><hdop>3.0</hdop><vdop>3.0</vdop><extensions><gom:speed>0.476</gom:speed></extensions></trkpt>
   <trkpt lat="59.0724694284" lon="29.9708801996"><ele>100.573</ele><time>2026-04-25T11:35:52.000Z</time><hdop>3.0</hdop><vdop>3.0</vdop><extensions><gom:speed>0.604</gom:speed></extensions></trkpt>
   <trkpt lat="59.0724669976" lon="29.9708705604"><ele>100.536</ele><time>2026-04-25T11:35:53.000Z</time><hdop>3.0</hdop><vdop>3.0</vdop><extensions><gom:speed>0.448</gom:speed></extensions></trkpt>
   <trkpt lat="59.0724662433" lon="29.9708585743"><ele>100.499</ele><time>2026-04-25T11:35:54.000Z</time><hdop>3.0</hdop><vdop>3.0</vdop><extensions><gom:speed>0.401</gom:speed></extensions></trkpt>
   <trkpt lat="59.0724654889" lon="29.9708482646"><ele>100.429</ele><time>2026-04-25T11:35:55.000Z</time><hdop>3.0</hdop><vdop>3.0</vdop><extensions><gom:speed>0.375</gom:speed></extensions></trkpt>
   <trkpt lat="59.0724671234" lon="29.9708372005"><ele>100.365</ele><time>2026-04-25T11:35:56.000Z</time><hdop>3.0</hdop><vdop>3.0</vdop><extensions><gom:speed>0.44</gom:speed></extensions></trkpt>
   <trkpt lat="59.0724671234" lon="29.9708372005"><ele>100.327</ele><time>2026-04-25T11:35:56.000Z</time><hdop>3.0</hdop><vdop>3.0</vdop><extensions><gom:speed>0.44</gom:speed></extensions></trkpt>
   <trkpt lat="59.0724675425" lon="29.9708252982"><ele>100.3</ele><time>2026-04-25T11:35:57.000Z</time><hdop>3.0</hdop><vdop>3.0</vdop><extensions><gom:speed>0.553</gom:speed></extensions></trkpt>
   <trkpt lat="59.0724695541" lon="29.9708140664"><ele>100.283</ele><time>2026-04-25T11:35:58.000Z</time><hdop>3.0</hdop><vdop>3.0</vdop><extensions><gom:speed>0.456</gom:speed></extensions></trkpt>
   <trkpt lat="59.0724696379" lon="29.9708036729"><ele>100.241</ele><time>2026-04-25T11:35:59.000Z</time><hdop>3.0</hdop><vdop>3.0</vdop><extensions><gom:speed>0.327</gom:speed></extensions></trkpt>
   <trkpt lat="59.0724693027" lon="29.9707930278"><ele>100.165</ele><time>2026-04-25T11:36:00.000Z</time><hdop>3.0</hdop><vdop>3.0</vdop><extensions><gom:speed>0.475</gom:speed></extensions></trkpt>
   <trkpt lat="59.0724693027" lon="29.9707930278"><ele>100.12</ele><time>2026-04-25T11:36:00.000Z</time><hdop>3.0</hdop><vdop>3.0</vdop><extensions><gom:speed>0.475</gom:speed></extensions></trkpt>
   <trkpt lat="59.0724695541" lon="29.9707806226"><ele>100.115</ele><time>2026-04-25T11:36:01.000Z</time><hdop>3.062</hdop><vdop>3.062</vdop><extensions><gom:speed>0.453</gom:speed></extensions></trkpt>
   <trkpt lat="59.072470518" lon="29.9707690556"><ele>100.076</ele><time>2026-04-25T11:36:02.000Z</time><hdop>3.562</hdop><vdop>3.562</vdop><extensions><gom:speed>0.355</gom:speed></extensions></trkpt>
   <trkpt lat="59.0724722363" lon="29.9707603384"><ele>100.044</ele><time>2026-04-25T11:36:03.000Z</time><hdop>3.187</hdop><vdop>3.187</vdop><extensions><gom:speed>0.31</gom:speed></extensions></trkpt>
   <trkpt lat="59.0724744994" lon="29.9707523756"><ele>99.951</ele><time>2026-04-25T11:36:04.000Z</time><hdop>3.125</hdop><vdop>3.125</vdop><extensions><gom:speed>0.385</gom:speed></extensions></trkpt>
   <trkpt lat="59.0724775169" lon="29.9707453348"><ele>99.877</ele><time>2026-04-25T11:36:05.000Z</time><hdop>3.062</hdop><vdop>3.062</vdop><extensions><gom:speed>0.336</gom:speed></extensions></trkpt>
   <trkpt lat="59.0724817079" lon="29.9707368691"><ele>99.815</ele><time>2026-04-25T11:36:06.000Z</time><hdop>3.062</hdop><vdop>3.062</vdop><extensions><gom:speed>0.38</gom:speed></extensions></trkpt>
   <trkpt lat="59.0724864436" lon="29.9707301636"><ele>99.726</ele><time>2026-04-25T11:36:07.000Z</time><hdop>3.0</hdop><vdop>3.0</vdop><extensions><gom:speed>0.471</gom:speed></extensions></trkpt>
   <trkpt lat="59.0724911794" lon="29.970722536"><ele>99.665</ele><time>2026-04-25T11:36:08.000Z</time><hdop>3.0</hdop><vdop>3.0</vdop><extensions><gom:speed>0.501</gom:speed></extensions></trkpt>
   <trkpt lat="59.0724943226" lon="29.970710969"><ele>99.572</ele><time>2026-04-25T11:36:09.000Z</time><hdop>3.0</hdop><vdop>3.0</vdop><extensions><gom:speed>0.475</gom:speed></extensions></trkpt>
   <trkpt lat="59.0724963762" lon="29.9706978932"><ele>99.475</ele><time>2026-04-25T11:36:10.000Z</time><hdop>3.0</hdop><vdop>3.0</vdop><extensions><gom:speed>0.461</gom:speed></extensions></trkpt>
   <trkpt lat="59.0724947836" lon="29.9706820514"><ele>99.295</ele><time>2026-04-25T11:36:11.000Z</time><hdop>3.0</hdop><vdop>3.0</vdop><extensions><gom:speed>0.526</gom:speed></extensions></trkpt>
   <trkpt lat="59.0724950351" lon="29.9706672993"><ele>99.112</ele><time>2026-04-25T11:36:12.000Z</time><hdop>3.187</hdop><vdop>3.187</vdop><extensions><gom:speed>0.486</gom:speed></extensions></trkpt>
   <trkpt lat="59.0724935264" lon="29.9706562352"><ele>98.916</ele><time>2026-04-25T11:36:13.000Z</time><hdop>3.125</hdop><vdop>3.125</vdop><extensions><gom:speed>0.354</gom:speed></extensions></trkpt>
   <trkpt lat="59.0724922691" lon="29.9706479371"><ele>98.79</ele><time>2026-04-25T11:36:14.000Z</time><hdop>3.0</hdop><vdop>3.0</vdop><extensions><gom:speed>0.225</gom:speed></extensions></trkpt>
   <trkpt lat="59.0724915147" lon="29.970641483"><ele>98.754</ele><time>2026-04-25T11:36:15.000Z</time><hdop>3.0</hdop><vdop>3.0</vdop><extensions><gom:speed>0.13</gom:speed></extensions></trkpt>
   <trkpt lat="59.0724915147" lon="29.970641483"><ele>98.732</ele><time>2026-04-25T11:36:16.000Z</time><hdop>3.0</hdop><vdop>3.0</vdop><extensions><gom:speed>0.0</gom:speed></extensions></trkpt>
   <trkpt lat="59.0724915147" lon="29.970641483"><ele>98.718</ele><time>2026-04-25T11:36:17.000Z</time><hdop>3.0</hdop><vdop>3.0</vdop><extensions><gom:speed>0.0</gom:speed></extensions></trkpt>
   <trkpt lat="59.0724915147" lon="29.970641483"><ele>98.711</ele><time>2026-04-25T11:36:18.000Z</time><hdop>3.0</hdop><vdop>3.0</vdop><extensions><gom:speed>0.0</gom:speed></extensions></trkpt>
   <trkpt lat="59.0724915147" lon="29.970641483"><ele>98.706</ele><time>2026-04-25T11:36:19.000Z</time><hdop>3.0</hdop><vdop>3.0</vdop><extensions><gom:speed>0.0</gom:speed></extensions></trkpt>
   <trkpt lat="59.0724915147" lon="29.970641483"><ele>98.703</ele><time>2026-04-25T11:36:20.000Z</time><hdop>3.0</hdop><vdop>3.0</vdop><extensions><gom:speed>0.0</gom:speed></extensions></trkpt>
   <trkpt lat="59.0724915147" lon="29.970641483"><ele>98.701</ele><time>2026-04-25T11:36:21.000Z</time><hdop>3.0</hdop><vdop>3.0</vdop><extensions><gom:speed>0.0</gom:speed></extensions></trkpt>
   <trkpt lat="59.0724915147" lon="29.970641483"><ele>98.7</ele><time>2026-04-25T11:36:22.000Z</time><hdop>3.0</hdop><vdop>3.0</vdop><extensions><gom:speed>0.0</gom:speed></extensions></trkpt>
   <trkpt lat="59.0724915147" lon="29.970641483"><ele>98.7</ele><time>2026-04-25T11:36:23.000Z</time><hdop>3.0</hdop><vdop>3.0</vdop><extensions><gom:speed>0.0</gom:speed></extensions></trkpt>
   <trkpt lat="59.0724915147" lon="29.970641483"><ele>98.7</ele><time>2026-04-25T11:36:24.000Z</time><hdop>3.0</hdop><vdop>3.0</vdop><extensions><gom:speed>0.0</gom:speed></extensions></trkpt>
   <trkpt lat="59.0724912632" lon="29.9706213665"><ele>98.57</ele><time>2026-04-25T11:36:25.000Z</time><hdop>3.437</hdop><vdop>3.437</vdop><extensions><gom:speed>0.458</gom:speed></extensions></trkpt>
   <trkpt lat="59.0724912632" lon="29.9706213665"><ele>98.493</ele><time>2026-04-25T11:36:26.000Z</time><hdop>3.437</hdop><vdop>3.437</vdop><extensions><gom:speed>0.0</gom:speed></extensions></trkpt>
   <trkpt lat="59.0724912632" lon="29.9706213665"><ele>98.446</ele><time>2026-04-25T11:36:27.000Z</time><hdop>3.437</hdop><vdop>3.437</vdop><extensions><gom:speed>0.0</gom:speed></extensions></trkpt>
   <trkpt lat="59.0724912632" lon="29.9706213665"><ele>98.419</ele><time>2026-04-25T11:36:28.000Z</time><hdop>3.437</hdop><vdop>3.437</vdop><extensions><gom:speed>0.0</gom:speed></extensions></trkpt>
   <trkpt lat="59.0724912632" lon="29.9706213665"><ele>98.402</ele><time>2026-04-25T11:36:29.000Z</time><hdop>3.437</hdop><vdop>3.437</vdop><extensions><gom:speed>0.0</gom:speed></extensions></trkpt>
   <trkpt lat="59.0724912632" lon="29.9706213665"><ele>98.392</ele><time>2026-04-25T11:36:30.000Z</time><hdop>3.437</hdop><vdop>3.437</vdop><extensions><gom:speed>0.0</gom:speed></extensions></trkpt>
   <trkpt lat="59.0724912632" lon="29.9706213665"><ele>98.386</ele><time>2026-04-25T11:36:31.000Z</time><hdop>3.437</hdop><vdop>3.437</vdop><extensions><gom:speed>0.0</gom:speed></extensions></trkpt>
   <trkpt lat="59.0724912632" lon="29.9706213665"><ele>98.383</ele><time>2026-04-25T11:36:32.000Z</time><hdop>3.437</hdop><vdop>3.437</vdop><extensions><gom:speed>0.0</gom:speed></extensions></trkpt>
   <trkpt lat="59.0724912632" lon="29.9706213665"><ele>98.381</ele><time>2026-04-25T11:36:33.000Z</time><hdop>3.437</hdop><vdop>3.437</vdop><extensions><gom:speed>0.0</gom:speed></extensions></trkpt>
   <trkpt lat="59.0724912632" lon="29.9706213665"><ele>98.38</ele><time>2026-04-25T11:36:34.000Z</time><hdop>3.437</hdop><vdop>3.437</vdop><extensions><gom:speed>0.0</gom:speed></extensions></trkpt>
   <trkpt lat="59.0724912632" lon="29.9706213665"><ele>98.379</ele><time>2026-04-25T11:36:35.000Z</time><hdop>3.437</hdop><vdop>3.437</vdop><extensions><gom:speed>0.0</gom:speed></extensions></trkpt>
   <trkpt lat="59.0724912632" lon="29.9706213665"><ele>98.378</ele><time>2026-04-25T11:36:36.000Z</time><hdop>3.437</hdop><vdop>3.437</vdop><extensions><gom:speed>0.0</gom:speed></extensions></trkpt>
   <trkpt lat="59.0724912632" lon="29.9706213665"><ele>98.378</ele><time>2026-04-25T11:36:37.000Z</time><hdop>3.437</hdop><vdop>3.437</vdop><extensions><gom:speed>0.0</gom:speed></extensions></trkpt>
   <trkpt lat="59.0724912632" lon="29.9706213665"><ele>98.378</ele><time>2026-04-25T11:36:38.000Z</time><hdop>3.437</hdop><vdop>3.437</vdop><extensions><gom:speed>0.0</gom:speed></extensions></trkpt>
   <trkpt lat="59.0724912632" lon="29.9706213665"><ele>98.378</ele><time>2026-04-25T11:36:39.000Z</time><hdop>3.437</hdop><vdop>3.437</vdop><extensions><gom:speed>0.0</gom:speed></extensions></trkpt>
   <trkpt lat="59.0724912632" lon="29.9706213665"><ele>98.378</ele><time>2026-04-25T11:36:40.000Z</time><hdop>3.437</hdop><vdop>3.437</vdop><extensions><gom:speed>0.0</gom:speed></extensions></trkpt>
   <trkpt lat="59.0724912632" lon="29.9706213665"><ele>98.378</ele><time>2026-04-25T11:36:41.000Z</time><hdop>3.437</hdop><vdop>3.437</vdop><extensions><gom:speed>0.0</gom:speed></extensions></trkpt>
   <trkpt lat="59.0724912632" lon="29.9706213665"><ele>98.378</ele><time>2026-04-25T11:36:42.000Z</time><hdop>3.437</hdop><vdop>3.437</vdop><extensions><gom:speed>0.0</gom:speed></extensions></trkpt>
   <trkpt lat="59.0724881619" lon="29.9706131522"><ele>98.382</ele><time>2026-04-25T11:36:43.000Z</time><hdop>3.812</hdop><vdop>3.812</vdop><extensions><gom:speed>0.241</gom:speed></extensions></trkpt>
   <trkpt lat="59.0724830071" lon="29.9706050218"><ele>98.393</ele><time>2026-04-25T11:36:44.000Z</time><hdop>3.937</hdop><vdop>3.937</vdop><extensions><gom:speed>0.364</gom:speed></extensions></trkpt>
   <trkpt lat="59.07247978" lon="29.9705918622"><ele>98.369</ele><time>2026-04-25T11:36:45.000Z</time><hdop>3.812</hdop><vdop>3.812</vdop><extensions><gom:speed>0.389</gom:speed></extensions></trkpt>
   <trkpt lat="59.0724773912" lon="29.9705801275"><ele>98.296</ele><time>2026-04-25T11:36:46.000Z</time><hdop>3.75</hdop><vdop>3.75</vdop><extensions><gom:speed>0.478</gom:speed></extensions></trkpt>
   <trkpt lat="59.0724732002" lon="29.9705638666"><ele>98.193</ele><time>2026-04-25T11:36:47.000Z</time><hdop>3.875</hdop><vdop>3.875</vdop><extensions><gom:speed>0.552</gom:speed></extensions></trkpt>
   <trkpt lat="59.0724692607" lon="29.97053914"><ele>98.027</ele><time>2026-04-25T11:36:48.000Z</time><hdop>3.937</hdop><vdop>3.937</vdop><extensions><gom:speed>0.557</gom:speed></extensions></trkpt>
   <trkpt lat="59.0724675005" lon="29.9705186043"><ele>97.801</ele><time>2026-04-25T11:36:49.000Z</time><hdop>3.875</hdop><vdop>3.875</vdop><extensions><gom:speed>0.307</gom:speed></extensions></trkpt>
   <trkpt lat="59.0724656565" lon="29.9705006671"><ele>97.569</ele><time>2026-04-25T11:36:50.000Z</time><hdop>4.625</hdop><vdop>4.625</vdop><extensions><gom:speed>0.309</gom:speed></extensions></trkpt>
   <trkpt lat="59.0724653212" lon="29.9704797961"><ele>97.234</ele><time>2026-04-25T11:36:51.000Z</time><hdop>4.812</hdop><vdop>4.812</vdop><extensions><gom:speed>0.366</gom:speed></extensions></trkpt>
   <trkpt lat="59.0724650698" lon="29.9704604339"><ele>96.926</ele><time>2026-04-25T11:36:52.000Z</time><hdop>4.687</hdop><vdop>4.687</vdop><extensions><gom:speed>0.512</gom:speed></extensions></trkpt>
   <trkpt lat="59.0724655727" lon="29.9704351206"><ele>96.565</ele><time>2026-04-25T11:36:53.000Z</time><hdop>4.875</hdop><vdop>4.875</vdop><extensions><gom:speed>0.288</gom:speed></extensions></trkpt>
   <trkpt lat="59.0724655727" lon="29.9704351206"><ele>96.35</ele><time>2026-04-25T11:36:54.000Z</time><hdop>4.875</hdop><vdop>4.875</vdop><extensions><gom:speed>0.0</gom:speed></extensions></trkpt>
   <trkpt lat="59.0724655727" lon="29.9704351206"><ele>96.222</ele><time>2026-04-25T11:36:55.000Z</time><hdop>4.875</hdop><vdop>4.875</vdop><extensions><gom:speed>0.0</gom:speed></extensions></trkpt>
   <trkpt lat="59.0724655727" lon="29.9704351206"><ele>96.145</ele><time>2026-04-25T11:36:56.000Z</time><hdop>4.875</hdop><vdop>4.875</vdop><extensions><gom:speed>0.0</gom:speed></extensions></trkpt>
   <trkpt lat="59.0724655727" lon="29.9704351206"><ele>96.099</ele><time>2026-04-25T11:36:57.000Z</time><hdop>4.875</hdop><vdop>4.875</vdop><extensions><gom:speed>0.0</gom:speed></extensions></trkpt>
   <trkpt lat="59.0724655727" lon="29.9704351206"><ele>96.071</ele><time>2026-04-25T11:36:58.000Z</time><hdop>4.875</hdop><vdop>4.875</vdop><extensions><gom:speed>0.0</gom:speed></extensions></trkpt>
   <trkpt lat="59.0724655727" lon="29.9704351206"><ele>96.055</ele><time>2026-04-25T11:36:59.000Z</time><hdop>4.875</hdop><vdop>4.875</vdop><extensions><gom:speed>0.0</gom:speed></extensions></trkpt>
   <trkpt lat="59.0724655727" lon="29.9704351206"><ele>96.045</ele><time>2026-04-25T11:37:00.000Z</time><hdop>4.875</hdop><vdop>4.875</vdop><extensions><gom:speed>0.0</gom:speed></extensions></trkpt>
   <trkpt lat="59.0724655727" lon="29.9704351206"><ele>96.039</ele><time>2026-04-25T11:37:01.000Z</time><hdop>4.875</hdop><vdop>4.875</vdop><extensions><gom:speed>0.0</gom:speed></extensions></trkpt>
   <trkpt lat="59.0724655727" lon="29.9704351206"><ele>96.036</ele><time>2026-04-25T11:37:02.000Z</time><hdop>4.875</hdop><vdop>4.875</vdop><extensions><gom:speed>0.0</gom:speed></extensions></trkpt>
   <trkpt lat="59.0724655727" lon="29.9704351206"><ele>96.034</ele><time>2026-04-25T11:37:03.000Z</time><hdop>4.875</hdop><vdop>4.875</vdop><extensions><gom:speed>0.0</gom:speed></extensions></trkpt>
   <trkpt lat="59.0724655727" lon="29.9704351206"><ele>96.033</ele><time>2026-04-25T11:37:04.000Z</time><hdop>4.875</hdop><vdop>4.875</vdop><extensions><gom:speed>0.0</gom:speed></extensions></trkpt>
   <trkpt lat="59.0724655727" lon="29.9704351206"><ele>96.032</ele><time>2026-04-25T11:37:05.000Z</time><hdop>4.875</hdop><vdop>4.875</vdop><extensions><gom:speed>0.0</gom:speed></extensions></trkpt>
   <trkpt lat="59.0724655727" lon="29.9704351206"><ele>96.031</ele><time>2026-04-25T11:37:06.000Z</time><hdop>4.875</hdop><vdop>4.875</vdop><extensions><gom:speed>0.0</gom:speed></extensions></trkpt>
   <trkpt lat="59.0724655727" lon="29.9704351206"><ele>96.031</ele><time>2026-04-25T11:37:07.000Z</time><hdop>4.875</hdop><vdop>4.875</vdop><extensions><gom:speed>0.0</gom:speed></extensions></trkpt>
   <trkpt lat="59.0724653212" lon="29.9704222963"><ele>96.063</ele><time>2026-04-25T11:37:08.000Z</time><hdop>4.687</hdop><vdop>4.687</vdop><extensions><gom:speed>0.34</gom:speed></extensions></trkpt>
   <trkpt lat="59.0724657823" lon="29.9704019282"><ele>96.055</ele><time>2026-04-25T11:37:09.000Z</time><hdop>4.687</hdop><vdop>4.687</vdop><extensions><gom:speed>0.537</gom:speed></extensions></trkpt>
   <trkpt lat="59.0724632258" lon="29.9703783751"><ele>96.061</ele><time>2026-04-25T11:37:10.000Z</time><hdop>4.687</hdop><vdop>4.687</vdop><extensions><gom:speed>0.448</gom:speed></extensions></trkpt>
   <trkpt lat="59.0724612979" lon="29.9703568336"><ele>96.01</ele><time>2026-04-25T11:37:11.000Z</time><hdop>4.687</hdop><vdop>4.687</vdop><extensions><gom:speed>0.475</gom:speed></extensions></trkpt>
   <trkpt lat="59.0724598311" lon="29.9703402374"><ele>95.98</ele><time>2026-04-25T11:37:12.000Z</time><hdop>4.875</hdop><vdop>4.875</vdop><extensions><gom:speed>0.27</gom:speed></extensions></trkpt>
   <trkpt lat="59.0724598311" lon="29.9703402374"><ele>95.961</ele><time>2026-04-25T11:37:13.000Z</time><hdop>4.875</hdop><vdop>4.875</vdop><extensions><gom:speed>0.0</gom:speed></extensions></trkpt>
   <trkpt lat="59.0724598311" lon="29.9703402374"><ele>95.951</ele><time>2026-04-25T11:37:14.000Z</time><hdop>4.875</hdop><vdop>4.875</vdop><extensions><gom:speed>0.0</gom:speed></extensions></trkpt>
   <trkpt lat="59.0724598311" lon="29.9703402374"><ele>95.944</ele><time>2026-04-25T11:37:15.000Z</time><hdop>4.875</hdop><vdop>4.875</vdop><extensions><gom:speed>0.0</gom:speed></extensions></trkpt>
   <trkpt lat="59.0724598311" lon="29.9703402374"><ele>95.94</ele><time>2026-04-25T11:37:16.000Z</time><hdop>4.875</hdop><vdop>4.875</vdop><extensions><gom:speed>0.0</gom:speed></extensions></trkpt>
   <trkpt lat="59.0724598311" lon="29.9703402374"><ele>95.938</ele><time>2026-04-25T11:37:17.000Z</time><hdop>4.875</hdop><vdop>4.875</vdop><extensions><gom:speed>0.0</gom:speed></extensions></trkpt>
   <trkpt lat="59.0724593282" lon="29.970330263"><ele>95.928</ele><time>2026-04-25T11:37:18.000Z</time><hdop>4.687</hdop><vdop>4.687</vdop><extensions><gom:speed>0.428</gom:speed></extensions></trkpt>
   <trkpt lat="59.0724620942" lon="29.9703176901"><ele>95.911</ele><time>2026-04-25T11:37:19.000Z</time><hdop>4.687</hdop><vdop>4.687</vdop><extensions><gom:speed>0.524</gom:speed></extensions></trkpt>
   <trkpt lat="59.0724620942" lon="29.9703176901"><ele>95.901</ele><time>2026-04-25T11:37:20.000Z</time><hdop>4.875</hdop><vdop>4.875</vdop><extensions><gom:speed>0.0</gom:speed></extensions></trkpt>
   <trkpt lat="59.0724620942" lon="29.9703176901"><ele>95.895</ele><time>2026-04-25T11:37:21.000Z</time><hdop>4.875</hdop><vdop>4.875</vdop><extensions><gom:speed>0.0</gom:speed></extensions></trkpt>
   <trkpt lat="59.0724620942" lon="29.9703176901"><ele>95.892</ele><time>2026-04-25T11:37:22.000Z</time><hdop>4.875</hdop><vdop>4.875</vdop><extensions><gom:speed>0.0</gom:speed></extensions></trkpt>
   <trkpt lat="59.0724620942" lon="29.9703176901"><ele>95.89</ele><time>2026-04-25T11:37:23.000Z</time><hdop>4.875</hdop><vdop>4.875</vdop><extensions><gom:speed>0.0</gom:speed></extensions></trkpt>
   <trkpt lat="59.0724620942" lon="29.9703176901"><ele>95.888</ele><time>2026-04-25T11:37:24.000Z</time><hdop>4.875</hdop><vdop>4.875</vdop><extensions><gom:speed>0.0</gom:speed></extensions></trkpt>
   <trkpt lat="59.0724620942" lon="29.9703176901"><ele>95.888</ele><time>2026-04-25T11:37:25.000Z</time><hdop>4.875</hdop><vdop>4.875</vdop><extensions><gom:speed>0.0</gom:speed></extensions></trkpt>
   <trkpt lat="59.0724620942" lon="29.9703176901"><ele>95.887</ele><time>2026-04-25T11:37:26.000Z</time><hdop>4.875</hdop><vdop>4.875</vdop><extensions><gom:speed>0.0</gom:speed></extensions></trkpt>
   <trkpt lat="59.0724620942" lon="29.9703176901"><ele>95.887</ele><time>2026-04-25T11:37:27.000Z</time><hdop>4.875</hdop><vdop>4.875</vdop><extensions><gom:speed>0.0</gom:speed></extensions></trkpt>
   <trkpt lat="59.0724620942" lon="29.9703176901"><ele>95.887</ele><time>2026-04-25T11:37:28.000Z</time><hdop>4.875</hdop><vdop>4.875</vdop><extensions><gom:speed>0.0</gom:speed></extensions></trkpt>
   <trkpt lat="59.0724620942" lon="29.9703176901"><ele>95.887</ele><time>2026-04-25T11:37:29.000Z</time><hdop>4.875</hdop><vdop>4.875</vdop><extensions><gom:speed>0.0</gom:speed></extensions></trkpt>
   <trkpt lat="59.0724620942" lon="29.9703176901"><ele>95.887</ele><time>2026-04-25T11:37:30.000Z</time><hdop>4.875</hdop><vdop>4.875</vdop><extensions><gom:speed>0.0</gom:speed></extensions></trkpt>
   <trkpt lat="59.0724620942" lon="29.9703176901"><ele>95.887</ele><time>2026-04-25T11:37:31.000Z</time><hdop>4.875</hdop><vdop>4.875</vdop><extensions><gom:speed>0.0</gom:speed></extensions></trkpt>
   <trkpt lat="59.0724620942" lon="29.9703176901"><ele>95.887</ele><time>2026-04-25T11:37:32.000Z</time><hdop>4.875</hdop><vdop>4.875</vdop><extensions><gom:speed>0.0</gom:speed></extensions></trkpt>
   <trkpt lat="59.0724620942" lon="29.9703176901"><ele>95.887</ele><time>2026-04-25T11:37:33.000Z</time><hdop>4.875</hdop><vdop>4.875</vdop><extensions><gom:speed>0.0</gom:speed></extensions></trkpt>
   <trkpt lat="59.0724620942" lon="29.9703176901"><ele>95.887</ele><time>2026-04-25T11:37:34.000Z</time><hdop>4.875</hdop><vdop>4.875</vdop><extensions><gom:speed>0.0</gom:speed></extensions></trkpt>
   <trkpt lat="59.0724620942" lon="29.9703176901"><ele>95.887</ele><time>2026-04-25T11:37:35.000Z</time><hdop>4.875</hdop><vdop>4.875</vdop><extensions><gom:speed>0.0</gom:speed></extensions></trkpt>
   <trkpt lat="59.0724620942" lon="29.9703176901"><ele>95.887</ele><time>2026-04-25T11:37:36.000Z</time><hdop>4.875</hdop><vdop>4.875</vdop><extensions><gom:speed>0.0</gom:speed></extensions></trkpt>
   <trkpt lat="59.0724620942" lon="29.9703176901"><ele>95.887</ele><time>2026-04-25T11:37:36.000Z</time><hdop>4.875</hdop><vdop>4.875</vdop><extensions><gom:speed>0.0</gom:speed></extensions></trkpt>
   <trkpt lat="59.0724620942" lon="29.9703176901"><ele>95.887</ele><time>2026-04-25T11:37:37.000Z</time><hdop>4.875</hdop><vdop>4.875</vdop><extensions><gom:speed>0.0</gom:speed></extensions></trkpt>
   <trkpt lat="59.0724620942" lon="29.9703176901"><ele>95.887</ele><time>2026-04-25T11:37:38.000Z</time><hdop>4.875</hdop><vdop>4.875</vdop><extensions><gom:speed>0.0</gom:speed></extensions></trkpt>
   <trkpt lat="59.0724620942" lon="29.9703176901"><ele>95.887</ele><time>2026-04-25T11:37:39.000Z</time><hdop>4.875</hdop><vdop>4.875</vdop><extensions><gom:speed>0.0</gom:speed></extensions></trkpt>
   <trkpt lat="59.0724620942" lon="29.9703176901"><ele>95.887</ele><time>2026-04-25T11:37:40.000Z</time><hdop>4.875</hdop><vdop>4.875</vdop><extensions><gom:speed>0.0</gom:speed></extensions></trkpt>
   <trkpt lat="59.0724620942" lon="29.9703176901"><ele>95.887</ele><time>2026-04-25T11:37:41.000Z</time><hdop>4.875</hdop><vdop>4.875</vdop><extensions><gom:speed>0.0</gom:speed></extensions></trkpt>
   <trkpt lat="59.0724620942" lon="29.9703176901"><ele>95.887</ele><time>2026-04-25T11:37:42.000Z</time><hdop>4.875</hdop><vdop>4.875</vdop><extensions><gom:speed>0.0</gom:speed></extensions></trkpt>
   <trkpt lat="59.0724624295" lon="29.9703062069"><ele>95.873</ele><time>2026-04-25T11:37:43.000Z</time><hdop>4.687</hdop><vdop>4.687</vdop><extensions><gom:speed>0.215</gom:speed></extensions></trkpt>
   <trkpt lat="59.0724624295" lon="29.9703062069"><ele>95.865</ele><time>2026-04-25T11:37:44.000Z</time><hdop>4.875</hdop><vdop>4.875</vdop><extensions><gom:speed>0.0</gom:speed></extensions></trkpt>
   <trkpt lat="59.0724624295" lon="29.9703062069"><ele>95.86</ele><time>2026-04-25T11:37:45.000Z</time><hdop>4.875</hdop><vdop>4.875</vdop><extensions><gom:speed>0.0</gom:speed></extensions></trkpt>
   <trkpt lat="59.0724624295" lon="29.9703062069"><ele>95.857</ele><time>2026-04-25T11:37:46.000Z</time><hdop>4.875</hdop><vdop>4.875</vdop><extensions><gom:speed>0.0</gom:speed></extensions></trkpt>
   <trkpt lat="59.0724624295" lon="29.9703062069"><ele>95.856</ele><time>2026-04-25T11:37:47.000Z</time><hdop>4.875</hdop><vdop>4.875</vdop><extensions><gom:speed>0.0</gom:speed></extensions></trkpt>
   <trkpt lat="59.0724624295" lon="29.9703062069"><ele>95.855</ele><time>2026-04-25T11:37:48.000Z</time><hdop>4.875</hdop><vdop>4.875</vdop><extensions><gom:speed>0.0</gom:speed></extensions></trkpt>
   <trkpt lat="59.0724624295" lon="29.9703062069"><ele>95.854</ele><time>2026-04-25T11:37:49.000Z</time><hdop>4.875</hdop><vdop>4.875</vdop><extensions><gom:speed>0.0</gom:speed></extensions></trkpt>
   <trkpt lat="59.0724624295" lon="29.9703062069"><ele>95.854</ele><time>2026-04-25T11:37:50.000Z</time><hdop>4.875</hdop><vdop>4.875</vdop><extensions><gom:speed>0.0</gom:speed></extensions></trkpt>
   <trkpt lat="59.0724624295" lon="29.9703062069"><ele>95.853</ele><time>2026-04-25T11:37:51.000Z</time><hdop>4.875</hdop><vdop>4.875</vdop><extensions><gom:speed>0.0</gom:speed></extensions></trkpt>
   <trkpt lat="59.0724624295" lon="29.9703062069"><ele>95.853</ele><time>2026-04-25T11:37:52.000Z</time><hdop>4.875</hdop><vdop>4.875</vdop><extensions><gom:speed>0.0</gom:speed></extensions></trkpt>
   <trkpt lat="59.0724624295" lon="29.9703062069"><ele>95.853</ele><time>2026-04-25T11:37:53.000Z</time><hdop>4.875</hdop><vdop>4.875</vdop><extensions><gom:speed>0.0</gom:speed></extensions></trkpt>
   <trkpt lat="59.0724624295" lon="29.9703062069"><ele>95.853</ele><time>2026-04-25T11:37:54.000Z</time><hdop>4.875</hdop><vdop>4.875</vdop><extensions><gom:speed>0.0</gom:speed></extensions></trkpt>
   <trkpt lat="59.0724624295" lon="29.9703062069"><ele>95.853</ele><time>2026-04-25T11:37:55.000Z</time><hdop>4.875</hdop><vdop>4.875</vdop><extensions><gom:speed>0.0</gom:speed></extensions></trkpt>
   <trkpt lat="59.0724624295" lon="29.9703062069"><ele>95.853</ele><time>2026-04-25T11:37:56.000Z</time><hdop>4.875</hdop><vdop>4.875</vdop><extensions><gom:speed>0.0</gom:speed></extensions></trkpt>
   <trkpt lat="59.0724624295" lon="29.9703062069"><ele>95.853</ele><time>2026-04-25T11:37:57.000Z</time><hdop>4.875</hdop><vdop>4.875</vdop><extensions><gom:speed>0.0</gom:speed></extensions></trkpt>
   <trkpt lat="59.0724624295" lon="29.9703062069"><ele>95.853</ele><time>2026-04-25T11:37:58.000Z</time><hdop>4.875</hdop><vdop>4.875</vdop><extensions><gom:speed>0.0</gom:speed></extensions></trkpt>
   <trkpt lat="59.0724594958" lon="29.9702970706"><ele>95.829</ele><time>2026-04-25T11:37:59.000Z</time><hdop>4.687</hdop><vdop>4.687</vdop><extensions><gom:speed>0.556</gom:speed></extensions></trkpt>
   <trkpt lat="59.0724528322" lon="29.9702867609"><ele>95.796</ele><time>2026-04-25T11:38:00.000Z</time><hdop>4.687</hdop><vdop>4.687</vdop><extensions><gom:speed>0.788</gom:speed></extensions></trkpt>
   <trkpt lat="59.0724528322" lon="29.9702867609"><ele>95.777</ele><time>2026-04-25T11:38:01.000Z</time><hdop>4.875</hdop><vdop>4.875</vdop><extensions><gom:speed>0.0</gom:speed></extensions></trkpt>
   <trkpt lat="59.0724528322" lon="29.9702867609"><ele>95.765</ele><time>2026-04-25T11:38:02.000Z</time><hdop>4.875</hdop><vdop>4.875</vdop><extensions><gom:speed>0.0</gom:speed></extensions></trkpt>
   <trkpt lat="59.0724528322" lon="29.9702867609"><ele>95.758</ele><time>2026-04-25T11:38:03.000Z</time><hdop>4.875</hdop><vdop>4.875</vdop><extensions><gom:speed>0.0</gom:speed></extensions></trkpt>
   <trkpt lat="59.0724528322" lon="29.9702867609"><ele>95.754</ele><time>2026-04-25T11:38:04.000Z</time><hdop>4.875</hdop><vdop>4.875</vdop><extensions><gom:speed>0.0</gom:speed></extensions></trkpt>
   <trkpt lat="59.0724528322" lon="29.9702867609"><ele>95.752</ele><time>2026-04-25T11:38:05.000Z</time><hdop>4.875</hdop><vdop>4.875</vdop><extensions><gom:speed>0.0</gom:speed></extensions></trkpt>
   <trkpt lat="59.0724528322" lon="29.9702867609"><ele>95.75</ele><time>2026-04-25T11:38:06.000Z</time><hdop>4.875</hdop><vdop>4.875</vdop><extensions><gom:speed>0.0</gom:speed></extensions></trkpt>
   <trkpt lat="59.0724528322" lon="29.9702867609"><ele>95.749</ele><time>2026-04-25T11:38:07.000Z</time><hdop>4.875</hdop><vdop>4.875</vdop><extensions><gom:speed>0.0</gom:speed></extensions></trkpt>
   <trkpt lat="59.0724511558" lon="29.9702838272"><ele>95.789</ele><time>2026-04-25T11:38:08.000Z</time><hdop>4.687</hdop><vdop>4.687</vdop><extensions><gom:speed>0.291</gom:speed></extensions></trkpt>
   <trkpt lat="59.0724472163" lon="29.9702813127"><ele>95.911</ele><time>2026-04-25T11:38:09.000Z</time><hdop>4.687</hdop><vdop>4.687</vdop><extensions><gom:speed>0.533</gom:speed></extensions></trkpt>
   <trkpt lat="59.0724392116" lon="29.9702798039"><ele>96.03</ele><time>2026-04-25T11:38:10.000Z</time><hdop>4.687</hdop><vdop>4.687</vdop><extensions><gom:speed>0.778</gom:speed></extensions></trkpt>
   <trkpt lat="59.0724300334" lon="29.9702766188"><ele>96.161</ele><time>2026-04-25T11:38:11.000Z</time><hdop>4.687</hdop><vdop>4.687</vdop><extensions><gom:speed>0.805</gom:speed></extensions></trkpt>
   <trkpt lat="59.0724227412" lon="29.9702741042"><ele>96.276</ele><time>2026-04-25T11:38:12.000Z</time><hdop>4.687</hdop><vdop>4.687</vdop><extensions><gom:speed>0.303</gom:speed></extensions></trkpt>
   <trkpt lat="59.07241679" lon="29.9702750262"><ele>96.467</ele><time>2026-04-25T11:38:13.000Z</time><hdop>4.875</hdop><vdop>4.875</vdop><extensions><gom:speed>0.571</gom:speed></extensions></trkpt>
   <trkpt lat="59.072407528" lon="29.9702746909"><ele>96.661</ele><time>2026-04-25T11:38:14.000Z</time><hdop>4.687</hdop><vdop>4.687</vdop><extensions><gom:speed>0.616</gom:speed></extensions></trkpt>
   <trkpt lat="59.0724004872" lon="29.9702722602"><ele>96.855</ele><time>2026-04-25T11:38:15.000Z</time><hdop>4.562</hdop><vdop>4.562</vdop><extensions><gom:speed>0.47</gom:speed></extensions></trkpt>
   <trkpt lat="59.0723916443" lon="29.9702680692"><ele>97.039</ele><time>2026-04-25T11:38:16.000Z</time><hdop>4.25</hdop><vdop>4.25</vdop><extensions><gom:speed>0.551</gom:speed></extensions></trkpt>
   <trkpt lat="59.0723916443" lon="29.9702680692"><ele>97.148</ele><time>2026-04-25T11:38:17.000Z</time><hdop>4.25</hdop><vdop>4.25</vdop><extensions><gom:speed>0.0</gom:speed></extensions></trkpt>
   <trkpt lat="59.0723916443" lon="29.9702680692"><ele>97.214</ele><time>2026-04-25T11:38:17.000Z</time><hdop>4.25</hdop><vdop>4.25</vdop><extensions><gom:speed>0.0</gom:speed></extensions></trkpt>
   <trkpt lat="59.0723916443" lon="29.9702680692"><ele>97.253</ele><time>2026-04-25T11:38:18.000Z</time><hdop>4.25</hdop><vdop>4.25</vdop><extensions><gom:speed>0.0</gom:speed></extensions></trkpt>
   <trkpt lat="59.0723916443" lon="29.9702680692"><ele>97.277</ele><time>2026-04-25T11:38:19.000Z</time><hdop>4.25</hdop><vdop>4.25</vdop><extensions><gom:speed>0.0</gom:speed></extensions></trkpt>
   <trkpt lat="59.0723916443" lon="29.9702680692"><ele>97.291</ele><time>2026-04-25T11:38:20.000Z</time><hdop>4.25</hdop><vdop>4.25</vdop><extensions><gom:speed>0.0</gom:speed></extensions></trkpt>
   <trkpt lat="59.0723916443" lon="29.9702680692"><ele>97.299</ele><time>2026-04-25T11:38:21.000Z</time><hdop>4.25</hdop><vdop>4.25</vdop><extensions><gom:speed>0.0</gom:speed></extensions></trkpt>
   <trkpt lat="59.0723916443" lon="29.9702680692"><ele>97.304</ele><time>2026-04-25T11:38:22.000Z</time><hdop>4.25</hdop><vdop>4.25</vdop><extensions><gom:speed>0.0</gom:speed></extensions></trkpt>
   <trkpt lat="59.0723916443" lon="29.9702680692"><ele>97.307</ele><time>2026-04-25T11:38:23.000Z</time><hdop>4.25</hdop><vdop>4.25</vdop><extensions><gom:speed>0.0</gom:speed></extensions></trkpt>
   <trkpt lat="59.0723916443" lon="29.9702680692"><ele>97.309</ele><time>2026-04-25T11:38:24.000Z</time><hdop>4.25</hdop><vdop>4.25</vdop><extensions><gom:speed>0.0</gom:speed></extensions></trkpt>
   <trkpt lat="59.0723916443" lon="29.9702680692"><ele>97.31</ele><time>2026-04-25T11:38:25.000Z</time><hdop>4.25</hdop><vdop>4.25</vdop><extensions><gom:speed>0.0</gom:speed></extensions></trkpt>
   <trkpt lat="59.0723916443" lon="29.9702680692"><ele>97.31</ele><time>2026-04-25T11:38:26.000Z</time><hdop>4.25</hdop><vdop>4.25</vdop><extensions><gom:speed>0.0</gom:speed></extensions></trkpt>
   <trkpt lat="59.0723898003" lon="29.9702620343"><ele>97.323</ele><time>2026-04-25T11:38:27.000Z</time><hdop>4.437</hdop><vdop>4.437</vdop><extensions><gom:speed>0.211</gom:speed></extensions></trkpt>
   <trkpt lat="59.0723898003" lon="29.9702620343"><ele>97.331</ele><time>2026-04-25T11:38:28.000Z</time><hdop>4.437</hdop><vdop>4.437</vdop><extensions><gom:speed>0.0</gom:speed></extensions></trkpt>
   <trkpt lat="59.0723898003" lon="29.9702620343"><ele>97.335</ele><time>2026-04-25T11:38:29.000Z</time><hdop>4.437</hdop><vdop>4.437</vdop><extensions><gom:speed>0.0</gom:speed></extensions></trkpt>
   <trkpt lat="59.0723898003" lon="29.9702620343"><ele>97.338</ele><time>2026-04-25T11:38:30.000Z</time><hdop>4.437</hdop><vdop>4.437</vdop><extensions><gom:speed>0.0</gom:speed></extensions></trkpt>
   <trkpt lat="59.0723898003" lon="29.9702620343"><ele>97.34</ele><time>2026-04-25T11:38:31.000Z</time><hdop>4.437</hdop><vdop>4.437</vdop><extensions><gom:speed>0.0</gom:speed></extensions></trkpt>
   <trkpt lat="59.0723898003" lon="29.9702620343"><ele>97.341</ele><time>2026-04-25T11:38:32.000Z</time><hdop>4.437</hdop><vdop>4.437</vdop><extensions><gom:speed>0.0</gom:speed></extensions></trkpt>
   <trkpt lat="59.0723898003" lon="29.9702620343"><ele>97.341</ele><time>2026-04-25T11:38:33.000Z</time><hdop>4.437</hdop><vdop>4.437</vdop><extensions><gom:speed>0.0</gom:speed></extensions></trkpt>
   <trkpt lat="59.0723898003" lon="29.9702620343"><ele>97.341</ele><time>2026-04-25T11:38:33.000Z</time><hdop>4.437</hdop><vdop>4.437</vdop><extensions><gom:speed>0.0</gom:speed></extensions></trkpt>
   <trkpt lat="59.0723898003" lon="29.9702620343"><ele>97.342</ele><time>2026-04-25T11:38:34.000Z</time><hdop>4.437</hdop><vdop>4.437</vdop><extensions><gom:speed>0.0</gom:speed></extensions></trkpt>
   <trkpt lat="59.0723898003" lon="29.9702620343"><ele>97.342</ele><time>2026-04-25T11:38:35.000Z</time><hdop>4.437</hdop><vdop>4.437</vdop><extensions><gom:speed>0.0</gom:speed></extensions></trkpt>
   <trkpt lat="59.0723898003" lon="29.9702620343"><ele>97.342</ele><time>2026-04-25T11:38:36.000Z</time><hdop>4.437</hdop><vdop>4.437</vdop><extensions><gom:speed>0.0</gom:speed></extensions></trkpt>
   <trkpt lat="59.0723898003" lon="29.9702620343"><ele>97.342</ele><time>2026-04-25T11:38:37.000Z</time><hdop>4.437</hdop><vdop>4.437</vdop><extensions><gom:speed>0.0</gom:speed></extensions></trkpt>
   <trkpt lat="59.0723898003" lon="29.9702620343"><ele>97.342</ele><time>2026-04-25T11:38:38.000Z</time><hdop>4.437</hdop><vdop>4.437</vdop><extensions><gom:speed>0.0</gom:speed></extensions></trkpt>
   <trkpt lat="59.0723898003" lon="29.9702620343"><ele>97.342</ele><time>2026-04-25T11:38:39.000Z</time><hdop>4.437</hdop><vdop>4.437</vdop><extensions><gom:speed>0.0</gom:speed></extensions></trkpt>
   <trkpt lat="59.0723898003" lon="29.9702620343"><ele>97.342</ele><time>2026-04-25T11:38:40.000Z</time><hdop>4.437</hdop><vdop>4.437</vdop><extensions><gom:speed>0.0</gom:speed></extensions></trkpt>
   <trkpt lat="59.0723898003" lon="29.9702620343"><ele>97.342</ele><time>2026-04-25T11:38:41.000Z</time><hdop>4.437</hdop><vdop>4.437</vdop><extensions><gom:speed>0.0</gom:speed></extensions></trkpt>
   <trkpt lat="59.0723898003" lon="29.9702620343"><ele>97.342</ele><time>2026-04-25T11:38:42.000Z</time><hdop>4.437</hdop><vdop>4.437</vdop><extensions><gom:speed>0.0</gom:speed></extensions></trkpt>
   <trkpt lat="59.0723898003" lon="29.9702620343"><ele>97.342</ele><time>2026-04-25T11:38:43.000Z</time><hdop>4.437</hdop><vdop>4.437</vdop><extensions><gom:speed>0.0</gom:speed></extensions></trkpt>
   <trkpt lat="59.0723898003" lon="29.9702620343"><ele>97.342</ele><time>2026-04-25T11:38:44.000Z</time><hdop>4.437</hdop><vdop>4.437</vdop><extensions><gom:speed>0.0</gom:speed></extensions></trkpt>
   <trkpt lat="59.0723824242" lon="29.9702627048"><ele>97.287</ele><time>2026-04-25T11:38:45.000Z</time><hdop>4.437</hdop><vdop>4.437</vdop><extensions><gom:speed>0.83</gom:speed></extensions></trkpt>
   <trkpt lat="59.0723824242" lon="29.9702627048"><ele>97.255</ele><time>2026-04-25T11:38:46.000Z</time><hdop>4.437</hdop><vdop>4.437</vdop><extensions><gom:speed>0.0</gom:speed></extensions></trkpt>
   <trkpt lat="59.072373749" lon="29.970261699"><ele>97.216</ele><time>2026-04-25T11:38:47.000Z</time><hdop>4.312</hdop><vdop>4.312</vdop><extensions><gom:speed>0.72</gom:speed></extensions></trkpt>
   <trkpt lat="59.0723636907" lon="29.9702664767"><ele>97.164</ele><time>2026-04-25T11:38:48.000Z</time><hdop>4.0</hdop><vdop>4.0</vdop><extensions><gom:speed>0.666</gom:speed></extensions></trkpt>
   <trkpt lat="59.0723518303" lon="29.9702670634"><ele>97.129</ele><time>2026-04-25T11:38:49.000Z</time><hdop>3.687</hdop><vdop>3.687</vdop><extensions><gom:speed>0.651</gom:speed></extensions></trkpt>
   <trkpt lat="59.0723431969" lon="29.9702679016"><ele>97.085</ele><time>2026-04-25T11:38:50.000Z</time><hdop>3.312</hdop><vdop>3.312</vdop><extensions><gom:speed>0.422</gom:speed></extensions></trkpt>
   <trkpt lat="59.0723355275" lon="29.9702691589"><ele>97.145</ele><time>2026-04-25T11:38:51.000Z</time><hdop>3.562</hdop><vdop>3.562</vdop><extensions><gom:speed>0.366</gom:speed></extensions></trkpt>
   <trkpt lat="59.0723298278" lon="29.970266812"><ele>97.237</ele><time>2026-04-25T11:38:52.000Z</time><hdop>3.437</hdop><vdop>3.437</vdop><extensions><gom:speed>0.487</gom:speed></extensions></trkpt>
   <trkpt lat="59.0723247986" lon="29.9702645488"><ele>97.346</ele><time>2026-04-25T11:38:53.000Z</time><hdop>3.562</hdop><vdop>3.562</vdop><extensions><gom:speed>0.431</gom:speed></extensions></trkpt>
   <trkpt lat="59.0723247986" lon="29.9702645488"><ele>97.412</ele><time>2026-04-25T11:38:53.000Z</time><hdop>3.562</hdop><vdop>3.562</vdop><extensions><gom:speed>0.431</gom:speed></extensions></trkpt>
   <trkpt lat="59.0723247986" lon="29.9702645488"><ele>97.451</ele><time>2026-04-25T11:38:54.000Z</time><hdop>3.562</hdop><vdop>3.562</vdop><extensions><gom:speed>0.0</gom:speed></extensions></trkpt>
   <trkpt lat="59.0723247986" lon="29.9702645488"><ele>97.474</ele><time>2026-04-25T11:38:55.000Z</time><hdop>3.562</hdop><vdop>3.562</vdop><extensions><gom:speed>0.0</gom:speed></extensions></trkpt>
   <trkpt lat="59.0723247986" lon="29.9702645488"><ele>97.488</ele><time>2026-04-25T11:38:56.000Z</time><hdop>3.562</hdop><vdop>3.562</vdop><extensions><gom:speed>0.0</gom:speed></extensions></trkpt>
   <trkpt lat="59.0723160396" lon="29.9702654709"><ele>97.549</ele><time>2026-04-25T11:38:57.000Z</time><hdop>3.625</hdop><vdop>3.625</vdop><extensions><gom:speed>0.359</gom:speed></extensions></trkpt>
   <trkpt lat="59.0723160396" lon="29.9702654709"><ele>97.586</ele><time>2026-04-25T11:38:58.000Z</time><hdop>3.625</hdop><vdop>3.625</vdop><extensions><gom:speed>0.0</gom:speed></extensions></trkpt>
   <trkpt lat="59.0723160396" lon="29.9702654709"><ele>97.608</ele><time>2026-04-25T11:38:59.000Z</time><hdop>3.625</hdop><vdop>3.625</vdop><extensions><gom:speed>0.0</gom:speed></extensions></trkpt>
   <trkpt lat="59.0723160396" lon="29.9702654709"><ele>97.621</ele><time>2026-04-25T11:39:00.000Z</time><hdop>3.625</hdop><vdop>3.625</vdop><extensions><gom:speed>0.0</gom:speed></extensions></trkpt>
   <trkpt lat="59.0723160396" lon="29.9702654709"><ele>97.629</ele><time>2026-04-25T11:39:01.000Z</time><hdop>3.625</hdop><vdop>3.625</vdop><extensions><gom:speed>0.0</gom:speed></extensions></trkpt>
   <trkpt lat="59.0723095855" lon="29.9702640459"><ele>97.61</ele><time>2026-04-25T11:39:02.000Z</time><hdop>3.562</hdop><vdop>3.562</vdop><extensions><gom:speed>0.4</gom:speed></extensions></trkpt>
   <trkpt lat="59.0723095855" lon="29.9702640459"><ele>97.599</ele><time>2026-04-25T11:39:03.000Z</time><hdop>3.562</hdop><vdop>3.562</vdop><extensions><gom:speed>0.0</gom:speed></extensions></trkpt>
   <trkpt lat="59.0722994853" lon="29.9702642136"><ele>97.397</ele><time>2026-04-25T11:39:04.000Z</time><hdop>3.937</hdop><vdop>3.937</vdop><extensions><gom:speed>0.211</gom:speed></extensions></trkpt>
   <trkpt lat="59.0722994853" lon="29.9702642136"><ele>97.277</ele><time>2026-04-25T11:39:05.000Z</time><hdop>3.937</hdop><vdop>3.937</vdop><extensions><gom:speed>0.0</gom:speed></extensions></trkpt>
   <trkpt lat="59.0722994853" lon="29.9702642136"><ele>97.204</ele><time>2026-04-25T11:39:06.000Z</time><hdop>3.937</hdop><vdop>3.937</vdop><extensions><gom:speed>0.0</gom:speed></extensions></trkpt>
   <trkpt lat="59.0722994853" lon="29.9702642136"><ele>97.161</ele><time>2026-04-25T11:39:07.000Z</time><hdop>3.937</hdop><vdop>3.937</vdop><extensions><gom:speed>0.0</gom:speed></extensions></trkpt>
   <trkpt lat="59.0722994853" lon="29.9702642136"><ele>97.136</ele><time>2026-04-25T11:39:08.000Z</time><hdop>3.937</hdop><vdop>3.937</vdop><extensions><gom:speed>0.0</gom:speed></extensions></trkpt>
   <trkpt lat="59.0722859485" lon="29.9702609446"><ele>97.119</ele><time>2026-04-25T11:39:09.000Z</time><hdop>3.937</hdop><vdop>3.937</vdop><extensions><gom:speed>0.473</gom:speed></extensions></trkpt>
   <trkpt lat="59.0722724956" lon="29.9702611961"><ele>97.233</ele><time>2026-04-25T11:39:10.000Z</time><hdop>3.937</hdop><vdop>3.937</vdop><extensions><gom:speed>0.788</gom:speed></extensions></trkpt>
   <trkpt lat="59.072260719" lon="29.9702603579"><ele>97.382</ele><time>2026-04-25T11:39:11.000Z</time><hdop>3.875</hdop><vdop>3.875</vdop><extensions><gom:speed>0.63</gom:speed></extensions></trkpt>
   <trkpt lat="59.0722470565" lon="29.9702630401"><ele>97.463</ele><time>2026-04-25T11:39:12.000Z</time><hdop>3.625</hdop><vdop>3.625</vdop><extensions><gom:speed>0.533</gom:speed></extensions></trkpt>
   <trkpt lat="59.0722380459" lon="29.9702665605"><ele>97.462</ele><time>2026-04-25T11:39:13.000Z</time><hdop>3.5</hdop><vdop>3.5</vdop><extensions><gom:speed>0.623</gom:speed></extensions></trkpt>
   <trkpt lat="59.0722380459" lon="29.9702665605"><ele>97.462</ele><time>2026-04-25T11:39:13.000Z</time><hdop>3.5</hdop><vdop>3.5</vdop><extensions><gom:speed>0.623</gom:speed></extensions></trkpt>
   <trkpt lat="59.0722262694" lon="29.9702691589"><ele>97.401</ele><time>2026-04-25T11:39:14.000Z</time><hdop>3.562</hdop><vdop>3.562</vdop><extensions><gom:speed>0.606</gom:speed></extensions></trkpt>
   <trkpt lat="59.0722169235" lon="29.970268656"><ele>97.336</ele><time>2026-04-25T11:39:15.000Z</time><hdop>3.5</hdop><vdop>3.5</vdop><extensions><gom:speed>0.401</gom:speed></extensions></trkpt>
   <trkpt lat="59.0722084997" lon="29.9702685722"><ele>97.26</ele><time>2026-04-25T11:39:16.000Z</time><hdop>3.312</hdop><vdop>3.312</vdop><extensions><gom:speed>0.333</gom:speed></extensions></trkpt>
   <trkpt lat="59.0722084997" lon="29.9702685722"><ele>97.214</ele><time>2026-04-25T11:39:17.000Z</time><hdop>3.312</hdop><vdop>3.312</vdop><extensions><gom:speed>0.0</gom:speed></extensions></trkpt>
   <trkpt lat="59.0722084997" lon="29.9702685722"><ele>97.186</ele><time>2026-04-25T11:39:18.000Z</time><hdop>3.312</hdop><vdop>3.312</vdop><extensions><gom:speed>0.0</gom:speed></extensions></trkpt>
   <trkpt lat="59.0722084997" lon="29.9702685722"><ele>97.17</ele><time>2026-04-25T11:39:19.000Z</time><hdop>3.312</hdop><vdop>3.312</vdop><extensions><gom:speed>0.0</gom:speed></extensions></trkpt>
   <trkpt lat="59.0722084997" lon="29.9702685722"><ele>97.16</ele><time>2026-04-25T11:39:20.000Z</time><hdop>3.312</hdop><vdop>3.312</vdop><extensions><gom:speed>0.0</gom:speed></extensions></trkpt>
   <trkpt lat="59.0722084997" lon="29.9702685722"><ele>97.154</ele><time>2026-04-25T11:39:21.000Z</time><hdop>3.312</hdop><vdop>3.312</vdop><extensions><gom:speed>0.0</gom:speed></extensions></trkpt>
   <trkpt lat="59.0722084997" lon="29.9702685722"><ele>97.151</ele><time>2026-04-25T11:39:22.000Z</time><hdop>3.312</hdop><vdop>3.312</vdop><extensions><gom:speed>0.0</gom:speed></extensions></trkpt>
   <trkpt lat="59.0722084997" lon="29.9702685722"><ele>97.149</ele><time>2026-04-25T11:39:23.000Z</time><hdop>3.312</hdop><vdop>3.312</vdop><extensions><gom:speed>0.0</gom:speed></extensions></trkpt>
   <trkpt lat="59.0722084997" lon="29.9702685722"><ele>97.147</ele><time>2026-04-25T11:39:24.000Z</time><hdop>3.312</hdop><vdop>3.312</vdop><extensions><gom:speed>0.0</gom:speed></extensions></trkpt>
   <trkpt lat="59.0722084997" lon="29.9702685722"><ele>97.147</ele><time>2026-04-25T11:39:25.000Z</time><hdop>3.312</hdop><vdop>3.312</vdop><extensions><gom:speed>0.0</gom:speed></extensions></trkpt>
   <trkpt lat="59.0722084997" lon="29.9702685722"><ele>97.146</ele><time>2026-04-25T11:39:26.000Z</time><hdop>3.312</hdop><vdop>3.312</vdop><extensions><gom:speed>0.0</gom:speed></extensions></trkpt>
   <trkpt lat="59.0722084997" lon="29.9702685722"><ele>97.146</ele><time>2026-04-25T11:39:27.000Z</time><hdop>3.312</hdop><vdop>3.312</vdop><extensions><gom:speed>0.0</gom:speed></extensions></trkpt>
   <trkpt lat="59.0722084997" lon="29.9702685722"><ele>97.146</ele><time>2026-04-25T11:39:28.000Z</time><hdop>3.312</hdop><vdop>3.312</vdop><extensions><gom:speed>0.0</gom:speed></extensions></trkpt>
   <trkpt lat="59.0722084997" lon="29.9702685722"><ele>97.146</ele><time>2026-04-25T11:39:29.000Z</time><hdop>3.312</hdop><vdop>3.312</vdop><extensions><gom:speed>0.0</gom:speed></extensions></trkpt>
   <trkpt lat="59.0722084997" lon="29.9702685722"><ele>97.146</ele><time>2026-04-25T11:39:30.000Z</time><hdop>3.312</hdop><vdop>3.312</vdop><extensions><gom:speed>0.0</gom:speed></extensions></trkpt>
   <trkpt lat="59.0722084997" lon="29.9702685722"><ele>97.146</ele><time>2026-04-25T11:39:31.000Z</time><hdop>3.312</hdop><vdop>3.312</vdop><extensions><gom:speed>0.0</gom:speed></extensions></trkpt>
   <trkpt lat="59.0722084997" lon="29.9702685722"><ele>97.146</ele><time>2026-04-25T11:39:32.000Z</time><hdop>3.312</hdop><vdop>3.312</vdop><extensions><gom:speed>0.0</gom:speed></extensions></trkpt>
   <trkpt lat="59.0722084997" lon="29.9702685722"><ele>97.146</ele><time>2026-04-25T11:39:33.000Z</time><hdop>3.312</hdop><vdop>3.312</vdop><extensions><gom:speed>0.0</gom:speed></extensions></trkpt>
   <trkpt lat="59.0722084997" lon="29.9702685722"><ele>97.146</ele><time>2026-04-25T11:39:34.000Z</time><hdop>3.312</hdop><vdop>3.312</vdop><extensions><gom:speed>0.0</gom:speed></extensions></trkpt>
   <trkpt lat="59.0722084997" lon="29.9702685722"><ele>97.146</ele><time>2026-04-25T11:39:35.000Z</time><hdop>3.312</hdop><vdop>3.312</vdop><extensions><gom:speed>0.0</gom:speed></extensions></trkpt>
   <trkpt lat="59.0722084997" lon="29.9702685722"><ele>97.146</ele><time>2026-04-25T11:39:36.000Z</time><hdop>3.312</hdop><vdop>3.312</vdop><extensions><gom:speed>0.0</gom:speed></extensions></trkpt>
   <trkpt lat="59.0722084997" lon="29.9702685722"><ele>97.146</ele><time>2026-04-25T11:39:37.000Z</time><hdop>3.312</hdop><vdop>3.312</vdop><extensions><gom:speed>0.0</gom:speed></extensions></trkpt>
   <trkpt lat="59.0722084997" lon="29.9702685722"><ele>97.146</ele><time>2026-04-25T11:39:38.000Z</time><hdop>3.312</hdop><vdop>3.312</vdop><extensions><gom:speed>0.0</gom:speed></extensions></trkpt>
   <trkpt lat="59.0722084997" lon="29.9702685722"><ele>97.146</ele><time>2026-04-25T11:39:39.000Z</time><hdop>3.312</hdop><vdop>3.312</vdop><extensions><gom:speed>0.0</gom:speed></extensions></trkpt>
   <trkpt lat="59.0722084997" lon="29.9702685722"><ele>97.146</ele><time>2026-04-25T11:39:40.000Z</time><hdop>3.312</hdop><vdop>3.312</vdop><extensions><gom:speed>0.0</gom:speed></extensions></trkpt>
   <trkpt lat="59.0722084997" lon="29.9702685722"><ele>97.146</ele><time>2026-04-25T11:39:41.000Z</time><hdop>3.312</hdop><vdop>3.312</vdop><extensions><gom:speed>0.0</gom:speed></extensions></trkpt>
   <trkpt lat="59.0722084997" lon="29.9702685722"><ele>97.146</ele><time>2026-04-25T11:39:42.000Z</time><hdop>3.312</hdop><vdop>3.312</vdop><extensions><gom:speed>0.0</gom:speed></extensions></trkpt>
   <trkpt lat="59.0722017523" lon="29.9702691589"><ele>97.072</ele><time>2026-04-25T11:39:43.000Z</time><hdop>3.562</hdop><vdop>3.562</vdop><extensions><gom:speed>0.356</gom:speed></extensions></trkpt>
   <trkpt lat="59.0721931189" lon="29.9702704162"><ele>96.932</ele><time>2026-04-25T11:39:44.000Z</time><hdop>3.562</hdop><vdop>3.562</vdop><extensions><gom:speed>0.383</gom:speed></extensions></trkpt>
   <trkpt lat="59.0721831026" lon="29.9702720926"><ele>96.79</ele><time>2026-04-25T11:39:45.000Z</time><hdop>3.562</hdop><vdop>3.562</vdop><extensions><gom:speed>0.531</gom:speed></extensions></trkpt>
   <trkpt lat="59.0721693982" lon="29.970275613"><ele>96.556</ele><time>2026-04-25T11:39:46.000Z</time><hdop>3.5</hdop><vdop>3.5</vdop><extensions><gom:speed>0.768</gom:speed></extensions></trkpt>
   <trkpt lat="59.0721592141" lon="29.9702761997"><ele>96.374</ele><time>2026-04-25T11:39:47.000Z</time><hdop>3.5</hdop><vdop>3.5</vdop><extensions><gom:speed>0.62</gom:speed></extensions></trkpt>
   <trkpt lat="59.0721498264" lon="29.9702777084"><ele>96.227</ele><time>2026-04-25T11:39:48.000Z</time><hdop>3.437</hdop><vdop>3.437</vdop><extensions><gom:speed>0.498</gom:speed></extensions></trkpt>
   <trkpt lat="59.0721414864" lon="29.9702755291"><ele>96.142</ele><time>2026-04-25T11:39:49.000Z</time><hdop>3.562</hdop><vdop>3.562</vdop><extensions><gom:speed>0.476</gom:speed></extensions></trkpt>
   <trkpt lat="59.0721414864" lon="29.9702755291"><ele>96.091</ele><time>2026-04-25T11:39:50.000Z</time><hdop>3.562</hdop><vdop>3.562</vdop><extensions><gom:speed>0.0</gom:speed></extensions></trkpt>
   <trkpt lat="59.0721414864" lon="29.9702755291"><ele>96.061</ele><time>2026-04-25T11:39:51.000Z</time><hdop>3.562</hdop><vdop>3.562</vdop><extensions><gom:speed>0.0</gom:speed></extensions></trkpt>
   <trkpt lat="59.0721285364" lon="29.9702770379"><ele>95.924</ele><time>2026-04-25T11:39:52.000Z</time><hdop>3.687</hdop><vdop>3.687</vdop><extensions><gom:speed>0.675</gom:speed></extensions></trkpt>
   <trkpt lat="59.0721285364" lon="29.9702770379"><ele>95.842</ele><time>2026-04-25T11:39:53.000Z</time><hdop>3.687</hdop><vdop>3.687</vdop><extensions><gom:speed>0.0</gom:speed></extensions></trkpt>
   <trkpt lat="59.0721285364" lon="29.9702770379"><ele>95.792</ele><time>2026-04-25T11:39:53.000Z</time><hdop>3.687</hdop><vdop>3.687</vdop><extensions><gom:speed>0.0</gom:speed></extensions></trkpt>
   <trkpt lat="59.0721205736" lon="29.9702794686"><ele>95.765</ele><time>2026-04-25T11:39:54.000Z</time><hdop>3.75</hdop><vdop>3.75</vdop><extensions><gom:speed>0.479</gom:speed></extensions></trkpt>
   <trkpt lat="59.0721085874" lon="29.970282989"><ele>95.793</ele><time>2026-04-25T11:39:55.000Z</time><hdop>3.562</hdop><vdop>3.562</vdop><extensions><gom:speed>0.732</gom:speed></extensions></trkpt>
   <trkpt lat="59.072097691" lon="29.9702788819"><ele>95.814</ele><time>2026-04-25T11:39:56.000Z</time><hdop>3.75</hdop><vdop>3.75</vdop><extensions><gom:speed>0.774</gom:speed></extensions></trkpt>
   <trkpt lat="59.0720849086" lon="29.9702782113"><ele>95.792</ele><time>2026-04-25T11:39:57.000Z</time><hdop>3.812</hdop><vdop>3.812</vdop><extensions><gom:speed>0.679</gom:speed></extensions></trkpt>
   <trkpt lat="59.0720698211" lon="29.9702795525"><ele>95.781</ele><time>2026-04-25T11:39:58.000Z</time><hdop>4.0</hdop><vdop>4.0</vdop><extensions><gom:speed>0.737</gom:speed></extensions></trkpt>
   <trkpt lat="59.0720543565" lon="29.9702744395"><ele>95.813</ele><time>2026-04-25T11:39:59.000Z</time><hdop>3.75</hdop><vdop>3.75</vdop><extensions><gom:speed>0.881</gom:speed></extensions></trkpt>
   <trkpt lat="59.0720479025" lon="29.9702648003"><ele>95.802</ele><time>2026-04-25T11:40:00.000Z</time><hdop>3.875</hdop><vdop>3.875</vdop><extensions><gom:speed>0.446</gom:speed></extensions></trkpt>
   <trkpt lat="59.0720479025" lon="29.9702648003"><ele>95.796</ele><time>2026-04-25T11:40:01.000Z</time><hdop>3.875</hdop><vdop>3.875</vdop><extensions><gom:speed>0.0</gom:speed></extensions></trkpt>
   <trkpt lat="59.0720479025" lon="29.9702648003"><ele>95.793</ele><time>2026-04-25T11:40:02.000Z</time><hdop>3.875</hdop><vdop>3.875</vdop><extensions><gom:speed>0.0</gom:speed></extensions></trkpt>
   <trkpt lat="59.0720479025" lon="29.9702648003"><ele>95.791</ele><time>2026-04-25T11:40:03.000Z</time><hdop>3.875</hdop><vdop>3.875</vdop><extensions><gom:speed>0.0</gom:speed></extensions></trkpt>
   <trkpt lat="59.0720393529" lon="29.9702602741"><ele>95.708</ele><time>2026-04-25T11:40:04.000Z</time><hdop>3.812</hdop><vdop>3.812</vdop><extensions><gom:speed>0.238</gom:speed></extensions></trkpt>
   <trkpt lat="59.0720324798" lon="29.9702454381"><ele>95.552</ele><time>2026-04-25T11:40:05.000Z</time><hdop>4.0</hdop><vdop>4.0</vdop><extensions><gom:speed>0.503</gom:speed></extensions></trkpt>
   <trkpt lat="59.0720270734" lon="29.9702277523"><ele>95.366</ele><time>2026-04-25T11:40:06.000Z</time><hdop>4.0</hdop><vdop>4.0</vdop><extensions><gom:speed>0.808</gom:speed></extensions></trkpt>
   <trkpt lat="59.0720233854" lon="29.9702139221"><ele>95.179</ele><time>2026-04-25T11:40:07.000Z</time><hdop>4.125</hdop><vdop>4.125</vdop><extensions><gom:speed>0.547</gom:speed></extensions></trkpt>
   <trkpt lat="59.072014794" lon="29.9702006787"><ele>95.043</ele><time>2026-04-25T11:40:08.000Z</time><hdop>3.75</hdop><vdop>3.75</vdop><extensions><gom:speed>0.344</gom:speed></extensions></trkpt>
   <trkpt lat="59.0720044004" lon="29.9701948114"><ele>94.935</ele><time>2026-04-25T11:40:09.000Z</time><hdop>3.437</hdop><vdop>3.437</vdop><extensions><gom:speed>0.257</gom:speed></extensions></trkpt>
   <trkpt lat="59.0720044004" lon="29.9701948114"><ele>94.87</ele><time>2026-04-25T11:40:10.000Z</time><hdop>3.437</hdop><vdop>3.437</vdop><extensions><gom:speed>0.0</gom:speed></extensions></trkpt>
   <trkpt lat="59.0720044004" lon="29.9701948114"><ele>94.832</ele><time>2026-04-25T11:40:11.000Z</time><hdop>3.437</hdop><vdop>3.437</vdop><extensions><gom:speed>0.0</gom:speed></extensions></trkpt>
   <trkpt lat="59.0720044004" lon="29.9701948114"><ele>94.809</ele><time>2026-04-25T11:40:12.000Z</time><hdop>3.437</hdop><vdop>3.437</vdop><extensions><gom:speed>0.0</gom:speed></extensions></trkpt>
   <trkpt lat="59.0720044004" lon="29.9701948114"><ele>94.795</ele><time>2026-04-25T11:40:13.000Z</time><hdop>3.437</hdop><vdop>3.437</vdop><extensions><gom:speed>0.0</gom:speed></extensions></trkpt>
   <trkpt lat="59.0720044004" lon="29.9701948114"><ele>94.787</ele><time>2026-04-25T11:40:13.000Z</time><hdop>3.437</hdop><vdop>3.437</vdop><extensions><gom:speed>0.0</gom:speed></extensions></trkpt>
   <trkpt lat="59.072001802" lon="29.9701984994"><ele>94.809</ele><time>2026-04-25T11:40:14.000Z</time><hdop>3.375</hdop><vdop>3.375</vdop><extensions><gom:speed>0.251</gom:speed></extensions></trkpt>
   <trkpt lat="59.071996228" lon="29.9702026066"><ele>94.812</ele><time>2026-04-25T11:40:15.000Z</time><hdop>3.0</hdop><vdop>3.0</vdop><extensions><gom:speed>0.406</gom:speed></extensions></trkpt>
   <trkpt lat="59.0719904864" lon="29.9702043668"><ele>94.789</ele><time>2026-04-25T11:40:16.000Z</time><hdop>3.0</hdop><vdop>3.0</vdop><extensions><gom:speed>0.475</gom:speed></extensions></trkpt>
   <trkpt lat="59.0719841162" lon="29.9702013493"><ele>94.75</ele><time>2026-04-25T11:40:17.000Z</time><hdop>3.0</hdop><vdop>3.0</vdop><extensions><gom:speed>0.516</gom:speed></extensions></trkpt>
   <trkpt lat="59.0719792966" lon="29.9701965716"><ele>94.708</ele><time>2026-04-25T11:40:18.000Z</time><hdop>3.0</hdop><vdop>3.0</vdop><extensions><gom:speed>0.403</gom:speed></extensions></trkpt>
   <trkpt lat="59.071978668" lon="29.970185256"><ele>94.685</ele><time>2026-04-25T11:40:19.000Z</time><hdop>3.0</hdop><vdop>3.0</vdop><extensions><gom:speed>0.612</gom:speed></extensions></trkpt>
   <trkpt lat="59.0719746446" lon="29.9701710906"><ele>94.536</ele><time>2026-04-25T11:40:20.000Z</time><hdop>3.0</hdop><vdop>3.0</vdop><extensions><gom:speed>0.451</gom:speed></extensions></trkpt>
   <trkpt lat="59.0719713338" lon="29.9701592721"><ele>94.517</ele><time>2026-04-25T11:40:21.000Z</time><hdop>3.0</hdop><vdop>3.0</vdop><extensions><gom:speed>0.492</gom:speed></extensions></trkpt>
   <trkpt lat="59.0719642092" lon="29.9701457773"><ele>94.407</ele><time>2026-04-25T11:40:22.000Z</time><hdop>3.0</hdop><vdop>3.0</vdop><extensions><gom:speed>0.44</gom:speed></extensions></trkpt>
   <trkpt lat="59.0719642092" lon="29.9701457773"><ele>94.341</ele><time>2026-04-25T11:40:22.000Z</time><hdop>3.0</hdop><vdop>3.0</vdop><extensions><gom:speed>0.44</gom:speed></extensions></trkpt>
   <trkpt lat="59.0719614431" lon="29.9701353837"><ele>94.294</ele><time>2026-04-25T11:40:23.000Z</time><hdop>3.812</hdop><vdop>3.812</vdop><extensions><gom:speed>0.477</gom:speed></extensions></trkpt>
   <trkpt lat="59.0719592219" lon="29.9701251578"><ele>94.289</ele><time>2026-04-25T11:40:24.000Z</time><hdop>3.562</hdop><vdop>3.562</vdop><extensions><gom:speed>0.518</gom:speed></extensions></trkpt>
   <trkpt lat="59.0719592219" lon="29.9701251578"><ele>94.286</ele><time>2026-04-25T11:40:24.000Z</time><hdop>3.562</hdop><vdop>3.562</vdop><extensions><gom:speed>0.518</gom:speed></extensions></trkpt>
   <trkpt lat="59.0719590962" lon="29.9701117467"><ele>94.292</ele><time>2026-04-25T11:40:25.000Z</time><hdop>3.375</hdop><vdop>3.375</vdop><extensions><gom:speed>0.671</gom:speed></extensions></trkpt>
   <trkpt lat="59.071961024" lon="29.9700958211"><ele>94.274</ele><time>2026-04-25T11:40:26.000Z</time><hdop>3.5</hdop><vdop>3.5</vdop><extensions><gom:speed>0.643</gom:speed></extensions></trkpt>
   <trkpt lat="59.0719623651" lon="29.9700827454"><ele>94.326</ele><time>2026-04-25T11:40:27.000Z</time><hdop>3.812</hdop><vdop>3.812</vdop><extensions><gom:speed>0.347</gom:speed></extensions></trkpt>
   <trkpt lat="59.0719534803" lon="29.9700572644"><ele>94.596</ele><time>2026-04-25T11:40:28.000Z</time><hdop>3.812</hdop><vdop>3.812</vdop><extensions><gom:speed>0.437</gom:speed></extensions></trkpt>
   <trkpt lat="59.0719461462" lon="29.9700373993"><ele>94.831</ele><time>2026-04-25T11:40:29.000Z</time><hdop>3.812</hdop><vdop>3.812</vdop><extensions><gom:speed>0.491</gom:speed></extensions></trkpt>
   <trkpt lat="59.0719442602" lon="29.9700227309"><ele>94.909</ele><time>2026-04-25T11:40:30.000Z</time><hdop>3.812</hdop><vdop>3.812</vdop><extensions><gom:speed>0.33</gom:speed></extensions></trkpt>
   <trkpt lat="59.0719427096" lon="29.9700110801"><ele>95.085</ele><time>2026-04-25T11:40:31.000Z</time><hdop>3.562</hdop><vdop>3.562</vdop><extensions><gom:speed>0.171</gom:speed></extensions></trkpt>
   <trkpt lat="59.071943003" lon="29.9700061348"><ele>95.269</ele><time>2026-04-25T11:40:32.000Z</time><hdop>4.25</hdop><vdop>4.25</vdop><extensions><gom:speed>0.206</gom:speed></extensions></trkpt>
   <trkpt lat="59.071943003" lon="29.9700061348"><ele>95.38</ele><time>2026-04-25T11:40:33.000Z</time><hdop>4.25</hdop><vdop>4.25</vdop><extensions><gom:speed>0.0</gom:speed></extensions></trkpt>
   <trkpt lat="59.071943003" lon="29.9700061348"><ele>95.446</ele><time>2026-04-25T11:40:34.000Z</time><hdop>4.25</hdop><vdop>4.25</vdop><extensions><gom:speed>0.0</gom:speed></extensions></trkpt>
   <trkpt lat="59.071943003" lon="29.9700061348"><ele>95.485</ele><time>2026-04-25T11:40:35.000Z</time><hdop>4.25</hdop><vdop>4.25</vdop><extensions><gom:speed>0.0</gom:speed></extensions></trkpt>
   <trkpt lat="59.071943003" lon="29.9700061348"><ele>95.509</ele><time>2026-04-25T11:40:36.000Z</time><hdop>4.25</hdop><vdop>4.25</vdop><extensions><gom:speed>0.0</gom:speed></extensions></trkpt>
   <trkpt lat="59.071943003" lon="29.9700061348"><ele>95.523</ele><time>2026-04-25T11:40:37.000Z</time><hdop>4.25</hdop><vdop>4.25</vdop><extensions><gom:speed>0.0</gom:speed></extensions></trkpt>
   <trkpt lat="59.071943003" lon="29.9700061348"><ele>95.531</ele><time>2026-04-25T11:40:38.000Z</time><hdop>4.25</hdop><vdop>4.25</vdop><extensions><gom:speed>0.0</gom:speed></extensions></trkpt>
   <trkpt lat="59.071943003" lon="29.9700061348"><ele>95.536</ele><time>2026-04-25T11:40:39.000Z</time><hdop>4.25</hdop><vdop>4.25</vdop><extensions><gom:speed>0.0</gom:speed></extensions></trkpt>
   <trkpt lat="59.071943003" lon="29.9700061348"><ele>95.539</ele><time>2026-04-25T11:40:40.000Z</time><hdop>4.25</hdop><vdop>4.25</vdop><extensions><gom:speed>0.0</gom:speed></extensions></trkpt>
   <trkpt lat="59.071943003" lon="29.9700061348"><ele>95.541</ele><time>2026-04-25T11:40:41.000Z</time><hdop>4.25</hdop><vdop>4.25</vdop><extensions><gom:speed>0.0</gom:speed></extensions></trkpt>
   <trkpt lat="59.071942039" lon="29.9699918855"><ele>95.764</ele><time>2026-04-25T11:40:42.000Z</time><hdop>4.187</hdop><vdop>4.187</vdop><extensions><gom:speed>0.187</gom:speed></extensions></trkpt>
   <trkpt lat="59.0719409494" lon="29.96998057"><ele>95.973</ele><time>2026-04-25T11:40:43.000Z</time><hdop>3.937</hdop><vdop>3.937</vdop><extensions><gom:speed>0.196</gom:speed></extensions></trkpt>
   <trkpt lat="59.0719414523" lon="29.9699733615"><ele>96.15</ele><time>2026-04-25T11:40:44.000Z</time><hdop>4.25</hdop><vdop>4.25</vdop><extensions><gom:speed>0.251</gom:speed></extensions></trkpt>
   <trkpt lat="59.0719418714" lon="29.9699636385"><ele>96.34</ele><time>2026-04-25T11:40:45.000Z</time><hdop>4.625</hdop><vdop>4.625</vdop><extensions><gom:speed>0.434</gom:speed></extensions></trkpt>
   <trkpt lat="59.0719429191" lon="29.9699524068"><ele>96.511</ele><time>2026-04-25T11:40:46.000Z</time><hdop>4.5</hdop><vdop>4.5</vdop><extensions><gom:speed>0.542</gom:speed></extensions></trkpt>
   <trkpt lat="59.0719453499" lon="29.9699401692"><ele>96.652</ele><time>2026-04-25T11:40:47.000Z</time><hdop>4.25</hdop><vdop>4.25</vdop><extensions><gom:speed>0.555</gom:speed></extensions></trkpt>
   <trkpt lat="59.0719464395" lon="29.9699291051"><ele>96.79</ele><time>2026-04-25T11:40:48.000Z</time><hdop>4.125</hdop><vdop>4.125</vdop><extensions><gom:speed>0.405</gom:speed></extensions></trkpt>
   <trkpt lat="59.0719461043" lon="29.9699162808"><ele>96.97</ele><time>2026-04-25T11:40:49.000Z</time><hdop>3.875</hdop><vdop>3.875</vdop><extensions><gom:speed>0.475</gom:speed></extensions></trkpt>
   <trkpt lat="59.0719483255" lon="29.9699066416"><ele>97.145</ele><time>2026-04-25T11:40:50.000Z</time><hdop>3.562</hdop><vdop>3.562</vdop><extensions><gom:speed>0.41</gom:speed></extensions></trkpt>
   <trkpt lat="59.0719489541" lon="29.9698974215"><ele>97.311</ele><time>2026-04-25T11:40:51.000Z</time><hdop>3.375</hdop><vdop>3.375</vdop><extensions><gom:speed>0.272</gom:speed></extensions></trkpt>
   <trkpt lat="59.0719481997" lon="29.9698910512"><ele>97.382</ele><time>2026-04-25T11:40:52.000Z</time><hdop>3.0</hdop><vdop>3.0</vdop><extensions><gom:speed>0.109</gom:speed></extensions></trkpt>
   <trkpt lat="59.0719481997" lon="29.9698910512"><ele>97.424</ele><time>2026-04-25T11:40:53.000Z</time><hdop>3.0</hdop><vdop>3.0</vdop><extensions><gom:speed>0.0</gom:speed></extensions></trkpt>
   <trkpt lat="59.0719481997" lon="29.9698910512"><ele>97.449</ele><time>2026-04-25T11:40:53.000Z</time><hdop>3.0</hdop><vdop>3.0</vdop><extensions><gom:speed>0.0</gom:speed></extensions></trkpt>
   <trkpt lat="59.0719481997" lon="29.9698910512"><ele>97.464</ele><time>2026-04-25T11:40:54.000Z</time><hdop>3.0</hdop><vdop>3.0</vdop><extensions><gom:speed>0.0</gom:speed></extensions></trkpt>
   <trkpt lat="59.0719481997" lon="29.9698910512"><ele>97.473</ele><time>2026-04-25T11:40:55.000Z</time><hdop>3.0</hdop><vdop>3.0</vdop><extensions><gom:speed>0.0</gom:speed></extensions></trkpt>
   <trkpt lat="59.0719481997" lon="29.9698910512"><ele>97.478</ele><time>2026-04-25T11:40:56.000Z</time><hdop>3.0</hdop><vdop>3.0</vdop><extensions><gom:speed>0.0</gom:speed></extensions></trkpt>
   <trkpt lat="59.0719481997" lon="29.9698910512"><ele>97.482</ele><time>2026-04-25T11:40:57.000Z</time><hdop>3.0</hdop><vdop>3.0</vdop><extensions><gom:speed>0.0</gom:speed></extensions></trkpt>
   <trkpt lat="59.0719462719" lon="29.9698803224"><ele>97.432</ele><time>2026-04-25T11:40:58.000Z</time><hdop>3.062</hdop><vdop>3.062</vdop><extensions><gom:speed>0.264</gom:speed></extensions></trkpt>
   <trkpt lat="59.0719462719" lon="29.9698803224"><ele>97.402</ele><time>2026-04-25T11:40:59.000Z</time><hdop>3.062</hdop><vdop>3.062</vdop><extensions><gom:speed>0.0</gom:speed></extensions></trkpt>
   <trkpt lat="59.0719462719" lon="29.9698803224"><ele>97.384</ele><time>2026-04-25T11:41:00.000Z</time><hdop>3.062</hdop><vdop>3.062</vdop><extensions><gom:speed>0.0</gom:speed></extensions></trkpt>
   <trkpt lat="59.0719427096" lon="29.9698702641"><ele>97.382</ele><time>2026-04-25T11:41:01.000Z</time><hdop>3.062</hdop><vdop>3.062</vdop><extensions><gom:speed>0.334</gom:speed></extensions></trkpt>
   <trkpt lat="59.071938812" lon="29.9698568531"><ele>97.395</ele><time>2026-04-25T11:41:02.000Z</time><hdop>3.125</hdop><vdop>3.125</vdop><extensions><gom:speed>0.356</gom:speed></extensions></trkpt>
   <trkpt lat="59.071934663" lon="29.9698378262"><ele>97.353</ele><time>2026-04-25T11:41:03.000Z</time><hdop>3.0</hdop><vdop>3.0</vdop><extensions><gom:speed>0.403</gom:speed></extensions></trkpt>
   <trkpt lat="59.0719357945" lon="29.969818464"><ele>97.412</ele><time>2026-04-25T11:41:04.000Z</time><hdop>3.125</hdop><vdop>3.125</vdop><extensions><gom:speed>0.412</gom:speed></extensions></trkpt>
   <trkpt lat="59.0719362555" lon="29.9698042985"><ele>97.347</ele><time>2026-04-25T11:41:05.000Z</time><hdop>3.062</hdop><vdop>3.062</vdop><extensions><gom:speed>0.222</gom:speed></extensions></trkpt>
   <trkpt lat="59.0719362555" lon="29.9698042985"><ele>97.308</ele><time>2026-04-25T11:41:06.000Z</time><hdop>3.062</hdop><vdop>3.062</vdop><extensions><gom:speed>0.0</gom:speed></extensions></trkpt>
   <trkpt lat="59.0719362555" lon="29.9698042985"><ele>97.284</ele><time>2026-04-25T11:41:07.000Z</time><hdop>3.062</hdop><vdop>3.062</vdop><extensions><gom:speed>0.0</gom:speed></extensions></trkpt>
   <trkpt lat="59.0719362555" lon="29.9698042985"><ele>97.27</ele><time>2026-04-25T11:41:08.000Z</time><hdop>3.062</hdop><vdop>3.062</vdop><extensions><gom:speed>0.0</gom:speed></extensions></trkpt>
   <trkpt lat="59.0719362555" lon="29.9698042985"><ele>97.262</ele><time>2026-04-25T11:41:09.000Z</time><hdop>3.062</hdop><vdop>3.062</vdop><extensions><gom:speed>0.0</gom:speed></extensions></trkpt>
   <trkpt lat="59.0719362555" lon="29.9698042985"><ele>97.257</ele><time>2026-04-25T11:41:10.000Z</time><hdop>3.062</hdop><vdop>3.062</vdop><extensions><gom:speed>0.0</gom:speed></extensions></trkpt>
   <trkpt lat="59.0719362555" lon="29.9698042985"><ele>97.254</ele><time>2026-04-25T11:41:11.000Z</time><hdop>3.062</hdop><vdop>3.062</vdop><extensions><gom:speed>0.0</gom:speed></extensions></trkpt>
   <trkpt lat="59.0719362555" lon="29.9698042985"><ele>97.252</ele><time>2026-04-25T11:41:12.000Z</time><hdop>3.062</hdop><vdop>3.062</vdop><extensions><gom:speed>0.0</gom:speed></extensions></trkpt>
   <trkpt lat="59.0719362555" lon="29.9698042985"><ele>97.251</ele><time>2026-04-25T11:41:13.000Z</time><hdop>3.062</hdop><vdop>3.062</vdop><extensions><gom:speed>0.0</gom:speed></extensions></trkpt>
   <trkpt lat="59.0719362555" lon="29.9698042985"><ele>97.251</ele><time>2026-04-25T11:41:13.000Z</time><hdop>3.062</hdop><vdop>3.062</vdop><extensions><gom:speed>0.0</gom:speed></extensions></trkpt>
   <trkpt lat="59.0719362555" lon="29.9698042985"><ele>97.25</ele><time>2026-04-25T11:41:14.000Z</time><hdop>3.062</hdop><vdop>3.062</vdop><extensions><gom:speed>0.0</gom:speed></extensions></trkpt>
   <trkpt lat="59.0719362555" lon="29.9698042985"><ele>97.25</ele><time>2026-04-25T11:41:15.000Z</time><hdop>3.062</hdop><vdop>3.062</vdop><extensions><gom:speed>0.0</gom:speed></extensions></trkpt>
   <trkpt lat="59.0719324418" lon="29.9697893788"><ele>97.107</ele><time>2026-04-25T11:41:16.000Z</time><hdop>3.062</hdop><vdop>3.062</vdop><extensions><gom:speed>0.326</gom:speed></extensions></trkpt>
   <trkpt lat="59.0719276641" lon="29.9697796557"><ele>97.023</ele><time>2026-04-25T11:41:17.000Z</time><hdop>3.0</hdop><vdop>3.0</vdop><extensions><gom:speed>0.353</gom:speed></extensions></trkpt>
   <trkpt lat="59.0719237665" lon="29.969759623"><ele>96.75</ele><time>2026-04-25T11:41:18.000Z</time><hdop>3.125</hdop><vdop>3.125</vdop><extensions><gom:speed>0.431</gom:speed></extensions></trkpt>
   <trkpt lat="59.0719220901" lon="29.9697495647"><ele>96.594</ele><time>2026-04-25T11:41:19.000Z</time><hdop>3.125</hdop><vdop>3.125</vdop><extensions><gom:speed>0.319</gom:speed></extensions></trkpt>
   <trkpt lat="59.0719220901" lon="29.9697495647"><ele>96.502</ele><time>2026-04-25T11:41:20.000Z</time><hdop>3.125</hdop><vdop>3.125</vdop><extensions><gom:speed>0.0</gom:speed></extensions></trkpt>
   <trkpt lat="59.071923515" lon="29.9697452899"><ele>96.463</ele><time>2026-04-25T11:41:21.000Z</time><hdop>3.062</hdop><vdop>3.062</vdop><extensions><gom:speed>0.107</gom:speed></extensions></trkpt>
   <trkpt lat="59.071923515" lon="29.9697452899"><ele>96.439</ele><time>2026-04-25T11:41:22.000Z</time><hdop>3.062</hdop><vdop>3.062</vdop><extensions><gom:speed>0.0</gom:speed></extensions></trkpt>
   <trkpt lat="59.071923515" lon="29.9697452899"><ele>96.425</ele><time>2026-04-25T11:41:23.000Z</time><hdop>3.062</hdop><vdop>3.062</vdop><extensions><gom:speed>0.0</gom:speed></extensions></trkpt>
   <trkpt lat="59.071923515" lon="29.9697452899"><ele>96.417</ele><time>2026-04-25T11:41:24.000Z</time><hdop>3.062</hdop><vdop>3.062</vdop><extensions><gom:speed>0.0</gom:speed></extensions></trkpt>
   <trkpt lat="59.071923515" lon="29.9697452899"><ele>96.412</ele><time>2026-04-25T11:41:25.000Z</time><hdop>3.062</hdop><vdop>3.062</vdop><extensions><gom:speed>0.0</gom:speed></extensions></trkpt>
   <trkpt lat="59.071923515" lon="29.9697452899"><ele>96.409</ele><time>2026-04-25T11:41:26.000Z</time><hdop>3.062</hdop><vdop>3.062</vdop><extensions><gom:speed>0.0</gom:speed></extensions></trkpt>
   <trkpt lat="59.071923515" lon="29.9697452899"><ele>96.407</ele><time>2026-04-25T11:41:27.000Z</time><hdop>3.062</hdop><vdop>3.062</vdop><extensions><gom:speed>0.0</gom:speed></extensions></trkpt>
   <trkpt lat="59.071923515" lon="29.9697452899"><ele>96.406</ele><time>2026-04-25T11:41:28.000Z</time><hdop>3.062</hdop><vdop>3.062</vdop><extensions><gom:speed>0.0</gom:speed></extensions></trkpt>
   <trkpt lat="59.071923515" lon="29.9697452899"><ele>96.406</ele><time>2026-04-25T11:41:29.000Z</time><hdop>3.062</hdop><vdop>3.062</vdop><extensions><gom:speed>0.0</gom:speed></extensions></trkpt>
   <trkpt lat="59.071923515" lon="29.9697452899"><ele>96.405</ele><time>2026-04-25T11:41:30.000Z</time><hdop>3.062</hdop><vdop>3.062</vdop><extensions><gom:speed>0.0</gom:speed></extensions></trkpt>
   <trkpt lat="59.071923515" lon="29.9697452899"><ele>96.405</ele><time>2026-04-25T11:41:31.000Z</time><hdop>3.062</hdop><vdop>3.062</vdop><extensions><gom:speed>0.0</gom:speed></extensions></trkpt>
   <trkpt lat="59.071923515" lon="29.9697452899"><ele>96.405</ele><time>2026-04-25T11:41:32.000Z</time><hdop>3.062</hdop><vdop>3.062</vdop><extensions><gom:speed>0.0</gom:speed></extensions></trkpt>
   <trkpt lat="59.071923515" lon="29.9697452899"><ele>96.405</ele><time>2026-04-25T11:41:33.000Z</time><hdop>3.062</hdop><vdop>3.062</vdop><extensions><gom:speed>0.0</gom:speed></extensions></trkpt>
   <trkpt lat="59.071923515" lon="29.9697452899"><ele>96.405</ele><time>2026-04-25T11:41:33.000Z</time><hdop>3.062</hdop><vdop>3.062</vdop><extensions><gom:speed>0.0</gom:speed></extensions></trkpt>
   <trkpt lat="59.071923515" lon="29.9697452899"><ele>96.405</ele><time>2026-04-25T11:41:34.000Z</time><hdop>3.062</hdop><vdop>3.062</vdop><extensions><gom:speed>0.0</gom:speed></extensions></trkpt>
   <trkpt lat="59.0719210424" lon="29.9697233294"><ele>96.54</ele><time>2026-04-25T11:41:35.000Z</time><hdop>3.437</hdop><vdop>3.437</vdop><extensions><gom:speed>0.312</gom:speed></extensions></trkpt>
   <trkpt lat="59.0719210424" lon="29.9697233294"><ele>96.62</ele><time>2026-04-25T11:41:36.000Z</time><hdop>3.437</hdop><vdop>3.437</vdop><extensions><gom:speed>0.0</gom:speed></extensions></trkpt>
   <trkpt lat="59.0719182763" lon="29.9697160371"><ele>96.71</ele><time>2026-04-25T11:41:37.000Z</time><hdop>3.562</hdop><vdop>3.562</vdop><extensions><gom:speed>0.282</gom:speed></extensions></trkpt>
   <trkpt lat="59.0719134148" lon="29.969708661"><ele>96.804</ele><time>2026-04-25T11:41:38.000Z</time><hdop>4.75</hdop><vdop>4.75</vdop><extensions><gom:speed>0.336</gom:speed></extensions></trkpt>
   <trkpt lat="59.0719099783" lon="29.9697027937"><ele>96.928</ele><time>2026-04-25T11:41:39.000Z</time><hdop>4.125</hdop><vdop>4.125</vdop><extensions><gom:speed>0.306</gom:speed></extensions></trkpt>
   <trkpt lat="59.0719062483" lon="29.9696982675"><ele>97.13</ele><time>2026-04-25T11:41:40.000Z</time><hdop>4.437</hdop><vdop>4.437</vdop><extensions><gom:speed>0.322</gom:speed></extensions></trkpt>
   <trkpt lat="59.071901764" lon="29.9696947471"><ele>97.393</ele><time>2026-04-25T11:41:41.000Z</time><hdop>4.687</hdop><vdop>4.687</vdop><extensions><gom:speed>0.324</gom:speed></extensions></trkpt>
   <trkpt lat="59.0718974473" lon="29.9696888797"><ele>97.646</ele><time>2026-04-25T11:41:42.000Z</time><hdop>4.687</hdop><vdop>4.687</vdop><extensions><gom:speed>0.462</gom:speed></extensions></trkpt>
   <trkpt lat="59.0718924182" lon="29.969682258"><ele>97.92</ele><time>2026-04-25T11:41:43.000Z</time><hdop>4.875</hdop><vdop>4.875</vdop><extensions><gom:speed>0.42</gom:speed></extensions></trkpt>
   <trkpt lat="59.0718924182" lon="29.969682258"><ele>98.083</ele><time>2026-04-25T11:41:44.000Z</time><hdop>4.875</hdop><vdop>4.875</vdop><extensions><gom:speed>0.0</gom:speed></extensions></trkpt>
   <trkpt lat="59.0718854612" lon="29.9696746305"><ele>98.34</ele><time>2026-04-25T11:41:45.000Z</time><hdop>4.687</hdop><vdop>4.687</vdop><extensions><gom:speed>0.335</gom:speed></extensions></trkpt>
   <trkpt lat="59.0718803901" lon="29.9696690146"><ele>98.575</ele><time>2026-04-25T11:41:46.000Z</time><hdop>4.687</hdop><vdop>4.687</vdop><extensions><gom:speed>0.375</gom:speed></extensions></trkpt>
   <trkpt lat="59.0718748581" lon="29.9696582858"><ele>98.811</ele><time>2026-04-25T11:41:47.000Z</time><hdop>4.875</hdop><vdop>4.875</vdop><extensions><gom:speed>0.241</gom:speed></extensions></trkpt>
   <trkpt lat="59.0718748581" lon="29.9696582858"><ele>98.953</ele><time>2026-04-25T11:41:48.000Z</time><hdop>4.875</hdop><vdop>4.875</vdop><extensions><gom:speed>0.0</gom:speed></extensions></trkpt>
   <trkpt lat="59.0718748581" lon="29.9696582858"><ele>99.037</ele><time>2026-04-25T11:41:49.000Z</time><hdop>4.875</hdop><vdop>4.875</vdop><extensions><gom:speed>0.0</gom:speed></extensions></trkpt>
   <trkpt lat="59.0718748581" lon="29.9696582858"><ele>99.088</ele><time>2026-04-25T11:41:50.000Z</time><hdop>4.875</hdop><vdop>4.875</vdop><extensions><gom:speed>0.0</gom:speed></extensions></trkpt>
   <trkpt lat="59.0718748581" lon="29.9696582858"><ele>99.118</ele><time>2026-04-25T11:41:51.000Z</time><hdop>4.875</hdop><vdop>4.875</vdop><extensions><gom:speed>0.0</gom:speed></extensions></trkpt>
   <trkpt lat="59.0718748581" lon="29.9696582858"><ele>99.136</ele><time>2026-04-25T11:41:52.000Z</time><hdop>4.875</hdop><vdop>4.875</vdop><extensions><gom:speed>0.0</gom:speed></extensions></trkpt>
   <trkpt lat="59.0718748581" lon="29.9696582858"><ele>99.147</ele><time>2026-04-25T11:41:53.000Z</time><hdop>4.875</hdop><vdop>4.875</vdop><extensions><gom:speed>0.0</gom:speed></extensions></trkpt>
   <trkpt lat="59.0718748581" lon="29.9696582858"><ele>99.153</ele><time>2026-04-25T11:41:53.000Z</time><hdop>4.875</hdop><vdop>4.875</vdop><extensions><gom:speed>0.0</gom:speed></extensions></trkpt>
   <trkpt lat="59.0718748581" lon="29.9696582858"><ele>99.157</ele><time>2026-04-25T11:41:54.000Z</time><hdop>4.875</hdop><vdop>4.875</vdop><extensions><gom:speed>0.0</gom:speed></extensions></trkpt>
   <trkpt lat="59.0718748581" lon="29.9696582858"><ele>99.159</ele><time>2026-04-25T11:41:55.000Z</time><hdop>4.875</hdop><vdop>4.875</vdop><extensions><gom:speed>0.0</gom:speed></extensions></trkpt>
   <trkpt lat="59.0718748581" lon="29.9696582858"><ele>99.161</ele><time>2026-04-25T11:41:56.000Z</time><hdop>4.875</hdop><vdop>4.875</vdop><extensions><gom:speed>0.0</gom:speed></extensions></trkpt>
   <trkpt lat="59.0718748581" lon="29.9696582858"><ele>99.161</ele><time>2026-04-25T11:41:57.000Z</time><hdop>4.875</hdop><vdop>4.875</vdop><extensions><gom:speed>0.0</gom:speed></extensions></trkpt>
   <trkpt lat="59.0718748581" lon="29.9696582858"><ele>99.162</ele><time>2026-04-25T11:41:58.000Z</time><hdop>4.875</hdop><vdop>4.875</vdop><extensions><gom:speed>0.0</gom:speed></extensions></trkpt>
   <trkpt lat="59.0718748581" lon="29.9696582858"><ele>99.162</ele><time>2026-04-25T11:41:59.000Z</time><hdop>4.875</hdop><vdop>4.875</vdop><extensions><gom:speed>0.0</gom:speed></extensions></trkpt>
   <trkpt lat="59.071868865" lon="29.9696543463"><ele>99.256</ele><time>2026-04-25T11:42:00.000Z</time><hdop>4.687</hdop><vdop>4.687</vdop><extensions><gom:speed>0.392</gom:speed></extensions></trkpt>
   <trkpt lat="59.071868865" lon="29.9696543463"><ele>99.312</ele><time>2026-04-25T11:42:01.000Z</time><hdop>4.875</hdop><vdop>4.875</vdop><extensions><gom:speed>0.0</gom:speed></extensions></trkpt>
   <trkpt lat="59.071868865" lon="29.9696543463"><ele>99.345</ele><time>2026-04-25T11:42:02.000Z</time><hdop>4.875</hdop><vdop>4.875</vdop><extensions><gom:speed>0.0</gom:speed></extensions></trkpt>
   <trkpt lat="59.0718627043" lon="29.9696478084"><ele>99.466</ele><time>2026-04-25T11:42:03.000Z</time><hdop>4.687</hdop><vdop>4.687</vdop><extensions><gom:speed>0.793</gom:speed></extensions></trkpt>
   <trkpt lat="59.0718537357" lon="29.9696408514"><ele>99.611</ele><time>2026-04-25T11:42:04.000Z</time><hdop>4.687</hdop><vdop>4.687</vdop><extensions><gom:speed>0.503</gom:speed></extensions></trkpt>
   <trkpt lat="59.0718455633" lon="29.9696372472"><ele>99.725</ele><time>2026-04-25T11:42:05.000Z</time><hdop>4.687</hdop><vdop>4.687</vdop><extensions><gom:speed>0.479</gom:speed></extensions></trkpt>
   <trkpt lat="59.0718350021" lon="29.9696354032"><ele>99.744</ele><time>2026-04-25T11:42:06.000Z</time><hdop>4.687</hdop><vdop>4.687</vdop><extensions><gom:speed>0.732</gom:speed></extensions></trkpt>
   <trkpt lat="59.0718237285" lon="29.969632721"><ele>99.818</ele><time>2026-04-25T11:42:07.000Z</time><hdop>4.687</hdop><vdop>4.687</vdop><extensions><gom:speed>0.789</gom:speed></extensions></trkpt>
   <trkpt lat="59.0718133349" lon="29.9696284462"><ele>99.895</ele><time>2026-04-25T11:42:08.000Z</time><hdop>4.687</hdop><vdop>4.687</vdop><extensions><gom:speed>0.696</gom:speed></extensions></trkpt>
   <trkpt lat="59.0718051206" lon="29.969620651"><ele>99.951</ele><time>2026-04-25T11:42:09.000Z</time><hdop>4.875</hdop><vdop>4.875</vdop><extensions><gom:speed>0.534</gom:speed></extensions></trkpt>
   <trkpt lat="59.0717941404" lon="29.9696117662"><ele>100.081</ele><time>2026-04-25T11:42:10.000Z</time><hdop>4.687</hdop><vdop>4.687</vdop><extensions><gom:speed>1.323</gom:speed></extensions></trkpt>
   <trkpt lat="59.0717827829" lon="29.9696038872"><ele>100.263</ele><time>2026-04-25T11:42:11.000Z</time><hdop>4.687</hdop><vdop>4.687</vdop><extensions><gom:speed>0.653</gom:speed></extensions></trkpt>
   <trkpt lat="59.0717753649" lon="29.9695952539"><ele>100.433</ele><time>2026-04-25T11:42:12.000Z</time><hdop>4.687</hdop><vdop>4.687</vdop><extensions><gom:speed>0.5</gom:speed></extensions></trkpt>
   <trkpt lat="59.0717706291" lon="29.9695857823"><ele>100.65</ele><time>2026-04-25T11:42:13.000Z</time><hdop>4.687</hdop><vdop>4.687</vdop><extensions><gom:speed>0.564</gom:speed></extensions></trkpt>
   <trkpt lat="59.0717706291" lon="29.9695857823"><ele>100.78</ele><time>2026-04-25T11:42:13.000Z</time><hdop>4.687</hdop><vdop>4.687</vdop><extensions><gom:speed>0.564</gom:speed></extensions></trkpt>
   <trkpt lat="59.0717645103" lon="29.9695793283"><ele>100.759</ele><time>2026-04-25T11:42:14.000Z</time><hdop>4.812</hdop><vdop>4.812</vdop><extensions><gom:speed>0.252</gom:speed></extensions></trkpt>
   <trkpt lat="59.0717571342" lon="29.9695685156"><ele>100.811</ele><time>2026-04-25T11:42:15.000Z</time><hdop>4.437</hdop><vdop>4.437</vdop><extensions><gom:speed>0.525</gom:speed></extensions></trkpt>
   <trkpt lat="59.0717488781" lon="29.9695628997"><ele>100.807</ele><time>2026-04-25T11:42:16.000Z</time><hdop>4.0</hdop><vdop>4.0</vdop><extensions><gom:speed>0.9</gom:speed></extensions></trkpt>
   <trkpt lat="59.0717397418" lon="29.9695618939"><ele>100.847</ele><time>2026-04-25T11:42:17.000Z</time><hdop>4.687</hdop><vdop>4.687</vdop><extensions><gom:speed>0.478</gom:speed></extensions></trkpt>
   <trkpt lat="59.0717321562" lon="29.9695642408"><ele>100.858</ele><time>2026-04-25T11:42:18.000Z</time><hdop>4.812</hdop><vdop>4.812</vdop><extensions><gom:speed>0.587</gom:speed></extensions></trkpt>
   <trkpt lat="59.0717219303" lon="29.9695642408"><ele>100.945</ele><time>2026-04-25T11:42:19.000Z</time><hdop>4.312</hdop><vdop>4.312</vdop><extensions><gom:speed>0.573</gom:speed></extensions></trkpt>
   <trkpt lat="59.0717171107" lon="29.9695676774"><ele>100.996</ele><time>2026-04-25T11:42:20.000Z</time><hdop>3.812</hdop><vdop>3.812</vdop><extensions><gom:speed>0.372</gom:speed></extensions></trkpt>
   <trkpt lat="59.0717171107" lon="29.9695676774"><ele>101.026</ele><time>2026-04-25T11:42:21.000Z</time><hdop>3.812</hdop><vdop>3.812</vdop><extensions><gom:speed>0.0</gom:speed></extensions></trkpt>
   <trkpt lat="59.0717171107" lon="29.9695676774"><ele>101.045</ele><time>2026-04-25T11:42:22.000Z</time><hdop>3.812</hdop><vdop>3.812</vdop><extensions><gom:speed>0.0</gom:speed></extensions></trkpt>
   <trkpt lat="59.0717111176" lon="29.9695655819"><ele>101.092</ele><time>2026-04-25T11:42:23.000Z</time><hdop>4.5</hdop><vdop>4.5</vdop><extensions><gom:speed>0.579</gom:speed></extensions></trkpt>
   <trkpt lat="59.0717055436" lon="29.969558122"><ele>101.1</ele><time>2026-04-25T11:42:24.000Z</time><hdop>4.0</hdop><vdop>4.0</vdop><extensions><gom:speed>0.561</gom:speed></extensions></trkpt>
   <trkpt lat="59.0716983352" lon="29.969547477"><ele>101.17</ele><time>2026-04-25T11:42:25.000Z</time><hdop>4.625</hdop><vdop>4.625</vdop><extensions><gom:speed>0.754</gom:speed></extensions></trkpt>
   <trkpt lat="59.0716908753" lon="29.9695326411"><ele>101.26</ele><time>2026-04-25T11:42:26.000Z</time><hdop>3.937</hdop><vdop>3.937</vdop><extensions><gom:speed>0.591</gom:speed></extensions></trkpt>
   <trkpt lat="59.0716833735" lon="29.9695229181"><ele>101.252</ele><time>2026-04-25T11:42:27.000Z</time><hdop>3.5</hdop><vdop>3.5</vdop><extensions><gom:speed>0.643</gom:speed></extensions></trkpt>
   <trkpt lat="59.0716746144" lon="29.9695175536"><ele>101.327</ele><time>2026-04-25T11:42:28.000Z</time><hdop>4.312</hdop><vdop>4.312</vdop><extensions><gom:speed>0.755</gom:speed></extensions></trkpt>
   <trkpt lat="59.0716654781" lon="29.9695112672"><ele>101.449</ele><time>2026-04-25T11:42:29.000Z</time><hdop>4.687</hdop><vdop>4.687</vdop><extensions><gom:speed>0.534</gom:speed></extensions></trkpt>
   <trkpt lat="59.071659988" lon="29.9695017957"><ele>101.503</ele><time>2026-04-25T11:42:30.000Z</time><hdop>4.687</hdop><vdop>4.687</vdop><extensions><gom:speed>0.544</gom:speed></extensions></trkpt>
   <trkpt lat="59.0716546236" lon="29.9694884684"><ele>101.549</ele><time>2026-04-25T11:42:31.000Z</time><hdop>4.687</hdop><vdop>4.687</vdop><extensions><gom:speed>0.729</gom:speed></extensions></trkpt>
   <trkpt lat="59.0716485467" lon="29.9694767338"><ele>101.604</ele><time>2026-04-25T11:42:32.000Z</time><hdop>4.875</hdop><vdop>4.875</vdop><extensions><gom:speed>0.481</gom:speed></extensions></trkpt>
   <trkpt lat="59.0716432661" lon="29.9694680166"><ele>101.66</ele><time>2026-04-25T11:42:33.000Z</time><hdop>4.875</hdop><vdop>4.875</vdop><extensions><gom:speed>0.29</gom:speed></extensions></trkpt>
   <trkpt lat="59.0716432661" lon="29.9694680166"><ele>101.693</ele><time>2026-04-25T11:42:33.000Z</time><hdop>4.875</hdop><vdop>4.875</vdop><extensions><gom:speed>0.29</gom:speed></extensions></trkpt>
   <trkpt lat="59.0716416735" lon="29.9694629036"><ele>101.776</ele><time>2026-04-25T11:42:34.000Z</time><hdop>4.875</hdop><vdop>4.875</vdop><extensions><gom:speed>0.163</gom:speed></extensions></trkpt>
   <trkpt lat="59.0716416735" lon="29.9694629036"><ele>101.827</ele><time>2026-04-25T11:42:35.000Z</time><hdop>4.875</hdop><vdop>4.875</vdop><extensions><gom:speed>0.0</gom:speed></extensions></trkpt>
   <trkpt lat="59.0716416735" lon="29.9694629036"><ele>101.856</ele><time>2026-04-25T11:42:36.000Z</time><hdop>4.875</hdop><vdop>4.875</vdop><extensions><gom:speed>0.0</gom:speed></extensions></trkpt>
   <trkpt lat="59.0716416735" lon="29.9694629036"><ele>101.874</ele><time>2026-04-25T11:42:37.000Z</time><hdop>4.875</hdop><vdop>4.875</vdop><extensions><gom:speed>0.0</gom:speed></extensions></trkpt>
   <trkpt lat="59.071638656" lon="29.9694559466"><ele>101.887</ele><time>2026-04-25T11:42:38.000Z</time><hdop>4.687</hdop><vdop>4.687</vdop><extensions><gom:speed>0.204</gom:speed></extensions></trkpt>
   <trkpt lat="59.0716339622" lon="29.9694474809"><ele>101.888</ele><time>2026-04-25T11:42:39.000Z</time><hdop>4.687</hdop><vdop>4.687</vdop><extensions><gom:speed>0.409</gom:speed></extensions></trkpt>
   <trkpt lat="59.0716291426" lon="29.9694377579"><ele>101.837</ele><time>2026-04-25T11:42:40.000Z</time><hdop>4.687</hdop><vdop>4.687</vdop><extensions><gom:speed>0.489</gom:speed></extensions></trkpt>
   <trkpt lat="59.0716236105" lon="29.9694281187"><ele>101.784</ele><time>2026-04-25T11:42:41.000Z</time><hdop>4.687</hdop><vdop>4.687</vdop><extensions><gom:speed>0.464</gom:speed></extensions></trkpt>
   <trkpt lat="59.0716192939" lon="29.9694176413"><ele>101.798</ele><time>2026-04-25T11:42:42.000Z</time><hdop>4.687</hdop><vdop>4.687</vdop><extensions><gom:speed>0.397</gom:speed></extensions></trkpt>
   <trkpt lat="59.0716143904" lon="29.9694069963"><ele>101.821</ele><time>2026-04-25T11:42:43.000Z</time><hdop>4.5</hdop><vdop>4.5</vdop><extensions><gom:speed>0.545</gom:speed></extensions></trkpt>
   <trkpt lat="59.0716098223" lon="29.969394172"><ele>101.856</ele><time>2026-04-25T11:42:44.000Z</time><hdop>4.687</hdop><vdop>4.687</vdop><extensions><gom:speed>0.456</gom:speed></extensions></trkpt>
   <trkpt lat="59.0716087327" lon="29.9693805095"><ele>101.882</ele><time>2026-04-25T11:42:45.000Z</time><hdop>4.687</hdop><vdop>4.687</vdop><extensions><gom:speed>0.47</gom:speed></extensions></trkpt>
   <trkpt lat="59.0716077268" lon="29.9693641648"><ele>101.927</ele><time>2026-04-25T11:42:46.000Z</time><hdop>4.687</hdop><vdop>4.687</vdop><extensions><gom:speed>0.511</gom:speed></extensions></trkpt>
   <trkpt lat="59.0716088165" lon="29.9693473172"><ele>101.848</ele><time>2026-04-25T11:42:47.000Z</time><hdop>4.687</hdop><vdop>4.687</vdop><extensions><gom:speed>0.572</gom:speed></extensions></trkpt>
   <trkpt lat="59.0716119178" lon="29.9693380971"><ele>101.762</ele><time>2026-04-25T11:42:48.000Z</time><hdop>4.875</hdop><vdop>4.875</vdop><extensions><gom:speed>0.409</gom:speed></extensions></trkpt>
   <trkpt lat="59.0716058409" lon="29.9693230935"><ele>101.804</ele><time>2026-04-25T11:42:49.000Z</time><hdop>4.562</hdop><vdop>4.562</vdop><extensions><gom:speed>0.371</gom:speed></extensions></trkpt>
   <trkpt lat="59.0716030749" lon="29.9693123646"><ele>101.848</ele><time>2026-04-25T11:42:50.000Z</time><hdop>4.375</hdop><vdop>4.375</vdop><extensions><gom:speed>0.168</gom:speed></extensions></trkpt>
   <trkpt lat="59.0716004765" lon="29.9693008814"><ele>101.961</ele><time>2026-04-25T11:42:51.000Z</time><hdop>4.125</hdop><vdop>4.125</vdop><extensions><gom:speed>0.146</gom:speed></extensions></trkpt>
   <trkpt lat="59.071597459" lon="29.9692910746"><ele>102.082</ele><time>2026-04-25T11:42:52.000Z</time><hdop>3.812</hdop><vdop>3.812</vdop><extensions><gom:speed>0.241</gom:speed></extensions></trkpt>
   <trkpt lat="59.0715984648" lon="29.9692774959"><ele>102.156</ele><time>2026-04-25T11:42:53.000Z</time><hdop>3.875</hdop><vdop>3.875</vdop><extensions><gom:speed>0.71</gom:speed></extensions></trkpt>
   <trkpt lat="59.0715984648" lon="29.9692774959"><ele>102.2</ele><time>2026-04-25T11:42:53.000Z</time><hdop>3.875</hdop><vdop>3.875</vdop><extensions><gom:speed>0.71</gom:speed></extensions></trkpt>
   <trkpt lat="59.0715983391" lon="29.9692601454"><ele>102.197</ele><time>2026-04-25T11:42:54.000Z</time><hdop>3.937</hdop><vdop>3.937</vdop><extensions><gom:speed>0.539</gom:speed></extensions></trkpt>
   <trkpt lat="59.0715977943" lon="29.9692422081"><ele>102.141</ele><time>2026-04-25T11:42:55.000Z</time><hdop>3.937</hdop><vdop>3.937</vdop><extensions><gom:speed>0.53</gom:speed></extensions></trkpt>
   <trkpt lat="59.0715983391" lon="29.9692315631"><ele>102.154</ele><time>2026-04-25T11:42:56.000Z</time><hdop>4.687</hdop><vdop>4.687</vdop><extensions><gom:speed>0.337</gom:speed></extensions></trkpt>
   <trkpt lat="59.0715969142" lon="29.9692118656"><ele>102.242</ele><time>2026-04-25T11:42:57.000Z</time><hdop>4.312</hdop><vdop>4.312</vdop><extensions><gom:speed>0.316</gom:speed></extensions></trkpt>
   <trkpt lat="59.0715959503" lon="29.9692026455"><ele>102.32</ele><time>2026-04-25T11:42:58.000Z</time><hdop>4.875</hdop><vdop>4.875</vdop><extensions><gom:speed>0.266</gom:speed></extensions></trkpt>
   <trkpt lat="59.0715928489" lon="29.9691854626"><ele>102.437</ele><time>2026-04-25T11:42:59.000Z</time><hdop>4.625</hdop><vdop>4.625</vdop><extensions><gom:speed>0.242</gom:speed></extensions></trkpt>
   <trkpt lat="59.0715928489" lon="29.9691854626"><ele>102.507</ele><time>2026-04-25T11:43:00.000Z</time><hdop>4.625</hdop><vdop>4.625</vdop><extensions><gom:speed>0.0</gom:speed></extensions></trkpt>
   <trkpt lat="59.0715892447" lon="29.969171381"><ele>102.541</ele><time>2026-04-25T11:43:01.000Z</time><hdop>4.625</hdop><vdop>4.625</vdop><extensions><gom:speed>0.279</gom:speed></extensions></trkpt>
   <trkpt lat="59.071582162" lon="29.9691583053"><ele>102.605</ele><time>2026-04-25T11:43:02.000Z</time><hdop>4.812</hdop><vdop>4.812</vdop><extensions><gom:speed>0.4</gom:speed></extensions></trkpt>
   <trkpt lat="59.0715777615" lon="29.9691411224"><ele>102.68</ele><time>2026-04-25T11:43:03.000Z</time><hdop>4.5</hdop><vdop>4.5</vdop><extensions><gom:speed>0.385</gom:speed></extensions></trkpt>
   <trkpt lat="59.0715771329" lon="29.9691236042"><ele>102.761</ele><time>2026-04-25T11:43:04.000Z</time><hdop>4.375</hdop><vdop>4.375</vdop><extensions><gom:speed>0.432</gom:speed></extensions></trkpt>
   <trkpt lat="59.0715779711" lon="29.9691106122"><ele>102.812</ele><time>2026-04-25T11:43:05.000Z</time><hdop>3.937</hdop><vdop>3.937</vdop><extensions><gom:speed>0.457</gom:speed></extensions></trkpt>
   <trkpt lat="59.0715788512" lon="29.9690976203"><ele>102.894</ele><time>2026-04-25T11:43:06.000Z</time><hdop>3.437</hdop><vdop>3.437</vdop><extensions><gom:speed>0.411</gom:speed></extensions></trkpt>
   <trkpt lat="59.071578474" lon="29.9690843769"><ele>102.968</ele><time>2026-04-25T11:43:07.000Z</time><hdop>3.25</hdop><vdop>3.25</vdop><extensions><gom:speed>0.351</gom:speed></extensions></trkpt>
   <trkpt lat="59.071578013" lon="29.9690739833"><ele>103.082</ele><time>2026-04-25T11:43:08.000Z</time><hdop>4.062</hdop><vdop>4.062</vdop><extensions><gom:speed>0.361</gom:speed></extensions></trkpt>
   <trkpt lat="59.0715775939" lon="29.9690632545"><ele>103.191</ele><time>2026-04-25T11:43:09.000Z</time><hdop>4.75</hdop><vdop>4.75</vdop><extensions><gom:speed>0.369</gom:speed></extensions></trkpt>
   <trkpt lat="59.0715780968" lon="29.9690484185"><ele>103.207</ele><time>2026-04-25T11:43:10.000Z</time><hdop>4.312</hdop><vdop>4.312</vdop><extensions><gom:speed>0.42</gom:speed></extensions></trkpt>
   <trkpt lat="59.0715765881" lon="29.9690328282"><ele>103.255</ele><time>2026-04-25T11:43:11.000Z</time><hdop>3.937</hdop><vdop>3.937</vdop><extensions><gom:speed>0.465</gom:speed></extensions></trkpt>
   <trkpt lat="59.0715714751" lon="29.9690195009"><ele>103.256</ele><time>2026-04-25T11:43:12.000Z</time><hdop>3.937</hdop><vdop>3.937</vdop><extensions><gom:speed>0.449</gom:speed></extensions></trkpt>
   <trkpt lat="59.0715686252" lon="29.9690101132"><ele>103.271</ele><time>2026-04-25T11:43:13.000Z</time><hdop>4.687</hdop><vdop>4.687</vdop><extensions><gom:speed>0.376</gom:speed></extensions></trkpt>
   <trkpt lat="59.0715686252" lon="29.9690101132"><ele>103.28</ele><time>2026-04-25T11:43:13.000Z</time><hdop>4.687</hdop><vdop>4.687</vdop><extensions><gom:speed>0.376</gom:speed></extensions></trkpt>
   <trkpt lat="59.0715675356" lon="29.969006509"><ele>103.274</ele><time>2026-04-25T11:43:14.000Z</time><hdop>4.312</hdop><vdop>4.312</vdop><extensions><gom:speed>0.144</gom:speed></extensions></trkpt>
   <trkpt lat="59.071566446" lon="29.9690030724"><ele>103.412</ele><time>2026-04-25T11:43:15.000Z</time><hdop>4.875</hdop><vdop>4.875</vdop><extensions><gom:speed>0.117</gom:speed></extensions></trkpt>
   <trkpt lat="59.0715669908" lon="29.9690007255"><ele>103.729</ele><time>2026-04-25T11:43:16.000Z</time><hdop>4.375</hdop><vdop>4.375</vdop><extensions><gom:speed>0.149</gom:speed></extensions></trkpt>
   <trkpt lat="59.0715669908" lon="29.9690007255"><ele>103.919</ele><time>2026-04-25T11:43:17.000Z</time><hdop>4.375</hdop><vdop>4.375</vdop><extensions><gom:speed>0.0</gom:speed></extensions></trkpt>
   <trkpt lat="59.0715669908" lon="29.9690007255"><ele>104.032</ele><time>2026-04-25T11:43:18.000Z</time><hdop>4.375</hdop><vdop>4.375</vdop><extensions><gom:speed>0.0</gom:speed></extensions></trkpt>
   <trkpt lat="59.0715669908" lon="29.9690007255"><ele>104.099</ele><time>2026-04-25T11:43:19.000Z</time><hdop>4.375</hdop><vdop>4.375</vdop><extensions><gom:speed>0.0</gom:speed></extensions></trkpt>
   <trkpt lat="59.0715669908" lon="29.9690007255"><ele>104.14</ele><time>2026-04-25T11:43:20.000Z</time><hdop>4.375</hdop><vdop>4.375</vdop><extensions><gom:speed>0.0</gom:speed></extensions></trkpt>
   <trkpt lat="59.0715669908" lon="29.9690007255"><ele>104.164</ele><time>2026-04-25T11:43:21.000Z</time><hdop>4.375</hdop><vdop>4.375</vdop><extensions><gom:speed>0.0</gom:speed></extensions></trkpt>
   <trkpt lat="59.0715669908" lon="29.9690007255"><ele>104.178</ele><time>2026-04-25T11:43:22.000Z</time><hdop>4.375</hdop><vdop>4.375</vdop><extensions><gom:speed>0.0</gom:speed></extensions></trkpt>
   <trkpt lat="59.0715669908" lon="29.9690007255"><ele>104.187</ele><time>2026-04-25T11:43:23.000Z</time><hdop>4.375</hdop><vdop>4.375</vdop><extensions><gom:speed>0.0</gom:speed></extensions></trkpt>
   <trkpt lat="59.0715669908" lon="29.9690007255"><ele>104.192</ele><time>2026-04-25T11:43:24.000Z</time><hdop>4.375</hdop><vdop>4.375</vdop><extensions><gom:speed>0.0</gom:speed></extensions></trkpt>
   <trkpt lat="59.0715669908" lon="29.9690007255"><ele>104.195</ele><time>2026-04-25T11:43:25.000Z</time><hdop>4.375</hdop><vdop>4.375</vdop><extensions><gom:speed>0.0</gom:speed></extensions></trkpt>
   <trkpt lat="59.0715669908" lon="29.9690007255"><ele>104.197</ele><time>2026-04-25T11:43:26.000Z</time><hdop>4.375</hdop><vdop>4.375</vdop><extensions><gom:speed>0.0</gom:speed></extensions></trkpt>
   <trkpt lat="59.0715669908" lon="29.9690007255"><ele>104.198</ele><time>2026-04-25T11:43:27.000Z</time><hdop>4.375</hdop><vdop>4.375</vdop><extensions><gom:speed>0.0</gom:speed></extensions></trkpt>
   <trkpt lat="59.0715669908" lon="29.9690007255"><ele>104.199</ele><time>2026-04-25T11:43:28.000Z</time><hdop>4.375</hdop><vdop>4.375</vdop><extensions><gom:speed>0.0</gom:speed></extensions></trkpt>
   <trkpt lat="59.0715669908" lon="29.9690007255"><ele>104.199</ele><time>2026-04-25T11:43:29.000Z</time><hdop>4.375</hdop><vdop>4.375</vdop><extensions><gom:speed>0.0</gom:speed></extensions></trkpt>
   <trkpt lat="59.0715656916" lon="29.9689947743"><ele>104.194</ele><time>2026-04-25T11:43:30.000Z</time><hdop>4.687</hdop><vdop>4.687</vdop><extensions><gom:speed>0.386</gom:speed></extensions></trkpt>
   <trkpt lat="59.071566404" lon="29.9689849675"><ele>104.204</ele><time>2026-04-25T11:43:31.000Z</time><hdop>4.687</hdop><vdop>4.687</vdop><extensions><gom:speed>0.436</gom:speed></extensions></trkpt>
   <trkpt lat="59.071566404" lon="29.9689849675"><ele>104.21</ele><time>2026-04-25T11:43:32.000Z</time><hdop>4.875</hdop><vdop>4.875</vdop><extensions><gom:speed>0.0</gom:speed></extensions></trkpt>
   <trkpt lat="59.071566404" lon="29.9689849675"><ele>104.214</ele><time>2026-04-25T11:43:33.000Z</time><hdop>4.875</hdop><vdop>4.875</vdop><extensions><gom:speed>0.0</gom:speed></extensions></trkpt>
   <trkpt lat="59.071566404" lon="29.9689849675"><ele>104.216</ele><time>2026-04-25T11:43:33.000Z</time><hdop>4.875</hdop><vdop>4.875</vdop><extensions><gom:speed>0.0</gom:speed></extensions></trkpt>
   <trkpt lat="59.071566404" lon="29.9689849675"><ele>104.217</ele><time>2026-04-25T11:43:34.000Z</time><hdop>4.875</hdop><vdop>4.875</vdop><extensions><gom:speed>0.0</gom:speed></extensions></trkpt>
   <trkpt lat="59.071566404" lon="29.9689849675"><ele>104.218</ele><time>2026-04-25T11:43:35.000Z</time><hdop>4.875</hdop><vdop>4.875</vdop><extensions><gom:speed>0.0</gom:speed></extensions></trkpt>
   <trkpt lat="59.071566404" lon="29.9689849675"><ele>104.219</ele><time>2026-04-25T11:43:36.000Z</time><hdop>4.875</hdop><vdop>4.875</vdop><extensions><gom:speed>0.0</gom:speed></extensions></trkpt>
   <trkpt lat="59.071566404" lon="29.9689849675"><ele>104.219</ele><time>2026-04-25T11:43:37.000Z</time><hdop>4.875</hdop><vdop>4.875</vdop><extensions><gom:speed>0.0</gom:speed></extensions></trkpt>
   <trkpt lat="59.071566404" lon="29.9689849675"><ele>104.219</ele><time>2026-04-25T11:43:38.000Z</time><hdop>4.875</hdop><vdop>4.875</vdop><extensions><gom:speed>0.0</gom:speed></extensions></trkpt>
   <trkpt lat="59.071566404" lon="29.9689849675"><ele>104.219</ele><time>2026-04-25T11:43:39.000Z</time><hdop>4.875</hdop><vdop>4.875</vdop><extensions><gom:speed>0.0</gom:speed></extensions></trkpt>
   <trkpt lat="59.071566404" lon="29.9689849675"><ele>104.219</ele><time>2026-04-25T11:43:40.000Z</time><hdop>4.875</hdop><vdop>4.875</vdop><extensions><gom:speed>0.0</gom:speed></extensions></trkpt>
   <trkpt lat="59.071566404" lon="29.9689849675"><ele>104.219</ele><time>2026-04-25T11:43:41.000Z</time><hdop>4.875</hdop><vdop>4.875</vdop><extensions><gom:speed>0.0</gom:speed></extensions></trkpt>
   <trkpt lat="59.071566404" lon="29.9689849675"><ele>104.219</ele><time>2026-04-25T11:43:42.000Z</time><hdop>4.875</hdop><vdop>4.875</vdop><extensions><gom:speed>0.0</gom:speed></extensions></trkpt>
   <trkpt lat="59.071566404" lon="29.9689849675"><ele>104.219</ele><time>2026-04-25T11:43:43.000Z</time><hdop>4.875</hdop><vdop>4.875</vdop><extensions><gom:speed>0.0</gom:speed></extensions></trkpt>
   <trkpt lat="59.071566404" lon="29.9689849675"><ele>104.219</ele><time>2026-04-25T11:43:44.000Z</time><hdop>4.875</hdop><vdop>4.875</vdop><extensions><gom:speed>0.0</gom:speed></extensions></trkpt>
   <trkpt lat="59.0715600757" lon="29.9689673655"><ele>104.153</ele><time>2026-04-25T11:43:45.000Z</time><hdop>4.687</hdop><vdop>4.687</vdop><extensions><gom:speed>0.239</gom:speed></extensions></trkpt>
   <trkpt lat="59.0715600757" lon="29.9689673655"><ele>104.114</ele><time>2026-04-25T11:43:46.000Z</time><hdop>4.875</hdop><vdop>4.875</vdop><extensions><gom:speed>0.0</gom:speed></extensions></trkpt>
   <trkpt lat="59.0715521129" lon="29.9689456564"><ele>104.104</ele><time>2026-04-25T11:43:47.000Z</time><hdop>4.687</hdop><vdop>4.687</vdop><extensions><gom:speed>0.328</gom:speed></extensions></trkpt>
   <trkpt lat="59.0715521129" lon="29.9689456564"><ele>104.099</ele><time>2026-04-25T11:43:48.000Z</time><hdop>4.875</hdop><vdop>4.875</vdop><extensions><gom:speed>0.0</gom:speed></extensions></trkpt>
   <trkpt lat="59.0715453236" lon="29.9689241987"><ele>104.034</ele><time>2026-04-25T11:43:49.000Z</time><hdop>4.687</hdop><vdop>4.687</vdop><extensions><gom:speed>0.264</gom:speed></extensions></trkpt>
   <trkpt lat="59.0715391629" lon="29.9689051718"><ele>103.925</ele><time>2026-04-25T11:43:50.000Z</time><hdop>4.687</hdop><vdop>4.687</vdop><extensions><gom:speed>0.239</gom:speed></extensions></trkpt>
   <trkpt lat="59.0715340918" lon="29.9688881565"><ele>103.894</ele><time>2026-04-25T11:43:51.000Z</time><hdop>4.875</hdop><vdop>4.875</vdop><extensions><gom:speed>0.271</gom:speed></extensions></trkpt>
   <trkpt lat="59.0715308229" lon="29.9688723985"><ele>103.907</ele><time>2026-04-25T11:43:52.000Z</time><hdop>4.687</hdop><vdop>4.687</vdop><extensions><gom:speed>0.309</gom:speed></extensions></trkpt>
   <trkpt lat="59.071530781" lon="29.968858736"><ele>103.821</ele><time>2026-04-25T11:43:53.000Z</time><hdop>4.875</hdop><vdop>4.875</vdop><extensions><gom:speed>0.352</gom:speed></extensions></trkpt>
   <trkpt lat="59.071530781" lon="29.968858736"><ele>103.77</ele><time>2026-04-25T11:43:53.000Z</time><hdop>4.875</hdop><vdop>4.875</vdop><extensions><gom:speed>0.352</gom:speed></extensions></trkpt>
   <trkpt lat="59.0715301523" lon="29.9688418884"><ele>103.822</ele><time>2026-04-25T11:43:54.000Z</time><hdop>4.687</hdop><vdop>4.687</vdop><extensions><gom:speed>0.335</gom:speed></extensions></trkpt>
   <trkpt lat="59.0715275539" lon="29.9688303214"><ele>103.826</ele><time>2026-04-25T11:43:55.000Z</time><hdop>4.875</hdop><vdop>4.875</vdop><extensions><gom:speed>0.206</gom:speed></extensions></trkpt>
   <trkpt lat="59.0715259195" lon="29.9688201793"><ele>103.797</ele><time>2026-04-25T11:43:56.000Z</time><hdop>4.687</hdop><vdop>4.687</vdop><extensions><gom:speed>0.409</gom:speed></extensions></trkpt>
   <trkpt lat="59.0715242431" lon="29.9688042537"><ele>103.712</ele><time>2026-04-25T11:43:57.000Z</time><hdop>4.687</hdop><vdop>4.687</vdop><extensions><gom:speed>0.697</gom:speed></extensions></trkpt>
   <trkpt lat="59.071521477" lon="29.9687848915"><ele>103.717</ele><time>2026-04-25T11:43:58.000Z</time><hdop>4.687</hdop><vdop>4.687</vdop><extensions><gom:speed>0.53</gom:speed></extensions></trkpt>
   <trkpt lat="59.071516406" lon="29.9687659484"><ele>103.833</ele><time>2026-04-25T11:43:59.000Z</time><hdop>4.687</hdop><vdop>4.687</vdop><extensions><gom:speed>0.501</gom:speed></extensions></trkpt>
   <trkpt lat="59.0715120474" lon="29.9687511124"><ele>104.051</ele><time>2026-04-25T11:44:00.000Z</time><hdop>4.75</hdop><vdop>4.75</vdop><extensions><gom:speed>0.461</gom:speed></extensions></trkpt>
   <trkpt lat="59.0715105387" lon="29.9687353544"><ele>104.238</ele><time>2026-04-25T11:44:01.000Z</time><hdop>4.312</hdop><vdop>4.312</vdop><extensions><gom:speed>0.468</gom:speed></extensions></trkpt>
   <trkpt lat="59.0715102453" lon="29.9687268049"><ele>104.389</ele><time>2026-04-25T11:44:02.000Z</time><hdop>4.875</hdop><vdop>4.875</vdop><extensions><gom:speed>0.341</gom:speed></extensions></trkpt>
   <trkpt lat="59.0715104548" lon="29.9687164951"><ele>104.528</ele><time>2026-04-25T11:44:03.000Z</time><hdop>4.687</hdop><vdop>4.687</vdop><extensions><gom:speed>0.349</gom:speed></extensions></trkpt>
   <trkpt lat="59.071510832" lon="29.9687032517"><ele>104.59</ele><time>2026-04-25T11:44:04.000Z</time><hdop>4.875</hdop><vdop>4.875</vdop><extensions><gom:speed>0.302</gom:speed></extensions></trkpt>
   <trkpt lat="59.0715112092" lon="29.9686868232"><ele>104.703</ele><time>2026-04-25T11:44:05.000Z</time><hdop>4.875</hdop><vdop>4.875</vdop><extensions><gom:speed>0.322</gom:speed></extensions></trkpt>
   <trkpt lat="59.0715121312" lon="29.96867534"><ele>104.782</ele><time>2026-04-25T11:44:06.000Z</time><hdop>4.687</hdop><vdop>4.687</vdop><extensions><gom:speed>0.282</gom:speed></extensions></trkpt>
   <trkpt lat="59.0715134304" lon="29.9686638568"><ele>104.811</ele><time>2026-04-25T11:44:07.000Z</time><hdop>4.687</hdop><vdop>4.687</vdop><extensions><gom:speed>0.295</gom:speed></extensions></trkpt>
   <trkpt lat="59.0715160707" lon="29.9686513678"><ele>104.81</ele><time>2026-04-25T11:44:08.000Z</time><hdop>4.687</hdop><vdop>4.687</vdop><extensions><gom:speed>0.377</gom:speed></extensions></trkpt>
   <trkpt lat="59.0715212256" lon="29.968640136"><ele>104.843</ele><time>2026-04-25T11:44:09.000Z</time><hdop>4.687</hdop><vdop>4.687</vdop><extensions><gom:speed>0.362</gom:speed></extensions></trkpt>
   <trkpt lat="59.0715251232" lon="29.9686330952"><ele>104.867</ele><time>2026-04-25T11:44:10.000Z</time><hdop>4.875</hdop><vdop>4.875</vdop><extensions><gom:speed>0.163</gom:speed></extensions></trkpt>
   <trkpt lat="59.071529356" lon="29.9686269764"><ele>104.821</ele><time>2026-04-25T11:44:11.000Z</time><hdop>4.687</hdop><vdop>4.687</vdop><extensions><gom:speed>0.358</gom:speed></extensions></trkpt>
   <trkpt lat="59.0715343433" lon="29.9686162476"><ele>104.762</ele><time>2026-04-25T11:44:12.000Z</time><hdop>4.687</hdop><vdop>4.687</vdop><extensions><gom:speed>0.455</gom:speed></extensions></trkpt>
   <trkpt lat="59.071541426" lon="29.9686078657"><ele>104.78</ele><time>2026-04-25T11:44:13.000Z</time><hdop>4.187</hdop><vdop>4.187</vdop><extensions><gom:speed>0.476</gom:speed></extensions></trkpt>
   <trkpt lat="59.071541426" lon="29.9686078657"><ele>104.791</ele><time>2026-04-25T11:44:13.000Z</time><hdop>4.187</hdop><vdop>4.187</vdop><extensions><gom:speed>0.476</gom:speed></extensions></trkpt>
   <trkpt lat="59.0715512747" lon="29.9685914372"><ele>104.893</ele><time>2026-04-25T11:44:14.000Z</time><hdop>3.812</hdop><vdop>3.812</vdop><extensions><gom:speed>0.612</gom:speed></extensions></trkpt>
   <trkpt lat="59.0715582736" lon="29.9685805407"><ele>104.919</ele><time>2026-04-25T11:44:15.000Z</time><hdop>4.687</hdop><vdop>4.687</vdop><extensions><gom:speed>0.64</gom:speed></extensions></trkpt>
   <trkpt lat="59.0715643086" lon="29.9685703986"><ele>104.947</ele><time>2026-04-25T11:44:16.000Z</time><hdop>4.687</hdop><vdop>4.687</vdop><extensions><gom:speed>0.534</gom:speed></extensions></trkpt>
   <trkpt lat="59.0715697987" lon="29.9685610108"><ele>104.919</ele><time>2026-04-25T11:44:17.000Z</time><hdop>4.687</hdop><vdop>4.687</vdop><extensions><gom:speed>0.615</gom:speed></extensions></trkpt>
   <trkpt lat="59.0715744088" lon="29.9685511202"><ele>104.824</ele><time>2026-04-25T11:44:18.000Z</time><hdop>4.687</hdop><vdop>4.687</vdop><extensions><gom:speed>0.421</gom:speed></extensions></trkpt>
   <trkpt lat="59.0715787674" lon="29.9685427383"><ele>104.717</ele><time>2026-04-25T11:44:19.000Z</time><hdop>4.687</hdop><vdop>4.687</vdop><extensions><gom:speed>0.48</gom:speed></extensions></trkpt>
   <trkpt lat="59.0715816172" lon="29.9685362842"><ele>104.467</ele><time>2026-04-25T11:44:20.000Z</time><hdop>4.687</hdop><vdop>4.687</vdop><extensions><gom:speed>0.333</gom:speed></extensions></trkpt>
   <trkpt lat="59.0715861015" lon="29.9685265612"><ele>104.234</ele><time>2026-04-25T11:44:21.000Z</time><hdop>4.687</hdop><vdop>4.687</vdop><extensions><gom:speed>0.435</gom:speed></extensions></trkpt>
   <trkpt lat="59.0715904601" lon="29.9685109709"><ele>104.132</ele><time>2026-04-25T11:44:22.000Z</time><hdop>4.687</hdop><vdop>4.687</vdop><extensions><gom:speed>0.414</gom:speed></extensions></trkpt>
   <trkpt lat="59.0715945253" lon="29.9684989848"><ele>104.111</ele><time>2026-04-25T11:44:23.000Z</time><hdop>4.5</hdop><vdop>4.5</vdop><extensions><gom:speed>0.423</gom:speed></extensions></trkpt>
   <trkpt lat="59.0715981715" lon="29.9684834782"><ele>104.184</ele><time>2026-04-25T11:44:24.000Z</time><hdop>4.062</hdop><vdop>4.062</vdop><extensions><gom:speed>0.427</gom:speed></extensions></trkpt>
   <trkpt lat="59.0716013147" lon="29.968467385"><ele>104.292</ele><time>2026-04-25T11:44:25.000Z</time><hdop>4.0</hdop><vdop>4.0</vdop><extensions><gom:speed>0.433</gom:speed></extensions></trkpt>
   <trkpt lat="59.0716016499" lon="29.968454393"><ele>104.357</ele><time>2026-04-25T11:44:26.000Z</time><hdop>4.687</hdop><vdop>4.687</vdop><extensions><gom:speed>0.51</gom:speed></extensions></trkpt>
   <trkpt lat="59.0716012728" lon="29.9684368749"><ele>104.42</ele><time>2026-04-25T11:44:27.000Z</time><hdop>4.687</hdop><vdop>4.687</vdop><extensions><gom:speed>0.851</gom:speed></extensions></trkpt>
   <trkpt lat="59.0716001831" lon="29.9684208654"><ele>104.483</ele><time>2026-04-25T11:44:28.000Z</time><hdop>4.687</hdop><vdop>4.687</vdop><extensions><gom:speed>0.426</gom:speed></extensions></trkpt>
   <trkpt lat="59.0716008537" lon="29.9683989887"><ele>104.589</ele><time>2026-04-25T11:44:29.000Z</time><hdop>4.687</hdop><vdop>4.687</vdop><extensions><gom:speed>0.443</gom:speed></extensions></trkpt>
   <trkpt lat="59.0716022786" lon="29.9683883436"><ele>104.69</ele><time>2026-04-25T11:44:30.000Z</time><hdop>4.687</hdop><vdop>4.687</vdop><extensions><gom:speed>0.373</gom:speed></extensions></trkpt>
   <trkpt lat="59.0716044998" lon="29.9683703225"><ele>104.926</ele><time>2026-04-25T11:44:31.000Z</time><hdop>4.812</hdop><vdop>4.812</vdop><extensions><gom:speed>0.316</gom:speed></extensions></trkpt>
   <trkpt lat="59.0716042483" lon="29.9683616054"><ele>105.019</ele><time>2026-04-25T11:44:32.000Z</time><hdop>4.875</hdop><vdop>4.875</vdop><extensions><gom:speed>0.239</gom:speed></extensions></trkpt>
   <trkpt lat="59.0716058828" lon="29.9683526367"><ele>105.083</ele><time>2026-04-25T11:44:33.000Z</time><hdop>4.687</hdop><vdop>4.687</vdop><extensions><gom:speed>0.306</gom:speed></extensions></trkpt>
   <trkpt lat="59.0716058828" lon="29.9683526367"><ele>105.121</ele><time>2026-04-25T11:44:33.000Z</time><hdop>4.687</hdop><vdop>4.687</vdop><extensions><gom:speed>0.306</gom:speed></extensions></trkpt>
   <trkpt lat="59.0716106186" lon="29.9683360406"><ele>105.175</ele><time>2026-04-25T11:44:34.000Z</time><hdop>4.687</hdop><vdop>4.687</vdop><extensions><gom:speed>0.587</gom:speed></extensions></trkpt>
   <trkpt lat="59.0716140133" lon="29.9683206179"><ele>105.324</ele><time>2026-04-25T11:44:35.000Z</time><hdop>4.75</hdop><vdop>4.75</vdop><extensions><gom:speed>0.425</gom:speed></extensions></trkpt>
   <trkpt lat="59.0716164859" lon="29.9683082965"><ele>105.52</ele><time>2026-04-25T11:44:36.000Z</time><hdop>4.25</hdop><vdop>4.25</vdop><extensions><gom:speed>0.279</gom:speed></extensions></trkpt>
   <trkpt lat="59.0716199644" lon="29.9682943825"><ele>105.73</ele><time>2026-04-25T11:44:37.000Z</time><hdop>3.875</hdop><vdop>3.875</vdop><extensions><gom:speed>0.226</gom:speed></extensions></trkpt>
   <trkpt lat="59.0716265442" lon="29.9682801333"><ele>105.941</ele><time>2026-04-25T11:44:38.000Z</time><hdop>3.5</hdop><vdop>3.5</vdop><extensions><gom:speed>0.285</gom:speed></extensions></trkpt>
   <trkpt lat="59.0716265442" lon="29.9682801333"><ele>106.068</ele><time>2026-04-25T11:44:39.000Z</time><hdop>3.5</hdop><vdop>3.5</vdop><extensions><gom:speed>0.0</gom:speed></extensions></trkpt>
   <trkpt lat="59.0716265442" lon="29.9682801333"><ele>106.143</ele><time>2026-04-25T11:44:40.000Z</time><hdop>3.5</hdop><vdop>3.5</vdop><extensions><gom:speed>0.0</gom:speed></extensions></trkpt>
   <trkpt lat="59.0716265442" lon="29.9682801333"><ele>106.189</ele><time>2026-04-25T11:44:41.000Z</time><hdop>3.5</hdop><vdop>3.5</vdop><extensions><gom:speed>0.0</gom:speed></extensions></trkpt>
   <trkpt lat="59.0716265442" lon="29.9682801333"><ele>106.216</ele><time>2026-04-25T11:44:42.000Z</time><hdop>3.5</hdop><vdop>3.5</vdop><extensions><gom:speed>0.0</gom:speed></extensions></trkpt>
   <trkpt lat="59.0716357643" lon="29.9682808876"><ele>106.139</ele><time>2026-04-25T11:44:43.000Z</time><hdop>3.562</hdop><vdop>3.562</vdop><extensions><gom:speed>0.434</gom:speed></extensions></trkpt>
   <trkpt lat="59.0716459064" lon="29.9682787922"><ele>106.001</ele><time>2026-04-25T11:44:44.000Z</time><hdop>3.375</hdop><vdop>3.375</vdop><extensions><gom:speed>0.55</gom:speed></extensions></trkpt>
   <trkpt lat="59.0716459064" lon="29.9682787922"><ele>105.919</ele><time>2026-04-25T11:44:45.000Z</time><hdop>3.375</hdop><vdop>3.375</vdop><extensions><gom:speed>0.0</gom:speed></extensions></trkpt>
   <trkpt lat="59.0716459064" lon="29.9682787922"><ele>105.87</ele><time>2026-04-25T11:44:46.000Z</time><hdop>3.375</hdop><vdop>3.375</vdop><extensions><gom:speed>0.0</gom:speed></extensions></trkpt>
   <trkpt lat="59.0716459064" lon="29.9682787922"><ele>105.841</ele><time>2026-04-25T11:44:47.000Z</time><hdop>3.375</hdop><vdop>3.375</vdop><extensions><gom:speed>0.0</gom:speed></extensions></trkpt>
   <trkpt lat="59.0716459064" lon="29.9682787922"><ele>105.823</ele><time>2026-04-25T11:44:48.000Z</time><hdop>3.375</hdop><vdop>3.375</vdop><extensions><gom:speed>0.0</gom:speed></extensions></trkpt>
   <trkpt lat="59.0716459064" lon="29.9682787922"><ele>105.813</ele><time>2026-04-25T11:44:49.000Z</time><hdop>3.375</hdop><vdop>3.375</vdop><extensions><gom:speed>0.0</gom:speed></extensions></trkpt>
   <trkpt lat="59.0716459064" lon="29.9682787922"><ele>105.806</ele><time>2026-04-25T11:44:50.000Z</time><hdop>3.375</hdop><vdop>3.375</vdop><extensions><gom:speed>0.0</gom:speed></extensions></trkpt>
   <trkpt lat="59.0716459064" lon="29.9682787922"><ele>105.803</ele><time>2026-04-25T11:44:51.000Z</time><hdop>3.375</hdop><vdop>3.375</vdop><extensions><gom:speed>0.0</gom:speed></extensions></trkpt>
   <trkpt lat="59.0716459064" lon="29.9682787922"><ele>105.8</ele><time>2026-04-25T11:44:52.000Z</time><hdop>3.375</hdop><vdop>3.375</vdop><extensions><gom:speed>0.0</gom:speed></extensions></trkpt>
   <trkpt lat="59.0588799745" lon="29.9623699695"><ele>63.217</ele><time>2026-04-25T11:44:52.447Z</time><hdop>767.0</hdop><vdop>0.0</vdop><extensions><gom:speed>0.0</gom:speed></extensions></trkpt>
   <trkpt lat="59.0716459064" lon="29.9682787922"><ele>80.355</ele><time>2026-04-25T11:44:52.000Z</time><hdop>3.375</hdop><vdop>3.375</vdop><extensions><gom:speed>0.0</gom:speed></extensions></trkpt>
   <trkpt lat="59.0716459064" lon="29.9682787922"><ele>90.595</ele><time>2026-04-25T11:44:53.000Z</time><hdop>3.375</hdop><vdop>3.375</vdop><extensions><gom:speed>0.0</gom:speed></extensions></trkpt>
   <trkpt lat="59.0716459064" lon="29.9682787922"><ele>96.714</ele><time>2026-04-25T11:44:53.000Z</time><hdop>3.375</hdop><vdop>3.375</vdop><extensions><gom:speed>0.0</gom:speed></extensions></trkpt>
   <trkpt lat="59.0716459064" lon="29.9682787922"><ele>100.369</ele><time>2026-04-25T11:44:54.000Z</time><hdop>3.375</hdop><vdop>3.375</vdop><extensions><gom:speed>0.0</gom:speed></extensions></trkpt>
   <trkpt lat="59.0716459064" lon="29.9682787922"><ele>102.554</ele><time>2026-04-25T11:44:55.000Z</time><hdop>3.375</hdop><vdop>3.375</vdop><extensions><gom:speed>0.0</gom:speed></extensions></trkpt>
   <trkpt lat="59.0716459064" lon="29.9682787922"><ele>103.859</ele><time>2026-04-25T11:44:56.000Z</time><hdop>3.375</hdop><vdop>3.375</vdop><extensions><gom:speed>0.0</gom:speed></extensions></trkpt>
   <trkpt lat="59.0716459064" lon="29.9682787922"><ele>104.639</ele><time>2026-04-25T11:44:57.000Z</time><hdop>3.375</hdop><vdop>3.375</vdop><extensions><gom:speed>0.0</gom:speed></extensions></trkpt>
   <trkpt lat="59.0716459064" lon="29.9682787922"><ele>105.105</ele><time>2026-04-25T11:44:58.000Z</time><hdop>3.375</hdop><vdop>3.375</vdop><extensions><gom:speed>0.0</gom:speed></extensions></trkpt>
   <trkpt lat="59.0716459064" lon="29.9682787922"><ele>105.384</ele><time>2026-04-25T11:44:59.000Z</time><hdop>3.375</hdop><vdop>3.375</vdop><extensions><gom:speed>0.0</gom:speed></extensions></trkpt>
   <trkpt lat="59.0716459064" lon="29.9682787922"><ele>105.55</ele><time>2026-04-25T11:45:00.000Z</time><hdop>3.375</hdop><vdop>3.375</vdop><extensions><gom:speed>0.0</gom:speed></extensions></trkpt>
   <trkpt lat="59.0716459064" lon="29.9682787922"><ele>105.649</ele><time>2026-04-25T11:45:01.000Z</time><hdop>3.375</hdop><vdop>3.375</vdop><extensions><gom:speed>0.0</gom:speed></extensions></trkpt>
   <trkpt lat="59.0716459064" lon="29.9682787922"><ele>105.709</ele><time>2026-04-25T11:45:02.000Z</time><hdop>3.375</hdop><vdop>3.375</vdop><extensions><gom:speed>0.0</gom:speed></extensions></trkpt>
   <trkpt lat="59.0716459064" lon="29.9682787922"><ele>105.744</ele><time>2026-04-25T11:45:03.000Z</time><hdop>3.375</hdop><vdop>3.375</vdop><extensions><gom:speed>0.0</gom:speed></extensions></trkpt>
   <trkpt lat="59.0716459064" lon="29.9682787922"><ele>105.766</ele><time>2026-04-25T11:45:04.000Z</time><hdop>3.375</hdop><vdop>3.375</vdop><extensions><gom:speed>0.0</gom:speed></extensions></trkpt>
   <trkpt lat="59.0716459064" lon="29.9682787922"><ele>105.778</ele><time>2026-04-25T11:45:05.000Z</time><hdop>3.375</hdop><vdop>3.375</vdop><extensions><gom:speed>0.0</gom:speed></extensions></trkpt>
   <trkpt lat="59.0716459064" lon="29.9682787922"><ele>105.786</ele><time>2026-04-25T11:45:06.000Z</time><hdop>3.375</hdop><vdop>3.375</vdop><extensions><gom:speed>0.0</gom:speed></extensions></trkpt>
   <trkpt lat="59.0716459064" lon="29.9682787922"><ele>105.79</ele><time>2026-04-25T11:45:07.000Z</time><hdop>3.375</hdop><vdop>3.375</vdop><extensions><gom:speed>0.0</gom:speed></extensions></trkpt>
   <trkpt lat="59.0716459064" lon="29.9682787922"><ele>105.793</ele><time>2026-04-25T11:45:08.000Z</time><hdop>3.375</hdop><vdop>3.375</vdop><extensions><gom:speed>0.0</gom:speed></extensions></trkpt>
   <trkpt lat="59.0716459064" lon="29.9682787922"><ele>105.795</ele><time>2026-04-25T11:45:09.000Z</time><hdop>3.375</hdop><vdop>3.375</vdop><extensions><gom:speed>0.0</gom:speed></extensions></trkpt>
   <trkpt lat="59.0716459064" lon="29.9682787922"><ele>105.796</ele><time>2026-04-25T11:45:10.000Z</time><hdop>3.375</hdop><vdop>3.375</vdop><extensions><gom:speed>0.0</gom:speed></extensions></trkpt>
   <trkpt lat="59.0716459064" lon="29.9682787922"><ele>105.796</ele><time>2026-04-25T11:45:11.000Z</time><hdop>3.375</hdop><vdop>3.375</vdop><extensions><gom:speed>0.0</gom:speed></extensions></trkpt>
   <trkpt lat="59.0716459064" lon="29.9682787922"><ele>105.796</ele><time>2026-04-25T11:45:12.000Z</time><hdop>3.375</hdop><vdop>3.375</vdop><extensions><gom:speed>0.0</gom:speed></extensions></trkpt>
   <trkpt lat="59.0716459064" lon="29.9682787922"><ele>105.797</ele><time>2026-04-25T11:45:13.000Z</time><hdop>3.375</hdop><vdop>3.375</vdop><extensions><gom:speed>0.0</gom:speed></extensions></trkpt>
   <trkpt lat="59.0716459064" lon="29.9682787922"><ele>105.797</ele><time>2026-04-25T11:45:13.000Z</time><hdop>3.375</hdop><vdop>3.375</vdop><extensions><gom:speed>0.0</gom:speed></extensions></trkpt>
   <trkpt lat="59.0716459064" lon="29.9682787922"><ele>105.797</ele><time>2026-04-25T11:45:14.000Z</time><hdop>3.375</hdop><vdop>3.375</vdop><extensions><gom:speed>0.0</gom:speed></extensions></trkpt>
   <trkpt lat="59.0716459064" lon="29.9682787922"><ele>105.797</ele><time>2026-04-25T11:45:15.000Z</time><hdop>3.375</hdop><vdop>3.375</vdop><extensions><gom:speed>0.0</gom:speed></extensions></trkpt>
   <trkpt lat="59.0716459064" lon="29.9682787922"><ele>105.797</ele><time>2026-04-25T11:45:16.000Z</time><hdop>3.375</hdop><vdop>3.375</vdop><extensions><gom:speed>0.0</gom:speed></extensions></trkpt>
   <trkpt lat="59.0716459064" lon="29.9682787922"><ele>105.797</ele><time>2026-04-25T11:45:17.000Z</time><hdop>3.375</hdop><vdop>3.375</vdop><extensions><gom:speed>0.0</gom:speed></extensions></trkpt>
   <trkpt lat="59.0716459064" lon="29.9682787922"><ele>105.797</ele><time>2026-04-25T11:45:18.000Z</time><hdop>3.375</hdop><vdop>3.375</vdop><extensions><gom:speed>0.0</gom:speed></extensions></trkpt>
   <trkpt lat="59.0716459064" lon="29.9682787922"><ele>105.797</ele><time>2026-04-25T11:45:19.000Z</time><hdop>3.375</hdop><vdop>3.375</vdop><extensions><gom:speed>0.0</gom:speed></extensions></trkpt>
   <trkpt lat="59.0716459064" lon="29.9682787922"><ele>105.797</ele><time>2026-04-25T11:45:20.000Z</time><hdop>3.375</hdop><vdop>3.375</vdop><extensions><gom:speed>0.0</gom:speed></extensions></trkpt>
   <trkpt lat="59.0716459064" lon="29.9682787922"><ele>105.797</ele><time>2026-04-25T11:45:21.000Z</time><hdop>3.375</hdop><vdop>3.375</vdop><extensions><gom:speed>0.0</gom:speed></extensions></trkpt>
   <trkpt lat="59.0716459064" lon="29.9682787922"><ele>105.797</ele><time>2026-04-25T11:45:22.000Z</time><hdop>3.375</hdop><vdop>3.375</vdop><extensions><gom:speed>0.0</gom:speed></extensions></trkpt>
   <trkpt lat="59.0716459064" lon="29.9682787922"><ele>105.797</ele><time>2026-04-25T11:45:23.000Z</time><hdop>3.375</hdop><vdop>3.375</vdop><extensions><gom:speed>0.0</gom:speed></extensions></trkpt>
   <trkpt lat="59.0716459064" lon="29.9682787922"><ele>105.797</ele><time>2026-04-25T11:45:24.000Z</time><hdop>3.375</hdop><vdop>3.375</vdop><extensions><gom:speed>0.0</gom:speed></extensions></trkpt>
   <trkpt lat="59.0716498459" lon="29.9682713323"><ele>105.661</ele><time>2026-04-25T11:45:25.000Z</time><hdop>3.625</hdop><vdop>3.625</vdop><extensions><gom:speed>0.386</gom:speed></extensions></trkpt>
   <trkpt lat="59.0716498459" lon="29.9682713323"><ele>105.58</ele><time>2026-04-25T11:45:26.000Z</time><hdop>3.625</hdop><vdop>3.625</vdop><extensions><gom:speed>0.0</gom:speed></extensions></trkpt>
   <trkpt lat="59.0716498459" lon="29.9682713323"><ele>105.532</ele><time>2026-04-25T11:45:27.000Z</time><hdop>3.625</hdop><vdop>3.625</vdop><extensions><gom:speed>0.0</gom:speed></extensions></trkpt>
   <trkpt lat="59.0716498459" lon="29.9682713323"><ele>105.503</ele><time>2026-04-25T11:45:28.000Z</time><hdop>3.625</hdop><vdop>3.625</vdop><extensions><gom:speed>0.0</gom:speed></extensions></trkpt>
   <trkpt lat="59.0716498459" lon="29.9682713323"><ele>105.486</ele><time>2026-04-25T11:45:28.000Z</time><hdop>3.625</hdop><vdop>3.625</vdop><extensions><gom:speed>0.0</gom:speed></extensions></trkpt>
   <trkpt lat="59.0716498459" lon="29.9682713323"><ele>105.475</ele><time>2026-04-25T11:45:29.000Z</time><hdop>3.625</hdop><vdop>3.625</vdop><extensions><gom:speed>0.0</gom:speed></extensions></trkpt>
   <trkpt lat="59.0716498459" lon="29.9682713323"><ele>105.469</ele><time>2026-04-25T11:45:30.000Z</time><hdop>3.625</hdop><vdop>3.625</vdop><extensions><gom:speed>0.0</gom:speed></extensions></trkpt>
   <trkpt lat="59.0716498459" lon="29.9682713323"><ele>105.465</ele><time>2026-04-25T11:45:31.000Z</time><hdop>3.625</hdop><vdop>3.625</vdop><extensions><gom:speed>0.0</gom:speed></extensions></trkpt>
   <trkpt lat="59.0716498459" lon="29.9682713323"><ele>105.463</ele><time>2026-04-25T11:45:32.000Z</time><hdop>3.625</hdop><vdop>3.625</vdop><extensions><gom:speed>0.0</gom:speed></extensions></trkpt>
   <trkpt lat="59.0716498459" lon="29.9682713323"><ele>105.462</ele><time>2026-04-25T11:45:33.000Z</time><hdop>3.625</hdop><vdop>3.625</vdop><extensions><gom:speed>0.0</gom:speed></extensions></trkpt>
   <trkpt lat="59.0716498459" lon="29.9682713323"><ele>105.461</ele><time>2026-04-25T11:45:34.000Z</time><hdop>3.625</hdop><vdop>3.625</vdop><extensions><gom:speed>0.0</gom:speed></extensions></trkpt>
   <trkpt lat="59.0716498459" lon="29.9682713323"><ele>105.461</ele><time>2026-04-25T11:45:35.000Z</time><hdop>3.625</hdop><vdop>3.625</vdop><extensions><gom:speed>0.0</gom:speed></extensions></trkpt>
   <trkpt lat="59.0716498459" lon="29.9682713323"><ele>105.46</ele><time>2026-04-25T11:45:36.000Z</time><hdop>3.625</hdop><vdop>3.625</vdop><extensions><gom:speed>0.0</gom:speed></extensions></trkpt>
   <trkpt lat="59.0716498459" lon="29.9682713323"><ele>105.46</ele><time>2026-04-25T11:45:37.000Z</time><hdop>3.625</hdop><vdop>3.625</vdop><extensions><gom:speed>0.0</gom:speed></extensions></trkpt>
   <trkpt lat="59.0716498459" lon="29.9682713323"><ele>105.46</ele><time>2026-04-25T11:45:38.000Z</time><hdop>3.625</hdop><vdop>3.625</vdop><extensions><gom:speed>0.0</gom:speed></extensions></trkpt>
   <trkpt lat="59.0716498459" lon="29.9682713323"><ele>105.46</ele><time>2026-04-25T11:45:39.000Z</time><hdop>3.625</hdop><vdop>3.625</vdop><extensions><gom:speed>0.0</gom:speed></extensions></trkpt>
   <trkpt lat="59.0716544559" lon="29.9682633695"><ele>105.452</ele><time>2026-04-25T11:45:40.000Z</time><hdop>3.5</hdop><vdop>3.5</vdop><extensions><gom:speed>0.246</gom:speed></extensions></trkpt>
   <trkpt lat="59.0716581021" lon="29.9682605196"><ele>105.468</ele><time>2026-04-25T11:45:41.000Z</time><hdop>4.687</hdop><vdop>4.687</vdop><extensions><gom:speed>0.114</gom:speed></extensions></trkpt>
   <trkpt lat="59.0716581021" lon="29.9682605196"><ele>105.477</ele><time>2026-04-25T11:45:42.000Z</time><hdop>4.875</hdop><vdop>4.875</vdop><extensions><gom:speed>0.0</gom:speed></extensions></trkpt>
   <trkpt lat="59.0716608681" lon="29.9682593461"><ele>105.478</ele><time>2026-04-25T11:45:43.000Z</time><hdop>4.687</hdop><vdop>4.687</vdop><extensions><gom:speed>0.179</gom:speed></extensions></trkpt>
   <trkpt lat="59.0716619158" lon="29.9682595138"><ele>105.417</ele><time>2026-04-25T11:45:44.000Z</time><hdop>4.875</hdop><vdop>4.875</vdop><extensions><gom:speed>0.137</gom:speed></extensions></trkpt>
   <trkpt lat="59.0716665678" lon="29.9682624475"><ele>105.39</ele><time>2026-04-25T11:45:45.000Z</time><hdop>4.875</hdop><vdop>4.875</vdop><extensions><gom:speed>0.151</gom:speed></extensions></trkpt>
   <trkpt lat="59.0716665678" lon="29.9682624475"><ele>105.374</ele><time>2026-04-25T11:45:46.000Z</time><hdop>4.875</hdop><vdop>4.875</vdop><extensions><gom:speed>0.0</gom:speed></extensions></trkpt>
   <trkpt lat="59.0716665678" lon="29.9682624475"><ele>105.365</ele><time>2026-04-25T11:45:47.000Z</time><hdop>4.875</hdop><vdop>4.875</vdop><extensions><gom:speed>0.0</gom:speed></extensions></trkpt>
   <trkpt lat="59.0716665678" lon="29.9682624475"><ele>105.359</ele><time>2026-04-25T11:45:48.000Z</time><hdop>4.875</hdop><vdop>4.875</vdop><extensions><gom:speed>0.0</gom:speed></extensions></trkpt>
   <trkpt lat="59.0716665678" lon="29.9682624475"><ele>105.356</ele><time>2026-04-25T11:45:49.000Z</time><hdop>4.875</hdop><vdop>4.875</vdop><extensions><gom:speed>0.0</gom:speed></extensions></trkpt>
   <trkpt lat="59.0716665678" lon="29.9682624475"><ele>105.354</ele><time>2026-04-25T11:45:50.000Z</time><hdop>4.875</hdop><vdop>4.875</vdop><extensions><gom:speed>0.0</gom:speed></extensions></trkpt>
   <trkpt lat="59.0716665678" lon="29.9682624475"><ele>105.353</ele><time>2026-04-25T11:45:51.000Z</time><hdop>4.875</hdop><vdop>4.875</vdop><extensions><gom:speed>0.0</gom:speed></extensions></trkpt>
   <trkpt lat="59.0716723094" lon="29.9682595138"><ele>105.105</ele><time>2026-04-25T11:45:52.000Z</time><hdop>4.687</hdop><vdop>4.687</vdop><extensions><gom:speed>0.79</gom:speed></extensions></trkpt>
   <trkpt lat="59.0716801884" lon="29.9682535626"><ele>104.815</ele><time>2026-04-25T11:45:53.000Z</time><hdop>4.687</hdop><vdop>4.687</vdop><extensions><gom:speed>0.482</gom:speed></extensions></trkpt>
   <trkpt lat="59.0716801884" lon="29.9682535626"><ele>104.642</ele><time>2026-04-25T11:45:53.000Z</time><hdop>4.687</hdop><vdop>4.687</vdop><extensions><gom:speed>0.482</gom:speed></extensions></trkpt>
   <trkpt lat="59.0716801884" lon="29.9682535626"><ele>104.539</ele><time>2026-04-25T11:45:54.000Z</time><hdop>4.875</hdop><vdop>4.875</vdop><extensions><gom:speed>0.0</gom:speed></extensions></trkpt>
   <trkpt lat="59.0716801884" lon="29.9682535626"><ele>104.477</ele><time>2026-04-25T11:45:55.000Z</time><hdop>4.875</hdop><vdop>4.875</vdop><extensions><gom:speed>0.0</gom:speed></extensions></trkpt>
   <trkpt lat="59.0716801884" lon="29.9682535626"><ele>104.44</ele><time>2026-04-25T11:45:56.000Z</time><hdop>4.875</hdop><vdop>4.875</vdop><extensions><gom:speed>0.0</gom:speed></extensions></trkpt>
   <trkpt lat="59.0716801884" lon="29.9682535626"><ele>104.418</ele><time>2026-04-25T11:45:57.000Z</time><hdop>4.875</hdop><vdop>4.875</vdop><extensions><gom:speed>0.0</gom:speed></extensions></trkpt>
   <trkpt lat="59.0716801884" lon="29.9682535626"><ele>104.404</ele><time>2026-04-25T11:45:58.000Z</time><hdop>4.875</hdop><vdop>4.875</vdop><extensions><gom:speed>0.0</gom:speed></extensions></trkpt>
   <trkpt lat="59.0716801884" lon="29.9682535626"><ele>104.397</ele><time>2026-04-25T11:45:59.000Z</time><hdop>4.875</hdop><vdop>4.875</vdop><extensions><gom:speed>0.0</gom:speed></extensions></trkpt>
   <trkpt lat="59.0716801884" lon="29.9682535626"><ele>104.392</ele><time>2026-04-25T11:46:00.000Z</time><hdop>4.875</hdop><vdop>4.875</vdop><extensions><gom:speed>0.0</gom:speed></extensions></trkpt>
   <trkpt lat="59.0716801884" lon="29.9682535626"><ele>104.389</ele><time>2026-04-25T11:46:01.000Z</time><hdop>4.875</hdop><vdop>4.875</vdop><extensions><gom:speed>0.0</gom:speed></extensions></trkpt>
   <trkpt lat="59.0716870615" lon="29.9682484497"><ele>104.189</ele><time>2026-04-25T11:46:02.000Z</time><hdop>4.687</hdop><vdop>4.687</vdop><extensions><gom:speed>0.484</gom:speed></extensions></trkpt>
   <trkpt lat="59.0716870615" lon="29.9682484497"><ele>104.07</ele><time>2026-04-25T11:46:03.000Z</time><hdop>4.875</hdop><vdop>4.875</vdop><extensions><gom:speed>0.0</gom:speed></extensions></trkpt>
   <trkpt lat="59.0716995087" lon="29.9682345357"><ele>103.935</ele><time>2026-04-25T11:46:04.000Z</time><hdop>4.937</hdop><vdop>4.937</vdop><extensions><gom:speed>0.81</gom:speed></extensions></trkpt>
   <trkpt lat="59.0717107823" lon="29.9682174366"><ele>103.865</ele><time>2026-04-25T11:46:05.000Z</time><hdop>4.437</hdop><vdop>4.437</vdop><extensions><gom:speed>0.747</gom:speed></extensions></trkpt>
   <trkpt lat="59.0717163563" lon="29.9682088033"><ele>103.772</ele><time>2026-04-25T11:46:06.000Z</time><hdop>4.0</hdop><vdop>4.0</vdop><extensions><gom:speed>0.417</gom:speed></extensions></trkpt>
   <trkpt lat="59.0717213854" lon="29.9682022654"><ele>103.618</ele><time>2026-04-25T11:46:07.000Z</time><hdop>3.5</hdop><vdop>3.5</vdop><extensions><gom:speed>0.395</gom:speed></extensions></trkpt>
   <trkpt lat="59.0717259117" lon="29.9682013434"><ele>103.506</ele><time>2026-04-25T11:46:08.000Z</time><hdop>4.187</hdop><vdop>4.187</vdop><extensions><gom:speed>0.325</gom:speed></extensions></trkpt>
   <trkpt lat="59.0717314018" lon="29.9681999185"><ele>103.446</ele><time>2026-04-25T11:46:09.000Z</time><hdop>4.0</hdop><vdop>4.0</vdop><extensions><gom:speed>0.215</gom:speed></extensions></trkpt>
   <trkpt lat="59.0717314018" lon="29.9681999185"><ele>103.41</ele><time>2026-04-25T11:46:09.000Z</time><hdop>4.0</hdop><vdop>4.0</vdop><extensions><gom:speed>0.215</gom:speed></extensions></trkpt>
   <trkpt lat="59.0717314018" lon="29.9681999185"><ele>103.388</ele><time>2026-04-25T11:46:10.000Z</time><hdop>4.0</hdop><vdop>4.0</vdop><extensions><gom:speed>0.0</gom:speed></extensions></trkpt>
   <trkpt lat="59.0717314018" lon="29.9681999185"><ele>103.375</ele><time>2026-04-25T11:46:10.000Z</time><hdop>4.0</hdop><vdop>4.0</vdop><extensions><gom:speed>0.0</gom:speed></extensions></trkpt>
   <trkpt lat="59.0717314018" lon="29.9681999185"><ele>103.368</ele><time>2026-04-25T11:46:11.000Z</time><hdop>4.0</hdop><vdop>4.0</vdop><extensions><gom:speed>0.0</gom:speed></extensions></trkpt>
   <trkpt lat="59.0717314018" lon="29.9681999185"><ele>103.363</ele><time>2026-04-25T11:46:11.000Z</time><hdop>4.0</hdop><vdop>4.0</vdop><extensions><gom:speed>0.0</gom:speed></extensions></trkpt>
   <trkpt lat="59.0717314018" lon="29.9681999185"><ele>103.36</ele><time>2026-04-25T11:46:12.000Z</time><hdop>4.0</hdop><vdop>4.0</vdop><extensions><gom:speed>0.0</gom:speed></extensions></trkpt>
   <trkpt lat="59.0717314018" lon="29.9681999185"><ele>103.359</ele><time>2026-04-25T11:46:13.000Z</time><hdop>4.0</hdop><vdop>4.0</vdop><extensions><gom:speed>0.0</gom:speed></extensions></trkpt>
   <trkpt lat="59.0717314018" lon="29.9681999185"><ele>103.358</ele><time>2026-04-25T11:46:13.000Z</time><hdop>4.0</hdop><vdop>4.0</vdop><extensions><gom:speed>0.0</gom:speed></extensions></trkpt>
   <trkpt lat="59.0717314018" lon="29.9681999185"><ele>103.357</ele><time>2026-04-25T11:46:14.000Z</time><hdop>4.0</hdop><vdop>4.0</vdop><extensions><gom:speed>0.0</gom:speed></extensions></trkpt>
   <trkpt lat="59.0717311923" lon="29.9682014272"><ele>103.357</ele><time>2026-04-25T11:46:15.000Z</time><hdop>4.687</hdop><vdop>4.687</vdop><extensions><gom:speed>0.328</gom:speed></extensions></trkpt>
   <trkpt lat="59.0717297673" lon="29.9682030198"><ele>103.329</ele><time>2026-04-25T11:46:16.000Z</time><hdop>4.687</hdop><vdop>4.687</vdop><extensions><gom:speed>0.364</gom:speed></extensions></trkpt>
   <trkpt lat="59.0717297673" lon="29.9682030198"><ele>103.312</ele><time>2026-04-25T11:46:16.000Z</time><hdop>4.687</hdop><vdop>4.687</vdop><extensions><gom:speed>0.364</gom:speed></extensions></trkpt>
   <trkpt lat="59.0717297673" lon="29.9682030198"><ele>103.302</ele><time>2026-04-25T11:46:17.000Z</time><hdop>4.875</hdop><vdop>4.875</vdop><extensions><gom:speed>0.0</gom:speed></extensions></trkpt>
   <trkpt lat="59.0717339164" lon="29.9682054505"><ele>103.209</ele><time>2026-04-25T11:46:18.000Z</time><hdop>4.687</hdop><vdop>4.687</vdop><extensions><gom:speed>0.4</gom:speed></extensions></trkpt>
   <trkpt lat="59.0717372691" lon="29.9682049476"><ele>103.14</ele><time>2026-04-25T11:46:19.000Z</time><hdop>4.875</hdop><vdop>4.875</vdop><extensions><gom:speed>0.275</gom:speed></extensions></trkpt>
   <trkpt lat="59.0717389036" lon="29.9681974039"><ele>103.084</ele><time>2026-04-25T11:46:20.000Z</time><hdop>4.875</hdop><vdop>4.875</vdop><extensions><gom:speed>0.115</gom:speed></extensions></trkpt>
   <trkpt lat="59.0717389036" lon="29.9681974039"><ele>103.051</ele><time>2026-04-25T11:46:20.000Z</time><hdop>4.875</hdop><vdop>4.875</vdop><extensions><gom:speed>0.115</gom:speed></extensions></trkpt>
   <trkpt lat="59.0717402447" lon="29.9681990803"><ele>103.031</ele><time>2026-04-25T11:46:21.000Z</time><hdop>4.687</hdop><vdop>4.687</vdop><extensions><gom:speed>0.328</gom:speed></extensions></trkpt>
   <trkpt lat="59.0717480818" lon="29.9682000023"><ele>103.032</ele><time>2026-04-25T11:46:22.000Z</time><hdop>4.687</hdop><vdop>4.687</vdop><extensions><gom:speed>0.357</gom:speed></extensions></trkpt>
   <trkpt lat="59.0717520213" lon="29.9681994155"><ele>103.031</ele><time>2026-04-25T11:46:23.000Z</time><hdop>4.687</hdop><vdop>4.687</vdop><extensions><gom:speed>0.306</gom:speed></extensions></trkpt>
   <trkpt lat="59.0717562122" lon="29.9681951408"><ele>103.006</ele><time>2026-04-25T11:46:24.000Z</time><hdop>4.687</hdop><vdop>4.687</vdop><extensions><gom:speed>0.454</gom:speed></extensions></trkpt>
   <trkpt lat="59.0717619538" lon="29.9681873456"><ele>102.957</ele><time>2026-04-25T11:46:25.000Z</time><hdop>4.687</hdop><vdop>4.687</vdop><extensions><gom:speed>0.617</gom:speed></extensions></trkpt>
   <trkpt lat="59.0717682403" lon="29.9681863398"><ele>102.946</ele><time>2026-04-25T11:46:26.000Z</time><hdop>4.687</hdop><vdop>4.687</vdop><extensions><gom:speed>0.589</gom:speed></extensions></trkpt>
   <trkpt lat="59.0717716349" lon="29.9681856692"><ele>102.917</ele><time>2026-04-25T11:46:27.000Z</time><hdop>4.687</hdop><vdop>4.687</vdop><extensions><gom:speed>0.247</gom:speed></extensions></trkpt>
   <trkpt lat="59.0717751134" lon="29.9681777902"><ele>102.718</ele><time>2026-04-25T11:46:28.000Z</time><hdop>4.687</hdop><vdop>4.687</vdop><extensions><gom:speed>0.271</gom:speed></extensions></trkpt>
   <trkpt lat="59.0717751134" lon="29.9681777902"><ele>102.599</ele><time>2026-04-25T11:46:29.000Z</time><hdop>4.875</hdop><vdop>4.875</vdop><extensions><gom:speed>0.0</gom:speed></extensions></trkpt>
   <trkpt lat="59.0717837049" lon="29.9681847472"><ele>102.45</ele><time>2026-04-25T11:46:30.000Z</time><hdop>4.687</hdop><vdop>4.687</vdop><extensions><gom:speed>0.682</gom:speed></extensions></trkpt>
   <trkpt lat="59.0717918772" lon="29.9681902793"><ele>102.209</ele><time>2026-04-25T11:46:31.000Z</time><hdop>4.687</hdop><vdop>4.687</vdop><extensions><gom:speed>0.501</gom:speed></extensions></trkpt>
   <trkpt lat="59.0717967387" lon="29.9681921233"><ele>101.995</ele><time>2026-04-25T11:46:32.000Z</time><hdop>4.687</hdop><vdop>4.687</vdop><extensions><gom:speed>0.344</gom:speed></extensions></trkpt>
   <trkpt lat="59.0718013069" lon="29.9681893573"><ele>101.743</ele><time>2026-04-25T11:46:33.000Z</time><hdop>4.687</hdop><vdop>4.687</vdop><extensions><gom:speed>0.277</gom:speed></extensions></trkpt>
   <trkpt lat="59.0718013069" lon="29.9681893573"><ele>101.593</ele><time>2026-04-25T11:46:33.000Z</time><hdop>4.687</hdop><vdop>4.687</vdop><extensions><gom:speed>0.277</gom:speed></extensions></trkpt>
   <trkpt lat="59.071802648" lon="29.9681900278"><ele>101.417</ele><time>2026-04-25T11:46:34.000Z</time><hdop>4.687</hdop><vdop>4.687</vdop><extensions><gom:speed>0.158</gom:speed></extensions></trkpt>
   <trkpt lat="59.0717995886" lon="29.9681910336"><ele>101.312</ele><time>2026-04-25T11:46:35.000Z</time><hdop>4.875</hdop><vdop>4.875</vdop><extensions><gom:speed>0.218</gom:speed></extensions></trkpt>
   <trkpt lat="59.0717995048" lon="29.9681903631"><ele>101.306</ele><time>2026-04-25T11:46:36.000Z</time><hdop>4.875</hdop><vdop>4.875</vdop><extensions><gom:speed>0.37</gom:speed></extensions></trkpt>
   <trkpt lat="59.0717995886" lon="29.9681905307"><ele>101.332</ele><time>2026-04-25T11:46:37.000Z</time><hdop>4.875</hdop><vdop>4.875</vdop><extensions><gom:speed>0.208</gom:speed></extensions></trkpt>
   <trkpt lat="59.0717995886" lon="29.9681905307"><ele>101.347</ele><time>2026-04-25T11:46:38.000Z</time><hdop>4.875</hdop><vdop>4.875</vdop><extensions><gom:speed>0.0</gom:speed></extensions></trkpt>
   <trkpt lat="59.0717995886" lon="29.9681905307"><ele>101.357</ele><time>2026-04-25T11:46:39.000Z</time><hdop>4.875</hdop><vdop>4.875</vdop><extensions><gom:speed>0.0</gom:speed></extensions></trkpt>
   <trkpt lat="59.0717995886" lon="29.9681905307"><ele>101.362</ele><time>2026-04-25T11:46:40.000Z</time><hdop>4.875</hdop><vdop>4.875</vdop><extensions><gom:speed>0.0</gom:speed></extensions></trkpt>
   <trkpt lat="59.0717995886" lon="29.9681905307"><ele>101.365</ele><time>2026-04-25T11:46:41.000Z</time><hdop>4.875</hdop><vdop>4.875</vdop><extensions><gom:speed>0.0</gom:speed></extensions></trkpt>
   <trkpt lat="59.0717995886" lon="29.9681905307"><ele>101.367</ele><time>2026-04-25T11:46:42.000Z</time><hdop>4.875</hdop><vdop>4.875</vdop><extensions><gom:speed>0.0</gom:speed></extensions></trkpt>
   <trkpt lat="59.0717995886" lon="29.9681905307"><ele>101.369</ele><time>2026-04-25T11:46:43.000Z</time><hdop>4.875</hdop><vdop>4.875</vdop><extensions><gom:speed>0.0</gom:speed></extensions></trkpt>
   <trkpt lat="59.0717995886" lon="29.9681905307"><ele>101.369</ele><time>2026-04-25T11:46:44.000Z</time><hdop>4.875</hdop><vdop>4.875</vdop><extensions><gom:speed>0.0</gom:speed></extensions></trkpt>
   <trkpt lat="59.0717995886" lon="29.9681905307"><ele>101.37</ele><time>2026-04-25T11:46:45.000Z</time><hdop>4.875</hdop><vdop>4.875</vdop><extensions><gom:speed>0.0</gom:speed></extensions></trkpt>
   <trkpt lat="59.0717995886" lon="29.9681905307"><ele>101.37</ele><time>2026-04-25T11:46:46.000Z</time><hdop>4.875</hdop><vdop>4.875</vdop><extensions><gom:speed>0.0</gom:speed></extensions></trkpt>
   <trkpt lat="59.0717995886" lon="29.9681905307"><ele>101.37</ele><time>2026-04-25T11:46:47.000Z</time><hdop>4.875</hdop><vdop>4.875</vdop><extensions><gom:speed>0.0</gom:speed></extensions></trkpt>
   <trkpt lat="59.0717995886" lon="29.9681905307"><ele>101.37</ele><time>2026-04-25T11:46:48.000Z</time><hdop>4.875</hdop><vdop>4.875</vdop><extensions><gom:speed>0.0</gom:speed></extensions></trkpt>
   <trkpt lat="59.0717995886" lon="29.9681905307"><ele>101.37</ele><time>2026-04-25T11:46:49.000Z</time><hdop>4.875</hdop><vdop>4.875</vdop><extensions><gom:speed>0.0</gom:speed></extensions></trkpt>
   <trkpt lat="59.0717995886" lon="29.9681905307"><ele>101.37</ele><time>2026-04-25T11:46:50.000Z</time><hdop>4.875</hdop><vdop>4.875</vdop><extensions><gom:speed>0.0</gom:speed></extensions></trkpt>
   <trkpt lat="59.0717995886" lon="29.9681905307"><ele>101.37</ele><time>2026-04-25T11:46:51.000Z</time><hdop>4.875</hdop><vdop>4.875</vdop><extensions><gom:speed>0.0</gom:speed></extensions></trkpt>
   <trkpt lat="59.0717995886" lon="29.9681905307"><ele>101.37</ele><time>2026-04-25T11:46:52.000Z</time><hdop>4.875</hdop><vdop>4.875</vdop><extensions><gom:speed>0.0</gom:speed></extensions></trkpt>
   <trkpt lat="59.0717995886" lon="29.9681905307"><ele>101.37</ele><time>2026-04-25T11:46:53.000Z</time><hdop>4.875</hdop><vdop>4.875</vdop><extensions><gom:speed>0.0</gom:speed></extensions></trkpt>
   <trkpt lat="59.0717995886" lon="29.9681905307"><ele>101.37</ele><time>2026-04-25T11:46:53.000Z</time><hdop>4.875</hdop><vdop>4.875</vdop><extensions><gom:speed>0.0</gom:speed></extensions></trkpt>
   <trkpt lat="59.0717995886" lon="29.9681905307"><ele>101.37</ele><time>2026-04-25T11:46:54.000Z</time><hdop>4.875</hdop><vdop>4.875</vdop><extensions><gom:speed>0.0</gom:speed></extensions></trkpt>
   <trkpt lat="59.0717995886" lon="29.9681905307"><ele>101.37</ele><time>2026-04-25T11:46:55.000Z</time><hdop>4.875</hdop><vdop>4.875</vdop><extensions><gom:speed>0.0</gom:speed></extensions></trkpt>
   <trkpt lat="59.0717995886" lon="29.9681905307"><ele>101.37</ele><time>2026-04-25T11:46:56.000Z</time><hdop>4.875</hdop><vdop>4.875</vdop><extensions><gom:speed>0.0</gom:speed></extensions></trkpt>
   <trkpt lat="59.0718018936" lon="29.9681870103"><ele>101.371</ele><time>2026-04-25T11:46:57.000Z</time><hdop>4.687</hdop><vdop>4.687</vdop><extensions><gom:speed>0.255</gom:speed></extensions></trkpt>
   <trkpt lat="59.0718055397" lon="29.9681771197"><ele>101.372</ele><time>2026-04-25T11:46:58.000Z</time><hdop>4.687</hdop><vdop>4.687</vdop><extensions><gom:speed>0.551</gom:speed></extensions></trkpt>
   <trkpt lat="59.0718102755" lon="29.9681668938"><ele>101.356</ele><time>2026-04-25T11:46:59.000Z</time><hdop>4.687</hdop><vdop>4.687</vdop><extensions><gom:speed>0.567</gom:speed></extensions></trkpt>
   <trkpt lat="59.0718149275" lon="29.9681553267"><ele>101.345</ele><time>2026-04-25T11:47:00.000Z</time><hdop>4.937</hdop><vdop>4.937</vdop><extensions><gom:speed>0.581</gom:speed></extensions></trkpt>
   <trkpt lat="59.0718176935" lon="29.968145939"><ele>101.381</ele><time>2026-04-25T11:47:01.000Z</time><hdop>4.5</hdop><vdop>4.5</vdop><extensions><gom:speed>0.378</gom:speed></extensions></trkpt>
   <trkpt lat="59.0718205433" lon="29.9681375571"><ele>101.49</ele><time>2026-04-25T11:47:02.000Z</time><hdop>4.312</hdop><vdop>4.312</vdop><extensions><gom:speed>0.277</gom:speed></extensions></trkpt>
   <trkpt lat="59.0718234351" lon="29.9681310192"><ele>101.574</ele><time>2026-04-25T11:47:03.000Z</time><hdop>3.812</hdop><vdop>3.812</vdop><extensions><gom:speed>0.274</gom:speed></extensions></trkpt>
   <trkpt lat="59.0718255306" lon="29.9681235593"><ele>101.652</ele><time>2026-04-25T11:47:04.000Z</time><hdop>3.812</hdop><vdop>3.812</vdop><extensions><gom:speed>0.349</gom:speed></extensions></trkpt>
   <trkpt lat="59.0718256982" lon="29.9681140039"><ele>101.654</ele><time>2026-04-25T11:47:05.000Z</time><hdop>3.875</hdop><vdop>3.875</vdop><extensions><gom:speed>0.401</gom:speed></extensions></trkpt>
   <trkpt lat="59.0718260754" lon="29.9681017664"><ele>101.604</ele><time>2026-04-25T11:47:06.000Z</time><hdop>3.812</hdop><vdop>3.812</vdop><extensions><gom:speed>0.604</gom:speed></extensions></trkpt>
   <trkpt lat="59.0718269974" lon="29.9680910375"><ele>101.525</ele><time>2026-04-25T11:47:07.000Z</time><hdop>3.687</hdop><vdop>3.687</vdop><extensions><gom:speed>0.349</gom:speed></extensions></trkpt>
   <trkpt lat="59.0718293443" lon="29.9680772074"><ele>101.384</ele><time>2026-04-25T11:47:08.000Z</time><hdop>3.187</hdop><vdop>3.187</vdop><extensions><gom:speed>0.243</gom:speed></extensions></trkpt>
   <trkpt lat="59.0718306435" lon="29.9680663947"><ele>101.304</ele><time>2026-04-25T11:47:09.000Z</time><hdop>3.125</hdop><vdop>3.125</vdop><extensions><gom:speed>0.144</gom:speed></extensions></trkpt>
   <trkpt lat="59.0718343735" lon="29.9680577614"><ele>101.216</ele><time>2026-04-25T11:47:10.000Z</time><hdop>3.062</hdop><vdop>3.062</vdop><extensions><gom:speed>0.368</gom:speed></extensions></trkpt>
   <trkpt lat="59.0718343735" lon="29.9680577614"><ele>101.164</ele><time>2026-04-25T11:47:11.000Z</time><hdop>3.062</hdop><vdop>3.062</vdop><extensions><gom:speed>0.0</gom:speed></extensions></trkpt>
   <trkpt lat="59.0718343735" lon="29.9680577614"><ele>101.133</ele><time>2026-04-25T11:47:12.000Z</time><hdop>3.062</hdop><vdop>3.062</vdop><extensions><gom:speed>0.0</gom:speed></extensions></trkpt>
   <trkpt lat="59.0718371814" lon="29.9680467811"><ele>101.086</ele><time>2026-04-25T11:47:13.000Z</time><hdop>3.0</hdop><vdop>3.0</vdop><extensions><gom:speed>0.39</gom:speed></extensions></trkpt>
   <trkpt lat="59.0718371814" lon="29.9680467811"><ele>101.057</ele><time>2026-04-25T11:47:13.000Z</time><hdop>3.0</hdop><vdop>3.0</vdop><extensions><gom:speed>0.39</gom:speed></extensions></trkpt>
   <trkpt lat="59.0718394445" lon="29.9680373095"><ele>100.877</ele><time>2026-04-25T11:47:14.000Z</time><hdop>3.312</hdop><vdop>3.312</vdop><extensions><gom:speed>0.404</gom:speed></extensions></trkpt>
   <trkpt lat="59.0718445575" lon="29.9680253234"><ele>100.684</ele><time>2026-04-25T11:47:15.000Z</time><hdop>3.187</hdop><vdop>3.187</vdop><extensions><gom:speed>0.466</gom:speed></extensions></trkpt>
   <trkpt lat="59.0718479941" lon="29.9680182826"><ele>100.58</ele><time>2026-04-25T11:47:16.000Z</time><hdop>3.0</hdop><vdop>3.0</vdop><extensions><gom:speed>0.285</gom:speed></extensions></trkpt>
   <trkpt lat="59.071851724" lon="29.9680151813"><ele>100.502</ele><time>2026-04-25T11:47:17.000Z</time><hdop>3.312</hdop><vdop>3.312</vdop><extensions><gom:speed>0.374</gom:speed></extensions></trkpt>
   <trkpt lat="59.0718556635" lon="29.9680163548"><ele>100.43</ele><time>2026-04-25T11:47:18.000Z</time><hdop>3.0</hdop><vdop>3.0</vdop><extensions><gom:speed>0.343</gom:speed></extensions></trkpt>
   <trkpt lat="59.071861447" lon="29.9680186179"><ele>100.299</ele><time>2026-04-25T11:47:19.000Z</time><hdop>3.187</hdop><vdop>3.187</vdop><extensions><gom:speed>0.473</gom:speed></extensions></trkpt>
   <trkpt lat="59.0718685717" lon="29.9680214677"><ele>100.053</ele><time>2026-04-25T11:47:20.000Z</time><hdop>3.375</hdop><vdop>3.375</vdop><extensions><gom:speed>0.56</gom:speed></extensions></trkpt>
   <trkpt lat="59.0718790071" lon="29.9680242338"><ele>99.699</ele><time>2026-04-25T11:47:21.000Z</time><hdop>3.625</hdop><vdop>3.625</vdop><extensions><gom:speed>0.464</gom:speed></extensions></trkpt>
   <trkpt lat="59.0718852935" lon="29.9680255749"><ele>99.291</ele><time>2026-04-25T11:47:22.000Z</time><hdop>3.75</hdop><vdop>3.75</vdop><extensions><gom:speed>0.367</gom:speed></extensions></trkpt>
   <trkpt lat="59.0718852935" lon="29.9680255749"><ele>99.047</ele><time>2026-04-25T11:47:23.000Z</time><hdop>3.75</hdop><vdop>3.75</vdop><extensions><gom:speed>0.0</gom:speed></extensions></trkpt>
   <trkpt lat="59.0718852935" lon="29.9680255749"><ele>98.901</ele><time>2026-04-25T11:47:24.000Z</time><hdop>3.75</hdop><vdop>3.75</vdop><extensions><gom:speed>0.0</gom:speed></extensions></trkpt>
   <trkpt lat="59.0718852935" lon="29.9680255749"><ele>98.814</ele><time>2026-04-25T11:47:25.000Z</time><hdop>3.75</hdop><vdop>3.75</vdop><extensions><gom:speed>0.0</gom:speed></extensions></trkpt>
   <trkpt lat="59.0718852935" lon="29.9680255749"><ele>98.762</ele><time>2026-04-25T11:47:26.000Z</time><hdop>3.75</hdop><vdop>3.75</vdop><extensions><gom:speed>0.0</gom:speed></extensions></trkpt>
   <trkpt lat="59.0718852935" lon="29.9680255749"><ele>98.731</ele><time>2026-04-25T11:47:27.000Z</time><hdop>3.75</hdop><vdop>3.75</vdop><extensions><gom:speed>0.0</gom:speed></extensions></trkpt>
   <trkpt lat="59.0718852935" lon="29.9680255749"><ele>98.712</ele><time>2026-04-25T11:47:28.000Z</time><hdop>3.75</hdop><vdop>3.75</vdop><extensions><gom:speed>0.0</gom:speed></extensions></trkpt>
   <trkpt lat="59.0718852935" lon="29.9680255749"><ele>98.701</ele><time>2026-04-25T11:47:29.000Z</time><hdop>3.75</hdop><vdop>3.75</vdop><extensions><gom:speed>0.0</gom:speed></extensions></trkpt>
   <trkpt lat="59.0718874728" lon="29.9680233956"><ele>98.612</ele><time>2026-04-25T11:47:30.000Z</time><hdop>3.437</hdop><vdop>3.437</vdop><extensions><gom:speed>0.34</gom:speed></extensions></trkpt>
   <trkpt lat="59.0718905322" lon="29.9680194561"><ele>98.534</ele><time>2026-04-25T11:47:31.000Z</time><hdop>3.625</hdop><vdop>3.625</vdop><extensions><gom:speed>0.458</gom:speed></extensions></trkpt>
   <trkpt lat="59.0718956871" lon="29.9680098169"><ele>98.478</ele><time>2026-04-25T11:47:32.000Z</time><hdop>3.25</hdop><vdop>3.25</vdop><extensions><gom:speed>0.485</gom:speed></extensions></trkpt>
   <trkpt lat="59.0718978245" lon="29.9680017703"><ele>98.394</ele><time>2026-04-25T11:47:33.000Z</time><hdop>3.687</hdop><vdop>3.687</vdop><extensions><gom:speed>0.391</gom:speed></extensions></trkpt>
   <trkpt lat="59.0718978245" lon="29.9680017703"><ele>98.343</ele><time>2026-04-25T11:47:33.000Z</time><hdop>3.687</hdop><vdop>3.687</vdop><extensions><gom:speed>0.391</gom:speed></extensions></trkpt>
   <trkpt lat="59.0718986627" lon="29.9679942266"><ele>98.232</ele><time>2026-04-25T11:47:34.000Z</time><hdop>3.937</hdop><vdop>3.937</vdop><extensions><gom:speed>0.357</gom:speed></extensions></trkpt>
   <trkpt lat="59.0719018059" lon="29.9679862637"><ele>98.053</ele><time>2026-04-25T11:47:35.000Z</time><hdop>3.437</hdop><vdop>3.437</vdop><extensions><gom:speed>0.407</gom:speed></extensions></trkpt>
   <trkpt lat="59.07190453" lon="29.9679793906"><ele>97.959</ele><time>2026-04-25T11:47:36.000Z</time><hdop>3.687</hdop><vdop>3.687</vdop><extensions><gom:speed>0.485</gom:speed></extensions></trkpt>
   <trkpt lat="59.0719071284" lon="29.9679732718"><ele>97.901</ele><time>2026-04-25T11:47:37.000Z</time><hdop>3.937</hdop><vdop>3.937</vdop><extensions><gom:speed>0.348</gom:speed></extensions></trkpt>
   <trkpt lat="59.0719106069" lon="29.9679664825"><ele>97.888</ele><time>2026-04-25T11:47:38.000Z</time><hdop>4.0</hdop><vdop>4.0</vdop><extensions><gom:speed>0.539</gom:speed></extensions></trkpt>
   <trkpt lat="59.0719135825" lon="29.9679603637"><ele>97.889</ele><time>2026-04-25T11:47:39.000Z</time><hdop>3.812</hdop><vdop>3.812</vdop><extensions><gom:speed>0.326</gom:speed></extensions></trkpt>
   <trkpt lat="59.0719146302" lon="29.9679561727"><ele>97.887</ele><time>2026-04-25T11:47:40.000Z</time><hdop>4.0</hdop><vdop>4.0</vdop><extensions><gom:speed>0.155</gom:speed></extensions></trkpt>
   <trkpt lat="59.0719146302" lon="29.9679561727"><ele>97.886</ele><time>2026-04-25T11:47:41.000Z</time><hdop>4.0</hdop><vdop>4.0</vdop><extensions><gom:speed>0.0</gom:speed></extensions></trkpt>
   <trkpt lat="59.0719146302" lon="29.9679561727"><ele>97.885</ele><time>2026-04-25T11:47:42.000Z</time><hdop>4.0</hdop><vdop>4.0</vdop><extensions><gom:speed>0.0</gom:speed></extensions></trkpt>
   <trkpt lat="59.0719146302" lon="29.9679561727"><ele>97.884</ele><time>2026-04-25T11:47:43.000Z</time><hdop>4.0</hdop><vdop>4.0</vdop><extensions><gom:speed>0.0</gom:speed></extensions></trkpt>
   <trkpt lat="59.0719146302" lon="29.9679561727"><ele>97.884</ele><time>2026-04-25T11:47:44.000Z</time><hdop>4.0</hdop><vdop>4.0</vdop><extensions><gom:speed>0.0</gom:speed></extensions></trkpt>
   <trkpt lat="59.0719146302" lon="29.9679561727"><ele>97.884</ele><time>2026-04-25T11:47:45.000Z</time><hdop>4.0</hdop><vdop>4.0</vdop><extensions><gom:speed>0.0</gom:speed></extensions></trkpt>
   <trkpt lat="59.0719163904" lon="29.9679491319"><ele>97.713</ele><time>2026-04-25T11:47:46.000Z</time><hdop>3.375</hdop><vdop>3.375</vdop><extensions><gom:speed>0.569</gom:speed></extensions></trkpt>
   <trkpt lat="59.0719208328" lon="29.9679393251"><ele>97.417</ele><time>2026-04-25T11:47:47.000Z</time><hdop>3.0</hdop><vdop>3.0</vdop><extensions><gom:speed>0.65</gom:speed></extensions></trkpt>
   <trkpt lat="59.0719260715" lon="29.9679294344"><ele>97.144</ele><time>2026-04-25T11:47:48.000Z</time><hdop>3.312</hdop><vdop>3.312</vdop><extensions><gom:speed>0.607</gom:speed></extensions></trkpt>
   <trkpt lat="59.0719313102" lon="29.9679198791"><ele>97.045</ele><time>2026-04-25T11:47:49.000Z</time><hdop>3.812</hdop><vdop>3.812</vdop><extensions><gom:speed>0.499</gom:speed></extensions></trkpt>
   <trkpt lat="59.0719355431" lon="29.9679157719"><ele>97.038</ele><time>2026-04-25T11:47:50.000Z</time><hdop>4.375</hdop><vdop>4.375</vdop><extensions><gom:speed>0.204</gom:speed></extensions></trkpt>
   <trkpt lat="59.0719355431" lon="29.9679157719"><ele>97.034</ele><time>2026-04-25T11:47:51.000Z</time><hdop>4.375</hdop><vdop>4.375</vdop><extensions><gom:speed>0.0</gom:speed></extensions></trkpt>
   <trkpt lat="59.071938351" lon="29.9679112457"><ele>96.878</ele><time>2026-04-25T11:47:52.000Z</time><hdop>4.062</hdop><vdop>4.062</vdop><extensions><gom:speed>0.154</gom:speed></extensions></trkpt>
   <trkpt lat="59.071938351" lon="29.9679112457"><ele>96.785</ele><time>2026-04-25T11:47:53.000Z</time><hdop>4.062</hdop><vdop>4.062</vdop><extensions><gom:speed>0.0</gom:speed></extensions></trkpt>
   <trkpt lat="59.071938351" lon="29.9679112457"><ele>96.729</ele><time>2026-04-25T11:47:53.000Z</time><hdop>4.062</hdop><vdop>4.062</vdop><extensions><gom:speed>0.0</gom:speed></extensions></trkpt>
   <trkpt lat="59.071938351" lon="29.9679112457"><ele>96.696</ele><time>2026-04-25T11:47:54.000Z</time><hdop>4.062</hdop><vdop>4.062</vdop><extensions><gom:speed>0.0</gom:speed></extensions></trkpt>
   <trkpt lat="59.071938351" lon="29.9679112457"><ele>96.676</ele><time>2026-04-25T11:47:55.000Z</time><hdop>4.062</hdop><vdop>4.062</vdop><extensions><gom:speed>0.0</gom:speed></extensions></trkpt>
   <trkpt lat="59.071938351" lon="29.9679112457"><ele>96.664</ele><time>2026-04-25T11:47:56.000Z</time><hdop>4.062</hdop><vdop>4.062</vdop><extensions><gom:speed>0.0</gom:speed></extensions></trkpt>
   <trkpt lat="59.071938351" lon="29.9679112457"><ele>96.657</ele><time>2026-04-25T11:47:57.000Z</time><hdop>4.062</hdop><vdop>4.062</vdop><extensions><gom:speed>0.0</gom:speed></extensions></trkpt>
   <trkpt lat="59.071938351" lon="29.9679112457"><ele>96.653</ele><time>2026-04-25T11:47:58.000Z</time><hdop>4.062</hdop><vdop>4.062</vdop><extensions><gom:speed>0.0</gom:speed></extensions></trkpt>
   <trkpt lat="59.071938812" lon="29.9679057137"><ele>96.602</ele><time>2026-04-25T11:47:59.000Z</time><hdop>4.312</hdop><vdop>4.312</vdop><extensions><gom:speed>0.488</gom:speed></extensions></trkpt>
   <trkpt lat="59.071938812" lon="29.9679057137"><ele>96.572</ele><time>2026-04-25T11:48:00.000Z</time><hdop>4.312</hdop><vdop>4.312</vdop><extensions><gom:speed>0.0</gom:speed></extensions></trkpt>
   <trkpt lat="59.071938812" lon="29.9679057137"><ele>96.554</ele><time>2026-04-25T11:48:01.000Z</time><hdop>4.312</hdop><vdop>4.312</vdop><extensions><gom:speed>0.0</gom:speed></extensions></trkpt>
   <trkpt lat="59.071938812" lon="29.9679057137"><ele>96.543</ele><time>2026-04-25T11:48:02.000Z</time><hdop>4.312</hdop><vdop>4.312</vdop><extensions><gom:speed>0.0</gom:speed></extensions></trkpt>
   <trkpt lat="59.071938812" lon="29.9679057137"><ele>96.537</ele><time>2026-04-25T11:48:03.000Z</time><hdop>4.312</hdop><vdop>4.312</vdop><extensions><gom:speed>0.0</gom:speed></extensions></trkpt>
   <trkpt lat="59.071938812" lon="29.9679057137"><ele>96.533</ele><time>2026-04-25T11:48:04.000Z</time><hdop>4.312</hdop><vdop>4.312</vdop><extensions><gom:speed>0.0</gom:speed></extensions></trkpt>
   <trkpt lat="59.071938812" lon="29.9679057137"><ele>96.53</ele><time>2026-04-25T11:48:05.000Z</time><hdop>4.312</hdop><vdop>4.312</vdop><extensions><gom:speed>0.0</gom:speed></extensions></trkpt>
   <trkpt lat="59.071938812" lon="29.9679057137"><ele>96.529</ele><time>2026-04-25T11:48:06.000Z</time><hdop>4.312</hdop><vdop>4.312</vdop><extensions><gom:speed>0.0</gom:speed></extensions></trkpt>
   <trkpt lat="59.071938812" lon="29.9679057137"><ele>96.528</ele><time>2026-04-25T11:48:07.000Z</time><hdop>4.312</hdop><vdop>4.312</vdop><extensions><gom:speed>0.0</gom:speed></extensions></trkpt>
   <trkpt lat="59.071938812" lon="29.9679057137"><ele>96.528</ele><time>2026-04-25T11:48:08.000Z</time><hdop>4.312</hdop><vdop>4.312</vdop><extensions><gom:speed>0.0</gom:speed></extensions></trkpt>
   <trkpt lat="59.071938812" lon="29.9679057137"><ele>96.527</ele><time>2026-04-25T11:48:09.000Z</time><hdop>4.312</hdop><vdop>4.312</vdop><extensions><gom:speed>0.0</gom:speed></extensions></trkpt>
   <trkpt lat="59.071938812" lon="29.9679057137"><ele>96.527</ele><time>2026-04-25T11:48:10.000Z</time><hdop>4.312</hdop><vdop>4.312</vdop><extensions><gom:speed>0.0</gom:speed></extensions></trkpt>
   <trkpt lat="59.071938812" lon="29.9679057137"><ele>96.527</ele><time>2026-04-25T11:48:11.000Z</time><hdop>4.312</hdop><vdop>4.312</vdop><extensions><gom:speed>0.0</gom:speed></extensions></trkpt>
   <trkpt lat="59.071938812" lon="29.9679057137"><ele>96.527</ele><time>2026-04-25T11:48:12.000Z</time><hdop>4.312</hdop><vdop>4.312</vdop><extensions><gom:speed>0.0</gom:speed></extensions></trkpt>
   <trkpt lat="59.071938812" lon="29.9679057137"><ele>96.527</ele><time>2026-04-25T11:48:13.000Z</time><hdop>4.312</hdop><vdop>4.312</vdop><extensions><gom:speed>0.0</gom:speed></extensions></trkpt>
   <trkpt lat="59.071938812" lon="29.9679057137"><ele>96.527</ele><time>2026-04-25T11:48:13.000Z</time><hdop>4.312</hdop><vdop>4.312</vdop><extensions><gom:speed>0.0</gom:speed></extensions></trkpt>
   <trkpt lat="59.071938812" lon="29.9679057137"><ele>96.527</ele><time>2026-04-25T11:48:14.000Z</time><hdop>4.312</hdop><vdop>4.312</vdop><extensions><gom:speed>0.0</gom:speed></extensions></trkpt>
   <trkpt lat="59.071938812" lon="29.9679057137"><ele>96.527</ele><time>2026-04-25T11:48:15.000Z</time><hdop>4.312</hdop><vdop>4.312</vdop><extensions><gom:speed>0.0</gom:speed></extensions></trkpt>
   <trkpt lat="59.0719436316" lon="29.9679011036"><ele>96.46</ele><time>2026-04-25T11:48:16.000Z</time><hdop>4.375</hdop><vdop>4.375</vdop><extensions><gom:speed>0.591</gom:speed></extensions></trkpt>
   <trkpt lat="59.0719436316" lon="29.9679011036"><ele>96.421</ele><time>2026-04-25T11:48:17.000Z</time><hdop>4.375</hdop><vdop>4.375</vdop><extensions><gom:speed>0.0</gom:speed></extensions></trkpt>
   <trkpt lat="59.0719507981" lon="29.9678944819"><ele>96.33</ele><time>2026-04-25T11:48:18.000Z</time><hdop>4.125</hdop><vdop>4.125</vdop><extensions><gom:speed>0.416</gom:speed></extensions></trkpt>
   <trkpt lat="59.0719507981" lon="29.9678944819"><ele>96.275</ele><time>2026-04-25T11:48:19.000Z</time><hdop>4.125</hdop><vdop>4.125</vdop><extensions><gom:speed>0.0</gom:speed></extensions></trkpt>
   <trkpt lat="59.0719507981" lon="29.9678944819"><ele>96.243</ele><time>2026-04-25T11:48:20.000Z</time><hdop>4.125</hdop><vdop>4.125</vdop><extensions><gom:speed>0.0</gom:speed></extensions></trkpt>
   <trkpt lat="59.0719507981" lon="29.9678944819"><ele>96.224</ele><time>2026-04-25T11:48:21.000Z</time><hdop>4.125</hdop><vdop>4.125</vdop><extensions><gom:speed>0.0</gom:speed></extensions></trkpt>
   <trkpt lat="59.0719559949" lon="29.9678896204"><ele>96.336</ele><time>2026-04-25T11:48:22.000Z</time><hdop>4.312</hdop><vdop>4.312</vdop><extensions><gom:speed>0.396</gom:speed></extensions></trkpt>
   <trkpt lat="59.0719559949" lon="29.9678896204"><ele>96.403</ele><time>2026-04-25T11:48:23.000Z</time><hdop>4.312</hdop><vdop>4.312</vdop><extensions><gom:speed>0.0</gom:speed></extensions></trkpt>
   <trkpt lat="59.0719559949" lon="29.9678896204"><ele>96.443</ele><time>2026-04-25T11:48:24.000Z</time><hdop>4.312</hdop><vdop>4.312</vdop><extensions><gom:speed>0.0</gom:speed></extensions></trkpt>
   <trkpt lat="59.0719559949" lon="29.9678896204"><ele>96.467</ele><time>2026-04-25T11:48:25.000Z</time><hdop>4.312</hdop><vdop>4.312</vdop><extensions><gom:speed>0.0</gom:speed></extensions></trkpt>
   <trkpt lat="59.0719559949" lon="29.9678896204"><ele>96.481</ele><time>2026-04-25T11:48:26.000Z</time><hdop>4.312</hdop><vdop>4.312</vdop><extensions><gom:speed>0.0</gom:speed></extensions></trkpt>
   <trkpt lat="59.0719559949" lon="29.9678896204"><ele>96.49</ele><time>2026-04-25T11:48:27.000Z</time><hdop>4.312</hdop><vdop>4.312</vdop><extensions><gom:speed>0.0</gom:speed></extensions></trkpt>
   <trkpt lat="59.0719559949" lon="29.9678896204"><ele>96.495</ele><time>2026-04-25T11:48:28.000Z</time><hdop>4.312</hdop><vdop>4.312</vdop><extensions><gom:speed>0.0</gom:speed></extensions></trkpt>
   <trkpt lat="59.0719559949" lon="29.9678896204"><ele>96.498</ele><time>2026-04-25T11:48:29.000Z</time><hdop>4.312</hdop><vdop>4.312</vdop><extensions><gom:speed>0.0</gom:speed></extensions></trkpt>
   <trkpt lat="59.0719559949" lon="29.9678896204"><ele>96.5</ele><time>2026-04-25T11:48:30.000Z</time><hdop>4.312</hdop><vdop>4.312</vdop><extensions><gom:speed>0.0</gom:speed></extensions></trkpt>
   <trkpt lat="59.0719559949" lon="29.9678896204"><ele>96.501</ele><time>2026-04-25T11:48:31.000Z</time><hdop>4.312</hdop><vdop>4.312</vdop><extensions><gom:speed>0.0</gom:speed></extensions></trkpt>
   <trkpt lat="59.0719559949" lon="29.9678896204"><ele>96.501</ele><time>2026-04-25T11:48:32.000Z</time><hdop>4.312</hdop><vdop>4.312</vdop><extensions><gom:speed>0.0</gom:speed></extensions></trkpt>
   <trkpt lat="59.0719559949" lon="29.9678896204"><ele>96.502</ele><time>2026-04-25T11:48:33.000Z</time><hdop>4.312</hdop><vdop>4.312</vdop><extensions><gom:speed>0.0</gom:speed></extensions></trkpt>
   <trkpt lat="59.0719559949" lon="29.9678896204"><ele>96.502</ele><time>2026-04-25T11:48:33.000Z</time><hdop>4.312</hdop><vdop>4.312</vdop><extensions><gom:speed>0.0</gom:speed></extensions></trkpt>
   <trkpt lat="59.0719559949" lon="29.9678896204"><ele>96.502</ele><time>2026-04-25T11:48:34.000Z</time><hdop>4.312</hdop><vdop>4.312</vdop><extensions><gom:speed>0.0</gom:speed></extensions></trkpt>
   <trkpt lat="59.0719559949" lon="29.9678896204"><ele>96.502</ele><time>2026-04-25T11:48:35.000Z</time><hdop>4.312</hdop><vdop>4.312</vdop><extensions><gom:speed>0.0</gom:speed></extensions></trkpt>
   <trkpt lat="59.0719559949" lon="29.9678896204"><ele>96.502</ele><time>2026-04-25T11:48:36.000Z</time><hdop>4.312</hdop><vdop>4.312</vdop><extensions><gom:speed>0.0</gom:speed></extensions></trkpt>
   <trkpt lat="59.0719559949" lon="29.9678896204"><ele>96.502</ele><time>2026-04-25T11:48:37.000Z</time><hdop>4.312</hdop><vdop>4.312</vdop><extensions><gom:speed>0.0</gom:speed></extensions></trkpt>
   <trkpt lat="59.0719559949" lon="29.9678896204"><ele>96.502</ele><time>2026-04-25T11:48:38.000Z</time><hdop>4.312</hdop><vdop>4.312</vdop><extensions><gom:speed>0.0</gom:speed></extensions></trkpt>
   <trkpt lat="59.0719590962" lon="29.967887022"><ele>96.5</ele><time>2026-04-25T11:48:39.000Z</time><hdop>4.75</hdop><vdop>4.75</vdop><extensions><gom:speed>0.015</gom:speed></extensions></trkpt>
   <trkpt lat="59.0719590962" lon="29.967887022"><ele>96.499</ele><time>2026-04-25T11:48:40.000Z</time><hdop>4.75</hdop><vdop>4.75</vdop><extensions><gom:speed>0.0</gom:speed></extensions></trkpt>
   <trkpt lat="59.0719590962" lon="29.967887022"><ele>96.498</ele><time>2026-04-25T11:48:41.000Z</time><hdop>4.75</hdop><vdop>4.75</vdop><extensions><gom:speed>0.0</gom:speed></extensions></trkpt>
   <trkpt lat="59.0719590962" lon="29.967887022"><ele>96.498</ele><time>2026-04-25T11:48:42.000Z</time><hdop>4.75</hdop><vdop>4.75</vdop><extensions><gom:speed>0.0</gom:speed></extensions></trkpt>
   <trkpt lat="59.0719590962" lon="29.967887022"><ele>96.498</ele><time>2026-04-25T11:48:43.000Z</time><hdop>4.75</hdop><vdop>4.75</vdop><extensions><gom:speed>0.0</gom:speed></extensions></trkpt>
   <trkpt lat="59.0719590962" lon="29.967887022"><ele>96.498</ele><time>2026-04-25T11:48:44.000Z</time><hdop>4.75</hdop><vdop>4.75</vdop><extensions><gom:speed>0.0</gom:speed></extensions></trkpt>
   <trkpt lat="59.0719590962" lon="29.967887022"><ele>96.498</ele><time>2026-04-25T11:48:45.000Z</time><hdop>4.75</hdop><vdop>4.75</vdop><extensions><gom:speed>0.0</gom:speed></extensions></trkpt>
   <trkpt lat="59.0719590962" lon="29.967887022"><ele>96.498</ele><time>2026-04-25T11:48:46.000Z</time><hdop>4.75</hdop><vdop>4.75</vdop><extensions><gom:speed>0.0</gom:speed></extensions></trkpt>
   <trkpt lat="59.0719590962" lon="29.967887022"><ele>96.497</ele><time>2026-04-25T11:48:47.000Z</time><hdop>4.75</hdop><vdop>4.75</vdop><extensions><gom:speed>0.0</gom:speed></extensions></trkpt>
   <trkpt lat="59.0719590962" lon="29.967887022"><ele>96.497</ele><time>2026-04-25T11:48:48.000Z</time><hdop>4.75</hdop><vdop>4.75</vdop><extensions><gom:speed>0.0</gom:speed></extensions></trkpt>
   <trkpt lat="59.0719590962" lon="29.967887022"><ele>96.497</ele><time>2026-04-25T11:48:49.000Z</time><hdop>4.75</hdop><vdop>4.75</vdop><extensions><gom:speed>0.0</gom:speed></extensions></trkpt>
   <trkpt lat="59.0719590962" lon="29.967887022"><ele>96.497</ele><time>2026-04-25T11:48:50.000Z</time><hdop>4.75</hdop><vdop>4.75</vdop><extensions><gom:speed>0.0</gom:speed></extensions></trkpt>
   <trkpt lat="59.0719590962" lon="29.967887022"><ele>96.497</ele><time>2026-04-25T11:48:51.000Z</time><hdop>4.75</hdop><vdop>4.75</vdop><extensions><gom:speed>0.0</gom:speed></extensions></trkpt>
   <trkpt lat="59.0719590962" lon="29.967887022"><ele>96.497</ele><time>2026-04-25T11:48:52.000Z</time><hdop>4.75</hdop><vdop>4.75</vdop><extensions><gom:speed>0.0</gom:speed></extensions></trkpt>
   <trkpt lat="59.0719590962" lon="29.967887022"><ele>96.497</ele><time>2026-04-25T11:48:53.000Z</time><hdop>4.75</hdop><vdop>4.75</vdop><extensions><gom:speed>0.0</gom:speed></extensions></trkpt>
   <trkpt lat="59.0719590962" lon="29.967887022"><ele>96.497</ele><time>2026-04-25T11:48:53.000Z</time><hdop>4.75</hdop><vdop>4.75</vdop><extensions><gom:speed>0.0</gom:speed></extensions></trkpt>
   <trkpt lat="59.0719590962" lon="29.967887022"><ele>96.497</ele><time>2026-04-25T11:48:54.000Z</time><hdop>4.75</hdop><vdop>4.75</vdop><extensions><gom:speed>0.0</gom:speed></extensions></trkpt>
   <trkpt lat="59.0719650893" lon="29.9678829149"><ele>96.557</ele><time>2026-04-25T11:48:55.000Z</time><hdop>4.437</hdop><vdop>4.437</vdop><extensions><gom:speed>0.278</gom:speed></extensions></trkpt>
   <trkpt lat="59.0719650893" lon="29.9678829149"><ele>96.593</ele><time>2026-04-25T11:48:56.000Z</time><hdop>4.437</hdop><vdop>4.437</vdop><extensions><gom:speed>0.0</gom:speed></extensions></trkpt>
   <trkpt lat="59.0719650893" lon="29.9678829149"><ele>96.614</ele><time>2026-04-25T11:48:57.000Z</time><hdop>4.437</hdop><vdop>4.437</vdop><extensions><gom:speed>0.0</gom:speed></extensions></trkpt>
   <trkpt lat="59.0719650893" lon="29.9678829149"><ele>96.627</ele><time>2026-04-25T11:48:58.000Z</time><hdop>4.437</hdop><vdop>4.437</vdop><extensions><gom:speed>0.0</gom:speed></extensions></trkpt>
   <trkpt lat="59.0719650893" lon="29.9678829149"><ele>96.635</ele><time>2026-04-25T11:48:59.000Z</time><hdop>4.437</hdop><vdop>4.437</vdop><extensions><gom:speed>0.0</gom:speed></extensions></trkpt>
   <trkpt lat="59.0719650893" lon="29.9678829149"><ele>96.639</ele><time>2026-04-25T11:49:00.000Z</time><hdop>4.437</hdop><vdop>4.437</vdop><extensions><gom:speed>0.0</gom:speed></extensions></trkpt>
   <trkpt lat="59.0719650893" lon="29.9678829149"><ele>96.642</ele><time>2026-04-25T11:49:01.000Z</time><hdop>4.437</hdop><vdop>4.437</vdop><extensions><gom:speed>0.0</gom:speed></extensions></trkpt>
   <trkpt lat="59.0719650893" lon="29.9678829149"><ele>96.643</ele><time>2026-04-25T11:49:02.000Z</time><hdop>4.437</hdop><vdop>4.437</vdop><extensions><gom:speed>0.0</gom:speed></extensions></trkpt>
   <trkpt lat="59.0719650893" lon="29.9678829149"><ele>96.644</ele><time>2026-04-25T11:49:03.000Z</time><hdop>4.437</hdop><vdop>4.437</vdop><extensions><gom:speed>0.0</gom:speed></extensions></trkpt>
   <trkpt lat="59.0719650893" lon="29.9678829149"><ele>96.645</ele><time>2026-04-25T11:49:04.000Z</time><hdop>4.437</hdop><vdop>4.437</vdop><extensions><gom:speed>0.0</gom:speed></extensions></trkpt>
   <trkpt lat="59.0719650893" lon="29.9678829149"><ele>96.645</ele><time>2026-04-25T11:49:05.000Z</time><hdop>4.437</hdop><vdop>4.437</vdop><extensions><gom:speed>0.0</gom:speed></extensions></trkpt>
   <trkpt lat="59.0719650893" lon="29.9678829149"><ele>96.646</ele><time>2026-04-25T11:49:06.000Z</time><hdop>4.437</hdop><vdop>4.437</vdop><extensions><gom:speed>0.0</gom:speed></extensions></trkpt>
   <trkpt lat="59.0719650893" lon="29.9678829149"><ele>96.646</ele><time>2026-04-25T11:49:07.000Z</time><hdop>4.437</hdop><vdop>4.437</vdop><extensions><gom:speed>0.0</gom:speed></extensions></trkpt>
   <trkpt lat="59.0719666399" lon="29.9678804841"><ele>96.756</ele><time>2026-04-25T11:49:08.000Z</time><hdop>4.75</hdop><vdop>4.75</vdop><extensions><gom:speed>0.24</gom:speed></extensions></trkpt>
   <trkpt lat="59.0719666399" lon="29.9678804841"><ele>96.822</ele><time>2026-04-25T11:49:09.000Z</time><hdop>4.75</hdop><vdop>4.75</vdop><extensions><gom:speed>0.0</gom:speed></extensions></trkpt>
   <trkpt lat="59.0719666399" lon="29.9678804841"><ele>96.862</ele><time>2026-04-25T11:49:10.000Z</time><hdop>4.75</hdop><vdop>4.75</vdop><extensions><gom:speed>0.0</gom:speed></extensions></trkpt>
   <trkpt lat="59.0719666399" lon="29.9678804841"><ele>96.885</ele><time>2026-04-25T11:49:11.000Z</time><hdop>4.75</hdop><vdop>4.75</vdop><extensions><gom:speed>0.0</gom:speed></extensions></trkpt>
   <trkpt lat="59.0719666399" lon="29.9678804841"><ele>96.899</ele><time>2026-04-25T11:49:12.000Z</time><hdop>4.75</hdop><vdop>4.75</vdop><extensions><gom:speed>0.0</gom:speed></extensions></trkpt>
   <trkpt lat="59.0719666399" lon="29.9678804841"><ele>96.908</ele><time>2026-04-25T11:49:13.000Z</time><hdop>4.75</hdop><vdop>4.75</vdop><extensions><gom:speed>0.0</gom:speed></extensions></trkpt>
   <trkpt lat="59.0719666399" lon="29.9678804841"><ele>96.913</ele><time>2026-04-25T11:49:13.000Z</time><hdop>4.75</hdop><vdop>4.75</vdop><extensions><gom:speed>0.0</gom:speed></extensions></trkpt>
   <trkpt lat="59.0719666399" lon="29.9678804841"><ele>96.916</ele><time>2026-04-25T11:49:14.000Z</time><hdop>4.75</hdop><vdop>4.75</vdop><extensions><gom:speed>0.0</gom:speed></extensions></trkpt>
   <trkpt lat="59.0719666399" lon="29.9678804841"><ele>96.917</ele><time>2026-04-25T11:49:15.000Z</time><hdop>4.75</hdop><vdop>4.75</vdop><extensions><gom:speed>0.0</gom:speed></extensions></trkpt>
   <trkpt lat="59.0719666399" lon="29.9678804841"><ele>96.919</ele><time>2026-04-25T11:49:16.000Z</time><hdop>4.75</hdop><vdop>4.75</vdop><extensions><gom:speed>0.0</gom:speed></extensions></trkpt>
   <trkpt lat="59.0719666399" lon="29.9678804841"><ele>96.919</ele><time>2026-04-25T11:49:17.000Z</time><hdop>4.75</hdop><vdop>4.75</vdop><extensions><gom:speed>0.0</gom:speed></extensions></trkpt>
   <trkpt lat="59.0719666399" lon="29.9678804841"><ele>96.92</ele><time>2026-04-25T11:49:18.000Z</time><hdop>4.75</hdop><vdop>4.75</vdop><extensions><gom:speed>0.0</gom:speed></extensions></trkpt>
   <trkpt lat="59.0719666399" lon="29.9678804841"><ele>96.92</ele><time>2026-04-25T11:49:19.000Z</time><hdop>4.75</hdop><vdop>4.75</vdop><extensions><gom:speed>0.0</gom:speed></extensions></trkpt>
   <trkpt lat="59.0719666399" lon="29.9678804841"><ele>96.92</ele><time>2026-04-25T11:49:20.000Z</time><hdop>4.75</hdop><vdop>4.75</vdop><extensions><gom:speed>0.0</gom:speed></extensions></trkpt>
   <trkpt lat="59.0719666399" lon="29.9678804841"><ele>96.92</ele><time>2026-04-25T11:49:21.000Z</time><hdop>4.75</hdop><vdop>4.75</vdop><extensions><gom:speed>0.0</gom:speed></extensions></trkpt>
   <trkpt lat="59.0719666399" lon="29.9678804841"><ele>96.92</ele><time>2026-04-25T11:49:22.000Z</time><hdop>4.75</hdop><vdop>4.75</vdop><extensions><gom:speed>0.0</gom:speed></extensions></trkpt>
   <trkpt lat="59.0719666399" lon="29.9678804841"><ele>96.92</ele><time>2026-04-25T11:49:23.000Z</time><hdop>4.75</hdop><vdop>4.75</vdop><extensions><gom:speed>0.0</gom:speed></extensions></trkpt>
   <trkpt lat="59.0719666399" lon="29.9678804841"><ele>96.92</ele><time>2026-04-25T11:49:24.000Z</time><hdop>4.75</hdop><vdop>4.75</vdop><extensions><gom:speed>0.0</gom:speed></extensions></trkpt>
   <trkpt lat="59.0719666399" lon="29.9678804841"><ele>96.92</ele><time>2026-04-25T11:49:25.000Z</time><hdop>4.75</hdop><vdop>4.75</vdop><extensions><gom:speed>0.0</gom:speed></extensions></trkpt>
   <trkpt lat="59.0719666399" lon="29.9678804841"><ele>96.92</ele><time>2026-04-25T11:49:26.000Z</time><hdop>4.75</hdop><vdop>4.75</vdop><extensions><gom:speed>0.0</gom:speed></extensions></trkpt>
   <trkpt lat="59.0719666399" lon="29.9678804841"><ele>96.92</ele><time>2026-04-25T11:49:27.000Z</time><hdop>4.75</hdop><vdop>4.75</vdop><extensions><gom:speed>0.0</gom:speed></extensions></trkpt>
   <trkpt lat="59.0719666399" lon="29.9678804841"><ele>96.92</ele><time>2026-04-25T11:49:28.000Z</time><hdop>4.75</hdop><vdop>4.75</vdop><extensions><gom:speed>0.0</gom:speed></extensions></trkpt>
   <trkpt lat="59.0719655922" lon="29.9678852618"><ele>97.053</ele><time>2026-04-25T11:49:29.000Z</time><hdop>4.687</hdop><vdop>4.687</vdop><extensions><gom:speed>0.478</gom:speed></extensions></trkpt>
   <trkpt lat="59.0719655922" lon="29.9678852618"><ele>97.132</ele><time>2026-04-25T11:49:30.000Z</time><hdop>4.875</hdop><vdop>4.875</vdop><extensions><gom:speed>0.0</gom:speed></extensions></trkpt>
   <trkpt lat="59.0719655922" lon="29.9678852618"><ele>97.18</ele><time>2026-04-25T11:49:31.000Z</time><hdop>4.875</hdop><vdop>4.875</vdop><extensions><gom:speed>0.0</gom:speed></extensions></trkpt>
   <trkpt lat="59.0719632452" lon="29.967893979"><ele>97.165</ele><time>2026-04-25T11:49:32.000Z</time><hdop>4.687</hdop><vdop>4.687</vdop><extensions><gom:speed>0.552</gom:speed></extensions></trkpt>
   <trkpt lat="59.0719632452" lon="29.967893979"><ele>97.156</ele><time>2026-04-25T11:49:33.000Z</time><hdop>4.875</hdop><vdop>4.875</vdop><extensions><gom:speed>0.0</gom:speed></extensions></trkpt>
   <trkpt lat="59.0719632452" lon="29.967893979"><ele>97.15</ele><time>2026-04-25T11:49:33.000Z</time><hdop>4.875</hdop><vdop>4.875</vdop><extensions><gom:speed>0.0</gom:speed></extensions></trkpt>
   <trkpt lat="59.0719632452" lon="29.967893979"><ele>97.147</ele><time>2026-04-25T11:49:34.000Z</time><hdop>4.875</hdop><vdop>4.875</vdop><extensions><gom:speed>0.0</gom:speed></extensions></trkpt>
   <trkpt lat="59.0719632452" lon="29.967893979"><ele>97.145</ele><time>2026-04-25T11:49:35.000Z</time><hdop>4.875</hdop><vdop>4.875</vdop><extensions><gom:speed>0.0</gom:speed></extensions></trkpt>
   <trkpt lat="59.0719632452" lon="29.967893979"><ele>97.144</ele><time>2026-04-25T11:49:36.000Z</time><hdop>4.875</hdop><vdop>4.875</vdop><extensions><gom:speed>0.0</gom:speed></extensions></trkpt>
   <trkpt lat="59.0719632452" lon="29.967893979"><ele>97.143</ele><time>2026-04-25T11:49:37.000Z</time><hdop>4.875</hdop><vdop>4.875</vdop><extensions><gom:speed>0.0</gom:speed></extensions></trkpt>
   <trkpt lat="59.0719632452" lon="29.967893979"><ele>97.143</ele><time>2026-04-25T11:49:38.000Z</time><hdop>4.875</hdop><vdop>4.875</vdop><extensions><gom:speed>0.0</gom:speed></extensions></trkpt>
   <trkpt lat="59.0719632452" lon="29.967893979"><ele>97.143</ele><time>2026-04-25T11:49:39.000Z</time><hdop>4.875</hdop><vdop>4.875</vdop><extensions><gom:speed>0.0</gom:speed></extensions></trkpt>
   <trkpt lat="59.0719632452" lon="29.967893979"><ele>97.142</ele><time>2026-04-25T11:49:40.000Z</time><hdop>4.875</hdop><vdop>4.875</vdop><extensions><gom:speed>0.0</gom:speed></extensions></trkpt>
   <trkpt lat="59.0719632452" lon="29.967893979"><ele>97.142</ele><time>2026-04-25T11:49:41.000Z</time><hdop>4.875</hdop><vdop>4.875</vdop><extensions><gom:speed>0.0</gom:speed></extensions></trkpt>
   <trkpt lat="59.0719632452" lon="29.967893979"><ele>97.142</ele><time>2026-04-25T11:49:42.000Z</time><hdop>4.875</hdop><vdop>4.875</vdop><extensions><gom:speed>0.0</gom:speed></extensions></trkpt>
   <trkpt lat="59.0719632452" lon="29.967893979"><ele>97.142</ele><time>2026-04-25T11:49:43.000Z</time><hdop>4.875</hdop><vdop>4.875</vdop><extensions><gom:speed>0.0</gom:speed></extensions></trkpt>
   <trkpt lat="59.0719632452" lon="29.967893979"><ele>97.142</ele><time>2026-04-25T11:49:44.000Z</time><hdop>4.875</hdop><vdop>4.875</vdop><extensions><gom:speed>0.0</gom:speed></extensions></trkpt>
   <trkpt lat="59.0719632452" lon="29.967893979"><ele>97.142</ele><time>2026-04-25T11:49:45.000Z</time><hdop>4.875</hdop><vdop>4.875</vdop><extensions><gom:speed>0.0</gom:speed></extensions></trkpt>
   <trkpt lat="59.0719632452" lon="29.967893979"><ele>97.142</ele><time>2026-04-25T11:49:46.000Z</time><hdop>4.875</hdop><vdop>4.875</vdop><extensions><gom:speed>0.0</gom:speed></extensions></trkpt>
   <trkpt lat="59.0719632452" lon="29.967893979"><ele>97.142</ele><time>2026-04-25T11:49:47.000Z</time><hdop>4.875</hdop><vdop>4.875</vdop><extensions><gom:speed>0.0</gom:speed></extensions></trkpt>
   <trkpt lat="59.0719632452" lon="29.967893979"><ele>97.142</ele><time>2026-04-25T11:49:48.000Z</time><hdop>4.875</hdop><vdop>4.875</vdop><extensions><gom:speed>0.0</gom:speed></extensions></trkpt>
   <trkpt lat="59.0719632452" lon="29.967893979"><ele>97.142</ele><time>2026-04-25T11:49:49.000Z</time><hdop>4.875</hdop><vdop>4.875</vdop><extensions><gom:speed>0.0</gom:speed></extensions></trkpt>
   <trkpt lat="59.0719632452" lon="29.967893979"><ele>97.142</ele><time>2026-04-25T11:49:50.000Z</time><hdop>4.875</hdop><vdop>4.875</vdop><extensions><gom:speed>0.0</gom:speed></extensions></trkpt>
   <trkpt lat="59.0719632452" lon="29.967893979"><ele>97.142</ele><time>2026-04-25T11:49:51.000Z</time><hdop>4.875</hdop><vdop>4.875</vdop><extensions><gom:speed>0.0</gom:speed></extensions></trkpt>
   <trkpt lat="59.0719632452" lon="29.967893979"><ele>97.142</ele><time>2026-04-25T11:49:52.000Z</time><hdop>4.875</hdop><vdop>4.875</vdop><extensions><gom:speed>0.0</gom:speed></extensions></trkpt>
   <trkpt lat="59.0719632452" lon="29.967893979"><ele>97.142</ele><time>2026-04-25T11:49:53.000Z</time><hdop>4.875</hdop><vdop>4.875</vdop><extensions><gom:speed>0.0</gom:speed></extensions></trkpt>
   <trkpt lat="59.0719632452" lon="29.967893979"><ele>97.142</ele><time>2026-04-25T11:49:53.000Z</time><hdop>4.875</hdop><vdop>4.875</vdop><extensions><gom:speed>0.0</gom:speed></extensions></trkpt>
   <trkpt lat="59.0719632452" lon="29.967893979"><ele>97.142</ele><time>2026-04-25T11:49:54.000Z</time><hdop>4.875</hdop><vdop>4.875</vdop><extensions><gom:speed>0.0</gom:speed></extensions></trkpt>
   <trkpt lat="59.0719632452" lon="29.967893979"><ele>97.142</ele><time>2026-04-25T11:49:55.000Z</time><hdop>4.875</hdop><vdop>4.875</vdop><extensions><gom:speed>0.0</gom:speed></extensions></trkpt>
   <trkpt lat="59.0719632452" lon="29.967893979"><ele>97.142</ele><time>2026-04-25T11:49:56.000Z</time><hdop>4.875</hdop><vdop>4.875</vdop><extensions><gom:speed>0.0</gom:speed></extensions></trkpt>
   <trkpt lat="59.0719632452" lon="29.967893979"><ele>97.142</ele><time>2026-04-25T11:49:57.000Z</time><hdop>4.875</hdop><vdop>4.875</vdop><extensions><gom:speed>0.0</gom:speed></extensions></trkpt>
   <trkpt lat="59.0719632452" lon="29.967893979"><ele>97.142</ele><time>2026-04-25T11:49:58.000Z</time><hdop>4.875</hdop><vdop>4.875</vdop><extensions><gom:speed>0.0</gom:speed></extensions></trkpt>
   <trkpt lat="59.0719632452" lon="29.967893979"><ele>97.142</ele><time>2026-04-25T11:49:59.000Z</time><hdop>4.875</hdop><vdop>4.875</vdop><extensions><gom:speed>0.0</gom:speed></extensions></trkpt>
   <trkpt lat="59.0719632452" lon="29.967893979"><ele>97.142</ele><time>2026-04-25T11:50:00.000Z</time><hdop>4.875</hdop><vdop>4.875</vdop><extensions><gom:speed>0.0</gom:speed></extensions></trkpt>
   <trkpt lat="59.0719632452" lon="29.967893979"><ele>97.142</ele><time>2026-04-25T11:50:01.000Z</time><hdop>4.875</hdop><vdop>4.875</vdop><extensions><gom:speed>0.0</gom:speed></extensions></trkpt>
   <trkpt lat="59.0719632452" lon="29.967893979"><ele>97.142</ele><time>2026-04-25T11:50:02.000Z</time><hdop>4.875</hdop><vdop>4.875</vdop><extensions><gom:speed>0.0</gom:speed></extensions></trkpt>
   <trkpt lat="59.0719632452" lon="29.967893979"><ele>97.142</ele><time>2026-04-25T11:50:03.000Z</time><hdop>4.875</hdop><vdop>4.875</vdop><extensions><gom:speed>0.0</gom:speed></extensions></trkpt>
   <trkpt lat="59.0719632452" lon="29.967893979"><ele>97.142</ele><time>2026-04-25T11:50:04.000Z</time><hdop>4.875</hdop><vdop>4.875</vdop><extensions><gom:speed>0.0</gom:speed></extensions></trkpt>
   <trkpt lat="59.0719632452" lon="29.967893979"><ele>97.142</ele><time>2026-04-25T11:50:05.000Z</time><hdop>4.875</hdop><vdop>4.875</vdop><extensions><gom:speed>0.0</gom:speed></extensions></trkpt>
   <trkpt lat="59.0719632452" lon="29.967893979"><ele>97.142</ele><time>2026-04-25T11:50:06.000Z</time><hdop>4.875</hdop><vdop>4.875</vdop><extensions><gom:speed>0.0</gom:speed></extensions></trkpt>
   <trkpt lat="59.0719632452" lon="29.967893979"><ele>97.142</ele><time>2026-04-25T11:50:07.000Z</time><hdop>4.875</hdop><vdop>4.875</vdop><extensions><gom:speed>0.0</gom:speed></extensions></trkpt>
   <trkpt lat="59.0719632452" lon="29.967893979"><ele>97.142</ele><time>2026-04-25T11:50:08.000Z</time><hdop>4.875</hdop><vdop>4.875</vdop><extensions><gom:speed>0.0</gom:speed></extensions></trkpt>
   <trkpt lat="59.0719632452" lon="29.967893979"><ele>97.142</ele><time>2026-04-25T11:50:09.000Z</time><hdop>4.875</hdop><vdop>4.875</vdop><extensions><gom:speed>0.0</gom:speed></extensions></trkpt>
   <trkpt lat="59.0719632452" lon="29.967893979"><ele>97.142</ele><time>2026-04-25T11:50:10.000Z</time><hdop>4.875</hdop><vdop>4.875</vdop><extensions><gom:speed>0.0</gom:speed></extensions></trkpt>
   <trkpt lat="59.0719632452" lon="29.967893979"><ele>97.142</ele><time>2026-04-25T11:50:11.000Z</time><hdop>4.875</hdop><vdop>4.875</vdop><extensions><gom:speed>0.0</gom:speed></extensions></trkpt>
   <trkpt lat="59.0719632452" lon="29.967893979"><ele>97.142</ele><time>2026-04-25T11:50:12.000Z</time><hdop>4.875</hdop><vdop>4.875</vdop><extensions><gom:speed>0.0</gom:speed></extensions></trkpt>
   <trkpt lat="59.0719632452" lon="29.967893979"><ele>97.142</ele><time>2026-04-25T11:50:13.000Z</time><hdop>4.875</hdop><vdop>4.875</vdop><extensions><gom:speed>0.0</gom:speed></extensions></trkpt>
   <trkpt lat="59.0719632452" lon="29.967893979"><ele>97.142</ele><time>2026-04-25T11:50:13.000Z</time><hdop>4.875</hdop><vdop>4.875</vdop><extensions><gom:speed>0.0</gom:speed></extensions></trkpt>
   <trkpt lat="59.0719632452" lon="29.967893979"><ele>97.142</ele><time>2026-04-25T11:50:14.000Z</time><hdop>4.875</hdop><vdop>4.875</vdop><extensions><gom:speed>0.0</gom:speed></extensions></trkpt>
   <trkpt lat="59.0719632452" lon="29.967893979"><ele>97.142</ele><time>2026-04-25T11:50:15.000Z</time><hdop>4.875</hdop><vdop>4.875</vdop><extensions><gom:speed>0.0</gom:speed></extensions></trkpt>
   <trkpt lat="59.0719632452" lon="29.967893979"><ele>97.142</ele><time>2026-04-25T11:50:16.000Z</time><hdop>4.875</hdop><vdop>4.875</vdop><extensions><gom:speed>0.0</gom:speed></extensions></trkpt>
   <trkpt lat="59.0719632452" lon="29.967893979"><ele>97.142</ele><time>2026-04-25T11:50:17.000Z</time><hdop>4.875</hdop><vdop>4.875</vdop><extensions><gom:speed>0.0</gom:speed></extensions></trkpt>
   <trkpt lat="59.0719632452" lon="29.967893979"><ele>97.142</ele><time>2026-04-25T11:50:18.000Z</time><hdop>4.875</hdop><vdop>4.875</vdop><extensions><gom:speed>0.0</gom:speed></extensions></trkpt>
   <trkpt lat="59.0719632452" lon="29.967893979"><ele>97.142</ele><time>2026-04-25T11:50:19.000Z</time><hdop>4.875</hdop><vdop>4.875</vdop><extensions><gom:speed>0.0</gom:speed></extensions></trkpt>
   <trkpt lat="59.0719632452" lon="29.967893979"><ele>97.142</ele><time>2026-04-25T11:50:20.000Z</time><hdop>4.875</hdop><vdop>4.875</vdop><extensions><gom:speed>0.0</gom:speed></extensions></trkpt>
   <trkpt lat="59.0719673943" lon="29.9678901233"><ele>97.107</ele><time>2026-04-25T11:50:21.000Z</time><hdop>4.562</hdop><vdop>4.562</vdop><extensions><gom:speed>0.434</gom:speed></extensions></trkpt>
   <trkpt lat="59.0719673943" lon="29.9678901233"><ele>97.085</ele><time>2026-04-25T11:50:22.000Z</time><hdop>4.562</hdop><vdop>4.562</vdop><extensions><gom:speed>0.0</gom:speed></extensions></trkpt>
   <trkpt lat="59.0719708309" lon="29.9678859324"><ele>97.078</ele><time>2026-04-25T11:50:23.000Z</time><hdop>4.187</hdop><vdop>4.187</vdop><extensions><gom:speed>0.401</gom:speed></extensions></trkpt>
   <trkpt lat="59.0719751476" lon="29.9678819929"><ele>97.014</ele><time>2026-04-25T11:50:24.000Z</time><hdop>4.875</hdop><vdop>4.875</vdop><extensions><gom:speed>0.553</gom:speed></extensions></trkpt>
   <trkpt lat="59.0719794223" lon="29.9678774666"><ele>96.932</ele><time>2026-04-25T11:50:25.000Z</time><hdop>4.312</hdop><vdop>4.312</vdop><extensions><gom:speed>0.352</gom:speed></extensions></trkpt>
   <trkpt lat="59.0719810149" lon="29.9678725213"><ele>96.909</ele><time>2026-04-25T11:50:26.000Z</time><hdop>4.437</hdop><vdop>4.437</vdop><extensions><gom:speed>0.31</gom:speed></extensions></trkpt>
   <trkpt lat="59.0719810149" lon="29.9678725213"><ele>96.895</ele><time>2026-04-25T11:50:27.000Z</time><hdop>4.437</hdop><vdop>4.437</vdop><extensions><gom:speed>0.0</gom:speed></extensions></trkpt>
   <trkpt lat="59.0719810149" lon="29.9678725213"><ele>96.887</ele><time>2026-04-25T11:50:28.000Z</time><hdop>4.437</hdop><vdop>4.437</vdop><extensions><gom:speed>0.0</gom:speed></extensions></trkpt>
   <trkpt lat="59.0719810149" lon="29.9678725213"><ele>96.882</ele><time>2026-04-25T11:50:29.000Z</time><hdop>4.437</hdop><vdop>4.437</vdop><extensions><gom:speed>0.0</gom:speed></extensions></trkpt>
   <trkpt lat="59.0719830265" lon="29.9678686656"><ele>96.82</ele><time>2026-04-25T11:50:30.000Z</time><hdop>4.687</hdop><vdop>4.687</vdop><extensions><gom:speed>0.625</gom:speed></extensions></trkpt>
   <trkpt lat="59.0719830265" lon="29.9678686656"><ele>96.782</ele><time>2026-04-25T11:50:31.000Z</time><hdop>4.875</hdop><vdop>4.875</vdop><extensions><gom:speed>0.0</gom:speed></extensions></trkpt>
   <trkpt lat="59.0719854992" lon="29.9678658996"><ele>96.809</ele><time>2026-04-25T11:50:32.000Z</time><hdop>4.687</hdop><vdop>4.687</vdop><extensions><gom:speed>0.679</gom:speed></extensions></trkpt>
   <trkpt lat="59.0719916599" lon="29.9678622954"><ele>96.809</ele><time>2026-04-25T11:50:33.000Z</time><hdop>4.687</hdop><vdop>4.687</vdop><extensions><gom:speed>0.679</gom:speed></extensions></trkpt>
   <trkpt lat="59.0719916599" lon="29.9678622954"><ele>96.81</ele><time>2026-04-25T11:50:33.000Z</time><hdop>4.687</hdop><vdop>4.687</vdop><extensions><gom:speed>0.679</gom:speed></extensions></trkpt>
   <trkpt lat="59.0719975272" lon="29.9678611219"><ele>96.776</ele><time>2026-04-25T11:50:34.000Z</time><hdop>4.687</hdop><vdop>4.687</vdop><extensions><gom:speed>0.551</gom:speed></extensions></trkpt>
   <trkpt lat="59.0720040651" lon="29.9678562604"><ele>96.672</ele><time>2026-04-25T11:50:35.000Z</time><hdop>4.687</hdop><vdop>4.687</vdop><extensions><gom:speed>0.889</gom:speed></extensions></trkpt>
   <trkpt lat="59.0720104773" lon="29.9678503931"><ele>96.613</ele><time>2026-04-25T11:50:36.000Z</time><hdop>4.687</hdop><vdop>4.687</vdop><extensions><gom:speed>0.604</gom:speed></extensions></trkpt>
   <trkpt lat="59.0720151711" lon="29.9678470403"><ele>96.595</ele><time>2026-04-25T11:50:37.000Z</time><hdop>4.687</hdop><vdop>4.687</vdop><extensions><gom:speed>0.556</gom:speed></extensions></trkpt>
   <trkpt lat="59.0720196974" lon="29.9678447772"><ele>96.57</ele><time>2026-04-25T11:50:38.000Z</time><hdop>4.875</hdop><vdop>4.875</vdop><extensions><gom:speed>0.294</gom:speed></extensions></trkpt>
   <trkpt lat="59.0720205775" lon="29.9678440228"><ele>96.603</ele><time>2026-04-25T11:50:39.000Z</time><hdop>4.875</hdop><vdop>4.875</vdop><extensions><gom:speed>0.168</gom:speed></extensions></trkpt>
   <trkpt lat="59.0720190687" lon="29.9678431008"><ele>96.729</ele><time>2026-04-25T11:50:40.000Z</time><hdop>4.75</hdop><vdop>4.75</vdop><extensions><gom:speed>0.195</gom:speed></extensions></trkpt>
   <trkpt lat="59.0720190687" lon="29.9678431008"><ele>96.804</ele><time>2026-04-25T11:50:41.000Z</time><hdop>4.75</hdop><vdop>4.75</vdop><extensions><gom:speed>0.0</gom:speed></extensions></trkpt>
   <trkpt lat="59.0720190687" lon="29.9678431008"><ele>96.848</ele><time>2026-04-25T11:50:42.000Z</time><hdop>4.75</hdop><vdop>4.75</vdop><extensions><gom:speed>0.0</gom:speed></extensions></trkpt>
   <trkpt lat="59.0720190687" lon="29.9678431008"><ele>96.875</ele><time>2026-04-25T11:50:43.000Z</time><hdop>4.75</hdop><vdop>4.75</vdop><extensions><gom:speed>0.0</gom:speed></extensions></trkpt>
   <trkpt lat="59.0720181467" lon="29.9678451125"><ele>96.99</ele><time>2026-04-25T11:50:44.000Z</time><hdop>4.937</hdop><vdop>4.937</vdop><extensions><gom:speed>0.34</gom:speed></extensions></trkpt>
   <trkpt lat="59.0720181467" lon="29.9678451125"><ele>97.058</ele><time>2026-04-25T11:50:45.000Z</time><hdop>4.875</hdop><vdop>4.875</vdop><extensions><gom:speed>0.0</gom:speed></extensions></trkpt>
   <trkpt lat="59.0720181467" lon="29.9678451125"><ele>97.099</ele><time>2026-04-25T11:50:46.000Z</time><hdop>4.875</hdop><vdop>4.875</vdop><extensions><gom:speed>0.0</gom:speed></extensions></trkpt>
   <trkpt lat="59.0720181467" lon="29.9678451125"><ele>97.123</ele><time>2026-04-25T11:50:47.000Z</time><hdop>4.875</hdop><vdop>4.875</vdop><extensions><gom:speed>0.0</gom:speed></extensions></trkpt>
   <trkpt lat="59.0720181467" lon="29.9678451125"><ele>97.138</ele><time>2026-04-25T11:50:48.000Z</time><hdop>4.875</hdop><vdop>4.875</vdop><extensions><gom:speed>0.0</gom:speed></extensions></trkpt>
   <trkpt lat="59.0720181467" lon="29.9678451125"><ele>97.147</ele><time>2026-04-25T11:50:49.000Z</time><hdop>4.875</hdop><vdop>4.875</vdop><extensions><gom:speed>0.0</gom:speed></extensions></trkpt>
   <trkpt lat="59.0720181467" lon="29.9678451125"><ele>97.152</ele><time>2026-04-25T11:50:50.000Z</time><hdop>4.875</hdop><vdop>4.875</vdop><extensions><gom:speed>0.0</gom:speed></extensions></trkpt>
   <trkpt lat="59.0720181467" lon="29.9678451125"><ele>97.155</ele><time>2026-04-25T11:50:51.000Z</time><hdop>4.875</hdop><vdop>4.875</vdop><extensions><gom:speed>0.0</gom:speed></extensions></trkpt>
   <trkpt lat="59.0720181467" lon="29.9678451125"><ele>97.157</ele><time>2026-04-25T11:50:52.000Z</time><hdop>4.875</hdop><vdop>4.875</vdop><extensions><gom:speed>0.0</gom:speed></extensions></trkpt>
   <trkpt lat="59.0720181467" lon="29.9678451125"><ele>97.158</ele><time>2026-04-25T11:50:53.000Z</time><hdop>4.875</hdop><vdop>4.875</vdop><extensions><gom:speed>0.0</gom:speed></extensions></trkpt>
   <trkpt lat="59.0720181467" lon="29.9678451125"><ele>97.159</ele><time>2026-04-25T11:50:53.000Z</time><hdop>4.875</hdop><vdop>4.875</vdop><extensions><gom:speed>0.0</gom:speed></extensions></trkpt>
   <trkpt lat="59.0720181467" lon="29.9678451125"><ele>97.159</ele><time>2026-04-25T11:50:54.000Z</time><hdop>4.875</hdop><vdop>4.875</vdop><extensions><gom:speed>0.0</gom:speed></extensions></trkpt>
   <trkpt lat="59.0720181467" lon="29.9678451125"><ele>97.159</ele><time>2026-04-25T11:50:55.000Z</time><hdop>4.875</hdop><vdop>4.875</vdop><extensions><gom:speed>0.0</gom:speed></extensions></trkpt>
   <trkpt lat="59.0720181467" lon="29.9678451125"><ele>97.159</ele><time>2026-04-25T11:50:56.000Z</time><hdop>4.875</hdop><vdop>4.875</vdop><extensions><gom:speed>0.0</gom:speed></extensions></trkpt>
   <trkpt lat="59.0720181467" lon="29.9678451125"><ele>97.16</ele><time>2026-04-25T11:50:57.000Z</time><hdop>4.875</hdop><vdop>4.875</vdop><extensions><gom:speed>0.0</gom:speed></extensions></trkpt>
   <trkpt lat="59.0720181467" lon="29.9678451125"><ele>97.16</ele><time>2026-04-25T11:50:58.000Z</time><hdop>4.875</hdop><vdop>4.875</vdop><extensions><gom:speed>0.0</gom:speed></extensions></trkpt>
   <trkpt lat="59.0720181467" lon="29.9678451125"><ele>97.16</ele><time>2026-04-25T11:50:59.000Z</time><hdop>4.875</hdop><vdop>4.875</vdop><extensions><gom:speed>0.0</gom:speed></extensions></trkpt>
   <trkpt lat="59.0720181467" lon="29.9678451125"><ele>97.16</ele><time>2026-04-25T11:51:00.000Z</time><hdop>4.875</hdop><vdop>4.875</vdop><extensions><gom:speed>0.0</gom:speed></extensions></trkpt>
   <trkpt lat="59.0720181467" lon="29.9678451125"><ele>97.16</ele><time>2026-04-25T11:51:01.000Z</time><hdop>4.875</hdop><vdop>4.875</vdop><extensions><gom:speed>0.0</gom:speed></extensions></trkpt>
   <trkpt lat="59.0720181467" lon="29.9678451125"><ele>97.16</ele><time>2026-04-25T11:51:02.000Z</time><hdop>4.875</hdop><vdop>4.875</vdop><extensions><gom:speed>0.0</gom:speed></extensions></trkpt>
   <trkpt lat="59.0720181467" lon="29.9678451125"><ele>97.16</ele><time>2026-04-25T11:51:03.000Z</time><hdop>4.875</hdop><vdop>4.875</vdop><extensions><gom:speed>0.0</gom:speed></extensions></trkpt>
   <trkpt lat="59.0720181467" lon="29.9678451125"><ele>97.16</ele><time>2026-04-25T11:51:04.000Z</time><hdop>4.875</hdop><vdop>4.875</vdop><extensions><gom:speed>0.0</gom:speed></extensions></trkpt>
   <trkpt lat="59.0720181467" lon="29.9678451125"><ele>97.16</ele><time>2026-04-25T11:51:05.000Z</time><hdop>4.875</hdop><vdop>4.875</vdop><extensions><gom:speed>0.0</gom:speed></extensions></trkpt>
   <trkpt lat="59.0720181467" lon="29.9678451125"><ele>97.16</ele><time>2026-04-25T11:51:06.000Z</time><hdop>4.875</hdop><vdop>4.875</vdop><extensions><gom:speed>0.0</gom:speed></extensions></trkpt>
   <trkpt lat="59.0720181467" lon="29.9678451125"><ele>97.16</ele><time>2026-04-25T11:51:07.000Z</time><hdop>4.875</hdop><vdop>4.875</vdop><extensions><gom:speed>0.0</gom:speed></extensions></trkpt>
   <trkpt lat="59.0720181467" lon="29.9678451125"><ele>97.16</ele><time>2026-04-25T11:51:08.000Z</time><hdop>4.875</hdop><vdop>4.875</vdop><extensions><gom:speed>0.0</gom:speed></extensions></trkpt>
   <trkpt lat="59.0720181467" lon="29.9678451125"><ele>97.16</ele><time>2026-04-25T11:51:09.000Z</time><hdop>4.875</hdop><vdop>4.875</vdop><extensions><gom:speed>0.0</gom:speed></extensions></trkpt>
   <trkpt lat="59.0720181467" lon="29.9678451125"><ele>97.16</ele><time>2026-04-25T11:51:10.000Z</time><hdop>4.875</hdop><vdop>4.875</vdop><extensions><gom:speed>0.0</gom:speed></extensions></trkpt>
   <trkpt lat="59.0720181467" lon="29.9678451125"><ele>97.16</ele><time>2026-04-25T11:51:11.000Z</time><hdop>4.875</hdop><vdop>4.875</vdop><extensions><gom:speed>0.0</gom:speed></extensions></trkpt>
   <trkpt lat="59.0720181467" lon="29.9678451125"><ele>97.16</ele><time>2026-04-25T11:51:12.000Z</time><hdop>4.875</hdop><vdop>4.875</vdop><extensions><gom:speed>0.0</gom:speed></extensions></trkpt>
   <trkpt lat="59.0720181467" lon="29.9678451125"><ele>97.16</ele><time>2026-04-25T11:51:13.000Z</time><hdop>4.875</hdop><vdop>4.875</vdop><extensions><gom:speed>0.0</gom:speed></extensions></trkpt>
   <trkpt lat="59.0720181467" lon="29.9678451125"><ele>97.16</ele><time>2026-04-25T11:51:13.000Z</time><hdop>4.875</hdop><vdop>4.875</vdop><extensions><gom:speed>0.0</gom:speed></extensions></trkpt>
   <trkpt lat="59.0720181467" lon="29.9678451125"><ele>97.16</ele><time>2026-04-25T11:51:14.000Z</time><hdop>4.875</hdop><vdop>4.875</vdop><extensions><gom:speed>0.0</gom:speed></extensions></trkpt>
   <trkpt lat="59.0720181467" lon="29.9678451125"><ele>97.16</ele><time>2026-04-25T11:51:15.000Z</time><hdop>4.875</hdop><vdop>4.875</vdop><extensions><gom:speed>0.0</gom:speed></extensions></trkpt>
   <trkpt lat="59.0720181467" lon="29.9678451125"><ele>97.16</ele><time>2026-04-25T11:51:16.000Z</time><hdop>4.875</hdop><vdop>4.875</vdop><extensions><gom:speed>0.0</gom:speed></extensions></trkpt>
   <trkpt lat="59.0720181467" lon="29.9678451125"><ele>97.16</ele><time>2026-04-25T11:51:17.000Z</time><hdop>4.875</hdop><vdop>4.875</vdop><extensions><gom:speed>0.0</gom:speed></extensions></trkpt>
   <trkpt lat="59.0720181467" lon="29.9678451125"><ele>97.16</ele><time>2026-04-25T11:51:18.000Z</time><hdop>4.875</hdop><vdop>4.875</vdop><extensions><gom:speed>0.0</gom:speed></extensions></trkpt>
   <trkpt lat="59.0720161351" lon="29.9678484653"><ele>97.048</ele><time>2026-04-25T11:51:19.000Z</time><hdop>4.312</hdop><vdop>4.312</vdop><extensions><gom:speed>0.284</gom:speed></extensions></trkpt>
   <trkpt lat="59.0720161351" lon="29.9678484653"><ele>96.981</ele><time>2026-04-25T11:51:20.000Z</time><hdop>4.312</hdop><vdop>4.312</vdop><extensions><gom:speed>0.0</gom:speed></extensions></trkpt>
   <trkpt lat="59.0720161351" lon="29.9678484653"><ele>96.941</ele><time>2026-04-25T11:51:21.000Z</time><hdop>4.312</hdop><vdop>4.312</vdop><extensions><gom:speed>0.0</gom:speed></extensions></trkpt>
   <trkpt lat="59.0720161351" lon="29.9678484653"><ele>96.917</ele><time>2026-04-25T11:51:22.000Z</time><hdop>4.312</hdop><vdop>4.312</vdop><extensions><gom:speed>0.0</gom:speed></extensions></trkpt>
   <trkpt lat="59.0720161351" lon="29.9678484653"><ele>96.902</ele><time>2026-04-25T11:51:23.000Z</time><hdop>4.312</hdop><vdop>4.312</vdop><extensions><gom:speed>0.0</gom:speed></extensions></trkpt>
   <trkpt lat="59.0720161351" lon="29.9678484653"><ele>96.894</ele><time>2026-04-25T11:51:24.000Z</time><hdop>4.312</hdop><vdop>4.312</vdop><extensions><gom:speed>0.0</gom:speed></extensions></trkpt>
   <trkpt lat="59.0720113574" lon="29.967855087"><ele>96.854</ele><time>2026-04-25T11:51:25.000Z</time><hdop>4.062</hdop><vdop>4.062</vdop><extensions><gom:speed>0.592</gom:speed></extensions></trkpt>
   <trkpt lat="59.0720041908" lon="29.9678627983"><ele>96.745</ele><time>2026-04-25T11:51:26.000Z</time><hdop>3.687</hdop><vdop>3.687</vdop><extensions><gom:speed>0.598</gom:speed></extensions></trkpt>
   <trkpt lat="59.0719961861" lon="29.9678653129"><ele>96.664</ele><time>2026-04-25T11:51:27.000Z</time><hdop>3.437</hdop><vdop>3.437</vdop><extensions><gom:speed>0.738</gom:speed></extensions></trkpt>
   <trkpt lat="59.0719896902" lon="29.9678696715"><ele>96.533</ele><time>2026-04-25T11:51:28.000Z</time><hdop>3.062</hdop><vdop>3.062</vdop><extensions><gom:speed>0.649</gom:speed></extensions></trkpt>
   <trkpt lat="59.0719834456" lon="29.9678767961"><ele>96.303</ele><time>2026-04-25T11:51:29.000Z</time><hdop>3.0</hdop><vdop>3.0</vdop><extensions><gom:speed>0.62</gom:speed></extensions></trkpt>
   <trkpt lat="59.0719784165" lon="29.9678788916"><ele>96.127</ele><time>2026-04-25T11:51:30.000Z</time><hdop>3.0</hdop><vdop>3.0</vdop><extensions><gom:speed>0.146</gom:speed></extensions></trkpt>
   <trkpt lat="59.0719772011" lon="29.967884256"><ele>95.93</ele><time>2026-04-25T11:51:31.000Z</time><hdop>3.0</hdop><vdop>3.0</vdop><extensions><gom:speed>0.136</gom:speed></extensions></trkpt>
   <trkpt lat="59.0719780812" lon="29.9678882793"><ele>95.789</ele><time>2026-04-25T11:51:32.000Z</time><hdop>3.0</hdop><vdop>3.0</vdop><extensions><gom:speed>0.192</gom:speed></extensions></trkpt>
   <trkpt lat="59.0719780812" lon="29.9678882793"><ele>95.705</ele><time>2026-04-25T11:51:33.000Z</time><hdop>3.0</hdop><vdop>3.0</vdop><extensions><gom:speed>0.0</gom:speed></extensions></trkpt>
   <trkpt lat="59.0719780812" lon="29.9678882793"><ele>95.654</ele><time>2026-04-25T11:51:33.000Z</time><hdop>3.0</hdop><vdop>3.0</vdop><extensions><gom:speed>0.0</gom:speed></extensions></trkpt>
   <trkpt lat="59.0719780812" lon="29.9678882793"><ele>95.624</ele><time>2026-04-25T11:51:34.000Z</time><hdop>3.0</hdop><vdop>3.0</vdop><extensions><gom:speed>0.0</gom:speed></extensions></trkpt>
   <trkpt lat="59.0719780812" lon="29.9678882793"><ele>95.606</ele><time>2026-04-25T11:51:35.000Z</time><hdop>3.0</hdop><vdop>3.0</vdop><extensions><gom:speed>0.0</gom:speed></extensions></trkpt>
   <trkpt lat="59.0719780812" lon="29.9678882793"><ele>95.595</ele><time>2026-04-25T11:51:36.000Z</time><hdop>3.0</hdop><vdop>3.0</vdop><extensions><gom:speed>0.0</gom:speed></extensions></trkpt>
   <trkpt lat="59.0719780812" lon="29.9678882793"><ele>95.589</ele><time>2026-04-25T11:51:37.000Z</time><hdop>3.0</hdop><vdop>3.0</vdop><extensions><gom:speed>0.0</gom:speed></extensions></trkpt>
   <trkpt lat="59.0719780812" lon="29.9678882793"><ele>95.585</ele><time>2026-04-25T11:51:38.000Z</time><hdop>3.0</hdop><vdop>3.0</vdop><extensions><gom:speed>0.0</gom:speed></extensions></trkpt>
   <trkpt lat="59.0719780812" lon="29.9678882793"><ele>95.583</ele><time>2026-04-25T11:51:39.000Z</time><hdop>3.0</hdop><vdop>3.0</vdop><extensions><gom:speed>0.0</gom:speed></extensions></trkpt>
   <trkpt lat="59.0719780812" lon="29.9678882793"><ele>95.582</ele><time>2026-04-25T11:51:40.000Z</time><hdop>3.0</hdop><vdop>3.0</vdop><extensions><gom:speed>0.0</gom:speed></extensions></trkpt>
   <trkpt lat="59.0719780812" lon="29.9678882793"><ele>95.581</ele><time>2026-04-25T11:51:41.000Z</time><hdop>3.0</hdop><vdop>3.0</vdop><extensions><gom:speed>0.0</gom:speed></extensions></trkpt>
   <trkpt lat="59.0719780812" lon="29.9678882793"><ele>95.58</ele><time>2026-04-25T11:51:42.000Z</time><hdop>3.0</hdop><vdop>3.0</vdop><extensions><gom:speed>0.0</gom:speed></extensions></trkpt>
   <trkpt lat="59.0719780812" lon="29.9678882793"><ele>95.58</ele><time>2026-04-25T11:51:43.000Z</time><hdop>3.0</hdop><vdop>3.0</vdop><extensions><gom:speed>0.0</gom:speed></extensions></trkpt>
   <trkpt lat="59.0719780812" lon="29.9678882793"><ele>95.58</ele><time>2026-04-25T11:51:44.000Z</time><hdop>3.0</hdop><vdop>3.0</vdop><extensions><gom:speed>0.0</gom:speed></extensions></trkpt>
   <trkpt lat="59.0719780812" lon="29.9678882793"><ele>95.58</ele><time>2026-04-25T11:51:45.000Z</time><hdop>3.0</hdop><vdop>3.0</vdop><extensions><gom:speed>0.0</gom:speed></extensions></trkpt>
   <trkpt lat="59.0719780812" lon="29.9678882793"><ele>95.58</ele><time>2026-04-25T11:51:46.000Z</time><hdop>3.0</hdop><vdop>3.0</vdop><extensions><gom:speed>0.0</gom:speed></extensions></trkpt>
   <trkpt lat="59.0719780812" lon="29.9678882793"><ele>95.58</ele><time>2026-04-25T11:51:47.000Z</time><hdop>3.0</hdop><vdop>3.0</vdop><extensions><gom:speed>0.0</gom:speed></extensions></trkpt>
   <trkpt lat="59.0719780812" lon="29.9678882793"><ele>95.58</ele><time>2026-04-25T11:51:48.000Z</time><hdop>3.0</hdop><vdop>3.0</vdop><extensions><gom:speed>0.0</gom:speed></extensions></trkpt>
   <trkpt lat="59.0719780812" lon="29.9678882793"><ele>95.579</ele><time>2026-04-25T11:51:49.000Z</time><hdop>3.0</hdop><vdop>3.0</vdop><extensions><gom:speed>0.0</gom:speed></extensions></trkpt>
   <trkpt lat="59.0719780812" lon="29.9678882793"><ele>95.579</ele><time>2026-04-25T11:51:50.000Z</time><hdop>3.0</hdop><vdop>3.0</vdop><extensions><gom:speed>0.0</gom:speed></extensions></trkpt>
   <trkpt lat="59.0719780812" lon="29.9678882793"><ele>95.579</ele><time>2026-04-25T11:51:51.000Z</time><hdop>3.0</hdop><vdop>3.0</vdop><extensions><gom:speed>0.0</gom:speed></extensions></trkpt>
   <trkpt lat="59.0719780812" lon="29.9678882793"><ele>95.579</ele><time>2026-04-25T11:51:52.000Z</time><hdop>3.0</hdop><vdop>3.0</vdop><extensions><gom:speed>0.0</gom:speed></extensions></trkpt>
   <trkpt lat="59.0719780812" lon="29.9678882793"><ele>95.579</ele><time>2026-04-25T11:51:53.000Z</time><hdop>3.0</hdop><vdop>3.0</vdop><extensions><gom:speed>0.0</gom:speed></extensions></trkpt>
   <trkpt lat="59.0719780812" lon="29.9678882793"><ele>95.579</ele><time>2026-04-25T11:51:53.000Z</time><hdop>3.0</hdop><vdop>3.0</vdop><extensions><gom:speed>0.0</gom:speed></extensions></trkpt>
   <trkpt lat="59.0719780812" lon="29.9678882793"><ele>95.579</ele><time>2026-04-25T11:51:54.000Z</time><hdop>3.0</hdop><vdop>3.0</vdop><extensions><gom:speed>0.0</gom:speed></extensions></trkpt>
   <trkpt lat="59.0719780812" lon="29.9678882793"><ele>95.579</ele><time>2026-04-25T11:51:55.000Z</time><hdop>3.0</hdop><vdop>3.0</vdop><extensions><gom:speed>0.0</gom:speed></extensions></trkpt>
   <trkpt lat="59.0719780812" lon="29.9678882793"><ele>95.579</ele><time>2026-04-25T11:51:56.000Z</time><hdop>3.0</hdop><vdop>3.0</vdop><extensions><gom:speed>0.0</gom:speed></extensions></trkpt>
   <trkpt lat="59.0719780812" lon="29.9678882793"><ele>95.579</ele><time>2026-04-25T11:51:57.000Z</time><hdop>3.0</hdop><vdop>3.0</vdop><extensions><gom:speed>0.0</gom:speed></extensions></trkpt>
   <trkpt lat="59.0719780812" lon="29.9678882793"><ele>95.579</ele><time>2026-04-25T11:51:58.000Z</time><hdop>3.0</hdop><vdop>3.0</vdop><extensions><gom:speed>0.0</gom:speed></extensions></trkpt>
   <trkpt lat="59.0719780812" lon="29.9678882793"><ele>95.579</ele><time>2026-04-25T11:51:59.000Z</time><hdop>3.0</hdop><vdop>3.0</vdop><extensions><gom:speed>0.0</gom:speed></extensions></trkpt>
   <trkpt lat="59.0719780812" lon="29.9678882793"><ele>95.579</ele><time>2026-04-25T11:52:00.000Z</time><hdop>3.0</hdop><vdop>3.0</vdop><extensions><gom:speed>0.0</gom:speed></extensions></trkpt>
   <trkpt lat="59.0719780812" lon="29.9678882793"><ele>95.579</ele><time>2026-04-25T11:52:01.000Z</time><hdop>3.0</hdop><vdop>3.0</vdop><extensions><gom:speed>0.0</gom:speed></extensions></trkpt>
   <trkpt lat="59.0719780812" lon="29.9678882793"><ele>95.579</ele><time>2026-04-25T11:52:02.000Z</time><hdop>3.0</hdop><vdop>3.0</vdop><extensions><gom:speed>0.0</gom:speed></extensions></trkpt>
   <trkpt lat="59.0719780812" lon="29.9678882793"><ele>95.579</ele><time>2026-04-25T11:52:03.000Z</time><hdop>3.0</hdop><vdop>3.0</vdop><extensions><gom:speed>0.0</gom:speed></extensions></trkpt>
   <trkpt lat="59.0719780812" lon="29.9678882793"><ele>95.579</ele><time>2026-04-25T11:52:04.000Z</time><hdop>3.0</hdop><vdop>3.0</vdop><extensions><gom:speed>0.0</gom:speed></extensions></trkpt>
   <trkpt lat="59.0719780812" lon="29.9678882793"><ele>95.579</ele><time>2026-04-25T11:52:05.000Z</time><hdop>3.0</hdop><vdop>3.0</vdop><extensions><gom:speed>0.0</gom:speed></extensions></trkpt>
   <trkpt lat="59.0719780812" lon="29.9678882793"><ele>95.579</ele><time>2026-04-25T11:52:06.000Z</time><hdop>3.0</hdop><vdop>3.0</vdop><extensions><gom:speed>0.0</gom:speed></extensions></trkpt>
   <trkpt lat="59.0719780812" lon="29.9678882793"><ele>95.579</ele><time>2026-04-25T11:52:07.000Z</time><hdop>3.0</hdop><vdop>3.0</vdop><extensions><gom:speed>0.0</gom:speed></extensions></trkpt>
   <trkpt lat="59.0719780812" lon="29.9678882793"><ele>95.579</ele><time>2026-04-25T11:52:08.000Z</time><hdop>3.0</hdop><vdop>3.0</vdop><extensions><gom:speed>0.0</gom:speed></extensions></trkpt>
   <trkpt lat="59.0719780812" lon="29.9678882793"><ele>95.579</ele><time>2026-04-25T11:52:09.000Z</time><hdop>3.0</hdop><vdop>3.0</vdop><extensions><gom:speed>0.0</gom:speed></extensions></trkpt>
   <trkpt lat="59.0719780812" lon="29.9678882793"><ele>95.579</ele><time>2026-04-25T11:52:10.000Z</time><hdop>3.0</hdop><vdop>3.0</vdop><extensions><gom:speed>0.0</gom:speed></extensions></trkpt>
   <trkpt lat="59.0719780812" lon="29.9678882793"><ele>95.579</ele><time>2026-04-25T11:52:11.000Z</time><hdop>3.0</hdop><vdop>3.0</vdop><extensions><gom:speed>0.0</gom:speed></extensions></trkpt>
   <trkpt lat="59.0719780812" lon="29.9678882793"><ele>95.579</ele><time>2026-04-25T11:52:12.000Z</time><hdop>3.0</hdop><vdop>3.0</vdop><extensions><gom:speed>0.0</gom:speed></extensions></trkpt>
   <trkpt lat="59.0719780812" lon="29.9678882793"><ele>95.579</ele><time>2026-04-25T11:52:13.000Z</time><hdop>3.0</hdop><vdop>3.0</vdop><extensions><gom:speed>0.0</gom:speed></extensions></trkpt>
   <trkpt lat="59.0719780812" lon="29.9678882793"><ele>95.579</ele><time>2026-04-25T11:52:13.000Z</time><hdop>3.0</hdop><vdop>3.0</vdop><extensions><gom:speed>0.0</gom:speed></extensions></trkpt>
   <trkpt lat="59.0719780812" lon="29.9678882793"><ele>95.579</ele><time>2026-04-25T11:52:14.000Z</time><hdop>3.0</hdop><vdop>3.0</vdop><extensions><gom:speed>0.0</gom:speed></extensions></trkpt>
   <trkpt lat="59.0719780812" lon="29.9678882793"><ele>95.579</ele><time>2026-04-25T11:52:15.000Z</time><hdop>3.0</hdop><vdop>3.0</vdop><extensions><gom:speed>0.0</gom:speed></extensions></trkpt>
   <trkpt lat="59.0719780812" lon="29.9678882793"><ele>95.579</ele><time>2026-04-25T11:52:16.000Z</time><hdop>3.0</hdop><vdop>3.0</vdop><extensions><gom:speed>0.0</gom:speed></extensions></trkpt>
   <trkpt lat="59.0719780812" lon="29.9678882793"><ele>95.579</ele><time>2026-04-25T11:52:17.000Z</time><hdop>3.0</hdop><vdop>3.0</vdop><extensions><gom:speed>0.0</gom:speed></extensions></trkpt>
   <trkpt lat="59.0719780812" lon="29.9678882793"><ele>95.579</ele><time>2026-04-25T11:52:18.000Z</time><hdop>3.0</hdop><vdop>3.0</vdop><extensions><gom:speed>0.0</gom:speed></extensions></trkpt>
   <trkpt lat="59.0719780812" lon="29.9678882793"><ele>95.579</ele><time>2026-04-25T11:52:19.000Z</time><hdop>3.0</hdop><vdop>3.0</vdop><extensions><gom:speed>0.0</gom:speed></extensions></trkpt>
   <trkpt lat="59.0719780812" lon="29.9678882793"><ele>95.579</ele><time>2026-04-25T11:52:20.000Z</time><hdop>3.0</hdop><vdop>3.0</vdop><extensions><gom:speed>0.0</gom:speed></extensions></trkpt>
   <trkpt lat="59.0719780812" lon="29.9678882793"><ele>95.579</ele><time>2026-04-25T11:52:21.000Z</time><hdop>3.0</hdop><vdop>3.0</vdop><extensions><gom:speed>0.0</gom:speed></extensions></trkpt>
   <trkpt lat="59.0719780812" lon="29.9678882793"><ele>95.579</ele><time>2026-04-25T11:52:22.000Z</time><hdop>3.0</hdop><vdop>3.0</vdop><extensions><gom:speed>0.0</gom:speed></extensions></trkpt>
   <trkpt lat="59.0719780812" lon="29.9678882793"><ele>95.579</ele><time>2026-04-25T11:52:23.000Z</time><hdop>3.0</hdop><vdop>3.0</vdop><extensions><gom:speed>0.0</gom:speed></extensions></trkpt>
   <trkpt lat="59.0719780812" lon="29.9678882793"><ele>95.579</ele><time>2026-04-25T11:52:24.000Z</time><hdop>3.0</hdop><vdop>3.0</vdop><extensions><gom:speed>0.0</gom:speed></extensions></trkpt>
   <trkpt lat="59.0719780812" lon="29.9678882793"><ele>95.579</ele><time>2026-04-25T11:52:25.000Z</time><hdop>3.0</hdop><vdop>3.0</vdop><extensions><gom:speed>0.0</gom:speed></extensions></trkpt>
   <trkpt lat="59.0719780812" lon="29.9678882793"><ele>95.579</ele><time>2026-04-25T11:52:26.000Z</time><hdop>3.0</hdop><vdop>3.0</vdop><extensions><gom:speed>0.0</gom:speed></extensions></trkpt>
   <trkpt lat="59.0719780812" lon="29.9678882793"><ele>95.579</ele><time>2026-04-25T11:52:27.000Z</time><hdop>3.0</hdop><vdop>3.0</vdop><extensions><gom:speed>0.0</gom:speed></extensions></trkpt>
   <trkpt lat="59.0719780812" lon="29.9678882793"><ele>95.579</ele><time>2026-04-25T11:52:28.000Z</time><hdop>3.0</hdop><vdop>3.0</vdop><extensions><gom:speed>0.0</gom:speed></extensions></trkpt>
   <trkpt lat="59.0719780812" lon="29.9678882793"><ele>95.579</ele><time>2026-04-25T11:52:29.000Z</time><hdop>3.0</hdop><vdop>3.0</vdop><extensions><gom:speed>0.0</gom:speed></extensions></trkpt>
   <trkpt lat="59.0719780812" lon="29.9678882793"><ele>95.579</ele><time>2026-04-25T11:52:30.000Z</time><hdop>3.0</hdop><vdop>3.0</vdop><extensions><gom:speed>0.0</gom:speed></extensions></trkpt>
   <trkpt lat="59.0719780812" lon="29.9678882793"><ele>95.579</ele><time>2026-04-25T11:52:31.000Z</time><hdop>3.0</hdop><vdop>3.0</vdop><extensions><gom:speed>0.0</gom:speed></extensions></trkpt>
   <trkpt lat="59.0719780812" lon="29.9678882793"><ele>95.579</ele><time>2026-04-25T11:52:31.000Z</time><hdop>3.0</hdop><vdop>3.0</vdop><extensions><gom:speed>0.0</gom:speed></extensions></trkpt>
   <trkpt lat="59.0719780812" lon="29.9678882793"><ele>95.579</ele><time>2026-04-25T11:52:32.000Z</time><hdop>3.0</hdop><vdop>3.0</vdop><extensions><gom:speed>0.0</gom:speed></extensions></trkpt>
   <trkpt lat="59.0719780812" lon="29.9678882793"><ele>95.579</ele><time>2026-04-25T11:52:33.000Z</time><hdop>3.0</hdop><vdop>3.0</vdop><extensions><gom:speed>0.0</gom:speed></extensions></trkpt>
   <trkpt lat="59.0719780812" lon="29.9678882793"><ele>95.579</ele><time>2026-04-25T11:52:33.000Z</time><hdop>3.0</hdop><vdop>3.0</vdop><extensions><gom:speed>0.0</gom:speed></extensions></trkpt>
   <trkpt lat="59.0719780812" lon="29.9678882793"><ele>95.579</ele><time>2026-04-25T11:52:34.000Z</time><hdop>3.0</hdop><vdop>3.0</vdop><extensions><gom:speed>0.0</gom:speed></extensions></trkpt>
   <trkpt lat="59.0719780812" lon="29.9678882793"><ele>95.579</ele><time>2026-04-25T11:52:35.000Z</time><hdop>3.0</hdop><vdop>3.0</vdop><extensions><gom:speed>0.0</gom:speed></extensions></trkpt>
   <trkpt lat="59.0719780812" lon="29.9678882793"><ele>95.579</ele><time>2026-04-25T11:52:36.000Z</time><hdop>3.0</hdop><vdop>3.0</vdop><extensions><gom:speed>0.0</gom:speed></extensions></trkpt>
   <trkpt lat="59.0719780812" lon="29.9678882793"><ele>95.579</ele><time>2026-04-25T11:52:37.000Z</time><hdop>3.0</hdop><vdop>3.0</vdop><extensions><gom:speed>0.0</gom:speed></extensions></trkpt>
   <trkpt lat="59.0719780812" lon="29.9678882793"><ele>95.579</ele><time>2026-04-25T11:52:38.000Z</time><hdop>3.0</hdop><vdop>3.0</vdop><extensions><gom:speed>0.0</gom:speed></extensions></trkpt>
   <trkpt lat="59.0719780812" lon="29.9678882793"><ele>95.579</ele><time>2026-04-25T11:52:39.000Z</time><hdop>3.0</hdop><vdop>3.0</vdop><extensions><gom:speed>0.0</gom:speed></extensions></trkpt>
   <trkpt lat="59.0719780812" lon="29.9678882793"><ele>95.579</ele><time>2026-04-25T11:52:40.000Z</time><hdop>3.0</hdop><vdop>3.0</vdop><extensions><gom:speed>0.0</gom:speed></extensions></trkpt>
   <trkpt lat="59.0719780812" lon="29.9678882793"><ele>95.579</ele><time>2026-04-25T11:52:41.000Z</time><hdop>3.0</hdop><vdop>3.0</vdop><extensions><gom:speed>0.0</gom:speed></extensions></trkpt>
   <trkpt lat="59.0719780812" lon="29.9678882793"><ele>95.579</ele><time>2026-04-25T11:52:42.000Z</time><hdop>3.0</hdop><vdop>3.0</vdop><extensions><gom:speed>0.0</gom:speed></extensions></trkpt>
   <trkpt lat="59.0719780812" lon="29.9678882793"><ele>95.579</ele><time>2026-04-25T11:52:43.000Z</time><hdop>3.0</hdop><vdop>3.0</vdop><extensions><gom:speed>0.0</gom:speed></extensions></trkpt>
   <trkpt lat="59.0719780812" lon="29.9678882793"><ele>95.579</ele><time>2026-04-25T11:52:44.000Z</time><hdop>3.0</hdop><vdop>3.0</vdop><extensions><gom:speed>0.0</gom:speed></extensions></trkpt>
   <trkpt lat="59.0719780812" lon="29.9678882793"><ele>95.579</ele><time>2026-04-25T11:52:45.000Z</time><hdop>3.0</hdop><vdop>3.0</vdop><extensions><gom:speed>0.0</gom:speed></extensions></trkpt>
   <trkpt lat="59.0719780812" lon="29.9678882793"><ele>95.579</ele><time>2026-04-25T11:52:46.000Z</time><hdop>3.0</hdop><vdop>3.0</vdop><extensions><gom:speed>0.0</gom:speed></extensions></trkpt>
   <trkpt lat="59.0719780812" lon="29.9678882793"><ele>95.579</ele><time>2026-04-25T11:52:47.000Z</time><hdop>3.0</hdop><vdop>3.0</vdop><extensions><gom:speed>0.0</gom:speed></extensions></trkpt>
   <trkpt lat="59.0719780812" lon="29.9678882793"><ele>95.579</ele><time>2026-04-25T11:52:48.000Z</time><hdop>3.0</hdop><vdop>3.0</vdop><extensions><gom:speed>0.0</gom:speed></extensions></trkpt>
   <trkpt lat="59.0719780812" lon="29.9678882793"><ele>95.579</ele><time>2026-04-25T11:52:49.000Z</time><hdop>3.0</hdop><vdop>3.0</vdop><extensions><gom:speed>0.0</gom:speed></extensions></trkpt>
   <trkpt lat="59.0719780812" lon="29.9678882793"><ele>95.579</ele><time>2026-04-25T11:52:50.000Z</time><hdop>3.0</hdop><vdop>3.0</vdop><extensions><gom:speed>0.0</gom:speed></extensions></trkpt>
   <trkpt lat="59.0719780812" lon="29.9678882793"><ele>95.579</ele><time>2026-04-25T11:52:51.000Z</time><hdop>3.0</hdop><vdop>3.0</vdop><extensions><gom:speed>0.0</gom:speed></extensions></trkpt>
   <trkpt lat="59.0719780812" lon="29.9678882793"><ele>95.579</ele><time>2026-04-25T11:52:52.000Z</time><hdop>3.0</hdop><vdop>3.0</vdop><extensions><gom:speed>0.0</gom:speed></extensions></trkpt>
   <trkpt lat="59.0719780812" lon="29.9678882793"><ele>95.579</ele><time>2026-04-25T11:52:53.000Z</time><hdop>3.0</hdop><vdop>3.0</vdop><extensions><gom:speed>0.0</gom:speed></extensions></trkpt>
   <trkpt lat="59.0719780812" lon="29.9678882793"><ele>95.579</ele><time>2026-04-25T11:52:53.000Z</time><hdop>3.0</hdop><vdop>3.0</vdop><extensions><gom:speed>0.0</gom:speed></extensions></trkpt>
   <trkpt lat="59.0719780812" lon="29.9678882793"><ele>95.579</ele><time>2026-04-25T11:52:54.000Z</time><hdop>3.0</hdop><vdop>3.0</vdop><extensions><gom:speed>0.0</gom:speed></extensions></trkpt>
   <trkpt lat="59.0719780812" lon="29.9678882793"><ele>95.579</ele><time>2026-04-25T11:52:55.000Z</time><hdop>3.0</hdop><vdop>3.0</vdop><extensions><gom:speed>0.0</gom:speed></extensions></trkpt>
   <trkpt lat="59.0719780812" lon="29.9678882793"><ele>95.579</ele><time>2026-04-25T11:52:56.000Z</time><hdop>3.0</hdop><vdop>3.0</vdop><extensions><gom:speed>0.0</gom:speed></extensions></trkpt>
   <trkpt lat="59.0719780812" lon="29.9678882793"><ele>95.579</ele><time>2026-04-25T11:52:57.000Z</time><hdop>3.0</hdop><vdop>3.0</vdop><extensions><gom:speed>0.0</gom:speed></extensions></trkpt>
   <trkpt lat="59.0719780812" lon="29.9678882793"><ele>95.579</ele><time>2026-04-25T11:52:58.000Z</time><hdop>3.0</hdop><vdop>3.0</vdop><extensions><gom:speed>0.0</gom:speed></extensions></trkpt>
   <trkpt lat="59.0719780812" lon="29.9678882793"><ele>95.579</ele><time>2026-04-25T11:52:59.000Z</time><hdop>3.0</hdop><vdop>3.0</vdop><extensions><gom:speed>0.0</gom:speed></extensions></trkpt>
   <trkpt lat="59.0719780812" lon="29.9678882793"><ele>95.579</ele><time>2026-04-25T11:53:00.000Z</time><hdop>3.0</hdop><vdop>3.0</vdop><extensions><gom:speed>0.0</gom:speed></extensions></trkpt>
   <trkpt lat="59.0719780812" lon="29.9678882793"><ele>95.579</ele><time>2026-04-25T11:53:01.000Z</time><hdop>3.0</hdop><vdop>3.0</vdop><extensions><gom:speed>0.0</gom:speed></extensions></trkpt>
   <trkpt lat="59.0719780812" lon="29.9678882793"><ele>95.579</ele><time>2026-04-25T11:53:02.000Z</time><hdop>3.0</hdop><vdop>3.0</vdop><extensions><gom:speed>0.0</gom:speed></extensions></trkpt>
   <trkpt lat="59.0719780812" lon="29.9678882793"><ele>95.579</ele><time>2026-04-25T11:53:03.000Z</time><hdop>3.0</hdop><vdop>3.0</vdop><extensions><gom:speed>0.0</gom:speed></extensions></trkpt>
   <trkpt lat="59.0719780812" lon="29.9678882793"><ele>95.579</ele><time>2026-04-25T11:53:04.000Z</time><hdop>3.0</hdop><vdop>3.0</vdop><extensions><gom:speed>0.0</gom:speed></extensions></trkpt>
   <trkpt lat="59.0719780812" lon="29.9678882793"><ele>95.579</ele><time>2026-04-25T11:53:05.000Z</time><hdop>3.0</hdop><vdop>3.0</vdop><extensions><gom:speed>0.0</gom:speed></extensions></trkpt>
   <trkpt lat="59.0719780812" lon="29.9678882793"><ele>95.579</ele><time>2026-04-25T11:53:06.000Z</time><hdop>3.0</hdop><vdop>3.0</vdop><extensions><gom:speed>0.0</gom:speed></extensions></trkpt>
   <trkpt lat="59.0719780812" lon="29.9678882793"><ele>95.579</ele><time>2026-04-25T11:53:07.000Z</time><hdop>3.0</hdop><vdop>3.0</vdop><extensions><gom:speed>0.0</gom:speed></extensions></trkpt>
   <trkpt lat="59.0719780812" lon="29.9678882793"><ele>95.579</ele><time>2026-04-25T11:53:08.000Z</time><hdop>3.0</hdop><vdop>3.0</vdop><extensions><gom:speed>0.0</gom:speed></extensions></trkpt>
   <trkpt lat="59.0719780812" lon="29.9678882793"><ele>95.579</ele><time>2026-04-25T11:53:09.000Z</time><hdop>3.0</hdop><vdop>3.0</vdop><extensions><gom:speed>0.0</gom:speed></extensions></trkpt>
   <trkpt lat="59.0719780812" lon="29.9678882793"><ele>95.579</ele><time>2026-04-25T11:53:10.000Z</time><hdop>3.0</hdop><vdop>3.0</vdop><extensions><gom:speed>0.0</gom:speed></extensions></trkpt>
   <trkpt lat="59.0719780812" lon="29.9678882793"><ele>95.579</ele><time>2026-04-25T11:53:11.000Z</time><hdop>3.0</hdop><vdop>3.0</vdop><extensions><gom:speed>0.0</gom:speed></extensions></trkpt>
   <trkpt lat="59.0719780812" lon="29.9678882793"><ele>95.579</ele><time>2026-04-25T11:53:12.000Z</time><hdop>3.0</hdop><vdop>3.0</vdop><extensions><gom:speed>0.0</gom:speed></extensions></trkpt>
   <trkpt lat="59.0719780812" lon="29.9678882793"><ele>95.579</ele><time>2026-04-25T11:53:13.000Z</time><hdop>3.0</hdop><vdop>3.0</vdop><extensions><gom:speed>0.0</gom:speed></extensions></trkpt>
   <trkpt lat="59.0719780812" lon="29.9678882793"><ele>95.579</ele><time>2026-04-25T11:53:13.000Z</time><hdop>3.0</hdop><vdop>3.0</vdop><extensions><gom:speed>0.0</gom:speed></extensions></trkpt>
   <trkpt lat="59.0719780812" lon="29.9678882793"><ele>95.579</ele><time>2026-04-25T11:53:14.000Z</time><hdop>3.0</hdop><vdop>3.0</vdop><extensions><gom:speed>0.0</gom:speed></extensions></trkpt>
   <trkpt lat="59.0719780812" lon="29.9678882793"><ele>95.579</ele><time>2026-04-25T11:53:15.000Z</time><hdop>3.0</hdop><vdop>3.0</vdop><extensions><gom:speed>0.0</gom:speed></extensions></trkpt>
   <trkpt lat="59.0719780812" lon="29.9678882793"><ele>95.579</ele><time>2026-04-25T11:53:16.000Z</time><hdop>3.0</hdop><vdop>3.0</vdop><extensions><gom:speed>0.0</gom:speed></extensions></trkpt>
   <trkpt lat="59.0719780812" lon="29.9678882793"><ele>95.579</ele><time>2026-04-25T11:53:17.000Z</time><hdop>3.0</hdop><vdop>3.0</vdop><extensions><gom:speed>0.0</gom:speed></extensions></trkpt>
   <trkpt lat="59.0719780812" lon="29.9678882793"><ele>95.579</ele><time>2026-04-25T11:53:18.000Z</time><hdop>3.0</hdop><vdop>3.0</vdop><extensions><gom:speed>0.0</gom:speed></extensions></trkpt>
   <trkpt lat="59.0719780812" lon="29.9678882793"><ele>95.579</ele><time>2026-04-25T11:53:19.000Z</time><hdop>3.0</hdop><vdop>3.0</vdop><extensions><gom:speed>0.0</gom:speed></extensions></trkpt>
   <trkpt lat="59.0719780812" lon="29.9678882793"><ele>95.579</ele><time>2026-04-25T11:53:20.000Z</time><hdop>3.0</hdop><vdop>3.0</vdop><extensions><gom:speed>0.0</gom:speed></extensions></trkpt>
   <trkpt lat="59.0719780812" lon="29.9678882793"><ele>95.579</ele><time>2026-04-25T11:53:21.000Z</time><hdop>3.0</hdop><vdop>3.0</vdop><extensions><gom:speed>0.0</gom:speed></extensions></trkpt>
   <trkpt lat="59.0719780812" lon="29.9678882793"><ele>95.579</ele><time>2026-04-25T11:53:22.000Z</time><hdop>3.0</hdop><vdop>3.0</vdop><extensions><gom:speed>0.0</gom:speed></extensions></trkpt>
   <trkpt lat="59.0719780812" lon="29.9678882793"><ele>95.579</ele><time>2026-04-25T11:53:23.000Z</time><hdop>3.0</hdop><vdop>3.0</vdop><extensions><gom:speed>0.0</gom:speed></extensions></trkpt>
   <trkpt lat="59.0719780812" lon="29.9678882793"><ele>95.579</ele><time>2026-04-25T11:53:24.000Z</time><hdop>3.0</hdop><vdop>3.0</vdop><extensions><gom:speed>0.0</gom:speed></extensions></trkpt>
   <trkpt lat="59.0719780812" lon="29.9678882793"><ele>95.579</ele><time>2026-04-25T11:53:25.000Z</time><hdop>3.0</hdop><vdop>3.0</vdop><extensions><gom:speed>0.0</gom:speed></extensions></trkpt>
   <trkpt lat="59.0719780812" lon="29.9678882793"><ele>95.579</ele><time>2026-04-25T11:53:26.000Z</time><hdop>3.0</hdop><vdop>3.0</vdop><extensions><gom:speed>0.0</gom:speed></extensions></trkpt>
   <trkpt lat="59.0719780812" lon="29.9678882793"><ele>95.579</ele><time>2026-04-25T11:53:27.000Z</time><hdop>3.0</hdop><vdop>3.0</vdop><extensions><gom:speed>0.0</gom:speed></extensions></trkpt>
   <trkpt lat="59.0719780812" lon="29.9678882793"><ele>95.579</ele><time>2026-04-25T11:53:28.000Z</time><hdop>3.0</hdop><vdop>3.0</vdop><extensions><gom:speed>0.0</gom:speed></extensions></trkpt>
   <trkpt lat="59.0719780812" lon="29.9678882793"><ele>95.579</ele><time>2026-04-25T11:53:29.000Z</time><hdop>3.0</hdop><vdop>3.0</vdop><extensions><gom:speed>0.0</gom:speed></extensions></trkpt>
   <trkpt lat="59.0719780812" lon="29.9678882793"><ele>95.579</ele><time>2026-04-25T11:53:30.000Z</time><hdop>3.0</hdop><vdop>3.0</vdop><extensions><gom:speed>0.0</gom:speed></extensions></trkpt>
   <trkpt lat="59.0719780812" lon="29.9678882793"><ele>95.579</ele><time>2026-04-25T11:53:31.000Z</time><hdop>3.0</hdop><vdop>3.0</vdop><extensions><gom:speed>0.0</gom:speed></extensions></trkpt>
   <trkpt lat="59.0719780812" lon="29.9678882793"><ele>95.579</ele><time>2026-04-25T11:53:32.000Z</time><hdop>3.0</hdop><vdop>3.0</vdop><extensions><gom:speed>0.0</gom:speed></extensions></trkpt>
   <trkpt lat="59.0719780812" lon="29.9678882793"><ele>95.579</ele><time>2026-04-25T11:53:33.000Z</time><hdop>3.0</hdop><vdop>3.0</vdop><extensions><gom:speed>0.0</gom:speed></extensions></trkpt>
   <trkpt lat="59.0719780812" lon="29.9678882793"><ele>95.579</ele><time>2026-04-25T11:53:33.000Z</time><hdop>3.0</hdop><vdop>3.0</vdop><extensions><gom:speed>0.0</gom:speed></extensions></trkpt>
   <trkpt lat="59.0719780812" lon="29.9678882793"><ele>95.579</ele><time>2026-04-25T11:53:34.000Z</time><hdop>3.0</hdop><vdop>3.0</vdop><extensions><gom:speed>0.0</gom:speed></extensions></trkpt>
   <trkpt lat="59.0719780812" lon="29.9678882793"><ele>95.579</ele><time>2026-04-25T11:53:35.000Z</time><hdop>3.0</hdop><vdop>3.0</vdop><extensions><gom:speed>0.0</gom:speed></extensions></trkpt>
   <trkpt lat="59.0719780812" lon="29.9678882793"><ele>95.579</ele><time>2026-04-25T11:53:36.000Z</time><hdop>3.0</hdop><vdop>3.0</vdop><extensions><gom:speed>0.0</gom:speed></extensions></trkpt>
   <trkpt lat="59.0719780812" lon="29.9678882793"><ele>95.579</ele><time>2026-04-25T11:53:37.000Z</time><hdop>3.0</hdop><vdop>3.0</vdop><extensions><gom:speed>0.0</gom:speed></extensions></trkpt>
   <trkpt lat="59.0719780812" lon="29.9678882793"><ele>95.579</ele><time>2026-04-25T11:53:38.000Z</time><hdop>3.0</hdop><vdop>3.0</vdop><extensions><gom:speed>0.0</gom:speed></extensions></trkpt>
   <trkpt lat="59.0719780812" lon="29.9678882793"><ele>95.579</ele><time>2026-04-25T11:53:39.000Z</time><hdop>3.0</hdop><vdop>3.0</vdop><extensions><gom:speed>0.0</gom:speed></extensions></trkpt>
   <trkpt lat="59.0719780812" lon="29.9678882793"><ele>95.579</ele><time>2026-04-25T11:53:40.000Z</time><hdop>3.0</hdop><vdop>3.0</vdop><extensions><gom:speed>0.0</gom:speed></extensions></trkpt>
   <trkpt lat="59.0719699089" lon="29.9678893689"><ele>95.688</ele><time>2026-04-25T11:53:41.000Z</time><hdop>3.0</hdop><vdop>3.0</vdop><extensions><gom:speed>0.33</gom:speed></extensions></trkpt>
   <trkpt lat="59.0719699089" lon="29.9678893689"><ele>95.753</ele><time>2026-04-25T11:53:42.000Z</time><hdop>3.0</hdop><vdop>3.0</vdop><extensions><gom:speed>0.0</gom:speed></extensions></trkpt>
   <trkpt lat="59.0719699089" lon="29.9678893689"><ele>95.791</ele><time>2026-04-25T11:53:43.000Z</time><hdop>3.0</hdop><vdop>3.0</vdop><extensions><gom:speed>0.0</gom:speed></extensions></trkpt>
   <trkpt lat="59.0719699089" lon="29.9678893689"><ele>95.814</ele><time>2026-04-25T11:53:44.000Z</time><hdop>3.0</hdop><vdop>3.0</vdop><extensions><gom:speed>0.0</gom:speed></extensions></trkpt>
   <trkpt lat="59.0719699089" lon="29.9678893689"><ele>95.828</ele><time>2026-04-25T11:53:45.000Z</time><hdop>3.0</hdop><vdop>3.0</vdop><extensions><gom:speed>0.0</gom:speed></extensions></trkpt>
   <trkpt lat="59.0719699089" lon="29.9678893689"><ele>95.837</ele><time>2026-04-25T11:53:46.000Z</time><hdop>3.0</hdop><vdop>3.0</vdop><extensions><gom:speed>0.0</gom:speed></extensions></trkpt>
   <trkpt lat="59.0719699089" lon="29.9678893689"><ele>95.841</ele><time>2026-04-25T11:53:47.000Z</time><hdop>3.0</hdop><vdop>3.0</vdop><extensions><gom:speed>0.0</gom:speed></extensions></trkpt>
   <trkpt lat="59.0719699089" lon="29.9678893689"><ele>95.844</ele><time>2026-04-25T11:53:48.000Z</time><hdop>3.0</hdop><vdop>3.0</vdop><extensions><gom:speed>0.0</gom:speed></extensions></trkpt>
   <trkpt lat="59.0719699089" lon="29.9678893689"><ele>95.846</ele><time>2026-04-25T11:53:49.000Z</time><hdop>3.0</hdop><vdop>3.0</vdop><extensions><gom:speed>0.0</gom:speed></extensions></trkpt>
   <trkpt lat="59.0719699089" lon="29.9678893689"><ele>95.847</ele><time>2026-04-25T11:53:50.000Z</time><hdop>3.0</hdop><vdop>3.0</vdop><extensions><gom:speed>0.0</gom:speed></extensions></trkpt>
   <trkpt lat="59.0719699089" lon="29.9678893689"><ele>95.848</ele><time>2026-04-25T11:53:51.000Z</time><hdop>3.0</hdop><vdop>3.0</vdop><extensions><gom:speed>0.0</gom:speed></extensions></trkpt>
   <trkpt lat="59.0719699089" lon="29.9678893689"><ele>95.848</ele><time>2026-04-25T11:53:52.000Z</time><hdop>3.0</hdop><vdop>3.0</vdop><extensions><gom:speed>0.0</gom:speed></extensions></trkpt>
   <trkpt lat="59.0719699089" lon="29.9678893689"><ele>95.848</ele><time>2026-04-25T11:53:53.000Z</time><hdop>3.0</hdop><vdop>3.0</vdop><extensions><gom:speed>0.0</gom:speed></extensions></trkpt>
   <trkpt lat="59.0719699089" lon="29.9678893689"><ele>95.849</ele><time>2026-04-25T11:53:53.000Z</time><hdop>3.0</hdop><vdop>3.0</vdop><extensions><gom:speed>0.0</gom:speed></extensions></trkpt>
   <trkpt lat="59.0719699089" lon="29.9678893689"><ele>95.849</ele><time>2026-04-25T11:53:54.000Z</time><hdop>3.0</hdop><vdop>3.0</vdop><extensions><gom:speed>0.0</gom:speed></extensions></trkpt>
   <trkpt lat="59.0719699089" lon="29.9678893689"><ele>95.849</ele><time>2026-04-25T11:53:55.000Z</time><hdop>3.0</hdop><vdop>3.0</vdop><extensions><gom:speed>0.0</gom:speed></extensions></trkpt>
   <trkpt lat="59.0719699089" lon="29.9678893689"><ele>95.849</ele><time>2026-04-25T11:53:56.000Z</time><hdop>3.0</hdop><vdop>3.0</vdop><extensions><gom:speed>0.0</gom:speed></extensions></trkpt>
   <trkpt lat="59.0719699089" lon="29.9678893689"><ele>95.849</ele><time>2026-04-25T11:53:57.000Z</time><hdop>3.0</hdop><vdop>3.0</vdop><extensions><gom:speed>0.0</gom:speed></extensions></trkpt>
   <trkpt lat="59.0719699089" lon="29.9678893689"><ele>95.849</ele><time>2026-04-25T11:53:58.000Z</time><hdop>3.0</hdop><vdop>3.0</vdop><extensions><gom:speed>0.0</gom:speed></extensions></trkpt>
   <trkpt lat="59.0719699089" lon="29.9678893689"><ele>95.849</ele><time>2026-04-25T11:53:59.000Z</time><hdop>3.0</hdop><vdop>3.0</vdop><extensions><gom:speed>0.0</gom:speed></extensions></trkpt>
   <trkpt lat="59.0719699089" lon="29.9678893689"><ele>95.849</ele><time>2026-04-25T11:54:00.000Z</time><hdop>3.0</hdop><vdop>3.0</vdop><extensions><gom:speed>0.0</gom:speed></extensions></trkpt>
   <trkpt lat="59.0719699089" lon="29.9678893689"><ele>95.849</ele><time>2026-04-25T11:54:01.000Z</time><hdop>3.0</hdop><vdop>3.0</vdop><extensions><gom:speed>0.0</gom:speed></extensions></trkpt>
   <trkpt lat="59.0719699089" lon="29.9678893689"><ele>95.849</ele><time>2026-04-25T11:54:02.000Z</time><hdop>3.0</hdop><vdop>3.0</vdop><extensions><gom:speed>0.0</gom:speed></extensions></trkpt>
   <trkpt lat="59.0719699089" lon="29.9678893689"><ele>95.849</ele><time>2026-04-25T11:54:03.000Z</time><hdop>3.0</hdop><vdop>3.0</vdop><extensions><gom:speed>0.0</gom:speed></extensions></trkpt>
   <trkpt lat="59.0719664304" lon="29.9678857647"><ele>95.868</ele><time>2026-04-25T11:54:04.000Z</time><hdop>3.0</hdop><vdop>3.0</vdop><extensions><gom:speed>0.311</gom:speed></extensions></trkpt>
   <trkpt lat="59.0719664304" lon="29.9678857647"><ele>95.879</ele><time>2026-04-25T11:54:05.000Z</time><hdop>3.0</hdop><vdop>3.0</vdop><extensions><gom:speed>0.0</gom:speed></extensions></trkpt>
   <trkpt lat="59.0719664304" lon="29.9678857647"><ele>95.886</ele><time>2026-04-25T11:54:06.000Z</time><hdop>3.0</hdop><vdop>3.0</vdop><extensions><gom:speed>0.0</gom:speed></extensions></trkpt>
   <trkpt lat="59.0719664304" lon="29.9678857647"><ele>95.89</ele><time>2026-04-25T11:54:07.000Z</time><hdop>3.0</hdop><vdop>3.0</vdop><extensions><gom:speed>0.0</gom:speed></extensions></trkpt>
   <trkpt lat="59.0719604792" lon="29.9678839207"><ele>95.843</ele><time>2026-04-25T11:54:08.000Z</time><hdop>3.0</hdop><vdop>3.0</vdop><extensions><gom:speed>0.459</gom:speed></extensions></trkpt>
   <trkpt lat="59.0719574617" lon="29.9678844236"><ele>95.807</ele><time>2026-04-25T11:54:09.000Z</time><hdop>3.875</hdop><vdop>3.875</vdop><extensions><gom:speed>0.432</gom:speed></extensions></trkpt>
   <trkpt lat="59.0719574617" lon="29.9678844236"><ele>95.786</ele><time>2026-04-25T11:54:10.000Z</time><hdop>3.875</hdop><vdop>3.875</vdop><extensions><gom:speed>0.0</gom:speed></extensions></trkpt>
   <trkpt lat="59.0719562883" lon="29.967883334"><ele>95.834</ele><time>2026-04-25T11:54:11.000Z</time><hdop>4.562</hdop><vdop>4.562</vdop><extensions><gom:speed>0.522</gom:speed></extensions></trkpt>
   <trkpt lat="59.0719561625" lon="29.9678847589"><ele>95.901</ele><time>2026-04-25T11:54:12.000Z</time><hdop>4.875</hdop><vdop>4.875</vdop><extensions><gom:speed>0.244</gom:speed></extensions></trkpt>
   <trkpt lat="59.0719575875" lon="29.9678824958"><ele>95.883</ele><time>2026-04-25T11:54:13.000Z</time><hdop>4.687</hdop><vdop>4.687</vdop><extensions><gom:speed>0.447</gom:speed></extensions></trkpt>
   <trkpt lat="59.0719575875" lon="29.9678824958"><ele>95.873</ele><time>2026-04-25T11:54:13.000Z</time><hdop>4.687</hdop><vdop>4.687</vdop><extensions><gom:speed>0.447</gom:speed></extensions></trkpt>
   <trkpt lat="59.0719604792" lon="29.9678836692"><ele>95.841</ele><time>2026-04-25T11:54:14.000Z</time><hdop>4.062</hdop><vdop>4.062</vdop><extensions><gom:speed>0.768</gom:speed></extensions></trkpt>
   <trkpt lat="59.0719622394" lon="29.9678855133"><ele>95.77</ele><time>2026-04-25T11:54:15.000Z</time><hdop>4.375</hdop><vdop>4.375</vdop><extensions><gom:speed>0.417</gom:speed></extensions></trkpt>
   <trkpt lat="59.0719622394" lon="29.9678855133"><ele>95.727</ele><time>2026-04-25T11:54:16.000Z</time><hdop>4.375</hdop><vdop>4.375</vdop><extensions><gom:speed>0.0</gom:speed></extensions></trkpt>
   <trkpt lat="59.0719622394" lon="29.9678855133"><ele>95.701</ele><time>2026-04-25T11:54:17.000Z</time><hdop>4.375</hdop><vdop>4.375</vdop><extensions><gom:speed>0.0</gom:speed></extensions></trkpt>
   <trkpt lat="59.0719622394" lon="29.9678855133"><ele>95.686</ele><time>2026-04-25T11:54:18.000Z</time><hdop>4.375</hdop><vdop>4.375</vdop><extensions><gom:speed>0.0</gom:speed></extensions></trkpt>
   <trkpt lat="59.0719622394" lon="29.9678855133"><ele>95.677</ele><time>2026-04-25T11:54:19.000Z</time><hdop>4.375</hdop><vdop>4.375</vdop><extensions><gom:speed>0.0</gom:speed></extensions></trkpt>
   <trkpt lat="59.071961988" lon="29.9678886146"><ele>95.613</ele><time>2026-04-25T11:54:20.000Z</time><hdop>4.562</hdop><vdop>4.562</vdop><extensions><gom:speed>0.374</gom:speed></extensions></trkpt>
   <trkpt lat="59.071961988" lon="29.9678886146"><ele>95.575</ele><time>2026-04-25T11:54:21.000Z</time><hdop>4.562</hdop><vdop>4.562</vdop><extensions><gom:speed>0.0</gom:speed></extensions></trkpt>
   <trkpt lat="59.0719613593" lon="29.9678915482"><ele>95.61</ele><time>2026-04-25T11:54:22.000Z</time><hdop>4.375</hdop><vdop>4.375</vdop><extensions><gom:speed>0.29</gom:speed></extensions></trkpt>
   <trkpt lat="59.0719611917" lon="29.9678978347"><ele>95.713</ele><time>2026-04-25T11:54:23.000Z</time><hdop>4.625</hdop><vdop>4.625</vdop><extensions><gom:speed>0.316</gom:speed></extensions></trkpt>
   <trkpt lat="59.0719613174" lon="29.967904624"><ele>95.869</ele><time>2026-04-25T11:54:24.000Z</time><hdop>4.75</hdop><vdop>4.75</vdop><extensions><gom:speed>0.381</gom:speed></extensions></trkpt>
   <trkpt lat="59.0719616108" lon="29.9679130059"><ele>95.969</ele><time>2026-04-25T11:54:25.000Z</time><hdop>4.812</hdop><vdop>4.812</vdop><extensions><gom:speed>0.364</gom:speed></extensions></trkpt>
   <trkpt lat="59.0719629519" lon="29.9679212202"><ele>96.022</ele><time>2026-04-25T11:54:26.000Z</time><hdop>4.812</hdop><vdop>4.812</vdop><extensions><gom:speed>0.295</gom:speed></extensions></trkpt>
   <trkpt lat="59.0719629519" lon="29.9679212202"><ele>96.053</ele><time>2026-04-25T11:54:27.000Z</time><hdop>4.812</hdop><vdop>4.812</vdop><extensions><gom:speed>0.0</gom:speed></extensions></trkpt>
   <trkpt lat="59.0719629519" lon="29.9679212202"><ele>96.072</ele><time>2026-04-25T11:54:28.000Z</time><hdop>4.812</hdop><vdop>4.812</vdop><extensions><gom:speed>0.0</gom:speed></extensions></trkpt>
   <trkpt lat="59.0719629519" lon="29.9679212202"><ele>96.083</ele><time>2026-04-25T11:54:29.000Z</time><hdop>4.812</hdop><vdop>4.812</vdop><extensions><gom:speed>0.0</gom:speed></extensions></trkpt>
   <trkpt lat="59.0719629519" lon="29.9679212202"><ele>96.09</ele><time>2026-04-25T11:54:30.000Z</time><hdop>4.812</hdop><vdop>4.812</vdop><extensions><gom:speed>0.0</gom:speed></extensions></trkpt>
   <trkpt lat="59.0719629519" lon="29.9679212202"><ele>96.094</ele><time>2026-04-25T11:54:31.000Z</time><hdop>4.812</hdop><vdop>4.812</vdop><extensions><gom:speed>0.0</gom:speed></extensions></trkpt>
   <trkpt lat="59.0719629519" lon="29.9679212202"><ele>96.097</ele><time>2026-04-25T11:54:32.000Z</time><hdop>4.812</hdop><vdop>4.812</vdop><extensions><gom:speed>0.0</gom:speed></extensions></trkpt>
   <trkpt lat="59.0719629519" lon="29.9679212202"><ele>96.098</ele><time>2026-04-25T11:54:33.000Z</time><hdop>4.812</hdop><vdop>4.812</vdop><extensions><gom:speed>0.0</gom:speed></extensions></trkpt>
   <trkpt lat="59.0719629519" lon="29.9679212202"><ele>96.099</ele><time>2026-04-25T11:54:33.000Z</time><hdop>4.812</hdop><vdop>4.812</vdop><extensions><gom:speed>0.0</gom:speed></extensions></trkpt>
   <trkpt lat="59.0719629519" lon="29.9679212202"><ele>96.099</ele><time>2026-04-25T11:54:34.000Z</time><hdop>4.812</hdop><vdop>4.812</vdop><extensions><gom:speed>0.0</gom:speed></extensions></trkpt>
   <trkpt lat="59.0719629519" lon="29.9679212202"><ele>96.1</ele><time>2026-04-25T11:54:35.000Z</time><hdop>4.812</hdop><vdop>4.812</vdop><extensions><gom:speed>0.0</gom:speed></extensions></trkpt>
   <trkpt lat="59.0719629519" lon="29.9679212202"><ele>96.1</ele><time>2026-04-25T11:54:36.000Z</time><hdop>4.812</hdop><vdop>4.812</vdop><extensions><gom:speed>0.0</gom:speed></extensions></trkpt>
   <trkpt lat="59.0719629519" lon="29.9679212202"><ele>96.1</ele><time>2026-04-25T11:54:37.000Z</time><hdop>4.812</hdop><vdop>4.812</vdop><extensions><gom:speed>0.0</gom:speed></extensions></trkpt>
   <trkpt lat="59.071961485" lon="29.9679295183"><ele>96.078</ele><time>2026-04-25T11:54:38.000Z</time><hdop>4.687</hdop><vdop>4.687</vdop><extensions><gom:speed>0.152</gom:speed></extensions></trkpt>
   <trkpt lat="59.071961485" lon="29.9679295183"><ele>96.065</ele><time>2026-04-25T11:54:39.000Z</time><hdop>4.875</hdop><vdop>4.875</vdop><extensions><gom:speed>0.0</gom:speed></extensions></trkpt>
   <trkpt lat="59.0719599763" lon="29.9679394927"><ele>96.024</ele><time>2026-04-25T11:54:40.000Z</time><hdop>4.687</hdop><vdop>4.687</vdop><extensions><gom:speed>0.295</gom:speed></extensions></trkpt>
   <trkpt lat="59.0719582161" lon="29.9679531552"><ele>95.822</ele><time>2026-04-25T11:54:41.000Z</time><hdop>4.75</hdop><vdop>4.75</vdop><extensions><gom:speed>0.366</gom:speed></extensions></trkpt>
   <trkpt lat="59.0719538994" lon="29.967966231"><ele>95.627</ele><time>2026-04-25T11:54:42.000Z</time><hdop>4.25</hdop><vdop>4.25</vdop><extensions><gom:speed>0.469</gom:speed></extensions></trkpt>
   <trkpt lat="59.0719502114" lon="29.9679798097"><ele>95.557</ele><time>2026-04-25T11:54:43.000Z</time><hdop>3.875</hdop><vdop>3.875</vdop><extensions><gom:speed>0.547</gom:speed></extensions></trkpt>
   <trkpt lat="59.0719452242" lon="29.9679918796"><ele>95.54</ele><time>2026-04-25T11:54:44.000Z</time><hdop>4.187</hdop><vdop>4.187</vdop><extensions><gom:speed>0.512</gom:speed></extensions></trkpt>
   <trkpt lat="59.0719405303" lon="29.9680038657"><ele>95.543</ele><time>2026-04-25T11:54:45.000Z</time><hdop>4.312</hdop><vdop>4.312</vdop><extensions><gom:speed>0.522</gom:speed></extensions></trkpt>
   <trkpt lat="59.0719373033" lon="29.9680161033"><ele>95.581</ele><time>2026-04-25T11:54:46.000Z</time><hdop>4.812</hdop><vdop>4.812</vdop><extensions><gom:speed>0.365</gom:speed></extensions></trkpt>
   <trkpt lat="59.0719373033" lon="29.9680161033"><ele>95.604</ele><time>2026-04-25T11:54:47.000Z</time><hdop>4.812</hdop><vdop>4.812</vdop><extensions><gom:speed>0.0</gom:speed></extensions></trkpt>
   <trkpt lat="59.071937429" lon="29.9680187855"><ele>95.628</ele><time>2026-04-25T11:54:48.000Z</time><hdop>4.875</hdop><vdop>4.875</vdop><extensions><gom:speed>0.113</gom:speed></extensions></trkpt>
   <trkpt lat="59.071937429" lon="29.9680187855"><ele>95.643</ele><time>2026-04-25T11:54:49.000Z</time><hdop>4.875</hdop><vdop>4.875</vdop><extensions><gom:speed>0.0</gom:speed></extensions></trkpt>
   <trkpt lat="59.071937429" lon="29.9680187855"><ele>95.652</ele><time>2026-04-25T11:54:50.000Z</time><hdop>4.875</hdop><vdop>4.875</vdop><extensions><gom:speed>0.0</gom:speed></extensions></trkpt>
   <trkpt lat="59.071937429" lon="29.9680187855"><ele>95.657</ele><time>2026-04-25T11:54:51.000Z</time><hdop>4.875</hdop><vdop>4.875</vdop><extensions><gom:speed>0.0</gom:speed></extensions></trkpt>
   <trkpt lat="59.071937429" lon="29.9680187855"><ele>95.66</ele><time>2026-04-25T11:54:52.000Z</time><hdop>4.875</hdop><vdop>4.875</vdop><extensions><gom:speed>0.0</gom:speed></extensions></trkpt>
   <trkpt lat="59.071937429" lon="29.9680187855"><ele>95.662</ele><time>2026-04-25T11:54:53.000Z</time><hdop>4.875</hdop><vdop>4.875</vdop><extensions><gom:speed>0.0</gom:speed></extensions></trkpt>
   <trkpt lat="59.071937429" lon="29.9680187855"><ele>95.663</ele><time>2026-04-25T11:54:53.000Z</time><hdop>4.875</hdop><vdop>4.875</vdop><extensions><gom:speed>0.0</gom:speed></extensions></trkpt>
   <trkpt lat="59.071937429" lon="29.9680187855"><ele>95.664</ele><time>2026-04-25T11:54:54.000Z</time><hdop>4.875</hdop><vdop>4.875</vdop><extensions><gom:speed>0.0</gom:speed></extensions></trkpt>
   <trkpt lat="59.0719365489" lon="29.968025994"><ele>95.585</ele><time>2026-04-25T11:54:55.000Z</time><hdop>4.437</hdop><vdop>4.437</vdop><extensions><gom:speed>0.286</gom:speed></extensions></trkpt>
   <trkpt lat="59.0719326932" lon="29.9680371419"><ele>95.548</ele><time>2026-04-25T11:54:56.000Z</time><hdop>4.937</hdop><vdop>4.937</vdop><extensions><gom:speed>0.68</gom:speed></extensions></trkpt>
   <trkpt lat="59.0719285023" lon="29.96805005"><ele>95.502</ele><time>2026-04-25T11:54:57.000Z</time><hdop>4.687</hdop><vdop>4.687</vdop><extensions><gom:speed>0.571</gom:speed></extensions></trkpt>
   <trkpt lat="59.0719233474" lon="29.9680622876"><ele>95.436</ele><time>2026-04-25T11:54:58.000Z</time><hdop>4.687</hdop><vdop>4.687</vdop><extensions><gom:speed>0.594</gom:speed></extensions></trkpt>
   <trkpt lat="59.0719197013" lon="29.9680717592"><ele>95.376</ele><time>2026-04-25T11:54:59.000Z</time><hdop>4.875</hdop><vdop>4.875</vdop><extensions><gom:speed>0.157</gom:speed></extensions></trkpt>
   <trkpt lat="59.071917522" lon="29.9680840806"><ele>95.333</ele><time>2026-04-25T11:55:00.000Z</time><hdop>4.687</hdop><vdop>4.687</vdop><extensions><gom:speed>0.493</gom:speed></extensions></trkpt>
   <trkpt lat="59.071915636" lon="29.9680985812"><ele>95.338</ele><time>2026-04-25T11:55:01.000Z</time><hdop>4.875</hdop><vdop>4.875</vdop><extensions><gom:speed>0.438</gom:speed></extensions></trkpt>
   <trkpt lat="59.0719118642" lon="29.9681093101"><ele>95.393</ele><time>2026-04-25T11:55:02.000Z</time><hdop>4.875</hdop><vdop>4.875</vdop><extensions><gom:speed>0.318</gom:speed></extensions></trkpt>
   <trkpt lat="59.0719118642" lon="29.9681093101"><ele>95.426</ele><time>2026-04-25T11:55:03.000Z</time><hdop>4.875</hdop><vdop>4.875</vdop><extensions><gom:speed>0.0</gom:speed></extensions></trkpt>
   <trkpt lat="59.0719118642" lon="29.9681093101"><ele>95.445</ele><time>2026-04-25T11:55:04.000Z</time><hdop>4.875</hdop><vdop>4.875</vdop><extensions><gom:speed>0.0</gom:speed></extensions></trkpt>
   <trkpt lat="59.0719118642" lon="29.9681093101"><ele>95.457</ele><time>2026-04-25T11:55:05.000Z</time><hdop>4.875</hdop><vdop>4.875</vdop><extensions><gom:speed>0.0</gom:speed></extensions></trkpt>
   <trkpt lat="59.0719118642" lon="29.9681093101"><ele>95.464</ele><time>2026-04-25T11:55:06.000Z</time><hdop>4.875</hdop><vdop>4.875</vdop><extensions><gom:speed>0.0</gom:speed></extensions></trkpt>
   <trkpt lat="59.0719118642" lon="29.9681093101"><ele>95.468</ele><time>2026-04-25T11:55:07.000Z</time><hdop>4.875</hdop><vdop>4.875</vdop><extensions><gom:speed>0.0</gom:speed></extensions></trkpt>
   <trkpt lat="59.0719118642" lon="29.9681093101"><ele>95.471</ele><time>2026-04-25T11:55:08.000Z</time><hdop>4.875</hdop><vdop>4.875</vdop><extensions><gom:speed>0.0</gom:speed></extensions></trkpt>
   <trkpt lat="59.0719118642" lon="29.9681093101"><ele>95.472</ele><time>2026-04-25T11:55:09.000Z</time><hdop>4.875</hdop><vdop>4.875</vdop><extensions><gom:speed>0.0</gom:speed></extensions></trkpt>
   <trkpt lat="59.0719118642" lon="29.9681093101"><ele>95.473</ele><time>2026-04-25T11:55:10.000Z</time><hdop>4.875</hdop><vdop>4.875</vdop><extensions><gom:speed>0.0</gom:speed></extensions></trkpt>
   <trkpt lat="59.0719118642" lon="29.9681093101"><ele>95.473</ele><time>2026-04-25T11:55:11.000Z</time><hdop>4.875</hdop><vdop>4.875</vdop><extensions><gom:speed>0.0</gom:speed></extensions></trkpt>
   <trkpt lat="59.0719057035" lon="29.9681157641"><ele>95.442</ele><time>2026-04-25T11:55:12.000Z</time><hdop>4.687</hdop><vdop>4.687</vdop><extensions><gom:speed>0.666</gom:speed></extensions></trkpt>
   <trkpt lat="59.0718958128" lon="29.9681223859"><ele>95.483</ele><time>2026-04-25T11:55:13.000Z</time><hdop>4.687</hdop><vdop>4.687</vdop><extensions><gom:speed>0.872</gom:speed></extensions></trkpt>
   <trkpt lat="59.0718958128" lon="29.9681223859"><ele>95.507</ele><time>2026-04-25T11:55:13.000Z</time><hdop>4.687</hdop><vdop>4.687</vdop><extensions><gom:speed>0.872</gom:speed></extensions></trkpt>
   <trkpt lat="59.0718882272" lon="29.9681280017"><ele>95.493</ele><time>2026-04-25T11:55:14.000Z</time><hdop>4.875</hdop><vdop>4.875</vdop><extensions><gom:speed>0.589</gom:speed></extensions></trkpt>
   <trkpt lat="59.0718834914" lon="29.9681293428"><ele>95.569</ele><time>2026-04-25T11:55:15.000Z</time><hdop>4.5</hdop><vdop>4.5</vdop><extensions><gom:speed>0.324</gom:speed></extensions></trkpt>
   <trkpt lat="59.0718773727" lon="29.9681331985"><ele>95.693</ele><time>2026-04-25T11:55:16.000Z</time><hdop>4.0</hdop><vdop>4.0</vdop><extensions><gom:speed>0.109</gom:speed></extensions></trkpt>
   <trkpt lat="59.0718743133" lon="29.9681439273"><ele>95.769</ele><time>2026-04-25T11:55:17.000Z</time><hdop>3.937</hdop><vdop>3.937</vdop><extensions><gom:speed>0.318</gom:speed></extensions></trkpt>
   <trkpt lat="59.0718743133" lon="29.9681439273"><ele>95.814</ele><time>2026-04-25T11:55:18.000Z</time><hdop>3.937</hdop><vdop>3.937</vdop><extensions><gom:speed>0.0</gom:speed></extensions></trkpt>
   <trkpt lat="59.0718743133" lon="29.9681439273"><ele>95.842</ele><time>2026-04-25T11:55:19.000Z</time><hdop>3.937</hdop><vdop>3.937</vdop><extensions><gom:speed>0.0</gom:speed></extensions></trkpt>
   <trkpt lat="59.0718743133" lon="29.9681439273"><ele>95.858</ele><time>2026-04-25T11:55:20.000Z</time><hdop>3.937</hdop><vdop>3.937</vdop><extensions><gom:speed>0.0</gom:speed></extensions></trkpt>
   <trkpt lat="59.0718743133" lon="29.9681439273"><ele>95.867</ele><time>2026-04-25T11:55:21.000Z</time><hdop>3.937</hdop><vdop>3.937</vdop><extensions><gom:speed>0.0</gom:speed></extensions></trkpt>
   <trkpt lat="59.0718743133" lon="29.9681439273"><ele>95.873</ele><time>2026-04-25T11:55:22.000Z</time><hdop>3.937</hdop><vdop>3.937</vdop><extensions><gom:speed>0.0</gom:speed></extensions></trkpt>
   <trkpt lat="59.0718729302" lon="29.9681506329"><ele>95.91</ele><time>2026-04-25T11:55:23.000Z</time><hdop>4.375</hdop><vdop>4.375</vdop><extensions><gom:speed>0.444</gom:speed></extensions></trkpt>
   <trkpt lat="59.0718729302" lon="29.9681506329"><ele>95.932</ele><time>2026-04-25T11:55:24.000Z</time><hdop>4.375</hdop><vdop>4.375</vdop><extensions><gom:speed>0.0</gom:speed></extensions></trkpt>
   <trkpt lat="59.0718729302" lon="29.9681506329"><ele>95.945</ele><time>2026-04-25T11:55:25.000Z</time><hdop>4.375</hdop><vdop>4.375</vdop><extensions><gom:speed>0.0</gom:speed></extensions></trkpt>
   <trkpt lat="59.0718729302" lon="29.9681506329"><ele>95.952</ele><time>2026-04-25T11:55:26.000Z</time><hdop>4.375</hdop><vdop>4.375</vdop><extensions><gom:speed>0.0</gom:speed></extensions></trkpt>
   <trkpt lat="59.0718745228" lon="29.9681581766"><ele>95.959</ele><time>2026-04-25T11:55:27.000Z</time><hdop>4.437</hdop><vdop>4.437</vdop><extensions><gom:speed>0.329</gom:speed></extensions></trkpt>
   <trkpt lat="59.0718740199" lon="29.9681687378"><ele>95.986</ele><time>2026-04-25T11:55:28.000Z</time><hdop>4.375</hdop><vdop>4.375</vdop><extensions><gom:speed>0.397</gom:speed></extensions></trkpt>
   <trkpt lat="59.0718682364" lon="29.9681762815"><ele>95.936</ele><time>2026-04-25T11:55:29.000Z</time><hdop>4.937</hdop><vdop>4.937</vdop><extensions><gom:speed>0.62</gom:speed></extensions></trkpt>
   <trkpt lat="59.0718613213" lon="29.9681834061"><ele>95.848</ele><time>2026-04-25T11:55:30.000Z</time><hdop>4.687</hdop><vdop>4.687</vdop><extensions><gom:speed>0.653</gom:speed></extensions></trkpt>
   <trkpt lat="59.0718549092" lon="29.9681896087"><ele>95.701</ele><time>2026-04-25T11:55:31.000Z</time><hdop>4.312</hdop><vdop>4.312</vdop><extensions><gom:speed>0.614</gom:speed></extensions></trkpt>
   <trkpt lat="59.0718465692" lon="29.9681942188"><ele>95.555</ele><time>2026-04-25T11:55:32.000Z</time><hdop>4.062</hdop><vdop>4.062</vdop><extensions><gom:speed>0.881</gom:speed></extensions></trkpt>
   <trkpt lat="59.0718399055" lon="29.968193632"><ele>95.339</ele><time>2026-04-25T11:55:33.000Z</time><hdop>3.937</hdop><vdop>3.937</vdop><extensions><gom:speed>0.476</gom:speed></extensions></trkpt>
   <trkpt lat="59.0718399055" lon="29.968193632"><ele>95.21</ele><time>2026-04-25T11:55:33.000Z</time><hdop>3.937</hdop><vdop>3.937</vdop><extensions><gom:speed>0.476</gom:speed></extensions></trkpt>
   <trkpt lat="59.0718320266" lon="29.9681912013"><ele>95.049</ele><time>2026-04-25T11:55:34.000Z</time><hdop>3.687</hdop><vdop>3.687</vdop><extensions><gom:speed>0.697</gom:speed></extensions></trkpt>
   <trkpt lat="59.0718227226" lon="29.9681909498"><ele>94.882</ele><time>2026-04-25T11:55:35.000Z</time><hdop>3.437</hdop><vdop>3.437</vdop><extensions><gom:speed>0.564</gom:speed></extensions></trkpt>
   <trkpt lat="59.071816059" lon="29.968190866"><ele>94.637</ele><time>2026-04-25T11:55:36.000Z</time><hdop>3.687</hdop><vdop>3.687</vdop><extensions><gom:speed>0.412</gom:speed></extensions></trkpt>
   <trkpt lat="59.0718104012" lon="29.9681911175"><ele>94.439</ele><time>2026-04-25T11:55:37.000Z</time><hdop>4.0</hdop><vdop>4.0</vdop><extensions><gom:speed>0.279</gom:speed></extensions></trkpt>
   <trkpt lat="59.0718048692" lon="29.9681941349"><ele>94.343</ele><time>2026-04-25T11:55:38.000Z</time><hdop>4.125</hdop><vdop>4.125</vdop><extensions><gom:speed>0.238</gom:speed></extensions></trkpt>
   <trkpt lat="59.0718048692" lon="29.9681941349"><ele>94.287</ele><time>2026-04-25T11:55:39.000Z</time><hdop>4.125</hdop><vdop>4.125</vdop><extensions><gom:speed>0.0</gom:speed></extensions></trkpt>
   <trkpt lat="59.071799379" lon="29.9681974039"><ele>94.283</ele><time>2026-04-25T11:55:40.000Z</time><hdop>4.375</hdop><vdop>4.375</vdop><extensions><gom:speed>0.65</gom:speed></extensions></trkpt>
   <trkpt lat="59.071799379" lon="29.9681974039"><ele>94.281</ele><time>2026-04-25T11:55:41.000Z</time><hdop>4.375</hdop><vdop>4.375</vdop><extensions><gom:speed>0.0</gom:speed></extensions></trkpt>
   <trkpt lat="59.0717936793" lon="29.9681967333"><ele>94.221</ele><time>2026-04-25T11:55:42.000Z</time><hdop>4.062</hdop><vdop>4.062</vdop><extensions><gom:speed>0.415</gom:speed></extensions></trkpt>
   <trkpt lat="59.0717836211" lon="29.9681953922"><ele>94.051</ele><time>2026-04-25T11:55:43.000Z</time><hdop>3.75</hdop><vdop>3.75</vdop><extensions><gom:speed>0.518</gom:speed></extensions></trkpt>
   <trkpt lat="59.0717747782" lon="29.9681920395"><ele>93.86</ele><time>2026-04-25T11:55:44.000Z</time><hdop>3.562</hdop><vdop>3.562</vdop><extensions><gom:speed>0.371</gom:speed></extensions></trkpt>
   <trkpt lat="59.0717691623" lon="29.9681915366"><ele>93.696</ele><time>2026-04-25T11:55:45.000Z</time><hdop>3.187</hdop><vdop>3.187</vdop><extensions><gom:speed>0.315</gom:speed></extensions></trkpt>
   <trkpt lat="59.0717611576" lon="29.9681975715"><ele>93.472</ele><time>2026-04-25T11:55:46.000Z</time><hdop>3.0</hdop><vdop>3.0</vdop><extensions><gom:speed>0.749</gom:speed></extensions></trkpt>
   <trkpt lat="59.0717529852" lon="29.9682016787"><ele>93.274</ele><time>2026-04-25T11:55:47.000Z</time><hdop>3.0</hdop><vdop>3.0</vdop><extensions><gom:speed>0.675</gom:speed></extensions></trkpt>
   <trkpt lat="59.0717463635" lon="29.9682061211"><ele>93.12</ele><time>2026-04-25T11:55:48.000Z</time><hdop>3.0</hdop><vdop>3.0</vdop><extensions><gom:speed>0.435</gom:speed></extensions></trkpt>
   <trkpt lat="59.0717403704" lon="29.9682088871"><ele>92.997</ele><time>2026-04-25T11:55:49.000Z</time><hdop>3.0</hdop><vdop>3.0</vdop><extensions><gom:speed>0.512</gom:speed></extensions></trkpt>
   <trkpt lat="59.0717329105" lon="29.9682108149"><ele>92.899</ele><time>2026-04-25T11:55:50.000Z</time><hdop>3.0</hdop><vdop>3.0</vdop><extensions><gom:speed>0.695</gom:speed></extensions></trkpt>
   <trkpt lat="59.0717258698" lon="29.9682133295"><ele>92.789</ele><time>2026-04-25T11:55:51.000Z</time><hdop>3.0</hdop><vdop>3.0</vdop><extensions><gom:speed>0.436</gom:speed></extensions></trkpt>
   <trkpt lat="59.0717208825" lon="29.9682123237"><ele>92.687</ele><time>2026-04-25T11:55:52.000Z</time><hdop>3.0</hdop><vdop>3.0</vdop><extensions><gom:speed>0.521</gom:speed></extensions></trkpt>
   <trkpt lat="59.0717170688" lon="29.9682088033"><ele>92.699</ele><time>2026-04-25T11:55:53.000Z</time><hdop>3.0</hdop><vdop>3.0</vdop><extensions><gom:speed>0.612</gom:speed></extensions></trkpt>
   <trkpt lat="59.0717170688" lon="29.9682088033"><ele>92.707</ele><time>2026-04-25T11:55:53.000Z</time><hdop>3.0</hdop><vdop>3.0</vdop><extensions><gom:speed>0.612</gom:speed></extensions></trkpt>
   <trkpt lat="59.0717145542" lon="29.9682000023"><ele>92.703</ele><time>2026-04-25T11:55:54.000Z</time><hdop>3.0</hdop><vdop>3.0</vdop><extensions><gom:speed>0.465</gom:speed></extensions></trkpt>
   <trkpt lat="59.0717112852" lon="29.9681930453"><ele>92.719</ele><time>2026-04-25T11:55:55.000Z</time><hdop>3.0</hdop><vdop>3.0</vdop><extensions><gom:speed>0.483</gom:speed></extensions></trkpt>
   <trkpt lat="59.0717086449" lon="29.9681825679"><ele>92.712</ele><time>2026-04-25T11:55:56.000Z</time><hdop>3.0</hdop><vdop>3.0</vdop><extensions><gom:speed>0.535</gom:speed></extensions></trkpt>
   <trkpt lat="59.0717050826" lon="29.9681705818"><ele>92.806</ele><time>2026-04-25T11:55:57.000Z</time><hdop>3.0</hdop><vdop>3.0</vdop><extensions><gom:speed>0.322</gom:speed></extensions></trkpt>
   <trkpt lat="59.0716957368" lon="29.9681559135"><ele>92.854</ele><time>2026-04-25T11:55:58.000Z</time><hdop>3.0</hdop><vdop>3.0</vdop><extensions><gom:speed>0.371</gom:speed></extensions></trkpt>
   <trkpt lat="59.0716877321" lon="29.9681455199"><ele>92.963</ele><time>2026-04-25T11:55:59.000Z</time><hdop>3.0</hdop><vdop>3.0</vdop><extensions><gom:speed>0.596</gom:speed></extensions></trkpt>
   <trkpt lat="59.0716797693" lon="29.9681368865"><ele>93.044</ele><time>2026-04-25T11:56:00.000Z</time><hdop>3.0</hdop><vdop>3.0</vdop><extensions><gom:speed>0.381</gom:speed></extensions></trkpt>
   <trkpt lat="59.0716797693" lon="29.9681368865"><ele>93.092</ele><time>2026-04-25T11:56:01.000Z</time><hdop>3.0</hdop><vdop>3.0</vdop><extensions><gom:speed>0.0</gom:speed></extensions></trkpt>
   <trkpt lat="59.0716797693" lon="29.9681368865"><ele>93.121</ele><time>2026-04-25T11:56:02.000Z</time><hdop>3.0</hdop><vdop>3.0</vdop><extensions><gom:speed>0.0</gom:speed></extensions></trkpt>
   <trkpt lat="59.0716744468" lon="29.9681324441"><ele>93.068</ele><time>2026-04-25T11:56:03.000Z</time><hdop>3.0</hdop><vdop>3.0</vdop><extensions><gom:speed>0.207</gom:speed></extensions></trkpt>
   <trkpt lat="59.0716744468" lon="29.9681324441"><ele>93.037</ele><time>2026-04-25T11:56:04.000Z</time><hdop>3.0</hdop><vdop>3.0</vdop><extensions><gom:speed>0.0</gom:speed></extensions></trkpt>
   <trkpt lat="59.0716744468" lon="29.9681324441"><ele>93.018</ele><time>2026-04-25T11:56:05.000Z</time><hdop>3.0</hdop><vdop>3.0</vdop><extensions><gom:speed>0.0</gom:speed></extensions></trkpt>
   <trkpt lat="59.0716744468" lon="29.9681324441"><ele>93.007</ele><time>2026-04-25T11:56:06.000Z</time><hdop>3.0</hdop><vdop>3.0</vdop><extensions><gom:speed>0.0</gom:speed></extensions></trkpt>
   <trkpt lat="59.0716644304" lon="29.9681242299"><ele>93.011</ele><time>2026-04-25T11:56:07.000Z</time><hdop>3.0</hdop><vdop>3.0</vdop><extensions><gom:speed>0.532</gom:speed></extensions></trkpt>
   <trkpt lat="59.0716542883" lon="29.9681160994"><ele>92.941</ele><time>2026-04-25T11:56:08.000Z</time><hdop>3.0</hdop><vdop>3.0</vdop><extensions><gom:speed>0.497</gom:speed></extensions></trkpt>
   <trkpt lat="59.0716459483" lon="29.9681082204"><ele>92.857</ele><time>2026-04-25T11:56:09.000Z</time><hdop>3.0</hdop><vdop>3.0</vdop><extensions><gom:speed>0.451</gom:speed></extensions></trkpt>
   <trkpt lat="59.0716293102" lon="29.9681034427"><ele>92.751</ele><time>2026-04-25T11:56:10.000Z</time><hdop>3.0</hdop><vdop>3.0</vdop><extensions><gom:speed>0.569</gom:speed></extensions></trkpt>
   <trkpt lat="59.0716188748" lon="29.9680964858"><ele>92.648</ele><time>2026-04-25T11:56:11.000Z</time><hdop>3.062</hdop><vdop>3.062</vdop><extensions><gom:speed>0.563</gom:speed></extensions></trkpt>
   <trkpt lat="59.0716088165" lon="29.9680908699"><ele>92.557</ele><time>2026-04-25T11:56:12.000Z</time><hdop>3.0</hdop><vdop>3.0</vdop><extensions><gom:speed>0.461</gom:speed></extensions></trkpt>
   <trkpt lat="59.0715998478" lon="29.9680833262"><ele>92.623</ele><time>2026-04-25T11:56:13.000Z</time><hdop>3.0</hdop><vdop>3.0</vdop><extensions><gom:speed>0.479</gom:speed></extensions></trkpt>
   <trkpt lat="59.0715998478" lon="29.9680833262"><ele>92.663</ele><time>2026-04-25T11:56:13.000Z</time><hdop>3.0</hdop><vdop>3.0</vdop><extensions><gom:speed>0.479</gom:speed></extensions></trkpt>
   <trkpt lat="59.0715935195" lon="29.9680801411"><ele>92.745</ele><time>2026-04-25T11:56:14.000Z</time><hdop>3.062</hdop><vdop>3.062</vdop><extensions><gom:speed>0.462</gom:speed></extensions></trkpt>
   <trkpt lat="59.0715869397" lon="29.9680802249"><ele>92.84</ele><time>2026-04-25T11:56:15.000Z</time><hdop>3.0</hdop><vdop>3.0</vdop><extensions><gom:speed>0.514</gom:speed></extensions></trkpt>
   <trkpt lat="59.0715796055" lon="29.9680820689"><ele>92.938</ele><time>2026-04-25T11:56:16.000Z</time><hdop>3.0</hdop><vdop>3.0</vdop><extensions><gom:speed>0.572</gom:speed></extensions></trkpt>
   <trkpt lat="59.0715711398" lon="29.9680810631"><ele>93.003</ele><time>2026-04-25T11:56:17.000Z</time><hdop>3.0</hdop><vdop>3.0</vdop><extensions><gom:speed>0.75</gom:speed></extensions></trkpt>
   <trkpt lat="59.0715631351" lon="29.9680779618"><ele>93.103</ele><time>2026-04-25T11:56:18.000Z</time><hdop>3.0</hdop><vdop>3.0</vdop><extensions><gom:speed>0.75</gom:speed></extensions></trkpt>
   <trkpt lat="59.0715560105" lon="29.9680738546"><ele>93.217</ele><time>2026-04-25T11:56:19.000Z</time><hdop>3.0</hdop><vdop>3.0</vdop><extensions><gom:speed>0.66</gom:speed></extensions></trkpt>
   <trkpt lat="59.0715507718" lon="29.9680702504"><ele>93.446</ele><time>2026-04-25T11:56:20.000Z</time><hdop>3.0</hdop><vdop>3.0</vdop><extensions><gom:speed>0.487</gom:speed></extensions></trkpt>
   <trkpt lat="59.0715474609" lon="29.9680664786"><ele>93.696</ele><time>2026-04-25T11:56:21.000Z</time><hdop>3.0</hdop><vdop>3.0</vdop><extensions><gom:speed>0.556</gom:speed></extensions></trkpt>
   <trkpt lat="59.0715451978" lon="29.9680567555"><ele>93.883</ele><time>2026-04-25T11:56:22.000Z</time><hdop>3.0</hdop><vdop>3.0</vdop><extensions><gom:speed>0.46</gom:speed></extensions></trkpt>
   <trkpt lat="59.0715419708" lon="29.9680480384"><ele>93.868</ele><time>2026-04-25T11:56:23.000Z</time><hdop>3.0</hdop><vdop>3.0</vdop><extensions><gom:speed>0.437</gom:speed></extensions></trkpt>
   <trkpt lat="59.0715356425" lon="29.968041249"><ele>93.947</ele><time>2026-04-25T11:56:24.000Z</time><hdop>3.0</hdop><vdop>3.0</vdop><extensions><gom:speed>0.279</gom:speed></extensions></trkpt>
   <trkpt lat="59.0715280149" lon="29.9680377286"><ele>94.017</ele><time>2026-04-25T11:56:25.000Z</time><hdop>3.0</hdop><vdop>3.0</vdop><extensions><gom:speed>0.365</gom:speed></extensions></trkpt>
   <trkpt lat="59.071521016" lon="29.9680331186"><ele>94.182</ele><time>2026-04-25T11:56:26.000Z</time><hdop>3.0</hdop><vdop>3.0</vdop><extensions><gom:speed>0.574</gom:speed></extensions></trkpt>
   <trkpt lat="59.0715134304" lon="29.9680262454"><ele>94.412</ele><time>2026-04-25T11:56:27.000Z</time><hdop>3.0</hdop><vdop>3.0</vdop><extensions><gom:speed>0.514</gom:speed></extensions></trkpt>
   <trkpt lat="59.0715041684" lon="29.9680206295"><ele>94.726</ele><time>2026-04-25T11:56:28.000Z</time><hdop>3.0</hdop><vdop>3.0</vdop><extensions><gom:speed>0.434</gom:speed></extensions></trkpt>
   <trkpt lat="59.0714967085" lon="29.9680170253"><ele>94.945</ele><time>2026-04-25T11:56:29.000Z</time><hdop>3.0</hdop><vdop>3.0</vdop><extensions><gom:speed>0.628</gom:speed></extensions></trkpt>
   <trkpt lat="59.0714860635" lon="29.9680150137"><ele>95.072</ele><time>2026-04-25T11:56:30.000Z</time><hdop>3.0</hdop><vdop>3.0</vdop><extensions><gom:speed>0.724</gom:speed></extensions></trkpt>
   <trkpt lat="59.0714750832" lon="29.9680123315"><ele>95.121</ele><time>2026-04-25T11:56:31.000Z</time><hdop>3.0</hdop><vdop>3.0</vdop><extensions><gom:speed>0.614</gom:speed></extensions></trkpt>
   <trkpt lat="59.0714646058" lon="29.9680103198"><ele>95.131</ele><time>2026-04-25T11:56:32.000Z</time><hdop>3.0</hdop><vdop>3.0</vdop><extensions><gom:speed>0.599</gom:speed></extensions></trkpt>
   <trkpt lat="59.0714563916" lon="29.9680016864"><ele>95.101</ele><time>2026-04-25T11:56:33.000Z</time><hdop>3.0</hdop><vdop>3.0</vdop><extensions><gom:speed>0.693</gom:speed></extensions></trkpt>
   <trkpt lat="59.0714563916" lon="29.9680016864"><ele>95.084</ele><time>2026-04-25T11:56:33.000Z</time><hdop>3.0</hdop><vdop>3.0</vdop><extensions><gom:speed>0.693</gom:speed></extensions></trkpt>
   <trkpt lat="59.0714489736" lon="29.9679964897"><ele>95.138</ele><time>2026-04-25T11:56:34.000Z</time><hdop>3.0</hdop><vdop>3.0</vdop><extensions><gom:speed>0.496</gom:speed></extensions></trkpt>
   <trkpt lat="59.0714415556" lon="29.9679928016"><ele>95.254</ele><time>2026-04-25T11:56:35.000Z</time><hdop>3.0</hdop><vdop>3.0</vdop><extensions><gom:speed>0.53</gom:speed></extensions></trkpt>
   <trkpt lat="59.0714334251" lon="29.9679902871"><ele>95.333</ele><time>2026-04-25T11:56:36.000Z</time><hdop>3.0</hdop><vdop>3.0</vdop><extensions><gom:speed>0.56</gom:speed></extensions></trkpt>
   <trkpt lat="59.0714263424" lon="29.9679888621"><ele>95.331</ele><time>2026-04-25T11:56:37.000Z</time><hdop>3.0</hdop><vdop>3.0</vdop><extensions><gom:speed>0.387</gom:speed></extensions></trkpt>
   <trkpt lat="59.071421439" lon="29.9679840844"><ele>95.292</ele><time>2026-04-25T11:56:38.000Z</time><hdop>3.0</hdop><vdop>3.0</vdop><extensions><gom:speed>0.296</gom:speed></extensions></trkpt>
   <trkpt lat="59.0714197626" lon="29.9679788038"><ele>95.241</ele><time>2026-04-25T11:56:39.000Z</time><hdop>3.0</hdop><vdop>3.0</vdop><extensions><gom:speed>0.195</gom:speed></extensions></trkpt>
   <trkpt lat="59.0714173319" lon="29.9679757025"><ele>95.14</ele><time>2026-04-25T11:56:40.000Z</time><hdop>3.0</hdop><vdop>3.0</vdop><extensions><gom:speed>0.512</gom:speed></extensions></trkpt>
   <trkpt lat="59.0714158651" lon="29.9679659795"><ele>95.093</ele><time>2026-04-25T11:56:41.000Z</time><hdop>3.0</hdop><vdop>3.0</vdop><extensions><gom:speed>0.285</gom:speed></extensions></trkpt>
   <trkpt lat="59.0714158651" lon="29.9679659795"><ele>95.065</ele><time>2026-04-25T11:56:42.000Z</time><hdop>3.0</hdop><vdop>3.0</vdop><extensions><gom:speed>0.0</gom:speed></extensions></trkpt>
   <trkpt lat="59.0714158651" lon="29.9679659795"><ele>95.049</ele><time>2026-04-25T11:56:43.000Z</time><hdop>3.0</hdop><vdop>3.0</vdop><extensions><gom:speed>0.0</gom:speed></extensions></trkpt>
   <trkpt lat="59.0714158651" lon="29.9679659795"><ele>95.039</ele><time>2026-04-25T11:56:43.000Z</time><hdop>3.0</hdop><vdop>3.0</vdop><extensions><gom:speed>0.0</gom:speed></extensions></trkpt>
   <trkpt lat="59.0714158651" lon="29.9679659795"><ele>95.033</ele><time>2026-04-25T11:56:44.000Z</time><hdop>3.0</hdop><vdop>3.0</vdop><extensions><gom:speed>0.0</gom:speed></extensions></trkpt>
   <trkpt lat="59.0714158651" lon="29.9679659795"><ele>95.029</ele><time>2026-04-25T11:56:44.000Z</time><hdop>3.0</hdop><vdop>3.0</vdop><extensions><gom:speed>0.0</gom:speed></extensions></trkpt>
   <trkpt lat="59.0714110874" lon="29.9679637164"><ele>95.114</ele><time>2026-04-25T11:56:45.000Z</time><hdop>3.0</hdop><vdop>3.0</vdop><extensions><gom:speed>0.613</gom:speed></extensions></trkpt>
   <trkpt lat="59.0714034598" lon="29.9679573462"><ele>95.227</ele><time>2026-04-25T11:56:46.000Z</time><hdop>3.0</hdop><vdop>3.0</vdop><extensions><gom:speed>0.677</gom:speed></extensions></trkpt>
   <trkpt lat="59.0713948265" lon="29.9679485452"><ele>95.349</ele><time>2026-04-25T11:56:47.000Z</time><hdop>3.0</hdop><vdop>3.0</vdop><extensions><gom:speed>0.497</gom:speed></extensions></trkpt>
   <trkpt lat="59.0713869894" lon="29.9679427617"><ele>95.358</ele><time>2026-04-25T11:56:48.000Z</time><hdop>3.0</hdop><vdop>3.0</vdop><extensions><gom:speed>0.56</gom:speed></extensions></trkpt>
   <trkpt lat="59.0713809125" lon="29.9679346312"><ele>95.34</ele><time>2026-04-25T11:56:49.000Z</time><hdop>3.0</hdop><vdop>3.0</vdop><extensions><gom:speed>0.56</gom:speed></extensions></trkpt>
   <trkpt lat="59.0713744585" lon="29.9679304403"><ele>95.335</ele><time>2026-04-25T11:56:50.000Z</time><hdop>3.0</hdop><vdop>3.0</vdop><extensions><gom:speed>0.36</gom:speed></extensions></trkpt>
   <trkpt lat="59.0713661185" lon="29.9679311108"><ele>95.48</ele><time>2026-04-25T11:56:51.000Z</time><hdop>3.0</hdop><vdop>3.0</vdop><extensions><gom:speed>0.169</gom:speed></extensions></trkpt>
   <trkpt lat="59.071360335" lon="29.9679315299"><ele>95.593</ele><time>2026-04-25T11:56:52.000Z</time><hdop>3.0</hdop><vdop>3.0</vdop><extensions><gom:speed>0.205</gom:speed></extensions></trkpt>
   <trkpt lat="59.071360335" lon="29.9679315299"><ele>95.661</ele><time>2026-04-25T11:56:53.000Z</time><hdop>3.0</hdop><vdop>3.0</vdop><extensions><gom:speed>0.0</gom:speed></extensions></trkpt>
   <trkpt lat="59.071360335" lon="29.9679315299"><ele>95.701</ele><time>2026-04-25T11:56:53.000Z</time><hdop>3.0</hdop><vdop>3.0</vdop><extensions><gom:speed>0.0</gom:speed></extensions></trkpt>
   <trkpt lat="59.071351534" lon="29.9679316137"><ele>95.764</ele><time>2026-04-25T11:56:54.000Z</time><hdop>3.0</hdop><vdop>3.0</vdop><extensions><gom:speed>0.879</gom:speed></extensions></trkpt>
   <trkpt lat="59.0713354826" lon="29.9679258302"><ele>95.836</ele><time>2026-04-25T11:56:55.000Z</time><hdop>3.0</hdop><vdop>3.0</vdop><extensions><gom:speed>1.462</gom:speed></extensions></trkpt>
   <trkpt lat="59.0713197665" lon="29.9679170292"><ele>95.918</ele><time>2026-04-25T11:56:56.000Z</time><hdop>3.0</hdop><vdop>3.0</vdop><extensions><gom:speed>0.74</gom:speed></extensions></trkpt>
   <trkpt lat="59.0713132706" lon="29.9679153528"><ele>95.992</ele><time>2026-04-25T11:56:57.000Z</time><hdop>3.187</hdop><vdop>3.187</vdop><extensions><gom:speed>0.24</gom:speed></extensions></trkpt>
   <trkpt lat="59.0713132706" lon="29.9679153528"><ele>96.037</ele><time>2026-04-25T11:56:58.000Z</time><hdop>3.187</hdop><vdop>3.187</vdop><extensions><gom:speed>0.0</gom:speed></extensions></trkpt>
   <trkpt lat="59.0713132706" lon="29.9679153528"><ele>96.063</ele><time>2026-04-25T11:56:59.000Z</time><hdop>3.187</hdop><vdop>3.187</vdop><extensions><gom:speed>0.0</gom:speed></extensions></trkpt>
   <trkpt lat="59.0713132706" lon="29.9679153528"><ele>96.079</ele><time>2026-04-25T11:57:00.000Z</time><hdop>3.187</hdop><vdop>3.187</vdop><extensions><gom:speed>0.0</gom:speed></extensions></trkpt>
   <trkpt lat="59.0713132706" lon="29.9679153528"><ele>96.089</ele><time>2026-04-25T11:57:01.000Z</time><hdop>3.187</hdop><vdop>3.187</vdop><extensions><gom:speed>0.0</gom:speed></extensions></trkpt>
   <trkpt lat="59.07130799" lon="29.9679183703"><ele>96.167</ele><time>2026-04-25T11:57:02.000Z</time><hdop>3.375</hdop><vdop>3.375</vdop><extensions><gom:speed>0.543</gom:speed></extensions></trkpt>
   <trkpt lat="59.07130799" lon="29.9679183703"><ele>96.214</ele><time>2026-04-25T11:57:03.000Z</time><hdop>3.375</hdop><vdop>3.375</vdop><extensions><gom:speed>0.0</gom:speed></extensions></trkpt>
   <trkpt lat="59.07130799" lon="29.9679183703"><ele>96.241</ele><time>2026-04-25T11:57:04.000Z</time><hdop>3.375</hdop><vdop>3.375</vdop><extensions><gom:speed>0.0</gom:speed></extensions></trkpt>
   <trkpt lat="59.07130799" lon="29.9679183703"><ele>96.258</ele><time>2026-04-25T11:57:05.000Z</time><hdop>3.375</hdop><vdop>3.375</vdop><extensions><gom:speed>0.0</gom:speed></extensions></trkpt>
   <trkpt lat="59.07130799" lon="29.9679183703"><ele>96.268</ele><time>2026-04-25T11:57:06.000Z</time><hdop>3.375</hdop><vdop>3.375</vdop><extensions><gom:speed>0.0</gom:speed></extensions></trkpt>
   <trkpt lat="59.07130799" lon="29.9679183703"><ele>96.274</ele><time>2026-04-25T11:57:07.000Z</time><hdop>3.375</hdop><vdop>3.375</vdop><extensions><gom:speed>0.0</gom:speed></extensions></trkpt>
   <trkpt lat="59.07130799" lon="29.9679183703"><ele>96.278</ele><time>2026-04-25T11:57:08.000Z</time><hdop>3.375</hdop><vdop>3.375</vdop><extensions><gom:speed>0.0</gom:speed></extensions></trkpt>
   <trkpt lat="59.07130799" lon="29.9679183703"><ele>96.28</ele><time>2026-04-25T11:57:09.000Z</time><hdop>3.375</hdop><vdop>3.375</vdop><extensions><gom:speed>0.0</gom:speed></extensions></trkpt>
   <trkpt lat="59.07130799" lon="29.9679183703"><ele>96.281</ele><time>2026-04-25T11:57:10.000Z</time><hdop>3.375</hdop><vdop>3.375</vdop><extensions><gom:speed>0.0</gom:speed></extensions></trkpt>
   <trkpt lat="59.07130799" lon="29.9679183703"><ele>96.282</ele><time>2026-04-25T11:57:11.000Z</time><hdop>3.375</hdop><vdop>3.375</vdop><extensions><gom:speed>0.0</gom:speed></extensions></trkpt>
   <trkpt lat="59.07130799" lon="29.9679183703"><ele>96.282</ele><time>2026-04-25T11:57:12.000Z</time><hdop>3.375</hdop><vdop>3.375</vdop><extensions><gom:speed>0.0</gom:speed></extensions></trkpt>
   <trkpt lat="59.0713043019" lon="29.9679133412"><ele>96.281</ele><time>2026-04-25T11:57:13.000Z</time><hdop>3.5</hdop><vdop>3.5</vdop><extensions><gom:speed>0.308</gom:speed></extensions></trkpt>
   <trkpt lat="59.0713043019" lon="29.9679133412"><ele>96.281</ele><time>2026-04-25T11:57:13.000Z</time><hdop>3.5</hdop><vdop>3.5</vdop><extensions><gom:speed>0.308</gom:speed></extensions></trkpt>
   <trkpt lat="59.071297345" lon="29.9679047078"><ele>96.28</ele><time>2026-04-25T11:57:14.000Z</time><hdop>3.562</hdop><vdop>3.562</vdop><extensions><gom:speed>0.548</gom:speed></extensions></trkpt>
   <trkpt lat="59.0712892145" lon="29.9678953201"><ele>96.28</ele><time>2026-04-25T11:57:15.000Z</time><hdop>3.062</hdop><vdop>3.062</vdop><extensions><gom:speed>0.576</gom:speed></extensions></trkpt>
   <trkpt lat="59.0712806231" lon="29.9678866867"><ele>96.275</ele><time>2026-04-25T11:57:16.000Z</time><hdop>3.0</hdop><vdop>3.0</vdop><extensions><gom:speed>0.425</gom:speed></extensions></trkpt>
   <trkpt lat="59.0712689303" lon="29.9678728566"><ele>96.167</ele><time>2026-04-25T11:57:17.000Z</time><hdop>3.0</hdop><vdop>3.0</vdop><extensions><gom:speed>0.44</gom:speed></extensions></trkpt>
   <trkpt lat="59.07125795" lon="29.9678668216"><ele>96.066</ele><time>2026-04-25T11:57:18.000Z</time><hdop>3.0</hdop><vdop>3.0</vdop><extensions><gom:speed>0.334</gom:speed></extensions></trkpt>
   <trkpt lat="59.0712517055" lon="29.9678612057"><ele>96.037</ele><time>2026-04-25T11:57:19.000Z</time><hdop>3.0</hdop><vdop>3.0</vdop><extensions><gom:speed>0.226</gom:speed></extensions></trkpt>
   <trkpt lat="59.0712473469" lon="29.9678581883"><ele>95.984</ele><time>2026-04-25T11:57:20.000Z</time><hdop>3.0</hdop><vdop>3.0</vdop><extensions><gom:speed>0.173</gom:speed></extensions></trkpt>
   <trkpt lat="59.0712473469" lon="29.9678581883"><ele>95.952</ele><time>2026-04-25T11:57:21.000Z</time><hdop>3.0</hdop><vdop>3.0</vdop><extensions><gom:speed>0.0</gom:speed></extensions></trkpt>
   <trkpt lat="59.0712473469" lon="29.9678581883"><ele>95.933</ele><time>2026-04-25T11:57:22.000Z</time><hdop>3.0</hdop><vdop>3.0</vdop><extensions><gom:speed>0.0</gom:speed></extensions></trkpt>
   <trkpt lat="59.0712473469" lon="29.9678581883"><ele>95.921</ele><time>2026-04-25T11:57:23.000Z</time><hdop>3.0</hdop><vdop>3.0</vdop><extensions><gom:speed>0.0</gom:speed></extensions></trkpt>
   <trkpt lat="59.0712473469" lon="29.9678581883"><ele>95.914</ele><time>2026-04-25T11:57:24.000Z</time><hdop>3.0</hdop><vdop>3.0</vdop><extensions><gom:speed>0.0</gom:speed></extensions></trkpt>
   <trkpt lat="59.0712424854" lon="29.9678554222"><ele>95.923</ele><time>2026-04-25T11:57:25.000Z</time><hdop>3.0</hdop><vdop>3.0</vdop><extensions><gom:speed>0.41</gom:speed></extensions></trkpt>
   <trkpt lat="59.0712424854" lon="29.9678554222"><ele>95.928</ele><time>2026-04-25T11:57:26.000Z</time><hdop>3.0</hdop><vdop>3.0</vdop><extensions><gom:speed>0.0</gom:speed></extensions></trkpt>
   <trkpt lat="59.0712424854" lon="29.9678554222"><ele>95.931</ele><time>2026-04-25T11:57:27.000Z</time><hdop>3.0</hdop><vdop>3.0</vdop><extensions><gom:speed>0.0</gom:speed></extensions></trkpt>
   <trkpt lat="59.0712424854" lon="29.9678554222"><ele>95.933</ele><time>2026-04-25T11:57:28.000Z</time><hdop>3.0</hdop><vdop>3.0</vdop><extensions><gom:speed>0.0</gom:speed></extensions></trkpt>
   <trkpt lat="59.0712317566" lon="29.9678614572"><ele>96.049</ele><time>2026-04-25T11:57:29.000Z</time><hdop>3.0</hdop><vdop>3.0</vdop><extensions><gom:speed>0.552</gom:speed></extensions></trkpt>
   <trkpt lat="59.0712196866" lon="29.9678551708"><ele>96.112</ele><time>2026-04-25T11:57:30.000Z</time><hdop>3.0</hdop><vdop>3.0</vdop><extensions><gom:speed>0.604</gom:speed></extensions></trkpt>
   <trkpt lat="59.0712108437" lon="29.9678520695"><ele>96.243</ele><time>2026-04-25T11:57:31.000Z</time><hdop>3.0</hdop><vdop>3.0</vdop><extensions><gom:speed>0.513</gom:speed></extensions></trkpt>
   <trkpt lat="59.0712021684" lon="29.9678506445"><ele>96.387</ele><time>2026-04-25T11:57:32.000Z</time><hdop>3.0</hdop><vdop>3.0</vdop><extensions><gom:speed>0.402</gom:speed></extensions></trkpt>
   <trkpt lat="59.0712021684" lon="29.9678506445"><ele>96.474</ele><time>2026-04-25T11:57:33.000Z</time><hdop>3.0</hdop><vdop>3.0</vdop><extensions><gom:speed>0.0</gom:speed></extensions></trkpt>
   <trkpt lat="59.0712021684" lon="29.9678506445"><ele>96.525</ele><time>2026-04-25T11:57:33.000Z</time><hdop>3.0</hdop><vdop>3.0</vdop><extensions><gom:speed>0.0</gom:speed></extensions></trkpt>
   <trkpt lat="59.0712007435" lon="29.9678504769"><ele>96.582</ele><time>2026-04-25T11:57:34.000Z</time><hdop>3.0</hdop><vdop>3.0</vdop><extensions><gom:speed>0.106</gom:speed></extensions></trkpt>
   <trkpt lat="59.0711974746" lon="29.967847208"><ele>96.639</ele><time>2026-04-25T11:57:35.000Z</time><hdop>3.0</hdop><vdop>3.0</vdop><extensions><gom:speed>0.438</gom:speed></extensions></trkpt>
   <trkpt lat="59.0711934513" lon="29.9678388261"><ele>96.664</ele><time>2026-04-25T11:57:36.000Z</time><hdop>3.0</hdop><vdop>3.0</vdop><extensions><gom:speed>0.479</gom:speed></extensions></trkpt>
   <trkpt lat="59.0711887155" lon="29.9678266723"><ele>96.67</ele><time>2026-04-25T11:57:37.000Z</time><hdop>3.0</hdop><vdop>3.0</vdop><extensions><gom:speed>0.716</gom:speed></extensions></trkpt>
   <trkpt lat="59.0711819261" lon="29.9678140995"><ele>96.627</ele><time>2026-04-25T11:57:38.000Z</time><hdop>3.0</hdop><vdop>3.0</vdop><extensions><gom:speed>0.59</gom:speed></extensions></trkpt>
   <trkpt lat="59.0711773161" lon="29.9678051308"><ele>96.569</ele><time>2026-04-25T11:57:39.000Z</time><hdop>3.0</hdop><vdop>3.0</vdop><extensions><gom:speed>0.329</gom:speed></extensions></trkpt>
   <trkpt lat="59.071169018" lon="29.9677948211"><ele>96.588</ele><time>2026-04-25T11:57:40.000Z</time><hdop>3.0</hdop><vdop>3.0</vdop><extensions><gom:speed>0.383</gom:speed></extensions></trkpt>
   <trkpt lat="59.0711636536" lon="29.9677858524"><ele>96.605</ele><time>2026-04-25T11:57:41.000Z</time><hdop>3.0</hdop><vdop>3.0</vdop><extensions><gom:speed>0.351</gom:speed></extensions></trkpt>
   <trkpt lat="59.0711537629" lon="29.9677728605"><ele>96.527</ele><time>2026-04-25T11:57:42.000Z</time><hdop>3.0</hdop><vdop>3.0</vdop><extensions><gom:speed>0.671</gom:speed></extensions></trkpt>
   <trkpt lat="59.0711455906" lon="29.9677581083"><ele>96.547</ele><time>2026-04-25T11:57:43.000Z</time><hdop>3.0</hdop><vdop>3.0</vdop><extensions><gom:speed>0.34</gom:speed></extensions></trkpt>
   <trkpt lat="59.0711364124" lon="29.9677450326"><ele>96.532</ele><time>2026-04-25T11:57:44.000Z</time><hdop>3.0</hdop><vdop>3.0</vdop><extensions><gom:speed>0.39</gom:speed></extensions></trkpt>
   <trkpt lat="59.0711291621" lon="29.9677328788"><ele>96.437</ele><time>2026-04-25T11:57:45.000Z</time><hdop>3.0</hdop><vdop>3.0</vdop><extensions><gom:speed>0.452</gom:speed></extensions></trkpt>
   <trkpt lat="59.0711291621" lon="29.9677328788"><ele>96.38</ele><time>2026-04-25T11:57:46.000Z</time><hdop>3.0</hdop><vdop>3.0</vdop><extensions><gom:speed>0.0</gom:speed></extensions></trkpt>
   <trkpt lat="59.0711221213" lon="29.9677229882"><ele>96.29</ele><time>2026-04-25T11:57:47.000Z</time><hdop>3.0</hdop><vdop>3.0</vdop><extensions><gom:speed>0.497</gom:speed></extensions></trkpt>
   <trkpt lat="59.0711133203" lon="29.9677027878"><ele>96.17</ele><time>2026-04-25T11:57:48.000Z</time><hdop>3.062</hdop><vdop>3.062</vdop><extensions><gom:speed>0.445</gom:speed></extensions></trkpt>
   <trkpt lat="59.0711082073" lon="29.9676872813"><ele>96.188</ele><time>2026-04-25T11:57:49.000Z</time><hdop>3.187</hdop><vdop>3.187</vdop><extensions><gom:speed>0.344</gom:speed></extensions></trkpt>
   <trkpt lat="59.071101418" lon="29.9676757142"><ele>96.217</ele><time>2026-04-25T11:57:50.000Z</time><hdop>3.0</hdop><vdop>3.0</vdop><extensions><gom:speed>0.416</gom:speed></extensions></trkpt>
   <trkpt lat="59.0710968917" lon="29.9676664103"><ele>96.134</ele><time>2026-04-25T11:57:51.000Z</time><hdop>3.0</hdop><vdop>3.0</vdop><extensions><gom:speed>0.424</gom:speed></extensions></trkpt>
   <trkpt lat="59.0710924074" lon="29.9676582799"><ele>96.069</ele><time>2026-04-25T11:57:52.000Z</time><hdop>3.312</hdop><vdop>3.312</vdop><extensions><gom:speed>0.352</gom:speed></extensions></trkpt>
   <trkpt lat="59.0710924074" lon="29.9676582799"><ele>96.029</ele><time>2026-04-25T11:57:53.000Z</time><hdop>3.312</hdop><vdop>3.312</vdop><extensions><gom:speed>0.0</gom:speed></extensions></trkpt>
   <trkpt lat="59.0710924074" lon="29.9676582799"><ele>96.006</ele><time>2026-04-25T11:57:53.000Z</time><hdop>3.312</hdop><vdop>3.312</vdop><extensions><gom:speed>0.0</gom:speed></extensions></trkpt>
   <trkpt lat="59.0710924074" lon="29.9676582799"><ele>95.992</ele><time>2026-04-25T11:57:54.000Z</time><hdop>3.312</hdop><vdop>3.312</vdop><extensions><gom:speed>0.0</gom:speed></extensions></trkpt>
   <trkpt lat="59.0710924074" lon="29.9676582799"><ele>95.984</ele><time>2026-04-25T11:57:55.000Z</time><hdop>3.312</hdop><vdop>3.312</vdop><extensions><gom:speed>0.0</gom:speed></extensions></trkpt>
   <trkpt lat="59.0710924074" lon="29.9676582799"><ele>95.979</ele><time>2026-04-25T11:57:56.000Z</time><hdop>3.312</hdop><vdop>3.312</vdop><extensions><gom:speed>0.0</gom:speed></extensions></trkpt>
   <trkpt lat="59.0710924074" lon="29.9676582799"><ele>95.976</ele><time>2026-04-25T11:57:57.000Z</time><hdop>3.312</hdop><vdop>3.312</vdop><extensions><gom:speed>0.0</gom:speed></extensions></trkpt>
   <trkpt lat="59.0710924074" lon="29.9676582799"><ele>95.974</ele><time>2026-04-25T11:57:58.000Z</time><hdop>3.312</hdop><vdop>3.312</vdop><extensions><gom:speed>0.0</gom:speed></extensions></trkpt>
   <trkpt lat="59.0710924074" lon="29.9676582799"><ele>95.973</ele><time>2026-04-25T11:57:59.000Z</time><hdop>3.312</hdop><vdop>3.312</vdop><extensions><gom:speed>0.0</gom:speed></extensions></trkpt>
   <trkpt lat="59.0710924074" lon="29.9676582799"><ele>95.972</ele><time>2026-04-25T11:58:00.000Z</time><hdop>3.312</hdop><vdop>3.312</vdop><extensions><gom:speed>0.0</gom:speed></extensions></trkpt>
   <trkpt lat="59.0710924074" lon="29.9676582799"><ele>95.972</ele><time>2026-04-25T11:58:01.000Z</time><hdop>3.312</hdop><vdop>3.312</vdop><extensions><gom:speed>0.0</gom:speed></extensions></trkpt>
   <trkpt lat="59.0710832292" lon="29.9676461261"><ele>95.839</ele><time>2026-04-25T11:58:02.000Z</time><hdop>3.625</hdop><vdop>3.625</vdop><extensions><gom:speed>0.399</gom:speed></extensions></trkpt>
   <trkpt lat="59.0710790802" lon="29.9676343076"><ele>95.506</ele><time>2026-04-25T11:58:03.000Z</time><hdop>3.437</hdop><vdop>3.437</vdop><extensions><gom:speed>0.68</gom:speed></extensions></trkpt>
   <trkpt lat="59.0710775295" lon="29.9676184658"><ele>95.227</ele><time>2026-04-25T11:58:04.000Z</time><hdop>3.25</hdop><vdop>3.25</vdop><extensions><gom:speed>0.397</gom:speed></extensions></trkpt>
   <trkpt lat="59.0710756855" lon="29.9676060606"><ele>95.055</ele><time>2026-04-25T11:58:05.000Z</time><hdop>3.0</hdop><vdop>3.0</vdop><extensions><gom:speed>0.363</gom:speed></extensions></trkpt>
   <trkpt lat="59.0710715784" lon="29.9675946612"><ele>94.94</ele><time>2026-04-25T11:58:06.000Z</time><hdop>3.625</hdop><vdop>3.625</vdop><extensions><gom:speed>0.274</gom:speed></extensions></trkpt>
   <trkpt lat="59.0710673874" lon="29.9675823398"><ele>94.917</ele><time>2026-04-25T11:58:07.000Z</time><hdop>4.25</hdop><vdop>4.25</vdop><extensions><gom:speed>0.443</gom:speed></extensions></trkpt>
   <trkpt lat="59.0710622745" lon="29.9675698508"><ele>94.816</ele><time>2026-04-25T11:58:08.000Z</time><hdop>3.875</hdop><vdop>3.875</vdop><extensions><gom:speed>0.557</gom:speed></extensions></trkpt>
   <trkpt lat="59.0710622745" lon="29.9675698508"><ele>94.756</ele><time>2026-04-25T11:58:09.000Z</time><hdop>3.875</hdop><vdop>3.875</vdop><extensions><gom:speed>0.0</gom:speed></extensions></trkpt>
   <trkpt lat="59.0710593408" lon="29.9675610498"><ele>94.629</ele><time>2026-04-25T11:58:10.000Z</time><hdop>3.625</hdop><vdop>3.625</vdop><extensions><gom:speed>0.492</gom:speed></extensions></trkpt>
   <trkpt lat="59.0710550241" lon="29.9675500695"><ele>94.532</ele><time>2026-04-25T11:58:11.000Z</time><hdop>4.062</hdop><vdop>4.062</vdop><extensions><gom:speed>0.447</gom:speed></extensions></trkpt>
   <trkpt lat="59.0710550241" lon="29.9675500695"><ele>94.474</ele><time>2026-04-25T11:58:12.000Z</time><hdop>4.062</hdop><vdop>4.062</vdop><extensions><gom:speed>0.0</gom:speed></extensions></trkpt>
   <trkpt lat="59.0710550241" lon="29.9675500695"><ele>94.439</ele><time>2026-04-25T11:58:13.000Z</time><hdop>4.062</hdop><vdop>4.062</vdop><extensions><gom:speed>0.0</gom:speed></extensions></trkpt>
   <trkpt lat="59.0710550241" lon="29.9675500695"><ele>94.419</ele><time>2026-04-25T11:58:13.000Z</time><hdop>4.062</hdop><vdop>4.062</vdop><extensions><gom:speed>0.0</gom:speed></extensions></trkpt>
   <trkpt lat="59.0710550241" lon="29.9675500695"><ele>94.406</ele><time>2026-04-25T11:58:14.000Z</time><hdop>4.062</hdop><vdop>4.062</vdop><extensions><gom:speed>0.0</gom:speed></extensions></trkpt>
   <trkpt lat="59.0710550241" lon="29.9675500695"><ele>94.399</ele><time>2026-04-25T11:58:15.000Z</time><hdop>4.062</hdop><vdop>4.062</vdop><extensions><gom:speed>0.0</gom:speed></extensions></trkpt>
   <trkpt lat="59.0710550241" lon="29.9675500695"><ele>94.394</ele><time>2026-04-25T11:58:16.000Z</time><hdop>4.062</hdop><vdop>4.062</vdop><extensions><gom:speed>0.0</gom:speed></extensions></trkpt>
   <trkpt lat="59.0710550241" lon="29.9675500695"><ele>94.392</ele><time>2026-04-25T11:58:17.000Z</time><hdop>4.062</hdop><vdop>4.062</vdop><extensions><gom:speed>0.0</gom:speed></extensions></trkpt>
   <trkpt lat="59.0710550241" lon="29.9675500695"><ele>94.39</ele><time>2026-04-25T11:58:18.000Z</time><hdop>4.062</hdop><vdop>4.062</vdop><extensions><gom:speed>0.0</gom:speed></extensions></trkpt>
   <trkpt lat="59.0710550241" lon="29.9675500695"><ele>94.389</ele><time>2026-04-25T11:58:19.000Z</time><hdop>4.062</hdop><vdop>4.062</vdop><extensions><gom:speed>0.0</gom:speed></extensions></trkpt>
   <trkpt lat="59.0710533477" lon="29.967536407"><ele>94.293</ele><time>2026-04-25T11:58:20.000Z</time><hdop>4.187</hdop><vdop>4.187</vdop><extensions><gom:speed>0.544</gom:speed></extensions></trkpt>
   <trkpt lat="59.0710533477" lon="29.967536407"><ele>94.235</ele><time>2026-04-25T11:58:21.000Z</time><hdop>4.187</hdop><vdop>4.187</vdop><extensions><gom:speed>0.0</gom:speed></extensions></trkpt>
   <trkpt lat="59.0710531801" lon="29.9675302044"><ele>94.139</ele><time>2026-04-25T11:58:22.000Z</time><hdop>4.125</hdop><vdop>4.125</vdop><extensions><gom:speed>0.473</gom:speed></extensions></trkpt>
   <trkpt lat="59.0710547727" lon="29.9675234989"><ele>94.07</ele><time>2026-04-25T11:58:23.000Z</time><hdop>4.312</hdop><vdop>4.312</vdop><extensions><gom:speed>0.352</gom:speed></extensions></trkpt>
   <trkpt lat="59.071056952" lon="29.9675167933"><ele>93.941</ele><time>2026-04-25T11:58:24.000Z</time><hdop>3.937</hdop><vdop>3.937</vdop><extensions><gom:speed>0.246</gom:speed></extensions></trkpt>
   <trkpt lat="59.071056952" lon="29.9675167933"><ele>93.864</ele><time>2026-04-25T11:58:25.000Z</time><hdop>3.937</hdop><vdop>3.937</vdop><extensions><gom:speed>0.0</gom:speed></extensions></trkpt>
   <trkpt lat="59.0710577063" lon="29.9675076571"><ele>93.848</ele><time>2026-04-25T11:58:26.000Z</time><hdop>3.75</hdop><vdop>3.75</vdop><extensions><gom:speed>0.31</gom:speed></extensions></trkpt>
   <trkpt lat="59.0710554013" lon="29.9674915638"><ele>93.927</ele><time>2026-04-25T11:58:27.000Z</time><hdop>4.25</hdop><vdop>4.25</vdop><extensions><gom:speed>0.494</gom:speed></extensions></trkpt>
   <trkpt lat="59.0710545212" lon="29.9674763088"><ele>94.128</ele><time>2026-04-25T11:58:28.000Z</time><hdop>4.5</hdop><vdop>4.5</vdop><extensions><gom:speed>0.6</gom:speed></extensions></trkpt>
   <trkpt lat="59.0710528867" lon="29.9674612213"><ele>94.238</ele><time>2026-04-25T11:58:29.000Z</time><hdop>4.75</hdop><vdop>4.75</vdop><extensions><gom:speed>0.263</gom:speed></extensions></trkpt>
   <trkpt lat="59.0710507913" lon="29.9674541805"><ele>94.267</ele><time>2026-04-25T11:58:30.000Z</time><hdop>4.625</hdop><vdop>4.625</vdop><extensions><gom:speed>0.147</gom:speed></extensions></trkpt>
   <trkpt lat="59.0710489473" lon="29.9674489837"><ele>94.344</ele><time>2026-04-25T11:58:31.000Z</time><hdop>4.875</hdop><vdop>4.875</vdop><extensions><gom:speed>0.114</gom:speed></extensions></trkpt>
   <trkpt lat="59.0710461393" lon="29.9674458824"><ele>94.466</ele><time>2026-04-25T11:58:32.000Z</time><hdop>4.687</hdop><vdop>4.687</vdop><extensions><gom:speed>0.322</gom:speed></extensions></trkpt>
   <trkpt lat="59.0710461393" lon="29.9674458824"><ele>94.539</ele><time>2026-04-25T11:58:33.000Z</time><hdop>4.875</hdop><vdop>4.875</vdop><extensions><gom:speed>0.0</gom:speed></extensions></trkpt>
   <trkpt lat="59.0710461393" lon="29.9674458824"><ele>94.583</ele><time>2026-04-25T11:58:33.000Z</time><hdop>4.875</hdop><vdop>4.875</vdop><extensions><gom:speed>0.0</gom:speed></extensions></trkpt>
   <trkpt lat="59.0710461393" lon="29.9674458824"><ele>94.609</ele><time>2026-04-25T11:58:34.000Z</time><hdop>4.875</hdop><vdop>4.875</vdop><extensions><gom:speed>0.0</gom:speed></extensions></trkpt>
   <trkpt lat="59.0710461393" lon="29.9674458824"><ele>94.625</ele><time>2026-04-25T11:58:35.000Z</time><hdop>4.875</hdop><vdop>4.875</vdop><extensions><gom:speed>0.0</gom:speed></extensions></trkpt>
   <trkpt lat="59.0710461393" lon="29.9674458824"><ele>94.634</ele><time>2026-04-25T11:58:36.000Z</time><hdop>4.875</hdop><vdop>4.875</vdop><extensions><gom:speed>0.0</gom:speed></extensions></trkpt>
   <trkpt lat="59.0710461393" lon="29.9674458824"><ele>94.64</ele><time>2026-04-25T11:58:37.000Z</time><hdop>4.875</hdop><vdop>4.875</vdop><extensions><gom:speed>0.0</gom:speed></extensions></trkpt>
   <trkpt lat="59.0710461393" lon="29.9674458824"><ele>94.643</ele><time>2026-04-25T11:58:38.000Z</time><hdop>4.875</hdop><vdop>4.875</vdop><extensions><gom:speed>0.0</gom:speed></extensions></trkpt>
   <trkpt lat="59.0710461393" lon="29.9674458824"><ele>94.645</ele><time>2026-04-25T11:58:39.000Z</time><hdop>4.875</hdop><vdop>4.875</vdop><extensions><gom:speed>0.0</gom:speed></extensions></trkpt>
   <trkpt lat="59.0710461393" lon="29.9674458824"><ele>94.646</ele><time>2026-04-25T11:58:40.000Z</time><hdop>4.875</hdop><vdop>4.875</vdop><extensions><gom:speed>0.0</gom:speed></extensions></trkpt>
   <trkpt lat="59.0710461393" lon="29.9674458824"><ele>94.647</ele><time>2026-04-25T11:58:41.000Z</time><hdop>4.875</hdop><vdop>4.875</vdop><extensions><gom:speed>0.0</gom:speed></extensions></trkpt>
   <trkpt lat="59.0710461393" lon="29.9674458824"><ele>94.647</ele><time>2026-04-25T11:58:42.000Z</time><hdop>4.875</hdop><vdop>4.875</vdop><extensions><gom:speed>0.0</gom:speed></extensions></trkpt>
   <trkpt lat="59.0710461393" lon="29.9674458824"><ele>94.648</ele><time>2026-04-25T11:58:43.000Z</time><hdop>4.875</hdop><vdop>4.875</vdop><extensions><gom:speed>0.0</gom:speed></extensions></trkpt>
   <trkpt lat="59.0710461393" lon="29.9674458824"><ele>94.648</ele><time>2026-04-25T11:58:44.000Z</time><hdop>4.875</hdop><vdop>4.875</vdop><extensions><gom:speed>0.0</gom:speed></extensions></trkpt>
   <trkpt lat="59.0710461393" lon="29.9674458824"><ele>94.648</ele><time>2026-04-25T11:58:45.000Z</time><hdop>4.875</hdop><vdop>4.875</vdop><extensions><gom:speed>0.0</gom:speed></extensions></trkpt>
   <trkpt lat="59.0710461393" lon="29.9674458824"><ele>94.648</ele><time>2026-04-25T11:58:46.000Z</time><hdop>4.875</hdop><vdop>4.875</vdop><extensions><gom:speed>0.0</gom:speed></extensions></trkpt>
   <trkpt lat="59.0710461393" lon="29.9674458824"><ele>94.648</ele><time>2026-04-25T11:58:47.000Z</time><hdop>4.875</hdop><vdop>4.875</vdop><extensions><gom:speed>0.0</gom:speed></extensions></trkpt>
   <trkpt lat="59.0710461393" lon="29.9674458824"><ele>94.648</ele><time>2026-04-25T11:58:48.000Z</time><hdop>4.875</hdop><vdop>4.875</vdop><extensions><gom:speed>0.0</gom:speed></extensions></trkpt>
   <trkpt lat="59.0710461393" lon="29.9674458824"><ele>94.648</ele><time>2026-04-25T11:58:49.000Z</time><hdop>4.875</hdop><vdop>4.875</vdop><extensions><gom:speed>0.0</gom:speed></extensions></trkpt>
   <trkpt lat="59.0710461393" lon="29.9674458824"><ele>94.648</ele><time>2026-04-25T11:58:50.000Z</time><hdop>4.875</hdop><vdop>4.875</vdop><extensions><gom:speed>0.0</gom:speed></extensions></trkpt>
   <trkpt lat="59.0710461393" lon="29.9674458824"><ele>94.648</ele><time>2026-04-25T11:58:51.000Z</time><hdop>4.875</hdop><vdop>4.875</vdop><extensions><gom:speed>0.0</gom:speed></extensions></trkpt>
   <trkpt lat="59.0710461393" lon="29.9674458824"><ele>94.648</ele><time>2026-04-25T11:58:52.000Z</time><hdop>4.875</hdop><vdop>4.875</vdop><extensions><gom:speed>0.0</gom:speed></extensions></trkpt>
   <trkpt lat="59.0710461393" lon="29.9674458824"><ele>94.648</ele><time>2026-04-25T11:58:53.000Z</time><hdop>4.875</hdop><vdop>4.875</vdop><extensions><gom:speed>0.0</gom:speed></extensions></trkpt>
   <trkpt lat="59.0710461393" lon="29.9674458824"><ele>94.648</ele><time>2026-04-25T11:58:53.000Z</time><hdop>4.875</hdop><vdop>4.875</vdop><extensions><gom:speed>0.0</gom:speed></extensions></trkpt>
   <trkpt lat="59.0710461393" lon="29.9674458824"><ele>94.648</ele><time>2026-04-25T11:58:54.000Z</time><hdop>4.875</hdop><vdop>4.875</vdop><extensions><gom:speed>0.0</gom:speed></extensions></trkpt>
   <trkpt lat="59.0710461393" lon="29.9674458824"><ele>94.648</ele><time>2026-04-25T11:58:55.000Z</time><hdop>4.875</hdop><vdop>4.875</vdop><extensions><gom:speed>0.0</gom:speed></extensions></trkpt>
   <trkpt lat="59.0710461393" lon="29.9674458824"><ele>94.648</ele><time>2026-04-25T11:58:56.000Z</time><hdop>4.875</hdop><vdop>4.875</vdop><extensions><gom:speed>0.0</gom:speed></extensions></trkpt>
   <trkpt lat="59.0710461393" lon="29.9674458824"><ele>94.648</ele><time>2026-04-25T11:58:57.000Z</time><hdop>4.875</hdop><vdop>4.875</vdop><extensions><gom:speed>0.0</gom:speed></extensions></trkpt>
   <trkpt lat="59.0710461393" lon="29.9674458824"><ele>94.648</ele><time>2026-04-25T11:58:58.000Z</time><hdop>4.875</hdop><vdop>4.875</vdop><extensions><gom:speed>0.0</gom:speed></extensions></trkpt>
   <trkpt lat="59.0710461393" lon="29.9674458824"><ele>94.648</ele><time>2026-04-25T11:58:59.000Z</time><hdop>4.875</hdop><vdop>4.875</vdop><extensions><gom:speed>0.0</gom:speed></extensions></trkpt>
   <trkpt lat="59.0710461393" lon="29.9674458824"><ele>94.648</ele><time>2026-04-25T11:59:00.000Z</time><hdop>4.875</hdop><vdop>4.875</vdop><extensions><gom:speed>0.0</gom:speed></extensions></trkpt>
   <trkpt lat="59.0710472709" lon="29.9674488161"><ele>94.633</ele><time>2026-04-25T11:59:01.000Z</time><hdop>4.687</hdop><vdop>4.687</vdop><extensions><gom:speed>0.203</gom:speed></extensions></trkpt>
   <trkpt lat="59.0710480672" lon="29.9674550187"><ele>94.63</ele><time>2026-04-25T11:59:02.000Z</time><hdop>4.687</hdop><vdop>4.687</vdop><extensions><gom:speed>0.313</gom:speed></extensions></trkpt>
   <trkpt lat="59.0710481091" lon="29.9674616404"><ele>94.647</ele><time>2026-04-25T11:59:03.000Z</time><hdop>4.625</hdop><vdop>4.625</vdop><extensions><gom:speed>0.362</gom:speed></extensions></trkpt>
   <trkpt lat="59.0710478157" lon="29.9674706091"><ele>94.672</ele><time>2026-04-25T11:59:04.000Z</time><hdop>4.437</hdop><vdop>4.437</vdop><extensions><gom:speed>0.483</gom:speed></extensions></trkpt>
   <trkpt lat="59.0710476061" lon="29.9674799968"><ele>94.659</ele><time>2026-04-25T11:59:05.000Z</time><hdop>3.875</hdop><vdop>3.875</vdop><extensions><gom:speed>0.394</gom:speed></extensions></trkpt>
   <trkpt lat="59.0710469775" lon="29.9674875405"><ele>94.696</ele><time>2026-04-25T11:59:06.000Z</time><hdop>3.687</hdop><vdop>3.687</vdop><extensions><gom:speed>0.217</gom:speed></extensions></trkpt>
   <trkpt lat="59.0710469775" lon="29.9674875405"><ele>94.719</ele><time>2026-04-25T11:59:07.000Z</time><hdop>3.687</hdop><vdop>3.687</vdop><extensions><gom:speed>0.0</gom:speed></extensions></trkpt>
   <trkpt lat="59.0710469775" lon="29.9674875405"><ele>94.732</ele><time>2026-04-25T11:59:08.000Z</time><hdop>3.687</hdop><vdop>3.687</vdop><extensions><gom:speed>0.0</gom:speed></extensions></trkpt>
   <trkpt lat="59.0710469775" lon="29.9674875405"><ele>94.74</ele><time>2026-04-25T11:59:09.000Z</time><hdop>3.687</hdop><vdop>3.687</vdop><extensions><gom:speed>0.0</gom:speed></extensions></trkpt>
   <trkpt lat="59.0710472709" lon="29.9674958386"><ele>94.73</ele><time>2026-04-25T11:59:10.000Z</time><hdop>3.312</hdop><vdop>3.312</vdop><extensions><gom:speed>0.324</gom:speed></extensions></trkpt>
   <trkpt lat="59.0710462231" lon="29.9675102555"><ele>94.768</ele><time>2026-04-25T11:59:11.000Z</time><hdop>3.5</hdop><vdop>3.5</vdop><extensions><gom:speed>0.567</gom:speed></extensions></trkpt>
   <trkpt lat="59.0710462231" lon="29.9675102555"><ele>94.791</ele><time>2026-04-25T11:59:12.000Z</time><hdop>3.5</hdop><vdop>3.5</vdop><extensions><gom:speed>0.0</gom:speed></extensions></trkpt>
   <trkpt lat="59.0710470194" lon="29.9675170448"><ele>94.87</ele><time>2026-04-25T11:59:13.000Z</time><hdop>4.062</hdop><vdop>4.062</vdop><extensions><gom:speed>0.536</gom:speed></extensions></trkpt>
   <trkpt lat="59.0710470194" lon="29.9675170448"><ele>94.917</ele><time>2026-04-25T11:59:13.000Z</time><hdop>4.062</hdop><vdop>4.062</vdop><extensions><gom:speed>0.536</gom:speed></extensions></trkpt>
   <trkpt lat="59.0710510427" lon="29.9675295338"><ele>94.889</ele><time>2026-04-25T11:59:14.000Z</time><hdop>3.562</hdop><vdop>3.562</vdop><extensions><gom:speed>0.391</gom:speed></extensions></trkpt>
   <trkpt lat="59.0710539345" lon="29.9675431963"><ele>94.828</ele><time>2026-04-25T11:59:15.000Z</time><hdop>3.312</hdop><vdop>3.312</vdop><extensions><gom:speed>0.631</gom:speed></extensions></trkpt>
   <trkpt lat="59.0710553594" lon="29.9675541766"><ele>94.799</ele><time>2026-04-25T11:59:16.000Z</time><hdop>3.437</hdop><vdop>3.437</vdop><extensions><gom:speed>0.422</gom:speed></extensions></trkpt>
   <trkpt lat="59.0710587541" lon="29.9675597925"><ele>94.691</ele><time>2026-04-25T11:59:17.000Z</time><hdop>3.0</hdop><vdop>3.0</vdop><extensions><gom:speed>0.146</gom:speed></extensions></trkpt>
   <trkpt lat="59.0710605562" lon="29.9675635644"><ele>94.642</ele><time>2026-04-25T11:59:18.000Z</time><hdop>3.25</hdop><vdop>3.25</vdop><extensions><gom:speed>0.131</gom:speed></extensions></trkpt>
   <trkpt lat="59.0710614782" lon="29.9675636482"><ele>94.559</ele><time>2026-04-25T11:59:19.000Z</time><hdop>3.312</hdop><vdop>3.312</vdop><extensions><gom:speed>0.138</gom:speed></extensions></trkpt>
   <trkpt lat="59.0710614782" lon="29.9675636482"><ele>94.509</ele><time>2026-04-25T11:59:20.000Z</time><hdop>3.312</hdop><vdop>3.312</vdop><extensions><gom:speed>0.0</gom:speed></extensions></trkpt>
   <trkpt lat="59.0710614782" lon="29.9675636482"><ele>94.479</ele><time>2026-04-25T11:59:21.000Z</time><hdop>3.312</hdop><vdop>3.312</vdop><extensions><gom:speed>0.0</gom:speed></extensions></trkpt>
   <trkpt lat="59.0710614782" lon="29.9675636482"><ele>94.461</ele><time>2026-04-25T11:59:22.000Z</time><hdop>3.312</hdop><vdop>3.312</vdop><extensions><gom:speed>0.0</gom:speed></extensions></trkpt>
   <trkpt lat="59.0710614782" lon="29.9675636482"><ele>94.451</ele><time>2026-04-25T11:59:23.000Z</time><hdop>3.312</hdop><vdop>3.312</vdop><extensions><gom:speed>0.0</gom:speed></extensions></trkpt>
   <trkpt lat="59.0710614782" lon="29.9675636482"><ele>94.444</ele><time>2026-04-25T11:59:24.000Z</time><hdop>3.312</hdop><vdop>3.312</vdop><extensions><gom:speed>0.0</gom:speed></extensions></trkpt>
   <trkpt lat="59.0710614782" lon="29.9675636482"><ele>94.44</ele><time>2026-04-25T11:59:25.000Z</time><hdop>3.312</hdop><vdop>3.312</vdop><extensions><gom:speed>0.0</gom:speed></extensions></trkpt>
   <trkpt lat="59.0710614782" lon="29.9675636482"><ele>94.438</ele><time>2026-04-25T11:59:26.000Z</time><hdop>3.312</hdop><vdop>3.312</vdop><extensions><gom:speed>0.0</gom:speed></extensions></trkpt>
   <trkpt lat="59.0710600952" lon="29.9675698508"><ele>94.483</ele><time>2026-04-25T11:59:27.000Z</time><hdop>3.687</hdop><vdop>3.687</vdop><extensions><gom:speed>0.365</gom:speed></extensions></trkpt>
   <trkpt lat="59.0710600952" lon="29.9675698508"><ele>94.509</ele><time>2026-04-25T11:59:28.000Z</time><hdop>3.687</hdop><vdop>3.687</vdop><extensions><gom:speed>0.0</gom:speed></extensions></trkpt>
   <trkpt lat="59.0710600952" lon="29.9675698508"><ele>94.525</ele><time>2026-04-25T11:59:29.000Z</time><hdop>3.687</hdop><vdop>3.687</vdop><extensions><gom:speed>0.0</gom:speed></extensions></trkpt>
   <trkpt lat="59.0710600952" lon="29.9675698508"><ele>94.535</ele><time>2026-04-25T11:59:30.000Z</time><hdop>3.687</hdop><vdop>3.687</vdop><extensions><gom:speed>0.0</gom:speed></extensions></trkpt>
   <trkpt lat="59.0710600952" lon="29.9675698508"><ele>94.54</ele><time>2026-04-25T11:59:31.000Z</time><hdop>3.687</hdop><vdop>3.687</vdop><extensions><gom:speed>0.0</gom:speed></extensions></trkpt>
   <trkpt lat="59.0710600952" lon="29.9675698508"><ele>94.544</ele><time>2026-04-25T11:59:32.000Z</time><hdop>3.687</hdop><vdop>3.687</vdop><extensions><gom:speed>0.0</gom:speed></extensions></trkpt>
   <trkpt lat="59.0710600952" lon="29.9675698508"><ele>94.546</ele><time>2026-04-25T11:59:33.000Z</time><hdop>3.687</hdop><vdop>3.687</vdop><extensions><gom:speed>0.0</gom:speed></extensions></trkpt>
   <trkpt lat="59.0710600952" lon="29.9675698508"><ele>94.547</ele><time>2026-04-25T11:59:33.000Z</time><hdop>3.687</hdop><vdop>3.687</vdop><extensions><gom:speed>0.0</gom:speed></extensions></trkpt>
   <trkpt lat="59.0710600952" lon="29.9675698508"><ele>94.548</ele><time>2026-04-25T11:59:34.000Z</time><hdop>3.687</hdop><vdop>3.687</vdop><extensions><gom:speed>0.0</gom:speed></extensions></trkpt>
   <trkpt lat="59.0710600952" lon="29.9675698508"><ele>94.548</ele><time>2026-04-25T11:59:35.000Z</time><hdop>3.687</hdop><vdop>3.687</vdop><extensions><gom:speed>0.0</gom:speed></extensions></trkpt>
   <trkpt lat="59.0710600952" lon="29.9675698508"><ele>94.548</ele><time>2026-04-25T11:59:36.000Z</time><hdop>3.687</hdop><vdop>3.687</vdop><extensions><gom:speed>0.0</gom:speed></extensions></trkpt>
   <trkpt lat="59.0710600952" lon="29.9675698508"><ele>94.548</ele><time>2026-04-25T11:59:37.000Z</time><hdop>3.687</hdop><vdop>3.687</vdop><extensions><gom:speed>0.0</gom:speed></extensions></trkpt>
   <trkpt lat="59.0710600952" lon="29.9675698508"><ele>94.548</ele><time>2026-04-25T11:59:38.000Z</time><hdop>3.687</hdop><vdop>3.687</vdop><extensions><gom:speed>0.0</gom:speed></extensions></trkpt>
   <trkpt lat="59.0710600952" lon="29.9675698508"><ele>94.549</ele><time>2026-04-25T11:59:39.000Z</time><hdop>3.687</hdop><vdop>3.687</vdop><extensions><gom:speed>0.0</gom:speed></extensions></trkpt>
   <trkpt lat="59.0710600952" lon="29.9675698508"><ele>94.549</ele><time>2026-04-25T11:59:40.000Z</time><hdop>3.687</hdop><vdop>3.687</vdop><extensions><gom:speed>0.0</gom:speed></extensions></trkpt>
   <trkpt lat="59.0710600952" lon="29.9675698508"><ele>94.549</ele><time>2026-04-25T11:59:41.000Z</time><hdop>3.687</hdop><vdop>3.687</vdop><extensions><gom:speed>0.0</gom:speed></extensions></trkpt>
   <trkpt lat="59.0710600952" lon="29.9675698508"><ele>94.549</ele><time>2026-04-25T11:59:42.000Z</time><hdop>3.687</hdop><vdop>3.687</vdop><extensions><gom:speed>0.0</gom:speed></extensions></trkpt>
   <trkpt lat="59.0710600952" lon="29.9675698508"><ele>94.549</ele><time>2026-04-25T11:59:43.000Z</time><hdop>3.687</hdop><vdop>3.687</vdop><extensions><gom:speed>0.0</gom:speed></extensions></trkpt>
   <trkpt lat="59.0710534316" lon="29.9675727845"><ele>94.354</ele><time>2026-04-25T11:59:44.000Z</time><hdop>3.562</hdop><vdop>3.562</vdop><extensions><gom:speed>0.372</gom:speed></extensions></trkpt>
   <trkpt lat="59.0710534316" lon="29.9675727845"><ele>94.237</ele><time>2026-04-25T11:59:45.000Z</time><hdop>3.562</hdop><vdop>3.562</vdop><extensions><gom:speed>0.0</gom:speed></extensions></trkpt>
   <trkpt lat="59.0710464327" lon="29.9675748799"><ele>94.058</ele><time>2026-04-25T11:59:46.000Z</time><hdop>3.562</hdop><vdop>3.562</vdop><extensions><gom:speed>0.348</gom:speed></extensions></trkpt>
   <trkpt lat="59.0710464327" lon="29.9675748799"><ele>93.951</ele><time>2026-04-25T11:59:47.000Z</time><hdop>3.562</hdop><vdop>3.562</vdop><extensions><gom:speed>0.0</gom:speed></extensions></trkpt>
   <trkpt lat="59.0710464327" lon="29.9675748799"><ele>93.887</ele><time>2026-04-25T11:59:48.000Z</time><hdop>3.562</hdop><vdop>3.562</vdop><extensions><gom:speed>0.0</gom:speed></extensions></trkpt>
   <trkpt lat="59.0710464327" lon="29.9675748799"><ele>93.849</ele><time>2026-04-25T11:59:49.000Z</time><hdop>3.562</hdop><vdop>3.562</vdop><extensions><gom:speed>0.0</gom:speed></extensions></trkpt>
   <trkpt lat="59.0710370869" lon="29.9675841838"><ele>93.662</ele><time>2026-04-25T11:59:50.000Z</time><hdop>3.812</hdop><vdop>3.812</vdop><extensions><gom:speed>0.539</gom:speed></extensions></trkpt>
   <trkpt lat="59.0710370869" lon="29.9675841838"><ele>93.55</ele><time>2026-04-25T11:59:51.000Z</time><hdop>3.812</hdop><vdop>3.812</vdop><extensions><gom:speed>0.0</gom:speed></extensions></trkpt>
   <trkpt lat="59.0710370869" lon="29.9675841838"><ele>93.483</ele><time>2026-04-25T11:59:52.000Z</time><hdop>3.812</hdop><vdop>3.812</vdop><extensions><gom:speed>0.0</gom:speed></extensions></trkpt>
   <trkpt lat="59.0710260647" lon="29.9675869499"><ele>93.218</ele><time>2026-04-25T11:59:53.000Z</time><hdop>4.125</hdop><vdop>4.125</vdop><extensions><gom:speed>0.828</gom:speed></extensions></trkpt>
   <trkpt lat="59.0710260647" lon="29.9675869499"><ele>93.06</ele><time>2026-04-25T11:59:53.000Z</time><hdop>4.125</hdop><vdop>4.125</vdop><extensions><gom:speed>0.828</gom:speed></extensions></trkpt>
   <trkpt lat="59.0710137852" lon="29.9675903026"><ele>92.845</ele><time>2026-04-25T11:59:54.000Z</time><hdop>4.062</hdop><vdop>4.062</vdop><extensions><gom:speed>0.595</gom:speed></extensions></trkpt>
   <trkpt lat="59.0710020924" lon="29.9675951641"><ele>92.758</ele><time>2026-04-25T11:59:55.000Z</time><hdop>3.812</hdop><vdop>3.812</vdop><extensions><gom:speed>0.685</gom:speed></extensions></trkpt>
   <trkpt lat="59.070989771" lon="29.9676073179"><ele>92.754</ele><time>2026-04-25T11:59:56.000Z</time><hdop>3.812</hdop><vdop>3.812</vdop><extensions><gom:speed>0.585</gom:speed></extensions></trkpt>
   <trkpt lat="59.0709835684" lon="29.9676067312"><ele>92.778</ele><time>2026-04-25T11:59:57.000Z</time><hdop>3.562</hdop><vdop>3.562</vdop><extensions><gom:speed>0.39</gom:speed></extensions></trkpt>
   <trkpt lat="59.0709762342" lon="29.9676101677"><ele>92.781</ele><time>2026-04-25T11:59:58.000Z</time><hdop>3.5</hdop><vdop>3.5</vdop><extensions><gom:speed>0.475</gom:speed></extensions></trkpt>
   <trkpt lat="59.0709665531" lon="29.9676053062"><ele>92.828</ele><time>2026-04-25T11:59:59.000Z</time><hdop>3.375</hdop><vdop>3.375</vdop><extensions><gom:speed>0.706</gom:speed></extensions></trkpt>
   <trkpt lat="59.0709580455" lon="29.9676058092"><ele>92.841</ele><time>2026-04-25T12:00:00.000Z</time><hdop>3.5</hdop><vdop>3.5</vdop><extensions><gom:speed>0.528</gom:speed></extensions></trkpt>
   <trkpt lat="59.070946688" lon="29.9676068988"><ele>92.864</ele><time>2026-04-25T12:00:01.000Z</time><hdop>3.75</hdop><vdop>3.75</vdop><extensions><gom:speed>0.442</gom:speed></extensions></trkpt>
   <trkpt lat="59.0709328579" lon="29.9676071503"><ele>92.902</ele><time>2026-04-25T12:00:02.000Z</time><hdop>4.0</hdop><vdop>4.0</vdop><extensions><gom:speed>0.579</gom:speed></extensions></trkpt>
   <trkpt lat="59.0709197821" lon="29.9676110898"><ele>92.999</ele><time>2026-04-25T12:00:03.000Z</time><hdop>3.812</hdop><vdop>3.812</vdop><extensions><gom:speed>0.672</gom:speed></extensions></trkpt>
   <trkpt lat="59.0709082151" lon="29.9676160351"><ele>93.048</ele><time>2026-04-25T12:00:04.000Z</time><hdop>3.75</hdop><vdop>3.75</vdop><extensions><gom:speed>0.594</gom:speed></extensions></trkpt>
   <trkpt lat="59.0708978634" lon="29.9676178791"><ele>93.028</ele><time>2026-04-25T12:00:05.000Z</time><hdop>3.437</hdop><vdop>3.437</vdop><extensions><gom:speed>0.393</gom:speed></extensions></trkpt>
   <trkpt lat="59.0708864641" lon="29.9676310387"><ele>92.952</ele><time>2026-04-25T12:00:06.000Z</time><hdop>3.375</hdop><vdop>3.375</vdop><extensions><gom:speed>0.54</gom:speed></extensions></trkpt>
   <trkpt lat="59.0708779983" lon="29.9676344753"><ele>92.9</ele><time>2026-04-25T12:00:07.000Z</time><hdop>3.0</hdop><vdop>3.0</vdop><extensions><gom:speed>0.358</gom:speed></extensions></trkpt>
   <trkpt lat="59.0708706642" lon="29.9676397559"><ele>92.888</ele><time>2026-04-25T12:00:08.000Z</time><hdop>3.0</hdop><vdop>3.0</vdop><extensions><gom:speed>0.389</gom:speed></extensions></trkpt>
   <trkpt lat="59.0708629109" lon="29.9676421866"><ele>92.949</ele><time>2026-04-25T12:00:09.000Z</time><hdop>3.0</hdop><vdop>3.0</vdop><extensions><gom:speed>0.314</gom:speed></extensions></trkpt>
   <trkpt lat="59.0708629109" lon="29.9676421866"><ele>92.985</ele><time>2026-04-25T12:00:10.000Z</time><hdop>3.0</hdop><vdop>3.0</vdop><extensions><gom:speed>0.0</gom:speed></extensions></trkpt>
   <trkpt lat="59.0708629109" lon="29.9676421866"><ele>93.007</ele><time>2026-04-25T12:00:11.000Z</time><hdop>3.0</hdop><vdop>3.0</vdop><extensions><gom:speed>0.0</gom:speed></extensions></trkpt>
   <trkpt lat="59.0708629109" lon="29.9676421866"><ele>93.02</ele><time>2026-04-25T12:00:12.000Z</time><hdop>3.0</hdop><vdop>3.0</vdop><extensions><gom:speed>0.0</gom:speed></extensions></trkpt>
   <trkpt lat="59.0708629109" lon="29.9676421866"><ele>93.027</ele><time>2026-04-25T12:00:13.000Z</time><hdop>3.0</hdop><vdop>3.0</vdop><extensions><gom:speed>0.0</gom:speed></extensions></trkpt>
   <trkpt lat="59.0708629109" lon="29.9676421866"><ele>93.032</ele><time>2026-04-25T12:00:13.000Z</time><hdop>3.0</hdop><vdop>3.0</vdop><extensions><gom:speed>0.0</gom:speed></extensions></trkpt>
   <trkpt lat="59.0708546128" lon="29.9676519934"><ele>93.028</ele><time>2026-04-25T12:00:14.000Z</time><hdop>3.0</hdop><vdop>3.0</vdop><extensions><gom:speed>0.591</gom:speed></extensions></trkpt>
   <trkpt lat="59.0708456442" lon="29.967666578"><ele>93.031</ele><time>2026-04-25T12:00:15.000Z</time><hdop>3.0</hdop><vdop>3.0</vdop><extensions><gom:speed>0.585</gom:speed></extensions></trkpt>
   <trkpt lat="59.0708456442" lon="29.967666578"><ele>93.033</ele><time>2026-04-25T12:00:16.000Z</time><hdop>3.0</hdop><vdop>3.0</vdop><extensions><gom:speed>0.0</gom:speed></extensions></trkpt>
   <trkpt lat="59.0708393159" lon="29.9676757142"><ele>93.175</ele><time>2026-04-25T12:00:17.000Z</time><hdop>3.0</hdop><vdop>3.0</vdop><extensions><gom:speed>0.321</gom:speed></extensions></trkpt>
   <trkpt lat="59.0708294252" lon="29.9676830903"><ele>93.233</ele><time>2026-04-25T12:00:18.000Z</time><hdop>3.0</hdop><vdop>3.0</vdop><extensions><gom:speed>0.487</gom:speed></extensions></trkpt>
   <trkpt lat="59.070820247" lon="29.9676882871"><ele>93.086</ele><time>2026-04-25T12:00:19.000Z</time><hdop>3.0</hdop><vdop>3.0</vdop><extensions><gom:speed>0.627</gom:speed></extensions></trkpt>
   <trkpt lat="59.070810063" lon="29.9676951602"><ele>92.99</ele><time>2026-04-25T12:00:20.000Z</time><hdop>3.0</hdop><vdop>3.0</vdop><extensions><gom:speed>0.724</gom:speed></extensions></trkpt>
   <trkpt lat="59.070804028" lon="29.9676984292"><ele>92.946</ele><time>2026-04-25T12:00:21.000Z</time><hdop>3.0</hdop><vdop>3.0</vdop><extensions><gom:speed>0.508</gom:speed></extensions></trkpt>
   <trkpt lat="59.0707951851" lon="29.9677125946"><ele>92.981</ele><time>2026-04-25T12:00:22.000Z</time><hdop>3.0</hdop><vdop>3.0</vdop><extensions><gom:speed>0.552</gom:speed></extensions></trkpt>
   <trkpt lat="59.0707865937" lon="29.9677208089"><ele>92.991</ele><time>2026-04-25T12:00:23.000Z</time><hdop>3.0</hdop><vdop>3.0</vdop><extensions><gom:speed>0.462</gom:speed></extensions></trkpt>
   <trkpt lat="59.0707830314" lon="29.967720306"><ele>93.008</ele><time>2026-04-25T12:00:24.000Z</time><hdop>3.0</hdop><vdop>3.0</vdop><extensions><gom:speed>0.349</gom:speed></extensions></trkpt>
   <trkpt lat="59.0707797205" lon="29.967721228"><ele>93.069</ele><time>2026-04-25T12:00:25.000Z</time><hdop>3.0</hdop><vdop>3.0</vdop><extensions><gom:speed>0.147</gom:speed></extensions></trkpt>
   <trkpt lat="59.0707797205" lon="29.967721228"><ele>93.105</ele><time>2026-04-25T12:00:26.000Z</time><hdop>3.0</hdop><vdop>3.0</vdop><extensions><gom:speed>0.0</gom:speed></extensions></trkpt>
   <trkpt lat="59.0707797205" lon="29.967721228"><ele>93.127</ele><time>2026-04-25T12:00:27.000Z</time><hdop>3.0</hdop><vdop>3.0</vdop><extensions><gom:speed>0.0</gom:speed></extensions></trkpt>
   <trkpt lat="59.0707797205" lon="29.967721228"><ele>93.14</ele><time>2026-04-25T12:00:28.000Z</time><hdop>3.0</hdop><vdop>3.0</vdop><extensions><gom:speed>0.0</gom:speed></extensions></trkpt>
   <trkpt lat="59.0707797205" lon="29.967721228"><ele>93.148</ele><time>2026-04-25T12:00:29.000Z</time><hdop>3.0</hdop><vdop>3.0</vdop><extensions><gom:speed>0.0</gom:speed></extensions></trkpt>
   <trkpt lat="59.0707797205" lon="29.967721228"><ele>93.153</ele><time>2026-04-25T12:00:30.000Z</time><hdop>3.0</hdop><vdop>3.0</vdop><extensions><gom:speed>0.0</gom:speed></extensions></trkpt>
   <trkpt lat="59.0707797205" lon="29.967721228"><ele>93.155</ele><time>2026-04-25T12:00:31.000Z</time><hdop>3.0</hdop><vdop>3.0</vdop><extensions><gom:speed>0.0</gom:speed></extensions></trkpt>
   <trkpt lat="59.0707797205" lon="29.967721228"><ele>93.157</ele><time>2026-04-25T12:00:32.000Z</time><hdop>3.0</hdop><vdop>3.0</vdop><extensions><gom:speed>0.0</gom:speed></extensions></trkpt>
   <trkpt lat="59.0707697461" lon="29.9677270953"><ele>93.213</ele><time>2026-04-25T12:00:33.000Z</time><hdop>3.0</hdop><vdop>3.0</vdop><extensions><gom:speed>0.594</gom:speed></extensions></trkpt>
   <trkpt lat="59.0707697461" lon="29.9677270953"><ele>93.247</ele><time>2026-04-25T12:00:33.000Z</time><hdop>3.0</hdop><vdop>3.0</vdop><extensions><gom:speed>0.594</gom:speed></extensions></trkpt>
   <trkpt lat="59.0707697461" lon="29.9677270953"><ele>93.267</ele><time>2026-04-25T12:00:34.000Z</time><hdop>3.0</hdop><vdop>3.0</vdop><extensions><gom:speed>0.0</gom:speed></extensions></trkpt>
   <trkpt lat="59.0707697461" lon="29.9677270953"><ele>93.279</ele><time>2026-04-25T12:00:35.000Z</time><hdop>3.0</hdop><vdop>3.0</vdop><extensions><gom:speed>0.0</gom:speed></extensions></trkpt>
   <trkpt lat="59.070759604" lon="29.9677334655"><ele>93.396</ele><time>2026-04-25T12:00:36.000Z</time><hdop>3.125</hdop><vdop>3.125</vdop><extensions><gom:speed>0.481</gom:speed></extensions></trkpt>
   <trkpt lat="59.070759604" lon="29.9677334655"><ele>93.466</ele><time>2026-04-25T12:00:37.000Z</time><hdop>3.125</hdop><vdop>3.125</vdop><extensions><gom:speed>0.0</gom:speed></extensions></trkpt>
   <trkpt lat="59.070759604" lon="29.9677334655"><ele>93.508</ele><time>2026-04-25T12:00:38.000Z</time><hdop>3.125</hdop><vdop>3.125</vdop><extensions><gom:speed>0.0</gom:speed></extensions></trkpt>
   <trkpt lat="59.0707490008" lon="29.967736483"><ele>93.512</ele><time>2026-04-25T12:00:39.000Z</time><hdop>3.375</hdop><vdop>3.375</vdop><extensions><gom:speed>0.279</gom:speed></extensions></trkpt>
   <trkpt lat="59.0707401579" lon="29.9677481339"><ele>93.638</ele><time>2026-04-25T12:00:40.000Z</time><hdop>3.562</hdop><vdop>3.562</vdop><extensions><gom:speed>0.384</gom:speed></extensions></trkpt>
   <trkpt lat="59.0707329914" lon="29.9677505646"><ele>93.696</ele><time>2026-04-25T12:00:41.000Z</time><hdop>3.5</hdop><vdop>3.5</vdop><extensions><gom:speed>0.368</gom:speed></extensions></trkpt>
   <trkpt lat="59.0707329914" lon="29.9677505646"><ele>93.731</ele><time>2026-04-25T12:00:42.000Z</time><hdop>3.5</hdop><vdop>3.5</vdop><extensions><gom:speed>0.0</gom:speed></extensions></trkpt>
   <trkpt lat="59.0707329914" lon="29.9677505646"><ele>93.752</ele><time>2026-04-25T12:00:43.000Z</time><hdop>3.5</hdop><vdop>3.5</vdop><extensions><gom:speed>0.0</gom:speed></extensions></trkpt>
   <trkpt lat="59.0707172753" lon="29.9677718547"><ele>93.953</ele><time>2026-04-25T12:00:44.000Z</time><hdop>3.562</hdop><vdop>3.562</vdop><extensions><gom:speed>0.473</gom:speed></extensions></trkpt>
   <trkpt lat="59.0707071751" lon="29.9677824997"><ele>94.153</ele><time>2026-04-25T12:00:45.000Z</time><hdop>3.312</hdop><vdop>3.312</vdop><extensions><gom:speed>0.566</gom:speed></extensions></trkpt>
   <trkpt lat="59.0706968654" lon="29.9677861877"><ele>94.272</ele><time>2026-04-25T12:00:46.000Z</time><hdop>3.312</hdop><vdop>3.312</vdop><extensions><gom:speed>0.538</gom:speed></extensions></trkpt>
   <trkpt lat="59.0706878549" lon="29.9677878641"><ele>94.402</ele><time>2026-04-25T12:00:47.000Z</time><hdop>3.062</hdop><vdop>3.062</vdop><extensions><gom:speed>0.577</gom:speed></extensions></trkpt>
   <trkpt lat="59.0706788862" lon="29.9677907978"><ele>94.48</ele><time>2026-04-25T12:00:48.000Z</time><hdop>3.0</hdop><vdop>3.0</vdop><extensions><gom:speed>0.442</gom:speed></extensions></trkpt>
   <trkpt lat="59.0706686603" lon="29.9677954916"><ele>94.579</ele><time>2026-04-25T12:00:49.000Z</time><hdop>3.187</hdop><vdop>3.187</vdop><extensions><gom:speed>0.477</gom:speed></extensions></trkpt>
   <trkpt lat="59.0706596917" lon="29.9677974195"><ele>94.601</ele><time>2026-04-25T12:00:50.000Z</time><hdop>3.25</hdop><vdop>3.25</vdop><extensions><gom:speed>0.296</gom:speed></extensions></trkpt>
   <trkpt lat="59.0706482923" lon="29.9677976709"><ele>94.602</ele><time>2026-04-25T12:00:51.000Z</time><hdop>3.312</hdop><vdop>3.312</vdop><extensions><gom:speed>0.53</gom:speed></extensions></trkpt>
   <trkpt lat="59.0706341688" lon="29.9677966651"><ele>94.553</ele><time>2026-04-25T12:00:52.000Z</time><hdop>3.125</hdop><vdop>3.125</vdop><extensions><gom:speed>0.675</gom:speed></extensions></trkpt>
   <trkpt lat="59.0706207577" lon="29.9677970842"><ele>94.562</ele><time>2026-04-25T12:00:53.000Z</time><hdop>3.25</hdop><vdop>3.25</vdop><extensions><gom:speed>0.526</gom:speed></extensions></trkpt>
   <trkpt lat="59.0706207577" lon="29.9677970842"><ele>94.567</ele><time>2026-04-25T12:00:53.000Z</time><hdop>3.25</hdop><vdop>3.25</vdop><extensions><gom:speed>0.526</gom:speed></extensions></trkpt>
   <trkpt lat="59.0706129206" lon="29.9677985091"><ele>94.607</ele><time>2026-04-25T12:00:54.000Z</time><hdop>3.0</hdop><vdop>3.0</vdop><extensions><gom:speed>0.171</gom:speed></extensions></trkpt>
   <trkpt lat="59.0706129206" lon="29.9677985091"><ele>94.631</ele><time>2026-04-25T12:00:55.000Z</time><hdop>3.0</hdop><vdop>3.0</vdop><extensions><gom:speed>0.0</gom:speed></extensions></trkpt>
   <trkpt lat="59.0706129206" lon="29.9677985091"><ele>94.646</ele><time>2026-04-25T12:00:56.000Z</time><hdop>3.0</hdop><vdop>3.0</vdop><extensions><gom:speed>0.0</gom:speed></extensions></trkpt>
   <trkpt lat="59.0706129206" lon="29.9677985091"><ele>94.654</ele><time>2026-04-25T12:00:57.000Z</time><hdop>3.0</hdop><vdop>3.0</vdop><extensions><gom:speed>0.0</gom:speed></extensions></trkpt>
   <trkpt lat="59.0706129206" lon="29.9677985091"><ele>94.659</ele><time>2026-04-25T12:00:58.000Z</time><hdop>3.0</hdop><vdop>3.0</vdop><extensions><gom:speed>0.0</gom:speed></extensions></trkpt>
   <trkpt lat="59.0706129206" lon="29.9677985091"><ele>94.662</ele><time>2026-04-25T12:00:59.000Z</time><hdop>3.0</hdop><vdop>3.0</vdop><extensions><gom:speed>0.0</gom:speed></extensions></trkpt>
   <trkpt lat="59.0706129206" lon="29.9677985091"><ele>94.664</ele><time>2026-04-25T12:01:00.000Z</time><hdop>3.0</hdop><vdop>3.0</vdop><extensions><gom:speed>0.0</gom:speed></extensions></trkpt>
   <trkpt lat="59.0706129206" lon="29.9677985091"><ele>94.665</ele><time>2026-04-25T12:01:01.000Z</time><hdop>3.0</hdop><vdop>3.0</vdop><extensions><gom:speed>0.0</gom:speed></extensions></trkpt>
   <trkpt lat="59.0706067599" lon="29.9678017781"><ele>94.756</ele><time>2026-04-25T12:01:02.000Z</time><hdop>3.312</hdop><vdop>3.312</vdop><extensions><gom:speed>0.34</gom:speed></extensions></trkpt>
   <trkpt lat="59.0706067599" lon="29.9678017781"><ele>94.811</ele><time>2026-04-25T12:01:03.000Z</time><hdop>3.312</hdop><vdop>3.312</vdop><extensions><gom:speed>0.0</gom:speed></extensions></trkpt>
   <trkpt lat="59.0706067599" lon="29.9678017781"><ele>94.843</ele><time>2026-04-25T12:01:04.000Z</time><hdop>3.312</hdop><vdop>3.312</vdop><extensions><gom:speed>0.0</gom:speed></extensions></trkpt>
   <trkpt lat="59.0706067599" lon="29.9678017781"><ele>94.863</ele><time>2026-04-25T12:01:05.000Z</time><hdop>3.312</hdop><vdop>3.312</vdop><extensions><gom:speed>0.0</gom:speed></extensions></trkpt>
   <trkpt lat="59.0706067599" lon="29.9678017781"><ele>94.874</ele><time>2026-04-25T12:01:06.000Z</time><hdop>3.312</hdop><vdop>3.312</vdop><extensions><gom:speed>0.0</gom:speed></extensions></trkpt>
   <trkpt lat="59.0706067599" lon="29.9678017781"><ele>94.881</ele><time>2026-04-25T12:01:07.000Z</time><hdop>3.312</hdop><vdop>3.312</vdop><extensions><gom:speed>0.0</gom:speed></extensions></trkpt>
   <trkpt lat="59.0706067599" lon="29.9678017781"><ele>94.885</ele><time>2026-04-25T12:01:08.000Z</time><hdop>3.312</hdop><vdop>3.312</vdop><extensions><gom:speed>0.0</gom:speed></extensions></trkpt>
   <trkpt lat="59.0706067599" lon="29.9678017781"><ele>94.888</ele><time>2026-04-25T12:01:09.000Z</time><hdop>3.312</hdop><vdop>3.312</vdop><extensions><gom:speed>0.0</gom:speed></extensions></trkpt>
   <trkpt lat="59.0706067599" lon="29.9678017781"><ele>94.889</ele><time>2026-04-25T12:01:10.000Z</time><hdop>3.312</hdop><vdop>3.312</vdop><extensions><gom:speed>0.0</gom:speed></extensions></trkpt>
   <trkpt lat="59.0706067599" lon="29.9678017781"><ele>94.89</ele><time>2026-04-25T12:01:11.000Z</time><hdop>3.312</hdop><vdop>3.312</vdop><extensions><gom:speed>0.0</gom:speed></extensions></trkpt>
   <trkpt lat="59.0706067599" lon="29.9678017781"><ele>94.891</ele><time>2026-04-25T12:01:12.000Z</time><hdop>3.312</hdop><vdop>3.312</vdop><extensions><gom:speed>0.0</gom:speed></extensions></trkpt>
   <trkpt lat="59.0706067599" lon="29.9678017781"><ele>94.891</ele><time>2026-04-25T12:01:13.000Z</time><hdop>3.312</hdop><vdop>3.312</vdop><extensions><gom:speed>0.0</gom:speed></extensions></trkpt>
   <trkpt lat="59.0706067599" lon="29.9678017781"><ele>94.891</ele><time>2026-04-25T12:01:13.000Z</time><hdop>3.312</hdop><vdop>3.312</vdop><extensions><gom:speed>0.0</gom:speed></extensions></trkpt>
   <trkpt lat="59.0706067599" lon="29.9678017781"><ele>94.891</ele><time>2026-04-25T12:01:14.000Z</time><hdop>3.312</hdop><vdop>3.312</vdop><extensions><gom:speed>0.0</gom:speed></extensions></trkpt>
   <trkpt lat="59.0706003897" lon="29.9678010237"><ele>94.921</ele><time>2026-04-25T12:01:15.000Z</time><hdop>3.25</hdop><vdop>3.25</vdop><extensions><gom:speed>0.269</gom:speed></extensions></trkpt>
   <trkpt lat="59.0705941033" lon="29.9677955754"><ele>94.979</ele><time>2026-04-25T12:01:16.000Z</time><hdop>3.312</hdop><vdop>3.312</vdop><extensions><gom:speed>0.422</gom:speed></extensions></trkpt>
   <trkpt lat="59.0705941033" lon="29.9677955754"><ele>95.014</ele><time>2026-04-25T12:01:17.000Z</time><hdop>3.312</hdop><vdop>3.312</vdop><extensions><gom:speed>0.0</gom:speed></extensions></trkpt>
   <trkpt lat="59.0705941033" lon="29.9677955754"><ele>95.034</ele><time>2026-04-25T12:01:18.000Z</time><hdop>3.312</hdop><vdop>3.312</vdop><extensions><gom:speed>0.0</gom:speed></extensions></trkpt>
   <trkpt lat="59.0705941033" lon="29.9677955754"><ele>95.047</ele><time>2026-04-25T12:01:19.000Z</time><hdop>3.312</hdop><vdop>3.312</vdop><extensions><gom:speed>0.0</gom:speed></extensions></trkpt>
   <trkpt lat="59.0705941033" lon="29.9677955754"><ele>95.054</ele><time>2026-04-25T12:01:20.000Z</time><hdop>3.312</hdop><vdop>3.312</vdop><extensions><gom:speed>0.0</gom:speed></extensions></trkpt>
   <trkpt lat="59.0705941033" lon="29.9677955754"><ele>95.058</ele><time>2026-04-25T12:01:21.000Z</time><hdop>3.312</hdop><vdop>3.312</vdop><extensions><gom:speed>0.0</gom:speed></extensions></trkpt>
   <trkpt lat="59.0705941033" lon="29.9677955754"><ele>95.061</ele><time>2026-04-25T12:01:22.000Z</time><hdop>3.312</hdop><vdop>3.312</vdop><extensions><gom:speed>0.0</gom:speed></extensions></trkpt>
   <trkpt lat="59.0705855956" lon="29.9677908816"><ele>95.169</ele><time>2026-04-25T12:01:23.000Z</time><hdop>3.875</hdop><vdop>3.875</vdop><extensions><gom:speed>0.413</gom:speed></extensions></trkpt>
   <trkpt lat="59.0705855956" lon="29.9677908816"><ele>95.234</ele><time>2026-04-25T12:01:24.000Z</time><hdop>3.875</hdop><vdop>3.875</vdop><extensions><gom:speed>0.0</gom:speed></extensions></trkpt>
   <trkpt lat="59.0705855956" lon="29.9677908816"><ele>95.273</ele><time>2026-04-25T12:01:25.000Z</time><hdop>3.875</hdop><vdop>3.875</vdop><extensions><gom:speed>0.0</gom:speed></extensions></trkpt>
   <trkpt lat="59.0705751602" lon="29.9677857686"><ele>95.298</ele><time>2026-04-25T12:01:26.000Z</time><hdop>4.687</hdop><vdop>4.687</vdop><extensions><gom:speed>0.308</gom:speed></extensions></trkpt>
   <trkpt lat="59.0705596117" lon="29.9677807395"><ele>95.289</ele><time>2026-04-25T12:01:27.000Z</time><hdop>4.687</hdop><vdop>4.687</vdop><extensions><gom:speed>0.322</gom:speed></extensions></trkpt>
   <trkpt lat="59.0705492182" lon="29.9677731119"><ele>95.242</ele><time>2026-04-25T12:01:28.000Z</time><hdop>4.687</hdop><vdop>4.687</vdop><extensions><gom:speed>0.452</gom:speed></extensions></trkpt>
   <trkpt lat="59.0705404172" lon="29.9677683343"><ele>95.205</ele><time>2026-04-25T12:01:29.000Z</time><hdop>4.812</hdop><vdop>4.812</vdop><extensions><gom:speed>0.426</gom:speed></extensions></trkpt>
   <trkpt lat="59.0705301494" lon="29.967763808"><ele>95.139</ele><time>2026-04-25T12:01:30.000Z</time><hdop>4.812</hdop><vdop>4.812</vdop><extensions><gom:speed>0.452</gom:speed></extensions></trkpt>
   <trkpt lat="59.0705192948" lon="29.9677589465"><ele>95.074</ele><time>2026-04-25T12:01:31.000Z</time><hdop>4.562</hdop><vdop>4.562</vdop><extensions><gom:speed>0.494</gom:speed></extensions></trkpt>
   <trkpt lat="59.0705078535" lon="29.9677529954"><ele>94.95</ele><time>2026-04-25T12:01:32.000Z</time><hdop>4.375</hdop><vdop>4.375</vdop><extensions><gom:speed>0.55</gom:speed></extensions></trkpt>
   <trkpt lat="59.0704960769" lon="29.9677498941"><ele>94.829</ele><time>2026-04-25T12:01:33.000Z</time><hdop>4.25</hdop><vdop>4.25</vdop><extensions><gom:speed>0.609</gom:speed></extensions></trkpt>
   <trkpt lat="59.0704960769" lon="29.9677498941"><ele>94.757</ele><time>2026-04-25T12:01:33.000Z</time><hdop>4.25</hdop><vdop>4.25</vdop><extensions><gom:speed>0.609</gom:speed></extensions></trkpt>
   <trkpt lat="59.0704837136" lon="29.9677464575"><ele>94.694</ele><time>2026-04-25T12:01:34.000Z</time><hdop>4.312</hdop><vdop>4.312</vdop><extensions><gom:speed>0.681</gom:speed></extensions></trkpt>
   <trkpt lat="59.0704720209" lon="29.9677408416"><ele>94.665</ele><time>2026-04-25T12:01:35.000Z</time><hdop>4.062</hdop><vdop>4.062</vdop><extensions><gom:speed>0.668</gom:speed></extensions></trkpt>
   <trkpt lat="59.0704620883" lon="29.9677372374"><ele>94.66</ele><time>2026-04-25T12:01:36.000Z</time><hdop>3.687</hdop><vdop>3.687</vdop><extensions><gom:speed>0.465</gom:speed></extensions></trkpt>
   <trkpt lat="59.0704532873" lon="29.9677341361"><ele>94.655</ele><time>2026-04-25T12:01:37.000Z</time><hdop>3.437</hdop><vdop>3.437</vdop><extensions><gom:speed>0.392</gom:speed></extensions></trkpt>
   <trkpt lat="59.0704532873" lon="29.9677341361"><ele>94.652</ele><time>2026-04-25T12:01:38.000Z</time><hdop>3.437</hdop><vdop>3.437</vdop><extensions><gom:speed>0.0</gom:speed></extensions></trkpt>
   <trkpt lat="59.0704532873" lon="29.9677341361"><ele>94.65</ele><time>2026-04-25T12:01:39.000Z</time><hdop>3.437</hdop><vdop>3.437</vdop><extensions><gom:speed>0.0</gom:speed></extensions></trkpt>
   <trkpt lat="59.0704532873" lon="29.9677341361"><ele>94.649</ele><time>2026-04-25T12:01:40.000Z</time><hdop>3.437</hdop><vdop>3.437</vdop><extensions><gom:speed>0.0</gom:speed></extensions></trkpt>
   <trkpt lat="59.0704532873" lon="29.9677341361"><ele>94.648</ele><time>2026-04-25T12:01:41.000Z</time><hdop>3.437</hdop><vdop>3.437</vdop><extensions><gom:speed>0.0</gom:speed></extensions></trkpt>
   <trkpt lat="59.0704437319" lon="29.9677304481"><ele>94.609</ele><time>2026-04-25T12:01:42.000Z</time><hdop>3.25</hdop><vdop>3.25</vdop><extensions><gom:speed>0.338</gom:speed></extensions></trkpt>
   <trkpt lat="59.0704323325" lon="29.9677270115"><ele>94.581</ele><time>2026-04-25T12:01:43.000Z</time><hdop>3.062</hdop><vdop>3.062</vdop><extensions><gom:speed>0.466</gom:speed></extensions></trkpt>
   <trkpt lat="59.0704323325" lon="29.9677270115"><ele>94.565</ele><time>2026-04-25T12:01:44.000Z</time><hdop>3.062</hdop><vdop>3.062</vdop><extensions><gom:speed>0.0</gom:speed></extensions></trkpt>
   <trkpt lat="59.0704323325" lon="29.9677270115"><ele>94.555</ele><time>2026-04-25T12:01:45.000Z</time><hdop>3.062</hdop><vdop>3.062</vdop><extensions><gom:speed>0.0</gom:speed></extensions></trkpt>
   <trkpt lat="59.0704323325" lon="29.9677270115"><ele>94.549</ele><time>2026-04-25T12:01:46.000Z</time><hdop>3.062</hdop><vdop>3.062</vdop><extensions><gom:speed>0.0</gom:speed></extensions></trkpt>
   <trkpt lat="59.0704323325" lon="29.9677270115"><ele>94.545</ele><time>2026-04-25T12:01:47.000Z</time><hdop>3.062</hdop><vdop>3.062</vdop><extensions><gom:speed>0.0</gom:speed></extensions></trkpt>
   <trkpt lat="59.0704323325" lon="29.9677270115"><ele>94.543</ele><time>2026-04-25T12:01:48.000Z</time><hdop>3.062</hdop><vdop>3.062</vdop><extensions><gom:speed>0.0</gom:speed></extensions></trkpt>
   <trkpt lat="59.0704323325" lon="29.9677270115"><ele>94.542</ele><time>2026-04-25T12:01:49.000Z</time><hdop>3.062</hdop><vdop>3.062</vdop><extensions><gom:speed>0.0</gom:speed></extensions></trkpt>
   <trkpt lat="59.0704323325" lon="29.9677270115"><ele>94.541</ele><time>2026-04-25T12:01:50.000Z</time><hdop>3.062</hdop><vdop>3.062</vdop><extensions><gom:speed>0.0</gom:speed></extensions></trkpt>
   <trkpt lat="59.0704323325" lon="29.9677270115"><ele>94.541</ele><time>2026-04-25T12:01:51.000Z</time><hdop>3.062</hdop><vdop>3.062</vdop><extensions><gom:speed>0.0</gom:speed></extensions></trkpt>
   <trkpt lat="59.0704323325" lon="29.9677270115"><ele>94.54</ele><time>2026-04-25T12:01:52.000Z</time><hdop>3.062</hdop><vdop>3.062</vdop><extensions><gom:speed>0.0</gom:speed></extensions></trkpt>
   <trkpt lat="59.0704323325" lon="29.9677270115"><ele>94.54</ele><time>2026-04-25T12:01:53.000Z</time><hdop>3.062</hdop><vdop>3.062</vdop><extensions><gom:speed>0.0</gom:speed></extensions></trkpt>
   <trkpt lat="59.0704323325" lon="29.9677270115"><ele>94.54</ele><time>2026-04-25T12:01:53.000Z</time><hdop>3.062</hdop><vdop>3.062</vdop><extensions><gom:speed>0.0</gom:speed></extensions></trkpt>
   <trkpt lat="59.0704323325" lon="29.9677270115"><ele>94.54</ele><time>2026-04-25T12:01:54.000Z</time><hdop>3.062</hdop><vdop>3.062</vdop><extensions><gom:speed>0.0</gom:speed></extensions></trkpt>
   <trkpt lat="59.0704323325" lon="29.9677270115"><ele>94.54</ele><time>2026-04-25T12:01:55.000Z</time><hdop>3.062</hdop><vdop>3.062</vdop><extensions><gom:speed>0.0</gom:speed></extensions></trkpt>
   <trkpt lat="59.0704223162" lon="29.9677208927"><ele>94.557</ele><time>2026-04-25T12:01:56.000Z</time><hdop>3.75</hdop><vdop>3.75</vdop><extensions><gom:speed>0.22</gom:speed></extensions></trkpt>
   <trkpt lat="59.0704102043" lon="29.9677171208"><ele>94.535</ele><time>2026-04-25T12:01:57.000Z</time><hdop>4.125</hdop><vdop>4.125</vdop><extensions><gom:speed>0.294</gom:speed></extensions></trkpt>
   <trkpt lat="59.0704102043" lon="29.9677171208"><ele>94.522</ele><time>2026-04-25T12:01:58.000Z</time><hdop>4.125</hdop><vdop>4.125</vdop><extensions><gom:speed>0.0</gom:speed></extensions></trkpt>
   <trkpt lat="59.0704102043" lon="29.9677171208"><ele>94.514</ele><time>2026-04-25T12:01:59.000Z</time><hdop>4.125</hdop><vdop>4.125</vdop><extensions><gom:speed>0.0</gom:speed></extensions></trkpt>
   <trkpt lat="59.0704102043" lon="29.9677171208"><ele>94.51</ele><time>2026-04-25T12:02:00.000Z</time><hdop>4.125</hdop><vdop>4.125</vdop><extensions><gom:speed>0.0</gom:speed></extensions></trkpt>
   <trkpt lat="59.0703995593" lon="29.9677126784"><ele>94.507</ele><time>2026-04-25T12:02:01.000Z</time><hdop>4.937</hdop><vdop>4.937</vdop><extensions><gom:speed>0.35</gom:speed></extensions></trkpt>
   <trkpt lat="59.0703891238" lon="29.9677088227"><ele>94.433</ele><time>2026-04-25T12:02:02.000Z</time><hdop>4.75</hdop><vdop>4.75</vdop><extensions><gom:speed>0.374</gom:speed></extensions></trkpt>
   <trkpt lat="59.0703772634" lon="29.9677001894"><ele>94.445</ele><time>2026-04-25T12:02:03.000Z</time><hdop>4.687</hdop><vdop>4.687</vdop><extensions><gom:speed>0.464</gom:speed></extensions></trkpt>
   <trkpt lat="59.0703648582" lon="29.9676923942"><ele>94.514</ele><time>2026-04-25T12:02:04.000Z</time><hdop>4.625</hdop><vdop>4.625</vdop><extensions><gom:speed>0.494</gom:speed></extensions></trkpt>
   <trkpt lat="59.0703528721" lon="29.967685102"><ele>94.558</ele><time>2026-04-25T12:02:05.000Z</time><hdop>4.312</hdop><vdop>4.312</vdop><extensions><gom:speed>0.504</gom:speed></extensions></trkpt>
   <trkpt lat="59.07034273" lon="29.9676820007"><ele>94.653</ele><time>2026-04-25T12:02:06.000Z</time><hdop>4.375</hdop><vdop>4.375</vdop><extensions><gom:speed>0.298</gom:speed></extensions></trkpt>
   <trkpt lat="59.0703327555" lon="29.9676798214"><ele>94.737</ele><time>2026-04-25T12:02:07.000Z</time><hdop>4.25</hdop><vdop>4.25</vdop><extensions><gom:speed>0.114</gom:speed></extensions></trkpt>
   <trkpt lat="59.0703327555" lon="29.9676798214"><ele>94.787</ele><time>2026-04-25T12:02:08.000Z</time><hdop>4.25</hdop><vdop>4.25</vdop><extensions><gom:speed>0.0</gom:speed></extensions></trkpt>
   <trkpt lat="59.0703327555" lon="29.9676798214"><ele>94.817</ele><time>2026-04-25T12:02:09.000Z</time><hdop>4.25</hdop><vdop>4.25</vdop><extensions><gom:speed>0.0</gom:speed></extensions></trkpt>
   <trkpt lat="59.0703213142" lon="29.9676751275"><ele>94.775</ele><time>2026-04-25T12:02:10.000Z</time><hdop>4.812</hdop><vdop>4.812</vdop><extensions><gom:speed>0.355</gom:speed></extensions></trkpt>
   <trkpt lat="59.0703080708" lon="29.9676719424"><ele>94.719</ele><time>2026-04-25T12:02:11.000Z</time><hdop>4.687</hdop><vdop>4.687</vdop><extensions><gom:speed>0.355</gom:speed></extensions></trkpt>
   <trkpt lat="59.0703080708" lon="29.9676719424"><ele>94.685</ele><time>2026-04-25T12:02:12.000Z</time><hdop>4.875</hdop><vdop>4.875</vdop><extensions><gom:speed>0.0</gom:speed></extensions></trkpt>
   <trkpt lat="59.0703080708" lon="29.9676719424"><ele>94.665</ele><time>2026-04-25T12:02:13.000Z</time><hdop>4.875</hdop><vdop>4.875</vdop><extensions><gom:speed>0.0</gom:speed></extensions></trkpt>
   <trkpt lat="59.0703080708" lon="29.9676719424"><ele>94.653</ele><time>2026-04-25T12:02:13.000Z</time><hdop>4.875</hdop><vdop>4.875</vdop><extensions><gom:speed>0.0</gom:speed></extensions></trkpt>
   <trkpt lat="59.0703080708" lon="29.9676719424"><ele>94.646</ele><time>2026-04-25T12:02:14.000Z</time><hdop>4.875</hdop><vdop>4.875</vdop><extensions><gom:speed>0.0</gom:speed></extensions></trkpt>
   <trkpt lat="59.0703080708" lon="29.9676719424"><ele>94.642</ele><time>2026-04-25T12:02:15.000Z</time><hdop>4.875</hdop><vdop>4.875</vdop><extensions><gom:speed>0.0</gom:speed></extensions></trkpt>
   <trkpt lat="59.0703080708" lon="29.9676719424"><ele>94.639</ele><time>2026-04-25T12:02:16.000Z</time><hdop>4.875</hdop><vdop>4.875</vdop><extensions><gom:speed>0.0</gom:speed></extensions></trkpt>
   <trkpt lat="59.0703080708" lon="29.9676719424"><ele>94.638</ele><time>2026-04-25T12:02:17.000Z</time><hdop>4.875</hdop><vdop>4.875</vdop><extensions><gom:speed>0.0</gom:speed></extensions></trkpt>
   <trkpt lat="59.0703080708" lon="29.9676719424"><ele>94.637</ele><time>2026-04-25T12:02:18.000Z</time><hdop>4.875</hdop><vdop>4.875</vdop><extensions><gom:speed>0.0</gom:speed></extensions></trkpt>
   <trkpt lat="59.0703080708" lon="29.9676719424"><ele>94.636</ele><time>2026-04-25T12:02:19.000Z</time><hdop>4.875</hdop><vdop>4.875</vdop><extensions><gom:speed>0.0</gom:speed></extensions></trkpt>
   <trkpt lat="59.0703080708" lon="29.9676719424"><ele>94.636</ele><time>2026-04-25T12:02:20.000Z</time><hdop>4.875</hdop><vdop>4.875</vdop><extensions><gom:speed>0.0</gom:speed></extensions></trkpt>
   <trkpt lat="59.0703080708" lon="29.9676719424"><ele>94.636</ele><time>2026-04-25T12:02:21.000Z</time><hdop>4.875</hdop><vdop>4.875</vdop><extensions><gom:speed>0.0</gom:speed></extensions></trkpt>
   <trkpt lat="59.0703080708" lon="29.9676719424"><ele>94.636</ele><time>2026-04-25T12:02:22.000Z</time><hdop>4.875</hdop><vdop>4.875</vdop><extensions><gom:speed>0.0</gom:speed></extensions></trkpt>
   <trkpt lat="59.0703080708" lon="29.9676719424"><ele>94.636</ele><time>2026-04-25T12:02:23.000Z</time><hdop>4.875</hdop><vdop>4.875</vdop><extensions><gom:speed>0.0</gom:speed></extensions></trkpt>
   <trkpt lat="59.0703080708" lon="29.9676719424"><ele>94.635</ele><time>2026-04-25T12:02:24.000Z</time><hdop>4.875</hdop><vdop>4.875</vdop><extensions><gom:speed>0.0</gom:speed></extensions></trkpt>
   <trkpt lat="59.0702980964" lon="29.9676645663"><ele>94.61</ele><time>2026-04-25T12:02:25.000Z</time><hdop>4.687</hdop><vdop>4.687</vdop><extensions><gom:speed>0.262</gom:speed></extensions></trkpt>
   <trkpt lat="59.0702980964" lon="29.9676645663"><ele>94.595</ele><time>2026-04-25T12:02:26.000Z</time><hdop>4.875</hdop><vdop>4.875</vdop><extensions><gom:speed>0.0</gom:speed></extensions></trkpt>
   <trkpt lat="59.0702980964" lon="29.9676645663"><ele>94.586</ele><time>2026-04-25T12:02:27.000Z</time><hdop>4.875</hdop><vdop>4.875</vdop><extensions><gom:speed>0.0</gom:speed></extensions></trkpt>
   <trkpt lat="59.0702980964" lon="29.9676645663"><ele>94.581</ele><time>2026-04-25T12:02:28.000Z</time><hdop>4.875</hdop><vdop>4.875</vdop><extensions><gom:speed>0.0</gom:speed></extensions></trkpt>
   <trkpt lat="59.0702980964" lon="29.9676645663"><ele>94.577</ele><time>2026-04-25T12:02:29.000Z</time><hdop>4.875</hdop><vdop>4.875</vdop><extensions><gom:speed>0.0</gom:speed></extensions></trkpt>
   <trkpt lat="59.0702980964" lon="29.9676645663"><ele>94.576</ele><time>2026-04-25T12:02:30.000Z</time><hdop>4.875</hdop><vdop>4.875</vdop><extensions><gom:speed>0.0</gom:speed></extensions></trkpt>
   <trkpt lat="59.0702980964" lon="29.9676645663"><ele>94.574</ele><time>2026-04-25T12:02:31.000Z</time><hdop>4.875</hdop><vdop>4.875</vdop><extensions><gom:speed>0.0</gom:speed></extensions></trkpt>
   <trkpt lat="59.0702918518" lon="29.9676568549"><ele>94.571</ele><time>2026-04-25T12:02:32.000Z</time><hdop>4.687</hdop><vdop>4.687</vdop><extensions><gom:speed>0.357</gom:speed></extensions></trkpt>
   <trkpt lat="59.0702826318" lon="29.9676463776"><ele>94.566</ele><time>2026-04-25T12:02:33.000Z</time><hdop>4.687</hdop><vdop>4.687</vdop><extensions><gom:speed>0.489</gom:speed></extensions></trkpt>
   <trkpt lat="59.0702826318" lon="29.9676463776"><ele>94.563</ele><time>2026-04-25T12:02:33.000Z</time><hdop>4.687</hdop><vdop>4.687</vdop><extensions><gom:speed>0.489</gom:speed></extensions></trkpt>
   <trkpt lat="59.0702743337" lon="29.9676353135"><ele>94.631</ele><time>2026-04-25T12:02:34.000Z</time><hdop>4.687</hdop><vdop>4.687</vdop><extensions><gom:speed>0.468</gom:speed></extensions></trkpt>
   <trkpt lat="59.0702660356" lon="29.9676230759"><ele>94.652</ele><time>2026-04-25T12:02:35.000Z</time><hdop>4.687</hdop><vdop>4.687</vdop><extensions><gom:speed>0.504</gom:speed></extensions></trkpt>
   <trkpt lat="59.070256103" lon="29.9676089105"><ele>94.596</ele><time>2026-04-25T12:02:36.000Z</time><hdop>4.687</hdop><vdop>4.687</vdop><extensions><gom:speed>0.496</gom:speed></extensions></trkpt>
   <trkpt lat="59.0702479307" lon="29.9675986845"><ele>94.537</ele><time>2026-04-25T12:02:37.000Z</time><hdop>4.687</hdop><vdop>4.687</vdop><extensions><gom:speed>0.574</gom:speed></extensions></trkpt>
   <trkpt lat="59.0702411832" lon="29.9675858602"><ele>94.434</ele><time>2026-04-25T12:02:38.000Z</time><hdop>4.687</hdop><vdop>4.687</vdop><extensions><gom:speed>0.448</gom:speed></extensions></trkpt>
   <trkpt lat="59.070232969" lon="29.9675716948"><ele>94.325</ele><time>2026-04-25T12:02:39.000Z</time><hdop>4.875</hdop><vdop>4.875</vdop><extensions><gom:speed>0.396</gom:speed></extensions></trkpt>
   <trkpt lat="59.0702252576" lon="29.9675613851"><ele>94.209</ele><time>2026-04-25T12:02:40.000Z</time><hdop>4.875</hdop><vdop>4.875</vdop><extensions><gom:speed>0.322</gom:speed></extensions></trkpt>
   <trkpt lat="59.0702217791" lon="29.9675478902"><ele>94.109</ele><time>2026-04-25T12:02:41.000Z</time><hdop>4.687</hdop><vdop>4.687</vdop><extensions><gom:speed>0.407</gom:speed></extensions></trkpt>
   <trkpt lat="59.0702193903" lon="29.9675349821"><ele>94.04</ele><time>2026-04-25T12:02:42.000Z</time><hdop>4.687</hdop><vdop>4.687</vdop><extensions><gom:speed>0.492</gom:speed></extensions></trkpt>
   <trkpt lat="59.0702142773" lon="29.9675219063"><ele>94.046</ele><time>2026-04-25T12:02:43.000Z</time><hdop>4.687</hdop><vdop>4.687</vdop><extensions><gom:speed>0.408</gom:speed></extensions></trkpt>
   <trkpt lat="59.0702066079" lon="29.9675144464"><ele>94.044</ele><time>2026-04-25T12:02:44.000Z</time><hdop>4.875</hdop><vdop>4.875</vdop><extensions><gom:speed>0.336</gom:speed></extensions></trkpt>
   <trkpt lat="59.0702020398" lon="29.9675013706"><ele>93.945</ele><time>2026-04-25T12:02:45.000Z</time><hdop>4.687</hdop><vdop>4.687</vdop><extensions><gom:speed>0.519</gom:speed></extensions></trkpt>
   <trkpt lat="59.0701972621" lon="29.9674875405"><ele>93.86</ele><time>2026-04-25T12:02:46.000Z</time><hdop>4.875</hdop><vdop>4.875</vdop><extensions><gom:speed>0.388</gom:speed></extensions></trkpt>
   <trkpt lat="59.0701900117" lon="29.9674764764"><ele>93.817</ele><time>2026-04-25T12:02:47.000Z</time><hdop>4.875</hdop><vdop>4.875</vdop><extensions><gom:speed>0.46</gom:speed></extensions></trkpt>
   <trkpt lat="59.0701900117" lon="29.9674764764"><ele>93.791</ele><time>2026-04-25T12:02:48.000Z</time><hdop>4.875</hdop><vdop>4.875</vdop><extensions><gom:speed>0.0</gom:speed></extensions></trkpt>
   <trkpt lat="59.0701808335" lon="29.9674680945"><ele>93.757</ele><time>2026-04-25T12:02:49.000Z</time><hdop>4.687</hdop><vdop>4.687</vdop><extensions><gom:speed>0.257</gom:speed></extensions></trkpt>
   <trkpt lat="59.0701808335" lon="29.9674680945"><ele>93.737</ele><time>2026-04-25T12:02:50.000Z</time><hdop>4.875</hdop><vdop>4.875</vdop><extensions><gom:speed>0.0</gom:speed></extensions></trkpt>
   <trkpt lat="59.0701808335" lon="29.9674680945"><ele>93.725</ele><time>2026-04-25T12:02:51.000Z</time><hdop>4.875</hdop><vdop>4.875</vdop><extensions><gom:speed>0.0</gom:speed></extensions></trkpt>
   <trkpt lat="59.0701808335" lon="29.9674680945"><ele>93.718</ele><time>2026-04-25T12:02:52.000Z</time><hdop>4.875</hdop><vdop>4.875</vdop><extensions><gom:speed>0.0</gom:speed></extensions></trkpt>
   <trkpt lat="59.0701808335" lon="29.9674680945"><ele>93.714</ele><time>2026-04-25T12:02:53.000Z</time><hdop>4.875</hdop><vdop>4.875</vdop><extensions><gom:speed>0.0</gom:speed></extensions></trkpt>
   <trkpt lat="59.0701808335" lon="29.9674680945"><ele>93.711</ele><time>2026-04-25T12:02:53.000Z</time><hdop>4.875</hdop><vdop>4.875</vdop><extensions><gom:speed>0.0</gom:speed></extensions></trkpt>
   <trkpt lat="59.0701808335" lon="29.9674680945"><ele>93.709</ele><time>2026-04-25T12:02:54.000Z</time><hdop>4.875</hdop><vdop>4.875</vdop><extensions><gom:speed>0.0</gom:speed></extensions></trkpt>
   <trkpt lat="59.0701808335" lon="29.9674680945"><ele>93.709</ele><time>2026-04-25T12:02:55.000Z</time><hdop>4.875</hdop><vdop>4.875</vdop><extensions><gom:speed>0.0</gom:speed></extensions></trkpt>
   <trkpt lat="59.0701672129" lon="29.967460467"><ele>93.882</ele><time>2026-04-25T12:02:56.000Z</time><hdop>4.687</hdop><vdop>4.687</vdop><extensions><gom:speed>0.553</gom:speed></extensions></trkpt>
   <trkpt lat="59.0701672129" lon="29.967460467"><ele>93.986</ele><time>2026-04-25T12:02:57.000Z</time><hdop>4.875</hdop><vdop>4.875</vdop><extensions><gom:speed>0.0</gom:speed></extensions></trkpt>
   <trkpt lat="59.0701600045" lon="29.967457198"><ele>94.169</ele><time>2026-04-25T12:02:58.000Z</time><hdop>4.687</hdop><vdop>4.687</vdop><extensions><gom:speed>0.479</gom:speed></extensions></trkpt>
   <trkpt lat="59.0701600045" lon="29.967457198"><ele>94.278</ele><time>2026-04-25T12:02:59.000Z</time><hdop>4.875</hdop><vdop>4.875</vdop><extensions><gom:speed>0.0</gom:speed></extensions></trkpt>
   <trkpt lat="59.0701518741" lon="29.9674481456"><ele>94.489</ele><time>2026-04-25T12:03:00.000Z</time><hdop>4.437</hdop><vdop>4.437</vdop><extensions><gom:speed>0.439</gom:speed></extensions></trkpt>
   <trkpt lat="59.0701433245" lon="29.9674359918"><ele>94.767</ele><time>2026-04-25T12:03:01.000Z</time><hdop>3.937</hdop><vdop>3.937</vdop><extensions><gom:speed>0.562</gom:speed></extensions></trkpt>
   <trkpt lat="59.0701375829" lon="29.9674232513"><ele>95.05</ele><time>2026-04-25T12:03:02.000Z</time><hdop>3.5</hdop><vdop>3.5</vdop><extensions><gom:speed>0.531</gom:speed></extensions></trkpt>
   <trkpt lat="59.070132009" lon="29.9674099241"><ele>95.215</ele><time>2026-04-25T12:03:03.000Z</time><hdop>3.125</hdop><vdop>3.125</vdop><extensions><gom:speed>0.597</gom:speed></extensions></trkpt>
   <trkpt lat="59.0701253453" lon="29.967392825"><ele>95.288</ele><time>2026-04-25T12:03:04.000Z</time><hdop>3.0</hdop><vdop>3.0</vdop><extensions><gom:speed>0.633</gom:speed></extensions></trkpt>
   <trkpt lat="59.0701192266" lon="29.9673793301"><ele>95.33</ele><time>2026-04-25T12:03:05.000Z</time><hdop>3.0</hdop><vdop>3.0</vdop><extensions><gom:speed>0.398</gom:speed></extensions></trkpt>
   <trkpt lat="59.0701141136" lon="29.967368266"><ele>95.353</ele><time>2026-04-25T12:03:06.000Z</time><hdop>3.0</hdop><vdop>3.0</vdop><extensions><gom:speed>0.23</gom:speed></extensions></trkpt>
   <trkpt lat="59.0701068632" lon="29.9673582916"><ele>95.371</ele><time>2026-04-25T12:03:07.000Z</time><hdop>3.0</hdop><vdop>3.0</vdop><extensions><gom:speed>0.23</gom:speed></extensions></trkpt>
   <trkpt lat="59.0700972241" lon="29.9673441261"><ele>95.287</ele><time>2026-04-25T12:03:08.000Z</time><hdop>3.0</hdop><vdop>3.0</vdop><extensions><gom:speed>0.456</gom:speed></extensions></trkpt>
   <trkpt lat="59.0700843159" lon="29.967331218"><ele>95.25</ele><time>2026-04-25T12:03:09.000Z</time><hdop>3.0</hdop><vdop>3.0</vdop><extensions><gom:speed>0.553</gom:speed></extensions></trkpt>
   <trkpt lat="59.0700843159" lon="29.967331218"><ele>95.228</ele><time>2026-04-25T12:03:10.000Z</time><hdop>3.0</hdop><vdop>3.0</vdop><extensions><gom:speed>0.0</gom:speed></extensions></trkpt>
   <trkpt lat="59.0700843159" lon="29.967331218"><ele>95.215</ele><time>2026-04-25T12:03:11.000Z</time><hdop>3.0</hdop><vdop>3.0</vdop><extensions><gom:speed>0.0</gom:speed></extensions></trkpt>
   <trkpt lat="59.0700843159" lon="29.967331218"><ele>95.208</ele><time>2026-04-25T12:03:12.000Z</time><hdop>3.0</hdop><vdop>3.0</vdop><extensions><gom:speed>0.0</gom:speed></extensions></trkpt>
   <trkpt lat="59.0700644508" lon="29.9673328106"><ele>95.274</ele><time>2026-04-25T12:03:13.000Z</time><hdop>3.0</hdop><vdop>3.0</vdop><extensions><gom:speed>0.403</gom:speed></extensions></trkpt>
   <trkpt lat="59.0700644508" lon="29.9673328106"><ele>95.314</ele><time>2026-04-25T12:03:13.000Z</time><hdop>3.0</hdop><vdop>3.0</vdop><extensions><gom:speed>0.403</gom:speed></extensions></trkpt>
   <trkpt lat="59.0700501178" lon="29.9673352413"><ele>95.4</ele><time>2026-04-25T12:03:14.000Z</time><hdop>3.0</hdop><vdop>3.0</vdop><extensions><gom:speed>0.595</gom:speed></extensions></trkpt>
   <trkpt lat="59.0700501178" lon="29.9673352413"><ele>95.452</ele><time>2026-04-25T12:03:15.000Z</time><hdop>3.0</hdop><vdop>3.0</vdop><extensions><gom:speed>0.0</gom:speed></extensions></trkpt>
   <trkpt lat="59.0700501178" lon="29.9673352413"><ele>95.483</ele><time>2026-04-25T12:03:16.000Z</time><hdop>3.0</hdop><vdop>3.0</vdop><extensions><gom:speed>0.0</gom:speed></extensions></trkpt>
   <trkpt lat="59.0700438313" lon="29.9673322238"><ele>95.485</ele><time>2026-04-25T12:03:17.000Z</time><hdop>3.125</hdop><vdop>3.125</vdop><extensions><gom:speed>0.443</gom:speed></extensions></trkpt>
   <trkpt lat="59.0700354913" lon="29.9673226685"><ele>95.407</ele><time>2026-04-25T12:03:18.000Z</time><hdop>3.187</hdop><vdop>3.187</vdop><extensions><gom:speed>0.507</gom:speed></extensions></trkpt>
   <trkpt lat="59.0700262293" lon="29.9673169688"><ele>95.262</ele><time>2026-04-25T12:03:19.000Z</time><hdop>3.0</hdop><vdop>3.0</vdop><extensions><gom:speed>0.343</gom:speed></extensions></trkpt>
   <trkpt lat="59.0700177636" lon="29.9673152086"><ele>95.173</ele><time>2026-04-25T12:03:20.000Z</time><hdop>3.0</hdop><vdop>3.0</vdop><extensions><gom:speed>0.3</gom:speed></extensions></trkpt>
   <trkpt lat="59.0700073701" lon="29.9673212435"><ele>95.212</ele><time>2026-04-25T12:03:21.000Z</time><hdop>3.0</hdop><vdop>3.0</vdop><extensions><gom:speed>0.164</gom:speed></extensions></trkpt>
   <trkpt lat="59.0699973118" lon="29.9673245125"><ele>95.213</ele><time>2026-04-25T12:03:22.000Z</time><hdop>3.0</hdop><vdop>3.0</vdop><extensions><gom:speed>0.282</gom:speed></extensions></trkpt>
   <trkpt lat="59.0699973118" lon="29.9673245125"><ele>95.214</ele><time>2026-04-25T12:03:23.000Z</time><hdop>3.0</hdop><vdop>3.0</vdop><extensions><gom:speed>0.0</gom:speed></extensions></trkpt>
   <trkpt lat="59.0699973118" lon="29.9673245125"><ele>95.214</ele><time>2026-04-25T12:03:24.000Z</time><hdop>3.0</hdop><vdop>3.0</vdop><extensions><gom:speed>0.0</gom:speed></extensions></trkpt>
   <trkpt lat="59.0699890137" lon="29.9673234228"><ele>95.339</ele><time>2026-04-25T12:03:25.000Z</time><hdop>3.0</hdop><vdop>3.0</vdop><extensions><gom:speed>0.425</gom:speed></extensions></trkpt>
   <trkpt lat="59.0699810928" lon="29.9673182261"><ele>95.523</ele><time>2026-04-25T12:03:26.000Z</time><hdop>3.0</hdop><vdop>3.0</vdop><extensions><gom:speed>0.472</gom:speed></extensions></trkpt>
   <trkpt lat="59.0699729204" lon="29.9673094251"><ele>95.685</ele><time>2026-04-25T12:03:27.000Z</time><hdop>3.0</hdop><vdop>3.0</vdop><extensions><gom:speed>0.595</gom:speed></extensions></trkpt>
   <trkpt lat="59.0699632812" lon="29.9673041445"><ele>95.888</ele><time>2026-04-25T12:03:28.000Z</time><hdop>3.0</hdop><vdop>3.0</vdop><extensions><gom:speed>0.574</gom:speed></extensions></trkpt>
   <trkpt lat="59.0699567014" lon="29.9672956787"><ele>95.96</ele><time>2026-04-25T12:03:29.000Z</time><hdop>3.125</hdop><vdop>3.125</vdop><extensions><gom:speed>0.466</gom:speed></extensions></trkpt>
   <trkpt lat="59.0699489901" lon="29.967293248"><ele>96.008</ele><time>2026-04-25T12:03:30.000Z</time><hdop>3.125</hdop><vdop>3.125</vdop><extensions><gom:speed>0.496</gom:speed></extensions></trkpt>
   <trkpt lat="59.0699393928" lon="29.9672897276"><ele>95.941</ele><time>2026-04-25T12:03:31.000Z</time><hdop>3.0</hdop><vdop>3.0</vdop><extensions><gom:speed>0.416</gom:speed></extensions></trkpt>
   <trkpt lat="59.0699325616" lon="29.9672900629"><ele>95.897</ele><time>2026-04-25T12:03:32.000Z</time><hdop>3.0</hdop><vdop>3.0</vdop><extensions><gom:speed>0.383</gom:speed></extensions></trkpt>
   <trkpt lat="59.0699279934" lon="29.9672918231"><ele>95.921</ele><time>2026-04-25T12:03:33.000Z</time><hdop>3.0</hdop><vdop>3.0</vdop><extensions><gom:speed>0.265</gom:speed></extensions></trkpt>
   <trkpt lat="59.0699279934" lon="29.9672918231"><ele>95.936</ele><time>2026-04-25T12:03:33.000Z</time><hdop>3.0</hdop><vdop>3.0</vdop><extensions><gom:speed>0.265</gom:speed></extensions></trkpt>
   <trkpt lat="59.0699279934" lon="29.9672918231"><ele>95.944</ele><time>2026-04-25T12:03:34.000Z</time><hdop>3.0</hdop><vdop>3.0</vdop><extensions><gom:speed>0.0</gom:speed></extensions></trkpt>
   <trkpt lat="59.0699204078" lon="29.9672909849"><ele>95.936</ele><time>2026-04-25T12:03:35.000Z</time><hdop>3.0</hdop><vdop>3.0</vdop><extensions><gom:speed>0.444</gom:speed></extensions></trkpt>
   <trkpt lat="59.0699204078" lon="29.9672909849"><ele>95.931</ele><time>2026-04-25T12:03:36.000Z</time><hdop>3.0</hdop><vdop>3.0</vdop><extensions><gom:speed>0.0</gom:speed></extensions></trkpt>
   <trkpt lat="59.0699151691" lon="29.9672922422"><ele>95.879</ele><time>2026-04-25T12:03:37.000Z</time><hdop>3.0</hdop><vdop>3.0</vdop><extensions><gom:speed>0.434</gom:speed></extensions></trkpt>
   <trkpt lat="59.0699075835" lon="29.9672931642"><ele>95.83</ele><time>2026-04-25T12:03:38.000Z</time><hdop>3.0</hdop><vdop>3.0</vdop><extensions><gom:speed>0.525</gom:speed></extensions></trkpt>
   <trkpt lat="59.0698974414" lon="29.9672938347"><ele>95.802</ele><time>2026-04-25T12:03:39.000Z</time><hdop>3.0</hdop><vdop>3.0</vdop><extensions><gom:speed>0.721</gom:speed></extensions></trkpt>
   <trkpt lat="59.0698887661" lon="29.9672925774"><ele>95.808</ele><time>2026-04-25T12:03:40.000Z</time><hdop>3.0</hdop><vdop>3.0</vdop><extensions><gom:speed>0.598</gom:speed></extensions></trkpt>
   <trkpt lat="59.0698806357" lon="29.9672889732"><ele>95.79</ele><time>2026-04-25T12:03:41.000Z</time><hdop>3.0</hdop><vdop>3.0</vdop><extensions><gom:speed>0.567</gom:speed></extensions></trkpt>
   <trkpt lat="59.069872128" lon="29.9672852852"><ele>95.791</ele><time>2026-04-25T12:03:42.000Z</time><hdop>3.0</hdop><vdop>3.0</vdop><extensions><gom:speed>0.468</gom:speed></extensions></trkpt>
   <trkpt lat="59.0698659673" lon="29.9672831897"><ele>95.759</ele><time>2026-04-25T12:03:43.000Z</time><hdop>3.0</hdop><vdop>3.0</vdop><extensions><gom:speed>0.337</gom:speed></extensions></trkpt>
   <trkpt lat="59.0698594295" lon="29.9672821001"><ele>95.745</ele><time>2026-04-25T12:03:44.000Z</time><hdop>3.0</hdop><vdop>3.0</vdop><extensions><gom:speed>0.333</gom:speed></extensions></trkpt>
   <trkpt lat="59.0698520534" lon="29.9672810104"><ele>95.716</ele><time>2026-04-25T12:03:45.000Z</time><hdop>3.0</hdop><vdop>3.0</vdop><extensions><gom:speed>0.332</gom:speed></extensions></trkpt>
   <trkpt lat="59.0698440068" lon="29.9672785797"><ele>95.656</ele><time>2026-04-25T12:03:46.000Z</time><hdop>3.0</hdop><vdop>3.0</vdop><extensions><gom:speed>0.321</gom:speed></extensions></trkpt>
   <trkpt lat="59.0698440068" lon="29.9672785797"><ele>95.62</ele><time>2026-04-25T12:03:47.000Z</time><hdop>3.0</hdop><vdop>3.0</vdop><extensions><gom:speed>0.0</gom:speed></extensions></trkpt>
   <trkpt lat="59.0698440068" lon="29.9672785797"><ele>95.598</ele><time>2026-04-25T12:03:48.000Z</time><hdop>3.0</hdop><vdop>3.0</vdop><extensions><gom:speed>0.0</gom:speed></extensions></trkpt>
   <trkpt lat="59.0698308472" lon="29.9672763165"><ele>95.494</ele><time>2026-04-25T12:03:49.000Z</time><hdop>3.0</hdop><vdop>3.0</vdop><extensions><gom:speed>0.564</gom:speed></extensions></trkpt>
   <trkpt lat="59.0698176876" lon="29.9672722094"><ele>95.529</ele><time>2026-04-25T12:03:50.000Z</time><hdop>3.0</hdop><vdop>3.0</vdop><extensions><gom:speed>0.426</gom:speed></extensions></trkpt>
   <trkpt lat="59.0698176876" lon="29.9672722094"><ele>95.55</ele><time>2026-04-25T12:03:51.000Z</time><hdop>3.0</hdop><vdop>3.0</vdop><extensions><gom:speed>0.0</gom:speed></extensions></trkpt>
   <trkpt lat="59.0698176876" lon="29.9672722094"><ele>95.562</ele><time>2026-04-25T12:03:52.000Z</time><hdop>3.0</hdop><vdop>3.0</vdop><extensions><gom:speed>0.0</gom:speed></extensions></trkpt>
   <trkpt lat="59.0698176876" lon="29.9672722094"><ele>95.569</ele><time>2026-04-25T12:03:53.000Z</time><hdop>3.0</hdop><vdop>3.0</vdop><extensions><gom:speed>0.0</gom:speed></extensions></trkpt>
   <trkpt lat="59.0698176876" lon="29.9672722094"><ele>95.574</ele><time>2026-04-25T12:03:53.000Z</time><hdop>3.0</hdop><vdop>3.0</vdop><extensions><gom:speed>0.0</gom:speed></extensions></trkpt>
   <trkpt lat="59.0698176876" lon="29.9672722094"><ele>95.576</ele><time>2026-04-25T12:03:54.000Z</time><hdop>3.0</hdop><vdop>3.0</vdop><extensions><gom:speed>0.0</gom:speed></extensions></trkpt>
   <trkpt lat="59.0698042346" lon="29.9672749754"><ele>95.587</ele><time>2026-04-25T12:03:55.000Z</time><hdop>3.187</hdop><vdop>3.187</vdop><extensions><gom:speed>0.567</gom:speed></extensions></trkpt>
   <trkpt lat="59.0698042346" lon="29.9672749754"><ele>95.594</ele><time>2026-04-25T12:03:56.000Z</time><hdop>3.187</hdop><vdop>3.187</vdop><extensions><gom:speed>0.0</gom:speed></extensions></trkpt>
   <trkpt lat="59.0697943021" lon="29.9672742211"><ele>95.671</ele><time>2026-04-25T12:03:57.000Z</time><hdop>3.0</hdop><vdop>3.0</vdop><extensions><gom:speed>0.486</gom:speed></extensions></trkpt>
   <trkpt lat="59.0697943021" lon="29.9672742211"><ele>95.718</ele><time>2026-04-25T12:03:58.000Z</time><hdop>3.0</hdop><vdop>3.0</vdop><extensions><gom:speed>0.0</gom:speed></extensions></trkpt>
   <trkpt lat="59.0697943021" lon="29.9672742211"><ele>95.746</ele><time>2026-04-25T12:03:59.000Z</time><hdop>3.0</hdop><vdop>3.0</vdop><extensions><gom:speed>0.0</gom:speed></extensions></trkpt>
   <trkpt lat="59.0697943021" lon="29.9672742211"><ele>95.762</ele><time>2026-04-25T12:04:00.000Z</time><hdop>3.0</hdop><vdop>3.0</vdop><extensions><gom:speed>0.0</gom:speed></extensions></trkpt>
   <trkpt lat="59.0697943021" lon="29.9672742211"><ele>95.772</ele><time>2026-04-25T12:04:01.000Z</time><hdop>3.0</hdop><vdop>3.0</vdop><extensions><gom:speed>0.0</gom:speed></extensions></trkpt>
   <trkpt lat="59.0697943021" lon="29.9672742211"><ele>95.778</ele><time>2026-04-25T12:04:02.000Z</time><hdop>3.0</hdop><vdop>3.0</vdop><extensions><gom:speed>0.0</gom:speed></extensions></trkpt>
   <trkpt lat="59.0697943021" lon="29.9672742211"><ele>95.781</ele><time>2026-04-25T12:04:03.000Z</time><hdop>3.0</hdop><vdop>3.0</vdop><extensions><gom:speed>0.0</gom:speed></extensions></trkpt>
   <trkpt lat="59.0697943021" lon="29.9672742211"><ele>95.784</ele><time>2026-04-25T12:04:04.000Z</time><hdop>3.0</hdop><vdop>3.0</vdop><extensions><gom:speed>0.0</gom:speed></extensions></trkpt>
   <trkpt lat="59.0697842438" lon="29.9672738858"><ele>95.866</ele><time>2026-04-25T12:04:05.000Z</time><hdop>3.375</hdop><vdop>3.375</vdop><extensions><gom:speed>0.679</gom:speed></extensions></trkpt>
   <trkpt lat="59.0697719224" lon="29.9672691919"><ele>95.856</ele><time>2026-04-25T12:04:06.000Z</time><hdop>3.562</hdop><vdop>3.562</vdop><extensions><gom:speed>0.679</gom:speed></extensions></trkpt>
   <trkpt lat="59.0697719224" lon="29.9672691919"><ele>95.849</ele><time>2026-04-25T12:04:07.000Z</time><hdop>3.562</hdop><vdop>3.562</vdop><extensions><gom:speed>0.0</gom:speed></extensions></trkpt>
   <trkpt lat="59.0697719224" lon="29.9672691919"><ele>95.846</ele><time>2026-04-25T12:04:08.000Z</time><hdop>3.562</hdop><vdop>3.562</vdop><extensions><gom:speed>0.0</gom:speed></extensions></trkpt>
   <trkpt lat="59.0697719224" lon="29.9672691919"><ele>95.844</ele><time>2026-04-25T12:04:09.000Z</time><hdop>3.562</hdop><vdop>3.562</vdop><extensions><gom:speed>0.0</gom:speed></extensions></trkpt>
   <trkpt lat="59.0697719224" lon="29.9672691919"><ele>95.842</ele><time>2026-04-25T12:04:10.000Z</time><hdop>3.562</hdop><vdop>3.562</vdop><extensions><gom:speed>0.0</gom:speed></extensions></trkpt>
   <trkpt lat="59.0697719224" lon="29.9672691919"><ele>95.841</ele><time>2026-04-25T12:04:11.000Z</time><hdop>3.562</hdop><vdop>3.562</vdop><extensions><gom:speed>0.0</gom:speed></extensions></trkpt>
   <trkpt lat="59.0697719224" lon="29.9672691919"><ele>95.841</ele><time>2026-04-25T12:04:12.000Z</time><hdop>3.562</hdop><vdop>3.562</vdop><extensions><gom:speed>0.0</gom:speed></extensions></trkpt>
   <trkpt lat="59.0697573798" lon="29.9672649172"><ele>95.919</ele><time>2026-04-25T12:04:13.000Z</time><hdop>3.812</hdop><vdop>3.812</vdop><extensions><gom:speed>0.558</gom:speed></extensions></trkpt>
   <trkpt lat="59.0697573798" lon="29.9672649172"><ele>95.965</ele><time>2026-04-25T12:04:13.000Z</time><hdop>3.812</hdop><vdop>3.812</vdop><extensions><gom:speed>0.558</gom:speed></extensions></trkpt>
   <trkpt lat="59.0697439268" lon="29.9672647495"><ele>95.949</ele><time>2026-04-25T12:04:14.000Z</time><hdop>3.937</hdop><vdop>3.937</vdop><extensions><gom:speed>0.517</gom:speed></extensions></trkpt>
   <trkpt lat="59.0697439268" lon="29.9672647495"><ele>95.939</ele><time>2026-04-25T12:04:15.000Z</time><hdop>3.937</hdop><vdop>3.937</vdop><extensions><gom:speed>0.0</gom:speed></extensions></trkpt>
   <trkpt lat="59.0697439268" lon="29.9672647495"><ele>95.933</ele><time>2026-04-25T12:04:16.000Z</time><hdop>3.937</hdop><vdop>3.937</vdop><extensions><gom:speed>0.0</gom:speed></extensions></trkpt>
   <trkpt lat="59.0697439268" lon="29.9672647495"><ele>95.93</ele><time>2026-04-25T12:04:17.000Z</time><hdop>3.937</hdop><vdop>3.937</vdop><extensions><gom:speed>0.0</gom:speed></extensions></trkpt>
   <trkpt lat="59.0697439268" lon="29.9672647495"><ele>95.928</ele><time>2026-04-25T12:04:18.000Z</time><hdop>3.937</hdop><vdop>3.937</vdop><extensions><gom:speed>0.0</gom:speed></extensions></trkpt>
   <trkpt lat="59.0697439268" lon="29.9672647495"><ele>95.927</ele><time>2026-04-25T12:04:19.000Z</time><hdop>3.937</hdop><vdop>3.937</vdop><extensions><gom:speed>0.0</gom:speed></extensions></trkpt>
   <trkpt lat="59.0697439268" lon="29.9672647495"><ele>95.926</ele><time>2026-04-25T12:04:20.000Z</time><hdop>3.937</hdop><vdop>3.937</vdop><extensions><gom:speed>0.0</gom:speed></extensions></trkpt>
   <trkpt lat="59.0697372632" lon="29.9672660906"><ele>95.955</ele><time>2026-04-25T12:04:21.000Z</time><hdop>4.562</hdop><vdop>4.562</vdop><extensions><gom:speed>0.176</gom:speed></extensions></trkpt>
   <trkpt lat="59.0697272049" lon="29.9672639951"><ele>95.925</ele><time>2026-04-25T12:04:22.000Z</time><hdop>4.812</hdop><vdop>4.812</vdop><extensions><gom:speed>0.303</gom:speed></extensions></trkpt>
   <trkpt lat="59.06971744" lon="29.9672587145"><ele>95.835</ele><time>2026-04-25T12:04:23.000Z</time><hdop>4.75</hdop><vdop>4.75</vdop><extensions><gom:speed>0.498</gom:speed></extensions></trkpt>
   <trkpt lat="59.0697053701" lon="29.967253853"><ele>95.783</ele><time>2026-04-25T12:04:24.000Z</time><hdop>4.875</hdop><vdop>4.875</vdop><extensions><gom:speed>0.602</gom:speed></extensions></trkpt>
   <trkpt lat="59.0696913723" lon="29.9672495783"><ele>95.64</ele><time>2026-04-25T12:04:25.000Z</time><hdop>4.812</hdop><vdop>4.812</vdop><extensions><gom:speed>0.797</gom:speed></extensions></trkpt>
   <trkpt lat="59.0696762011" lon="29.9672459741"><ele>95.516</ele><time>2026-04-25T12:04:26.000Z</time><hdop>4.812</hdop><vdop>4.812</vdop><extensions><gom:speed>0.833</gom:speed></extensions></trkpt>
   <trkpt lat="59.0696598983" lon="29.9672387656"><ele>95.406</ele><time>2026-04-25T12:04:27.000Z</time><hdop>4.812</hdop><vdop>4.812</vdop><extensions><gom:speed>0.974</gom:speed></extensions></trkpt>
   <trkpt lat="59.0696469482" lon="29.9672333174"><ele>95.282</ele><time>2026-04-25T12:04:28.000Z</time><hdop>4.937</hdop><vdop>4.937</vdop><extensions><gom:speed>0.896</gom:speed></extensions></trkpt>
   <trkpt lat="59.0696340401" lon="29.9672286235"><ele>95.266</ele><time>2026-04-25T12:04:29.000Z</time><hdop>4.687</hdop><vdop>4.687</vdop><extensions><gom:speed>0.699</gom:speed></extensions></trkpt>
   <trkpt lat="59.0696210062" lon="29.9672243487"><ele>95.318</ele><time>2026-04-25T12:04:30.000Z</time><hdop>4.687</hdop><vdop>4.687</vdop><extensions><gom:speed>0.795</gom:speed></extensions></trkpt>
   <trkpt lat="59.0696089782" lon="29.967220996"><ele>95.351</ele><time>2026-04-25T12:04:31.000Z</time><hdop>4.812</hdop><vdop>4.812</vdop><extensions><gom:speed>0.758</gom:speed></extensions></trkpt>
   <trkpt lat="59.0695963634" lon="29.9672185652"><ele>95.328</ele><time>2026-04-25T12:04:32.000Z</time><hdop>4.437</hdop><vdop>4.437</vdop><extensions><gom:speed>0.571</gom:speed></extensions></trkpt>
   <trkpt lat="59.0695865985" lon="29.9672160507"><ele>95.349</ele><time>2026-04-25T12:04:33.000Z</time><hdop>4.125</hdop><vdop>4.125</vdop><extensions><gom:speed>0.491</gom:speed></extensions></trkpt>
   <trkpt lat="59.0695865985" lon="29.9672160507"><ele>95.361</ele><time>2026-04-25T12:04:33.000Z</time><hdop>4.125</hdop><vdop>4.125</vdop><extensions><gom:speed>0.491</gom:speed></extensions></trkpt>
   <trkpt lat="59.0695791805" lon="29.9672154639"><ele>95.413</ele><time>2026-04-25T12:04:34.000Z</time><hdop>4.375</hdop><vdop>4.375</vdop><extensions><gom:speed>0.29</gom:speed></extensions></trkpt>
   <trkpt lat="59.0695703795" lon="29.9672137037"><ele>95.503</ele><time>2026-04-25T12:04:35.000Z</time><hdop>4.562</hdop><vdop>4.562</vdop><extensions><gom:speed>0.315</gom:speed></extensions></trkpt>
   <trkpt lat="59.0695604889" lon="29.9672100995"><ele>95.609</ele><time>2026-04-25T12:04:36.000Z</time><hdop>4.437</hdop><vdop>4.437</vdop><extensions><gom:speed>0.497</gom:speed></extensions></trkpt>
   <trkpt lat="59.0695604889" lon="29.9672100995"><ele>95.672</ele><time>2026-04-25T12:04:37.000Z</time><hdop>4.437</hdop><vdop>4.437</vdop><extensions><gom:speed>0.0</gom:speed></extensions></trkpt>
   <trkpt lat="59.0695520651" lon="29.9672082555"><ele>95.726</ele><time>2026-04-25T12:04:38.000Z</time><hdop>4.437</hdop><vdop>4.437</vdop><extensions><gom:speed>0.489</gom:speed></extensions></trkpt>
   <trkpt lat="59.0695410429" lon="29.9672073335"><ele>95.744</ele><time>2026-04-25T12:04:39.000Z</time><hdop>4.437</hdop><vdop>4.437</vdop><extensions><gom:speed>0.47</gom:speed></extensions></trkpt>
   <trkpt lat="59.0695303979" lon="29.9672072497"><ele>95.753</ele><time>2026-04-25T12:04:40.000Z</time><hdop>4.5</hdop><vdop>4.5</vdop><extensions><gom:speed>0.369</gom:speed></extensions></trkpt>
   <trkpt lat="59.0695211358" lon="29.9672066629"><ele>95.751</ele><time>2026-04-25T12:04:41.000Z</time><hdop>4.312</hdop><vdop>4.312</vdop><extensions><gom:speed>0.3</gom:speed></extensions></trkpt>
   <trkpt lat="59.0695107842" lon="29.9672032263"><ele>95.699</ele><time>2026-04-25T12:04:42.000Z</time><hdop>4.187</hdop><vdop>4.187</vdop><extensions><gom:speed>0.449</gom:speed></extensions></trkpt>
   <trkpt lat="59.069502067" lon="29.9672011309"><ele>95.596</ele><time>2026-04-25T12:04:43.000Z</time><hdop>3.937</hdop><vdop>3.937</vdop><extensions><gom:speed>0.439</gom:speed></extensions></trkpt>
   <trkpt lat="59.0694927212" lon="29.9671998736"><ele>95.519</ele><time>2026-04-25T12:04:44.000Z</time><hdop>3.875</hdop><vdop>3.875</vdop><extensions><gom:speed>0.461</gom:speed></extensions></trkpt>
   <trkpt lat="59.0694838364" lon="29.9671959341"><ele>95.451</ele><time>2026-04-25T12:04:45.000Z</time><hdop>3.937</hdop><vdop>3.937</vdop><extensions><gom:speed>0.436</gom:speed></extensions></trkpt>
   <trkpt lat="59.0694772147" lon="29.9671940901"><ele>95.369</ele><time>2026-04-25T12:04:46.000Z</time><hdop>3.5</hdop><vdop>3.5</vdop><extensions><gom:speed>0.33</gom:speed></extensions></trkpt>
   <trkpt lat="59.0694707187" lon="29.9671893962"><ele>95.335</ele><time>2026-04-25T12:04:47.000Z</time><hdop>3.375</hdop><vdop>3.375</vdop><extensions><gom:speed>0.369</gom:speed></extensions></trkpt>
   <trkpt lat="59.0694707187" lon="29.9671893962"><ele>95.314</ele><time>2026-04-25T12:04:48.000Z</time><hdop>3.375</hdop><vdop>3.375</vdop><extensions><gom:speed>0.0</gom:speed></extensions></trkpt>
   <trkpt lat="59.0694707187" lon="29.9671893962"><ele>95.302</ele><time>2026-04-25T12:04:49.000Z</time><hdop>3.375</hdop><vdop>3.375</vdop><extensions><gom:speed>0.0</gom:speed></extensions></trkpt>
   <trkpt lat="59.0694707187" lon="29.9671893962"><ele>95.295</ele><time>2026-04-25T12:04:50.000Z</time><hdop>3.375</hdop><vdop>3.375</vdop><extensions><gom:speed>0.0</gom:speed></extensions></trkpt>
   <trkpt lat="59.0694609538" lon="29.9671836127"><ele>95.355</ele><time>2026-04-25T12:04:51.000Z</time><hdop>3.312</hdop><vdop>3.312</vdop><extensions><gom:speed>0.32</gom:speed></extensions></trkpt>
   <trkpt lat="59.0694505183" lon="29.9671791703"><ele>95.354</ele><time>2026-04-25T12:04:52.000Z</time><hdop>4.312</hdop><vdop>4.312</vdop><extensions><gom:speed>0.389</gom:speed></extensions></trkpt>
   <trkpt lat="59.06943212" lon="29.967166346"><ele>95.425</ele><time>2026-04-25T12:04:53.000Z</time><hdop>4.25</hdop><vdop>4.25</vdop><extensions><gom:speed>0.59</gom:speed></extensions></trkpt>
   <trkpt lat="59.06943212" lon="29.967166346"><ele>95.466</ele><time>2026-04-25T12:04:53.000Z</time><hdop>4.25</hdop><vdop>4.25</vdop><extensions><gom:speed>0.59</gom:speed></extensions></trkpt>
   <trkpt lat="59.0694221875" lon="29.967163077"><ele>95.507</ele><time>2026-04-25T12:04:54.000Z</time><hdop>4.75</hdop><vdop>4.75</vdop><extensions><gom:speed>0.494</gom:speed></extensions></trkpt>
   <trkpt lat="59.0694132608" lon="29.9671611492"><ele>95.563</ele><time>2026-04-25T12:04:55.000Z</time><hdop>4.875</hdop><vdop>4.875</vdop><extensions><gom:speed>0.406</gom:speed></extensions></trkpt>
   <trkpt lat="59.0694132608" lon="29.9671611492"><ele>95.597</ele><time>2026-04-25T12:04:56.000Z</time><hdop>4.875</hdop><vdop>4.875</vdop><extensions><gom:speed>0.0</gom:speed></extensions></trkpt>
   <trkpt lat="59.0694132608" lon="29.9671611492"><ele>95.618</ele><time>2026-04-25T12:04:57.000Z</time><hdop>4.875</hdop><vdop>4.875</vdop><extensions><gom:speed>0.0</gom:speed></extensions></trkpt>
   <trkpt lat="59.0693961198" lon="29.967161233"><ele>95.857</ele><time>2026-04-25T12:04:58.000Z</time><hdop>4.812</hdop><vdop>4.812</vdop><extensions><gom:speed>0.328</gom:speed></extensions></trkpt>
   <trkpt lat="59.0693961198" lon="29.967161233"><ele>96.001</ele><time>2026-04-25T12:04:59.000Z</time><hdop>4.812</hdop><vdop>4.812</vdop><extensions><gom:speed>0.0</gom:speed></extensions></trkpt>
   <trkpt lat="59.0693961198" lon="29.967161233"><ele>96.086</ele><time>2026-04-25T12:05:00.000Z</time><hdop>4.812</hdop><vdop>4.812</vdop><extensions><gom:speed>0.0</gom:speed></extensions></trkpt>
   <trkpt lat="59.0693961198" lon="29.967161233"><ele>96.137</ele><time>2026-04-25T12:05:01.000Z</time><hdop>4.812</hdop><vdop>4.812</vdop><extensions><gom:speed>0.0</gom:speed></extensions></trkpt>
   <trkpt lat="59.0693961198" lon="29.967161233"><ele>96.168</ele><time>2026-04-25T12:05:02.000Z</time><hdop>4.812</hdop><vdop>4.812</vdop><extensions><gom:speed>0.0</gom:speed></extensions></trkpt>
   <trkpt lat="59.0693961198" lon="29.967161233"><ele>96.186</ele><time>2026-04-25T12:05:03.000Z</time><hdop>4.812</hdop><vdop>4.812</vdop><extensions><gom:speed>0.0</gom:speed></extensions></trkpt>
   <trkpt lat="59.0693961198" lon="29.967161233"><ele>96.197</ele><time>2026-04-25T12:05:04.000Z</time><hdop>4.812</hdop><vdop>4.812</vdop><extensions><gom:speed>0.0</gom:speed></extensions></trkpt>
   <trkpt lat="59.0693961198" lon="29.967161233"><ele>96.204</ele><time>2026-04-25T12:05:05.000Z</time><hdop>4.812</hdop><vdop>4.812</vdop><extensions><gom:speed>0.0</gom:speed></extensions></trkpt>
   <trkpt lat="59.0693961198" lon="29.967161233"><ele>96.207</ele><time>2026-04-25T12:05:06.000Z</time><hdop>4.812</hdop><vdop>4.812</vdop><extensions><gom:speed>0.0</gom:speed></extensions></trkpt>
   <trkpt lat="59.0693961198" lon="29.967161233"><ele>96.21</ele><time>2026-04-25T12:05:07.000Z</time><hdop>4.812</hdop><vdop>4.812</vdop><extensions><gom:speed>0.0</gom:speed></extensions></trkpt>
   <trkpt lat="59.0693961198" lon="29.967161233"><ele>96.211</ele><time>2026-04-25T12:05:08.000Z</time><hdop>4.812</hdop><vdop>4.812</vdop><extensions><gom:speed>0.0</gom:speed></extensions></trkpt>
   <trkpt lat="59.0693961198" lon="29.967161233"><ele>96.212</ele><time>2026-04-25T12:05:09.000Z</time><hdop>4.812</hdop><vdop>4.812</vdop><extensions><gom:speed>0.0</gom:speed></extensions></trkpt>
   <trkpt lat="59.0693928927" lon="29.9671567906"><ele>96.261</ele><time>2026-04-25T12:05:10.000Z</time><hdop>4.687</hdop><vdop>4.687</vdop><extensions><gom:speed>0.377</gom:speed></extensions></trkpt>
   <trkpt lat="59.0693928927" lon="29.9671567906"><ele>96.29</ele><time>2026-04-25T12:05:11.000Z</time><hdop>4.875</hdop><vdop>4.875</vdop><extensions><gom:speed>0.0</gom:speed></extensions></trkpt>
   <trkpt lat="59.0693928927" lon="29.9671567906"><ele>96.308</ele><time>2026-04-25T12:05:12.000Z</time><hdop>4.875</hdop><vdop>4.875</vdop><extensions><gom:speed>0.0</gom:speed></extensions></trkpt>
   <trkpt lat="59.0693928927" lon="29.9671567906"><ele>96.318</ele><time>2026-04-25T12:05:12.000Z</time><hdop>4.875</hdop><vdop>4.875</vdop><extensions><gom:speed>0.0</gom:speed></extensions></trkpt>
   <trkpt lat="59.0693928927" lon="29.9671567906"><ele>96.324</ele><time>2026-04-25T12:05:13.000Z</time><hdop>4.875</hdop><vdop>4.875</vdop><extensions><gom:speed>0.0</gom:speed></extensions></trkpt>
   <trkpt lat="59.0693773024" lon="29.9671480734"><ele>96.54</ele><time>2026-04-25T12:05:14.000Z</time><hdop>4.687</hdop><vdop>4.687</vdop><extensions><gom:speed>0.598</gom:speed></extensions></trkpt>
   <trkpt lat="59.0693657773" lon="29.9671358358"><ele>96.698</ele><time>2026-04-25T12:05:15.000Z</time><hdop>4.625</hdop><vdop>4.625</vdop><extensions><gom:speed>0.486</gom:speed></extensions></trkpt>
   <trkpt lat="59.0693657773" lon="29.9671358358"><ele>96.792</ele><time>2026-04-25T12:05:16.000Z</time><hdop>4.625</hdop><vdop>4.625</vdop><extensions><gom:speed>0.0</gom:speed></extensions></trkpt>
   <trkpt lat="59.0693657773" lon="29.9671358358"><ele>96.848</ele><time>2026-04-25T12:05:17.000Z</time><hdop>4.625</hdop><vdop>4.625</vdop><extensions><gom:speed>0.0</gom:speed></extensions></trkpt>
   <trkpt lat="59.0693601195" lon="29.9671335727"><ele>96.829</ele><time>2026-04-25T12:05:18.000Z</time><hdop>4.0</hdop><vdop>4.0</vdop><extensions><gom:speed>0.369</gom:speed></extensions></trkpt>
   <trkpt lat="59.069353875" lon="29.9671310582"><ele>96.805</ele><time>2026-04-25T12:05:19.000Z</time><hdop>3.937</hdop><vdop>3.937</vdop><extensions><gom:speed>0.311</gom:speed></extensions></trkpt>
   <trkpt lat="59.0693441101" lon="29.9671233468"><ele>96.748</ele><time>2026-04-25T12:05:20.000Z</time><hdop>3.687</hdop><vdop>3.687</vdop><extensions><gom:speed>0.331</gom:speed></extensions></trkpt>
   <trkpt lat="59.0693343032" lon="29.9671173957"><ele>96.672</ele><time>2026-04-25T12:05:21.000Z</time><hdop>3.5</hdop><vdop>3.5</vdop><extensions><gom:speed>0.291</gom:speed></extensions></trkpt>
   <trkpt lat="59.0693291903" lon="29.9671123665"><ele>96.579</ele><time>2026-04-25T12:05:22.000Z</time><hdop>3.25</hdop><vdop>3.25</vdop><extensions><gom:speed>0.279</gom:speed></extensions></trkpt>
   <trkpt lat="59.0693247479" lon="29.9671041523"><ele>96.578</ele><time>2026-04-25T12:05:23.000Z</time><hdop>3.312</hdop><vdop>3.312</vdop><extensions><gom:speed>0.311</gom:speed></extensions></trkpt>
   <trkpt lat="59.069313558" lon="29.9670920823"><ele>96.525</ele><time>2026-04-25T12:05:24.000Z</time><hdop>3.25</hdop><vdop>3.25</vdop><extensions><gom:speed>0.448</gom:speed></extensions></trkpt>
   <trkpt lat="59.0693018653" lon="29.9670813535"><ele>96.473</ele><time>2026-04-25T12:05:25.000Z</time><hdop>3.062</hdop><vdop>3.062</vdop><extensions><gom:speed>0.622</gom:speed></extensions></trkpt>
   <trkpt lat="59.0692897115" lon="29.9670743127"><ele>96.485</ele><time>2026-04-25T12:05:26.000Z</time><hdop>3.0</hdop><vdop>3.0</vdop><extensions><gom:speed>0.439</gom:speed></extensions></trkpt>
   <trkpt lat="59.0692796951" lon="29.9670692835"><ele>96.5</ele><time>2026-04-25T12:05:27.000Z</time><hdop>3.0</hdop><vdop>3.0</vdop><extensions><gom:speed>0.301</gom:speed></extensions></trkpt>
   <trkpt lat="59.0692694692" lon="29.9670627457"><ele>96.576</ele><time>2026-04-25T12:05:28.000Z</time><hdop>3.0</hdop><vdop>3.0</vdop><extensions><gom:speed>0.504</gom:speed></extensions></trkpt>
   <trkpt lat="59.0692609616" lon="29.9670585547"><ele>96.627</ele><time>2026-04-25T12:05:29.000Z</time><hdop>3.0</hdop><vdop>3.0</vdop><extensions><gom:speed>0.556</gom:speed></extensions></trkpt>
   <trkpt lat="59.0692520768" lon="29.967056543"><ele>96.691</ele><time>2026-04-25T12:05:30.000Z</time><hdop>3.0</hdop><vdop>3.0</vdop><extensions><gom:speed>0.669</gom:speed></extensions></trkpt>
   <trkpt lat="59.0692410546" lon="29.9670489155"><ele>96.845</ele><time>2026-04-25T12:05:31.000Z</time><hdop>3.0</hdop><vdop>3.0</vdop><extensions><gom:speed>0.581</gom:speed></extensions></trkpt>
   <trkpt lat="59.0692318764" lon="29.9670434673"><ele>97.029</ele><time>2026-04-25T12:05:32.000Z</time><hdop>3.0</hdop><vdop>3.0</vdop><extensions><gom:speed>0.453</gom:speed></extensions></trkpt>
   <trkpt lat="59.0692196388" lon="29.9670388572"><ele>97.236</ele><time>2026-04-25T12:05:33.000Z</time><hdop>3.0</hdop><vdop>3.0</vdop><extensions><gom:speed>0.566</gom:speed></extensions></trkpt>
   <trkpt lat="59.0692196388" lon="29.9670388572"><ele>97.361</ele><time>2026-04-25T12:05:33.000Z</time><hdop>3.0</hdop><vdop>3.0</vdop><extensions><gom:speed>0.566</gom:speed></extensions></trkpt>
   <trkpt lat="59.0692086585" lon="29.9670364265"><ele>97.508</ele><time>2026-04-25T12:05:34.000Z</time><hdop>3.0</hdop><vdop>3.0</vdop><extensions><gom:speed>0.512</gom:speed></extensions></trkpt>
   <trkpt lat="59.0692002347" lon="29.9670350016"><ele>97.638</ele><time>2026-04-25T12:05:35.000Z</time><hdop>3.0</hdop><vdop>3.0</vdop><extensions><gom:speed>0.488</gom:speed></extensions></trkpt>
   <trkpt lat="59.0691912241" lon="29.967030643"><ele>97.619</ele><time>2026-04-25T12:05:36.000Z</time><hdop>3.0</hdop><vdop>3.0</vdop><extensions><gom:speed>0.472</gom:speed></extensions></trkpt>
   <trkpt lat="59.0691912241" lon="29.967030643"><ele>97.609</ele><time>2026-04-25T12:05:37.000Z</time><hdop>3.0</hdop><vdop>3.0</vdop><extensions><gom:speed>0.0</gom:speed></extensions></trkpt>
   <trkpt lat="59.0691912241" lon="29.967030643"><ele>97.602</ele><time>2026-04-25T12:05:38.000Z</time><hdop>3.0</hdop><vdop>3.0</vdop><extensions><gom:speed>0.0</gom:speed></extensions></trkpt>
   <trkpt lat="59.0691912241" lon="29.967030643"><ele>97.598</ele><time>2026-04-25T12:05:39.000Z</time><hdop>3.0</hdop><vdop>3.0</vdop><extensions><gom:speed>0.0</gom:speed></extensions></trkpt>
   <trkpt lat="59.0691912241" lon="29.967030643"><ele>97.596</ele><time>2026-04-25T12:05:40.000Z</time><hdop>3.0</hdop><vdop>3.0</vdop><extensions><gom:speed>0.0</gom:speed></extensions></trkpt>
   <trkpt lat="59.0691912241" lon="29.967030643"><ele>97.595</ele><time>2026-04-25T12:05:41.000Z</time><hdop>3.0</hdop><vdop>3.0</vdop><extensions><gom:speed>0.0</gom:speed></extensions></trkpt>
   <trkpt lat="59.0691856083" lon="29.9670223449"><ele>97.807</ele><time>2026-04-25T12:05:42.000Z</time><hdop>3.0</hdop><vdop>3.0</vdop><extensions><gom:speed>0.151</gom:speed></extensions></trkpt>
   <trkpt lat="59.0691856083" lon="29.9670223449"><ele>97.934</ele><time>2026-04-25T12:05:43.000Z</time><hdop>3.0</hdop><vdop>3.0</vdop><extensions><gom:speed>0.0</gom:speed></extensions></trkpt>
   <trkpt lat="59.0691856083" lon="29.9670223449"><ele>98.01</ele><time>2026-04-25T12:05:44.000Z</time><hdop>3.0</hdop><vdop>3.0</vdop><extensions><gom:speed>0.0</gom:speed></extensions></trkpt>
   <trkpt lat="59.0691856083" lon="29.9670223449"><ele>98.055</ele><time>2026-04-25T12:05:45.000Z</time><hdop>3.0</hdop><vdop>3.0</vdop><extensions><gom:speed>0.0</gom:speed></extensions></trkpt>
   <trkpt lat="59.0691856083" lon="29.9670223449"><ele>98.082</ele><time>2026-04-25T12:05:46.000Z</time><hdop>3.0</hdop><vdop>3.0</vdop><extensions><gom:speed>0.0</gom:speed></extensions></trkpt>
   <trkpt lat="59.0691856083" lon="29.9670223449"><ele>98.098</ele><time>2026-04-25T12:05:47.000Z</time><hdop>3.0</hdop><vdop>3.0</vdop><extensions><gom:speed>0.0</gom:speed></extensions></trkpt>
   <trkpt lat="59.0691856083" lon="29.9670223449"><ele>98.108</ele><time>2026-04-25T12:05:48.000Z</time><hdop>3.0</hdop><vdop>3.0</vdop><extensions><gom:speed>0.0</gom:speed></extensions></trkpt>
   <trkpt lat="59.0691856083" lon="29.9670223449"><ele>98.114</ele><time>2026-04-25T12:05:49.000Z</time><hdop>3.0</hdop><vdop>3.0</vdop><extensions><gom:speed>0.0</gom:speed></extensions></trkpt>
   <trkpt lat="59.0691856083" lon="29.9670223449"><ele>98.117</ele><time>2026-04-25T12:05:50.000Z</time><hdop>3.0</hdop><vdop>3.0</vdop><extensions><gom:speed>0.0</gom:speed></extensions></trkpt>
   <trkpt lat="59.0691734964" lon="29.9670222611"><ele>98.065</ele><time>2026-04-25T12:05:51.000Z</time><hdop>3.0</hdop><vdop>3.0</vdop><extensions><gom:speed>0.276</gom:speed></extensions></trkpt>
   <trkpt lat="59.0691734964" lon="29.9670222611"><ele>98.034</ele><time>2026-04-25T12:05:52.000Z</time><hdop>3.0</hdop><vdop>3.0</vdop><extensions><gom:speed>0.0</gom:speed></extensions></trkpt>
   <trkpt lat="59.0691734964" lon="29.9670222611"><ele>98.016</ele><time>2026-04-25T12:05:53.000Z</time><hdop>3.0</hdop><vdop>3.0</vdop><extensions><gom:speed>0.0</gom:speed></extensions></trkpt>
   <trkpt lat="59.0691734964" lon="29.9670222611"><ele>98.005</ele><time>2026-04-25T12:05:53.000Z</time><hdop>3.0</hdop><vdop>3.0</vdop><extensions><gom:speed>0.0</gom:speed></extensions></trkpt>
   <trkpt lat="59.0691734964" lon="29.9670222611"><ele>97.998</ele><time>2026-04-25T12:05:54.000Z</time><hdop>3.0</hdop><vdop>3.0</vdop><extensions><gom:speed>0.0</gom:speed></extensions></trkpt>
   <trkpt lat="59.0691734964" lon="29.9670222611"><ele>97.994</ele><time>2026-04-25T12:05:55.000Z</time><hdop>3.0</hdop><vdop>3.0</vdop><extensions><gom:speed>0.0</gom:speed></extensions></trkpt>
   <trkpt lat="59.0691734964" lon="29.9670222611"><ele>97.992</ele><time>2026-04-25T12:05:56.000Z</time><hdop>3.0</hdop><vdop>3.0</vdop><extensions><gom:speed>0.0</gom:speed></extensions></trkpt>
   <trkpt lat="59.0691734964" lon="29.9670222611"><ele>97.99</ele><time>2026-04-25T12:05:57.000Z</time><hdop>3.0</hdop><vdop>3.0</vdop><extensions><gom:speed>0.0</gom:speed></extensions></trkpt>
   <trkpt lat="59.0691734964" lon="29.9670222611"><ele>97.989</ele><time>2026-04-25T12:05:58.000Z</time><hdop>3.0</hdop><vdop>3.0</vdop><extensions><gom:speed>0.0</gom:speed></extensions></trkpt>
   <trkpt lat="59.0691734964" lon="29.9670222611"><ele>97.989</ele><time>2026-04-25T12:05:59.000Z</time><hdop>3.0</hdop><vdop>3.0</vdop><extensions><gom:speed>0.0</gom:speed></extensions></trkpt>
   <trkpt lat="59.0691734964" lon="29.9670222611"><ele>97.989</ele><time>2026-04-25T12:06:00.000Z</time><hdop>3.0</hdop><vdop>3.0</vdop><extensions><gom:speed>0.0</gom:speed></extensions></trkpt>
   <trkpt lat="59.0691734964" lon="29.9670222611"><ele>97.988</ele><time>2026-04-25T12:06:01.000Z</time><hdop>3.0</hdop><vdop>3.0</vdop><extensions><gom:speed>0.0</gom:speed></extensions></trkpt>
   <trkpt lat="59.0691734964" lon="29.9670222611"><ele>97.988</ele><time>2026-04-25T12:06:02.000Z</time><hdop>3.0</hdop><vdop>3.0</vdop><extensions><gom:speed>0.0</gom:speed></extensions></trkpt>
   <trkpt lat="59.0691734964" lon="29.9670222611"><ele>97.988</ele><time>2026-04-25T12:06:03.000Z</time><hdop>3.0</hdop><vdop>3.0</vdop><extensions><gom:speed>0.0</gom:speed></extensions></trkpt>
   <trkpt lat="59.0691734964" lon="29.9670222611"><ele>97.988</ele><time>2026-04-25T12:06:04.000Z</time><hdop>3.0</hdop><vdop>3.0</vdop><extensions><gom:speed>0.0</gom:speed></extensions></trkpt>
   <trkpt lat="59.0691734964" lon="29.9670222611"><ele>97.988</ele><time>2026-04-25T12:06:05.000Z</time><hdop>3.0</hdop><vdop>3.0</vdop><extensions><gom:speed>0.0</gom:speed></extensions></trkpt>
   <trkpt lat="59.0691734964" lon="29.9670222611"><ele>97.988</ele><time>2026-04-25T12:06:06.000Z</time><hdop>3.0</hdop><vdop>3.0</vdop><extensions><gom:speed>0.0</gom:speed></extensions></trkpt>
   <trkpt lat="59.0691734964" lon="29.9670222611"><ele>97.988</ele><time>2026-04-25T12:06:07.000Z</time><hdop>3.0</hdop><vdop>3.0</vdop><extensions><gom:speed>0.0</gom:speed></extensions></trkpt>
   <trkpt lat="59.0691734964" lon="29.9670222611"><ele>97.988</ele><time>2026-04-25T12:06:08.000Z</time><hdop>3.0</hdop><vdop>3.0</vdop><extensions><gom:speed>0.0</gom:speed></extensions></trkpt>
   <trkpt lat="59.0691734964" lon="29.9670222611"><ele>97.988</ele><time>2026-04-25T12:06:09.000Z</time><hdop>3.0</hdop><vdop>3.0</vdop><extensions><gom:speed>0.0</gom:speed></extensions></trkpt>
   <trkpt lat="59.0691734964" lon="29.9670222611"><ele>97.988</ele><time>2026-04-25T12:06:10.000Z</time><hdop>3.0</hdop><vdop>3.0</vdop><extensions><gom:speed>0.0</gom:speed></extensions></trkpt>
   <trkpt lat="59.0691734964" lon="29.9670222611"><ele>97.988</ele><time>2026-04-25T12:06:11.000Z</time><hdop>3.0</hdop><vdop>3.0</vdop><extensions><gom:speed>0.0</gom:speed></extensions></trkpt>
   <trkpt lat="59.0691734964" lon="29.9670222611"><ele>97.988</ele><time>2026-04-25T12:06:12.000Z</time><hdop>3.0</hdop><vdop>3.0</vdop><extensions><gom:speed>0.0</gom:speed></extensions></trkpt>
   <trkpt lat="59.0691734964" lon="29.9670222611"><ele>97.988</ele><time>2026-04-25T12:06:13.000Z</time><hdop>3.0</hdop><vdop>3.0</vdop><extensions><gom:speed>0.0</gom:speed></extensions></trkpt>
   <trkpt lat="59.0691734964" lon="29.9670222611"><ele>97.988</ele><time>2026-04-25T12:06:13.000Z</time><hdop>3.0</hdop><vdop>3.0</vdop><extensions><gom:speed>0.0</gom:speed></extensions></trkpt>
   <trkpt lat="59.0691734964" lon="29.9670222611"><ele>97.988</ele><time>2026-04-25T12:06:14.000Z</time><hdop>3.0</hdop><vdop>3.0</vdop><extensions><gom:speed>0.0</gom:speed></extensions></trkpt>
   <trkpt lat="59.0691734964" lon="29.9670222611"><ele>97.988</ele><time>2026-04-25T12:06:15.000Z</time><hdop>3.0</hdop><vdop>3.0</vdop><extensions><gom:speed>0.0</gom:speed></extensions></trkpt>
   <trkpt lat="59.0691734964" lon="29.9670222611"><ele>97.988</ele><time>2026-04-25T12:06:16.000Z</time><hdop>3.0</hdop><vdop>3.0</vdop><extensions><gom:speed>0.0</gom:speed></extensions></trkpt>
   <trkpt lat="59.0691734964" lon="29.9670222611"><ele>97.988</ele><time>2026-04-25T12:06:17.000Z</time><hdop>3.0</hdop><vdop>3.0</vdop><extensions><gom:speed>0.0</gom:speed></extensions></trkpt>
   <trkpt lat="59.0691734964" lon="29.9670222611"><ele>97.988</ele><time>2026-04-25T12:06:18.000Z</time><hdop>3.0</hdop><vdop>3.0</vdop><extensions><gom:speed>0.0</gom:speed></extensions></trkpt>
   <trkpt lat="59.0691734964" lon="29.9670222611"><ele>97.988</ele><time>2026-04-25T12:06:19.000Z</time><hdop>3.0</hdop><vdop>3.0</vdop><extensions><gom:speed>0.0</gom:speed></extensions></trkpt>
   <trkpt lat="59.0691734964" lon="29.9670222611"><ele>97.988</ele><time>2026-04-25T12:06:20.000Z</time><hdop>3.0</hdop><vdop>3.0</vdop><extensions><gom:speed>0.0</gom:speed></extensions></trkpt>
   <trkpt lat="59.0691734964" lon="29.9670222611"><ele>97.988</ele><time>2026-04-25T12:06:21.000Z</time><hdop>3.0</hdop><vdop>3.0</vdop><extensions><gom:speed>0.0</gom:speed></extensions></trkpt>
   <trkpt lat="59.0691734964" lon="29.9670222611"><ele>97.988</ele><time>2026-04-25T12:06:22.000Z</time><hdop>3.0</hdop><vdop>3.0</vdop><extensions><gom:speed>0.0</gom:speed></extensions></trkpt>
   <trkpt lat="59.0691734964" lon="29.9670222611"><ele>97.988</ele><time>2026-04-25T12:06:23.000Z</time><hdop>3.0</hdop><vdop>3.0</vdop><extensions><gom:speed>0.0</gom:speed></extensions></trkpt>
   <trkpt lat="59.0691734964" lon="29.9670222611"><ele>97.988</ele><time>2026-04-25T12:06:24.000Z</time><hdop>3.0</hdop><vdop>3.0</vdop><extensions><gom:speed>0.0</gom:speed></extensions></trkpt>
   <trkpt lat="59.0691734964" lon="29.9670222611"><ele>97.988</ele><time>2026-04-25T12:06:25.000Z</time><hdop>3.0</hdop><vdop>3.0</vdop><extensions><gom:speed>0.0</gom:speed></extensions></trkpt>
   <trkpt lat="59.0691734964" lon="29.9670222611"><ele>97.988</ele><time>2026-04-25T12:06:26.000Z</time><hdop>3.0</hdop><vdop>3.0</vdop><extensions><gom:speed>0.0</gom:speed></extensions></trkpt>
   <trkpt lat="59.0691734964" lon="29.9670222611"><ele>97.988</ele><time>2026-04-25T12:06:27.000Z</time><hdop>3.0</hdop><vdop>3.0</vdop><extensions><gom:speed>0.0</gom:speed></extensions></trkpt>
   <trkpt lat="59.0691734964" lon="29.9670222611"><ele>97.988</ele><time>2026-04-25T12:06:28.000Z</time><hdop>3.0</hdop><vdop>3.0</vdop><extensions><gom:speed>0.0</gom:speed></extensions></trkpt>
   <trkpt lat="59.0691734964" lon="29.9670222611"><ele>97.988</ele><time>2026-04-25T12:06:29.000Z</time><hdop>3.0</hdop><vdop>3.0</vdop><extensions><gom:speed>0.0</gom:speed></extensions></trkpt>
   <trkpt lat="59.0691734964" lon="29.9670222611"><ele>97.988</ele><time>2026-04-25T12:06:30.000Z</time><hdop>3.0</hdop><vdop>3.0</vdop><extensions><gom:speed>0.0</gom:speed></extensions></trkpt>
   <trkpt lat="59.0691734964" lon="29.9670222611"><ele>97.988</ele><time>2026-04-25T12:06:31.000Z</time><hdop>3.0</hdop><vdop>3.0</vdop><extensions><gom:speed>0.0</gom:speed></extensions></trkpt>
   <trkpt lat="59.0691734964" lon="29.9670222611"><ele>97.988</ele><time>2026-04-25T12:06:32.000Z</time><hdop>3.0</hdop><vdop>3.0</vdop><extensions><gom:speed>0.0</gom:speed></extensions></trkpt>
   <trkpt lat="59.0691734964" lon="29.9670222611"><ele>97.988</ele><time>2026-04-25T12:06:33.000Z</time><hdop>3.0</hdop><vdop>3.0</vdop><extensions><gom:speed>0.0</gom:speed></extensions></trkpt>
   <trkpt lat="59.0691734964" lon="29.9670222611"><ele>97.988</ele><time>2026-04-25T12:06:33.000Z</time><hdop>3.0</hdop><vdop>3.0</vdop><extensions><gom:speed>0.0</gom:speed></extensions></trkpt>
   <trkpt lat="59.0691734964" lon="29.9670222611"><ele>97.988</ele><time>2026-04-25T12:06:34.000Z</time><hdop>3.0</hdop><vdop>3.0</vdop><extensions><gom:speed>0.0</gom:speed></extensions></trkpt>
   <trkpt lat="59.0691734964" lon="29.9670222611"><ele>97.988</ele><time>2026-04-25T12:06:35.000Z</time><hdop>3.0</hdop><vdop>3.0</vdop><extensions><gom:speed>0.0</gom:speed></extensions></trkpt>
   <trkpt lat="59.0691608817" lon="29.9670225963"><ele>98.07</ele><time>2026-04-25T12:06:36.000Z</time><hdop>3.75</hdop><vdop>3.75</vdop><extensions><gom:speed>0.316</gom:speed></extensions></trkpt>
   <trkpt lat="59.0691608817" lon="29.9670225963"><ele>98.119</ele><time>2026-04-25T12:06:37.000Z</time><hdop>3.75</hdop><vdop>3.75</vdop><extensions><gom:speed>0.0</gom:speed></extensions></trkpt>
   <trkpt lat="59.0691608817" lon="29.9670225963"><ele>98.149</ele><time>2026-04-25T12:06:38.000Z</time><hdop>3.75</hdop><vdop>3.75</vdop><extensions><gom:speed>0.0</gom:speed></extensions></trkpt>
   <trkpt lat="59.0691531284" lon="29.967021842"><ele>98.239</ele><time>2026-04-25T12:06:39.000Z</time><hdop>4.375</hdop><vdop>4.375</vdop><extensions><gom:speed>0.302</gom:speed></extensions></trkpt>
   <trkpt lat="59.069141729" lon="29.9670190759"><ele>98.215</ele><time>2026-04-25T12:06:40.000Z</time><hdop>4.687</hdop><vdop>4.687</vdop><extensions><gom:speed>0.365</gom:speed></extensions></trkpt>
   <trkpt lat="59.0691307068" lon="29.9670142983"><ele>98.151</ele><time>2026-04-25T12:06:41.000Z</time><hdop>4.687</hdop><vdop>4.687</vdop><extensions><gom:speed>0.449</gom:speed></extensions></trkpt>
   <trkpt lat="59.0691198103" lon="29.9670084309"><ele>98.145</ele><time>2026-04-25T12:06:42.000Z</time><hdop>4.687</hdop><vdop>4.687</vdop><extensions><gom:speed>0.56</gom:speed></extensions></trkpt>
   <trkpt lat="59.0691088719" lon="29.9670008872"><ele>98.068</ele><time>2026-04-25T12:06:43.000Z</time><hdop>4.687</hdop><vdop>4.687</vdop><extensions><gom:speed>0.652</gom:speed></extensions></trkpt>
   <trkpt lat="59.0690978078" lon="29.9669950199"><ele>98.068</ele><time>2026-04-25T12:06:44.000Z</time><hdop>4.875</hdop><vdop>4.875</vdop><extensions><gom:speed>0.57</gom:speed></extensions></trkpt>
   <trkpt lat="59.0690873724" lon="29.966988482"><ele>98.109</ele><time>2026-04-25T12:06:45.000Z</time><hdop>4.812</hdop><vdop>4.812</vdop><extensions><gom:speed>0.457</gom:speed></extensions></trkpt>
   <trkpt lat="59.0690781523" lon="29.9669816088"><ele>98.112</ele><time>2026-04-25T12:06:46.000Z</time><hdop>4.875</hdop><vdop>4.875</vdop><extensions><gom:speed>0.128</gom:speed></extensions></trkpt>
   <trkpt lat="59.0690781523" lon="29.9669816088"><ele>98.114</ele><time>2026-04-25T12:06:47.000Z</time><hdop>4.875</hdop><vdop>4.875</vdop><extensions><gom:speed>0.0</gom:speed></extensions></trkpt>
   <trkpt lat="59.0690781523" lon="29.9669816088"><ele>98.115</ele><time>2026-04-25T12:06:48.000Z</time><hdop>4.875</hdop><vdop>4.875</vdop><extensions><gom:speed>0.0</gom:speed></extensions></trkpt>
   <trkpt lat="59.0690781523" lon="29.9669816088"><ele>98.115</ele><time>2026-04-25T12:06:49.000Z</time><hdop>4.875</hdop><vdop>4.875</vdop><extensions><gom:speed>0.0</gom:speed></extensions></trkpt>
   <trkpt lat="59.0690781523" lon="29.9669816088"><ele>98.116</ele><time>2026-04-25T12:06:50.000Z</time><hdop>4.875</hdop><vdop>4.875</vdop><extensions><gom:speed>0.0</gom:speed></extensions></trkpt>
   <trkpt lat="59.0690781523" lon="29.9669816088"><ele>98.116</ele><time>2026-04-25T12:06:51.000Z</time><hdop>4.875</hdop><vdop>4.875</vdop><extensions><gom:speed>0.0</gom:speed></extensions></trkpt>
   <trkpt lat="59.0690781523" lon="29.9669816088"><ele>98.116</ele><time>2026-04-25T12:06:52.000Z</time><hdop>4.875</hdop><vdop>4.875</vdop><extensions><gom:speed>0.0</gom:speed></extensions></trkpt>
   <trkpt lat="59.0690781523" lon="29.9669816088"><ele>98.116</ele><time>2026-04-25T12:06:53.000Z</time><hdop>4.875</hdop><vdop>4.875</vdop><extensions><gom:speed>0.0</gom:speed></extensions></trkpt>
   <trkpt lat="59.0690781523" lon="29.9669816088"><ele>98.116</ele><time>2026-04-25T12:06:53.000Z</time><hdop>4.875</hdop><vdop>4.875</vdop><extensions><gom:speed>0.0</gom:speed></extensions></trkpt>
   <trkpt lat="59.0690709857" lon="29.9669858836"><ele>98.159</ele><time>2026-04-25T12:06:54.000Z</time><hdop>4.687</hdop><vdop>4.687</vdop><extensions><gom:speed>0.375</gom:speed></extensions></trkpt>
   <trkpt lat="59.069062059" lon="29.9669887334"><ele>98.18</ele><time>2026-04-25T12:06:55.000Z</time><hdop>4.687</hdop><vdop>4.687</vdop><extensions><gom:speed>0.434</gom:speed></extensions></trkpt>
   <trkpt lat="59.069051875" lon="29.9669920862"><ele>98.192</ele><time>2026-04-25T12:06:56.000Z</time><hdop>4.875</hdop><vdop>4.875</vdop><extensions><gom:speed>0.525</gom:speed></extensions></trkpt>
   <trkpt lat="59.0690413557" lon="29.9669957742"><ele>98.203</ele><time>2026-04-25T12:06:57.000Z</time><hdop>4.625</hdop><vdop>4.625</vdop><extensions><gom:speed>0.715</gom:speed></extensions></trkpt>
   <trkpt lat="59.0690302078" lon="29.966999127"><ele>98.192</ele><time>2026-04-25T12:06:58.000Z</time><hdop>4.5</hdop><vdop>4.5</vdop><extensions><gom:speed>0.536</gom:speed></extensions></trkpt>
   <trkpt lat="59.069019437" lon="29.9669997976"><ele>98.155</ele><time>2026-04-25T12:06:59.000Z</time><hdop>4.062</hdop><vdop>4.062</vdop><extensions><gom:speed>0.45</gom:speed></extensions></trkpt>
   <trkpt lat="59.0690103427" lon="29.9669980374"><ele>98.118</ele><time>2026-04-25T12:07:00.000Z</time><hdop>3.937</hdop><vdop>3.937</vdop><extensions><gom:speed>0.52</gom:speed></extensions></trkpt>
   <trkpt lat="59.0690005358" lon="29.9669980374"><ele>98.091</ele><time>2026-04-25T12:07:01.000Z</time><hdop>4.125</hdop><vdop>4.125</vdop><extensions><gom:speed>0.325</gom:speed></extensions></trkpt>
   <trkpt lat="59.0689908547" lon="29.9669998814"><ele>97.998</ele><time>2026-04-25T12:07:02.000Z</time><hdop>4.25</hdop><vdop>4.25</vdop><extensions><gom:speed>0.214</gom:speed></extensions></trkpt>
   <trkpt lat="59.0689908547" lon="29.9669998814"><ele>97.942</ele><time>2026-04-25T12:07:03.000Z</time><hdop>4.25</hdop><vdop>4.25</vdop><extensions><gom:speed>0.0</gom:speed></extensions></trkpt>
   <trkpt lat="59.0689908547" lon="29.9669998814"><ele>97.909</ele><time>2026-04-25T12:07:04.000Z</time><hdop>4.25</hdop><vdop>4.25</vdop><extensions><gom:speed>0.0</gom:speed></extensions></trkpt>
   <trkpt lat="59.068982389" lon="29.9670004681"><ele>97.873</ele><time>2026-04-25T12:07:05.000Z</time><hdop>4.75</hdop><vdop>4.75</vdop><extensions><gom:speed>0.299</gom:speed></extensions></trkpt>
   <trkpt lat="59.068982389" lon="29.9670004681"><ele>97.851</ele><time>2026-04-25T12:07:06.000Z</time><hdop>4.75</hdop><vdop>4.75</vdop><extensions><gom:speed>0.0</gom:speed></extensions></trkpt>
   <trkpt lat="59.068982389" lon="29.9670004681"><ele>97.838</ele><time>2026-04-25T12:07:07.000Z</time><hdop>4.75</hdop><vdop>4.75</vdop><extensions><gom:speed>0.0</gom:speed></extensions></trkpt>
   <trkpt lat="59.0689745519" lon="29.9670023121"><ele>97.895</ele><time>2026-04-25T12:07:08.000Z</time><hdop>4.562</hdop><vdop>4.562</vdop><extensions><gom:speed>0.233</gom:speed></extensions></trkpt>
   <trkpt lat="59.0689644937" lon="29.9670021445"><ele>97.954</ele><time>2026-04-25T12:07:09.000Z</time><hdop>4.312</hdop><vdop>4.312</vdop><extensions><gom:speed>0.366</gom:speed></extensions></trkpt>
   <trkpt lat="59.0689541839" lon="29.9670015578"><ele>98.006</ele><time>2026-04-25T12:07:10.000Z</time><hdop>4.125</hdop><vdop>4.125</vdop><extensions><gom:speed>0.456</gom:speed></extensions></trkpt>
   <trkpt lat="59.068941192" lon="29.9669987917"><ele>98.075</ele><time>2026-04-25T12:07:11.000Z</time><hdop>4.5</hdop><vdop>4.5</vdop><extensions><gom:speed>0.592</gom:speed></extensions></trkpt>
   <trkpt lat="59.0689279905" lon="29.9669992108"><ele>98.093</ele><time>2026-04-25T12:07:12.000Z</time><hdop>4.375</hdop><vdop>4.375</vdop><extensions><gom:speed>0.419</gom:speed></extensions></trkpt>
   <trkpt lat="59.0689173035" lon="29.9669956904"><ele>98.152</ele><time>2026-04-25T12:07:13.000Z</time><hdop>3.937</hdop><vdop>3.937</vdop><extensions><gom:speed>0.337</gom:speed></extensions></trkpt>
   <trkpt lat="59.0689173035" lon="29.9669956904"><ele>98.187</ele><time>2026-04-25T12:07:13.000Z</time><hdop>3.937</hdop><vdop>3.937</vdop><extensions><gom:speed>0.337</gom:speed></extensions></trkpt>
   <trkpt lat="59.0689000787" lon="29.9669900746"><ele>98.148</ele><time>2026-04-25T12:07:14.000Z</time><hdop>4.125</hdop><vdop>4.125</vdop><extensions><gom:speed>0.186</gom:speed></extensions></trkpt>
   <trkpt lat="59.0688833149" lon="29.9669857998"><ele>98.051</ele><time>2026-04-25T12:07:15.000Z</time><hdop>4.062</hdop><vdop>4.062</vdop><extensions><gom:speed>0.408</gom:speed></extensions></trkpt>
   <trkpt lat="59.0688833149" lon="29.9669857998"><ele>97.993</ele><time>2026-04-25T12:07:16.000Z</time><hdop>4.062</hdop><vdop>4.062</vdop><extensions><gom:speed>0.0</gom:speed></extensions></trkpt>
   <trkpt lat="59.0688728795" lon="29.9669861351"><ele>97.89</ele><time>2026-04-25T12:07:17.000Z</time><hdop>3.875</hdop><vdop>3.875</vdop><extensions><gom:speed>0.48</gom:speed></extensions></trkpt>
   <trkpt lat="59.0688600132" lon="29.966985213"><ele>97.761</ele><time>2026-04-25T12:07:18.000Z</time><hdop>3.875</hdop><vdop>3.875</vdop><extensions><gom:speed>0.533</gom:speed></extensions></trkpt>
   <trkpt lat="59.068849955" lon="29.9669841234"><ele>97.716</ele><time>2026-04-25T12:07:19.000Z</time><hdop>3.625</hdop><vdop>3.625</vdop><extensions><gom:speed>0.455</gom:speed></extensions></trkpt>
   <trkpt lat="59.0688414054" lon="29.9669826147"><ele>97.671</ele><time>2026-04-25T12:07:20.000Z</time><hdop>3.375</hdop><vdop>3.375</vdop><extensions><gom:speed>0.368</gom:speed></extensions></trkpt>
   <trkpt lat="59.0688364182" lon="29.9669776693"><ele>97.658</ele><time>2026-04-25T12:07:21.000Z</time><hdop>3.0</hdop><vdop>3.0</vdop><extensions><gom:speed>0.39</gom:speed></extensions></trkpt>
   <trkpt lat="59.0688282877" lon="29.9669732269"><ele>97.665</ele><time>2026-04-25T12:07:22.000Z</time><hdop>3.0</hdop><vdop>3.0</vdop><extensions><gom:speed>0.403</gom:speed></extensions></trkpt>
   <trkpt lat="59.0688282877" lon="29.9669732269"><ele>97.67</ele><time>2026-04-25T12:07:23.000Z</time><hdop>3.0</hdop><vdop>3.0</vdop><extensions><gom:speed>0.0</gom:speed></extensions></trkpt>
   <trkpt lat="59.0688203249" lon="29.9669712991"><ele>97.72</ele><time>2026-04-25T12:07:24.000Z</time><hdop>3.062</hdop><vdop>3.062</vdop><extensions><gom:speed>0.353</gom:speed></extensions></trkpt>
   <trkpt lat="59.0688203249" lon="29.9669712991"><ele>97.751</ele><time>2026-04-25T12:07:25.000Z</time><hdop>3.062</hdop><vdop>3.062</vdop><extensions><gom:speed>0.0</gom:speed></extensions></trkpt>
   <trkpt lat="59.0688203249" lon="29.9669712991"><ele>97.769</ele><time>2026-04-25T12:07:26.000Z</time><hdop>3.062</hdop><vdop>3.062</vdop><extensions><gom:speed>0.0</gom:speed></extensions></trkpt>
   <trkpt lat="59.0688107696" lon="29.9669668567"><ele>97.767</ele><time>2026-04-25T12:07:27.000Z</time><hdop>3.5</hdop><vdop>3.5</vdop><extensions><gom:speed>0.596</gom:speed></extensions></trkpt>
   <trkpt lat="59.0687966041" lon="29.9669659347"><ele>97.746</ele><time>2026-04-25T12:07:28.000Z</time><hdop>3.437</hdop><vdop>3.437</vdop><extensions><gom:speed>0.676</gom:speed></extensions></trkpt>
   <trkpt lat="59.0687831512" lon="29.9669672758"><ele>97.755</ele><time>2026-04-25T12:07:29.000Z</time><hdop>3.187</hdop><vdop>3.187</vdop><extensions><gom:speed>0.621</gom:speed></extensions></trkpt>
   <trkpt lat="59.0687687343" lon="29.9669678625"><ele>97.761</ele><time>2026-04-25T12:07:30.000Z</time><hdop>3.062</hdop><vdop>3.062</vdop><extensions><gom:speed>0.572</gom:speed></extensions></trkpt>
   <trkpt lat="59.0687569158" lon="29.9669664376"><ele>97.814</ele><time>2026-04-25T12:07:31.000Z</time><hdop>3.0</hdop><vdop>3.0</vdop><extensions><gom:speed>0.525</gom:speed></extensions></trkpt>
   <trkpt lat="59.0687473605" lon="29.9669660185"><ele>97.834</ele><time>2026-04-25T12:07:32.000Z</time><hdop>3.0</hdop><vdop>3.0</vdop><extensions><gom:speed>0.366</gom:speed></extensions></trkpt>
   <trkpt lat="59.0687368831" lon="29.9669658509"><ele>97.843</ele><time>2026-04-25T12:07:33.000Z</time><hdop>3.0</hdop><vdop>3.0</vdop><extensions><gom:speed>0.394</gom:speed></extensions></trkpt>
   <trkpt lat="59.0687368831" lon="29.9669658509"><ele>97.849</ele><time>2026-04-25T12:07:33.000Z</time><hdop>3.0</hdop><vdop>3.0</vdop><extensions><gom:speed>0.394</gom:speed></extensions></trkpt>
   <trkpt lat="59.0687253999" lon="29.9669666052"><ele>97.907</ele><time>2026-04-25T12:07:34.000Z</time><hdop>3.0</hdop><vdop>3.0</vdop><extensions><gom:speed>0.43</gom:speed></extensions></trkpt>
   <trkpt lat="59.0687145034" lon="29.9669630848"><ele>97.864</ele><time>2026-04-25T12:07:35.000Z</time><hdop>3.0</hdop><vdop>3.0</vdop><extensions><gom:speed>0.394</gom:speed></extensions></trkpt>
   <trkpt lat="59.0687029783" lon="29.9669591453"><ele>97.851</ele><time>2026-04-25T12:07:36.000Z</time><hdop>3.0</hdop><vdop>3.0</vdop><extensions><gom:speed>0.554</gom:speed></extensions></trkpt>
   <trkpt lat="59.0687029783" lon="29.9669591453"><ele>97.843</ele><time>2026-04-25T12:07:37.000Z</time><hdop>3.0</hdop><vdop>3.0</vdop><extensions><gom:speed>0.0</gom:speed></extensions></trkpt>
   <trkpt lat="59.0686951412" lon="29.9669554573"><ele>97.732</ele><time>2026-04-25T12:07:38.000Z</time><hdop>3.0</hdop><vdop>3.0</vdop><extensions><gom:speed>0.23</gom:speed></extensions></trkpt>
   <trkpt lat="59.0686884776" lon="29.9669484165"><ele>97.557</ele><time>2026-04-25T12:07:39.000Z</time><hdop>3.0</hdop><vdop>3.0</vdop><extensions><gom:speed>0.349</gom:speed></extensions></trkpt>
   <trkpt lat="59.0686808501" lon="29.9669390288"><ele>97.464</ele><time>2026-04-25T12:07:40.000Z</time><hdop>3.125</hdop><vdop>3.125</vdop><extensions><gom:speed>0.366</gom:speed></extensions></trkpt>
   <trkpt lat="59.0686725939" lon="29.9669276294"><ele>97.374</ele><time>2026-04-25T12:07:41.000Z</time><hdop>3.0</hdop><vdop>3.0</vdop><extensions><gom:speed>0.457</gom:speed></extensions></trkpt>
   <trkpt lat="59.0686691573" lon="29.9669140507"><ele>97.312</ele><time>2026-04-25T12:07:42.000Z</time><hdop>3.0</hdop><vdop>3.0</vdop><extensions><gom:speed>0.538</gom:speed></extensions></trkpt>
   <trkpt lat="59.0686632481" lon="29.9669040762"><ele>97.225</ele><time>2026-04-25T12:07:43.000Z</time><hdop>3.0</hdop><vdop>3.0</vdop><extensions><gom:speed>0.823</gom:speed></extensions></trkpt>
   <trkpt lat="59.0686552853" lon="29.9668957781"><ele>97.17</ele><time>2026-04-25T12:07:44.000Z</time><hdop>3.0</hdop><vdop>3.0</vdop><extensions><gom:speed>0.766</gom:speed></extensions></trkpt>
   <trkpt lat="59.0686445564" lon="29.966887983"><ele>97.158</ele><time>2026-04-25T12:07:45.000Z</time><hdop>3.0</hdop><vdop>3.0</vdop><extensions><gom:speed>0.851</gom:speed></extensions></trkpt>
   <trkpt lat="59.0686309358" lon="29.9668801878"><ele>97.208</ele><time>2026-04-25T12:07:46.000Z</time><hdop>3.0</hdop><vdop>3.0</vdop><extensions><gom:speed>0.887</gom:speed></extensions></trkpt>
   <trkpt lat="59.068621129" lon="29.9668704648"><ele>97.196</ele><time>2026-04-25T12:07:47.000Z</time><hdop>3.0</hdop><vdop>3.0</vdop><extensions><gom:speed>0.642</gom:speed></extensions></trkpt>
   <trkpt lat="59.0686133338" lon="29.9668623343"><ele>97.165</ele><time>2026-04-25T12:07:48.000Z</time><hdop>3.0</hdop><vdop>3.0</vdop><extensions><gom:speed>0.507</gom:speed></extensions></trkpt>
   <trkpt lat="59.0686060835" lon="29.9668551259"><ele>97.169</ele><time>2026-04-25T12:07:49.000Z</time><hdop>3.0</hdop><vdop>3.0</vdop><extensions><gom:speed>0.53</gom:speed></extensions></trkpt>
   <trkpt lat="59.0685976597" lon="29.9668516055"><ele>97.182</ele><time>2026-04-25T12:07:50.000Z</time><hdop>3.0</hdop><vdop>3.0</vdop><extensions><gom:speed>0.516</gom:speed></extensions></trkpt>
   <trkpt lat="59.0685904512" lon="29.9668443133"><ele>97.23</ele><time>2026-04-25T12:07:51.000Z</time><hdop>3.0</hdop><vdop>3.0</vdop><extensions><gom:speed>0.475</gom:speed></extensions></trkpt>
   <trkpt lat="59.0685842067" lon="29.966835177"><ele>97.225</ele><time>2026-04-25T12:07:52.000Z</time><hdop>3.0</hdop><vdop>3.0</vdop><extensions><gom:speed>0.557</gom:speed></extensions></trkpt>
   <trkpt lat="59.0685788004" lon="29.9668266274"><ele>97.205</ele><time>2026-04-25T12:07:53.000Z</time><hdop>3.0</hdop><vdop>3.0</vdop><extensions><gom:speed>0.357</gom:speed></extensions></trkpt>
   <trkpt lat="59.0685788004" lon="29.9668266274"><ele>97.194</ele><time>2026-04-25T12:07:53.000Z</time><hdop>3.0</hdop><vdop>3.0</vdop><extensions><gom:speed>0.357</gom:speed></extensions></trkpt>
   <trkpt lat="59.0685726397" lon="29.9668205925"><ele>97.162</ele><time>2026-04-25T12:07:54.000Z</time><hdop>3.0</hdop><vdop>3.0</vdop><extensions><gom:speed>0.328</gom:speed></extensions></trkpt>
   <trkpt lat="59.0685666885" lon="29.9668164015"><ele>97.147</ele><time>2026-04-25T12:07:55.000Z</time><hdop>3.0</hdop><vdop>3.0</vdop><extensions><gom:speed>0.462</gom:speed></extensions></trkpt>
   <trkpt lat="59.0685666885" lon="29.9668164015"><ele>97.139</ele><time>2026-04-25T12:07:56.000Z</time><hdop>3.0</hdop><vdop>3.0</vdop><extensions><gom:speed>0.0</gom:speed></extensions></trkpt>
   <trkpt lat="59.068563713" lon="29.9668134679"><ele>97.098</ele><time>2026-04-25T12:07:57.000Z</time><hdop>3.0</hdop><vdop>3.0</vdop><extensions><gom:speed>0.324</gom:speed></extensions></trkpt>
   <trkpt lat="59.068563713" lon="29.9668134679"><ele>97.074</ele><time>2026-04-25T12:07:58.000Z</time><hdop>3.0</hdop><vdop>3.0</vdop><extensions><gom:speed>0.0</gom:speed></extensions></trkpt>
   <trkpt lat="59.068563713" lon="29.9668134679"><ele>97.059</ele><time>2026-04-25T12:07:59.000Z</time><hdop>3.0</hdop><vdop>3.0</vdop><extensions><gom:speed>0.0</gom:speed></extensions></trkpt>
   <trkpt lat="59.0685582228" lon="29.9668091093"><ele>97.071</ele><time>2026-04-25T12:08:00.000Z</time><hdop>3.0</hdop><vdop>3.0</vdop><extensions><gom:speed>0.281</gom:speed></extensions></trkpt>
   <trkpt lat="59.0685582228" lon="29.9668091093"><ele>97.078</ele><time>2026-04-25T12:08:01.000Z</time><hdop>3.0</hdop><vdop>3.0</vdop><extensions><gom:speed>0.0</gom:speed></extensions></trkpt>
   <trkpt lat="59.0685582228" lon="29.9668091093"><ele>97.082</ele><time>2026-04-25T12:08:02.000Z</time><hdop>3.0</hdop><vdop>3.0</vdop><extensions><gom:speed>0.0</gom:speed></extensions></trkpt>
   <trkpt lat="59.0685582228" lon="29.9668091093"><ele>97.084</ele><time>2026-04-25T12:08:03.000Z</time><hdop>3.0</hdop><vdop>3.0</vdop><extensions><gom:speed>0.0</gom:speed></extensions></trkpt>
   <trkpt lat="59.0685582228" lon="29.9668091093"><ele>97.086</ele><time>2026-04-25T12:08:04.000Z</time><hdop>3.0</hdop><vdop>3.0</vdop><extensions><gom:speed>0.0</gom:speed></extensions></trkpt>
   <trkpt lat="59.0685485417" lon="29.9668038287"><ele>97.023</ele><time>2026-04-25T12:08:05.000Z</time><hdop>3.0</hdop><vdop>3.0</vdop><extensions><gom:speed>0.455</gom:speed></extensions></trkpt>
   <trkpt lat="59.0685485417" lon="29.9668038287"><ele>96.985</ele><time>2026-04-25T12:08:06.000Z</time><hdop>3.0</hdop><vdop>3.0</vdop><extensions><gom:speed>0.0</gom:speed></extensions></trkpt>
   <trkpt lat="59.0685385673" lon="29.9668003921"><ele>96.934</ele><time>2026-04-25T12:08:07.000Z</time><hdop>3.0</hdop><vdop>3.0</vdop><extensions><gom:speed>0.463</gom:speed></extensions></trkpt>
   <trkpt lat="59.0685385673" lon="29.9668003921"><ele>96.903</ele><time>2026-04-25T12:08:08.000Z</time><hdop>3.0</hdop><vdop>3.0</vdop><extensions><gom:speed>0.0</gom:speed></extensions></trkpt>
   <trkpt lat="59.0685385673" lon="29.9668003921"><ele>96.885</ele><time>2026-04-25T12:08:09.000Z</time><hdop>3.0</hdop><vdop>3.0</vdop><extensions><gom:speed>0.0</gom:speed></extensions></trkpt>
   <trkpt lat="59.0685385673" lon="29.9668003921"><ele>96.874</ele><time>2026-04-25T12:08:10.000Z</time><hdop>3.0</hdop><vdop>3.0</vdop><extensions><gom:speed>0.0</gom:speed></extensions></trkpt>
   <trkpt lat="59.0685385673" lon="29.9668003921"><ele>96.868</ele><time>2026-04-25T12:08:11.000Z</time><hdop>3.0</hdop><vdop>3.0</vdop><extensions><gom:speed>0.0</gom:speed></extensions></trkpt>
   <trkpt lat="59.0685385673" lon="29.9668003921"><ele>96.864</ele><time>2026-04-25T12:08:12.000Z</time><hdop>3.0</hdop><vdop>3.0</vdop><extensions><gom:speed>0.0</gom:speed></extensions></trkpt>
   <trkpt lat="59.0685385673" lon="29.9668003921"><ele>96.861</ele><time>2026-04-25T12:08:12.000Z</time><hdop>3.0</hdop><vdop>3.0</vdop><extensions><gom:speed>0.0</gom:speed></extensions></trkpt>
   <trkpt lat="59.0685385673" lon="29.9668003921"><ele>96.86</ele><time>2026-04-25T12:08:13.000Z</time><hdop>3.0</hdop><vdop>3.0</vdop><extensions><gom:speed>0.0</gom:speed></extensions></trkpt>
   <trkpt lat="59.0685385673" lon="29.9668003921"><ele>96.859</ele><time>2026-04-25T12:08:13.000Z</time><hdop>3.0</hdop><vdop>3.0</vdop><extensions><gom:speed>0.0</gom:speed></extensions></trkpt>
   <trkpt lat="59.0685385673" lon="29.9668003921"><ele>96.859</ele><time>2026-04-25T12:08:14.000Z</time><hdop>3.0</hdop><vdop>3.0</vdop><extensions><gom:speed>0.0</gom:speed></extensions></trkpt>
   <trkpt lat="59.0685385673" lon="29.9668003921"><ele>96.858</ele><time>2026-04-25T12:08:15.000Z</time><hdop>3.0</hdop><vdop>3.0</vdop><extensions><gom:speed>0.0</gom:speed></extensions></trkpt>
   <trkpt lat="59.0685385673" lon="29.9668003921"><ele>96.858</ele><time>2026-04-25T12:08:16.000Z</time><hdop>3.0</hdop><vdop>3.0</vdop><extensions><gom:speed>0.0</gom:speed></extensions></trkpt>
   <trkpt lat="59.0685385673" lon="29.9668003921"><ele>96.858</ele><time>2026-04-25T12:08:17.000Z</time><hdop>3.0</hdop><vdop>3.0</vdop><extensions><gom:speed>0.0</gom:speed></extensions></trkpt>
   <trkpt lat="59.0685385673" lon="29.9668003921"><ele>96.858</ele><time>2026-04-25T12:08:18.000Z</time><hdop>3.0</hdop><vdop>3.0</vdop><extensions><gom:speed>0.0</gom:speed></extensions></trkpt>
   <trkpt lat="59.0685385673" lon="29.9668003921"><ele>96.858</ele><time>2026-04-25T12:08:19.000Z</time><hdop>3.0</hdop><vdop>3.0</vdop><extensions><gom:speed>0.0</gom:speed></extensions></trkpt>
   <trkpt lat="59.0685385673" lon="29.9668003921"><ele>96.858</ele><time>2026-04-25T12:08:20.000Z</time><hdop>3.0</hdop><vdop>3.0</vdop><extensions><gom:speed>0.0</gom:speed></extensions></trkpt>
   <trkpt lat="59.0685385673" lon="29.9668003921"><ele>96.858</ele><time>2026-04-25T12:08:21.000Z</time><hdop>3.0</hdop><vdop>3.0</vdop><extensions><gom:speed>0.0</gom:speed></extensions></trkpt>
   <trkpt lat="59.0685385673" lon="29.9668003921"><ele>96.858</ele><time>2026-04-25T12:08:22.000Z</time><hdop>3.0</hdop><vdop>3.0</vdop><extensions><gom:speed>0.0</gom:speed></extensions></trkpt>
   <trkpt lat="59.0685385673" lon="29.9668003921"><ele>96.858</ele><time>2026-04-25T12:08:23.000Z</time><hdop>3.0</hdop><vdop>3.0</vdop><extensions><gom:speed>0.0</gom:speed></extensions></trkpt>
   <trkpt lat="59.0685385673" lon="29.9668003921"><ele>96.858</ele><time>2026-04-25T12:08:24.000Z</time><hdop>3.0</hdop><vdop>3.0</vdop><extensions><gom:speed>0.0</gom:speed></extensions></trkpt>
   <trkpt lat="59.0685290538" lon="29.9667971231"><ele>96.896</ele><time>2026-04-25T12:08:25.000Z</time><hdop>3.0</hdop><vdop>3.0</vdop><extensions><gom:speed>0.551</gom:speed></extensions></trkpt>
   <trkpt lat="59.0685290538" lon="29.9667971231"><ele>96.919</ele><time>2026-04-25T12:08:26.000Z</time><hdop>3.0</hdop><vdop>3.0</vdop><extensions><gom:speed>0.0</gom:speed></extensions></trkpt>
   <trkpt lat="59.0685290538" lon="29.9667971231"><ele>96.933</ele><time>2026-04-25T12:08:27.000Z</time><hdop>3.0</hdop><vdop>3.0</vdop><extensions><gom:speed>0.0</gom:speed></extensions></trkpt>
   <trkpt lat="59.0685290538" lon="29.9667971231"><ele>96.941</ele><time>2026-04-25T12:08:28.000Z</time><hdop>3.0</hdop><vdop>3.0</vdop><extensions><gom:speed>0.0</gom:speed></extensions></trkpt>
   <trkpt lat="59.0685290538" lon="29.9667971231"><ele>96.946</ele><time>2026-04-25T12:08:29.000Z</time><hdop>3.0</hdop><vdop>3.0</vdop><extensions><gom:speed>0.0</gom:speed></extensions></trkpt>
   <trkpt lat="59.0685290538" lon="29.9667971231"><ele>96.949</ele><time>2026-04-25T12:08:30.000Z</time><hdop>3.0</hdop><vdop>3.0</vdop><extensions><gom:speed>0.0</gom:speed></extensions></trkpt>
   <trkpt lat="59.0685290538" lon="29.9667971231"><ele>96.951</ele><time>2026-04-25T12:08:31.000Z</time><hdop>3.0</hdop><vdop>3.0</vdop><extensions><gom:speed>0.0</gom:speed></extensions></trkpt>
   <trkpt lat="59.0685183669" lon="29.9667947762"><ele>97.0</ele><time>2026-04-25T12:08:32.000Z</time><hdop>3.125</hdop><vdop>3.125</vdop><extensions><gom:speed>0.338</gom:speed></extensions></trkpt>
   <trkpt lat="59.0685183669" lon="29.9667947762"><ele>97.029</ele><time>2026-04-25T12:08:33.000Z</time><hdop>3.125</hdop><vdop>3.125</vdop><extensions><gom:speed>0.0</gom:speed></extensions></trkpt>
   <trkpt lat="59.0685183669" lon="29.9667947762"><ele>97.047</ele><time>2026-04-25T12:08:33.000Z</time><hdop>3.125</hdop><vdop>3.125</vdop><extensions><gom:speed>0.0</gom:speed></extensions></trkpt>
   <trkpt lat="59.0685183669" lon="29.9667947762"><ele>97.058</ele><time>2026-04-25T12:08:34.000Z</time><hdop>3.125</hdop><vdop>3.125</vdop><extensions><gom:speed>0.0</gom:speed></extensions></trkpt>
   <trkpt lat="59.0685183669" lon="29.9667947762"><ele>97.064</ele><time>2026-04-25T12:08:35.000Z</time><hdop>3.125</hdop><vdop>3.125</vdop><extensions><gom:speed>0.0</gom:speed></extensions></trkpt>
   <trkpt lat="59.0685183669" lon="29.9667947762"><ele>97.068</ele><time>2026-04-25T12:08:36.000Z</time><hdop>3.125</hdop><vdop>3.125</vdop><extensions><gom:speed>0.0</gom:speed></extensions></trkpt>
   <trkpt lat="59.0685183669" lon="29.9667947762"><ele>97.07</ele><time>2026-04-25T12:08:37.000Z</time><hdop>3.125</hdop><vdop>3.125</vdop><extensions><gom:speed>0.0</gom:speed></extensions></trkpt>
   <trkpt lat="59.0685183669" lon="29.9667947762"><ele>97.071</ele><time>2026-04-25T12:08:38.000Z</time><hdop>3.125</hdop><vdop>3.125</vdop><extensions><gom:speed>0.0</gom:speed></extensions></trkpt>
   <trkpt lat="59.0685049139" lon="29.9667875678"><ele>97.113</ele><time>2026-04-25T12:08:39.000Z</time><hdop>3.437</hdop><vdop>3.437</vdop><extensions><gom:speed>0.552</gom:speed></extensions></trkpt>
   <trkpt lat="59.0685049139" lon="29.9667875678"><ele>97.138</ele><time>2026-04-25T12:08:40.000Z</time><hdop>3.437</hdop><vdop>3.437</vdop><extensions><gom:speed>0.0</gom:speed></extensions></trkpt>
   <trkpt lat="59.0684941851" lon="29.9667843826"><ele>97.154</ele><time>2026-04-25T12:08:41.000Z</time><hdop>4.0</hdop><vdop>4.0</vdop><extensions><gom:speed>0.501</gom:speed></extensions></trkpt>
   <trkpt lat="59.068479391" lon="29.9667773418"><ele>97.171</ele><time>2026-04-25T12:08:42.000Z</time><hdop>4.5</hdop><vdop>4.5</vdop><extensions><gom:speed>0.632</gom:speed></extensions></trkpt>
   <trkpt lat="59.0684648903" lon="29.9667737376"><ele>97.183</ele><time>2026-04-25T12:08:43.000Z</time><hdop>4.687</hdop><vdop>4.687</vdop><extensions><gom:speed>0.51</gom:speed></extensions></trkpt>
   <trkpt lat="59.0684555864" lon="29.9667682894"><ele>97.068</ele><time>2026-04-25T12:08:44.000Z</time><hdop>4.562</hdop><vdop>4.562</vdop><extensions><gom:speed>0.418</gom:speed></extensions></trkpt>
   <trkpt lat="59.0684466178" lon="29.9667637632"><ele>96.947</ele><time>2026-04-25T12:08:45.000Z</time><hdop>4.562</hdop><vdop>4.562</vdop><extensions><gom:speed>0.406</gom:speed></extensions></trkpt>
   <trkpt lat="59.0684358889" lon="29.9667563033"><ele>96.803</ele><time>2026-04-25T12:08:46.000Z</time><hdop>4.437</hdop><vdop>4.437</vdop><extensions><gom:speed>0.409</gom:speed></extensions></trkpt>
   <trkpt lat="59.0684278423" lon="29.9667537049"><ele>96.71</ele><time>2026-04-25T12:08:47.000Z</time><hdop>4.187</hdop><vdop>4.187</vdop><extensions><gom:speed>0.343</gom:speed></extensions></trkpt>
   <trkpt lat="59.0684278423" lon="29.9667537049"><ele>96.655</ele><time>2026-04-25T12:08:48.000Z</time><hdop>4.187</hdop><vdop>4.187</vdop><extensions><gom:speed>0.0</gom:speed></extensions></trkpt>
   <trkpt lat="59.0684164848" lon="29.9667512741"><ele>96.631</ele><time>2026-04-25T12:08:49.000Z</time><hdop>4.687</hdop><vdop>4.687</vdop><extensions><gom:speed>0.152</gom:speed></extensions></trkpt>
   <trkpt lat="59.0684045406" lon="29.9667449039"><ele>96.584</ele><time>2026-04-25T12:08:50.000Z</time><hdop>4.875</hdop><vdop>4.875</vdop><extensions><gom:speed>0.302</gom:speed></extensions></trkpt>
   <trkpt lat="59.0684045406" lon="29.9667449039"><ele>96.556</ele><time>2026-04-25T12:08:51.000Z</time><hdop>4.875</hdop><vdop>4.875</vdop><extensions><gom:speed>0.0</gom:speed></extensions></trkpt>
   <trkpt lat="59.0683929317" lon="29.9667404615"><ele>96.488</ele><time>2026-04-25T12:08:52.000Z</time><hdop>4.687</hdop><vdop>4.687</vdop><extensions><gom:speed>0.371</gom:speed></extensions></trkpt>
   <trkpt lat="59.0683929317" lon="29.9667404615"><ele>96.448</ele><time>2026-04-25T12:08:53.000Z</time><hdop>4.875</hdop><vdop>4.875</vdop><extensions><gom:speed>0.0</gom:speed></extensions></trkpt>
   <trkpt lat="59.0683929317" lon="29.9667404615"><ele>96.423</ele><time>2026-04-25T12:08:53.000Z</time><hdop>4.875</hdop><vdop>4.875</vdop><extensions><gom:speed>0.0</gom:speed></extensions></trkpt>
   <trkpt lat="59.0683929317" lon="29.9667404615"><ele>96.409</ele><time>2026-04-25T12:08:54.000Z</time><hdop>4.875</hdop><vdop>4.875</vdop><extensions><gom:speed>0.0</gom:speed></extensions></trkpt>
   <trkpt lat="59.0683821609" lon="29.9667340074"><ele>96.289</ele><time>2026-04-25T12:08:55.000Z</time><hdop>4.687</hdop><vdop>4.687</vdop><extensions><gom:speed>0.269</gom:speed></extensions></trkpt>
   <trkpt lat="59.0683821609" lon="29.9667340074"><ele>96.217</ele><time>2026-04-25T12:08:56.000Z</time><hdop>4.875</hdop><vdop>4.875</vdop><extensions><gom:speed>0.0</gom:speed></extensions></trkpt>
   <trkpt lat="59.0683821609" lon="29.9667340074"><ele>96.174</ele><time>2026-04-25T12:08:57.000Z</time><hdop>4.875</hdop><vdop>4.875</vdop><extensions><gom:speed>0.0</gom:speed></extensions></trkpt>
   <trkpt lat="59.068371935" lon="29.966730487"><ele>96.092</ele><time>2026-04-25T12:08:58.000Z</time><hdop>4.687</hdop><vdop>4.687</vdop><extensions><gom:speed>0.304</gom:speed></extensions></trkpt>
   <trkpt lat="59.068371935" lon="29.966730487"><ele>96.042</ele><time>2026-04-25T12:08:59.000Z</time><hdop>4.875</hdop><vdop>4.875</vdop><extensions><gom:speed>0.0</gom:speed></extensions></trkpt>
   <trkpt lat="59.0683601584" lon="29.9667292297"><ele>95.931</ele><time>2026-04-25T12:09:00.000Z</time><hdop>4.687</hdop><vdop>4.687</vdop><extensions><gom:speed>0.244</gom:speed></extensions></trkpt>
   <trkpt lat="59.0683601584" lon="29.9667292297"><ele>95.864</ele><time>2026-04-25T12:09:01.000Z</time><hdop>4.875</hdop><vdop>4.875</vdop><extensions><gom:speed>0.0</gom:speed></extensions></trkpt>
   <trkpt lat="59.0683601584" lon="29.9667292297"><ele>95.824</ele><time>2026-04-25T12:09:02.000Z</time><hdop>4.875</hdop><vdop>4.875</vdop><extensions><gom:speed>0.0</gom:speed></extensions></trkpt>
   <trkpt lat="59.0683601584" lon="29.9667292297"><ele>95.8</ele><time>2026-04-25T12:09:03.000Z</time><hdop>4.875</hdop><vdop>4.875</vdop><extensions><gom:speed>0.0</gom:speed></extensions></trkpt>
   <trkpt lat="59.0683601584" lon="29.9667292297"><ele>95.786</ele><time>2026-04-25T12:09:04.000Z</time><hdop>4.875</hdop><vdop>4.875</vdop><extensions><gom:speed>0.0</gom:speed></extensions></trkpt>
   <trkpt lat="59.0683601584" lon="29.9667292297"><ele>95.777</ele><time>2026-04-25T12:09:05.000Z</time><hdop>4.875</hdop><vdop>4.875</vdop><extensions><gom:speed>0.0</gom:speed></extensions></trkpt>
   <trkpt lat="59.0683468312" lon="29.9667222727"><ele>95.858</ele><time>2026-04-25T12:09:06.000Z</time><hdop>4.687</hdop><vdop>4.687</vdop><extensions><gom:speed>0.399</gom:speed></extensions></trkpt>
   <trkpt lat="59.0683468312" lon="29.9667222727"><ele>95.905</ele><time>2026-04-25T12:09:07.000Z</time><hdop>4.875</hdop><vdop>4.875</vdop><extensions><gom:speed>0.0</gom:speed></extensions></trkpt>
   <trkpt lat="59.0683468312" lon="29.9667222727"><ele>95.934</ele><time>2026-04-25T12:09:08.000Z</time><hdop>4.875</hdop><vdop>4.875</vdop><extensions><gom:speed>0.0</gom:speed></extensions></trkpt>
   <trkpt lat="59.0683468312" lon="29.9667222727"><ele>95.951</ele><time>2026-04-25T12:09:09.000Z</time><hdop>4.875</hdop><vdop>4.875</vdop><extensions><gom:speed>0.0</gom:speed></extensions></trkpt>
   <trkpt lat="59.0683468312" lon="29.9667222727"><ele>95.961</ele><time>2026-04-25T12:09:10.000Z</time><hdop>4.875</hdop><vdop>4.875</vdop><extensions><gom:speed>0.0</gom:speed></extensions></trkpt>
   <trkpt lat="59.0683468312" lon="29.9667222727"><ele>95.968</ele><time>2026-04-25T12:09:11.000Z</time><hdop>4.875</hdop><vdop>4.875</vdop><extensions><gom:speed>0.0</gom:speed></extensions></trkpt>
   <trkpt lat="59.0683468312" lon="29.9667222727"><ele>95.971</ele><time>2026-04-25T12:09:12.000Z</time><hdop>4.875</hdop><vdop>4.875</vdop><extensions><gom:speed>0.0</gom:speed></extensions></trkpt>
   <trkpt lat="59.0683468312" lon="29.9667222727"><ele>95.973</ele><time>2026-04-25T12:09:13.000Z</time><hdop>4.875</hdop><vdop>4.875</vdop><extensions><gom:speed>0.0</gom:speed></extensions></trkpt>
   <trkpt lat="59.0683468312" lon="29.9667222727"><ele>95.975</ele><time>2026-04-25T12:09:13.000Z</time><hdop>4.875</hdop><vdop>4.875</vdop><extensions><gom:speed>0.0</gom:speed></extensions></trkpt>
   <trkpt lat="59.0683468312" lon="29.9667222727"><ele>95.975</ele><time>2026-04-25T12:09:14.000Z</time><hdop>4.875</hdop><vdop>4.875</vdop><extensions><gom:speed>0.0</gom:speed></extensions></trkpt>
   <trkpt lat="59.0683468312" lon="29.9667222727"><ele>95.976</ele><time>2026-04-25T12:09:15.000Z</time><hdop>4.875</hdop><vdop>4.875</vdop><extensions><gom:speed>0.0</gom:speed></extensions></trkpt>
   <trkpt lat="59.0683468312" lon="29.9667222727"><ele>95.976</ele><time>2026-04-25T12:09:16.000Z</time><hdop>4.875</hdop><vdop>4.875</vdop><extensions><gom:speed>0.0</gom:speed></extensions></trkpt>
   <trkpt lat="59.0683468312" lon="29.9667222727"><ele>95.976</ele><time>2026-04-25T12:09:17.000Z</time><hdop>4.875</hdop><vdop>4.875</vdop><extensions><gom:speed>0.0</gom:speed></extensions></trkpt>
   <trkpt lat="59.0683468312" lon="29.9667222727"><ele>95.976</ele><time>2026-04-25T12:09:18.000Z</time><hdop>4.875</hdop><vdop>4.875</vdop><extensions><gom:speed>0.0</gom:speed></extensions></trkpt>
   <trkpt lat="59.0683468312" lon="29.9667222727"><ele>95.976</ele><time>2026-04-25T12:09:19.000Z</time><hdop>4.875</hdop><vdop>4.875</vdop><extensions><gom:speed>0.0</gom:speed></extensions></trkpt>
   <trkpt lat="59.0683468312" lon="29.9667222727"><ele>95.977</ele><time>2026-04-25T12:09:20.000Z</time><hdop>4.875</hdop><vdop>4.875</vdop><extensions><gom:speed>0.0</gom:speed></extensions></trkpt>
   <trkpt lat="59.0683468312" lon="29.9667222727"><ele>95.977</ele><time>2026-04-25T12:09:21.000Z</time><hdop>4.875</hdop><vdop>4.875</vdop><extensions><gom:speed>0.0</gom:speed></extensions></trkpt>
   <trkpt lat="59.0683468312" lon="29.9667222727"><ele>95.977</ele><time>2026-04-25T12:09:22.000Z</time><hdop>4.875</hdop><vdop>4.875</vdop><extensions><gom:speed>0.0</gom:speed></extensions></trkpt>
   <trkpt lat="59.0683468312" lon="29.9667222727"><ele>95.977</ele><time>2026-04-25T12:09:23.000Z</time><hdop>4.875</hdop><vdop>4.875</vdop><extensions><gom:speed>0.0</gom:speed></extensions></trkpt>
   <trkpt lat="59.0683468312" lon="29.9667222727"><ele>95.977</ele><time>2026-04-25T12:09:24.000Z</time><hdop>4.875</hdop><vdop>4.875</vdop><extensions><gom:speed>0.0</gom:speed></extensions></trkpt>
   <trkpt lat="59.0683315762" lon="29.9667193391"><ele>95.942</ele><time>2026-04-25T12:09:25.000Z</time><hdop>4.687</hdop><vdop>4.687</vdop><extensions><gom:speed>0.225</gom:speed></extensions></trkpt>
   <trkpt lat="59.0683315762" lon="29.9667193391"><ele>95.921</ele><time>2026-04-25T12:09:26.000Z</time><hdop>4.875</hdop><vdop>4.875</vdop><extensions><gom:speed>0.0</gom:speed></extensions></trkpt>
   <trkpt lat="59.0683315762" lon="29.9667193391"><ele>95.909</ele><time>2026-04-25T12:09:27.000Z</time><hdop>4.875</hdop><vdop>4.875</vdop><extensions><gom:speed>0.0</gom:speed></extensions></trkpt>
   <trkpt lat="59.0683315762" lon="29.9667193391"><ele>95.901</ele><time>2026-04-25T12:09:28.000Z</time><hdop>4.875</hdop><vdop>4.875</vdop><extensions><gom:speed>0.0</gom:speed></extensions></trkpt>
   <trkpt lat="59.0683315762" lon="29.9667193391"><ele>95.897</ele><time>2026-04-25T12:09:29.000Z</time><hdop>4.875</hdop><vdop>4.875</vdop><extensions><gom:speed>0.0</gom:speed></extensions></trkpt>
   <trkpt lat="59.0683315762" lon="29.9667193391"><ele>95.894</ele><time>2026-04-25T12:09:30.000Z</time><hdop>4.875</hdop><vdop>4.875</vdop><extensions><gom:speed>0.0</gom:speed></extensions></trkpt>
   <trkpt lat="59.0683315762" lon="29.9667193391"><ele>95.893</ele><time>2026-04-25T12:09:31.000Z</time><hdop>4.875</hdop><vdop>4.875</vdop><extensions><gom:speed>0.0</gom:speed></extensions></trkpt>
   <trkpt lat="59.0683315762" lon="29.9667193391"><ele>95.892</ele><time>2026-04-25T12:09:32.000Z</time><hdop>4.875</hdop><vdop>4.875</vdop><extensions><gom:speed>0.0</gom:speed></extensions></trkpt>
   <trkpt lat="59.0683315762" lon="29.9667193391"><ele>95.891</ele><time>2026-04-25T12:09:33.000Z</time><hdop>4.875</hdop><vdop>4.875</vdop><extensions><gom:speed>0.0</gom:speed></extensions></trkpt>
   <trkpt lat="59.0683315762" lon="29.9667193391"><ele>95.891</ele><time>2026-04-25T12:09:33.000Z</time><hdop>4.875</hdop><vdop>4.875</vdop><extensions><gom:speed>0.0</gom:speed></extensions></trkpt>
   <trkpt lat="59.0683315762" lon="29.9667193391"><ele>95.891</ele><time>2026-04-25T12:09:34.000Z</time><hdop>4.875</hdop><vdop>4.875</vdop><extensions><gom:speed>0.0</gom:speed></extensions></trkpt>
   <trkpt lat="59.0683315762" lon="29.9667193391"><ele>95.891</ele><time>2026-04-25T12:09:35.000Z</time><hdop>4.875</hdop><vdop>4.875</vdop><extensions><gom:speed>0.0</gom:speed></extensions></trkpt>
   <trkpt lat="59.0683315762" lon="29.9667193391"><ele>95.89</ele><time>2026-04-25T12:09:36.000Z</time><hdop>4.875</hdop><vdop>4.875</vdop><extensions><gom:speed>0.0</gom:speed></extensions></trkpt>
   <trkpt lat="59.0683315762" lon="29.9667193391"><ele>95.89</ele><time>2026-04-25T12:09:37.000Z</time><hdop>4.875</hdop><vdop>4.875</vdop><extensions><gom:speed>0.0</gom:speed></extensions></trkpt>
   <trkpt lat="59.0683315762" lon="29.9667193391"><ele>95.89</ele><time>2026-04-25T12:09:38.000Z</time><hdop>4.875</hdop><vdop>4.875</vdop><extensions><gom:speed>0.0</gom:speed></extensions></trkpt>
   <trkpt lat="59.0683315762" lon="29.9667193391"><ele>95.89</ele><time>2026-04-25T12:09:39.000Z</time><hdop>4.875</hdop><vdop>4.875</vdop><extensions><gom:speed>0.0</gom:speed></extensions></trkpt>
   <trkpt lat="59.0683315762" lon="29.9667193391"><ele>95.89</ele><time>2026-04-25T12:09:40.000Z</time><hdop>4.875</hdop><vdop>4.875</vdop><extensions><gom:speed>0.0</gom:speed></extensions></trkpt>
   <trkpt lat="59.0683315762" lon="29.9667193391"><ele>95.89</ele><time>2026-04-25T12:09:41.000Z</time><hdop>4.875</hdop><vdop>4.875</vdop><extensions><gom:speed>0.0</gom:speed></extensions></trkpt>
   <trkpt lat="59.0683315762" lon="29.9667193391"><ele>95.89</ele><time>2026-04-25T12:09:42.000Z</time><hdop>4.875</hdop><vdop>4.875</vdop><extensions><gom:speed>0.0</gom:speed></extensions></trkpt>
   <trkpt lat="59.0683315762" lon="29.9667193391"><ele>95.89</ele><time>2026-04-25T12:09:43.000Z</time><hdop>4.875</hdop><vdop>4.875</vdop><extensions><gom:speed>0.0</gom:speed></extensions></trkpt>
   <trkpt lat="59.0683315762" lon="29.9667193391"><ele>95.89</ele><time>2026-04-25T12:09:44.000Z</time><hdop>4.875</hdop><vdop>4.875</vdop><extensions><gom:speed>0.0</gom:speed></extensions></trkpt>
   <trkpt lat="59.0683248287" lon="29.9667184171"><ele>95.819</ele><time>2026-04-25T12:09:45.000Z</time><hdop>4.687</hdop><vdop>4.687</vdop><extensions><gom:speed>0.269</gom:speed></extensions></trkpt>
   <trkpt lat="59.0683248287" lon="29.9667184171"><ele>95.776</ele><time>2026-04-25T12:09:46.000Z</time><hdop>4.875</hdop><vdop>4.875</vdop><extensions><gom:speed>0.0</gom:speed></extensions></trkpt>
   <trkpt lat="59.0683248287" lon="29.9667184171"><ele>95.751</ele><time>2026-04-25T12:09:47.000Z</time><hdop>4.875</hdop><vdop>4.875</vdop><extensions><gom:speed>0.0</gom:speed></extensions></trkpt>
   <trkpt lat="59.0683248287" lon="29.9667184171"><ele>95.735</ele><time>2026-04-25T12:09:48.000Z</time><hdop>4.875</hdop><vdop>4.875</vdop><extensions><gom:speed>0.0</gom:speed></extensions></trkpt>
   <trkpt lat="59.0683248287" lon="29.9667184171"><ele>95.726</ele><time>2026-04-25T12:09:49.000Z</time><hdop>4.875</hdop><vdop>4.875</vdop><extensions><gom:speed>0.0</gom:speed></extensions></trkpt>
   <trkpt lat="59.0683248287" lon="29.9667184171"><ele>95.721</ele><time>2026-04-25T12:09:50.000Z</time><hdop>4.875</hdop><vdop>4.875</vdop><extensions><gom:speed>0.0</gom:speed></extensions></trkpt>
   <trkpt lat="59.0683107471" lon="29.9667104543"><ele>95.719</ele><time>2026-04-25T12:09:51.000Z</time><hdop>4.687</hdop><vdop>4.687</vdop><extensions><gom:speed>0.551</gom:speed></extensions></trkpt>
   <trkpt lat="59.0682910077" lon="29.9667084426"><ele>95.663</ele><time>2026-04-25T12:09:52.000Z</time><hdop>5.187</hdop><vdop>5.187</vdop><extensions><gom:speed>0.53</gom:speed></extensions></trkpt>
   <trkpt lat="59.0682910077" lon="29.9667084426"><ele>95.629</ele><time>2026-04-25T12:09:53.000Z</time><hdop>4.875</hdop><vdop>4.875</vdop><extensions><gom:speed>0.0</gom:speed></extensions></trkpt>
   <trkpt lat="59.0682910077" lon="29.9667084426"><ele>95.609</ele><time>2026-04-25T12:09:53.000Z</time><hdop>4.875</hdop><vdop>4.875</vdop><extensions><gom:speed>0.0</gom:speed></extensions></trkpt>
   <trkpt lat="59.0682910077" lon="29.9667084426"><ele>95.597</ele><time>2026-04-25T12:09:54.000Z</time><hdop>4.875</hdop><vdop>4.875</vdop><extensions><gom:speed>0.0</gom:speed></extensions></trkpt>
   <trkpt lat="59.0682910077" lon="29.9667084426"><ele>95.59</ele><time>2026-04-25T12:09:55.000Z</time><hdop>4.875</hdop><vdop>4.875</vdop><extensions><gom:speed>0.0</gom:speed></extensions></trkpt>
   <trkpt lat="59.0682910077" lon="29.9667084426"><ele>95.585</ele><time>2026-04-25T12:09:56.000Z</time><hdop>4.875</hdop><vdop>4.875</vdop><extensions><gom:speed>0.0</gom:speed></extensions></trkpt>
   <trkpt lat="59.0682910077" lon="29.9667084426"><ele>95.583</ele><time>2026-04-25T12:09:57.000Z</time><hdop>4.875</hdop><vdop>4.875</vdop><extensions><gom:speed>0.0</gom:speed></extensions></trkpt>
   <trkpt lat="59.0682910077" lon="29.9667084426"><ele>95.581</ele><time>2026-04-25T12:09:58.000Z</time><hdop>4.875</hdop><vdop>4.875</vdop><extensions><gom:speed>0.0</gom:speed></extensions></trkpt>
   <trkpt lat="59.0682747888" lon="29.9667045869"><ele>95.583</ele><time>2026-04-25T12:09:59.000Z</time><hdop>6.062</hdop><vdop>6.062</vdop><extensions><gom:speed>0.357</gom:speed></extensions></trkpt>
   <trkpt lat="59.0682604138" lon="29.9667069339"><ele>95.525</ele><time>2026-04-25T12:10:00.000Z</time><hdop>6.125</hdop><vdop>6.125</vdop><extensions><gom:speed>0.363</gom:speed></extensions></trkpt>
   <trkpt lat="59.0682502717" lon="29.9667046707"><ele>95.371</ele><time>2026-04-25T12:10:01.000Z</time><hdop>5.75</hdop><vdop>5.75</vdop><extensions><gom:speed>0.39</gom:speed></extensions></trkpt>
   <trkpt lat="59.0682402972" lon="29.9666998931"><ele>95.255</ele><time>2026-04-25T12:10:02.000Z</time><hdop>4.875</hdop><vdop>4.875</vdop><extensions><gom:speed>0.448</gom:speed></extensions></trkpt>
   <trkpt lat="59.0682269281" lon="29.9666957021"><ele>95.104</ele><time>2026-04-25T12:10:03.000Z</time><hdop>4.875</hdop><vdop>4.875</vdop><extensions><gom:speed>0.223</gom:speed></extensions></trkpt>
   <trkpt lat="59.0682136428" lon="29.9666999769"><ele>94.955</ele><time>2026-04-25T12:10:04.000Z</time><hdop>6.062</hdop><vdop>6.062</vdop><extensions><gom:speed>0.5</gom:speed></extensions></trkpt>
   <trkpt lat="59.06819734" lon="29.9666956183"><ele>94.834</ele><time>2026-04-25T12:10:05.000Z</time><hdop>6.5</hdop><vdop>6.5</vdop><extensions><gom:speed>0.567</gom:speed></extensions></trkpt>
   <trkpt lat="59.0681848928" lon="29.9666989711"><ele>94.723</ele><time>2026-04-25T12:10:06.000Z</time><hdop>4.875</hdop><vdop>4.875</vdop><extensions><gom:speed>0.319</gom:speed></extensions></trkpt>
   <trkpt lat="59.0681848928" lon="29.9666989711"><ele>94.656</ele><time>2026-04-25T12:10:07.000Z</time><hdop>4.875</hdop><vdop>4.875</vdop><extensions><gom:speed>0.0</gom:speed></extensions></trkpt>
   <trkpt lat="59.0681848928" lon="29.9666989711"><ele>94.617</ele><time>2026-04-25T12:10:08.000Z</time><hdop>4.875</hdop><vdop>4.875</vdop><extensions><gom:speed>0.0</gom:speed></extensions></trkpt>
   <trkpt lat="59.0681848928" lon="29.9666989711"><ele>94.593</ele><time>2026-04-25T12:10:09.000Z</time><hdop>4.875</hdop><vdop>4.875</vdop><extensions><gom:speed>0.0</gom:speed></extensions></trkpt>
   <trkpt lat="59.068168129" lon="29.9667003122"><ele>94.49</ele><time>2026-04-25T12:10:10.000Z</time><hdop>5.562</hdop><vdop>5.562</vdop><extensions><gom:speed>0.36</gom:speed></extensions></trkpt>
   <trkpt lat="59.068168129" lon="29.9667003122"><ele>94.429</ele><time>2026-04-25T12:10:11.000Z</time><hdop>4.875</hdop><vdop>4.875</vdop><extensions><gom:speed>0.0</gom:speed></extensions></trkpt>
   <trkpt lat="59.0681532512" lon="29.9666923494"><ele>94.359</ele><time>2026-04-25T12:10:12.000Z</time><hdop>5.75</hdop><vdop>5.75</vdop><extensions><gom:speed>0.74</gom:speed></extensions></trkpt>
   <trkpt lat="59.0681532512" lon="29.9666923494"><ele>94.317</ele><time>2026-04-25T12:10:13.000Z</time><hdop>4.875</hdop><vdop>4.875</vdop><extensions><gom:speed>0.0</gom:speed></extensions></trkpt>
   <trkpt lat="59.0681532512" lon="29.9666923494"><ele>94.292</ele><time>2026-04-25T12:10:13.000Z</time><hdop>4.875</hdop><vdop>4.875</vdop><extensions><gom:speed>0.0</gom:speed></extensions></trkpt>
   <trkpt lat="59.0681532512" lon="29.9666923494"><ele>94.278</ele><time>2026-04-25T12:10:14.000Z</time><hdop>4.875</hdop><vdop>4.875</vdop><extensions><gom:speed>0.0</gom:speed></extensions></trkpt>
   <trkpt lat="59.0681532512" lon="29.9666923494"><ele>94.269</ele><time>2026-04-25T12:10:15.000Z</time><hdop>4.875</hdop><vdop>4.875</vdop><extensions><gom:speed>0.0</gom:speed></extensions></trkpt>
   <trkpt lat="59.0681532512" lon="29.9666923494"><ele>94.263</ele><time>2026-04-25T12:10:16.000Z</time><hdop>4.875</hdop><vdop>4.875</vdop><extensions><gom:speed>0.0</gom:speed></extensions></trkpt>
   <trkpt lat="59.0681532512" lon="29.9666923494"><ele>94.26</ele><time>2026-04-25T12:10:17.000Z</time><hdop>4.875</hdop><vdop>4.875</vdop><extensions><gom:speed>0.0</gom:speed></extensions></trkpt>
   <trkpt lat="59.0681532512" lon="29.9666923494"><ele>94.258</ele><time>2026-04-25T12:10:18.000Z</time><hdop>4.875</hdop><vdop>4.875</vdop><extensions><gom:speed>0.0</gom:speed></extensions></trkpt>
   <trkpt lat="59.0681487668" lon="29.9666940257"><ele>94.293</ele><time>2026-04-25T12:10:19.000Z</time><hdop>6.062</hdop><vdop>6.062</vdop><extensions><gom:speed>0.259</gom:speed></extensions></trkpt>
   <trkpt lat="59.068143151" lon="29.9666972109"><ele>94.32</ele><time>2026-04-25T12:10:20.000Z</time><hdop>6.375</hdop><vdop>6.375</vdop><extensions><gom:speed>0.309</gom:speed></extensions></trkpt>
   <trkpt lat="59.0681275187" lon="29.9666999769"><ele>94.373</ele><time>2026-04-25T12:10:21.000Z</time><hdop>6.062</hdop><vdop>6.062</vdop><extensions><gom:speed>0.315</gom:speed></extensions></trkpt>
   <trkpt lat="59.0681073602" lon="29.9667045869"><ele>94.368</ele><time>2026-04-25T12:10:22.000Z</time><hdop>5.937</hdop><vdop>5.937</vdop><extensions><gom:speed>0.488</gom:speed></extensions></trkpt>
   <trkpt lat="59.0680902612" lon="29.9667076044"><ele>94.35</ele><time>2026-04-25T12:10:23.000Z</time><hdop>6.125</hdop><vdop>6.125</vdop><extensions><gom:speed>0.604</gom:speed></extensions></trkpt>
   <trkpt lat="59.0680712342" lon="29.9667057604"><ele>94.329</ele><time>2026-04-25T12:10:24.000Z</time><hdop>6.625</hdop><vdop>6.625</vdop><extensions><gom:speed>0.58</gom:speed></extensions></trkpt>
   <trkpt lat="59.0680538418" lon="29.9666997254"><ele>94.277</ele><time>2026-04-25T12:10:25.000Z</time><hdop>6.875</hdop><vdop>6.875</vdop><extensions><gom:speed>0.601</gom:speed></extensions></trkpt>
   <trkpt lat="59.0680374971" lon="29.9666916788"><ele>94.22</ele><time>2026-04-25T12:10:26.000Z</time><hdop>6.687</hdop><vdop>6.687</vdop><extensions><gom:speed>0.618</gom:speed></extensions></trkpt>
   <trkpt lat="59.0680207333" lon="29.9666839674"><ele>94.167</ele><time>2026-04-25T12:10:27.000Z</time><hdop>6.062</hdop><vdop>6.062</vdop><extensions><gom:speed>0.487</gom:speed></extensions></trkpt>
   <trkpt lat="59.0680063164" lon="29.9666765914"><ele>94.117</ele><time>2026-04-25T12:10:28.000Z</time><hdop>5.625</hdop><vdop>5.625</vdop><extensions><gom:speed>0.605</gom:speed></extensions></trkpt>
   <trkpt lat="59.067989343" lon="29.9666754179"><ele>94.261</ele><time>2026-04-25T12:10:29.000Z</time><hdop>5.437</hdop><vdop>5.437</vdop><extensions><gom:speed>0.619</gom:speed></extensions></trkpt>
   <trkpt lat="59.0679755129" lon="29.9666738253"><ele>94.393</ele><time>2026-04-25T12:10:30.000Z</time><hdop>4.875</hdop><vdop>4.875</vdop><extensions><gom:speed>0.408</gom:speed></extensions></trkpt>
   <trkpt lat="59.0679598807" lon="29.9666746635"><ele>94.498</ele><time>2026-04-25T12:10:31.000Z</time><hdop>4.875</hdop><vdop>4.875</vdop><extensions><gom:speed>0.316</gom:speed></extensions></trkpt>
   <trkpt lat="59.0679479364" lon="29.9666696344"><ele>94.544</ele><time>2026-04-25T12:10:32.000Z</time><hdop>4.687</hdop><vdop>4.687</vdop><extensions><gom:speed>0.386</gom:speed></extensions></trkpt>
   <trkpt lat="59.0679354893" lon="29.9666621745"><ele>94.549</ele><time>2026-04-25T12:10:33.000Z</time><hdop>4.875</hdop><vdop>4.875</vdop><extensions><gom:speed>0.452</gom:speed></extensions></trkpt>
   <trkpt lat="59.0679354893" lon="29.9666621745"><ele>94.552</ele><time>2026-04-25T12:10:33.000Z</time><hdop>4.875</hdop><vdop>4.875</vdop><extensions><gom:speed>0.452</gom:speed></extensions></trkpt>
   <trkpt lat="59.0679192703" lon="29.9666528706"><ele>94.477</ele><time>2026-04-25T12:10:34.000Z</time><hdop>4.687</hdop><vdop>4.687</vdop><extensions><gom:speed>0.569</gom:speed></extensions></trkpt>
   <trkpt lat="59.0679040572" lon="29.966644824"><ele>94.325</ele><time>2026-04-25T12:10:35.000Z</time><hdop>4.687</hdop><vdop>4.687</vdop><extensions><gom:speed>0.581</gom:speed></extensions></trkpt>
   <trkpt lat="59.0678912329" lon="29.9666372802"><ele>94.209</ele><time>2026-04-25T12:10:36.000Z</time><hdop>4.875</hdop><vdop>4.875</vdop><extensions><gom:speed>0.408</gom:speed></extensions></trkpt>
   <trkpt lat="59.0678740081" lon="29.9666299042"><ele>94.146</ele><time>2026-04-25T12:10:37.000Z</time><hdop>4.687</hdop><vdop>4.687</vdop><extensions><gom:speed>0.598</gom:speed></extensions></trkpt>
   <trkpt lat="59.0678599265" lon="29.9666216061"><ele>94.137</ele><time>2026-04-25T12:10:38.000Z</time><hdop>4.687</hdop><vdop>4.687</vdop><extensions><gom:speed>0.53</gom:speed></extensions></trkpt>
   <trkpt lat="59.0678496586" lon="29.9666153197"><ele>94.181</ele><time>2026-04-25T12:10:39.000Z</time><hdop>4.687</hdop><vdop>4.687</vdop><extensions><gom:speed>0.42</gom:speed></extensions></trkpt>
   <trkpt lat="59.0678421987" lon="29.9666092847"><ele>94.221</ele><time>2026-04-25T12:10:40.000Z</time><hdop>4.875</hdop><vdop>4.875</vdop><extensions><gom:speed>0.427</gom:speed></extensions></trkpt>
   <trkpt lat="59.0678307155" lon="29.9665995617"><ele>94.2</ele><time>2026-04-25T12:10:41.000Z</time><hdop>4.875</hdop><vdop>4.875</vdop><extensions><gom:speed>0.421</gom:speed></extensions></trkpt>
   <trkpt lat="59.067817053" lon="29.9665867374"><ele>94.121</ele><time>2026-04-25T12:10:42.000Z</time><hdop>4.687</hdop><vdop>4.687</vdop><extensions><gom:speed>0.569</gom:speed></extensions></trkpt>
   <trkpt lat="59.0678013789" lon="29.9665739969"><ele>94.019</ele><time>2026-04-25T12:10:43.000Z</time><hdop>4.687</hdop><vdop>4.687</vdop><extensions><gom:speed>0.659</gom:speed></extensions></trkpt>
   <trkpt lat="59.0677820167" lon="29.9665659503"><ele>94.088</ele><time>2026-04-25T12:10:44.000Z</time><hdop>4.687</hdop><vdop>4.687</vdop><extensions><gom:speed>0.571</gom:speed></extensions></trkpt>
   <trkpt lat="59.0677668035" lon="29.9665597476"><ele>94.268</ele><time>2026-04-25T12:10:45.000Z</time><hdop>4.875</hdop><vdop>4.875</vdop><extensions><gom:speed>0.474</gom:speed></extensions></trkpt>
   <trkpt lat="59.0677433342" lon="29.9665436544"><ele>94.255</ele><time>2026-04-25T12:10:46.000Z</time><hdop>4.687</hdop><vdop>4.687</vdop><extensions><gom:speed>0.897</gom:speed></extensions></trkpt>
   <trkpt lat="59.0677269057" lon="29.9665353563"><ele>94.289</ele><time>2026-04-25T12:10:47.000Z</time><hdop>4.875</hdop><vdop>4.875</vdop><extensions><gom:speed>0.514</gom:speed></extensions></trkpt>
   <trkpt lat="59.0677118601" lon="29.966530411"><ele>94.251</ele><time>2026-04-25T12:10:48.000Z</time><hdop>4.687</hdop><vdop>4.687</vdop><extensions><gom:speed>0.624</gom:speed></extensions></trkpt>
   <trkpt lat="59.0676974433" lon="29.9665236216"><ele>94.179</ele><time>2026-04-25T12:10:49.000Z</time><hdop>4.875</hdop><vdop>4.875</vdop><extensions><gom:speed>0.577</gom:speed></extensions></trkpt>
   <trkpt lat="59.0676812243" lon="29.9665123061"><ele>94.091</ele><time>2026-04-25T12:10:50.000Z</time><hdop>4.937</hdop><vdop>4.937</vdop><extensions><gom:speed>0.654</gom:speed></extensions></trkpt>
   <trkpt lat="59.067671166" lon="29.9665001523"><ele>94.058</ele><time>2026-04-25T12:10:51.000Z</time><hdop>4.437</hdop><vdop>4.437</vdop><extensions><gom:speed>0.566</gom:speed></extensions></trkpt>
   <trkpt lat="59.0676639995" lon="29.9664888367"><ele>93.979</ele><time>2026-04-25T12:10:52.000Z</time><hdop>4.062</hdop><vdop>4.062</vdop><extensions><gom:speed>0.544</gom:speed></extensions></trkpt>
   <trkpt lat="59.0676576292" lon="29.9664821312"><ele>94.02</ele><time>2026-04-25T12:10:53.000Z</time><hdop>3.75</hdop><vdop>3.75</vdop><extensions><gom:speed>0.333</gom:speed></extensions></trkpt>
   <trkpt lat="59.0676576292" lon="29.9664821312"><ele>94.044</ele><time>2026-04-25T12:10:53.000Z</time><hdop>3.75</hdop><vdop>3.75</vdop><extensions><gom:speed>0.333</gom:speed></extensions></trkpt>
   <trkpt lat="59.0676502112" lon="29.9664723244"><ele>94.175</ele><time>2026-04-25T12:10:54.000Z</time><hdop>3.375</hdop><vdop>3.375</vdop><extensions><gom:speed>0.555</gom:speed></extensions></trkpt>
   <trkpt lat="59.0676437991" lon="29.9664608412"><ele>94.4</ele><time>2026-04-25T12:10:55.000Z</time><hdop>3.0</hdop><vdop>3.0</vdop><extensions><gom:speed>0.467</gom:speed></extensions></trkpt>
   <trkpt lat="59.0676391052" lon="29.9664515373"><ele>94.592</ele><time>2026-04-25T12:10:56.000Z</time><hdop>3.0</hdop><vdop>3.0</vdop><extensions><gom:speed>0.446</gom:speed></extensions></trkpt>
   <trkpt lat="59.0676298432" lon="29.9664403055"><ele>94.781</ele><time>2026-04-25T12:10:57.000Z</time><hdop>3.0</hdop><vdop>3.0</vdop><extensions><gom:speed>0.476</gom:speed></extensions></trkpt>
   <trkpt lat="59.0676243112" lon="29.9664301634"><ele>94.961</ele><time>2026-04-25T12:10:58.000Z</time><hdop>3.0</hdop><vdop>3.0</vdop><extensions><gom:speed>0.581</gom:speed></extensions></trkpt>
   <trkpt lat="59.0676184438" lon="29.9664227873"><ele>95.121</ele><time>2026-04-25T12:10:59.000Z</time><hdop>3.0</hdop><vdop>3.0</vdop><extensions><gom:speed>0.209</gom:speed></extensions></trkpt>
   <trkpt lat="59.0676184438" lon="29.9664227873"><ele>95.216</ele><time>2026-04-25T12:11:00.000Z</time><hdop>3.0</hdop><vdop>3.0</vdop><extensions><gom:speed>0.0</gom:speed></extensions></trkpt>
   <trkpt lat="59.0676184438" lon="29.9664227873"><ele>95.273</ele><time>2026-04-25T12:11:01.000Z</time><hdop>3.0</hdop><vdop>3.0</vdop><extensions><gom:speed>0.0</gom:speed></extensions></trkpt>
   <trkpt lat="59.0676184438" lon="29.9664227873"><ele>95.308</ele><time>2026-04-25T12:11:02.000Z</time><hdop>3.0</hdop><vdop>3.0</vdop><extensions><gom:speed>0.0</gom:speed></extensions></trkpt>
   <trkpt lat="59.0676184438" lon="29.9664227873"><ele>95.328</ele><time>2026-04-25T12:11:03.000Z</time><hdop>3.0</hdop><vdop>3.0</vdop><extensions><gom:speed>0.0</gom:speed></extensions></trkpt>
   <trkpt lat="59.067610481" lon="29.9664147407"><ele>95.459</ele><time>2026-04-25T12:11:04.000Z</time><hdop>3.0</hdop><vdop>3.0</vdop><extensions><gom:speed>0.309</gom:speed></extensions></trkpt>
   <trkpt lat="59.067610481" lon="29.9664147407"><ele>95.537</ele><time>2026-04-25T12:11:05.000Z</time><hdop>3.0</hdop><vdop>3.0</vdop><extensions><gom:speed>0.0</gom:speed></extensions></trkpt>
   <trkpt lat="59.067610481" lon="29.9664147407"><ele>95.583</ele><time>2026-04-25T12:11:06.000Z</time><hdop>3.0</hdop><vdop>3.0</vdop><extensions><gom:speed>0.0</gom:speed></extensions></trkpt>
   <trkpt lat="59.067610481" lon="29.9664147407"><ele>95.611</ele><time>2026-04-25T12:11:07.000Z</time><hdop>3.0</hdop><vdop>3.0</vdop><extensions><gom:speed>0.0</gom:speed></extensions></trkpt>
   <trkpt lat="59.067610481" lon="29.9664147407"><ele>95.628</ele><time>2026-04-25T12:11:08.000Z</time><hdop>3.0</hdop><vdop>3.0</vdop><extensions><gom:speed>0.0</gom:speed></extensions></trkpt>
   <trkpt lat="59.067610481" lon="29.9664147407"><ele>95.638</ele><time>2026-04-25T12:11:09.000Z</time><hdop>3.0</hdop><vdop>3.0</vdop><extensions><gom:speed>0.0</gom:speed></extensions></trkpt>
   <trkpt lat="59.0676007999" lon="29.9664126452"><ele>95.653</ele><time>2026-04-25T12:11:10.000Z</time><hdop>3.0</hdop><vdop>3.0</vdop><extensions><gom:speed>0.332</gom:speed></extensions></trkpt>
   <trkpt lat="59.0676007999" lon="29.9664126452"><ele>95.662</ele><time>2026-04-25T12:11:11.000Z</time><hdop>3.0</hdop><vdop>3.0</vdop><extensions><gom:speed>0.0</gom:speed></extensions></trkpt>
   <trkpt lat="59.0676007999" lon="29.9664126452"><ele>95.668</ele><time>2026-04-25T12:11:12.000Z</time><hdop>3.0</hdop><vdop>3.0</vdop><extensions><gom:speed>0.0</gom:speed></extensions></trkpt>
   <trkpt lat="59.0676007999" lon="29.9664126452"><ele>95.671</ele><time>2026-04-25T12:11:13.000Z</time><hdop>3.0</hdop><vdop>3.0</vdop><extensions><gom:speed>0.0</gom:speed></extensions></trkpt>
   <trkpt lat="59.0676007999" lon="29.9664126452"><ele>95.673</ele><time>2026-04-25T12:11:13.000Z</time><hdop>3.0</hdop><vdop>3.0</vdop><extensions><gom:speed>0.0</gom:speed></extensions></trkpt>
   <trkpt lat="59.0676007999" lon="29.9664126452"><ele>95.674</ele><time>2026-04-25T12:11:14.000Z</time><hdop>3.0</hdop><vdop>3.0</vdop><extensions><gom:speed>0.0</gom:speed></extensions></trkpt>
   <trkpt lat="59.0675928371" lon="29.9664066103"><ele>95.672</ele><time>2026-04-25T12:11:15.000Z</time><hdop>3.0</hdop><vdop>3.0</vdop><extensions><gom:speed>0.427</gom:speed></extensions></trkpt>
   <trkpt lat="59.0675868021" lon="29.9663967196"><ele>95.696</ele><time>2026-04-25T12:11:16.000Z</time><hdop>3.0</hdop><vdop>3.0</vdop><extensions><gom:speed>0.401</gom:speed></extensions></trkpt>
   <trkpt lat="59.0675801385" lon="29.9663860746"><ele>95.7</ele><time>2026-04-25T12:11:17.000Z</time><hdop>3.0</hdop><vdop>3.0</vdop><extensions><gom:speed>0.468</gom:speed></extensions></trkpt>
   <trkpt lat="59.0675728882" lon="29.9663748429"><ele>95.6</ele><time>2026-04-25T12:11:18.000Z</time><hdop>3.0</hdop><vdop>3.0</vdop><extensions><gom:speed>0.39</gom:speed></extensions></trkpt>
   <trkpt lat="59.0675652187" lon="29.9663662933"><ele>95.507</ele><time>2026-04-25T12:11:19.000Z</time><hdop>3.0</hdop><vdop>3.0</vdop><extensions><gom:speed>0.378</gom:speed></extensions></trkpt>
   <trkpt lat="59.0675556634" lon="29.9663607613"><ele>95.362</ele><time>2026-04-25T12:11:20.000Z</time><hdop>3.187</hdop><vdop>3.187</vdop><extensions><gom:speed>0.427</gom:speed></extensions></trkpt>
   <trkpt lat="59.0675461499" lon="29.9663572409"><ele>95.236</ele><time>2026-04-25T12:11:21.000Z</time><hdop>3.687</hdop><vdop>3.687</vdop><extensions><gom:speed>0.468</gom:speed></extensions></trkpt>
   <trkpt lat="59.0675352115" lon="29.9663569894"><ele>95.118</ele><time>2026-04-25T12:11:22.000Z</time><hdop>3.812</hdop><vdop>3.812</vdop><extensions><gom:speed>0.389</gom:speed></extensions></trkpt>
   <trkpt lat="59.0675259076" lon="29.9663624376"><ele>95.047</ele><time>2026-04-25T12:11:23.000Z</time><hdop>4.187</hdop><vdop>4.187</vdop><extensions><gom:speed>0.413</gom:speed></extensions></trkpt>
   <trkpt lat="59.0675162684" lon="29.9663698137"><ele>95.028</ele><time>2026-04-25T12:11:24.000Z</time><hdop>4.062</hdop><vdop>4.062</vdop><extensions><gom:speed>0.498</gom:speed></extensions></trkpt>
   <trkpt lat="59.0675068388" lon="29.9663754296"><ele>95.078</ele><time>2026-04-25T12:11:25.000Z</time><hdop>3.75</hdop><vdop>3.75</vdop><extensions><gom:speed>0.524</gom:speed></extensions></trkpt>
   <trkpt lat="59.0674987503" lon="29.9663787824"><ele>95.132</ele><time>2026-04-25T12:11:26.000Z</time><hdop>3.5</hdop><vdop>3.5</vdop><extensions><gom:speed>0.426</gom:speed></extensions></trkpt>
   <trkpt lat="59.0674904522" lon="29.9663839791"><ele>95.219</ele><time>2026-04-25T12:11:27.000Z</time><hdop>3.25</hdop><vdop>3.25</vdop><extensions><gom:speed>0.525</gom:speed></extensions></trkpt>
   <trkpt lat="59.0674816512" lon="29.9663861584"><ele>95.29</ele><time>2026-04-25T12:11:28.000Z</time><hdop>3.0</hdop><vdop>3.0</vdop><extensions><gom:speed>0.651</gom:speed></extensions></trkpt>
   <trkpt lat="59.0674726825" lon="29.9663948756"><ele>95.332</ele><time>2026-04-25T12:11:29.000Z</time><hdop>3.0</hdop><vdop>3.0</vdop><extensions><gom:speed>0.588</gom:speed></extensions></trkpt>
   <trkpt lat="59.0674633367" lon="29.9663950432"><ele>95.292</ele><time>2026-04-25T12:11:30.000Z</time><hdop>3.0</hdop><vdop>3.0</vdop><extensions><gom:speed>0.526</gom:speed></extensions></trkpt>
   <trkpt lat="59.0674547872" lon="29.9663968034"><ele>95.296</ele><time>2026-04-25T12:11:31.000Z</time><hdop>3.0</hdop><vdop>3.0</vdop><extensions><gom:speed>0.622</gom:speed></extensions></trkpt>
   <trkpt lat="59.0674441422" lon="29.9664039281"><ele>95.271</ele><time>2026-04-25T12:11:32.000Z</time><hdop>3.0</hdop><vdop>3.0</vdop><extensions><gom:speed>0.416</gom:speed></extensions></trkpt>
   <trkpt lat="59.0674326589" lon="29.9664030899"><ele>95.16</ele><time>2026-04-25T12:11:33.000Z</time><hdop>3.0</hdop><vdop>3.0</vdop><extensions><gom:speed>0.541</gom:speed></extensions></trkpt>
   <trkpt lat="59.0674326589" lon="29.9664030899"><ele>95.094</ele><time>2026-04-25T12:11:33.000Z</time><hdop>3.0</hdop><vdop>3.0</vdop><extensions><gom:speed>0.541</gom:speed></extensions></trkpt>
   <trkpt lat="59.0674208405" lon="29.9664014135"><ele>94.992</ele><time>2026-04-25T12:11:34.000Z</time><hdop>3.0</hdop><vdop>3.0</vdop><extensions><gom:speed>0.548</gom:speed></extensions></trkpt>
   <trkpt lat="59.0674121233" lon="29.9663991504"><ele>94.903</ele><time>2026-04-25T12:11:35.000Z</time><hdop>3.0</hdop><vdop>3.0</vdop><extensions><gom:speed>0.273</gom:speed></extensions></trkpt>
   <trkpt lat="59.0674121233" lon="29.9663991504"><ele>94.849</ele><time>2026-04-25T12:11:36.000Z</time><hdop>3.0</hdop><vdop>3.0</vdop><extensions><gom:speed>0.0</gom:speed></extensions></trkpt>
   <trkpt lat="59.0674121233" lon="29.9663991504"><ele>94.818</ele><time>2026-04-25T12:11:37.000Z</time><hdop>3.0</hdop><vdop>3.0</vdop><extensions><gom:speed>0.0</gom:speed></extensions></trkpt>
   <trkpt lat="59.0674121233" lon="29.9663991504"><ele>94.799</ele><time>2026-04-25T12:11:38.000Z</time><hdop>3.0</hdop><vdop>3.0</vdop><extensions><gom:speed>0.0</gom:speed></extensions></trkpt>
   <trkpt lat="59.0674121233" lon="29.9663991504"><ele>94.787</ele><time>2026-04-25T12:11:39.000Z</time><hdop>3.0</hdop><vdop>3.0</vdop><extensions><gom:speed>0.0</gom:speed></extensions></trkpt>
   <trkpt lat="59.067406256" lon="29.9664019164"><ele>94.812</ele><time>2026-04-25T12:11:40.000Z</time><hdop>3.0</hdop><vdop>3.0</vdop><extensions><gom:speed>0.179</gom:speed></extensions></trkpt>
   <trkpt lat="59.067406256" lon="29.9664019164"><ele>94.827</ele><time>2026-04-25T12:11:41.000Z</time><hdop>3.0</hdop><vdop>3.0</vdop><extensions><gom:speed>0.0</gom:speed></extensions></trkpt>
   <trkpt lat="59.0673994666" lon="29.966402084"><ele>94.845</ele><time>2026-04-25T12:11:42.000Z</time><hdop>3.0</hdop><vdop>3.0</vdop><extensions><gom:speed>0.445</gom:speed></extensions></trkpt>
   <trkpt lat="59.0673910428" lon="29.9663984798"><ele>94.895</ele><time>2026-04-25T12:11:43.000Z</time><hdop>3.25</hdop><vdop>3.25</vdop><extensions><gom:speed>0.7</gom:speed></extensions></trkpt>
   <trkpt lat="59.0673827866" lon="29.966390517"><ele>94.949</ele><time>2026-04-25T12:11:44.000Z</time><hdop>3.0</hdop><vdop>3.0</vdop><extensions><gom:speed>0.785</gom:speed></extensions></trkpt>
   <trkpt lat="59.0673708424" lon="29.9663831409"><ele>94.983</ele><time>2026-04-25T12:11:45.000Z</time><hdop>3.0</hdop><vdop>3.0</vdop><extensions><gom:speed>0.584</gom:speed></extensions></trkpt>
   <trkpt lat="59.0673610356" lon="29.9663773574"><ele>95.002</ele><time>2026-04-25T12:11:46.000Z</time><hdop>3.0</hdop><vdop>3.0</vdop><extensions><gom:speed>0.753</gom:speed></extensions></trkpt>
   <trkpt lat="59.067351103" lon="29.9663725797"><ele>95.083</ele><time>2026-04-25T12:11:47.000Z</time><hdop>3.0</hdop><vdop>3.0</vdop><extensions><gom:speed>0.852</gom:speed></extensions></trkpt>
   <trkpt lat="59.0673406256" lon="29.966365036"><ele>95.192</ele><time>2026-04-25T12:11:48.000Z</time><hdop>3.0</hdop><vdop>3.0</vdop><extensions><gom:speed>0.693</gom:speed></extensions></trkpt>
   <trkpt lat="59.067329352" lon="29.9663564027"><ele>95.275</ele><time>2026-04-25T12:11:49.000Z</time><hdop>3.0</hdop><vdop>3.0</vdop><extensions><gom:speed>0.591</gom:speed></extensions></trkpt>
   <trkpt lat="59.0673192518" lon="29.9663494457"><ele>95.33</ele><time>2026-04-25T12:11:50.000Z</time><hdop>3.0</hdop><vdop>3.0</vdop><extensions><gom:speed>0.621</gom:speed></extensions></trkpt>
   <trkpt lat="59.0673076848" lon="29.9663452547"><ele>95.464</ele><time>2026-04-25T12:11:51.000Z</time><hdop>3.0</hdop><vdop>3.0</vdop><extensions><gom:speed>0.613</gom:speed></extensions></trkpt>
   <trkpt lat="59.0673001411" lon="29.9663431593"><ele>95.546</ele><time>2026-04-25T12:11:52.000Z</time><hdop>3.0</hdop><vdop>3.0</vdop><extensions><gom:speed>0.444</gom:speed></extensions></trkpt>
   <trkpt lat="59.0672910048" lon="29.9663372919"><ele>95.476</ele><time>2026-04-25T12:11:53.000Z</time><hdop>3.0</hdop><vdop>3.0</vdop><extensions><gom:speed>0.38</gom:speed></extensions></trkpt>
   <trkpt lat="59.0672910048" lon="29.9663372919"><ele>95.434</ele><time>2026-04-25T12:11:53.000Z</time><hdop>3.0</hdop><vdop>3.0</vdop><extensions><gom:speed>0.38</gom:speed></extensions></trkpt>
   <trkpt lat="59.0672854727" lon="29.966327988"><ele>95.373</ele><time>2026-04-25T12:11:54.000Z</time><hdop>3.0</hdop><vdop>3.0</vdop><extensions><gom:speed>0.299</gom:speed></extensions></trkpt>
   <trkpt lat="59.0672795635" lon="29.9663204443"><ele>95.299</ele><time>2026-04-25T12:11:55.000Z</time><hdop>3.0</hdop><vdop>3.0</vdop><extensions><gom:speed>0.129</gom:speed></extensions></trkpt>
   <trkpt lat="59.0672795635" lon="29.9663204443"><ele>95.254</ele><time>2026-04-25T12:11:56.000Z</time><hdop>3.0</hdop><vdop>3.0</vdop><extensions><gom:speed>0.0</gom:speed></extensions></trkpt>
   <trkpt lat="59.0672795635" lon="29.9663204443"><ele>95.227</ele><time>2026-04-25T12:11:57.000Z</time><hdop>3.0</hdop><vdop>3.0</vdop><extensions><gom:speed>0.0</gom:speed></extensions></trkpt>
   <trkpt lat="59.0672795635" lon="29.9663204443"><ele>95.211</ele><time>2026-04-25T12:11:58.000Z</time><hdop>3.0</hdop><vdop>3.0</vdop><extensions><gom:speed>0.0</gom:speed></extensions></trkpt>
   <trkpt lat="59.0672795635" lon="29.9663204443"><ele>95.202</ele><time>2026-04-25T12:11:59.000Z</time><hdop>3.0</hdop><vdop>3.0</vdop><extensions><gom:speed>0.0</gom:speed></extensions></trkpt>
   <trkpt lat="59.0672795635" lon="29.9663204443"><ele>95.196</ele><time>2026-04-25T12:12:00.000Z</time><hdop>3.0</hdop><vdop>3.0</vdop><extensions><gom:speed>0.0</gom:speed></extensions></trkpt>
   <trkpt lat="59.0672795635" lon="29.9663204443"><ele>95.193</ele><time>2026-04-25T12:12:01.000Z</time><hdop>3.0</hdop><vdop>3.0</vdop><extensions><gom:speed>0.0</gom:speed></extensions></trkpt>
   <trkpt lat="59.0672795635" lon="29.9663204443"><ele>95.191</ele><time>2026-04-25T12:12:02.000Z</time><hdop>3.0</hdop><vdop>3.0</vdop><extensions><gom:speed>0.0</gom:speed></extensions></trkpt>
   <trkpt lat="59.0672795635" lon="29.9663204443"><ele>95.19</ele><time>2026-04-25T12:12:03.000Z</time><hdop>3.0</hdop><vdop>3.0</vdop><extensions><gom:speed>0.0</gom:speed></extensions></trkpt>
   <trkpt lat="59.0672795635" lon="29.9663204443"><ele>95.189</ele><time>2026-04-25T12:12:04.000Z</time><hdop>3.0</hdop><vdop>3.0</vdop><extensions><gom:speed>0.0</gom:speed></extensions></trkpt>
   <trkpt lat="59.0672795635" lon="29.9663204443"><ele>95.188</ele><time>2026-04-25T12:12:05.000Z</time><hdop>3.0</hdop><vdop>3.0</vdop><extensions><gom:speed>0.0</gom:speed></extensions></trkpt>
   <trkpt lat="59.0672795635" lon="29.9663204443"><ele>95.188</ele><time>2026-04-25T12:12:06.000Z</time><hdop>3.0</hdop><vdop>3.0</vdop><extensions><gom:speed>0.0</gom:speed></extensions></trkpt>
   <trkpt lat="59.0672795635" lon="29.9663204443"><ele>95.188</ele><time>2026-04-25T12:12:07.000Z</time><hdop>3.0</hdop><vdop>3.0</vdop><extensions><gom:speed>0.0</gom:speed></extensions></trkpt>
   <trkpt lat="59.0672795635" lon="29.9663204443"><ele>95.188</ele><time>2026-04-25T12:12:08.000Z</time><hdop>3.0</hdop><vdop>3.0</vdop><extensions><gom:speed>0.0</gom:speed></extensions></trkpt>
   <trkpt lat="59.0672795635" lon="29.9663204443"><ele>95.188</ele><time>2026-04-25T12:12:09.000Z</time><hdop>3.0</hdop><vdop>3.0</vdop><extensions><gom:speed>0.0</gom:speed></extensions></trkpt>
   <trkpt lat="59.0672795635" lon="29.9663204443"><ele>95.188</ele><time>2026-04-25T12:12:10.000Z</time><hdop>3.0</hdop><vdop>3.0</vdop><extensions><gom:speed>0.0</gom:speed></extensions></trkpt>
   <trkpt lat="59.0672795635" lon="29.9663204443"><ele>95.188</ele><time>2026-04-25T12:12:11.000Z</time><hdop>3.0</hdop><vdop>3.0</vdop><extensions><gom:speed>0.0</gom:speed></extensions></trkpt>
   <trkpt lat="59.0672795635" lon="29.9663204443"><ele>95.188</ele><time>2026-04-25T12:12:12.000Z</time><hdop>3.0</hdop><vdop>3.0</vdop><extensions><gom:speed>0.0</gom:speed></extensions></trkpt>
   <trkpt lat="59.0672795635" lon="29.9663204443"><ele>95.188</ele><time>2026-04-25T12:12:13.000Z</time><hdop>3.0</hdop><vdop>3.0</vdop><extensions><gom:speed>0.0</gom:speed></extensions></trkpt>
   <trkpt lat="59.0672795635" lon="29.9663204443"><ele>95.188</ele><time>2026-04-25T12:12:13.000Z</time><hdop>3.0</hdop><vdop>3.0</vdop><extensions><gom:speed>0.0</gom:speed></extensions></trkpt>
   <trkpt lat="59.0672795635" lon="29.9663204443"><ele>95.188</ele><time>2026-04-25T12:12:14.000Z</time><hdop>3.0</hdop><vdop>3.0</vdop><extensions><gom:speed>0.0</gom:speed></extensions></trkpt>
   <trkpt lat="59.0672795635" lon="29.9663204443"><ele>95.188</ele><time>2026-04-25T12:12:15.000Z</time><hdop>3.0</hdop><vdop>3.0</vdop><extensions><gom:speed>0.0</gom:speed></extensions></trkpt>
   <trkpt lat="59.0672795635" lon="29.9663204443"><ele>95.188</ele><time>2026-04-25T12:12:16.000Z</time><hdop>3.0</hdop><vdop>3.0</vdop><extensions><gom:speed>0.0</gom:speed></extensions></trkpt>
   <trkpt lat="59.0672795635" lon="29.9663204443"><ele>95.188</ele><time>2026-04-25T12:12:17.000Z</time><hdop>3.0</hdop><vdop>3.0</vdop><extensions><gom:speed>0.0</gom:speed></extensions></trkpt>
   <trkpt lat="59.0672795635" lon="29.9663204443"><ele>95.188</ele><time>2026-04-25T12:12:18.000Z</time><hdop>3.0</hdop><vdop>3.0</vdop><extensions><gom:speed>0.0</gom:speed></extensions></trkpt>
   <trkpt lat="59.0672795635" lon="29.9663204443"><ele>95.188</ele><time>2026-04-25T12:12:19.000Z</time><hdop>3.0</hdop><vdop>3.0</vdop><extensions><gom:speed>0.0</gom:speed></extensions></trkpt>
   <trkpt lat="59.0672795635" lon="29.9663204443"><ele>95.188</ele><time>2026-04-25T12:12:20.000Z</time><hdop>3.0</hdop><vdop>3.0</vdop><extensions><gom:speed>0.0</gom:speed></extensions></trkpt>
   <trkpt lat="59.0672795635" lon="29.9663204443"><ele>95.188</ele><time>2026-04-25T12:12:21.000Z</time><hdop>3.0</hdop><vdop>3.0</vdop><extensions><gom:speed>0.0</gom:speed></extensions></trkpt>
   <trkpt lat="59.0672795635" lon="29.9663204443"><ele>95.188</ele><time>2026-04-25T12:12:22.000Z</time><hdop>3.0</hdop><vdop>3.0</vdop><extensions><gom:speed>0.0</gom:speed></extensions></trkpt>
   <trkpt lat="59.0672795635" lon="29.9663204443"><ele>95.188</ele><time>2026-04-25T12:12:23.000Z</time><hdop>3.0</hdop><vdop>3.0</vdop><extensions><gom:speed>0.0</gom:speed></extensions></trkpt>
   <trkpt lat="59.0672795635" lon="29.9663204443"><ele>95.188</ele><time>2026-04-25T12:12:24.000Z</time><hdop>3.0</hdop><vdop>3.0</vdop><extensions><gom:speed>0.0</gom:speed></extensions></trkpt>
   <trkpt lat="59.0672795635" lon="29.9663204443"><ele>95.188</ele><time>2026-04-25T12:12:25.000Z</time><hdop>3.0</hdop><vdop>3.0</vdop><extensions><gom:speed>0.0</gom:speed></extensions></trkpt>
   <trkpt lat="59.0672804017" lon="29.9663131521"><ele>95.343</ele><time>2026-04-25T12:12:26.000Z</time><hdop>3.0</hdop><vdop>3.0</vdop><extensions><gom:speed>0.125</gom:speed></extensions></trkpt>
   <trkpt lat="59.0672804017" lon="29.9663131521"><ele>95.437</ele><time>2026-04-25T12:12:27.000Z</time><hdop>3.0</hdop><vdop>3.0</vdop><extensions><gom:speed>0.0</gom:speed></extensions></trkpt>
   <trkpt lat="59.0672804017" lon="29.9663131521"><ele>95.492</ele><time>2026-04-25T12:12:28.000Z</time><hdop>3.0</hdop><vdop>3.0</vdop><extensions><gom:speed>0.0</gom:speed></extensions></trkpt>
   <trkpt lat="59.0672804017" lon="29.9663131521"><ele>95.525</ele><time>2026-04-25T12:12:29.000Z</time><hdop>3.0</hdop><vdop>3.0</vdop><extensions><gom:speed>0.0</gom:speed></extensions></trkpt>
   <trkpt lat="59.0672804017" lon="29.9663131521"><ele>95.545</ele><time>2026-04-25T12:12:30.000Z</time><hdop>3.0</hdop><vdop>3.0</vdop><extensions><gom:speed>0.0</gom:speed></extensions></trkpt>
   <trkpt lat="59.0672804017" lon="29.9663131521"><ele>95.557</ele><time>2026-04-25T12:12:31.000Z</time><hdop>3.0</hdop><vdop>3.0</vdop><extensions><gom:speed>0.0</gom:speed></extensions></trkpt>
   <trkpt lat="59.0672804017" lon="29.9663131521"><ele>95.564</ele><time>2026-04-25T12:12:32.000Z</time><hdop>3.0</hdop><vdop>3.0</vdop><extensions><gom:speed>0.0</gom:speed></extensions></trkpt>
   <trkpt lat="59.0672804017" lon="29.9663131521"><ele>95.568</ele><time>2026-04-25T12:12:33.000Z</time><hdop>3.0</hdop><vdop>3.0</vdop><extensions><gom:speed>0.0</gom:speed></extensions></trkpt>
   <trkpt lat="59.0672804017" lon="29.9663131521"><ele>95.571</ele><time>2026-04-25T12:12:33.000Z</time><hdop>3.0</hdop><vdop>3.0</vdop><extensions><gom:speed>0.0</gom:speed></extensions></trkpt>
   <trkpt lat="59.0672804017" lon="29.9663131521"><ele>95.572</ele><time>2026-04-25T12:12:34.000Z</time><hdop>3.0</hdop><vdop>3.0</vdop><extensions><gom:speed>0.0</gom:speed></extensions></trkpt>
   <trkpt lat="59.0672804017" lon="29.9663131521"><ele>95.573</ele><time>2026-04-25T12:12:35.000Z</time><hdop>3.0</hdop><vdop>3.0</vdop><extensions><gom:speed>0.0</gom:speed></extensions></trkpt>
   <trkpt lat="59.0672804017" lon="29.9663131521"><ele>95.574</ele><time>2026-04-25T12:12:36.000Z</time><hdop>3.0</hdop><vdop>3.0</vdop><extensions><gom:speed>0.0</gom:speed></extensions></trkpt>
   <trkpt lat="59.0672804017" lon="29.9663131521"><ele>95.574</ele><time>2026-04-25T12:12:37.000Z</time><hdop>3.0</hdop><vdop>3.0</vdop><extensions><gom:speed>0.0</gom:speed></extensions></trkpt>
   <trkpt lat="59.0672804017" lon="29.9663131521"><ele>95.574</ele><time>2026-04-25T12:12:38.000Z</time><hdop>3.0</hdop><vdop>3.0</vdop><extensions><gom:speed>0.0</gom:speed></extensions></trkpt>
   <trkpt lat="59.0672804017" lon="29.9663131521"><ele>95.575</ele><time>2026-04-25T12:12:39.000Z</time><hdop>3.0</hdop><vdop>3.0</vdop><extensions><gom:speed>0.0</gom:speed></extensions></trkpt>
   <trkpt lat="59.0672804017" lon="29.9663131521"><ele>95.575</ele><time>2026-04-25T12:12:40.000Z</time><hdop>3.0</hdop><vdop>3.0</vdop><extensions><gom:speed>0.0</gom:speed></extensions></trkpt>
   <trkpt lat="59.0672804017" lon="29.9663131521"><ele>95.575</ele><time>2026-04-25T12:12:41.000Z</time><hdop>3.0</hdop><vdop>3.0</vdop><extensions><gom:speed>0.0</gom:speed></extensions></trkpt>
   <trkpt lat="59.0672804017" lon="29.9663131521"><ele>95.575</ele><time>2026-04-25T12:12:42.000Z</time><hdop>3.0</hdop><vdop>3.0</vdop><extensions><gom:speed>0.0</gom:speed></extensions></trkpt>
   <trkpt lat="59.0672804017" lon="29.9663131521"><ele>95.575</ele><time>2026-04-25T12:12:43.000Z</time><hdop>3.0</hdop><vdop>3.0</vdop><extensions><gom:speed>0.0</gom:speed></extensions></trkpt>
   <trkpt lat="59.0672804017" lon="29.9663131521"><ele>95.575</ele><time>2026-04-25T12:12:44.000Z</time><hdop>3.0</hdop><vdop>3.0</vdop><extensions><gom:speed>0.0</gom:speed></extensions></trkpt>
   <trkpt lat="59.0672804017" lon="29.9663131521"><ele>95.575</ele><time>2026-04-25T12:12:45.000Z</time><hdop>3.0</hdop><vdop>3.0</vdop><extensions><gom:speed>0.0</gom:speed></extensions></trkpt>
   <trkpt lat="59.0672804017" lon="29.9663131521"><ele>95.575</ele><time>2026-04-25T12:12:46.000Z</time><hdop>3.0</hdop><vdop>3.0</vdop><extensions><gom:speed>0.0</gom:speed></extensions></trkpt>
   <trkpt lat="59.067270972" lon="29.9663131521"><ele>95.488</ele><time>2026-04-25T12:12:47.000Z</time><hdop>3.0</hdop><vdop>3.0</vdop><extensions><gom:speed>0.218</gom:speed></extensions></trkpt>
   <trkpt lat="59.0672596146" lon="29.9663059436"><ele>95.328</ele><time>2026-04-25T12:12:48.000Z</time><hdop>3.125</hdop><vdop>3.125</vdop><extensions><gom:speed>0.393</gom:speed></extensions></trkpt>
   <trkpt lat="59.0672596146" lon="29.9663059436"><ele>95.233</ele><time>2026-04-25T12:12:49.000Z</time><hdop>3.125</hdop><vdop>3.125</vdop><extensions><gom:speed>0.0</gom:speed></extensions></trkpt>
   <trkpt lat="59.0672596146" lon="29.9663059436"><ele>95.176</ele><time>2026-04-25T12:12:50.000Z</time><hdop>3.125</hdop><vdop>3.125</vdop><extensions><gom:speed>0.0</gom:speed></extensions></trkpt>
   <trkpt lat="59.0672596146" lon="29.9663059436"><ele>95.142</ele><time>2026-04-25T12:12:51.000Z</time><hdop>3.125</hdop><vdop>3.125</vdop><extensions><gom:speed>0.0</gom:speed></extensions></trkpt>
   <trkpt lat="59.0672596146" lon="29.9663059436"><ele>95.121</ele><time>2026-04-25T12:12:52.000Z</time><hdop>3.125</hdop><vdop>3.125</vdop><extensions><gom:speed>0.0</gom:speed></extensions></trkpt>
   <trkpt lat="59.0672596146" lon="29.9663059436"><ele>95.109</ele><time>2026-04-25T12:12:53.000Z</time><hdop>3.125</hdop><vdop>3.125</vdop><extensions><gom:speed>0.0</gom:speed></extensions></trkpt>
   <trkpt lat="59.0672596146" lon="29.9663059436"><ele>95.102</ele><time>2026-04-25T12:12:53.000Z</time><hdop>3.125</hdop><vdop>3.125</vdop><extensions><gom:speed>0.0</gom:speed></extensions></trkpt>
   <trkpt lat="59.0672485504" lon="29.9663056083"><ele>94.974</ele><time>2026-04-25T12:12:54.000Z</time><hdop>3.375</hdop><vdop>3.375</vdop><extensions><gom:speed>0.337</gom:speed></extensions></trkpt>
   <trkpt lat="59.0672485504" lon="29.9663056083"><ele>94.897</ele><time>2026-04-25T12:12:55.000Z</time><hdop>3.375</hdop><vdop>3.375</vdop><extensions><gom:speed>0.0</gom:speed></extensions></trkpt>
   <trkpt lat="59.0672376121" lon="29.9663079553"><ele>94.854</ele><time>2026-04-25T12:12:56.000Z</time><hdop>3.562</hdop><vdop>3.562</vdop><extensions><gom:speed>0.4</gom:speed></extensions></trkpt>
   <trkpt lat="59.0672267575" lon="29.9663154152"><ele>94.932</ele><time>2026-04-25T12:12:57.000Z</time><hdop>3.375</hdop><vdop>3.375</vdop><extensions><gom:speed>0.549</gom:speed></extensions></trkpt>
   <trkpt lat="59.0672169088" lon="29.9663276527"><ele>95.049</ele><time>2026-04-25T12:12:58.000Z</time><hdop>3.312</hdop><vdop>3.312</vdop><extensions><gom:speed>0.377</gom:speed></extensions></trkpt>
   <trkpt lat="59.0672079401" lon="29.9663370405"><ele>95.282</ele><time>2026-04-25T12:12:59.000Z</time><hdop>3.0</hdop><vdop>3.0</vdop><extensions><gom:speed>0.301</gom:speed></extensions></trkpt>
   <trkpt lat="59.0672041264" lon="29.9663406447"><ele>95.436</ele><time>2026-04-25T12:13:00.000Z</time><hdop>3.0</hdop><vdop>3.0</vdop><extensions><gom:speed>0.157</gom:speed></extensions></trkpt>
   <trkpt lat="59.0672041264" lon="29.9663406447"><ele>95.529</ele><time>2026-04-25T12:13:01.000Z</time><hdop>3.0</hdop><vdop>3.0</vdop><extensions><gom:speed>0.0</gom:speed></extensions></trkpt>
   <trkpt lat="59.0672041264" lon="29.9663406447"><ele>95.584</ele><time>2026-04-25T12:13:02.000Z</time><hdop>3.0</hdop><vdop>3.0</vdop><extensions><gom:speed>0.0</gom:speed></extensions></trkpt>
   <trkpt lat="59.0672041264" lon="29.9663406447"><ele>95.617</ele><time>2026-04-25T12:13:03.000Z</time><hdop>3.0</hdop><vdop>3.0</vdop><extensions><gom:speed>0.0</gom:speed></extensions></trkpt>
   <trkpt lat="59.0672041264" lon="29.9663406447"><ele>95.637</ele><time>2026-04-25T12:13:04.000Z</time><hdop>3.0</hdop><vdop>3.0</vdop><extensions><gom:speed>0.0</gom:speed></extensions></trkpt>
   <trkpt lat="59.0672041264" lon="29.9663406447"><ele>95.648</ele><time>2026-04-25T12:13:05.000Z</time><hdop>3.0</hdop><vdop>3.0</vdop><extensions><gom:speed>0.0</gom:speed></extensions></trkpt>
   <trkpt lat="59.0672041264" lon="29.9663406447"><ele>95.655</ele><time>2026-04-25T12:13:06.000Z</time><hdop>3.0</hdop><vdop>3.0</vdop><extensions><gom:speed>0.0</gom:speed></extensions></trkpt>
   <trkpt lat="59.0672041264" lon="29.9663406447"><ele>95.66</ele><time>2026-04-25T12:13:07.000Z</time><hdop>3.0</hdop><vdop>3.0</vdop><extensions><gom:speed>0.0</gom:speed></extensions></trkpt>
   <trkpt lat="59.0672041264" lon="29.9663406447"><ele>95.662</ele><time>2026-04-25T12:13:08.000Z</time><hdop>3.0</hdop><vdop>3.0</vdop><extensions><gom:speed>0.0</gom:speed></extensions></trkpt>
   <trkpt lat="59.0672041264" lon="29.9663406447"><ele>95.664</ele><time>2026-04-25T12:13:09.000Z</time><hdop>3.0</hdop><vdop>3.0</vdop><extensions><gom:speed>0.0</gom:speed></extensions></trkpt>
   <trkpt lat="59.0672041264" lon="29.9663406447"><ele>95.665</ele><time>2026-04-25T12:13:10.000Z</time><hdop>3.0</hdop><vdop>3.0</vdop><extensions><gom:speed>0.0</gom:speed></extensions></trkpt>
   <trkpt lat="59.0672041264" lon="29.9663406447"><ele>95.665</ele><time>2026-04-25T12:13:11.000Z</time><hdop>3.0</hdop><vdop>3.0</vdop><extensions><gom:speed>0.0</gom:speed></extensions></trkpt>
   <trkpt lat="59.0672041264" lon="29.9663406447"><ele>95.665</ele><time>2026-04-25T12:13:12.000Z</time><hdop>3.0</hdop><vdop>3.0</vdop><extensions><gom:speed>0.0</gom:speed></extensions></trkpt>
   <trkpt lat="59.0672041264" lon="29.9663406447"><ele>95.666</ele><time>2026-04-25T12:13:13.000Z</time><hdop>3.0</hdop><vdop>3.0</vdop><extensions><gom:speed>0.0</gom:speed></extensions></trkpt>
   <trkpt lat="59.0672041264" lon="29.9663406447"><ele>95.666</ele><time>2026-04-25T12:13:13.000Z</time><hdop>3.0</hdop><vdop>3.0</vdop><extensions><gom:speed>0.0</gom:speed></extensions></trkpt>
   <trkpt lat="59.0672041264" lon="29.9663406447"><ele>95.666</ele><time>2026-04-25T12:13:14.000Z</time><hdop>3.0</hdop><vdop>3.0</vdop><extensions><gom:speed>0.0</gom:speed></extensions></trkpt>
   <trkpt lat="59.0672041264" lon="29.9663406447"><ele>95.666</ele><time>2026-04-25T12:13:15.000Z</time><hdop>3.0</hdop><vdop>3.0</vdop><extensions><gom:speed>0.0</gom:speed></extensions></trkpt>
   <trkpt lat="59.0672041264" lon="29.9663406447"><ele>95.666</ele><time>2026-04-25T12:13:16.000Z</time><hdop>3.0</hdop><vdop>3.0</vdop><extensions><gom:speed>0.0</gom:speed></extensions></trkpt>
   <trkpt lat="59.0672041264" lon="29.9663406447"><ele>95.666</ele><time>2026-04-25T12:13:17.000Z</time><hdop>3.0</hdop><vdop>3.0</vdop><extensions><gom:speed>0.0</gom:speed></extensions></trkpt>
   <trkpt lat="59.0672041264" lon="29.9663406447"><ele>95.666</ele><time>2026-04-25T12:13:18.000Z</time><hdop>3.0</hdop><vdop>3.0</vdop><extensions><gom:speed>0.0</gom:speed></extensions></trkpt>
   <trkpt lat="59.0672041264" lon="29.9663406447"><ele>95.666</ele><time>2026-04-25T12:13:19.000Z</time><hdop>3.0</hdop><vdop>3.0</vdop><extensions><gom:speed>0.0</gom:speed></extensions></trkpt>
   <trkpt lat="59.0672041264" lon="29.9663406447"><ele>95.666</ele><time>2026-04-25T12:13:20.000Z</time><hdop>3.0</hdop><vdop>3.0</vdop><extensions><gom:speed>0.0</gom:speed></extensions></trkpt>
   <trkpt lat="59.0672041264" lon="29.9663406447"><ele>95.666</ele><time>2026-04-25T12:13:21.000Z</time><hdop>3.0</hdop><vdop>3.0</vdop><extensions><gom:speed>0.0</gom:speed></extensions></trkpt>
   <trkpt lat="59.0672041264" lon="29.9663406447"><ele>95.666</ele><time>2026-04-25T12:13:22.000Z</time><hdop>3.0</hdop><vdop>3.0</vdop><extensions><gom:speed>0.0</gom:speed></extensions></trkpt>
   <trkpt lat="59.0672041264" lon="29.9663406447"><ele>95.666</ele><time>2026-04-25T12:13:23.000Z</time><hdop>3.0</hdop><vdop>3.0</vdop><extensions><gom:speed>0.0</gom:speed></extensions></trkpt>
   <trkpt lat="59.0672041264" lon="29.9663406447"><ele>95.666</ele><time>2026-04-25T12:13:24.000Z</time><hdop>3.0</hdop><vdop>3.0</vdop><extensions><gom:speed>0.0</gom:speed></extensions></trkpt>
   <trkpt lat="59.0672041264" lon="29.9663406447"><ele>95.666</ele><time>2026-04-25T12:13:25.000Z</time><hdop>3.0</hdop><vdop>3.0</vdop><extensions><gom:speed>0.0</gom:speed></extensions></trkpt>
   <trkpt lat="59.0672027853" lon="29.9663393036"><ele>95.604</ele><time>2026-04-25T12:13:26.000Z</time><hdop>3.687</hdop><vdop>3.687</vdop><extensions><gom:speed>0.245</gom:speed></extensions></trkpt>
   <trkpt lat="59.0672027853" lon="29.9663393036"><ele>95.566</ele><time>2026-04-25T12:13:27.000Z</time><hdop>3.687</hdop><vdop>3.687</vdop><extensions><gom:speed>0.0</gom:speed></extensions></trkpt>
   <trkpt lat="59.0672027853" lon="29.9663393036"><ele>95.544</ele><time>2026-04-25T12:13:28.000Z</time><hdop>3.687</hdop><vdop>3.687</vdop><extensions><gom:speed>0.0</gom:speed></extensions></trkpt>
   <trkpt lat="59.0672027853" lon="29.9663393036"><ele>95.531</ele><time>2026-04-25T12:13:29.000Z</time><hdop>3.687</hdop><vdop>3.687</vdop><extensions><gom:speed>0.0</gom:speed></extensions></trkpt>
   <trkpt lat="59.0672027853" lon="29.9663393036"><ele>95.523</ele><time>2026-04-25T12:13:30.000Z</time><hdop>3.687</hdop><vdop>3.687</vdop><extensions><gom:speed>0.0</gom:speed></extensions></trkpt>
   <trkpt lat="59.0672027853" lon="29.9663393036"><ele>95.518</ele><time>2026-04-25T12:13:31.000Z</time><hdop>3.687</hdop><vdop>3.687</vdop><extensions><gom:speed>0.0</gom:speed></extensions></trkpt>
   <trkpt lat="59.0672027853" lon="29.9663393036"><ele>95.515</ele><time>2026-04-25T12:13:32.000Z</time><hdop>3.687</hdop><vdop>3.687</vdop><extensions><gom:speed>0.0</gom:speed></extensions></trkpt>
   <trkpt lat="59.0672027853" lon="29.9663393036"><ele>95.513</ele><time>2026-04-25T12:13:33.000Z</time><hdop>3.687</hdop><vdop>3.687</vdop><extensions><gom:speed>0.0</gom:speed></extensions></trkpt>
   <trkpt lat="59.0672027853" lon="29.9663393036"><ele>95.512</ele><time>2026-04-25T12:13:33.000Z</time><hdop>3.687</hdop><vdop>3.687</vdop><extensions><gom:speed>0.0</gom:speed></extensions></trkpt>
   <trkpt lat="59.0672027853" lon="29.9663393036"><ele>95.512</ele><time>2026-04-25T12:13:34.000Z</time><hdop>3.687</hdop><vdop>3.687</vdop><extensions><gom:speed>0.0</gom:speed></extensions></trkpt>
   <trkpt lat="59.0672027853" lon="29.9663393036"><ele>95.511</ele><time>2026-04-25T12:13:35.000Z</time><hdop>3.687</hdop><vdop>3.687</vdop><extensions><gom:speed>0.0</gom:speed></extensions></trkpt>
   <trkpt lat="59.0672027853" lon="29.9663393036"><ele>95.511</ele><time>2026-04-25T12:13:36.000Z</time><hdop>3.687</hdop><vdop>3.687</vdop><extensions><gom:speed>0.0</gom:speed></extensions></trkpt>
   <trkpt lat="59.0672027853" lon="29.9663393036"><ele>95.511</ele><time>2026-04-25T12:13:37.000Z</time><hdop>3.687</hdop><vdop>3.687</vdop><extensions><gom:speed>0.0</gom:speed></extensions></trkpt>
   <trkpt lat="59.0672027853" lon="29.9663393036"><ele>95.511</ele><time>2026-04-25T12:13:38.000Z</time><hdop>3.687</hdop><vdop>3.687</vdop><extensions><gom:speed>0.0</gom:speed></extensions></trkpt>
   <trkpt lat="59.0672027853" lon="29.9663393036"><ele>95.511</ele><time>2026-04-25T12:13:39.000Z</time><hdop>3.687</hdop><vdop>3.687</vdop><extensions><gom:speed>0.0</gom:speed></extensions></trkpt>
   <trkpt lat="59.0672027853" lon="29.9663393036"><ele>95.511</ele><time>2026-04-25T12:13:40.000Z</time><hdop>3.687</hdop><vdop>3.687</vdop><extensions><gom:speed>0.0</gom:speed></extensions></trkpt>
   <trkpt lat="59.0672027853" lon="29.9663393036"><ele>95.511</ele><time>2026-04-25T12:13:41.000Z</time><hdop>3.687</hdop><vdop>3.687</vdop><extensions><gom:speed>0.0</gom:speed></extensions></trkpt>
   <trkpt lat="59.0672027853" lon="29.9663393036"><ele>95.511</ele><time>2026-04-25T12:13:42.000Z</time><hdop>3.687</hdop><vdop>3.687</vdop><extensions><gom:speed>0.0</gom:speed></extensions></trkpt>
   <trkpt lat="59.0672027853" lon="29.9663393036"><ele>95.511</ele><time>2026-04-25T12:13:43.000Z</time><hdop>3.687</hdop><vdop>3.687</vdop><extensions><gom:speed>0.0</gom:speed></extensions></trkpt>
   <trkpt lat="59.0672027853" lon="29.9663393036"><ele>95.511</ele><time>2026-04-25T12:13:44.000Z</time><hdop>3.687</hdop><vdop>3.687</vdop><extensions><gom:speed>0.0</gom:speed></extensions></trkpt>
   <trkpt lat="59.0672027853" lon="29.9663393036"><ele>95.511</ele><time>2026-04-25T12:13:45.000Z</time><hdop>3.687</hdop><vdop>3.687</vdop><extensions><gom:speed>0.0</gom:speed></extensions></trkpt>
   <trkpt lat="59.0672027853" lon="29.9663393036"><ele>95.511</ele><time>2026-04-25T12:13:46.000Z</time><hdop>3.687</hdop><vdop>3.687</vdop><extensions><gom:speed>0.0</gom:speed></extensions></trkpt>
   <trkpt lat="59.0672027853" lon="29.9663393036"><ele>95.511</ele><time>2026-04-25T12:13:47.000Z</time><hdop>3.687</hdop><vdop>3.687</vdop><extensions><gom:speed>0.0</gom:speed></extensions></trkpt>
   <trkpt lat="59.0672027853" lon="29.9663393036"><ele>95.511</ele><time>2026-04-25T12:13:48.000Z</time><hdop>3.687</hdop><vdop>3.687</vdop><extensions><gom:speed>0.0</gom:speed></extensions></trkpt>
   <trkpt lat="59.0672027853" lon="29.9663393036"><ele>95.511</ele><time>2026-04-25T12:13:49.000Z</time><hdop>3.687</hdop><vdop>3.687</vdop><extensions><gom:speed>0.0</gom:speed></extensions></trkpt>
   <trkpt lat="59.0672027853" lon="29.9663393036"><ele>95.511</ele><time>2026-04-25T12:13:50.000Z</time><hdop>3.687</hdop><vdop>3.687</vdop><extensions><gom:speed>0.0</gom:speed></extensions></trkpt>
   <trkpt lat="59.0672027853" lon="29.9663393036"><ele>95.511</ele><time>2026-04-25T12:13:51.000Z</time><hdop>3.687</hdop><vdop>3.687</vdop><extensions><gom:speed>0.0</gom:speed></extensions></trkpt>
   <trkpt lat="59.0672027853" lon="29.9663393036"><ele>95.511</ele><time>2026-04-25T12:13:52.000Z</time><hdop>3.687</hdop><vdop>3.687</vdop><extensions><gom:speed>0.0</gom:speed></extensions></trkpt>
   <trkpt lat="59.0672027853" lon="29.9663393036"><ele>95.511</ele><time>2026-04-25T12:13:53.000Z</time><hdop>3.687</hdop><vdop>3.687</vdop><extensions><gom:speed>0.0</gom:speed></extensions></trkpt>
   <trkpt lat="59.0672027853" lon="29.9663393036"><ele>95.511</ele><time>2026-04-25T12:13:53.000Z</time><hdop>3.687</hdop><vdop>3.687</vdop><extensions><gom:speed>0.0</gom:speed></extensions></trkpt>
   <trkpt lat="59.0672027853" lon="29.9663393036"><ele>95.511</ele><time>2026-04-25T12:13:54.000Z</time><hdop>3.687</hdop><vdop>3.687</vdop><extensions><gom:speed>0.0</gom:speed></extensions></trkpt>
   <trkpt lat="59.0672027853" lon="29.9663393036"><ele>95.511</ele><time>2026-04-25T12:13:55.000Z</time><hdop>3.687</hdop><vdop>3.687</vdop><extensions><gom:speed>0.0</gom:speed></extensions></trkpt>
   <trkpt lat="59.0672027853" lon="29.9663393036"><ele>95.511</ele><time>2026-04-25T12:13:56.000Z</time><hdop>3.687</hdop><vdop>3.687</vdop><extensions><gom:speed>0.0</gom:speed></extensions></trkpt>
   <trkpt lat="59.0672027853" lon="29.9663393036"><ele>95.511</ele><time>2026-04-25T12:13:57.000Z</time><hdop>3.687</hdop><vdop>3.687</vdop><extensions><gom:speed>0.0</gom:speed></extensions></trkpt>
   <trkpt lat="59.0672027853" lon="29.9663393036"><ele>95.511</ele><time>2026-04-25T12:13:58.000Z</time><hdop>3.687</hdop><vdop>3.687</vdop><extensions><gom:speed>0.0</gom:speed></extensions></trkpt>
   <trkpt lat="59.0672027853" lon="29.9663393036"><ele>95.511</ele><time>2026-04-25T12:13:59.000Z</time><hdop>3.687</hdop><vdop>3.687</vdop><extensions><gom:speed>0.0</gom:speed></extensions></trkpt>
   <trkpt lat="59.0672027853" lon="29.9663393036"><ele>95.511</ele><time>2026-04-25T12:14:00.000Z</time><hdop>3.687</hdop><vdop>3.687</vdop><extensions><gom:speed>0.0</gom:speed></extensions></trkpt>
   <trkpt lat="59.0672027853" lon="29.9663393036"><ele>95.511</ele><time>2026-04-25T12:14:01.000Z</time><hdop>3.687</hdop><vdop>3.687</vdop><extensions><gom:speed>0.0</gom:speed></extensions></trkpt>
   <trkpt lat="59.0672027853" lon="29.9663393036"><ele>95.511</ele><time>2026-04-25T12:14:02.000Z</time><hdop>3.687</hdop><vdop>3.687</vdop><extensions><gom:speed>0.0</gom:speed></extensions></trkpt>
   <trkpt lat="59.0672027853" lon="29.9663393036"><ele>95.511</ele><time>2026-04-25T12:14:03.000Z</time><hdop>3.687</hdop><vdop>3.687</vdop><extensions><gom:speed>0.0</gom:speed></extensions></trkpt>
   <trkpt lat="59.0672027853" lon="29.9663393036"><ele>95.511</ele><time>2026-04-25T12:14:04.000Z</time><hdop>3.687</hdop><vdop>3.687</vdop><extensions><gom:speed>0.0</gom:speed></extensions></trkpt>
   <trkpt lat="59.0672027853" lon="29.9663393036"><ele>95.511</ele><time>2026-04-25T12:14:05.000Z</time><hdop>3.687</hdop><vdop>3.687</vdop><extensions><gom:speed>0.0</gom:speed></extensions></trkpt>
   <trkpt lat="59.0672027853" lon="29.9663393036"><ele>95.511</ele><time>2026-04-25T12:14:06.000Z</time><hdop>3.687</hdop><vdop>3.687</vdop><extensions><gom:speed>0.0</gom:speed></extensions></trkpt>
   <trkpt lat="59.0672027853" lon="29.9663393036"><ele>95.511</ele><time>2026-04-25T12:14:07.000Z</time><hdop>3.687</hdop><vdop>3.687</vdop><extensions><gom:speed>0.0</gom:speed></extensions></trkpt>
   <trkpt lat="59.0672027853" lon="29.9663393036"><ele>95.511</ele><time>2026-04-25T12:14:08.000Z</time><hdop>3.687</hdop><vdop>3.687</vdop><extensions><gom:speed>0.0</gom:speed></extensions></trkpt>
   <trkpt lat="59.0672027853" lon="29.9663393036"><ele>95.511</ele><time>2026-04-25T12:14:09.000Z</time><hdop>3.687</hdop><vdop>3.687</vdop><extensions><gom:speed>0.0</gom:speed></extensions></trkpt>
   <trkpt lat="59.0672027853" lon="29.9663393036"><ele>95.511</ele><time>2026-04-25T12:14:10.000Z</time><hdop>3.687</hdop><vdop>3.687</vdop><extensions><gom:speed>0.0</gom:speed></extensions></trkpt>
   <trkpt lat="59.0672027853" lon="29.9663393036"><ele>95.511</ele><time>2026-04-25T12:14:11.000Z</time><hdop>3.687</hdop><vdop>3.687</vdop><extensions><gom:speed>0.0</gom:speed></extensions></trkpt>
   <trkpt lat="59.0672027853" lon="29.9663393036"><ele>95.511</ele><time>2026-04-25T12:14:12.000Z</time><hdop>3.687</hdop><vdop>3.687</vdop><extensions><gom:speed>0.0</gom:speed></extensions></trkpt>
   <trkpt lat="59.0672027853" lon="29.9663393036"><ele>95.511</ele><time>2026-04-25T12:14:13.000Z</time><hdop>3.687</hdop><vdop>3.687</vdop><extensions><gom:speed>0.0</gom:speed></extensions></trkpt>
   <trkpt lat="59.0672027853" lon="29.9663393036"><ele>95.511</ele><time>2026-04-25T12:14:13.000Z</time><hdop>3.687</hdop><vdop>3.687</vdop><extensions><gom:speed>0.0</gom:speed></extensions></trkpt>
   <trkpt lat="59.0672027853" lon="29.9663393036"><ele>95.511</ele><time>2026-04-25T12:14:14.000Z</time><hdop>3.687</hdop><vdop>3.687</vdop><extensions><gom:speed>0.0</gom:speed></extensions></trkpt>
   <trkpt lat="59.0672027853" lon="29.9663393036"><ele>95.511</ele><time>2026-04-25T12:14:15.000Z</time><hdop>3.687</hdop><vdop>3.687</vdop><extensions><gom:speed>0.0</gom:speed></extensions></trkpt>
   <trkpt lat="59.0672027853" lon="29.9663393036"><ele>95.511</ele><time>2026-04-25T12:14:16.000Z</time><hdop>3.687</hdop><vdop>3.687</vdop><extensions><gom:speed>0.0</gom:speed></extensions></trkpt>
   <trkpt lat="59.0672027853" lon="29.9663393036"><ele>95.511</ele><time>2026-04-25T12:14:17.000Z</time><hdop>3.687</hdop><vdop>3.687</vdop><extensions><gom:speed>0.0</gom:speed></extensions></trkpt>
   <trkpt lat="59.0672027853" lon="29.9663393036"><ele>95.511</ele><time>2026-04-25T12:14:18.000Z</time><hdop>3.687</hdop><vdop>3.687</vdop><extensions><gom:speed>0.0</gom:speed></extensions></trkpt>
   <trkpt lat="59.0672027853" lon="29.9663393036"><ele>95.511</ele><time>2026-04-25T12:14:19.000Z</time><hdop>3.687</hdop><vdop>3.687</vdop><extensions><gom:speed>0.0</gom:speed></extensions></trkpt>
   <trkpt lat="59.0672027853" lon="29.9663393036"><ele>95.511</ele><time>2026-04-25T12:14:20.000Z</time><hdop>3.687</hdop><vdop>3.687</vdop><extensions><gom:speed>0.0</gom:speed></extensions></trkpt>
   <trkpt lat="59.0672027853" lon="29.9663393036"><ele>95.511</ele><time>2026-04-25T12:14:21.000Z</time><hdop>3.687</hdop><vdop>3.687</vdop><extensions><gom:speed>0.0</gom:speed></extensions></trkpt>
   <trkpt lat="59.0672027853" lon="29.9663393036"><ele>95.511</ele><time>2026-04-25T12:14:22.000Z</time><hdop>3.687</hdop><vdop>3.687</vdop><extensions><gom:speed>0.0</gom:speed></extensions></trkpt>
   <trkpt lat="59.0672027853" lon="29.9663393036"><ele>95.511</ele><time>2026-04-25T12:14:23.000Z</time><hdop>3.687</hdop><vdop>3.687</vdop><extensions><gom:speed>0.0</gom:speed></extensions></trkpt>
   <trkpt lat="59.0672027853" lon="29.9663393036"><ele>95.511</ele><time>2026-04-25T12:14:24.000Z</time><hdop>3.687</hdop><vdop>3.687</vdop><extensions><gom:speed>0.0</gom:speed></extensions></trkpt>
   <trkpt lat="59.0672027853" lon="29.9663393036"><ele>95.511</ele><time>2026-04-25T12:14:25.000Z</time><hdop>3.687</hdop><vdop>3.687</vdop><extensions><gom:speed>0.0</gom:speed></extensions></trkpt>
   <trkpt lat="59.0672027853" lon="29.9663393036"><ele>95.511</ele><time>2026-04-25T12:14:26.000Z</time><hdop>3.687</hdop><vdop>3.687</vdop><extensions><gom:speed>0.0</gom:speed></extensions></trkpt>
   <trkpt lat="59.0672027853" lon="29.9663393036"><ele>95.511</ele><time>2026-04-25T12:14:27.000Z</time><hdop>3.687</hdop><vdop>3.687</vdop><extensions><gom:speed>0.0</gom:speed></extensions></trkpt>
   <trkpt lat="59.0672027853" lon="29.9663393036"><ele>95.511</ele><time>2026-04-25T12:14:28.000Z</time><hdop>3.687</hdop><vdop>3.687</vdop><extensions><gom:speed>0.0</gom:speed></extensions></trkpt>
   <trkpt lat="59.0671944453" lon="29.9663478531"><ele>95.232</ele><time>2026-04-25T12:14:29.000Z</time><hdop>3.75</hdop><vdop>3.75</vdop><extensions><gom:speed>0.423</gom:speed></extensions></trkpt>
   <trkpt lat="59.0671876559" lon="29.9663564865"><ele>95.011</ele><time>2026-04-25T12:14:30.000Z</time><hdop>3.937</hdop><vdop>3.937</vdop><extensions><gom:speed>0.185</gom:speed></extensions></trkpt>
   <trkpt lat="59.0671876559" lon="29.9663564865"><ele>94.879</ele><time>2026-04-25T12:14:31.000Z</time><hdop>3.937</hdop><vdop>3.937</vdop><extensions><gom:speed>0.0</gom:speed></extensions></trkpt>
   <trkpt lat="59.0671876559" lon="29.9663564865"><ele>94.8</ele><time>2026-04-25T12:14:32.000Z</time><hdop>3.937</hdop><vdop>3.937</vdop><extensions><gom:speed>0.0</gom:speed></extensions></trkpt>
   <trkpt lat="59.0671876559" lon="29.9663564865"><ele>94.753</ele><time>2026-04-25T12:14:33.000Z</time><hdop>3.937</hdop><vdop>3.937</vdop><extensions><gom:speed>0.0</gom:speed></extensions></trkpt>
   <trkpt lat="59.0671876559" lon="29.9663564865"><ele>94.725</ele><time>2026-04-25T12:14:34.000Z</time><hdop>3.937</hdop><vdop>3.937</vdop><extensions><gom:speed>0.0</gom:speed></extensions></trkpt>
   <trkpt lat="59.0671876559" lon="29.9663564865"><ele>94.708</ele><time>2026-04-25T12:14:35.000Z</time><hdop>3.937</hdop><vdop>3.937</vdop><extensions><gom:speed>0.0</gom:speed></extensions></trkpt>
   <trkpt lat="59.0671876559" lon="29.9663564865"><ele>94.698</ele><time>2026-04-25T12:14:36.000Z</time><hdop>3.937</hdop><vdop>3.937</vdop><extensions><gom:speed>0.0</gom:speed></extensions></trkpt>
   <trkpt lat="59.0671876559" lon="29.9663564865"><ele>94.692</ele><time>2026-04-25T12:14:36.000Z</time><hdop>3.937</hdop><vdop>3.937</vdop><extensions><gom:speed>0.0</gom:speed></extensions></trkpt>
   <trkpt lat="59.0671876559" lon="29.9663564865"><ele>94.688</ele><time>2026-04-25T12:14:37.000Z</time><hdop>3.937</hdop><vdop>3.937</vdop><extensions><gom:speed>0.0</gom:speed></extensions></trkpt>
   <trkpt lat="59.0671876559" lon="29.9663564865"><ele>94.686</ele><time>2026-04-25T12:14:38.000Z</time><hdop>3.937</hdop><vdop>3.937</vdop><extensions><gom:speed>0.0</gom:speed></extensions></trkpt>
   <trkpt lat="59.0671876559" lon="29.9663564865"><ele>94.685</ele><time>2026-04-25T12:14:39.000Z</time><hdop>3.937</hdop><vdop>3.937</vdop><extensions><gom:speed>0.0</gom:speed></extensions></trkpt>
   <trkpt lat="59.0671876559" lon="29.9663564865"><ele>94.684</ele><time>2026-04-25T12:14:40.000Z</time><hdop>3.937</hdop><vdop>3.937</vdop><extensions><gom:speed>0.0</gom:speed></extensions></trkpt>
   <trkpt lat="59.0671876559" lon="29.9663564865"><ele>94.684</ele><time>2026-04-25T12:14:41.000Z</time><hdop>3.937</hdop><vdop>3.937</vdop><extensions><gom:speed>0.0</gom:speed></extensions></trkpt>
   <trkpt lat="59.0671876559" lon="29.9663564865"><ele>94.683</ele><time>2026-04-25T12:14:42.000Z</time><hdop>3.937</hdop><vdop>3.937</vdop><extensions><gom:speed>0.0</gom:speed></extensions></trkpt>
   <trkpt lat="59.0671876559" lon="29.9663564865"><ele>94.683</ele><time>2026-04-25T12:14:43.000Z</time><hdop>3.937</hdop><vdop>3.937</vdop><extensions><gom:speed>0.0</gom:speed></extensions></trkpt>
   <trkpt lat="59.0671876559" lon="29.9663564865"><ele>94.683</ele><time>2026-04-25T12:14:44.000Z</time><hdop>3.937</hdop><vdop>3.937</vdop><extensions><gom:speed>0.0</gom:speed></extensions></trkpt>
   <trkpt lat="59.0671876559" lon="29.9663564865"><ele>94.683</ele><time>2026-04-25T12:14:45.000Z</time><hdop>3.937</hdop><vdop>3.937</vdop><extensions><gom:speed>0.0</gom:speed></extensions></trkpt>
   <trkpt lat="59.0671876559" lon="29.9663564865"><ele>94.683</ele><time>2026-04-25T12:14:46.000Z</time><hdop>3.937</hdop><vdop>3.937</vdop><extensions><gom:speed>0.0</gom:speed></extensions></trkpt>
   <trkpt lat="59.0671876559" lon="29.9663564865"><ele>94.683</ele><time>2026-04-25T12:14:47.000Z</time><hdop>3.937</hdop><vdop>3.937</vdop><extensions><gom:speed>0.0</gom:speed></extensions></trkpt>
   <trkpt lat="59.0671876559" lon="29.9663564865"><ele>94.683</ele><time>2026-04-25T12:14:48.000Z</time><hdop>3.937</hdop><vdop>3.937</vdop><extensions><gom:speed>0.0</gom:speed></extensions></trkpt>
   <trkpt lat="59.0671876559" lon="29.9663564865"><ele>94.683</ele><time>2026-04-25T12:14:49.000Z</time><hdop>3.937</hdop><vdop>3.937</vdop><extensions><gom:speed>0.0</gom:speed></extensions></trkpt>
   <trkpt lat="59.0671876559" lon="29.9663564865"><ele>94.683</ele><time>2026-04-25T12:14:50.000Z</time><hdop>3.937</hdop><vdop>3.937</vdop><extensions><gom:speed>0.0</gom:speed></extensions></trkpt>
   <trkpt lat="59.0671876559" lon="29.9663564865"><ele>94.683</ele><time>2026-04-25T12:14:51.000Z</time><hdop>3.937</hdop><vdop>3.937</vdop><extensions><gom:speed>0.0</gom:speed></extensions></trkpt>
   <trkpt lat="59.0671876559" lon="29.9663564865"><ele>94.683</ele><time>2026-04-25T12:14:52.000Z</time><hdop>3.937</hdop><vdop>3.937</vdop><extensions><gom:speed>0.0</gom:speed></extensions></trkpt>
   <trkpt lat="59.0512399955" lon="29.9639399838"><ele>56.574</ele><time>2026-04-25T12:14:52.841Z</time><hdop>4095.937</hdop><vdop>0.0</vdop><extensions><gom:speed>0.0</gom:speed></extensions></trkpt>
   <trkpt lat="59.0671876559" lon="29.9663564865"><ele>71.912</ele><time>2026-04-25T12:14:53.000Z</time><hdop>3.937</hdop><vdop>3.937</vdop><extensions><gom:speed>0.0</gom:speed></extensions></trkpt>
   <trkpt lat="59.0671876559" lon="29.9663564865"><ele>81.077</ele><time>2026-04-25T12:14:53.000Z</time><hdop>3.937</hdop><vdop>3.937</vdop><extensions><gom:speed>0.0</gom:speed></extensions></trkpt>
   <trkpt lat="59.0671876559" lon="29.9663564865"><ele>86.553</ele><time>2026-04-25T12:14:54.000Z</time><hdop>3.937</hdop><vdop>3.937</vdop><extensions><gom:speed>0.0</gom:speed></extensions></trkpt>
   <trkpt lat="59.0671876559" lon="29.9663564865"><ele>89.825</ele><time>2026-04-25T12:14:55.000Z</time><hdop>3.937</hdop><vdop>3.937</vdop><extensions><gom:speed>0.0</gom:speed></extensions></trkpt>
   <trkpt lat="59.0671876559" lon="29.9663564865"><ele>91.78</ele><time>2026-04-25T12:14:56.000Z</time><hdop>3.937</hdop><vdop>3.937</vdop><extensions><gom:speed>0.0</gom:speed></extensions></trkpt>
   <trkpt lat="59.0671876559" lon="29.9663564865"><ele>92.949</ele><time>2026-04-25T12:14:57.000Z</time><hdop>3.937</hdop><vdop>3.937</vdop><extensions><gom:speed>0.0</gom:speed></extensions></trkpt>
   <trkpt lat="59.0671876559" lon="29.9663564865"><ele>93.647</ele><time>2026-04-25T12:14:58.000Z</time><hdop>3.937</hdop><vdop>3.937</vdop><extensions><gom:speed>0.0</gom:speed></extensions></trkpt>
   <trkpt lat="59.0671876559" lon="29.9663564865"><ele>94.064</ele><time>2026-04-25T12:14:59.000Z</time><hdop>3.937</hdop><vdop>3.937</vdop><extensions><gom:speed>0.0</gom:speed></extensions></trkpt>
   <trkpt lat="59.0671876559" lon="29.9663564865"><ele>94.313</ele><time>2026-04-25T12:15:00.000Z</time><hdop>3.937</hdop><vdop>3.937</vdop><extensions><gom:speed>0.0</gom:speed></extensions></trkpt>
   <trkpt lat="59.0671876559" lon="29.9663564865"><ele>94.462</ele><time>2026-04-25T12:15:01.000Z</time><hdop>3.937</hdop><vdop>3.937</vdop><extensions><gom:speed>0.0</gom:speed></extensions></trkpt>
   <trkpt lat="59.0671876559" lon="29.9663564865"><ele>94.551</ele><time>2026-04-25T12:15:02.000Z</time><hdop>3.937</hdop><vdop>3.937</vdop><extensions><gom:speed>0.0</gom:speed></extensions></trkpt>
   <trkpt lat="59.0671876559" lon="29.9663564865"><ele>94.604</ele><time>2026-04-25T12:15:03.000Z</time><hdop>3.937</hdop><vdop>3.937</vdop><extensions><gom:speed>0.0</gom:speed></extensions></trkpt>
   <trkpt lat="59.0671876559" lon="29.9663564865"><ele>94.636</ele><time>2026-04-25T12:15:04.000Z</time><hdop>3.937</hdop><vdop>3.937</vdop><extensions><gom:speed>0.0</gom:speed></extensions></trkpt>
   <trkpt lat="59.0671813695" lon="29.9663578276"><ele>94.739</ele><time>2026-04-25T12:15:05.000Z</time><hdop>3.812</hdop><vdop>3.812</vdop><extensions><gom:speed>0.348</gom:speed></extensions></trkpt>
   <trkpt lat="59.0671750412" lon="29.9663592525"><ele>94.859</ele><time>2026-04-25T12:15:06.000Z</time><hdop>4.062</hdop><vdop>4.062</vdop><extensions><gom:speed>0.449</gom:speed></extensions></trkpt>
   <trkpt lat="59.0671729038" lon="29.966358582"><ele>94.947</ele><time>2026-04-25T12:15:07.000Z</time><hdop>4.125</hdop><vdop>4.125</vdop><extensions><gom:speed>0.255</gom:speed></extensions></trkpt>
   <trkpt lat="59.067170934" lon="29.9663568218"><ele>94.978</ele><time>2026-04-25T12:15:08.000Z</time><hdop>4.5</hdop><vdop>4.5</vdop><extensions><gom:speed>0.183</gom:speed></extensions></trkpt>
   <trkpt lat="59.067170473" lon="29.9663532175"><ele>95.044</ele><time>2026-04-25T12:15:09.000Z</time><hdop>4.75</hdop><vdop>4.75</vdop><extensions><gom:speed>0.147</gom:speed></extensions></trkpt>
   <trkpt lat="59.0671703892" lon="29.9663429916"><ele>95.14</ele><time>2026-04-25T12:15:10.000Z</time><hdop>4.687</hdop><vdop>4.687</vdop><extensions><gom:speed>0.491</gom:speed></extensions></trkpt>
   <trkpt lat="59.067170012" lon="29.9663322628"><ele>95.244</ele><time>2026-04-25T12:15:11.000Z</time><hdop>4.687</hdop><vdop>4.687</vdop><extensions><gom:speed>0.485</gom:speed></extensions></trkpt>
   <trkpt lat="59.0671695929" lon="29.9663243"><ele>95.402</ele><time>2026-04-25T12:15:12.000Z</time><hdop>4.687</hdop><vdop>4.687</vdop><extensions><gom:speed>0.326</gom:speed></extensions></trkpt>
   <trkpt lat="59.0671701796" lon="29.9663268146"><ele>95.532</ele><time>2026-04-25T12:15:13.000Z</time><hdop>4.312</hdop><vdop>4.312</vdop><extensions><gom:speed>0.138</gom:speed></extensions></trkpt>
   <trkpt lat="59.0671701796" lon="29.9663268146"><ele>95.609</ele><time>2026-04-25T12:15:13.000Z</time><hdop>4.312</hdop><vdop>4.312</vdop><extensions><gom:speed>0.138</gom:speed></extensions></trkpt>
   <trkpt lat="59.0671701796" lon="29.9663268146"><ele>95.656</ele><time>2026-04-25T12:15:14.000Z</time><hdop>4.312</hdop><vdop>4.312</vdop><extensions><gom:speed>0.0</gom:speed></extensions></trkpt>
   <trkpt lat="59.0671701796" lon="29.9663268146"><ele>95.683</ele><time>2026-04-25T12:15:15.000Z</time><hdop>4.312</hdop><vdop>4.312</vdop><extensions><gom:speed>0.0</gom:speed></extensions></trkpt>
   <trkpt lat="59.0671701796" lon="29.9663268146"><ele>95.7</ele><time>2026-04-25T12:15:16.000Z</time><hdop>4.312</hdop><vdop>4.312</vdop><extensions><gom:speed>0.0</gom:speed></extensions></trkpt>
   <trkpt lat="59.0671701796" lon="29.9663268146"><ele>95.71</ele><time>2026-04-25T12:15:17.000Z</time><hdop>4.312</hdop><vdop>4.312</vdop><extensions><gom:speed>0.0</gom:speed></extensions></trkpt>
   <trkpt lat="59.0671701796" lon="29.9663268146"><ele>95.716</ele><time>2026-04-25T12:15:18.000Z</time><hdop>4.312</hdop><vdop>4.312</vdop><extensions><gom:speed>0.0</gom:speed></extensions></trkpt>
   <trkpt lat="59.0671701796" lon="29.9663268146"><ele>95.719</ele><time>2026-04-25T12:15:19.000Z</time><hdop>4.312</hdop><vdop>4.312</vdop><extensions><gom:speed>0.0</gom:speed></extensions></trkpt>
   <trkpt lat="59.0671701796" lon="29.9663268146"><ele>95.721</ele><time>2026-04-25T12:15:20.000Z</time><hdop>4.312</hdop><vdop>4.312</vdop><extensions><gom:speed>0.0</gom:speed></extensions></trkpt>
   <trkpt lat="59.0671701796" lon="29.9663268146"><ele>95.722</ele><time>2026-04-25T12:15:21.000Z</time><hdop>4.312</hdop><vdop>4.312</vdop><extensions><gom:speed>0.0</gom:speed></extensions></trkpt>
   <trkpt lat="59.0671682518" lon="29.9663299159"><ele>95.699</ele><time>2026-04-25T12:15:22.000Z</time><hdop>4.312</hdop><vdop>4.312</vdop><extensions><gom:speed>0.299</gom:speed></extensions></trkpt>
   <trkpt lat="59.0671682518" lon="29.9663299159"><ele>95.685</ele><time>2026-04-25T12:15:23.000Z</time><hdop>4.312</hdop><vdop>4.312</vdop><extensions><gom:speed>0.0</gom:speed></extensions></trkpt>
   <trkpt lat="59.0671647733" lon="29.9663265631"><ele>95.752</ele><time>2026-04-25T12:15:24.000Z</time><hdop>4.625</hdop><vdop>4.625</vdop><extensions><gom:speed>0.624</gom:speed></extensions></trkpt>
   <trkpt lat="59.0671588222" lon="29.9663131521"><ele>95.761</ele><time>2026-04-25T12:15:25.000Z</time><hdop>4.687</hdop><vdop>4.687</vdop><extensions><gom:speed>0.398</gom:speed></extensions></trkpt>
   <trkpt lat="59.0671536254" lon="29.9663044349"><ele>95.733</ele><time>2026-04-25T12:15:26.000Z</time><hdop>4.875</hdop><vdop>4.875</vdop><extensions><gom:speed>0.337</gom:speed></extensions></trkpt>
   <trkpt lat="59.0671536254" lon="29.9663044349"><ele>95.717</ele><time>2026-04-25T12:15:27.000Z</time><hdop>4.875</hdop><vdop>4.875</vdop><extensions><gom:speed>0.0</gom:speed></extensions></trkpt>
   <trkpt lat="59.0671536254" lon="29.9663044349"><ele>95.707</ele><time>2026-04-25T12:15:28.000Z</time><hdop>4.875</hdop><vdop>4.875</vdop><extensions><gom:speed>0.0</gom:speed></extensions></trkpt>
   <trkpt lat="59.0671536254" lon="29.9663044349"><ele>95.702</ele><time>2026-04-25T12:15:29.000Z</time><hdop>4.875</hdop><vdop>4.875</vdop><extensions><gom:speed>0.0</gom:speed></extensions></trkpt>
   <trkpt lat="59.0671536254" lon="29.9663044349"><ele>95.698</ele><time>2026-04-25T12:15:30.000Z</time><hdop>4.875</hdop><vdop>4.875</vdop><extensions><gom:speed>0.0</gom:speed></extensions></trkpt>
   <trkpt lat="59.0671536254" lon="29.9663044349"><ele>95.696</ele><time>2026-04-25T12:15:31.000Z</time><hdop>4.875</hdop><vdop>4.875</vdop><extensions><gom:speed>0.0</gom:speed></extensions></trkpt>
   <trkpt lat="59.0671536254" lon="29.9663044349"><ele>95.695</ele><time>2026-04-25T12:15:32.000Z</time><hdop>4.875</hdop><vdop>4.875</vdop><extensions><gom:speed>0.0</gom:speed></extensions></trkpt>
   <trkpt lat="59.0671536254" lon="29.9663044349"><ele>95.694</ele><time>2026-04-25T12:15:33.000Z</time><hdop>4.875</hdop><vdop>4.875</vdop><extensions><gom:speed>0.0</gom:speed></extensions></trkpt>
   <trkpt lat="59.0671536254" lon="29.9663044349"><ele>95.694</ele><time>2026-04-25T12:15:33.000Z</time><hdop>4.875</hdop><vdop>4.875</vdop><extensions><gom:speed>0.0</gom:speed></extensions></trkpt>
   <trkpt lat="59.0671536254" lon="29.9663044349"><ele>95.693</ele><time>2026-04-25T12:15:34.000Z</time><hdop>4.875</hdop><vdop>4.875</vdop><extensions><gom:speed>0.0</gom:speed></extensions></trkpt>
   <trkpt lat="59.0671536254" lon="29.9663044349"><ele>95.693</ele><time>2026-04-25T12:15:35.000Z</time><hdop>4.875</hdop><vdop>4.875</vdop><extensions><gom:speed>0.0</gom:speed></extensions></trkpt>
   <trkpt lat="59.0671536254" lon="29.9663044349"><ele>95.693</ele><time>2026-04-25T12:15:36.000Z</time><hdop>4.875</hdop><vdop>4.875</vdop><extensions><gom:speed>0.0</gom:speed></extensions></trkpt>
   <trkpt lat="59.0671536254" lon="29.9663044349"><ele>95.693</ele><time>2026-04-25T12:15:37.000Z</time><hdop>4.875</hdop><vdop>4.875</vdop><extensions><gom:speed>0.0</gom:speed></extensions></trkpt>
   <trkpt lat="59.0671536254" lon="29.9663044349"><ele>95.693</ele><time>2026-04-25T12:15:38.000Z</time><hdop>4.875</hdop><vdop>4.875</vdop><extensions><gom:speed>0.0</gom:speed></extensions></trkpt>
   <trkpt lat="59.0671536254" lon="29.9663044349"><ele>95.693</ele><time>2026-04-25T12:15:39.000Z</time><hdop>4.875</hdop><vdop>4.875</vdop><extensions><gom:speed>0.0</gom:speed></extensions></trkpt>
   <trkpt lat="59.0671536254" lon="29.9663044349"><ele>95.693</ele><time>2026-04-25T12:15:40.000Z</time><hdop>4.875</hdop><vdop>4.875</vdop><extensions><gom:speed>0.0</gom:speed></extensions></trkpt>
   <trkpt lat="59.0671506079" lon="29.9663096317"><ele>95.638</ele><time>2026-04-25T12:15:41.000Z</time><hdop>4.875</hdop><vdop>4.875</vdop><extensions><gom:speed>0.403</gom:speed></extensions></trkpt>
   <trkpt lat="59.0671506079" lon="29.9663096317"><ele>95.605</ele><time>2026-04-25T12:15:42.000Z</time><hdop>4.875</hdop><vdop>4.875</vdop><extensions><gom:speed>0.0</gom:speed></extensions></trkpt>
   <trkpt lat="59.0671506079" lon="29.9663096317"><ele>95.585</ele><time>2026-04-25T12:15:43.000Z</time><hdop>4.875</hdop><vdop>4.875</vdop><extensions><gom:speed>0.0</gom:speed></extensions></trkpt>
   <trkpt lat="59.0671506079" lon="29.9663096317"><ele>95.573</ele><time>2026-04-25T12:15:44.000Z</time><hdop>4.875</hdop><vdop>4.875</vdop><extensions><gom:speed>0.0</gom:speed></extensions></trkpt>
   <trkpt lat="59.0671506079" lon="29.9663096317"><ele>95.566</ele><time>2026-04-25T12:15:45.000Z</time><hdop>4.875</hdop><vdop>4.875</vdop><extensions><gom:speed>0.0</gom:speed></extensions></trkpt>
   <trkpt lat="59.0671506079" lon="29.9663096317"><ele>95.562</ele><time>2026-04-25T12:15:46.000Z</time><hdop>4.875</hdop><vdop>4.875</vdop><extensions><gom:speed>0.0</gom:speed></extensions></trkpt>
   <trkpt lat="59.0671506079" lon="29.9663096317"><ele>95.559</ele><time>2026-04-25T12:15:47.000Z</time><hdop>4.875</hdop><vdop>4.875</vdop><extensions><gom:speed>0.0</gom:speed></extensions></trkpt>
   <trkpt lat="59.0671506079" lon="29.9663096317"><ele>95.558</ele><time>2026-04-25T12:15:48.000Z</time><hdop>4.875</hdop><vdop>4.875</vdop><extensions><gom:speed>0.0</gom:speed></extensions></trkpt>
   <trkpt lat="59.0671506079" lon="29.9663096317"><ele>95.557</ele><time>2026-04-25T12:15:49.000Z</time><hdop>4.875</hdop><vdop>4.875</vdop><extensions><gom:speed>0.0</gom:speed></extensions></trkpt>
   <trkpt lat="59.0671506079" lon="29.9663096317"><ele>95.557</ele><time>2026-04-25T12:15:50.000Z</time><hdop>4.875</hdop><vdop>4.875</vdop><extensions><gom:speed>0.0</gom:speed></extensions></trkpt>
   <trkpt lat="59.0671506079" lon="29.9663096317"><ele>95.556</ele><time>2026-04-25T12:15:51.000Z</time><hdop>4.875</hdop><vdop>4.875</vdop><extensions><gom:speed>0.0</gom:speed></extensions></trkpt>
   <trkpt lat="59.0671506079" lon="29.9663096317"><ele>95.556</ele><time>2026-04-25T12:15:52.000Z</time><hdop>4.875</hdop><vdop>4.875</vdop><extensions><gom:speed>0.0</gom:speed></extensions></trkpt>
   <trkpt lat="59.0671506079" lon="29.9663096317"><ele>95.556</ele><time>2026-04-25T12:15:53.000Z</time><hdop>4.875</hdop><vdop>4.875</vdop><extensions><gom:speed>0.0</gom:speed></extensions></trkpt>
   <trkpt lat="59.0671506079" lon="29.9663096317"><ele>95.556</ele><time>2026-04-25T12:15:53.000Z</time><hdop>4.875</hdop><vdop>4.875</vdop><extensions><gom:speed>0.0</gom:speed></extensions></trkpt>
   <trkpt lat="59.0671506079" lon="29.9663096317"><ele>95.556</ele><time>2026-04-25T12:15:54.000Z</time><hdop>4.875</hdop><vdop>4.875</vdop><extensions><gom:speed>0.0</gom:speed></extensions></trkpt>
   <trkpt lat="59.0671506079" lon="29.9663096317"><ele>95.556</ele><time>2026-04-25T12:15:55.000Z</time><hdop>4.875</hdop><vdop>4.875</vdop><extensions><gom:speed>0.0</gom:speed></extensions></trkpt>
   <trkpt lat="59.0671506079" lon="29.9663096317"><ele>95.556</ele><time>2026-04-25T12:15:56.000Z</time><hdop>4.875</hdop><vdop>4.875</vdop><extensions><gom:speed>0.0</gom:speed></extensions></trkpt>
   <trkpt lat="59.0671506079" lon="29.9663096317"><ele>95.556</ele><time>2026-04-25T12:15:57.000Z</time><hdop>4.875</hdop><vdop>4.875</vdop><extensions><gom:speed>0.0</gom:speed></extensions></trkpt>
   <trkpt lat="59.0671506079" lon="29.9663096317"><ele>95.556</ele><time>2026-04-25T12:15:58.000Z</time><hdop>4.875</hdop><vdop>4.875</vdop><extensions><gom:speed>0.0</gom:speed></extensions></trkpt>
   <trkpt lat="59.0671506079" lon="29.9663096317"><ele>95.556</ele><time>2026-04-25T12:15:59.000Z</time><hdop>4.875</hdop><vdop>4.875</vdop><extensions><gom:speed>0.0</gom:speed></extensions></trkpt>
   <trkpt lat="59.0671506079" lon="29.9663096317"><ele>95.556</ele><time>2026-04-25T12:16:00.000Z</time><hdop>4.875</hdop><vdop>4.875</vdop><extensions><gom:speed>0.0</gom:speed></extensions></trkpt>
   <trkpt lat="59.0671506079" lon="29.9663096317"><ele>95.556</ele><time>2026-04-25T12:16:01.000Z</time><hdop>4.875</hdop><vdop>4.875</vdop><extensions><gom:speed>0.0</gom:speed></extensions></trkpt>
   <trkpt lat="59.0671506079" lon="29.9663096317"><ele>95.556</ele><time>2026-04-25T12:16:02.000Z</time><hdop>4.875</hdop><vdop>4.875</vdop><extensions><gom:speed>0.0</gom:speed></extensions></trkpt>
   <trkpt lat="59.0671506079" lon="29.9663096317"><ele>95.556</ele><time>2026-04-25T12:16:03.000Z</time><hdop>4.875</hdop><vdop>4.875</vdop><extensions><gom:speed>0.0</gom:speed></extensions></trkpt>
   <trkpt lat="59.0671506079" lon="29.9663096317"><ele>95.556</ele><time>2026-04-25T12:16:04.000Z</time><hdop>4.875</hdop><vdop>4.875</vdop><extensions><gom:speed>0.0</gom:speed></extensions></trkpt>
   <trkpt lat="59.0671506079" lon="29.9663096317"><ele>95.556</ele><time>2026-04-25T12:16:05.000Z</time><hdop>4.875</hdop><vdop>4.875</vdop><extensions><gom:speed>0.0</gom:speed></extensions></trkpt>
   <trkpt lat="59.0671506079" lon="29.9663096317"><ele>95.556</ele><time>2026-04-25T12:16:06.000Z</time><hdop>4.875</hdop><vdop>4.875</vdop><extensions><gom:speed>0.0</gom:speed></extensions></trkpt>
   <trkpt lat="59.0671506079" lon="29.9663096317"><ele>95.556</ele><time>2026-04-25T12:16:07.000Z</time><hdop>4.875</hdop><vdop>4.875</vdop><extensions><gom:speed>0.0</gom:speed></extensions></trkpt>
   <trkpt lat="59.0671506079" lon="29.9663096317"><ele>95.556</ele><time>2026-04-25T12:16:08.000Z</time><hdop>4.875</hdop><vdop>4.875</vdop><extensions><gom:speed>0.0</gom:speed></extensions></trkpt>
   <trkpt lat="59.0671506079" lon="29.9663096317"><ele>95.556</ele><time>2026-04-25T12:16:09.000Z</time><hdop>4.875</hdop><vdop>4.875</vdop><extensions><gom:speed>0.0</gom:speed></extensions></trkpt>
   <trkpt lat="59.0671459559" lon="29.9663004954"><ele>95.685</ele><time>2026-04-25T12:16:10.000Z</time><hdop>4.812</hdop><vdop>4.812</vdop><extensions><gom:speed>0.104</gom:speed></extensions></trkpt>
   <trkpt lat="59.0671459559" lon="29.9663004954"><ele>95.762</ele><time>2026-04-25T12:16:11.000Z</time><hdop>4.812</hdop><vdop>4.812</vdop><extensions><gom:speed>0.0</gom:speed></extensions></trkpt>
   <trkpt lat="59.0671447825" lon="29.9662986514"><ele>95.945</ele><time>2026-04-25T12:16:12.000Z</time><hdop>4.187</hdop><vdop>4.187</vdop><extensions><gom:speed>0.137</gom:speed></extensions></trkpt>
   <trkpt lat="59.0671455369" lon="29.9662936222"><ele>96.182</ele><time>2026-04-25T12:16:13.000Z</time><hdop>4.25</hdop><vdop>4.25</vdop><extensions><gom:speed>0.122</gom:speed></extensions></trkpt>
   <trkpt lat="59.0671455369" lon="29.9662936222"><ele>96.324</ele><time>2026-04-25T12:16:13.000Z</time><hdop>4.25</hdop><vdop>4.25</vdop><extensions><gom:speed>0.122</gom:speed></extensions></trkpt>
   <trkpt lat="59.0671494763" lon="29.96628633"><ele>96.514</ele><time>2026-04-25T12:16:14.000Z</time><hdop>4.812</hdop><vdop>4.812</vdop><extensions><gom:speed>0.166</gom:speed></extensions></trkpt>
   <trkpt lat="59.0671494763" lon="29.96628633"><ele>96.628</ele><time>2026-04-25T12:16:15.000Z</time><hdop>4.812</hdop><vdop>4.812</vdop><extensions><gom:speed>0.0</gom:speed></extensions></trkpt>
   <trkpt lat="59.0671494763" lon="29.96628633"><ele>96.696</ele><time>2026-04-25T12:16:16.000Z</time><hdop>4.812</hdop><vdop>4.812</vdop><extensions><gom:speed>0.0</gom:speed></extensions></trkpt>
   <trkpt lat="59.0671494763" lon="29.96628633"><ele>96.737</ele><time>2026-04-25T12:16:17.000Z</time><hdop>4.812</hdop><vdop>4.812</vdop><extensions><gom:speed>0.0</gom:speed></extensions></trkpt>
   <trkpt lat="59.0671494763" lon="29.96628633"><ele>96.761</ele><time>2026-04-25T12:16:18.000Z</time><hdop>4.812</hdop><vdop>4.812</vdop><extensions><gom:speed>0.0</gom:speed></extensions></trkpt>
   <trkpt lat="59.0671487639" lon="29.96628633"><ele>96.757</ele><time>2026-04-25T12:16:19.000Z</time><hdop>4.687</hdop><vdop>4.687</vdop><extensions><gom:speed>0.103</gom:speed></extensions></trkpt>
   <trkpt lat="59.0671487639" lon="29.96628633"><ele>96.755</ele><time>2026-04-25T12:16:20.000Z</time><hdop>4.687</hdop><vdop>4.687</vdop><extensions><gom:speed>0.0</gom:speed></extensions></trkpt>
   <trkpt lat="59.0671487639" lon="29.96628633"><ele>96.753</ele><time>2026-04-25T12:16:21.000Z</time><hdop>4.875</hdop><vdop>4.875</vdop><extensions><gom:speed>0.0</gom:speed></extensions></trkpt>
   <trkpt lat="59.0671487639" lon="29.96628633"><ele>96.753</ele><time>2026-04-25T12:16:22.000Z</time><hdop>4.875</hdop><vdop>4.875</vdop><extensions><gom:speed>0.0</gom:speed></extensions></trkpt>
   <trkpt lat="59.0671487639" lon="29.96628633"><ele>96.752</ele><time>2026-04-25T12:16:23.000Z</time><hdop>4.875</hdop><vdop>4.875</vdop><extensions><gom:speed>0.0</gom:speed></extensions></trkpt>
   <trkpt lat="59.0671487639" lon="29.96628633"><ele>96.752</ele><time>2026-04-25T12:16:24.000Z</time><hdop>4.875</hdop><vdop>4.875</vdop><extensions><gom:speed>0.0</gom:speed></extensions></trkpt>
   <trkpt lat="59.0671487639" lon="29.96628633"><ele>96.752</ele><time>2026-04-25T12:16:25.000Z</time><hdop>4.875</hdop><vdop>4.875</vdop><extensions><gom:speed>0.0</gom:speed></extensions></trkpt>
   <trkpt lat="59.0671487639" lon="29.96628633"><ele>96.752</ele><time>2026-04-25T12:16:26.000Z</time><hdop>4.875</hdop><vdop>4.875</vdop><extensions><gom:speed>0.0</gom:speed></extensions></trkpt>
   <trkpt lat="59.0671487639" lon="29.96628633"><ele>96.752</ele><time>2026-04-25T12:16:27.000Z</time><hdop>4.875</hdop><vdop>4.875</vdop><extensions><gom:speed>0.0</gom:speed></extensions></trkpt>
   <trkpt lat="59.0671487639" lon="29.96628633"><ele>96.751</ele><time>2026-04-25T12:16:28.000Z</time><hdop>4.875</hdop><vdop>4.875</vdop><extensions><gom:speed>0.0</gom:speed></extensions></trkpt>
   <trkpt lat="59.0671487639" lon="29.96628633"><ele>96.751</ele><time>2026-04-25T12:16:29.000Z</time><hdop>4.875</hdop><vdop>4.875</vdop><extensions><gom:speed>0.0</gom:speed></extensions></trkpt>
   <trkpt lat="59.0671487639" lon="29.96628633"><ele>96.751</ele><time>2026-04-25T12:16:30.000Z</time><hdop>4.875</hdop><vdop>4.875</vdop><extensions><gom:speed>0.0</gom:speed></extensions></trkpt>
   <trkpt lat="59.0671487639" lon="29.96628633"><ele>96.751</ele><time>2026-04-25T12:16:31.000Z</time><hdop>4.875</hdop><vdop>4.875</vdop><extensions><gom:speed>0.0</gom:speed></extensions></trkpt>
   <trkpt lat="59.0671487639" lon="29.96628633"><ele>96.751</ele><time>2026-04-25T12:16:32.000Z</time><hdop>4.875</hdop><vdop>4.875</vdop><extensions><gom:speed>0.0</gom:speed></extensions></trkpt>
   <trkpt lat="59.0671487639" lon="29.96628633"><ele>96.751</ele><time>2026-04-25T12:16:33.000Z</time><hdop>4.875</hdop><vdop>4.875</vdop><extensions><gom:speed>0.0</gom:speed></extensions></trkpt>
   <trkpt lat="59.0671487639" lon="29.96628633"><ele>96.751</ele><time>2026-04-25T12:16:33.000Z</time><hdop>4.875</hdop><vdop>4.875</vdop><extensions><gom:speed>0.0</gom:speed></extensions></trkpt>
   <trkpt lat="59.0671487639" lon="29.96628633"><ele>96.751</ele><time>2026-04-25T12:16:34.000Z</time><hdop>4.875</hdop><vdop>4.875</vdop><extensions><gom:speed>0.0</gom:speed></extensions></trkpt>
   <trkpt lat="59.0671487639" lon="29.96628633"><ele>96.751</ele><time>2026-04-25T12:16:35.000Z</time><hdop>4.875</hdop><vdop>4.875</vdop><extensions><gom:speed>0.0</gom:speed></extensions></trkpt>
   <trkpt lat="59.0671487639" lon="29.96628633"><ele>96.751</ele><time>2026-04-25T12:16:36.000Z</time><hdop>4.875</hdop><vdop>4.875</vdop><extensions><gom:speed>0.0</gom:speed></extensions></trkpt>
   <trkpt lat="59.0671487639" lon="29.96628633"><ele>96.751</ele><time>2026-04-25T12:16:37.000Z</time><hdop>4.875</hdop><vdop>4.875</vdop><extensions><gom:speed>0.0</gom:speed></extensions></trkpt>
   <trkpt lat="59.0671487639" lon="29.96628633"><ele>96.751</ele><time>2026-04-25T12:16:38.000Z</time><hdop>4.875</hdop><vdop>4.875</vdop><extensions><gom:speed>0.0</gom:speed></extensions></trkpt>
   <trkpt lat="59.0671487639" lon="29.96628633"><ele>96.751</ele><time>2026-04-25T12:16:39.000Z</time><hdop>4.875</hdop><vdop>4.875</vdop><extensions><gom:speed>0.0</gom:speed></extensions></trkpt>
   <trkpt lat="59.0671499793" lon="29.9662921135"><ele>96.811</ele><time>2026-04-25T12:16:40.000Z</time><hdop>4.687</hdop><vdop>4.687</vdop><extensions><gom:speed>0.342</gom:speed></extensions></trkpt>
   <trkpt lat="59.0671499793" lon="29.9662921135"><ele>96.846</ele><time>2026-04-25T12:16:41.000Z</time><hdop>4.875</hdop><vdop>4.875</vdop><extensions><gom:speed>0.0</gom:speed></extensions></trkpt>
   <trkpt lat="59.0671500631" lon="29.966298819"><ele>96.829</ele><time>2026-04-25T12:16:42.000Z</time><hdop>4.687</hdop><vdop>4.687</vdop><extensions><gom:speed>0.302</gom:speed></extensions></trkpt>
   <trkpt lat="59.0671472551" lon="29.9663082067"><ele>96.796</ele><time>2026-04-25T12:16:43.000Z</time><hdop>4.187</hdop><vdop>4.187</vdop><extensions><gom:speed>0.394</gom:speed></extensions></trkpt>
   <trkpt lat="59.0671400467" lon="29.9663135711"><ele>96.868</ele><time>2026-04-25T12:16:44.000Z</time><hdop>3.812</hdop><vdop>3.812</vdop><extensions><gom:speed>0.673</gom:speed></extensions></trkpt>
   <trkpt lat="59.0671285635" lon="29.9663157504"><ele>96.706</ele><time>2026-04-25T12:16:45.000Z</time><hdop>3.625</hdop><vdop>3.625</vdop><extensions><gom:speed>0.799</gom:speed></extensions></trkpt>
   <trkpt lat="59.0671194691" lon="29.9663142417"><ele>96.513</ele><time>2026-04-25T12:16:46.000Z</time><hdop>3.5</hdop><vdop>3.5</vdop><extensions><gom:speed>1.062</gom:speed></extensions></trkpt>
   <trkpt lat="59.0671081536" lon="29.9663124815"><ele>96.343</ele><time>2026-04-25T12:16:47.000Z</time><hdop>3.375</hdop><vdop>3.375</vdop><extensions><gom:speed>1.085</gom:speed></extensions></trkpt>
   <trkpt lat="59.06709776" lon="29.9663119786"><ele>96.27</ele><time>2026-04-25T12:16:48.000Z</time><hdop>3.5</hdop><vdop>3.5</vdop><extensions><gom:speed>0.745</gom:speed></extensions></trkpt>
   <trkpt lat="59.0670900906" lon="29.9663111404"><ele>96.237</ele><time>2026-04-25T12:16:49.000Z</time><hdop>3.312</hdop><vdop>3.312</vdop><extensions><gom:speed>0.702</gom:speed></extensions></trkpt>
   <trkpt lat="59.0670823373" lon="29.9663126491"><ele>96.202</ele><time>2026-04-25T12:16:50.000Z</time><hdop>3.0</hdop><vdop>3.0</vdop><extensions><gom:speed>0.553</gom:speed></extensions></trkpt>
   <trkpt lat="59.067076009" lon="29.9663150799"><ele>96.173</ele><time>2026-04-25T12:16:51.000Z</time><hdop>3.0</hdop><vdop>3.0</vdop><extensions><gom:speed>0.424</gom:speed></extensions></trkpt>
   <trkpt lat="59.0670701835" lon="29.9663169239"><ele>96.109</ele><time>2026-04-25T12:16:52.000Z</time><hdop>3.0</hdop><vdop>3.0</vdop><extensions><gom:speed>0.375</gom:speed></extensions></trkpt>
   <trkpt lat="59.0670655735" lon="29.9663245514"><ele>96.146</ele><time>2026-04-25T12:16:53.000Z</time><hdop>3.0</hdop><vdop>3.0</vdop><extensions><gom:speed>0.399</gom:speed></extensions></trkpt>
   <trkpt lat="59.0670655735" lon="29.9663245514"><ele>96.168</ele><time>2026-04-25T12:16:53.000Z</time><hdop>3.0</hdop><vdop>3.0</vdop><extensions><gom:speed>0.399</gom:speed></extensions></trkpt>
   <trkpt lat="59.0670605444" lon="29.9663317599"><ele>96.14</ele><time>2026-04-25T12:16:54.000Z</time><hdop>3.0</hdop><vdop>3.0</vdop><extensions><gom:speed>0.41</gom:speed></extensions></trkpt>
   <trkpt lat="59.0670547189" lon="29.9663345259"><ele>96.094</ele><time>2026-04-25T12:16:55.000Z</time><hdop>3.0</hdop><vdop>3.0</vdop><extensions><gom:speed>0.494</gom:speed></extensions></trkpt>
   <trkpt lat="59.0670478039" lon="29.9663365376"><ele>96.022</ele><time>2026-04-25T12:16:56.000Z</time><hdop>3.0</hdop><vdop>3.0</vdop><extensions><gom:speed>0.493</gom:speed></extensions></trkpt>
   <trkpt lat="59.0670408888" lon="29.9663348612"><ele>95.947</ele><time>2026-04-25T12:16:57.000Z</time><hdop>3.0</hdop><vdop>3.0</vdop><extensions><gom:speed>0.456</gom:speed></extensions></trkpt>
   <trkpt lat="59.0670332193" lon="29.9663325981"><ele>95.876</ele><time>2026-04-25T12:16:58.000Z</time><hdop>3.0</hdop><vdop>3.0</vdop><extensions><gom:speed>0.551</gom:speed></extensions></trkpt>
   <trkpt lat="59.0670231611" lon="29.9663302511"><ele>95.885</ele><time>2026-04-25T12:16:59.000Z</time><hdop>3.0</hdop><vdop>3.0</vdop><extensions><gom:speed>0.989</gom:speed></extensions></trkpt>
   <trkpt lat="59.0670123065" lon="29.9663236294"><ele>95.947</ele><time>2026-04-25T12:17:00.000Z</time><hdop>3.0</hdop><vdop>3.0</vdop><extensions><gom:speed>1.116</gom:speed></extensions></trkpt>
   <trkpt lat="59.0670002785" lon="29.9663198576"><ele>95.978</ele><time>2026-04-25T12:17:01.000Z</time><hdop>3.0</hdop><vdop>3.0</vdop><extensions><gom:speed>0.685</gom:speed></extensions></trkpt>
   <trkpt lat="59.0669924833" lon="29.9663169239"><ele>96.1</ele><time>2026-04-25T12:17:02.000Z</time><hdop>3.0</hdop><vdop>3.0</vdop><extensions><gom:speed>0.446</gom:speed></extensions></trkpt>
   <trkpt lat="59.0669832213" lon="29.9663143255"><ele>96.195</ele><time>2026-04-25T12:17:03.000Z</time><hdop>3.0</hdop><vdop>3.0</vdop><extensions><gom:speed>0.613</gom:speed></extensions></trkpt>
   <trkpt lat="59.0669751747" lon="29.9663088773"><ele>96.318</ele><time>2026-04-25T12:17:04.000Z</time><hdop>3.0</hdop><vdop>3.0</vdop><extensions><gom:speed>0.674</gom:speed></extensions></trkpt>
   <trkpt lat="59.0669663318" lon="29.9663031776"><ele>96.283</ele><time>2026-04-25T12:17:05.000Z</time><hdop>3.0</hdop><vdop>3.0</vdop><extensions><gom:speed>0.523</gom:speed></extensions></trkpt>
   <trkpt lat="59.0669571536" lon="29.9662994895"><ele>96.171</ele><time>2026-04-25T12:17:06.000Z</time><hdop>3.0</hdop><vdop>3.0</vdop><extensions><gom:speed>0.559</gom:speed></extensions></trkpt>
   <trkpt lat="59.0669465086" lon="29.9663002439"><ele>96.063</ele><time>2026-04-25T12:17:07.000Z</time><hdop>3.0</hdop><vdop>3.0</vdop><extensions><gom:speed>0.575</gom:speed></extensions></trkpt>
   <trkpt lat="59.0669367017" lon="29.9662972264"><ele>95.961</ele><time>2026-04-25T12:17:08.000Z</time><hdop>3.0</hdop><vdop>3.0</vdop><extensions><gom:speed>0.631</gom:speed></extensions></trkpt>
   <trkpt lat="59.0669267273" lon="29.9662981484"><ele>95.927</ele><time>2026-04-25T12:17:09.000Z</time><hdop>3.0</hdop><vdop>3.0</vdop><extensions><gom:speed>0.812</gom:speed></extensions></trkpt>
   <trkpt lat="59.0669173814" lon="29.9663023394"><ele>95.991</ele><time>2026-04-25T12:17:10.000Z</time><hdop>3.0</hdop><vdop>3.0</vdop><extensions><gom:speed>0.856</gom:speed></extensions></trkpt>
   <trkpt lat="59.0669099635" lon="29.966306698"><ele>95.975</ele><time>2026-04-25T12:17:11.000Z</time><hdop>3.0</hdop><vdop>3.0</vdop><extensions><gom:speed>0.624</gom:speed></extensions></trkpt>
   <trkpt lat="59.0669099635" lon="29.966306698"><ele>95.966</ele><time>2026-04-25T12:17:12.000Z</time><hdop>3.0</hdop><vdop>3.0</vdop><extensions><gom:speed>0.0</gom:speed></extensions></trkpt>
   <trkpt lat="59.0669048086" lon="29.9663087096"><ele>95.946</ele><time>2026-04-25T12:17:13.000Z</time><hdop>3.0</hdop><vdop>3.0</vdop><extensions><gom:speed>0.65</gom:speed></extensions></trkpt>
   <trkpt lat="59.0669048086" lon="29.9663087096"><ele>95.935</ele><time>2026-04-25T12:17:13.000Z</time><hdop>3.0</hdop><vdop>3.0</vdop><extensions><gom:speed>0.65</gom:speed></extensions></trkpt>
   <trkpt lat="59.0668970134" lon="29.9663109728"><ele>95.973</ele><time>2026-04-25T12:17:14.000Z</time><hdop>3.0</hdop><vdop>3.0</vdop><extensions><gom:speed>0.426</gom:speed></extensions></trkpt>
   <trkpt lat="59.0668970134" lon="29.9663109728"><ele>95.996</ele><time>2026-04-25T12:17:15.000Z</time><hdop>3.0</hdop><vdop>3.0</vdop><extensions><gom:speed>0.0</gom:speed></extensions></trkpt>
   <trkpt lat="59.0668970134" lon="29.9663109728"><ele>96.01</ele><time>2026-04-25T12:17:16.000Z</time><hdop>3.0</hdop><vdop>3.0</vdop><extensions><gom:speed>0.0</gom:speed></extensions></trkpt>
   <trkpt lat="59.0668970134" lon="29.9663109728"><ele>96.018</ele><time>2026-04-25T12:17:17.000Z</time><hdop>3.0</hdop><vdop>3.0</vdop><extensions><gom:speed>0.0</gom:speed></extensions></trkpt>
   <trkpt lat="59.0668970134" lon="29.9663109728"><ele>96.023</ele><time>2026-04-25T12:17:18.000Z</time><hdop>3.0</hdop><vdop>3.0</vdop><extensions><gom:speed>0.0</gom:speed></extensions></trkpt>
   <trkpt lat="59.0668859074" lon="29.9663125653"><ele>96.106</ele><time>2026-04-25T12:17:19.000Z</time><hdop>3.0</hdop><vdop>3.0</vdop><extensions><gom:speed>0.706</gom:speed></extensions></trkpt>
   <trkpt lat="59.066875891" lon="29.9663087935"><ele>96.139</ele><time>2026-04-25T12:17:20.000Z</time><hdop>3.0</hdop><vdop>3.0</vdop><extensions><gom:speed>0.733</gom:speed></extensions></trkpt>
   <trkpt lat="59.0668666709" lon="29.9663065303"><ele>96.118</ele><time>2026-04-25T12:17:21.000Z</time><hdop>3.0</hdop><vdop>3.0</vdop><extensions><gom:speed>0.696</gom:speed></extensions></trkpt>
   <trkpt lat="59.066857828" lon="29.9663021718"><ele>96.138</ele><time>2026-04-25T12:17:22.000Z</time><hdop>3.0</hdop><vdop>3.0</vdop><extensions><gom:speed>0.721</gom:speed></extensions></trkpt>
   <trkpt lat="59.0668465125" lon="29.9662937899"><ele>96.24</ele><time>2026-04-25T12:17:23.000Z</time><hdop>3.0</hdop><vdop>3.0</vdop><extensions><gom:speed>0.819</gom:speed></extensions></trkpt>
   <trkpt lat="59.0668377115" lon="29.966288174"><ele>96.386</ele><time>2026-04-25T12:17:24.000Z</time><hdop>3.0</hdop><vdop>3.0</vdop><extensions><gom:speed>0.679</gom:speed></extensions></trkpt>
   <trkpt lat="59.0668293715" lon="29.9662842345"><ele>96.516</ele><time>2026-04-25T12:17:25.000Z</time><hdop>3.062</hdop><vdop>3.062</vdop><extensions><gom:speed>0.656</gom:speed></extensions></trkpt>
   <trkpt lat="59.066821702" lon="29.9662795406"><ele>96.57</ele><time>2026-04-25T12:17:26.000Z</time><hdop>3.0</hdop><vdop>3.0</vdop><extensions><gom:speed>0.603</gom:speed></extensions></trkpt>
   <trkpt lat="59.0668129429" lon="29.9662766908"><ele>96.698</ele><time>2026-04-25T12:17:27.000Z</time><hdop>3.0</hdop><vdop>3.0</vdop><extensions><gom:speed>0.732</gom:speed></extensions></trkpt>
   <trkpt lat="59.0668002024" lon="29.9662778642"><ele>96.775</ele><time>2026-04-25T12:17:28.000Z</time><hdop>3.0</hdop><vdop>3.0</vdop><extensions><gom:speed>0.641</gom:speed></extensions></trkpt>
   <trkpt lat="59.0667893479" lon="29.9662802112"><ele>96.828</ele><time>2026-04-25T12:17:29.000Z</time><hdop>3.0</hdop><vdop>3.0</vdop><extensions><gom:speed>0.544</gom:speed></extensions></trkpt>
   <trkpt lat="59.066781427" lon="29.9662832287"><ele>96.996</ele><time>2026-04-25T12:17:30.000Z</time><hdop>3.0</hdop><vdop>3.0</vdop><extensions><gom:speed>0.458</gom:speed></extensions></trkpt>
   <trkpt lat="59.066772626" lon="29.9662808817"><ele>97.086</ele><time>2026-04-25T12:17:31.000Z</time><hdop>3.0</hdop><vdop>3.0</vdop><extensions><gom:speed>0.386</gom:speed></extensions></trkpt>
   <trkpt lat="59.0667652499" lon="29.9662790377"><ele>97.198</ele><time>2026-04-25T12:17:32.000Z</time><hdop>3.0</hdop><vdop>3.0</vdop><extensions><gom:speed>0.708</gom:speed></extensions></trkpt>
   <trkpt lat="59.0667570356" lon="29.9662794568"><ele>97.363</ele><time>2026-04-25T12:17:33.000Z</time><hdop>3.062</hdop><vdop>3.062</vdop><extensions><gom:speed>0.5</gom:speed></extensions></trkpt>
   <trkpt lat="59.0667570356" lon="29.9662794568"><ele>97.462</ele><time>2026-04-25T12:17:33.000Z</time><hdop>3.062</hdop><vdop>3.062</vdop><extensions><gom:speed>0.5</gom:speed></extensions></trkpt>
   <trkpt lat="59.0667471869" lon="29.9662823905"><ele>97.558</ele><time>2026-04-25T12:17:34.000Z</time><hdop>3.0</hdop><vdop>3.0</vdop><extensions><gom:speed>0.409</gom:speed></extensions></trkpt>
   <trkpt lat="59.0667371286" lon="29.9662877549"><ele>97.686</ele><time>2026-04-25T12:17:35.000Z</time><hdop>3.0</hdop><vdop>3.0</vdop><extensions><gom:speed>0.644</gom:speed></extensions></trkpt>
   <trkpt lat="59.0667261064" lon="29.9662888445"><ele>97.818</ele><time>2026-04-25T12:17:36.000Z</time><hdop>3.0</hdop><vdop>3.0</vdop><extensions><gom:speed>0.675</gom:speed></extensions></trkpt>
   <trkpt lat="59.0667167187" lon="29.9662895151"><ele>97.98</ele><time>2026-04-25T12:17:37.000Z</time><hdop>3.0</hdop><vdop>3.0</vdop><extensions><gom:speed>0.593</gom:speed></extensions></trkpt>
   <trkpt lat="59.0667100132" lon="29.9662827257"><ele>98.128</ele><time>2026-04-25T12:17:38.000Z</time><hdop>3.0</hdop><vdop>3.0</vdop><extensions><gom:speed>0.773</gom:speed></extensions></trkpt>
   <trkpt lat="59.0667031819" lon="29.9662745953"><ele>98.316</ele><time>2026-04-25T12:17:39.000Z</time><hdop>3.187</hdop><vdop>3.187</vdop><extensions><gom:speed>0.705</gom:speed></extensions></trkpt>
   <trkpt lat="59.0666953448" lon="29.966268225"><ele>98.465</ele><time>2026-04-25T12:17:40.000Z</time><hdop>3.312</hdop><vdop>3.312</vdop><extensions><gom:speed>0.795</gom:speed></extensions></trkpt>
   <trkpt lat="59.0666862086" lon="29.9662606813"><ele>98.598</ele><time>2026-04-25T12:17:41.000Z</time><hdop>3.187</hdop><vdop>3.187</vdop><extensions><gom:speed>0.975</gom:speed></extensions></trkpt>
   <trkpt lat="59.066671205" lon="29.9662568257"><ele>98.763</ele><time>2026-04-25T12:17:42.000Z</time><hdop>3.125</hdop><vdop>3.125</vdop><extensions><gom:speed>0.718</gom:speed></extensions></trkpt>
   <trkpt lat="59.066660518" lon="29.9662552331"><ele>98.884</ele><time>2026-04-25T12:17:43.000Z</time><hdop>3.0</hdop><vdop>3.0</vdop><extensions><gom:speed>0.67</gom:speed></extensions></trkpt>
   <trkpt lat="59.0666520104" lon="29.9662528862"><ele>98.935</ele><time>2026-04-25T12:17:44.000Z</time><hdop>3.0</hdop><vdop>3.0</vdop><extensions><gom:speed>0.638</gom:speed></extensions></trkpt>
   <trkpt lat="59.0666396471" lon="29.9662477732"><ele>99.005</ele><time>2026-04-25T12:17:45.000Z</time><hdop>3.0</hdop><vdop>3.0</vdop><extensions><gom:speed>0.916</gom:speed></extensions></trkpt>
   <trkpt lat="59.0666290859" lon="29.9662459292"><ele>99.065</ele><time>2026-04-25T12:17:46.000Z</time><hdop>3.062</hdop><vdop>3.062</vdop><extensions><gom:speed>0.918</gom:speed></extensions></trkpt>
   <trkpt lat="59.0666185666" lon="29.9662409839"><ele>99.16</ele><time>2026-04-25T12:17:47.000Z</time><hdop>3.0</hdop><vdop>3.0</vdop><extensions><gom:speed>0.732</gom:speed></extensions></trkpt>
   <trkpt lat="59.0666106038" lon="29.9662352004"><ele>99.241</ele><time>2026-04-25T12:17:48.000Z</time><hdop>3.0</hdop><vdop>3.0</vdop><extensions><gom:speed>0.732</gom:speed></extensions></trkpt>
   <trkpt lat="59.066604485" lon="29.9662304227"><ele>99.343</ele><time>2026-04-25T12:17:49.000Z</time><hdop>3.0</hdop><vdop>3.0</vdop><extensions><gom:speed>0.463</gom:speed></extensions></trkpt>
   <trkpt lat="59.0665986596" lon="29.9662285786"><ele>99.407</ele><time>2026-04-25T12:17:50.000Z</time><hdop>3.0</hdop><vdop>3.0</vdop><extensions><gom:speed>0.403</gom:speed></extensions></trkpt>
   <trkpt lat="59.0665916607" lon="29.9662270699"><ele>99.45</ele><time>2026-04-25T12:17:51.000Z</time><hdop>3.0</hdop><vdop>3.0</vdop><extensions><gom:speed>0.503</gom:speed></extensions></trkpt>
   <trkpt lat="59.0665846618" lon="29.9662262317"><ele>99.518</ele><time>2026-04-25T12:17:52.000Z</time><hdop>3.0</hdop><vdop>3.0</vdop><extensions><gom:speed>0.513</gom:speed></extensions></trkpt>
   <trkpt lat="59.0665769505" lon="29.9662227951"><ele>99.614</ele><time>2026-04-25T12:17:53.000Z</time><hdop>3.0</hdop><vdop>3.0</vdop><extensions><gom:speed>0.71</gom:speed></extensions></trkpt>
   <trkpt lat="59.0665769505" lon="29.9662227951"><ele>99.672</ele><time>2026-04-25T12:17:53.000Z</time><hdop>3.0</hdop><vdop>3.0</vdop><extensions><gom:speed>0.71</gom:speed></extensions></trkpt>
   <trkpt lat="59.066569742" lon="29.9662172631"><ele>99.718</ele><time>2026-04-25T12:17:54.000Z</time><hdop>3.0</hdop><vdop>3.0</vdop><extensions><gom:speed>0.681</gom:speed></extensions></trkpt>
   <trkpt lat="59.0665616954" lon="29.9662133236"><ele>99.743</ele><time>2026-04-25T12:17:55.000Z</time><hdop>3.0</hdop><vdop>3.0</vdop><extensions><gom:speed>0.638</gom:speed></extensions></trkpt>
   <trkpt lat="59.0665540679" lon="29.9662145809"><ele>99.792</ele><time>2026-04-25T12:17:56.000Z</time><hdop>3.0</hdop><vdop>3.0</vdop><extensions><gom:speed>0.62</gom:speed></extensions></trkpt>
   <trkpt lat="59.066547069" lon="29.9662189395"><ele>99.827</ele><time>2026-04-25T12:17:57.000Z</time><hdop>3.0</hdop><vdop>3.0</vdop><extensions><gom:speed>0.431</gom:speed></extensions></trkpt>
   <trkpt lat="59.066542878" lon="29.9662188556"><ele>99.849</ele><time>2026-04-25T12:17:58.000Z</time><hdop>3.0</hdop><vdop>3.0</vdop><extensions><gom:speed>0.271</gom:speed></extensions></trkpt>
   <trkpt lat="59.0665381003" lon="29.9662199453"><ele>99.854</ele><time>2026-04-25T12:17:59.000Z</time><hdop>3.0</hdop><vdop>3.0</vdop><extensions><gom:speed>0.419</gom:speed></extensions></trkpt>
   <trkpt lat="59.0665323168" lon="29.9662188556"><ele>99.86</ele><time>2026-04-25T12:18:00.000Z</time><hdop>3.0</hdop><vdop>3.0</vdop><extensions><gom:speed>0.714</gom:speed></extensions></trkpt>
   <trkpt lat="59.0665270781" lon="29.9662162572"><ele>99.885</ele><time>2026-04-25T12:18:01.000Z</time><hdop>3.0</hdop><vdop>3.0</vdop><extensions><gom:speed>0.483</gom:speed></extensions></trkpt>
   <trkpt lat="59.0665226357" lon="29.9662132398"><ele>99.776</ele><time>2026-04-25T12:18:02.000Z</time><hdop>3.0</hdop><vdop>3.0</vdop><extensions><gom:speed>0.577</gom:speed></extensions></trkpt>
   <trkpt lat="59.0665163074" lon="29.9662098032"><ele>99.65</ele><time>2026-04-25T12:18:03.000Z</time><hdop>3.062</hdop><vdop>3.062</vdop><extensions><gom:speed>0.795</gom:speed></extensions></trkpt>
   <trkpt lat="59.0665086798" lon="29.96620293"><ele>99.541</ele><time>2026-04-25T12:18:04.000Z</time><hdop>3.125</hdop><vdop>3.125</vdop><extensions><gom:speed>0.899</gom:speed></extensions></trkpt>
   <trkpt lat="59.0665008428" lon="29.9661952187"><ele>99.447</ele><time>2026-04-25T12:18:05.000Z</time><hdop>3.125</hdop><vdop>3.125</vdop><extensions><gom:speed>0.841</gom:speed></extensions></trkpt>
   <trkpt lat="59.0664949335" lon="29.9661863339"><ele>99.349</ele><time>2026-04-25T12:18:06.000Z</time><hdop>3.0</hdop><vdop>3.0</vdop><extensions><gom:speed>0.548</gom:speed></extensions></trkpt>
   <trkpt lat="59.0664889824" lon="29.9661802151"><ele>99.315</ele><time>2026-04-25T12:18:07.000Z</time><hdop>3.0</hdop><vdop>3.0</vdop><extensions><gom:speed>0.553</gom:speed></extensions></trkpt>
   <trkpt lat="59.0664839532" lon="29.9661751021"><ele>99.236</ele><time>2026-04-25T12:18:08.000Z</time><hdop>3.0</hdop><vdop>3.0</vdop><extensions><gom:speed>0.269</gom:speed></extensions></trkpt>
   <trkpt lat="59.0664800556" lon="29.9661707435"><ele>99.123</ele><time>2026-04-25T12:18:09.000Z</time><hdop>3.0</hdop><vdop>3.0</vdop><extensions><gom:speed>0.596</gom:speed></extensions></trkpt>
   <trkpt lat="59.0664766191" lon="29.9661594279"><ele>99.111</ele><time>2026-04-25T12:18:10.000Z</time><hdop>3.0</hdop><vdop>3.0</vdop><extensions><gom:speed>0.612</gom:speed></extensions></trkpt>
   <trkpt lat="59.0664728053" lon="29.9661503755"><ele>99.697</ele><time>2026-04-25T12:18:11.000Z</time><hdop>2.25</hdop><vdop>2.25</vdop><extensions><gom:speed>0.744</gom:speed></extensions></trkpt>
   <trkpt lat="59.0664663931" lon="29.9661502079"><ele>100.05</ele><time>2026-04-25T12:18:12.000Z</time><hdop>2.312</hdop><vdop>2.312</vdop><extensions><gom:speed>0.601</gom:speed></extensions></trkpt>
   <trkpt lat="59.066453024" lon="29.9661491182"><ele>100.279</ele><time>2026-04-25T12:18:13.000Z</time><hdop>2.375</hdop><vdop>2.375</vdop><extensions><gom:speed>0.604</gom:speed></extensions></trkpt>
   <trkpt lat="59.066453024" lon="29.9661491182"><ele>100.415</ele><time>2026-04-25T12:18:13.000Z</time><hdop>2.375</hdop><vdop>2.375</vdop><extensions><gom:speed>0.604</gom:speed></extensions></trkpt>
   <trkpt lat="59.0664542813" lon="29.9661537283"><ele>100.481</ele><time>2026-04-25T12:18:14.000Z</time><hdop>2.562</hdop><vdop>2.562</vdop><extensions><gom:speed>0.653</gom:speed></extensions></trkpt>
   <trkpt lat="59.0664472405" lon="29.9661628645"><ele>100.521</ele><time>2026-04-25T12:18:15.000Z</time><hdop>2.625</hdop><vdop>2.625</vdop><extensions><gom:speed>0.643</gom:speed></extensions></trkpt>
   <trkpt lat="59.0664324045" lon="29.9661688995"><ele>99.562</ele><time>2026-04-25T12:18:16.000Z</time><hdop>3.0</hdop><vdop>3.0</vdop><extensions><gom:speed>0.799</gom:speed></extensions></trkpt>
   <trkpt lat="59.0664207956" lon="29.9661761079"><ele>98.923</ele><time>2026-04-25T12:18:17.000Z</time><hdop>3.0</hdop><vdop>3.0</vdop><extensions><gom:speed>0.748</gom:speed></extensions></trkpt>
   <trkpt lat="59.0664130842" lon="29.9661787901"><ele>98.45</ele><time>2026-04-25T12:18:18.000Z</time><hdop>3.0</hdop><vdop>3.0</vdop><extensions><gom:speed>0.467</gom:speed></extensions></trkpt>
   <trkpt lat="59.0664033612" lon="29.9661911954"><ele>98.102</ele><time>2026-04-25T12:18:19.000Z</time><hdop>3.0</hdop><vdop>3.0</vdop><extensions><gom:speed>0.512</gom:speed></extensions></trkpt>
   <trkpt lat="59.0663972424" lon="29.9661984038"><ele>97.836</ele><time>2026-04-25T12:18:20.000Z</time><hdop>3.0</hdop><vdop>3.0</vdop><extensions><gom:speed>0.346</gom:speed></extensions></trkpt>
   <trkpt lat="59.0663916685" lon="29.9662045226"><ele>97.642</ele><time>2026-04-25T12:18:21.000Z</time><hdop>3.0</hdop><vdop>3.0</vdop><extensions><gom:speed>0.423</gom:speed></extensions></trkpt>
   <trkpt lat="59.0663865974" lon="29.9662074563"><ele>97.503</ele><time>2026-04-25T12:18:22.000Z</time><hdop>3.0</hdop><vdop>3.0</vdop><extensions><gom:speed>0.452</gom:speed></extensions></trkpt>
   <trkpt lat="59.0663782155" lon="29.9662180174"><ele>97.508</ele><time>2026-04-25T12:18:23.000Z</time><hdop>3.0</hdop><vdop>3.0</vdop><extensions><gom:speed>0.568</gom:speed></extensions></trkpt>
   <trkpt lat="59.0663722225" lon="29.9662185204"><ele>97.445</ele><time>2026-04-25T12:18:24.000Z</time><hdop>3.0</hdop><vdop>3.0</vdop><extensions><gom:speed>0.468</gom:speed></extensions></trkpt>
   <trkpt lat="59.066366858" lon="29.9662180174"><ele>97.381</ele><time>2026-04-25T12:18:25.000Z</time><hdop>3.0</hdop><vdop>3.0</vdop><extensions><gom:speed>0.42</gom:speed></extensions></trkpt>
   <trkpt lat="59.0663609488" lon="29.9662192747"><ele>97.357</ele><time>2026-04-25T12:18:26.000Z</time><hdop>3.0</hdop><vdop>3.0</vdop><extensions><gom:speed>0.657</gom:speed></extensions></trkpt>
   <trkpt lat="59.0663537404" lon="29.9662190233"><ele>97.332</ele><time>2026-04-25T12:18:27.000Z</time><hdop>3.0</hdop><vdop>3.0</vdop><extensions><gom:speed>0.734</gom:speed></extensions></trkpt>
   <trkpt lat="59.0663430954" lon="29.9662187718"><ele>97.281</ele><time>2026-04-25T12:18:28.000Z</time><hdop>3.0</hdop><vdop>3.0</vdop><extensions><gom:speed>0.611</gom:speed></extensions></trkpt>
   <trkpt lat="59.0663356355" lon="29.9662161734"><ele>97.215</ele><time>2026-04-25T12:18:29.000Z</time><hdop>3.0</hdop><vdop>3.0</vdop><extensions><gom:speed>0.603</gom:speed></extensions></trkpt>
   <trkpt lat="59.0663322408" lon="29.9662093841"><ele>97.193</ele><time>2026-04-25T12:18:30.000Z</time><hdop>3.0</hdop><vdop>3.0</vdop><extensions><gom:speed>0.697</gom:speed></extensions></trkpt>
   <trkpt lat="59.0663273374" lon="29.9662009184"><ele>97.155</ele><time>2026-04-25T12:18:31.000Z</time><hdop>3.0</hdop><vdop>3.0</vdop><extensions><gom:speed>0.615</gom:speed></extensions></trkpt>
   <trkpt lat="59.0663211348" lon="29.9661963921"><ele>97.127</ele><time>2026-04-25T12:18:32.000Z</time><hdop>3.0</hdop><vdop>3.0</vdop><extensions><gom:speed>0.615</gom:speed></extensions></trkpt>
   <trkpt lat="59.0663120823" lon="29.9661927041"><ele>97.112</ele><time>2026-04-25T12:18:33.000Z</time><hdop>3.0</hdop><vdop>3.0</vdop><extensions><gom:speed>0.546</gom:speed></extensions></trkpt>
   <trkpt lat="59.0663120823" lon="29.9661927041"><ele>97.103</ele><time>2026-04-25T12:18:33.000Z</time><hdop>3.0</hdop><vdop>3.0</vdop><extensions><gom:speed>0.546</gom:speed></extensions></trkpt>
   <trkpt lat="59.0663021078" lon="29.9661940452"><ele>97.157</ele><time>2026-04-25T12:18:34.000Z</time><hdop>3.0</hdop><vdop>3.0</vdop><extensions><gom:speed>0.473</gom:speed></extensions></trkpt>
   <trkpt lat="59.0662939774" lon="29.9661961407"><ele>97.206</ele><time>2026-04-25T12:18:35.000Z</time><hdop>3.0</hdop><vdop>3.0</vdop><extensions><gom:speed>0.648</gom:speed></extensions></trkpt>
   <trkpt lat="59.0662820751" lon="29.9661953025"><ele>97.295</ele><time>2026-04-25T12:18:36.000Z</time><hdop>3.0</hdop><vdop>3.0</vdop><extensions><gom:speed>0.966</gom:speed></extensions></trkpt>
   <trkpt lat="59.0662696699" lon="29.9661923688"><ele>97.396</ele><time>2026-04-25T12:18:37.000Z</time><hdop>3.0</hdop><vdop>3.0</vdop><extensions><gom:speed>0.986</gom:speed></extensions></trkpt>
   <trkpt lat="59.0662593601" lon="29.9661916983"><ele>97.49</ele><time>2026-04-25T12:18:38.000Z</time><hdop>3.0</hdop><vdop>3.0</vdop><extensions><gom:speed>0.508</gom:speed></extensions></trkpt>
   <trkpt lat="59.0662519002" lon="29.9661894352"><ele>97.589</ele><time>2026-04-25T12:18:39.000Z</time><hdop>3.0</hdop><vdop>3.0</vdop><extensions><gom:speed>0.699</gom:speed></extensions></trkpt>
   <trkpt lat="59.066241842" lon="29.966186753"><ele>98.554</ele><time>2026-04-25T12:18:40.000Z</time><hdop>1.0</hdop><vdop>1.0</vdop><extensions><gom:speed>0.864</gom:speed></extensions></trkpt>
   <trkpt lat="59.0662279699" lon="29.9661918659"><ele>99.163</ele><time>2026-04-25T12:18:41.000Z</time><hdop>1.0</hdop><vdop>1.0</vdop><extensions><gom:speed>0.866</gom:speed></extensions></trkpt>
   <trkpt lat="59.0662141398" lon="29.966212653"><ele>99.501</ele><time>2026-04-25T12:18:42.000Z</time><hdop>1.125</hdop><vdop>1.125</vdop><extensions><gom:speed>0.746</gom:speed></extensions></trkpt>
   <trkpt lat="59.0662026566" lon="29.9662144971"><ele>99.605</ele><time>2026-04-25T12:18:43.000Z</time><hdop>1.312</hdop><vdop>1.312</vdop><extensions><gom:speed>0.788</gom:speed></extensions></trkpt>
   <trkpt lat="59.0661944004" lon="29.9662113957"><ele>99.596</ele><time>2026-04-25T12:18:44.000Z</time><hdop>1.437</hdop><vdop>1.437</vdop><extensions><gom:speed>0.707</gom:speed></extensions></trkpt>
   <trkpt lat="59.0661840906" lon="29.9662261479"><ele>99.653</ele><time>2026-04-25T12:18:45.000Z</time><hdop>1.687</hdop><vdop>1.687</vdop><extensions><gom:speed>0.741</gom:speed></extensions></trkpt>
   <trkpt lat="59.0661758764" lon="29.966210809"><ele>99.634</ele><time>2026-04-25T12:18:46.000Z</time><hdop>2.062</hdop><vdop>2.062</vdop><extensions><gom:speed>0.742</gom:speed></extensions></trkpt>
   <trkpt lat="59.066166321" lon="29.9662170116"><ele>99.692</ele><time>2026-04-25T12:18:47.000Z</time><hdop>2.187</hdop><vdop>2.187</vdop><extensions><gom:speed>0.614</gom:speed></extensions></trkpt>
   <trkpt lat="59.0661555922" lon="29.9662066181"><ele>99.738</ele><time>2026-04-25T12:18:48.000Z</time><hdop>2.062</hdop><vdop>2.062</vdop><extensions><gom:speed>0.486</gom:speed></extensions></trkpt>
   <trkpt lat="59.0661505211" lon="29.966203852"><ele>99.742</ele><time>2026-04-25T12:18:49.000Z</time><hdop>2.0</hdop><vdop>2.0</vdop><extensions><gom:speed>0.529</gom:speed></extensions></trkpt>
   <trkpt lat="59.0661471265" lon="29.9661984876"><ele>99.741</ele><time>2026-04-25T12:18:50.000Z</time><hdop>1.75</hdop><vdop>1.75</vdop><extensions><gom:speed>0.533</gom:speed></extensions></trkpt>
   <trkpt lat="59.0661419716" lon="29.9661979009"><ele>99.749</ele><time>2026-04-25T12:18:51.000Z</time><hdop>1.5</hdop><vdop>1.5</vdop><extensions><gom:speed>0.47</gom:speed></extensions></trkpt>
   <trkpt lat="59.0661357271" lon="29.9662015889"><ele>99.755</ele><time>2026-04-25T12:18:52.000Z</time><hdop>1.437</hdop><vdop>1.437</vdop><extensions><gom:speed>0.632</gom:speed></extensions></trkpt>
   <trkpt lat="59.0661293987" lon="29.966195973"><ele>99.733</ele><time>2026-04-25T12:18:53.000Z</time><hdop>1.75</hdop><vdop>1.75</vdop><extensions><gom:speed>0.657</gom:speed></extensions></trkpt>
   <trkpt lat="59.0661293987" lon="29.966195973"><ele>99.72</ele><time>2026-04-25T12:18:53.000Z</time><hdop>1.75</hdop><vdop>1.75</vdop><extensions><gom:speed>0.657</gom:speed></extensions></trkpt>
   <trkpt lat="59.0661263812" lon="29.9661864177"><ele>99.712</ele><time>2026-04-25T12:18:54.000Z</time><hdop>2.125</hdop><vdop>2.125</vdop><extensions><gom:speed>0.733</gom:speed></extensions></trkpt>
   <trkpt lat="59.0661080249" lon="29.9661736772"><ele>99.804</ele><time>2026-04-25T12:18:55.000Z</time><hdop>2.562</hdop><vdop>2.562</vdop><extensions><gom:speed>0.771</gom:speed></extensions></trkpt>
   <trkpt lat="59.0660960388" lon="29.9661663011"><ele>99.86</ele><time>2026-04-25T12:18:56.000Z</time><hdop>2.937</hdop><vdop>2.937</vdop><extensions><gom:speed>0.793</gom:speed></extensions></trkpt>
   <trkpt lat="59.0660905486" lon="29.966157081"><ele>99.939</ele><time>2026-04-25T12:18:57.000Z</time><hdop>3.125</hdop><vdop>3.125</vdop><extensions><gom:speed>0.846</gom:speed></extensions></trkpt>
   <trkpt lat="59.0660835916" lon="29.9661455978"><ele>99.949</ele><time>2026-04-25T12:18:58.000Z</time><hdop>3.312</hdop><vdop>3.312</vdop><extensions><gom:speed>0.817</gom:speed></extensions></trkpt>
   <trkpt lat="59.0660798198" lon="29.9661319353"><ele>99.848</ele><time>2026-04-25T12:18:59.000Z</time><hdop>3.687</hdop><vdop>3.687</vdop><extensions><gom:speed>0.823</gom:speed></extensions></trkpt>
   <trkpt lat="59.0660708511" lon="29.9661270738"><ele>99.747</ele><time>2026-04-25T12:19:00.000Z</time><hdop>4.125</hdop><vdop>4.125</vdop><extensions><gom:speed>0.632</gom:speed></extensions></trkpt>
   <trkpt lat="59.066062134" lon="29.9661123217"><ele>98.382</ele><time>2026-04-25T12:19:01.000Z</time><hdop>3.0</hdop><vdop>3.0</vdop><extensions><gom:speed>0.449</gom:speed></extensions></trkpt>
   <trkpt lat="59.0660447834" lon="29.9660896905"><ele>97.603</ele><time>2026-04-25T12:19:02.000Z</time><hdop>3.0</hdop><vdop>3.0</vdop><extensions><gom:speed>0.444</gom:speed></extensions></trkpt>
   <trkpt lat="59.0660252536" lon="29.9660725914"><ele>97.096</ele><time>2026-04-25T12:19:03.000Z</time><hdop>3.0</hdop><vdop>3.0</vdop><extensions><gom:speed>0.465</gom:speed></extensions></trkpt>
   <trkpt lat="59.0660091603" lon="29.9660701607"><ele>96.796</ele><time>2026-04-25T12:19:04.000Z</time><hdop>3.0</hdop><vdop>3.0</vdop><extensions><gom:speed>0.599</gom:speed></extensions></trkpt>
   <trkpt lat="59.0659960846" lon="29.9660735134"><ele>96.656</ele><time>2026-04-25T12:19:05.000Z</time><hdop>3.0</hdop><vdop>3.0</vdop><extensions><gom:speed>0.799</gom:speed></extensions></trkpt>
   <trkpt lat="59.0659861101" lon="29.9660761118"><ele>96.599</ele><time>2026-04-25T12:19:06.000Z</time><hdop>3.0</hdop><vdop>3.0</vdop><extensions><gom:speed>0.826</gom:speed></extensions></trkpt>
   <trkpt lat="59.0659775186" lon="29.9660783749"><ele>96.583</ele><time>2026-04-25T12:19:07.000Z</time><hdop>3.0</hdop><vdop>3.0</vdop><extensions><gom:speed>0.629</gom:speed></extensions></trkpt>
   <trkpt lat="59.0659704359" lon="29.9660766986"><ele>96.598</ele><time>2026-04-25T12:19:08.000Z</time><hdop>3.0</hdop><vdop>3.0</vdop><extensions><gom:speed>0.579</gom:speed></extensions></trkpt>
   <trkpt lat="59.0659639819" lon="29.9660719209"><ele>96.639</ele><time>2026-04-25T12:19:09.000Z</time><hdop>3.0</hdop><vdop>3.0</vdop><extensions><gom:speed>0.56</gom:speed></extensions></trkpt>
   <trkpt lat="59.0659558095" lon="29.966070496"><ele>96.682</ele><time>2026-04-25T12:19:10.000Z</time><hdop>3.0</hdop><vdop>3.0</vdop><extensions><gom:speed>0.647</gom:speed></extensions></trkpt>
   <trkpt lat="59.0659476791" lon="29.9660703283"><ele>96.731</ele><time>2026-04-25T12:19:11.000Z</time><hdop>3.0</hdop><vdop>3.0</vdop><extensions><gom:speed>0.574</gom:speed></extensions></trkpt>
   <trkpt lat="59.0659373274" lon="29.9660702445"><ele>96.799</ele><time>2026-04-25T12:19:12.000Z</time><hdop>3.0</hdop><vdop>3.0</vdop><extensions><gom:speed>0.671</gom:speed></extensions></trkpt>
   <trkpt lat="59.0659259699" lon="29.9660687358"><ele>96.863</ele><time>2026-04-25T12:19:13.000Z</time><hdop>3.0</hdop><vdop>3.0</vdop><extensions><gom:speed>0.754</gom:speed></extensions></trkpt>
   <trkpt lat="59.0659259699" lon="29.9660687358"><ele>96.901</ele><time>2026-04-25T12:19:13.000Z</time><hdop>3.0</hdop><vdop>3.0</vdop><extensions><gom:speed>0.754</gom:speed></extensions></trkpt>
   <trkpt lat="59.0659186358" lon="29.9660698254"><ele>96.889</ele><time>2026-04-25T12:19:14.000Z</time><hdop>3.0</hdop><vdop>3.0</vdop><extensions><gom:speed>0.447</gom:speed></extensions></trkpt>
   <trkpt lat="59.0659097929" lon="29.966071418"><ele>96.826</ele><time>2026-04-25T12:19:15.000Z</time><hdop>3.0</hdop><vdop>3.0</vdop><extensions><gom:speed>0.68</gom:speed></extensions></trkpt>
   <trkpt lat="59.0658993574" lon="29.9660686519"><ele>96.777</ele><time>2026-04-25T12:19:16.000Z</time><hdop>3.0</hdop><vdop>3.0</vdop><extensions><gom:speed>0.723</gom:speed></extensions></trkpt>
   <trkpt lat="59.0658885447" lon="29.9660615273"><ele>96.743</ele><time>2026-04-25T12:19:17.000Z</time><hdop>3.0</hdop><vdop>3.0</vdop><extensions><gom:speed>0.762</gom:speed></extensions></trkpt>
   <trkpt lat="59.0658784026" lon="29.9660601024"><ele>96.689</ele><time>2026-04-25T12:19:18.000Z</time><hdop>3.0</hdop><vdop>3.0</vdop><extensions><gom:speed>0.594</gom:speed></extensions></trkpt>
   <trkpt lat="59.0658678834" lon="29.9660570849"><ele>96.628</ele><time>2026-04-25T12:19:19.000Z</time><hdop>3.0</hdop><vdop>3.0</vdop><extensions><gom:speed>0.648</gom:speed></extensions></trkpt>
   <trkpt lat="59.0658594176" lon="29.9660542351"><ele>96.609</ele><time>2026-04-25T12:19:20.000Z</time><hdop>3.0</hdop><vdop>3.0</vdop><extensions><gom:speed>0.493</gom:speed></extensions></trkpt>
   <trkpt lat="59.0658531731" lon="29.9660490383"><ele>96.62</ele><time>2026-04-25T12:19:21.000Z</time><hdop>3.0</hdop><vdop>3.0</vdop><extensions><gom:speed>0.451</gom:speed></extensions></trkpt>
   <trkpt lat="59.0658483535" lon="29.9660435062"><ele>96.645</ele><time>2026-04-25T12:19:22.000Z</time><hdop>3.0</hdop><vdop>3.0</vdop><extensions><gom:speed>0.352</gom:speed></extensions></trkpt>
   <trkpt lat="59.0658483535" lon="29.9660435062"><ele>96.66</ele><time>2026-04-25T12:19:23.000Z</time><hdop>3.0</hdop><vdop>3.0</vdop><extensions><gom:speed>0.0</gom:speed></extensions></trkpt>
   <trkpt lat="59.0658483535" lon="29.9660435062"><ele>96.67</ele><time>2026-04-25T12:19:24.000Z</time><hdop>3.0</hdop><vdop>3.0</vdop><extensions><gom:speed>0.0</gom:speed></extensions></trkpt>
   <trkpt lat="59.0658483535" lon="29.9660435062"><ele>96.675</ele><time>2026-04-25T12:19:25.000Z</time><hdop>3.0</hdop><vdop>3.0</vdop><extensions><gom:speed>0.0</gom:speed></extensions></trkpt>
   <trkpt lat="59.0658483535" lon="29.9660435062"><ele>96.678</ele><time>2026-04-25T12:19:26.000Z</time><hdop>3.0</hdop><vdop>3.0</vdop><extensions><gom:speed>0.0</gom:speed></extensions></trkpt>
   <trkpt lat="59.0658483535" lon="29.9660435062"><ele>96.68</ele><time>2026-04-25T12:19:27.000Z</time><hdop>3.0</hdop><vdop>3.0</vdop><extensions><gom:speed>0.0</gom:speed></extensions></trkpt>
   <trkpt lat="59.0658483535" lon="29.9660435062"><ele>96.681</ele><time>2026-04-25T12:19:28.000Z</time><hdop>3.0</hdop><vdop>3.0</vdop><extensions><gom:speed>0.0</gom:speed></extensions></trkpt>
   <trkpt lat="59.0658405164" lon="29.9660409078"><ele>96.64</ele><time>2026-04-25T12:19:29.000Z</time><hdop>3.0</hdop><vdop>3.0</vdop><extensions><gom:speed>0.667</gom:speed></extensions></trkpt>
   <trkpt lat="59.0658315478" lon="29.9660332803"><ele>96.689</ele><time>2026-04-25T12:19:30.000Z</time><hdop>3.25</hdop><vdop>3.25</vdop><extensions><gom:speed>0.633</gom:speed></extensions></trkpt>
   <trkpt lat="59.0658315478" lon="29.9660332803"><ele>96.718</ele><time>2026-04-25T12:19:31.000Z</time><hdop>3.25</hdop><vdop>3.25</vdop><extensions><gom:speed>0.0</gom:speed></extensions></trkpt>
   <trkpt lat="59.0658260157" lon="29.9660334479"><ele>96.806</ele><time>2026-04-25T12:19:32.000Z</time><hdop>3.125</hdop><vdop>3.125</vdop><extensions><gom:speed>0.218</gom:speed></extensions></trkpt>
   <trkpt lat="59.0658183044" lon="29.9660331127"><ele>96.931</ele><time>2026-04-25T12:19:33.000Z</time><hdop>3.0</hdop><vdop>3.0</vdop><extensions><gom:speed>0.495</gom:speed></extensions></trkpt>
   <trkpt lat="59.0658183044" lon="29.9660331127"><ele>97.005</ele><time>2026-04-25T12:19:33.000Z</time><hdop>3.0</hdop><vdop>3.0</vdop><extensions><gom:speed>0.495</gom:speed></extensions></trkpt>
   <trkpt lat="59.0658110121" lon="29.9660323583"><ele>97.103</ele><time>2026-04-25T12:19:34.000Z</time><hdop>3.0</hdop><vdop>3.0</vdop><extensions><gom:speed>0.545</gom:speed></extensions></trkpt>
   <trkpt lat="59.0658051867" lon="29.9660319392"><ele>97.225</ele><time>2026-04-25T12:19:35.000Z</time><hdop>3.0</hdop><vdop>3.0</vdop><extensions><gom:speed>0.277</gom:speed></extensions></trkpt>
   <trkpt lat="59.0657996547" lon="29.9660307657"><ele>97.282</ele><time>2026-04-25T12:19:36.000Z</time><hdop>3.0</hdop><vdop>3.0</vdop><extensions><gom:speed>0.26</gom:speed></extensions></trkpt>
   <trkpt lat="59.0657946674" lon="29.9660323583"><ele>97.378</ele><time>2026-04-25T12:19:37.000Z</time><hdop>3.0</hdop><vdop>3.0</vdop><extensions><gom:speed>0.341</gom:speed></extensions></trkpt>
   <trkpt lat="59.0657889258" lon="29.966034789"><ele>97.465</ele><time>2026-04-25T12:19:38.000Z</time><hdop>3.0</hdop><vdop>3.0</vdop><extensions><gom:speed>0.449</gom:speed></extensions></trkpt>
   <trkpt lat="59.0657810049" lon="29.9660398182"><ele>97.529</ele><time>2026-04-25T12:19:39.000Z</time><hdop>3.0</hdop><vdop>3.0</vdop><extensions><gom:speed>0.541</gom:speed></extensions></trkpt>
   <trkpt lat="59.0657727907" lon="29.9660436739"><ele>97.573</ele><time>2026-04-25T12:19:40.000Z</time><hdop>3.0</hdop><vdop>3.0</vdop><extensions><gom:speed>0.563</gom:speed></extensions></trkpt>
   <trkpt lat="59.065762439" lon="29.9660487868"><ele>97.58</ele><time>2026-04-25T12:19:41.000Z</time><hdop>3.0</hdop><vdop>3.0</vdop><extensions><gom:speed>0.649</gom:speed></extensions></trkpt>
   <trkpt lat="59.0657549791" lon="29.966052391"><ele>97.634</ele><time>2026-04-25T12:19:42.000Z</time><hdop>3.0</hdop><vdop>3.0</vdop><extensions><gom:speed>0.614</gom:speed></extensions></trkpt>
   <trkpt lat="59.0657471839" lon="29.9660568335"><ele>97.724</ele><time>2026-04-25T12:19:43.000Z</time><hdop>3.0</hdop><vdop>3.0</vdop><extensions><gom:speed>0.531</gom:speed></extensions></trkpt>
   <trkpt lat="59.0657386763" lon="29.966061695"><ele>97.817</ele><time>2026-04-25T12:19:44.000Z</time><hdop>3.0</hdop><vdop>3.0</vdop><extensions><gom:speed>0.7</gom:speed></extensions></trkpt>
   <trkpt lat="59.0657306716" lon="29.9660637066"><ele>97.916</ele><time>2026-04-25T12:19:45.000Z</time><hdop>3.0</hdop><vdop>3.0</vdop><extensions><gom:speed>0.545</gom:speed></extensions></trkpt>
   <trkpt lat="59.0657219963" lon="29.9660659697"><ele>97.993</ele><time>2026-04-25T12:19:46.000Z</time><hdop>3.0</hdop><vdop>3.0</vdop><extensions><gom:speed>0.767</gom:speed></extensions></trkpt>
   <trkpt lat="59.0657130696" lon="29.9660649639"><ele>98.044</ele><time>2026-04-25T12:19:47.000Z</time><hdop>3.0</hdop><vdop>3.0</vdop><extensions><gom:speed>0.679</gom:speed></extensions></trkpt>
   <trkpt lat="59.0657062803" lon="29.9660650477"><ele>98.077</ele><time>2026-04-25T12:19:48.000Z</time><hdop>3.0</hdop><vdop>3.0</vdop><extensions><gom:speed>0.457</gom:speed></extensions></trkpt>
   <trkpt lat="59.065697605" lon="29.9660684005"><ele>98.098</ele><time>2026-04-25T12:19:49.000Z</time><hdop>3.0</hdop><vdop>3.0</vdop><extensions><gom:speed>0.506</gom:speed></extensions></trkpt>
   <trkpt lat="59.0656914443" lon="29.9660674785"><ele>98.175</ele><time>2026-04-25T12:19:50.000Z</time><hdop>3.0</hdop><vdop>3.0</vdop><extensions><gom:speed>0.5</gom:speed></extensions></trkpt>
   <trkpt lat="59.0656846549" lon="29.9660595995"><ele>98.239</ele><time>2026-04-25T12:19:51.000Z</time><hdop>3.0</hdop><vdop>3.0</vdop><extensions><gom:speed>0.832</gom:speed></extensions></trkpt>
   <trkpt lat="59.0656766502" lon="29.9660466913"><ele>98.282</ele><time>2026-04-25T12:19:52.000Z</time><hdop>3.0</hdop><vdop>3.0</vdop><extensions><gom:speed>1.048</gom:speed></extensions></trkpt>
   <trkpt lat="59.065667472" lon="29.9660321907"><ele>98.315</ele><time>2026-04-25T12:19:53.000Z</time><hdop>3.0</hdop><vdop>3.0</vdop><extensions><gom:speed>1.005</gom:speed></extensions></trkpt>
   <trkpt lat="59.065667472" lon="29.9660321907"><ele>98.334</ele><time>2026-04-25T12:19:53.000Z</time><hdop>3.0</hdop><vdop>3.0</vdop><extensions><gom:speed>1.005</gom:speed></extensions></trkpt>
   <trkpt lat="59.065660096" lon="29.9660234735"><ele>98.326</ele><time>2026-04-25T12:19:54.000Z</time><hdop>3.0</hdop><vdop>3.0</vdop><extensions><gom:speed>0.712</gom:speed></extensions></trkpt>
   <trkpt lat="59.0656521751" lon="29.9660184443"><ele>98.286</ele><time>2026-04-25T12:19:55.000Z</time><hdop>3.0</hdop><vdop>3.0</vdop><extensions><gom:speed>0.865</gom:speed></extensions></trkpt>
   <trkpt lat="59.0656429969" lon="29.9660188634"><ele>98.273</ele><time>2026-04-25T12:19:56.000Z</time><hdop>3.0</hdop><vdop>3.0</vdop><extensions><gom:speed>0.605</gom:speed></extensions></trkpt>
   <trkpt lat="59.0656365009" lon="29.9660207913"><ele>98.274</ele><time>2026-04-25T12:19:57.000Z</time><hdop>3.062</hdop><vdop>3.062</vdop><extensions><gom:speed>0.398</gom:speed></extensions></trkpt>
   <trkpt lat="59.065633232" lon="29.9660247308"><ele>98.28</ele><time>2026-04-25T12:19:58.000Z</time><hdop>3.5</hdop><vdop>3.5</vdop><extensions><gom:speed>0.104</gom:speed></extensions></trkpt>
   <trkpt lat="59.06563231" lon="29.9660278321"><ele>98.348</ele><time>2026-04-25T12:19:59.000Z</time><hdop>3.25</hdop><vdop>3.25</vdop><extensions><gom:speed>0.19</gom:speed></extensions></trkpt>
   <trkpt lat="59.06563231" lon="29.9660278321"><ele>98.389</ele><time>2026-04-25T12:20:00.000Z</time><hdop>3.25</hdop><vdop>3.25</vdop><extensions><gom:speed>0.0</gom:speed></extensions></trkpt>
   <trkpt lat="59.0656274065" lon="29.9660243955"><ele>98.407</ele><time>2026-04-25T12:20:01.000Z</time><hdop>3.625</hdop><vdop>3.625</vdop><extensions><gom:speed>0.646</gom:speed></extensions></trkpt>
   <trkpt lat="59.065618857" lon="29.9660217133"><ele>98.435</ele><time>2026-04-25T12:20:02.000Z</time><hdop>3.375</hdop><vdop>3.375</vdop><extensions><gom:speed>0.756</gom:speed></extensions></trkpt>
   <trkpt lat="59.0656099303" lon="29.9660183605"><ele>98.505</ele><time>2026-04-25T12:20:03.000Z</time><hdop>3.062</hdop><vdop>3.062</vdop><extensions><gom:speed>0.855</gom:speed></extensions></trkpt>
   <trkpt lat="59.0655979442" lon="29.9660130799"><ele>98.627</ele><time>2026-04-25T12:20:04.000Z</time><hdop>3.0</hdop><vdop>3.0</vdop><extensions><gom:speed>1.094</gom:speed></extensions></trkpt>
   <trkpt lat="59.0655869639" lon="29.9660077993"><ele>98.703</ele><time>2026-04-25T12:20:05.000Z</time><hdop>3.0</hdop><vdop>3.0</vdop><extensions><gom:speed>0.963</gom:speed></extensions></trkpt>
   <trkpt lat="59.0655772828" lon="29.9660041951"><ele>98.751</ele><time>2026-04-25T12:20:06.000Z</time><hdop>3.0</hdop><vdop>3.0</vdop><extensions><gom:speed>0.922</gom:speed></extensions></trkpt>
   <trkpt lat="59.0655689428" lon="29.9660041951"><ele>98.778</ele><time>2026-04-25T12:20:07.000Z</time><hdop>3.0</hdop><vdop>3.0</vdop><extensions><gom:speed>0.684</gom:speed></extensions></trkpt>
   <trkpt lat="59.0655613152" lon="29.96600562"><ele>98.857</ele><time>2026-04-25T12:20:08.000Z</time><hdop>3.0</hdop><vdop>3.0</vdop><extensions><gom:speed>0.661</gom:speed></extensions></trkpt>
   <trkpt lat="59.0655531848" lon="29.9660114874"><ele>98.906</ele><time>2026-04-25T12:20:09.000Z</time><hdop>3.0</hdop><vdop>3.0</vdop><extensions><gom:speed>0.682</gom:speed></extensions></trkpt>
   <trkpt lat="59.0655452639" lon="29.966019534"><ele>98.97</ele><time>2026-04-25T12:20:10.000Z</time><hdop>3.0</hdop><vdop>3.0</vdop><extensions><gom:speed>0.811</gom:speed></extensions></trkpt>
   <trkpt lat="59.0655375945" lon="29.9660259042"><ele>99.071</ele><time>2026-04-25T12:20:11.000Z</time><hdop>3.0</hdop><vdop>3.0</vdop><extensions><gom:speed>0.736</gom:speed></extensions></trkpt>
   <trkpt lat="59.0655303441" lon="29.9660324421"><ele>99.217</ele><time>2026-04-25T12:20:12.000Z</time><hdop>3.0</hdop><vdop>3.0</vdop><extensions><gom:speed>0.67</gom:speed></extensions></trkpt>
   <trkpt lat="59.0655242253" lon="29.9660331127"><ele>99.405</ele><time>2026-04-25T12:20:13.000Z</time><hdop>3.0</hdop><vdop>3.0</vdop><extensions><gom:speed>0.539</gom:speed></extensions></trkpt>
   <trkpt lat="59.0655242253" lon="29.9660331127"><ele>99.517</ele><time>2026-04-25T12:20:13.000Z</time><hdop>3.0</hdop><vdop>3.0</vdop><extensions><gom:speed>0.539</gom:speed></extensions></trkpt>
   <trkpt lat="59.0655182323" lon="29.9660295084"><ele>99.668</ele><time>2026-04-25T12:20:14.000Z</time><hdop>3.0</hdop><vdop>3.0</vdop><extensions><gom:speed>0.694</gom:speed></extensions></trkpt>
   <trkpt lat="59.0655127002" lon="29.966025569"><ele>99.784</ele><time>2026-04-25T12:20:15.000Z</time><hdop>3.0</hdop><vdop>3.0</vdop><extensions><gom:speed>0.569</gom:speed></extensions></trkpt>
   <trkpt lat="59.0655065395" lon="29.9660312686"><ele>99.886</ele><time>2026-04-25T12:20:16.000Z</time><hdop>3.0</hdop><vdop>3.0</vdop><extensions><gom:speed>0.555</gom:speed></extensions></trkpt>
   <trkpt lat="59.0655027257" lon="29.96603437"><ele>99.941</ele><time>2026-04-25T12:20:17.000Z</time><hdop>3.0</hdop><vdop>3.0</vdop><extensions><gom:speed>0.352</gom:speed></extensions></trkpt>
   <trkpt lat="59.0654995406" lon="29.9660383933"><ele>100.002</ele><time>2026-04-25T12:20:18.000Z</time><hdop>3.0</hdop><vdop>3.0</vdop><extensions><gom:speed>0.362</gom:speed></extensions></trkpt>
   <trkpt lat="59.0654956849" lon="29.966042668"><ele>100.061</ele><time>2026-04-25T12:20:19.000Z</time><hdop>3.0</hdop><vdop>3.0</vdop><extensions><gom:speed>0.516</gom:speed></extensions></trkpt>
   <trkpt lat="59.0654894823" lon="29.9660472781"><ele>100.111</ele><time>2026-04-25T12:20:20.000Z</time><hdop>3.0</hdop><vdop>3.0</vdop><extensions><gom:speed>0.464</gom:speed></extensions></trkpt>
   <trkpt lat="59.0654810166" lon="29.9660530616"><ele>100.34</ele><time>2026-04-25T12:20:21.000Z</time><hdop>2.125</hdop><vdop>2.125</vdop><extensions><gom:speed>1.069</gom:speed></extensions></trkpt>
   <trkpt lat="59.065471587" lon="29.9660414107"><ele>100.273</ele><time>2026-04-25T12:20:22.000Z</time><hdop>1.625</hdop><vdop>1.625</vdop><extensions><gom:speed>0.842</gom:speed></extensions></trkpt>
   <trkpt lat="59.0654701201" lon="29.9660460208"><ele>99.945</ele><time>2026-04-25T12:20:23.000Z</time><hdop>1.625</hdop><vdop>1.625</vdop><extensions><gom:speed>0.675</gom:speed></extensions></trkpt>
   <trkpt lat="59.0654625345" lon="29.9660471104"><ele>99.937</ele><time>2026-04-25T12:20:24.000Z</time><hdop>3.0</hdop><vdop>3.0</vdop><extensions><gom:speed>0.512</gom:speed></extensions></trkpt>
   <trkpt lat="59.0654563738" lon="29.9660421651"><ele>99.934</ele><time>2026-04-25T12:20:25.000Z</time><hdop>3.0</hdop><vdop>3.0</vdop><extensions><gom:speed>0.688</gom:speed></extensions></trkpt>
   <trkpt lat="59.0654492911" lon="29.9660351243"><ele>99.871</ele><time>2026-04-25T12:20:26.000Z</time><hdop>3.0</hdop><vdop>3.0</vdop><extensions><gom:speed>0.662</gom:speed></extensions></trkpt>
   <trkpt lat="59.0654412864" lon="29.9660281673"><ele>99.81</ele><time>2026-04-25T12:20:27.000Z</time><hdop>3.0</hdop><vdop>3.0</vdop><extensions><gom:speed>0.716</gom:speed></extensions></trkpt>
   <trkpt lat="59.0654330302" lon="29.9660198693"><ele>99.737</ele><time>2026-04-25T12:20:28.000Z</time><hdop>3.0</hdop><vdop>3.0</vdop><extensions><gom:speed>0.744</gom:speed></extensions></trkpt>
   <trkpt lat="59.06542293" lon="29.966017187"><ele>99.651</ele><time>2026-04-25T12:20:29.000Z</time><hdop>3.0</hdop><vdop>3.0</vdop><extensions><gom:speed>0.537</gom:speed></extensions></trkpt>
   <trkpt lat="59.06541459" lon="29.9660166841"><ele>99.638</ele><time>2026-04-25T12:20:30.000Z</time><hdop>3.0</hdop><vdop>3.0</vdop><extensions><gom:speed>0.506</gom:speed></extensions></trkpt>
   <trkpt lat="59.0654066272" lon="29.9660164327"><ele>99.704</ele><time>2026-04-25T12:20:31.000Z</time><hdop>3.25</hdop><vdop>3.25</vdop><extensions><gom:speed>0.478</gom:speed></extensions></trkpt>
   <trkpt lat="59.065400718" lon="29.966013499"><ele>99.747</ele><time>2026-04-25T12:20:32.000Z</time><hdop>3.0</hdop><vdop>3.0</vdop><extensions><gom:speed>0.392</gom:speed></extensions></trkpt>
   <trkpt lat="59.0653947249" lon="29.9660117388"><ele>99.763</ele><time>2026-04-25T12:20:33.000Z</time><hdop>3.0</hdop><vdop>3.0</vdop><extensions><gom:speed>0.316</gom:speed></extensions></trkpt>
   <trkpt lat="59.0653947249" lon="29.9660117388"><ele>99.773</ele><time>2026-04-25T12:20:33.000Z</time><hdop>3.0</hdop><vdop>3.0</vdop><extensions><gom:speed>0.316</gom:speed></extensions></trkpt>
   <trkpt lat="59.0653895281" lon="29.9660143372"><ele>99.771</ele><time>2026-04-25T12:20:34.000Z</time><hdop>3.375</hdop><vdop>3.375</vdop><extensions><gom:speed>0.272</gom:speed></extensions></trkpt>
   <trkpt lat="59.0653824873" lon="29.9660181929"><ele>99.787</ele><time>2026-04-25T12:20:35.000Z</time><hdop>3.5</hdop><vdop>3.5</vdop><extensions><gom:speed>0.571</gom:speed></extensions></trkpt>
   <trkpt lat="59.0653739378" lon="29.9660317716"><ele>99.791</ele><time>2026-04-25T12:20:36.000Z</time><hdop>3.562</hdop><vdop>3.562</vdop><extensions><gom:speed>0.793</gom:speed></extensions></trkpt>
   <trkpt lat="59.065365053" lon="29.9660423328"><ele>99.81</ele><time>2026-04-25T12:20:37.000Z</time><hdop>3.5</hdop><vdop>3.5</vdop><extensions><gom:speed>0.777</gom:speed></extensions></trkpt>
   <trkpt lat="59.0653555395" lon="29.9660485354"><ele>99.83</ele><time>2026-04-25T12:20:38.000Z</time><hdop>3.875</hdop><vdop>3.875</vdop><extensions><gom:speed>0.905</gom:speed></extensions></trkpt>
   <trkpt lat="59.065347451" lon="29.9660492059"><ele>99.851</ele><time>2026-04-25T12:20:39.000Z</time><hdop>4.125</hdop><vdop>4.125</vdop><extensions><gom:speed>0.762</gom:speed></extensions></trkpt>
   <trkpt lat="59.065341877" lon="29.966041746"><ele>99.823</ele><time>2026-04-25T12:20:40.000Z</time><hdop>3.812</hdop><vdop>3.812</vdop><extensions><gom:speed>0.742</gom:speed></extensions></trkpt>
   <trkpt lat="59.0653366383" lon="29.9660362978"><ele>99.819</ele><time>2026-04-25T12:20:41.000Z</time><hdop>3.937</hdop><vdop>3.937</vdop><extensions><gom:speed>0.489</gom:speed></extensions></trkpt>
   <trkpt lat="59.0653332856" lon="29.966029257"><ele>99.822</ele><time>2026-04-25T12:20:42.000Z</time><hdop>3.687</hdop><vdop>3.687</vdop><extensions><gom:speed>0.315</gom:speed></extensions></trkpt>
   <trkpt lat="59.0653279211" lon="29.9660239764"><ele>99.833</ele><time>2026-04-25T12:20:43.000Z</time><hdop>3.75</hdop><vdop>3.75</vdop><extensions><gom:speed>0.333</gom:speed></extensions></trkpt>
   <trkpt lat="59.0653232273" lon="29.9660160974"><ele>99.842</ele><time>2026-04-25T12:20:44.000Z</time><hdop>3.562</hdop><vdop>3.562</vdop><extensions><gom:speed>0.161</gom:speed></extensions></trkpt>
   <trkpt lat="59.065319204" lon="29.966008889"><ele>99.874</ele><time>2026-04-25T12:20:45.000Z</time><hdop>3.437</hdop><vdop>3.437</vdop><extensions><gom:speed>0.365</gom:speed></extensions></trkpt>
   <trkpt lat="59.065316396" lon="29.9659955617"><ele>99.891</ele><time>2026-04-25T12:20:46.000Z</time><hdop>3.062</hdop><vdop>3.062</vdop><extensions><gom:speed>0.548</gom:speed></extensions></trkpt>
   <trkpt lat="59.0653144682" lon="29.9659826536"><ele>99.973</ele><time>2026-04-25T12:20:47.000Z</time><hdop>3.187</hdop><vdop>3.187</vdop><extensions><gom:speed>0.595</gom:speed></extensions></trkpt>
   <trkpt lat="59.0653139234" lon="29.9659668956"><ele>100.992</ele><time>2026-04-25T12:20:48.000Z</time><hdop>1.562</hdop><vdop>1.562</vdop><extensions><gom:speed>0.76</gom:speed></extensions></trkpt>
   <trkpt lat="59.0653117441" lon="29.9659506347"><ele>101.743</ele><time>2026-04-25T12:20:49.000Z</time><hdop>2.062</hdop><vdop>2.062</vdop><extensions><gom:speed>0.66</gom:speed></extensions></trkpt>
   <trkpt lat="59.0653063377" lon="29.9659427557"><ele>102.265</ele><time>2026-04-25T12:20:50.000Z</time><hdop>2.062</hdop><vdop>2.062</vdop><extensions><gom:speed>0.664</gom:speed></extensions></trkpt>
   <trkpt lat="59.0652962795" lon="29.9659267463"><ele>102.751</ele><time>2026-04-25T12:20:51.000Z</time><hdop>2.0</hdop><vdop>2.0</vdop><extensions><gom:speed>0.624</gom:speed></extensions></trkpt>
   <trkpt lat="59.0652860116" lon="29.9659196217"><ele>103.126</ele><time>2026-04-25T12:20:52.000Z</time><hdop>2.437</hdop><vdop>2.437</vdop><extensions><gom:speed>0.609</gom:speed></extensions></trkpt>
   <trkpt lat="59.065285383" lon="29.9659133353"><ele>103.394</ele><time>2026-04-25T12:20:53.000Z</time><hdop>2.625</hdop><vdop>2.625</vdop><extensions><gom:speed>0.395</gom:speed></extensions></trkpt>
   <trkpt lat="59.065285383" lon="29.9659133353"><ele>103.553</ele><time>2026-04-25T12:20:53.000Z</time><hdop>2.625</hdop><vdop>2.625</vdop><extensions><gom:speed>0.395</gom:speed></extensions></trkpt>
   <trkpt lat="59.0652822398" lon="29.9659003433"><ele>103.66</ele><time>2026-04-25T12:20:54.000Z</time><hdop>2.25</hdop><vdop>2.25</vdop><extensions><gom:speed>0.355</gom:speed></extensions></trkpt>
   <trkpt lat="59.0652774621" lon="29.9658962362"><ele>103.761</ele><time>2026-04-25T12:20:55.000Z</time><hdop>2.0</hdop><vdop>2.0</vdop><extensions><gom:speed>0.382</gom:speed></extensions></trkpt>
   <trkpt lat="59.0652613688" lon="29.9658793047"><ele>104.015</ele><time>2026-04-25T12:20:56.000Z</time><hdop>2.125</hdop><vdop>2.125</vdop><extensions><gom:speed>0.448</gom:speed></extensions></trkpt>
   <trkpt lat="59.0652541185" lon="29.9658745271"><ele>104.166</ele><time>2026-04-25T12:20:57.000Z</time><hdop>2.0</hdop><vdop>2.0</vdop><extensions><gom:speed>0.679</gom:speed></extensions></trkpt>
   <trkpt lat="59.0652465329" lon="29.9658657261"><ele>104.251</ele><time>2026-04-25T12:20:58.000Z</time><hdop>2.312</hdop><vdop>2.312</vdop><extensions><gom:speed>0.839</gom:speed></extensions></trkpt>
   <trkpt lat="59.0652382767" lon="29.9658594396"><ele>104.208</ele><time>2026-04-25T12:20:59.000Z</time><hdop>2.625</hdop><vdop>2.625</vdop><extensions><gom:speed>0.917</gom:speed></extensions></trkpt>
   <trkpt lat="59.0652297272" lon="29.9658531532"><ele>104.127</ele><time>2026-04-25T12:21:00.000Z</time><hdop>3.062</hdop><vdop>3.062</vdop><extensions><gom:speed>0.656</gom:speed></extensions></trkpt>
   <trkpt lat="59.0652195431" lon="29.9658603616"><ele>104.083</ele><time>2026-04-25T12:21:01.000Z</time><hdop>2.75</hdop><vdop>2.75</vdop><extensions><gom:speed>0.713</gom:speed></extensions></trkpt>
   <trkpt lat="59.0652097782" lon="29.96586296"><ele>104.089</ele><time>2026-04-25T12:21:02.000Z</time><hdop>2.5</hdop><vdop>2.5</vdop><extensions><gom:speed>0.746</gom:speed></extensions></trkpt>
   <trkpt lat="59.0652006839" lon="29.9658627924"><ele>104.1</ele><time>2026-04-25T12:21:03.000Z</time><hdop>2.5</hdop><vdop>2.5</vdop><extensions><gom:speed>0.595</gom:speed></extensions></trkpt>
   <trkpt lat="59.0651880691" lon="29.9658606969"><ele>104.162</ele><time>2026-04-25T12:21:04.000Z</time><hdop>2.312</hdop><vdop>2.312</vdop><extensions><gom:speed>0.71</gom:speed></extensions></trkpt>
   <trkpt lat="59.0651815731" lon="29.9658594396"><ele>104.206</ele><time>2026-04-25T12:21:05.000Z</time><hdop>2.0</hdop><vdop>2.0</vdop><extensions><gom:speed>0.63</gom:speed></extensions></trkpt>
   <trkpt lat="59.0651780527" lon="29.9658554163"><ele>104.194</ele><time>2026-04-25T12:21:06.000Z</time><hdop>2.312</hdop><vdop>2.312</vdop><extensions><gom:speed>0.612</gom:speed></extensions></trkpt>
   <trkpt lat="59.0651731074" lon="29.9658509739"><ele>104.101</ele><time>2026-04-25T12:21:07.000Z</time><hdop>2.625</hdop><vdop>2.625</vdop><extensions><gom:speed>0.635</gom:speed></extensions></trkpt>
   <trkpt lat="59.0651684135" lon="29.9658529017"><ele>103.911</ele><time>2026-04-25T12:21:08.000Z</time><hdop>2.562</hdop><vdop>2.562</vdop><extensions><gom:speed>0.474</gom:speed></extensions></trkpt>
   <trkpt lat="59.0651650608" lon="29.9658512254"><ele>103.643</ele><time>2026-04-25T12:21:09.000Z</time><hdop>2.625</hdop><vdop>2.625</vdop><extensions><gom:speed>0.373</gom:speed></extensions></trkpt>
   <trkpt lat="59.0651563017" lon="29.9658388201"><ele>103.329</ele><time>2026-04-25T12:21:10.000Z</time><hdop>3.125</hdop><vdop>3.125</vdop><extensions><gom:speed>0.117</gom:speed></extensions></trkpt>
   <trkpt lat="59.0651562598" lon="29.965832869"><ele>103.173</ele><time>2026-04-25T12:21:11.000Z</time><hdop>2.875</hdop><vdop>2.875</vdop><extensions><gom:speed>0.408</gom:speed></extensions></trkpt>
   <trkpt lat="59.0651523203" lon="29.9658192065"><ele>102.913</ele><time>2026-04-25T12:21:12.000Z</time><hdop>2.875</hdop><vdop>2.875</vdop><extensions><gom:speed>0.476</gom:speed></extensions></trkpt>
   <trkpt lat="59.0651513564" lon="29.9658090644"><ele>102.714</ele><time>2026-04-25T12:21:13.000Z</time><hdop>2.75</hdop><vdop>2.75</vdop><extensions><gom:speed>0.8</gom:speed></extensions></trkpt>
   <trkpt lat="59.0651513564" lon="29.9658090644"><ele>102.595</ele><time>2026-04-25T12:21:13.000Z</time><hdop>2.75</hdop><vdop>2.75</vdop><extensions><gom:speed>0.8</gom:speed></extensions></trkpt>
   <trkpt lat="59.0651459919" lon="29.9657858465"><ele>102.223</ele><time>2026-04-25T12:21:14.000Z</time><hdop>2.687</hdop><vdop>2.687</vdop><extensions><gom:speed>0.752</gom:speed></extensions></trkpt>
   <trkpt lat="59.0651464529" lon="29.9657708429"><ele>101.944</ele><time>2026-04-25T12:21:15.000Z</time><hdop>2.312</hdop><vdop>2.312</vdop><extensions><gom:speed>0.525</gom:speed></extensions></trkpt>
   <trkpt lat="59.0651463272" lon="29.9657580186"><ele>101.791</ele><time>2026-04-25T12:21:16.000Z</time><hdop>2.562</hdop><vdop>2.562</vdop><extensions><gom:speed>0.483</gom:speed></extensions></trkpt>
   <trkpt lat="59.0651467463" lon="29.9657462001"><ele>101.669</ele><time>2026-04-25T12:21:17.000Z</time><hdop>2.75</hdop><vdop>2.75</vdop><extensions><gom:speed>0.389</gom:speed></extensions></trkpt>
   <trkpt lat="59.0651397893" lon="29.9657382373"><ele>101.534</ele><time>2026-04-25T12:21:18.000Z</time><hdop>3.375</hdop><vdop>3.375</vdop><extensions><gom:speed>0.405</gom:speed></extensions></trkpt>
   <trkpt lat="59.0651273841" lon="29.965729101"><ele>101.254</ele><time>2026-04-25T12:21:19.000Z</time><hdop>4.0</hdop><vdop>4.0</vdop><extensions><gom:speed>0.46</gom:speed></extensions></trkpt>
   <trkpt lat="59.0651176192" lon="29.965710577"><ele>101.193</ele><time>2026-04-25T12:21:20.000Z</time><hdop>4.625</hdop><vdop>4.625</vdop><extensions><gom:speed>0.662</gom:speed></extensions></trkpt>
   <trkpt lat="59.0651129672" lon="29.9657042906"><ele>101.157</ele><time>2026-04-25T12:21:21.000Z</time><hdop>4.937</hdop><vdop>4.937</vdop><extensions><gom:speed>0.712</gom:speed></extensions></trkpt>
   <trkpt lat="59.0651003944" lon="29.9656894546"><ele>101.036</ele><time>2026-04-25T12:21:22.000Z</time><hdop>4.687</hdop><vdop>4.687</vdop><extensions><gom:speed>0.773</gom:speed></extensions></trkpt>
   <trkpt lat="59.0650833372" lon="29.9656788934"><ele>100.823</ele><time>2026-04-25T12:21:23.000Z</time><hdop>4.687</hdop><vdop>4.687</vdop><extensions><gom:speed>0.619</gom:speed></extensions></trkpt>
   <trkpt lat="59.0650698843" lon="29.9656625487"><ele>100.887</ele><time>2026-04-25T12:21:24.000Z</time><hdop>4.437</hdop><vdop>4.437</vdop><extensions><gom:speed>0.704</gom:speed></extensions></trkpt>
   <trkpt lat="59.0650605384" lon="29.9656565976"><ele>101.033</ele><time>2026-04-25T12:21:25.000Z</time><hdop>4.187</hdop><vdop>4.187</vdop><extensions><gom:speed>0.582</gom:speed></extensions></trkpt>
   <trkpt lat="59.0650520308" lon="29.9656512332"><ele>101.073</ele><time>2026-04-25T12:21:26.000Z</time><hdop>4.0</hdop><vdop>4.0</vdop><extensions><gom:speed>0.55</gom:speed></extensions></trkpt>
   <trkpt lat="59.0650487619" lon="29.9656445276"><ele>101.138</ele><time>2026-04-25T12:21:27.000Z</time><hdop>3.875</hdop><vdop>3.875</vdop><extensions><gom:speed>0.398</gom:speed></extensions></trkpt>
   <trkpt lat="59.0650438585" lon="29.9656491377"><ele>101.065</ele><time>2026-04-25T12:21:28.000Z</time><hdop>3.875</hdop><vdop>3.875</vdop><extensions><gom:speed>0.148</gom:speed></extensions></trkpt>
   <trkpt lat="59.0650353508" lon="29.9656466231"><ele>101.021</ele><time>2026-04-25T12:21:29.000Z</time><hdop>3.625</hdop><vdop>3.625</vdop><extensions><gom:speed>0.154</gom:speed></extensions></trkpt>
   <trkpt lat="59.0650340097" lon="29.9656451144"><ele>100.963</ele><time>2026-04-25T12:21:30.000Z</time><hdop>3.562</hdop><vdop>3.562</vdop><extensions><gom:speed>0.29</gom:speed></extensions></trkpt>
   <trkpt lat="59.0650301121" lon="29.9656436894"><ele>100.912</ele><time>2026-04-25T12:21:31.000Z</time><hdop>3.125</hdop><vdop>3.125</vdop><extensions><gom:speed>0.471</gom:speed></extensions></trkpt>
   <trkpt lat="59.0650244124" lon="29.9656457011"><ele>100.952</ele><time>2026-04-25T12:21:32.000Z</time><hdop>2.562</hdop><vdop>2.562</vdop><extensions><gom:speed>0.417</gom:speed></extensions></trkpt>
   <trkpt lat="59.0650244124" lon="29.9656457011"><ele>100.976</ele><time>2026-04-25T12:21:32.000Z</time><hdop>2.562</hdop><vdop>2.562</vdop><extensions><gom:speed>0.417</gom:speed></extensions></trkpt>
   <trkpt lat="59.0650149828" lon="29.9656436056"><ele>100.914</ele><time>2026-04-25T12:21:33.000Z</time><hdop>2.437</hdop><vdop>2.437</vdop><extensions><gom:speed>0.739</gom:speed></extensions></trkpt>
   <trkpt lat="59.0650096603" lon="29.9656508141"><ele>100.904</ele><time>2026-04-25T12:21:34.000Z</time><hdop>2.25</hdop><vdop>2.25</vdop><extensions><gom:speed>0.089</gom:speed></extensions></trkpt>
   <trkpt lat="59.0650066847" lon="29.9656530772"><ele>100.847</ele><time>2026-04-25T12:21:35.000Z</time><hdop>2.375</hdop><vdop>2.375</vdop><extensions><gom:speed>0.27</gom:speed></extensions></trkpt>
   <trkpt lat="59.0650046731" lon="29.9656589445"><ele>100.819</ele><time>2026-04-25T12:21:36.000Z</time><hdop>2.812</hdop><vdop>2.812</vdop><extensions><gom:speed>0.29</gom:speed></extensions></trkpt>
   <trkpt lat="59.0649991829" lon="29.9656532448"><ele>100.847</ele><time>2026-04-25T12:21:37.000Z</time><hdop>3.187</hdop><vdop>3.187</vdop><extensions><gom:speed>0.36</gom:speed></extensions></trkpt>
   <trkpt lat="59.0649919745" lon="29.9656476289"><ele>100.829</ele><time>2026-04-25T12:21:38.000Z</time><hdop>3.437</hdop><vdop>3.437</vdop><extensions><gom:speed>0.518</gom:speed></extensions></trkpt>
   <trkpt lat="59.0649874482" lon="29.9656485509"><ele>100.817</ele><time>2026-04-25T12:21:39.000Z</time><hdop>3.875</hdop><vdop>3.875</vdop><extensions><gom:speed>0.501</gom:speed></extensions></trkpt>
   <trkpt lat="59.0649812456" lon="29.9656397499"><ele>100.692</ele><time>2026-04-25T12:21:40.000Z</time><hdop>3.937</hdop><vdop>3.937</vdop><extensions><gom:speed>0.414</gom:speed></extensions></trkpt>
   <trkpt lat="59.064977851" lon="29.9656369001"><ele>100.618</ele><time>2026-04-25T12:21:41.000Z</time><hdop>4.062</hdop><vdop>4.062</vdop><extensions><gom:speed>0.455</gom:speed></extensions></trkpt>
   <trkpt lat="59.0649728218" lon="29.9656353914"><ele>100.584</ele><time>2026-04-25T12:21:42.000Z</time><hdop>4.312</hdop><vdop>4.312</vdop><extensions><gom:speed>0.499</gom:speed></extensions></trkpt>
   <trkpt lat="59.0649674993" lon="29.9656359781"><ele>100.504</ele><time>2026-04-25T12:21:43.000Z</time><hdop>4.625</hdop><vdop>4.625</vdop><extensions><gom:speed>0.511</gom:speed></extensions></trkpt>
   <trkpt lat="59.0649629312" lon="29.9656315357"><ele>100.386</ele><time>2026-04-25T12:21:44.000Z</time><hdop>4.687</hdop><vdop>4.687</vdop><extensions><gom:speed>0.553</gom:speed></extensions></trkpt>
   <trkpt lat="59.0649569381" lon="29.9656260036"><ele>100.34</ele><time>2026-04-25T12:21:45.000Z</time><hdop>4.312</hdop><vdop>4.312</vdop><extensions><gom:speed>0.367</gom:speed></extensions></trkpt>
   <trkpt lat="59.064950987" lon="29.9656202201"><ele>100.385</ele><time>2026-04-25T12:21:46.000Z</time><hdop>4.062</hdop><vdop>4.062</vdop><extensions><gom:speed>0.422</gom:speed></extensions></trkpt>
   <trkpt lat="59.0649439881" lon="29.9656217289"><ele>100.434</ele><time>2026-04-25T12:21:47.000Z</time><hdop>4.187</hdop><vdop>4.187</vdop><extensions><gom:speed>0.585</gom:speed></extensions></trkpt>
   <trkpt lat="59.064938456" lon="29.9656203878"><ele>100.461</ele><time>2026-04-25T12:21:48.000Z</time><hdop>3.937</hdop><vdop>3.937</vdop><extensions><gom:speed>0.679</gom:speed></extensions></trkpt>
   <trkpt lat="59.0649314571" lon="29.965621645"><ele>100.431</ele><time>2026-04-25T12:21:49.000Z</time><hdop>3.75</hdop><vdop>3.75</vdop><extensions><gom:speed>0.256</gom:speed></extensions></trkpt>
   <trkpt lat="59.0649289006" lon="29.9656302784"><ele>100.405</ele><time>2026-04-25T12:21:50.000Z</time><hdop>4.0</hdop><vdop>4.0</vdop><extensions><gom:speed>0.664</gom:speed></extensions></trkpt>
   <trkpt lat="59.0649210217" lon="29.9656349723"><ele>100.386</ele><time>2026-04-25T12:21:51.000Z</time><hdop>3.875</hdop><vdop>3.875</vdop><extensions><gom:speed>0.707</gom:speed></extensions></trkpt>
   <trkpt lat="59.0649065629" lon="29.9656247463"><ele>100.523</ele><time>2026-04-25T12:21:52.000Z</time><hdop>3.562</hdop><vdop>3.562</vdop><extensions><gom:speed>0.724</gom:speed></extensions></trkpt>
   <trkpt lat="59.0648993125" lon="29.9656244949"><ele>100.599</ele><time>2026-04-25T12:21:53.000Z</time><hdop>3.25</hdop><vdop>3.25</vdop><extensions><gom:speed>0.785</gom:speed></extensions></trkpt>
   <trkpt lat="59.0648993125" lon="29.9656244949"><ele>100.644</ele><time>2026-04-25T12:21:53.000Z</time><hdop>3.25</hdop><vdop>3.25</vdop><extensions><gom:speed>0.785</gom:speed></extensions></trkpt>
   <trkpt lat="59.0648897991" lon="29.9656250816"><ele>100.687</ele><time>2026-04-25T12:21:54.000Z</time><hdop>3.375</hdop><vdop>3.375</vdop><extensions><gom:speed>0.703</gom:speed></extensions></trkpt>
   <trkpt lat="59.0648805371" lon="29.9656337988"><ele>100.649</ele><time>2026-04-25T12:21:55.000Z</time><hdop>3.375</hdop><vdop>3.375</vdop><extensions><gom:speed>0.516</gom:speed></extensions></trkpt>
   <trkpt lat="59.0648698082" lon="29.9656272609"><ele>100.63</ele><time>2026-04-25T12:21:56.000Z</time><hdop>3.562</hdop><vdop>3.562</vdop><extensions><gom:speed>0.447</gom:speed></extensions></trkpt>
   <trkpt lat="59.0648624322" lon="29.9656260036"><ele>100.56</ele><time>2026-04-25T12:21:57.000Z</time><hdop>3.75</hdop><vdop>3.75</vdop><extensions><gom:speed>0.469</gom:speed></extensions></trkpt>
   <trkpt lat="59.0648567325" lon="29.9656274286"><ele>100.81</ele><time>2026-04-25T12:21:58.000Z</time><hdop>3.0</hdop><vdop>3.0</vdop><extensions><gom:speed>0.828</gom:speed></extensions></trkpt>
   <trkpt lat="59.064842106" lon="29.96562768"><ele>100.946</ele><time>2026-04-25T12:21:59.000Z</time><hdop>3.0</hdop><vdop>3.0</vdop><extensions><gom:speed>0.811</gom:speed></extensions></trkpt>
   <trkpt lat="59.0648219476" lon="29.9656270933"><ele>100.993</ele><time>2026-04-25T12:22:00.000Z</time><hdop>3.0</hdop><vdop>3.0</vdop><extensions><gom:speed>0.531</gom:speed></extensions></trkpt>
   <trkpt lat="59.0648031302" lon="29.9656231538"><ele>100.97</ele><time>2026-04-25T12:22:01.000Z</time><hdop>3.0</hdop><vdop>3.0</vdop><extensions><gom:speed>0.394</gom:speed></extensions></trkpt>
   <trkpt lat="59.0647887552" lon="29.9656189628"><ele>100.983</ele><time>2026-04-25T12:22:02.000Z</time><hdop>3.0</hdop><vdop>3.0</vdop><extensions><gom:speed>0.48</gom:speed></extensions></trkpt>
   <trkpt lat="59.0647807924" lon="29.9656161968"><ele>100.948</ele><time>2026-04-25T12:22:03.000Z</time><hdop>3.0</hdop><vdop>3.0</vdop><extensions><gom:speed>0.5</gom:speed></extensions></trkpt>
   <trkpt lat="59.0647709437" lon="29.9656124249"><ele>100.947</ele><time>2026-04-25T12:22:04.000Z</time><hdop>3.0</hdop><vdop>3.0</vdop><extensions><gom:speed>0.765</gom:speed></extensions></trkpt>
   <trkpt lat="59.0647709437" lon="29.9656124249"><ele>100.946</ele><time>2026-04-25T12:22:05.000Z</time><hdop>3.0</hdop><vdop>3.0</vdop><extensions><gom:speed>0.0</gom:speed></extensions></trkpt>
   <trkpt lat="59.0647659984" lon="29.9656103295"><ele>100.926</ele><time>2026-04-25T12:22:06.000Z</time><hdop>3.0</hdop><vdop>3.0</vdop><extensions><gom:speed>0.447</gom:speed></extensions></trkpt>
   <trkpt lat="59.0647575326" lon="29.9656078987"><ele>100.909</ele><time>2026-04-25T12:22:07.000Z</time><hdop>3.0</hdop><vdop>3.0</vdop><extensions><gom:speed>0.593</gom:speed></extensions></trkpt>
   <trkpt lat="59.0647482706" lon="29.9656070605"><ele>100.918</ele><time>2026-04-25T12:22:08.000Z</time><hdop>3.0</hdop><vdop>3.0</vdop><extensions><gom:speed>0.469</gom:speed></extensions></trkpt>
   <trkpt lat="59.0647409365" lon="29.9656069767"><ele>100.948</ele><time>2026-04-25T12:22:09.000Z</time><hdop>3.0</hdop><vdop>3.0</vdop><extensions><gom:speed>0.34</gom:speed></extensions></trkpt>
   <trkpt lat="59.0647409365" lon="29.9656069767"><ele>100.965</ele><time>2026-04-25T12:22:10.000Z</time><hdop>3.0</hdop><vdop>3.0</vdop><extensions><gom:speed>0.0</gom:speed></extensions></trkpt>
   <trkpt lat="59.0647409365" lon="29.9656069767"><ele>100.976</ele><time>2026-04-25T12:22:11.000Z</time><hdop>3.0</hdop><vdop>3.0</vdop><extensions><gom:speed>0.0</gom:speed></extensions></trkpt>
   <trkpt lat="59.0647409365" lon="29.9656069767"><ele>100.982</ele><time>2026-04-25T12:22:12.000Z</time><hdop>3.0</hdop><vdop>3.0</vdop><extensions><gom:speed>0.0</gom:speed></extensions></trkpt>
   <trkpt lat="59.0647409365" lon="29.9656069767"><ele>100.986</ele><time>2026-04-25T12:22:13.000Z</time><hdop>3.0</hdop><vdop>3.0</vdop><extensions><gom:speed>0.0</gom:speed></extensions></trkpt>
   <trkpt lat="59.0647409365" lon="29.9656069767"><ele>100.988</ele><time>2026-04-25T12:22:13.000Z</time><hdop>3.0</hdop><vdop>3.0</vdop><extensions><gom:speed>0.0</gom:speed></extensions></trkpt>
   <trkpt lat="59.0647409365" lon="29.9656069767"><ele>100.99</ele><time>2026-04-25T12:22:14.000Z</time><hdop>3.0</hdop><vdop>3.0</vdop><extensions><gom:speed>0.0</gom:speed></extensions></trkpt>
   <trkpt lat="59.0647345662" lon="29.965609156"><ele>101.002</ele><time>2026-04-25T12:22:15.000Z</time><hdop>3.0</hdop><vdop>3.0</vdop><extensions><gom:speed>0.197</gom:speed></extensions></trkpt>
   <trkpt lat="59.0647281541" lon="29.9656058871"><ele>101.001</ele><time>2026-04-25T12:22:16.000Z</time><hdop>3.0</hdop><vdop>3.0</vdop><extensions><gom:speed>0.289</gom:speed></extensions></trkpt>
   <trkpt lat="59.0647194788" lon="29.9656016961"><ele>100.991</ele><time>2026-04-25T12:22:17.000Z</time><hdop>3.0</hdop><vdop>3.0</vdop><extensions><gom:speed>0.452</gom:speed></extensions></trkpt>
   <trkpt lat="59.0647106359" lon="29.965595242"><ele>101.006</ele><time>2026-04-25T12:22:18.000Z</time><hdop>3.0</hdop><vdop>3.0</vdop><extensions><gom:speed>0.548</gom:speed></extensions></trkpt>
   <trkpt lat="59.0647020025" lon="29.9655852676"><ele>101.002</ele><time>2026-04-25T12:22:19.000Z</time><hdop>3.0</hdop><vdop>3.0</vdop><extensions><gom:speed>0.668</gom:speed></extensions></trkpt>
   <trkpt lat="59.0646937883" lon="29.9655769695"><ele>100.949</ele><time>2026-04-25T12:22:20.000Z</time><hdop>3.0</hdop><vdop>3.0</vdop><extensions><gom:speed>0.381</gom:speed></extensions></trkpt>
   <trkpt lat="59.0646876276" lon="29.9655705154"><ele>100.869</ele><time>2026-04-25T12:22:21.000Z</time><hdop>3.0</hdop><vdop>3.0</vdop><extensions><gom:speed>0.284</gom:speed></extensions></trkpt>
   <trkpt lat="59.0646816345" lon="29.965560541"><ele>100.688</ele><time>2026-04-25T12:22:22.000Z</time><hdop>3.0</hdop><vdop>3.0</vdop><extensions><gom:speed>0.294</gom:speed></extensions></trkpt>
   <trkpt lat="59.0646802934" lon="29.9655510694"><ele>100.547</ele><time>2026-04-25T12:22:23.000Z</time><hdop>3.0</hdop><vdop>3.0</vdop><extensions><gom:speed>0.261</gom:speed></extensions></trkpt>
   <trkpt lat="59.0646778626" lon="29.9655349762"><ele>100.396</ele><time>2026-04-25T12:22:24.000Z</time><hdop>3.437</hdop><vdop>3.437</vdop><extensions><gom:speed>0.374</gom:speed></extensions></trkpt>
   <trkpt lat="59.0646705285" lon="29.9655196373"><ele>100.261</ele><time>2026-04-25T12:22:25.000Z</time><hdop>3.75</hdop><vdop>3.75</vdop><extensions><gom:speed>0.457</gom:speed></extensions></trkpt>
   <trkpt lat="59.0646610988" lon="29.9655085732"><ele>100.166</ele><time>2026-04-25T12:22:26.000Z</time><hdop>3.375</hdop><vdop>3.375</vdop><extensions><gom:speed>0.477</gom:speed></extensions></trkpt>
   <trkpt lat="59.0646509567" lon="29.9655034602"><ele>100.106</ele><time>2026-04-25T12:22:27.000Z</time><hdop>3.125</hdop><vdop>3.125</vdop><extensions><gom:speed>0.524</gom:speed></extensions></trkpt>
   <trkpt lat="59.0646387192" lon="29.9654969223"><ele>100.065</ele><time>2026-04-25T12:22:28.000Z</time><hdop>3.0</hdop><vdop>3.0</vdop><extensions><gom:speed>0.565</gom:speed></extensions></trkpt>
   <trkpt lat="59.0646313431" lon="29.9654918094"><ele>100.006</ele><time>2026-04-25T12:22:29.000Z</time><hdop>3.0</hdop><vdop>3.0</vdop><extensions><gom:speed>0.575</gom:speed></extensions></trkpt>
   <trkpt lat="59.0646249309" lon="29.9654764705"><ele>99.969</ele><time>2026-04-25T12:22:30.000Z</time><hdop>3.0</hdop><vdop>3.0</vdop><extensions><gom:speed>0.711</gom:speed></extensions></trkpt>
   <trkpt lat="59.0646199856" lon="29.9654638138"><ele>99.933</ele><time>2026-04-25T12:22:31.000Z</time><hdop>3.0</hdop><vdop>3.0</vdop><extensions><gom:speed>0.583</gom:speed></extensions></trkpt>
   <trkpt lat="59.0646088377" lon="29.9654490617"><ele>99.859</ele><time>2026-04-25T12:22:32.000Z</time><hdop>3.0</hdop><vdop>3.0</vdop><extensions><gom:speed>0.369</gom:speed></extensions></trkpt>
   <trkpt lat="59.06460033" lon="29.9654393386"><ele>99.775</ele><time>2026-04-25T12:22:33.000Z</time><hdop>3.0</hdop><vdop>3.0</vdop><extensions><gom:speed>0.381</gom:speed></extensions></trkpt>
   <trkpt lat="59.0645885116" lon="29.9654329684"><ele>99.689</ele><time>2026-04-25T12:22:34.000Z</time><hdop>3.0</hdop><vdop>3.0</vdop><extensions><gom:speed>0.555</gom:speed></extensions></trkpt>
   <trkpt lat="59.0645772379" lon="29.9654286936"><ele>99.673</ele><time>2026-04-25T12:22:35.000Z</time><hdop>3.0</hdop><vdop>3.0</vdop><extensions><gom:speed>0.819</gom:speed></extensions></trkpt>
   <trkpt lat="59.0645772379" lon="29.9654286936"><ele>99.663</ele><time>2026-04-25T12:22:35.000Z</time><hdop>3.0</hdop><vdop>3.0</vdop><extensions><gom:speed>0.819</gom:speed></extensions></trkpt>
   <trkpt lat="59.0645662576" lon="29.9654312082"><ele>99.686</ele><time>2026-04-25T12:22:36.000Z</time><hdop>3.0</hdop><vdop>3.0</vdop><extensions><gom:speed>0.795</gom:speed></extensions></trkpt>
   <trkpt lat="59.0645579176" lon="29.965437327"><ele>99.689</ele><time>2026-04-25T12:22:37.000Z</time><hdop>3.0</hdop><vdop>3.0</vdop><extensions><gom:speed>0.544</gom:speed></extensions></trkpt>
   <trkpt lat="59.0645500386" lon="29.9654435296"><ele>99.686</ele><time>2026-04-25T12:22:38.000Z</time><hdop>3.0</hdop><vdop>3.0</vdop><extensions><gom:speed>0.726</gom:speed></extensions></trkpt>
   <trkpt lat="59.0645421596" lon="29.9654494807"><ele>99.648</ele><time>2026-04-25T12:22:39.000Z</time><hdop>3.0</hdop><vdop>3.0</vdop><extensions><gom:speed>0.559</gom:speed></extensions></trkpt>
   <trkpt lat="59.0645341549" lon="29.9654529173"><ele>99.557</ele><time>2026-04-25T12:22:40.000Z</time><hdop>3.0</hdop><vdop>3.0</vdop><extensions><gom:speed>0.813</gom:speed></extensions></trkpt>
   <trkpt lat="59.0645248929" lon="29.9654545937"><ele>99.49</ele><time>2026-04-25T12:22:41.000Z</time><hdop>3.0</hdop><vdop>3.0</vdop><extensions><gom:speed>0.784</gom:speed></extensions></trkpt>
   <trkpt lat="59.0645179778" lon="29.9654584494"><ele>99.426</ele><time>2026-04-25T12:22:42.000Z</time><hdop>3.0</hdop><vdop>3.0</vdop><extensions><gom:speed>0.543</gom:speed></extensions></trkpt>
   <trkpt lat="59.0645127392" lon="29.9654618021"><ele>99.346</ele><time>2026-04-25T12:22:43.000Z</time><hdop>3.0</hdop><vdop>3.0</vdop><extensions><gom:speed>0.457</gom:speed></extensions></trkpt>
   <trkpt lat="59.0645080872" lon="29.9654669989"><ele>99.271</ele><time>2026-04-25T12:22:44.000Z</time><hdop>3.0</hdop><vdop>3.0</vdop><extensions><gom:speed>0.357</gom:speed></extensions></trkpt>
   <trkpt lat="59.0645041896" lon="29.9654736206"><ele>99.273</ele><time>2026-04-25T12:22:45.000Z</time><hdop>3.0</hdop><vdop>3.0</vdop><extensions><gom:speed>0.418</gom:speed></extensions></trkpt>
   <trkpt lat="59.0645013398" lon="29.9654863611"><ele>99.265</ele><time>2026-04-25T12:22:46.000Z</time><hdop>3.0</hdop><vdop>3.0</vdop><extensions><gom:speed>0.508</gom:speed></extensions></trkpt>
   <trkpt lat="59.0644976098" lon="29.9654984311"><ele>99.243</ele><time>2026-04-25T12:22:47.000Z</time><hdop>3.0</hdop><vdop>3.0</vdop><extensions><gom:speed>0.53</gom:speed></extensions></trkpt>
   <trkpt lat="59.0644922035" lon="29.9655092437"><ele>99.247</ele><time>2026-04-25T12:22:48.000Z</time><hdop>3.0</hdop><vdop>3.0</vdop><extensions><gom:speed>0.488</gom:speed></extensions></trkpt>
   <trkpt lat="59.0644839892" lon="29.965513267"><ele>99.228</ele><time>2026-04-25T12:22:49.000Z</time><hdop>3.0</hdop><vdop>3.0</vdop><extensions><gom:speed>0.669</gom:speed></extensions></trkpt>
   <trkpt lat="59.0644761521" lon="29.9655175418"><ele>99.16</ele><time>2026-04-25T12:22:50.000Z</time><hdop>3.0</hdop><vdop>3.0</vdop><extensions><gom:speed>0.817</gom:speed></extensions></trkpt>
   <trkpt lat="59.0644667225" lon="29.965519302"><ele>99.091</ele><time>2026-04-25T12:22:51.000Z</time><hdop>3.0</hdop><vdop>3.0</vdop><extensions><gom:speed>0.732</gom:speed></extensions></trkpt>
   <trkpt lat="59.0644583825" lon="29.9655210622"><ele>99.081</ele><time>2026-04-25T12:22:52.000Z</time><hdop>3.0</hdop><vdop>3.0</vdop><extensions><gom:speed>0.67</gom:speed></extensions></trkpt>
   <trkpt lat="59.0644477375" lon="29.9655175418"><ele>99.089</ele><time>2026-04-25T12:22:53.000Z</time><hdop>3.0</hdop><vdop>3.0</vdop><extensions><gom:speed>0.883</gom:speed></extensions></trkpt>
   <trkpt lat="59.0644477375" lon="29.9655175418"><ele>99.093</ele><time>2026-04-25T12:22:53.000Z</time><hdop>3.0</hdop><vdop>3.0</vdop><extensions><gom:speed>0.883</gom:speed></extensions></trkpt>
   <trkpt lat="59.0644373858" lon="29.9655106686"><ele>99.145</ele><time>2026-04-25T12:22:54.000Z</time><hdop>3.0</hdop><vdop>3.0</vdop><extensions><gom:speed>0.775</gom:speed></extensions></trkpt>
   <trkpt lat="59.0644299679" lon="29.965503544"><ele>99.223</ele><time>2026-04-25T12:22:55.000Z</time><hdop>3.0</hdop><vdop>3.0</vdop><extensions><gom:speed>0.575</gom:speed></extensions></trkpt>
   <trkpt lat="59.0644222984" lon="29.9654964194"><ele>99.286</ele><time>2026-04-25T12:22:56.000Z</time><hdop>3.0</hdop><vdop>3.0</vdop><extensions><gom:speed>0.659</gom:speed></extensions></trkpt>
   <trkpt lat="59.0644125335" lon="29.9654930666"><ele>99.331</ele><time>2026-04-25T12:22:57.000Z</time><hdop>3.0</hdop><vdop>3.0</vdop><extensions><gom:speed>0.919</gom:speed></extensions></trkpt>
   <trkpt lat="59.0644014694" lon="29.9654902168"><ele>99.379</ele><time>2026-04-25T12:22:58.000Z</time><hdop>3.0</hdop><vdop>3.0</vdop><extensions><gom:speed>1.081</gom:speed></extensions></trkpt>
   <trkpt lat="59.064388226" lon="29.9654861097"><ele>99.382</ele><time>2026-04-25T12:22:59.000Z</time><hdop>3.0</hdop><vdop>3.0</vdop><extensions><gom:speed>1.086</gom:speed></extensions></trkpt>
   <trkpt lat="59.064376659" lon="29.9654810805"><ele>99.362</ele><time>2026-04-25T12:23:00.000Z</time><hdop>3.0</hdop><vdop>3.0</vdop><extensions><gom:speed>0.966</gom:speed></extensions></trkpt>
   <trkpt lat="59.0643671455" lon="29.9654803262"><ele>99.383</ele><time>2026-04-25T12:23:01.000Z</time><hdop>3.0</hdop><vdop>3.0</vdop><extensions><gom:speed>0.833</gom:speed></extensions></trkpt>
   <trkpt lat="59.0643575901" lon="29.9654830922"><ele>99.258</ele><time>2026-04-25T12:23:02.000Z</time><hdop>9.187</hdop><vdop>9.187</vdop><extensions><gom:speed>1.143</gom:speed></extensions></trkpt>
   <trkpt lat="59.0643466937" lon="29.9654909712"><ele>100.053</ele><time>2026-04-25T12:23:03.000Z</time><hdop>5.687</hdop><vdop>5.687</vdop><extensions><gom:speed>1.198</gom:speed></extensions></trkpt>
   <trkpt lat="59.0643341208" lon="29.9654941563"><ele>100.159</ele><time>2026-04-25T12:23:04.000Z</time><hdop>4.687</hdop><vdop>4.687</vdop><extensions><gom:speed>1.235</gom:speed></extensions></trkpt>
   <trkpt lat="59.0643198716" lon="29.9654985149"><ele>100.392</ele><time>2026-04-25T12:23:05.000Z</time><hdop>3.0</hdop><vdop>3.0</vdop><extensions><gom:speed>1.256</gom:speed></extensions></trkpt>
   <trkpt lat="59.064298372" lon="29.9654996883"><ele>100.742</ele><time>2026-04-25T12:23:06.000Z</time><hdop>1.562</hdop><vdop>1.562</vdop><extensions><gom:speed>1.226</gom:speed></extensions></trkpt>
   <trkpt lat="59.0642848352" lon="29.9655024544"><ele>101.08</ele><time>2026-04-25T12:23:07.000Z</time><hdop>1.562</hdop><vdop>1.562</vdop><extensions><gom:speed>1.26</gom:speed></extensions></trkpt>
   <trkpt lat="59.064274274" lon="29.9655138538"><ele>101.174</ele><time>2026-04-25T12:23:08.000Z</time><hdop>1.812</hdop><vdop>1.812</vdop><extensions><gom:speed>1.281</gom:speed></extensions></trkpt>
   <trkpt lat="59.0642749865" lon="29.9654991016"><ele>101.294</ele><time>2026-04-25T12:23:09.000Z</time><hdop>1.5</hdop><vdop>1.5</vdop><extensions><gom:speed>1.034</gom:speed></extensions></trkpt>
   <trkpt lat="59.0642738968" lon="29.9654887081"><ele>101.123</ele><time>2026-04-25T12:23:10.000Z</time><hdop>1.437</hdop><vdop>1.437</vdop><extensions><gom:speed>0.895</gom:speed></extensions></trkpt>
   <trkpt lat="59.0642678199" lon="29.9654904683"><ele>100.727</ele><time>2026-04-25T12:23:11.000Z</time><hdop>1.625</hdop><vdop>1.625</vdop><extensions><gom:speed>0.802</gom:speed></extensions></trkpt>
   <trkpt lat="59.0642693706" lon="29.9654896301"><ele>100.143</ele><time>2026-04-25T12:23:12.000Z</time><hdop>3.0</hdop><vdop>3.0</vdop><extensions><gom:speed>0.663</gom:speed></extensions></trkpt>
   <trkpt lat="59.0642684486" lon="29.9654888757"><ele>99.846</ele><time>2026-04-25T12:23:13.000Z</time><hdop>3.0</hdop><vdop>3.0</vdop><extensions><gom:speed>0.583</gom:speed></extensions></trkpt>
   <trkpt lat="59.0642684486" lon="29.9654888757"><ele>99.668</ele><time>2026-04-25T12:23:13.000Z</time><hdop>3.0</hdop><vdop>3.0</vdop><extensions><gom:speed>0.583</gom:speed></extensions></trkpt>
   <trkpt lat="59.0642626232" lon="29.9654892948"><ele>99.562</ele><time>2026-04-25T12:23:14.000Z</time><hdop>3.0</hdop><vdop>3.0</vdop><extensions><gom:speed>0.432</gom:speed></extensions></trkpt>
   <trkpt lat="59.0642545346" lon="29.965487786"><ele>99.442</ele><time>2026-04-25T12:23:15.000Z</time><hdop>3.0</hdop><vdop>3.0</vdop><extensions><gom:speed>0.39</gom:speed></extensions></trkpt>
   <trkpt lat="59.0642447697" lon="29.9654834275"><ele>99.326</ele><time>2026-04-25T12:23:16.000Z</time><hdop>3.0</hdop><vdop>3.0</vdop><extensions><gom:speed>0.442</gom:speed></extensions></trkpt>
   <trkpt lat="59.0642388605" lon="29.9654799909"><ele>99.208</ele><time>2026-04-25T12:23:17.000Z</time><hdop>3.0</hdop><vdop>3.0</vdop><extensions><gom:speed>0.4</gom:speed></extensions></trkpt>
   <trkpt lat="59.0642332446" lon="29.9654747103"><ele>99.111</ele><time>2026-04-25T12:23:18.000Z</time><hdop>3.0</hdop><vdop>3.0</vdop><extensions><gom:speed>0.419</gom:speed></extensions></trkpt>
   <trkpt lat="59.0642278802" lon="29.9654691782"><ele>99.019</ele><time>2026-04-25T12:23:19.000Z</time><hdop>3.0</hdop><vdop>3.0</vdop><extensions><gom:speed>0.425</gom:speed></extensions></trkpt>
   <trkpt lat="59.0642221386" lon="29.9654629756"><ele>98.898</ele><time>2026-04-25T12:23:20.000Z</time><hdop>3.0</hdop><vdop>3.0</vdop><extensions><gom:speed>0.439</gom:speed></extensions></trkpt>
   <trkpt lat="59.0642155169" lon="29.965457695"><ele>98.772</ele><time>2026-04-25T12:23:21.000Z</time><hdop>3.0</hdop><vdop>3.0</vdop><extensions><gom:speed>0.499</gom:speed></extensions></trkpt>
   <trkpt lat="59.0642073864" lon="29.9654524982"><ele>98.622</ele><time>2026-04-25T12:23:22.000Z</time><hdop>3.0</hdop><vdop>3.0</vdop><extensions><gom:speed>0.641</gom:speed></extensions></trkpt>
   <trkpt lat="59.0641966995" lon="29.9654531688"><ele>98.523</ele><time>2026-04-25T12:23:23.000Z</time><hdop>3.0</hdop><vdop>3.0</vdop><extensions><gom:speed>0.682</gom:speed></extensions></trkpt>
   <trkpt lat="59.064187689" lon="29.9654527497"><ele>98.391</ele><time>2026-04-25T12:23:24.000Z</time><hdop>3.0</hdop><vdop>3.0</vdop><extensions><gom:speed>0.682</gom:speed></extensions></trkpt>
   <trkpt lat="59.0641763315" lon="29.965450738"><ele>98.287</ele><time>2026-04-25T12:23:25.000Z</time><hdop>3.0</hdop><vdop>3.0</vdop><extensions><gom:speed>0.737</gom:speed></extensions></trkpt>
   <trkpt lat="59.0641644292" lon="29.965445206"><ele>98.22</ele><time>2026-04-25T12:23:26.000Z</time><hdop>3.0</hdop><vdop>3.0</vdop><extensions><gom:speed>0.704</gom:speed></extensions></trkpt>
   <trkpt lat="59.0641558796" lon="29.9654426914"><ele>98.273</ele><time>2026-04-25T12:23:27.000Z</time><hdop>3.0</hdop><vdop>3.0</vdop><extensions><gom:speed>0.646</gom:speed></extensions></trkpt>
   <trkpt lat="59.0641451508" lon="29.9654400092"><ele>98.343</ele><time>2026-04-25T12:23:28.000Z</time><hdop>3.0</hdop><vdop>3.0</vdop><extensions><gom:speed>0.751</gom:speed></extensions></trkpt>
   <trkpt lat="59.064133458" lon="29.9654403445"><ele>98.465</ele><time>2026-04-25T12:23:29.000Z</time><hdop>3.0</hdop><vdop>3.0</vdop><extensions><gom:speed>0.909</gom:speed></extensions></trkpt>
   <trkpt lat="59.0641207175" lon="29.9654405121"><ele>98.581</ele><time>2026-04-25T12:23:30.000Z</time><hdop>3.0</hdop><vdop>3.0</vdop><extensions><gom:speed>0.949</gom:speed></extensions></trkpt>
   <trkpt lat="59.0641096953" lon="29.9654395901"><ele>98.655</ele><time>2026-04-25T12:23:31.000Z</time><hdop>3.0</hdop><vdop>3.0</vdop><extensions><gom:speed>0.739</gom:speed></extensions></trkpt>
   <trkpt lat="59.064098254" lon="29.9654422723"><ele>98.703</ele><time>2026-04-25T12:23:32.000Z</time><hdop>3.0</hdop><vdop>3.0</vdop><extensions><gom:speed>0.735</gom:speed></extensions></trkpt>
   <trkpt lat="59.0640874414" lon="29.965444284"><ele>98.75</ele><time>2026-04-25T12:23:33.000Z</time><hdop>3.0</hdop><vdop>3.0</vdop><extensions><gom:speed>0.695</gom:speed></extensions></trkpt>
   <trkpt lat="59.0640874414" lon="29.965444284"><ele>98.779</ele><time>2026-04-25T12:23:33.000Z</time><hdop>3.0</hdop><vdop>3.0</vdop><extensions><gom:speed>0.695</gom:speed></extensions></trkpt>
   <trkpt lat="59.0640777184" lon="29.9654410988"><ele>98.798</ele><time>2026-04-25T12:23:34.000Z</time><hdop>3.0</hdop><vdop>3.0</vdop><extensions><gom:speed>0.557</gom:speed></extensions></trkpt>
   <trkpt lat="59.064069085" lon="29.9654286936"><ele>98.805</ele><time>2026-04-25T12:23:35.000Z</time><hdop>3.0</hdop><vdop>3.0</vdop><extensions><gom:speed>0.68</gom:speed></extensions></trkpt>
   <trkpt lat="59.0640604098" lon="29.9654166237"><ele>98.819</ele><time>2026-04-25T12:23:36.000Z</time><hdop>3.0</hdop><vdop>3.0</vdop><extensions><gom:speed>0.602</gom:speed></extensions></trkpt>
   <trkpt lat="59.0640529499" lon="29.9654059787"><ele>98.816</ele><time>2026-04-25T12:23:37.000Z</time><hdop>3.0</hdop><vdop>3.0</vdop><extensions><gom:speed>0.727</gom:speed></extensions></trkpt>
   <trkpt lat="59.0640447356" lon="29.9653940764"><ele>98.808</ele><time>2026-04-25T12:23:38.000Z</time><hdop>3.0</hdop><vdop>3.0</vdop><extensions><gom:speed>0.636</gom:speed></extensions></trkpt>
   <trkpt lat="59.064038994" lon="29.9653837666"><ele>98.774</ele><time>2026-04-25T12:23:39.000Z</time><hdop>3.0</hdop><vdop>3.0</vdop><extensions><gom:speed>0.682</gom:speed></extensions></trkpt>
   <trkpt lat="59.0640325399" lon="29.9653763067"><ele>98.747</ele><time>2026-04-25T12:23:40.000Z</time><hdop>3.0</hdop><vdop>3.0</vdop><extensions><gom:speed>0.568</gom:speed></extensions></trkpt>
   <trkpt lat="59.064024619" lon="29.9653661646"><ele>99.316</ele><time>2026-04-25T12:23:41.000Z</time><hdop>2.187</hdop><vdop>2.187</vdop><extensions><gom:speed>0.792</gom:speed></extensions></trkpt>
   <trkpt lat="59.0640147703" lon="29.9653582856"><ele>99.63</ele><time>2026-04-25T12:23:42.000Z</time><hdop>1.875</hdop><vdop>1.875</vdop><extensions><gom:speed>0.872</gom:speed></extensions></trkpt>
   <trkpt lat="59.0640056759" lon="29.9653572798"><ele>99.553</ele><time>2026-04-25T12:23:43.000Z</time><hdop>1.937</hdop><vdop>1.937</vdop><extensions><gom:speed>0.763</gom:speed></extensions></trkpt>
   <trkpt lat="59.0640057178" lon="29.9653569445"><ele>99.462</ele><time>2026-04-25T12:23:44.000Z</time><hdop>2.0</hdop><vdop>2.0</vdop><extensions><gom:speed>0.789</gom:speed></extensions></trkpt>
   <trkpt lat="59.0639992638" lon="29.9653540109"><ele>99.61</ele><time>2026-04-25T12:23:45.000Z</time><hdop>2.25</hdop><vdop>2.25</vdop><extensions><gom:speed>0.825</gom:speed></extensions></trkpt>
   <trkpt lat="59.0639901694" lon="29.9653500714"><ele>99.023</ele><time>2026-04-25T12:23:46.000Z</time><hdop>3.0</hdop><vdop>3.0</vdop><extensions><gom:speed>0.563</gom:speed></extensions></trkpt>
   <trkpt lat="59.0639834639" lon="29.965351161"><ele>98.63</ele><time>2026-04-25T12:23:47.000Z</time><hdop>3.0</hdop><vdop>3.0</vdop><extensions><gom:speed>0.499</gom:speed></extensions></trkpt>
   <trkpt lat="59.0639750401" lon="29.9653513287"><ele>98.356</ele><time>2026-04-25T12:23:48.000Z</time><hdop>3.0</hdop><vdop>3.0</vdop><extensions><gom:speed>0.691</gom:speed></extensions></trkpt>
   <trkpt lat="59.0639673287" lon="29.9653445393"><ele>98.191</ele><time>2026-04-25T12:23:49.000Z</time><hdop>3.0</hdop><vdop>3.0</vdop><extensions><gom:speed>0.885</gom:speed></extensions></trkpt>
   <trkpt lat="59.0639604136" lon="29.9653352354"><ele>99.286</ele><time>2026-04-25T12:23:50.000Z</time><hdop>2.0</hdop><vdop>2.0</vdop><extensions><gom:speed>0.796</gom:speed></extensions></trkpt>
   <trkpt lat="59.0639547978" lon="29.9653245904"><ele>99.924</ele><time>2026-04-25T12:23:51.000Z</time><hdop>1.937</hdop><vdop>1.937</vdop><extensions><gom:speed>0.428</gom:speed></extensions></trkpt>
   <trkpt lat="59.06394914" lon="29.9653235846"><ele>99.282</ele><time>2026-04-25T12:23:52.000Z</time><hdop>3.0</hdop><vdop>3.0</vdop><extensions><gom:speed>0.435</gom:speed></extensions></trkpt>
   <trkpt lat="59.0639398361" lon="29.9653198127"><ele>98.874</ele><time>2026-04-25T12:23:53.000Z</time><hdop>3.0</hdop><vdop>3.0</vdop><extensions><gom:speed>0.71</gom:speed></extensions></trkpt>
   <trkpt lat="59.0639398361" lon="29.9653198127"><ele>98.629</ele><time>2026-04-25T12:23:53.000Z</time><hdop>3.0</hdop><vdop>3.0</vdop><extensions><gom:speed>0.71</gom:speed></extensions></trkpt>
   <trkpt lat="59.0639307417" lon="29.9653179687"><ele>98.5</ele><time>2026-04-25T12:23:54.000Z</time><hdop>3.0</hdop><vdop>3.0</vdop><extensions><gom:speed>0.847</gom:speed></extensions></trkpt>
   <trkpt lat="59.0639226951" lon="29.9653172143"><ele>98.36</ele><time>2026-04-25T12:23:55.000Z</time><hdop>3.0</hdop><vdop>3.0</vdop><extensions><gom:speed>0.601</gom:speed></extensions></trkpt>
   <trkpt lat="59.0639158638" lon="29.9653188907"><ele>98.248</ele><time>2026-04-25T12:23:56.000Z</time><hdop>3.0</hdop><vdop>3.0</vdop><extensions><gom:speed>0.519</gom:speed></extensions></trkpt>
   <trkpt lat="59.0639093259" lon="29.965320148"><ele>98.11</ele><time>2026-04-25T12:23:57.000Z</time><hdop>3.0</hdop><vdop>3.0</vdop><extensions><gom:speed>0.537</gom:speed></extensions></trkpt>
   <trkpt lat="59.0639026623" lon="29.9653179687"><ele>98.005</ele><time>2026-04-25T12:23:58.000Z</time><hdop>3.0</hdop><vdop>3.0</vdop><extensions><gom:speed>0.638</gom:speed></extensions></trkpt>
   <trkpt lat="59.0638964597" lon="29.9653146997"><ele>97.873</ele><time>2026-04-25T12:23:59.000Z</time><hdop>3.0</hdop><vdop>3.0</vdop><extensions><gom:speed>0.566</gom:speed></extensions></trkpt>
   <trkpt lat="59.0638894608" lon="29.9653119337"><ele>97.736</ele><time>2026-04-25T12:24:00.000Z</time><hdop>3.0</hdop><vdop>3.0</vdop><extensions><gom:speed>0.592</gom:speed></extensions></trkpt>
   <trkpt lat="59.0638808694" lon="29.9653105926"><ele>97.67</ele><time>2026-04-25T12:24:01.000Z</time><hdop>3.0</hdop><vdop>3.0</vdop><extensions><gom:speed>0.733</gom:speed></extensions></trkpt>
   <trkpt lat="59.0638706435" lon="29.9653091677"><ele>97.619</ele><time>2026-04-25T12:24:02.000Z</time><hdop>3.0</hdop><vdop>3.0</vdop><extensions><gom:speed>0.869</gom:speed></extensions></trkpt>
   <trkpt lat="59.0638606271" lon="29.9653089162"><ele>97.6</ele><time>2026-04-25T12:24:03.000Z</time><hdop>3.625</hdop><vdop>3.625</vdop><extensions><gom:speed>1.094</gom:speed></extensions></trkpt>
   <trkpt lat="59.063852329" lon="29.9653064855"><ele>97.637</ele><time>2026-04-25T12:24:04.000Z</time><hdop>3.0</hdop><vdop>3.0</vdop><extensions><gom:speed>0.788</gom:speed></extensions></trkpt>
   <trkpt lat="59.0638408039" lon="29.9653039709"><ele>97.86</ele><time>2026-04-25T12:24:05.000Z</time><hdop>1.812</hdop><vdop>1.812</vdop><extensions><gom:speed>1.161</gom:speed></extensions></trkpt>
   <trkpt lat="59.0638306199" lon="29.9652764783"><ele>98.161</ele><time>2026-04-25T12:24:06.000Z</time><hdop>1.25</hdop><vdop>1.25</vdop><extensions><gom:speed>0.934</gom:speed></extensions></trkpt>
   <trkpt lat="59.0638228666" lon="29.9652675096"><ele>99.085</ele><time>2026-04-25T12:24:07.000Z</time><hdop>1.312</hdop><vdop>1.312</vdop><extensions><gom:speed>0.837</gom:speed></extensions></trkpt>
   <trkpt lat="59.0638155324" lon="29.9652649951"><ele>99.785</ele><time>2026-04-25T12:24:08.000Z</time><hdop>1.375</hdop><vdop>1.375</vdop><extensions><gom:speed>0.727</gom:speed></extensions></trkpt>
   <trkpt lat="59.0638032949" lon="29.9652715329"><ele>100.379</ele><time>2026-04-25T12:24:09.000Z</time><hdop>1.562</hdop><vdop>1.562</vdop><extensions><gom:speed>0.682</gom:speed></extensions></trkpt>
   <trkpt lat="59.0638036721" lon="29.9652722873"><ele>100.667</ele><time>2026-04-25T12:24:10.000Z</time><hdop>1.875</hdop><vdop>1.875</vdop><extensions><gom:speed>0.833</gom:speed></extensions></trkpt>
   <trkpt lat="59.0637988525" lon="29.9652721197"><ele>100.797</ele><time>2026-04-25T12:24:11.000Z</time><hdop>2.125</hdop><vdop>2.125</vdop><extensions><gom:speed>1.041</gom:speed></extensions></trkpt>
   <trkpt lat="59.0637887942" lon="29.9652715329"><ele>100.88</ele><time>2026-04-25T12:24:12.000Z</time><hdop>2.375</hdop><vdop>2.375</vdop><extensions><gom:speed>1.174</gom:speed></extensions></trkpt>
   <trkpt lat="59.063775928" lon="29.9652706948"><ele>100.947</ele><time>2026-04-25T12:24:13.000Z</time><hdop>2.312</hdop><vdop>2.312</vdop><extensions><gom:speed>1.178</gom:speed></extensions></trkpt>
   <trkpt lat="59.063775928" lon="29.9652706948"><ele>100.987</ele><time>2026-04-25T12:24:13.000Z</time><hdop>2.312</hdop><vdop>2.312</vdop><extensions><gom:speed>1.178</gom:speed></extensions></trkpt>
   <trkpt lat="59.0637648638" lon="29.9652656656"><ele>99.866</ele><time>2026-04-25T12:24:14.000Z</time><hdop>3.0</hdop><vdop>3.0</vdop><extensions><gom:speed>0.594</gom:speed></extensions></trkpt>
   <trkpt lat="59.0637573201" lon="29.9652586248"><ele>99.259</ele><time>2026-04-25T12:24:15.000Z</time><hdop>3.0</hdop><vdop>3.0</vdop><extensions><gom:speed>0.493</gom:speed></extensions></trkpt>
   <trkpt lat="59.0637502374" lon="29.9652538471"><ele>98.912</ele><time>2026-04-25T12:24:16.000Z</time><hdop>3.0</hdop><vdop>3.0</vdop><extensions><gom:speed>0.516</gom:speed></extensions></trkpt>
   <trkpt lat="59.0637431966" lon="29.9652494047"><ele>98.683</ele><time>2026-04-25T12:24:17.000Z</time><hdop>3.0</hdop><vdop>3.0</vdop><extensions><gom:speed>0.506</gom:speed></extensions></trkpt>
   <trkpt lat="59.0637331803" lon="29.965243705"><ele>98.466</ele><time>2026-04-25T12:24:18.000Z</time><hdop>3.0</hdop><vdop>3.0</vdop><extensions><gom:speed>0.407</gom:speed></extensions></trkpt>
   <trkpt lat="59.0637262652" lon="29.9652421963"><ele>98.358</ele><time>2026-04-25T12:24:19.000Z</time><hdop>3.0</hdop><vdop>3.0</vdop><extensions><gom:speed>0.552</gom:speed></extensions></trkpt>
   <trkpt lat="59.0637183862" lon="29.9652428668"><ele>98.361</ele><time>2026-04-25T12:24:20.000Z</time><hdop>3.0</hdop><vdop>3.0</vdop><extensions><gom:speed>0.735</gom:speed></extensions></trkpt>
   <trkpt lat="59.0637096271" lon="29.9652432021"><ele>98.352</ele><time>2026-04-25T12:24:21.000Z</time><hdop>3.0</hdop><vdop>3.0</vdop><extensions><gom:speed>0.668</gom:speed></extensions></trkpt>
   <trkpt lat="59.0636988144" lon="29.9652421963"><ele>98.306</ele><time>2026-04-25T12:24:22.000Z</time><hdop>3.0</hdop><vdop>3.0</vdop><extensions><gom:speed>0.554</gom:speed></extensions></trkpt>
   <trkpt lat="59.0636895944" lon="29.9652385082"><ele>98.216</ele><time>2026-04-25T12:24:23.000Z</time><hdop>3.0</hdop><vdop>3.0</vdop><extensions><gom:speed>0.529</gom:speed></extensions></trkpt>
   <trkpt lat="59.0636799971" lon="29.9652306293"><ele>98.089</ele><time>2026-04-25T12:24:24.000Z</time><hdop>3.0</hdop><vdop>3.0</vdop><extensions><gom:speed>0.587</gom:speed></extensions></trkpt>
   <trkpt lat="59.0636724534" lon="29.965223337"><ele>98.0</ele><time>2026-04-25T12:24:25.000Z</time><hdop>3.0</hdop><vdop>3.0</vdop><extensions><gom:speed>0.736</gom:speed></extensions></trkpt>
   <trkpt lat="59.0636648258" lon="29.9652142007"><ele>97.953</ele><time>2026-04-25T12:24:26.000Z</time><hdop>3.0</hdop><vdop>3.0</vdop><extensions><gom:speed>0.705</gom:speed></extensions></trkpt>
   <trkpt lat="59.0636556896" lon="29.9652069923"><ele>97.959</ele><time>2026-04-25T12:24:27.000Z</time><hdop>3.0</hdop><vdop>3.0</vdop><extensions><gom:speed>0.82</gom:speed></extensions></trkpt>
   <trkpt lat="59.0636463018" lon="29.965198778"><ele>97.991</ele><time>2026-04-25T12:24:28.000Z</time><hdop>3.0</hdop><vdop>3.0</vdop><extensions><gom:speed>0.823</gom:speed></extensions></trkpt>
   <trkpt lat="59.0636386324" lon="29.9651892227"><ele>98.027</ele><time>2026-04-25T12:24:29.000Z</time><hdop>3.0</hdop><vdop>3.0</vdop><extensions><gom:speed>0.687</gom:speed></extensions></trkpt>
   <trkpt lat="59.0636331841" lon="29.9651788291"><ele>97.998</ele><time>2026-04-25T12:24:30.000Z</time><hdop>3.0</hdop><vdop>3.0</vdop><extensions><gom:speed>0.559</gom:speed></extensions></trkpt>
   <trkpt lat="59.0636263948" lon="29.9651684355"><ele>97.909</ele><time>2026-04-25T12:24:31.000Z</time><hdop>3.0</hdop><vdop>3.0</vdop><extensions><gom:speed>0.627</gom:speed></extensions></trkpt>
   <trkpt lat="59.0636193121" lon="29.9651636578"><ele>97.856</ele><time>2026-04-25T12:24:32.000Z</time><hdop>3.0</hdop><vdop>3.0</vdop><extensions><gom:speed>0.348</gom:speed></extensions></trkpt>
   <trkpt lat="59.0636146182" lon="29.9651623167"><ele>97.819</ele><time>2026-04-25T12:24:33.000Z</time><hdop>3.0</hdop><vdop>3.0</vdop><extensions><gom:speed>0.146</gom:speed></extensions></trkpt>
   <trkpt lat="59.0636146182" lon="29.9651623167"><ele>97.796</ele><time>2026-04-25T12:24:33.000Z</time><hdop>3.0</hdop><vdop>3.0</vdop><extensions><gom:speed>0.146</gom:speed></extensions></trkpt>
   <trkpt lat="59.0636146182" lon="29.9651623167"><ele>97.783</ele><time>2026-04-25T12:24:34.000Z</time><hdop>3.0</hdop><vdop>3.0</vdop><extensions><gom:speed>0.0</gom:speed></extensions></trkpt>
   <trkpt lat="59.0636146182" lon="29.9651623167"><ele>97.775</ele><time>2026-04-25T12:24:35.000Z</time><hdop>3.0</hdop><vdop>3.0</vdop><extensions><gom:speed>0.0</gom:speed></extensions></trkpt>
   <trkpt lat="59.0636146182" lon="29.9651623167"><ele>97.77</ele><time>2026-04-25T12:24:36.000Z</time><hdop>3.0</hdop><vdop>3.0</vdop><extensions><gom:speed>0.0</gom:speed></extensions></trkpt>
   <trkpt lat="59.0636146182" lon="29.9651623167"><ele>97.768</ele><time>2026-04-25T12:24:37.000Z</time><hdop>3.0</hdop><vdop>3.0</vdop><extensions><gom:speed>0.0</gom:speed></extensions></trkpt>
   <trkpt lat="59.0636146182" lon="29.9651623167"><ele>97.766</ele><time>2026-04-25T12:24:38.000Z</time><hdop>3.0</hdop><vdop>3.0</vdop><extensions><gom:speed>0.0</gom:speed></extensions></trkpt>
   <trkpt lat="59.0636146182" lon="29.9651623167"><ele>97.765</ele><time>2026-04-25T12:24:39.000Z</time><hdop>3.0</hdop><vdop>3.0</vdop><extensions><gom:speed>0.0</gom:speed></extensions></trkpt>
   <trkpt lat="59.0636146182" lon="29.9651623167"><ele>97.764</ele><time>2026-04-25T12:24:40.000Z</time><hdop>3.0</hdop><vdop>3.0</vdop><extensions><gom:speed>0.0</gom:speed></extensions></trkpt>
   <trkpt lat="59.0636146182" lon="29.9651623167"><ele>97.764</ele><time>2026-04-25T12:24:41.000Z</time><hdop>3.0</hdop><vdop>3.0</vdop><extensions><gom:speed>0.0</gom:speed></extensions></trkpt>
   <trkpt lat="59.0636146182" lon="29.9651623167"><ele>97.764</ele><time>2026-04-25T12:24:42.000Z</time><hdop>3.0</hdop><vdop>3.0</vdop><extensions><gom:speed>0.0</gom:speed></extensions></trkpt>
   <trkpt lat="59.0636146182" lon="29.9651623167"><ele>97.764</ele><time>2026-04-25T12:24:43.000Z</time><hdop>3.0</hdop><vdop>3.0</vdop><extensions><gom:speed>0.0</gom:speed></extensions></trkpt>
   <trkpt lat="59.0636146182" lon="29.9651623167"><ele>97.763</ele><time>2026-04-25T12:24:44.000Z</time><hdop>3.0</hdop><vdop>3.0</vdop><extensions><gom:speed>0.0</gom:speed></extensions></trkpt>
   <trkpt lat="59.0636110978" lon="29.9651562818"><ele>97.736</ele><time>2026-04-25T12:24:45.000Z</time><hdop>3.0</hdop><vdop>3.0</vdop><extensions><gom:speed>0.418</gom:speed></extensions></trkpt>
   <trkpt lat="59.0636110978" lon="29.9651562818"><ele>97.72</ele><time>2026-04-25T12:24:46.000Z</time><hdop>3.0</hdop><vdop>3.0</vdop><extensions><gom:speed>0.0</gom:speed></extensions></trkpt>
   <trkpt lat="59.0636110978" lon="29.9651562818"><ele>97.71</ele><time>2026-04-25T12:24:47.000Z</time><hdop>3.0</hdop><vdop>3.0</vdop><extensions><gom:speed>0.0</gom:speed></extensions></trkpt>
   <trkpt lat="59.0636053562" lon="29.9651439604"><ele>97.617</ele><time>2026-04-25T12:24:48.000Z</time><hdop>3.0</hdop><vdop>3.0</vdop><extensions><gom:speed>0.431</gom:speed></extensions></trkpt>
   <trkpt lat="59.0635907717" lon="29.9651249335"><ele>97.464</ele><time>2026-04-25T12:24:49.000Z</time><hdop>3.0</hdop><vdop>3.0</vdop><extensions><gom:speed>0.588</gom:speed></extensions></trkpt>
   <trkpt lat="59.0635781989" lon="29.9651099298"><ele>97.277</ele><time>2026-04-25T12:24:50.000Z</time><hdop>3.0</hdop><vdop>3.0</vdop><extensions><gom:speed>0.534</gom:speed></extensions></trkpt>
   <trkpt lat="59.0635661289" lon="29.9650929984"><ele>97.231</ele><time>2026-04-25T12:24:51.000Z</time><hdop>3.0</hdop><vdop>3.0</vdop><extensions><gom:speed>0.651</gom:speed></extensions></trkpt>
   <trkpt lat="59.0635599263" lon="29.9650849518"><ele>97.337</ele><time>2026-04-25T12:24:52.000Z</time><hdop>3.0</hdop><vdop>3.0</vdop><extensions><gom:speed>0.246</gom:speed></extensions></trkpt>
   <trkpt lat="59.0635499518" lon="29.9650733009"><ele>97.402</ele><time>2026-04-25T12:24:53.000Z</time><hdop>3.0</hdop><vdop>3.0</vdop><extensions><gom:speed>0.261</gom:speed></extensions></trkpt>
   <trkpt lat="59.0635499518" lon="29.9650733009"><ele>97.441</ele><time>2026-04-25T12:24:53.000Z</time><hdop>3.0</hdop><vdop>3.0</vdop><extensions><gom:speed>0.261</gom:speed></extensions></trkpt>
   <trkpt lat="59.0635499518" lon="29.9650733009"><ele>97.464</ele><time>2026-04-25T12:24:54.000Z</time><hdop>3.0</hdop><vdop>3.0</vdop><extensions><gom:speed>0.0</gom:speed></extensions></trkpt>
   <trkpt lat="59.0635499518" lon="29.9650733009"><ele>97.478</ele><time>2026-04-25T12:24:55.000Z</time><hdop>3.0</hdop><vdop>3.0</vdop><extensions><gom:speed>0.0</gom:speed></extensions></trkpt>
   <trkpt lat="59.0635499518" lon="29.9650733009"><ele>97.486</ele><time>2026-04-25T12:24:56.000Z</time><hdop>3.0</hdop><vdop>3.0</vdop><extensions><gom:speed>0.0</gom:speed></extensions></trkpt>
   <trkpt lat="59.0635499518" lon="29.9650733009"><ele>97.491</ele><time>2026-04-25T12:24:57.000Z</time><hdop>3.0</hdop><vdop>3.0</vdop><extensions><gom:speed>0.0</gom:speed></extensions></trkpt>
   <trkpt lat="59.0635499518" lon="29.9650733009"><ele>97.494</ele><time>2026-04-25T12:24:58.000Z</time><hdop>3.0</hdop><vdop>3.0</vdop><extensions><gom:speed>0.0</gom:speed></extensions></trkpt>
   <trkpt lat="59.0635499518" lon="29.9650733009"><ele>97.496</ele><time>2026-04-25T12:24:59.000Z</time><hdop>3.0</hdop><vdop>3.0</vdop><extensions><gom:speed>0.0</gom:speed></extensions></trkpt>
   <trkpt lat="59.0635499518" lon="29.9650733009"><ele>97.497</ele><time>2026-04-25T12:25:00.000Z</time><hdop>3.0</hdop><vdop>3.0</vdop><extensions><gom:speed>0.0</gom:speed></extensions></trkpt>
   <trkpt lat="59.0635499518" lon="29.9650733009"><ele>97.497</ele><time>2026-04-25T12:25:01.000Z</time><hdop>3.0</hdop><vdop>3.0</vdop><extensions><gom:speed>0.0</gom:speed></extensions></trkpt>
   <trkpt lat="59.0635499518" lon="29.9650733009"><ele>97.498</ele><time>2026-04-25T12:25:02.000Z</time><hdop>3.0</hdop><vdop>3.0</vdop><extensions><gom:speed>0.0</gom:speed></extensions></trkpt>
   <trkpt lat="59.0635499518" lon="29.9650733009"><ele>97.498</ele><time>2026-04-25T12:25:03.000Z</time><hdop>3.0</hdop><vdop>3.0</vdop><extensions><gom:speed>0.0</gom:speed></extensions></trkpt>
   <trkpt lat="59.0635499518" lon="29.9650733009"><ele>97.498</ele><time>2026-04-25T12:25:04.000Z</time><hdop>3.0</hdop><vdop>3.0</vdop><extensions><gom:speed>0.0</gom:speed></extensions></trkpt>
   <trkpt lat="59.0635499518" lon="29.9650733009"><ele>97.498</ele><time>2026-04-25T12:25:05.000Z</time><hdop>3.0</hdop><vdop>3.0</vdop><extensions><gom:speed>0.0</gom:speed></extensions></trkpt>
   <trkpt lat="59.0635499518" lon="29.9650733009"><ele>97.498</ele><time>2026-04-25T12:25:06.000Z</time><hdop>3.0</hdop><vdop>3.0</vdop><extensions><gom:speed>0.0</gom:speed></extensions></trkpt>
   <trkpt lat="59.0635499518" lon="29.9650733009"><ele>97.498</ele><time>2026-04-25T12:25:07.000Z</time><hdop>3.0</hdop><vdop>3.0</vdop><extensions><gom:speed>0.0</gom:speed></extensions></trkpt>
   <trkpt lat="59.0635478145" lon="29.9650722113"><ele>97.492</ele><time>2026-04-25T12:25:08.000Z</time><hdop>3.0</hdop><vdop>3.0</vdop><extensions><gom:speed>0.345</gom:speed></extensions></trkpt>
   <trkpt lat="59.0635478145" lon="29.9650722113"><ele>97.489</ele><time>2026-04-25T12:25:09.000Z</time><hdop>3.0</hdop><vdop>3.0</vdop><extensions><gom:speed>0.0</gom:speed></extensions></trkpt>
   <trkpt lat="59.0635478145" lon="29.9650722113"><ele>97.487</ele><time>2026-04-25T12:25:10.000Z</time><hdop>3.0</hdop><vdop>3.0</vdop><extensions><gom:speed>0.0</gom:speed></extensions></trkpt>
   <trkpt lat="59.0635478145" lon="29.9650722113"><ele>97.485</ele><time>2026-04-25T12:25:11.000Z</time><hdop>3.0</hdop><vdop>3.0</vdop><extensions><gom:speed>0.0</gom:speed></extensions></trkpt>
   <trkpt lat="59.0635478145" lon="29.9650722113"><ele>97.485</ele><time>2026-04-25T12:25:12.000Z</time><hdop>3.0</hdop><vdop>3.0</vdop><extensions><gom:speed>0.0</gom:speed></extensions></trkpt>
   <trkpt lat="59.0635478145" lon="29.9650722113"><ele>97.484</ele><time>2026-04-25T12:25:13.000Z</time><hdop>3.0</hdop><vdop>3.0</vdop><extensions><gom:speed>0.0</gom:speed></extensions></trkpt>
   <trkpt lat="59.0635478145" lon="29.9650722113"><ele>97.484</ele><time>2026-04-25T12:25:13.000Z</time><hdop>3.0</hdop><vdop>3.0</vdop><extensions><gom:speed>0.0</gom:speed></extensions></trkpt>
   <trkpt lat="59.0635478145" lon="29.9650722113"><ele>97.484</ele><time>2026-04-25T12:25:14.000Z</time><hdop>3.0</hdop><vdop>3.0</vdop><extensions><gom:speed>0.0</gom:speed></extensions></trkpt>
   <trkpt lat="59.0635478145" lon="29.9650722113"><ele>97.484</ele><time>2026-04-25T12:25:15.000Z</time><hdop>3.0</hdop><vdop>3.0</vdop><extensions><gom:speed>0.0</gom:speed></extensions></trkpt>
   <trkpt lat="59.0635421567" lon="29.9650617339"><ele>97.428</ele><time>2026-04-25T12:25:16.000Z</time><hdop>3.0</hdop><vdop>3.0</vdop><extensions><gom:speed>0.374</gom:speed></extensions></trkpt>
   <trkpt lat="59.0635381334" lon="29.9650552798"><ele>97.423</ele><time>2026-04-25T12:25:17.000Z</time><hdop>3.0</hdop><vdop>3.0</vdop><extensions><gom:speed>0.479</gom:speed></extensions></trkpt>
   <trkpt lat="59.0635310087" lon="29.9650518433"><ele>97.436</ele><time>2026-04-25T12:25:18.000Z</time><hdop>3.0</hdop><vdop>3.0</vdop><extensions><gom:speed>0.667</gom:speed></extensions></trkpt>
   <trkpt lat="59.0635240099" lon="29.9650497478"><ele>97.435</ele><time>2026-04-25T12:25:19.000Z</time><hdop>3.0</hdop><vdop>3.0</vdop><extensions><gom:speed>0.675</gom:speed></extensions></trkpt>
   <trkpt lat="59.0635163404" lon="29.9650490772"><ele>97.437</ele><time>2026-04-25T12:25:20.000Z</time><hdop>3.0</hdop><vdop>3.0</vdop><extensions><gom:speed>0.656</gom:speed></extensions></trkpt>
   <trkpt lat="59.063508671" lon="29.965051508"><ele>97.389</ele><time>2026-04-25T12:25:21.000Z</time><hdop>3.0</hdop><vdop>3.0</vdop><extensions><gom:speed>0.582</gom:speed></extensions></trkpt>
   <trkpt lat="59.0635019235" lon="29.965053352"><ele>97.311</ele><time>2026-04-25T12:25:22.000Z</time><hdop>3.0</hdop><vdop>3.0</vdop><extensions><gom:speed>0.574</gom:speed></extensions></trkpt>
   <trkpt lat="59.0634958048" lon="29.9650526815"><ele>97.224</ele><time>2026-04-25T12:25:23.000Z</time><hdop>3.0</hdop><vdop>3.0</vdop><extensions><gom:speed>0.436</gom:speed></extensions></trkpt>
   <trkpt lat="59.0634901889" lon="29.9650472332"><ele>97.186</ele><time>2026-04-25T12:25:24.000Z</time><hdop>3.0</hdop><vdop>3.0</vdop><extensions><gom:speed>0.569</gom:speed></extensions></trkpt>
   <trkpt lat="59.0634839025" lon="29.9650425393"><ele>97.135</ele><time>2026-04-25T12:25:25.000Z</time><hdop>3.0</hdop><vdop>3.0</vdop><extensions><gom:speed>0.606</gom:speed></extensions></trkpt>
   <trkpt lat="59.0634770293" lon="29.9650396057"><ele>97.061</ele><time>2026-04-25T12:25:26.000Z</time><hdop>3.0</hdop><vdop>3.0</vdop><extensions><gom:speed>0.57</gom:speed></extensions></trkpt>
   <trkpt lat="59.0634702819" lon="29.9650405277"><ele>96.979</ele><time>2026-04-25T12:25:27.000Z</time><hdop>3.0</hdop><vdop>3.0</vdop><extensions><gom:speed>0.37</gom:speed></extensions></trkpt>
   <trkpt lat="59.0634639535" lon="29.9650446348"><ele>96.954</ele><time>2026-04-25T12:25:28.000Z</time><hdop>3.0</hdop><vdop>3.0</vdop><extensions><gom:speed>0.362</gom:speed></extensions></trkpt>
   <trkpt lat="59.0634589663" lon="29.9650479876"><ele>96.945</ele><time>2026-04-25T12:25:29.000Z</time><hdop>3.0</hdop><vdop>3.0</vdop><extensions><gom:speed>0.301</gom:speed></extensions></trkpt>
   <trkpt lat="59.0634537276" lon="29.9650463112"><ele>96.957</ele><time>2026-04-25T12:25:30.000Z</time><hdop>3.0</hdop><vdop>3.0</vdop><extensions><gom:speed>0.548</gom:speed></extensions></trkpt>
   <trkpt lat="59.0634476926" lon="29.9650428746"><ele>96.899</ele><time>2026-04-25T12:25:31.000Z</time><hdop>3.0</hdop><vdop>3.0</vdop><extensions><gom:speed>0.615</gom:speed></extensions></trkpt>
   <trkpt lat="59.0634386821" lon="29.9650353309"><ele>96.868</ele><time>2026-04-25T12:25:32.000Z</time><hdop>3.0</hdop><vdop>3.0</vdop><extensions><gom:speed>0.618</gom:speed></extensions></trkpt>
   <trkpt lat="59.0634288753" lon="29.9650313076"><ele>96.833</ele><time>2026-04-25T12:25:33.000Z</time><hdop>3.0</hdop><vdop>3.0</vdop><extensions><gom:speed>0.608</gom:speed></extensions></trkpt>
   <trkpt lat="59.0634288753" lon="29.9650313076"><ele>96.812</ele><time>2026-04-25T12:25:33.000Z</time><hdop>3.0</hdop><vdop>3.0</vdop><extensions><gom:speed>0.608</gom:speed></extensions></trkpt>
   <trkpt lat="59.063421122" lon="29.9650275357"><ele>96.787</ele><time>2026-04-25T12:25:34.000Z</time><hdop>3.0</hdop><vdop>3.0</vdop><extensions><gom:speed>0.351</gom:speed></extensions></trkpt>
   <trkpt lat="59.0634134106" lon="29.9650267814"><ele>96.729</ele><time>2026-04-25T12:25:35.000Z</time><hdop>3.0</hdop><vdop>3.0</vdop><extensions><gom:speed>0.212</gom:speed></extensions></trkpt>
   <trkpt lat="59.0634134106" lon="29.9650267814"><ele>96.694</ele><time>2026-04-25T12:25:36.000Z</time><hdop>3.0</hdop><vdop>3.0</vdop><extensions><gom:speed>0.0</gom:speed></extensions></trkpt>
   <trkpt lat="59.0634134106" lon="29.9650267814"><ele>96.672</ele><time>2026-04-25T12:25:37.000Z</time><hdop>3.0</hdop><vdop>3.0</vdop><extensions><gom:speed>0.0</gom:speed></extensions></trkpt>
   <trkpt lat="59.0634091778" lon="29.965027871"><ele>96.543</ele><time>2026-04-25T12:25:38.000Z</time><hdop>3.0</hdop><vdop>3.0</vdop><extensions><gom:speed>0.329</gom:speed></extensions></trkpt>
   <trkpt lat="59.0634027656" lon="29.9650287092"><ele>96.377</ele><time>2026-04-25T12:25:39.000Z</time><hdop>3.0</hdop><vdop>3.0</vdop><extensions><gom:speed>0.428</gom:speed></extensions></trkpt>
   <trkpt lat="59.0633928331" lon="29.9650290445"><ele>96.287</ele><time>2026-04-25T12:25:40.000Z</time><hdop>3.0</hdop><vdop>3.0</vdop><extensions><gom:speed>0.713</gom:speed></extensions></trkpt>
   <trkpt lat="59.0633859599" lon="29.9650297989"><ele>96.263</ele><time>2026-04-25T12:25:41.000Z</time><hdop>3.0</hdop><vdop>3.0</vdop><extensions><gom:speed>0.578</gom:speed></extensions></trkpt>
   <trkpt lat="59.063378961" lon="29.9650304694"><ele>96.277</ele><time>2026-04-25T12:25:42.000Z</time><hdop>3.0</hdop><vdop>3.0</vdop><extensions><gom:speed>0.402</gom:speed></extensions></trkpt>
   <trkpt lat="59.0633738062" lon="29.965033906"><ele>96.281</ele><time>2026-04-25T12:25:43.000Z</time><hdop>3.0</hdop><vdop>3.0</vdop><extensions><gom:speed>0.182</gom:speed></extensions></trkpt>
   <trkpt lat="59.0633674778" lon="29.9650386837"><ele>96.224</ele><time>2026-04-25T12:25:44.000Z</time><hdop>3.0</hdop><vdop>3.0</vdop><extensions><gom:speed>0.575</gom:speed></extensions></trkpt>
   <trkpt lat="59.0633538153" lon="29.965045473"><ele>96.205</ele><time>2026-04-25T12:25:45.000Z</time><hdop>3.0</hdop><vdop>3.0</vdop><extensions><gom:speed>0.72</gom:speed></extensions></trkpt>
   <trkpt lat="59.0633442599" lon="29.9650488258"><ele>96.23</ele><time>2026-04-25T12:25:46.000Z</time><hdop>3.0</hdop><vdop>3.0</vdop><extensions><gom:speed>0.76</gom:speed></extensions></trkpt>
   <trkpt lat="59.0633338245" lon="29.9650558666"><ele>96.318</ele><time>2026-04-25T12:25:47.000Z</time><hdop>3.0</hdop><vdop>3.0</vdop><extensions><gom:speed>0.574</gom:speed></extensions></trkpt>
   <trkpt lat="59.0633250235" lon="29.9650559504"><ele>96.416</ele><time>2026-04-25T12:25:48.000Z</time><hdop>3.0</hdop><vdop>3.0</vdop><extensions><gom:speed>0.526</gom:speed></extensions></trkpt>
   <trkpt lat="59.0633166835" lon="29.9650540226"><ele>96.486</ele><time>2026-04-25T12:25:49.000Z</time><hdop>3.0</hdop><vdop>3.0</vdop><extensions><gom:speed>0.596</gom:speed></extensions></trkpt>
   <trkpt lat="59.0633076729" lon="29.9650536035"><ele>96.598</ele><time>2026-04-25T12:25:50.000Z</time><hdop>3.0</hdop><vdop>3.0</vdop><extensions><gom:speed>0.577</gom:speed></extensions></trkpt>
   <trkpt lat="59.06329883" lon="29.9650543578"><ele>96.695</ele><time>2026-04-25T12:25:51.000Z</time><hdop>3.0</hdop><vdop>3.0</vdop><extensions><gom:speed>0.58</gom:speed></extensions></trkpt>
   <trkpt lat="59.0632916216" lon="29.9650563695"><ele>96.794</ele><time>2026-04-25T12:25:52.000Z</time><hdop>3.0</hdop><vdop>3.0</vdop><extensions><gom:speed>0.668</gom:speed></extensions></trkpt>
   <trkpt lat="59.0632860476" lon="29.9650552798"><ele>96.892</ele><time>2026-04-25T12:25:53.000Z</time><hdop>3.0</hdop><vdop>3.0</vdop><extensions><gom:speed>0.348</gom:speed></extensions></trkpt>
   <trkpt lat="59.0632860476" lon="29.9650552798"><ele>96.95</ele><time>2026-04-25T12:25:53.000Z</time><hdop>3.0</hdop><vdop>3.0</vdop><extensions><gom:speed>0.348</gom:speed></extensions></trkpt>
   <trkpt lat="59.0632803479" lon="29.9650525138"><ele>97.002</ele><time>2026-04-25T12:25:54.000Z</time><hdop>3.0</hdop><vdop>3.0</vdop><extensions><gom:speed>0.478</gom:speed></extensions></trkpt>
   <trkpt lat="59.063274313" lon="29.9650478199"><ele>97.012</ele><time>2026-04-25T12:25:55.000Z</time><hdop>3.0</hdop><vdop>3.0</vdop><extensions><gom:speed>0.53</gom:speed></extensions></trkpt>
   <trkpt lat="59.0632680684" lon="29.9650450539"><ele>96.947</ele><time>2026-04-25T12:25:56.000Z</time><hdop>3.0</hdop><vdop>3.0</vdop><extensions><gom:speed>0.567</gom:speed></extensions></trkpt>
   <trkpt lat="59.0632595189" lon="29.9650485743"><ele>96.828</ele><time>2026-04-25T12:25:57.000Z</time><hdop>3.0</hdop><vdop>3.0</vdop><extensions><gom:speed>0.574</gom:speed></extensions></trkpt>
   <trkpt lat="59.0632518495" lon="29.9650518433"><ele>96.764</ele><time>2026-04-25T12:25:58.000Z</time><hdop>3.0</hdop><vdop>3.0</vdop><extensions><gom:speed>0.57</gom:speed></extensions></trkpt>
   <trkpt lat="59.0632439705" lon="29.9650507536"><ele>96.644</ele><time>2026-04-25T12:25:59.000Z</time><hdop>3.0</hdop><vdop>3.0</vdop><extensions><gom:speed>0.599</gom:speed></extensions></trkpt>
   <trkpt lat="59.0632342894" lon="29.9650508374"><ele>96.557</ele><time>2026-04-25T12:26:00.000Z</time><hdop>3.0</hdop><vdop>3.0</vdop><extensions><gom:speed>0.665</gom:speed></extensions></trkpt>
   <trkpt lat="59.0632266618" lon="29.9650540226"><ele>96.442</ele><time>2026-04-25T12:26:01.000Z</time><hdop>3.0</hdop><vdop>3.0</vdop><extensions><gom:speed>0.449</gom:speed></extensions></trkpt>
   <trkpt lat="59.0632207107" lon="29.9650578782"><ele>96.315</ele><time>2026-04-25T12:26:02.000Z</time><hdop>3.0</hdop><vdop>3.0</vdop><extensions><gom:speed>0.432</gom:speed></extensions></trkpt>
   <trkpt lat="59.0632147595" lon="29.9650636617"><ele>96.203</ele><time>2026-04-25T12:26:03.000Z</time><hdop>3.0</hdop><vdop>3.0</vdop><extensions><gom:speed>0.462</gom:speed></extensions></trkpt>
   <trkpt lat="59.0632079702" lon="29.965070032"><ele>96.194</ele><time>2026-04-25T12:26:04.000Z</time><hdop>3.0</hdop><vdop>3.0</vdop><extensions><gom:speed>0.618</gom:speed></extensions></trkpt>
   <trkpt lat="59.0632024381" lon="29.965076989"><ele>96.165</ele><time>2026-04-25T12:26:05.000Z</time><hdop>3.0</hdop><vdop>3.0</vdop><extensions><gom:speed>0.501</gom:speed></extensions></trkpt>
   <trkpt lat="59.0631954393" lon="29.9650934175"><ele>96.113</ele><time>2026-04-25T12:26:06.000Z</time><hdop>3.0</hdop><vdop>3.0</vdop><extensions><gom:speed>0.443</gom:speed></extensions></trkpt>
   <trkpt lat="59.0631870993" lon="29.9651084211"><ele>96.12</ele><time>2026-04-25T12:26:07.000Z</time><hdop>3.0</hdop><vdop>3.0</vdop><extensions><gom:speed>0.592</gom:speed></extensions></trkpt>
   <trkpt lat="59.0631772924" lon="29.9651220836"><ele>96.112</ele><time>2026-04-25T12:26:08.000Z</time><hdop>3.0</hdop><vdop>3.0</vdop><extensions><gom:speed>0.69</gom:speed></extensions></trkpt>
   <trkpt lat="59.0631772924" lon="29.9651220836"><ele>96.107</ele><time>2026-04-25T12:26:08.000Z</time><hdop>3.0</hdop><vdop>3.0</vdop><extensions><gom:speed>0.69</gom:speed></extensions></trkpt>
   <trkpt lat="59.0631670246" lon="29.9651301302"><ele>96.094</ele><time>2026-04-25T12:26:09.000Z</time><hdop>3.0</hdop><vdop>3.0</vdop><extensions><gom:speed>0.721</gom:speed></extensions></trkpt>
   <trkpt lat="59.0631580141" lon="29.9651350756"><ele>96.125</ele><time>2026-04-25T12:26:10.000Z</time><hdop>3.0</hdop><vdop>3.0</vdop><extensions><gom:speed>0.622</gom:speed></extensions></trkpt>
   <trkpt lat="59.0631580141" lon="29.9651350756"><ele>96.143</ele><time>2026-04-25T12:26:10.000Z</time><hdop>3.0</hdop><vdop>3.0</vdop><extensions><gom:speed>0.622</gom:speed></extensions></trkpt>
   <trkpt lat="59.0631471176" lon="29.9651370872"><ele>96.182</ele><time>2026-04-25T12:26:11.000Z</time><hdop>3.0</hdop><vdop>3.0</vdop><extensions><gom:speed>0.519</gom:speed></extensions></trkpt>
   <trkpt lat="59.0631388195" lon="29.9651339859"><ele>96.203</ele><time>2026-04-25T12:26:12.000Z</time><hdop>3.0</hdop><vdop>3.0</vdop><extensions><gom:speed>0.445</gom:speed></extensions></trkpt>
   <trkpt lat="59.0631326588" lon="29.9651296273"><ele>96.256</ele><time>2026-04-25T12:26:13.000Z</time><hdop>3.0</hdop><vdop>3.0</vdop><extensions><gom:speed>0.476</gom:speed></extensions></trkpt>
   <trkpt lat="59.0631326588" lon="29.9651296273"><ele>96.287</ele><time>2026-04-25T12:26:13.000Z</time><hdop>3.0</hdop><vdop>3.0</vdop><extensions><gom:speed>0.476</gom:speed></extensions></trkpt>
   <trkpt lat="59.0631266238" lon="29.9651249335"><ele>96.362</ele><time>2026-04-25T12:26:14.000Z</time><hdop>3.5</hdop><vdop>3.5</vdop><extensions><gom:speed>0.441</gom:speed></extensions></trkpt>
   <trkpt lat="59.0631210499" lon="29.9651176412"><ele>96.406</ele><time>2026-04-25T12:26:15.000Z</time><hdop>3.375</hdop><vdop>3.375</vdop><extensions><gom:speed>0.353</gom:speed></extensions></trkpt>
   <trkpt lat="59.0631193735" lon="29.9651141208"><ele>96.472</ele><time>2026-04-25T12:26:16.000Z</time><hdop>3.375</hdop><vdop>3.375</vdop><extensions><gom:speed>0.31</gom:speed></extensions></trkpt>
   <trkpt lat="59.0631163141" lon="29.9651125282"><ele>96.519</ele><time>2026-04-25T12:26:17.000Z</time><hdop>3.375</hdop><vdop>3.375</vdop><extensions><gom:speed>0.21</gom:speed></extensions></trkpt>
   <trkpt lat="59.0631163141" lon="29.9651125282"><ele>96.547</ele><time>2026-04-25T12:26:18.000Z</time><hdop>3.375</hdop><vdop>3.375</vdop><extensions><gom:speed>0.0</gom:speed></extensions></trkpt>
   <trkpt lat="59.0631163141" lon="29.9651125282"><ele>96.563</ele><time>2026-04-25T12:26:19.000Z</time><hdop>3.375</hdop><vdop>3.375</vdop><extensions><gom:speed>0.0</gom:speed></extensions></trkpt>
   <trkpt lat="59.0631106982" lon="29.9651100137"><ele>96.741</ele><time>2026-04-25T12:26:20.000Z</time><hdop>3.25</hdop><vdop>3.25</vdop><extensions><gom:speed>0.264</gom:speed></extensions></trkpt>
   <trkpt lat="59.0631075969" lon="29.9651074153"><ele>96.934</ele><time>2026-04-25T12:26:21.000Z</time><hdop>3.812</hdop><vdop>3.812</vdop><extensions><gom:speed>0.306</gom:speed></extensions></trkpt>
   <trkpt lat="59.0631021068" lon="29.9651045654"><ele>97.006</ele><time>2026-04-25T12:26:22.000Z</time><hdop>4.125</hdop><vdop>4.125</vdop><extensions><gom:speed>0.477</gom:speed></extensions></trkpt>
   <trkpt lat="59.063095066" lon="29.9651043978"><ele>97.086</ele><time>2026-04-25T12:26:23.000Z</time><hdop>3.75</hdop><vdop>3.75</vdop><extensions><gom:speed>0.598</gom:speed></extensions></trkpt>
   <trkpt lat="59.0630859716" lon="29.965103392"><ele>97.204</ele><time>2026-04-25T12:26:24.000Z</time><hdop>3.562</hdop><vdop>3.562</vdop><extensions><gom:speed>0.707</gom:speed></extensions></trkpt>
   <trkpt lat="59.063078847" lon="29.9651048169"><ele>97.312</ele><time>2026-04-25T12:26:25.000Z</time><hdop>3.437</hdop><vdop>3.437</vdop><extensions><gom:speed>0.58</gom:speed></extensions></trkpt>
   <trkpt lat="59.0630743208" lon="29.9651043978"><ele>97.456</ele><time>2026-04-25T12:26:26.000Z</time><hdop>3.125</hdop><vdop>3.125</vdop><extensions><gom:speed>0.389</gom:speed></extensions></trkpt>
   <trkpt lat="59.063068202" lon="29.9650987819"><ele>97.702</ele><time>2026-04-25T12:26:27.000Z</time><hdop>3.062</hdop><vdop>3.062</vdop><extensions><gom:speed>0.654</gom:speed></extensions></trkpt>
   <trkpt lat="59.0630608678" lon="29.9650965188"><ele>97.967</ele><time>2026-04-25T12:26:28.000Z</time><hdop>3.0</hdop><vdop>3.0</vdop><extensions><gom:speed>0.6</gom:speed></extensions></trkpt>
   <trkpt lat="59.0630521087" lon="29.9650962673"><ele>98.226</ele><time>2026-04-25T12:26:29.000Z</time><hdop>3.0</hdop><vdop>3.0</vdop><extensions><gom:speed>0.551</gom:speed></extensions></trkpt>
   <trkpt lat="59.0630412961" lon="29.9650942557"><ele>98.496</ele><time>2026-04-25T12:26:30.000Z</time><hdop>3.0</hdop><vdop>3.0</vdop><extensions><gom:speed>0.596</gom:speed></extensions></trkpt>
   <trkpt lat="59.0630294357" lon="29.9650929984"><ele>98.732</ele><time>2026-04-25T12:26:31.000Z</time><hdop>3.0</hdop><vdop>3.0</vdop><extensions><gom:speed>0.701</gom:speed></extensions></trkpt>
   <trkpt lat="59.0630173238" lon="29.9650898133"><ele>98.919</ele><time>2026-04-25T12:26:32.000Z</time><hdop>3.0</hdop><vdop>3.0</vdop><extensions><gom:speed>0.789</gom:speed></extensions></trkpt>
   <trkpt lat="59.0630063435" lon="29.965084365"><ele>99.031</ele><time>2026-04-25T12:26:33.000Z</time><hdop>3.0</hdop><vdop>3.0</vdop><extensions><gom:speed>1.179</gom:speed></extensions></trkpt>
   <trkpt lat="59.0630063435" lon="29.965084365"><ele>99.098</ele><time>2026-04-25T12:26:33.000Z</time><hdop>3.0</hdop><vdop>3.0</vdop><extensions><gom:speed>1.179</gom:speed></extensions></trkpt>
   <trkpt lat="59.0629939383" lon="29.9650810123"><ele>99.138</ele><time>2026-04-25T12:26:34.000Z</time><hdop>3.0</hdop><vdop>3.0</vdop><extensions><gom:speed>0.927</gom:speed></extensions></trkpt>
   <trkpt lat="59.0629836705" lon="29.9650758993"><ele>99.181</ele><time>2026-04-25T12:26:35.000Z</time><hdop>3.0</hdop><vdop>3.0</vdop><extensions><gom:speed>0.836</gom:speed></extensions></trkpt>
   <trkpt lat="59.0629751209" lon="29.9650669307"><ele>99.194</ele><time>2026-04-25T12:26:36.000Z</time><hdop>3.0</hdop><vdop>3.0</vdop><extensions><gom:speed>0.783</gom:speed></extensions></trkpt>
   <trkpt lat="59.0629675353" lon="29.9650569562"><ele>99.238</ele><time>2026-04-25T12:26:37.000Z</time><hdop>3.0</hdop><vdop>3.0</vdop><extensions><gom:speed>0.673</gom:speed></extensions></trkpt>
   <trkpt lat="59.0629608298" lon="29.9650525976"><ele>99.341</ele><time>2026-04-25T12:26:38.000Z</time><hdop>3.062</hdop><vdop>3.062</vdop><extensions><gom:speed>0.518</gom:speed></extensions></trkpt>
   <trkpt lat="59.0629527412" lon="29.9650522624"><ele>99.455</ele><time>2026-04-25T12:26:39.000Z</time><hdop>3.0</hdop><vdop>3.0</vdop><extensions><gom:speed>0.431</gom:speed></extensions></trkpt>
   <trkpt lat="59.0629458681" lon="29.9650530167"><ele>99.519</ele><time>2026-04-25T12:26:40.000Z</time><hdop>3.0</hdop><vdop>3.0</vdop><extensions><gom:speed>0.565</gom:speed></extensions></trkpt>
   <trkpt lat="59.0629394978" lon="29.9650598061"><ele>99.616</ele><time>2026-04-25T12:26:41.000Z</time><hdop>3.0</hdop><vdop>3.0</vdop><extensions><gom:speed>0.499</gom:speed></extensions></trkpt>
   <trkpt lat="59.062933421" lon="29.965066344"><ele>99.772</ele><time>2026-04-25T12:26:42.000Z</time><hdop>3.0</hdop><vdop>3.0</vdop><extensions><gom:speed>0.442</gom:speed></extensions></trkpt>
   <trkpt lat="59.0629271345" lon="29.9650665954"><ele>99.962</ele><time>2026-04-25T12:26:43.000Z</time><hdop>3.0</hdop><vdop>3.0</vdop><extensions><gom:speed>0.53</gom:speed></extensions></trkpt>
   <trkpt lat="59.0629207224" lon="29.9650681042"><ele>100.14</ele><time>2026-04-25T12:26:44.000Z</time><hdop>3.125</hdop><vdop>3.125</vdop><extensions><gom:speed>0.601</gom:speed></extensions></trkpt>
   <trkpt lat="59.0629123824" lon="29.9650680203"><ele>100.232</ele><time>2026-04-25T12:26:45.000Z</time><hdop>3.062</hdop><vdop>3.062</vdop><extensions><gom:speed>0.728</gom:speed></extensions></trkpt>
   <trkpt lat="59.0629053835" lon="29.9650715407"><ele>99.308</ele><time>2026-04-25T12:26:46.000Z</time><hdop>4.625</hdop><vdop>4.625</vdop><extensions><gom:speed>0.842</gom:speed></extensions></trkpt>
   <trkpt lat="59.0628959119" lon="29.9650742229"><ele>98.766</ele><time>2026-04-25T12:26:47.000Z</time><hdop>2.75</hdop><vdop>2.75</vdop><extensions><gom:speed>0.816</gom:speed></extensions></trkpt>
   <trkpt lat="59.0628848897" lon="29.9650798388"><ele>98.595</ele><time>2026-04-25T12:26:48.000Z</time><hdop>2.375</hdop><vdop>2.375</vdop><extensions><gom:speed>0.731</gom:speed></extensions></trkpt>
   <trkpt lat="59.0628739933" lon="29.965079755"><ele>98.516</ele><time>2026-04-25T12:26:49.000Z</time><hdop>2.375</hdop><vdop>2.375</vdop><extensions><gom:speed>0.715</gom:speed></extensions></trkpt>
   <trkpt lat="59.0628645217" lon="29.9650577106"><ele>98.564</ele><time>2026-04-25T12:26:50.000Z</time><hdop>2.687</hdop><vdop>2.687</vdop><extensions><gom:speed>0.475</gom:speed></extensions></trkpt>
   <trkpt lat="59.0628656533" lon="29.965036672"><ele>98.736</ele><time>2026-04-25T12:26:51.000Z</time><hdop>3.062</hdop><vdop>3.062</vdop><extensions><gom:speed>0.551</gom:speed></extensions></trkpt>
   <trkpt lat="59.0628642283" lon="29.9650313076"><ele>98.95</ele><time>2026-04-25T12:26:52.000Z</time><hdop>3.187</hdop><vdop>3.187</vdop><extensions><gom:speed>0.542</gom:speed></extensions></trkpt>
   <trkpt lat="59.062863935" lon="29.9650203273"><ele>98.946</ele><time>2026-04-25T12:26:53.000Z</time><hdop>3.0</hdop><vdop>3.0</vdop><extensions><gom:speed>0.501</gom:speed></extensions></trkpt>
   <trkpt lat="59.062863935" lon="29.9650203273"><ele>98.943</ele><time>2026-04-25T12:26:53.000Z</time><hdop>3.0</hdop><vdop>3.0</vdop><extensions><gom:speed>0.501</gom:speed></extensions></trkpt>
   <trkpt lat="59.0628664915" lon="29.9650044855"><ele>98.995</ele><time>2026-04-25T12:26:54.000Z</time><hdop>3.062</hdop><vdop>3.062</vdop><extensions><gom:speed>0.558</gom:speed></extensions></trkpt>
   <trkpt lat="59.0628680421" lon="29.9649875541"><ele>98.992</ele><time>2026-04-25T12:26:55.000Z</time><hdop>3.25</hdop><vdop>3.25</vdop><extensions><gom:speed>0.614</gom:speed></extensions></trkpt>
   <trkpt lat="59.0628637254" lon="29.9649707064"><ele>98.781</ele><time>2026-04-25T12:26:56.000Z</time><hdop>3.437</hdop><vdop>3.437</vdop><extensions><gom:speed>0.517</gom:speed></extensions></trkpt>
   <trkpt lat="59.0628552178" lon="29.964958385"><ele>98.765</ele><time>2026-04-25T12:26:57.000Z</time><hdop>3.562</hdop><vdop>3.562</vdop><extensions><gom:speed>0.221</gom:speed></extensions></trkpt>
   <trkpt lat="59.0628399208" lon="29.9649490811"><ele>98.914</ele><time>2026-04-25T12:26:58.000Z</time><hdop>3.875</hdop><vdop>3.875</vdop><extensions><gom:speed>2.461</gom:speed></extensions></trkpt>
   <trkpt lat="59.0628403818" lon="29.9649458122"><ele>100.06</ele><time>2026-04-25T12:26:59.000Z</time><hdop>3.0</hdop><vdop>3.0</vdop><extensions><gom:speed>0.116</gom:speed></extensions></trkpt>
   <trkpt lat="59.0628403818" lon="29.9649401125"><ele>100.745</ele><time>2026-04-25T12:27:00.000Z</time><hdop>3.0</hdop><vdop>3.0</vdop><extensions><gom:speed>0.0</gom:speed></extensions></trkpt>
   <trkpt lat="59.0628400466" lon="29.9649348319"><ele>101.154</ele><time>2026-04-25T12:27:01.000Z</time><hdop>3.0</hdop><vdop>3.0</vdop><extensions><gom:speed>0.0</gom:speed></extensions></trkpt>
   <trkpt lat="59.0628396275" lon="29.9649318982"><ele>101.398</ele><time>2026-04-25T12:27:02.000Z</time><hdop>3.0</hdop><vdop>3.0</vdop><extensions><gom:speed>0.0</gom:speed></extensions></trkpt>
   <trkpt lat="59.0628386635" lon="29.9649307248"><ele>101.544</ele><time>2026-04-25T12:27:03.000Z</time><hdop>3.0</hdop><vdop>3.0</vdop><extensions><gom:speed>0.0</gom:speed></extensions></trkpt>
   <trkpt lat="59.0628386635" lon="29.9649307248"><ele>101.632</ele><time>2026-04-25T12:27:04.000Z</time><hdop>3.0</hdop><vdop>3.0</vdop><extensions><gom:speed>0.0</gom:speed></extensions></trkpt>
   <trkpt lat="59.0628386635" lon="29.9649307248"><ele>101.684</ele><time>2026-04-25T12:27:05.000Z</time><hdop>3.0</hdop><vdop>3.0</vdop><extensions><gom:speed>0.0</gom:speed></extensions></trkpt>
   <trkpt lat="59.0628386635" lon="29.9649307248"><ele>101.715</ele><time>2026-04-25T12:27:06.000Z</time><hdop>3.0</hdop><vdop>3.0</vdop><extensions><gom:speed>0.0</gom:speed></extensions></trkpt>
   <trkpt lat="59.0628386635" lon="29.9649307248"><ele>101.734</ele><time>2026-04-25T12:27:07.000Z</time><hdop>3.0</hdop><vdop>3.0</vdop><extensions><gom:speed>0.0</gom:speed></extensions></trkpt>
   <trkpt lat="59.0628386635" lon="29.9649307248"><ele>101.745</ele><time>2026-04-25T12:27:08.000Z</time><hdop>3.0</hdop><vdop>3.0</vdop><extensions><gom:speed>0.0</gom:speed></extensions></trkpt>
   <trkpt lat="59.0628386635" lon="29.9649307248"><ele>101.751</ele><time>2026-04-25T12:27:09.000Z</time><hdop>3.0</hdop><vdop>3.0</vdop><extensions><gom:speed>0.0</gom:speed></extensions></trkpt>
   <trkpt lat="59.0628386635" lon="29.9649307248"><ele>101.755</ele><time>2026-04-25T12:27:10.000Z</time><hdop>3.0</hdop><vdop>3.0</vdop><extensions><gom:speed>0.0</gom:speed></extensions></trkpt>
   <trkpt lat="59.0628386635" lon="29.9649307248"><ele>101.758</ele><time>2026-04-25T12:27:11.000Z</time><hdop>3.0</hdop><vdop>3.0</vdop><extensions><gom:speed>0.0</gom:speed></extensions></trkpt>
   <trkpt lat="59.0628386635" lon="29.9649307248"><ele>101.759</ele><time>2026-04-25T12:27:12.000Z</time><hdop>3.0</hdop><vdop>3.0</vdop><extensions><gom:speed>0.0</gom:speed></extensions></trkpt>
   <trkpt lat="59.0628386635" lon="29.9649307248"><ele>101.76</ele><time>2026-04-25T12:27:13.000Z</time><hdop>3.0</hdop><vdop>3.0</vdop><extensions><gom:speed>0.0</gom:speed></extensions></trkpt>
   <trkpt lat="59.0628386635" lon="29.9649307248"><ele>101.76</ele><time>2026-04-25T12:27:13.000Z</time><hdop>3.0</hdop><vdop>3.0</vdop><extensions><gom:speed>0.0</gom:speed></extensions></trkpt>
   <trkpt lat="59.0628355203" lon="29.9649274558"><ele>101.772</ele><time>2026-04-25T12:27:14.000Z</time><hdop>3.0</hdop><vdop>3.0</vdop><extensions><gom:speed>0.374</gom:speed></extensions></trkpt>
   <trkpt lat="59.0628318323" lon="29.9649175652"><ele>101.8</ele><time>2026-04-25T12:27:15.000Z</time><hdop>3.0</hdop><vdop>3.0</vdop><extensions><gom:speed>0.485</gom:speed></extensions></trkpt>
   <trkpt lat="59.062826887" lon="29.9649042379"><ele>101.763</ele><time>2026-04-25T12:27:16.000Z</time><hdop>3.0</hdop><vdop>3.0</vdop><extensions><gom:speed>0.633</gom:speed></extensions></trkpt>
   <trkpt lat="59.0628226541" lon="29.9648914975"><ele>101.722</ele><time>2026-04-25T12:27:17.000Z</time><hdop>3.0</hdop><vdop>3.0</vdop><extensions><gom:speed>0.674</gom:speed></extensions></trkpt>
   <trkpt lat="59.0628172897" lon="29.9648764938"><ele>101.654</ele><time>2026-04-25T12:27:18.000Z</time><hdop>3.0</hdop><vdop>3.0</vdop><extensions><gom:speed>0.701</gom:speed></extensions></trkpt>
   <trkpt lat="59.0628046749" lon="29.9648552038"><ele>101.563</ele><time>2026-04-25T12:27:19.000Z</time><hdop>3.0</hdop><vdop>3.0</vdop><extensions><gom:speed>0.706</gom:speed></extensions></trkpt>
   <trkpt lat="59.0627955806" lon="29.9648398649"><ele>101.47</ele><time>2026-04-25T12:27:20.000Z</time><hdop>3.0</hdop><vdop>3.0</vdop><extensions><gom:speed>0.515</gom:speed></extensions></trkpt>
   <trkpt lat="59.0627858995" lon="29.9648282141"><ele>101.355</ele><time>2026-04-25T12:27:21.000Z</time><hdop>3.0</hdop><vdop>3.0</vdop><extensions><gom:speed>0.401</gom:speed></extensions></trkpt>
   <trkpt lat="59.0627787748" lon="29.9648216762"><ele>101.276</ele><time>2026-04-25T12:27:22.000Z</time><hdop>3.0</hdop><vdop>3.0</vdop><extensions><gom:speed>0.496</gom:speed></extensions></trkpt>
   <trkpt lat="59.0627787748" lon="29.9648216762"><ele>101.228</ele><time>2026-04-25T12:27:23.000Z</time><hdop>3.0</hdop><vdop>3.0</vdop><extensions><gom:speed>0.0</gom:speed></extensions></trkpt>
   <trkpt lat="59.0627787748" lon="29.9648216762"><ele>101.199</ele><time>2026-04-25T12:27:24.000Z</time><hdop>3.0</hdop><vdop>3.0</vdop><extensions><gom:speed>0.0</gom:speed></extensions></trkpt>
   <trkpt lat="59.0627740391" lon="29.9648172338"><ele>101.21</ele><time>2026-04-25T12:27:25.000Z</time><hdop>3.0</hdop><vdop>3.0</vdop><extensions><gom:speed>0.524</gom:speed></extensions></trkpt>
   <trkpt lat="59.0627617177" lon="29.9648067564"><ele>101.208</ele><time>2026-04-25T12:27:26.000Z</time><hdop>3.0</hdop><vdop>3.0</vdop><extensions><gom:speed>0.565</gom:speed></extensions></trkpt>
   <trkpt lat="59.0627516594" lon="29.9647994642"><ele>101.168</ele><time>2026-04-25T12:27:27.000Z</time><hdop>3.0</hdop><vdop>3.0</vdop><extensions><gom:speed>0.53</gom:speed></extensions></trkpt>
   <trkpt lat="59.0627453311" lon="29.9647920043"><ele>101.199</ele><time>2026-04-25T12:27:28.000Z</time><hdop>3.0</hdop><vdop>3.0</vdop><extensions><gom:speed>0.637</gom:speed></extensions></trkpt>
   <trkpt lat="59.0627392542" lon="29.9647842091"><ele>101.253</ele><time>2026-04-25T12:27:29.000Z</time><hdop>3.0</hdop><vdop>3.0</vdop><extensions><gom:speed>0.531</gom:speed></extensions></trkpt>
   <trkpt lat="59.0627338059" lon="29.9647792638"><ele>101.256</ele><time>2026-04-25T12:27:30.000Z</time><hdop>3.0</hdop><vdop>3.0</vdop><extensions><gom:speed>0.498</gom:speed></extensions></trkpt>
   <trkpt lat="59.0627267232" lon="29.964778677"><ele>101.268</ele><time>2026-04-25T12:27:31.000Z</time><hdop>3.0</hdop><vdop>3.0</vdop><extensions><gom:speed>0.741</gom:speed></extensions></trkpt>
   <trkpt lat="59.0627199758" lon="29.9647785932"><ele>101.244</ele><time>2026-04-25T12:27:32.000Z</time><hdop>3.0</hdop><vdop>3.0</vdop><extensions><gom:speed>0.564</gom:speed></extensions></trkpt>
   <trkpt lat="59.0627154496" lon="29.9647781741"><ele>101.186</ele><time>2026-04-25T12:27:33.000Z</time><hdop>3.0</hdop><vdop>3.0</vdop><extensions><gom:speed>0.341</gom:speed></extensions></trkpt>
   <trkpt lat="59.0627154496" lon="29.9647781741"><ele>101.15</ele><time>2026-04-25T12:27:33.000Z</time><hdop>3.0</hdop><vdop>3.0</vdop><extensions><gom:speed>0.341</gom:speed></extensions></trkpt>
   <trkpt lat="59.0627100851" lon="29.9647799343"><ele>101.112</ele><time>2026-04-25T12:27:34.000Z</time><hdop>3.0</hdop><vdop>3.0</vdop><extensions><gom:speed>0.349</gom:speed></extensions></trkpt>
   <trkpt lat="59.0627100851" lon="29.9647799343"><ele>101.09</ele><time>2026-04-25T12:27:35.000Z</time><hdop>3.0</hdop><vdop>3.0</vdop><extensions><gom:speed>0.0</gom:speed></extensions></trkpt>
   <trkpt lat="59.0627100851" lon="29.9647799343"><ele>101.076</ele><time>2026-04-25T12:27:36.000Z</time><hdop>3.0</hdop><vdop>3.0</vdop><extensions><gom:speed>0.0</gom:speed></extensions></trkpt>
   <trkpt lat="59.0627100851" lon="29.9647799343"><ele>101.068</ele><time>2026-04-25T12:27:37.000Z</time><hdop>3.0</hdop><vdop>3.0</vdop><extensions><gom:speed>0.0</gom:speed></extensions></trkpt>
   <trkpt lat="59.0627055589" lon="29.9647845444"><ele>101.028</ele><time>2026-04-25T12:27:38.000Z</time><hdop>3.0</hdop><vdop>3.0</vdop><extensions><gom:speed>0.478</gom:speed></extensions></trkpt>
   <trkpt lat="59.0626991049" lon="29.9647913337"><ele>100.979</ele><time>2026-04-25T12:27:39.000Z</time><hdop>3.0</hdop><vdop>3.0</vdop><extensions><gom:speed>0.507</gom:speed></extensions></trkpt>
   <trkpt lat="59.0626919383" lon="29.964796279"><ele>100.914</ele><time>2026-04-25T12:27:40.000Z</time><hdop>3.0</hdop><vdop>3.0</vdop><extensions><gom:speed>0.727</gom:speed></extensions></trkpt>
   <trkpt lat="59.0626834307" lon="29.964797201"><ele>100.795</ele><time>2026-04-25T12:27:41.000Z</time><hdop>3.0</hdop><vdop>3.0</vdop><extensions><gom:speed>0.516</gom:speed></extensions></trkpt>
   <trkpt lat="59.0626768928" lon="29.9647932615"><ele>100.65</ele><time>2026-04-25T12:27:42.000Z</time><hdop>3.375</hdop><vdop>3.375</vdop><extensions><gom:speed>0.407</gom:speed></extensions></trkpt>
   <trkpt lat="59.0626722828" lon="29.9647908308"><ele>100.54</ele><time>2026-04-25T12:27:43.000Z</time><hdop>3.625</hdop><vdop>3.625</vdop><extensions><gom:speed>0.115</gom:speed></extensions></trkpt>
   <trkpt lat="59.0626662478" lon="29.9647917528"><ele>100.475</ele><time>2026-04-25T12:27:44.000Z</time><hdop>3.562</hdop><vdop>3.562</vdop><extensions><gom:speed>0.337</gom:speed></extensions></trkpt>
   <trkpt lat="59.0626603805" lon="29.9647943512"><ele>100.404</ele><time>2026-04-25T12:27:45.000Z</time><hdop>3.0</hdop><vdop>3.0</vdop><extensions><gom:speed>0.305</gom:speed></extensions></trkpt>
   <trkpt lat="59.0626566924" lon="29.9647983745"><ele>100.348</ele><time>2026-04-25T12:27:46.000Z</time><hdop>3.0</hdop><vdop>3.0</vdop><extensions><gom:speed>0.166</gom:speed></extensions></trkpt>
   <trkpt lat="59.0626534654" lon="29.9648031522"><ele>100.298</ele><time>2026-04-25T12:27:47.000Z</time><hdop>3.0</hdop><vdop>3.0</vdop><extensions><gom:speed>0.216</gom:speed></extensions></trkpt>
   <trkpt lat="59.0626482686" lon="29.9648101092"><ele>100.22</ele><time>2026-04-25T12:27:48.000Z</time><hdop>3.0</hdop><vdop>3.0</vdop><extensions><gom:speed>0.276</gom:speed></extensions></trkpt>
   <trkpt lat="59.0626446644" lon="29.9648164794"><ele>100.149</ele><time>2026-04-25T12:27:49.000Z</time><hdop>3.0</hdop><vdop>3.0</vdop><extensions><gom:speed>0.282</gom:speed></extensions></trkpt>
   <trkpt lat="59.0626434071" lon="29.9648210895"><ele>100.085</ele><time>2026-04-25T12:27:50.000Z</time><hdop>3.0</hdop><vdop>3.0</vdop><extensions><gom:speed>0.229</gom:speed></extensions></trkpt>
   <trkpt lat="59.0626410183" lon="29.9648218438"><ele>100.029</ele><time>2026-04-25T12:27:51.000Z</time><hdop>3.0</hdop><vdop>3.0</vdop><extensions><gom:speed>0.258</gom:speed></extensions></trkpt>
   <trkpt lat="59.0626410183" lon="29.9648218438"><ele>99.996</ele><time>2026-04-25T12:27:52.000Z</time><hdop>3.0</hdop><vdop>3.0</vdop><extensions><gom:speed>0.0</gom:speed></extensions></trkpt>
   <trkpt lat="59.0626410183" lon="29.9648218438"><ele>99.976</ele><time>2026-04-25T12:27:53.000Z</time><hdop>3.0</hdop><vdop>3.0</vdop><extensions><gom:speed>0.0</gom:speed></extensions></trkpt>
   <trkpt lat="59.0626410183" lon="29.9648218438"><ele>99.964</ele><time>2026-04-25T12:27:53.000Z</time><hdop>3.0</hdop><vdop>3.0</vdop><extensions><gom:speed>0.0</gom:speed></extensions></trkpt>
   <trkpt lat="59.0626410183" lon="29.9648218438"><ele>99.957</ele><time>2026-04-25T12:27:54.000Z</time><hdop>3.0</hdop><vdop>3.0</vdop><extensions><gom:speed>0.0</gom:speed></extensions></trkpt>
   <trkpt lat="59.0626367854" lon="29.9648225144"><ele>99.933</ele><time>2026-04-25T12:27:55.000Z</time><hdop>3.0</hdop><vdop>3.0</vdop><extensions><gom:speed>0.663</gom:speed></extensions></trkpt>
   <trkpt lat="59.0626307923" lon="29.9648195807"><ele>99.887</ele><time>2026-04-25T12:27:56.000Z</time><hdop>3.0</hdop><vdop>3.0</vdop><extensions><gom:speed>0.504</gom:speed></extensions></trkpt>
   <trkpt lat="59.0626247155" lon="29.964818994"><ele>99.846</ele><time>2026-04-25T12:27:57.000Z</time><hdop>3.0</hdop><vdop>3.0</vdop><extensions><gom:speed>0.416</gom:speed></extensions></trkpt>
   <trkpt lat="59.062619393" lon="29.964818072"><ele>99.835</ele><time>2026-04-25T12:27:58.000Z</time><hdop>3.0</hdop><vdop>3.0</vdop><extensions><gom:speed>0.371</gom:speed></extensions></trkpt>
   <trkpt lat="59.0626148248" lon="29.9648219277"><ele>99.821</ele><time>2026-04-25T12:27:59.000Z</time><hdop>3.0</hdop><vdop>3.0</vdop><extensions><gom:speed>0.177</gom:speed></extensions></trkpt>
   <trkpt lat="59.062610592" lon="29.9648273759"><ele>99.789</ele><time>2026-04-25T12:28:00.000Z</time><hdop>3.0</hdop><vdop>3.0</vdop><extensions><gom:speed>0.412</gom:speed></extensions></trkpt>
   <trkpt lat="59.062610592" lon="29.9648273759"><ele>99.769</ele><time>2026-04-25T12:28:01.000Z</time><hdop>3.0</hdop><vdop>3.0</vdop><extensions><gom:speed>0.0</gom:speed></extensions></trkpt>
   <trkpt lat="59.0626067782" lon="29.9648355902"><ele>99.775</ele><time>2026-04-25T12:28:02.000Z</time><hdop>3.0</hdop><vdop>3.0</vdop><extensions><gom:speed>0.473</gom:speed></extensions></trkpt>
   <trkpt lat="59.0626067782" lon="29.9648355902"><ele>99.779</ele><time>2026-04-25T12:28:03.000Z</time><hdop>3.0</hdop><vdop>3.0</vdop><extensions><gom:speed>0.0</gom:speed></extensions></trkpt>
   <trkpt lat="59.0625970552" lon="29.9648354225"><ele>99.777</ele><time>2026-04-25T12:28:04.000Z</time><hdop>3.0</hdop><vdop>3.0</vdop><extensions><gom:speed>0.519</gom:speed></extensions></trkpt>
   <trkpt lat="59.0625875836" lon="29.9648382724"><ele>99.742</ele><time>2026-04-25T12:28:05.000Z</time><hdop>3.0</hdop><vdop>3.0</vdop><extensions><gom:speed>0.705</gom:speed></extensions></trkpt>
   <trkpt lat="59.0625785312" lon="29.9648397811"><ele>99.69</ele><time>2026-04-25T12:28:06.000Z</time><hdop>3.0</hdop><vdop>3.0</vdop><extensions><gom:speed>0.558</gom:speed></extensions></trkpt>
   <trkpt lat="59.0625706941" lon="29.9648342491"><ele>99.619</ele><time>2026-04-25T12:28:07.000Z</time><hdop>3.0</hdop><vdop>3.0</vdop><extensions><gom:speed>0.536</gom:speed></extensions></trkpt>
   <trkpt lat="59.0625564868" lon="29.9648304772"><ele>99.552</ele><time>2026-04-25T12:28:08.000Z</time><hdop>3.0</hdop><vdop>3.0</vdop><extensions><gom:speed>0.224</gom:speed></extensions></trkpt>
   <trkpt lat="59.0625479372" lon="29.9648272921"><ele>99.465</ele><time>2026-04-25T12:28:09.000Z</time><hdop>3.0</hdop><vdop>3.0</vdop><extensions><gom:speed>0.271</gom:speed></extensions></trkpt>
   <trkpt lat="59.0625430338" lon="29.9648228497"><ele>99.38</ele><time>2026-04-25T12:28:10.000Z</time><hdop>3.0</hdop><vdop>3.0</vdop><extensions><gom:speed>0.262</gom:speed></extensions></trkpt>
   <trkpt lat="59.0625430338" lon="29.9648228497"><ele>99.329</ele><time>2026-04-25T12:28:11.000Z</time><hdop>3.0</hdop><vdop>3.0</vdop><extensions><gom:speed>0.0</gom:speed></extensions></trkpt>
   <trkpt lat="59.0625403935" lon="29.9648231849"><ele>99.301</ele><time>2026-04-25T12:28:12.000Z</time><hdop>3.0</hdop><vdop>3.0</vdop><extensions><gom:speed>0.269</gom:speed></extensions></trkpt>
   <trkpt lat="59.0625311315" lon="29.9648183234"><ele>99.276</ele><time>2026-04-25T12:28:13.000Z</time><hdop>3.0</hdop><vdop>3.0</vdop><extensions><gom:speed>0.511</gom:speed></extensions></trkpt>
   <trkpt lat="59.0625311315" lon="29.9648183234"><ele>99.261</ele><time>2026-04-25T12:28:13.000Z</time><hdop>3.0</hdop><vdop>3.0</vdop><extensions><gom:speed>0.511</gom:speed></extensions></trkpt>
   <trkpt lat="59.0625219533" lon="29.9648198322"><ele>99.281</ele><time>2026-04-25T12:28:14.000Z</time><hdop>3.0</hdop><vdop>3.0</vdop><extensions><gom:speed>0.687</gom:speed></extensions></trkpt>
   <trkpt lat="59.0625123561" lon="29.9648182396"><ele>99.304</ele><time>2026-04-25T12:28:15.000Z</time><hdop>3.0</hdop><vdop>3.0</vdop><extensions><gom:speed>0.604</gom:speed></extensions></trkpt>
   <trkpt lat="59.0624993641" lon="29.9648205027"><ele>99.363</ele><time>2026-04-25T12:28:16.000Z</time><hdop>3.0</hdop><vdop>3.0</vdop><extensions><gom:speed>0.698</gom:speed></extensions></trkpt>
   <trkpt lat="59.0624888029" lon="29.9648222629"><ele>99.442</ele><time>2026-04-25T12:28:17.000Z</time><hdop>3.0</hdop><vdop>3.0</vdop><extensions><gom:speed>0.607</gom:speed></extensions></trkpt>
   <trkpt lat="59.0624802953" lon="29.9648248613"><ele>99.594</ele><time>2026-04-25T12:28:18.000Z</time><hdop>3.0</hdop><vdop>3.0</vdop><extensions><gom:speed>0.596</gom:speed></extensions></trkpt>
   <trkpt lat="59.0624727516" lon="29.9648236879"><ele>99.673</ele><time>2026-04-25T12:28:19.000Z</time><hdop>3.0</hdop><vdop>3.0</vdop><extensions><gom:speed>0.654</gom:speed></extensions></trkpt>
   <trkpt lat="59.0624657946" lon="29.9648219277"><ele>99.687</ele><time>2026-04-25T12:28:20.000Z</time><hdop>3.0</hdop><vdop>3.0</vdop><extensions><gom:speed>0.484</gom:speed></extensions></trkpt>
   <trkpt lat="59.0624588795" lon="29.9648195807"><ele>99.694</ele><time>2026-04-25T12:28:21.000Z</time><hdop>3.0</hdop><vdop>3.0</vdop><extensions><gom:speed>0.502</gom:speed></extensions></trkpt>
   <trkpt lat="59.0624515034" lon="29.9648164794"><ele>99.729</ele><time>2026-04-25T12:28:22.000Z</time><hdop>3.0</hdop><vdop>3.0</vdop><extensions><gom:speed>0.589</gom:speed></extensions></trkpt>
   <trkpt lat="59.0624439178" lon="29.9648166471"><ele>99.823</ele><time>2026-04-25T12:28:23.000Z</time><hdop>3.0</hdop><vdop>3.0</vdop><extensions><gom:speed>0.679</gom:speed></extensions></trkpt>
   <trkpt lat="59.0624362065" lon="29.9648114503"><ele>99.966</ele><time>2026-04-25T12:28:24.000Z</time><hdop>3.0</hdop><vdop>3.0</vdop><extensions><gom:speed>0.701</gom:speed></extensions></trkpt>
   <trkpt lat="59.0624300039" lon="29.9648054153"><ele>100.138</ele><time>2026-04-25T12:28:25.000Z</time><hdop>3.0</hdop><vdop>3.0</vdop><extensions><gom:speed>0.43</gom:speed></extensions></trkpt>
   <trkpt lat="59.062422083" lon="29.964801392"><ele>100.295</ele><time>2026-04-25T12:28:26.000Z</time><hdop>3.0</hdop><vdop>3.0</vdop><extensions><gom:speed>0.515</gom:speed></extensions></trkpt>
   <trkpt lat="59.062414665" lon="29.9647971172"><ele>100.435</ele><time>2026-04-25T12:28:27.000Z</time><hdop>3.0</hdop><vdop>3.0</vdop><extensions><gom:speed>0.423</gom:speed></extensions></trkpt>
   <trkpt lat="59.0624080433" lon="29.9647938483"><ele>100.504</ele><time>2026-04-25T12:28:28.000Z</time><hdop>3.0</hdop><vdop>3.0</vdop><extensions><gom:speed>0.259</gom:speed></extensions></trkpt>
   <trkpt lat="59.0624012958" lon="29.9647940159"><ele>100.561</ele><time>2026-04-25T12:28:29.000Z</time><hdop>3.0</hdop><vdop>3.0</vdop><extensions><gom:speed>0.24</gom:speed></extensions></trkpt>
   <trkpt lat="59.0624012958" lon="29.9647940159"><ele>100.595</ele><time>2026-04-25T12:28:30.000Z</time><hdop>3.0</hdop><vdop>3.0</vdop><extensions><gom:speed>0.0</gom:speed></extensions></trkpt>
   <trkpt lat="59.0623986974" lon="29.9647951894"><ele>100.584</ele><time>2026-04-25T12:28:31.000Z</time><hdop>3.0</hdop><vdop>3.0</vdop><extensions><gom:speed>0.333</gom:speed></extensions></trkpt>
   <trkpt lat="59.0623935007" lon="29.9647998833"><ele>100.567</ele><time>2026-04-25T12:28:32.000Z</time><hdop>3.0</hdop><vdop>3.0</vdop><extensions><gom:speed>0.307</gom:speed></extensions></trkpt>
   <trkpt lat="59.0623874238" lon="29.9648021464"><ele>100.581</ele><time>2026-04-25T12:28:33.000Z</time><hdop>3.0</hdop><vdop>3.0</vdop><extensions><gom:speed>0.459</gom:speed></extensions></trkpt>
   <trkpt lat="59.0623818079" lon="29.9648002185"><ele>100.583</ele><time>2026-04-25T12:28:34.000Z</time><hdop>3.0</hdop><vdop>3.0</vdop><extensions><gom:speed>0.492</gom:speed></extensions></trkpt>
   <trkpt lat="59.0623818079" lon="29.9648002185"><ele>100.584</ele><time>2026-04-25T12:28:34.000Z</time><hdop>3.0</hdop><vdop>3.0</vdop><extensions><gom:speed>0.492</gom:speed></extensions></trkpt>
   <trkpt lat="59.0623752281" lon="29.9648023978"><ele>100.575</ele><time>2026-04-25T12:28:35.000Z</time><hdop>3.0</hdop><vdop>3.0</vdop><extensions><gom:speed>0.528</gom:speed></extensions></trkpt>
   <trkpt lat="59.0623669719" lon="29.9648035713"><ele>100.606</ele><time>2026-04-25T12:28:36.000Z</time><hdop>3.0</hdop><vdop>3.0</vdop><extensions><gom:speed>0.77</gom:speed></extensions></trkpt>
   <trkpt lat="59.0623571232" lon="29.9648052477"><ele>100.665</ele><time>2026-04-25T12:28:37.000Z</time><hdop>3.0</hdop><vdop>3.0</vdop><extensions><gom:speed>0.73</gom:speed></extensions></trkpt>
   <trkpt lat="59.0623492442" lon="29.9648066726"><ele>100.654</ele><time>2026-04-25T12:28:38.000Z</time><hdop>3.0</hdop><vdop>3.0</vdop><extensions><gom:speed>0.533</gom:speed></extensions></trkpt>
   <trkpt lat="59.0623430835" lon="29.9648070917"><ele>100.623</ele><time>2026-04-25T12:28:39.000Z</time><hdop>3.0</hdop><vdop>3.0</vdop><extensions><gom:speed>0.358</gom:speed></extensions></trkpt>
   <trkpt lat="59.0623378029" lon="29.9648080137"><ele>100.61</ele><time>2026-04-25T12:28:40.000Z</time><hdop>3.0</hdop><vdop>3.0</vdop><extensions><gom:speed>0.129</gom:speed></extensions></trkpt>
   <trkpt lat="59.0623378029" lon="29.9648080137"><ele>100.603</ele><time>2026-04-25T12:28:41.000Z</time><hdop>3.0</hdop><vdop>3.0</vdop><extensions><gom:speed>0.0</gom:speed></extensions></trkpt>
   <trkpt lat="59.0623378029" lon="29.9648080137"><ele>100.598</ele><time>2026-04-25T12:28:42.000Z</time><hdop>3.0</hdop><vdop>3.0</vdop><extensions><gom:speed>0.0</gom:speed></extensions></trkpt>
   <trkpt lat="59.0623378029" lon="29.9648080137"><ele>100.596</ele><time>2026-04-25T12:28:43.000Z</time><hdop>3.0</hdop><vdop>3.0</vdop><extensions><gom:speed>0.0</gom:speed></extensions></trkpt>
   <trkpt lat="59.0623378029" lon="29.9648080137"><ele>100.594</ele><time>2026-04-25T12:28:44.000Z</time><hdop>3.0</hdop><vdop>3.0</vdop><extensions><gom:speed>0.0</gom:speed></extensions></trkpt>
   <trkpt lat="59.0623378029" lon="29.9648080137"><ele>100.593</ele><time>2026-04-25T12:28:45.000Z</time><hdop>3.0</hdop><vdop>3.0</vdop><extensions><gom:speed>0.0</gom:speed></extensions></trkpt>
   <trkpt lat="59.0623378029" lon="29.9648080137"><ele>100.593</ele><time>2026-04-25T12:28:46.000Z</time><hdop>3.0</hdop><vdop>3.0</vdop><extensions><gom:speed>0.0</gom:speed></extensions></trkpt>
   <trkpt lat="59.0623378029" lon="29.9648080137"><ele>100.592</ele><time>2026-04-25T12:28:47.000Z</time><hdop>3.0</hdop><vdop>3.0</vdop><extensions><gom:speed>0.0</gom:speed></extensions></trkpt>
   <trkpt lat="59.0623378029" lon="29.9648080137"><ele>100.592</ele><time>2026-04-25T12:28:48.000Z</time><hdop>3.0</hdop><vdop>3.0</vdop><extensions><gom:speed>0.0</gom:speed></extensions></trkpt>
   <trkpt lat="59.0623378029" lon="29.9648080137"><ele>100.592</ele><time>2026-04-25T12:28:49.000Z</time><hdop>3.0</hdop><vdop>3.0</vdop><extensions><gom:speed>0.0</gom:speed></extensions></trkpt>
   <trkpt lat="59.0623378029" lon="29.9648080137"><ele>100.592</ele><time>2026-04-25T12:28:50.000Z</time><hdop>3.0</hdop><vdop>3.0</vdop><extensions><gom:speed>0.0</gom:speed></extensions></trkpt>
   <trkpt lat="59.0623378029" lon="29.9648080137"><ele>100.592</ele><time>2026-04-25T12:28:51.000Z</time><hdop>3.0</hdop><vdop>3.0</vdop><extensions><gom:speed>0.0</gom:speed></extensions></trkpt>
   <trkpt lat="59.0623378029" lon="29.9648080137"><ele>100.592</ele><time>2026-04-25T12:28:52.000Z</time><hdop>3.0</hdop><vdop>3.0</vdop><extensions><gom:speed>0.0</gom:speed></extensions></trkpt>
   <trkpt lat="59.0623378029" lon="29.9648080137"><ele>100.592</ele><time>2026-04-25T12:28:53.000Z</time><hdop>3.0</hdop><vdop>3.0</vdop><extensions><gom:speed>0.0</gom:speed></extensions></trkpt>
   <trkpt lat="59.0623378029" lon="29.9648080137"><ele>100.592</ele><time>2026-04-25T12:28:53.000Z</time><hdop>3.0</hdop><vdop>3.0</vdop><extensions><gom:speed>0.0</gom:speed></extensions></trkpt>
   <trkpt lat="59.0623378029" lon="29.9648080137"><ele>100.592</ele><time>2026-04-25T12:28:54.000Z</time><hdop>3.0</hdop><vdop>3.0</vdop><extensions><gom:speed>0.0</gom:speed></extensions></trkpt>
   <trkpt lat="59.0623378029" lon="29.9648080137"><ele>100.592</ele><time>2026-04-25T12:28:55.000Z</time><hdop>3.0</hdop><vdop>3.0</vdop><extensions><gom:speed>0.0</gom:speed></extensions></trkpt>
   <trkpt lat="59.0623378029" lon="29.9648080137"><ele>100.592</ele><time>2026-04-25T12:28:56.000Z</time><hdop>3.0</hdop><vdop>3.0</vdop><extensions><gom:speed>0.0</gom:speed></extensions></trkpt>
   <trkpt lat="59.0623378029" lon="29.9648080137"><ele>100.592</ele><time>2026-04-25T12:28:57.000Z</time><hdop>3.0</hdop><vdop>3.0</vdop><extensions><gom:speed>0.0</gom:speed></extensions></trkpt>
   <trkpt lat="59.0623378029" lon="29.9648080137"><ele>100.592</ele><time>2026-04-25T12:28:58.000Z</time><hdop>3.0</hdop><vdop>3.0</vdop><extensions><gom:speed>0.0</gom:speed></extensions></trkpt>
   <trkpt lat="59.0623378029" lon="29.9648080137"><ele>100.592</ele><time>2026-04-25T12:28:59.000Z</time><hdop>3.0</hdop><vdop>3.0</vdop><extensions><gom:speed>0.0</gom:speed></extensions></trkpt>
   <trkpt lat="59.0623378029" lon="29.9648080137"><ele>100.592</ele><time>2026-04-25T12:29:00.000Z</time><hdop>3.0</hdop><vdop>3.0</vdop><extensions><gom:speed>0.0</gom:speed></extensions></trkpt>
   <trkpt lat="59.0623378029" lon="29.9648080137"><ele>100.592</ele><time>2026-04-25T12:29:01.000Z</time><hdop>3.0</hdop><vdop>3.0</vdop><extensions><gom:speed>0.0</gom:speed></extensions></trkpt>
   <trkpt lat="59.0623378029" lon="29.9648080137"><ele>100.592</ele><time>2026-04-25T12:29:02.000Z</time><hdop>3.0</hdop><vdop>3.0</vdop><extensions><gom:speed>0.0</gom:speed></extensions></trkpt>
   <trkpt lat="59.0623378029" lon="29.9648080137"><ele>100.592</ele><time>2026-04-25T12:29:03.000Z</time><hdop>3.0</hdop><vdop>3.0</vdop><extensions><gom:speed>0.0</gom:speed></extensions></trkpt>
   <trkpt lat="59.0623378029" lon="29.9648080137"><ele>100.592</ele><time>2026-04-25T12:29:04.000Z</time><hdop>3.0</hdop><vdop>3.0</vdop><extensions><gom:speed>0.0</gom:speed></extensions></trkpt>
   <trkpt lat="59.0623378029" lon="29.9648080137"><ele>100.592</ele><time>2026-04-25T12:29:05.000Z</time><hdop>3.0</hdop><vdop>3.0</vdop><extensions><gom:speed>0.0</gom:speed></extensions></trkpt>
   <trkpt lat="59.0623378029" lon="29.9648080137"><ele>100.592</ele><time>2026-04-25T12:29:06.000Z</time><hdop>3.0</hdop><vdop>3.0</vdop><extensions><gom:speed>0.0</gom:speed></extensions></trkpt>
   <trkpt lat="59.0623378029" lon="29.9648080137"><ele>100.592</ele><time>2026-04-25T12:29:07.000Z</time><hdop>3.0</hdop><vdop>3.0</vdop><extensions><gom:speed>0.0</gom:speed></extensions></trkpt>
   <trkpt lat="59.0623378029" lon="29.9648080137"><ele>100.592</ele><time>2026-04-25T12:29:08.000Z</time><hdop>3.0</hdop><vdop>3.0</vdop><extensions><gom:speed>0.0</gom:speed></extensions></trkpt>
   <trkpt lat="59.0623378029" lon="29.9648080137"><ele>100.592</ele><time>2026-04-25T12:29:09.000Z</time><hdop>3.0</hdop><vdop>3.0</vdop><extensions><gom:speed>0.0</gom:speed></extensions></trkpt>
   <trkpt lat="59.0623378029" lon="29.9648080137"><ele>100.592</ele><time>2026-04-25T12:29:10.000Z</time><hdop>3.0</hdop><vdop>3.0</vdop><extensions><gom:speed>0.0</gom:speed></extensions></trkpt>
   <trkpt lat="59.0623328157" lon="29.9648048286"><ele>100.604</ele><time>2026-04-25T12:29:11.000Z</time><hdop>3.0</hdop><vdop>3.0</vdop><extensions><gom:speed>0.526</gom:speed></extensions></trkpt>
   <trkpt lat="59.0623235118" lon="29.9648009729"><ele>100.621</ele><time>2026-04-25T12:29:12.000Z</time><hdop>3.0</hdop><vdop>3.0</vdop><extensions><gom:speed>0.678</gom:speed></extensions></trkpt>
   <trkpt lat="59.0623143336" lon="29.9647966981"><ele>100.6</ele><time>2026-04-25T12:29:13.000Z</time><hdop>3.0</hdop><vdop>3.0</vdop><extensions><gom:speed>0.783</gom:speed></extensions></trkpt>
   <trkpt lat="59.0623049459" lon="29.9647938483"><ele>100.478</ele><time>2026-04-25T12:29:14.000Z</time><hdop>3.0</hdop><vdop>3.0</vdop><extensions><gom:speed>0.744</gom:speed></extensions></trkpt>
   <trkpt lat="59.0622955581" lon="29.9647896573"><ele>100.423</ele><time>2026-04-25T12:29:15.000Z</time><hdop>3.0</hdop><vdop>3.0</vdop><extensions><gom:speed>0.678</gom:speed></extensions></trkpt>
   <trkpt lat="59.0622875534" lon="29.9647873942"><ele>100.412</ele><time>2026-04-25T12:29:16.000Z</time><hdop>3.0</hdop><vdop>3.0</vdop><extensions><gom:speed>0.463</gom:speed></extensions></trkpt>
   <trkpt lat="59.0622798421" lon="29.9647913337"><ele>100.461</ele><time>2026-04-25T12:29:17.000Z</time><hdop>3.0</hdop><vdop>3.0</vdop><extensions><gom:speed>0.769</gom:speed></extensions></trkpt>
   <trkpt lat="59.0622709992" lon="29.9647915852"><ele>100.492</ele><time>2026-04-25T12:29:18.000Z</time><hdop>3.0</hdop><vdop>3.0</vdop><extensions><gom:speed>0.811</gom:speed></extensions></trkpt>
   <trkpt lat="59.0622607313" lon="29.9647928425"><ele>100.525</ele><time>2026-04-25T12:29:19.000Z</time><hdop>3.0</hdop><vdop>3.0</vdop><extensions><gom:speed>0.711</gom:speed></extensions></trkpt>
   <trkpt lat="59.0622522656" lon="29.9647928425"><ele>100.568</ele><time>2026-04-25T12:29:20.000Z</time><hdop>3.0</hdop><vdop>3.0</vdop><extensions><gom:speed>0.578</gom:speed></extensions></trkpt>
   <trkpt lat="59.0622449733" lon="29.9647917528"><ele>100.609</ele><time>2026-04-25T12:29:21.000Z</time><hdop>3.0</hdop><vdop>3.0</vdop><extensions><gom:speed>0.702</gom:speed></extensions></trkpt>
   <trkpt lat="59.0622364238" lon="29.9647863884"><ele>100.615</ele><time>2026-04-25T12:29:22.000Z</time><hdop>3.0</hdop><vdop>3.0</vdop><extensions><gom:speed>0.818</gom:speed></extensions></trkpt>
   <trkpt lat="59.0622306403" lon="29.9647780903"><ele>100.619</ele><time>2026-04-25T12:29:23.000Z</time><hdop>3.0</hdop><vdop>3.0</vdop><extensions><gom:speed>0.72</gom:speed></extensions></trkpt>
   <trkpt lat="59.0622228032" lon="29.9647724744"><ele>100.626</ele><time>2026-04-25T12:29:24.000Z</time><hdop>3.0</hdop><vdop>3.0</vdop><extensions><gom:speed>0.641</gom:speed></extensions></trkpt>
   <trkpt lat="59.0622142118" lon="29.9647683673"><ele>100.589</ele><time>2026-04-25T12:29:25.000Z</time><hdop>3.0</hdop><vdop>3.0</vdop><extensions><gom:speed>0.776</gom:speed></extensions></trkpt>
   <trkpt lat="59.0622070452" lon="29.9647691217"><ele>100.566</ele><time>2026-04-25T12:29:26.000Z</time><hdop>3.0</hdop><vdop>3.0</vdop><extensions><gom:speed>0.699</gom:speed></extensions></trkpt>
   <trkpt lat="59.0621981185" lon="29.9647656851"><ele>100.501</ele><time>2026-04-25T12:29:27.000Z</time><hdop>3.0</hdop><vdop>3.0</vdop><extensions><gom:speed>0.699</gom:speed></extensions></trkpt>
   <trkpt lat="59.0621906586" lon="29.9647608236"><ele>100.427</ele><time>2026-04-25T12:29:28.000Z</time><hdop>3.0</hdop><vdop>3.0</vdop><extensions><gom:speed>0.652</gom:speed></extensions></trkpt>
   <trkpt lat="59.0621791335" lon="29.9647573032"><ele>100.4</ele><time>2026-04-25T12:29:29.000Z</time><hdop>3.0</hdop><vdop>3.0</vdop><extensions><gom:speed>0.794</gom:speed></extensions></trkpt>
   <trkpt lat="59.0621681532" lon="29.9647538666"><ele>100.374</ele><time>2026-04-25T12:29:30.000Z</time><hdop>3.0</hdop><vdop>3.0</vdop><extensions><gom:speed>0.624</gom:speed></extensions></trkpt>
   <trkpt lat="59.0621600647" lon="29.9647496757"><ele>100.344</ele><time>2026-04-25T12:29:31.000Z</time><hdop>3.0</hdop><vdop>3.0</vdop><extensions><gom:speed>0.425</gom:speed></extensions></trkpt>
   <trkpt lat="59.0621536106" lon="29.9647421319"><ele>100.317</ele><time>2026-04-25T12:29:32.000Z</time><hdop>3.0</hdop><vdop>3.0</vdop><extensions><gom:speed>0.419</gom:speed></extensions></trkpt>
   <trkpt lat="59.0621475756" lon="29.964744898"><ele>100.215</ele><time>2026-04-25T12:29:33.000Z</time><hdop>3.0</hdop><vdop>3.0</vdop><extensions><gom:speed>0.382</gom:speed></extensions></trkpt>
   <trkpt lat="59.0621475756" lon="29.964744898"><ele>100.154</ele><time>2026-04-25T12:29:33.000Z</time><hdop>3.0</hdop><vdop>3.0</vdop><extensions><gom:speed>0.382</gom:speed></extensions></trkpt>
   <trkpt lat="59.0621416664" lon="29.9647521064"><ele>100.044</ele><time>2026-04-25T12:29:34.000Z</time><hdop>3.0</hdop><vdop>3.0</vdop><extensions><gom:speed>0.381</gom:speed></extensions></trkpt>
   <trkpt lat="59.0621363858" lon="29.964761997"><ele>99.98</ele><time>2026-04-25T12:29:35.000Z</time><hdop>3.0</hdop><vdop>3.0</vdop><extensions><gom:speed>0.475</gom:speed></extensions></trkpt>
   <trkpt lat="59.0621296384" lon="29.9647696246"><ele>99.97</ele><time>2026-04-25T12:29:36.000Z</time><hdop>3.0</hdop><vdop>3.0</vdop><extensions><gom:speed>0.532</gom:speed></extensions></trkpt>
   <trkpt lat="59.0621243997" lon="29.9647785094"><ele>100.01</ele><time>2026-04-25T12:29:37.000Z</time><hdop>3.0</hdop><vdop>3.0</vdop><extensions><gom:speed>0.471</gom:speed></extensions></trkpt>
   <trkpt lat="59.0621226395" lon="29.9647781741"><ele>100.078</ele><time>2026-04-25T12:29:38.000Z</time><hdop>3.0</hdop><vdop>3.0</vdop><extensions><gom:speed>0.161</gom:speed></extensions></trkpt>
   <trkpt lat="59.0621205021" lon="29.9647797667"><ele>100.192</ele><time>2026-04-25T12:29:39.000Z</time><hdop>3.0</hdop><vdop>3.0</vdop><extensions><gom:speed>0.145</gom:speed></extensions></trkpt>
   <trkpt lat="59.0621170236" lon="29.9647813592"><ele>100.344</ele><time>2026-04-25T12:29:40.000Z</time><hdop>3.0</hdop><vdop>3.0</vdop><extensions><gom:speed>0.293</gom:speed></extensions></trkpt>
   <trkpt lat="59.0621170236" lon="29.9647813592"><ele>100.436</ele><time>2026-04-25T12:29:41.000Z</time><hdop>3.0</hdop><vdop>3.0</vdop><extensions><gom:speed>0.0</gom:speed></extensions></trkpt>
   <trkpt lat="59.0621184904" lon="29.9647793476"><ele>100.524</ele><time>2026-04-25T12:29:42.000Z</time><hdop>3.0</hdop><vdop>3.0</vdop><extensions><gom:speed>0.242</gom:speed></extensions></trkpt>
   <trkpt lat="59.0621184904" lon="29.9647793476"><ele>100.577</ele><time>2026-04-25T12:29:43.000Z</time><hdop>3.0</hdop><vdop>3.0</vdop><extensions><gom:speed>0.0</gom:speed></extensions></trkpt>
   <trkpt lat="59.0621195382" lon="29.9647750728"><ele>100.61</ele><time>2026-04-25T12:29:44.000Z</time><hdop>3.0</hdop><vdop>3.0</vdop><extensions><gom:speed>0.217</gom:speed></extensions></trkpt>
   <trkpt lat="59.0621196639" lon="29.9647646793"><ele>100.616</ele><time>2026-04-25T12:29:45.000Z</time><hdop>3.0</hdop><vdop>3.0</vdop><extensions><gom:speed>0.355</gom:speed></extensions></trkpt>
   <trkpt lat="59.062117275" lon="29.9647539504"><ele>100.577</ele><time>2026-04-25T12:29:46.000Z</time><hdop>3.0</hdop><vdop>3.0</vdop><extensions><gom:speed>0.424</gom:speed></extensions></trkpt>
   <trkpt lat="59.0621119525" lon="29.9647412937"><ele>100.497</ele><time>2026-04-25T12:29:47.000Z</time><hdop>3.0</hdop><vdop>3.0</vdop><extensions><gom:speed>0.458</gom:speed></extensions></trkpt>
   <trkpt lat="59.0621065043" lon="29.9647266254"><ele>100.405</ele><time>2026-04-25T12:29:48.000Z</time><hdop>3.0</hdop><vdop>3.0</vdop><extensions><gom:speed>0.509</gom:speed></extensions></trkpt>
   <trkpt lat="59.0621028163" lon="29.9647158128"><ele>100.431</ele><time>2026-04-25T12:29:49.000Z</time><hdop>3.0</hdop><vdop>3.0</vdop><extensions><gom:speed>0.479</gom:speed></extensions></trkpt>
   <trkpt lat="59.0620962784" lon="29.9647015635"><ele>100.458</ele><time>2026-04-25T12:29:50.000Z</time><hdop>3.0</hdop><vdop>3.0</vdop><extensions><gom:speed>0.637</gom:speed></extensions></trkpt>
   <trkpt lat="59.0620896986" lon="29.9646915052"><ele>100.522</ele><time>2026-04-25T12:29:51.000Z</time><hdop>3.0</hdop><vdop>3.0</vdop><extensions><gom:speed>0.49</gom:speed></extensions></trkpt>
   <trkpt lat="59.062083496" lon="29.9646815308"><ele>100.554</ele><time>2026-04-25T12:29:52.000Z</time><hdop>3.0</hdop><vdop>3.0</vdop><extensions><gom:speed>0.452</gom:speed></extensions></trkpt>
   <trkpt lat="59.0620762037" lon="29.9646737356"><ele>100.549</ele><time>2026-04-25T12:29:53.000Z</time><hdop>3.0</hdop><vdop>3.0</vdop><extensions><gom:speed>0.502</gom:speed></extensions></trkpt>
   <trkpt lat="59.0620711746" lon="29.9646666948"><ele>100.557</ele><time>2026-04-25T12:29:54.000Z</time><hdop>3.0</hdop><vdop>3.0</vdop><extensions><gom:speed>0.29</gom:speed></extensions></trkpt>
   <trkpt lat="59.0620668998" lon="29.9646639288"><ele>100.603</ele><time>2026-04-25T12:29:55.000Z</time><hdop>3.0</hdop><vdop>3.0</vdop><extensions><gom:speed>0.413</gom:speed></extensions></trkpt>
   <trkpt lat="59.0620604877" lon="29.964661498"><ele>100.682</ele><time>2026-04-25T12:29:56.000Z</time><hdop>3.0</hdop><vdop>3.0</vdop><extensions><gom:speed>0.478</gom:speed></extensions></trkpt>
   <trkpt lat="59.0620553747" lon="29.9646634259"><ele>100.726</ele><time>2026-04-25T12:29:57.000Z</time><hdop>3.0</hdop><vdop>3.0</vdop><extensions><gom:speed>0.579</gom:speed></extensions></trkpt>
   <trkpt lat="59.0620503456" lon="29.9646651861"><ele>100.779</ele><time>2026-04-25T12:29:58.000Z</time><hdop>3.0</hdop><vdop>3.0</vdop><extensions><gom:speed>0.555</gom:speed></extensions></trkpt>
   <trkpt lat="59.0620435981" lon="29.9646708019"><ele>100.884</ele><time>2026-04-25T12:29:59.000Z</time><hdop>3.0</hdop><vdop>3.0</vdop><extensions><gom:speed>0.565</gom:speed></extensions></trkpt>
   <trkpt lat="59.0620368507" lon="29.9646766693"><ele>100.997</ele><time>2026-04-25T12:30:00.000Z</time><hdop>3.0</hdop><vdop>3.0</vdop><extensions><gom:speed>0.491</gom:speed></extensions></trkpt>
   <trkpt lat="59.0620291393" lon="29.9646827042"><ele>101.111</ele><time>2026-04-25T12:30:01.000Z</time><hdop>3.0</hdop><vdop>3.0</vdop><extensions><gom:speed>0.623</gom:speed></extensions></trkpt>
   <trkpt lat="59.0620203802" lon="29.9646868952"><ele>101.188</ele><time>2026-04-25T12:30:02.000Z</time><hdop>3.0</hdop><vdop>3.0</vdop><extensions><gom:speed>0.755</gom:speed></extensions></trkpt>
   <trkpt lat="59.0620133394" lon="29.9646880687"><ele>101.238</ele><time>2026-04-25T12:30:03.000Z</time><hdop>3.0</hdop><vdop>3.0</vdop><extensions><gom:speed>0.393</gom:speed></extensions></trkpt>
   <trkpt lat="59.0620083103" lon="29.9646858894"><ele>101.307</ele><time>2026-04-25T12:30:04.000Z</time><hdop>3.0</hdop><vdop>3.0</vdop><extensions><gom:speed>0.48</gom:speed></extensions></trkpt>
   <trkpt lat="59.0620035745" lon="29.9646792677"><ele>101.37</ele><time>2026-04-25T12:30:05.000Z</time><hdop>3.0</hdop><vdop>3.0</vdop><extensions><gom:speed>0.53</gom:speed></extensions></trkpt>
   <trkpt lat="59.0619982101" lon="29.9646706343"><ele>101.415</ele><time>2026-04-25T12:30:06.000Z</time><hdop>3.0</hdop><vdop>3.0</vdop><extensions><gom:speed>0.651</gom:speed></extensions></trkpt>
   <trkpt lat="59.0619928457" lon="29.96466242"><ele>101.434</ele><time>2026-04-25T12:30:07.000Z</time><hdop>3.0</hdop><vdop>3.0</vdop><extensions><gom:speed>0.403</gom:speed></extensions></trkpt>
   <trkpt lat="59.0619897025" lon="29.9646543734"><ele>101.414</ele><time>2026-04-25T12:30:08.000Z</time><hdop>3.0</hdop><vdop>3.0</vdop><extensions><gom:speed>0.423</gom:speed></extensions></trkpt>
   <trkpt lat="59.0619849248" lon="29.9646461591"><ele>101.375</ele><time>2026-04-25T12:30:09.000Z</time><hdop>3.0</hdop><vdop>3.0</vdop><extensions><gom:speed>0.418</gom:speed></extensions></trkpt>
   <trkpt lat="59.0619819073" lon="29.9646396213"><ele>101.341</ele><time>2026-04-25T12:30:10.000Z</time><hdop>3.0</hdop><vdop>3.0</vdop><extensions><gom:speed>0.38</gom:speed></extensions></trkpt>
   <trkpt lat="59.0619778002" lon="29.9646342568"><ele>101.364</ele><time>2026-04-25T12:30:11.000Z</time><hdop>3.0</hdop><vdop>3.0</vdop><extensions><gom:speed>0.164</gom:speed></extensions></trkpt>
   <trkpt lat="59.0619778002" lon="29.9646342568"><ele>101.379</ele><time>2026-04-25T12:30:12.000Z</time><hdop>3.0</hdop><vdop>3.0</vdop><extensions><gom:speed>0.0</gom:speed></extensions></trkpt>
   <trkpt lat="59.0619778002" lon="29.9646342568"><ele>101.387</ele><time>2026-04-25T12:30:13.000Z</time><hdop>3.0</hdop><vdop>3.0</vdop><extensions><gom:speed>0.0</gom:speed></extensions></trkpt>
   <trkpt lat="59.0619778002" lon="29.9646342568"><ele>101.392</ele><time>2026-04-25T12:30:13.000Z</time><hdop>3.0</hdop><vdop>3.0</vdop><extensions><gom:speed>0.0</gom:speed></extensions></trkpt>
   <trkpt lat="59.0619734835" lon="29.964630485"><ele>101.368</ele><time>2026-04-25T12:30:14.000Z</time><hdop>3.0</hdop><vdop>3.0</vdop><extensions><gom:speed>0.318</gom:speed></extensions></trkpt>
   <trkpt lat="59.0619734835" lon="29.964630485"><ele>101.354</ele><time>2026-04-25T12:30:15.000Z</time><hdop>3.0</hdop><vdop>3.0</vdop><extensions><gom:speed>0.0</gom:speed></extensions></trkpt>
   <trkpt lat="59.0619734835" lon="29.964630485"><ele>101.345</ele><time>2026-04-25T12:30:16.000Z</time><hdop>3.0</hdop><vdop>3.0</vdop><extensions><gom:speed>0.0</gom:speed></extensions></trkpt>
   <trkpt lat="59.0619734835" lon="29.964630485"><ele>101.34</ele><time>2026-04-25T12:30:17.000Z</time><hdop>3.0</hdop><vdop>3.0</vdop><extensions><gom:speed>0.0</gom:speed></extensions></trkpt>
   <trkpt lat="59.0619734835" lon="29.964630485"><ele>101.337</ele><time>2026-04-25T12:30:18.000Z</time><hdop>3.0</hdop><vdop>3.0</vdop><extensions><gom:speed>0.0</gom:speed></extensions></trkpt>
   <trkpt lat="59.0619662751" lon="29.9646343407"><ele>101.331</ele><time>2026-04-25T12:30:19.000Z</time><hdop>3.0</hdop><vdop>3.0</vdop><extensions><gom:speed>0.382</gom:speed></extensions></trkpt>
   <trkpt lat="59.0619587733" lon="29.9646385316"><ele>101.312</ele><time>2026-04-25T12:30:20.000Z</time><hdop>3.0</hdop><vdop>3.0</vdop><extensions><gom:speed>0.394</gom:speed></extensions></trkpt>
   <trkpt lat="59.0619587733" lon="29.9646385316"><ele>101.3</ele><time>2026-04-25T12:30:21.000Z</time><hdop>3.0</hdop><vdop>3.0</vdop><extensions><gom:speed>0.0</gom:speed></extensions></trkpt>
   <trkpt lat="59.0619587733" lon="29.9646385316"><ele>101.293</ele><time>2026-04-25T12:30:22.000Z</time><hdop>3.0</hdop><vdop>3.0</vdop><extensions><gom:speed>0.0</gom:speed></extensions></trkpt>
   <trkpt lat="59.0619587733" lon="29.9646385316"><ele>101.289</ele><time>2026-04-25T12:30:23.000Z</time><hdop>3.0</hdop><vdop>3.0</vdop><extensions><gom:speed>0.0</gom:speed></extensions></trkpt>
   <trkpt lat="59.0619587733" lon="29.9646385316"><ele>101.287</ele><time>2026-04-25T12:30:24.000Z</time><hdop>3.0</hdop><vdop>3.0</vdop><extensions><gom:speed>0.0</gom:speed></extensions></trkpt>
   <trkpt lat="59.0619587733" lon="29.9646385316"><ele>101.285</ele><time>2026-04-25T12:30:25.000Z</time><hdop>3.0</hdop><vdop>3.0</vdop><extensions><gom:speed>0.0</gom:speed></extensions></trkpt>
   <trkpt lat="59.0619587733" lon="29.9646385316"><ele>101.284</ele><time>2026-04-25T12:30:26.000Z</time><hdop>3.0</hdop><vdop>3.0</vdop><extensions><gom:speed>0.0</gom:speed></extensions></trkpt>
   <trkpt lat="59.0619587733" lon="29.9646385316"><ele>101.284</ele><time>2026-04-25T12:30:27.000Z</time><hdop>3.0</hdop><vdop>3.0</vdop><extensions><gom:speed>0.0</gom:speed></extensions></trkpt>
   <trkpt lat="59.0619587733" lon="29.9646385316"><ele>101.283</ele><time>2026-04-25T12:30:28.000Z</time><hdop>3.0</hdop><vdop>3.0</vdop><extensions><gom:speed>0.0</gom:speed></extensions></trkpt>
   <trkpt lat="59.0619587733" lon="29.9646385316"><ele>101.283</ele><time>2026-04-25T12:30:29.000Z</time><hdop>3.0</hdop><vdop>3.0</vdop><extensions><gom:speed>0.0</gom:speed></extensions></trkpt>
   <trkpt lat="59.0619484635" lon="29.964639286"><ele>101.322</ele><time>2026-04-25T12:30:30.000Z</time><hdop>3.0</hdop><vdop>3.0</vdop><extensions><gom:speed>0.391</gom:speed></extensions></trkpt>
   <trkpt lat="59.0619387405" lon="29.9646394536"><ele>101.273</ele><time>2026-04-25T12:30:31.000Z</time><hdop>3.0</hdop><vdop>3.0</vdop><extensions><gom:speed>0.455</gom:speed></extensions></trkpt>
   <trkpt lat="59.0619210966" lon="29.9646389507"><ele>101.142</ele><time>2026-04-25T12:30:32.000Z</time><hdop>3.0</hdop><vdop>3.0</vdop><extensions><gom:speed>0.624</gom:speed></extensions></trkpt>
   <trkpt lat="59.0619113317" lon="29.9646366038"><ele>101.008</ele><time>2026-04-25T12:30:33.000Z</time><hdop>3.0</hdop><vdop>3.0</vdop><extensions><gom:speed>0.527</gom:speed></extensions></trkpt>
   <trkpt lat="59.0619113317" lon="29.9646366038"><ele>100.929</ele><time>2026-04-25T12:30:33.000Z</time><hdop>3.0</hdop><vdop>3.0</vdop><extensions><gom:speed>0.527</gom:speed></extensions></trkpt>
   <trkpt lat="59.0619032432" lon="29.9646327481"><ele>100.77</ele><time>2026-04-25T12:30:34.000Z</time><hdop>3.0</hdop><vdop>3.0</vdop><extensions><gom:speed>0.396</gom:speed></extensions></trkpt>
   <trkpt lat="59.0618962862" lon="29.9646278866"><ele>100.59</ele><time>2026-04-25T12:30:35.000Z</time><hdop>3.0</hdop><vdop>3.0</vdop><extensions><gom:speed>0.35</gom:speed></extensions></trkpt>
   <trkpt lat="59.0618882815" lon="29.9646212649"><ele>100.438</ele><time>2026-04-25T12:30:36.000Z</time><hdop>3.0</hdop><vdop>3.0</vdop><extensions><gom:speed>0.334</gom:speed></extensions></trkpt>
   <trkpt lat="59.0618882815" lon="29.9646212649"><ele>100.347</ele><time>2026-04-25T12:30:37.000Z</time><hdop>3.0</hdop><vdop>3.0</vdop><extensions><gom:speed>0.0</gom:speed></extensions></trkpt>
   <trkpt lat="59.0618806539" lon="29.9646190018"><ele>100.22</ele><time>2026-04-25T12:30:38.000Z</time><hdop>3.0</hdop><vdop>3.0</vdop><extensions><gom:speed>0.379</gom:speed></extensions></trkpt>
   <trkpt lat="59.0618806539" lon="29.9646190018"><ele>100.145</ele><time>2026-04-25T12:30:39.000Z</time><hdop>3.0</hdop><vdop>3.0</vdop><extensions><gom:speed>0.0</gom:speed></extensions></trkpt>
   <trkpt lat="59.061876924" lon="29.9646157328"><ele>100.04</ele><time>2026-04-25T12:30:40.000Z</time><hdop>3.0</hdop><vdop>3.0</vdop><extensions><gom:speed>0.166</gom:speed></extensions></trkpt>
   <trkpt lat="59.0618707214" lon="29.964609614"><ele>99.927</ele><time>2026-04-25T12:30:41.000Z</time><hdop>3.0</hdop><vdop>3.0</vdop><extensions><gom:speed>0.184</gom:speed></extensions></trkpt>
   <trkpt lat="59.0618707214" lon="29.964609614"><ele>99.86</ele><time>2026-04-25T12:30:42.000Z</time><hdop>3.0</hdop><vdop>3.0</vdop><extensions><gom:speed>0.0</gom:speed></extensions></trkpt>
   <trkpt lat="59.0618639739" lon="29.9646016512"><ele>99.803</ele><time>2026-04-25T12:30:43.000Z</time><hdop>3.0</hdop><vdop>3.0</vdop><extensions><gom:speed>0.283</gom:speed></extensions></trkpt>
   <trkpt lat="59.0618639739" lon="29.9646016512"><ele>99.769</ele><time>2026-04-25T12:30:44.000Z</time><hdop>3.0</hdop><vdop>3.0</vdop><extensions><gom:speed>0.0</gom:speed></extensions></trkpt>
   <trkpt lat="59.0618639739" lon="29.9646016512"><ele>99.749</ele><time>2026-04-25T12:30:45.000Z</time><hdop>3.0</hdop><vdop>3.0</vdop><extensions><gom:speed>0.0</gom:speed></extensions></trkpt>
   <trkpt lat="59.0618639739" lon="29.9646016512"><ele>99.737</ele><time>2026-04-25T12:30:46.000Z</time><hdop>3.0</hdop><vdop>3.0</vdop><extensions><gom:speed>0.0</gom:speed></extensions></trkpt>
   <trkpt lat="59.0618639739" lon="29.9646016512"><ele>99.73</ele><time>2026-04-25T12:30:47.000Z</time><hdop>3.0</hdop><vdop>3.0</vdop><extensions><gom:speed>0.0</gom:speed></extensions></trkpt>
   <trkpt lat="59.0618639739" lon="29.9646016512"><ele>99.725</ele><time>2026-04-25T12:30:48.000Z</time><hdop>3.0</hdop><vdop>3.0</vdop><extensions><gom:speed>0.0</gom:speed></extensions></trkpt>
   <trkpt lat="59.0618639739" lon="29.9646016512"><ele>99.723</ele><time>2026-04-25T12:30:49.000Z</time><hdop>3.0</hdop><vdop>3.0</vdop><extensions><gom:speed>0.0</gom:speed></extensions></trkpt>
   <trkpt lat="59.0618639739" lon="29.9646016512"><ele>99.721</ele><time>2026-04-25T12:30:50.000Z</time><hdop>3.0</hdop><vdop>3.0</vdop><extensions><gom:speed>0.0</gom:speed></extensions></trkpt>
   <trkpt lat="59.0618578971" lon="29.9645997234"><ele>99.781</ele><time>2026-04-25T12:30:51.000Z</time><hdop>3.0</hdop><vdop>3.0</vdop><extensions><gom:speed>0.212</gom:speed></extensions></trkpt>
   <trkpt lat="59.0618503114" lon="29.9645947781"><ele>99.831</ele><time>2026-04-25T12:30:52.000Z</time><hdop>3.0</hdop><vdop>3.0</vdop><extensions><gom:speed>0.385</gom:speed></extensions></trkpt>
   <trkpt lat="59.0618503114" lon="29.9645947781"><ele>99.86</ele><time>2026-04-25T12:30:53.000Z</time><hdop>3.0</hdop><vdop>3.0</vdop><extensions><gom:speed>0.0</gom:speed></extensions></trkpt>
   <trkpt lat="59.0618503114" lon="29.9645947781"><ele>99.878</ele><time>2026-04-25T12:30:53.000Z</time><hdop>3.0</hdop><vdop>3.0</vdop><extensions><gom:speed>0.0</gom:speed></extensions></trkpt>
   <trkpt lat="59.0618446117" lon="29.9645913415"><ele>99.849</ele><time>2026-04-25T12:30:54.000Z</time><hdop>3.0</hdop><vdop>3.0</vdop><extensions><gom:speed>0.15</gom:speed></extensions></trkpt>
   <trkpt lat="59.0618383672" lon="29.9645879887"><ele>99.873</ele><time>2026-04-25T12:30:55.000Z</time><hdop>3.0</hdop><vdop>3.0</vdop><extensions><gom:speed>0.374</gom:speed></extensions></trkpt>
   <trkpt lat="59.0618240342" lon="29.9645771761"><ele>99.794</ele><time>2026-04-25T12:30:56.000Z</time><hdop>3.0</hdop><vdop>3.0</vdop><extensions><gom:speed>0.103</gom:speed></extensions></trkpt>
   <trkpt lat="59.0618240342" lon="29.9645771761"><ele>99.747</ele><time>2026-04-25T12:30:57.000Z</time><hdop>3.0</hdop><vdop>3.0</vdop><extensions><gom:speed>0.0</gom:speed></extensions></trkpt>
   <trkpt lat="59.0618240342" lon="29.9645771761"><ele>99.719</ele><time>2026-04-25T12:30:58.000Z</time><hdop>3.0</hdop><vdop>3.0</vdop><extensions><gom:speed>0.0</gom:speed></extensions></trkpt>
   <trkpt lat="59.0618240342" lon="29.9645771761"><ele>99.702</ele><time>2026-04-25T12:30:59.000Z</time><hdop>3.0</hdop><vdop>3.0</vdop><extensions><gom:speed>0.0</gom:speed></extensions></trkpt>
   <trkpt lat="59.0618240342" lon="29.9645771761"><ele>99.692</ele><time>2026-04-25T12:31:00.000Z</time><hdop>3.0</hdop><vdop>3.0</vdop><extensions><gom:speed>0.0</gom:speed></extensions></trkpt>
   <trkpt lat="59.0618240342" lon="29.9645771761"><ele>99.686</ele><time>2026-04-25T12:31:01.000Z</time><hdop>3.0</hdop><vdop>3.0</vdop><extensions><gom:speed>0.0</gom:speed></extensions></trkpt>
   <trkpt lat="59.0618240342" lon="29.9645771761"><ele>99.682</ele><time>2026-04-25T12:31:02.000Z</time><hdop>3.0</hdop><vdop>3.0</vdop><extensions><gom:speed>0.0</gom:speed></extensions></trkpt>
   <trkpt lat="59.0618240342" lon="29.9645771761"><ele>99.68</ele><time>2026-04-25T12:31:03.000Z</time><hdop>3.0</hdop><vdop>3.0</vdop><extensions><gom:speed>0.0</gom:speed></extensions></trkpt>
   <trkpt lat="59.0618240342" lon="29.9645771761"><ele>99.679</ele><time>2026-04-25T12:31:04.000Z</time><hdop>3.0</hdop><vdop>3.0</vdop><extensions><gom:speed>0.0</gom:speed></extensions></trkpt>
   <trkpt lat="59.0618240342" lon="29.9645771761"><ele>99.678</ele><time>2026-04-25T12:31:05.000Z</time><hdop>3.0</hdop><vdop>3.0</vdop><extensions><gom:speed>0.0</gom:speed></extensions></trkpt>
   <trkpt lat="59.0618240342" lon="29.9645771761"><ele>99.678</ele><time>2026-04-25T12:31:06.000Z</time><hdop>3.0</hdop><vdop>3.0</vdop><extensions><gom:speed>0.0</gom:speed></extensions></trkpt>
   <trkpt lat="59.0618193403" lon="29.9645782657"><ele>99.698</ele><time>2026-04-25T12:31:07.000Z</time><hdop>3.0</hdop><vdop>3.0</vdop><extensions><gom:speed>0.303</gom:speed></extensions></trkpt>
   <trkpt lat="59.0618107908" lon="29.9645800259"><ele>99.714</ele><time>2026-04-25T12:31:08.000Z</time><hdop>3.0</hdop><vdop>3.0</vdop><extensions><gom:speed>0.526</gom:speed></extensions></trkpt>
   <trkpt lat="59.0617996428" lon="29.9645863124"><ele>99.769</ele><time>2026-04-25T12:31:09.000Z</time><hdop>3.0</hdop><vdop>3.0</vdop><extensions><gom:speed>0.84</gom:speed></extensions></trkpt>
   <trkpt lat="59.0617892493" lon="29.9645928502"><ele>99.791</ele><time>2026-04-25T12:31:10.000Z</time><hdop>3.0</hdop><vdop>3.0</vdop><extensions><gom:speed>0.784</gom:speed></extensions></trkpt>
   <trkpt lat="59.0617799034" lon="29.9646015674"><ele>99.83</ele><time>2026-04-25T12:31:11.000Z</time><hdop>3.0</hdop><vdop>3.0</vdop><extensions><gom:speed>0.688</gom:speed></extensions></trkpt>
   <trkpt lat="59.0617676659" lon="29.9646157328"><ele>99.853</ele><time>2026-04-25T12:31:12.000Z</time><hdop>3.0</hdop><vdop>3.0</vdop><extensions><gom:speed>0.857</gom:speed></extensions></trkpt>
   <trkpt lat="59.0617550511" lon="29.964628641"><ele>99.808</ele><time>2026-04-25T12:31:13.000Z</time><hdop>3.0</hdop><vdop>3.0</vdop><extensions><gom:speed>0.922</gom:speed></extensions></trkpt>
   <trkpt lat="59.0617433583" lon="29.9646333348"><ele>99.759</ele><time>2026-04-25T12:31:14.000Z</time><hdop>3.0</hdop><vdop>3.0</vdop><extensions><gom:speed>0.852</gom:speed></extensions></trkpt>
   <trkpt lat="59.0617354794" lon="29.9646315746"><ele>99.71</ele><time>2026-04-25T12:31:15.000Z</time><hdop>3.0</hdop><vdop>3.0</vdop><extensions><gom:speed>0.498</gom:speed></extensions></trkpt>
   <trkpt lat="59.0617295701" lon="29.9646291439"><ele>99.678</ele><time>2026-04-25T12:31:16.000Z</time><hdop>3.0</hdop><vdop>3.0</vdop><extensions><gom:speed>0.269</gom:speed></extensions></trkpt>
   <trkpt lat="59.0617295701" lon="29.9646291439"><ele>99.659</ele><time>2026-04-25T12:31:17.000Z</time><hdop>3.0</hdop><vdop>3.0</vdop><extensions><gom:speed>0.0</gom:speed></extensions></trkpt>
   <trkpt lat="59.0617295701" lon="29.9646291439"><ele>99.647</ele><time>2026-04-25T12:31:17.000Z</time><hdop>3.0</hdop><vdop>3.0</vdop><extensions><gom:speed>0.0</gom:speed></extensions></trkpt>
   <trkpt lat="59.0617229065" lon="29.9646312394"><ele>99.643</ele><time>2026-04-25T12:31:18.000Z</time><hdop>3.0</hdop><vdop>3.0</vdop><extensions><gom:speed>0.429</gom:speed></extensions></trkpt>
   <trkpt lat="59.0617156562" lon="29.9646255397"><ele>99.675</ele><time>2026-04-25T12:31:19.000Z</time><hdop>3.0</hdop><vdop>3.0</vdop><extensions><gom:speed>0.405</gom:speed></extensions></trkpt>
   <trkpt lat="59.0617099565" lon="29.9646200076"><ele>99.71</ele><time>2026-04-25T12:31:20.000Z</time><hdop>3.0</hdop><vdop>3.0</vdop><extensions><gom:speed>0.434</gom:speed></extensions></trkpt>
   <trkpt lat="59.0617026642" lon="29.9646097817"><ele>99.812</ele><time>2026-04-25T12:31:21.000Z</time><hdop>3.0</hdop><vdop>3.0</vdop><extensions><gom:speed>0.603</gom:speed></extensions></trkpt>
   <trkpt lat="59.0616944499" lon="29.9645987176"><ele>99.896</ele><time>2026-04-25T12:31:22.000Z</time><hdop>3.0</hdop><vdop>3.0</vdop><extensions><gom:speed>0.641</gom:speed></extensions></trkpt>
   <trkpt lat="59.0616871158" lon="29.9645898328"><ele>99.929</ele><time>2026-04-25T12:31:23.000Z</time><hdop>3.0</hdop><vdop>3.0</vdop><extensions><gom:speed>0.495</gom:speed></extensions></trkpt>
   <trkpt lat="59.0616788177" lon="29.9645868991"><ele>99.916</ele><time>2026-04-25T12:31:24.000Z</time><hdop>3.0</hdop><vdop>3.0</vdop><extensions><gom:speed>0.508</gom:speed></extensions></trkpt>
   <trkpt lat="59.0616676279" lon="29.9645847198"><ele>99.884</ele><time>2026-04-25T12:31:25.000Z</time><hdop>3.0</hdop><vdop>3.0</vdop><extensions><gom:speed>0.719</gom:speed></extensions></trkpt>
   <trkpt lat="59.0616555579" lon="29.9645902519"><ele>99.829</ele><time>2026-04-25T12:31:26.000Z</time><hdop>3.0</hdop><vdop>3.0</vdop><extensions><gom:speed>0.839</gom:speed></extensions></trkpt>
   <trkpt lat="59.0616412249" lon="29.9645898328"><ele>99.784</ele><time>2026-04-25T12:31:27.000Z</time><hdop>3.0</hdop><vdop>3.0</vdop><extensions><gom:speed>0.97</gom:speed></extensions></trkpt>
   <trkpt lat="59.0616298674" lon="29.9645859771"><ele>99.751</ele><time>2026-04-25T12:31:28.000Z</time><hdop>3.0</hdop><vdop>3.0</vdop><extensions><gom:speed>0.867</gom:speed></extensions></trkpt>
   <trkpt lat="59.0616190128" lon="29.9645853903"><ele>99.754</ele><time>2026-04-25T12:31:29.000Z</time><hdop>3.0</hdop><vdop>3.0</vdop><extensions><gom:speed>0.822</gom:speed></extensions></trkpt>
   <trkpt lat="59.0616085773" lon="29.9645848036"><ele>99.754</ele><time>2026-04-25T12:31:30.000Z</time><hdop>3.0</hdop><vdop>3.0</vdop><extensions><gom:speed>0.792</gom:speed></extensions></trkpt>
   <trkpt lat="59.0615988543" lon="29.9645817861"><ele>99.785</ele><time>2026-04-25T12:31:31.000Z</time><hdop>3.0</hdop><vdop>3.0</vdop><extensions><gom:speed>0.602</gom:speed></extensions></trkpt>
   <trkpt lat="59.0615900114" lon="29.9645803612"><ele>99.753</ele><time>2026-04-25T12:31:32.000Z</time><hdop>3.0</hdop><vdop>3.0</vdop><extensions><gom:speed>0.677</gom:speed></extensions></trkpt>
   <trkpt lat="59.0615813362" lon="29.9645777628"><ele>99.716</ele><time>2026-04-25T12:31:33.000Z</time><hdop>3.0</hdop><vdop>3.0</vdop><extensions><gom:speed>0.792</gom:speed></extensions></trkpt>
   <trkpt lat="59.0615726609" lon="29.9645796907"><ele>99.712</ele><time>2026-04-25T12:31:34.000Z</time><hdop>3.0</hdop><vdop>3.0</vdop><extensions><gom:speed>0.777</gom:speed></extensions></trkpt>
   <trkpt lat="59.0615641113" lon="29.9645786848"><ele>99.684</ele><time>2026-04-25T12:31:35.000Z</time><hdop>3.0</hdop><vdop>3.0</vdop><extensions><gom:speed>0.881</gom:speed></extensions></trkpt>
   <trkpt lat="59.0615556037" lon="29.9645777628"><ele>99.728</ele><time>2026-04-25T12:31:36.000Z</time><hdop>3.0</hdop><vdop>3.0</vdop><extensions><gom:speed>0.861</gom:speed></extensions></trkpt>
   <trkpt lat="59.0615556037" lon="29.9645777628"><ele>99.755</ele><time>2026-04-25T12:31:36.000Z</time><hdop>3.0</hdop><vdop>3.0</vdop><extensions><gom:speed>0.861</gom:speed></extensions></trkpt>
   <trkpt lat="59.061545294" lon="29.9645737395"><ele>99.721</ele><time>2026-04-25T12:31:37.000Z</time><hdop>3.0</hdop><vdop>3.0</vdop><extensions><gom:speed>0.96</gom:speed></extensions></trkpt>
   <trkpt lat="59.0615321763" lon="29.9645708058"><ele>99.7</ele><time>2026-04-25T12:31:38.000Z</time><hdop>11.937</hdop><vdop>11.937</vdop><extensions><gom:speed>1.02</gom:speed></extensions></trkpt>
   <trkpt lat="59.0615253031" lon="29.9645649385"><ele>99.699</ele><time>2026-04-25T12:31:39.000Z</time><hdop>3.0</hdop><vdop>3.0</vdop><extensions><gom:speed>0.803</gom:speed></extensions></trkpt>
   <trkpt lat="59.0615253031" lon="29.9645649385"><ele>99.699</ele><time>2026-04-25T12:31:39.000Z</time><hdop>3.0</hdop><vdop>3.0</vdop><extensions><gom:speed>0.803</gom:speed></extensions></trkpt>
   <trkpt lat="59.0615139876" lon="29.9645596579"><ele>98.755</ele><time>2026-04-25T12:31:40.000Z</time><hdop>9.312</hdop><vdop>9.312</vdop><extensions><gom:speed>1.097</gom:speed></extensions></trkpt>
   <trkpt lat="59.0615024625" lon="29.9645568081"><ele>97.751</ele><time>2026-04-25T12:31:41.000Z</time><hdop>4.687</hdop><vdop>4.687</vdop><extensions><gom:speed>1.163</gom:speed></extensions></trkpt>
   <trkpt lat="59.0614917755" lon="29.9645523657"><ele>96.475</ele><time>2026-04-25T12:31:42.000Z</time><hdop>2.0</hdop><vdop>2.0</vdop><extensions><gom:speed>1.173</gom:speed></extensions></trkpt>
   <trkpt lat="59.0614791188" lon="29.96455312"><ele>95.694</ele><time>2026-04-25T12:31:43.000Z</time><hdop>1.5</hdop><vdop>1.5</vdop><extensions><gom:speed>1.226</gom:speed></extensions></trkpt>
   <trkpt lat="59.0614798313" lon="29.9645537906"><ele>95.061</ele><time>2026-04-25T12:31:44.000Z</time><hdop>1.125</hdop><vdop>1.125</vdop><extensions><gom:speed>1.262</gom:speed></extensions></trkpt>
   <trkpt lat="59.0614624808" lon="29.9645596579"><ele>95.019</ele><time>2026-04-25T12:31:45.000Z</time><hdop>1.125</hdop><vdop>1.125</vdop><extensions><gom:speed>1.292</gom:speed></extensions></trkpt>
   <trkpt lat="59.0614677195" lon="29.9645252921"><ele>95.13</ele><time>2026-04-25T12:31:46.000Z</time><hdop>1.125</hdop><vdop>1.125</vdop><extensions><gom:speed>0.837</gom:speed></extensions></trkpt>
   <trkpt lat="59.061465624" lon="29.9645287287"><ele>96.905</ele><time>2026-04-25T12:31:47.000Z</time><hdop>3.0</hdop><vdop>3.0</vdop><extensions><gom:speed>0.644</gom:speed></extensions></trkpt>
   <trkpt lat="59.0614587927" lon="29.9645330035"><ele>97.987</ele><time>2026-04-25T12:31:48.000Z</time><hdop>3.0</hdop><vdop>3.0</vdop><extensions><gom:speed>0.541</gom:speed></extensions></trkpt>
   <trkpt lat="59.0614486925" lon="29.9645357695"><ele>98.719</ele><time>2026-04-25T12:31:49.000Z</time><hdop>3.0</hdop><vdop>3.0</vdop><extensions><gom:speed>0.528</gom:speed></extensions></trkpt>
   <trkpt lat="59.0614374608" lon="29.9645371944"><ele>99.215</ele><time>2026-04-25T12:31:50.000Z</time><hdop>4.25</hdop><vdop>4.25</vdop><extensions><gom:speed>0.679</gom:speed></extensions></trkpt>
   <trkpt lat="59.0614252651" lon="29.9645368591"><ele>99.576</ele><time>2026-04-25T12:31:51.000Z</time><hdop>3.0</hdop><vdop>3.0</vdop><extensions><gom:speed>0.67</gom:speed></extensions></trkpt>
   <trkpt lat="59.0614157517" lon="29.9645362724"><ele>99.808</ele><time>2026-04-25T12:31:52.000Z</time><hdop>3.0</hdop><vdop>3.0</vdop><extensions><gom:speed>0.721</gom:speed></extensions></trkpt>
   <trkpt lat="59.0614068249" lon="29.964537362"><ele>99.936</ele><time>2026-04-25T12:31:53.000Z</time><hdop>3.0</hdop><vdop>3.0</vdop><extensions><gom:speed>0.451</gom:speed></extensions></trkpt>
   <trkpt lat="59.061401251" lon="29.9645361048"><ele>99.998</ele><time>2026-04-25T12:31:54.000Z</time><hdop>3.0</hdop><vdop>3.0</vdop><extensions><gom:speed>0.486</gom:speed></extensions></trkpt>
   <trkpt lat="59.0613946293" lon="29.9645351827"><ele>100.032</ele><time>2026-04-25T12:31:55.000Z</time><hdop>3.0</hdop><vdop>3.0</vdop><extensions><gom:speed>0.394</gom:speed></extensions></trkpt>
   <trkpt lat="59.0613875046" lon="29.9645356018"><ele>100.045</ele><time>2026-04-25T12:31:56.000Z</time><hdop>3.0</hdop><vdop>3.0</vdop><extensions><gom:speed>0.382</gom:speed></extensions></trkpt>
   <trkpt lat="59.0613802962" lon="29.9645368591"><ele>100.029</ele><time>2026-04-25T12:31:57.000Z</time><hdop>3.0</hdop><vdop>3.0</vdop><extensions><gom:speed>0.543</gom:speed></extensions></trkpt>
   <trkpt lat="59.0613710761" lon="29.9645350151"><ele>100.044</ele><time>2026-04-25T12:31:58.000Z</time><hdop>3.0</hdop><vdop>3.0</vdop><extensions><gom:speed>0.633</gom:speed></extensions></trkpt>
   <trkpt lat="59.0613595929" lon="29.9645344284"><ele>100.085</ele><time>2026-04-25T12:31:59.000Z</time><hdop>3.0</hdop><vdop>3.0</vdop><extensions><gom:speed>0.81</gom:speed></extensions></trkpt>
   <trkpt lat="59.0613479002" lon="29.9645293992"><ele>100.133</ele><time>2026-04-25T12:32:00.000Z</time><hdop>3.0</hdop><vdop>3.0</vdop><extensions><gom:speed>0.82</gom:speed></extensions></trkpt>
   <trkpt lat="59.0613381771" lon="29.9645264656"><ele>100.125</ele><time>2026-04-25T12:32:01.000Z</time><hdop>3.0</hdop><vdop>3.0</vdop><extensions><gom:speed>0.698</gom:speed></extensions></trkpt>
   <trkpt lat="59.0613313459" lon="29.9645184189"><ele>100.114</ele><time>2026-04-25T12:32:02.000Z</time><hdop>3.0</hdop><vdop>3.0</vdop><extensions><gom:speed>0.53</gom:speed></extensions></trkpt>
   <trkpt lat="59.0613241375" lon="29.9645118811"><ele>99.632</ele><time>2026-04-25T12:32:03.000Z</time><hdop>1.75</hdop><vdop>1.75</vdop><extensions><gom:speed>0.89</gom:speed></extensions></trkpt>
   <trkpt lat="59.0613155879" lon="29.9645014037"><ele>99.206</ele><time>2026-04-25T12:32:04.000Z</time><hdop>1.687</hdop><vdop>1.687</vdop><extensions><gom:speed>0.641</gom:speed></extensions></trkpt>
   <trkpt lat="59.0613072898" lon="29.9644944467"><ele>98.881</ele><time>2026-04-25T12:32:05.000Z</time><hdop>1.687</hdop><vdop>1.687</vdop><extensions><gom:speed>0.692</gom:speed></extensions></trkpt>
   <trkpt lat="59.0613002909" lon="29.9645018228"><ele>98.518</ele><time>2026-04-25T12:32:06.000Z</time><hdop>1.937</hdop><vdop>1.937</vdop><extensions><gom:speed>0.787</gom:speed></extensions></trkpt>
   <trkpt lat="59.0612880115" lon="29.964504505"><ele>98.204</ele><time>2026-04-25T12:32:07.000Z</time><hdop>1.687</hdop><vdop>1.687</vdop><extensions><gom:speed>0.861</gom:speed></extensions></trkpt>
   <trkpt lat="59.0612751871" lon="29.964504505"><ele>98.706</ele><time>2026-04-25T12:32:08.000Z</time><hdop>3.0</hdop><vdop>3.0</vdop><extensions><gom:speed>0.708</gom:speed></extensions></trkpt>
   <trkpt lat="59.0612652965" lon="29.9645038344"><ele>98.947</ele><time>2026-04-25T12:32:09.000Z</time><hdop>3.0</hdop><vdop>3.0</vdop><extensions><gom:speed>0.664</gom:speed></extensions></trkpt>
   <trkpt lat="59.0612547353" lon="29.9645015713"><ele>99.027</ele><time>2026-04-25T12:32:10.000Z</time><hdop>3.0</hdop><vdop>3.0</vdop><extensions><gom:speed>0.692</gom:speed></extensions></trkpt>
   <trkpt lat="59.0612474011" lon="29.964496626"><ele>98.356</ele><time>2026-04-25T12:32:11.000Z</time><hdop>1.312</hdop><vdop>1.312</vdop><extensions><gom:speed>0.873</gom:speed></extensions></trkpt>
   <trkpt lat="59.0612398155" lon="29.9644910939"><ele>97.468</ele><time>2026-04-25T12:32:12.000Z</time><hdop>1.312</hdop><vdop>1.312</vdop><extensions><gom:speed>0.362</gom:speed></extensions></trkpt>
   <trkpt lat="59.0612352474" lon="29.9644910101"><ele>97.205</ele><time>2026-04-25T12:32:13.000Z</time><hdop>1.125</hdop><vdop>1.125</vdop><extensions><gom:speed>0.295</gom:speed></extensions></trkpt>
   <trkpt lat="59.0612352474" lon="29.9644910101"><ele>97.047</ele><time>2026-04-25T12:32:13.000Z</time><hdop>1.125</hdop><vdop>1.125</vdop><extensions><gom:speed>0.295</gom:speed></extensions></trkpt>
   <trkpt lat="59.0612300087" lon="29.9644875735"><ele>96.979</ele><time>2026-04-25T12:32:14.000Z</time><hdop>1.25</hdop><vdop>1.25</vdop><extensions><gom:speed>0.492</gom:speed></extensions></trkpt>
   <trkpt lat="59.0612193637" lon="29.9644811195"><ele>96.559</ele><time>2026-04-25T12:32:15.000Z</time><hdop>1.25</hdop><vdop>1.25</vdop><extensions><gom:speed>0.727</gom:speed></extensions></trkpt>
   <trkpt lat="59.0612077128" lon="29.9644809518"><ele>96.227</ele><time>2026-04-25T12:32:16.000Z</time><hdop>1.437</hdop><vdop>1.437</vdop><extensions><gom:speed>0.803</gom:speed></extensions></trkpt>
   <trkpt lat="59.0612009654" lon="29.9644745816"><ele>96.014</ele><time>2026-04-25T12:32:17.000Z</time><hdop>1.5</hdop><vdop>1.5</vdop><extensions><gom:speed>0.592</gom:speed></extensions></trkpt>
   <trkpt lat="59.0611948466" lon="29.9644708097"><ele>95.796</ele><time>2026-04-25T12:32:18.000Z</time><hdop>1.875</hdop><vdop>1.875</vdop><extensions><gom:speed>0.52</gom:speed></extensions></trkpt>
   <trkpt lat="59.0611841178" lon="29.9644686304"><ele>95.477</ele><time>2026-04-25T12:32:19.000Z</time><hdop>2.375</hdop><vdop>2.375</vdop><extensions><gom:speed>0.51</gom:speed></extensions></trkpt>
   <trkpt lat="59.0611770351" lon="29.9644609191"><ele>95.149</ele><time>2026-04-25T12:32:20.000Z</time><hdop>2.562</hdop><vdop>2.562</vdop><extensions><gom:speed>0.553</gom:speed></extensions></trkpt>
   <trkpt lat="59.0611632468" lon="29.9644524534"><ele>95.038</ele><time>2026-04-25T12:32:21.000Z</time><hdop>2.812</hdop><vdop>2.812</vdop><extensions><gom:speed>0.795</gom:speed></extensions></trkpt>
   <trkpt lat="59.0611494167" lon="29.9644509446"><ele>95.058</ele><time>2026-04-25T12:32:22.000Z</time><hdop>2.812</hdop><vdop>2.812</vdop><extensions><gom:speed>0.822</gom:speed></extensions></trkpt>
   <trkpt lat="59.0611449743" lon="29.9644472566"><ele>95.059</ele><time>2026-04-25T12:32:23.000Z</time><hdop>2.937</hdop><vdop>2.937</vdop><extensions><gom:speed>0.709</gom:speed></extensions></trkpt>
   <trkpt lat="59.0611402804" lon="29.9644518666"><ele>95.038</ele><time>2026-04-25T12:32:24.000Z</time><hdop>3.187</hdop><vdop>3.187</vdop><extensions><gom:speed>0.744</gom:speed></extensions></trkpt>
   <trkpt lat="59.0611348322" lon="29.964448933"><ele>94.948</ele><time>2026-04-25T12:32:25.000Z</time><hdop>3.562</hdop><vdop>3.562</vdop><extensions><gom:speed>0.568</gom:speed></extensions></trkpt>
   <trkpt lat="59.0611302221" lon="29.964448933"><ele>94.989</ele><time>2026-04-25T12:32:26.000Z</time><hdop>4.125</hdop><vdop>4.125</vdop><extensions><gom:speed>0.606</gom:speed></extensions></trkpt>
   <trkpt lat="59.0611277495" lon="29.9644426465"><ele>95.075</ele><time>2026-04-25T12:32:27.000Z</time><hdop>4.187</hdop><vdop>4.187</vdop><extensions><gom:speed>0.517</gom:speed></extensions></trkpt>
   <trkpt lat="59.0611210859" lon="29.964435019"><ele>95.153</ele><time>2026-04-25T12:32:28.000Z</time><hdop>4.187</hdop><vdop>4.187</vdop><extensions><gom:speed>0.636</gom:speed></extensions></trkpt>
   <trkpt lat="59.0611152604" lon="29.9644273077"><ele>95.361</ele><time>2026-04-25T12:32:29.000Z</time><hdop>4.0</hdop><vdop>4.0</vdop><extensions><gom:speed>0.696</gom:speed></extensions></trkpt>
   <trkpt lat="59.0611090159" lon="29.9644242064"><ele>95.359</ele><time>2026-04-25T12:32:30.000Z</time><hdop>3.875</hdop><vdop>3.875</vdop><extensions><gom:speed>0.681</gom:speed></extensions></trkpt>
   <trkpt lat="59.0611023523" lon="29.9644200992"><ele>95.363</ele><time>2026-04-25T12:32:31.000Z</time><hdop>3.562</hdop><vdop>3.562</vdop><extensions><gom:speed>0.702</gom:speed></extensions></trkpt>
   <trkpt lat="59.0610972393" lon="29.9644123879"><ele>95.343</ele><time>2026-04-25T12:32:32.000Z</time><hdop>3.812</hdop><vdop>3.812</vdop><extensions><gom:speed>0.45</gom:speed></extensions></trkpt>
   <trkpt lat="59.0610918749" lon="29.9644073587"><ele>95.307</ele><time>2026-04-25T12:32:33.000Z</time><hdop>3.437</hdop><vdop>3.437</vdop><extensions><gom:speed>0.566</gom:speed></extensions></trkpt>
   <trkpt lat="59.0610918749" lon="29.9644073587"><ele>95.285</ele><time>2026-04-25T12:32:33.000Z</time><hdop>3.437</hdop><vdop>3.437</vdop><extensions><gom:speed>0.566</gom:speed></extensions></trkpt>
   <trkpt lat="59.0610852113" lon="29.9644074425"><ele>95.385</ele><time>2026-04-25T12:32:34.000Z</time><hdop>3.437</hdop><vdop>3.437</vdop><extensions><gom:speed>0.713</gom:speed></extensions></trkpt>
   <trkpt lat="59.0610716745" lon="29.9644050956"><ele>95.496</ele><time>2026-04-25T12:32:35.000Z</time><hdop>3.375</hdop><vdop>3.375</vdop><extensions><gom:speed>0.728</gom:speed></extensions></trkpt>
   <trkpt lat="59.0610544497" lon="29.9644033354"><ele>95.35</ele><time>2026-04-25T12:32:36.000Z</time><hdop>3.687</hdop><vdop>3.687</vdop><extensions><gom:speed>0.807</gom:speed></extensions></trkpt>
   <trkpt lat="59.0610382307" lon="29.9644053471"><ele>95.212</ele><time>2026-04-25T12:32:37.000Z</time><hdop>3.812</hdop><vdop>3.812</vdop><extensions><gom:speed>0.785</gom:speed></extensions></trkpt>
   <trkpt lat="59.0610249454" lon="29.964409538"><ele>96.391</ele><time>2026-04-25T12:32:38.000Z</time><hdop>3.0</hdop><vdop>3.0</vdop><extensions><gom:speed>0.68</gom:speed></extensions></trkpt>
   <trkpt lat="59.0610158092" lon="29.9644145672"><ele>97.156</ele><time>2026-04-25T12:32:39.000Z</time><hdop>3.0</hdop><vdop>3.0</vdop><extensions><gom:speed>0.684</gom:speed></extensions></trkpt>
   <trkpt lat="59.0610073015" lon="29.9644191772"><ele>97.626</ele><time>2026-04-25T12:32:40.000Z</time><hdop>3.0</hdop><vdop>3.0</vdop><extensions><gom:speed>0.559</gom:speed></extensions></trkpt>
   <trkpt lat="59.0609994225" lon="29.9644228652"><ele>97.92</ele><time>2026-04-25T12:32:41.000Z</time><hdop>3.0</hdop><vdop>3.0</vdop><extensions><gom:speed>0.637</gom:speed></extensions></trkpt>
   <trkpt lat="59.0609907892" lon="29.9644247093"><ele>98.091</ele><time>2026-04-25T12:32:42.000Z</time><hdop>3.0</hdop><vdop>3.0</vdop><extensions><gom:speed>0.627</gom:speed></extensions></trkpt>
   <trkpt lat="59.0609818205" lon="29.9644251284"><ele>98.219</ele><time>2026-04-25T12:32:43.000Z</time><hdop>3.0</hdop><vdop>3.0</vdop><extensions><gom:speed>0.611</gom:speed></extensions></trkpt>
   <trkpt lat="59.0609736482" lon="29.9644186743"><ele>98.329</ele><time>2026-04-25T12:32:44.000Z</time><hdop>3.0</hdop><vdop>3.0</vdop><extensions><gom:speed>0.689</gom:speed></extensions></trkpt>
   <trkpt lat="59.0609665236" lon="29.9644074425"><ele>98.409</ele><time>2026-04-25T12:32:45.000Z</time><hdop>3.0</hdop><vdop>3.0</vdop><extensions><gom:speed>0.606</gom:speed></extensions></trkpt>
   <trkpt lat="59.0609592313" lon="29.9643952888"><ele>98.478</ele><time>2026-04-25T12:32:46.000Z</time><hdop>3.0</hdop><vdop>3.0</vdop><extensions><gom:speed>0.767</gom:speed></extensions></trkpt>
   <trkpt lat="59.0609529449" lon="29.9643802852"><ele>98.525</ele><time>2026-04-25T12:32:47.000Z</time><hdop>3.0</hdop><vdop>3.0</vdop><extensions><gom:speed>0.55</gom:speed></extensions></trkpt>
   <trkpt lat="59.0609482091" lon="29.9643677961"><ele>98.554</ele><time>2026-04-25T12:32:48.000Z</time><hdop>3.0</hdop><vdop>3.0</vdop><extensions><gom:speed>0.497</gom:speed></extensions></trkpt>
   <trkpt lat="59.0609406654" lon="29.9643571511"><ele>97.374</ele><time>2026-04-25T12:32:49.000Z</time><hdop>1.5</hdop><vdop>1.5</vdop><extensions><gom:speed>0.801</gom:speed></extensions></trkpt>
   <trkpt lat="59.0609284697" lon="29.9643480987"><ele>97.847</ele><time>2026-04-25T12:32:50.000Z</time><hdop>3.0</hdop><vdop>3.0</vdop><extensions><gom:speed>1.083</gom:speed></extensions></trkpt>
   <trkpt lat="59.060916316" lon="29.9643377889"><ele>98.133</ele><time>2026-04-25T12:32:51.000Z</time><hdop>3.0</hdop><vdop>3.0</vdop><extensions><gom:speed>1.037</gom:speed></extensions></trkpt>
   <trkpt lat="59.0609068025" lon="29.9643318378"><ele>97.25</ele><time>2026-04-25T12:32:52.000Z</time><hdop>1.187</hdop><vdop>1.187</vdop><extensions><gom:speed>0.993</gom:speed></extensions></trkpt>
   <trkpt lat="59.0608981691" lon="29.9643242102"><ele>96.794</ele><time>2026-04-25T12:32:53.000Z</time><hdop>1.0</hdop><vdop>1.0</vdop><extensions><gom:speed>0.887</gom:speed></extensions></trkpt>
   <trkpt lat="59.0608981691" lon="29.9643242102"><ele>96.522</ele><time>2026-04-25T12:32:53.000Z</time><hdop>1.0</hdop><vdop>1.0</vdop><extensions><gom:speed>0.887</gom:speed></extensions></trkpt>
   <trkpt lat="59.0608902063" lon="29.9643164989"><ele>96.414</ele><time>2026-04-25T12:32:54.000Z</time><hdop>1.125</hdop><vdop>1.125</vdop><extensions><gom:speed>0.864</gom:speed></extensions></trkpt>
   <trkpt lat="59.0608840875" lon="29.9643125594"><ele>96.351</ele><time>2026-04-25T12:32:55.000Z</time><hdop>1.437</hdop><vdop>1.437</vdop><extensions><gom:speed>0.768</gom:speed></extensions></trkpt>
   <trkpt lat="59.0608789327" lon="29.9642979749"><ele>96.276</ele><time>2026-04-25T12:32:56.000Z</time><hdop>1.5</hdop><vdop>1.5</vdop><extensions><gom:speed>0.682</gom:speed></extensions></trkpt>
   <trkpt lat="59.0608735683" lon="29.9642939516"><ele>96.243</ele><time>2026-04-25T12:32:57.000Z</time><hdop>1.687</hdop><vdop>1.687</vdop><extensions><gom:speed>0.645</gom:speed></extensions></trkpt>
   <trkpt lat="59.0608615402" lon="29.964286827"><ele>96.263</ele><time>2026-04-25T12:32:58.000Z</time><hdop>1.937</hdop><vdop>1.937</vdop><extensions><gom:speed>0.731</gom:speed></extensions></trkpt>
   <trkpt lat="59.0608581036" lon="29.9642819655"><ele>96.228</ele><time>2026-04-25T12:32:59.000Z</time><hdop>2.312</hdop><vdop>2.312</vdop><extensions><gom:speed>0.787</gom:speed></extensions></trkpt>
   <trkpt lat="59.0608493446" lon="29.9642836418"><ele>96.132</ele><time>2026-04-25T12:33:00.000Z</time><hdop>2.5</hdop><vdop>2.5</vdop><extensions><gom:speed>0.655</gom:speed></extensions></trkpt>
   <trkpt lat="59.060838951" lon="29.9642833066"><ele>96.083</ele><time>2026-04-25T12:33:01.000Z</time><hdop>2.812</hdop><vdop>2.812</vdop><extensions><gom:speed>0.643</gom:speed></extensions></trkpt>
   <trkpt lat="59.060831072" lon="29.9642843124"><ele>96.175</ele><time>2026-04-25T12:33:02.000Z</time><hdop>2.875</hdop><vdop>2.875</vdop><extensions><gom:speed>0.563</gom:speed></extensions></trkpt>
   <trkpt lat="59.0608266715" lon="29.9642814625"><ele>96.232</ele><time>2026-04-25T12:33:03.000Z</time><hdop>3.0</hdop><vdop>3.0</vdop><extensions><gom:speed>0.458</gom:speed></extensions></trkpt>
   <trkpt lat="59.0608251628" lon="29.964280792"><ele>96.22</ele><time>2026-04-25T12:33:04.000Z</time><hdop>3.125</hdop><vdop>3.125</vdop><extensions><gom:speed>0.345</gom:speed></extensions></trkpt>
   <trkpt lat="59.0608215166" lon="29.9642773554"><ele>96.186</ele><time>2026-04-25T12:33:05.000Z</time><hdop>3.375</hdop><vdop>3.375</vdop><extensions><gom:speed>0.408</gom:speed></extensions></trkpt>
   <trkpt lat="59.0608156493" lon="29.9642791994"><ele>96.081</ele><time>2026-04-25T12:33:06.000Z</time><hdop>3.5</hdop><vdop>3.5</vdop><extensions><gom:speed>0.537</gom:speed></extensions></trkpt>
   <trkpt lat="59.0608086923" lon="29.9642809596"><ele>96.13</ele><time>2026-04-25T12:33:07.000Z</time><hdop>3.875</hdop><vdop>3.875</vdop><extensions><gom:speed>0.6</gom:speed></extensions></trkpt>
   <trkpt lat="59.0608018611" lon="29.964278948"><ele>96.246</ele><time>2026-04-25T12:33:08.000Z</time><hdop>3.937</hdop><vdop>3.937</vdop><extensions><gom:speed>0.559</gom:speed></extensions></trkpt>
   <trkpt lat="59.0607970415" lon="29.9642735836"><ele>96.379</ele><time>2026-04-25T12:33:09.000Z</time><hdop>3.812</hdop><vdop>3.812</vdop><extensions><gom:speed>0.721</gom:speed></extensions></trkpt>
   <trkpt lat="59.0607918028" lon="29.9642684706"><ele>96.492</ele><time>2026-04-25T12:33:10.000Z</time><hdop>3.312</hdop><vdop>3.312</vdop><extensions><gom:speed>0.593</gom:speed></extensions></trkpt>
   <trkpt lat="59.06079218" lon="29.9642545566"><ele>96.706</ele><time>2026-04-25T12:33:11.000Z</time><hdop>3.312</hdop><vdop>3.312</vdop><extensions><gom:speed>0.558</gom:speed></extensions></trkpt>
   <trkpt lat="59.0607880309" lon="29.9642440793"><ele>96.84</ele><time>2026-04-25T12:33:12.000Z</time><hdop>3.187</hdop><vdop>3.187</vdop><extensions><gom:speed>0.569</gom:speed></extensions></trkpt>
   <trkpt lat="59.0607766735" lon="29.9642234598"><ele>96.925</ele><time>2026-04-25T12:33:13.000Z</time><hdop>4.0</hdop><vdop>4.0</vdop><extensions><gom:speed>0.613</gom:speed></extensions></trkpt>
   <trkpt lat="59.0607766735" lon="29.9642234598"><ele>96.975</ele><time>2026-04-25T12:33:13.000Z</time><hdop>4.0</hdop><vdop>4.0</vdop><extensions><gom:speed>0.613</gom:speed></extensions></trkpt>
   <trkpt lat="59.0607672019" lon="29.9642053549"><ele>97.048</ele><time>2026-04-25T12:33:14.000Z</time><hdop>4.125</hdop><vdop>4.125</vdop><extensions><gom:speed>0.374</gom:speed></extensions></trkpt>
   <trkpt lat="59.0607538328" lon="29.9641957157"><ele>97.179</ele><time>2026-04-25T12:33:15.000Z</time><hdop>4.437</hdop><vdop>4.437</vdop><extensions><gom:speed>0.334</gom:speed></extensions></trkpt>
   <trkpt lat="59.0607469596" lon="29.9641885072"><ele>97.289</ele><time>2026-04-25T12:33:16.000Z</time><hdop>4.5</hdop><vdop>4.5</vdop><extensions><gom:speed>0.546</gom:speed></extensions></trkpt>
   <trkpt lat="59.0607411761" lon="29.9641916924"><ele>97.365</ele><time>2026-04-25T12:33:17.000Z</time><hdop>4.625</hdop><vdop>4.625</vdop><extensions><gom:speed>0.495</gom:speed></extensions></trkpt>
   <trkpt lat="59.0607281422" lon="29.9641921115"><ele>97.37</ele><time>2026-04-25T12:33:18.000Z</time><hdop>4.062</hdop><vdop>4.062</vdop><extensions><gom:speed>0.682</gom:speed></extensions></trkpt>
   <trkpt lat="59.060712049" lon="29.9641894292"><ele>97.356</ele><time>2026-04-25T12:33:19.000Z</time><hdop>3.875</hdop><vdop>3.875</vdop><extensions><gom:speed>0.789</gom:speed></extensions></trkpt>
   <trkpt lat="59.0606970454" lon="29.9641863279"><ele>97.298</ele><time>2026-04-25T12:33:20.000Z</time><hdop>4.0</hdop><vdop>4.0</vdop><extensions><gom:speed>0.8</gom:speed></extensions></trkpt>
   <trkpt lat="59.0606851012" lon="29.9641855736"><ele>98.937</ele><time>2026-04-25T12:33:21.000Z</time><hdop>3.0</hdop><vdop>3.0</vdop><extensions><gom:speed>0.53</gom:speed></extensions></trkpt>
   <trkpt lat="59.0606765097" lon="29.9641853221"><ele>99.902</ele><time>2026-04-25T12:33:22.000Z</time><hdop>3.0</hdop><vdop>3.0</vdop><extensions><gom:speed>0.753</gom:speed></extensions></trkpt>
   <trkpt lat="59.0606672477" lon="29.9641843163"><ele>100.538</ele><time>2026-04-25T12:33:23.000Z</time><hdop>3.0</hdop><vdop>3.0</vdop><extensions><gom:speed>0.821</gom:speed></extensions></trkpt>
   <trkpt lat="59.0606586563" lon="29.9641833943"><ele>100.932</ele><time>2026-04-25T12:33:24.000Z</time><hdop>3.0</hdop><vdop>3.0</vdop><extensions><gom:speed>0.707</gom:speed></extensions></trkpt>
   <trkpt lat="59.0606506934" lon="29.9641850707"><ele>101.178</ele><time>2026-04-25T12:33:25.000Z</time><hdop>3.0</hdop><vdop>3.0</vdop><extensions><gom:speed>0.658</gom:speed></extensions></trkpt>
   <trkpt lat="59.0606452033" lon="29.9641791195"><ele>99.51</ele><time>2026-04-25T12:33:26.000Z</time><hdop>2.125</hdop><vdop>2.125</vdop><extensions><gom:speed>0.774</gom:speed></extensions></trkpt>
   <trkpt lat="59.0606373662" lon="29.9641712405"><ele>98.591</ele><time>2026-04-25T12:33:27.000Z</time><hdop>2.125</hdop><vdop>2.125</vdop><extensions><gom:speed>0.628</gom:speed></extensions></trkpt>
   <trkpt lat="59.0606278109" lon="29.964167301"><ele>97.957</ele><time>2026-04-25T12:33:28.000Z</time><hdop>2.187</hdop><vdop>2.187</vdop><extensions><gom:speed>0.628</gom:speed></extensions></trkpt>
   <trkpt lat="59.0606154056" lon="29.9641616851"><ele>97.728</ele><time>2026-04-25T12:33:29.000Z</time><hdop>2.562</hdop><vdop>2.562</vdop><extensions><gom:speed>0.287</gom:speed></extensions></trkpt>
   <trkpt lat="59.0606114242" lon="29.9641533871"><ele>97.546</ele><time>2026-04-25T12:33:30.000Z</time><hdop>2.812</hdop><vdop>2.812</vdop><extensions><gom:speed>0.311</gom:speed></extensions></trkpt>
   <trkpt lat="59.0606054312" lon="29.9641553149"><ele>97.541</ele><time>2026-04-25T12:33:31.000Z</time><hdop>2.812</hdop><vdop>2.812</vdop><extensions><gom:speed>0.686</gom:speed></extensions></trkpt>
   <trkpt lat="59.0606010726" lon="29.9641450052"><ele>97.598</ele><time>2026-04-25T12:33:32.000Z</time><hdop>2.75</hdop><vdop>2.75</vdop><extensions><gom:speed>0.663</gom:speed></extensions></trkpt>
   <trkpt lat="59.0605969235" lon="29.9641338572"><ele>97.659</ele><time>2026-04-25T12:33:33.000Z</time><hdop>2.75</hdop><vdop>2.75</vdop><extensions><gom:speed>0.796</gom:speed></extensions></trkpt>
   <trkpt lat="59.0605969235" lon="29.9641338572"><ele>97.695</ele><time>2026-04-25T12:33:33.000Z</time><hdop>2.75</hdop><vdop>2.75</vdop><extensions><gom:speed>0.796</gom:speed></extensions></trkpt>
   <trkpt lat="59.0605892541" lon="29.9641246371"><ele>97.738</ele><time>2026-04-25T12:33:34.000Z</time><hdop>2.25</hdop><vdop>2.25</vdop><extensions><gom:speed>0.606</gom:speed></extensions></trkpt>
   <trkpt lat="59.060586069" lon="29.964112651"><ele>97.791</ele><time>2026-04-25T12:33:35.000Z</time><hdop>2.187</hdop><vdop>2.187</vdop><extensions><gom:speed>0.878</gom:speed></extensions></trkpt>
   <trkpt lat="59.0605831772" lon="29.9640974798"><ele>97.841</ele><time>2026-04-25T12:33:36.000Z</time><hdop>2.625</hdop><vdop>2.625</vdop><extensions><gom:speed>0.589</gom:speed></extensions></trkpt>
   <trkpt lat="59.0605791539" lon="29.9640856613"><ele>97.926</ele><time>2026-04-25T12:33:37.000Z</time><hdop>2.937</hdop><vdop>2.937</vdop><extensions><gom:speed>0.444</gom:speed></extensions></trkpt>
   <trkpt lat="59.0605739152" lon="29.9640804645"><ele>98.046</ele><time>2026-04-25T12:33:38.000Z</time><hdop>3.125</hdop><vdop>3.125</vdop><extensions><gom:speed>0.336</gom:speed></extensions></trkpt>
   <trkpt lat="59.0605738733" lon="29.9640734237"><ele>98.179</ele><time>2026-04-25T12:33:39.000Z</time><hdop>3.562</hdop><vdop>3.562</vdop><extensions><gom:speed>0.296</gom:speed></extensions></trkpt>
   <trkpt lat="59.0605662039" lon="29.9640615214"><ele>98.119</ele><time>2026-04-25T12:33:40.000Z</time><hdop>3.937</hdop><vdop>3.937</vdop><extensions><gom:speed>0.392</gom:speed></extensions></trkpt>
   <trkpt lat="59.0605600432" lon="29.9640520499"><ele>97.993</ele><time>2026-04-25T12:33:41.000Z</time><hdop>3.937</hdop><vdop>3.937</vdop><extensions><gom:speed>0.536</gom:speed></extensions></trkpt>
   <trkpt lat="59.0605535472" lon="29.9640538939"><ele>97.832</ele><time>2026-04-25T12:33:42.000Z</time><hdop>4.125</hdop><vdop>4.125</vdop><extensions><gom:speed>0.397</gom:speed></extensions></trkpt>
   <trkpt lat="59.060547638" lon="29.964057079"><ele>97.778</ele><time>2026-04-25T12:33:43.000Z</time><hdop>4.437</hdop><vdop>4.437</vdop><extensions><gom:speed>0.086</gom:speed></extensions></trkpt>
   <trkpt lat="59.0605478894" lon="29.9640543968"><ele>97.744</ele><time>2026-04-25T12:33:44.000Z</time><hdop>4.437</hdop><vdop>4.437</vdop><extensions><gom:speed>0.223</gom:speed></extensions></trkpt>
   <trkpt lat="59.060537412" lon="29.9640505411"><ele>97.834</ele><time>2026-04-25T12:33:45.000Z</time><hdop>4.5</hdop><vdop>4.5</vdop><extensions><gom:speed>0.424</gom:speed></extensions></trkpt>
   <trkpt lat="59.060533263" lon="29.9640523851"><ele>97.836</ele><time>2026-04-25T12:33:46.000Z</time><hdop>4.812</hdop><vdop>4.812</vdop><extensions><gom:speed>0.475</gom:speed></extensions></trkpt>
   <trkpt lat="59.0605243782" lon="29.9640433327"><ele>97.869</ele><time>2026-04-25T12:33:47.000Z</time><hdop>4.687</hdop><vdop>4.687</vdop><extensions><gom:speed>0.534</gom:speed></extensions></trkpt>
   <trkpt lat="59.0605129788" lon="29.9640250601"><ele>97.981</ele><time>2026-04-25T12:33:48.000Z</time><hdop>4.687</hdop><vdop>4.687</vdop><extensions><gom:speed>0.532</gom:speed></extensions></trkpt>
   <trkpt lat="59.0605075725" lon="29.9640182708"><ele>97.806</ele><time>2026-04-25T12:33:49.000Z</time><hdop>4.687</hdop><vdop>4.687</vdop><extensions><gom:speed>0.474</gom:speed></extensions></trkpt>
   <trkpt lat="59.0604948739" lon="29.9640122358"><ele>97.729</ele><time>2026-04-25T12:33:50.000Z</time><hdop>4.687</hdop><vdop>4.687</vdop><extensions><gom:speed>0.553</gom:speed></extensions></trkpt>
   <trkpt lat="59.0604856119" lon="29.9640071228"><ele>97.557</ele><time>2026-04-25T12:33:51.000Z</time><hdop>4.687</hdop><vdop>4.687</vdop><extensions><gom:speed>0.457</gom:speed></extensions></trkpt>
   <trkpt lat="59.060481379" lon="29.9640132416"><ele>97.452</ele><time>2026-04-25T12:33:52.000Z</time><hdop>4.687</hdop><vdop>4.687</vdop><extensions><gom:speed>0.517</gom:speed></extensions></trkpt>
   <trkpt lat="59.0604784453" lon="29.9640064523"><ele>97.389</ele><time>2026-04-25T12:33:53.000Z</time><hdop>4.687</hdop><vdop>4.687</vdop><extensions><gom:speed>0.383</gom:speed></extensions></trkpt>
   <trkpt lat="59.0604784453" lon="29.9640064523"><ele>97.351</ele><time>2026-04-25T12:33:53.000Z</time><hdop>4.687</hdop><vdop>4.687</vdop><extensions><gom:speed>0.383</gom:speed></extensions></trkpt>
   <trkpt lat="59.0604722427" lon="29.9640008364"><ele>97.337</ele><time>2026-04-25T12:33:54.000Z</time><hdop>4.687</hdop><vdop>4.687</vdop><extensions><gom:speed>0.362</gom:speed></extensions></trkpt>
   <trkpt lat="59.0604683451" lon="29.9640032672"><ele>97.351</ele><time>2026-04-25T12:33:55.000Z</time><hdop>4.687</hdop><vdop>4.687</vdop><extensions><gom:speed>0.349</gom:speed></extensions></trkpt>
   <trkpt lat="59.0604621425" lon="29.964009386"><ele>97.448</ele><time>2026-04-25T12:33:56.000Z</time><hdop>4.687</hdop><vdop>4.687</vdop><extensions><gom:speed>0.472</gom:speed></extensions></trkpt>
   <trkpt lat="59.0604522519" lon="29.9640173488"><ele>97.579</ele><time>2026-04-25T12:33:57.000Z</time><hdop>4.687</hdop><vdop>4.687</vdop><extensions><gom:speed>0.427</gom:speed></extensions></trkpt>
   <trkpt lat="59.0604321353" lon="29.9640312627"><ele>97.682</ele><time>2026-04-25T12:33:58.000Z</time><hdop>4.687</hdop><vdop>4.687</vdop><extensions><gom:speed>0.384</gom:speed></extensions></trkpt>
   <trkpt lat="59.0604096299" lon="29.9640437518"><ele>97.7</ele><time>2026-04-25T12:33:59.000Z</time><hdop>4.812</hdop><vdop>4.812</vdop><extensions><gom:speed>0.548</gom:speed></extensions></trkpt>
   <trkpt lat="59.0603924889" lon="29.9640480265"><ele>97.663</ele><time>2026-04-25T12:34:00.000Z</time><hdop>4.25</hdop><vdop>4.25</vdop><extensions><gom:speed>0.505</gom:speed></extensions></trkpt>
   <trkpt lat="59.0603814248" lon="29.9640442547"><ele>99.814</ele><time>2026-04-25T12:34:01.000Z</time><hdop>3.0</hdop><vdop>3.0</vdop><extensions><gom:speed>0.511</gom:speed></extensions></trkpt>
   <trkpt lat="59.0603754737" lon="29.9640391417"><ele>101.086</ele><time>2026-04-25T12:34:02.000Z</time><hdop>3.0</hdop><vdop>3.0</vdop><extensions><gom:speed>0.413</gom:speed></extensions></trkpt>
   <trkpt lat="59.0603680557" lon="29.9640384712"><ele>101.785</ele><time>2026-04-25T12:34:03.000Z</time><hdop>3.0</hdop><vdop>3.0</vdop><extensions><gom:speed>0.469</gom:speed></extensions></trkpt>
   <trkpt lat="59.0603587099" lon="29.9640321847"><ele>102.16</ele><time>2026-04-25T12:34:04.000Z</time><hdop>3.0</hdop><vdop>3.0</vdop><extensions><gom:speed>0.639</gom:speed></extensions></trkpt>
   <trkpt lat="59.0603511242" lon="29.9640274071"><ele>102.363</ele><time>2026-04-25T12:34:05.000Z</time><hdop>3.0</hdop><vdop>3.0</vdop><extensions><gom:speed>0.377</gom:speed></extensions></trkpt>
   <trkpt lat="59.0603511242" lon="29.9640274071"><ele>102.484</ele><time>2026-04-25T12:34:06.000Z</time><hdop>3.0</hdop><vdop>3.0</vdop><extensions><gom:speed>0.0</gom:speed></extensions></trkpt>
   <trkpt lat="59.0603511242" lon="29.9640274071"><ele>102.557</ele><time>2026-04-25T12:34:07.000Z</time><hdop>3.0</hdop><vdop>3.0</vdop><extensions><gom:speed>0.0</gom:speed></extensions></trkpt>
   <trkpt lat="59.0603511242" lon="29.9640274071"><ele>102.6</ele><time>2026-04-25T12:34:08.000Z</time><hdop>3.0</hdop><vdop>3.0</vdop><extensions><gom:speed>0.0</gom:speed></extensions></trkpt>
   <trkpt lat="59.0603511242" lon="29.9640274071"><ele>102.626</ele><time>2026-04-25T12:34:09.000Z</time><hdop>3.0</hdop><vdop>3.0</vdop><extensions><gom:speed>0.0</gom:speed></extensions></trkpt>
   <trkpt lat="59.0603511242" lon="29.9640274071"><ele>102.642</ele><time>2026-04-25T12:34:10.000Z</time><hdop>3.0</hdop><vdop>3.0</vdop><extensions><gom:speed>0.0</gom:speed></extensions></trkpt>
   <trkpt lat="59.0603511242" lon="29.9640274071"><ele>102.651</ele><time>2026-04-25T12:34:11.000Z</time><hdop>3.0</hdop><vdop>3.0</vdop><extensions><gom:speed>0.0</gom:speed></extensions></trkpt>
   <trkpt lat="59.0603511242" lon="29.9640274071"><ele>102.657</ele><time>2026-04-25T12:34:12.000Z</time><hdop>3.0</hdop><vdop>3.0</vdop><extensions><gom:speed>0.0</gom:speed></extensions></trkpt>
   <trkpt lat="59.0603511242" lon="29.9640274071"><ele>102.66</ele><time>2026-04-25T12:34:13.000Z</time><hdop>3.0</hdop><vdop>3.0</vdop><extensions><gom:speed>0.0</gom:speed></extensions></trkpt>
   <trkpt lat="59.0603511242" lon="29.9640274071"><ele>102.662</ele><time>2026-04-25T12:34:13.000Z</time><hdop>3.0</hdop><vdop>3.0</vdop><extensions><gom:speed>0.0</gom:speed></extensions></trkpt>
   <trkpt lat="59.0603469752" lon="29.9640212044"><ele>102.652</ele><time>2026-04-25T12:34:14.000Z</time><hdop>3.0</hdop><vdop>3.0</vdop><extensions><gom:speed>0.332</gom:speed></extensions></trkpt>
   <trkpt lat="59.0603428261" lon="29.9640119005"><ele>102.67</ele><time>2026-04-25T12:34:15.000Z</time><hdop>3.0</hdop><vdop>3.0</vdop><extensions><gom:speed>0.458</gom:speed></extensions></trkpt>
   <trkpt lat="59.0603373779" lon="29.9640000821"><ele>102.71</ele><time>2026-04-25T12:34:16.000Z</time><hdop>3.0</hdop><vdop>3.0</vdop><extensions><gom:speed>0.549</gom:speed></extensions></trkpt>
   <trkpt lat="59.0603373779" lon="29.9640000821"><ele>102.733</ele><time>2026-04-25T12:34:17.000Z</time><hdop>3.0</hdop><vdop>3.0</vdop><extensions><gom:speed>0.0</gom:speed></extensions></trkpt>
   <trkpt lat="59.0603338994" lon="29.9639973998"><ele>102.706</ele><time>2026-04-25T12:34:18.000Z</time><hdop>3.0</hdop><vdop>3.0</vdop><extensions><gom:speed>0.1</gom:speed></extensions></trkpt>
   <trkpt lat="59.0603263557" lon="29.9639916163"><ele>102.666</ele><time>2026-04-25T12:34:19.000Z</time><hdop>3.0</hdop><vdop>3.0</vdop><extensions><gom:speed>0.308</gom:speed></extensions></trkpt>
   <trkpt lat="59.0603263557" lon="29.9639916163"><ele>102.642</ele><time>2026-04-25T12:34:20.000Z</time><hdop>3.0</hdop><vdop>3.0</vdop><extensions><gom:speed>0.0</gom:speed></extensions></trkpt>
   <trkpt lat="59.0603182253" lon="29.9639891018"><ele>102.533</ele><time>2026-04-25T12:34:21.000Z</time><hdop>3.0</hdop><vdop>3.0</vdop><extensions><gom:speed>0.532</gom:speed></extensions></trkpt>
   <trkpt lat="59.0603072031" lon="29.9639811389"><ele>102.381</ele><time>2026-04-25T12:34:22.000Z</time><hdop>3.0</hdop><vdop>3.0</vdop><extensions><gom:speed>0.748</gom:speed></extensions></trkpt>
   <trkpt lat="59.060298444" lon="29.9639725056"><ele>102.208</ele><time>2026-04-25T12:34:23.000Z</time><hdop>3.0</hdop><vdop>3.0</vdop><extensions><gom:speed>0.788</gom:speed></extensions></trkpt>
   <trkpt lat="59.0602871703" lon="29.9639654648"><ele>100.637</ele><time>2026-04-25T12:34:24.000Z</time><hdop>1.625</hdop><vdop>1.625</vdop><extensions><gom:speed>0.732</gom:speed></extensions></trkpt>
   <trkpt lat="59.0602721248" lon="29.9639522214"><ele>99.472</ele><time>2026-04-25T12:34:25.000Z</time><hdop>1.5</hdop><vdop>1.5</vdop><extensions><gom:speed>0.634</gom:speed></extensions></trkpt>
   <trkpt lat="59.0602606835" lon="29.9639472761"><ele>98.754</ele><time>2026-04-25T12:34:26.000Z</time><hdop>1.687</hdop><vdop>1.687</vdop><extensions><gom:speed>1.252</gom:speed></extensions></trkpt>
   <trkpt lat="59.0602540199" lon="29.9639351223"><ele>98.298</ele><time>2026-04-25T12:34:27.000Z</time><hdop>1.875</hdop><vdop>1.875</vdop><extensions><gom:speed>0.286</gom:speed></extensions></trkpt>
   <trkpt lat="59.060248865" lon="29.963924142"><ele>97.963</ele><time>2026-04-25T12:34:28.000Z</time><hdop>1.937</hdop><vdop>1.937</vdop><extensions><gom:speed>0.137</gom:speed></extensions></trkpt>
   <trkpt lat="59.0602409022" lon="29.9639191129"><ele>97.721</ele><time>2026-04-25T12:34:29.000Z</time><hdop>1.75</hdop><vdop>1.75</vdop><extensions><gom:speed>0.172</gom:speed></extensions></trkpt>
   <trkpt lat="59.0602278264" lon="29.9639161792"><ele>97.586</ele><time>2026-04-25T12:34:30.000Z</time><hdop>2.25</hdop><vdop>2.25</vdop><extensions><gom:speed>0.335</gom:speed></extensions></trkpt>
   <trkpt lat="59.060215044" lon="29.9639148381"><ele>97.51</ele><time>2026-04-25T12:34:31.000Z</time><hdop>2.375</hdop><vdop>2.375</vdop><extensions><gom:speed>0.531</gom:speed></extensions></trkpt>
   <trkpt lat="59.0602043152" lon="29.9639143352"><ele>97.479</ele><time>2026-04-25T12:34:32.000Z</time><hdop>2.625</hdop><vdop>2.625</vdop><extensions><gom:speed>0.366</gom:speed></extensions></trkpt>
   <trkpt lat="59.0601948436" lon="29.9639210407"><ele>97.39</ele><time>2026-04-25T12:34:33.000Z</time><hdop>2.937</hdop><vdop>2.937</vdop><extensions><gom:speed>0.14</gom:speed></extensions></trkpt>
   <trkpt lat="59.0601948436" lon="29.9639210407"><ele>97.338</ele><time>2026-04-25T12:34:33.000Z</time><hdop>2.937</hdop><vdop>2.937</vdop><extensions><gom:speed>0.14</gom:speed></extensions></trkpt>
   <trkpt lat="59.060192371" lon="29.9639254831"><ele>97.237</ele><time>2026-04-25T12:34:34.000Z</time><hdop>3.375</hdop><vdop>3.375</vdop><extensions><gom:speed>0.76</gom:speed></extensions></trkpt>
   <trkpt lat="59.0601860846" lon="29.9639219627"><ele>97.182</ele><time>2026-04-25T12:34:35.000Z</time><hdop>3.437</hdop><vdop>3.437</vdop><extensions><gom:speed>0.428</gom:speed></extensions></trkpt>
   <trkpt lat="59.0601836119" lon="29.9639185261"><ele>97.105</ele><time>2026-04-25T12:34:36.000Z</time><hdop>3.75</hdop><vdop>3.75</vdop><extensions><gom:speed>0.311</gom:speed></extensions></trkpt>
   <trkpt lat="59.0601783732" lon="29.9639156763"><ele>97.052</ele><time>2026-04-25T12:34:37.000Z</time><hdop>4.125</hdop><vdop>4.125</vdop><extensions><gom:speed>0.203</gom:speed></extensions></trkpt>
   <trkpt lat="59.0601732602" lon="29.9639210407"><ele>97.14</ele><time>2026-04-25T12:34:38.000Z</time><hdop>4.312</hdop><vdop>4.312</vdop><extensions><gom:speed>0.2</gom:speed></extensions></trkpt>
   <trkpt lat="59.0601702847" lon="29.9639233038"><ele>97.198</ele><time>2026-04-25T12:34:39.000Z</time><hdop>4.75</hdop><vdop>4.75</vdop><extensions><gom:speed>0.233</gom:speed></extensions></trkpt>
   <trkpt lat="59.0601660099" lon="29.9639275786"><ele>97.177</ele><time>2026-04-25T12:34:40.000Z</time><hdop>4.75</hdop><vdop>4.75</vdop><extensions><gom:speed>0.429</gom:speed></extensions></trkpt>
   <trkpt lat="59.0601630343" lon="29.9639327754"><ele>97.155</ele><time>2026-04-25T12:34:41.000Z</time><hdop>4.812</hdop><vdop>4.812</vdop><extensions><gom:speed>0.614</gom:speed></extensions></trkpt>
   <trkpt lat="59.0601532694" lon="29.9639398162"><ele>97.097</ele><time>2026-04-25T12:34:42.000Z</time><hdop>4.75</hdop><vdop>4.75</vdop><extensions><gom:speed>0.61</gom:speed></extensions></trkpt>
   <trkpt lat="59.0601398584" lon="29.9639441748"><ele>97.056</ele><time>2026-04-25T12:34:43.000Z</time><hdop>4.25</hdop><vdop>4.25</vdop><extensions><gom:speed>0.54</gom:speed></extensions></trkpt>
   <trkpt lat="59.0601272436" lon="29.963940822"><ele>97.011</ele><time>2026-04-25T12:34:44.000Z</time><hdop>3.937</hdop><vdop>3.937</vdop><extensions><gom:speed>0.499</gom:speed></extensions></trkpt>
   <trkpt lat="59.0601163052" lon="29.9639316857"><ele>98.134</ele><time>2026-04-25T12:34:45.000Z</time><hdop>3.0</hdop><vdop>3.0</vdop><extensions><gom:speed>0.225</gom:speed></extensions></trkpt>
   <trkpt lat="59.0601111084" lon="29.9639252317"><ele>98.795</ele><time>2026-04-25T12:34:46.000Z</time><hdop>3.0</hdop><vdop>3.0</vdop><extensions><gom:speed>0.213</gom:speed></extensions></trkpt>
   <trkpt lat="59.0601054087" lon="29.9639205378"><ele>99.156</ele><time>2026-04-25T12:34:47.000Z</time><hdop>3.0</hdop><vdop>3.0</vdop><extensions><gom:speed>0.389</gom:speed></extensions></trkpt>
   <trkpt lat="59.0600983679" lon="29.9639155086"><ele>99.326</ele><time>2026-04-25T12:34:48.000Z</time><hdop>3.0</hdop><vdop>3.0</vdop><extensions><gom:speed>0.416</gom:speed></extensions></trkpt>
   <trkpt lat="59.0600926682" lon="29.9639076297"><ele>99.38</ele><time>2026-04-25T12:34:49.000Z</time><hdop>3.0</hdop><vdop>3.0</vdop><extensions><gom:speed>0.365</gom:speed></extensions></trkpt>
   <trkpt lat="59.0600867171" lon="29.9639003374"><ele>99.337</ele><time>2026-04-25T12:34:50.000Z</time><hdop>3.0</hdop><vdop>3.0</vdop><extensions><gom:speed>0.388</gom:speed></extensions></trkpt>
   <trkpt lat="59.060080263" lon="29.9638914526"><ele>99.298</ele><time>2026-04-25T12:34:51.000Z</time><hdop>3.0</hdop><vdop>3.0</vdop><extensions><gom:speed>0.502</gom:speed></extensions></trkpt>
   <trkpt lat="59.0600737671" lon="29.9638820649"><ele>99.268</ele><time>2026-04-25T12:34:52.000Z</time><hdop>3.0</hdop><vdop>3.0</vdop><extensions><gom:speed>0.35</gom:speed></extensions></trkpt>
   <trkpt lat="59.0600644631" lon="29.9638727609"><ele>99.222</ele><time>2026-04-25T12:34:53.000Z</time><hdop>3.0</hdop><vdop>3.0</vdop><extensions><gom:speed>0.466</gom:speed></extensions></trkpt>
   <trkpt lat="59.0600644631" lon="29.9638727609"><ele>99.194</ele><time>2026-04-25T12:34:53.000Z</time><hdop>3.0</hdop><vdop>3.0</vdop><extensions><gom:speed>0.466</gom:speed></extensions></trkpt>
   <trkpt lat="59.060055746" lon="29.9638649658"><ele>99.16</ele><time>2026-04-25T12:34:54.000Z</time><hdop>3.0</hdop><vdop>3.0</vdop><extensions><gom:speed>0.506</gom:speed></extensions></trkpt>
   <trkpt lat="59.0600500044" lon="29.9638596852"><ele>98.223</ele><time>2026-04-25T12:34:55.000Z</time><hdop>1.5</hdop><vdop>1.5</vdop><extensions><gom:speed>0.675</gom:speed></extensions></trkpt>
   <trkpt lat="59.0600426283" lon="29.9638569191"><ele>98.546</ele><time>2026-04-25T12:34:56.000Z</time><hdop>3.0</hdop><vdop>3.0</vdop><extensions><gom:speed>0.344</gom:speed></extensions></trkpt>
   <trkpt lat="59.0600361742" lon="29.9638561648"><ele>98.713</ele><time>2026-04-25T12:34:57.000Z</time><hdop>3.0</hdop><vdop>3.0</vdop><extensions><gom:speed>0.44</gom:speed></extensions></trkpt>
   <trkpt lat="59.0600272475" lon="29.9638594337"><ele>98.825</ele><time>2026-04-25T12:34:58.000Z</time><hdop>3.0</hdop><vdop>3.0</vdop><extensions><gom:speed>0.419</gom:speed></extensions></trkpt>
   <trkpt lat="59.0600173988" lon="29.9638609425"><ele>98.833</ele><time>2026-04-25T12:34:59.000Z</time><hdop>3.0</hdop><vdop>3.0</vdop><extensions><gom:speed>0.456</gom:speed></extensions></trkpt>
   <trkpt lat="59.0600102322" lon="29.9638642114"><ele>98.875</ele><time>2026-04-25T12:35:00.000Z</time><hdop>3.0</hdop><vdop>3.0</vdop><extensions><gom:speed>0.5</gom:speed></extensions></trkpt>
   <trkpt lat="59.0600006769" lon="29.9638697435"><ele>98.886</ele><time>2026-04-25T12:35:01.000Z</time><hdop>3.0</hdop><vdop>3.0</vdop><extensions><gom:speed>0.827</gom:speed></extensions></trkpt>
   <trkpt lat="59.0599918759" lon="29.963877371"><ele>98.89</ele><time>2026-04-25T12:35:02.000Z</time><hdop>3.0</hdop><vdop>3.0</vdop><extensions><gom:speed>0.819</gom:speed></extensions></trkpt>
   <trkpt lat="59.0599818176" lon="29.9638874293"><ele>98.896</ele><time>2026-04-25T12:35:03.000Z</time><hdop>3.0</hdop><vdop>3.0</vdop><extensions><gom:speed>0.758</gom:speed></extensions></trkpt>
   <trkpt lat="59.0599745672" lon="29.9638945539"><ele>98.901</ele><time>2026-04-25T12:35:04.000Z</time><hdop>3.0</hdop><vdop>3.0</vdop><extensions><gom:speed>0.797</gom:speed></extensions></trkpt>
   <trkpt lat="59.0599669397" lon="29.9639004212"><ele>98.886</ele><time>2026-04-25T12:35:05.000Z</time><hdop>3.0</hdop><vdop>3.0</vdop><extensions><gom:speed>0.819</gom:speed></extensions></trkpt>
   <trkpt lat="59.0599577615" lon="29.9639083002"><ele>98.88</ele><time>2026-04-25T12:35:06.000Z</time><hdop>3.0</hdop><vdop>3.0</vdop><extensions><gom:speed>0.716</gom:speed></extensions></trkpt>
   <trkpt lat="59.0599495472" lon="29.9639132455"><ele>98.813</ele><time>2026-04-25T12:35:07.000Z</time><hdop>3.0</hdop><vdop>3.0</vdop><extensions><gom:speed>0.73</gom:speed></extensions></trkpt>
   <trkpt lat="59.0599426741" lon="29.9639177718"><ele>98.754</ele><time>2026-04-25T12:35:08.000Z</time><hdop>3.0</hdop><vdop>3.0</vdop><extensions><gom:speed>0.616</gom:speed></extensions></trkpt>
   <trkpt lat="59.0599333702" lon="29.9639183585"><ele>98.73</ele><time>2026-04-25T12:35:09.000Z</time><hdop>3.0</hdop><vdop>3.0</vdop><extensions><gom:speed>0.841</gom:speed></extensions></trkpt>
   <trkpt lat="59.0599239824" lon="29.9639198672"><ele>98.685</ele><time>2026-04-25T12:35:10.000Z</time><hdop>3.0</hdop><vdop>3.0</vdop><extensions><gom:speed>0.663</gom:speed></extensions></trkpt>
   <trkpt lat="59.0599166483" lon="29.9639219627"><ele>97.707</ele><time>2026-04-25T12:35:11.000Z</time><hdop>2.312</hdop><vdop>2.312</vdop><extensions><gom:speed>0.801</gom:speed></extensions></trkpt>
   <trkpt lat="59.0599104038" lon="29.9639207892"><ele>98.054</ele><time>2026-04-25T12:35:12.000Z</time><hdop>3.0</hdop><vdop>3.0</vdop><extensions><gom:speed>0.6</gom:speed></extensions></trkpt>
   <trkpt lat="59.0599040754" lon="29.9639188614"><ele>98.228</ele><time>2026-04-25T12:35:13.000Z</time><hdop>3.0</hdop><vdop>3.0</vdop><extensions><gom:speed>0.634</gom:speed></extensions></trkpt>
   <trkpt lat="59.0599040754" lon="29.9639188614"><ele>98.332</ele><time>2026-04-25T12:35:13.000Z</time><hdop>3.0</hdop><vdop>3.0</vdop><extensions><gom:speed>0.634</gom:speed></extensions></trkpt>
   <trkpt lat="59.0598981243" lon="29.9639194481"><ele>97.631</ele><time>2026-04-25T12:35:14.000Z</time><hdop>1.562</hdop><vdop>1.562</vdop><extensions><gom:speed>0.56</gom:speed></extensions></trkpt>
   <trkpt lat="59.059894562" lon="29.9639208731"><ele>97.144</ele><time>2026-04-25T12:35:15.000Z</time><hdop>1.562</hdop><vdop>1.562</vdop><extensions><gom:speed>0.411</gom:speed></extensions></trkpt>
   <trkpt lat="59.0598921312" lon="29.9639352899"><ele>97.005</ele><time>2026-04-25T12:35:16.000Z</time><hdop>1.687</hdop><vdop>1.687</vdop><extensions><gom:speed>0.884</gom:speed></extensions></trkpt>
   <trkpt lat="59.0598960707" lon="29.963914419"><ele>97.0</ele><time>2026-04-25T12:35:17.000Z</time><hdop>2.125</hdop><vdop>2.125</vdop><extensions><gom:speed>0.723</gom:speed></extensions></trkpt>
   <trkpt lat="59.0598927179" lon="29.9639098928"><ele>97.097</ele><time>2026-04-25T12:35:18.000Z</time><hdop>2.437</hdop><vdop>2.437</vdop><extensions><gom:speed>0.537</gom:speed></extensions></trkpt>
   <trkpt lat="59.0598908739" lon="29.9639039416"><ele>97.161</ele><time>2026-04-25T12:35:19.000Z</time><hdop>2.625</hdop><vdop>2.625</vdop><extensions><gom:speed>0.389</gom:speed></extensions></trkpt>
   <trkpt lat="59.0598865153" lon="29.9639033549"><ele>97.199</ele><time>2026-04-25T12:35:20.000Z</time><hdop>3.187</hdop><vdop>3.187</vdop><extensions><gom:speed>0.505</gom:speed></extensions></trkpt>
   <trkpt lat="59.0598799775" lon="29.9639062886"><ele>97.255</ele><time>2026-04-25T12:35:21.000Z</time><hdop>3.875</hdop><vdop>3.875</vdop><extensions><gom:speed>0.567</gom:speed></extensions></trkpt>
   <trkpt lat="59.0598762056" lon="29.9639124073"><ele>97.288</ele><time>2026-04-25T12:35:22.000Z</time><hdop>4.25</hdop><vdop>4.25</vdop><extensions><gom:speed>0.789</gom:speed></extensions></trkpt>
   <trkpt lat="59.0598580588" lon="29.9638957274"><ele>97.193</ele><time>2026-04-25T12:35:23.000Z</time><hdop>4.812</hdop><vdop>4.812</vdop><extensions><gom:speed>0.122</gom:speed></extensions></trkpt>
   <trkpt lat="59.0598576397" lon="29.9638967332"><ele>97.132</ele><time>2026-04-25T12:35:24.000Z</time><hdop>4.75</hdop><vdop>4.75</vdop><extensions><gom:speed>0.054</gom:speed></extensions></trkpt>
   <trkpt lat="59.0598567177" lon="29.9638965655"><ele>97.092</ele><time>2026-04-25T12:35:25.000Z</time><hdop>4.562</hdop><vdop>4.562</vdop><extensions><gom:speed>0.197</gom:speed></extensions></trkpt>
   <trkpt lat="59.0598543707" lon="29.9638988287"><ele>97.099</ele><time>2026-04-25T12:35:26.000Z</time><hdop>4.375</hdop><vdop>4.375</vdop><extensions><gom:speed>0.297</gom:speed></extensions></trkpt>
   <trkpt lat="59.0598506408" lon="29.9638974037"><ele>97.138</ele><time>2026-04-25T12:35:27.000Z</time><hdop>4.375</hdop><vdop>4.375</vdop><extensions><gom:speed>0.425</gom:speed></extensions></trkpt>
   <trkpt lat="59.0598486291" lon="29.9638981581"><ele>97.13</ele><time>2026-04-25T12:35:28.000Z</time><hdop>4.375</hdop><vdop>4.375</vdop><extensions><gom:speed>0.282</gom:speed></extensions></trkpt>
   <trkpt lat="59.0598433066" lon="29.9638990801"><ele>97.054</ele><time>2026-04-25T12:35:29.000Z</time><hdop>4.5</hdop><vdop>4.5</vdop><extensions><gom:speed>0.424</gom:speed></extensions></trkpt>
   <trkpt lat="59.0598386128" lon="29.9638997507"><ele>97.052</ele><time>2026-04-25T12:35:30.000Z</time><hdop>4.937</hdop><vdop>4.937</vdop><extensions><gom:speed>0.4</gom:speed></extensions></trkpt>
   <trkpt lat="59.0598386547" lon="29.9638994992"><ele>97.022</ele><time>2026-04-25T12:35:31.000Z</time><hdop>4.687</hdop><vdop>4.687</vdop><extensions><gom:speed>0.041</gom:speed></extensions></trkpt>
   <trkpt lat="59.0598336255" lon="29.9639059533"><ele>96.887</ele><time>2026-04-25T12:35:32.000Z</time><hdop>4.687</hdop><vdop>4.687</vdop><extensions><gom:speed>0.026</gom:speed></extensions></trkpt>
   <trkpt lat="59.0598290155" lon="29.9639103119"><ele>96.718</ele><time>2026-04-25T12:35:33.000Z</time><hdop>4.687</hdop><vdop>4.687</vdop><extensions><gom:speed>0.177</gom:speed></extensions></trkpt>
   <trkpt lat="59.0598290155" lon="29.9639103119"><ele>96.616</ele><time>2026-04-25T12:35:33.000Z</time><hdop>4.687</hdop><vdop>4.687</vdop><extensions><gom:speed>0.177</gom:speed></extensions></trkpt>
   <trkpt lat="59.0598277163" lon="29.963911653"><ele>96.556</ele><time>2026-04-25T12:35:34.000Z</time><hdop>4.687</hdop><vdop>4.687</vdop><extensions><gom:speed>0.16</gom:speed></extensions></trkpt>
   <trkpt lat="59.059817658" lon="29.9639092222"><ele>96.408</ele><time>2026-04-25T12:35:35.000Z</time><hdop>4.687</hdop><vdop>4.687</vdop><extensions><gom:speed>1.232</gom:speed></extensions></trkpt>
   <trkpt lat="59.0598066777" lon="29.9639103119"><ele>96.375</ele><time>2026-04-25T12:35:36.000Z</time><hdop>4.812</hdop><vdop>4.812</vdop><extensions><gom:speed>0.036</gom:speed></extensions></trkpt>
   <trkpt lat="59.0597938534" lon="29.9638989963"><ele>96.484</ele><time>2026-04-25T12:35:37.000Z</time><hdop>4.375</hdop><vdop>4.375</vdop><extensions><gom:speed>1.597</gom:speed></extensions></trkpt>
   <trkpt lat="59.0597854296" lon="29.9638929613"><ele>96.653</ele><time>2026-04-25T12:35:38.000Z</time><hdop>4.375</hdop><vdop>4.375</vdop><extensions><gom:speed>0.973</gom:speed></extensions></trkpt>
   <trkpt lat="59.0597724795" lon="29.9638890218"><ele>96.855</ele><time>2026-04-25T12:35:39.000Z</time><hdop>4.375</hdop><vdop>4.375</vdop><extensions><gom:speed>1.163</gom:speed></extensions></trkpt>
   <trkpt lat="59.0597643491" lon="29.9638876807"><ele>96.971</ele><time>2026-04-25T12:35:40.000Z</time><hdop>4.75</hdop><vdop>4.75</vdop><extensions><gom:speed>1.234</gom:speed></extensions></trkpt>
   <trkpt lat="59.0597625889" lon="29.9638844118"><ele>97.001</ele><time>2026-04-25T12:35:41.000Z</time><hdop>4.687</hdop><vdop>4.687</vdop><extensions><gom:speed>0.182</gom:speed></extensions></trkpt>
   <trkpt lat="59.0597508123" lon="29.9638855014"><ele>97.058</ele><time>2026-04-25T12:35:42.000Z</time><hdop>4.875</hdop><vdop>4.875</vdop><extensions><gom:speed>0.172</gom:speed></extensions></trkpt>
   <trkpt lat="59.0597424723" lon="29.9638833221"><ele>97.12</ele><time>2026-04-25T12:35:43.000Z</time><hdop>4.875</hdop><vdop>4.875</vdop><extensions><gom:speed>0.052</gom:speed></extensions></trkpt>
   <trkpt lat="59.0597340066" lon="29.9638768681"><ele>97.357</ele><time>2026-04-25T12:35:44.000Z</time><hdop>3.0</hdop><vdop>3.0</vdop><extensions><gom:speed>0.0</gom:speed></extensions></trkpt>
   <trkpt lat="59.0597197155" lon="29.9638661392"><ele>97.499</ele><time>2026-04-25T12:35:45.000Z</time><hdop>3.0</hdop><vdop>3.0</vdop><extensions><gom:speed>0.0</gom:speed></extensions></trkpt>
   <trkpt lat="59.059704167" lon="29.9638569191"><ele>97.649</ele><time>2026-04-25T12:35:46.000Z</time><hdop>3.0</hdop><vdop>3.0</vdop><extensions><gom:speed>0.358</gom:speed></extensions></trkpt>
   <trkpt lat="59.0596903369" lon="29.9638503813"><ele>97.838</ele><time>2026-04-25T12:35:47.000Z</time><hdop>3.0</hdop><vdop>3.0</vdop><extensions><gom:speed>0.457</gom:speed></extensions></trkpt>
   <trkpt lat="59.0596797338" lon="29.9638493754"><ele>98.072</ele><time>2026-04-25T12:35:48.000Z</time><hdop>3.0</hdop><vdop>3.0</vdop><extensions><gom:speed>0.497</gom:speed></extensions></trkpt>
   <trkpt lat="59.0596700108" lon="29.9638528958"><ele>98.294</ele><time>2026-04-25T12:35:49.000Z</time><hdop>3.0</hdop><vdop>3.0</vdop><extensions><gom:speed>0.645</gom:speed></extensions></trkpt>
   <trkpt lat="59.0596623413" lon="29.9638525606"><ele>98.513</ele><time>2026-04-25T12:35:50.000Z</time><hdop>3.0</hdop><vdop>3.0</vdop><extensions><gom:speed>0.635</gom:speed></extensions></trkpt>
   <trkpt lat="59.0596565159" lon="29.9638510518"><ele>98.661</ele><time>2026-04-25T12:35:51.000Z</time><hdop>3.0</hdop><vdop>3.0</vdop><extensions><gom:speed>0.565</gom:speed></extensions></trkpt>
   <trkpt lat="59.0596565159" lon="29.9638510518"><ele>98.749</ele><time>2026-04-25T12:35:51.000Z</time><hdop>3.0</hdop><vdop>3.0</vdop><extensions><gom:speed>0.565</gom:speed></extensions></trkpt>
   <trkpt lat="59.059650439" lon="29.9638446816"><ele>98.762</ele><time>2026-04-25T12:35:52.000Z</time><hdop>3.0</hdop><vdop>3.0</vdop><extensions><gom:speed>0.495</gom:speed></extensions></trkpt>
   <trkpt lat="59.059644907" lon="29.9638378084"><ele>98.771</ele><time>2026-04-25T12:35:53.000Z</time><hdop>3.0</hdop><vdop>3.0</vdop><extensions><gom:speed>0.559</gom:speed></extensions></trkpt>
   <trkpt lat="59.059644907" lon="29.9638378084"><ele>98.776</ele><time>2026-04-25T12:35:53.000Z</time><hdop>3.0</hdop><vdop>3.0</vdop><extensions><gom:speed>0.559</gom:speed></extensions></trkpt>
   <trkpt lat="59.0596384948" lon="29.9638301809"><ele>98.756</ele><time>2026-04-25T12:35:54.000Z</time><hdop>3.0</hdop><vdop>3.0</vdop><extensions><gom:speed>0.669</gom:speed></extensions></trkpt>
   <trkpt lat="59.0596315798" lon="29.9638223857"><ele>98.742</ele><time>2026-04-25T12:35:55.000Z</time><hdop>3.0</hdop><vdop>3.0</vdop><extensions><gom:speed>0.59</gom:speed></extensions></trkpt>
   <trkpt lat="59.0596224435" lon="29.9638160993"><ele>98.735</ele><time>2026-04-25T12:35:56.000Z</time><hdop>3.0</hdop><vdop>3.0</vdop><extensions><gom:speed>0.751</gom:speed></extensions></trkpt>
   <trkpt lat="59.0596140197" lon="29.9638095614"><ele>98.718</ele><time>2026-04-25T12:35:57.000Z</time><hdop>3.0</hdop><vdop>3.0</vdop><extensions><gom:speed>0.605</gom:speed></extensions></trkpt>
   <trkpt lat="59.0596040871" lon="29.9638057895"><ele>98.699</ele><time>2026-04-25T12:35:58.000Z</time><hdop>3.0</hdop><vdop>3.0</vdop><extensions><gom:speed>0.55</gom:speed></extensions></trkpt>
   <trkpt lat="59.0595956214" lon="29.9637995031"><ele>98.686</ele><time>2026-04-25T12:35:59.000Z</time><hdop>3.0</hdop><vdop>3.0</vdop><extensions><gom:speed>0.472</gom:speed></extensions></trkpt>
   <trkpt lat="59.0595896283" lon="29.9637914565"><ele>98.719</ele><time>2026-04-25T12:36:00.000Z</time><hdop>3.0</hdop><vdop>3.0</vdop><extensions><gom:speed>0.465</gom:speed></extensions></trkpt>
   <trkpt lat="59.0595816655" lon="29.9637839128"><ele>98.773</ele><time>2026-04-25T12:36:01.000Z</time><hdop>3.0</hdop><vdop>3.0</vdop><extensions><gom:speed>0.444</gom:speed></extensions></trkpt>
   <trkpt lat="59.0595729064" lon="29.9637783807"><ele>98.803</ele><time>2026-04-25T12:36:02.000Z</time><hdop>3.0</hdop><vdop>3.0</vdop><extensions><gom:speed>0.46</gom:speed></extensions></trkpt>
   <trkpt lat="59.0595624291" lon="29.9637725134"><ele>98.853</ele><time>2026-04-25T12:36:03.000Z</time><hdop>3.0</hdop><vdop>3.0</vdop><extensions><gom:speed>0.553</gom:speed></extensions></trkpt>
   <trkpt lat="59.0595540891" lon="29.9637712561"><ele>98.869</ele><time>2026-04-25T12:36:04.000Z</time><hdop>3.0</hdop><vdop>3.0</vdop><extensions><gom:speed>0.47</gom:speed></extensions></trkpt>
   <trkpt lat="59.0595472997" lon="29.9637764529"><ele>98.891</ele><time>2026-04-25T12:36:05.000Z</time><hdop>3.0</hdop><vdop>3.0</vdop><extensions><gom:speed>0.584</gom:speed></extensions></trkpt>
   <trkpt lat="59.0595384149" lon="29.9637844157"><ele>98.946</ele><time>2026-04-25T12:36:06.000Z</time><hdop>3.0</hdop><vdop>3.0</vdop><extensions><gom:speed>0.888</gom:speed></extensions></trkpt>
   <trkpt lat="59.0595292786" lon="29.963793049"><ele>99.005</ele><time>2026-04-25T12:36:07.000Z</time><hdop>3.0</hdop><vdop>3.0</vdop><extensions><gom:speed>0.911</gom:speed></extensions></trkpt>
   <trkpt lat="59.0595215254" lon="29.9638010957"><ele>99.134</ele><time>2026-04-25T12:36:08.000Z</time><hdop>3.0</hdop><vdop>3.0</vdop><extensions><gom:speed>0.66</gom:speed></extensions></trkpt>
   <trkpt lat="59.0595145684" lon="29.963804197"><ele>99.289</ele><time>2026-04-25T12:36:09.000Z</time><hdop>3.0</hdop><vdop>3.0</vdop><extensions><gom:speed>0.686</gom:speed></extensions></trkpt>
   <trkpt lat="59.0595064379" lon="29.963810651"><ele>99.339</ele><time>2026-04-25T12:36:10.000Z</time><hdop>3.0</hdop><vdop>3.0</vdop><extensions><gom:speed>0.778</gom:speed></extensions></trkpt>
   <trkpt lat="59.0595025404" lon="29.9638230563"><ele>99.343</ele><time>2026-04-25T12:36:11.000Z</time><hdop>3.0</hdop><vdop>3.0</vdop><extensions><gom:speed>0.65</gom:speed></extensions></trkpt>
   <trkpt lat="59.0595011154" lon="29.9638367188"><ele>99.348</ele><time>2026-04-25T12:36:12.000Z</time><hdop>3.0</hdop><vdop>3.0</vdop><extensions><gom:speed>0.703</gom:speed></extensions></trkpt>
   <trkpt lat="59.0595020793" lon="29.9638515547"><ele>99.365</ele><time>2026-04-25T12:36:13.000Z</time><hdop>3.0</hdop><vdop>3.0</vdop><extensions><gom:speed>0.69</gom:speed></extensions></trkpt>
   <trkpt lat="59.0595020793" lon="29.9638515547"><ele>99.376</ele><time>2026-04-25T12:36:13.000Z</time><hdop>3.0</hdop><vdop>3.0</vdop><extensions><gom:speed>0.69</gom:speed></extensions></trkpt>
   <trkpt lat="59.0595024146" lon="29.9638663907"><ele>99.387</ele><time>2026-04-25T12:36:14.000Z</time><hdop>3.0</hdop><vdop>3.0</vdop><extensions><gom:speed>0.617</gom:speed></extensions></trkpt>
   <trkpt lat="59.059498978" lon="29.9638791312"><ele>99.507</ele><time>2026-04-25T12:36:15.000Z</time><hdop>3.0</hdop><vdop>3.0</vdop><extensions><gom:speed>0.482</gom:speed></extensions></trkpt>
   <trkpt lat="59.059498978" lon="29.9638791312"><ele>99.579</ele><time>2026-04-25T12:36:15.000Z</time><hdop>3.0</hdop><vdop>3.0</vdop><extensions><gom:speed>0.482</gom:speed></extensions></trkpt>
   <trkpt lat="59.0594957091" lon="29.9638839089"><ele>99.615</ele><time>2026-04-25T12:36:16.000Z</time><hdop>3.0</hdop><vdop>3.0</vdop><extensions><gom:speed>0.391</gom:speed></extensions></trkpt>
   <trkpt lat="59.0594883749" lon="29.9638891057"><ele>99.748</ele><time>2026-04-25T12:36:17.000Z</time><hdop>3.0</hdop><vdop>3.0</vdop><extensions><gom:speed>0.551</gom:speed></extensions></trkpt>
   <trkpt lat="59.0594883749" lon="29.9638891057"><ele>99.828</ele><time>2026-04-25T12:36:17.000Z</time><hdop>3.0</hdop><vdop>3.0</vdop><extensions><gom:speed>0.551</gom:speed></extensions></trkpt>
   <trkpt lat="59.0594812503" lon="29.9638922908"><ele>99.865</ele><time>2026-04-25T12:36:18.000Z</time><hdop>3.0</hdop><vdop>3.0</vdop><extensions><gom:speed>0.364</gom:speed></extensions></trkpt>
   <trkpt lat="59.0594738323" lon="29.9638997507"><ele>99.913</ele><time>2026-04-25T12:36:19.000Z</time><hdop>3.0</hdop><vdop>3.0</vdop><extensions><gom:speed>0.42</gom:speed></extensions></trkpt>
   <trkpt lat="59.0594668754" lon="29.9639022652"><ele>99.942</ele><time>2026-04-25T12:36:20.000Z</time><hdop>3.0</hdop><vdop>3.0</vdop><extensions><gom:speed>0.484</gom:speed></extensions></trkpt>
   <trkpt lat="59.059461469" lon="29.9639076297"><ele>100.038</ele><time>2026-04-25T12:36:21.000Z</time><hdop>3.0</hdop><vdop>3.0</vdop><extensions><gom:speed>0.504</gom:speed></extensions></trkpt>
   <trkpt lat="59.0594553921" lon="29.963914419"><ele>100.181</ele><time>2026-04-25T12:36:22.000Z</time><hdop>3.0</hdop><vdop>3.0</vdop><extensions><gom:speed>0.49</gom:speed></extensions></trkpt>
   <trkpt lat="59.0594502373" lon="29.9639110662"><ele>100.282</ele><time>2026-04-25T12:36:23.000Z</time><hdop>3.0</hdop><vdop>3.0</vdop><extensions><gom:speed>0.48</gom:speed></extensions></trkpt>
   <trkpt lat="59.0594442861" lon="29.9639100604"><ele>100.327</ele><time>2026-04-25T12:36:24.000Z</time><hdop>3.0</hdop><vdop>3.0</vdop><extensions><gom:speed>0.422</gom:speed></extensions></trkpt>
   <trkpt lat="59.059438796" lon="29.9639103119"><ele>100.278</ele><time>2026-04-25T12:36:25.000Z</time><hdop>3.0</hdop><vdop>3.0</vdop><extensions><gom:speed>0.173</gom:speed></extensions></trkpt>
   <trkpt lat="59.059438796" lon="29.9639103119"><ele>100.249</ele><time>2026-04-25T12:36:26.000Z</time><hdop>3.0</hdop><vdop>3.0</vdop><extensions><gom:speed>0.0</gom:speed></extensions></trkpt>
   <trkpt lat="59.059438796" lon="29.9639103119"><ele>100.232</ele><time>2026-04-25T12:36:27.000Z</time><hdop>3.0</hdop><vdop>3.0</vdop><extensions><gom:speed>0.0</gom:speed></extensions></trkpt>
   <trkpt lat="59.059438796" lon="29.9639103119"><ele>100.222</ele><time>2026-04-25T12:36:28.000Z</time><hdop>3.0</hdop><vdop>3.0</vdop><extensions><gom:speed>0.0</gom:speed></extensions></trkpt>
   <trkpt lat="59.059438796" lon="29.9639103119"><ele>100.215</ele><time>2026-04-25T12:36:29.000Z</time><hdop>3.0</hdop><vdop>3.0</vdop><extensions><gom:speed>0.0</gom:speed></extensions></trkpt>
   <trkpt lat="59.059438796" lon="29.9639103119"><ele>100.212</ele><time>2026-04-25T12:36:30.000Z</time><hdop>3.0</hdop><vdop>3.0</vdop><extensions><gom:speed>0.0</gom:speed></extensions></trkpt>
   <trkpt lat="59.059438796" lon="29.9639103119"><ele>100.209</ele><time>2026-04-25T12:36:31.000Z</time><hdop>3.0</hdop><vdop>3.0</vdop><extensions><gom:speed>0.0</gom:speed></extensions></trkpt>
   <trkpt lat="59.059438796" lon="29.9639103119"><ele>100.208</ele><time>2026-04-25T12:36:32.000Z</time><hdop>3.0</hdop><vdop>3.0</vdop><extensions><gom:speed>0.0</gom:speed></extensions></trkpt>
   <trkpt lat="59.059438796" lon="29.9639103119"><ele>100.207</ele><time>2026-04-25T12:36:33.000Z</time><hdop>3.0</hdop><vdop>3.0</vdop><extensions><gom:speed>0.0</gom:speed></extensions></trkpt>
   <trkpt lat="59.059438796" lon="29.9639103119"><ele>100.207</ele><time>2026-04-25T12:36:33.000Z</time><hdop>3.0</hdop><vdop>3.0</vdop><extensions><gom:speed>0.0</gom:speed></extensions></trkpt>
   <trkpt lat="59.059438796" lon="29.9639103119"><ele>100.207</ele><time>2026-04-25T12:36:34.000Z</time><hdop>3.0</hdop><vdop>3.0</vdop><extensions><gom:speed>0.0</gom:speed></extensions></trkpt>
   <trkpt lat="59.059438796" lon="29.9639103119"><ele>100.206</ele><time>2026-04-25T12:36:35.000Z</time><hdop>3.0</hdop><vdop>3.0</vdop><extensions><gom:speed>0.0</gom:speed></extensions></trkpt>
   <trkpt lat="59.059438796" lon="29.9639103119"><ele>100.206</ele><time>2026-04-25T12:36:36.000Z</time><hdop>3.0</hdop><vdop>3.0</vdop><extensions><gom:speed>0.0</gom:speed></extensions></trkpt>
   <trkpt lat="59.059438796" lon="29.9639103119"><ele>100.206</ele><time>2026-04-25T12:36:37.000Z</time><hdop>3.0</hdop><vdop>3.0</vdop><extensions><gom:speed>0.0</gom:speed></extensions></trkpt>
   <trkpt lat="59.059438796" lon="29.9639103119"><ele>100.206</ele><time>2026-04-25T12:36:38.000Z</time><hdop>3.0</hdop><vdop>3.0</vdop><extensions><gom:speed>0.0</gom:speed></extensions></trkpt>
   <trkpt lat="59.059438796" lon="29.9639103119"><ele>100.206</ele><time>2026-04-25T12:36:39.000Z</time><hdop>3.0</hdop><vdop>3.0</vdop><extensions><gom:speed>0.0</gom:speed></extensions></trkpt>
   <trkpt lat="59.0594374968" lon="29.9639088869"><ele>100.182</ele><time>2026-04-25T12:36:40.000Z</time><hdop>3.0</hdop><vdop>3.0</vdop><extensions><gom:speed>0.183</gom:speed></extensions></trkpt>
   <trkpt lat="59.0594374968" lon="29.9639088869"><ele>100.168</ele><time>2026-04-25T12:36:41.000Z</time><hdop>3.0</hdop><vdop>3.0</vdop><extensions><gom:speed>0.0</gom:speed></extensions></trkpt>
   <trkpt lat="59.0594343117" lon="29.9639077135"><ele>100.168</ele><time>2026-04-25T12:36:42.000Z</time><hdop>3.0</hdop><vdop>3.0</vdop><extensions><gom:speed>0.418</gom:speed></extensions></trkpt>
   <trkpt lat="59.0594272709" lon="29.9639061209"><ele>100.144</ele><time>2026-04-25T12:36:43.000Z</time><hdop>3.0</hdop><vdop>3.0</vdop><extensions><gom:speed>0.701</gom:speed></extensions></trkpt>
   <trkpt lat="59.0594169611" lon="29.9639051989"><ele>100.168</ele><time>2026-04-25T12:36:44.000Z</time><hdop>3.0</hdop><vdop>3.0</vdop><extensions><gom:speed>0.794</gom:speed></extensions></trkpt>
   <trkpt lat="59.0594074058" lon="29.9639059533"><ele>100.243</ele><time>2026-04-25T12:36:45.000Z</time><hdop>3.0</hdop><vdop>3.0</vdop><extensions><gom:speed>0.708</gom:speed></extensions></trkpt>
   <trkpt lat="59.0594023347" lon="29.9639027682"><ele>100.302</ele><time>2026-04-25T12:36:46.000Z</time><hdop>3.0</hdop><vdop>3.0</vdop><extensions><gom:speed>0.451</gom:speed></extensions></trkpt>
   <trkpt lat="59.0593962578" lon="29.9639026005"><ele>100.369</ele><time>2026-04-25T12:36:47.000Z</time><hdop>3.0</hdop><vdop>3.0</vdop><extensions><gom:speed>0.454</gom:speed></extensions></trkpt>
   <trkpt lat="59.0593887141" lon="29.9639018461"><ele>100.451</ele><time>2026-04-25T12:36:48.000Z</time><hdop>3.0</hdop><vdop>3.0</vdop><extensions><gom:speed>0.565</gom:speed></extensions></trkpt>
   <trkpt lat="59.0593816733" lon="29.963900505"><ele>100.563</ele><time>2026-04-25T12:36:49.000Z</time><hdop>3.0</hdop><vdop>3.0</vdop><extensions><gom:speed>0.665</gom:speed></extensions></trkpt>
   <trkpt lat="59.0593720341" lon="29.9639006727"><ele>100.66</ele><time>2026-04-25T12:36:50.000Z</time><hdop>3.0</hdop><vdop>3.0</vdop><extensions><gom:speed>0.749</gom:speed></extensions></trkpt>
   <trkpt lat="59.0593615148" lon="29.9639034387"><ele>100.699</ele><time>2026-04-25T12:36:51.000Z</time><hdop>3.0</hdop><vdop>3.0</vdop><extensions><gom:speed>0.826</gom:speed></extensions></trkpt>
   <trkpt lat="59.0593514985" lon="29.9638994992"><ele>100.731</ele><time>2026-04-25T12:36:52.000Z</time><hdop>3.0</hdop><vdop>3.0</vdop><extensions><gom:speed>0.901</gom:speed></extensions></trkpt>
   <trkpt lat="59.0593397219" lon="29.9639001698"><ele>100.761</ele><time>2026-04-25T12:36:53.000Z</time><hdop>3.0</hdop><vdop>3.0</vdop><extensions><gom:speed>0.894</gom:speed></extensions></trkpt>
   <trkpt lat="59.059328532" lon="29.9639002536"><ele>100.792</ele><time>2026-04-25T12:36:54.000Z</time><hdop>3.0</hdop><vdop>3.0</vdop><extensions><gom:speed>0.859</gom:speed></extensions></trkpt>
   <trkpt lat="59.059328532" lon="29.9639002536"><ele>100.81</ele><time>2026-04-25T12:36:54.000Z</time><hdop>3.0</hdop><vdop>3.0</vdop><extensions><gom:speed>0.859</gom:speed></extensions></trkpt>
   <trkpt lat="59.059321156" lon="29.9638994154"><ele>100.84</ele><time>2026-04-25T12:36:55.000Z</time><hdop>3.0</hdop><vdop>3.0</vdop><extensions><gom:speed>0.53</gom:speed></extensions></trkpt>
   <trkpt lat="59.0593186833" lon="29.9638980743"><ele>100.839</ele><time>2026-04-25T12:36:56.000Z</time><hdop>3.0</hdop><vdop>3.0</vdop><extensions><gom:speed>0.122</gom:speed></extensions></trkpt>
   <trkpt lat="59.0593186833" lon="29.9638980743"><ele>100.839</ele><time>2026-04-25T12:36:57.000Z</time><hdop>3.0</hdop><vdop>3.0</vdop><extensions><gom:speed>0.0</gom:speed></extensions></trkpt>
   <trkpt lat="59.0593186833" lon="29.9638980743"><ele>100.839</ele><time>2026-04-25T12:36:58.000Z</time><hdop>3.0</hdop><vdop>3.0</vdop><extensions><gom:speed>0.0</gom:speed></extensions></trkpt>
   <trkpt lat="59.0593129417" lon="29.9638967332"><ele>100.854</ele><time>2026-04-25T12:36:59.000Z</time><hdop>3.0</hdop><vdop>3.0</vdop><extensions><gom:speed>0.187</gom:speed></extensions></trkpt>
   <trkpt lat="59.059305859" lon="29.9638952244"><ele>100.895</ele><time>2026-04-25T12:37:00.000Z</time><hdop>3.0</hdop><vdop>3.0</vdop><extensions><gom:speed>0.311</gom:speed></extensions></trkpt>
   <trkpt lat="59.0592981896" lon="29.9638919555"><ele>100.958</ele><time>2026-04-25T12:37:01.000Z</time><hdop>3.0</hdop><vdop>3.0</vdop><extensions><gom:speed>0.418</gom:speed></extensions></trkpt>
   <trkpt lat="59.0592898496" lon="29.9638882675"><ele>101.016</ele><time>2026-04-25T12:37:02.000Z</time><hdop>3.0</hdop><vdop>3.0</vdop><extensions><gom:speed>0.515</gom:speed></extensions></trkpt>
   <trkpt lat="59.0592791207" lon="29.9638846632"><ele>101.073</ele><time>2026-04-25T12:37:03.000Z</time><hdop>3.0</hdop><vdop>3.0</vdop><extensions><gom:speed>0.819</gom:speed></extensions></trkpt>
   <trkpt lat="59.0592691043" lon="29.9638842441"><ele>101.122</ele><time>2026-04-25T12:37:04.000Z</time><hdop>3.0</hdop><vdop>3.0</vdop><extensions><gom:speed>0.775</gom:speed></extensions></trkpt>
   <trkpt lat="59.0592597585" lon="29.9638848309"><ele>101.119</ele><time>2026-04-25T12:37:05.000Z</time><hdop>3.0</hdop><vdop>3.0</vdop><extensions><gom:speed>0.8</gom:speed></extensions></trkpt>
   <trkpt lat="59.0592509994" lon="29.9638846632"><ele>101.084</ele><time>2026-04-25T12:37:06.000Z</time><hdop>3.0</hdop><vdop>3.0</vdop><extensions><gom:speed>0.718</gom:speed></extensions></trkpt>
   <trkpt lat="59.0592425337" lon="29.9638765328"><ele>101.048</ele><time>2026-04-25T12:37:07.000Z</time><hdop>3.0</hdop><vdop>3.0</vdop><extensions><gom:speed>0.783</gom:speed></extensions></trkpt>
   <trkpt lat="59.0592360797" lon="29.9638665583"><ele>101.002</ele><time>2026-04-25T12:37:08.000Z</time><hdop>3.0</hdop><vdop>3.0</vdop><extensions><gom:speed>0.837</gom:speed></extensions></trkpt>
   <trkpt lat="59.0592262309" lon="29.9638567515"><ele>100.983</ele><time>2026-04-25T12:37:09.000Z</time><hdop>3.0</hdop><vdop>3.0</vdop><extensions><gom:speed>0.904</gom:speed></extensions></trkpt>
   <trkpt lat="59.0592162984" lon="29.9638480343"><ele>100.979</ele><time>2026-04-25T12:37:10.000Z</time><hdop>3.0</hdop><vdop>3.0</vdop><extensions><gom:speed>0.767</gom:speed></extensions></trkpt>
   <trkpt lat="59.0592097186" lon="29.9638406583"><ele>100.954</ele><time>2026-04-25T12:37:11.000Z</time><hdop>3.0</hdop><vdop>3.0</vdop><extensions><gom:speed>0.494</gom:speed></extensions></trkpt>
   <trkpt lat="59.0592016719" lon="29.9638374731"><ele>100.905</ele><time>2026-04-25T12:37:12.000Z</time><hdop>3.0</hdop><vdop>3.0</vdop><extensions><gom:speed>0.573</gom:speed></extensions></trkpt>
   <trkpt lat="59.0591939187" lon="29.9638362158"><ele>100.929</ele><time>2026-04-25T12:37:13.000Z</time><hdop>3.0</hdop><vdop>3.0</vdop><extensions><gom:speed>0.467</gom:speed></extensions></trkpt>
   <trkpt lat="59.0591939187" lon="29.9638362158"><ele>100.944</ele><time>2026-04-25T12:37:13.000Z</time><hdop>3.0</hdop><vdop>3.0</vdop><extensions><gom:speed>0.467</gom:speed></extensions></trkpt>
   <trkpt lat="59.05918495" lon="29.9638378084"><ele>100.955</ele><time>2026-04-25T12:37:14.000Z</time><hdop>3.0</hdop><vdop>3.0</vdop><extensions><gom:speed>0.579</gom:speed></extensions></trkpt>
   <trkpt lat="59.059175227" lon="29.9638408259"><ele>101.013</ele><time>2026-04-25T12:37:15.000Z</time><hdop>3.0</hdop><vdop>3.0</vdop><extensions><gom:speed>0.826</gom:speed></extensions></trkpt>
   <trkpt lat="59.0591658393" lon="29.9638426699"><ele>101.036</ele><time>2026-04-25T12:37:16.000Z</time><hdop>3.0</hdop><vdop>3.0</vdop><extensions><gom:speed>0.925</gom:speed></extensions></trkpt>
   <trkpt lat="59.0591562001" lon="29.9638417479"><ele>101.028</ele><time>2026-04-25T12:37:17.000Z</time><hdop>3.0</hdop><vdop>3.0</vdop><extensions><gom:speed>0.834</gom:speed></extensions></trkpt>
   <trkpt lat="59.0591481954" lon="29.9638373055"><ele>101.03</ele><time>2026-04-25T12:37:18.000Z</time><hdop>3.0</hdop><vdop>3.0</vdop><extensions><gom:speed>0.738</gom:speed></extensions></trkpt>
   <trkpt lat="59.0591421604" lon="29.9638285045"><ele>101.014</ele><time>2026-04-25T12:37:19.000Z</time><hdop>3.0</hdop><vdop>3.0</vdop><extensions><gom:speed>0.797</gom:speed></extensions></trkpt>
   <trkpt lat="59.0591327727" lon="29.9638164346"><ele>100.996</ele><time>2026-04-25T12:37:20.000Z</time><hdop>3.0</hdop><vdop>3.0</vdop><extensions><gom:speed>0.738</gom:speed></extensions></trkpt>
   <trkpt lat="59.0591266958" lon="29.9638052028"><ele>100.975</ele><time>2026-04-25T12:37:21.000Z</time><hdop>3.0</hdop><vdop>3.0</vdop><extensions><gom:speed>0.701</gom:speed></extensions></trkpt>
   <trkpt lat="59.059122463" lon="29.9637931329"><ele>100.934</ele><time>2026-04-25T12:37:22.000Z</time><hdop>3.0</hdop><vdop>3.0</vdop><extensions><gom:speed>0.604</gom:speed></extensions></trkpt>
   <trkpt lat="59.0591154222" lon="29.9637808953"><ele>100.851</ele><time>2026-04-25T12:37:23.000Z</time><hdop>3.0</hdop><vdop>3.0</vdop><extensions><gom:speed>0.635</gom:speed></extensions></trkpt>
   <trkpt lat="59.0591113988" lon="29.9637710885"><ele>100.796</ele><time>2026-04-25T12:37:24.000Z</time><hdop>3.0</hdop><vdop>3.0</vdop><extensions><gom:speed>0.497</gom:speed></extensions></trkpt>
   <trkpt lat="59.0591052801" lon="29.9637643829"><ele>100.756</ele><time>2026-04-25T12:37:25.000Z</time><hdop>3.0</hdop><vdop>3.0</vdop><extensions><gom:speed>0.45</gom:speed></extensions></trkpt>
   <trkpt lat="59.059099287" lon="29.9637590185"><ele>100.726</ele><time>2026-04-25T12:37:26.000Z</time><hdop>3.0</hdop><vdop>3.0</vdop><extensions><gom:speed>0.562</gom:speed></extensions></trkpt>
   <trkpt lat="59.0590911565" lon="29.9637528997"><ele>100.674</ele><time>2026-04-25T12:37:27.000Z</time><hdop>3.0</hdop><vdop>3.0</vdop><extensions><gom:speed>0.654</gom:speed></extensions></trkpt>
   <trkpt lat="59.0590829423" lon="29.9637484573"><ele>100.669</ele><time>2026-04-25T12:37:28.000Z</time><hdop>3.0</hdop><vdop>3.0</vdop><extensions><gom:speed>0.542</gom:speed></extensions></trkpt>
   <trkpt lat="59.0590740575" lon="29.9637451884"><ele>100.694</ele><time>2026-04-25T12:37:29.000Z</time><hdop>3.0</hdop><vdop>3.0</vdop><extensions><gom:speed>0.547</gom:speed></extensions></trkpt>
   <trkpt lat="59.0590650469" lon="29.9637353815"><ele>100.661</ele><time>2026-04-25T12:37:30.000Z</time><hdop>3.0</hdop><vdop>3.0</vdop><extensions><gom:speed>0.556</gom:speed></extensions></trkpt>
   <trkpt lat="59.0590544019" lon="29.9637318611"><ele>100.681</ele><time>2026-04-25T12:37:31.000Z</time><hdop>3.0</hdop><vdop>3.0</vdop><extensions><gom:speed>0.688</gom:speed></extensions></trkpt>
   <trkpt lat="59.0590463972" lon="29.9637297657"><ele>100.664</ele><time>2026-04-25T12:37:32.000Z</time><hdop>3.0</hdop><vdop>3.0</vdop><extensions><gom:speed>0.508</gom:speed></extensions></trkpt>
   <trkpt lat="59.0590388116" lon="29.9637233954"><ele>100.565</ele><time>2026-04-25T12:37:33.000Z</time><hdop>3.0</hdop><vdop>3.0</vdop><extensions><gom:speed>0.526</gom:speed></extensions></trkpt>
   <trkpt lat="59.0590388116" lon="29.9637233954"><ele>100.505</ele><time>2026-04-25T12:37:33.000Z</time><hdop>3.0</hdop><vdop>3.0</vdop><extensions><gom:speed>0.526</gom:speed></extensions></trkpt>
   <trkpt lat="59.0590268673" lon="29.9637166061"><ele>100.422</ele><time>2026-04-25T12:37:34.000Z</time><hdop>3.0</hdop><vdop>3.0</vdop><extensions><gom:speed>0.713</gom:speed></extensions></trkpt>
   <trkpt lat="59.0590173539" lon="29.9637130857"><ele>100.308</ele><time>2026-04-25T12:37:35.000Z</time><hdop>3.0</hdop><vdop>3.0</vdop><extensions><gom:speed>0.533</gom:speed></extensions></trkpt>
   <trkpt lat="59.0590091815" lon="29.9637068831"><ele>100.204</ele><time>2026-04-25T12:37:36.000Z</time><hdop>3.0</hdop><vdop>3.0</vdop><extensions><gom:speed>0.462</gom:speed></extensions></trkpt>
   <trkpt lat="59.0589992909" lon="29.9637006805"><ele>100.117</ele><time>2026-04-25T12:37:37.000Z</time><hdop>3.0</hdop><vdop>3.0</vdop><extensions><gom:speed>0.511</gom:speed></extensions></trkpt>
   <trkpt lat="59.0589908252" lon="29.9636996746"><ele>99.997</ele><time>2026-04-25T12:37:38.000Z</time><hdop>3.0</hdop><vdop>3.0</vdop><extensions><gom:speed>0.335</gom:speed></extensions></trkpt>
   <trkpt lat="59.0589829043" lon="29.9636998423"><ele>99.819</ele><time>2026-04-25T12:37:39.000Z</time><hdop>3.0</hdop><vdop>3.0</vdop><extensions><gom:speed>0.334</gom:speed></extensions></trkpt>
   <trkpt lat="59.0589799287" lon="29.9636943102"><ele>99.691</ele><time>2026-04-25T12:37:40.000Z</time><hdop>3.0</hdop><vdop>3.0</vdop><extensions><gom:speed>0.249</gom:speed></extensions></trkpt>
   <trkpt lat="59.0589746481" lon="29.9636883591"><ele>99.569</ele><time>2026-04-25T12:37:41.000Z</time><hdop>3.0</hdop><vdop>3.0</vdop><extensions><gom:speed>0.431</gom:speed></extensions></trkpt>
   <trkpt lat="59.0589689484" lon="29.9636839167"><ele>99.447</ele><time>2026-04-25T12:37:42.000Z</time><hdop>3.0</hdop><vdop>3.0</vdop><extensions><gom:speed>0.347</gom:speed></extensions></trkpt>
   <trkpt lat="59.0589632487" lon="29.9636813183"><ele>99.336</ele><time>2026-04-25T12:37:43.000Z</time><hdop>3.0</hdop><vdop>3.0</vdop><extensions><gom:speed>0.31</gom:speed></extensions></trkpt>
   <trkpt lat="59.0589578843" lon="29.9636829108"><ele>99.25</ele><time>2026-04-25T12:37:44.000Z</time><hdop>3.0</hdop><vdop>3.0</vdop><extensions><gom:speed>0.311</gom:speed></extensions></trkpt>
   <trkpt lat="59.0589502987" lon="29.9636856769"><ele>99.191</ele><time>2026-04-25T12:37:45.000Z</time><hdop>3.0</hdop><vdop>3.0</vdop><extensions><gom:speed>0.371</gom:speed></extensions></trkpt>
   <trkpt lat="59.0589437608" lon="29.9636860121"><ele>99.139</ele><time>2026-04-25T12:37:46.000Z</time><hdop>3.0</hdop><vdop>3.0</vdop><extensions><gom:speed>0.437</gom:speed></extensions></trkpt>
   <trkpt lat="59.0589369295" lon="29.9636848387"><ele>99.091</ele><time>2026-04-25T12:37:47.000Z</time><hdop>3.0</hdop><vdop>3.0</vdop><extensions><gom:speed>0.497</gom:speed></extensions></trkpt>
   <trkpt lat="59.0589286734" lon="29.9636881914"><ele>98.933</ele><time>2026-04-25T12:37:48.000Z</time><hdop>3.0</hdop><vdop>3.0</vdop><extensions><gom:speed>0.571</gom:speed></extensions></trkpt>
   <trkpt lat="59.0589209201" lon="29.963694394"><ele>98.795</ele><time>2026-04-25T12:37:49.000Z</time><hdop>3.0</hdop><vdop>3.0</vdop><extensions><gom:speed>0.649</gom:speed></extensions></trkpt>
   <trkpt lat="59.0589118676" lon="29.9636991717"><ele>98.688</ele><time>2026-04-25T12:37:50.000Z</time><hdop>3.0</hdop><vdop>3.0</vdop><extensions><gom:speed>0.744</gom:speed></extensions></trkpt>
   <trkpt lat="59.0589036534" lon="29.9637021054"><ele>98.593</ele><time>2026-04-25T12:37:51.000Z</time><hdop>3.0</hdop><vdop>3.0</vdop><extensions><gom:speed>0.627</gom:speed></extensions></trkpt>
   <trkpt lat="59.0588942237" lon="29.9637062125"><ele>98.46</ele><time>2026-04-25T12:37:52.000Z</time><hdop>3.0</hdop><vdop>3.0</vdop><extensions><gom:speed>0.619</gom:speed></extensions></trkpt>
   <trkpt lat="59.0588881049" lon="29.9637012672"><ele>98.329</ele><time>2026-04-25T12:37:53.000Z</time><hdop>3.0</hdop><vdop>3.0</vdop><extensions><gom:speed>0.59</gom:speed></extensions></trkpt>
   <trkpt lat="59.0588881049" lon="29.9637012672"><ele>98.25</ele><time>2026-04-25T12:37:53.000Z</time><hdop>3.0</hdop><vdop>3.0</vdop><extensions><gom:speed>0.59</gom:speed></extensions></trkpt>
   <trkpt lat="59.058882531" lon="29.9636942264"><ele>98.147</ele><time>2026-04-25T12:37:54.000Z</time><hdop>3.0</hdop><vdop>3.0</vdop><extensions><gom:speed>0.421</gom:speed></extensions></trkpt>
   <trkpt lat="59.0588749034" lon="29.9636874371"><ele>98.065</ele><time>2026-04-25T12:37:55.000Z</time><hdop>3.0</hdop><vdop>3.0</vdop><extensions><gom:speed>0.405</gom:speed></extensions></trkpt>
   <trkpt lat="59.0588675274" lon="29.9636831623"><ele>98.043</ele><time>2026-04-25T12:37:56.000Z</time><hdop>3.0</hdop><vdop>3.0</vdop><extensions><gom:speed>0.384</gom:speed></extensions></trkpt>
   <trkpt lat="59.0588613667" lon="29.9636807315"><ele>97.998</ele><time>2026-04-25T12:37:57.000Z</time><hdop>3.0</hdop><vdop>3.0</vdop><extensions><gom:speed>0.363</gom:speed></extensions></trkpt>
   <trkpt lat="59.058854284" lon="29.9636776302"><ele>97.992</ele><time>2026-04-25T12:37:58.000Z</time><hdop>3.0</hdop><vdop>3.0</vdop><extensions><gom:speed>0.471</gom:speed></extensions></trkpt>
   <trkpt lat="59.0588461535" lon="29.9636783846"><ele>98.013</ele><time>2026-04-25T12:37:59.000Z</time><hdop>3.0</hdop><vdop>3.0</vdop><extensions><gom:speed>0.625</gom:speed></extensions></trkpt>
   <trkpt lat="59.0588393223" lon="29.9636755348"><ele>98.068</ele><time>2026-04-25T12:38:00.000Z</time><hdop>3.0</hdop><vdop>3.0</vdop><extensions><gom:speed>0.601</gom:speed></extensions></trkpt>
   <trkpt lat="59.0588285515" lon="29.9636744451"><ele>98.095</ele><time>2026-04-25T12:38:01.000Z</time><hdop>3.0</hdop><vdop>3.0</vdop><extensions><gom:speed>0.76</gom:speed></extensions></trkpt>
   <trkpt lat="59.0588170264" lon="29.9636696674"><ele>98.106</ele><time>2026-04-25T12:38:02.000Z</time><hdop>3.0</hdop><vdop>3.0</vdop><extensions><gom:speed>0.877</gom:speed></extensions></trkpt>
   <trkpt lat="59.0588068005" lon="29.9636643868"><ele>98.105</ele><time>2026-04-25T12:38:03.000Z</time><hdop>3.0</hdop><vdop>3.0</vdop><extensions><gom:speed>0.782</gom:speed></extensions></trkpt>
   <trkpt lat="59.0587974127" lon="29.9636611179"><ele>98.156</ele><time>2026-04-25T12:38:04.000Z</time><hdop>3.0</hdop><vdop>3.0</vdop><extensions><gom:speed>0.674</gom:speed></extensions></trkpt>
   <trkpt lat="59.058788025" lon="29.9636607826"><ele>98.155</ele><time>2026-04-25T12:38:05.000Z</time><hdop>3.0</hdop><vdop>3.0</vdop><extensions><gom:speed>0.68</gom:speed></extensions></trkpt>
   <trkpt lat="59.0587790983" lon="29.9636578489"><ele>98.149</ele><time>2026-04-25T12:38:06.000Z</time><hdop>3.0</hdop><vdop>3.0</vdop><extensions><gom:speed>0.611</gom:speed></extensions></trkpt>
   <trkpt lat="59.0587709259" lon="29.9636575975"><ele>98.125</ele><time>2026-04-25T12:38:07.000Z</time><hdop>3.0</hdop><vdop>3.0</vdop><extensions><gom:speed>0.552</gom:speed></extensions></trkpt>
   <trkpt lat="59.0587642204" lon="29.9636588548"><ele>98.109</ele><time>2026-04-25T12:38:08.000Z</time><hdop>3.0</hdop><vdop>3.0</vdop><extensions><gom:speed>0.492</gom:speed></extensions></trkpt>
   <trkpt lat="59.0587571377" lon="29.963667069"><ele>98.054</ele><time>2026-04-25T12:38:09.000Z</time><hdop>3.0</hdop><vdop>3.0</vdop><extensions><gom:speed>0.172</gom:speed></extensions></trkpt>
   <trkpt lat="59.0587553775" lon="29.9636700027"><ele>97.973</ele><time>2026-04-25T12:38:10.000Z</time><hdop>3.0</hdop><vdop>3.0</vdop><extensions><gom:speed>0.23</gom:speed></extensions></trkpt>
   <trkpt lat="59.0587511866" lon="29.9636813183"><ele>97.842</ele><time>2026-04-25T12:38:11.000Z</time><hdop>3.0</hdop><vdop>3.0</vdop><extensions><gom:speed>0.341</gom:speed></extensions></trkpt>
   <trkpt lat="59.0587461155" lon="29.9636871018"><ele>97.664</ele><time>2026-04-25T12:38:12.000Z</time><hdop>3.0</hdop><vdop>3.0</vdop><extensions><gom:speed>0.325</gom:speed></extensions></trkpt>
   <trkpt lat="59.058740332" lon="29.9636894487"><ele>97.484</ele><time>2026-04-25T12:38:13.000Z</time><hdop>3.0</hdop><vdop>3.0</vdop><extensions><gom:speed>0.361</gom:speed></extensions></trkpt>
   <trkpt lat="59.058740332" lon="29.9636894487"><ele>97.377</ele><time>2026-04-25T12:38:13.000Z</time><hdop>3.0</hdop><vdop>3.0</vdop><extensions><gom:speed>0.361</gom:speed></extensions></trkpt>
   <trkpt lat="59.0587331655" lon="29.9636865989"><ele>97.311</ele><time>2026-04-25T12:38:14.000Z</time><hdop>3.0</hdop><vdop>3.0</vdop><extensions><gom:speed>0.442</gom:speed></extensions></trkpt>
   <trkpt lat="59.0587252027" lon="29.9636827432"><ele>97.246</ele><time>2026-04-25T12:38:15.000Z</time><hdop>3.0</hdop><vdop>3.0</vdop><extensions><gom:speed>0.506</gom:speed></extensions></trkpt>
   <trkpt lat="59.058718539" lon="29.9636815697"><ele>97.197</ele><time>2026-04-25T12:38:16.000Z</time><hdop>3.0</hdop><vdop>3.0</vdop><extensions><gom:speed>0.346</gom:speed></extensions></trkpt>
   <trkpt lat="59.0587115402" lon="29.9636798095"><ele>97.178</ele><time>2026-04-25T12:38:17.000Z</time><hdop>3.0</hdop><vdop>3.0</vdop><extensions><gom:speed>0.502</gom:speed></extensions></trkpt>
   <trkpt lat="59.0587031163" lon="29.9636759539"><ele>97.132</ele><time>2026-04-25T12:38:18.000Z</time><hdop>3.0</hdop><vdop>3.0</vdop><extensions><gom:speed>0.675</gom:speed></extensions></trkpt>
   <trkpt lat="59.0586922199" lon="29.9636760377"><ele>97.15</ele><time>2026-04-25T12:38:19.000Z</time><hdop>3.0</hdop><vdop>3.0</vdop><extensions><gom:speed>0.559</gom:speed></extensions></trkpt>
   <trkpt lat="59.0586820359" lon="29.9636761215"><ele>97.174</ele><time>2026-04-25T12:38:20.000Z</time><hdop>3.0</hdop><vdop>3.0</vdop><extensions><gom:speed>0.529</gom:speed></extensions></trkpt>
   <trkpt lat="59.058676881" lon="29.9636724335"><ele>97.167</ele><time>2026-04-25T12:38:21.000Z</time><hdop>3.0</hdop><vdop>3.0</vdop><extensions><gom:speed>0.39</gom:speed></extensions></trkpt>
   <trkpt lat="59.0586687924" lon="29.963674026"><ele>97.152</ele><time>2026-04-25T12:38:22.000Z</time><hdop>3.0</hdop><vdop>3.0</vdop><extensions><gom:speed>0.344</gom:speed></extensions></trkpt>
   <trkpt lat="59.0586639309" lon="29.9636716791"><ele>97.13</ele><time>2026-04-25T12:38:23.000Z</time><hdop>3.0</hdop><vdop>3.0</vdop><extensions><gom:speed>0.306</gom:speed></extensions></trkpt>
   <trkpt lat="59.0586599914" lon="29.9636708409"><ele>97.084</ele><time>2026-04-25T12:38:24.000Z</time><hdop>3.0</hdop><vdop>3.0</vdop><extensions><gom:speed>0.238</gom:speed></extensions></trkpt>
   <trkpt lat="59.0586557167" lon="29.9636754509"><ele>97.006</ele><time>2026-04-25T12:38:25.000Z</time><hdop>3.0</hdop><vdop>3.0</vdop><extensions><gom:speed>0.161</gom:speed></extensions></trkpt>
   <trkpt lat="59.0586500589" lon="29.9636756186"><ele>96.92</ele><time>2026-04-25T12:38:26.000Z</time><hdop>3.0</hdop><vdop>3.0</vdop><extensions><gom:speed>0.243</gom:speed></extensions></trkpt>
   <trkpt lat="59.0586428924" lon="29.9636741937"><ele>96.86</ele><time>2026-04-25T12:38:27.000Z</time><hdop>3.0</hdop><vdop>3.0</vdop><extensions><gom:speed>0.31</gom:speed></extensions></trkpt>
   <trkpt lat="59.0586353906" lon="29.9636746966"><ele>96.801</ele><time>2026-04-25T12:38:28.000Z</time><hdop>3.0</hdop><vdop>3.0</vdop><extensions><gom:speed>0.373</gom:speed></extensions></trkpt>
   <trkpt lat="59.0586273858" lon="29.963676373"><ele>96.743</ele><time>2026-04-25T12:38:29.000Z</time><hdop>3.0</hdop><vdop>3.0</vdop><extensions><gom:speed>0.419</gom:speed></extensions></trkpt>
   <trkpt lat="59.0586195488" lon="29.9636820726"><ele>96.696</ele><time>2026-04-25T12:38:30.000Z</time><hdop>3.0</hdop><vdop>3.0</vdop><extensions><gom:speed>0.463</gom:speed></extensions></trkpt>
   <trkpt lat="59.0586138491" lon="29.9636880238"><ele>96.678</ele><time>2026-04-25T12:38:31.000Z</time><hdop>3.0</hdop><vdop>3.0</vdop><extensions><gom:speed>0.425</gom:speed></extensions></trkpt>
   <trkpt lat="59.0586077722" lon="29.9636979983"><ele>96.68</ele><time>2026-04-25T12:38:32.000Z</time><hdop>3.0</hdop><vdop>3.0</vdop><extensions><gom:speed>0.491</gom:speed></extensions></trkpt>
   <trkpt lat="59.058604168" lon="29.9637109902"><ele>96.703</ele><time>2026-04-25T12:38:33.000Z</time><hdop>3.0</hdop><vdop>3.0</vdop><extensions><gom:speed>0.608</gom:speed></extensions></trkpt>
   <trkpt lat="59.058604168" lon="29.9637109902"><ele>96.716</ele><time>2026-04-25T12:38:33.000Z</time><hdop>3.0</hdop><vdop>3.0</vdop><extensions><gom:speed>0.608</gom:speed></extensions></trkpt>
   <trkpt lat="59.058600899" lon="29.963720797"><ele>96.728</ele><time>2026-04-25T12:38:34.000Z</time><hdop>3.0</hdop><vdop>3.0</vdop><extensions><gom:speed>0.425</gom:speed></extensions></trkpt>
   <trkpt lat="59.0585966243" lon="29.9637293466"><ele>96.738</ele><time>2026-04-25T12:38:35.000Z</time><hdop>3.0</hdop><vdop>3.0</vdop><extensions><gom:speed>0.487</gom:speed></extensions></trkpt>
   <trkpt lat="59.0585913437" lon="29.9637364712"><ele>96.771</ele><time>2026-04-25T12:38:36.000Z</time><hdop>3.0</hdop><vdop>3.0</vdop><extensions><gom:speed>0.524</gom:speed></extensions></trkpt>
   <trkpt lat="59.0585840933" lon="29.9637401592"><ele>96.789</ele><time>2026-04-25T12:38:37.000Z</time><hdop>3.0</hdop><vdop>3.0</vdop><extensions><gom:speed>0.572</gom:speed></extensions></trkpt>
   <trkpt lat="59.0585757114" lon="29.9637419194"><ele>96.786</ele><time>2026-04-25T12:38:38.000Z</time><hdop>3.0</hdop><vdop>3.0</vdop><extensions><gom:speed>0.624</gom:speed></extensions></trkpt>
   <trkpt lat="59.0585653178" lon="29.9637466133"><ele>96.745</ele><time>2026-04-25T12:38:39.000Z</time><hdop>3.0</hdop><vdop>3.0</vdop><extensions><gom:speed>0.611</gom:speed></extensions></trkpt>
   <trkpt lat="59.0585542118" lon="29.9637496308"><ele>96.695</ele><time>2026-04-25T12:38:40.000Z</time><hdop>3.0</hdop><vdop>3.0</vdop><extensions><gom:speed>0.771</gom:speed></extensions></trkpt>
   <trkpt lat="59.0585449917" lon="29.9637548276"><ele>96.616</ele><time>2026-04-25T12:38:41.000Z</time><hdop>3.0</hdop><vdop>3.0</vdop><extensions><gom:speed>0.722</gom:speed></extensions></trkpt>
   <trkpt lat="59.0585348496" lon="29.9637560848"><ele>96.543</ele><time>2026-04-25T12:38:42.000Z</time><hdop>3.0</hdop><vdop>3.0</vdop><extensions><gom:speed>0.628</gom:speed></extensions></trkpt>
   <trkpt lat="59.0585248333" lon="29.963758348"><ele>96.469</ele><time>2026-04-25T12:38:43.000Z</time><hdop>3.0</hdop><vdop>3.0</vdop><extensions><gom:speed>0.722</gom:speed></extensions></trkpt>
   <trkpt lat="59.0585138949" lon="29.9637598567"><ele>96.442</ele><time>2026-04-25T12:38:44.000Z</time><hdop>3.0</hdop><vdop>3.0</vdop><extensions><gom:speed>0.872</gom:speed></extensions></trkpt>
   <trkpt lat="59.0585020764" lon="29.9637633771"><ele>96.035</ele><time>2026-04-25T12:38:45.000Z</time><hdop>4.687</hdop><vdop>4.687</vdop><extensions><gom:speed>0.902</gom:speed></extensions></trkpt>
   <trkpt lat="59.0584891683" lon="29.9637728487"><ele>96.02</ele><time>2026-04-25T12:38:46.000Z</time><hdop>4.687</hdop><vdop>4.687</vdop><extensions><gom:speed>0.89</gom:speed></extensions></trkpt>
   <trkpt lat="59.0584760087" lon="29.9637719266"><ele>96.005</ele><time>2026-04-25T12:38:47.000Z</time><hdop>4.687</hdop><vdop>4.687</vdop><extensions><gom:speed>0.731</gom:speed></extensions></trkpt>
   <trkpt lat="59.0584641483" lon="29.9637803085"><ele>96.002</ele><time>2026-04-25T12:38:48.000Z</time><hdop>4.687</hdop><vdop>4.687</vdop><extensions><gom:speed>0.692</gom:speed></extensions></trkpt>
   <trkpt lat="59.0584493961" lon="29.9637876846"><ele>96.074</ele><time>2026-04-25T12:38:49.000Z</time><hdop>4.187</hdop><vdop>4.187</vdop><extensions><gom:speed>0.735</gom:speed></extensions></trkpt>
   <trkpt lat="59.0584408047" lon="29.9637917918"><ele>96.074</ele><time>2026-04-25T12:38:50.000Z</time><hdop>3.562</hdop><vdop>3.562</vdop><extensions><gom:speed>0.56</gom:speed></extensions></trkpt>
   <trkpt lat="59.0584302016" lon="29.963794474"><ele>95.935</ele><time>2026-04-25T12:38:51.000Z</time><hdop>2.687</hdop><vdop>2.687</vdop><extensions><gom:speed>0.548</gom:speed></extensions></trkpt>
   <trkpt lat="59.0584197661" lon="29.9638001737"><ele>95.6</ele><time>2026-04-25T12:38:52.000Z</time><hdop>2.062</hdop><vdop>2.062</vdop><extensions><gom:speed>0.662</gom:speed></extensions></trkpt>
   <trkpt lat="59.0584117614" lon="29.9638072145"><ele>95.208</ele><time>2026-04-25T12:38:53.000Z</time><hdop>1.812</hdop><vdop>1.812</vdop><extensions><gom:speed>0.607</gom:speed></extensions></trkpt>
   <trkpt lat="59.0584117614" lon="29.9638072145"><ele>94.974</ele><time>2026-04-25T12:38:53.000Z</time><hdop>1.812</hdop><vdop>1.812</vdop><extensions><gom:speed>0.607</gom:speed></extensions></trkpt>
   <trkpt lat="59.0584063551" lon="29.9638128303"><ele>94.831</ele><time>2026-04-25T12:38:54.000Z</time><hdop>1.812</hdop><vdop>1.812</vdop><extensions><gom:speed>0.596</gom:speed></extensions></trkpt>
   <trkpt lat="59.0583999848" lon="29.9638124112"><ele>94.744</ele><time>2026-04-25T12:38:55.000Z</time><hdop>1.812</hdop><vdop>1.812</vdop><extensions><gom:speed>0.557</gom:speed></extensions></trkpt>
   <trkpt lat="59.0583913934" lon="29.9638092261"><ele>94.584</ele><time>2026-04-25T12:38:56.000Z</time><hdop>1.875</hdop><vdop>1.875</vdop><extensions><gom:speed>0.596</gom:speed></extensions></trkpt>
   <trkpt lat="59.058385526" lon="29.9638062924"><ele>94.489</ele><time>2026-04-25T12:38:57.000Z</time><hdop>2.0</hdop><vdop>2.0</vdop><extensions><gom:speed>0.69</gom:speed></extensions></trkpt>
   <trkpt lat="59.0583759287" lon="29.9638088908"><ele>94.214</ele><time>2026-04-25T12:38:58.000Z</time><hdop>1.5</hdop><vdop>1.5</vdop><extensions><gom:speed>0.733</gom:speed></extensions></trkpt>
   <trkpt lat="59.0583633559" lon="29.9638278339"><ele>93.816</ele><time>2026-04-25T12:38:59.000Z</time><hdop>1.5</hdop><vdop>1.5</vdop><extensions><gom:speed>0.727</gom:speed></extensions></trkpt>
   <trkpt lat="59.0583543034" lon="29.9638271634"><ele>93.526</ele><time>2026-04-25T12:39:00.000Z</time><hdop>1.625</hdop><vdop>1.625</vdop><extensions><gom:speed>0.706</gom:speed></extensions></trkpt>
   <trkpt lat="59.0583444128" lon="29.9638344556"><ele>93.197</ele><time>2026-04-25T12:39:01.000Z</time><hdop>1.562</hdop><vdop>1.562</vdop><extensions><gom:speed>0.666</gom:speed></extensions></trkpt>
   <trkpt lat="59.0583382521" lon="29.9638308514"><ele>92.904</ele><time>2026-04-25T12:39:02.000Z</time><hdop>1.687</hdop><vdop>1.687</vdop><extensions><gom:speed>0.515</gom:speed></extensions></trkpt>
   <trkpt lat="59.0583295349" lon="29.9638231401"><ele>92.73</ele><time>2026-04-25T12:39:03.000Z</time><hdop>2.062</hdop><vdop>2.062</vdop><extensions><gom:speed>0.724</gom:speed></extensions></trkpt>
   <trkpt lat="59.0583208177" lon="29.9638184462"><ele>92.599</ele><time>2026-04-25T12:39:04.000Z</time><hdop>2.0</hdop><vdop>2.0</vdop><extensions><gom:speed>0.583</gom:speed></extensions></trkpt>
   <trkpt lat="59.0583140703" lon="29.9638179433"><ele>92.566</ele><time>2026-04-25T12:39:05.000Z</time><hdop>2.437</hdop><vdop>2.437</vdop><extensions><gom:speed>0.585</gom:speed></extensions></trkpt>
   <trkpt lat="59.0583075324" lon="29.9638186977"><ele>92.545</ele><time>2026-04-25T12:39:06.000Z</time><hdop>2.812</hdop><vdop>2.812</vdop><extensions><gom:speed>0.607</gom:speed></extensions></trkpt>
   <trkpt lat="59.058297055" lon="29.9638318573"><ele>92.606</ele><time>2026-04-25T12:39:07.000Z</time><hdop>2.937</hdop><vdop>2.937</vdop><extensions><gom:speed>0.598</gom:speed></extensions></trkpt>
   <trkpt lat="59.0582929898" lon="29.9638277501"><ele>92.629</ele><time>2026-04-25T12:39:08.000Z</time><hdop>3.062</hdop><vdop>3.062</vdop><extensions><gom:speed>0.633</gom:speed></extensions></trkpt>
   <trkpt lat="59.0582884217" lon="29.9638189491"><ele>92.695</ele><time>2026-04-25T12:39:09.000Z</time><hdop>3.125</hdop><vdop>3.125</vdop><extensions><gom:speed>0.559</gom:speed></extensions></trkpt>
   <trkpt lat="59.0582839374" lon="29.9638102319"><ele>92.778</ele><time>2026-04-25T12:39:10.000Z</time><hdop>2.937</hdop><vdop>2.937</vdop><extensions><gom:speed>0.672</gom:speed></extensions></trkpt>
   <trkpt lat="59.0582753459" lon="29.9638145905"><ele>93.03</ele><time>2026-04-25T12:39:11.000Z</time><hdop>3.062</hdop><vdop>3.062</vdop><extensions><gom:speed>0.683</gom:speed></extensions></trkpt>
   <trkpt lat="59.0582687661" lon="29.9638043646"><ele>93.295</ele><time>2026-04-25T12:39:12.000Z</time><hdop>3.062</hdop><vdop>3.062</vdop><extensions><gom:speed>0.726</gom:speed></extensions></trkpt>
   <trkpt lat="59.0582671316" lon="29.9637911212"><ele>93.468</ele><time>2026-04-25T12:39:13.000Z</time><hdop>2.875</hdop><vdop>2.875</vdop><extensions><gom:speed>0.757</gom:speed></extensions></trkpt>
   <trkpt lat="59.0582671316" lon="29.9637911212"><ele>93.57</ele><time>2026-04-25T12:39:13.000Z</time><hdop>2.875</hdop><vdop>2.875</vdop><extensions><gom:speed>0.757</gom:speed></extensions></trkpt>
   <trkpt lat="59.0582483981" lon="29.9637932167"><ele>93.788</ele><time>2026-04-25T12:39:14.000Z</time><hdop>3.0</hdop><vdop>3.0</vdop><extensions><gom:speed>0.254</gom:speed></extensions></trkpt>
   <trkpt lat="59.058239178" lon="29.963796318"><ele>94.114</ele><time>2026-04-25T12:39:15.000Z</time><hdop>2.75</hdop><vdop>2.75</vdop><extensions><gom:speed>0.27</gom:speed></extensions></trkpt>
   <trkpt lat="59.0582325563" lon="29.9637925461"><ele>94.532</ele><time>2026-04-25T12:39:16.000Z</time><hdop>2.312</hdop><vdop>2.312</vdop><extensions><gom:speed>0.449</gom:speed></extensions></trkpt>
   <trkpt lat="59.0582176784" lon="29.963783326"><ele>94.863</ele><time>2026-04-25T12:39:17.000Z</time><hdop>2.187</hdop><vdop>2.187</vdop><extensions><gom:speed>0.489</gom:speed></extensions></trkpt>
   <trkpt lat="59.0581989868" lon="29.9637710046"><ele>95.057</ele><time>2026-04-25T12:39:18.000Z</time><hdop>2.062</hdop><vdop>2.062</vdop><extensions><gom:speed>0.552</gom:speed></extensions></trkpt>
   <trkpt lat="59.0581829354" lon="29.9637597729"><ele>95.063</ele><time>2026-04-25T12:39:19.000Z</time><hdop>1.687</hdop><vdop>1.687</vdop><extensions><gom:speed>0.598</gom:speed></extensions></trkpt>
   <trkpt lat="59.0581629027" lon="29.963746278"><ele>95.562</ele><time>2026-04-25T12:39:20.000Z</time><hdop>3.25</hdop><vdop>3.25</vdop><extensions><gom:speed>0.478</gom:speed></extensions></trkpt>
   <trkpt lat="59.0581611425" lon="29.9637439311"><ele>95.39</ele><time>2026-04-25T12:39:21.000Z</time><hdop>1.812</hdop><vdop>1.812</vdop><extensions><gom:speed>0.701</gom:speed></extensions></trkpt>
   <trkpt lat="59.0581515452" lon="29.9637366388"><ele>95.393</ele><time>2026-04-25T12:39:22.000Z</time><hdop>1.937</hdop><vdop>1.937</vdop><extensions><gom:speed>0.47</gom:speed></extensions></trkpt>
   <trkpt lat="59.0581421156" lon="29.963737477"><ele>95.519</ele><time>2026-04-25T12:39:23.000Z</time><hdop>2.187</hdop><vdop>2.187</vdop><extensions><gom:speed>0.446</gom:speed></extensions></trkpt>
   <trkpt lat="59.0581314705" lon="29.9637298495"><ele>95.656</ele><time>2026-04-25T12:39:24.000Z</time><hdop>2.625</hdop><vdop>2.625</vdop><extensions><gom:speed>0.542</gom:speed></extensions></trkpt>
   <trkpt lat="59.058127573" lon="29.9637295142"><ele>95.817</ele><time>2026-04-25T12:39:25.000Z</time><hdop>3.0</hdop><vdop>3.0</vdop><extensions><gom:speed>0.653</gom:speed></extensions></trkpt>
   <trkpt lat="59.0581202807" lon="29.9637285922"><ele>95.85</ele><time>2026-04-25T12:39:26.000Z</time><hdop>2.875</hdop><vdop>2.875</vdop><extensions><gom:speed>0.648</gom:speed></extensions></trkpt>
   <trkpt lat="59.0581108092" lon="29.9637262453"><ele>95.889</ele><time>2026-04-25T12:39:27.000Z</time><hdop>2.687</hdop><vdop>2.687</vdop><extensions><gom:speed>0.596</gom:speed></extensions></trkpt>
   <trkpt lat="59.0581017986" lon="29.9637228087"><ele>96.654</ele><time>2026-04-25T12:39:28.000Z</time><hdop>4.0</hdop><vdop>4.0</vdop><extensions><gom:speed>0.406</gom:speed></extensions></trkpt>
   <trkpt lat="59.0580961827" lon="29.9637195398"><ele>97.136</ele><time>2026-04-25T12:39:29.000Z</time><hdop>4.562</hdop><vdop>4.562</vdop><extensions><gom:speed>0.388</gom:speed></extensions></trkpt>
   <trkpt lat="59.0580878846" lon="29.963711996"><ele>97.462</ele><time>2026-04-25T12:39:30.000Z</time><hdop>4.25</hdop><vdop>4.25</vdop><extensions><gom:speed>0.481</gom:speed></extensions></trkpt>
   <trkpt lat="59.0580835261" lon="29.9637090624"><ele>97.636</ele><time>2026-04-25T12:39:31.000Z</time><hdop>4.562</hdop><vdop>4.562</vdop><extensions><gom:speed>0.416</gom:speed></extensions></trkpt>
   <trkpt lat="59.0580835261" lon="29.9637090624"><ele>97.74</ele><time>2026-04-25T12:39:32.000Z</time><hdop>4.562</hdop><vdop>4.562</vdop><extensions><gom:speed>0.0</gom:speed></extensions></trkpt>
   <trkpt lat="59.0580835261" lon="29.9637090624"><ele>97.802</ele><time>2026-04-25T12:39:32.000Z</time><hdop>4.562</hdop><vdop>4.562</vdop><extensions><gom:speed>0.0</gom:speed></extensions></trkpt>
   <trkpt lat="59.0580796704" lon="29.9637105711"><ele>97.925</ele><time>2026-04-25T12:39:33.000Z</time><hdop>4.375</hdop><vdop>4.375</vdop><extensions><gom:speed>0.474</gom:speed></extensions></trkpt>
   <trkpt lat="59.0580720009" lon="29.9637088109"><ele>98.083</ele><time>2026-04-25T12:39:34.000Z</time><hdop>4.0</hdop><vdop>4.0</vdop><extensions><gom:speed>0.55</gom:speed></extensions></trkpt>
   <trkpt lat="59.0580652535" lon="29.9637104873"><ele>98.286</ele><time>2026-04-25T12:39:35.000Z</time><hdop>3.75</hdop><vdop>3.75</vdop><extensions><gom:speed>0.489</gom:speed></extensions></trkpt>
   <trkpt lat="59.0580583803" lon="29.9637093138"><ele>98.531</ele><time>2026-04-25T12:39:36.000Z</time><hdop>3.562</hdop><vdop>3.562</vdop><extensions><gom:speed>0.566</gom:speed></extensions></trkpt>
   <trkpt lat="59.0580502918" lon="29.9637053743"><ele>98.795</ele><time>2026-04-25T12:39:37.000Z</time><hdop>3.562</hdop><vdop>3.562</vdop><extensions><gom:speed>0.714</gom:speed></extensions></trkpt>
   <trkpt lat="59.0580429157" lon="29.963703698"><ele>99.115</ele><time>2026-04-25T12:39:38.000Z</time><hdop>3.562</hdop><vdop>3.562</vdop><extensions><gom:speed>0.528</gom:speed></extensions></trkpt>
   <trkpt lat="59.0580341147" lon="29.9637050391"><ele>99.488</ele><time>2026-04-25T12:39:39.000Z</time><hdop>3.375</hdop><vdop>3.375</vdop><extensions><gom:speed>0.56</gom:speed></extensions></trkpt>
   <trkpt lat="59.0580274092" lon="29.9637096491"><ele>99.88</ele><time>2026-04-25T12:39:40.000Z</time><hdop>3.75</hdop><vdop>3.75</vdop><extensions><gom:speed>0.667</gom:speed></extensions></trkpt>
   <trkpt lat="59.0580195302" lon="29.9637120799"><ele>100.272</ele><time>2026-04-25T12:39:41.000Z</time><hdop>3.75</hdop><vdop>3.75</vdop><extensions><gom:speed>0.783</gom:speed></extensions></trkpt>
   <trkpt lat="59.0580113998" lon="29.9637135886"><ele>100.593</ele><time>2026-04-25T12:39:42.000Z</time><hdop>3.75</hdop><vdop>3.75</vdop><extensions><gom:speed>0.705</gom:speed></extensions></trkpt>
   <trkpt lat="59.0580036465" lon="29.9637161032"><ele>100.867</ele><time>2026-04-25T12:39:43.000Z</time><hdop>3.625</hdop><vdop>3.625</vdop><extensions><gom:speed>0.661</gom:speed></extensions></trkpt>
   <trkpt lat="59.0579962285" lon="29.9637187016"><ele>101.163</ele><time>2026-04-25T12:39:44.000Z</time><hdop>3.687</hdop><vdop>3.687</vdop><extensions><gom:speed>0.61</gom:speed></extensions></trkpt>
   <trkpt lat="59.0579897745" lon="29.9637202941"><ele>101.395</ele><time>2026-04-25T12:39:45.000Z</time><hdop>3.312</hdop><vdop>3.312</vdop><extensions><gom:speed>0.591</gom:speed></extensions></trkpt>
   <trkpt lat="59.0579818955" lon="29.9637213"><ele>101.628</ele><time>2026-04-25T12:39:46.000Z</time><hdop>3.0</hdop><vdop>3.0</vdop><extensions><gom:speed>0.618</gom:speed></extensions></trkpt>
   <trkpt lat="59.0579747709" lon="29.9637216352"><ele>101.838</ele><time>2026-04-25T12:39:47.000Z</time><hdop>3.0</hdop><vdop>3.0</vdop><extensions><gom:speed>0.555</gom:speed></extensions></trkpt>
   <trkpt lat="59.0579680653" lon="29.9637187016"><ele>102.061</ele><time>2026-04-25T12:39:48.000Z</time><hdop>3.0</hdop><vdop>3.0</vdop><extensions><gom:speed>0.64</gom:speed></extensions></trkpt>
   <trkpt lat="59.0579624076" lon="29.9637119122"><ele>102.169</ele><time>2026-04-25T12:39:49.000Z</time><hdop>3.0</hdop><vdop>3.0</vdop><extensions><gom:speed>0.629</gom:speed></extensions></trkpt>
   <trkpt lat="59.0579560373" lon="29.9637021054"><ele>102.267</ele><time>2026-04-25T12:39:50.000Z</time><hdop>3.0</hdop><vdop>3.0</vdop><extensions><gom:speed>0.519</gom:speed></extensions></trkpt>
   <trkpt lat="59.0579497928" lon="29.9636949808"><ele>102.392</ele><time>2026-04-25T12:39:51.000Z</time><hdop>3.0</hdop><vdop>3.0</vdop><extensions><gom:speed>0.3</gom:speed></extensions></trkpt>
   <trkpt lat="59.0579470687" lon="29.9636902031"><ele>102.474</ele><time>2026-04-25T12:39:52.000Z</time><hdop>3.0</hdop><vdop>3.0</vdop><extensions><gom:speed>0.218</gom:speed></extensions></trkpt>
   <trkpt lat="59.0579430873" lon="29.9636849225"><ele>102.549</ele><time>2026-04-25T12:39:53.000Z</time><hdop>3.0</hdop><vdop>3.0</vdop><extensions><gom:speed>0.396</gom:speed></extensions></trkpt>
   <trkpt lat="59.0579430873" lon="29.9636849225"><ele>102.594</ele><time>2026-04-25T12:39:53.000Z</time><hdop>3.0</hdop><vdop>3.0</vdop><extensions><gom:speed>0.396</gom:speed></extensions></trkpt>
   <trkpt lat="59.0579365494" lon="29.9636825756"><ele>102.657</ele><time>2026-04-25T12:39:54.000Z</time><hdop>3.0</hdop><vdop>3.0</vdop><extensions><gom:speed>0.67</gom:speed></extensions></trkpt>
   <trkpt lat="59.0579296343" lon="29.9636818212"><ele>102.737</ele><time>2026-04-25T12:39:55.000Z</time><hdop>3.0</hdop><vdop>3.0</vdop><extensions><gom:speed>0.664</gom:speed></extensions></trkpt>
   <trkpt lat="59.0579220487" lon="29.9636829947"><ele>102.786</ele><time>2026-04-25T12:39:56.000Z</time><hdop>3.0</hdop><vdop>3.0</vdop><extensions><gom:speed>0.798</gom:speed></extensions></trkpt>
   <trkpt lat="59.0579133315" lon="29.9636864312"><ele>102.78</ele><time>2026-04-25T12:39:57.000Z</time><hdop>3.0</hdop><vdop>3.0</vdop><extensions><gom:speed>0.625</gom:speed></extensions></trkpt>
   <trkpt lat="59.057906626" lon="29.9636871018"><ele>102.785</ele><time>2026-04-25T12:39:58.000Z</time><hdop>3.0</hdop><vdop>3.0</vdop><extensions><gom:speed>0.531</gom:speed></extensions></trkpt>
   <trkpt lat="59.0579003815" lon="29.963686096"><ele>102.731</ele><time>2026-04-25T12:39:59.000Z</time><hdop>3.0</hdop><vdop>3.0</vdop><extensions><gom:speed>0.639</gom:speed></extensions></trkpt>
   <trkpt lat="59.0578935083" lon="29.9636786361"><ele>102.681</ele><time>2026-04-25T12:40:00.000Z</time><hdop>3.0</hdop><vdop>3.0</vdop><extensions><gom:speed>0.728</gom:speed></extensions></trkpt>
   <trkpt lat="59.0578869704" lon="29.9636705894"><ele>102.702</ele><time>2026-04-25T12:40:01.000Z</time><hdop>3.0</hdop><vdop>3.0</vdop><extensions><gom:speed>0.671</gom:speed></extensions></trkpt>
   <trkpt lat="59.0578772474" lon="29.9636603635"><ele>102.743</ele><time>2026-04-25T12:40:02.000Z</time><hdop>3.0</hdop><vdop>3.0</vdop><extensions><gom:speed>0.763</gom:speed></extensions></trkpt>
   <trkpt lat="59.0578692008" lon="29.9636519816"><ele>102.795</ele><time>2026-04-25T12:40:03.000Z</time><hdop>3.0</hdop><vdop>3.0</vdop><extensions><gom:speed>0.866</gom:speed></extensions></trkpt>
   <trkpt lat="59.0578600645" lon="29.9636456114"><ele>102.825</ele><time>2026-04-25T12:40:04.000Z</time><hdop>3.0</hdop><vdop>3.0</vdop><extensions><gom:speed>0.74</gom:speed></extensions></trkpt>
   <trkpt lat="59.0578524789" lon="29.963642091"><ele>102.878</ele><time>2026-04-25T12:40:05.000Z</time><hdop>3.0</hdop><vdop>3.0</vdop><extensions><gom:speed>0.507</gom:speed></extensions></trkpt>
   <trkpt lat="59.0578444742" lon="29.9636392411"><ele>102.988</ele><time>2026-04-25T12:40:06.000Z</time><hdop>3.0</hdop><vdop>3.0</vdop><extensions><gom:speed>0.724</gom:speed></extensions></trkpt>
   <trkpt lat="59.0578345835" lon="29.9636332061"><ele>103.07</ele><time>2026-04-25T12:40:07.000Z</time><hdop>3.0</hdop><vdop>3.0</vdop><extensions><gom:speed>1.026</gom:speed></extensions></trkpt>
   <trkpt lat="59.0578235194" lon="29.9636246566"><ele>104.568</ele><time>2026-04-25T12:40:08.000Z</time><hdop>5.437</hdop><vdop>5.437</vdop><extensions><gom:speed>0.918</gom:speed></extensions></trkpt>
   <trkpt lat="59.0578120781" lon="29.963613844"><ele>105.696</ele><time>2026-04-25T12:40:09.000Z</time><hdop>5.062</hdop><vdop>5.062</vdop><extensions><gom:speed>0.931</gom:speed></extensions></trkpt>
   <trkpt lat="59.057799631" lon="29.9636118323"><ele>106.577</ele><time>2026-04-25T12:40:10.000Z</time><hdop>4.687</hdop><vdop>4.687</vdop><extensions><gom:speed>0.916</gom:speed></extensions></trkpt>
   <trkpt lat="59.0577861361" lon="29.9636191246"><ele>107.601</ele><time>2026-04-25T12:40:11.000Z</time><hdop>1.562</hdop><vdop>1.562</vdop><extensions><gom:speed>0.801</gom:speed></extensions></trkpt>
   <trkpt lat="59.057777377" lon="29.9636408337"><ele>108.265</ele><time>2026-04-25T12:40:12.000Z</time><hdop>1.937</hdop><vdop>1.937</vdop><extensions><gom:speed>0.756</gom:speed></extensions></trkpt>
   <trkpt lat="59.0577793049" lon="29.9636394088"><ele>108.351</ele><time>2026-04-25T12:40:13.000Z</time><hdop>2.312</hdop><vdop>2.312</vdop><extensions><gom:speed>0.802</gom:speed></extensions></trkpt>
   <trkpt lat="59.0577793049" lon="29.9636394088"><ele>108.402</ele><time>2026-04-25T12:40:13.000Z</time><hdop>2.312</hdop><vdop>2.312</vdop><extensions><gom:speed>0.802</gom:speed></extensions></trkpt>
   <trkpt lat="59.0577790534" lon="29.9636394088"><ele>108.366</ele><time>2026-04-25T12:40:14.000Z</time><hdop>2.875</hdop><vdop>2.875</vdop><extensions><gom:speed>0.823</gom:speed></extensions></trkpt>
   <trkpt lat="59.0577744015" lon="29.9636392411"><ele>108.209</ele><time>2026-04-25T12:40:15.000Z</time><hdop>2.812</hdop><vdop>2.812</vdop><extensions><gom:speed>0.767</gom:speed></extensions></trkpt>
   <trkpt lat="59.0577579729" lon="29.9636346311"><ele>107.93</ele><time>2026-04-25T12:40:16.000Z</time><hdop>2.687</hdop><vdop>2.687</vdop><extensions><gom:speed>0.763</gom:speed></extensions></trkpt>
   <trkpt lat="59.0577409158" lon="29.9636183702"><ele>107.581</ele><time>2026-04-25T12:40:17.000Z</time><hdop>2.25</hdop><vdop>2.25</vdop><extensions><gom:speed>0.193</gom:speed></extensions></trkpt>
   <trkpt lat="59.0577332044" lon="29.9636052106"><ele>107.271</ele><time>2026-04-25T12:40:18.000Z</time><hdop>1.937</hdop><vdop>1.937</vdop><extensions><gom:speed>0.282</gom:speed></extensions></trkpt>
   <trkpt lat="59.0577233138" lon="29.9636011873"><ele>106.812</ele><time>2026-04-25T12:40:19.000Z</time><hdop>1.312</hdop><vdop>1.312</vdop><extensions><gom:speed>0.405</gom:speed></extensions></trkpt>
   <trkpt lat="59.0577245291" lon="29.9636057135"><ele>106.099</ele><time>2026-04-25T12:40:20.000Z</time><hdop>1.437</hdop><vdop>1.437</vdop><extensions><gom:speed>0.57</gom:speed></extensions></trkpt>
   <trkpt lat="59.0577198353" lon="29.963612419"><ele>105.639</ele><time>2026-04-25T12:40:21.000Z</time><hdop>1.5</hdop><vdop>1.5</vdop><extensions><gom:speed>0.683</gom:speed></extensions></trkpt>
   <trkpt lat="59.0577098608" lon="29.9636192922"><ele>105.218</ele><time>2026-04-25T12:40:22.000Z</time><hdop>1.687</hdop><vdop>1.687</vdop><extensions><gom:speed>0.756</gom:speed></extensions></trkpt>
   <trkpt lat="59.0576969527" lon="29.963625411"><ele>104.849</ele><time>2026-04-25T12:40:23.000Z</time><hdop>3.062</hdop><vdop>3.062</vdop><extensions><gom:speed>0.751</gom:speed></extensions></trkpt>
   <trkpt lat="59.0576850085" lon="29.9636262492"><ele>104.639</ele><time>2026-04-25T12:40:24.000Z</time><hdop>3.125</hdop><vdop>3.125</vdop><extensions><gom:speed>0.629</gom:speed></extensions></trkpt>
   <trkpt lat="59.0576781772" lon="29.9636260815"><ele>104.521</ele><time>2026-04-25T12:40:25.000Z</time><hdop>3.0</hdop><vdop>3.0</vdop><extensions><gom:speed>0.632</gom:speed></extensions></trkpt>
   <trkpt lat="59.057671346" lon="29.9636265006"><ele>104.45</ele><time>2026-04-25T12:40:26.000Z</time><hdop>3.0</hdop><vdop>3.0</vdop><extensions><gom:speed>0.446</gom:speed></extensions></trkpt>
   <trkpt lat="59.0576620001" lon="29.9636219744"><ele>104.403</ele><time>2026-04-25T12:40:27.000Z</time><hdop>3.0</hdop><vdop>3.0</vdop><extensions><gom:speed>0.774</gom:speed></extensions></trkpt>
   <trkpt lat="59.0576531572" lon="29.9636194598"><ele>104.407</ele><time>2026-04-25T12:40:28.000Z</time><hdop>3.0</hdop><vdop>3.0</vdop><extensions><gom:speed>0.763</gom:speed></extensions></trkpt>
   <trkpt lat="59.0576446915" lon="29.9636225611"><ele>104.363</ele><time>2026-04-25T12:40:29.000Z</time><hdop>3.0</hdop><vdop>3.0</vdop><extensions><gom:speed>0.627</gom:speed></extensions></trkpt>
   <trkpt lat="59.0576377345" lon="29.9636292667"><ele>104.326</ele><time>2026-04-25T12:40:30.000Z</time><hdop>3.0</hdop><vdop>3.0</vdop><extensions><gom:speed>0.592</gom:speed></extensions></trkpt>
   <trkpt lat="59.0576298975" lon="29.9636354693"><ele>104.324</ele><time>2026-04-25T12:40:31.000Z</time><hdop>3.0</hdop><vdop>3.0</vdop><extensions><gom:speed>0.771</gom:speed></extensions></trkpt>
   <trkpt lat="59.0576210126" lon="29.9636367265"><ele>104.318</ele><time>2026-04-25T12:40:32.000Z</time><hdop>3.0</hdop><vdop>3.0</vdop><extensions><gom:speed>0.733</gom:speed></extensions></trkpt>
   <trkpt lat="59.0576131756" lon="29.9636319489"><ele>104.298</ele><time>2026-04-25T12:40:33.000Z</time><hdop>3.0</hdop><vdop>3.0</vdop><extensions><gom:speed>0.745</gom:speed></extensions></trkpt>
   <trkpt lat="59.0576052128" lon="29.9636233155"><ele>104.297</ele><time>2026-04-25T12:40:34.000Z</time><hdop>3.125</hdop><vdop>3.125</vdop><extensions><gom:speed>0.944</gom:speed></extensions></trkpt>
   <trkpt lat="59.0576052128" lon="29.9636233155"><ele>104.297</ele><time>2026-04-25T12:40:34.000Z</time><hdop>3.125</hdop><vdop>3.125</vdop><extensions><gom:speed>0.944</gom:speed></extensions></trkpt>
   <trkpt lat="59.057596747" lon="29.9636186216"><ele>104.281</ele><time>2026-04-25T12:40:35.000Z</time><hdop>3.375</hdop><vdop>3.375</vdop><extensions><gom:speed>0.815</gom:speed></extensions></trkpt>
   <trkpt lat="59.0575880718" lon="29.9636129219"><ele>104.318</ele><time>2026-04-25T12:40:36.000Z</time><hdop>3.312</hdop><vdop>3.312</vdop><extensions><gom:speed>0.884</gom:speed></extensions></trkpt>
   <trkpt lat="59.057579606" lon="29.9636066355"><ele>104.361</ele><time>2026-04-25T12:40:37.000Z</time><hdop>3.562</hdop><vdop>3.562</vdop><extensions><gom:speed>0.786</gom:speed></extensions></trkpt>
   <trkpt lat="59.0575718947" lon="29.9635998462"><ele>104.354</ele><time>2026-04-25T12:40:38.000Z</time><hdop>3.812</hdop><vdop>3.812</vdop><extensions><gom:speed>0.8</gom:speed></extensions></trkpt>
   <trkpt lat="59.0575649796" lon="29.9635918834"><ele>104.29</ele><time>2026-04-25T12:40:39.000Z</time><hdop>3.687</hdop><vdop>3.687</vdop><extensions><gom:speed>0.732</gom:speed></extensions></trkpt>
   <trkpt lat="59.0575589027" lon="29.9635835015"><ele>104.282</ele><time>2026-04-25T12:40:40.000Z</time><hdop>3.312</hdop><vdop>3.312</vdop><extensions><gom:speed>0.706</gom:speed></extensions></trkpt>
   <trkpt lat="59.0575543765" lon="29.9635733594"><ele>104.339</ele><time>2026-04-25T12:40:41.000Z</time><hdop>3.25</hdop><vdop>3.25</vdop><extensions><gom:speed>0.608</gom:speed></extensions></trkpt>
   <trkpt lat="59.0575500179" lon="29.9635625467"><ele>104.858</ele><time>2026-04-25T12:40:42.000Z</time><hdop>4.687</hdop><vdop>4.687</vdop><extensions><gom:speed>0.709</gom:speed></extensions></trkpt>
   <trkpt lat="59.0575428933" lon="29.9635494709"><ele>104.469</ele><time>2026-04-25T12:40:43.000Z</time><hdop>4.812</hdop><vdop>4.812</vdop><extensions><gom:speed>0.723</gom:speed></extensions></trkpt>
   <trkpt lat="59.0575329188" lon="29.9635353893"><ele>104.212</ele><time>2026-04-25T12:40:44.000Z</time><hdop>2.437</hdop><vdop>2.437</vdop><extensions><gom:speed>0.816</gom:speed></extensions></trkpt>
   <trkpt lat="59.0575277221" lon="29.9635186255"><ele>103.936</ele><time>2026-04-25T12:40:45.000Z</time><hdop>1.5</hdop><vdop>1.5</vdop><extensions><gom:speed>0.659</gom:speed></extensions></trkpt>
   <trkpt lat="59.0575281412" lon="29.9635167815"><ele>104.11</ele><time>2026-04-25T12:40:46.000Z</time><hdop>4.125</hdop><vdop>4.125</vdop><extensions><gom:speed>0.172</gom:speed></extensions></trkpt>
   <trkpt lat="59.0575281831" lon="29.9635150213"><ele>104.214</ele><time>2026-04-25T12:40:47.000Z</time><hdop>4.125</hdop><vdop>4.125</vdop><extensions><gom:speed>0.0</gom:speed></extensions></trkpt>
   <trkpt lat="59.0575279735" lon="29.9635139317"><ele>104.276</ele><time>2026-04-25T12:40:48.000Z</time><hdop>4.125</hdop><vdop>4.125</vdop><extensions><gom:speed>0.0</gom:speed></extensions></trkpt>
   <trkpt lat="59.0575270515" lon="29.9635132611"><ele>104.313</ele><time>2026-04-25T12:40:49.000Z</time><hdop>4.125</hdop><vdop>4.125</vdop><extensions><gom:speed>0.0</gom:speed></extensions></trkpt>
   <trkpt lat="59.0575270515" lon="29.9635132611"><ele>104.335</ele><time>2026-04-25T12:40:50.000Z</time><hdop>4.125</hdop><vdop>4.125</vdop><extensions><gom:speed>0.0</gom:speed></extensions></trkpt>
   <trkpt lat="59.0575270515" lon="29.9635132611"><ele>104.348</ele><time>2026-04-25T12:40:51.000Z</time><hdop>4.125</hdop><vdop>4.125</vdop><extensions><gom:speed>0.0</gom:speed></extensions></trkpt>
   <trkpt lat="59.0575203879" lon="29.9635085672"><ele>104.428</ele><time>2026-04-25T12:40:52.000Z</time><hdop>3.687</hdop><vdop>3.687</vdop><extensions><gom:speed>0.234</gom:speed></extensions></trkpt>
   <trkpt lat="59.0575172866" lon="29.9635054659"><ele>104.408</ele><time>2026-04-25T12:40:53.000Z</time><hdop>3.875</hdop><vdop>3.875</vdop><extensions><gom:speed>0.277</gom:speed></extensions></trkpt>
   <trkpt lat="59.0575146463" lon="29.9635000177"><ele>104.337</ele><time>2026-04-25T12:40:54.000Z</time><hdop>4.125</hdop><vdop>4.125</vdop><extensions><gom:speed>0.424</gom:speed></extensions></trkpt>
   <trkpt lat="59.0575146463" lon="29.9635000177"><ele>104.294</ele><time>2026-04-25T12:40:54.000Z</time><hdop>4.125</hdop><vdop>4.125</vdop><extensions><gom:speed>0.424</gom:speed></extensions></trkpt>
   <trkpt lat="59.0575077731" lon="29.9634916358"><ele>104.274</ele><time>2026-04-25T12:40:55.000Z</time><hdop>3.875</hdop><vdop>3.875</vdop><extensions><gom:speed>0.762</gom:speed></extensions></trkpt>
   <trkpt lat="59.057499978" lon="29.9634816613"><ele>104.262</ele><time>2026-04-25T12:40:56.000Z</time><hdop>4.25</hdop><vdop>4.25</vdop><extensions><gom:speed>0.764</gom:speed></extensions></trkpt>
   <trkpt lat="59.0574939011" lon="29.9634719383"><ele>104.244</ele><time>2026-04-25T12:40:57.000Z</time><hdop>4.5</hdop><vdop>4.5</vdop><extensions><gom:speed>0.652</gom:speed></extensions></trkpt>
   <trkpt lat="59.0574887462" lon="29.96346188"><ele>104.225</ele><time>2026-04-25T12:40:58.000Z</time><hdop>4.437</hdop><vdop>4.437</vdop><extensions><gom:speed>0.464</gom:speed></extensions></trkpt>
   <trkpt lat="59.0574857706" lon="29.9634524085"><ele>104.209</ele><time>2026-04-25T12:40:59.000Z</time><hdop>4.5</hdop><vdop>4.5</vdop><extensions><gom:speed>0.4</gom:speed></extensions></trkpt>
   <trkpt lat="59.0574835494" lon="29.9634431046"><ele>104.204</ele><time>2026-04-25T12:41:00.000Z</time><hdop>4.812</hdop><vdop>4.812</vdop><extensions><gom:speed>0.398</gom:speed></extensions></trkpt>
   <trkpt lat="59.0574806996" lon="29.9634329625"><ele>104.182</ele><time>2026-04-25T12:41:01.000Z</time><hdop>4.375</hdop><vdop>4.375</vdop><extensions><gom:speed>0.483</gom:speed></extensions></trkpt>
   <trkpt lat="59.0574790651" lon="29.9634227366"><ele>104.123</ele><time>2026-04-25T12:41:02.000Z</time><hdop>3.937</hdop><vdop>3.937</vdop><extensions><gom:speed>0.326</gom:speed></extensions></trkpt>
   <trkpt lat="59.0574755447" lon="29.9634120077"><ele>104.034</ele><time>2026-04-25T12:41:03.000Z</time><hdop>3.562</hdop><vdop>3.562</vdop><extensions><gom:speed>0.335</gom:speed></extensions></trkpt>
   <trkpt lat="59.0574674981" lon="29.9633995187"><ele>103.978</ele><time>2026-04-25T12:41:04.000Z</time><hdop>3.312</hdop><vdop>3.312</vdop><extensions><gom:speed>0.508</gom:speed></extensions></trkpt>
   <trkpt lat="59.0574603735" lon="29.9633951601"><ele>104.023</ele><time>2026-04-25T12:41:05.000Z</time><hdop>3.25</hdop><vdop>3.25</vdop><extensions><gom:speed>0.496</gom:speed></extensions></trkpt>
   <trkpt lat="59.0574535003" lon="29.9633953277"><ele>104.055</ele><time>2026-04-25T12:41:06.000Z</time><hdop>3.312</hdop><vdop>3.312</vdop><extensions><gom:speed>0.548</gom:speed></extensions></trkpt>
   <trkpt lat="59.0574464595" lon="29.9633857724"><ele>104.03</ele><time>2026-04-25T12:41:07.000Z</time><hdop>3.5</hdop><vdop>3.5</vdop><extensions><gom:speed>0.926</gom:speed></extensions></trkpt>
   <trkpt lat="59.0574382452" lon="29.9633702658"><ele>104.01</ele><time>2026-04-25T12:41:08.000Z</time><hdop>3.437</hdop><vdop>3.437</vdop><extensions><gom:speed>1.05</gom:speed></extensions></trkpt>
   <trkpt lat="59.0574295281" lon="29.9633552622"><ele>104.009</ele><time>2026-04-25T12:41:09.000Z</time><hdop>3.562</hdop><vdop>3.562</vdop><extensions><gom:speed>0.881</gom:speed></extensions></trkpt>
   <trkpt lat="59.0574215653" lon="29.9633415159"><ele>104.017</ele><time>2026-04-25T12:41:10.000Z</time><hdop>3.75</hdop><vdop>3.75</vdop><extensions><gom:speed>0.69</gom:speed></extensions></trkpt>
   <trkpt lat="59.0574149435" lon="29.9633287754"><ele>104.073</ele><time>2026-04-25T12:41:11.000Z</time><hdop>3.812</hdop><vdop>3.812</vdop><extensions><gom:speed>0.546</gom:speed></extensions></trkpt>
   <trkpt lat="59.0574092858" lon="29.9633160349"><ele>104.099</ele><time>2026-04-25T12:41:12.000Z</time><hdop>3.312</hdop><vdop>3.312</vdop><extensions><gom:speed>0.607</gom:speed></extensions></trkpt>
   <trkpt lat="59.0574021192" lon="29.9633074854"><ele>104.125</ele><time>2026-04-25T12:41:13.000Z</time><hdop>3.812</hdop><vdop>3.812</vdop><extensions><gom:speed>0.488</gom:speed></extensions></trkpt>
   <trkpt lat="59.0574021192" lon="29.9633074854"><ele>104.14</ele><time>2026-04-25T12:41:13.000Z</time><hdop>3.812</hdop><vdop>3.812</vdop><extensions><gom:speed>0.488</gom:speed></extensions></trkpt>
   <trkpt lat="59.0573952461" lon="29.9632959184"><ele>104.2</ele><time>2026-04-25T12:41:14.000Z</time><hdop>4.5</hdop><vdop>4.5</vdop><extensions><gom:speed>0.572</gom:speed></extensions></trkpt>
   <trkpt lat="59.0573914742" lon="29.9632800766"><ele>104.241</ele><time>2026-04-25T12:41:15.000Z</time><hdop>4.062</hdop><vdop>4.062</vdop><extensions><gom:speed>0.703</gom:speed></extensions></trkpt>
   <trkpt lat="59.0573894207" lon="29.963260882"><ele>104.266</ele><time>2026-04-25T12:41:16.000Z</time><hdop>3.75</hdop><vdop>3.75</vdop><extensions><gom:speed>0.724</gom:speed></extensions></trkpt>
   <trkpt lat="59.0573871156" lon="29.9632395082"><ele>104.3</ele><time>2026-04-25T12:41:17.000Z</time><hdop>4.062</hdop><vdop>4.062</vdop><extensions><gom:speed>0.668</gom:speed></extensions></trkpt>
   <trkpt lat="59.0573829247" lon="29.9632188887"><ele>104.298</ele><time>2026-04-25T12:41:18.000Z</time><hdop>3.75</hdop><vdop>3.75</vdop><extensions><gom:speed>0.675</gom:speed></extensions></trkpt>
   <trkpt lat="59.057378147" lon="29.9632036336"><ele>104.268</ele><time>2026-04-25T12:41:19.000Z</time><hdop>3.625</hdop><vdop>3.625</vdop><extensions><gom:speed>0.347</gom:speed></extensions></trkpt>
   <trkpt lat="59.0573737046" lon="29.9631931562"><ele>104.244</ele><time>2026-04-25T12:41:20.000Z</time><hdop>3.062</hdop><vdop>3.062</vdop><extensions><gom:speed>0.375</gom:speed></extensions></trkpt>
   <trkpt lat="59.0573694298" lon="29.9631854449"><ele>104.199</ele><time>2026-04-25T12:41:21.000Z</time><hdop>3.0</hdop><vdop>3.0</vdop><extensions><gom:speed>0.424</gom:speed></extensions></trkpt>
   <trkpt lat="59.0573627243" lon="29.9631778173"><ele>104.153</ele><time>2026-04-25T12:41:22.000Z</time><hdop>3.0</hdop><vdop>3.0</vdop><extensions><gom:speed>0.49</gom:speed></extensions></trkpt>
   <trkpt lat="59.0573561864" lon="29.9631691002"><ele>104.101</ele><time>2026-04-25T12:41:23.000Z</time><hdop>3.0</hdop><vdop>3.0</vdop><extensions><gom:speed>0.54</gom:speed></extensions></trkpt>
   <trkpt lat="59.0573499838" lon="29.963161305"><ele>104.027</ele><time>2026-04-25T12:41:24.000Z</time><hdop>3.0</hdop><vdop>3.0</vdop><extensions><gom:speed>0.565</gom:speed></extensions></trkpt>
   <trkpt lat="59.0573429849" lon="29.9631562759"><ele>103.914</ele><time>2026-04-25T12:41:25.000Z</time><hdop>3.187</hdop><vdop>3.187</vdop><extensions><gom:speed>0.602</gom:speed></extensions></trkpt>
   <trkpt lat="59.0573361956" lon="29.9631476425"><ele>103.837</ele><time>2026-04-25T12:41:26.000Z</time><hdop>3.0</hdop><vdop>3.0</vdop><extensions><gom:speed>0.657</gom:speed></extensions></trkpt>
   <trkpt lat="59.0573296996" lon="29.9631385062"><ele>103.745</ele><time>2026-04-25T12:41:27.000Z</time><hdop>3.0</hdop><vdop>3.0</vdop><extensions><gom:speed>0.742</gom:speed></extensions></trkpt>
   <trkpt lat="59.0573237065" lon="29.9631286994"><ele>103.673</ele><time>2026-04-25T12:41:28.000Z</time><hdop>3.0</hdop><vdop>3.0</vdop><extensions><gom:speed>0.927</gom:speed></extensions></trkpt>
   <trkpt lat="59.057315618" lon="29.9631130252"><ele>103.601</ele><time>2026-04-25T12:41:29.000Z</time><hdop>3.0</hdop><vdop>3.0</vdop><extensions><gom:speed>0.898</gom:speed></extensions></trkpt>
   <trkpt lat="59.0573073199" lon="29.9630982731"><ele>103.52</ele><time>2026-04-25T12:41:30.000Z</time><hdop>3.0</hdop><vdop>3.0</vdop><extensions><gom:speed>0.914</gom:speed></extensions></trkpt>
   <trkpt lat="59.0572982675" lon="29.9630884663"><ele>103.435</ele><time>2026-04-25T12:41:31.000Z</time><hdop>3.0</hdop><vdop>3.0</vdop><extensions><gom:speed>0.815</gom:speed></extensions></trkpt>
   <trkpt lat="59.05728691" lon="29.9630810902"><ele>103.429</ele><time>2026-04-25T12:41:32.000Z</time><hdop>3.0</hdop><vdop>3.0</vdop><extensions><gom:speed>0.936</gom:speed></extensions></trkpt>
   <trkpt lat="59.0572760554" lon="29.963073295"><ele>103.429</ele><time>2026-04-25T12:41:33.000Z</time><hdop>3.125</hdop><vdop>3.125</vdop><extensions><gom:speed>0.799</gom:speed></extensions></trkpt>
   <trkpt lat="59.0572760554" lon="29.963073295"><ele>103.429</ele><time>2026-04-25T12:41:33.000Z</time><hdop>3.125</hdop><vdop>3.125</vdop><extensions><gom:speed>0.799</gom:speed></extensions></trkpt>
   <trkpt lat="59.0572680507" lon="29.9630636558"><ele>103.446</ele><time>2026-04-25T12:41:34.000Z</time><hdop>3.875</hdop><vdop>3.875</vdop><extensions><gom:speed>0.734</gom:speed></extensions></trkpt>
   <trkpt lat="59.0572631054" lon="29.9630504962"><ele>103.378</ele><time>2026-04-25T12:41:35.000Z</time><hdop>3.562</hdop><vdop>3.562</vdop><extensions><gom:speed>0.726</gom:speed></extensions></trkpt>
   <trkpt lat="59.0572548492" lon="29.9630415276"><ele>103.293</ele><time>2026-04-25T12:41:36.000Z</time><hdop>3.375</hdop><vdop>3.375</vdop><extensions><gom:speed>0.69</gom:speed></extensions></trkpt>
   <trkpt lat="59.0572455872" lon="29.9630312179"><ele>103.183</ele><time>2026-04-25T12:41:37.000Z</time><hdop>3.062</hdop><vdop>3.062</vdop><extensions><gom:speed>0.757</gom:speed></extensions></trkpt>
   <trkpt lat="59.0572378339" lon="29.9630222492"><ele>103.081</ele><time>2026-04-25T12:41:38.000Z</time><hdop>3.062</hdop><vdop>3.062</vdop><extensions><gom:speed>0.603</gom:speed></extensions></trkpt>
   <trkpt lat="59.0572314637" lon="29.9630156275"><ele>102.987</ele><time>2026-04-25T12:41:39.000Z</time><hdop>3.0</hdop><vdop>3.0</vdop><extensions><gom:speed>0.412</gom:speed></extensions></trkpt>
   <trkpt lat="59.0572237523" lon="29.9630074133"><ele>102.905</ele><time>2026-04-25T12:41:40.000Z</time><hdop>3.0</hdop><vdop>3.0</vdop><extensions><gom:speed>0.395</gom:speed></extensions></trkpt>
   <trkpt lat="59.0572144903" lon="29.9629998695"><ele>102.834</ele><time>2026-04-25T12:41:41.000Z</time><hdop>3.0</hdop><vdop>3.0</vdop><extensions><gom:speed>0.558</gom:speed></extensions></trkpt>
   <trkpt lat="59.0572057312" lon="29.9629954271"><ele>102.762</ele><time>2026-04-25T12:41:42.000Z</time><hdop>3.0</hdop><vdop>3.0</vdop><extensions><gom:speed>0.565</gom:speed></extensions></trkpt>
   <trkpt lat="59.0571986066" lon="29.962996433"><ele>102.703</ele><time>2026-04-25T12:41:43.000Z</time><hdop>3.0</hdop><vdop>3.0</vdop><extensions><gom:speed>0.579</gom:speed></extensions></trkpt>
   <trkpt lat="59.0571921526" lon="29.9630058207"><ele>102.657</ele><time>2026-04-25T12:41:44.000Z</time><hdop>3.0</hdop><vdop>3.0</vdop><extensions><gom:speed>0.623</gom:speed></extensions></trkpt>
   <trkpt lat="59.0571867881" lon="29.9630164657"><ele>102.591</ele><time>2026-04-25T12:41:45.000Z</time><hdop>3.0</hdop><vdop>3.0</vdop><extensions><gom:speed>0.592</gom:speed></extensions></trkpt>
   <trkpt lat="59.0571822619" lon="29.9630272784"><ele>102.512</ele><time>2026-04-25T12:41:46.000Z</time><hdop>3.0</hdop><vdop>3.0</vdop><extensions><gom:speed>0.584</gom:speed></extensions></trkpt>
   <trkpt lat="59.0571805855" lon="29.9630431202"><ele>102.415</ele><time>2026-04-25T12:41:47.000Z</time><hdop>3.0</hdop><vdop>3.0</vdop><extensions><gom:speed>0.708</gom:speed></extensions></trkpt>
   <trkpt lat="59.0571803341" lon="29.9630622309"><ele>102.329</ele><time>2026-04-25T12:41:48.000Z</time><hdop>3.0</hdop><vdop>3.0</vdop><extensions><gom:speed>0.855</gom:speed></extensions></trkpt>
   <trkpt lat="59.0571774423" lon="29.9630817607"><ele>102.253</ele><time>2026-04-25T12:41:49.000Z</time><hdop>3.0</hdop><vdop>3.0</vdop><extensions><gom:speed>0.83</gom:speed></extensions></trkpt>
   <trkpt lat="59.0571751373" lon="29.963098776"><ele>102.184</ele><time>2026-04-25T12:41:50.000Z</time><hdop>3.0</hdop><vdop>3.0</vdop><extensions><gom:speed>0.774</gom:speed></extensions></trkpt>
   <trkpt lat="59.0571712397" lon="29.9631139472"><ele>102.104</ele><time>2026-04-25T12:41:51.000Z</time><hdop>3.0</hdop><vdop>3.0</vdop><extensions><gom:speed>0.675</gom:speed></extensions></trkpt>
   <trkpt lat="59.0571666297" lon="29.9631263525"><ele>102.029</ele><time>2026-04-25T12:41:52.000Z</time><hdop>3.0</hdop><vdop>3.0</vdop><extensions><gom:speed>0.663</gom:speed></extensions></trkpt>
   <trkpt lat="59.0571622292" lon="29.9631406855"><ele>101.872</ele><time>2026-04-25T12:41:53.000Z</time><hdop>3.0</hdop><vdop>3.0</vdop><extensions><gom:speed>0.504</gom:speed></extensions></trkpt>
   <trkpt lat="59.0571622292" lon="29.9631406855"><ele>101.778</ele><time>2026-04-25T12:41:53.000Z</time><hdop>3.0</hdop><vdop>3.0</vdop><extensions><gom:speed>0.504</gom:speed></extensions></trkpt>
   <trkpt lat="59.057160008" lon="29.9631571979"><ele>101.67</ele><time>2026-04-25T12:41:54.000Z</time><hdop>3.0</hdop><vdop>3.0</vdop><extensions><gom:speed>0.627</gom:speed></extensions></trkpt>
   <trkpt lat="59.0571569486" lon="29.9631681782"><ele>101.635</ele><time>2026-04-25T12:41:55.000Z</time><hdop>3.0</hdop><vdop>3.0</vdop><extensions><gom:speed>0.658</gom:speed></extensions></trkpt>
   <trkpt lat="59.0571494887" lon="29.9631799966"><ele>101.542</ele><time>2026-04-25T12:41:56.000Z</time><hdop>3.0</hdop><vdop>3.0</vdop><extensions><gom:speed>0.577</gom:speed></extensions></trkpt>
   <trkpt lat="59.0571446691" lon="29.963192318"><ele>101.465</ele><time>2026-04-25T12:41:57.000Z</time><hdop>3.0</hdop><vdop>3.0</vdop><extensions><gom:speed>0.576</gom:speed></extensions></trkpt>
   <trkpt lat="59.057140981" lon="29.963198353"><ele>101.415</ele><time>2026-04-25T12:41:58.000Z</time><hdop>3.0</hdop><vdop>3.0</vdop><extensions><gom:speed>0.513</gom:speed></extensions></trkpt>
   <trkpt lat="59.0571325572" lon="29.9632045556"><ele>101.342</ele><time>2026-04-25T12:41:59.000Z</time><hdop>3.0</hdop><vdop>3.0</vdop><extensions><gom:speed>0.476</gom:speed></extensions></trkpt>
   <trkpt lat="59.0571325572" lon="29.9632045556"><ele>101.298</ele><time>2026-04-25T12:42:00.000Z</time><hdop>3.0</hdop><vdop>3.0</vdop><extensions><gom:speed>0.0</gom:speed></extensions></trkpt>
   <trkpt lat="59.0571325572" lon="29.9632045556"><ele>101.272</ele><time>2026-04-25T12:42:01.000Z</time><hdop>3.0</hdop><vdop>3.0</vdop><extensions><gom:speed>0.0</gom:speed></extensions></trkpt>
   <trkpt lat="59.0571296236" lon="29.963210423"><ele>101.239</ele><time>2026-04-25T12:42:02.000Z</time><hdop>3.0</hdop><vdop>3.0</vdop><extensions><gom:speed>0.153</gom:speed></extensions></trkpt>
   <trkpt lat="59.0571268994" lon="29.9632161226"><ele>101.256</ele><time>2026-04-25T12:42:03.000Z</time><hdop>3.062</hdop><vdop>3.062</vdop><extensions><gom:speed>0.209</gom:speed></extensions></trkpt>
   <trkpt lat="59.0571235048" lon="29.9632177152"><ele>101.266</ele><time>2026-04-25T12:42:04.000Z</time><hdop>3.0</hdop><vdop>3.0</vdop><extensions><gom:speed>0.289</gom:speed></extensions></trkpt>
   <trkpt lat="59.0571175955" lon="29.9632194754"><ele>101.319</ele><time>2026-04-25T12:42:05.000Z</time><hdop>3.062</hdop><vdop>3.062</vdop><extensions><gom:speed>0.393</gom:speed></extensions></trkpt>
   <trkpt lat="59.0571128178" lon="29.9632179667"><ele>101.317</ele><time>2026-04-25T12:42:06.000Z</time><hdop>3.0</hdop><vdop>3.0</vdop><extensions><gom:speed>0.377</gom:speed></extensions></trkpt>
   <trkpt lat="59.0571092555" lon="29.9632211518"><ele>101.291</ele><time>2026-04-25T12:42:07.000Z</time><hdop>3.0</hdop><vdop>3.0</vdop><extensions><gom:speed>0.484</gom:speed></extensions></trkpt>
   <trkpt lat="59.057103011" lon="29.9632218223"><ele>101.246</ele><time>2026-04-25T12:42:08.000Z</time><hdop>3.0</hdop><vdop>3.0</vdop><extensions><gom:speed>0.59</gom:speed></extensions></trkpt>
   <trkpt lat="59.057095132" lon="29.9632274382"><ele>101.129</ele><time>2026-04-25T12:42:09.000Z</time><hdop>3.0</hdop><vdop>3.0</vdop><extensions><gom:speed>0.765</gom:speed></extensions></trkpt>
   <trkpt lat="59.0570857862" lon="29.9632322159"><ele>99.984</ele><time>2026-04-25T12:42:10.000Z</time><hdop>1.687</hdop><vdop>1.687</vdop><extensions><gom:speed>0.743</gom:speed></extensions></trkpt>
   <trkpt lat="59.0570737582" lon="29.9632311263"><ele>99.171</ele><time>2026-04-25T12:42:11.000Z</time><hdop>1.937</hdop><vdop>1.937</vdop><extensions><gom:speed>0.7</gom:speed></extensions></trkpt>
   <trkpt lat="59.0570630293" lon="29.9632394243"><ele>98.632</ele><time>2026-04-25T12:42:12.000Z</time><hdop>1.75</hdop><vdop>1.75</vdop><extensions><gom:speed>0.669</gom:speed></extensions></trkpt>
   <trkpt lat="59.0570556114" lon="29.9632442858"><ele>98.34</ele><time>2026-04-25T12:42:13.000Z</time><hdop>1.687</hdop><vdop>1.687</vdop><extensions><gom:speed>0.461</gom:speed></extensions></trkpt>
   <trkpt lat="59.0570556114" lon="29.9632442858"><ele>98.166</ele><time>2026-04-25T12:42:13.000Z</time><hdop>1.687</hdop><vdop>1.687</vdop><extensions><gom:speed>0.461</gom:speed></extensions></trkpt>
   <trkpt lat="59.057047439" lon="29.9632442858"><ele>98.062</ele><time>2026-04-25T12:42:14.000Z</time><hdop>1.375</hdop><vdop>1.375</vdop><extensions><gom:speed>0.534</gom:speed></extensions></trkpt>
   <trkpt lat="59.0570419908" lon="29.9632505723"><ele>98.046</ele><time>2026-04-25T12:42:15.000Z</time><hdop>1.25</hdop><vdop>1.25</vdop><extensions><gom:speed>0.615</gom:speed></extensions></trkpt>
   <trkpt lat="59.0570362492" lon="29.9632509914"><ele>98.036</ele><time>2026-04-25T12:42:16.000Z</time><hdop>1.0</hdop><vdop>1.0</vdop><extensions><gom:speed>0.647</gom:speed></extensions></trkpt>
   <trkpt lat="59.0570298789" lon="29.9632500694"><ele>98.125</ele><time>2026-04-25T12:42:17.000Z</time><hdop>1.062</hdop><vdop>1.062</vdop><extensions><gom:speed>0.644</gom:speed></extensions></trkpt>
   <trkpt lat="59.0570231315" lon="29.9632479739"><ele>98.177</ele><time>2026-04-25T12:42:18.000Z</time><hdop>1.25</hdop><vdop>1.25</vdop><extensions><gom:speed>0.802</gom:speed></extensions></trkpt>
   <trkpt lat="59.057013618" lon="29.9632491473"><ele>98.371</ele><time>2026-04-25T12:42:19.000Z</time><hdop>1.25</hdop><vdop>1.25</vdop><extensions><gom:speed>0.862</gom:speed></extensions></trkpt>
   <trkpt lat="59.0570054457" lon="29.9632526677"><ele>98.54</ele><time>2026-04-25T12:42:20.000Z</time><hdop>1.437</hdop><vdop>1.437</vdop><extensions><gom:speed>0.713</gom:speed></extensions></trkpt>
   <trkpt lat="59.057000207" lon="29.9632445373"><ele>98.679</ele><time>2026-04-25T12:42:21.000Z</time><hdop>1.812</hdop><vdop>1.812</vdop><extensions><gom:speed>0.592</gom:speed></extensions></trkpt>
   <trkpt lat="59.0569952197" lon="29.9632488959"><ele>98.794</ele><time>2026-04-25T12:42:22.000Z</time><hdop>2.062</hdop><vdop>2.062</vdop><extensions><gom:speed>0.595</gom:speed></extensions></trkpt>
   <trkpt lat="59.0569899391" lon="29.9632473871"><ele>98.862</ele><time>2026-04-25T12:42:23.000Z</time><hdop>2.125</hdop><vdop>2.125</vdop><extensions><gom:speed>0.605</gom:speed></extensions></trkpt>
   <trkpt lat="59.0569844909" lon="29.9632478901"><ele>98.9</ele><time>2026-04-25T12:42:24.000Z</time><hdop>2.375</hdop><vdop>2.375</vdop><extensions><gom:speed>0.64</gom:speed></extensions></trkpt>
   <trkpt lat="59.0569743488" lon="29.9632577807"><ele>98.843</ele><time>2026-04-25T12:42:25.000Z</time><hdop>2.312</hdop><vdop>2.312</vdop><extensions><gom:speed>0.711</gom:speed></extensions></trkpt>
   <trkpt lat="59.0569653383" lon="29.9632561881"><ele>98.795</ele><time>2026-04-25T12:42:26.000Z</time><hdop>2.375</hdop><vdop>2.375</vdop><extensions><gom:speed>0.779</gom:speed></extensions></trkpt>
   <trkpt lat="59.056952011" lon="29.9632828426"><ele>98.7</ele><time>2026-04-25T12:42:27.000Z</time><hdop>2.062</hdop><vdop>2.062</vdop><extensions><gom:speed>0.751</gom:speed></extensions></trkpt>
   <trkpt lat="59.0569449283" lon="29.9632753827"><ele>98.638</ele><time>2026-04-25T12:42:28.000Z</time><hdop>1.875</hdop><vdop>1.875</vdop><extensions><gom:speed>0.676</gom:speed></extensions></trkpt>
   <trkpt lat="59.0569364207" lon="29.9632734549"><ele>98.576</ele><time>2026-04-25T12:42:29.000Z</time><hdop>2.125</hdop><vdop>2.125</vdop><extensions><gom:speed>0.726</gom:speed></extensions></trkpt>
   <trkpt lat="59.0569283322" lon="29.9632756342"><ele>98.465</ele><time>2026-04-25T12:42:30.000Z</time><hdop>2.125</hdop><vdop>2.125</vdop><extensions><gom:speed>0.682</gom:speed></extensions></trkpt>
   <trkpt lat="59.0569196988" lon="29.9632727843"><ele>98.39</ele><time>2026-04-25T12:42:31.000Z</time><hdop>1.687</hdop><vdop>1.687</vdop><extensions><gom:speed>0.64</gom:speed></extensions></trkpt>
   <trkpt lat="59.056912197" lon="29.9632665817"><ele>98.263</ele><time>2026-04-25T12:42:32.000Z</time><hdop>1.687</hdop><vdop>1.687</vdop><extensions><gom:speed>0.595</gom:speed></extensions></trkpt>
   <trkpt lat="59.0569075869" lon="29.9632711918"><ele>98.12</ele><time>2026-04-25T12:42:33.000Z</time><hdop>1.625</hdop><vdop>1.625</vdop><extensions><gom:speed>0.549</gom:speed></extensions></trkpt>
   <trkpt lat="59.0569075869" lon="29.9632711918"><ele>98.034</ele><time>2026-04-25T12:42:33.000Z</time><hdop>1.625</hdop><vdop>1.625</vdop><extensions><gom:speed>0.549</gom:speed></extensions></trkpt>
   <trkpt lat="59.0569028512" lon="29.9632695154"><ele>98.151</ele><time>2026-04-25T12:42:34.000Z</time><hdop>1.312</hdop><vdop>1.312</vdop><extensions><gom:speed>0.589</gom:speed></extensions></trkpt>
   <trkpt lat="59.0568970677" lon="29.9632656597"><ele>98.316</ele><time>2026-04-25T12:42:35.000Z</time><hdop>1.125</hdop><vdop>1.125</vdop><extensions><gom:speed>0.732</gom:speed></extensions></trkpt>
   <trkpt lat="59.0568923738" lon="29.963254847"><ele>98.613</ele><time>2026-04-25T12:42:36.000Z</time><hdop>1.125</hdop><vdop>1.125</vdop><extensions><gom:speed>0.774</gom:speed></extensions></trkpt>
   <trkpt lat="59.0568826508" lon="29.9632514105"><ele>98.807</ele><time>2026-04-25T12:42:37.000Z</time><hdop>1.187</hdop><vdop>1.187</vdop><extensions><gom:speed>0.699</gom:speed></extensions></trkpt>
   <trkpt lat="59.0568754004" lon="29.9632419389"><ele>98.902</ele><time>2026-04-25T12:42:38.000Z</time><hdop>1.5</hdop><vdop>1.5</vdop><extensions><gom:speed>0.766</gom:speed></extensions></trkpt>
   <trkpt lat="59.0568678986" lon="29.9632349819"><ele>98.973</ele><time>2026-04-25T12:42:39.000Z</time><hdop>1.75</hdop><vdop>1.75</vdop><extensions><gom:speed>0.833</gom:speed></extensions></trkpt>
   <trkpt lat="59.0568613608" lon="29.9632302881"><ele>99.029</ele><time>2026-04-25T12:42:40.000Z</time><hdop>2.125</hdop><vdop>2.125</vdop><extensions><gom:speed>0.847</gom:speed></extensions></trkpt>
   <trkpt lat="59.0568545295" lon="29.9632305395"><ele>99.096</ele><time>2026-04-25T12:42:41.000Z</time><hdop>2.375</hdop><vdop>2.375</vdop><extensions><gom:speed>0.567</gom:speed></extensions></trkpt>
   <trkpt lat="59.0568507157" lon="29.9632267677"><ele>99.137</ele><time>2026-04-25T12:42:42.000Z</time><hdop>2.562</hdop><vdop>2.562</vdop><extensions><gom:speed>0.473</gom:speed></extensions></trkpt>
   <trkpt lat="59.0568468182" lon="29.9632240016"><ele>99.161</ele><time>2026-04-25T12:42:43.000Z</time><hdop>2.562</hdop><vdop>2.562</vdop><extensions><gom:speed>0.582</gom:speed></extensions></trkpt>
   <trkpt lat="59.0568418309" lon="29.9632209842"><ele>99.175</ele><time>2026-04-25T12:42:44.000Z</time><hdop>2.562</hdop><vdop>2.562</vdop><extensions><gom:speed>0.709</gom:speed></extensions></trkpt>
   <trkpt lat="59.0568160147" lon="29.9632185534"><ele>99.262</ele><time>2026-04-25T12:42:45.000Z</time><hdop>2.187</hdop><vdop>2.187</vdop><extensions><gom:speed>0.768</gom:speed></extensions></trkpt>
   <trkpt lat="59.0568083033" lon="29.9632135243"><ele>99.351</ele><time>2026-04-25T12:42:46.000Z</time><hdop>2.125</hdop><vdop>2.125</vdop><extensions><gom:speed>0.746</gom:speed></extensions></trkpt>
   <trkpt lat="59.0567936769" lon="29.9632077407"><ele>99.458</ele><time>2026-04-25T12:42:47.000Z</time><hdop>2.375</hdop><vdop>2.375</vdop><extensions><gom:speed>0.791</gom:speed></extensions></trkpt>
   <trkpt lat="59.0567831995" lon="29.9632081598"><ele>99.476</ele><time>2026-04-25T12:42:48.000Z</time><hdop>2.75</hdop><vdop>2.75</vdop><extensions><gom:speed>0.786</gom:speed></extensions></trkpt>
   <trkpt lat="59.0567776255" lon="29.9632144463"><ele>99.487</ele><time>2026-04-25T12:42:49.000Z</time><hdop>3.0</hdop><vdop>3.0</vdop><extensions><gom:speed>0.75</gom:speed></extensions></trkpt>
   <trkpt lat="59.0567682797" lon="29.9632175476"><ele>99.556</ele><time>2026-04-25T12:42:50.000Z</time><hdop>3.562</hdop><vdop>3.562</vdop><extensions><gom:speed>0.728</gom:speed></extensions></trkpt>
   <trkpt lat="59.0567640049" lon="29.9632188049"><ele>99.53</ele><time>2026-04-25T12:42:51.000Z</time><hdop>3.375</hdop><vdop>3.375</vdop><extensions><gom:speed>0.559</gom:speed></extensions></trkpt>
   <trkpt lat="59.0567587663" lon="29.9632343952"><ele>99.405</ele><time>2026-04-25T12:42:52.000Z</time><hdop>2.875</hdop><vdop>2.875</vdop><extensions><gom:speed>0.386</gom:speed></extensions></trkpt>
   <trkpt lat="59.056755623" lon="29.9632343952"><ele>99.229</ele><time>2026-04-25T12:42:53.000Z</time><hdop>2.437</hdop><vdop>2.437</vdop><extensions><gom:speed>0.545</gom:speed></extensions></trkpt>
   <trkpt lat="59.056755623" lon="29.9632343952"><ele>99.124</ele><time>2026-04-25T12:42:53.000Z</time><hdop>2.437</hdop><vdop>2.437</vdop><extensions><gom:speed>0.545</gom:speed></extensions></trkpt>
   <trkpt lat="59.0567509711" lon="29.9632358201"><ele>99.029</ele><time>2026-04-25T12:42:54.000Z</time><hdop>2.25</hdop><vdop>2.25</vdop><extensions><gom:speed>0.622</gom:speed></extensions></trkpt>
   <trkpt lat="59.0567442656" lon="29.963235401"><ele>99.005</ele><time>2026-04-25T12:42:55.000Z</time><hdop>2.125</hdop><vdop>2.125</vdop><extensions><gom:speed>0.506</gom:speed></extensions></trkpt>
   <trkpt lat="59.0567381887" lon="29.9632401787"><ele>99.015</ele><time>2026-04-25T12:42:56.000Z</time><hdop>2.375</hdop><vdop>2.375</vdop><extensions><gom:speed>0.579</gom:speed></extensions></trkpt>
   <trkpt lat="59.0567340816" lon="29.9632319644"><ele>99.069</ele><time>2026-04-25T12:42:57.000Z</time><hdop>2.937</hdop><vdop>2.937</vdop><extensions><gom:speed>0.686</gom:speed></extensions></trkpt>
   <trkpt lat="59.0567254482" lon="29.9632188887"><ele>99.128</ele><time>2026-04-25T12:42:58.000Z</time><hdop>3.5</hdop><vdop>3.5</vdop><extensions><gom:speed>0.725</gom:speed></extensions></trkpt>
   <trkpt lat="59.05671627" lon="29.9632030469"><ele>99.186</ele><time>2026-04-25T12:42:59.000Z</time><hdop>3.437</hdop><vdop>3.437</vdop><extensions><gom:speed>0.764</gom:speed></extensions></trkpt>
   <trkpt lat="59.0567049544" lon="29.9632003647"><ele>99.233</ele><time>2026-04-25T12:43:00.000Z</time><hdop>3.187</hdop><vdop>3.187</vdop><extensions><gom:speed>0.821</gom:speed></extensions></trkpt>
   <trkpt lat="59.0566980394" lon="29.9631935753"><ele>99.253</ele><time>2026-04-25T12:43:01.000Z</time><hdop>2.937</hdop><vdop>2.937</vdop><extensions><gom:speed>0.683</gom:speed></extensions></trkpt>
   <trkpt lat="59.056691711" lon="29.9631903064"><ele>99.198</ele><time>2026-04-25T12:43:02.000Z</time><hdop>2.562</hdop><vdop>2.562</vdop><extensions><gom:speed>0.724</gom:speed></extensions></trkpt>
   <trkpt lat="59.0566834968" lon="29.9631851096"><ele>99.097</ele><time>2026-04-25T12:43:03.000Z</time><hdop>2.062</hdop><vdop>2.062</vdop><extensions><gom:speed>0.843</gom:speed></extensions></trkpt>
   <trkpt lat="59.0566706305" lon="29.9631944973"><ele>99.014</ele><time>2026-04-25T12:43:04.000Z</time><hdop>1.937</hdop><vdop>1.937</vdop><extensions><gom:speed>0.89</gom:speed></extensions></trkpt>
   <trkpt lat="59.0566568842" lon="29.9631903064"><ele>99.136</ele><time>2026-04-25T12:43:05.000Z</time><hdop>2.062</hdop><vdop>2.062</vdop><extensions><gom:speed>0.811</gom:speed></extensions></trkpt>
   <trkpt lat="59.0566479156" lon="29.96318863"><ele>99.226</ele><time>2026-04-25T12:43:06.000Z</time><hdop>2.375</hdop><vdop>2.375</vdop><extensions><gom:speed>0.815</gom:speed></extensions></trkpt>
   <trkpt lat="59.0566376897" lon="29.9631857802"><ele>99.315</ele><time>2026-04-25T12:43:07.000Z</time><hdop>2.562</hdop><vdop>2.562</vdop><extensions><gom:speed>0.796</gom:speed></extensions></trkpt>
   <trkpt lat="59.0566278828" lon="29.9631845229"><ele>99.382</ele><time>2026-04-25T12:43:08.000Z</time><hdop>2.625</hdop><vdop>2.625</vdop><extensions><gom:speed>0.702</gom:speed></extensions></trkpt>
   <trkpt lat="59.0566228537" lon="29.9631768115"><ele>99.433</ele><time>2026-04-25T12:43:09.000Z</time><hdop>2.625</hdop><vdop>2.625</vdop><extensions><gom:speed>0.632</gom:speed></extensions></trkpt>
   <trkpt lat="59.0566187885" lon="29.9631691002"><ele>99.442</ele><time>2026-04-25T12:43:10.000Z</time><hdop>2.437</hdop><vdop>2.437</vdop><extensions><gom:speed>0.702</gom:speed></extensions></trkpt>
   <trkpt lat="59.0566141784" lon="29.9631590419"><ele>99.478</ele><time>2026-04-25T12:43:11.000Z</time><hdop>2.687</hdop><vdop>2.687</vdop><extensions><gom:speed>0.659</gom:speed></extensions></trkpt>
   <trkpt lat="59.0566118315" lon="29.963147391"><ele>99.507</ele><time>2026-04-25T12:43:12.000Z</time><hdop>2.562</hdop><vdop>2.562</vdop><extensions><gom:speed>0.663</gom:speed></extensions></trkpt>
   <trkpt lat="59.0566047907" lon="29.9631332256"><ele>99.507</ele><time>2026-04-25T12:43:13.000Z</time><hdop>2.875</hdop><vdop>2.875</vdop><extensions><gom:speed>0.607</gom:speed></extensions></trkpt>
   <trkpt lat="59.0566047907" lon="29.9631332256"><ele>99.507</ele><time>2026-04-25T12:43:13.000Z</time><hdop>2.875</hdop><vdop>2.875</vdop><extensions><gom:speed>0.607</gom:speed></extensions></trkpt>
   <trkpt lat="59.0565987138" lon="29.9631210719"><ele>99.477</ele><time>2026-04-25T12:43:14.000Z</time><hdop>2.937</hdop><vdop>2.937</vdop><extensions><gom:speed>0.648</gom:speed></extensions></trkpt>
   <trkpt lat="59.0565895356" lon="29.9631266877"><ele>99.597</ele><time>2026-04-25T12:43:15.000Z</time><hdop>3.125</hdop><vdop>3.125</vdop><extensions><gom:speed>0.791</gom:speed></extensions></trkpt>
   <trkpt lat="59.0565772561" lon="29.9631256819"><ele>99.774</ele><time>2026-04-25T12:43:16.000Z</time><hdop>3.062</hdop><vdop>3.062</vdop><extensions><gom:speed>0.712</gom:speed></extensions></trkpt>
   <trkpt lat="59.056567617" lon="29.9631234188"><ele>99.892</ele><time>2026-04-25T12:43:17.000Z</time><hdop>3.062</hdop><vdop>3.062</vdop><extensions><gom:speed>0.614</gom:speed></extensions></trkpt>
   <trkpt lat="59.0565596961" lon="29.9631236703"><ele>99.993</ele><time>2026-04-25T12:43:18.000Z</time><hdop>2.437</hdop><vdop>2.437</vdop><extensions><gom:speed>0.627</gom:speed></extensions></trkpt>
   <trkpt lat="59.0565515656" lon="29.9631249275"><ele>100.154</ele><time>2026-04-25T12:43:19.000Z</time><hdop>2.375</hdop><vdop>2.375</vdop><extensions><gom:speed>0.587</gom:speed></extensions></trkpt>
   <trkpt lat="59.0565434352" lon="29.9631175515"><ele>100.178</ele><time>2026-04-25T12:43:20.000Z</time><hdop>2.25</hdop><vdop>2.25</vdop><extensions><gom:speed>0.682</gom:speed></extensions></trkpt>
   <trkpt lat="59.0565364363" lon="29.9631131929"><ele>100.378</ele><time>2026-04-25T12:43:21.000Z</time><hdop>2.0</hdop><vdop>2.0</vdop><extensions><gom:speed>0.787</gom:speed></extensions></trkpt>
   <trkpt lat="59.0565285992" lon="29.9631090857"><ele>100.53</ele><time>2026-04-25T12:43:22.000Z</time><hdop>2.0</hdop><vdop>2.0</vdop><extensions><gom:speed>0.858</gom:speed></extensions></trkpt>
   <trkpt lat="59.0565187924" lon="29.963107577"><ele>100.554</ele><time>2026-04-25T12:43:23.000Z</time><hdop>2.312</hdop><vdop>2.312</vdop><extensions><gom:speed>0.838</gom:speed></extensions></trkpt>
   <trkpt lat="59.0565120449" lon="29.963099698"><ele>100.479</ele><time>2026-04-25T12:43:24.000Z</time><hdop>2.375</hdop><vdop>2.375</vdop><extensions><gom:speed>0.715</gom:speed></extensions></trkpt>
   <trkpt lat="59.0565035792" lon="29.963090897"><ele>100.353</ele><time>2026-04-25T12:43:25.000Z</time><hdop>2.25</hdop><vdop>2.25</vdop><extensions><gom:speed>0.829</gom:speed></extensions></trkpt>
   <trkpt lat="59.0564963708" lon="29.9630888015"><ele>100.302</ele><time>2026-04-25T12:43:26.000Z</time><hdop>2.25</hdop><vdop>2.25</vdop><extensions><gom:speed>0.854</gom:speed></extensions></trkpt>
   <trkpt lat="59.0564890366" lon="29.9630847782"><ele>100.242</ele><time>2026-04-25T12:43:27.000Z</time><hdop>2.187</hdop><vdop>2.187</vdop><extensions><gom:speed>0.825</gom:speed></extensions></trkpt>
   <trkpt lat="59.0564806966" lon="29.9630813416"><ele>100.205</ele><time>2026-04-25T12:43:28.000Z</time><hdop>2.187</hdop><vdop>2.187</vdop><extensions><gom:speed>0.781</gom:speed></extensions></trkpt>
   <trkpt lat="59.0564718956" lon="29.9630842753"><ele>100.108</ele><time>2026-04-25T12:43:29.000Z</time><hdop>2.25</hdop><vdop>2.25</vdop><extensions><gom:speed>0.787</gom:speed></extensions></trkpt>
   <trkpt lat="59.0564670341" lon="29.9630745523"><ele>100.022</ele><time>2026-04-25T12:43:30.000Z</time><hdop>2.375</hdop><vdop>2.375</vdop><extensions><gom:speed>0.802</gom:speed></extensions></trkpt>
   <trkpt lat="59.0564586941" lon="29.9630682659"><ele>99.973</ele><time>2026-04-25T12:43:31.000Z</time><hdop>2.5</hdop><vdop>2.5</vdop><extensions><gom:speed>0.833</gom:speed></extensions></trkpt>
   <trkpt lat="59.056450438" lon="29.9630638235"><ele>99.875</ele><time>2026-04-25T12:43:32.000Z</time><hdop>3.0</hdop><vdop>3.0</vdop><extensions><gom:speed>0.814</gom:speed></extensions></trkpt>
   <trkpt lat="59.0564382004" lon="29.9630800005"><ele>99.587</ele><time>2026-04-25T12:43:33.000Z</time><hdop>3.312</hdop><vdop>3.312</vdop><extensions><gom:speed>0.805</gom:speed></extensions></trkpt>
   <trkpt lat="59.0564382004" lon="29.9630800005"><ele>99.415</ele><time>2026-04-25T12:43:33.000Z</time><hdop>3.312</hdop><vdop>3.312</vdop><extensions><gom:speed>0.805</gom:speed></extensions></trkpt>
   <trkpt lat="59.0564253761" lon="29.9630896397"><ele>99.148</ele><time>2026-04-25T12:43:34.000Z</time><hdop>3.062</hdop><vdop>3.062</vdop><extensions><gom:speed>0.726</gom:speed></extensions></trkpt>
   <trkpt lat="59.056414731" lon="29.9630852811"><ele>98.915</ele><time>2026-04-25T12:43:35.000Z</time><hdop>3.062</hdop><vdop>3.062</vdop><extensions><gom:speed>0.733</gom:speed></extensions></trkpt>
   <trkpt lat="59.0564029126" lon="29.9630906456"><ele>98.627</ele><time>2026-04-25T12:43:36.000Z</time><hdop>2.75</hdop><vdop>2.75</vdop><extensions><gom:speed>0.841</gom:speed></extensions></trkpt>
   <trkpt lat="59.0563928962" lon="29.9630868737"><ele>98.311</ele><time>2026-04-25T12:43:37.000Z</time><hdop>2.312</hdop><vdop>2.312</vdop><extensions><gom:speed>0.87</gom:speed></extensions></trkpt>
   <trkpt lat="59.0563845562" lon="29.9630762287"><ele>98.065</ele><time>2026-04-25T12:43:38.000Z</time><hdop>1.875</hdop><vdop>1.875</vdop><extensions><gom:speed>0.795</gom:speed></extensions></trkpt>
   <trkpt lat="59.056370265" lon="29.9630639073"><ele>97.999</ele><time>2026-04-25T12:43:39.000Z</time><hdop>1.937</hdop><vdop>1.937</vdop><extensions><gom:speed>0.803</gom:speed></extensions></trkpt>
   <trkpt lat="59.0563571893" lon="29.9630646617"><ele>98.033</ele><time>2026-04-25T12:43:40.000Z</time><hdop>1.875</hdop><vdop>1.875</vdop><extensions><gom:speed>0.823</gom:speed></extensions></trkpt>
   <trkpt lat="59.0563467119" lon="29.9630610574"><ele>98.087</ele><time>2026-04-25T12:43:41.000Z</time><hdop>2.062</hdop><vdop>2.062</vdop><extensions><gom:speed>0.796</gom:speed></extensions></trkpt>
   <trkpt lat="59.056340635" lon="29.9630598002"><ele>97.962</ele><time>2026-04-25T12:43:42.000Z</time><hdop>2.5</hdop><vdop>2.5</vdop><extensions><gom:speed>0.694</gom:speed></extensions></trkpt>
   <trkpt lat="59.0563322531" lon="29.9630566988"><ele>97.829</ele><time>2026-04-25T12:43:43.000Z</time><hdop>2.875</hdop><vdop>2.875</vdop><extensions><gom:speed>0.725</gom:speed></extensions></trkpt>
   <trkpt lat="59.0563219015" lon="29.9630618956"><ele>97.705</ele><time>2026-04-25T12:43:44.000Z</time><hdop>3.125</hdop><vdop>3.125</vdop><extensions><gom:speed>0.813</gom:speed></extensions></trkpt>
   <trkpt lat="59.0563148188" lon="29.963057537"><ele>97.604</ele><time>2026-04-25T12:43:45.000Z</time><hdop>3.312</hdop><vdop>3.312</vdop><extensions><gom:speed>0.845</gom:speed></extensions></trkpt>
   <trkpt lat="59.0563025812" lon="29.9630583752"><ele>97.482</ele><time>2026-04-25T12:43:46.000Z</time><hdop>3.187</hdop><vdop>3.187</vdop><extensions><gom:speed>0.905</gom:speed></extensions></trkpt>
   <trkpt lat="59.0562931515" lon="29.9630598002"><ele>97.447</ele><time>2026-04-25T12:43:47.000Z</time><hdop>3.062</hdop><vdop>3.062</vdop><extensions><gom:speed>0.968</gom:speed></extensions></trkpt>
   <trkpt lat="59.0562847696" lon="29.963048736"><ele>97.462</ele><time>2026-04-25T12:43:48.000Z</time><hdop>3.125</hdop><vdop>3.125</vdop><extensions><gom:speed>0.99</gom:speed></extensions></trkpt>
   <trkpt lat="59.0562759267" lon="29.9630494904"><ele>97.459</ele><time>2026-04-25T12:43:49.000Z</time><hdop>3.125</hdop><vdop>3.125</vdop><extensions><gom:speed>1.02</gom:speed></extensions></trkpt>
   <trkpt lat="59.0562678382" lon="29.963049658"><ele>97.485</ele><time>2026-04-25T12:43:50.000Z</time><hdop>3.437</hdop><vdop>3.437</vdop><extensions><gom:speed>0.929</gom:speed></extensions></trkpt>
   <trkpt lat="59.0562605878" lon="29.9630382587"><ele>97.573</ele><time>2026-04-25T12:43:51.000Z</time><hdop>3.75</hdop><vdop>3.75</vdop><extensions><gom:speed>0.93</gom:speed></extensions></trkpt>
   <trkpt lat="59.056252164" lon="29.9630328942"><ele>97.509</ele><time>2026-04-25T12:43:52.000Z</time><hdop>3.812</hdop><vdop>3.812</vdop><extensions><gom:speed>0.85</gom:speed></extensions></trkpt>
   <trkpt lat="59.056244285" lon="29.9630322237"><ele>97.358</ele><time>2026-04-25T12:43:53.000Z</time><hdop>3.625</hdop><vdop>3.625</vdop><extensions><gom:speed>0.851</gom:speed></extensions></trkpt>
   <trkpt lat="59.056244285" lon="29.9630322237"><ele>97.268</ele><time>2026-04-25T12:43:53.000Z</time><hdop>3.625</hdop><vdop>3.625</vdop><extensions><gom:speed>0.851</gom:speed></extensions></trkpt>
   <trkpt lat="59.0562366575" lon="29.9630235065"><ele>97.249</ele><time>2026-04-25T12:43:54.000Z</time><hdop>3.437</hdop><vdop>3.437</vdop><extensions><gom:speed>0.908</gom:speed></extensions></trkpt>
   <trkpt lat="59.0562278146" lon="29.9630157952"><ele>97.205</ele><time>2026-04-25T12:43:55.000Z</time><hdop>3.312</hdop><vdop>3.312</vdop><extensions><gom:speed>0.937</gom:speed></extensions></trkpt>
   <trkpt lat="59.0562223664" lon="29.9630066589"><ele>97.247</ele><time>2026-04-25T12:43:56.000Z</time><hdop>3.062</hdop><vdop>3.062</vdop><extensions><gom:speed>0.891</gom:speed></extensions></trkpt>
   <trkpt lat="59.0562143197" lon="29.9630023841"><ele>97.355</ele><time>2026-04-25T12:43:57.000Z</time><hdop>2.937</hdop><vdop>2.937</vdop><extensions><gom:speed>0.814</gom:speed></extensions></trkpt>
   <trkpt lat="59.0562076142" lon="29.9629912362"><ele>97.453</ele><time>2026-04-25T12:43:58.000Z</time><hdop>2.75</hdop><vdop>2.75</vdop><extensions><gom:speed>0.799</gom:speed></extensions></trkpt>
   <trkpt lat="59.0561973464" lon="29.9629860394"><ele>97.407</ele><time>2026-04-25T12:43:59.000Z</time><hdop>3.25</hdop><vdop>3.25</vdop><extensions><gom:speed>0.776</gom:speed></extensions></trkpt>
   <trkpt lat="59.0561906409" lon="29.9629822675"><ele>97.366</ele><time>2026-04-25T12:44:00.000Z</time><hdop>3.25</hdop><vdop>3.25</vdop><extensions><gom:speed>0.826</gom:speed></extensions></trkpt>
   <trkpt lat="59.0561677583" lon="29.9629662581"><ele>97.358</ele><time>2026-04-25T12:44:01.000Z</time><hdop>3.312</hdop><vdop>3.312</vdop><extensions><gom:speed>0.823</gom:speed></extensions></trkpt>
   <trkpt lat="59.0561595859" lon="29.9629663419"><ele>97.292</ele><time>2026-04-25T12:44:02.000Z</time><hdop>3.312</hdop><vdop>3.312</vdop><extensions><gom:speed>0.628</gom:speed></extensions></trkpt>
   <trkpt lat="59.0561515812" lon="29.9629473988"><ele>97.242</ele><time>2026-04-25T12:44:03.000Z</time><hdop>3.312</hdop><vdop>3.312</vdop><extensions><gom:speed>0.75</gom:speed></extensions></trkpt>
   <trkpt lat="59.0561390502" lon="29.9629586306"><ele>97.309</ele><time>2026-04-25T12:44:04.000Z</time><hdop>2.812</hdop><vdop>2.812</vdop><extensions><gom:speed>0.688</gom:speed></extensions></trkpt>
   <trkpt lat="59.0561301654" lon="29.9629529309"><ele>97.421</ele><time>2026-04-25T12:44:05.000Z</time><hdop>2.625</hdop><vdop>2.625</vdop><extensions><gom:speed>0.627</gom:speed></extensions></trkpt>
   <trkpt lat="59.0561254716" lon="29.9629486561"><ele>97.457</ele><time>2026-04-25T12:44:06.000Z</time><hdop>2.687</hdop><vdop>2.687</vdop><extensions><gom:speed>0.696</gom:speed></extensions></trkpt>
   <trkpt lat="59.0561193528" lon="29.9629504163"><ele>97.436</ele><time>2026-04-25T12:44:07.000Z</time><hdop>3.062</hdop><vdop>3.062</vdop><extensions><gom:speed>0.803</gom:speed></extensions></trkpt>
   <trkpt lat="59.0561126892" lon="29.9629479017"><ele>97.429</ele><time>2026-04-25T12:44:08.000Z</time><hdop>3.375</hdop><vdop>3.375</vdop><extensions><gom:speed>0.658</gom:speed></extensions></trkpt>
   <trkpt lat="59.0561093364" lon="29.9629346583"><ele>97.432</ele><time>2026-04-25T12:44:09.000Z</time><hdop>3.812</hdop><vdop>3.812</vdop><extensions><gom:speed>0.737</gom:speed></extensions></trkpt>
   <trkpt lat="59.056102128" lon="29.9629378435"><ele>97.353</ele><time>2026-04-25T12:44:10.000Z</time><hdop>3.687</hdop><vdop>3.687</vdop><extensions><gom:speed>0.798</gom:speed></extensions></trkpt>
   <trkpt lat="59.0560916925" lon="29.9629378435"><ele>97.293</ele><time>2026-04-25T12:44:11.000Z</time><hdop>3.437</hdop><vdop>3.437</vdop><extensions><gom:speed>0.836</gom:speed></extensions></trkpt>
   <trkpt lat="59.0560840231" lon="29.9629409448"><ele>97.252</ele><time>2026-04-25T12:44:12.000Z</time><hdop>2.937</hdop><vdop>2.937</vdop><extensions><gom:speed>0.843</gom:speed></extensions></trkpt>
   <trkpt lat="59.0560707377" lon="29.9629422021"><ele>97.317</ele><time>2026-04-25T12:44:13.000Z</time><hdop>2.562</hdop><vdop>2.562</vdop><extensions><gom:speed>0.845</gom:speed></extensions></trkpt>
   <trkpt lat="59.0560707377" lon="29.9629422021"><ele>97.356</ele><time>2026-04-25T12:44:13.000Z</time><hdop>2.562</hdop><vdop>2.562</vdop><extensions><gom:speed>0.845</gom:speed></extensions></trkpt>
   <trkpt lat="59.0560591707" lon="29.96294128"><ele>97.452</ele><time>2026-04-25T12:44:14.000Z</time><hdop>2.312</hdop><vdop>2.312</vdop><extensions><gom:speed>0.852</gom:speed></extensions></trkpt>
   <trkpt lat="59.0560494058" lon="29.9629372567"><ele>97.63</ele><time>2026-04-25T12:44:15.000Z</time><hdop>2.75</hdop><vdop>2.75</vdop><extensions><gom:speed>0.837</gom:speed></extensions></trkpt>
   <trkpt lat="59.0560434966" lon="29.9629370053"><ele>97.718</ele><time>2026-04-25T12:44:16.000Z</time><hdop>2.75</hdop><vdop>2.75</vdop><extensions><gom:speed>0.814</gom:speed></extensions></trkpt>
   <trkpt lat="59.0560292473" lon="29.962935748"><ele>97.827</ele><time>2026-04-25T12:44:17.000Z</time><hdop>2.937</hdop><vdop>2.937</vdop><extensions><gom:speed>0.859</gom:speed></extensions></trkpt>
   <trkpt lat="59.0560179737" lon="29.9629307188"><ele>97.974</ele><time>2026-04-25T12:44:18.000Z</time><hdop>3.25</hdop><vdop>3.25</vdop><extensions><gom:speed>0.754</gom:speed></extensions></trkpt>
   <trkpt lat="59.0560030958" lon="29.9629259412"><ele>98.152</ele><time>2026-04-25T12:44:19.000Z</time><hdop>3.062</hdop><vdop>3.062</vdop><extensions><gom:speed>0.665</gom:speed></extensions></trkpt>
   <trkpt lat="59.0559909839" lon="29.9629240133"><ele>98.419</ele><time>2026-04-25T12:44:20.000Z</time><hdop>2.875</hdop><vdop>2.875</vdop><extensions><gom:speed>0.678</gom:speed></extensions></trkpt>
   <trkpt lat="59.0559841527" lon="29.9629178107"><ele>98.573</ele><time>2026-04-25T12:44:21.000Z</time><hdop>3.312</hdop><vdop>3.312</vdop><extensions><gom:speed>0.793</gom:speed></extensions></trkpt>
   <trkpt lat="59.055974262" lon="29.9629197386"><ele>98.784</ele><time>2026-04-25T12:44:22.000Z</time><hdop>3.5</hdop><vdop>3.5</vdop><extensions><gom:speed>0.75</gom:speed></extensions></trkpt>
   <trkpt lat="59.0559670955" lon="29.962916302"><ele>98.938</ele><time>2026-04-25T12:44:23.000Z</time><hdop>3.5</hdop><vdop>3.5</vdop><extensions><gom:speed>0.68</gom:speed></extensions></trkpt>
   <trkpt lat="59.0559605576" lon="29.9629113566"><ele>98.977</ele><time>2026-04-25T12:44:24.000Z</time><hdop>3.5</hdop><vdop>3.5</vdop><extensions><gom:speed>0.544</gom:speed></extensions></trkpt>
   <trkpt lat="59.0559521757" lon="29.9629083392"><ele>98.975</ele><time>2026-04-25T12:44:25.000Z</time><hdop>3.562</hdop><vdop>3.562</vdop><extensions><gom:speed>0.564</gom:speed></extensions></trkpt>
   <trkpt lat="59.055943249" lon="29.9629117757"><ele>99.029</ele><time>2026-04-25T12:44:26.000Z</time><hdop>3.187</hdop><vdop>3.187</vdop><extensions><gom:speed>0.349</gom:speed></extensions></trkpt>
   <trkpt lat="59.0559382198" lon="29.9629081715"><ele>99.113</ele><time>2026-04-25T12:44:27.000Z</time><hdop>2.875</hdop><vdop>2.875</vdop><extensions><gom:speed>0.262</gom:speed></extensions></trkpt>
   <trkpt lat="59.0559323944" lon="29.9629069981"><ele>99.243</ele><time>2026-04-25T12:44:28.000Z</time><hdop>2.312</hdop><vdop>2.312</vdop><extensions><gom:speed>0.409</gom:speed></extensions></trkpt>
   <trkpt lat="59.0559267366" lon="29.9629097641"><ele>99.325</ele><time>2026-04-25T12:44:29.000Z</time><hdop>2.312</hdop><vdop>2.312</vdop><extensions><gom:speed>0.629</gom:speed></extensions></trkpt>
   <trkpt lat="59.0559203245" lon="29.9629136198"><ele>99.396</ele><time>2026-04-25T12:44:30.000Z</time><hdop>2.25</hdop><vdop>2.25</vdop><extensions><gom:speed>0.775</gom:speed></extensions></trkpt>
   <trkpt lat="59.0559116911" lon="29.9629092612"><ele>99.557</ele><time>2026-04-25T12:44:31.000Z</time><hdop>2.437</hdop><vdop>2.437</vdop><extensions><gom:speed>0.811</gom:speed></extensions></trkpt>
   <trkpt lat="59.0559043989" lon="29.962905154"><ele>99.659</ele><time>2026-04-25T12:44:32.000Z</time><hdop>2.375</hdop><vdop>2.375</vdop><extensions><gom:speed>0.819</gom:speed></extensions></trkpt>
   <trkpt lat="59.055898783" lon="29.9628960178"><ele>99.748</ele><time>2026-04-25T12:44:33.000Z</time><hdop>2.375</hdop><vdop>2.375</vdop><extensions><gom:speed>0.754</gom:speed></extensions></trkpt>
   <trkpt lat="59.055898783" lon="29.9628960178"><ele>99.801</ele><time>2026-04-25T12:44:33.000Z</time><hdop>2.375</hdop><vdop>2.375</vdop><extensions><gom:speed>0.754</gom:speed></extensions></trkpt>
   <trkpt lat="59.0558888085" lon="29.9628867977"><ele>99.687</ele><time>2026-04-25T12:44:34.000Z</time><hdop>2.125</hdop><vdop>2.125</vdop><extensions><gom:speed>0.695</gom:speed></extensions></trkpt>
   <trkpt lat="59.0558790855" lon="29.9628862948"><ele>99.658</ele><time>2026-04-25T12:44:35.000Z</time><hdop>2.187</hdop><vdop>2.187</vdop><extensions><gom:speed>0.723</gom:speed></extensions></trkpt>
   <trkpt lat="59.0558683148" lon="29.9628861271"><ele>99.711</ele><time>2026-04-25T12:44:36.000Z</time><hdop>2.25</hdop><vdop>2.25</vdop><extensions><gom:speed>0.757</gom:speed></extensions></trkpt>
   <trkpt lat="59.0558620703" lon="29.9628790863"><ele>99.803</ele><time>2026-04-25T12:44:37.000Z</time><hdop>2.375</hdop><vdop>2.375</vdop><extensions><gom:speed>0.61</gom:speed></extensions></trkpt>
   <trkpt lat="59.055856161" lon="29.9628774099"><ele>99.937</ele><time>2026-04-25T12:44:38.000Z</time><hdop>2.625</hdop><vdop>2.625</vdop><extensions><gom:speed>0.696</gom:speed></extensions></trkpt>
   <trkpt lat="59.05584736" lon="29.9628765717"><ele>99.952</ele><time>2026-04-25T12:44:39.000Z</time><hdop>3.187</hdop><vdop>3.187</vdop><extensions><gom:speed>0.728</gom:speed></extensions></trkpt>
   <trkpt lat="59.0558412831" lon="29.9628795054"><ele>99.934</ele><time>2026-04-25T12:44:40.000Z</time><hdop>3.312</hdop><vdop>3.312</vdop><extensions><gom:speed>0.677</gom:speed></extensions></trkpt>
   <trkpt lat="59.0558358768" lon="29.9628740572"><ele>99.927</ele><time>2026-04-25T12:44:41.000Z</time><hdop>3.25</hdop><vdop>3.25</vdop><extensions><gom:speed>0.719</gom:speed></extensions></trkpt>
   <trkpt lat="59.0558329431" lon="29.9628606461"><ele>99.993</ele><time>2026-04-25T12:44:42.000Z</time><hdop>3.375</hdop><vdop>3.375</vdop><extensions><gom:speed>0.72</gom:speed></extensions></trkpt>
   <trkpt lat="59.0558177719" lon="29.9628543597"><ele>99.865</ele><time>2026-04-25T12:44:43.000Z</time><hdop>3.562</hdop><vdop>3.562</vdop><extensions><gom:speed>0.6</gom:speed></extensions></trkpt>
   <trkpt lat="59.0558146706" lon="29.9628510069"><ele>99.82</ele><time>2026-04-25T12:44:44.000Z</time><hdop>3.312</hdop><vdop>3.312</vdop><extensions><gom:speed>0.565</gom:speed></extensions></trkpt>
   <trkpt lat="59.0558124075" lon="29.9628457263"><ele>99.779</ele><time>2026-04-25T12:44:45.000Z</time><hdop>3.25</hdop><vdop>3.25</vdop><extensions><gom:speed>0.567</gom:speed></extensions></trkpt>
   <trkpt lat="59.0558037741" lon="29.9628258612"><ele>99.707</ele><time>2026-04-25T12:44:46.000Z</time><hdop>3.5</hdop><vdop>3.5</vdop><extensions><gom:speed>0.681</gom:speed></extensions></trkpt>
   <trkpt lat="59.0557966914" lon="29.9628148809"><ele>99.603</ele><time>2026-04-25T12:44:47.000Z</time><hdop>3.437</hdop><vdop>3.437</vdop><extensions><gom:speed>0.677</gom:speed></extensions></trkpt>
   <trkpt lat="59.0557888124" lon="29.9628039006"><ele>99.415</ele><time>2026-04-25T12:44:48.000Z</time><hdop>3.687</hdop><vdop>3.687</vdop><extensions><gom:speed>0.631</gom:speed></extensions></trkpt>
   <trkpt lat="59.0557832385" lon="29.9627929204"><ele>99.199</ele><time>2026-04-25T12:44:49.000Z</time><hdop>3.875</hdop><vdop>3.875</vdop><extensions><gom:speed>0.63</gom:speed></extensions></trkpt>
   <trkpt lat="59.0557793409" lon="29.9627852928"><ele>98.989</ele><time>2026-04-25T12:44:50.000Z</time><hdop>3.937</hdop><vdop>3.937</vdop><extensions><gom:speed>0.665</gom:speed></extensions></trkpt>
   <trkpt lat="59.0557734316" lon="29.9627748993"><ele>98.756</ele><time>2026-04-25T12:44:51.000Z</time><hdop>3.812</hdop><vdop>3.812</vdop><extensions><gom:speed>0.457</gom:speed></extensions></trkpt>
   <trkpt lat="59.0557710847" lon="29.9627689481"><ele>98.542</ele><time>2026-04-25T12:44:52.000Z</time><hdop>3.875</hdop><vdop>3.875</vdop><extensions><gom:speed>0.55</gom:speed></extensions></trkpt>
   <trkpt lat="59.0512399955" lon="29.9639399838"><ele>58.88</ele><time>2026-04-25T12:44:53.243Z</time><hdop>4095.937</hdop><vdop>0.0</vdop><extensions><gom:speed>0.0</gom:speed></extensions></trkpt>
   <trkpt lat="59.0557594339" lon="29.962763919"><ele>74.682</ele><time>2026-04-25T12:44:53.000Z</time><hdop>3.937</hdop><vdop>3.937</vdop><extensions><gom:speed>0.462</gom:speed></extensions></trkpt>
   <trkpt lat="59.0557594339" lon="29.962763919"><ele>84.124</ele><time>2026-04-25T12:44:53.000Z</time><hdop>3.937</hdop><vdop>3.937</vdop><extensions><gom:speed>0.462</gom:speed></extensions></trkpt>
   <trkpt lat="59.0557557039" lon="29.9627601471"><ele>89.757</ele><time>2026-04-25T12:44:54.000Z</time><hdop>3.875</hdop><vdop>3.875</vdop><extensions><gom:speed>0.601</gom:speed></extensions></trkpt>
   <trkpt lat="59.0557484117" lon="29.9627525196"><ele>93.025</ele><time>2026-04-25T12:44:55.000Z</time><hdop>3.812</hdop><vdop>3.812</vdop><extensions><gom:speed>0.718</gom:speed></extensions></trkpt>
   <trkpt lat="59.0557415804" lon="29.9627433833"><ele>94.978</ele><time>2026-04-25T12:44:56.000Z</time><hdop>3.75</hdop><vdop>3.75</vdop><extensions><gom:speed>0.8</gom:speed></extensions></trkpt>
   <trkpt lat="59.0557321508" lon="29.9627299723"><ele>95.954</ele><time>2026-04-25T12:44:57.000Z</time><hdop>3.875</hdop><vdop>3.875</vdop><extensions><gom:speed>0.838</gom:speed></extensions></trkpt>
   <trkpt lat="59.0557230983" lon="29.9627198302"><ele>96.474</ele><time>2026-04-25T12:44:58.000Z</time><hdop>3.562</hdop><vdop>3.562</vdop><extensions><gom:speed>0.77</gom:speed></extensions></trkpt>
   <trkpt lat="59.0557173148" lon="29.9627061677"><ele>96.661</ele><time>2026-04-25T12:44:59.000Z</time><hdop>3.375</hdop><vdop>3.375</vdop><extensions><gom:speed>0.677</gom:speed></extensions></trkpt>
   <trkpt lat="59.0557105254" lon="29.9626883142"><ele>96.598</ele><time>2026-04-25T12:45:00.000Z</time><hdop>3.125</hdop><vdop>3.125</vdop><extensions><gom:speed>0.619</gom:speed></extensions></trkpt>
   <trkpt lat="59.0556943065" lon="29.9626901582"><ele>96.454</ele><time>2026-04-25T12:45:01.000Z</time><hdop>2.75</hdop><vdop>2.75</vdop><extensions><gom:speed>0.663</gom:speed></extensions></trkpt>
   <trkpt lat="59.0556890678" lon="29.962678675"><ele>96.313</ele><time>2026-04-25T12:45:02.000Z</time><hdop>2.625</hdop><vdop>2.625</vdop><extensions><gom:speed>0.741</gom:speed></extensions></trkpt>
   <trkpt lat="59.0556847511" lon="29.9626706284"><ele>96.085</ele><time>2026-04-25T12:45:03.000Z</time><hdop>2.625</hdop><vdop>2.625</vdop><extensions><gom:speed>0.733</gom:speed></extensions></trkpt>
   <trkpt lat="59.0556794705" lon="29.9626602348"><ele>95.925</ele><time>2026-04-25T12:45:04.000Z</time><hdop>2.75</hdop><vdop>2.75</vdop><extensions><gom:speed>0.713</gom:speed></extensions></trkpt>
   <trkpt lat="59.0556748185" lon="29.9626515176"><ele>95.819</ele><time>2026-04-25T12:45:05.000Z</time><hdop>2.75</hdop><vdop>2.75</vdop><extensions><gom:speed>0.71</gom:speed></extensions></trkpt>
   <trkpt lat="59.0556717591" lon="29.9626439739"><ele>95.727</ele><time>2026-04-25T12:45:06.000Z</time><hdop>2.937</hdop><vdop>2.937</vdop><extensions><gom:speed>0.722</gom:speed></extensions></trkpt>
   <trkpt lat="59.0556657661" lon="29.9626396153"><ele>95.698</ele><time>2026-04-25T12:45:07.000Z</time><hdop>2.937</hdop><vdop>2.937</vdop><extensions><gom:speed>0.767</gom:speed></extensions></trkpt>
   <trkpt lat="59.0556631677" lon="29.962626791"><ele>95.699</ele><time>2026-04-25T12:45:08.000Z</time><hdop>2.812</hdop><vdop>2.812</vdop><extensions><gom:speed>0.658</gom:speed></extensions></trkpt>
   <trkpt lat="59.0556608627" lon="29.9626167328"><ele>95.78</ele><time>2026-04-25T12:45:09.000Z</time><hdop>2.625</hdop><vdop>2.625</vdop><extensions><gom:speed>0.664</gom:speed></extensions></trkpt>
   <trkpt lat="59.0556539476" lon="29.962608267"><ele>95.832</ele><time>2026-04-25T12:45:10.000Z</time><hdop>2.812</hdop><vdop>2.812</vdop><extensions><gom:speed>0.648</gom:speed></extensions></trkpt>
   <trkpt lat="59.0556506787" lon="29.9625992146"><ele>95.912</ele><time>2026-04-25T12:45:11.000Z</time><hdop>3.0</hdop><vdop>3.0</vdop><extensions><gom:speed>0.611</gom:speed></extensions></trkpt>
   <trkpt lat="59.0556455657" lon="29.9625920061"><ele>96.034</ele><time>2026-04-25T12:45:12.000Z</time><hdop>3.0</hdop><vdop>3.0</vdop><extensions><gom:speed>0.496</gom:speed></extensions></trkpt>
   <trkpt lat="59.0556314003" lon="29.9625788465"><ele>96.519</ele><time>2026-04-25T12:45:13.000Z</time><hdop>2.812</hdop><vdop>2.812</vdop><extensions><gom:speed>0.19</gom:speed></extensions></trkpt>
   <trkpt lat="59.0556314003" lon="29.9625788465"><ele>96.809</ele><time>2026-04-25T12:45:13.000Z</time><hdop>2.812</hdop><vdop>2.812</vdop><extensions><gom:speed>0.19</gom:speed></extensions></trkpt>
   <trkpt lat="59.0556280056" lon="29.9625777569"><ele>98.103</ele><time>2026-04-25T12:45:14.000Z</time><hdop>3.0</hdop><vdop>3.0</vdop><extensions><gom:speed>0.0</gom:speed></extensions></trkpt>
   <trkpt lat="59.0556218449" lon="29.9625757452"><ele>98.877</ele><time>2026-04-25T12:45:15.000Z</time><hdop>3.0</hdop><vdop>3.0</vdop><extensions><gom:speed>0.0</gom:speed></extensions></trkpt>
   <trkpt lat="59.0556159776" lon="29.9625738174"><ele>99.339</ele><time>2026-04-25T12:45:16.000Z</time><hdop>3.0</hdop><vdop>3.0</vdop><extensions><gom:speed>0.0</gom:speed></extensions></trkpt>
   <trkpt lat="59.0556126248" lon="29.9625726439"><ele>99.615</ele><time>2026-04-25T12:45:17.000Z</time><hdop>3.0</hdop><vdop>3.0</vdop><extensions><gom:speed>0.0</gom:speed></extensions></trkpt>
   <trkpt lat="59.0556109484" lon="29.9625718896"><ele>99.78</ele><time>2026-04-25T12:45:18.000Z</time><hdop>3.0</hdop><vdop>3.0</vdop><extensions><gom:speed>0.0</gom:speed></extensions></trkpt>
   <trkpt lat="59.0556109484" lon="29.9625718896"><ele>99.879</ele><time>2026-04-25T12:45:19.000Z</time><hdop>3.0</hdop><vdop>3.0</vdop><extensions><gom:speed>0.0</gom:speed></extensions></trkpt>
   <trkpt lat="59.0556109484" lon="29.9625718896"><ele>99.938</ele><time>2026-04-25T12:45:20.000Z</time><hdop>3.0</hdop><vdop>3.0</vdop><extensions><gom:speed>0.0</gom:speed></extensions></trkpt>
   <trkpt lat="59.0556109484" lon="29.9625718896"><ele>99.973</ele><time>2026-04-25T12:45:21.000Z</time><hdop>3.0</hdop><vdop>3.0</vdop><extensions><gom:speed>0.0</gom:speed></extensions></trkpt>
   <trkpt lat="59.0556109484" lon="29.9625718896"><ele>99.994</ele><time>2026-04-25T12:45:22.000Z</time><hdop>3.0</hdop><vdop>3.0</vdop><extensions><gom:speed>0.0</gom:speed></extensions></trkpt>
   <trkpt lat="59.055606506" lon="29.9625700456"><ele>99.992</ele><time>2026-04-25T12:45:23.000Z</time><hdop>3.0</hdop><vdop>3.0</vdop><extensions><gom:speed>0.793</gom:speed></extensions></trkpt>
   <trkpt lat="59.0555963639" lon="29.9625574727"><ele>99.964</ele><time>2026-04-25T12:45:24.000Z</time><hdop>3.0</hdop><vdop>3.0</vdop><extensions><gom:speed>1.211</gom:speed></extensions></trkpt>
   <trkpt lat="59.0555859704" lon="29.9625403736"><ele>99.92</ele><time>2026-04-25T12:45:25.000Z</time><hdop>3.0</hdop><vdop>3.0</vdop><extensions><gom:speed>1.113</gom:speed></extensions></trkpt>
   <trkpt lat="59.0555790553" lon="29.9625275493"><ele>99.912</ele><time>2026-04-25T12:45:26.000Z</time><hdop>3.0</hdop><vdop>3.0</vdop><extensions><gom:speed>0.764</gom:speed></extensions></trkpt>
   <trkpt lat="59.0555736071" lon="29.9625158146"><ele>99.91</ele><time>2026-04-25T12:45:27.000Z</time><hdop>3.0</hdop><vdop>3.0</vdop><extensions><gom:speed>0.649</gom:speed></extensions></trkpt>
   <trkpt lat="59.0555686617" lon="29.9625070975"><ele>99.874</ele><time>2026-04-25T12:45:28.000Z</time><hdop>3.0</hdop><vdop>3.0</vdop><extensions><gom:speed>0.512</gom:speed></extensions></trkpt>
   <trkpt lat="59.0555624172" lon="29.962494357"><ele>99.855</ele><time>2026-04-25T12:45:29.000Z</time><hdop>3.0</hdop><vdop>3.0</vdop><extensions><gom:speed>0.595</gom:speed></extensions></trkpt>
   <trkpt lat="59.0555558374" lon="29.9624822032"><ele>99.873</ele><time>2026-04-25T12:45:30.000Z</time><hdop>3.0</hdop><vdop>3.0</vdop><extensions><gom:speed>0.769</gom:speed></extensions></trkpt>
   <trkpt lat="59.0555480423" lon="29.9624715582"><ele>99.872</ele><time>2026-04-25T12:45:31.000Z</time><hdop>3.0</hdop><vdop>3.0</vdop><extensions><gom:speed>0.659</gom:speed></extensions></trkpt>
   <trkpt lat="59.0555402471" lon="29.9624687083"><ele>99.908</ele><time>2026-04-25T12:45:32.000Z</time><hdop>3.0</hdop><vdop>3.0</vdop><extensions><gom:speed>0.633</gom:speed></extensions></trkpt>
   <trkpt lat="59.0555335835" lon="29.9624633439"><ele>99.988</ele><time>2026-04-25T12:45:33.000Z</time><hdop>3.0</hdop><vdop>3.0</vdop><extensions><gom:speed>0.679</gom:speed></extensions></trkpt>
   <trkpt lat="59.0555335835" lon="29.9624633439"><ele>100.036</ele><time>2026-04-25T12:45:33.000Z</time><hdop>3.0</hdop><vdop>3.0</vdop><extensions><gom:speed>0.679</gom:speed></extensions></trkpt>
   <trkpt lat="59.0555270037" lon="29.9624583986"><ele>100.043</ele><time>2026-04-25T12:45:34.000Z</time><hdop>3.0</hdop><vdop>3.0</vdop><extensions><gom:speed>0.601</gom:speed></extensions></trkpt>
   <trkpt lat="59.0555211783" lon="29.9624579795"><ele>100.018</ele><time>2026-04-25T12:45:35.000Z</time><hdop>3.0</hdop><vdop>3.0</vdop><extensions><gom:speed>0.474</gom:speed></extensions></trkpt>
   <trkpt lat="59.0555162329" lon="29.9624589853"><ele>100.037</ele><time>2026-04-25T12:45:36.000Z</time><hdop>3.0</hdop><vdop>3.0</vdop><extensions><gom:speed>0.396</gom:speed></extensions></trkpt>
   <trkpt lat="59.0555117905" lon="29.9624599912"><ele>100.04</ele><time>2026-04-25T12:45:37.000Z</time><hdop>3.0</hdop><vdop>3.0</vdop><extensions><gom:speed>0.324</gom:speed></extensions></trkpt>
   <trkpt lat="59.0555072224" lon="29.9624608294"><ele>100.064</ele><time>2026-04-25T12:45:38.000Z</time><hdop>3.0</hdop><vdop>3.0</vdop><extensions><gom:speed>0.363</gom:speed></extensions></trkpt>
   <trkpt lat="59.0555024447" lon="29.9624599912"><ele>100.115</ele><time>2026-04-25T12:45:39.000Z</time><hdop>3.0</hdop><vdop>3.0</vdop><extensions><gom:speed>0.448</gom:speed></extensions></trkpt>
   <trkpt lat="59.0554972479" lon="29.9624620866"><ele>100.2</ele><time>2026-04-25T12:45:40.000Z</time><hdop>3.0</hdop><vdop>3.0</vdop><extensions><gom:speed>0.455</gom:speed></extensions></trkpt>
   <trkpt lat="59.0554933922" lon="29.9624654394"><ele>100.287</ele><time>2026-04-25T12:45:41.000Z</time><hdop>3.0</hdop><vdop>3.0</vdop><extensions><gom:speed>0.236</gom:speed></extensions></trkpt>
   <trkpt lat="59.0554933922" lon="29.9624654394"><ele>100.339</ele><time>2026-04-25T12:45:42.000Z</time><hdop>3.0</hdop><vdop>3.0</vdop><extensions><gom:speed>0.0</gom:speed></extensions></trkpt>
   <trkpt lat="59.0554912968" lon="29.9624643498"><ele>100.361</ele><time>2026-04-25T12:45:43.000Z</time><hdop>3.0</hdop><vdop>3.0</vdop><extensions><gom:speed>0.387</gom:speed></extensions></trkpt>
   <trkpt lat="59.0554858904" lon="29.9624614999"><ele>100.361</ele><time>2026-04-25T12:45:44.000Z</time><hdop>3.0</hdop><vdop>3.0</vdop><extensions><gom:speed>0.645</gom:speed></extensions></trkpt>
   <trkpt lat="59.0554798974" lon="29.9624572251"><ele>100.358</ele><time>2026-04-25T12:45:45.000Z</time><hdop>3.0</hdop><vdop>3.0</vdop><extensions><gom:speed>0.574</gom:speed></extensions></trkpt>
   <trkpt lat="59.0554798974" lon="29.9624572251"><ele>100.356</ele><time>2026-04-25T12:45:46.000Z</time><hdop>3.0</hdop><vdop>3.0</vdop><extensions><gom:speed>0.0</gom:speed></extensions></trkpt>
   <trkpt lat="59.0554798974" lon="29.9624572251"><ele>100.355</ele><time>2026-04-25T12:45:47.000Z</time><hdop>3.0</hdop><vdop>3.0</vdop><extensions><gom:speed>0.0</gom:speed></extensions></trkpt>
   <trkpt lat="59.0554798974" lon="29.9624572251"><ele>100.354</ele><time>2026-04-25T12:45:48.000Z</time><hdop>3.0</hdop><vdop>3.0</vdop><extensions><gom:speed>0.0</gom:speed></extensions></trkpt>
   <trkpt lat="59.0554798974" lon="29.9624572251"><ele>100.354</ele><time>2026-04-25T12:45:49.000Z</time><hdop>3.0</hdop><vdop>3.0</vdop><extensions><gom:speed>0.0</gom:speed></extensions></trkpt>
   <trkpt lat="59.0554798974" lon="29.9624572251"><ele>100.354</ele><time>2026-04-25T12:45:50.000Z</time><hdop>3.0</hdop><vdop>3.0</vdop><extensions><gom:speed>0.0</gom:speed></extensions></trkpt>
   <trkpt lat="59.0554798974" lon="29.9624572251"><ele>100.353</ele><time>2026-04-25T12:45:51.000Z</time><hdop>3.0</hdop><vdop>3.0</vdop><extensions><gom:speed>0.0</gom:speed></extensions></trkpt>
   <trkpt lat="59.0554798974" lon="29.9624572251"><ele>100.353</ele><time>2026-04-25T12:45:52.000Z</time><hdop>3.0</hdop><vdop>3.0</vdop><extensions><gom:speed>0.0</gom:speed></extensions></trkpt>
   <trkpt lat="59.0554798974" lon="29.9624572251"><ele>100.353</ele><time>2026-04-25T12:45:53.000Z</time><hdop>3.0</hdop><vdop>3.0</vdop><extensions><gom:speed>0.0</gom:speed></extensions></trkpt>
   <trkpt lat="59.0554798974" lon="29.9624572251"><ele>100.353</ele><time>2026-04-25T12:45:53.000Z</time><hdop>3.0</hdop><vdop>3.0</vdop><extensions><gom:speed>0.0</gom:speed></extensions></trkpt>
   <trkpt lat="59.0554798974" lon="29.9624572251"><ele>100.353</ele><time>2026-04-25T12:45:54.000Z</time><hdop>3.0</hdop><vdop>3.0</vdop><extensions><gom:speed>0.0</gom:speed></extensions></trkpt>
   <trkpt lat="59.0554763351" lon="29.9624530342"><ele>100.391</ele><time>2026-04-25T12:45:55.000Z</time><hdop>3.0</hdop><vdop>3.0</vdop><extensions><gom:speed>0.479</gom:speed></extensions></trkpt>
   <trkpt lat="59.0554724375" lon="29.9624471668"><ele>100.475</ele><time>2026-04-25T12:45:56.000Z</time><hdop>3.0</hdop><vdop>3.0</vdop><extensions><gom:speed>0.413</gom:speed></extensions></trkpt>
   <trkpt lat="59.0554699648" lon="29.9624371086"><ele>100.51</ele><time>2026-04-25T12:45:57.000Z</time><hdop>3.0</hdop><vdop>3.0</vdop><extensions><gom:speed>0.699</gom:speed></extensions></trkpt>
   <trkpt lat="59.0554674922" lon="29.9624214344"><ele>100.549</ele><time>2026-04-25T12:45:58.000Z</time><hdop>3.0</hdop><vdop>3.0</vdop><extensions><gom:speed>1.186</gom:speed></extensions></trkpt>
   <trkpt lat="59.0554663187" lon="29.962401234"><ele>100.541</ele><time>2026-04-25T12:45:59.000Z</time><hdop>3.0</hdop><vdop>3.0</vdop><extensions><gom:speed>1.006</gom:speed></extensions></trkpt>
   <trkpt lat="59.0554636784" lon="29.9623804469"><ele>100.364</ele><time>2026-04-25T12:46:00.000Z</time><hdop>3.0</hdop><vdop>3.0</vdop><extensions><gom:speed>0.754</gom:speed></extensions></trkpt>
   <trkpt lat="59.0554648938" lon="29.9623710592"><ele>100.263</ele><time>2026-04-25T12:46:01.000Z</time><hdop>3.25</hdop><vdop>3.25</vdop><extensions><gom:speed>0.643</gom:speed></extensions></trkpt>
   <trkpt lat="59.0554633431" lon="29.9623672035"><ele>100.202</ele><time>2026-04-25T12:46:02.000Z</time><hdop>3.937</hdop><vdop>3.937</vdop><extensions><gom:speed>0.197</gom:speed></extensions></trkpt>
   <trkpt lat="59.0554612057" lon="29.9623649404"><ele>100.192</ele><time>2026-04-25T12:46:03.000Z</time><hdop>4.062</hdop><vdop>4.062</vdop><extensions><gom:speed>0.151</gom:speed></extensions></trkpt>
   <trkpt lat="59.0554568052" lon="29.9623622582"><ele>100.214</ele><time>2026-04-25T12:46:04.000Z</time><hdop>4.187</hdop><vdop>4.187</vdop><extensions><gom:speed>0.204</gom:speed></extensions></trkpt>
   <trkpt lat="59.0554568052" lon="29.9623622582"><ele>100.226</ele><time>2026-04-25T12:46:05.000Z</time><hdop>4.187</hdop><vdop>4.187</vdop><extensions><gom:speed>0.0</gom:speed></extensions></trkpt>
   <trkpt lat="59.0554568052" lon="29.9623622582"><ele>100.234</ele><time>2026-04-25T12:46:06.000Z</time><hdop>4.187</hdop><vdop>4.187</vdop><extensions><gom:speed>0.0</gom:speed></extensions></trkpt>
   <trkpt lat="59.0554568052" lon="29.9623622582"><ele>100.238</ele><time>2026-04-25T12:46:07.000Z</time><hdop>4.187</hdop><vdop>4.187</vdop><extensions><gom:speed>0.0</gom:speed></extensions></trkpt>
   <trkpt lat="59.0554568052" lon="29.9623622582"><ele>100.241</ele><time>2026-04-25T12:46:08.000Z</time><hdop>4.187</hdop><vdop>4.187</vdop><extensions><gom:speed>0.0</gom:speed></extensions></trkpt>
   <trkpt lat="59.0554568052" lon="29.9623622582"><ele>100.243</ele><time>2026-04-25T12:46:09.000Z</time><hdop>4.187</hdop><vdop>4.187</vdop><extensions><gom:speed>0.0</gom:speed></extensions></trkpt>
   <trkpt lat="59.0554568052" lon="29.9623622582"><ele>100.244</ele><time>2026-04-25T12:46:10.000Z</time><hdop>4.187</hdop><vdop>4.187</vdop><extensions><gom:speed>0.0</gom:speed></extensions></trkpt>
   <trkpt lat="59.0554568052" lon="29.9623622582"><ele>100.244</ele><time>2026-04-25T12:46:11.000Z</time><hdop>4.187</hdop><vdop>4.187</vdop><extensions><gom:speed>0.0</gom:speed></extensions></trkpt>
   <trkpt lat="59.0554568052" lon="29.9623622582"><ele>100.245</ele><time>2026-04-25T12:46:12.000Z</time><hdop>4.187</hdop><vdop>4.187</vdop><extensions><gom:speed>0.0</gom:speed></extensions></trkpt>
   <trkpt lat="59.0554568052" lon="29.9623622582"><ele>100.245</ele><time>2026-04-25T12:46:13.000Z</time><hdop>4.187</hdop><vdop>4.187</vdop><extensions><gom:speed>0.0</gom:speed></extensions></trkpt>
   <trkpt lat="59.0554568052" lon="29.9623622582"><ele>100.245</ele><time>2026-04-25T12:46:13.000Z</time><hdop>4.187</hdop><vdop>4.187</vdop><extensions><gom:speed>0.0</gom:speed></extensions></trkpt>
   <trkpt lat="59.0554568052" lon="29.9623622582"><ele>100.245</ele><time>2026-04-25T12:46:14.000Z</time><hdop>4.187</hdop><vdop>4.187</vdop><extensions><gom:speed>0.0</gom:speed></extensions></trkpt>
   <trkpt lat="59.0554568052" lon="29.9623622582"><ele>100.245</ele><time>2026-04-25T12:46:15.000Z</time><hdop>4.187</hdop><vdop>4.187</vdop><extensions><gom:speed>0.0</gom:speed></extensions></trkpt>
   <trkpt lat="59.0554568052" lon="29.9623622582"><ele>100.245</ele><time>2026-04-25T12:46:16.000Z</time><hdop>4.187</hdop><vdop>4.187</vdop><extensions><gom:speed>0.0</gom:speed></extensions></trkpt>
   <trkpt lat="59.0554568052" lon="29.9623622582"><ele>100.245</ele><time>2026-04-25T12:46:17.000Z</time><hdop>4.187</hdop><vdop>4.187</vdop><extensions><gom:speed>0.0</gom:speed></extensions></trkpt>
   <trkpt lat="59.0554568052" lon="29.9623622582"><ele>100.245</ele><time>2026-04-25T12:46:18.000Z</time><hdop>4.187</hdop><vdop>4.187</vdop><extensions><gom:speed>0.0</gom:speed></extensions></trkpt>
   <trkpt lat="59.0554568052" lon="29.9623622582"><ele>100.245</ele><time>2026-04-25T12:46:19.000Z</time><hdop>4.187</hdop><vdop>4.187</vdop><extensions><gom:speed>0.0</gom:speed></extensions></trkpt>
   <trkpt lat="59.0554568052" lon="29.9623622582"><ele>100.245</ele><time>2026-04-25T12:46:20.000Z</time><hdop>4.187</hdop><vdop>4.187</vdop><extensions><gom:speed>0.0</gom:speed></extensions></trkpt>
   <trkpt lat="59.0554568052" lon="29.9623622582"><ele>100.245</ele><time>2026-04-25T12:46:21.000Z</time><hdop>4.187</hdop><vdop>4.187</vdop><extensions><gom:speed>0.0</gom:speed></extensions></trkpt>
   <trkpt lat="59.0554568052" lon="29.9623622582"><ele>100.245</ele><time>2026-04-25T12:46:22.000Z</time><hdop>4.187</hdop><vdop>4.187</vdop><extensions><gom:speed>0.0</gom:speed></extensions></trkpt>
   <trkpt lat="59.0554568052" lon="29.9623622582"><ele>100.245</ele><time>2026-04-25T12:46:23.000Z</time><hdop>4.187</hdop><vdop>4.187</vdop><extensions><gom:speed>0.0</gom:speed></extensions></trkpt>
   <trkpt lat="59.0554568052" lon="29.9623622582"><ele>100.245</ele><time>2026-04-25T12:46:24.000Z</time><hdop>4.187</hdop><vdop>4.187</vdop><extensions><gom:speed>0.0</gom:speed></extensions></trkpt>
   <trkpt lat="59.0554568052" lon="29.9623622582"><ele>100.245</ele><time>2026-04-25T12:46:25.000Z</time><hdop>4.187</hdop><vdop>4.187</vdop><extensions><gom:speed>0.0</gom:speed></extensions></trkpt>
   <trkpt lat="59.0554568052" lon="29.9623622582"><ele>100.245</ele><time>2026-04-25T12:46:26.000Z</time><hdop>4.187</hdop><vdop>4.187</vdop><extensions><gom:speed>0.0</gom:speed></extensions></trkpt>
   <trkpt lat="59.0554568052" lon="29.9623622582"><ele>100.245</ele><time>2026-04-25T12:46:27.000Z</time><hdop>4.187</hdop><vdop>4.187</vdop><extensions><gom:speed>0.0</gom:speed></extensions></trkpt>
   <trkpt lat="59.0554568052" lon="29.9623622582"><ele>100.245</ele><time>2026-04-25T12:46:28.000Z</time><hdop>4.187</hdop><vdop>4.187</vdop><extensions><gom:speed>0.0</gom:speed></extensions></trkpt>
   <trkpt lat="59.0554568052" lon="29.9623622582"><ele>100.245</ele><time>2026-04-25T12:46:29.000Z</time><hdop>4.187</hdop><vdop>4.187</vdop><extensions><gom:speed>0.0</gom:speed></extensions></trkpt>
   <trkpt lat="59.0554568052" lon="29.9623622582"><ele>100.245</ele><time>2026-04-25T12:46:30.000Z</time><hdop>4.187</hdop><vdop>4.187</vdop><extensions><gom:speed>0.0</gom:speed></extensions></trkpt>
   <trkpt lat="59.0554568052" lon="29.9623622582"><ele>100.245</ele><time>2026-04-25T12:46:31.000Z</time><hdop>4.187</hdop><vdop>4.187</vdop><extensions><gom:speed>0.0</gom:speed></extensions></trkpt>
   <trkpt lat="59.0554568052" lon="29.9623622582"><ele>100.245</ele><time>2026-04-25T12:46:32.000Z</time><hdop>4.187</hdop><vdop>4.187</vdop><extensions><gom:speed>0.0</gom:speed></extensions></trkpt>
   <trkpt lat="59.0554568052" lon="29.9623622582"><ele>100.245</ele><time>2026-04-25T12:46:33.000Z</time><hdop>4.187</hdop><vdop>4.187</vdop><extensions><gom:speed>0.0</gom:speed></extensions></trkpt>
   <trkpt lat="59.0554568052" lon="29.9623622582"><ele>100.245</ele><time>2026-04-25T12:46:33.000Z</time><hdop>4.187</hdop><vdop>4.187</vdop><extensions><gom:speed>0.0</gom:speed></extensions></trkpt>
   <trkpt lat="59.0554568052" lon="29.9623622582"><ele>100.245</ele><time>2026-04-25T12:46:34.000Z</time><hdop>4.187</hdop><vdop>4.187</vdop><extensions><gom:speed>0.0</gom:speed></extensions></trkpt>
   <trkpt lat="59.0554568052" lon="29.9623622582"><ele>100.245</ele><time>2026-04-25T12:46:35.000Z</time><hdop>4.187</hdop><vdop>4.187</vdop><extensions><gom:speed>0.0</gom:speed></extensions></trkpt>
   <trkpt lat="59.0554568052" lon="29.9623622582"><ele>100.245</ele><time>2026-04-25T12:46:36.000Z</time><hdop>4.187</hdop><vdop>4.187</vdop><extensions><gom:speed>0.0</gom:speed></extensions></trkpt>
   <trkpt lat="59.0554568052" lon="29.9623622582"><ele>100.245</ele><time>2026-04-25T12:46:37.000Z</time><hdop>4.187</hdop><vdop>4.187</vdop><extensions><gom:speed>0.0</gom:speed></extensions></trkpt>
   <trkpt lat="59.0554568052" lon="29.9623622582"><ele>100.245</ele><time>2026-04-25T12:46:38.000Z</time><hdop>4.187</hdop><vdop>4.187</vdop><extensions><gom:speed>0.0</gom:speed></extensions></trkpt>
   <trkpt lat="59.0554568052" lon="29.9623622582"><ele>100.245</ele><time>2026-04-25T12:46:39.000Z</time><hdop>4.187</hdop><vdop>4.187</vdop><extensions><gom:speed>0.0</gom:speed></extensions></trkpt>
   <trkpt lat="59.0554568052" lon="29.9623622582"><ele>100.245</ele><time>2026-04-25T12:46:40.000Z</time><hdop>4.187</hdop><vdop>4.187</vdop><extensions><gom:speed>0.0</gom:speed></extensions></trkpt>
   <trkpt lat="59.0554568052" lon="29.9623622582"><ele>100.245</ele><time>2026-04-25T12:46:41.000Z</time><hdop>4.187</hdop><vdop>4.187</vdop><extensions><gom:speed>0.0</gom:speed></extensions></trkpt>
   <trkpt lat="59.0554568052" lon="29.9623622582"><ele>100.245</ele><time>2026-04-25T12:46:42.000Z</time><hdop>4.187</hdop><vdop>4.187</vdop><extensions><gom:speed>0.0</gom:speed></extensions></trkpt>
   <trkpt lat="59.0554568052" lon="29.9623622582"><ele>100.245</ele><time>2026-04-25T12:46:43.000Z</time><hdop>4.187</hdop><vdop>4.187</vdop><extensions><gom:speed>0.0</gom:speed></extensions></trkpt>
   <trkpt lat="59.0554568052" lon="29.9623622582"><ele>100.245</ele><time>2026-04-25T12:46:44.000Z</time><hdop>4.187</hdop><vdop>4.187</vdop><extensions><gom:speed>0.0</gom:speed></extensions></trkpt>
   <trkpt lat="59.0554568052" lon="29.9623622582"><ele>100.245</ele><time>2026-04-25T12:46:45.000Z</time><hdop>4.187</hdop><vdop>4.187</vdop><extensions><gom:speed>0.0</gom:speed></extensions></trkpt>
   <trkpt lat="59.0554568052" lon="29.9623622582"><ele>100.245</ele><time>2026-04-25T12:46:46.000Z</time><hdop>4.187</hdop><vdop>4.187</vdop><extensions><gom:speed>0.0</gom:speed></extensions></trkpt>
   <trkpt lat="59.0554568052" lon="29.9623622582"><ele>100.245</ele><time>2026-04-25T12:46:47.000Z</time><hdop>4.187</hdop><vdop>4.187</vdop><extensions><gom:speed>0.0</gom:speed></extensions></trkpt>
   <trkpt lat="59.0554568052" lon="29.9623622582"><ele>100.245</ele><time>2026-04-25T12:46:48.000Z</time><hdop>4.187</hdop><vdop>4.187</vdop><extensions><gom:speed>0.0</gom:speed></extensions></trkpt>
   <trkpt lat="59.0554568052" lon="29.9623622582"><ele>100.245</ele><time>2026-04-25T12:46:49.000Z</time><hdop>4.187</hdop><vdop>4.187</vdop><extensions><gom:speed>0.0</gom:speed></extensions></trkpt>
   <trkpt lat="59.0554568052" lon="29.9623622582"><ele>100.245</ele><time>2026-04-25T12:46:50.000Z</time><hdop>4.187</hdop><vdop>4.187</vdop><extensions><gom:speed>0.0</gom:speed></extensions></trkpt>
   <trkpt lat="59.0554568052" lon="29.9623622582"><ele>100.245</ele><time>2026-04-25T12:46:51.000Z</time><hdop>4.187</hdop><vdop>4.187</vdop><extensions><gom:speed>0.0</gom:speed></extensions></trkpt>
   <trkpt lat="59.0554568052" lon="29.9623622582"><ele>100.245</ele><time>2026-04-25T12:46:52.000Z</time><hdop>4.187</hdop><vdop>4.187</vdop><extensions><gom:speed>0.0</gom:speed></extensions></trkpt>
   <trkpt lat="59.0554568052" lon="29.9623622582"><ele>100.245</ele><time>2026-04-25T12:46:53.000Z</time><hdop>4.187</hdop><vdop>4.187</vdop><extensions><gom:speed>0.0</gom:speed></extensions></trkpt>
   <trkpt lat="59.0554568052" lon="29.9623622582"><ele>100.245</ele><time>2026-04-25T12:46:54.000Z</time><hdop>4.187</hdop><vdop>4.187</vdop><extensions><gom:speed>0.0</gom:speed></extensions></trkpt>
   <trkpt lat="59.0554568052" lon="29.9623622582"><ele>100.245</ele><time>2026-04-25T12:46:55.000Z</time><hdop>4.187</hdop><vdop>4.187</vdop><extensions><gom:speed>0.0</gom:speed></extensions></trkpt>
   <trkpt lat="59.0554568052" lon="29.9623622582"><ele>100.245</ele><time>2026-04-25T12:46:56.000Z</time><hdop>4.187</hdop><vdop>4.187</vdop><extensions><gom:speed>0.0</gom:speed></extensions></trkpt>
   <trkpt lat="59.0554568052" lon="29.9623622582"><ele>100.245</ele><time>2026-04-25T12:46:57.000Z</time><hdop>4.187</hdop><vdop>4.187</vdop><extensions><gom:speed>0.0</gom:speed></extensions></trkpt>
   <trkpt lat="59.0554568052" lon="29.9623622582"><ele>100.245</ele><time>2026-04-25T12:46:58.000Z</time><hdop>4.187</hdop><vdop>4.187</vdop><extensions><gom:speed>0.0</gom:speed></extensions></trkpt>
   <trkpt lat="59.0554568052" lon="29.9623622582"><ele>100.245</ele><time>2026-04-25T12:46:59.000Z</time><hdop>4.187</hdop><vdop>4.187</vdop><extensions><gom:speed>0.0</gom:speed></extensions></trkpt>
   <trkpt lat="59.0554568052" lon="29.9623622582"><ele>100.245</ele><time>2026-04-25T12:47:00.000Z</time><hdop>4.187</hdop><vdop>4.187</vdop><extensions><gom:speed>0.0</gom:speed></extensions></trkpt>
   <trkpt lat="59.0554568052" lon="29.9623622582"><ele>100.245</ele><time>2026-04-25T12:47:01.000Z</time><hdop>4.187</hdop><vdop>4.187</vdop><extensions><gom:speed>0.0</gom:speed></extensions></trkpt>
   <trkpt lat="59.0554568052" lon="29.9623622582"><ele>100.245</ele><time>2026-04-25T12:47:02.000Z</time><hdop>4.187</hdop><vdop>4.187</vdop><extensions><gom:speed>0.0</gom:speed></extensions></trkpt>
   <trkpt lat="59.0554568052" lon="29.9623622582"><ele>100.245</ele><time>2026-04-25T12:47:03.000Z</time><hdop>4.187</hdop><vdop>4.187</vdop><extensions><gom:speed>0.0</gom:speed></extensions></trkpt>
   <trkpt lat="59.0554568052" lon="29.9623622582"><ele>100.245</ele><time>2026-04-25T12:47:04.000Z</time><hdop>4.187</hdop><vdop>4.187</vdop><extensions><gom:speed>0.0</gom:speed></extensions></trkpt>
   <trkpt lat="59.0554568052" lon="29.9623622582"><ele>100.245</ele><time>2026-04-25T12:47:05.000Z</time><hdop>4.187</hdop><vdop>4.187</vdop><extensions><gom:speed>0.0</gom:speed></extensions></trkpt>
   <trkpt lat="59.0554568052" lon="29.9623622582"><ele>100.245</ele><time>2026-04-25T12:47:06.000Z</time><hdop>4.187</hdop><vdop>4.187</vdop><extensions><gom:speed>0.0</gom:speed></extensions></trkpt>
   <trkpt lat="59.0554568052" lon="29.9623622582"><ele>100.245</ele><time>2026-04-25T12:47:07.000Z</time><hdop>4.187</hdop><vdop>4.187</vdop><extensions><gom:speed>0.0</gom:speed></extensions></trkpt>
   <trkpt lat="59.0554568052" lon="29.9623622582"><ele>100.245</ele><time>2026-04-25T12:47:08.000Z</time><hdop>4.187</hdop><vdop>4.187</vdop><extensions><gom:speed>0.0</gom:speed></extensions></trkpt>
   <trkpt lat="59.0554568052" lon="29.9623622582"><ele>100.245</ele><time>2026-04-25T12:47:09.000Z</time><hdop>4.187</hdop><vdop>4.187</vdop><extensions><gom:speed>0.0</gom:speed></extensions></trkpt>
   <trkpt lat="59.0554568052" lon="29.9623622582"><ele>100.245</ele><time>2026-04-25T12:47:10.000Z</time><hdop>4.187</hdop><vdop>4.187</vdop><extensions><gom:speed>0.0</gom:speed></extensions></trkpt>
   <trkpt lat="59.0554568052" lon="29.9623622582"><ele>100.245</ele><time>2026-04-25T12:47:11.000Z</time><hdop>4.187</hdop><vdop>4.187</vdop><extensions><gom:speed>0.0</gom:speed></extensions></trkpt>
   <trkpt lat="59.0554568052" lon="29.9623622582"><ele>100.245</ele><time>2026-04-25T12:47:12.000Z</time><hdop>4.187</hdop><vdop>4.187</vdop><extensions><gom:speed>0.0</gom:speed></extensions></trkpt>
   <trkpt lat="59.0554568052" lon="29.9623622582"><ele>100.245</ele><time>2026-04-25T12:47:13.000Z</time><hdop>4.187</hdop><vdop>4.187</vdop><extensions><gom:speed>0.0</gom:speed></extensions></trkpt>
   <trkpt lat="59.0554568052" lon="29.9623622582"><ele>100.245</ele><time>2026-04-25T12:47:13.000Z</time><hdop>4.187</hdop><vdop>4.187</vdop><extensions><gom:speed>0.0</gom:speed></extensions></trkpt>
   <trkpt lat="59.0554568052" lon="29.9623622582"><ele>100.245</ele><time>2026-04-25T12:47:14.000Z</time><hdop>4.187</hdop><vdop>4.187</vdop><extensions><gom:speed>0.0</gom:speed></extensions></trkpt>
   <trkpt lat="59.0554568052" lon="29.9623622582"><ele>100.245</ele><time>2026-04-25T12:47:15.000Z</time><hdop>4.187</hdop><vdop>4.187</vdop><extensions><gom:speed>0.0</gom:speed></extensions></trkpt>
   <trkpt lat="59.0554568052" lon="29.9623622582"><ele>100.245</ele><time>2026-04-25T12:47:16.000Z</time><hdop>4.187</hdop><vdop>4.187</vdop><extensions><gom:speed>0.0</gom:speed></extensions></trkpt>
   <trkpt lat="59.0554568052" lon="29.9623622582"><ele>100.245</ele><time>2026-04-25T12:47:17.000Z</time><hdop>4.187</hdop><vdop>4.187</vdop><extensions><gom:speed>0.0</gom:speed></extensions></trkpt>
   <trkpt lat="59.0554568052" lon="29.9623622582"><ele>100.245</ele><time>2026-04-25T12:47:18.000Z</time><hdop>4.187</hdop><vdop>4.187</vdop><extensions><gom:speed>0.0</gom:speed></extensions></trkpt>
   <trkpt lat="59.0554568052" lon="29.9623622582"><ele>100.245</ele><time>2026-04-25T12:47:19.000Z</time><hdop>4.187</hdop><vdop>4.187</vdop><extensions><gom:speed>0.0</gom:speed></extensions></trkpt>
   <trkpt lat="59.0554568052" lon="29.9623622582"><ele>100.245</ele><time>2026-04-25T12:47:20.000Z</time><hdop>4.187</hdop><vdop>4.187</vdop><extensions><gom:speed>0.0</gom:speed></extensions></trkpt>
   <trkpt lat="59.0554568052" lon="29.9623622582"><ele>100.245</ele><time>2026-04-25T12:47:21.000Z</time><hdop>4.187</hdop><vdop>4.187</vdop><extensions><gom:speed>0.0</gom:speed></extensions></trkpt>
   <trkpt lat="59.0554568052" lon="29.9623622582"><ele>100.245</ele><time>2026-04-25T12:47:22.000Z</time><hdop>4.187</hdop><vdop>4.187</vdop><extensions><gom:speed>0.0</gom:speed></extensions></trkpt>
   <trkpt lat="59.0554568052" lon="29.9623622582"><ele>100.245</ele><time>2026-04-25T12:47:23.000Z</time><hdop>4.187</hdop><vdop>4.187</vdop><extensions><gom:speed>0.0</gom:speed></extensions></trkpt>
   <trkpt lat="59.0554568052" lon="29.9623622582"><ele>100.245</ele><time>2026-04-25T12:47:24.000Z</time><hdop>4.187</hdop><vdop>4.187</vdop><extensions><gom:speed>0.0</gom:speed></extensions></trkpt>
   <trkpt lat="59.0554568052" lon="29.9623622582"><ele>100.245</ele><time>2026-04-25T12:47:25.000Z</time><hdop>4.187</hdop><vdop>4.187</vdop><extensions><gom:speed>0.0</gom:speed></extensions></trkpt>
   <trkpt lat="59.0554568052" lon="29.9623622582"><ele>100.245</ele><time>2026-04-25T12:47:26.000Z</time><hdop>4.187</hdop><vdop>4.187</vdop><extensions><gom:speed>0.0</gom:speed></extensions></trkpt>
   <trkpt lat="59.0554568052" lon="29.9623622582"><ele>100.245</ele><time>2026-04-25T12:47:27.000Z</time><hdop>4.187</hdop><vdop>4.187</vdop><extensions><gom:speed>0.0</gom:speed></extensions></trkpt>
   <trkpt lat="59.0554568052" lon="29.9623622582"><ele>100.245</ele><time>2026-04-25T12:47:28.000Z</time><hdop>4.187</hdop><vdop>4.187</vdop><extensions><gom:speed>0.0</gom:speed></extensions></trkpt>
   <trkpt lat="59.0554568052" lon="29.9623622582"><ele>100.245</ele><time>2026-04-25T12:47:29.000Z</time><hdop>4.187</hdop><vdop>4.187</vdop><extensions><gom:speed>0.0</gom:speed></extensions></trkpt>
   <trkpt lat="59.0554568052" lon="29.9623622582"><ele>100.245</ele><time>2026-04-25T12:47:30.000Z</time><hdop>4.187</hdop><vdop>4.187</vdop><extensions><gom:speed>0.0</gom:speed></extensions></trkpt>
   <trkpt lat="59.0554568052" lon="29.9623622582"><ele>100.245</ele><time>2026-04-25T12:47:31.000Z</time><hdop>4.187</hdop><vdop>4.187</vdop><extensions><gom:speed>0.0</gom:speed></extensions></trkpt>
   <trkpt lat="59.0554568052" lon="29.9623622582"><ele>100.245</ele><time>2026-04-25T12:47:32.000Z</time><hdop>4.187</hdop><vdop>4.187</vdop><extensions><gom:speed>0.0</gom:speed></extensions></trkpt>
   <trkpt lat="59.0554568052" lon="29.9623622582"><ele>100.245</ele><time>2026-04-25T12:47:33.000Z</time><hdop>4.187</hdop><vdop>4.187</vdop><extensions><gom:speed>0.0</gom:speed></extensions></trkpt>
   <trkpt lat="59.0554568052" lon="29.9623622582"><ele>100.245</ele><time>2026-04-25T12:47:34.000Z</time><hdop>4.187</hdop><vdop>4.187</vdop><extensions><gom:speed>0.0</gom:speed></extensions></trkpt>
   <trkpt lat="59.0554568052" lon="29.9623622582"><ele>100.245</ele><time>2026-04-25T12:47:35.000Z</time><hdop>4.187</hdop><vdop>4.187</vdop><extensions><gom:speed>0.0</gom:speed></extensions></trkpt>
   <trkpt lat="59.0554568052" lon="29.9623622582"><ele>100.245</ele><time>2026-04-25T12:47:36.000Z</time><hdop>4.187</hdop><vdop>4.187</vdop><extensions><gom:speed>0.0</gom:speed></extensions></trkpt>
   <trkpt lat="59.0554568052" lon="29.9623622582"><ele>100.245</ele><time>2026-04-25T12:47:37.000Z</time><hdop>4.187</hdop><vdop>4.187</vdop><extensions><gom:speed>0.0</gom:speed></extensions></trkpt>
   <trkpt lat="59.0554568052" lon="29.9623622582"><ele>100.245</ele><time>2026-04-25T12:47:38.000Z</time><hdop>4.187</hdop><vdop>4.187</vdop><extensions><gom:speed>0.0</gom:speed></extensions></trkpt>
   <trkpt lat="59.0554568052" lon="29.9623622582"><ele>100.245</ele><time>2026-04-25T12:47:39.000Z</time><hdop>4.187</hdop><vdop>4.187</vdop><extensions><gom:speed>0.0</gom:speed></extensions></trkpt>
   <trkpt lat="59.0554568052" lon="29.9623622582"><ele>100.245</ele><time>2026-04-25T12:47:40.000Z</time><hdop>4.187</hdop><vdop>4.187</vdop><extensions><gom:speed>0.0</gom:speed></extensions></trkpt>
   <trkpt lat="59.0554568052" lon="29.9623622582"><ele>100.245</ele><time>2026-04-25T12:47:41.000Z</time><hdop>4.187</hdop><vdop>4.187</vdop><extensions><gom:speed>0.0</gom:speed></extensions></trkpt>
   <trkpt lat="59.0554568052" lon="29.9623622582"><ele>100.245</ele><time>2026-04-25T12:47:42.000Z</time><hdop>4.187</hdop><vdop>4.187</vdop><extensions><gom:speed>0.0</gom:speed></extensions></trkpt>
   <trkpt lat="59.0554568052" lon="29.9623622582"><ele>100.245</ele><time>2026-04-25T12:47:43.000Z</time><hdop>4.187</hdop><vdop>4.187</vdop><extensions><gom:speed>0.0</gom:speed></extensions></trkpt>
   <trkpt lat="59.0554568052" lon="29.9623622582"><ele>100.245</ele><time>2026-04-25T12:47:44.000Z</time><hdop>4.187</hdop><vdop>4.187</vdop><extensions><gom:speed>0.0</gom:speed></extensions></trkpt>
   <trkpt lat="59.0554568052" lon="29.9623622582"><ele>100.245</ele><time>2026-04-25T12:47:45.000Z</time><hdop>4.187</hdop><vdop>4.187</vdop><extensions><gom:speed>0.0</gom:speed></extensions></trkpt>
   <trkpt lat="59.0554568052" lon="29.9623622582"><ele>100.245</ele><time>2026-04-25T12:47:46.000Z</time><hdop>4.187</hdop><vdop>4.187</vdop><extensions><gom:speed>0.0</gom:speed></extensions></trkpt>
   <trkpt lat="59.0554568052" lon="29.9623622582"><ele>100.245</ele><time>2026-04-25T12:47:47.000Z</time><hdop>4.187</hdop><vdop>4.187</vdop><extensions><gom:speed>0.0</gom:speed></extensions></trkpt>
   <trkpt lat="59.0554568052" lon="29.9623622582"><ele>100.245</ele><time>2026-04-25T12:47:48.000Z</time><hdop>4.187</hdop><vdop>4.187</vdop><extensions><gom:speed>0.0</gom:speed></extensions></trkpt>
   <trkpt lat="59.0554568052" lon="29.9623622582"><ele>100.245</ele><time>2026-04-25T12:47:49.000Z</time><hdop>4.187</hdop><vdop>4.187</vdop><extensions><gom:speed>0.0</gom:speed></extensions></trkpt>
   <trkpt lat="59.0554568052" lon="29.9623622582"><ele>100.245</ele><time>2026-04-25T12:47:50.000Z</time><hdop>4.187</hdop><vdop>4.187</vdop><extensions><gom:speed>0.0</gom:speed></extensions></trkpt>
   <trkpt lat="59.0554568052" lon="29.9623622582"><ele>100.245</ele><time>2026-04-25T12:47:51.000Z</time><hdop>4.187</hdop><vdop>4.187</vdop><extensions><gom:speed>0.0</gom:speed></extensions></trkpt>
   <trkpt lat="59.0554568052" lon="29.9623622582"><ele>100.245</ele><time>2026-04-25T12:47:52.000Z</time><hdop>4.187</hdop><vdop>4.187</vdop><extensions><gom:speed>0.0</gom:speed></extensions></trkpt>
   <trkpt lat="59.0554568052" lon="29.9623622582"><ele>100.245</ele><time>2026-04-25T12:47:53.000Z</time><hdop>4.187</hdop><vdop>4.187</vdop><extensions><gom:speed>0.0</gom:speed></extensions></trkpt>
   <trkpt lat="59.0554568052" lon="29.9623622582"><ele>100.245</ele><time>2026-04-25T12:47:53.000Z</time><hdop>4.187</hdop><vdop>4.187</vdop><extensions><gom:speed>0.0</gom:speed></extensions></trkpt>
   <trkpt lat="59.0554568052" lon="29.9623622582"><ele>100.245</ele><time>2026-04-25T12:47:54.000Z</time><hdop>4.187</hdop><vdop>4.187</vdop><extensions><gom:speed>0.0</gom:speed></extensions></trkpt>
   <trkpt lat="59.0554568052" lon="29.9623622582"><ele>100.245</ele><time>2026-04-25T12:47:55.000Z</time><hdop>4.187</hdop><vdop>4.187</vdop><extensions><gom:speed>0.0</gom:speed></extensions></trkpt>
   <trkpt lat="59.0554568052" lon="29.9623622582"><ele>100.245</ele><time>2026-04-25T12:47:56.000Z</time><hdop>4.187</hdop><vdop>4.187</vdop><extensions><gom:speed>0.0</gom:speed></extensions></trkpt>
   <trkpt lat="59.0554568052" lon="29.9623622582"><ele>100.245</ele><time>2026-04-25T12:47:57.000Z</time><hdop>4.187</hdop><vdop>4.187</vdop><extensions><gom:speed>0.0</gom:speed></extensions></trkpt>
   <trkpt lat="59.0554568052" lon="29.9623622582"><ele>100.245</ele><time>2026-04-25T12:47:58.000Z</time><hdop>4.187</hdop><vdop>4.187</vdop><extensions><gom:speed>0.0</gom:speed></extensions></trkpt>
   <trkpt lat="59.0554568052" lon="29.9623622582"><ele>100.245</ele><time>2026-04-25T12:47:59.000Z</time><hdop>4.187</hdop><vdop>4.187</vdop><extensions><gom:speed>0.0</gom:speed></extensions></trkpt>
   <trkpt lat="59.0554568052" lon="29.9623622582"><ele>100.245</ele><time>2026-04-25T12:48:00.000Z</time><hdop>4.187</hdop><vdop>4.187</vdop><extensions><gom:speed>0.0</gom:speed></extensions></trkpt>
   <trkpt lat="59.0554568052" lon="29.9623622582"><ele>100.245</ele><time>2026-04-25T12:48:01.000Z</time><hdop>4.187</hdop><vdop>4.187</vdop><extensions><gom:speed>0.0</gom:speed></extensions></trkpt>
   <trkpt lat="59.0554568052" lon="29.9623622582"><ele>100.245</ele><time>2026-04-25T12:48:02.000Z</time><hdop>4.187</hdop><vdop>4.187</vdop><extensions><gom:speed>0.0</gom:speed></extensions></trkpt>
   <trkpt lat="59.0554568052" lon="29.9623622582"><ele>100.245</ele><time>2026-04-25T12:48:03.000Z</time><hdop>4.187</hdop><vdop>4.187</vdop><extensions><gom:speed>0.0</gom:speed></extensions></trkpt>
   <trkpt lat="59.0554568052" lon="29.9623622582"><ele>100.245</ele><time>2026-04-25T12:48:04.000Z</time><hdop>4.187</hdop><vdop>4.187</vdop><extensions><gom:speed>0.0</gom:speed></extensions></trkpt>
   <trkpt lat="59.0554568052" lon="29.9623622582"><ele>100.245</ele><time>2026-04-25T12:48:05.000Z</time><hdop>4.187</hdop><vdop>4.187</vdop><extensions><gom:speed>0.0</gom:speed></extensions></trkpt>
   <trkpt lat="59.0554568052" lon="29.9623622582"><ele>100.245</ele><time>2026-04-25T12:48:06.000Z</time><hdop>4.187</hdop><vdop>4.187</vdop><extensions><gom:speed>0.0</gom:speed></extensions></trkpt>
   <trkpt lat="59.0554568052" lon="29.9623622582"><ele>100.245</ele><time>2026-04-25T12:48:07.000Z</time><hdop>4.187</hdop><vdop>4.187</vdop><extensions><gom:speed>0.0</gom:speed></extensions></trkpt>
   <trkpt lat="59.0554568052" lon="29.9623622582"><ele>100.245</ele><time>2026-04-25T12:48:08.000Z</time><hdop>4.187</hdop><vdop>4.187</vdop><extensions><gom:speed>0.0</gom:speed></extensions></trkpt>
   <trkpt lat="59.0554568052" lon="29.9623622582"><ele>100.245</ele><time>2026-04-25T12:48:09.000Z</time><hdop>4.187</hdop><vdop>4.187</vdop><extensions><gom:speed>0.0</gom:speed></extensions></trkpt>
   <trkpt lat="59.0554568052" lon="29.9623622582"><ele>100.245</ele><time>2026-04-25T12:48:10.000Z</time><hdop>4.187</hdop><vdop>4.187</vdop><extensions><gom:speed>0.0</gom:speed></extensions></trkpt>
   <trkpt lat="59.0554568052" lon="29.9623622582"><ele>100.245</ele><time>2026-04-25T12:48:11.000Z</time><hdop>4.187</hdop><vdop>4.187</vdop><extensions><gom:speed>0.0</gom:speed></extensions></trkpt>
   <trkpt lat="59.0554568052" lon="29.9623622582"><ele>100.245</ele><time>2026-04-25T12:48:12.000Z</time><hdop>4.187</hdop><vdop>4.187</vdop><extensions><gom:speed>0.0</gom:speed></extensions></trkpt>
   <trkpt lat="59.0554568052" lon="29.9623622582"><ele>100.245</ele><time>2026-04-25T12:48:12.000Z</time><hdop>4.187</hdop><vdop>4.187</vdop><extensions><gom:speed>0.0</gom:speed></extensions></trkpt>
   <trkpt lat="59.0554568052" lon="29.9623622582"><ele>100.245</ele><time>2026-04-25T12:48:13.000Z</time><hdop>4.187</hdop><vdop>4.187</vdop><extensions><gom:speed>0.0</gom:speed></extensions></trkpt>
   <trkpt lat="59.0554568052" lon="29.9623622582"><ele>100.245</ele><time>2026-04-25T12:48:14.000Z</time><hdop>4.187</hdop><vdop>4.187</vdop><extensions><gom:speed>0.0</gom:speed></extensions></trkpt>
   <trkpt lat="59.0554568052" lon="29.9623622582"><ele>100.245</ele><time>2026-04-25T12:48:15.000Z</time><hdop>4.187</hdop><vdop>4.187</vdop><extensions><gom:speed>0.0</gom:speed></extensions></trkpt>
   <trkpt lat="59.0554568052" lon="29.9623622582"><ele>100.245</ele><time>2026-04-25T12:48:16.000Z</time><hdop>4.187</hdop><vdop>4.187</vdop><extensions><gom:speed>0.0</gom:speed></extensions></trkpt>
   <trkpt lat="59.0554568052" lon="29.9623622582"><ele>100.245</ele><time>2026-04-25T12:48:17.000Z</time><hdop>4.187</hdop><vdop>4.187</vdop><extensions><gom:speed>0.0</gom:speed></extensions></trkpt>
   <trkpt lat="59.0554568052" lon="29.9623622582"><ele>100.245</ele><time>2026-04-25T12:48:18.000Z</time><hdop>4.187</hdop><vdop>4.187</vdop><extensions><gom:speed>0.0</gom:speed></extensions></trkpt>
   <trkpt lat="59.0554568052" lon="29.9623622582"><ele>100.245</ele><time>2026-04-25T12:48:19.000Z</time><hdop>4.187</hdop><vdop>4.187</vdop><extensions><gom:speed>0.0</gom:speed></extensions></trkpt>
   <trkpt lat="59.0554568052" lon="29.9623622582"><ele>100.245</ele><time>2026-04-25T12:48:20.000Z</time><hdop>4.187</hdop><vdop>4.187</vdop><extensions><gom:speed>0.0</gom:speed></extensions></trkpt>
   <trkpt lat="59.0554568052" lon="29.9623622582"><ele>100.245</ele><time>2026-04-25T12:48:21.000Z</time><hdop>4.187</hdop><vdop>4.187</vdop><extensions><gom:speed>0.0</gom:speed></extensions></trkpt>
   <trkpt lat="59.0554568052" lon="29.9623622582"><ele>100.245</ele><time>2026-04-25T12:48:22.000Z</time><hdop>4.187</hdop><vdop>4.187</vdop><extensions><gom:speed>0.0</gom:speed></extensions></trkpt>
   <trkpt lat="59.0554568052" lon="29.9623622582"><ele>100.245</ele><time>2026-04-25T12:48:23.000Z</time><hdop>4.187</hdop><vdop>4.187</vdop><extensions><gom:speed>0.0</gom:speed></extensions></trkpt>
   <trkpt lat="59.0554568052" lon="29.9623622582"><ele>100.245</ele><time>2026-04-25T12:48:24.000Z</time><hdop>4.187</hdop><vdop>4.187</vdop><extensions><gom:speed>0.0</gom:speed></extensions></trkpt>
   <trkpt lat="59.0554568052" lon="29.9623622582"><ele>100.245</ele><time>2026-04-25T12:48:25.000Z</time><hdop>4.187</hdop><vdop>4.187</vdop><extensions><gom:speed>0.0</gom:speed></extensions></trkpt>
   <trkpt lat="59.0554568052" lon="29.9623622582"><ele>100.245</ele><time>2026-04-25T12:48:26.000Z</time><hdop>4.187</hdop><vdop>4.187</vdop><extensions><gom:speed>0.0</gom:speed></extensions></trkpt>
   <trkpt lat="59.0554568052" lon="29.9623622582"><ele>100.245</ele><time>2026-04-25T12:48:27.000Z</time><hdop>4.187</hdop><vdop>4.187</vdop><extensions><gom:speed>0.0</gom:speed></extensions></trkpt>
   <trkpt lat="59.0554542907" lon="29.9623611685"><ele>100.268</ele><time>2026-04-25T12:48:28.000Z</time><hdop>4.312</hdop><vdop>4.312</vdop><extensions><gom:speed>0.555</gom:speed></extensions></trkpt>
   <trkpt lat="59.0554542907" lon="29.9623611685"><ele>100.282</ele><time>2026-04-25T12:48:29.000Z</time><hdop>4.312</hdop><vdop>4.312</vdop><extensions><gom:speed>0.0</gom:speed></extensions></trkpt>
   <trkpt lat="59.0554542907" lon="29.9623611685"><ele>100.29</ele><time>2026-04-25T12:48:30.000Z</time><hdop>4.312</hdop><vdop>4.312</vdop><extensions><gom:speed>0.0</gom:speed></extensions></trkpt>
   <trkpt lat="59.0554542907" lon="29.9623611685"><ele>100.295</ele><time>2026-04-25T12:48:31.000Z</time><hdop>4.312</hdop><vdop>4.312</vdop><extensions><gom:speed>0.0</gom:speed></extensions></trkpt>
   <trkpt lat="59.0554542907" lon="29.9623611685"><ele>100.298</ele><time>2026-04-25T12:48:32.000Z</time><hdop>4.312</hdop><vdop>4.312</vdop><extensions><gom:speed>0.0</gom:speed></extensions></trkpt>
   <trkpt lat="59.0554542907" lon="29.9623611685"><ele>100.299</ele><time>2026-04-25T12:48:33.000Z</time><hdop>4.312</hdop><vdop>4.312</vdop><extensions><gom:speed>0.0</gom:speed></extensions></trkpt>
   <trkpt lat="59.0554542907" lon="29.9623611685"><ele>100.3</ele><time>2026-04-25T12:48:33.000Z</time><hdop>4.312</hdop><vdop>4.312</vdop><extensions><gom:speed>0.0</gom:speed></extensions></trkpt>
   <trkpt lat="59.0554542907" lon="29.9623611685"><ele>100.301</ele><time>2026-04-25T12:48:34.000Z</time><hdop>4.312</hdop><vdop>4.312</vdop><extensions><gom:speed>0.0</gom:speed></extensions></trkpt>
   <trkpt lat="59.0554542907" lon="29.9623611685"><ele>100.301</ele><time>2026-04-25T12:48:35.000Z</time><hdop>4.312</hdop><vdop>4.312</vdop><extensions><gom:speed>0.0</gom:speed></extensions></trkpt>
   <trkpt lat="59.0554542907" lon="29.9623611685"><ele>100.302</ele><time>2026-04-25T12:48:36.000Z</time><hdop>4.312</hdop><vdop>4.312</vdop><extensions><gom:speed>0.0</gom:speed></extensions></trkpt>
   <trkpt lat="59.0554542907" lon="29.9623611685"><ele>100.302</ele><time>2026-04-25T12:48:37.000Z</time><hdop>4.312</hdop><vdop>4.312</vdop><extensions><gom:speed>0.0</gom:speed></extensions></trkpt>
   <trkpt lat="59.0554542907" lon="29.9623611685"><ele>100.302</ele><time>2026-04-25T12:48:38.000Z</time><hdop>4.312</hdop><vdop>4.312</vdop><extensions><gom:speed>0.0</gom:speed></extensions></trkpt>
   <trkpt lat="59.0554542907" lon="29.9623611685"><ele>100.302</ele><time>2026-04-25T12:48:39.000Z</time><hdop>4.312</hdop><vdop>4.312</vdop><extensions><gom:speed>0.0</gom:speed></extensions></trkpt>
   <trkpt lat="59.0554542907" lon="29.9623611685"><ele>100.302</ele><time>2026-04-25T12:48:40.000Z</time><hdop>4.312</hdop><vdop>4.312</vdop><extensions><gom:speed>0.0</gom:speed></extensions></trkpt>
   <trkpt lat="59.0554542907" lon="29.9623611685"><ele>100.302</ele><time>2026-04-25T12:48:41.000Z</time><hdop>4.312</hdop><vdop>4.312</vdop><extensions><gom:speed>0.0</gom:speed></extensions></trkpt>
   <trkpt lat="59.0554542907" lon="29.9623611685"><ele>100.302</ele><time>2026-04-25T12:48:42.000Z</time><hdop>4.312</hdop><vdop>4.312</vdop><extensions><gom:speed>0.0</gom:speed></extensions></trkpt>
   <trkpt lat="59.0554542907" lon="29.9623611685"><ele>100.302</ele><time>2026-04-25T12:48:43.000Z</time><hdop>4.312</hdop><vdop>4.312</vdop><extensions><gom:speed>0.0</gom:speed></extensions></trkpt>
   <trkpt lat="59.0554542907" lon="29.9623611685"><ele>100.302</ele><time>2026-04-25T12:48:44.000Z</time><hdop>4.312</hdop><vdop>4.312</vdop><extensions><gom:speed>0.0</gom:speed></extensions></trkpt>
   <trkpt lat="59.0554542907" lon="29.9623611685"><ele>100.302</ele><time>2026-04-25T12:48:45.000Z</time><hdop>4.312</hdop><vdop>4.312</vdop><extensions><gom:speed>0.0</gom:speed></extensions></trkpt>
   <trkpt lat="59.0554542907" lon="29.9623611685"><ele>100.302</ele><time>2026-04-25T12:48:46.000Z</time><hdop>4.312</hdop><vdop>4.312</vdop><extensions><gom:speed>0.0</gom:speed></extensions></trkpt>
   <trkpt lat="59.0554542907" lon="29.9623611685"><ele>100.302</ele><time>2026-04-25T12:48:47.000Z</time><hdop>4.312</hdop><vdop>4.312</vdop><extensions><gom:speed>0.0</gom:speed></extensions></trkpt>
   <trkpt lat="59.0554542907" lon="29.9623611685"><ele>100.302</ele><time>2026-04-25T12:48:48.000Z</time><hdop>4.312</hdop><vdop>4.312</vdop><extensions><gom:speed>0.0</gom:speed></extensions></trkpt>
   <trkpt lat="59.0554542907" lon="29.9623611685"><ele>100.302</ele><time>2026-04-25T12:48:49.000Z</time><hdop>4.312</hdop><vdop>4.312</vdop><extensions><gom:speed>0.0</gom:speed></extensions></trkpt>
   <trkpt lat="59.0554542907" lon="29.9623611685"><ele>100.302</ele><time>2026-04-25T12:48:50.000Z</time><hdop>4.312</hdop><vdop>4.312</vdop><extensions><gom:speed>0.0</gom:speed></extensions></trkpt>
   <trkpt lat="59.0554542907" lon="29.9623611685"><ele>100.302</ele><time>2026-04-25T12:48:51.000Z</time><hdop>4.312</hdop><vdop>4.312</vdop><extensions><gom:speed>0.0</gom:speed></extensions></trkpt>
   <trkpt lat="59.0554542907" lon="29.9623611685"><ele>100.302</ele><time>2026-04-25T12:48:52.000Z</time><hdop>4.312</hdop><vdop>4.312</vdop><extensions><gom:speed>0.0</gom:speed></extensions></trkpt>
   <trkpt lat="59.0554542907" lon="29.9623611685"><ele>100.302</ele><time>2026-04-25T12:48:53.000Z</time><hdop>4.312</hdop><vdop>4.312</vdop><extensions><gom:speed>0.0</gom:speed></extensions></trkpt>
   <trkpt lat="59.0554542907" lon="29.9623611685"><ele>100.302</ele><time>2026-04-25T12:48:54.000Z</time><hdop>4.312</hdop><vdop>4.312</vdop><extensions><gom:speed>0.0</gom:speed></extensions></trkpt>
   <trkpt lat="59.0554542907" lon="29.9623611685"><ele>100.302</ele><time>2026-04-25T12:48:54.000Z</time><hdop>4.312</hdop><vdop>4.312</vdop><extensions><gom:speed>0.0</gom:speed></extensions></trkpt>
   <trkpt lat="59.0554542907" lon="29.9623611685"><ele>100.302</ele><time>2026-04-25T12:48:55.000Z</time><hdop>4.312</hdop><vdop>4.312</vdop><extensions><gom:speed>0.0</gom:speed></extensions></trkpt>
   <trkpt lat="59.0554542907" lon="29.9623611685"><ele>100.302</ele><time>2026-04-25T12:48:56.000Z</time><hdop>4.312</hdop><vdop>4.312</vdop><extensions><gom:speed>0.0</gom:speed></extensions></trkpt>
   <trkpt lat="59.0554542907" lon="29.9623611685"><ele>100.302</ele><time>2026-04-25T12:48:57.000Z</time><hdop>4.312</hdop><vdop>4.312</vdop><extensions><gom:speed>0.0</gom:speed></extensions></trkpt>
   <trkpt lat="59.0554542907" lon="29.9623611685"><ele>100.302</ele><time>2026-04-25T12:48:58.000Z</time><hdop>4.312</hdop><vdop>4.312</vdop><extensions><gom:speed>0.0</gom:speed></extensions></trkpt>
   <trkpt lat="59.0554542907" lon="29.9623641022"><ele>100.232</ele><time>2026-04-25T12:48:59.000Z</time><hdop>4.062</hdop><vdop>4.062</vdop><extensions><gom:speed>0.208</gom:speed></extensions></trkpt>
   <trkpt lat="59.0554535363" lon="29.9623708915"><ele>100.074</ele><time>2026-04-25T12:49:00.000Z</time><hdop>3.812</hdop><vdop>3.812</vdop><extensions><gom:speed>0.251</gom:speed></extensions></trkpt>
   <trkpt lat="59.0554535363" lon="29.9623765912"><ele>100.021</ele><time>2026-04-25T12:49:01.000Z</time><hdop>3.875</hdop><vdop>3.875</vdop><extensions><gom:speed>0.21</gom:speed></extensions></trkpt>
   <trkpt lat="59.0554523628" lon="29.9623822071"><ele>99.943</ele><time>2026-04-25T12:49:02.000Z</time><hdop>3.687</hdop><vdop>3.687</vdop><extensions><gom:speed>0.216</gom:speed></extensions></trkpt>
   <trkpt lat="59.055451357" lon="29.9623900023"><ele>99.882</ele><time>2026-04-25T12:49:03.000Z</time><hdop>3.5</hdop><vdop>3.5</vdop><extensions><gom:speed>0.473</gom:speed></extensions></trkpt>
   <trkpt lat="59.0554488843" lon="29.9623996415"><ele>99.815</ele><time>2026-04-25T12:49:04.000Z</time><hdop>3.25</hdop><vdop>3.25</vdop><extensions><gom:speed>0.518</gom:speed></extensions></trkpt>
   <trkpt lat="59.0554450706" lon="29.9624112923"><ele>99.715</ele><time>2026-04-25T12:49:05.000Z</time><hdop>3.0</hdop><vdop>3.0</vdop><extensions><gom:speed>0.72</gom:speed></extensions></trkpt>
   <trkpt lat="59.0554445677" lon="29.9624292296"><ele>99.601</ele><time>2026-04-25T12:49:06.000Z</time><hdop>3.0</hdop><vdop>3.0</vdop><extensions><gom:speed>0.825</gom:speed></extensions></trkpt>
   <trkpt lat="59.0554461602" lon="29.9624459934"><ele>99.585</ele><time>2026-04-25T12:49:07.000Z</time><hdop>3.0</hdop><vdop>3.0</vdop><extensions><gom:speed>0.734</gom:speed></extensions></trkpt>
   <trkpt lat="59.0554488843" lon="29.9624611646"><ele>99.614</ele><time>2026-04-25T12:49:08.000Z</time><hdop>3.0</hdop><vdop>3.0</vdop><extensions><gom:speed>0.694</gom:speed></extensions></trkpt>
   <trkpt lat="59.0554495968" lon="29.9624739051"><ele>99.671</ele><time>2026-04-25T12:49:09.000Z</time><hdop>3.0</hdop><vdop>3.0</vdop><extensions><gom:speed>0.573</gom:speed></extensions></trkpt>
   <trkpt lat="59.0554518599" lon="29.9624853883"><ele>99.707</ele><time>2026-04-25T12:49:10.000Z</time><hdop>3.0</hdop><vdop>3.0</vdop><extensions><gom:speed>0.718</gom:speed></extensions></trkpt>
   <trkpt lat="59.0554534944" lon="29.9624977097"><ele>99.693</ele><time>2026-04-25T12:49:11.000Z</time><hdop>3.0</hdop><vdop>3.0</vdop><extensions><gom:speed>0.908</gom:speed></extensions></trkpt>
   <trkpt lat="59.0554545421" lon="29.9625060916"><ele>99.774</ele><time>2026-04-25T12:49:12.000Z</time><hdop>3.0</hdop><vdop>3.0</vdop><extensions><gom:speed>0.24</gom:speed></extensions></trkpt>
   <trkpt lat="59.0554555899" lon="29.9625055887"><ele>99.826</ele><time>2026-04-25T12:49:13.000Z</time><hdop>3.0</hdop><vdop>3.0</vdop><extensions><gom:speed>0.145</gom:speed></extensions></trkpt>
   <trkpt lat="59.0554555899" lon="29.9625055887"><ele>99.858</ele><time>2026-04-25T12:49:13.000Z</time><hdop>3.0</hdop><vdop>3.0</vdop><extensions><gom:speed>0.145</gom:speed></extensions></trkpt>
   <trkpt lat="59.0554546679" lon="29.9625008948"><ele>99.953</ele><time>2026-04-25T12:49:14.000Z</time><hdop>3.0</hdop><vdop>3.0</vdop><extensions><gom:speed>0.198</gom:speed></extensions></trkpt>
   <trkpt lat="59.0554528238" lon="29.9624950275"><ele>100.085</ele><time>2026-04-25T12:49:15.000Z</time><hdop>3.0</hdop><vdop>3.0</vdop><extensions><gom:speed>0.178</gom:speed></extensions></trkpt>
   <trkpt lat="59.0554528238" lon="29.9624950275"><ele>100.163</ele><time>2026-04-25T12:49:16.000Z</time><hdop>3.0</hdop><vdop>3.0</vdop><extensions><gom:speed>0.0</gom:speed></extensions></trkpt>
   <trkpt lat="59.0554528238" lon="29.9624950275"><ele>100.21</ele><time>2026-04-25T12:49:17.000Z</time><hdop>3.0</hdop><vdop>3.0</vdop><extensions><gom:speed>0.0</gom:speed></extensions></trkpt>
   <trkpt lat="59.0554528238" lon="29.9624950275"><ele>100.238</ele><time>2026-04-25T12:49:18.000Z</time><hdop>3.0</hdop><vdop>3.0</vdop><extensions><gom:speed>0.0</gom:speed></extensions></trkpt>
   <trkpt lat="59.0554528238" lon="29.9624950275"><ele>100.255</ele><time>2026-04-25T12:49:19.000Z</time><hdop>3.0</hdop><vdop>3.0</vdop><extensions><gom:speed>0.0</gom:speed></extensions></trkpt>
   <trkpt lat="59.0554482976" lon="29.9624987994"><ele>100.343</ele><time>2026-04-25T12:49:20.000Z</time><hdop>3.0</hdop><vdop>3.0</vdop><extensions><gom:speed>0.677</gom:speed></extensions></trkpt>
   <trkpt lat="59.0554423465" lon="29.9625027389"><ele>100.42</ele><time>2026-04-25T12:49:21.000Z</time><hdop>3.0</hdop><vdop>3.0</vdop><extensions><gom:speed>0.639</gom:speed></extensions></trkpt>
   <trkpt lat="59.0554400414" lon="29.9625107017"><ele>100.412</ele><time>2026-04-25T12:49:22.000Z</time><hdop>3.0</hdop><vdop>3.0</vdop><extensions><gom:speed>0.621</gom:speed></extensions></trkpt>
   <trkpt lat="59.0554385746" lon="29.9625257891"><ele>100.466</ele><time>2026-04-25T12:49:23.000Z</time><hdop>3.0</hdop><vdop>3.0</vdop><extensions><gom:speed>0.738</gom:speed></extensions></trkpt>
   <trkpt lat="59.0554394128" lon="29.9625413794"><ele>100.451</ele><time>2026-04-25T12:49:24.000Z</time><hdop>3.0</hdop><vdop>3.0</vdop><extensions><gom:speed>0.722</gom:speed></extensions></trkpt>
   <trkpt lat="59.0554426817" lon="29.9625544552"><ele>100.419</ele><time>2026-04-25T12:49:25.000Z</time><hdop>3.0</hdop><vdop>3.0</vdop><extensions><gom:speed>0.891</gom:speed></extensions></trkpt>
   <trkpt lat="59.0554502674" lon="29.9625661899"><ele>100.346</ele><time>2026-04-25T12:49:26.000Z</time><hdop>3.0</hdop><vdop>3.0</vdop><extensions><gom:speed>1.062</gom:speed></extensions></trkpt>
   <trkpt lat="59.0554574758" lon="29.9625717219"><ele>100.449</ele><time>2026-04-25T12:49:27.000Z</time><hdop>3.312</hdop><vdop>3.312</vdop><extensions><gom:speed>0.836</gom:speed></extensions></trkpt>
   <trkpt lat="59.0554621697" lon="29.9625722248"><ele>100.579</ele><time>2026-04-25T12:49:28.000Z</time><hdop>4.125</hdop><vdop>4.125</vdop><extensions><gom:speed>0.397</gom:speed></extensions></trkpt>
   <trkpt lat="59.0554639299" lon="29.9625747394"><ele>100.669</ele><time>2026-04-25T12:49:29.000Z</time><hdop>3.562</hdop><vdop>3.562</vdop><extensions><gom:speed>0.378</gom:speed></extensions></trkpt>
   <trkpt lat="59.0554644328" lon="29.9625769187"><ele>100.83</ele><time>2026-04-25T12:49:30.000Z</time><hdop>4.125</hdop><vdop>4.125</vdop><extensions><gom:speed>0.288</gom:speed></extensions></trkpt>
   <trkpt lat="59.0554645166" lon="29.9625735659"><ele>100.985</ele><time>2026-04-25T12:49:31.000Z</time><hdop>4.437</hdop><vdop>4.437</vdop><extensions><gom:speed>0.257</gom:speed></extensions></trkpt>
   <trkpt lat="59.05546481" lon="29.9625702132"><ele>101.093</ele><time>2026-04-25T12:49:32.000Z</time><hdop>4.687</hdop><vdop>4.687</vdop><extensions><gom:speed>0.234</gom:speed></extensions></trkpt>
   <trkpt lat="59.0554638879" lon="29.9625671957"><ele>101.236</ele><time>2026-04-25T12:49:33.000Z</time><hdop>4.562</hdop><vdop>4.562</vdop><extensions><gom:speed>0.271</gom:speed></extensions></trkpt>
   <trkpt lat="59.0554638879" lon="29.9625671957"><ele>101.322</ele><time>2026-04-25T12:49:34.000Z</time><hdop>4.562</hdop><vdop>4.562</vdop><extensions><gom:speed>0.0</gom:speed></extensions></trkpt>
   <trkpt lat="59.0554638879" lon="29.9625671957"><ele>101.373</ele><time>2026-04-25T12:49:34.000Z</time><hdop>4.562</hdop><vdop>4.562</vdop><extensions><gom:speed>0.0</gom:speed></extensions></trkpt>
   <trkpt lat="59.0554638879" lon="29.9625671957"><ele>101.404</ele><time>2026-04-25T12:49:35.000Z</time><hdop>4.562</hdop><vdop>4.562</vdop><extensions><gom:speed>0.0</gom:speed></extensions></trkpt>
   <trkpt lat="59.0554638879" lon="29.9625671957"><ele>101.422</ele><time>2026-04-25T12:49:36.000Z</time><hdop>4.562</hdop><vdop>4.562</vdop><extensions><gom:speed>0.0</gom:speed></extensions></trkpt>
   <trkpt lat="59.0554638879" lon="29.9625671957"><ele>101.433</ele><time>2026-04-25T12:49:37.000Z</time><hdop>4.562</hdop><vdop>4.562</vdop><extensions><gom:speed>0.0</gom:speed></extensions></trkpt>
   <trkpt lat="59.0554638879" lon="29.9625671957"><ele>101.439</ele><time>2026-04-25T12:49:38.000Z</time><hdop>4.562</hdop><vdop>4.562</vdop><extensions><gom:speed>0.0</gom:speed></extensions></trkpt>
   <trkpt lat="59.0554638879" lon="29.9625671957"><ele>101.443</ele><time>2026-04-25T12:49:39.000Z</time><hdop>4.562</hdop><vdop>4.562</vdop><extensions><gom:speed>0.0</gom:speed></extensions></trkpt>
   <trkpt lat="59.0554638879" lon="29.9625671957"><ele>101.446</ele><time>2026-04-25T12:49:40.000Z</time><hdop>4.562</hdop><vdop>4.562</vdop><extensions><gom:speed>0.0</gom:speed></extensions></trkpt>
   <trkpt lat="59.0554638879" lon="29.9625671957"><ele>101.447</ele><time>2026-04-25T12:49:41.000Z</time><hdop>4.562</hdop><vdop>4.562</vdop><extensions><gom:speed>0.0</gom:speed></extensions></trkpt>
   <trkpt lat="59.0554638879" lon="29.9625671957"><ele>101.448</ele><time>2026-04-25T12:49:42.000Z</time><hdop>4.562</hdop><vdop>4.562</vdop><extensions><gom:speed>0.0</gom:speed></extensions></trkpt>
   <trkpt lat="59.0554638879" lon="29.9625671957"><ele>101.448</ele><time>2026-04-25T12:49:43.000Z</time><hdop>4.562</hdop><vdop>4.562</vdop><extensions><gom:speed>0.0</gom:speed></extensions></trkpt>
   <trkpt lat="59.0554638879" lon="29.9625671957"><ele>101.449</ele><time>2026-04-25T12:49:44.000Z</time><hdop>4.562</hdop><vdop>4.562</vdop><extensions><gom:speed>0.0</gom:speed></extensions></trkpt>
   <trkpt lat="59.0554638879" lon="29.9625671957"><ele>101.449</ele><time>2026-04-25T12:49:45.000Z</time><hdop>4.562</hdop><vdop>4.562</vdop><extensions><gom:speed>0.0</gom:speed></extensions></trkpt>
   <trkpt lat="59.0554638879" lon="29.9625671957"><ele>101.449</ele><time>2026-04-25T12:49:46.000Z</time><hdop>4.562</hdop><vdop>4.562</vdop><extensions><gom:speed>0.0</gom:speed></extensions></trkpt>
   <trkpt lat="59.0554638879" lon="29.9625671957"><ele>101.449</ele><time>2026-04-25T12:49:47.000Z</time><hdop>4.562</hdop><vdop>4.562</vdop><extensions><gom:speed>0.0</gom:speed></extensions></trkpt>
   <trkpt lat="59.0554638879" lon="29.9625671957"><ele>101.449</ele><time>2026-04-25T12:49:48.000Z</time><hdop>4.562</hdop><vdop>4.562</vdop><extensions><gom:speed>0.0</gom:speed></extensions></trkpt>
   <trkpt lat="59.0554638879" lon="29.9625671957"><ele>101.449</ele><time>2026-04-25T12:49:49.000Z</time><hdop>4.562</hdop><vdop>4.562</vdop><extensions><gom:speed>0.0</gom:speed></extensions></trkpt>
   <trkpt lat="59.0554638879" lon="29.9625671957"><ele>101.449</ele><time>2026-04-25T12:49:50.000Z</time><hdop>4.562</hdop><vdop>4.562</vdop><extensions><gom:speed>0.0</gom:speed></extensions></trkpt>
   <trkpt lat="59.0554638879" lon="29.9625671957"><ele>101.449</ele><time>2026-04-25T12:49:51.000Z</time><hdop>4.562</hdop><vdop>4.562</vdop><extensions><gom:speed>0.0</gom:speed></extensions></trkpt>
   <trkpt lat="59.0554638879" lon="29.9625671957"><ele>101.449</ele><time>2026-04-25T12:49:52.000Z</time><hdop>4.562</hdop><vdop>4.562</vdop><extensions><gom:speed>0.0</gom:speed></extensions></trkpt>
   <trkpt lat="59.0554638879" lon="29.9625671957"><ele>101.449</ele><time>2026-04-25T12:49:53.000Z</time><hdop>4.562</hdop><vdop>4.562</vdop><extensions><gom:speed>0.0</gom:speed></extensions></trkpt>
   <trkpt lat="59.0554638879" lon="29.9625671957"><ele>101.449</ele><time>2026-04-25T12:49:54.000Z</time><hdop>4.562</hdop><vdop>4.562</vdop><extensions><gom:speed>0.0</gom:speed></extensions></trkpt>
   <trkpt lat="59.0554638879" lon="29.9625671957"><ele>101.449</ele><time>2026-04-25T12:49:55.000Z</time><hdop>4.562</hdop><vdop>4.562</vdop><extensions><gom:speed>0.0</gom:speed></extensions></trkpt>
   <trkpt lat="59.0554638879" lon="29.9625671957"><ele>101.449</ele><time>2026-04-25T12:49:56.000Z</time><hdop>4.562</hdop><vdop>4.562</vdop><extensions><gom:speed>0.0</gom:speed></extensions></trkpt>
   <trkpt lat="59.0554638879" lon="29.9625671957"><ele>101.449</ele><time>2026-04-25T12:49:57.000Z</time><hdop>4.562</hdop><vdop>4.562</vdop><extensions><gom:speed>0.0</gom:speed></extensions></trkpt>
   <trkpt lat="59.0554638879" lon="29.9625671957"><ele>101.449</ele><time>2026-04-25T12:49:58.000Z</time><hdop>4.562</hdop><vdop>4.562</vdop><extensions><gom:speed>0.0</gom:speed></extensions></trkpt>
   <trkpt lat="59.0554638879" lon="29.9625671957"><ele>101.449</ele><time>2026-04-25T12:49:59.000Z</time><hdop>4.562</hdop><vdop>4.562</vdop><extensions><gom:speed>0.0</gom:speed></extensions></trkpt>
   <trkpt lat="59.0554638879" lon="29.9625671957"><ele>101.449</ele><time>2026-04-25T12:50:00.000Z</time><hdop>4.562</hdop><vdop>4.562</vdop><extensions><gom:speed>0.0</gom:speed></extensions></trkpt>
   <trkpt lat="59.0554638879" lon="29.9625671957"><ele>101.449</ele><time>2026-04-25T12:50:01.000Z</time><hdop>4.562</hdop><vdop>4.562</vdop><extensions><gom:speed>0.0</gom:speed></extensions></trkpt>
   <trkpt lat="59.0554638879" lon="29.9625671957"><ele>101.449</ele><time>2026-04-25T12:50:02.000Z</time><hdop>4.562</hdop><vdop>4.562</vdop><extensions><gom:speed>0.0</gom:speed></extensions></trkpt>
   <trkpt lat="59.0554638879" lon="29.9625671957"><ele>101.449</ele><time>2026-04-25T12:50:03.000Z</time><hdop>4.562</hdop><vdop>4.562</vdop><extensions><gom:speed>0.0</gom:speed></extensions></trkpt>
   <trkpt lat="59.0554638879" lon="29.9625671957"><ele>101.449</ele><time>2026-04-25T12:50:04.000Z</time><hdop>4.562</hdop><vdop>4.562</vdop><extensions><gom:speed>0.0</gom:speed></extensions></trkpt>
   <trkpt lat="59.0554638879" lon="29.9625671957"><ele>101.449</ele><time>2026-04-25T12:50:05.000Z</time><hdop>4.562</hdop><vdop>4.562</vdop><extensions><gom:speed>0.0</gom:speed></extensions></trkpt>
   <trkpt lat="59.0554638879" lon="29.9625671957"><ele>101.449</ele><time>2026-04-25T12:50:06.000Z</time><hdop>4.562</hdop><vdop>4.562</vdop><extensions><gom:speed>0.0</gom:speed></extensions></trkpt>
   <trkpt lat="59.0554638879" lon="29.9625671957"><ele>101.449</ele><time>2026-04-25T12:50:07.000Z</time><hdop>4.562</hdop><vdop>4.562</vdop><extensions><gom:speed>0.0</gom:speed></extensions></trkpt>
   <trkpt lat="59.0554638879" lon="29.9625671957"><ele>101.449</ele><time>2026-04-25T12:50:08.000Z</time><hdop>4.562</hdop><vdop>4.562</vdop><extensions><gom:speed>0.0</gom:speed></extensions></trkpt>
   <trkpt lat="59.0554638879" lon="29.9625671957"><ele>101.449</ele><time>2026-04-25T12:50:09.000Z</time><hdop>4.562</hdop><vdop>4.562</vdop><extensions><gom:speed>0.0</gom:speed></extensions></trkpt>
   <trkpt lat="59.0554638879" lon="29.9625671957"><ele>101.449</ele><time>2026-04-25T12:50:10.000Z</time><hdop>4.562</hdop><vdop>4.562</vdop><extensions><gom:speed>0.0</gom:speed></extensions></trkpt>
   <trkpt lat="59.0554638879" lon="29.9625671957"><ele>101.449</ele><time>2026-04-25T12:50:11.000Z</time><hdop>4.562</hdop><vdop>4.562</vdop><extensions><gom:speed>0.0</gom:speed></extensions></trkpt>
   <trkpt lat="59.0554638879" lon="29.9625671957"><ele>101.449</ele><time>2026-04-25T12:50:12.000Z</time><hdop>4.562</hdop><vdop>4.562</vdop><extensions><gom:speed>0.0</gom:speed></extensions></trkpt>
   <trkpt lat="59.0554638879" lon="29.9625671957"><ele>101.449</ele><time>2026-04-25T12:50:13.000Z</time><hdop>4.562</hdop><vdop>4.562</vdop><extensions><gom:speed>0.0</gom:speed></extensions></trkpt>
   <trkpt lat="59.0554638879" lon="29.9625671957"><ele>101.449</ele><time>2026-04-25T12:50:14.000Z</time><hdop>4.562</hdop><vdop>4.562</vdop><extensions><gom:speed>0.0</gom:speed></extensions></trkpt>
   <trkpt lat="59.0554638879" lon="29.9625671957"><ele>101.449</ele><time>2026-04-25T12:50:14.000Z</time><hdop>4.562</hdop><vdop>4.562</vdop><extensions><gom:speed>0.0</gom:speed></extensions></trkpt>
   <trkpt lat="59.0554638879" lon="29.9625671957"><ele>101.449</ele><time>2026-04-25T12:50:15.000Z</time><hdop>4.562</hdop><vdop>4.562</vdop><extensions><gom:speed>0.0</gom:speed></extensions></trkpt>
   <trkpt lat="59.0554638879" lon="29.9625671957"><ele>101.449</ele><time>2026-04-25T12:50:16.000Z</time><hdop>4.562</hdop><vdop>4.562</vdop><extensions><gom:speed>0.0</gom:speed></extensions></trkpt>
   <trkpt lat="59.0554638879" lon="29.9625671957"><ele>101.449</ele><time>2026-04-25T12:50:17.000Z</time><hdop>4.562</hdop><vdop>4.562</vdop><extensions><gom:speed>0.0</gom:speed></extensions></trkpt>
   <trkpt lat="59.0554638879" lon="29.9625671957"><ele>101.449</ele><time>2026-04-25T12:50:18.000Z</time><hdop>4.562</hdop><vdop>4.562</vdop><extensions><gom:speed>0.0</gom:speed></extensions></trkpt>
   <trkpt lat="59.0554638879" lon="29.9625671957"><ele>101.449</ele><time>2026-04-25T12:50:19.000Z</time><hdop>4.562</hdop><vdop>4.562</vdop><extensions><gom:speed>0.0</gom:speed></extensions></trkpt>
   <trkpt lat="59.0554638879" lon="29.9625671957"><ele>101.449</ele><time>2026-04-25T12:50:20.000Z</time><hdop>4.562</hdop><vdop>4.562</vdop><extensions><gom:speed>0.0</gom:speed></extensions></trkpt>
   <trkpt lat="59.0554638879" lon="29.9625671957"><ele>101.449</ele><time>2026-04-25T12:50:21.000Z</time><hdop>4.562</hdop><vdop>4.562</vdop><extensions><gom:speed>0.0</gom:speed></extensions></trkpt>
   <trkpt lat="59.0554638879" lon="29.9625671957"><ele>101.449</ele><time>2026-04-25T12:50:22.000Z</time><hdop>4.562</hdop><vdop>4.562</vdop><extensions><gom:speed>0.0</gom:speed></extensions></trkpt>
   <trkpt lat="59.0554638879" lon="29.9625671957"><ele>101.449</ele><time>2026-04-25T12:50:23.000Z</time><hdop>4.562</hdop><vdop>4.562</vdop><extensions><gom:speed>0.0</gom:speed></extensions></trkpt>
   <trkpt lat="59.0554638879" lon="29.9625671957"><ele>101.449</ele><time>2026-04-25T12:50:24.000Z</time><hdop>4.562</hdop><vdop>4.562</vdop><extensions><gom:speed>0.0</gom:speed></extensions></trkpt>
   <trkpt lat="59.0554638879" lon="29.9625671957"><ele>101.449</ele><time>2026-04-25T12:50:25.000Z</time><hdop>4.562</hdop><vdop>4.562</vdop><extensions><gom:speed>0.0</gom:speed></extensions></trkpt>
   <trkpt lat="59.0554638879" lon="29.9625671957"><ele>101.449</ele><time>2026-04-25T12:50:26.000Z</time><hdop>4.562</hdop><vdop>4.562</vdop><extensions><gom:speed>0.0</gom:speed></extensions></trkpt>
   <trkpt lat="59.0554638879" lon="29.9625671957"><ele>101.449</ele><time>2026-04-25T12:50:27.000Z</time><hdop>4.562</hdop><vdop>4.562</vdop><extensions><gom:speed>0.0</gom:speed></extensions></trkpt>
   <trkpt lat="59.0554638879" lon="29.9625671957"><ele>101.449</ele><time>2026-04-25T12:50:28.000Z</time><hdop>4.562</hdop><vdop>4.562</vdop><extensions><gom:speed>0.0</gom:speed></extensions></trkpt>
   <trkpt lat="59.0554638879" lon="29.9625671957"><ele>101.449</ele><time>2026-04-25T12:50:29.000Z</time><hdop>4.562</hdop><vdop>4.562</vdop><extensions><gom:speed>0.0</gom:speed></extensions></trkpt>
   <trkpt lat="59.0554638879" lon="29.9625671957"><ele>101.449</ele><time>2026-04-25T12:50:30.000Z</time><hdop>4.562</hdop><vdop>4.562</vdop><extensions><gom:speed>0.0</gom:speed></extensions></trkpt>
   <trkpt lat="59.0554638879" lon="29.9625671957"><ele>101.449</ele><time>2026-04-25T12:50:31.000Z</time><hdop>4.562</hdop><vdop>4.562</vdop><extensions><gom:speed>0.0</gom:speed></extensions></trkpt>
   <trkpt lat="59.0554638879" lon="29.9625671957"><ele>101.449</ele><time>2026-04-25T12:50:32.000Z</time><hdop>4.562</hdop><vdop>4.562</vdop><extensions><gom:speed>0.0</gom:speed></extensions></trkpt>
   <trkpt lat="59.0554638879" lon="29.9625671957"><ele>101.449</ele><time>2026-04-25T12:50:33.000Z</time><hdop>4.562</hdop><vdop>4.562</vdop><extensions><gom:speed>0.0</gom:speed></extensions></trkpt>
   <trkpt lat="59.0554638879" lon="29.9625671957"><ele>101.449</ele><time>2026-04-25T12:50:34.000Z</time><hdop>4.562</hdop><vdop>4.562</vdop><extensions><gom:speed>0.0</gom:speed></extensions></trkpt>
   <trkpt lat="59.0554638879" lon="29.9625671957"><ele>101.449</ele><time>2026-04-25T12:50:34.000Z</time><hdop>4.562</hdop><vdop>4.562</vdop><extensions><gom:speed>0.0</gom:speed></extensions></trkpt>
   <trkpt lat="59.0554638879" lon="29.9625671957"><ele>101.449</ele><time>2026-04-25T12:50:35.000Z</time><hdop>4.562</hdop><vdop>4.562</vdop><extensions><gom:speed>0.0</gom:speed></extensions></trkpt>
   <trkpt lat="59.0554638879" lon="29.9625671957"><ele>101.449</ele><time>2026-04-25T12:50:36.000Z</time><hdop>4.562</hdop><vdop>4.562</vdop><extensions><gom:speed>0.0</gom:speed></extensions></trkpt>
   <trkpt lat="59.0554638879" lon="29.9625671957"><ele>101.449</ele><time>2026-04-25T12:50:37.000Z</time><hdop>4.562</hdop><vdop>4.562</vdop><extensions><gom:speed>0.0</gom:speed></extensions></trkpt>
   <trkpt lat="59.0554638879" lon="29.9625671957"><ele>101.449</ele><time>2026-04-25T12:50:38.000Z</time><hdop>4.562</hdop><vdop>4.562</vdop><extensions><gom:speed>0.0</gom:speed></extensions></trkpt>
   <trkpt lat="59.0554638879" lon="29.9625671957"><ele>101.449</ele><time>2026-04-25T12:50:39.000Z</time><hdop>4.562</hdop><vdop>4.562</vdop><extensions><gom:speed>0.0</gom:speed></extensions></trkpt>
   <trkpt lat="59.0554638879" lon="29.9625671957"><ele>101.449</ele><time>2026-04-25T12:50:40.000Z</time><hdop>4.562</hdop><vdop>4.562</vdop><extensions><gom:speed>0.0</gom:speed></extensions></trkpt>
   <trkpt lat="59.0554638879" lon="29.9625671957"><ele>101.449</ele><time>2026-04-25T12:50:41.000Z</time><hdop>4.562</hdop><vdop>4.562</vdop><extensions><gom:speed>0.0</gom:speed></extensions></trkpt>
   <trkpt lat="59.0554638879" lon="29.9625671957"><ele>101.449</ele><time>2026-04-25T12:50:42.000Z</time><hdop>4.562</hdop><vdop>4.562</vdop><extensions><gom:speed>0.0</gom:speed></extensions></trkpt>
   <trkpt lat="59.0554638879" lon="29.9625671957"><ele>101.449</ele><time>2026-04-25T12:50:43.000Z</time><hdop>4.562</hdop><vdop>4.562</vdop><extensions><gom:speed>0.0</gom:speed></extensions></trkpt>
   <trkpt lat="59.0554638879" lon="29.9625671957"><ele>101.449</ele><time>2026-04-25T12:50:44.000Z</time><hdop>4.562</hdop><vdop>4.562</vdop><extensions><gom:speed>0.0</gom:speed></extensions></trkpt>
   <trkpt lat="59.0554638879" lon="29.9625671957"><ele>101.449</ele><time>2026-04-25T12:50:45.000Z</time><hdop>4.562</hdop><vdop>4.562</vdop><extensions><gom:speed>0.0</gom:speed></extensions></trkpt>
   <trkpt lat="59.0554638879" lon="29.9625671957"><ele>101.449</ele><time>2026-04-25T12:50:46.000Z</time><hdop>4.562</hdop><vdop>4.562</vdop><extensions><gom:speed>0.0</gom:speed></extensions></trkpt>
   <trkpt lat="59.0554638879" lon="29.9625671957"><ele>101.449</ele><time>2026-04-25T12:50:47.000Z</time><hdop>4.562</hdop><vdop>4.562</vdop><extensions><gom:speed>0.0</gom:speed></extensions></trkpt>
   <trkpt lat="59.0554638879" lon="29.9625671957"><ele>101.449</ele><time>2026-04-25T12:50:48.000Z</time><hdop>4.562</hdop><vdop>4.562</vdop><extensions><gom:speed>0.0</gom:speed></extensions></trkpt>
   <trkpt lat="59.0554638879" lon="29.9625671957"><ele>101.449</ele><time>2026-04-25T12:50:49.000Z</time><hdop>4.562</hdop><vdop>4.562</vdop><extensions><gom:speed>0.0</gom:speed></extensions></trkpt>
   <trkpt lat="59.0554638879" lon="29.9625671957"><ele>101.449</ele><time>2026-04-25T12:50:50.000Z</time><hdop>4.562</hdop><vdop>4.562</vdop><extensions><gom:speed>0.0</gom:speed></extensions></trkpt>
   <trkpt lat="59.0554638879" lon="29.9625671957"><ele>101.449</ele><time>2026-04-25T12:50:51.000Z</time><hdop>4.562</hdop><vdop>4.562</vdop><extensions><gom:speed>0.0</gom:speed></extensions></trkpt>
   <trkpt lat="59.0554638879" lon="29.9625671957"><ele>101.449</ele><time>2026-04-25T12:50:52.000Z</time><hdop>4.562</hdop><vdop>4.562</vdop><extensions><gom:speed>0.0</gom:speed></extensions></trkpt>
   <trkpt lat="59.0554638879" lon="29.9625671957"><ele>101.449</ele><time>2026-04-25T12:50:53.000Z</time><hdop>4.562</hdop><vdop>4.562</vdop><extensions><gom:speed>0.0</gom:speed></extensions></trkpt>
   <trkpt lat="59.0554638879" lon="29.9625671957"><ele>101.449</ele><time>2026-04-25T12:50:53.000Z</time><hdop>4.562</hdop><vdop>4.562</vdop><extensions><gom:speed>0.0</gom:speed></extensions></trkpt>
   <trkpt lat="59.0554638879" lon="29.9625671957"><ele>101.449</ele><time>2026-04-25T12:50:54.000Z</time><hdop>4.562</hdop><vdop>4.562</vdop><extensions><gom:speed>0.0</gom:speed></extensions></trkpt>
   <trkpt lat="59.0554638879" lon="29.9625671957"><ele>101.449</ele><time>2026-04-25T12:50:55.000Z</time><hdop>4.562</hdop><vdop>4.562</vdop><extensions><gom:speed>0.0</gom:speed></extensions></trkpt>
   <trkpt lat="59.0554638879" lon="29.9625671957"><ele>101.449</ele><time>2026-04-25T12:50:56.000Z</time><hdop>4.562</hdop><vdop>4.562</vdop><extensions><gom:speed>0.0</gom:speed></extensions></trkpt>
   <trkpt lat="59.0554638879" lon="29.9625671957"><ele>101.449</ele><time>2026-04-25T12:50:57.000Z</time><hdop>4.562</hdop><vdop>4.562</vdop><extensions><gom:speed>0.0</gom:speed></extensions></trkpt>
   <trkpt lat="59.0554638879" lon="29.9625671957"><ele>101.449</ele><time>2026-04-25T12:50:58.000Z</time><hdop>4.562</hdop><vdop>4.562</vdop><extensions><gom:speed>0.0</gom:speed></extensions></trkpt>
   <trkpt lat="59.0554638879" lon="29.9625671957"><ele>101.449</ele><time>2026-04-25T12:50:59.000Z</time><hdop>4.562</hdop><vdop>4.562</vdop><extensions><gom:speed>0.0</gom:speed></extensions></trkpt>
   <trkpt lat="59.0554638879" lon="29.9625671957"><ele>101.449</ele><time>2026-04-25T12:51:00.000Z</time><hdop>4.562</hdop><vdop>4.562</vdop><extensions><gom:speed>0.0</gom:speed></extensions></trkpt>
   <trkpt lat="59.0554638879" lon="29.9625671957"><ele>101.449</ele><time>2026-04-25T12:51:01.000Z</time><hdop>4.562</hdop><vdop>4.562</vdop><extensions><gom:speed>0.0</gom:speed></extensions></trkpt>
   <trkpt lat="59.0554638879" lon="29.9625671957"><ele>101.449</ele><time>2026-04-25T12:51:02.000Z</time><hdop>4.562</hdop><vdop>4.562</vdop><extensions><gom:speed>0.0</gom:speed></extensions></trkpt>
   <trkpt lat="59.0554638879" lon="29.9625671957"><ele>101.449</ele><time>2026-04-25T12:51:03.000Z</time><hdop>4.562</hdop><vdop>4.562</vdop><extensions><gom:speed>0.0</gom:speed></extensions></trkpt>
   <trkpt lat="59.0554638879" lon="29.9625671957"><ele>101.449</ele><time>2026-04-25T12:51:04.000Z</time><hdop>4.562</hdop><vdop>4.562</vdop><extensions><gom:speed>0.0</gom:speed></extensions></trkpt>
   <trkpt lat="59.0554638879" lon="29.9625671957"><ele>101.449</ele><time>2026-04-25T12:51:05.000Z</time><hdop>4.562</hdop><vdop>4.562</vdop><extensions><gom:speed>0.0</gom:speed></extensions></trkpt>
   <trkpt lat="59.0554638879" lon="29.9625671957"><ele>101.449</ele><time>2026-04-25T12:51:06.000Z</time><hdop>4.562</hdop><vdop>4.562</vdop><extensions><gom:speed>0.0</gom:speed></extensions></trkpt>
   <trkpt lat="59.0554638879" lon="29.9625671957"><ele>101.449</ele><time>2026-04-25T12:51:07.000Z</time><hdop>4.562</hdop><vdop>4.562</vdop><extensions><gom:speed>0.0</gom:speed></extensions></trkpt>
   <trkpt lat="59.0554638879" lon="29.9625671957"><ele>101.449</ele><time>2026-04-25T12:51:08.000Z</time><hdop>4.562</hdop><vdop>4.562</vdop><extensions><gom:speed>0.0</gom:speed></extensions></trkpt>
   <trkpt lat="59.0554638879" lon="29.9625671957"><ele>101.449</ele><time>2026-04-25T12:51:09.000Z</time><hdop>4.562</hdop><vdop>4.562</vdop><extensions><gom:speed>0.0</gom:speed></extensions></trkpt>
   <trkpt lat="59.0554638879" lon="29.9625671957"><ele>101.449</ele><time>2026-04-25T12:51:10.000Z</time><hdop>4.562</hdop><vdop>4.562</vdop><extensions><gom:speed>0.0</gom:speed></extensions></trkpt>
   <trkpt lat="59.0554638879" lon="29.9625671957"><ele>101.449</ele><time>2026-04-25T12:51:11.000Z</time><hdop>4.562</hdop><vdop>4.562</vdop><extensions><gom:speed>0.0</gom:speed></extensions></trkpt>
   <trkpt lat="59.0554638879" lon="29.9625671957"><ele>101.449</ele><time>2026-04-25T12:51:12.000Z</time><hdop>4.562</hdop><vdop>4.562</vdop><extensions><gom:speed>0.0</gom:speed></extensions></trkpt>
   <trkpt lat="59.0554638879" lon="29.9625671957"><ele>101.449</ele><time>2026-04-25T12:51:13.000Z</time><hdop>4.562</hdop><vdop>4.562</vdop><extensions><gom:speed>0.0</gom:speed></extensions></trkpt>
   <trkpt lat="59.0554638879" lon="29.9625671957"><ele>101.449</ele><time>2026-04-25T12:51:13.000Z</time><hdop>4.562</hdop><vdop>4.562</vdop><extensions><gom:speed>0.0</gom:speed></extensions></trkpt>
   <trkpt lat="59.0554638879" lon="29.9625671957"><ele>101.449</ele><time>2026-04-25T12:51:14.000Z</time><hdop>4.562</hdop><vdop>4.562</vdop><extensions><gom:speed>0.0</gom:speed></extensions></trkpt>
   <trkpt lat="59.0554638879" lon="29.9625671957"><ele>101.449</ele><time>2026-04-25T12:51:15.000Z</time><hdop>4.562</hdop><vdop>4.562</vdop><extensions><gom:speed>0.0</gom:speed></extensions></trkpt>
   <trkpt lat="59.0554638879" lon="29.9625671957"><ele>101.449</ele><time>2026-04-25T12:51:16.000Z</time><hdop>4.562</hdop><vdop>4.562</vdop><extensions><gom:speed>0.0</gom:speed></extensions></trkpt>
   <trkpt lat="59.0554638879" lon="29.9625671957"><ele>101.449</ele><time>2026-04-25T12:51:17.000Z</time><hdop>4.562</hdop><vdop>4.562</vdop><extensions><gom:speed>0.0</gom:speed></extensions></trkpt>
   <trkpt lat="59.0554638879" lon="29.9625671957"><ele>101.449</ele><time>2026-04-25T12:51:18.000Z</time><hdop>4.562</hdop><vdop>4.562</vdop><extensions><gom:speed>0.0</gom:speed></extensions></trkpt>
   <trkpt lat="59.0554638879" lon="29.9625671957"><ele>101.449</ele><time>2026-04-25T12:51:19.000Z</time><hdop>4.562</hdop><vdop>4.562</vdop><extensions><gom:speed>0.0</gom:speed></extensions></trkpt>
   <trkpt lat="59.0554638879" lon="29.9625671957"><ele>101.449</ele><time>2026-04-25T12:51:20.000Z</time><hdop>4.562</hdop><vdop>4.562</vdop><extensions><gom:speed>0.0</gom:speed></extensions></trkpt>
   <trkpt lat="59.0554638879" lon="29.9625671957"><ele>101.449</ele><time>2026-04-25T12:51:21.000Z</time><hdop>4.562</hdop><vdop>4.562</vdop><extensions><gom:speed>0.0</gom:speed></extensions></trkpt>
   <trkpt lat="59.0554638879" lon="29.9625671957"><ele>101.449</ele><time>2026-04-25T12:51:22.000Z</time><hdop>4.562</hdop><vdop>4.562</vdop><extensions><gom:speed>0.0</gom:speed></extensions></trkpt>
   <trkpt lat="59.0554638879" lon="29.9625671957"><ele>101.449</ele><time>2026-04-25T12:51:23.000Z</time><hdop>4.562</hdop><vdop>4.562</vdop><extensions><gom:speed>0.0</gom:speed></extensions></trkpt>
   <trkpt lat="59.0554638879" lon="29.9625671957"><ele>101.449</ele><time>2026-04-25T12:51:24.000Z</time><hdop>4.562</hdop><vdop>4.562</vdop><extensions><gom:speed>0.0</gom:speed></extensions></trkpt>
   <trkpt lat="59.0554638879" lon="29.9625671957"><ele>101.449</ele><time>2026-04-25T12:51:25.000Z</time><hdop>4.562</hdop><vdop>4.562</vdop><extensions><gom:speed>0.0</gom:speed></extensions></trkpt>
   <trkpt lat="59.0554638879" lon="29.9625671957"><ele>101.449</ele><time>2026-04-25T12:51:26.000Z</time><hdop>4.562</hdop><vdop>4.562</vdop><extensions><gom:speed>0.0</gom:speed></extensions></trkpt>
   <trkpt lat="59.0554638879" lon="29.9625671957"><ele>101.449</ele><time>2026-04-25T12:51:27.000Z</time><hdop>4.562</hdop><vdop>4.562</vdop><extensions><gom:speed>0.0</gom:speed></extensions></trkpt>
   <trkpt lat="59.0554638879" lon="29.9625671957"><ele>101.449</ele><time>2026-04-25T12:51:28.000Z</time><hdop>4.562</hdop><vdop>4.562</vdop><extensions><gom:speed>0.0</gom:speed></extensions></trkpt>
   <trkpt lat="59.0554638879" lon="29.9625671957"><ele>101.449</ele><time>2026-04-25T12:51:29.000Z</time><hdop>4.562</hdop><vdop>4.562</vdop><extensions><gom:speed>0.0</gom:speed></extensions></trkpt>
   <trkpt lat="59.0554638879" lon="29.9625671957"><ele>101.449</ele><time>2026-04-25T12:51:30.000Z</time><hdop>4.562</hdop><vdop>4.562</vdop><extensions><gom:speed>0.0</gom:speed></extensions></trkpt>
   <trkpt lat="59.0554638879" lon="29.9625671957"><ele>101.449</ele><time>2026-04-25T12:51:31.000Z</time><hdop>4.562</hdop><vdop>4.562</vdop><extensions><gom:speed>0.0</gom:speed></extensions></trkpt>
   <trkpt lat="59.0554638879" lon="29.9625671957"><ele>101.449</ele><time>2026-04-25T12:51:32.000Z</time><hdop>4.562</hdop><vdop>4.562</vdop><extensions><gom:speed>0.0</gom:speed></extensions></trkpt>
   <trkpt lat="59.0554638879" lon="29.9625671957"><ele>101.449</ele><time>2026-04-25T12:51:32.000Z</time><hdop>4.562</hdop><vdop>4.562</vdop><extensions><gom:speed>0.0</gom:speed></extensions></trkpt>
   <trkpt lat="59.0554638879" lon="29.9625671957"><ele>101.449</ele><time>2026-04-25T12:51:33.000Z</time><hdop>4.562</hdop><vdop>4.562</vdop><extensions><gom:speed>0.0</gom:speed></extensions></trkpt>
   <trkpt lat="59.0554638879" lon="29.9625671957"><ele>101.449</ele><time>2026-04-25T12:51:34.000Z</time><hdop>4.562</hdop><vdop>4.562</vdop><extensions><gom:speed>0.0</gom:speed></extensions></trkpt>
   <trkpt lat="59.0554638879" lon="29.9625671957"><ele>101.449</ele><time>2026-04-25T12:51:35.000Z</time><hdop>4.562</hdop><vdop>4.562</vdop><extensions><gom:speed>0.0</gom:speed></extensions></trkpt>
   <trkpt lat="59.0554638879" lon="29.9625671957"><ele>101.449</ele><time>2026-04-25T12:51:36.000Z</time><hdop>4.562</hdop><vdop>4.562</vdop><extensions><gom:speed>0.0</gom:speed></extensions></trkpt>
   <trkpt lat="59.0554638879" lon="29.9625671957"><ele>101.449</ele><time>2026-04-25T12:51:37.000Z</time><hdop>4.562</hdop><vdop>4.562</vdop><extensions><gom:speed>0.0</gom:speed></extensions></trkpt>
   <trkpt lat="59.0554638879" lon="29.9625671957"><ele>101.449</ele><time>2026-04-25T12:51:38.000Z</time><hdop>4.562</hdop><vdop>4.562</vdop><extensions><gom:speed>0.0</gom:speed></extensions></trkpt>
   <trkpt lat="59.0554638879" lon="29.9625671957"><ele>101.449</ele><time>2026-04-25T12:51:39.000Z</time><hdop>4.562</hdop><vdop>4.562</vdop><extensions><gom:speed>0.0</gom:speed></extensions></trkpt>
   <trkpt lat="59.0554638879" lon="29.9625671957"><ele>101.449</ele><time>2026-04-25T12:51:40.000Z</time><hdop>4.562</hdop><vdop>4.562</vdop><extensions><gom:speed>0.0</gom:speed></extensions></trkpt>
   <trkpt lat="59.0554638879" lon="29.9625671957"><ele>101.449</ele><time>2026-04-25T12:51:41.000Z</time><hdop>4.562</hdop><vdop>4.562</vdop><extensions><gom:speed>0.0</gom:speed></extensions></trkpt>
   <trkpt lat="59.0554638879" lon="29.9625671957"><ele>101.449</ele><time>2026-04-25T12:51:42.000Z</time><hdop>4.562</hdop><vdop>4.562</vdop><extensions><gom:speed>0.0</gom:speed></extensions></trkpt>
   <trkpt lat="59.0554638879" lon="29.9625671957"><ele>101.449</ele><time>2026-04-25T12:51:43.000Z</time><hdop>4.562</hdop><vdop>4.562</vdop><extensions><gom:speed>0.0</gom:speed></extensions></trkpt>
   <trkpt lat="59.0554638879" lon="29.9625671957"><ele>101.449</ele><time>2026-04-25T12:51:44.000Z</time><hdop>4.562</hdop><vdop>4.562</vdop><extensions><gom:speed>0.0</gom:speed></extensions></trkpt>
   <trkpt lat="59.0554638879" lon="29.9625671957"><ele>101.449</ele><time>2026-04-25T12:51:45.000Z</time><hdop>4.562</hdop><vdop>4.562</vdop><extensions><gom:speed>0.0</gom:speed></extensions></trkpt>
   <trkpt lat="59.0554638879" lon="29.9625671957"><ele>101.449</ele><time>2026-04-25T12:51:46.000Z</time><hdop>4.562</hdop><vdop>4.562</vdop><extensions><gom:speed>0.0</gom:speed></extensions></trkpt>
   <trkpt lat="59.0554638879" lon="29.9625671957"><ele>101.449</ele><time>2026-04-25T12:51:47.000Z</time><hdop>4.562</hdop><vdop>4.562</vdop><extensions><gom:speed>0.0</gom:speed></extensions></trkpt>
   <trkpt lat="59.0554638879" lon="29.9625671957"><ele>101.449</ele><time>2026-04-25T12:51:48.000Z</time><hdop>4.562</hdop><vdop>4.562</vdop><extensions><gom:speed>0.0</gom:speed></extensions></trkpt>
   <trkpt lat="59.0554638879" lon="29.9625671957"><ele>101.449</ele><time>2026-04-25T12:51:49.000Z</time><hdop>4.562</hdop><vdop>4.562</vdop><extensions><gom:speed>0.0</gom:speed></extensions></trkpt>
   <trkpt lat="59.0554638879" lon="29.9625671957"><ele>101.449</ele><time>2026-04-25T12:51:50.000Z</time><hdop>4.562</hdop><vdop>4.562</vdop><extensions><gom:speed>0.0</gom:speed></extensions></trkpt>
   <trkpt lat="59.0554638879" lon="29.9625671957"><ele>101.449</ele><time>2026-04-25T12:51:51.000Z</time><hdop>4.562</hdop><vdop>4.562</vdop><extensions><gom:speed>0.0</gom:speed></extensions></trkpt>
   <trkpt lat="59.0554638879" lon="29.9625671957"><ele>101.449</ele><time>2026-04-25T12:51:52.000Z</time><hdop>4.562</hdop><vdop>4.562</vdop><extensions><gom:speed>0.0</gom:speed></extensions></trkpt>
   <trkpt lat="59.0554638879" lon="29.9625671957"><ele>101.449</ele><time>2026-04-25T12:51:53.000Z</time><hdop>4.562</hdop><vdop>4.562</vdop><extensions><gom:speed>0.0</gom:speed></extensions></trkpt>
   <trkpt lat="59.0554638879" lon="29.9625671957"><ele>101.449</ele><time>2026-04-25T12:51:53.000Z</time><hdop>4.562</hdop><vdop>4.562</vdop><extensions><gom:speed>0.0</gom:speed></extensions></trkpt>
   <trkpt lat="59.0554638879" lon="29.9625671957"><ele>101.449</ele><time>2026-04-25T12:51:54.000Z</time><hdop>4.562</hdop><vdop>4.562</vdop><extensions><gom:speed>0.0</gom:speed></extensions></trkpt>
   <trkpt lat="59.0554638879" lon="29.9625671957"><ele>101.449</ele><time>2026-04-25T12:51:55.000Z</time><hdop>4.562</hdop><vdop>4.562</vdop><extensions><gom:speed>0.0</gom:speed></extensions></trkpt>
   <trkpt lat="59.0554638879" lon="29.9625671957"><ele>101.449</ele><time>2026-04-25T12:51:56.000Z</time><hdop>4.562</hdop><vdop>4.562</vdop><extensions><gom:speed>0.0</gom:speed></extensions></trkpt>
   <trkpt lat="59.0554638879" lon="29.9625671957"><ele>101.449</ele><time>2026-04-25T12:51:57.000Z</time><hdop>4.562</hdop><vdop>4.562</vdop><extensions><gom:speed>0.0</gom:speed></extensions></trkpt>
   <trkpt lat="59.0554638879" lon="29.9625671957"><ele>101.449</ele><time>2026-04-25T12:51:58.000Z</time><hdop>4.562</hdop><vdop>4.562</vdop><extensions><gom:speed>0.0</gom:speed></extensions></trkpt>
   <trkpt lat="59.0554638879" lon="29.9625671957"><ele>101.449</ele><time>2026-04-25T12:51:59.000Z</time><hdop>4.562</hdop><vdop>4.562</vdop><extensions><gom:speed>0.0</gom:speed></extensions></trkpt>
   <trkpt lat="59.0554638879" lon="29.9625671957"><ele>101.449</ele><time>2026-04-25T12:52:00.000Z</time><hdop>4.562</hdop><vdop>4.562</vdop><extensions><gom:speed>0.0</gom:speed></extensions></trkpt>
   <trkpt lat="59.0554638879" lon="29.9625671957"><ele>101.449</ele><time>2026-04-25T12:52:01.000Z</time><hdop>4.562</hdop><vdop>4.562</vdop><extensions><gom:speed>0.0</gom:speed></extensions></trkpt>
   <trkpt lat="59.0554638879" lon="29.9625671957"><ele>101.449</ele><time>2026-04-25T12:52:02.000Z</time><hdop>4.562</hdop><vdop>4.562</vdop><extensions><gom:speed>0.0</gom:speed></extensions></trkpt>
   <trkpt lat="59.0554638879" lon="29.9625671957"><ele>101.449</ele><time>2026-04-25T12:52:03.000Z</time><hdop>4.562</hdop><vdop>4.562</vdop><extensions><gom:speed>0.0</gom:speed></extensions></trkpt>
   <trkpt lat="59.0554638879" lon="29.9625671957"><ele>101.449</ele><time>2026-04-25T12:52:04.000Z</time><hdop>4.562</hdop><vdop>4.562</vdop><extensions><gom:speed>0.0</gom:speed></extensions></trkpt>
   <trkpt lat="59.0554638879" lon="29.9625671957"><ele>101.449</ele><time>2026-04-25T12:52:05.000Z</time><hdop>4.562</hdop><vdop>4.562</vdop><extensions><gom:speed>0.0</gom:speed></extensions></trkpt>
   <trkpt lat="59.0554638879" lon="29.9625671957"><ele>101.449</ele><time>2026-04-25T12:52:06.000Z</time><hdop>4.562</hdop><vdop>4.562</vdop><extensions><gom:speed>0.0</gom:speed></extensions></trkpt>
   <trkpt lat="59.0554638879" lon="29.9625671957"><ele>101.449</ele><time>2026-04-25T12:52:07.000Z</time><hdop>4.562</hdop><vdop>4.562</vdop><extensions><gom:speed>0.0</gom:speed></extensions></trkpt>
   <trkpt lat="59.0554638879" lon="29.9625671957"><ele>101.449</ele><time>2026-04-25T12:52:08.000Z</time><hdop>4.562</hdop><vdop>4.562</vdop><extensions><gom:speed>0.0</gom:speed></extensions></trkpt>
   <trkpt lat="59.0554638879" lon="29.9625671957"><ele>101.449</ele><time>2026-04-25T12:52:09.000Z</time><hdop>4.562</hdop><vdop>4.562</vdop><extensions><gom:speed>0.0</gom:speed></extensions></trkpt>
   <trkpt lat="59.0554638879" lon="29.9625671957"><ele>101.449</ele><time>2026-04-25T12:52:10.000Z</time><hdop>4.562</hdop><vdop>4.562</vdop><extensions><gom:speed>0.0</gom:speed></extensions></trkpt>
   <trkpt lat="59.0554638879" lon="29.9625671957"><ele>101.449</ele><time>2026-04-25T12:52:11.000Z</time><hdop>4.562</hdop><vdop>4.562</vdop><extensions><gom:speed>0.0</gom:speed></extensions></trkpt>
   <trkpt lat="59.0554638879" lon="29.9625671957"><ele>101.449</ele><time>2026-04-25T12:52:12.000Z</time><hdop>4.562</hdop><vdop>4.562</vdop><extensions><gom:speed>0.0</gom:speed></extensions></trkpt>
   <trkpt lat="59.0554638879" lon="29.9625671957"><ele>101.449</ele><time>2026-04-25T12:52:13.000Z</time><hdop>4.562</hdop><vdop>4.562</vdop><extensions><gom:speed>0.0</gom:speed></extensions></trkpt>
   <trkpt lat="59.0554638879" lon="29.9625671957"><ele>101.449</ele><time>2026-04-25T12:52:14.000Z</time><hdop>4.562</hdop><vdop>4.562</vdop><extensions><gom:speed>0.0</gom:speed></extensions></trkpt>
   <trkpt lat="59.0554638879" lon="29.9625671957"><ele>101.449</ele><time>2026-04-25T12:52:15.000Z</time><hdop>4.562</hdop><vdop>4.562</vdop><extensions><gom:speed>0.0</gom:speed></extensions></trkpt>
   <trkpt lat="59.0554638879" lon="29.9625671957"><ele>101.449</ele><time>2026-04-25T12:52:16.000Z</time><hdop>4.562</hdop><vdop>4.562</vdop><extensions><gom:speed>0.0</gom:speed></extensions></trkpt>
   <trkpt lat="59.0554638879" lon="29.9625671957"><ele>101.449</ele><time>2026-04-25T12:52:17.000Z</time><hdop>4.562</hdop><vdop>4.562</vdop><extensions><gom:speed>0.0</gom:speed></extensions></trkpt>
   <trkpt lat="59.0554638879" lon="29.9625671957"><ele>101.449</ele><time>2026-04-25T12:52:18.000Z</time><hdop>4.562</hdop><vdop>4.562</vdop><extensions><gom:speed>0.0</gom:speed></extensions></trkpt>
   <trkpt lat="59.0554638879" lon="29.9625671957"><ele>101.449</ele><time>2026-04-25T12:52:19.000Z</time><hdop>4.562</hdop><vdop>4.562</vdop><extensions><gom:speed>0.0</gom:speed></extensions></trkpt>
   <trkpt lat="59.0554638879" lon="29.9625671957"><ele>101.449</ele><time>2026-04-25T12:52:20.000Z</time><hdop>4.562</hdop><vdop>4.562</vdop><extensions><gom:speed>0.0</gom:speed></extensions></trkpt>
   <trkpt lat="59.0554638879" lon="29.9625671957"><ele>101.449</ele><time>2026-04-25T12:52:21.000Z</time><hdop>4.562</hdop><vdop>4.562</vdop><extensions><gom:speed>0.0</gom:speed></extensions></trkpt>
   <trkpt lat="59.0554638879" lon="29.9625671957"><ele>101.449</ele><time>2026-04-25T12:52:22.000Z</time><hdop>4.562</hdop><vdop>4.562</vdop><extensions><gom:speed>0.0</gom:speed></extensions></trkpt>
   <trkpt lat="59.0554638879" lon="29.9625671957"><ele>101.449</ele><time>2026-04-25T12:52:23.000Z</time><hdop>4.562</hdop><vdop>4.562</vdop><extensions><gom:speed>0.0</gom:speed></extensions></trkpt>
   <trkpt lat="59.0554638879" lon="29.9625671957"><ele>101.449</ele><time>2026-04-25T12:52:24.000Z</time><hdop>4.562</hdop><vdop>4.562</vdop><extensions><gom:speed>0.0</gom:speed></extensions></trkpt>
   <trkpt lat="59.0554638879" lon="29.9625671957"><ele>101.449</ele><time>2026-04-25T12:52:25.000Z</time><hdop>4.562</hdop><vdop>4.562</vdop><extensions><gom:speed>0.0</gom:speed></extensions></trkpt>
   <trkpt lat="59.0554638879" lon="29.9625671957"><ele>101.449</ele><time>2026-04-25T12:52:26.000Z</time><hdop>4.562</hdop><vdop>4.562</vdop><extensions><gom:speed>0.0</gom:speed></extensions></trkpt>
   <trkpt lat="59.0554638879" lon="29.9625671957"><ele>101.449</ele><time>2026-04-25T12:52:27.000Z</time><hdop>4.562</hdop><vdop>4.562</vdop><extensions><gom:speed>0.0</gom:speed></extensions></trkpt>
   <trkpt lat="59.0554638879" lon="29.9625671957"><ele>101.449</ele><time>2026-04-25T12:52:28.000Z</time><hdop>4.562</hdop><vdop>4.562</vdop><extensions><gom:speed>0.0</gom:speed></extensions></trkpt>
   <trkpt lat="59.0554638879" lon="29.9625671957"><ele>101.449</ele><time>2026-04-25T12:52:29.000Z</time><hdop>4.562</hdop><vdop>4.562</vdop><extensions><gom:speed>0.0</gom:speed></extensions></trkpt>
   <trkpt lat="59.0554638879" lon="29.9625671957"><ele>101.449</ele><time>2026-04-25T12:52:30.000Z</time><hdop>4.562</hdop><vdop>4.562</vdop><extensions><gom:speed>0.0</gom:speed></extensions></trkpt>
   <trkpt lat="59.0554638879" lon="29.9625671957"><ele>101.449</ele><time>2026-04-25T12:52:31.000Z</time><hdop>4.562</hdop><vdop>4.562</vdop><extensions><gom:speed>0.0</gom:speed></extensions></trkpt>
   <trkpt lat="59.0554638879" lon="29.9625671957"><ele>101.449</ele><time>2026-04-25T12:52:32.000Z</time><hdop>4.562</hdop><vdop>4.562</vdop><extensions><gom:speed>0.0</gom:speed></extensions></trkpt>
   <trkpt lat="59.0554638879" lon="29.9625671957"><ele>101.449</ele><time>2026-04-25T12:52:33.000Z</time><hdop>4.562</hdop><vdop>4.562</vdop><extensions><gom:speed>0.0</gom:speed></extensions></trkpt>
   <trkpt lat="59.0554638879" lon="29.9625671957"><ele>101.449</ele><time>2026-04-25T12:52:33.000Z</time><hdop>4.562</hdop><vdop>4.562</vdop><extensions><gom:speed>0.0</gom:speed></extensions></trkpt>
   <trkpt lat="59.0554638879" lon="29.9625671957"><ele>101.449</ele><time>2026-04-25T12:52:34.000Z</time><hdop>4.562</hdop><vdop>4.562</vdop><extensions><gom:speed>0.0</gom:speed></extensions></trkpt>
   <trkpt lat="59.0554638879" lon="29.9625671957"><ele>101.449</ele><time>2026-04-25T12:52:35.000Z</time><hdop>4.562</hdop><vdop>4.562</vdop><extensions><gom:speed>0.0</gom:speed></extensions></trkpt>
   <trkpt lat="59.0554638879" lon="29.9625671957"><ele>101.449</ele><time>2026-04-25T12:52:36.000Z</time><hdop>4.562</hdop><vdop>4.562</vdop><extensions><gom:speed>0.0</gom:speed></extensions></trkpt>
   <trkpt lat="59.0554638879" lon="29.9625671957"><ele>101.449</ele><time>2026-04-25T12:52:37.000Z</time><hdop>4.562</hdop><vdop>4.562</vdop><extensions><gom:speed>0.0</gom:speed></extensions></trkpt>
   <trkpt lat="59.0554638879" lon="29.9625671957"><ele>101.449</ele><time>2026-04-25T12:52:38.000Z</time><hdop>4.562</hdop><vdop>4.562</vdop><extensions><gom:speed>0.0</gom:speed></extensions></trkpt>
   <trkpt lat="59.0554638879" lon="29.9625671957"><ele>101.449</ele><time>2026-04-25T12:52:39.000Z</time><hdop>4.562</hdop><vdop>4.562</vdop><extensions><gom:speed>0.0</gom:speed></extensions></trkpt>
   <trkpt lat="59.0554638879" lon="29.9625671957"><ele>101.449</ele><time>2026-04-25T12:52:40.000Z</time><hdop>4.562</hdop><vdop>4.562</vdop><extensions><gom:speed>0.0</gom:speed></extensions></trkpt>
   <trkpt lat="59.0554638879" lon="29.9625671957"><ele>101.449</ele><time>2026-04-25T12:52:41.000Z</time><hdop>4.562</hdop><vdop>4.562</vdop><extensions><gom:speed>0.0</gom:speed></extensions></trkpt>
   <trkpt lat="59.0554638879" lon="29.9625671957"><ele>101.449</ele><time>2026-04-25T12:52:42.000Z</time><hdop>4.562</hdop><vdop>4.562</vdop><extensions><gom:speed>0.0</gom:speed></extensions></trkpt>
   <trkpt lat="59.0554638879" lon="29.9625671957"><ele>101.449</ele><time>2026-04-25T12:52:43.000Z</time><hdop>4.562</hdop><vdop>4.562</vdop><extensions><gom:speed>0.0</gom:speed></extensions></trkpt>
   <trkpt lat="59.0554638879" lon="29.9625671957"><ele>101.449</ele><time>2026-04-25T12:52:44.000Z</time><hdop>4.562</hdop><vdop>4.562</vdop><extensions><gom:speed>0.0</gom:speed></extensions></trkpt>
   <trkpt lat="59.0554638879" lon="29.9625671957"><ele>101.449</ele><time>2026-04-25T12:52:45.000Z</time><hdop>4.562</hdop><vdop>4.562</vdop><extensions><gom:speed>0.0</gom:speed></extensions></trkpt>
   <trkpt lat="59.0554638879" lon="29.9625671957"><ele>101.449</ele><time>2026-04-25T12:52:46.000Z</time><hdop>4.562</hdop><vdop>4.562</vdop><extensions><gom:speed>0.0</gom:speed></extensions></trkpt>
   <trkpt lat="59.0554638879" lon="29.9625671957"><ele>101.449</ele><time>2026-04-25T12:52:47.000Z</time><hdop>4.562</hdop><vdop>4.562</vdop><extensions><gom:speed>0.0</gom:speed></extensions></trkpt>
   <trkpt lat="59.0554638879" lon="29.9625671957"><ele>101.449</ele><time>2026-04-25T12:52:48.000Z</time><hdop>4.562</hdop><vdop>4.562</vdop><extensions><gom:speed>0.0</gom:speed></extensions></trkpt>
   <trkpt lat="59.0554638879" lon="29.9625671957"><ele>101.449</ele><time>2026-04-25T12:52:49.000Z</time><hdop>4.562</hdop><vdop>4.562</vdop><extensions><gom:speed>0.0</gom:speed></extensions></trkpt>
   <trkpt lat="59.0554638879" lon="29.9625671957"><ele>101.449</ele><time>2026-04-25T12:52:50.000Z</time><hdop>4.562</hdop><vdop>4.562</vdop><extensions><gom:speed>0.0</gom:speed></extensions></trkpt>
   <trkpt lat="59.0554638879" lon="29.9625671957"><ele>101.449</ele><time>2026-04-25T12:52:51.000Z</time><hdop>4.562</hdop><vdop>4.562</vdop><extensions><gom:speed>0.0</gom:speed></extensions></trkpt>
   <trkpt lat="59.0554638879" lon="29.9625671957"><ele>101.449</ele><time>2026-04-25T12:52:52.000Z</time><hdop>4.562</hdop><vdop>4.562</vdop><extensions><gom:speed>0.0</gom:speed></extensions></trkpt>
   <trkpt lat="59.0554638879" lon="29.9625671957"><ele>101.449</ele><time>2026-04-25T12:52:52.000Z</time><hdop>4.562</hdop><vdop>4.562</vdop><extensions><gom:speed>0.0</gom:speed></extensions></trkpt>
   <trkpt lat="59.0554638879" lon="29.9625671957"><ele>101.449</ele><time>2026-04-25T12:52:53.000Z</time><hdop>4.562</hdop><vdop>4.562</vdop><extensions><gom:speed>0.0</gom:speed></extensions></trkpt>
   <trkpt lat="59.0554638879" lon="29.9625671957"><ele>101.449</ele><time>2026-04-25T12:52:54.000Z</time><hdop>4.562</hdop><vdop>4.562</vdop><extensions><gom:speed>0.0</gom:speed></extensions></trkpt>
   <trkpt lat="59.0554638879" lon="29.9625671957"><ele>101.449</ele><time>2026-04-25T12:52:55.000Z</time><hdop>4.562</hdop><vdop>4.562</vdop><extensions><gom:speed>0.0</gom:speed></extensions></trkpt>
   <trkpt lat="59.0554638879" lon="29.9625671957"><ele>101.449</ele><time>2026-04-25T12:52:56.000Z</time><hdop>4.562</hdop><vdop>4.562</vdop><extensions><gom:speed>0.0</gom:speed></extensions></trkpt>
   <trkpt lat="59.0554638879" lon="29.9625671957"><ele>101.449</ele><time>2026-04-25T12:52:57.000Z</time><hdop>4.562</hdop><vdop>4.562</vdop><extensions><gom:speed>0.0</gom:speed></extensions></trkpt>
   <trkpt lat="59.0554638879" lon="29.9625671957"><ele>101.449</ele><time>2026-04-25T12:52:58.000Z</time><hdop>4.562</hdop><vdop>4.562</vdop><extensions><gom:speed>0.0</gom:speed></extensions></trkpt>
   <trkpt lat="59.0554638879" lon="29.9625671957"><ele>101.449</ele><time>2026-04-25T12:52:59.000Z</time><hdop>4.562</hdop><vdop>4.562</vdop><extensions><gom:speed>0.0</gom:speed></extensions></trkpt>
   <trkpt lat="59.0554638879" lon="29.9625671957"><ele>101.449</ele><time>2026-04-25T12:53:00.000Z</time><hdop>4.562</hdop><vdop>4.562</vdop><extensions><gom:speed>0.0</gom:speed></extensions></trkpt>
   <trkpt lat="59.0554638879" lon="29.9625671957"><ele>101.449</ele><time>2026-04-25T12:53:01.000Z</time><hdop>4.562</hdop><vdop>4.562</vdop><extensions><gom:speed>0.0</gom:speed></extensions></trkpt>
   <trkpt lat="59.0554638879" lon="29.9625671957"><ele>101.449</ele><time>2026-04-25T12:53:02.000Z</time><hdop>4.562</hdop><vdop>4.562</vdop><extensions><gom:speed>0.0</gom:speed></extensions></trkpt>
   <trkpt lat="59.0554638879" lon="29.9625671957"><ele>101.449</ele><time>2026-04-25T12:53:03.000Z</time><hdop>4.562</hdop><vdop>4.562</vdop><extensions><gom:speed>0.0</gom:speed></extensions></trkpt>
   <trkpt lat="59.0554638879" lon="29.9625671957"><ele>101.449</ele><time>2026-04-25T12:53:04.000Z</time><hdop>4.562</hdop><vdop>4.562</vdop><extensions><gom:speed>0.0</gom:speed></extensions></trkpt>
   <trkpt lat="59.0554638879" lon="29.9625671957"><ele>101.449</ele><time>2026-04-25T12:53:05.000Z</time><hdop>4.562</hdop><vdop>4.562</vdop><extensions><gom:speed>0.0</gom:speed></extensions></trkpt>
   <trkpt lat="59.0554638879" lon="29.9625671957"><ele>101.449</ele><time>2026-04-25T12:53:06.000Z</time><hdop>4.562</hdop><vdop>4.562</vdop><extensions><gom:speed>0.0</gom:speed></extensions></trkpt>
   <trkpt lat="59.0554638879" lon="29.9625671957"><ele>101.449</ele><time>2026-04-25T12:53:07.000Z</time><hdop>4.562</hdop><vdop>4.562</vdop><extensions><gom:speed>0.0</gom:speed></extensions></trkpt>
   <trkpt lat="59.0554638879" lon="29.9625671957"><ele>101.449</ele><time>2026-04-25T12:53:08.000Z</time><hdop>4.562</hdop><vdop>4.562</vdop><extensions><gom:speed>0.0</gom:speed></extensions></trkpt>
   <trkpt lat="59.0554638879" lon="29.9625671957"><ele>101.449</ele><time>2026-04-25T12:53:09.000Z</time><hdop>4.562</hdop><vdop>4.562</vdop><extensions><gom:speed>0.0</gom:speed></extensions></trkpt>
   <trkpt lat="59.0554638879" lon="29.9625671957"><ele>101.449</ele><time>2026-04-25T12:53:10.000Z</time><hdop>4.562</hdop><vdop>4.562</vdop><extensions><gom:speed>0.0</gom:speed></extensions></trkpt>
   <trkpt lat="59.0554638879" lon="29.9625671957"><ele>101.449</ele><time>2026-04-25T12:53:11.000Z</time><hdop>4.562</hdop><vdop>4.562</vdop><extensions><gom:speed>0.0</gom:speed></extensions></trkpt>
   <trkpt lat="59.0554638879" lon="29.9625671957"><ele>101.449</ele><time>2026-04-25T12:53:12.000Z</time><hdop>4.562</hdop><vdop>4.562</vdop><extensions><gom:speed>0.0</gom:speed></extensions></trkpt>
   <trkpt lat="59.0554638879" lon="29.9625671957"><ele>101.449</ele><time>2026-04-25T12:53:13.000Z</time><hdop>4.562</hdop><vdop>4.562</vdop><extensions><gom:speed>0.0</gom:speed></extensions></trkpt>
   <trkpt lat="59.0554638879" lon="29.9625671957"><ele>101.449</ele><time>2026-04-25T12:53:14.000Z</time><hdop>4.562</hdop><vdop>4.562</vdop><extensions><gom:speed>0.0</gom:speed></extensions></trkpt>
   <trkpt lat="59.0554638879" lon="29.9625671957"><ele>101.449</ele><time>2026-04-25T12:53:15.000Z</time><hdop>4.562</hdop><vdop>4.562</vdop><extensions><gom:speed>0.0</gom:speed></extensions></trkpt>
   <trkpt lat="59.0554638879" lon="29.9625671957"><ele>101.449</ele><time>2026-04-25T12:53:16.000Z</time><hdop>4.562</hdop><vdop>4.562</vdop><extensions><gom:speed>0.0</gom:speed></extensions></trkpt>
   <trkpt lat="59.0554638879" lon="29.9625671957"><ele>101.449</ele><time>2026-04-25T12:53:17.000Z</time><hdop>4.562</hdop><vdop>4.562</vdop><extensions><gom:speed>0.0</gom:speed></extensions></trkpt>
   <trkpt lat="59.0554638879" lon="29.9625671957"><ele>101.449</ele><time>2026-04-25T12:53:18.000Z</time><hdop>4.562</hdop><vdop>4.562</vdop><extensions><gom:speed>0.0</gom:speed></extensions></trkpt>
   <trkpt lat="59.0554655224" lon="29.9625632562"><ele>101.52</ele><time>2026-04-25T12:53:19.000Z</time><hdop>4.687</hdop><vdop>4.687</vdop><extensions><gom:speed>0.36</gom:speed></extensions></trkpt>
   <trkpt lat="59.0554655224" lon="29.9625632562"><ele>101.562</ele><time>2026-04-25T12:53:20.000Z</time><hdop>4.687</hdop><vdop>4.687</vdop><extensions><gom:speed>0.0</gom:speed></extensions></trkpt>
   <trkpt lat="59.0554655224" lon="29.9625632562"><ele>101.587</ele><time>2026-04-25T12:53:21.000Z</time><hdop>4.687</hdop><vdop>4.687</vdop><extensions><gom:speed>0.0</gom:speed></extensions></trkpt>
   <trkpt lat="59.0554655224" lon="29.9625632562"><ele>101.602</ele><time>2026-04-25T12:53:22.000Z</time><hdop>4.687</hdop><vdop>4.687</vdop><extensions><gom:speed>0.0</gom:speed></extensions></trkpt>
   <trkpt lat="59.0554655224" lon="29.9625632562"><ele>101.611</ele><time>2026-04-25T12:53:23.000Z</time><hdop>4.687</hdop><vdop>4.687</vdop><extensions><gom:speed>0.0</gom:speed></extensions></trkpt>
   <trkpt lat="59.0554655224" lon="29.9625632562"><ele>101.616</ele><time>2026-04-25T12:53:24.000Z</time><hdop>4.687</hdop><vdop>4.687</vdop><extensions><gom:speed>0.0</gom:speed></extensions></trkpt>
   <trkpt lat="59.0554655224" lon="29.9625632562"><ele>101.62</ele><time>2026-04-25T12:53:25.000Z</time><hdop>4.687</hdop><vdop>4.687</vdop><extensions><gom:speed>0.0</gom:speed></extensions></trkpt>
   <trkpt lat="59.0554655224" lon="29.9625632562"><ele>101.622</ele><time>2026-04-25T12:53:26.000Z</time><hdop>4.687</hdop><vdop>4.687</vdop><extensions><gom:speed>0.0</gom:speed></extensions></trkpt>
   <trkpt lat="59.0554655224" lon="29.9625632562"><ele>101.623</ele><time>2026-04-25T12:53:27.000Z</time><hdop>4.687</hdop><vdop>4.687</vdop><extensions><gom:speed>0.0</gom:speed></extensions></trkpt>
   <trkpt lat="59.0554655224" lon="29.9625632562"><ele>101.623</ele><time>2026-04-25T12:53:28.000Z</time><hdop>4.687</hdop><vdop>4.687</vdop><extensions><gom:speed>0.0</gom:speed></extensions></trkpt>
   <trkpt lat="59.0554655224" lon="29.9625632562"><ele>101.624</ele><time>2026-04-25T12:53:29.000Z</time><hdop>4.687</hdop><vdop>4.687</vdop><extensions><gom:speed>0.0</gom:speed></extensions></trkpt>
   <trkpt lat="59.0554655224" lon="29.9625632562"><ele>101.624</ele><time>2026-04-25T12:53:30.000Z</time><hdop>4.687</hdop><vdop>4.687</vdop><extensions><gom:speed>0.0</gom:speed></extensions></trkpt>
   <trkpt lat="59.0554655224" lon="29.9625632562"><ele>101.624</ele><time>2026-04-25T12:53:31.000Z</time><hdop>4.687</hdop><vdop>4.687</vdop><extensions><gom:speed>0.0</gom:speed></extensions></trkpt>
   <trkpt lat="59.0554655224" lon="29.9625632562"><ele>101.624</ele><time>2026-04-25T12:53:32.000Z</time><hdop>4.687</hdop><vdop>4.687</vdop><extensions><gom:speed>0.0</gom:speed></extensions></trkpt>
   <trkpt lat="59.0554655224" lon="29.9625632562"><ele>101.624</ele><time>2026-04-25T12:53:33.000Z</time><hdop>4.687</hdop><vdop>4.687</vdop><extensions><gom:speed>0.0</gom:speed></extensions></trkpt>
   <trkpt lat="59.0554655224" lon="29.9625632562"><ele>101.624</ele><time>2026-04-25T12:53:33.000Z</time><hdop>4.687</hdop><vdop>4.687</vdop><extensions><gom:speed>0.0</gom:speed></extensions></trkpt>
   <trkpt lat="59.0554655224" lon="29.9625632562"><ele>101.624</ele><time>2026-04-25T12:53:34.000Z</time><hdop>4.687</hdop><vdop>4.687</vdop><extensions><gom:speed>0.0</gom:speed></extensions></trkpt>
   <trkpt lat="59.0554655224" lon="29.9625632562"><ele>101.624</ele><time>2026-04-25T12:53:35.000Z</time><hdop>4.687</hdop><vdop>4.687</vdop><extensions><gom:speed>0.0</gom:speed></extensions></trkpt>
   <trkpt lat="59.0554655224" lon="29.9625632562"><ele>101.624</ele><time>2026-04-25T12:53:36.000Z</time><hdop>4.687</hdop><vdop>4.687</vdop><extensions><gom:speed>0.0</gom:speed></extensions></trkpt>
   <trkpt lat="59.0554655224" lon="29.9625632562"><ele>101.624</ele><time>2026-04-25T12:53:37.000Z</time><hdop>4.687</hdop><vdop>4.687</vdop><extensions><gom:speed>0.0</gom:speed></extensions></trkpt>
   <trkpt lat="59.0554655224" lon="29.9625632562"><ele>101.624</ele><time>2026-04-25T12:53:38.000Z</time><hdop>4.687</hdop><vdop>4.687</vdop><extensions><gom:speed>0.0</gom:speed></extensions></trkpt>
   <trkpt lat="59.0554655224" lon="29.9625632562"><ele>101.624</ele><time>2026-04-25T12:53:39.000Z</time><hdop>4.687</hdop><vdop>4.687</vdop><extensions><gom:speed>0.0</gom:speed></extensions></trkpt>
   <trkpt lat="59.0554655224" lon="29.9625632562"><ele>101.624</ele><time>2026-04-25T12:53:40.000Z</time><hdop>4.687</hdop><vdop>4.687</vdop><extensions><gom:speed>0.0</gom:speed></extensions></trkpt>
   <trkpt lat="59.0554655224" lon="29.9625632562"><ele>101.624</ele><time>2026-04-25T12:53:41.000Z</time><hdop>4.687</hdop><vdop>4.687</vdop><extensions><gom:speed>0.0</gom:speed></extensions></trkpt>
   <trkpt lat="59.0554655224" lon="29.9625632562"><ele>101.624</ele><time>2026-04-25T12:53:42.000Z</time><hdop>4.687</hdop><vdop>4.687</vdop><extensions><gom:speed>0.0</gom:speed></extensions></trkpt>
   <trkpt lat="59.0554655224" lon="29.9625632562"><ele>101.624</ele><time>2026-04-25T12:53:43.000Z</time><hdop>4.687</hdop><vdop>4.687</vdop><extensions><gom:speed>0.0</gom:speed></extensions></trkpt>
   <trkpt lat="59.0554655224" lon="29.9625632562"><ele>101.624</ele><time>2026-04-25T12:53:44.000Z</time><hdop>4.687</hdop><vdop>4.687</vdop><extensions><gom:speed>0.0</gom:speed></extensions></trkpt>
   <trkpt lat="59.0554655224" lon="29.9625632562"><ele>101.624</ele><time>2026-04-25T12:53:45.000Z</time><hdop>4.687</hdop><vdop>4.687</vdop><extensions><gom:speed>0.0</gom:speed></extensions></trkpt>
   <trkpt lat="59.0554655224" lon="29.9625632562"><ele>101.624</ele><time>2026-04-25T12:53:46.000Z</time><hdop>4.687</hdop><vdop>4.687</vdop><extensions><gom:speed>0.0</gom:speed></extensions></trkpt>
   <trkpt lat="59.0554655224" lon="29.9625632562"><ele>101.624</ele><time>2026-04-25T12:53:47.000Z</time><hdop>4.687</hdop><vdop>4.687</vdop><extensions><gom:speed>0.0</gom:speed></extensions></trkpt>
   <trkpt lat="59.0554655224" lon="29.9625632562"><ele>101.624</ele><time>2026-04-25T12:53:48.000Z</time><hdop>4.687</hdop><vdop>4.687</vdop><extensions><gom:speed>0.0</gom:speed></extensions></trkpt>
   <trkpt lat="59.0554655224" lon="29.9625632562"><ele>101.624</ele><time>2026-04-25T12:53:49.000Z</time><hdop>4.687</hdop><vdop>4.687</vdop><extensions><gom:speed>0.0</gom:speed></extensions></trkpt>
   <trkpt lat="59.0554655224" lon="29.9625632562"><ele>101.624</ele><time>2026-04-25T12:53:50.000Z</time><hdop>4.687</hdop><vdop>4.687</vdop><extensions><gom:speed>0.0</gom:speed></extensions></trkpt>
   <trkpt lat="59.0554655224" lon="29.9625632562"><ele>101.624</ele><time>2026-04-25T12:53:51.000Z</time><hdop>4.687</hdop><vdop>4.687</vdop><extensions><gom:speed>0.0</gom:speed></extensions></trkpt>
   <trkpt lat="59.0554655224" lon="29.9625632562"><ele>101.624</ele><time>2026-04-25T12:53:52.000Z</time><hdop>4.687</hdop><vdop>4.687</vdop><extensions><gom:speed>0.0</gom:speed></extensions></trkpt>
   <trkpt lat="59.0554655224" lon="29.9625632562"><ele>101.624</ele><time>2026-04-25T12:53:53.000Z</time><hdop>4.687</hdop><vdop>4.687</vdop><extensions><gom:speed>0.0</gom:speed></extensions></trkpt>
   <trkpt lat="59.0554655224" lon="29.9625632562"><ele>101.624</ele><time>2026-04-25T12:53:54.000Z</time><hdop>4.687</hdop><vdop>4.687</vdop><extensions><gom:speed>0.0</gom:speed></extensions></trkpt>
   <trkpt lat="59.0554655224" lon="29.9625632562"><ele>101.624</ele><time>2026-04-25T12:53:54.000Z</time><hdop>4.687</hdop><vdop>4.687</vdop><extensions><gom:speed>0.0</gom:speed></extensions></trkpt>
   <trkpt lat="59.0554655224" lon="29.9625632562"><ele>101.624</ele><time>2026-04-25T12:53:55.000Z</time><hdop>4.687</hdop><vdop>4.687</vdop><extensions><gom:speed>0.0</gom:speed></extensions></trkpt>
   <trkpt lat="59.0554655224" lon="29.9625632562"><ele>101.624</ele><time>2026-04-25T12:53:56.000Z</time><hdop>4.687</hdop><vdop>4.687</vdop><extensions><gom:speed>0.0</gom:speed></extensions></trkpt>
   <trkpt lat="59.0554655224" lon="29.9625632562"><ele>101.624</ele><time>2026-04-25T12:53:57.000Z</time><hdop>4.687</hdop><vdop>4.687</vdop><extensions><gom:speed>0.0</gom:speed></extensions></trkpt>
   <trkpt lat="59.0554655224" lon="29.9625632562"><ele>101.624</ele><time>2026-04-25T12:53:58.000Z</time><hdop>4.687</hdop><vdop>4.687</vdop><extensions><gom:speed>0.0</gom:speed></extensions></trkpt>
   <trkpt lat="59.0554655224" lon="29.9625632562"><ele>101.624</ele><time>2026-04-25T12:53:59.000Z</time><hdop>4.687</hdop><vdop>4.687</vdop><extensions><gom:speed>0.0</gom:speed></extensions></trkpt>
   <trkpt lat="59.0554655224" lon="29.9625632562"><ele>101.624</ele><time>2026-04-25T12:54:00.000Z</time><hdop>4.687</hdop><vdop>4.687</vdop><extensions><gom:speed>0.0</gom:speed></extensions></trkpt>
   <trkpt lat="59.0554655224" lon="29.9625632562"><ele>101.624</ele><time>2026-04-25T12:54:01.000Z</time><hdop>4.687</hdop><vdop>4.687</vdop><extensions><gom:speed>0.0</gom:speed></extensions></trkpt>
   <trkpt lat="59.0554655224" lon="29.9625632562"><ele>101.624</ele><time>2026-04-25T12:54:02.000Z</time><hdop>4.687</hdop><vdop>4.687</vdop><extensions><gom:speed>0.0</gom:speed></extensions></trkpt>
   <trkpt lat="59.0554655224" lon="29.9625632562"><ele>101.624</ele><time>2026-04-25T12:54:03.000Z</time><hdop>4.687</hdop><vdop>4.687</vdop><extensions><gom:speed>0.0</gom:speed></extensions></trkpt>
   <trkpt lat="59.0554655224" lon="29.9625632562"><ele>101.624</ele><time>2026-04-25T12:54:04.000Z</time><hdop>4.687</hdop><vdop>4.687</vdop><extensions><gom:speed>0.0</gom:speed></extensions></trkpt>
   <trkpt lat="59.0554655224" lon="29.9625632562"><ele>101.624</ele><time>2026-04-25T12:54:05.000Z</time><hdop>4.687</hdop><vdop>4.687</vdop><extensions><gom:speed>0.0</gom:speed></extensions></trkpt>
   <trkpt lat="59.0554655224" lon="29.9625632562"><ele>101.624</ele><time>2026-04-25T12:54:06.000Z</time><hdop>4.687</hdop><vdop>4.687</vdop><extensions><gom:speed>0.0</gom:speed></extensions></trkpt>
   <trkpt lat="59.0554655224" lon="29.9625632562"><ele>101.624</ele><time>2026-04-25T12:54:07.000Z</time><hdop>4.687</hdop><vdop>4.687</vdop><extensions><gom:speed>0.0</gom:speed></extensions></trkpt>
   <trkpt lat="59.0554655224" lon="29.9625632562"><ele>101.624</ele><time>2026-04-25T12:54:08.000Z</time><hdop>4.687</hdop><vdop>4.687</vdop><extensions><gom:speed>0.0</gom:speed></extensions></trkpt>
   <trkpt lat="59.0554655224" lon="29.9625632562"><ele>101.624</ele><time>2026-04-25T12:54:09.000Z</time><hdop>4.687</hdop><vdop>4.687</vdop><extensions><gom:speed>0.0</gom:speed></extensions></trkpt>
   <trkpt lat="59.0554655224" lon="29.9625632562"><ele>101.624</ele><time>2026-04-25T12:54:10.000Z</time><hdop>4.687</hdop><vdop>4.687</vdop><extensions><gom:speed>0.0</gom:speed></extensions></trkpt>
   <trkpt lat="59.0554655224" lon="29.9625632562"><ele>101.624</ele><time>2026-04-25T12:54:11.000Z</time><hdop>4.687</hdop><vdop>4.687</vdop><extensions><gom:speed>0.0</gom:speed></extensions></trkpt>
   <trkpt lat="59.0554655224" lon="29.9625632562"><ele>101.624</ele><time>2026-04-25T12:54:12.000Z</time><hdop>4.687</hdop><vdop>4.687</vdop><extensions><gom:speed>0.0</gom:speed></extensions></trkpt>
   <trkpt lat="59.0554655224" lon="29.9625632562"><ele>101.624</ele><time>2026-04-25T12:54:13.000Z</time><hdop>4.687</hdop><vdop>4.687</vdop><extensions><gom:speed>0.0</gom:speed></extensions></trkpt>
   <trkpt lat="59.0554655224" lon="29.9625632562"><ele>101.624</ele><time>2026-04-25T12:54:14.000Z</time><hdop>4.687</hdop><vdop>4.687</vdop><extensions><gom:speed>0.0</gom:speed></extensions></trkpt>
   <trkpt lat="59.0554655224" lon="29.9625632562"><ele>101.624</ele><time>2026-04-25T12:54:14.000Z</time><hdop>4.687</hdop><vdop>4.687</vdop><extensions><gom:speed>0.0</gom:speed></extensions></trkpt>
   <trkpt lat="59.0554655224" lon="29.9625632562"><ele>101.624</ele><time>2026-04-25T12:54:15.000Z</time><hdop>4.687</hdop><vdop>4.687</vdop><extensions><gom:speed>0.0</gom:speed></extensions></trkpt>
   <trkpt lat="59.0554655224" lon="29.9625632562"><ele>101.624</ele><time>2026-04-25T12:54:16.000Z</time><hdop>4.687</hdop><vdop>4.687</vdop><extensions><gom:speed>0.0</gom:speed></extensions></trkpt>
   <trkpt lat="59.0554655224" lon="29.9625632562"><ele>101.624</ele><time>2026-04-25T12:54:17.000Z</time><hdop>4.687</hdop><vdop>4.687</vdop><extensions><gom:speed>0.0</gom:speed></extensions></trkpt>
   <trkpt lat="59.0554655224" lon="29.9625632562"><ele>101.624</ele><time>2026-04-25T12:54:18.000Z</time><hdop>4.687</hdop><vdop>4.687</vdop><extensions><gom:speed>0.0</gom:speed></extensions></trkpt>
   <trkpt lat="59.0554655224" lon="29.9625632562"><ele>101.624</ele><time>2026-04-25T12:54:19.000Z</time><hdop>4.687</hdop><vdop>4.687</vdop><extensions><gom:speed>0.0</gom:speed></extensions></trkpt>
   <trkpt lat="59.0554655224" lon="29.9625632562"><ele>101.624</ele><time>2026-04-25T12:54:20.000Z</time><hdop>4.687</hdop><vdop>4.687</vdop><extensions><gom:speed>0.0</gom:speed></extensions></trkpt>
   <trkpt lat="59.0554655224" lon="29.9625632562"><ele>101.624</ele><time>2026-04-25T12:54:21.000Z</time><hdop>4.687</hdop><vdop>4.687</vdop><extensions><gom:speed>0.0</gom:speed></extensions></trkpt>
   <trkpt lat="59.0554655224" lon="29.9625632562"><ele>101.624</ele><time>2026-04-25T12:54:22.000Z</time><hdop>4.687</hdop><vdop>4.687</vdop><extensions><gom:speed>0.0</gom:speed></extensions></trkpt>
   <trkpt lat="59.0554655224" lon="29.9625632562"><ele>101.624</ele><time>2026-04-25T12:54:23.000Z</time><hdop>4.687</hdop><vdop>4.687</vdop><extensions><gom:speed>0.0</gom:speed></extensions></trkpt>
   <trkpt lat="59.0554655224" lon="29.9625632562"><ele>101.624</ele><time>2026-04-25T12:54:24.000Z</time><hdop>4.687</hdop><vdop>4.687</vdop><extensions><gom:speed>0.0</gom:speed></extensions></trkpt>
   <trkpt lat="59.0554655224" lon="29.9625632562"><ele>101.624</ele><time>2026-04-25T12:54:25.000Z</time><hdop>4.687</hdop><vdop>4.687</vdop><extensions><gom:speed>0.0</gom:speed></extensions></trkpt>
   <trkpt lat="59.0554655224" lon="29.9625632562"><ele>101.624</ele><time>2026-04-25T12:54:26.000Z</time><hdop>4.687</hdop><vdop>4.687</vdop><extensions><gom:speed>0.0</gom:speed></extensions></trkpt>
   <trkpt lat="59.0554655224" lon="29.9625632562"><ele>101.624</ele><time>2026-04-25T12:54:27.000Z</time><hdop>4.687</hdop><vdop>4.687</vdop><extensions><gom:speed>0.0</gom:speed></extensions></trkpt>
   <trkpt lat="59.0554655224" lon="29.9625632562"><ele>101.624</ele><time>2026-04-25T12:54:28.000Z</time><hdop>4.687</hdop><vdop>4.687</vdop><extensions><gom:speed>0.0</gom:speed></extensions></trkpt>
   <trkpt lat="59.0554655224" lon="29.9625632562"><ele>101.624</ele><time>2026-04-25T12:54:29.000Z</time><hdop>4.687</hdop><vdop>4.687</vdop><extensions><gom:speed>0.0</gom:speed></extensions></trkpt>
   <trkpt lat="59.0554655224" lon="29.9625632562"><ele>101.624</ele><time>2026-04-25T12:54:30.000Z</time><hdop>4.687</hdop><vdop>4.687</vdop><extensions><gom:speed>0.0</gom:speed></extensions></trkpt>
   <trkpt lat="59.0554655224" lon="29.9625632562"><ele>101.624</ele><time>2026-04-25T12:54:31.000Z</time><hdop>4.687</hdop><vdop>4.687</vdop><extensions><gom:speed>0.0</gom:speed></extensions></trkpt>
   <trkpt lat="59.0554655224" lon="29.9625632562"><ele>101.624</ele><time>2026-04-25T12:54:32.000Z</time><hdop>4.687</hdop><vdop>4.687</vdop><extensions><gom:speed>0.0</gom:speed></extensions></trkpt>
   <trkpt lat="59.0554655224" lon="29.9625632562"><ele>101.624</ele><time>2026-04-25T12:54:33.000Z</time><hdop>4.687</hdop><vdop>4.687</vdop><extensions><gom:speed>0.0</gom:speed></extensions></trkpt>
   <trkpt lat="59.0554655224" lon="29.9625632562"><ele>101.624</ele><time>2026-04-25T12:54:34.000Z</time><hdop>4.687</hdop><vdop>4.687</vdop><extensions><gom:speed>0.0</gom:speed></extensions></trkpt>
   <trkpt lat="59.0554655224" lon="29.9625632562"><ele>101.624</ele><time>2026-04-25T12:54:34.000Z</time><hdop>4.687</hdop><vdop>4.687</vdop><extensions><gom:speed>0.0</gom:speed></extensions></trkpt>
   <trkpt lat="59.0554655224" lon="29.9625632562"><ele>101.624</ele><time>2026-04-25T12:54:35.000Z</time><hdop>4.687</hdop><vdop>4.687</vdop><extensions><gom:speed>0.0</gom:speed></extensions></trkpt>
   <trkpt lat="59.0554655224" lon="29.9625632562"><ele>101.624</ele><time>2026-04-25T12:54:36.000Z</time><hdop>4.687</hdop><vdop>4.687</vdop><extensions><gom:speed>0.0</gom:speed></extensions></trkpt>
   <trkpt lat="59.0554655224" lon="29.9625632562"><ele>101.624</ele><time>2026-04-25T12:54:37.000Z</time><hdop>4.687</hdop><vdop>4.687</vdop><extensions><gom:speed>0.0</gom:speed></extensions></trkpt>
   <trkpt lat="59.0554655224" lon="29.9625632562"><ele>101.624</ele><time>2026-04-25T12:54:38.000Z</time><hdop>4.687</hdop><vdop>4.687</vdop><extensions><gom:speed>0.0</gom:speed></extensions></trkpt>
   <trkpt lat="59.0554655224" lon="29.9625632562"><ele>101.624</ele><time>2026-04-25T12:54:39.000Z</time><hdop>4.687</hdop><vdop>4.687</vdop><extensions><gom:speed>0.0</gom:speed></extensions></trkpt>
   <trkpt lat="59.0554655224" lon="29.9625632562"><ele>101.624</ele><time>2026-04-25T12:54:40.000Z</time><hdop>4.687</hdop><vdop>4.687</vdop><extensions><gom:speed>0.0</gom:speed></extensions></trkpt>
   <trkpt lat="59.0554655224" lon="29.9625632562"><ele>101.624</ele><time>2026-04-25T12:54:41.000Z</time><hdop>4.687</hdop><vdop>4.687</vdop><extensions><gom:speed>0.0</gom:speed></extensions></trkpt>
   <trkpt lat="59.0554655224" lon="29.9625632562"><ele>101.624</ele><time>2026-04-25T12:54:42.000Z</time><hdop>4.687</hdop><vdop>4.687</vdop><extensions><gom:speed>0.0</gom:speed></extensions></trkpt>
   <trkpt lat="59.0554655224" lon="29.9625632562"><ele>101.624</ele><time>2026-04-25T12:54:43.000Z</time><hdop>4.687</hdop><vdop>4.687</vdop><extensions><gom:speed>0.0</gom:speed></extensions></trkpt>
   <trkpt lat="59.0554655224" lon="29.9625632562"><ele>101.624</ele><time>2026-04-25T12:54:44.000Z</time><hdop>4.687</hdop><vdop>4.687</vdop><extensions><gom:speed>0.0</gom:speed></extensions></trkpt>
   <trkpt lat="59.0554655224" lon="29.9625632562"><ele>101.624</ele><time>2026-04-25T12:54:45.000Z</time><hdop>4.687</hdop><vdop>4.687</vdop><extensions><gom:speed>0.0</gom:speed></extensions></trkpt>
   <trkpt lat="59.0554655224" lon="29.9625632562"><ele>101.624</ele><time>2026-04-25T12:54:46.000Z</time><hdop>4.687</hdop><vdop>4.687</vdop><extensions><gom:speed>0.0</gom:speed></extensions></trkpt>
   <trkpt lat="59.0554655224" lon="29.9625632562"><ele>101.624</ele><time>2026-04-25T12:54:47.000Z</time><hdop>4.687</hdop><vdop>4.687</vdop><extensions><gom:speed>0.0</gom:speed></extensions></trkpt>
   <trkpt lat="59.0554655224" lon="29.9625632562"><ele>101.624</ele><time>2026-04-25T12:54:48.000Z</time><hdop>4.687</hdop><vdop>4.687</vdop><extensions><gom:speed>0.0</gom:speed></extensions></trkpt>
   <trkpt lat="59.0554655224" lon="29.9625632562"><ele>101.624</ele><time>2026-04-25T12:54:49.000Z</time><hdop>4.687</hdop><vdop>4.687</vdop><extensions><gom:speed>0.0</gom:speed></extensions></trkpt>
   <trkpt lat="59.0554655224" lon="29.9625632562"><ele>101.624</ele><time>2026-04-25T12:54:50.000Z</time><hdop>4.687</hdop><vdop>4.687</vdop><extensions><gom:speed>0.0</gom:speed></extensions></trkpt>
   <trkpt lat="59.0554655224" lon="29.9625632562"><ele>101.624</ele><time>2026-04-25T12:54:51.000Z</time><hdop>4.687</hdop><vdop>4.687</vdop><extensions><gom:speed>0.0</gom:speed></extensions></trkpt>
   <trkpt lat="59.0554655224" lon="29.9625632562"><ele>101.624</ele><time>2026-04-25T12:54:52.000Z</time><hdop>4.687</hdop><vdop>4.687</vdop><extensions><gom:speed>0.0</gom:speed></extensions></trkpt>
   <trkpt lat="59.0554655224" lon="29.9625632562"><ele>101.624</ele><time>2026-04-25T12:54:53.000Z</time><hdop>4.687</hdop><vdop>4.687</vdop><extensions><gom:speed>0.0</gom:speed></extensions></trkpt>
   <trkpt lat="59.0554655224" lon="29.9625632562"><ele>101.624</ele><time>2026-04-25T12:54:54.000Z</time><hdop>4.687</hdop><vdop>4.687</vdop><extensions><gom:speed>0.0</gom:speed></extensions></trkpt>
   <trkpt lat="59.0554655224" lon="29.9625632562"><ele>101.624</ele><time>2026-04-25T12:54:54.000Z</time><hdop>4.687</hdop><vdop>4.687</vdop><extensions><gom:speed>0.0</gom:speed></extensions></trkpt>
   <trkpt lat="59.0554655224" lon="29.9625632562"><ele>101.624</ele><time>2026-04-25T12:54:55.000Z</time><hdop>4.687</hdop><vdop>4.687</vdop><extensions><gom:speed>0.0</gom:speed></extensions></trkpt>
   <trkpt lat="59.0554655224" lon="29.9625632562"><ele>101.624</ele><time>2026-04-25T12:54:56.000Z</time><hdop>4.687</hdop><vdop>4.687</vdop><extensions><gom:speed>0.0</gom:speed></extensions></trkpt>
   <trkpt lat="59.0554655224" lon="29.9625632562"><ele>101.624</ele><time>2026-04-25T12:54:57.000Z</time><hdop>4.687</hdop><vdop>4.687</vdop><extensions><gom:speed>0.0</gom:speed></extensions></trkpt>
   <trkpt lat="59.0554655224" lon="29.9625632562"><ele>101.624</ele><time>2026-04-25T12:54:58.000Z</time><hdop>4.687</hdop><vdop>4.687</vdop><extensions><gom:speed>0.0</gom:speed></extensions></trkpt>
   <trkpt lat="59.0554655224" lon="29.9625632562"><ele>101.624</ele><time>2026-04-25T12:54:59.000Z</time><hdop>4.687</hdop><vdop>4.687</vdop><extensions><gom:speed>0.0</gom:speed></extensions></trkpt>
   <trkpt lat="59.0554655224" lon="29.9625632562"><ele>101.624</ele><time>2026-04-25T12:55:00.000Z</time><hdop>4.687</hdop><vdop>4.687</vdop><extensions><gom:speed>0.0</gom:speed></extensions></trkpt>
   <trkpt lat="59.0554655224" lon="29.9625632562"><ele>101.624</ele><time>2026-04-25T12:55:01.000Z</time><hdop>4.687</hdop><vdop>4.687</vdop><extensions><gom:speed>0.0</gom:speed></extensions></trkpt>
   <trkpt lat="59.0554655224" lon="29.9625632562"><ele>101.624</ele><time>2026-04-25T12:55:02.000Z</time><hdop>4.687</hdop><vdop>4.687</vdop><extensions><gom:speed>0.0</gom:speed></extensions></trkpt>
   <trkpt lat="59.0554655224" lon="29.9625632562"><ele>101.624</ele><time>2026-04-25T12:55:03.000Z</time><hdop>4.687</hdop><vdop>4.687</vdop><extensions><gom:speed>0.0</gom:speed></extensions></trkpt>
   <trkpt lat="59.0554655224" lon="29.9625632562"><ele>101.624</ele><time>2026-04-25T12:55:04.000Z</time><hdop>4.687</hdop><vdop>4.687</vdop><extensions><gom:speed>0.0</gom:speed></extensions></trkpt>
   <trkpt lat="59.0554655224" lon="29.9625632562"><ele>101.624</ele><time>2026-04-25T12:55:05.000Z</time><hdop>4.687</hdop><vdop>4.687</vdop><extensions><gom:speed>0.0</gom:speed></extensions></trkpt>
   <trkpt lat="59.0554655224" lon="29.9625632562"><ele>101.624</ele><time>2026-04-25T12:55:06.000Z</time><hdop>4.687</hdop><vdop>4.687</vdop><extensions><gom:speed>0.0</gom:speed></extensions></trkpt>
   <trkpt lat="59.0554655224" lon="29.9625632562"><ele>101.624</ele><time>2026-04-25T12:55:07.000Z</time><hdop>4.687</hdop><vdop>4.687</vdop><extensions><gom:speed>0.0</gom:speed></extensions></trkpt>
   <trkpt lat="59.0554655224" lon="29.9625632562"><ele>101.624</ele><time>2026-04-25T12:55:08.000Z</time><hdop>4.687</hdop><vdop>4.687</vdop><extensions><gom:speed>0.0</gom:speed></extensions></trkpt>
   <trkpt lat="59.0554655224" lon="29.9625632562"><ele>101.624</ele><time>2026-04-25T12:55:09.000Z</time><hdop>4.687</hdop><vdop>4.687</vdop><extensions><gom:speed>0.0</gom:speed></extensions></trkpt>
   <trkpt lat="59.0554655224" lon="29.9625632562"><ele>101.624</ele><time>2026-04-25T12:55:10.000Z</time><hdop>4.687</hdop><vdop>4.687</vdop><extensions><gom:speed>0.0</gom:speed></extensions></trkpt>
   <trkpt lat="59.0554655224" lon="29.9625632562"><ele>101.624</ele><time>2026-04-25T12:55:11.000Z</time><hdop>4.687</hdop><vdop>4.687</vdop><extensions><gom:speed>0.0</gom:speed></extensions></trkpt>
   <trkpt lat="59.0554655224" lon="29.9625632562"><ele>101.624</ele><time>2026-04-25T12:55:12.000Z</time><hdop>4.687</hdop><vdop>4.687</vdop><extensions><gom:speed>0.0</gom:speed></extensions></trkpt>
   <trkpt lat="59.0554655224" lon="29.9625632562"><ele>101.624</ele><time>2026-04-25T12:55:13.000Z</time><hdop>4.687</hdop><vdop>4.687</vdop><extensions><gom:speed>0.0</gom:speed></extensions></trkpt>
   <trkpt lat="59.0554655224" lon="29.9625632562"><ele>101.624</ele><time>2026-04-25T12:55:14.000Z</time><hdop>4.687</hdop><vdop>4.687</vdop><extensions><gom:speed>0.0</gom:speed></extensions></trkpt>
   <trkpt lat="59.0554655224" lon="29.9625632562"><ele>101.624</ele><time>2026-04-25T12:55:14.000Z</time><hdop>4.687</hdop><vdop>4.687</vdop><extensions><gom:speed>0.0</gom:speed></extensions></trkpt>
   <trkpt lat="59.0554655224" lon="29.9625632562"><ele>101.624</ele><time>2026-04-25T12:55:15.000Z</time><hdop>4.687</hdop><vdop>4.687</vdop><extensions><gom:speed>0.0</gom:speed></extensions></trkpt>
   <trkpt lat="59.0554655224" lon="29.9625632562"><ele>101.624</ele><time>2026-04-25T12:55:16.000Z</time><hdop>4.687</hdop><vdop>4.687</vdop><extensions><gom:speed>0.0</gom:speed></extensions></trkpt>
   <trkpt lat="59.0554655224" lon="29.9625632562"><ele>101.624</ele><time>2026-04-25T12:55:17.000Z</time><hdop>4.687</hdop><vdop>4.687</vdop><extensions><gom:speed>0.0</gom:speed></extensions></trkpt>
   <trkpt lat="59.0554655224" lon="29.9625632562"><ele>101.624</ele><time>2026-04-25T12:55:18.000Z</time><hdop>4.687</hdop><vdop>4.687</vdop><extensions><gom:speed>0.0</gom:speed></extensions></trkpt>
   <trkpt lat="59.0554655224" lon="29.9625632562"><ele>101.624</ele><time>2026-04-25T12:55:19.000Z</time><hdop>4.687</hdop><vdop>4.687</vdop><extensions><gom:speed>0.0</gom:speed></extensions></trkpt>
   <trkpt lat="59.0554655224" lon="29.9625632562"><ele>101.624</ele><time>2026-04-25T12:55:20.000Z</time><hdop>4.687</hdop><vdop>4.687</vdop><extensions><gom:speed>0.0</gom:speed></extensions></trkpt>
   <trkpt lat="59.0554655224" lon="29.9625632562"><ele>101.624</ele><time>2026-04-25T12:55:21.000Z</time><hdop>4.687</hdop><vdop>4.687</vdop><extensions><gom:speed>0.0</gom:speed></extensions></trkpt>
   <trkpt lat="59.0554655224" lon="29.9625632562"><ele>101.624</ele><time>2026-04-25T12:55:22.000Z</time><hdop>4.687</hdop><vdop>4.687</vdop><extensions><gom:speed>0.0</gom:speed></extensions></trkpt>
   <trkpt lat="59.0554655224" lon="29.9625632562"><ele>101.624</ele><time>2026-04-25T12:55:23.000Z</time><hdop>4.687</hdop><vdop>4.687</vdop><extensions><gom:speed>0.0</gom:speed></extensions></trkpt>
   <trkpt lat="59.0554655224" lon="29.9625632562"><ele>101.624</ele><time>2026-04-25T12:55:24.000Z</time><hdop>4.687</hdop><vdop>4.687</vdop><extensions><gom:speed>0.0</gom:speed></extensions></trkpt>
   <trkpt lat="59.0554655224" lon="29.9625632562"><ele>101.624</ele><time>2026-04-25T12:55:25.000Z</time><hdop>4.687</hdop><vdop>4.687</vdop><extensions><gom:speed>0.0</gom:speed></extensions></trkpt>
   <trkpt lat="59.0554655224" lon="29.9625632562"><ele>101.624</ele><time>2026-04-25T12:55:26.000Z</time><hdop>4.687</hdop><vdop>4.687</vdop><extensions><gom:speed>0.0</gom:speed></extensions></trkpt>
   <trkpt lat="59.0554655224" lon="29.9625632562"><ele>101.624</ele><time>2026-04-25T12:55:27.000Z</time><hdop>4.687</hdop><vdop>4.687</vdop><extensions><gom:speed>0.0</gom:speed></extensions></trkpt>
   <trkpt lat="59.0554655224" lon="29.9625632562"><ele>101.624</ele><time>2026-04-25T12:55:28.000Z</time><hdop>4.687</hdop><vdop>4.687</vdop><extensions><gom:speed>0.0</gom:speed></extensions></trkpt>
   <trkpt lat="59.0554655224" lon="29.9625632562"><ele>101.624</ele><time>2026-04-25T12:55:29.000Z</time><hdop>4.687</hdop><vdop>4.687</vdop><extensions><gom:speed>0.0</gom:speed></extensions></trkpt>
   <trkpt lat="59.0554655224" lon="29.9625632562"><ele>101.624</ele><time>2026-04-25T12:55:30.000Z</time><hdop>4.687</hdop><vdop>4.687</vdop><extensions><gom:speed>0.0</gom:speed></extensions></trkpt>
   <trkpt lat="59.0554655224" lon="29.9625632562"><ele>101.624</ele><time>2026-04-25T12:55:31.000Z</time><hdop>4.687</hdop><vdop>4.687</vdop><extensions><gom:speed>0.0</gom:speed></extensions></trkpt>
   <trkpt lat="59.0554655224" lon="29.9625632562"><ele>101.624</ele><time>2026-04-25T12:55:32.000Z</time><hdop>4.687</hdop><vdop>4.687</vdop><extensions><gom:speed>0.0</gom:speed></extensions></trkpt>
   <trkpt lat="59.0554655224" lon="29.9625632562"><ele>101.624</ele><time>2026-04-25T12:55:33.000Z</time><hdop>4.687</hdop><vdop>4.687</vdop><extensions><gom:speed>0.0</gom:speed></extensions></trkpt>
   <trkpt lat="59.0554655224" lon="29.9625632562"><ele>101.624</ele><time>2026-04-25T12:55:34.000Z</time><hdop>4.687</hdop><vdop>4.687</vdop><extensions><gom:speed>0.0</gom:speed></extensions></trkpt>
   <trkpt lat="59.0554655224" lon="29.9625632562"><ele>101.624</ele><time>2026-04-25T12:55:34.000Z</time><hdop>4.687</hdop><vdop>4.687</vdop><extensions><gom:speed>0.0</gom:speed></extensions></trkpt>
   <trkpt lat="59.0554655224" lon="29.9625632562"><ele>101.624</ele><time>2026-04-25T12:55:35.000Z</time><hdop>4.687</hdop><vdop>4.687</vdop><extensions><gom:speed>0.0</gom:speed></extensions></trkpt>
   <trkpt lat="59.0554655224" lon="29.9625632562"><ele>101.624</ele><time>2026-04-25T12:55:36.000Z</time><hdop>4.687</hdop><vdop>4.687</vdop><extensions><gom:speed>0.0</gom:speed></extensions></trkpt>
   <trkpt lat="59.0554655224" lon="29.9625632562"><ele>101.624</ele><time>2026-04-25T12:55:37.000Z</time><hdop>4.687</hdop><vdop>4.687</vdop><extensions><gom:speed>0.0</gom:speed></extensions></trkpt>
   <trkpt lat="59.0554655224" lon="29.9625632562"><ele>101.624</ele><time>2026-04-25T12:55:38.000Z</time><hdop>4.687</hdop><vdop>4.687</vdop><extensions><gom:speed>0.0</gom:speed></extensions></trkpt>
   <trkpt lat="59.0554655224" lon="29.9625632562"><ele>101.624</ele><time>2026-04-25T12:55:39.000Z</time><hdop>4.687</hdop><vdop>4.687</vdop><extensions><gom:speed>0.0</gom:speed></extensions></trkpt>
   <trkpt lat="59.0554655224" lon="29.9625632562"><ele>101.624</ele><time>2026-04-25T12:55:40.000Z</time><hdop>4.687</hdop><vdop>4.687</vdop><extensions><gom:speed>0.0</gom:speed></extensions></trkpt>
   <trkpt lat="59.0554655224" lon="29.9625632562"><ele>101.624</ele><time>2026-04-25T12:55:41.000Z</time><hdop>4.687</hdop><vdop>4.687</vdop><extensions><gom:speed>0.0</gom:speed></extensions></trkpt>
   <trkpt lat="59.0554655224" lon="29.9625632562"><ele>101.624</ele><time>2026-04-25T12:55:42.000Z</time><hdop>4.687</hdop><vdop>4.687</vdop><extensions><gom:speed>0.0</gom:speed></extensions></trkpt>
   <trkpt lat="59.0554655224" lon="29.9625632562"><ele>101.624</ele><time>2026-04-25T12:55:43.000Z</time><hdop>4.687</hdop><vdop>4.687</vdop><extensions><gom:speed>0.0</gom:speed></extensions></trkpt>
   <trkpt lat="59.0554655224" lon="29.9625632562"><ele>101.624</ele><time>2026-04-25T12:55:44.000Z</time><hdop>4.687</hdop><vdop>4.687</vdop><extensions><gom:speed>0.0</gom:speed></extensions></trkpt>
   <trkpt lat="59.0554655224" lon="29.9625632562"><ele>101.624</ele><time>2026-04-25T12:55:45.000Z</time><hdop>4.687</hdop><vdop>4.687</vdop><extensions><gom:speed>0.0</gom:speed></extensions></trkpt>
   <trkpt lat="59.0554655224" lon="29.9625632562"><ele>101.624</ele><time>2026-04-25T12:55:46.000Z</time><hdop>4.687</hdop><vdop>4.687</vdop><extensions><gom:speed>0.0</gom:speed></extensions></trkpt>
   <trkpt lat="59.0554655224" lon="29.9625632562"><ele>101.624</ele><time>2026-04-25T12:55:47.000Z</time><hdop>4.687</hdop><vdop>4.687</vdop><extensions><gom:speed>0.0</gom:speed></extensions></trkpt>
   <trkpt lat="59.0554655224" lon="29.9625632562"><ele>101.624</ele><time>2026-04-25T12:55:48.000Z</time><hdop>4.687</hdop><vdop>4.687</vdop><extensions><gom:speed>0.0</gom:speed></extensions></trkpt>
   <trkpt lat="59.0554655224" lon="29.9625632562"><ele>101.624</ele><time>2026-04-25T12:55:49.000Z</time><hdop>4.687</hdop><vdop>4.687</vdop><extensions><gom:speed>0.0</gom:speed></extensions></trkpt>
   <trkpt lat="59.0554655224" lon="29.9625632562"><ele>101.624</ele><time>2026-04-25T12:55:50.000Z</time><hdop>4.687</hdop><vdop>4.687</vdop><extensions><gom:speed>0.0</gom:speed></extensions></trkpt>
   <trkpt lat="59.0554655224" lon="29.9625632562"><ele>101.624</ele><time>2026-04-25T12:55:51.000Z</time><hdop>4.687</hdop><vdop>4.687</vdop><extensions><gom:speed>0.0</gom:speed></extensions></trkpt>
   <trkpt lat="59.0554655224" lon="29.9625632562"><ele>101.624</ele><time>2026-04-25T12:55:52.000Z</time><hdop>4.687</hdop><vdop>4.687</vdop><extensions><gom:speed>0.0</gom:speed></extensions></trkpt>
   <trkpt lat="59.0554647261" lon="29.9625608255"><ele>101.642</ele><time>2026-04-25T12:55:53.000Z</time><hdop>4.5</hdop><vdop>4.5</vdop><extensions><gom:speed>0.222</gom:speed></extensions></trkpt>
   <trkpt lat="59.0554651871" lon="29.9625565507"><ele>101.706</ele><time>2026-04-25T12:55:54.000Z</time><hdop>4.625</hdop><vdop>4.625</vdop><extensions><gom:speed>0.192</gom:speed></extensions></trkpt>
   <trkpt lat="59.0554651871" lon="29.9625565507"><ele>101.744</ele><time>2026-04-25T12:55:54.000Z</time><hdop>4.625</hdop><vdop>4.625</vdop><extensions><gom:speed>0.192</gom:speed></extensions></trkpt>
   <trkpt lat="59.0554651871" lon="29.9625565507"><ele>101.767</ele><time>2026-04-25T12:55:55.000Z</time><hdop>4.625</hdop><vdop>4.625</vdop><extensions><gom:speed>0.0</gom:speed></extensions></trkpt>
   <trkpt lat="59.0554651871" lon="29.9625565507"><ele>101.781</ele><time>2026-04-25T12:55:56.000Z</time><hdop>4.625</hdop><vdop>4.625</vdop><extensions><gom:speed>0.0</gom:speed></extensions></trkpt>
   <trkpt lat="59.0554651871" lon="29.9625565507"><ele>101.789</ele><time>2026-04-25T12:55:57.000Z</time><hdop>4.625</hdop><vdop>4.625</vdop><extensions><gom:speed>0.0</gom:speed></extensions></trkpt>
   <trkpt lat="59.0554651871" lon="29.9625565507"><ele>101.794</ele><time>2026-04-25T12:55:58.000Z</time><hdop>4.625</hdop><vdop>4.625</vdop><extensions><gom:speed>0.0</gom:speed></extensions></trkpt>
   <trkpt lat="59.0554651871" lon="29.9625565507"><ele>101.797</ele><time>2026-04-25T12:55:59.000Z</time><hdop>4.625</hdop><vdop>4.625</vdop><extensions><gom:speed>0.0</gom:speed></extensions></trkpt>
   <trkpt lat="59.0554651871" lon="29.9625565507"><ele>101.798</ele><time>2026-04-25T12:56:00.000Z</time><hdop>4.625</hdop><vdop>4.625</vdop><extensions><gom:speed>0.0</gom:speed></extensions></trkpt>
   <trkpt lat="59.0554651871" lon="29.9625565507"><ele>101.799</ele><time>2026-04-25T12:56:01.000Z</time><hdop>4.625</hdop><vdop>4.625</vdop><extensions><gom:speed>0.0</gom:speed></extensions></trkpt>
   <trkpt lat="59.0554651871" lon="29.9625565507"><ele>101.8</ele><time>2026-04-25T12:56:02.000Z</time><hdop>4.625</hdop><vdop>4.625</vdop><extensions><gom:speed>0.0</gom:speed></extensions></trkpt>
   <trkpt lat="59.0554651871" lon="29.9625565507"><ele>101.8</ele><time>2026-04-25T12:56:03.000Z</time><hdop>4.625</hdop><vdop>4.625</vdop><extensions><gom:speed>0.0</gom:speed></extensions></trkpt>
   <trkpt lat="59.0554651871" lon="29.9625565507"><ele>101.801</ele><time>2026-04-25T12:56:04.000Z</time><hdop>4.625</hdop><vdop>4.625</vdop><extensions><gom:speed>0.0</gom:speed></extensions></trkpt>
   <trkpt lat="59.0554651871" lon="29.9625565507"><ele>101.801</ele><time>2026-04-25T12:56:05.000Z</time><hdop>4.625</hdop><vdop>4.625</vdop><extensions><gom:speed>0.0</gom:speed></extensions></trkpt>
   <trkpt lat="59.0554651871" lon="29.9625565507"><ele>101.801</ele><time>2026-04-25T12:56:06.000Z</time><hdop>4.625</hdop><vdop>4.625</vdop><extensions><gom:speed>0.0</gom:speed></extensions></trkpt>
   <trkpt lat="59.0554651871" lon="29.9625565507"><ele>101.801</ele><time>2026-04-25T12:56:07.000Z</time><hdop>4.625</hdop><vdop>4.625</vdop><extensions><gom:speed>0.0</gom:speed></extensions></trkpt>
   <trkpt lat="59.0554651871" lon="29.9625565507"><ele>101.801</ele><time>2026-04-25T12:56:08.000Z</time><hdop>4.625</hdop><vdop>4.625</vdop><extensions><gom:speed>0.0</gom:speed></extensions></trkpt>
   <trkpt lat="59.0554651871" lon="29.9625565507"><ele>101.801</ele><time>2026-04-25T12:56:09.000Z</time><hdop>4.625</hdop><vdop>4.625</vdop><extensions><gom:speed>0.0</gom:speed></extensions></trkpt>
   <trkpt lat="59.0554651871" lon="29.9625565507"><ele>101.801</ele><time>2026-04-25T12:56:10.000Z</time><hdop>4.625</hdop><vdop>4.625</vdop><extensions><gom:speed>0.0</gom:speed></extensions></trkpt>
   <trkpt lat="59.0554651871" lon="29.9625565507"><ele>101.801</ele><time>2026-04-25T12:56:11.000Z</time><hdop>4.625</hdop><vdop>4.625</vdop><extensions><gom:speed>0.0</gom:speed></extensions></trkpt>
   <trkpt lat="59.0554651871" lon="29.9625565507"><ele>101.801</ele><time>2026-04-25T12:56:12.000Z</time><hdop>4.625</hdop><vdop>4.625</vdop><extensions><gom:speed>0.0</gom:speed></extensions></trkpt>
   <trkpt lat="59.0554651871" lon="29.9625565507"><ele>101.801</ele><time>2026-04-25T12:56:13.000Z</time><hdop>4.625</hdop><vdop>4.625</vdop><extensions><gom:speed>0.0</gom:speed></extensions></trkpt>
   <trkpt lat="59.0554651871" lon="29.9625565507"><ele>101.801</ele><time>2026-04-25T12:56:14.000Z</time><hdop>4.625</hdop><vdop>4.625</vdop><extensions><gom:speed>0.0</gom:speed></extensions></trkpt>
   <trkpt lat="59.0554651871" lon="29.9625565507"><ele>101.801</ele><time>2026-04-25T12:56:15.000Z</time><hdop>4.625</hdop><vdop>4.625</vdop><extensions><gom:speed>0.0</gom:speed></extensions></trkpt>
   <trkpt lat="59.0554651871" lon="29.9625565507"><ele>101.801</ele><time>2026-04-25T12:56:16.000Z</time><hdop>4.625</hdop><vdop>4.625</vdop><extensions><gom:speed>0.0</gom:speed></extensions></trkpt>
   <trkpt lat="59.0554651871" lon="29.9625565507"><ele>101.801</ele><time>2026-04-25T12:56:17.000Z</time><hdop>4.625</hdop><vdop>4.625</vdop><extensions><gom:speed>0.0</gom:speed></extensions></trkpt>
   <trkpt lat="59.0554651871" lon="29.9625565507"><ele>101.801</ele><time>2026-04-25T12:56:18.000Z</time><hdop>4.625</hdop><vdop>4.625</vdop><extensions><gom:speed>0.0</gom:speed></extensions></trkpt>
   <trkpt lat="59.0554651871" lon="29.9625565507"><ele>101.801</ele><time>2026-04-25T12:56:19.000Z</time><hdop>4.625</hdop><vdop>4.625</vdop><extensions><gom:speed>0.0</gom:speed></extensions></trkpt>
   <trkpt lat="59.0554436037" lon="29.9624921777"><ele>101.8</ele><time>2026-04-25T12:57:04.379Z</time><hdop>8.5</hdop><vdop>8.5</vdop><extensions><gom:speed>0.932</gom:speed></extensions></trkpt>
   <trkpt lat="59.0555111619" lon="29.9625701294"><ele>102.674</ele><time>2026-04-25T12:57:05.379Z</time><hdop>9.437</hdop><vdop>9.437</vdop><extensions><gom:speed>0.388</gom:speed></extensions></trkpt>
   <trkpt lat="59.0554832501" lon="29.9625370209"><ele>102.712</ele><time>2026-04-25T12:57:06.379Z</time><hdop>8.25</hdop><vdop>8.25</vdop><extensions><gom:speed>0.083</gom:speed></extensions></trkpt>
   <trkpt lat="59.0512399955" lon="29.9639399838"><ele>61.372</ele><time>2026-04-25T12:58:07.178Z</time><hdop>4095.937</hdop><vdop>0.0</vdop><extensions><gom:speed>0.0</gom:speed></extensions></trkpt>
   <trkpt lat="59.055379105" lon="29.9625406251"><ele>78.625</ele><time>2026-04-25T12:58:08.252Z</time><hdop>4.812</hdop><vdop>4.812</vdop><extensions><gom:speed>0.194</gom:speed></extensions></trkpt>
   <trkpt lat="59.0554936018" lon="29.96265135"><ele>88.883</ele><time>2026-04-25T12:58:09.252Z</time><hdop>4.687</hdop><vdop>4.687</vdop><extensions><gom:speed>0.066</gom:speed></extensions></trkpt>
   <trkpt lat="59.0554159435" lon="29.9625992146"><ele>95.137</ele><time>2026-04-25T12:58:10.252Z</time><hdop>4.687</hdop><vdop>4.687</vdop><extensions><gom:speed>0.481</gom:speed></extensions></trkpt>
   <trkpt lat="59.0512399955" lon="29.9639399838"><ele>56.846</ele><time>2026-04-25T12:58:57.771Z</time><hdop>4095.937</hdop><vdop>0.0</vdop><extensions><gom:speed>0.0</gom:speed></extensions></trkpt>
   <trkpt lat="59.0555126706" lon="29.9626276292"><ele>74.72</ele><time>2026-04-25T12:58:58.000Z</time><hdop>4.687</hdop><vdop>4.687</vdop><extensions><gom:speed>0.04</gom:speed></extensions></trkpt>
   <trkpt lat="59.0554890756" lon="29.9625861388"><ele>85.072</ele><time>2026-04-25T12:58:59.000Z</time><hdop>4.687</hdop><vdop>4.687</vdop><extensions><gom:speed>0.109</gom:speed></extensions></trkpt>
   <trkpt lat="59.055487483" lon="29.9625821155"><ele>92.635</ele><time>2026-04-25T12:59:00.000Z</time><hdop>4.875</hdop><vdop>4.875</vdop><extensions><gom:speed>0.286</gom:speed></extensions></trkpt>
   <trkpt lat="59.0554814899" lon="29.9625762482"><ele>97.751</ele><time>2026-04-25T12:59:01.000Z</time><hdop>4.875</hdop><vdop>4.875</vdop><extensions><gom:speed>0.074</gom:speed></extensions></trkpt>
   <trkpt lat="59.0554785563" lon="29.9625643459"><ele>100.927</ele><time>2026-04-25T12:59:02.000Z</time><hdop>4.875</hdop><vdop>4.875</vdop><extensions><gom:speed>0.097</gom:speed></extensions></trkpt>
   <trkpt lat="59.0554806937" lon="29.9625607416"><ele>102.979</ele><time>2026-04-25T12:59:03.000Z</time><hdop>4.875</hdop><vdop>4.875</vdop><extensions><gom:speed>0.113</gom:speed></extensions></trkpt>
   <trkpt lat="59.0554780534" lon="29.9625342548"><ele>104.324</ele><time>2026-04-25T12:59:04.000Z</time><hdop>4.875</hdop><vdop>4.875</vdop><extensions><gom:speed>0.044</gom:speed></extensions></trkpt>
   <trkpt lat="59.055481909" lon="29.9625309021"><ele>105.171</ele><time>2026-04-25T12:59:05.000Z</time><hdop>4.875</hdop><vdop>4.875</vdop><extensions><gom:speed>0.104</gom:speed></extensions></trkpt>
   <trkpt lat="59.0554808194" lon="29.9625257053"><ele>105.493</ele><time>2026-04-25T12:59:06.000Z</time><hdop>4.875</hdop><vdop>4.875</vdop><extensions><gom:speed>0.256</gom:speed></extensions></trkpt>
   <trkpt lat="59.0554792268" lon="29.9625225202"><ele>105.885</ele><time>2026-04-25T12:59:07.000Z</time><hdop>4.875</hdop><vdop>4.875</vdop><extensions><gom:speed>0.194</gom:speed></extensions></trkpt>
   <trkpt lat="59.055476377" lon="29.962530483"><ele>105.868</ele><time>2026-04-25T12:59:08.000Z</time><hdop>4.687</hdop><vdop>4.687</vdop><extensions><gom:speed>0.145</gom:speed></extensions></trkpt>
   <trkpt lat="59.0554760836" lon="29.9625308182"><ele>105.616</ele><time>2026-04-25T12:59:09.000Z</time><hdop>4.25</hdop><vdop>4.25</vdop><extensions><gom:speed>0.19</gom:speed></extensions></trkpt>
   <trkpt lat="59.0554763351" lon="29.9625306506"><ele>105.402</ele><time>2026-04-25T12:59:10.000Z</time><hdop>4.125</hdop><vdop>4.125</vdop><extensions><gom:speed>0.053</gom:speed></extensions></trkpt>
   <trkpt lat="59.0554762093" lon="29.9625307344"><ele>105.405</ele><time>2026-04-25T12:59:11.000Z</time><hdop>4.125</hdop><vdop>4.125</vdop><extensions><gom:speed>0.11</gom:speed></extensions></trkpt>
   <trkpt lat="59.0554758322" lon="29.9625307344"><ele>105.402</ele><time>2026-04-25T12:59:12.000Z</time><hdop>4.0</hdop><vdop>4.0</vdop><extensions><gom:speed>0.02</gom:speed></extensions></trkpt>
   <trkpt lat="59.0554757902" lon="29.9625279684"><ele>105.101</ele><time>2026-04-25T12:59:13.000Z</time><hdop>3.812</hdop><vdop>3.812</vdop><extensions><gom:speed>0.083</gom:speed></extensions></trkpt>
   <trkpt lat="59.0554763351" lon="29.9625262082"><ele>104.877</ele><time>2026-04-25T12:59:14.000Z</time><hdop>3.625</hdop><vdop>3.625</vdop><extensions><gom:speed>0.091</gom:speed></extensions></trkpt>
   <trkpt lat="59.0554770475" lon="29.962520257"><ele>104.631</ele><time>2026-04-25T12:59:15.000Z</time><hdop>3.437</hdop><vdop>3.437</vdop><extensions><gom:speed>0.147</gom:speed></extensions></trkpt>
   <trkpt lat="59.0554770475" lon="29.962520257"><ele>104.484</ele><time>2026-04-25T12:59:16.000Z</time><hdop>3.437</hdop><vdop>3.437</vdop><extensions><gom:speed>0.0</gom:speed></extensions></trkpt>
   <trkpt lat="59.0554770475" lon="29.962520257"><ele>104.397</ele><time>2026-04-25T12:59:17.000Z</time><hdop>3.437</hdop><vdop>3.437</vdop><extensions><gom:speed>0.0</gom:speed></extensions></trkpt>
   <trkpt lat="59.0554770475" lon="29.962520257"><ele>104.344</ele><time>2026-04-25T12:59:18.000Z</time><hdop>3.437</hdop><vdop>3.437</vdop><extensions><gom:speed>0.0</gom:speed></extensions></trkpt>
  </trkseg>
 </trk>
</gpx>